<?xml version='1.0' encoding='UTF-8'?><gpx version="1.1" creator="JPX - https://github.com/jenetics/jpx" xmlns="http://www.topografix.com/GPX/1/1"><trk><trkseg><trkpt lat="44.7278084323438" lon="7.822492008325601"><ele>330.00000000000006</ele><time>2026-04-10T06:37:18Z</time></trkpt><trkpt lat="44.72780516187963" lon="7.822382864614054"><ele>330.0</ele><time>2026-04-10T06:37:25Z</time></trkpt><trkpt lat="44.727825902475516" lon="7.822274243473567"><ele>330.0</ele><time>2026-04-10T06:37:30Z</time></trkpt><trkpt lat="44.72784855465983" lon="7.822181408480397"><ele>330.0</ele><time>2026-04-10T06:37:48Z</time></trkpt><trkpt lat="44.7279040858999" lon="7.822110006937005"><ele>330.0</ele><time>2026-04-10T06:37:57.999Z</time></trkpt><trkpt lat="44.72787558057983" lon="7.822022259789248"><ele>330.00000000000006</ele><time>2026-04-10T06:38:27.999Z</time></trkpt><trkpt lat="44.72781376653055" lon="7.821963215190658"><ele>330.0</ele><time>2026-04-10T06:40:45.999Z</time></trkpt><trkpt lat="44.72776519042841" lon="7.821895914596902"><ele>328.3333333333333</ele><time>2026-04-10T06:40:53.999Z</time></trkpt><trkpt lat="44.72770906090315" lon="7.821839954246288"><ele>326.6666666666667</ele><time>2026-04-10T06:41:05Z</time></trkpt><trkpt lat="44.727670723337965" lon="7.821741918949273"><ele>325.0</ele><time>2026-04-10T06:41:11Z</time></trkpt><trkpt lat="44.72769427710275" lon="7.821657049349226"><ele>323.33333333333337</ele><time>2026-04-10T06:41:13Z</time></trkpt><trkpt lat="44.72776707870616" lon="7.8215847470221"><ele>321.6666666666667</ele><time>2026-04-10T06:41:15Z</time></trkpt><trkpt lat="44.72783112314767" lon="7.821525664330662"><ele>320.0</ele><time>2026-04-10T06:41:17Z</time></trkpt><trkpt lat="44.72789777796237" lon="7.821480081175979"><ele>319.33333333333337</ele><time>2026-04-10T06:41:19Z</time></trkpt><trkpt lat="44.72796725559935" lon="7.821452426326993"><ele>318.6666666666667</ele><time>2026-04-10T06:41:21Z</time></trkpt><trkpt lat="44.7280875618957" lon="7.821434552595253"><ele>318.0</ele><time>2026-04-10T06:41:24Z</time></trkpt><trkpt lat="44.72817770635769" lon="7.821423965503095"><ele>317.3333333333333</ele><time>2026-04-10T06:41:26Z</time></trkpt><trkpt lat="44.72825831956456" lon="7.821412627124274"><ele>316.66666666666663</ele><time>2026-04-10T06:41:28Z</time></trkpt><trkpt lat="44.72833955826543" lon="7.821402991770362"><ele>316.0</ele><time>2026-04-10T06:41:31Z</time></trkpt><trkpt lat="44.728411302914445" lon="7.8213731530562125"><ele>316.0</ele><time>2026-04-10T06:41:33Z</time></trkpt><trkpt lat="44.7284941008774" lon="7.821323480071883"><ele>316.0</ele><time>2026-04-10T06:41:35Z</time></trkpt><trkpt lat="44.72858604835429" lon="7.821243675474212"><ele>316.0</ele><time>2026-04-10T06:41:37Z</time></trkpt><trkpt lat="44.72866630545563" lon="7.821155156680284"><ele>316.0</ele><time>2026-04-10T06:41:39Z</time></trkpt><trkpt lat="44.72875876777742" lon="7.821053815137424"><ele>316.0</ele><time>2026-04-10T06:41:41Z</time></trkpt><trkpt lat="44.72882331334112" lon="7.820952663857456"><ele>316.3333333333333</ele><time>2026-04-10T06:41:43Z</time></trkpt><trkpt lat="44.72886614513927" lon="7.8208553421542035"><ele>316.66666666666663</ele><time>2026-04-10T06:41:45Z</time></trkpt><trkpt lat="44.728899625999574" lon="7.820725761404317"><ele>317.0</ele><time>2026-04-10T06:41:48Z</time></trkpt><trkpt lat="44.72891891170599" lon="7.820616563588469"><ele>317.3333333333333</ele><time>2026-04-10T06:41:50Z</time></trkpt><trkpt lat="44.728975999363" lon="7.8205189070847645"><ele>317.6666666666667</ele><time>2026-04-10T06:41:52Z</time></trkpt><trkpt lat="44.729031263078575" lon="7.820413385449559"><ele>318.0</ele><time>2026-04-10T06:41:54Z</time></trkpt><trkpt lat="44.729070488603845" lon="7.820296318262297"><ele>318.0</ele><time>2026-04-10T06:41:56Z</time></trkpt><trkpt lat="44.72904549223133" lon="7.820165342928042"><ele>318.0</ele><time>2026-04-10T06:41:58Z</time></trkpt><trkpt lat="44.728928686396834" lon="7.820121849390425"><ele>318.0</ele><time>2026-04-10T06:42:00Z</time></trkpt><trkpt lat="44.72882405484643" lon="7.820083198577509"><ele>318.0</ele><time>2026-04-10T06:42:02Z</time></trkpt><trkpt lat="44.728705326618616" lon="7.8200488109868616"><ele>318.0</ele><time>2026-04-10T06:42:03.999Z</time></trkpt><trkpt lat="44.72858665923151" lon="7.820011148009794"><ele>313.8333333333333</ele><time>2026-04-10T06:42:05.999Z</time></trkpt><trkpt lat="44.72846568669205" lon="7.819981309162378"><ele>309.6666666666667</ele><time>2026-04-10T06:42:07.999Z</time></trkpt><trkpt lat="44.72839804636083" lon="7.8199677536798715"><ele>305.5</ele><time>2026-04-10T06:42:08.999Z</time></trkpt><trkpt lat="44.72833254559064" lon="7.819940805703765"><ele>301.33333333333337</ele><time>2026-04-10T06:42:09.999Z</time></trkpt><trkpt lat="44.72826011289958" lon="7.819922903111036"><ele>297.1666666666667</ele><time>2026-04-10T06:42:10.999Z</time></trkpt><trkpt lat="44.728175487422455" lon="7.819906912333345"><ele>293.0</ele><time>2026-04-10T06:42:11.999Z</time></trkpt><trkpt lat="44.728099745055665" lon="7.819884995814678"><ele>293.0</ele><time>2026-04-10T06:42:12.999Z</time></trkpt><trkpt lat="44.72799422618186" lon="7.81986821087591"><ele>293.0</ele><time>2026-04-10T06:42:14.999Z</time></trkpt><trkpt lat="44.727896295718466" lon="7.8198443258981944"><ele>293.0</ele><time>2026-04-10T06:42:16.999Z</time></trkpt><trkpt lat="44.72779112363999" lon="7.819844563509578"><ele>293.0</ele><time>2026-04-10T06:42:18.999Z</time></trkpt><trkpt lat="44.727689066985924" lon="7.819917891654313"><ele>293.0</ele><time>2026-04-10T06:42:20.999Z</time></trkpt><trkpt lat="44.727599834669284" lon="7.819989438006337"><ele>293.2</ele><time>2026-04-10T06:42:22.999Z</time></trkpt><trkpt lat="44.72749523480292" lon="7.820030982371188"><ele>293.4</ele><time>2026-04-10T06:42:24.999Z</time></trkpt><trkpt lat="44.727400572753226" lon="7.820115572600794"><ele>293.59999999999997</ele><time>2026-04-10T06:42:26.999Z</time></trkpt><trkpt lat="44.7273245486136" lon="7.820176728342892"><ele>293.8</ele><time>2026-04-10T06:42:28.999Z</time></trkpt><trkpt lat="44.72726714252629" lon="7.8202229073100895"><ele>294.0</ele><time>2026-04-10T06:42:30.999Z</time></trkpt><trkpt lat="44.72720681899045" lon="7.82013104889765"><ele>292.0</ele><time>2026-04-10T06:42:31.999Z</time></trkpt><trkpt lat="44.72717702464779" lon="7.820049164481576"><ele>290.0</ele><time>2026-04-10T06:42:32.999Z</time></trkpt><trkpt lat="44.72710684501619" lon="7.8199050401464545"><ele>288.0</ele><time>2026-04-10T06:42:34.999Z</time></trkpt><trkpt lat="44.72705944736328" lon="7.819836492594412"><ele>286.0</ele><time>2026-04-10T06:42:35.999Z</time></trkpt><trkpt lat="44.72698088938336" lon="7.819707025414579"><ele>284.0</ele><time>2026-04-10T06:42:37.999Z</time></trkpt><trkpt lat="44.72693687135319" lon="7.819642869131154"><ele>282.0</ele><time>2026-04-10T06:42:38.999Z</time></trkpt><trkpt lat="44.72689153861751" lon="7.819578755563901"><ele>281.4</ele><time>2026-04-10T06:42:39.999Z</time></trkpt><trkpt lat="44.726825028733344" lon="7.81945211342475"><ele>280.79999999999995</ele><time>2026-04-10T06:42:41.999Z</time></trkpt><trkpt lat="44.72676282347469" lon="7.819339744218191"><ele>280.2</ele><time>2026-04-10T06:42:43.999Z</time></trkpt><trkpt lat="44.72670397328077" lon="7.819217122984171"><ele>279.59999999999997</ele><time>2026-04-10T06:42:45.999Z</time></trkpt><trkpt lat="44.726624244528246" lon="7.81911407980223"><ele>279.0</ele><time>2026-04-10T06:42:47.999Z</time></trkpt><trkpt lat="44.726539305127396" lon="7.818989945876284"><ele>278.59999999999997</ele><time>2026-04-10T06:42:49.999Z</time></trkpt><trkpt lat="44.72646156760158" lon="7.8188834303849655"><ele>278.2</ele><time>2026-04-10T06:42:51.999Z</time></trkpt><trkpt lat="44.72639414528388" lon="7.818753388989637"><ele>277.79999999999995</ele><time>2026-04-10T06:42:53.999Z</time></trkpt><trkpt lat="44.726327795754706" lon="7.818627614995607"><ele>277.4</ele><time>2026-04-10T06:42:55.999Z</time></trkpt><trkpt lat="44.72625744512791" lon="7.818522628340789"><ele>277.0</ele><time>2026-04-10T06:42:57.999Z</time></trkpt><trkpt lat="44.726193205469926" lon="7.81840515273963"><ele>276.6</ele><time>2026-04-10T06:42:59.999Z</time></trkpt><trkpt lat="44.72612670525454" lon="7.8182925193592965"><ele>276.2</ele><time>2026-04-10T06:43:01.999Z</time></trkpt><trkpt lat="44.72606562347779" lon="7.8181767268291535"><ele>275.8</ele><time>2026-04-10T06:43:03.999Z</time></trkpt><trkpt lat="44.72600146131553" lon="7.818068676771153"><ele>275.4</ele><time>2026-04-10T06:43:05.999Z</time></trkpt><trkpt lat="44.72593840781676" lon="7.817956709059719"><ele>275.0</ele><time>2026-04-10T06:43:07.999Z</time></trkpt><trkpt lat="44.72587897677758" lon="7.81784924877187"><ele>275.0</ele><time>2026-04-10T06:43:10Z</time></trkpt><trkpt lat="44.72581394924847" lon="7.817738256889029"><ele>275.0</ele><time>2026-04-10T06:43:12Z</time></trkpt><trkpt lat="44.72576798330982" lon="7.817623900015085"><ele>275.0</ele><time>2026-04-10T06:43:14Z</time></trkpt><trkpt lat="44.72560474623744" lon="7.817707158910653"><ele>275.0</ele><time>2026-04-10T06:43:17Z</time></trkpt><trkpt lat="44.72552885954255" lon="7.817789141070692"><ele>275.0</ele><time>2026-04-10T06:43:19Z</time></trkpt><trkpt lat="44.725450716673855" lon="7.817872215650674"><ele>275.0</ele><time>2026-04-10T06:43:21Z</time></trkpt><trkpt lat="44.72537719341812" lon="7.8179534772780706"><ele>275.0</ele><time>2026-04-10T06:43:23Z</time></trkpt><trkpt lat="44.725293025287336" lon="7.818035817817039"><ele>275.0</ele><time>2026-04-10T06:43:25Z</time></trkpt><trkpt lat="44.72520752155332" lon="7.818116685614956"><ele>275.0</ele><time>2026-04-10T06:43:27Z</time></trkpt><trkpt lat="44.7251345634366" lon="7.818179412353786"><ele>274.6</ele><time>2026-04-10T06:43:29Z</time></trkpt><trkpt lat="44.725051328171396" lon="7.818255872638589"><ele>274.2</ele><time>2026-04-10T06:43:31Z</time></trkpt><trkpt lat="44.724969185461745" lon="7.818335249932109"><ele>273.8</ele><time>2026-04-10T06:43:33Z</time></trkpt><trkpt lat="44.72488048490591" lon="7.818415879834743"><ele>273.4</ele><time>2026-04-10T06:43:35Z</time></trkpt><trkpt lat="44.72479860962905" lon="7.818502273057421"><ele>273.0</ele><time>2026-04-10T06:43:37Z</time></trkpt><trkpt lat="44.72471137746366" lon="7.818585363547905"><ele>273.0</ele><time>2026-04-10T06:43:39Z</time></trkpt><trkpt lat="44.72462705779592" lon="7.818682669718091"><ele>273.0</ele><time>2026-04-10T06:43:41Z</time></trkpt><trkpt lat="44.72454053853822" lon="7.818769527896783"><ele>273.0</ele><time>2026-04-10T06:43:43Z</time></trkpt><trkpt lat="44.72445131123923" lon="7.8188447580625375"><ele>273.0</ele><time>2026-04-10T06:43:45Z</time></trkpt><trkpt lat="44.72437003665472" lon="7.818936807300172"><ele>273.0</ele><time>2026-04-10T06:43:47Z</time></trkpt><trkpt lat="44.724285540128946" lon="7.819016035904828"><ele>273.0</ele><time>2026-04-10T06:43:49Z</time></trkpt><trkpt lat="44.724206364828426" lon="7.819107019210054"><ele>273.0</ele><time>2026-04-10T06:43:51Z</time></trkpt><trkpt lat="44.72413157386997" lon="7.819185056593467"><ele>273.0</ele><time>2026-04-10T06:43:53Z</time></trkpt><trkpt lat="44.724055637763215" lon="7.819262238652319"><ele>273.0</ele><time>2026-04-10T06:43:55Z</time></trkpt><trkpt lat="44.72397785565375" lon="7.819336907503549"><ele>273.0</ele><time>2026-04-10T06:43:57Z</time></trkpt><trkpt lat="44.72390602720949" lon="7.81941077011133"><ele>273.0</ele><time>2026-04-10T06:43:59Z</time></trkpt><trkpt lat="44.723833667160136" lon="7.819489302210359"><ele>273.0</ele><time>2026-04-10T06:44:00.999Z</time></trkpt><trkpt lat="44.723757641544715" lon="7.8195638484006995"><ele>273.0</ele><time>2026-04-10T06:44:02.999Z</time></trkpt><trkpt lat="44.723684825295635" lon="7.819634927189697"><ele>273.0</ele><time>2026-04-10T06:44:04.999Z</time></trkpt><trkpt lat="44.72361218897017" lon="7.81970718368564"><ele>273.0</ele><time>2026-04-10T06:44:06.999Z</time></trkpt><trkpt lat="44.723532522972704" lon="7.819784773033603"><ele>273.0</ele><time>2026-04-10T06:44:08.999Z</time></trkpt><trkpt lat="44.723464056999546" lon="7.819863500678307"><ele>273.0</ele><time>2026-04-10T06:44:10.999Z</time></trkpt><trkpt lat="44.72339508211924" lon="7.819932991690368"><ele>273.0</ele><time>2026-04-10T06:44:12.999Z</time></trkpt><trkpt lat="44.72333110958802" lon="7.820014988828159"><ele>273.0</ele><time>2026-04-10T06:44:14.999Z</time></trkpt><trkpt lat="44.72326957307623" lon="7.820090586301939"><ele>273.0</ele><time>2026-04-10T06:44:16.999Z</time></trkpt><trkpt lat="44.72318930589633" lon="7.820158584701845"><ele>273.0</ele><time>2026-04-10T06:44:18.999Z</time></trkpt><trkpt lat="44.723124416180944" lon="7.820235389014674"><ele>273.1666666666667</ele><time>2026-04-10T06:44:20.999Z</time></trkpt><trkpt lat="44.7230626362567" lon="7.8203069327329615"><ele>273.3333333333333</ele><time>2026-04-10T06:44:22.999Z</time></trkpt><trkpt lat="44.7229872541813" lon="7.820377550649121"><ele>273.5</ele><time>2026-04-10T06:44:24.999Z</time></trkpt><trkpt lat="44.72292302530038" lon="7.820445741657491"><ele>273.66666666666663</ele><time>2026-04-10T06:44:26.999Z</time></trkpt><trkpt lat="44.722854648437924" lon="7.82051683626324"><ele>273.8333333333333</ele><time>2026-04-10T06:44:28.999Z</time></trkpt><trkpt lat="44.722796360722334" lon="7.820599538675382"><ele>274.0</ele><time>2026-04-10T06:44:30.999Z</time></trkpt><trkpt lat="44.722733997975034" lon="7.820673033112904"><ele>274.3333333333333</ele><time>2026-04-10T06:44:32.999Z</time></trkpt><trkpt lat="44.72267200548137" lon="7.82074743600598"><ele>274.66666666666663</ele><time>2026-04-10T06:44:34.999Z</time></trkpt><trkpt lat="44.72261529318928" lon="7.820813234833111"><ele>275.0</ele><time>2026-04-10T06:44:36.999Z</time></trkpt><trkpt lat="44.7225457023648" lon="7.820826784718721"><ele>275.3333333333333</ele><time>2026-04-10T06:44:39.999Z</time></trkpt><trkpt lat="44.722513304924064" lon="7.82071715764669"><ele>275.6666666666667</ele><time>2026-04-10T06:44:42.999Z</time></trkpt><trkpt lat="44.722468596627664" lon="7.820600093695787"><ele>276.0</ele><time>2026-04-10T06:44:45.999Z</time></trkpt><trkpt lat="44.72242508687972" lon="7.820511190875296"><ele>276.0</ele><time>2026-04-10T06:44:47.999Z</time></trkpt><trkpt lat="44.722382363513226" lon="7.820411244223271"><ele>276.0</ele><time>2026-04-10T06:44:49.999Z</time></trkpt><trkpt lat="44.722343217415876" lon="7.820314045148854"><ele>276.0</ele><time>2026-04-10T06:44:51.999Z</time></trkpt><trkpt lat="44.72230289415076" lon="7.8202086600212875"><ele>276.0</ele><time>2026-04-10T06:44:53.999Z</time></trkpt><trkpt lat="44.72226566263442" lon="7.820101534956523"><ele>276.0</ele><time>2026-04-10T06:44:55.999Z</time></trkpt><trkpt lat="44.722221886481286" lon="7.820019138399756"><ele>276.0</ele><time>2026-04-10T06:44:57.999Z</time></trkpt><trkpt lat="44.722180314242486" lon="7.819916392271351"><ele>275.57142857142856</ele><time>2026-04-10T06:44:59.999Z</time></trkpt><trkpt lat="44.72214219951137" lon="7.819821266349943"><ele>275.14285714285717</ele><time>2026-04-10T06:45:01.999Z</time></trkpt><trkpt lat="44.72210216058725" lon="7.819724765512279"><ele>274.7142857142857</ele><time>2026-04-10T06:45:03.999Z</time></trkpt><trkpt lat="44.7220725892295" lon="7.8196442466978535"><ele>274.2857142857143</ele><time>2026-04-10T06:45:05.999Z</time></trkpt><trkpt lat="44.722040286239064" lon="7.819563789956579"><ele>273.8571428571429</ele><time>2026-04-10T06:45:07.999Z</time></trkpt><trkpt lat="44.7219909421091" lon="7.819469671666643"><ele>273.42857142857144</ele><time>2026-04-10T06:45:10.999Z</time></trkpt><trkpt lat="44.72195028896441" lon="7.819383861005415"><ele>273.0</ele><time>2026-04-10T06:45:12.999Z</time></trkpt><trkpt lat="44.72191808134213" lon="7.819285765412206"><ele>272.6666666666667</ele><time>2026-04-10T06:45:15Z</time></trkpt><trkpt lat="44.72188536049973" lon="7.81918944723174"><ele>272.3333333333333</ele><time>2026-04-10T06:45:17Z</time></trkpt><trkpt lat="44.721841603891725" lon="7.819119520953931"><ele>272.0</ele><time>2026-04-10T06:46:56.999Z</time></trkpt><trkpt lat="44.721805933751305" lon="7.819012967071301"><ele>271.66666666666663</ele><time>2026-04-10T06:47:00.999Z</time></trkpt><trkpt lat="44.72180191072496" lon="7.8188931192765985"><ele>271.3333333333333</ele><time>2026-04-10T06:47:02.999Z</time></trkpt><trkpt lat="44.721762475897634" lon="7.818772480860351"><ele>271.0</ele><time>2026-04-10T06:47:04.999Z</time></trkpt><trkpt lat="44.721722608010744" lon="7.8186472817769275"><ele>271.0</ele><time>2026-04-10T06:47:06.999Z</time></trkpt><trkpt lat="44.72168825998392" lon="7.818514870728316"><ele>271.0</ele><time>2026-04-10T06:47:08.999Z</time></trkpt><trkpt lat="44.72165055983521" lon="7.8183799768504425"><ele>271.0</ele><time>2026-04-10T06:47:10.999Z</time></trkpt><trkpt lat="44.72162576669329" lon="7.818237795541929"><ele>271.0</ele><time>2026-04-10T06:47:12.999Z</time></trkpt><trkpt lat="44.721599349817936" lon="7.818101556252886"><ele>271.0</ele><time>2026-04-10T06:47:14.999Z</time></trkpt><trkpt lat="44.72156737228929" lon="7.817967553975889"><ele>271.0</ele><time>2026-04-10T06:47:16.999Z</time></trkpt><trkpt lat="44.72153781363572" lon="7.817833429632882"><ele>271.0</ele><time>2026-04-10T06:47:18.999Z</time></trkpt><trkpt lat="44.721507500301385" lon="7.817695914104361"><ele>271.0</ele><time>2026-04-10T06:47:21Z</time></trkpt><trkpt lat="44.721476606666315" lon="7.817559396874932"><ele>271.0</ele><time>2026-04-10T06:47:23Z</time></trkpt><trkpt lat="44.72143798039313" lon="7.81742990803462"><ele>271.0</ele><time>2026-04-10T06:47:25Z</time></trkpt><trkpt lat="44.721398534212575" lon="7.817294485266604"><ele>270.40000000000003</ele><time>2026-04-10T06:47:27Z</time></trkpt><trkpt lat="44.721358981186754" lon="7.817161801994081"><ele>269.8</ele><time>2026-04-10T06:47:29Z</time></trkpt><trkpt lat="44.72132500774414" lon="7.817019574613013"><ele>269.20000000000005</ele><time>2026-04-10T06:47:31Z</time></trkpt><trkpt lat="44.7212592760919" lon="7.81689989197134"><ele>268.6</ele><time>2026-04-10T06:47:33Z</time></trkpt><trkpt lat="44.72121755315927" lon="7.816757340318388"><ele>268.0</ele><time>2026-04-10T06:47:35Z</time></trkpt><trkpt lat="44.72116245335838" lon="7.816625730046476"><ele>268.0</ele><time>2026-04-10T06:47:37Z</time></trkpt><trkpt lat="44.72110947178326" lon="7.816496054685424"><ele>268.0</ele><time>2026-04-10T06:47:39Z</time></trkpt><trkpt lat="44.721055680414224" lon="7.816364397242445"><ele>268.0</ele><time>2026-04-10T06:47:41Z</time></trkpt><trkpt lat="44.72098781052731" lon="7.81624700190515"><ele>268.0</ele><time>2026-04-10T06:47:43Z</time></trkpt><trkpt lat="44.72093852409547" lon="7.816114820041791"><ele>268.0</ele><time>2026-04-10T06:47:45Z</time></trkpt><trkpt lat="44.72090828631722" lon="7.815965150845421"><ele>267.8</ele><time>2026-04-10T06:47:47Z</time></trkpt><trkpt lat="44.72087456959353" lon="7.815822032280919"><ele>267.6</ele><time>2026-04-10T06:47:49Z</time></trkpt><trkpt lat="44.72084795274503" lon="7.815680672337931"><ele>267.4</ele><time>2026-04-10T06:47:51Z</time></trkpt><trkpt lat="44.720824443427375" lon="7.815534319385146"><ele>267.2</ele><time>2026-04-10T06:47:53Z</time></trkpt><trkpt lat="44.72080407422075" lon="7.815384493155853"><ele>267.0</ele><time>2026-04-10T06:47:55Z</time></trkpt><trkpt lat="44.72078570450649" lon="7.815234152844837"><ele>267.4</ele><time>2026-04-10T06:47:57Z</time></trkpt><trkpt lat="44.72077023484088" lon="7.815081838126722"><ele>267.79999999999995</ele><time>2026-04-10T06:47:59Z</time></trkpt><trkpt lat="44.72075624077785" lon="7.814940524266081"><ele>268.2</ele><time>2026-04-10T06:48:01Z</time></trkpt><trkpt lat="44.72074162038881" lon="7.814792885591413"><ele>268.59999999999997</ele><time>2026-04-10T06:48:03Z</time></trkpt><trkpt lat="44.720726937553636" lon="7.814644616249594"><ele>269.0</ele><time>2026-04-10T06:48:05Z</time></trkpt><trkpt lat="44.72070961779203" lon="7.814498191037241"><ele>269.0</ele><time>2026-04-10T06:48:07Z</time></trkpt><trkpt lat="44.72068086330638" lon="7.814345675500564"><ele>269.0</ele><time>2026-04-10T06:48:09Z</time></trkpt><trkpt lat="44.720642533425796" lon="7.814200157828106"><ele>269.0</ele><time>2026-04-10T06:48:11Z</time></trkpt><trkpt lat="44.72059240581204" lon="7.814058078725064"><ele>269.0</ele><time>2026-04-10T06:48:13Z</time></trkpt><trkpt lat="44.720536708437116" lon="7.813924244587905"><ele>269.0</ele><time>2026-04-10T06:48:15Z</time></trkpt><trkpt lat="44.7204648123156" lon="7.81380713145278"><ele>269.0</ele><time>2026-04-10T06:48:17Z</time></trkpt><trkpt lat="44.72040175919344" lon="7.813677488574927"><ele>269.0</ele><time>2026-04-10T06:48:19Z</time></trkpt><trkpt lat="44.72033531212531" lon="7.813551766391866"><ele>269.0</ele><time>2026-04-10T06:48:21Z</time></trkpt><trkpt lat="44.72028179202027" lon="7.813412394654377"><ele>269.0</ele><time>2026-04-10T06:48:22.999Z</time></trkpt><trkpt lat="44.7202089712161" lon="7.813296317019543"><ele>269.0</ele><time>2026-04-10T06:48:24.999Z</time></trkpt><trkpt lat="44.72012879960954" lon="7.813187359920109"><ele>268.59999999999997</ele><time>2026-04-10T06:48:26.999Z</time></trkpt><trkpt lat="44.7200477980776" lon="7.813082923412082"><ele>268.2</ele><time>2026-04-10T06:48:28.999Z</time></trkpt><trkpt lat="44.71996095761322" lon="7.8129862308496545"><ele>267.79999999999995</ele><time>2026-04-10T06:48:30.999Z</time></trkpt><trkpt lat="44.71987009096564" lon="7.812895119544377"><ele>267.4</ele><time>2026-04-10T06:48:32.999Z</time></trkpt><trkpt lat="44.719779287266476" lon="7.812806616170959"><ele>267.0</ele><time>2026-04-10T06:48:34.999Z</time></trkpt><trkpt lat="44.719685994731314" lon="7.812718855207599"><ele>267.0</ele><time>2026-04-10T06:48:36.999Z</time></trkpt><trkpt lat="44.71959312693905" lon="7.812631492145562"><ele>267.0</ele><time>2026-04-10T06:48:38.999Z</time></trkpt><trkpt lat="44.71950352129062" lon="7.812545387297748"><ele>267.0</ele><time>2026-04-10T06:48:40.999Z</time></trkpt><trkpt lat="44.71940907473308" lon="7.812463019328783"><ele>267.0</ele><time>2026-04-10T06:48:42.999Z</time></trkpt><trkpt lat="44.71932841172312" lon="7.812349094119176"><ele>267.0</ele><time>2026-04-10T06:48:44.999Z</time></trkpt><trkpt lat="44.71924386285239" lon="7.812251617300373"><ele>267.2</ele><time>2026-04-10T06:48:46.999Z</time></trkpt><trkpt lat="44.71915695461724" lon="7.812155733856301"><ele>267.4</ele><time>2026-04-10T06:48:48.999Z</time></trkpt><trkpt lat="44.71907144257444" lon="7.8120617306988835"><ele>267.6</ele><time>2026-04-10T06:48:50.999Z</time></trkpt><trkpt lat="44.718986299277724" lon="7.81196322606539"><ele>267.8</ele><time>2026-04-10T06:48:52.999Z</time></trkpt><trkpt lat="44.71891410536614" lon="7.811861093215146"><ele>268.0</ele><time>2026-04-10T06:48:54.999Z</time></trkpt><trkpt lat="44.71884565668159" lon="7.811746576862273"><ele>268.0</ele><time>2026-04-10T06:48:56.999Z</time></trkpt><trkpt lat="44.718793520115156" lon="7.811611886136742"><ele>268.0</ele><time>2026-04-10T06:48:58.999Z</time></trkpt><trkpt lat="44.71874748155023" lon="7.811477408092951"><ele>268.0</ele><time>2026-04-10T06:49:00.999Z</time></trkpt><trkpt lat="44.71868668396948" lon="7.811353000995534"><ele>268.0</ele><time>2026-04-10T06:49:02.999Z</time></trkpt><trkpt lat="44.71863829011495" lon="7.8112163373702375"><ele>268.0</ele><time>2026-04-10T06:49:04.999Z</time></trkpt><trkpt lat="44.71859131456164" lon="7.811080815998953"><ele>267.4</ele><time>2026-04-10T06:49:06.999Z</time></trkpt><trkpt lat="44.718545195396004" lon="7.810943029095925"><ele>266.8</ele><time>2026-04-10T06:49:08.999Z</time></trkpt><trkpt lat="44.718498934503465" lon="7.810800192173959"><ele>266.2</ele><time>2026-04-10T06:49:10.999Z</time></trkpt><trkpt lat="44.71844840452742" lon="7.810662364909523"><ele>265.6</ele><time>2026-04-10T06:49:12.999Z</time></trkpt><trkpt lat="44.718397905131894" lon="7.810524345951539"><ele>265.0</ele><time>2026-04-10T06:49:14.999Z</time></trkpt><trkpt lat="44.71834370188937" lon="7.8103918711779174"><ele>265.0</ele><time>2026-04-10T06:49:16.999Z</time></trkpt><trkpt lat="44.71828750822388" lon="7.810260530991179"><ele>265.0</ele><time>2026-04-10T06:49:18.999Z</time></trkpt><trkpt lat="44.718240080471524" lon="7.810124699021537"><ele>265.0</ele><time>2026-04-10T06:49:20.999Z</time></trkpt><trkpt lat="44.718172555257446" lon="7.810009236454044"><ele>265.0</ele><time>2026-04-10T06:49:22.999Z</time></trkpt><trkpt lat="44.718098534909046" lon="7.809893233823601"><ele>265.0</ele><time>2026-04-10T06:49:24.999Z</time></trkpt><trkpt lat="44.718025497457276" lon="7.809782148643417"><ele>265.0</ele><time>2026-04-10T06:49:27Z</time></trkpt><trkpt lat="44.71795302559686" lon="7.809671923939391"><ele>265.0</ele><time>2026-04-10T06:49:29Z</time></trkpt><trkpt lat="44.717882052733955" lon="7.809560751130036"><ele>265.0</ele><time>2026-04-10T06:49:31Z</time></trkpt><trkpt lat="44.71781116803797" lon="7.809449783032471"><ele>265.0</ele><time>2026-04-10T06:49:33Z</time></trkpt><trkpt lat="44.71773981886972" lon="7.809338987691126"><ele>265.0</ele><time>2026-04-10T06:49:35Z</time></trkpt><trkpt lat="44.71766528588352" lon="7.809228730283591"><ele>265.8</ele><time>2026-04-10T06:49:37Z</time></trkpt><trkpt lat="44.71757611429584" lon="7.8091305309147305"><ele>266.6</ele><time>2026-04-10T06:49:39Z</time></trkpt><trkpt lat="44.71750151721561" lon="7.8090158896515804"><ele>267.4</ele><time>2026-04-10T06:49:41Z</time></trkpt><trkpt lat="44.71743034758977" lon="7.808906211478578"><ele>268.2</ele><time>2026-04-10T06:49:43Z</time></trkpt><trkpt lat="44.71735560285717" lon="7.808795171848572"><ele>269.0</ele><time>2026-04-10T06:49:45Z</time></trkpt><trkpt lat="44.71729213846225" lon="7.808698651521316"><ele>269.0</ele><time>2026-04-10T06:49:47Z</time></trkpt><trkpt lat="44.71723810929585" lon="7.808593783977263"><ele>269.0</ele><time>2026-04-10T06:49:49Z</time></trkpt><trkpt lat="44.7171784351144" lon="7.808490940413228"><ele>269.0</ele><time>2026-04-10T06:49:51Z</time></trkpt><trkpt lat="44.717109489539006" lon="7.808414291564556"><ele>269.0</ele><time>2026-04-10T06:49:53Z</time></trkpt><trkpt lat="44.71705897026554" lon="7.808331371579164"><ele>269.0</ele><time>2026-04-10T06:49:55Z</time></trkpt><trkpt lat="44.71702894902852" lon="7.80825121589966"><ele>269.0</ele><time>2026-04-10T06:49:57Z</time></trkpt><trkpt lat="44.717100722750885" lon="7.80811886224184"><ele>269.0</ele><time>2026-04-10T06:50:00Z</time></trkpt><trkpt lat="44.71717431495394" lon="7.808047085639552"><ele>269.0</ele><time>2026-04-10T06:50:02Z</time></trkpt><trkpt lat="44.717254409983866" lon="7.807969913192724"><ele>269.0</ele><time>2026-04-10T06:50:04Z</time></trkpt><trkpt lat="44.71733739921125" lon="7.807891739610517"><ele>269.0</ele><time>2026-04-10T06:50:06Z</time></trkpt><trkpt lat="44.71741812669647" lon="7.807811679745057"><ele>269.0</ele><time>2026-04-10T06:50:08Z</time></trkpt><trkpt lat="44.717505388576456" lon="7.8077296800028355"><ele>269.4</ele><time>2026-04-10T06:50:10Z</time></trkpt><trkpt lat="44.71759491599518" lon="7.8076480739519605"><ele>269.79999999999995</ele><time>2026-04-10T06:50:12Z</time></trkpt><trkpt lat="44.71768022302427" lon="7.807565260200743"><ele>270.20000000000005</ele><time>2026-04-10T06:50:14Z</time></trkpt><trkpt lat="44.71776936553899" lon="7.807479159551224"><ele>270.6</ele><time>2026-04-10T06:50:16Z</time></trkpt><trkpt lat="44.717857510282606" lon="7.80739829630358"><ele>271.0</ele><time>2026-04-10T06:50:18Z</time></trkpt><trkpt lat="44.717945036238284" lon="7.80731013721327"><ele>270.2</ele><time>2026-04-10T06:50:20Z</time></trkpt><trkpt lat="44.718023874350294" lon="7.807206807919133"><ele>269.40000000000003</ele><time>2026-04-10T06:50:21.999Z</time></trkpt><trkpt lat="44.718119109598874" lon="7.807135774814998"><ele>268.6</ele><time>2026-04-10T06:50:23.999Z</time></trkpt><trkpt lat="44.71817880392254" lon="7.807011013336748"><ele>267.8</ele><time>2026-04-10T06:50:25.999Z</time></trkpt><trkpt lat="44.71824519110179" lon="7.806895250239793"><ele>267.0</ele><time>2026-04-10T06:50:27.999Z</time></trkpt><trkpt lat="44.71833096705404" lon="7.806892001307963"><ele>267.25</ele><time>2026-04-10T06:50:28.999Z</time></trkpt><trkpt lat="44.71842302505148" lon="7.80680569418914"><ele>267.5</ele><time>2026-04-10T06:50:30.999Z</time></trkpt><trkpt lat="44.718516936333124" lon="7.806714363164781"><ele>267.75</ele><time>2026-04-10T06:50:32.999Z</time></trkpt><trkpt lat="44.718609514517254" lon="7.806627143706105"><ele>268.0</ele><time>2026-04-10T06:50:34.999Z</time></trkpt><trkpt lat="44.71870556496283" lon="7.806534451214285"><ele>268.2</ele><time>2026-04-10T06:50:36.999Z</time></trkpt><trkpt lat="44.71879531225146" lon="7.806436971152901"><ele>268.4</ele><time>2026-04-10T06:50:38.999Z</time></trkpt><trkpt lat="44.718890771381346" lon="7.806342070978224"><ele>268.59999999999997</ele><time>2026-04-10T06:50:40.999Z</time></trkpt><trkpt lat="44.718987144028354" lon="7.806266446883259"><ele>268.8</ele><time>2026-04-10T06:50:42.999Z</time></trkpt><trkpt lat="44.71907629685619" lon="7.806180297977774"><ele>269.0</ele><time>2026-04-10T06:50:44.999Z</time></trkpt><trkpt lat="44.71916458899997" lon="7.806094980815928"><ele>269.0</ele><time>2026-04-10T06:50:46.999Z</time></trkpt><trkpt lat="44.71925054267534" lon="7.806010615436466"><ele>269.0</ele><time>2026-04-10T06:50:48.999Z</time></trkpt><trkpt lat="44.719334191567285" lon="7.80592836323944"><ele>269.0</ele><time>2026-04-10T06:50:50.999Z</time></trkpt><trkpt lat="44.71942194961928" lon="7.805834979180327"><ele>269.0</ele><time>2026-04-10T06:50:52.999Z</time></trkpt><trkpt lat="44.71949868335907" lon="7.805720721008795"><ele>269.0</ele><time>2026-04-10T06:50:54.999Z</time></trkpt><trkpt lat="44.71958181428586" lon="7.8056250342955105"><ele>268.8</ele><time>2026-04-10T06:50:56.999Z</time></trkpt><trkpt lat="44.719661716701125" lon="7.805538284052455"><ele>268.59999999999997</ele><time>2026-04-10T06:50:58.999Z</time></trkpt><trkpt lat="44.719742842144875" lon="7.805432686027419"><ele>268.4</ele><time>2026-04-10T06:51:00.999Z</time></trkpt><trkpt lat="44.719828703707314" lon="7.805341234299653"><ele>268.2</ele><time>2026-04-10T06:51:02.999Z</time></trkpt><trkpt lat="44.7199179128041" lon="7.805241544320281"><ele>268.0</ele><time>2026-04-10T06:51:04.999Z</time></trkpt><trkpt lat="44.720001618916925" lon="7.805142226480378"><ele>267.8</ele><time>2026-04-10T06:51:06.999Z</time></trkpt><trkpt lat="44.720086238587925" lon="7.805046766964043"><ele>267.6</ele><time>2026-04-10T06:51:08.999Z</time></trkpt><trkpt lat="44.72017287113681" lon="7.804940927960419"><ele>267.4</ele><time>2026-04-10T06:51:10.999Z</time></trkpt><trkpt lat="44.72025230057073" lon="7.804840431115017"><ele>267.2</ele><time>2026-04-10T06:51:12.999Z</time></trkpt><trkpt lat="44.72034254581379" lon="7.804738174424471"><ele>267.0</ele><time>2026-04-10T06:51:14.999Z</time></trkpt><trkpt lat="44.72042286661627" lon="7.804631103936113"><ele>266.8</ele><time>2026-04-10T06:51:16.999Z</time></trkpt><trkpt lat="44.72050965896389" lon="7.804535888244559"><ele>266.6</ele><time>2026-04-10T06:51:18.999Z</time></trkpt><trkpt lat="44.72059482403668" lon="7.804437936484648"><ele>266.40000000000003</ele><time>2026-04-10T06:51:20.999Z</time></trkpt><trkpt lat="44.720676379954554" lon="7.804334634252966"><ele>266.2</ele><time>2026-04-10T06:51:22.999Z</time></trkpt><trkpt lat="44.72076107625209" lon="7.8042385815594395"><ele>266.0</ele><time>2026-04-10T06:51:24.999Z</time></trkpt><trkpt lat="44.72084451869481" lon="7.804139443521072"><ele>266.2</ele><time>2026-04-10T06:51:26.999Z</time></trkpt><trkpt lat="44.7209301641744" lon="7.804041326587811"><ele>266.40000000000003</ele><time>2026-04-10T06:51:28.999Z</time></trkpt><trkpt lat="44.72101192293822" lon="7.803946241173959"><ele>266.6</ele><time>2026-04-10T06:51:30.999Z</time></trkpt><trkpt lat="44.72110241429679" lon="7.80384689811771"><ele>266.8</ele><time>2026-04-10T06:51:33Z</time></trkpt><trkpt lat="44.72118757315428" lon="7.803748095368612"><ele>267.0</ele><time>2026-04-10T06:51:35Z</time></trkpt><trkpt lat="44.72127458555564" lon="7.803658515524088"><ele>267.0</ele><time>2026-04-10T06:51:37Z</time></trkpt><trkpt lat="44.72136375024893" lon="7.803564087910702"><ele>267.0</ele><time>2026-04-10T06:51:39Z</time></trkpt><trkpt lat="44.721450513050186" lon="7.803481590470709"><ele>267.0</ele><time>2026-04-10T06:51:41Z</time></trkpt><trkpt lat="44.72153957098877" lon="7.803394772884364"><ele>267.0</ele><time>2026-04-10T06:51:43Z</time></trkpt><trkpt lat="44.72162905052046" lon="7.803302565326173"><ele>267.0</ele><time>2026-04-10T06:51:45Z</time></trkpt><trkpt lat="44.72171288944355" lon="7.8032108453294455"><ele>267.0</ele><time>2026-04-10T06:51:47Z</time></trkpt><trkpt lat="44.721799866678275" lon="7.803116930545098"><ele>267.0</ele><time>2026-04-10T06:51:49Z</time></trkpt><trkpt lat="44.72188803654735" lon="7.803031588781541"><ele>267.0</ele><time>2026-04-10T06:51:51Z</time></trkpt><trkpt lat="44.72197756385852" lon="7.802944303129744"><ele>267.0</ele><time>2026-04-10T06:51:53Z</time></trkpt><trkpt lat="44.72206563138636" lon="7.80285626202236"><ele>267.0</ele><time>2026-04-10T06:51:55Z</time></trkpt><trkpt lat="44.722150353631584" lon="7.802767057212331"><ele>267.0</ele><time>2026-04-10T06:51:57Z</time></trkpt><trkpt lat="44.722239678784284" lon="7.802676442476982"><ele>267.0</ele><time>2026-04-10T06:51:59Z</time></trkpt><trkpt lat="44.722326186791676" lon="7.80258832521295"><ele>267.0</ele><time>2026-04-10T06:52:01Z</time></trkpt><trkpt lat="44.72240879358516" lon="7.802502983520748"><ele>267.0</ele><time>2026-04-10T06:52:03Z</time></trkpt><trkpt lat="44.72249595517079" lon="7.802428247565496"><ele>267.0</ele><time>2026-04-10T06:52:05Z</time></trkpt><trkpt lat="44.72257657848962" lon="7.802344281194245"><ele>266.8</ele><time>2026-04-10T06:52:07Z</time></trkpt><trkpt lat="44.722654088432954" lon="7.802258898247879"><ele>266.6</ele><time>2026-04-10T06:52:09Z</time></trkpt><trkpt lat="44.72273221417792" lon="7.802168514185432"><ele>266.40000000000003</ele><time>2026-04-10T06:52:11Z</time></trkpt><trkpt lat="44.7228069606202" lon="7.802067083392547"><ele>266.2</ele><time>2026-04-10T06:52:13Z</time></trkpt><trkpt lat="44.72288271430756" lon="7.801958275445231"><ele>266.0</ele><time>2026-04-10T06:52:15Z</time></trkpt><trkpt lat="44.722956753939414" lon="7.801852921488765"><ele>266.0</ele><time>2026-04-10T06:52:17Z</time></trkpt><trkpt lat="44.7230326494831" lon="7.801750452701337"><ele>266.0</ele><time>2026-04-10T06:52:19Z</time></trkpt><trkpt lat="44.723108613221356" lon="7.801643865104767"><ele>266.0</ele><time>2026-04-10T06:52:21Z</time></trkpt><trkpt lat="44.72318164893972" lon="7.801546184658956"><ele>266.0</ele><time>2026-04-10T06:52:23Z</time></trkpt><trkpt lat="44.72326309060981" lon="7.801459294088945"><ele>266.0</ele><time>2026-04-10T06:52:24.999Z</time></trkpt><trkpt lat="44.72335059362987" lon="7.801385939732174"><ele>266.0</ele><time>2026-04-10T06:52:26.999Z</time></trkpt><trkpt lat="44.72344284976295" lon="7.801312508090614"><ele>266.0</ele><time>2026-04-10T06:52:28.999Z</time></trkpt><trkpt lat="44.72353913250382" lon="7.801239399612737"><ele>266.0</ele><time>2026-04-10T06:52:30.999Z</time></trkpt><trkpt lat="44.72363356261647" lon="7.801161374067999"><ele>266.0</ele><time>2026-04-10T06:52:32.999Z</time></trkpt><trkpt lat="44.723725975534286" lon="7.801082617941778"><ele>266.0</ele><time>2026-04-10T06:52:34.999Z</time></trkpt><trkpt lat="44.72381933443852" lon="7.801000525762365"><ele>265.8</ele><time>2026-04-10T06:52:36.999Z</time></trkpt><trkpt lat="44.723910723225075" lon="7.8009225557244335"><ele>265.6</ele><time>2026-04-10T06:52:38.999Z</time></trkpt><trkpt lat="44.72400623512892" lon="7.800860082732143"><ele>265.4</ele><time>2026-04-10T06:52:40.999Z</time></trkpt><trkpt lat="44.72409357784512" lon="7.800781081830195"><ele>265.2</ele><time>2026-04-10T06:52:42.999Z</time></trkpt><trkpt lat="44.724186468077825" lon="7.800703411876048"><ele>265.0</ele><time>2026-04-10T06:52:44.999Z</time></trkpt><trkpt lat="44.724276055622504" lon="7.80062457268256"><ele>265.0</ele><time>2026-04-10T06:52:46.999Z</time></trkpt><trkpt lat="44.72436596599477" lon="7.800540719750698"><ele>265.0</ele><time>2026-04-10T06:52:48.999Z</time></trkpt><trkpt lat="44.7244618662988" lon="7.80046134961256"><ele>265.0</ele><time>2026-04-10T06:52:50.999Z</time></trkpt><trkpt lat="44.72455319456185" lon="7.800374202883399"><ele>265.0</ele><time>2026-04-10T06:52:52.999Z</time></trkpt><trkpt lat="44.724644642033525" lon="7.800301116989001"><ele>265.0</ele><time>2026-04-10T06:52:54.999Z</time></trkpt><trkpt lat="44.72472780518863" lon="7.800217524313953"><ele>265.25</ele><time>2026-04-10T06:52:56.999Z</time></trkpt><trkpt lat="44.72482706543124" lon="7.800131322162678"><ele>265.5</ele><time>2026-04-10T06:52:58.999Z</time></trkpt><trkpt lat="44.72492883415637" lon="7.800048445798813"><ele>265.75</ele><time>2026-04-10T06:53:00.999Z</time></trkpt><trkpt lat="44.72502905645876" lon="7.799975909744896"><ele>266.0</ele><time>2026-04-10T06:53:02.999Z</time></trkpt><trkpt lat="44.72512939029166" lon="7.799924410242391"><ele>266.0</ele><time>2026-04-10T06:53:04.999Z</time></trkpt><trkpt lat="44.72522287528811" lon="7.79985791761511"><ele>266.0</ele><time>2026-04-10T06:53:06.999Z</time></trkpt><trkpt lat="44.725273849083024" lon="7.799803506991526"><ele>266.0</ele><time>2026-04-10T06:53:07.999Z</time></trkpt><trkpt lat="44.72536511275851" lon="7.799739555584864"><ele>266.0</ele><time>2026-04-10T06:53:09.999Z</time></trkpt><trkpt lat="44.72546372839059" lon="7.799678926925124"><ele>266.0</ele><time>2026-04-10T06:53:11.999Z</time></trkpt><trkpt lat="44.725566331217216" lon="7.799623060614385"><ele>266.2</ele><time>2026-04-10T06:53:13.999Z</time></trkpt><trkpt lat="44.725665779238916" lon="7.799581981272068"><ele>266.40000000000003</ele><time>2026-04-10T06:53:15.999Z</time></trkpt><trkpt lat="44.725755436186" lon="7.799509254468873"><ele>266.6</ele><time>2026-04-10T06:53:17.999Z</time></trkpt><trkpt lat="44.72584905292868" lon="7.7994512929070945"><ele>266.8</ele><time>2026-04-10T06:53:19.999Z</time></trkpt><trkpt lat="44.725924796276665" lon="7.799420999471604"><ele>267.0</ele><time>2026-04-10T06:53:21.999Z</time></trkpt><trkpt lat="44.7260084648538" lon="7.799387136740552"><ele>266.6666666666667</ele><time>2026-04-10T06:53:23.999Z</time></trkpt><trkpt lat="44.72607856472424" lon="7.799424461473637"><ele>266.3333333333333</ele><time>2026-04-10T06:53:25.999Z</time></trkpt><trkpt lat="44.72612312534107" lon="7.799520217285974"><ele>266.0</ele><time>2026-04-10T06:53:27.999Z</time></trkpt><trkpt lat="44.72617381470232" lon="7.799574859270669"><ele>265.66666666666663</ele><time>2026-04-10T06:53:29.999Z</time></trkpt><trkpt lat="44.726234570999" lon="7.799642905634185"><ele>265.3333333333333</ele><time>2026-04-10T06:53:31.999Z</time></trkpt><trkpt lat="44.72630292612343" lon="7.79965438266261"><ele>265.0</ele><time>2026-04-10T06:53:33.999Z</time></trkpt><trkpt lat="44.72638252584748" lon="7.799620907618852"><ele>265.0</ele><time>2026-04-10T06:53:35.999Z</time></trkpt><trkpt lat="44.72646174207054" lon="7.799544047050881"><ele>265.0</ele><time>2026-04-10T06:53:37.999Z</time></trkpt><trkpt lat="44.7265372262691" lon="7.799477761229972"><ele>265.0</ele><time>2026-04-10T06:53:40Z</time></trkpt><trkpt lat="44.726609814257586" lon="7.799398492658068"><ele>265.0</ele><time>2026-04-10T06:53:42Z</time></trkpt><trkpt lat="44.72668907691165" lon="7.799331767095896"><ele>265.0</ele><time>2026-04-10T06:53:44Z</time></trkpt><trkpt lat="44.72677294943328" lon="7.799255927882174"><ele>265.0</ele><time>2026-04-10T06:53:46Z</time></trkpt><trkpt lat="44.726857466122816" lon="7.799188682139651"><ele>265.0</ele><time>2026-04-10T06:53:48Z</time></trkpt><trkpt lat="44.726955745891125" lon="7.799165009944077"><ele>265.0</ele><time>2026-04-10T06:53:50Z</time></trkpt><trkpt lat="44.72704426947315" lon="7.79921457368893"><ele>265.0</ele><time>2026-04-10T06:53:52Z</time></trkpt><trkpt lat="44.727132608685174" lon="7.799280768724442"><ele>265.0</ele><time>2026-04-10T06:53:54Z</time></trkpt><trkpt lat="44.72721214776813" lon="7.799350538977033"><ele>264.8</ele><time>2026-04-10T06:53:56Z</time></trkpt><trkpt lat="44.7272929956527" lon="7.799379847833248"><ele>264.6</ele><time>2026-04-10T06:53:58Z</time></trkpt><trkpt lat="44.727388186152474" lon="7.799394012416404"><ele>264.4</ele><time>2026-04-10T06:54:00Z</time></trkpt><trkpt lat="44.72748430893889" lon="7.799386310336348"><ele>264.2</ele><time>2026-04-10T06:54:02Z</time></trkpt><trkpt lat="44.72758064717954" lon="7.799360926534723"><ele>264.0</ele><time>2026-04-10T06:54:04Z</time></trkpt><trkpt lat="44.72768698649486" lon="7.79934620338006"><ele>264.4</ele><time>2026-04-10T06:54:06Z</time></trkpt><trkpt lat="44.72778723329184" lon="7.799320616118533"><ele>264.79999999999995</ele><time>2026-04-10T06:54:08Z</time></trkpt><trkpt lat="44.72789223075046" lon="7.79929556478854"><ele>265.20000000000005</ele><time>2026-04-10T06:54:10Z</time></trkpt><trkpt lat="44.72799211404094" lon="7.799274384789112"><ele>265.6</ele><time>2026-04-10T06:54:12Z</time></trkpt><trkpt lat="44.728094137738196" lon="7.79926280208812"><ele>266.0</ele><time>2026-04-10T06:54:14Z</time></trkpt><trkpt lat="44.728189776487156" lon="7.799234107425635"><ele>266.0</ele><time>2026-04-10T06:54:16Z</time></trkpt><trkpt lat="44.72827632511155" lon="7.799222465666814"><ele>266.0</ele><time>2026-04-10T06:54:18Z</time></trkpt><trkpt lat="44.72837692405298" lon="7.7991981161564015"><ele>266.0</ele><time>2026-04-10T06:54:20Z</time></trkpt><trkpt lat="44.72846762194495" lon="7.799187417643176"><ele>266.0</ele><time>2026-04-10T06:54:22Z</time></trkpt><trkpt lat="44.72856066385413" lon="7.799173135533321"><ele>266.0</ele><time>2026-04-10T06:54:24Z</time></trkpt><trkpt lat="44.728656516523145" lon="7.799160409482741"><ele>265.40000000000003</ele><time>2026-04-10T06:54:25.999Z</time></trkpt><trkpt lat="44.728751412463964" lon="7.799127675019429"><ele>264.8</ele><time>2026-04-10T06:54:27.999Z</time></trkpt><trkpt lat="44.72883357784248" lon="7.799058368164222"><ele>264.20000000000005</ele><time>2026-04-10T06:54:29.999Z</time></trkpt><trkpt lat="44.72891251677119" lon="7.798952539691292"><ele>263.6</ele><time>2026-04-10T06:54:31.999Z</time></trkpt><trkpt lat="44.72898340711085" lon="7.798852654955558"><ele>263.0</ele><time>2026-04-10T06:54:33.999Z</time></trkpt><trkpt lat="44.72907046420924" lon="7.7987701219507"><ele>263.0</ele><time>2026-04-10T06:54:35.999Z</time></trkpt><trkpt lat="44.72917082138433" lon="7.798735793835193"><ele>263.0</ele><time>2026-04-10T06:54:37.999Z</time></trkpt><trkpt lat="44.72928159604243" lon="7.798726660114209"><ele>263.0</ele><time>2026-04-10T06:54:39.999Z</time></trkpt><trkpt lat="44.729378547946155" lon="7.798710064309395"><ele>263.0</ele><time>2026-04-10T06:54:41.999Z</time></trkpt><trkpt lat="44.72947880481425" lon="7.798688758570995"><ele>263.0</ele><time>2026-04-10T06:54:43.999Z</time></trkpt><trkpt lat="44.72958739409088" lon="7.798678024038192"><ele>263.4</ele><time>2026-04-10T06:54:45.999Z</time></trkpt><trkpt lat="44.729681687488" lon="7.798656179883724"><ele>263.8</ele><time>2026-04-10T06:54:47.999Z</time></trkpt><trkpt lat="44.72977793313097" lon="7.79863122120637"><ele>264.2</ele><time>2026-04-10T06:54:49.999Z</time></trkpt><trkpt lat="44.72986248852462" lon="7.7986099905112605"><ele>264.6</ele><time>2026-04-10T06:54:51.999Z</time></trkpt><trkpt lat="44.729957607428254" lon="7.798585328162714"><ele>265.0</ele><time>2026-04-10T06:54:53.999Z</time></trkpt><trkpt lat="44.730046755355524" lon="7.798594091298834"><ele>265.0</ele><time>2026-04-10T06:54:55.999Z</time></trkpt><trkpt lat="44.730111427179786" lon="7.7986409022588985"><ele>265.0</ele><time>2026-04-10T06:54:57.999Z</time></trkpt><trkpt lat="44.73017573708655" lon="7.798683398229399"><ele>265.0</ele><time>2026-04-10T06:54:59.999Z</time></trkpt><trkpt lat="44.730292780389796" lon="7.798594086489697"><ele>265.0</ele><time>2026-04-10T06:55:01.999Z</time></trkpt><trkpt lat="44.73038930720034" lon="7.798577177025759"><ele>265.0</ele><time>2026-04-10T06:55:03.999Z</time></trkpt><trkpt lat="44.73049330124065" lon="7.798566775131189"><ele>264.8333333333333</ele><time>2026-04-10T06:55:05.999Z</time></trkpt><trkpt lat="44.73058415301624" lon="7.798560579786869"><ele>264.66666666666663</ele><time>2026-04-10T06:55:07.999Z</time></trkpt><trkpt lat="44.730673504902995" lon="7.798543729886808"><ele>264.5</ele><time>2026-04-10T06:55:09.999Z</time></trkpt><trkpt lat="44.73076165205603" lon="7.798530184839139"><ele>264.3333333333333</ele><time>2026-04-10T06:55:11.999Z</time></trkpt><trkpt lat="44.73084839714061" lon="7.798516136781141"><ele>264.1666666666667</ele><time>2026-04-10T06:55:13.999Z</time></trkpt><trkpt lat="44.7309386735252" lon="7.7985015570749106"><ele>264.0</ele><time>2026-04-10T06:55:15.999Z</time></trkpt><trkpt lat="44.731038852042886" lon="7.798487557479217"><ele>265.0</ele><time>2026-04-10T06:55:17.999Z</time></trkpt><trkpt lat="44.73113655944627" lon="7.798471237060599"><ele>266.0</ele><time>2026-04-10T06:55:19.999Z</time></trkpt><trkpt lat="44.73123462791283" lon="7.798456290316011"><ele>267.0</ele><time>2026-04-10T06:55:21.999Z</time></trkpt><trkpt lat="44.73133412851234" lon="7.798442476358638"><ele>268.0</ele><time>2026-04-10T06:55:23.999Z</time></trkpt><trkpt lat="44.73143298289301" lon="7.798423256102655"><ele>269.0</ele><time>2026-04-10T06:55:25.999Z</time></trkpt><trkpt lat="44.73152991965189" lon="7.798399477465668"><ele>269.0</ele><time>2026-04-10T06:55:27.999Z</time></trkpt><trkpt lat="44.73162720724981" lon="7.79838279670324"><ele>269.0</ele><time>2026-04-10T06:55:29.999Z</time></trkpt><trkpt lat="44.73172764837331" lon="7.798361666521873"><ele>269.0</ele><time>2026-04-10T06:55:31.999Z</time></trkpt><trkpt lat="44.73183031534792" lon="7.7983380849435315"><ele>269.0</ele><time>2026-04-10T06:55:33.999Z</time></trkpt><trkpt lat="44.73194363677818" lon="7.798312451462887"><ele>269.0</ele><time>2026-04-10T06:55:35.999Z</time></trkpt><trkpt lat="44.73205001502173" lon="7.79828913436316"><ele>268.8</ele><time>2026-04-10T06:55:37.999Z</time></trkpt><trkpt lat="44.73215505114913" lon="7.798250600780431"><ele>268.59999999999997</ele><time>2026-04-10T06:55:39.999Z</time></trkpt><trkpt lat="44.73225817376979" lon="7.798218540201448"><ele>268.4</ele><time>2026-04-10T06:55:41.998Z</time></trkpt><trkpt lat="44.73235360879473" lon="7.7981914210473775"><ele>268.2</ele><time>2026-04-10T06:55:43.998Z</time></trkpt><trkpt lat="44.73246300015367" lon="7.798178908737567"><ele>268.0</ele><time>2026-04-10T06:55:46Z</time></trkpt><trkpt lat="44.732575120860844" lon="7.798162833528905"><ele>268.0</ele><time>2026-04-10T06:55:48Z</time></trkpt><trkpt lat="44.73268186231078" lon="7.798155204011978"><ele>268.0</ele><time>2026-04-10T06:55:50Z</time></trkpt><trkpt lat="44.73278395035196" lon="7.798135596334936"><ele>268.0</ele><time>2026-04-10T06:55:52Z</time></trkpt><trkpt lat="44.732888105631226" lon="7.798123428938027"><ele>268.0</ele><time>2026-04-10T06:55:54Z</time></trkpt><trkpt lat="44.73297208128346" lon="7.798108669953444"><ele>268.0</ele><time>2026-04-10T06:55:56Z</time></trkpt><trkpt lat="44.73306372000439" lon="7.798090662226514"><ele>267.25</ele><time>2026-04-10T06:55:58Z</time></trkpt><trkpt lat="44.73318671186599" lon="7.798102381416252"><ele>266.5</ele><time>2026-04-10T06:56:00Z</time></trkpt><trkpt lat="44.733309699114756" lon="7.798087271500081"><ele>265.75</ele><time>2026-04-10T06:56:02Z</time></trkpt><trkpt lat="44.7334313629199" lon="7.79807016377118"><ele>265.0</ele><time>2026-04-10T06:56:04Z</time></trkpt><trkpt lat="44.733543763372495" lon="7.798054358604084"><ele>264.8</ele><time>2026-04-10T06:56:06Z</time></trkpt><trkpt lat="44.73364842073229" lon="7.798037366224281"><ele>264.6</ele><time>2026-04-10T06:56:08Z</time></trkpt><trkpt lat="44.7337497027565" lon="7.797995871387952"><ele>264.4</ele><time>2026-04-10T06:56:10Z</time></trkpt><trkpt lat="44.73385243294974" lon="7.7979827043827585"><ele>264.2</ele><time>2026-04-10T06:56:12Z</time></trkpt><trkpt lat="44.73394006741544" lon="7.797943737305954"><ele>264.0</ele><time>2026-04-10T06:56:14Z</time></trkpt><trkpt lat="44.734023531356726" lon="7.797878090616264"><ele>264.0</ele><time>2026-04-10T06:56:16Z</time></trkpt><trkpt lat="44.73411836323183" lon="7.797835362154126"><ele>264.0</ele><time>2026-04-10T06:56:18Z</time></trkpt><trkpt lat="44.734225150917545" lon="7.797837676827435"><ele>264.0</ele><time>2026-04-10T06:56:20Z</time></trkpt><trkpt lat="44.73432641255808" lon="7.79785015474301"><ele>264.0</ele><time>2026-04-10T06:56:22Z</time></trkpt><trkpt lat="44.73443308859008" lon="7.79787671252063"><ele>264.0</ele><time>2026-04-10T06:56:24Z</time></trkpt><trkpt lat="44.73453906820974" lon="7.797885522539519"><ele>264.2</ele><time>2026-04-10T06:56:26Z</time></trkpt><trkpt lat="44.73463857198902" lon="7.797840668166392"><ele>264.4</ele><time>2026-04-10T06:56:28Z</time></trkpt><trkpt lat="44.7347396322368" lon="7.797827397178301"><ele>264.6</ele><time>2026-04-10T06:56:30Z</time></trkpt><trkpt lat="44.73484825590565" lon="7.797818917873161"><ele>264.8</ele><time>2026-04-10T06:56:32Z</time></trkpt><trkpt lat="44.73494346011332" lon="7.797807887591169"><ele>265.0</ele><time>2026-04-10T06:56:33.999Z</time></trkpt><trkpt lat="44.735048349337724" lon="7.797795800097692"><ele>265.0</ele><time>2026-04-10T06:56:35.999Z</time></trkpt><trkpt lat="44.7351531080721" lon="7.797781189884362"><ele>265.0</ele><time>2026-04-10T06:56:37.999Z</time></trkpt><trkpt lat="44.73525701436065" lon="7.797767704015372"><ele>265.0</ele><time>2026-04-10T06:56:39.999Z</time></trkpt><trkpt lat="44.73535621870476" lon="7.797750577600478"><ele>265.0</ele><time>2026-04-10T06:56:41.999Z</time></trkpt><trkpt lat="44.73546658387861" lon="7.797737037594748"><ele>265.0</ele><time>2026-04-10T06:56:43.999Z</time></trkpt><trkpt lat="44.73556167228728" lon="7.797730780090575"><ele>264.8</ele><time>2026-04-10T06:56:45.999Z</time></trkpt><trkpt lat="44.73567530221498" lon="7.797689291304575"><ele>264.6</ele><time>2026-04-10T06:56:47.999Z</time></trkpt><trkpt lat="44.73578165201398" lon="7.797677239097896"><ele>264.4</ele><time>2026-04-10T06:56:49.999Z</time></trkpt><trkpt lat="44.73588544367387" lon="7.797653126926528"><ele>264.2</ele><time>2026-04-10T06:56:51.999Z</time></trkpt><trkpt lat="44.73599322438721" lon="7.797635982082499"><ele>264.0</ele><time>2026-04-10T06:56:53.999Z</time></trkpt><trkpt lat="44.73610326509175" lon="7.797624452626"><ele>264.0</ele><time>2026-04-10T06:56:55.999Z</time></trkpt><trkpt lat="44.73621217437967" lon="7.7976092531549455"><ele>264.0</ele><time>2026-04-10T06:56:57.999Z</time></trkpt><trkpt lat="44.7363199545978" lon="7.79759747154108"><ele>264.0</ele><time>2026-04-10T06:56:59.999Z</time></trkpt><trkpt lat="44.73642630791696" lon="7.7976108974081875"><ele>264.0</ele><time>2026-04-10T06:57:01.999Z</time></trkpt><trkpt lat="44.73653221847822" lon="7.797646659896438"><ele>264.0</ele><time>2026-04-10T06:57:03.999Z</time></trkpt><trkpt lat="44.73663817557407" lon="7.797677836299533"><ele>264.0</ele><time>2026-04-10T06:57:05.999Z</time></trkpt><trkpt lat="44.73674805839939" lon="7.79765996428629"><ele>264.0</ele><time>2026-04-10T06:57:07.999Z</time></trkpt><trkpt lat="44.73685827326283" lon="7.797630456824882"><ele>264.0</ele><time>2026-04-10T06:57:09.999Z</time></trkpt><trkpt lat="44.736963849448394" lon="7.797603554883794"><ele>264.0</ele><time>2026-04-10T06:57:11.999Z</time></trkpt><trkpt lat="44.73706487786117" lon="7.797575343451638"><ele>264.0</ele><time>2026-04-10T06:57:13.999Z</time></trkpt><trkpt lat="44.73716591342298" lon="7.797545962893293"><ele>264.6666666666667</ele><time>2026-04-10T06:57:15.999Z</time></trkpt><trkpt lat="44.73728665349994" lon="7.797510808263108"><ele>265.3333333333333</ele><time>2026-04-10T06:57:17.999Z</time></trkpt><trkpt lat="44.7373535545606" lon="7.797485593123974"><ele>266.0</ele><time>2026-04-10T06:57:18.999Z</time></trkpt><trkpt lat="44.73742379022383" lon="7.797463989870956"><ele>266.66666666666663</ele><time>2026-04-10T06:57:19.999Z</time></trkpt><trkpt lat="44.73749580292101" lon="7.79744402331391"><ele>267.3333333333333</ele><time>2026-04-10T06:57:20.999Z</time></trkpt><trkpt lat="44.737567945137044" lon="7.797419859575703"><ele>268.0</ele><time>2026-04-10T06:57:21.999Z</time></trkpt><trkpt lat="44.7376431410886" lon="7.797394683383962"><ele>268.0</ele><time>2026-04-10T06:57:22.999Z</time></trkpt><trkpt lat="44.737715723142" lon="7.797368428460949"><ele>268.0</ele><time>2026-04-10T06:57:23.999Z</time></trkpt><trkpt lat="44.737790239268186" lon="7.797365956005408"><ele>268.0</ele><time>2026-04-10T06:57:24.999Z</time></trkpt><trkpt lat="44.73785924762219" lon="7.797343677796668"><ele>268.0</ele><time>2026-04-10T06:57:25.999Z</time></trkpt><trkpt lat="44.73792522462173" lon="7.797327437824264"><ele>268.0</ele><time>2026-04-10T06:57:26.999Z</time></trkpt><trkpt lat="44.738045915484534" lon="7.797313116527317"><ele>268.0</ele><time>2026-04-10T06:57:28.999Z</time></trkpt><trkpt lat="44.738148713131935" lon="7.797376269607697"><ele>267.6</ele><time>2026-04-10T06:57:30.999Z</time></trkpt><trkpt lat="44.73823693990106" lon="7.797470373550408"><ele>267.20000000000005</ele><time>2026-04-10T06:57:32.999Z</time></trkpt><trkpt lat="44.738353662713315" lon="7.797520991361257"><ele>266.8</ele><time>2026-04-10T06:57:34.999Z</time></trkpt><trkpt lat="44.738419071865145" lon="7.797514456116892"><ele>266.40000000000003</ele><time>2026-04-10T06:57:35.999Z</time></trkpt><trkpt lat="44.73853760629378" lon="7.797473406584431"><ele>266.0</ele><time>2026-04-10T06:57:37.999Z</time></trkpt><trkpt lat="44.73865185823108" lon="7.797436829522412"><ele>265.75</ele><time>2026-04-10T06:57:39.999Z</time></trkpt><trkpt lat="44.73876281941931" lon="7.797401305980653"><ele>265.5</ele><time>2026-04-10T06:57:41.999Z</time></trkpt><trkpt lat="44.73887477826404" lon="7.797369873369299"><ele>265.25</ele><time>2026-04-10T06:57:43.999Z</time></trkpt><trkpt lat="44.73899061290833" lon="7.79734066012688"><ele>265.0</ele><time>2026-04-10T06:57:45.999Z</time></trkpt><trkpt lat="44.73910158535279" lon="7.797316248765097"><ele>265.0</ele><time>2026-04-10T06:57:47.999Z</time></trkpt><trkpt lat="44.73921437125024" lon="7.7972967711055485"><ele>265.0</ele><time>2026-04-10T06:57:49.998Z</time></trkpt><trkpt lat="44.739325199432756" lon="7.797284050392688"><ele>265.0</ele><time>2026-04-10T06:57:52Z</time></trkpt><trkpt lat="44.73943589886137" lon="7.797282495970588"><ele>265.0</ele><time>2026-04-10T06:57:54Z</time></trkpt><trkpt lat="44.73953967994959" lon="7.797307280922488"><ele>265.0</ele><time>2026-04-10T06:57:56Z</time></trkpt><trkpt lat="44.73956172534204" lon="7.797473079448107"><ele>265.0</ele><time>2026-04-10T06:57:58Z</time></trkpt><trkpt lat="44.73958879152932" lon="7.797627314286714"><ele>265.0</ele><time>2026-04-10T06:58:00Z</time></trkpt><trkpt lat="44.73960918432253" lon="7.797785963898489"><ele>265.0</ele><time>2026-04-10T06:58:02Z</time></trkpt><trkpt lat="44.73962466177469" lon="7.797937478764794"><ele>265.0</ele><time>2026-04-10T06:58:04Z</time></trkpt><trkpt lat="44.73963925473526" lon="7.79809513321781"><ele>265.0</ele><time>2026-04-10T06:58:06Z</time></trkpt><trkpt lat="44.739636909121025" lon="7.7982439507965555"><ele>264.8</ele><time>2026-04-10T06:58:08Z</time></trkpt><trkpt lat="44.739649334165236" lon="7.798403685874123"><ele>264.6</ele><time>2026-04-10T06:58:10Z</time></trkpt><trkpt lat="44.7396613438096" lon="7.798558080583712"><ele>264.4</ele><time>2026-04-10T06:58:12Z</time></trkpt><trkpt lat="44.73967369607211" lon="7.798714503810903"><ele>264.2</ele><time>2026-04-10T06:58:14Z</time></trkpt><trkpt lat="44.73968917108558" lon="7.798868095457451"><ele>264.0</ele><time>2026-04-10T06:58:16Z</time></trkpt><trkpt lat="44.73971853676982" lon="7.799005078496585"><ele>264.2</ele><time>2026-04-10T06:58:18Z</time></trkpt><trkpt lat="44.73975222205305" lon="7.799156172014803"><ele>264.4</ele><time>2026-04-10T06:58:20Z</time></trkpt><trkpt lat="44.73980801234404" lon="7.799283182190621"><ele>264.6</ele><time>2026-04-10T06:58:22Z</time></trkpt><trkpt lat="44.73987969108829" lon="7.799297396784004"><ele>264.8</ele><time>2026-04-10T06:58:23Z</time></trkpt><trkpt lat="44.73999085444038" lon="7.7993337563186955"><ele>265.0</ele><time>2026-04-10T06:58:25Z</time></trkpt><trkpt lat="44.74009268832505" lon="7.79939371670672"><ele>265.0</ele><time>2026-04-10T06:58:27Z</time></trkpt><trkpt lat="44.74019986916588" lon="7.799439709974528"><ele>265.0</ele><time>2026-04-10T06:58:29Z</time></trkpt><trkpt lat="44.74029932290303" lon="7.79952093673468"><ele>265.0</ele><time>2026-04-10T06:58:31Z</time></trkpt><trkpt lat="44.74039864729018" lon="7.799602859365907"><ele>265.0</ele><time>2026-04-10T06:58:33Z</time></trkpt><trkpt lat="44.740491103598465" lon="7.7996907309698145"><ele>265.25</ele><time>2026-04-10T06:58:35Z</time></trkpt><trkpt lat="44.740587801875186" lon="7.799777012269649"><ele>265.5</ele><time>2026-04-10T06:58:37Z</time></trkpt><trkpt lat="44.74068416104173" lon="7.79986656729661"><ele>265.75</ele><time>2026-04-10T06:58:39Z</time></trkpt><trkpt lat="44.74078164815666" lon="7.799956152180541"><ele>266.0</ele><time>2026-04-10T06:58:41Z</time></trkpt><trkpt lat="44.74088447405522" lon="7.800045841282317"><ele>266.0</ele><time>2026-04-10T06:58:43Z</time></trkpt><trkpt lat="44.740982236313194" lon="7.800150980001639"><ele>266.0</ele><time>2026-04-10T06:58:45Z</time></trkpt><trkpt lat="44.74105740608431" lon="7.8002831286484176"><ele>266.0</ele><time>2026-04-10T06:58:46.999Z</time></trkpt><trkpt lat="44.7411312743339" lon="7.80040719474838"><ele>266.0</ele><time>2026-04-10T06:58:48.999Z</time></trkpt><trkpt lat="44.741180833114605" lon="7.8005527382277755"><ele>266.2</ele><time>2026-04-10T06:58:50.999Z</time></trkpt><trkpt lat="44.74122355347708" lon="7.8006959928076816"><ele>266.40000000000003</ele><time>2026-04-10T06:58:52.999Z</time></trkpt><trkpt lat="44.74125960924162" lon="7.80084814450776"><ele>266.6</ele><time>2026-04-10T06:58:54.999Z</time></trkpt><trkpt lat="44.741288636476156" lon="7.800999704045771"><ele>266.8</ele><time>2026-04-10T06:58:56.999Z</time></trkpt><trkpt lat="44.74132091002872" lon="7.801143522545712"><ele>267.0</ele><time>2026-04-10T06:58:58.999Z</time></trkpt><trkpt lat="44.74135173680084" lon="7.8012941565615535"><ele>267.0</ele><time>2026-04-10T06:59:00.999Z</time></trkpt><trkpt lat="44.74138491468712" lon="7.801438296113702"><ele>267.0</ele><time>2026-04-10T06:59:02.999Z</time></trkpt><trkpt lat="44.74140658793144" lon="7.801586226065286"><ele>267.0</ele><time>2026-04-10T06:59:04.999Z</time></trkpt><trkpt lat="44.741455281195655" lon="7.8017278702964425"><ele>267.0</ele><time>2026-04-10T06:59:06.999Z</time></trkpt><trkpt lat="44.741509750583226" lon="7.801855873068537"><ele>267.0</ele><time>2026-04-10T06:59:08.999Z</time></trkpt><trkpt lat="44.741570895689684" lon="7.801974239920921"><ele>267.0</ele><time>2026-04-10T06:59:10.999Z</time></trkpt><trkpt lat="44.74164156099812" lon="7.802087912051884"><ele>267.0</ele><time>2026-04-10T06:59:12.999Z</time></trkpt><trkpt lat="44.741713852973696" lon="7.80217442709934"><ele>267.0</ele><time>2026-04-10T06:59:14.999Z</time></trkpt><trkpt lat="44.74175347970847" lon="7.802289125445676"><ele>267.0</ele><time>2026-04-10T06:59:16.999Z</time></trkpt><trkpt lat="44.7418009350177" lon="7.802368976712931"><ele>267.0</ele><time>2026-04-10T06:59:18.999Z</time></trkpt><trkpt lat="44.74186677212771" lon="7.802466287411261"><ele>267.4</ele><time>2026-04-10T06:59:20.999Z</time></trkpt><trkpt lat="44.74194532488462" lon="7.802567391647287"><ele>267.79999999999995</ele><time>2026-04-10T06:59:22.999Z</time></trkpt><trkpt lat="44.74202292176846" lon="7.802658132478464"><ele>268.2</ele><time>2026-04-10T06:59:24.999Z</time></trkpt><trkpt lat="44.74210303420823" lon="7.802744853227583"><ele>268.59999999999997</ele><time>2026-04-10T06:59:26.999Z</time></trkpt><trkpt lat="44.74218471989263" lon="7.802827550870172"><ele>269.0</ele><time>2026-04-10T06:59:28.999Z</time></trkpt><trkpt lat="44.74227661869403" lon="7.802892691781313"><ele>269.0</ele><time>2026-04-10T06:59:30.999Z</time></trkpt><trkpt lat="44.742349215469794" lon="7.802990069863151"><ele>269.0</ele><time>2026-04-10T06:59:32.999Z</time></trkpt><trkpt lat="44.74243693586436" lon="7.803068180401266"><ele>269.0</ele><time>2026-04-10T06:59:34.999Z</time></trkpt><trkpt lat="44.74252457534628" lon="7.803139704217305"><ele>269.0</ele><time>2026-04-10T06:59:36.999Z</time></trkpt><trkpt lat="44.742621312519056" lon="7.803192435503325"><ele>269.0</ele><time>2026-04-10T06:59:38.999Z</time></trkpt><trkpt lat="44.74271372848324" lon="7.803266012002515"><ele>269.8</ele><time>2026-04-10T06:59:40.999Z</time></trkpt><trkpt lat="44.74279264654694" lon="7.803357811269621"><ele>270.59999999999997</ele><time>2026-04-10T06:59:42.999Z</time></trkpt><trkpt lat="44.74288060206147" lon="7.803436323194622"><ele>271.4</ele><time>2026-04-10T06:59:44.999Z</time></trkpt><trkpt lat="44.74297395675158" lon="7.8035013568937295"><ele>272.2</ele><time>2026-04-10T06:59:46.999Z</time></trkpt><trkpt lat="44.74306280059354" lon="7.803586888829684"><ele>273.0</ele><time>2026-04-10T06:59:48.999Z</time></trkpt><trkpt lat="44.74314380761326" lon="7.803672479141525"><ele>273.0</ele><time>2026-04-10T06:59:50.999Z</time></trkpt><trkpt lat="44.743221750426734" lon="7.8037624495922095"><ele>273.0</ele><time>2026-04-10T06:59:52.999Z</time></trkpt><trkpt lat="44.74330470433157" lon="7.803846737952554"><ele>273.0</ele><time>2026-04-10T06:59:54.999Z</time></trkpt><trkpt lat="44.74338423056739" lon="7.803931324023033"><ele>273.0</ele><time>2026-04-10T06:59:57Z</time></trkpt><trkpt lat="44.74346660247597" lon="7.804014189555168"><ele>273.0</ele><time>2026-04-10T06:59:59Z</time></trkpt><trkpt lat="44.74355182005965" lon="7.804088101581095"><ele>273.2</ele><time>2026-04-10T07:00:01Z</time></trkpt><trkpt lat="44.743641946458666" lon="7.804147191484082"><ele>273.4</ele><time>2026-04-10T07:00:03Z</time></trkpt><trkpt lat="44.743736209692344" lon="7.804211653948675"><ele>273.59999999999997</ele><time>2026-04-10T07:00:05Z</time></trkpt><trkpt lat="44.743825430013715" lon="7.8042911113926925"><ele>273.8</ele><time>2026-04-10T07:00:07Z</time></trkpt><trkpt lat="44.74392265808892" lon="7.804342188090391"><ele>274.0</ele><time>2026-04-10T07:00:09Z</time></trkpt><trkpt lat="44.744019551938216" lon="7.8043893855050275"><ele>274.0</ele><time>2026-04-10T07:00:11Z</time></trkpt><trkpt lat="44.744116341123416" lon="7.804439792501868"><ele>274.0</ele><time>2026-04-10T07:00:13Z</time></trkpt><trkpt lat="44.74421313415893" lon="7.804493746698532"><ele>274.0</ele><time>2026-04-10T07:00:15Z</time></trkpt><trkpt lat="44.744315053976514" lon="7.80453858074754"><ele>274.0</ele><time>2026-04-10T07:00:17Z</time></trkpt><trkpt lat="44.74440538434149" lon="7.80461790621279"><ele>274.0</ele><time>2026-04-10T07:00:19Z</time></trkpt><trkpt lat="44.74449087194236" lon="7.804709006302139"><ele>274.0</ele><time>2026-04-10T07:00:21Z</time></trkpt><trkpt lat="44.74456424667318" lon="7.8048194423756"><ele>274.0</ele><time>2026-04-10T07:00:23Z</time></trkpt><trkpt lat="44.74465353235004" lon="7.804909472928153"><ele>274.0</ele><time>2026-04-10T07:00:25Z</time></trkpt><trkpt lat="44.744729140924804" lon="7.805022412104967"><ele>274.0</ele><time>2026-04-10T07:00:27Z</time></trkpt><trkpt lat="44.744804523099525" lon="7.805138599929954"><ele>274.0</ele><time>2026-04-10T07:00:29Z</time></trkpt><trkpt lat="44.744881890822185" lon="7.805252837252183"><ele>274.0</ele><time>2026-04-10T07:00:31Z</time></trkpt><trkpt lat="44.744953806064586" lon="7.8053554784316646"><ele>274.0</ele><time>2026-04-10T07:00:33Z</time></trkpt><trkpt lat="44.74502778166108" lon="7.80546603697729"><ele>274.0</ele><time>2026-04-10T07:00:35Z</time></trkpt><trkpt lat="44.745101457371085" lon="7.8055728238391895"><ele>274.0</ele><time>2026-04-10T07:00:37Z</time></trkpt><trkpt lat="44.74516864272776" lon="7.805701310026145"><ele>274.0</ele><time>2026-04-10T07:00:39Z</time></trkpt><trkpt lat="44.74525036428257" lon="7.80581030499243"><ele>274.0</ele><time>2026-04-10T07:00:41Z</time></trkpt><trkpt lat="44.74532906640451" lon="7.8059130064565085"><ele>274.0</ele><time>2026-04-10T07:00:43Z</time></trkpt><trkpt lat="44.74542092482844" lon="7.805995517999137"><ele>274.0</ele><time>2026-04-10T07:00:44.999Z</time></trkpt><trkpt lat="44.74550043129175" lon="7.806088712596192"><ele>274.0</ele><time>2026-04-10T07:00:46.999Z</time></trkpt><trkpt lat="44.745570987495476" lon="7.806200916497609"><ele>274.0</ele><time>2026-04-10T07:00:48.999Z</time></trkpt><trkpt lat="44.74565123281375" lon="7.806293353821881"><ele>274.0</ele><time>2026-04-10T07:00:50.999Z</time></trkpt><trkpt lat="44.7457225626115" lon="7.806370872052867"><ele>274.0</ele><time>2026-04-10T07:00:52.999Z</time></trkpt><trkpt lat="44.74581473717201" lon="7.806432293061009"><ele>274.0</ele><time>2026-04-10T07:00:54.999Z</time></trkpt><trkpt lat="44.74588991771329" lon="7.806503641525329"><ele>274.0</ele><time>2026-04-10T07:00:56.999Z</time></trkpt><trkpt lat="44.74595967195618" lon="7.806584960857059"><ele>274.0</ele><time>2026-04-10T07:00:58.999Z</time></trkpt><trkpt lat="44.746010224999374" lon="7.806675462673143"><ele>274.0</ele><time>2026-04-10T07:01:00.999Z</time></trkpt><trkpt lat="44.74608038967338" lon="7.806729443095499"><ele>274.0</ele><time>2026-04-10T07:01:02.999Z</time></trkpt><trkpt lat="44.7461262239663" lon="7.806791679119128"><ele>274.0</ele><time>2026-04-10T07:01:04.999Z</time></trkpt><trkpt lat="44.746185528337655" lon="7.806870606800756"><ele>274.0</ele><time>2026-04-10T07:01:06.999Z</time></trkpt><trkpt lat="44.7462506002929" lon="7.806944483749949"><ele>274.0</ele><time>2026-04-10T07:01:08.999Z</time></trkpt><trkpt lat="44.74631180547122" lon="7.807024273763627"><ele>274.0</ele><time>2026-04-10T07:01:11.999Z</time></trkpt><trkpt lat="44.74637369678686" lon="7.807073313384782"><ele>274.16666666666663</ele><time>2026-04-10T07:01:13.999Z</time></trkpt><trkpt lat="44.74642946898434" lon="7.8071427881266695"><ele>274.3333333333333</ele><time>2026-04-10T07:01:15.999Z</time></trkpt><trkpt lat="44.74649540569922" lon="7.807223934565396"><ele>274.5</ele><time>2026-04-10T07:01:17.999Z</time></trkpt><trkpt lat="44.74654801822317" lon="7.807280890165319"><ele>274.6666666666667</ele><time>2026-04-10T07:01:19.999Z</time></trkpt><trkpt lat="44.74660928539142" lon="7.807330561525037"><ele>274.83333333333337</ele><time>2026-04-10T07:01:21.999Z</time></trkpt><trkpt lat="44.74669764340095" lon="7.807335914124021"><ele>275.0</ele><time>2026-04-10T07:01:24.999Z</time></trkpt><trkpt lat="44.74677095926306" lon="7.807335424515405"><ele>275.0</ele><time>2026-04-10T07:01:26.999Z</time></trkpt><trkpt lat="44.74684815614218" lon="7.80732096266956"><ele>275.0</ele><time>2026-04-10T07:01:28.999Z</time></trkpt><trkpt lat="44.74693692603809" lon="7.807296260002045"><ele>275.0</ele><time>2026-04-10T07:01:30.999Z</time></trkpt><trkpt lat="44.747026199406754" lon="7.807268350972508"><ele>275.0</ele><time>2026-04-10T07:01:32.999Z</time></trkpt><trkpt lat="44.74712215015975" lon="7.807242588587451"><ele>275.0</ele><time>2026-04-10T07:01:34.999Z</time></trkpt><trkpt lat="44.747221677589" lon="7.807212283058889"><ele>275.2</ele><time>2026-04-10T07:01:36.999Z</time></trkpt><trkpt lat="44.747316750073644" lon="7.80718242909911"><ele>275.4</ele><time>2026-04-10T07:01:38.999Z</time></trkpt><trkpt lat="44.747410283918924" lon="7.807155906290919"><ele>275.6</ele><time>2026-04-10T07:01:40.999Z</time></trkpt><trkpt lat="44.74749984460693" lon="7.8071302636579825"><ele>275.8</ele><time>2026-04-10T07:01:42.999Z</time></trkpt><trkpt lat="44.74759936073948" lon="7.807101441394021"><ele>276.0</ele><time>2026-04-10T07:01:44.999Z</time></trkpt><trkpt lat="44.747697502329075" lon="7.807066546118279"><ele>276.40000000000003</ele><time>2026-04-10T07:01:46.999Z</time></trkpt><trkpt lat="44.747797857256096" lon="7.80703370782309"><ele>276.8</ele><time>2026-04-10T07:01:48.999Z</time></trkpt><trkpt lat="44.74788914172717" lon="7.807000570757225"><ele>277.20000000000005</ele><time>2026-04-10T07:01:50.999Z</time></trkpt><trkpt lat="44.747979876319135" lon="7.806959776525919"><ele>277.6</ele><time>2026-04-10T07:01:52.999Z</time></trkpt><trkpt lat="44.748071383024865" lon="7.806926164579241"><ele>278.0</ele><time>2026-04-10T07:01:54.999Z</time></trkpt><trkpt lat="44.748169239201864" lon="7.806895419826232"><ele>278.0</ele><time>2026-04-10T07:01:56.999Z</time></trkpt><trkpt lat="44.748258007032696" lon="7.8068599789005475"><ele>278.0</ele><time>2026-04-10T07:01:58.999Z</time></trkpt><trkpt lat="44.74835156820465" lon="7.806822060267058"><ele>278.0</ele><time>2026-04-10T07:02:00.998Z</time></trkpt><trkpt lat="44.748451148671386" lon="7.806788535183273"><ele>278.0</ele><time>2026-04-10T07:02:03Z</time></trkpt><trkpt lat="44.74854295229274" lon="7.806758943183127"><ele>278.0</ele><time>2026-04-10T07:02:05Z</time></trkpt><trkpt lat="44.748618780820564" lon="7.806707554574321"><ele>278.0</ele><time>2026-04-10T07:02:07Z</time></trkpt><trkpt lat="44.748779222133194" lon="7.806859304758044"><ele>278.0</ele><time>2026-04-10T07:02:11Z</time></trkpt><trkpt lat="44.74884883062682" lon="7.8069356952507505"><ele>278.0</ele><time>2026-04-10T07:02:13Z</time></trkpt><trkpt lat="44.74891695974827" lon="7.807004678823587"><ele>278.0</ele><time>2026-04-10T07:02:15Z</time></trkpt><trkpt lat="44.74898433888746" lon="7.807072454553221"><ele>278.0</ele><time>2026-04-10T07:02:17Z</time></trkpt><trkpt lat="44.74904429056002" lon="7.807144574295367"><ele>278.0</ele><time>2026-04-10T07:02:19Z</time></trkpt><trkpt lat="44.74912397778302" lon="7.807211910843912"><ele>278.0</ele><time>2026-04-10T07:02:21Z</time></trkpt><trkpt lat="44.74918213308603" lon="7.807274901697481"><ele>278.0</ele><time>2026-04-10T07:02:23Z</time></trkpt><trkpt lat="44.749256915306795" lon="7.807330900676791"><ele>278.0</ele><time>2026-04-10T07:02:25Z</time></trkpt><trkpt lat="44.74932669943629" lon="7.8073899519209515"><ele>278.0</ele><time>2026-04-10T07:02:27Z</time></trkpt><trkpt lat="44.74939335039576" lon="7.807445898948496"><ele>278.0</ele><time>2026-04-10T07:02:29Z</time></trkpt><trkpt lat="44.74944632378535" lon="7.807503634217595"><ele>278.42857142857144</ele><time>2026-04-10T07:02:31Z</time></trkpt><trkpt lat="44.749500593664884" lon="7.807565230998878"><ele>278.8571428571429</ele><time>2026-04-10T07:02:33Z</time></trkpt><trkpt lat="44.749547410637966" lon="7.807637311606827"><ele>279.28571428571433</ele><time>2026-04-10T07:02:35Z</time></trkpt><trkpt lat="44.74955283063237" lon="7.807735715384369"><ele>279.7142857142857</ele><time>2026-04-10T07:02:37Z</time></trkpt><trkpt lat="44.74950063146525" lon="7.807812800793629"><ele>280.14285714285717</ele><time>2026-04-10T07:02:39Z</time></trkpt><trkpt lat="44.74946112219232" lon="7.807892132478253"><ele>280.5714285714286</ele><time>2026-04-10T07:02:41Z</time></trkpt><trkpt lat="44.74942402100806" lon="7.807984562973431"><ele>281.0</ele><time>2026-04-10T07:02:43Z</time></trkpt><trkpt lat="44.74938540470845" lon="7.80806750106497"><ele>281.00000000000006</ele><time>2026-04-10T07:02:45Z</time></trkpt><trkpt lat="44.74935836536821" lon="7.80815273357457"><ele>281.0</ele><time>2026-04-10T07:02:47Z</time></trkpt><trkpt lat="44.74934155286411" lon="7.808253612152846"><ele>281.0</ele><time>2026-04-10T07:02:49Z</time></trkpt><trkpt lat="44.749326199803754" lon="7.808352664767015"><ele>281.0</ele><time>2026-04-10T07:02:51Z</time></trkpt><trkpt lat="44.74930991243057" lon="7.808447010056241"><ele>281.0</ele><time>2026-04-10T07:02:53Z</time></trkpt><trkpt lat="44.749271202552116" lon="7.808540309026411"><ele>281.00000000000006</ele><time>2026-04-10T07:02:54.999Z</time></trkpt><trkpt lat="44.74923915980169" lon="7.808631814789257"><ele>281.0</ele><time>2026-04-10T07:02:56.999Z</time></trkpt><trkpt lat="44.749218772694974" lon="7.808724709356174"><ele>281.0</ele><time>2026-04-10T07:02:58.999Z</time></trkpt><trkpt lat="44.749184713310825" lon="7.808828401739584"><ele>281.0</ele><time>2026-04-10T07:03:00.999Z</time></trkpt><trkpt lat="44.74914798700354" lon="7.808934118751139"><ele>281.0</ele><time>2026-04-10T07:03:02.999Z</time></trkpt><trkpt lat="44.74912012323565" lon="7.809049126542021"><ele>281.0</ele><time>2026-04-10T07:03:04.999Z</time></trkpt><trkpt lat="44.74909129931527" lon="7.809161868527976"><ele>281.0</ele><time>2026-04-10T07:03:06.999Z</time></trkpt><trkpt lat="44.74906625597814" lon="7.809281586058903"><ele>281.0</ele><time>2026-04-10T07:03:08.999Z</time></trkpt><trkpt lat="44.74904492965755" lon="7.809423252783538"><ele>281.0</ele><time>2026-04-10T07:03:10.999Z</time></trkpt><trkpt lat="44.74901861613199" lon="7.80956738378281"><ele>281.0</ele><time>2026-04-10T07:03:12.999Z</time></trkpt><trkpt lat="44.74899854239331" lon="7.8097117255132735"><ele>281.0</ele><time>2026-04-10T07:03:14.999Z</time></trkpt><trkpt lat="44.74897677022621" lon="7.8098498151184454"><ele>281.0</ele><time>2026-04-10T07:03:16.999Z</time></trkpt><trkpt lat="44.74895905153509" lon="7.8099988537740925"><ele>281.0</ele><time>2026-04-10T07:03:18.999Z</time></trkpt><trkpt lat="44.748948239684964" lon="7.810123745944461"><ele>281.6</ele><time>2026-04-10T07:03:20.999Z</time></trkpt><trkpt lat="44.748924845062575" lon="7.810231240996076"><ele>282.20000000000005</ele><time>2026-04-10T07:03:22.999Z</time></trkpt><trkpt lat="44.74892561737012" lon="7.810366950931649"><ele>282.79999999999995</ele><time>2026-04-10T07:03:24.999Z</time></trkpt><trkpt lat="44.74890102495355" lon="7.810529723290105"><ele>283.4</ele><time>2026-04-10T07:03:26.999Z</time></trkpt><trkpt lat="44.748861531483726" lon="7.8106572687571605"><ele>284.0</ele><time>2026-04-10T07:03:28.999Z</time></trkpt><trkpt lat="44.74882584854275" lon="7.810800995843114"><ele>284.0</ele><time>2026-04-10T07:03:30.999Z</time></trkpt><trkpt lat="44.7487861494587" lon="7.810930399970693"><ele>284.0</ele><time>2026-04-10T07:03:32.999Z</time></trkpt><trkpt lat="44.74875443167893" lon="7.811070176144013"><ele>284.0</ele><time>2026-04-10T07:03:34.999Z</time></trkpt><trkpt lat="44.74870508710484" lon="7.811183603986718"><ele>284.0</ele><time>2026-04-10T07:03:36.999Z</time></trkpt><trkpt lat="44.74866619125729" lon="7.811307347983974"><ele>284.0</ele><time>2026-04-10T07:03:38.999Z</time></trkpt><trkpt lat="44.74863189615083" lon="7.811466027877865"><ele>284.59999999999997</ele><time>2026-04-10T07:03:40.999Z</time></trkpt><trkpt lat="44.748586870771256" lon="7.811612622839553"><ele>285.2</ele><time>2026-04-10T07:03:42.999Z</time></trkpt><trkpt lat="44.748550675516285" lon="7.811764184010283"><ele>285.79999999999995</ele><time>2026-04-10T07:03:44.999Z</time></trkpt><trkpt lat="44.74851797879908" lon="7.811903823194759"><ele>286.4</ele><time>2026-04-10T07:03:46.999Z</time></trkpt><trkpt lat="44.74848957340338" lon="7.812041667481861"><ele>287.0</ele><time>2026-04-10T07:03:48.999Z</time></trkpt><trkpt lat="44.74846270923315" lon="7.812174076070695"><ele>287.0</ele><time>2026-04-10T07:03:50.999Z</time></trkpt><trkpt lat="44.748429516737986" lon="7.8123065469335105"><ele>287.0</ele><time>2026-04-10T07:03:52.999Z</time></trkpt><trkpt lat="44.74840078131607" lon="7.812434480696222"><ele>287.0</ele><time>2026-04-10T07:03:54.999Z</time></trkpt><trkpt lat="44.748363279491365" lon="7.812554233303655"><ele>287.0</ele><time>2026-04-10T07:03:56.999Z</time></trkpt><trkpt lat="44.74833346591798" lon="7.812676797632327"><ele>287.0</ele><time>2026-04-10T07:03:58.999Z</time></trkpt><trkpt lat="44.74830321474474" lon="7.812791073101719"><ele>287.33333333333337</ele><time>2026-04-10T07:04:00.999Z</time></trkpt><trkpt lat="44.74826972007125" lon="7.812907596156244"><ele>287.6666666666667</ele><time>2026-04-10T07:04:02.999Z</time></trkpt><trkpt lat="44.74823628409207" lon="7.813013250087746"><ele>288.0</ele><time>2026-04-10T07:04:04.999Z</time></trkpt><trkpt lat="44.74819788657233" lon="7.813126140844038"><ele>288.3333333333333</ele><time>2026-04-10T07:04:06.999Z</time></trkpt><trkpt lat="44.74816278052009" lon="7.813229288558423"><ele>288.66666666666663</ele><time>2026-04-10T07:04:09Z</time></trkpt><trkpt lat="44.74813234403178" lon="7.813336123439901"><ele>289.0</ele><time>2026-04-10T07:04:11Z</time></trkpt><trkpt lat="44.74810633792932" lon="7.813457449234609"><ele>288.8333333333333</ele><time>2026-04-10T07:04:13Z</time></trkpt><trkpt lat="44.74808580958702" lon="7.813572246731241"><ele>288.66666666666663</ele><time>2026-04-10T07:04:15Z</time></trkpt><trkpt lat="44.74806309545753" lon="7.813691075644936"><ele>288.5</ele><time>2026-04-10T07:04:17Z</time></trkpt><trkpt lat="44.748036967573455" lon="7.813813389294426"><ele>288.3333333333333</ele><time>2026-04-10T07:04:19Z</time></trkpt><trkpt lat="44.748023670653325" lon="7.813941299220101"><ele>288.1666666666667</ele><time>2026-04-10T07:04:22Z</time></trkpt><trkpt lat="44.74800818101085" lon="7.814073823282126"><ele>288.0</ele><time>2026-04-10T07:04:24Z</time></trkpt><trkpt lat="44.74797117863954" lon="7.814225453008803"><ele>288.0</ele><time>2026-04-10T07:04:26Z</time></trkpt><trkpt lat="44.74794832586671" lon="7.814317419597852"><ele>288.0</ele><time>2026-04-10T07:04:27Z</time></trkpt><trkpt lat="44.74792377441658" lon="7.8144774119532805"><ele>288.0</ele><time>2026-04-10T07:04:29Z</time></trkpt><trkpt lat="44.7479221550867" lon="7.814634016663677"><ele>288.0</ele><time>2026-04-10T07:04:31Z</time></trkpt><trkpt lat="44.747911948223795" lon="7.8147240663058035"><ele>288.0</ele><time>2026-04-10T07:04:32Z</time></trkpt><trkpt lat="44.74791357675091" lon="7.814817902920419"><ele>288.0</ele><time>2026-04-10T07:04:33Z</time></trkpt><trkpt lat="44.747918190205276" lon="7.81490674138835"><ele>288.42857142857144</ele><time>2026-04-10T07:04:34Z</time></trkpt><trkpt lat="44.747936670594406" lon="7.814994119395851"><ele>288.8571428571429</ele><time>2026-04-10T07:04:35Z</time></trkpt><trkpt lat="44.747943320564715" lon="7.81508611618895"><ele>289.2857142857143</ele><time>2026-04-10T07:04:36Z</time></trkpt><trkpt lat="44.747951521083834" lon="7.815177064097589"><ele>289.7142857142857</ele><time>2026-04-10T07:04:37Z</time></trkpt><trkpt lat="44.74794520642621" lon="7.815271233709029"><ele>290.1428571428571</ele><time>2026-04-10T07:04:38Z</time></trkpt><trkpt lat="44.74796332952723" lon="7.8153594048287225"><ele>290.57142857142856</ele><time>2026-04-10T07:04:39Z</time></trkpt><trkpt lat="44.74798108535817" lon="7.81552137422844"><ele>291.0</ele><time>2026-04-10T07:04:41Z</time></trkpt><trkpt lat="44.74798264450258" lon="7.815687782008945"><ele>291.2</ele><time>2026-04-10T07:04:43Z</time></trkpt><trkpt lat="44.74797462890455" lon="7.81584973022034"><ele>291.40000000000003</ele><time>2026-04-10T07:04:45Z</time></trkpt><trkpt lat="44.747956239821825" lon="7.815998068952582"><ele>291.6</ele><time>2026-04-10T07:04:47Z</time></trkpt><trkpt lat="44.747934271274545" lon="7.816147498088233"><ele>291.8</ele><time>2026-04-10T07:04:49Z</time></trkpt><trkpt lat="44.74790824333285" lon="7.816289594428632"><ele>292.0</ele><time>2026-04-10T07:04:51Z</time></trkpt><trkpt lat="44.74788376680927" lon="7.8164319836342475"><ele>292.0</ele><time>2026-04-10T07:04:53Z</time></trkpt><trkpt lat="44.74785654065017" lon="7.816571331793651"><ele>292.0</ele><time>2026-04-10T07:04:55Z</time></trkpt><trkpt lat="44.747830368465046" lon="7.8167007246564735"><ele>292.0</ele><time>2026-04-10T07:04:57Z</time></trkpt><trkpt lat="44.74781213608032" lon="7.816827270565432"><ele>292.0</ele><time>2026-04-10T07:04:59Z</time></trkpt><trkpt lat="44.74778155178764" lon="7.816948460441287"><ele>292.0</ele><time>2026-04-10T07:05:01Z</time></trkpt><trkpt lat="44.747758683291906" lon="7.817056878130124"><ele>292.3333333333333</ele><time>2026-04-10T07:05:03Z</time></trkpt><trkpt lat="44.747725228255966" lon="7.817196712960172"><ele>292.66666666666663</ele><time>2026-04-10T07:05:05Z</time></trkpt><trkpt lat="44.74770693356253" lon="7.817298396492489"><ele>293.0</ele><time>2026-04-10T07:05:06.999Z</time></trkpt><trkpt lat="44.74770233242459" lon="7.817389665945422"><ele>293.3333333333333</ele><time>2026-04-10T07:05:08.999Z</time></trkpt><trkpt lat="44.74767273654374" lon="7.817478852653936"><ele>293.6666666666667</ele><time>2026-04-10T07:05:10.999Z</time></trkpt><trkpt lat="44.74763442802827" lon="7.817595592415085"><ele>294.0</ele><time>2026-04-10T07:05:12.999Z</time></trkpt><trkpt lat="44.74757507149082" lon="7.817696088477446"><ele>292.4</ele><time>2026-04-10T07:05:14.999Z</time></trkpt><trkpt lat="44.747528980046724" lon="7.817793089394336"><ele>290.79999999999995</ele><time>2026-04-10T07:05:16.999Z</time></trkpt><trkpt lat="44.7474780237434" lon="7.817891380770767"><ele>289.20000000000005</ele><time>2026-04-10T07:05:18.999Z</time></trkpt><trkpt lat="44.74742388743317" lon="7.818001737437275"><ele>287.6</ele><time>2026-04-10T07:05:20.999Z</time></trkpt><trkpt lat="44.747357564146164" lon="7.818109352056096"><ele>286.0</ele><time>2026-04-10T07:05:22.999Z</time></trkpt><trkpt lat="44.747292305138586" lon="7.818229284253604"><ele>286.0</ele><time>2026-04-10T07:05:24.999Z</time></trkpt><trkpt lat="44.747250646022366" lon="7.818384518442316"><ele>286.0</ele><time>2026-04-10T07:05:26.999Z</time></trkpt><trkpt lat="44.74719673206913" lon="7.818481775109495"><ele>286.0</ele><time>2026-04-10T07:05:28.999Z</time></trkpt><trkpt lat="44.74715595578796" lon="7.818585729191833"><ele>286.0</ele><time>2026-04-10T07:05:30.999Z</time></trkpt><trkpt lat="44.747120990007424" lon="7.818706809006388"><ele>286.0</ele><time>2026-04-10T07:05:32.999Z</time></trkpt><trkpt lat="44.747084439892184" lon="7.818822094344455"><ele>286.66666666666663</ele><time>2026-04-10T07:05:34.999Z</time></trkpt><trkpt lat="44.74704132483527" lon="7.818924144402834"><ele>287.3333333333333</ele><time>2026-04-10T07:05:36.999Z</time></trkpt><trkpt lat="44.747003178059224" lon="7.819027128955171"><ele>288.0</ele><time>2026-04-10T07:05:38.999Z</time></trkpt><trkpt lat="44.746962675251304" lon="7.819154482433769"><ele>288.6666666666667</ele><time>2026-04-10T07:05:40.999Z</time></trkpt><trkpt lat="44.74695032996987" lon="7.81928594116331"><ele>289.33333333333337</ele><time>2026-04-10T07:05:42.999Z</time></trkpt><trkpt lat="44.7469457076303" lon="7.819395669662783"><ele>290.0</ele><time>2026-04-10T07:05:44.999Z</time></trkpt><trkpt lat="44.74694975555213" lon="7.819508244467232"><ele>290.8</ele><time>2026-04-10T07:05:46.999Z</time></trkpt><trkpt lat="44.74707264094769" lon="7.819631446769623"><ele>291.6</ele><time>2026-04-10T07:05:49.999Z</time></trkpt><trkpt lat="44.74715034095801" lon="7.819653086348153"><ele>292.4</ele><time>2026-04-10T07:05:52.999Z</time></trkpt><trkpt lat="44.74721226107385" lon="7.81961249537825"><ele>293.2</ele><time>2026-04-10T07:05:54.999Z</time></trkpt><trkpt lat="44.74728239591214" lon="7.81964226855078"><ele>294.0</ele><time>2026-04-10T07:05:57.999Z</time></trkpt><trkpt lat="44.747361943625556" lon="7.819706880577483"><ele>294.0</ele><time>2026-04-10T07:06:00.999Z</time></trkpt><trkpt lat="44.74740553976109" lon="7.819810174908561"><ele>294.0</ele><time>2026-04-10T07:06:04.999Z</time></trkpt><trkpt lat="44.74743416322684" lon="7.819911876126707"><ele>294.0</ele><time>2026-04-10T07:06:08.999Z</time></trkpt><trkpt lat="44.74747197093784" lon="7.81999582832599"><ele>294.0</ele><time>2026-04-10T07:06:11.999Z</time></trkpt><trkpt lat="44.74752193168182" lon="7.820066696807839"><ele>294.0</ele><time>2026-04-10T07:06:15Z</time></trkpt><trkpt lat="44.747560878778664" lon="7.820143202014811"><ele>294.0</ele><time>2026-04-10T07:06:18Z</time></trkpt><trkpt lat="44.74761547351567" lon="7.820231502769781"><ele>294.2857142857143</ele><time>2026-04-10T07:06:21Z</time></trkpt><trkpt lat="44.747666592886894" lon="7.820300679319932"><ele>294.57142857142856</ele><time>2026-04-10T07:06:24Z</time></trkpt><trkpt lat="44.747723870119586" lon="7.8203627804919655"><ele>294.8571428571429</ele><time>2026-04-10T07:06:27Z</time></trkpt><trkpt lat="44.747774226621" lon="7.820418381703766"><ele>295.1428571428571</ele><time>2026-04-10T07:06:30Z</time></trkpt><trkpt lat="44.747831361276475" lon="7.820462564097809"><ele>295.42857142857144</ele><time>2026-04-10T07:06:32Z</time></trkpt><trkpt lat="44.74789642163527" lon="7.820512396239589"><ele>295.7142857142857</ele><time>2026-04-10T07:06:35Z</time></trkpt><trkpt lat="44.74797699832509" lon="7.820535769100257"><ele>296.0</ele><time>2026-04-10T07:06:38Z</time></trkpt><trkpt lat="44.748055645088705" lon="7.82053470646867"><ele>296.8571428571429</ele><time>2026-04-10T07:06:41Z</time></trkpt><trkpt lat="44.74813569123073" lon="7.820529361477363"><ele>297.7142857142857</ele><time>2026-04-10T07:06:44Z</time></trkpt><trkpt lat="44.74820553883086" lon="7.820530489259294"><ele>298.57142857142856</ele><time>2026-04-10T07:06:47Z</time></trkpt><trkpt lat="44.74829035410251" lon="7.820549086209595"><ele>299.42857142857144</ele><time>2026-04-10T07:06:50Z</time></trkpt><trkpt lat="44.74837002571737" lon="7.820563807726388"><ele>300.2857142857143</ele><time>2026-04-10T07:06:53Z</time></trkpt><trkpt lat="44.74842995253522" lon="7.820595261538055"><ele>301.14285714285717</ele><time>2026-04-10T07:06:56Z</time></trkpt><trkpt lat="44.7484948203514" lon="7.820621893038566"><ele>302.0</ele><time>2026-04-10T07:06:58Z</time></trkpt><trkpt lat="44.748577234061536" lon="7.820658330125494"><ele>303.5714285714286</ele><time>2026-04-10T07:07:02Z</time></trkpt><trkpt lat="44.748648160636215" lon="7.820699738345306"><ele>305.14285714285717</ele><time>2026-04-10T07:07:05.999Z</time></trkpt><trkpt lat="44.74871560080974" lon="7.8207344985674805"><ele>306.7142857142857</ele><time>2026-04-10T07:07:08.999Z</time></trkpt><trkpt lat="44.74877168204407" lon="7.820796707957519"><ele>308.28571428571433</ele><time>2026-04-10T07:07:12.999Z</time></trkpt><trkpt lat="44.74884237973805" lon="7.820846521785777"><ele>309.8571428571429</ele><time>2026-04-10T07:07:16.999Z</time></trkpt><trkpt lat="44.74890264572151" lon="7.820877843250084"><ele>311.42857142857144</ele><time>2026-04-10T07:07:19.999Z</time></trkpt><trkpt lat="44.74898239228423" lon="7.820845478456733"><ele>313.0</ele><time>2026-04-10T07:07:23.999Z</time></trkpt><trkpt lat="44.74903862254662" lon="7.820886762008372"><ele>313.0</ele><time>2026-04-10T07:07:26.999Z</time></trkpt><trkpt lat="44.749062303355814" lon="7.820973694636856"><ele>313.0</ele><time>2026-04-10T07:07:29.999Z</time></trkpt><trkpt lat="44.749129744522314" lon="7.821026718546005"><ele>313.0</ele><time>2026-04-10T07:07:33.999Z</time></trkpt><trkpt lat="44.74919702270937" lon="7.8210788729137635"><ele>313.0</ele><time>2026-04-10T07:07:37.999Z</time></trkpt><trkpt lat="44.749262757610865" lon="7.8211253507481056"><ele>313.0</ele><time>2026-04-10T07:07:41.999Z</time></trkpt><trkpt lat="44.74933954324472" lon="7.821172596985608"><ele>313.0</ele><time>2026-04-10T07:07:45.999Z</time></trkpt><trkpt lat="44.74940195130999" lon="7.821210510219785"><ele>313.0</ele><time>2026-04-10T07:07:49.999Z</time></trkpt><trkpt lat="44.749467079031824" lon="7.82124478462733"><ele>315.16666666666663</ele><time>2026-04-10T07:07:53.999Z</time></trkpt><trkpt lat="44.7495309093621" lon="7.821290436744199"><ele>317.3333333333333</ele><time>2026-04-10T07:07:57.999Z</time></trkpt><trkpt lat="44.74959816487288" lon="7.821315001628218"><ele>319.5</ele><time>2026-04-10T07:08:01.999Z</time></trkpt><trkpt lat="44.74968382503733" lon="7.821341607449864"><ele>321.6666666666667</ele><time>2026-04-10T07:08:05.999Z</time></trkpt><trkpt lat="44.749766981871495" lon="7.821361008428567"><ele>323.83333333333337</ele><time>2026-04-10T07:08:09.999Z</time></trkpt><trkpt lat="44.74984187424827" lon="7.821390807388399"><ele>326.0</ele><time>2026-04-10T07:08:13.999Z</time></trkpt><trkpt lat="44.749907372328174" lon="7.82143458076511"><ele>326.0</ele><time>2026-04-10T07:08:17.999Z</time></trkpt><trkpt lat="44.749983387741054" lon="7.821476977625941"><ele>326.0</ele><time>2026-04-10T07:08:22Z</time></trkpt><trkpt lat="44.750051175697955" lon="7.821527989891386"><ele>326.0</ele><time>2026-04-10T07:08:26Z</time></trkpt><trkpt lat="44.75011434694671" lon="7.821571905467574"><ele>326.0</ele><time>2026-04-10T07:08:30Z</time></trkpt><trkpt lat="44.75017861448152" lon="7.821627239627849"><ele>326.0</ele><time>2026-04-10T07:08:34Z</time></trkpt><trkpt lat="44.750244912843634" lon="7.821695274082604"><ele>326.0</ele><time>2026-04-10T07:08:39Z</time></trkpt><trkpt lat="44.75029052885019" lon="7.8217681787505775"><ele>326.8571428571429</ele><time>2026-04-10T07:08:43Z</time></trkpt><trkpt lat="44.750329628942545" lon="7.821851827398948"><ele>327.71428571428567</ele><time>2026-04-10T07:08:47Z</time></trkpt><trkpt lat="44.750363641605404" lon="7.821929399199774"><ele>328.57142857142856</ele><time>2026-04-10T07:08:51Z</time></trkpt><trkpt lat="44.75041301795335" lon="7.822018100461671"><ele>329.42857142857144</ele><time>2026-04-10T07:08:55Z</time></trkpt><trkpt lat="44.75045341459482" lon="7.822112499926518"><ele>330.28571428571433</ele><time>2026-04-10T07:08:59Z</time></trkpt><trkpt lat="44.75050306100405" lon="7.822189683971389"><ele>331.1428571428571</ele><time>2026-04-10T07:09:04Z</time></trkpt><trkpt lat="44.75053501362203" lon="7.822289262320992"><ele>332.0</ele><time>2026-04-10T07:09:08Z</time></trkpt><trkpt lat="44.7505593537982" lon="7.822397185103093"><ele>332.0</ele><time>2026-04-10T07:09:12.999Z</time></trkpt><trkpt lat="44.750579181771684" lon="7.822497249220426"><ele>332.0</ele><time>2026-04-10T07:09:16.999Z</time></trkpt><trkpt lat="44.75060196298764" lon="7.8226117362575165"><ele>332.0</ele><time>2026-04-10T07:09:19.999Z</time></trkpt><trkpt lat="44.75062842715041" lon="7.822699116614111"><ele>332.0</ele><time>2026-04-10T07:09:23.999Z</time></trkpt><trkpt lat="44.75065894804465" lon="7.8227826705200565"><ele>332.0</ele><time>2026-04-10T07:09:26.999Z</time></trkpt><trkpt lat="44.75068329762268" lon="7.822883526766128"><ele>332.0</ele><time>2026-04-10T07:09:30.999Z</time></trkpt><trkpt lat="44.750646483230774" lon="7.822989532474344"><ele>333.0</ele><time>2026-04-10T07:09:34.999Z</time></trkpt><trkpt lat="44.75055958931521" lon="7.823008881046492"><ele>334.0</ele><time>2026-04-10T07:09:38.999Z</time></trkpt><trkpt lat="44.75049317347431" lon="7.823068938705978"><ele>335.0</ele><time>2026-04-10T07:09:41.999Z</time></trkpt><trkpt lat="44.75043713698132" lon="7.823134195113122"><ele>336.0</ele><time>2026-04-10T07:09:43.999Z</time></trkpt><trkpt lat="44.75036632783512" lon="7.823206219944331"><ele>337.0</ele><time>2026-04-10T07:09:46.999Z</time></trkpt><trkpt lat="44.75031013661492" lon="7.82326607710748"><ele>338.0</ele><time>2026-04-10T07:09:50.999Z</time></trkpt><trkpt lat="44.75024351549011" lon="7.8233251847699385"><ele>338.0</ele><time>2026-04-10T07:09:55.999Z</time></trkpt><trkpt lat="44.75017823606426" lon="7.82337924807805"><ele>338.0</ele><time>2026-04-10T07:10:02.999Z</time></trkpt><trkpt lat="44.75014835642706" lon="7.823463299827071"><ele>338.0</ele><time>2026-04-10T07:10:07.999Z</time></trkpt><trkpt lat="44.750214506260384" lon="7.8234803213692"><ele>338.0</ele><time>2026-04-10T07:10:15.999Z</time></trkpt><trkpt lat="44.75027508891556" lon="7.823513458589795"><ele>338.0</ele><time>2026-04-10T07:10:29Z</time></trkpt><trkpt lat="44.750338806866814" lon="7.823526407175762"><ele>338.0</ele><time>2026-04-10T07:10:47Z</time></trkpt><trkpt lat="44.75041992988502" lon="7.823513316218698"><ele>338.0</ele><time>2026-04-10T07:11:03Z</time></trkpt><trkpt lat="44.75048824084033" lon="7.823517639501882"><ele>338.0</ele><time>2026-04-10T07:11:10Z</time></trkpt><trkpt lat="44.75055473540899" lon="7.823506020638965"><ele>338.0</ele><time>2026-04-10T07:11:16Z</time></trkpt><trkpt lat="44.75062516736238" lon="7.823497280112276"><ele>338.0</ele><time>2026-04-10T07:11:22.999Z</time></trkpt><trkpt lat="44.75069391685017" lon="7.823505006602117"><ele>338.0</ele><time>2026-04-10T07:11:29.999Z</time></trkpt><trkpt lat="44.75076465038738" lon="7.823523254182918"><ele>338.0</ele><time>2026-04-10T07:11:37.999Z</time></trkpt><trkpt lat="44.75083487883312" lon="7.823493058697013"><ele>338.0</ele><time>2026-04-10T07:14:53Z</time></trkpt><trkpt lat="44.75090548622131" lon="7.823449830067906"><ele>338.0</ele><time>2026-04-10T07:14:58Z</time></trkpt><trkpt lat="44.750977200929896" lon="7.823383506051105"><ele>338.0</ele><time>2026-04-10T07:15:02Z</time></trkpt><trkpt lat="44.75103123669636" lon="7.8233361409918"><ele>338.0</ele><time>2026-04-10T07:15:05Z</time></trkpt><trkpt lat="44.751096734735896" lon="7.823297835155714"><ele>338.0</ele><time>2026-04-10T07:15:08Z</time></trkpt><trkpt lat="44.75115870564946" lon="7.823276645303947"><ele>338.0</ele><time>2026-04-10T07:15:11Z</time></trkpt><trkpt lat="44.75121992858811" lon="7.823319375189339"><ele>338.0</ele><time>2026-04-10T07:15:15Z</time></trkpt><trkpt lat="44.75117462438508" lon="7.82338204381638"><ele>338.0</ele><time>2026-04-10T07:15:19Z</time></trkpt><trkpt lat="44.751141539030996" lon="7.823460843933908"><ele>338.0</ele><time>2026-04-10T07:15:23Z</time></trkpt><trkpt lat="44.751100438642716" lon="7.823541292787329"><ele>338.5</ele><time>2026-04-10T07:15:26.999Z</time></trkpt><trkpt lat="44.75106129492843" lon="7.82363915035758"><ele>339.0</ele><time>2026-04-10T07:15:31.999Z</time></trkpt><trkpt lat="44.751021290624905" lon="7.823741012746244"><ele>339.5</ele><time>2026-04-10T07:15:35.999Z</time></trkpt><trkpt lat="44.750983255496955" lon="7.8238300395831555"><ele>340.0</ele><time>2026-04-10T07:15:38.999Z</time></trkpt><trkpt lat="44.75094311234372" lon="7.8239158070679755"><ele>340.5</ele><time>2026-04-10T07:15:41.999Z</time></trkpt><trkpt lat="44.750897091937084" lon="7.824002573192672"><ele>341.0</ele><time>2026-04-10T07:15:44.999Z</time></trkpt><trkpt lat="44.75084543902173" lon="7.824094402184316"><ele>341.0</ele><time>2026-04-10T07:15:47.999Z</time></trkpt><trkpt lat="44.750817103915125" lon="7.824175706455324"><ele>341.0</ele><time>2026-04-10T07:15:49.999Z</time></trkpt><trkpt lat="44.75076819187925" lon="7.824266285388372"><ele>341.0</ele><time>2026-04-10T07:15:51.999Z</time></trkpt><trkpt lat="44.75072191788156" lon="7.82436607778859"><ele>341.0</ele><time>2026-04-10T07:15:53.999Z</time></trkpt><trkpt lat="44.75067253185523" lon="7.824465132788998"><ele>341.0</ele><time>2026-04-10T07:15:55.999Z</time></trkpt><trkpt lat="44.75062298812479" lon="7.824565837875762"><ele>341.0</ele><time>2026-04-10T07:15:57.999Z</time></trkpt><trkpt lat="44.750581447338945" lon="7.824667139901302"><ele>340.8</ele><time>2026-04-10T07:15:59.999Z</time></trkpt><trkpt lat="44.75053237630553" lon="7.824767647452068"><ele>340.6</ele><time>2026-04-10T07:16:01.999Z</time></trkpt><trkpt lat="44.750477238498455" lon="7.824876907033485"><ele>340.4</ele><time>2026-04-10T07:16:03.999Z</time></trkpt><trkpt lat="44.75042829572668" lon="7.824991948050833"><ele>340.2</ele><time>2026-04-10T07:16:05.999Z</time></trkpt><trkpt lat="44.75037670127633" lon="7.825100462611835"><ele>340.0</ele><time>2026-04-10T07:16:07.999Z</time></trkpt><trkpt lat="44.75032574609728" lon="7.825208243542652"><ele>340.0</ele><time>2026-04-10T07:16:09.999Z</time></trkpt><trkpt lat="44.75027313442971" lon="7.825318209681451"><ele>340.0</ele><time>2026-04-10T07:16:11.999Z</time></trkpt><trkpt lat="44.75022012634276" lon="7.825422880068673"><ele>340.0</ele><time>2026-04-10T07:16:13.999Z</time></trkpt><trkpt lat="44.75016143926055" lon="7.8255230844882355"><ele>340.0</ele><time>2026-04-10T07:16:15.999Z</time></trkpt><trkpt lat="44.750104473393215" lon="7.825630290280809"><ele>340.0</ele><time>2026-04-10T07:16:17.999Z</time></trkpt><trkpt lat="44.75004985691483" lon="7.825732624541484"><ele>340.0</ele><time>2026-04-10T07:16:19.999Z</time></trkpt><trkpt lat="44.74999273651969" lon="7.825839092065513"><ele>340.0</ele><time>2026-04-10T07:16:21.999Z</time></trkpt><trkpt lat="44.74994103655564" lon="7.8259418687085125"><ele>340.0</ele><time>2026-04-10T07:16:23.999Z</time></trkpt><trkpt lat="44.74988699298757" lon="7.826030366917064"><ele>340.0</ele><time>2026-04-10T07:16:25.999Z</time></trkpt><trkpt lat="44.74982998016844" lon="7.82611722378214"><ele>340.0</ele><time>2026-04-10T07:16:27.999Z</time></trkpt><trkpt lat="44.74977172455311" lon="7.826215813870248"><ele>340.0</ele><time>2026-04-10T07:16:29.999Z</time></trkpt><trkpt lat="44.749727912064124" lon="7.826311425484457"><ele>340.0</ele><time>2026-04-10T07:16:31.999Z</time></trkpt><trkpt lat="44.74967985173715" lon="7.826405849510815"><ele>340.0</ele><time>2026-04-10T07:16:33.999Z</time></trkpt><trkpt lat="44.74963409691493" lon="7.826499509752224"><ele>340.0</ele><time>2026-04-10T07:16:35.999Z</time></trkpt><trkpt lat="44.7495858892242" lon="7.8265898193504295"><ele>340.0</ele><time>2026-04-10T07:16:37.999Z</time></trkpt><trkpt lat="44.74953375118022" lon="7.826685661216372"><ele>340.0</ele><time>2026-04-10T07:16:39.998Z</time></trkpt><trkpt lat="44.74947846189855" lon="7.826782457581229"><ele>340.0</ele><time>2026-04-10T07:16:41.998Z</time></trkpt><trkpt lat="44.74942508575114" lon="7.8268676371121275"><ele>341.3333333333333</ele><time>2026-04-10T07:16:43.998Z</time></trkpt><trkpt lat="44.749370170745735" lon="7.826958899079112"><ele>342.66666666666663</ele><time>2026-04-10T07:16:46Z</time></trkpt><trkpt lat="44.74931731868976" lon="7.827038234782879"><ele>344.0</ele><time>2026-04-10T07:16:48Z</time></trkpt><trkpt lat="44.74927250940745" lon="7.827121589399331"><ele>345.3333333333333</ele><time>2026-04-10T07:16:50Z</time></trkpt><trkpt lat="44.74922025387585" lon="7.827182594148588"><ele>346.6666666666667</ele><time>2026-04-10T07:16:52Z</time></trkpt><trkpt lat="44.74917635324146" lon="7.827265908035469"><ele>348.0</ele><time>2026-04-10T07:16:54Z</time></trkpt><trkpt lat="44.74911125348081" lon="7.827367487363307"><ele>348.0</ele><time>2026-04-10T07:16:57Z</time></trkpt><trkpt lat="44.74906584585512" lon="7.8274606133345666"><ele>348.0</ele><time>2026-04-10T07:16:59Z</time></trkpt><trkpt lat="44.749022850424645" lon="7.827529153161298"><ele>348.0</ele><time>2026-04-10T07:17:01Z</time></trkpt><trkpt lat="44.748975957945675" lon="7.827609254426241"><ele>348.0</ele><time>2026-04-10T07:17:03Z</time></trkpt><trkpt lat="44.74891797466882" lon="7.827682834784578"><ele>348.0</ele><time>2026-04-10T07:17:05Z</time></trkpt><trkpt lat="44.74887447851146" lon="7.827763573133615"><ele>348.0</ele><time>2026-04-10T07:17:07Z</time></trkpt><trkpt lat="44.748805963774245" lon="7.827828479975889"><ele>347.6666666666667</ele><time>2026-04-10T07:17:09Z</time></trkpt><trkpt lat="44.74873460527005" lon="7.827901450168786"><ele>347.3333333333333</ele><time>2026-04-10T07:17:11Z</time></trkpt><trkpt lat="44.74866620372534" lon="7.827964764220383"><ele>347.0</ele><time>2026-04-10T07:17:13Z</time></trkpt><trkpt lat="44.74859770899245" lon="7.828029702515667"><ele>346.66666666666663</ele><time>2026-04-10T07:17:15Z</time></trkpt><trkpt lat="44.748530966019565" lon="7.828107022757005"><ele>346.3333333333333</ele><time>2026-04-10T07:17:17Z</time></trkpt><trkpt lat="44.74847147241402" lon="7.82820103677252"><ele>346.0</ele><time>2026-04-10T07:17:19Z</time></trkpt><trkpt lat="44.74841246906819" lon="7.828296441724858"><ele>345.8333333333333</ele><time>2026-04-10T07:17:21Z</time></trkpt><trkpt lat="44.74836236804118" lon="7.828396914590106"><ele>345.66666666666663</ele><time>2026-04-10T07:17:23Z</time></trkpt><trkpt lat="44.7483163938131" lon="7.8284990716364895"><ele>345.5</ele><time>2026-04-10T07:17:25Z</time></trkpt><trkpt lat="44.74826530513372" lon="7.828594980753679"><ele>345.3333333333333</ele><time>2026-04-10T07:17:27Z</time></trkpt><trkpt lat="44.74823034708568" lon="7.828717769251213"><ele>345.1666666666667</ele><time>2026-04-10T07:17:29Z</time></trkpt><trkpt lat="44.74818150751268" lon="7.828825456899592"><ele>345.0</ele><time>2026-04-10T07:17:31Z</time></trkpt><trkpt lat="44.7481370100827" lon="7.828949974865204"><ele>345.4</ele><time>2026-04-10T07:17:33Z</time></trkpt><trkpt lat="44.7480932925918" lon="7.8290616454759"><ele>345.8</ele><time>2026-04-10T07:17:35Z</time></trkpt><trkpt lat="44.748053578184305" lon="7.82918479742608"><ele>346.20000000000005</ele><time>2026-04-10T07:17:37Z</time></trkpt><trkpt lat="44.74801099326753" lon="7.829303315870746"><ele>346.6</ele><time>2026-04-10T07:17:38.999Z</time></trkpt><trkpt lat="44.7479868617198" lon="7.829427244760339"><ele>347.0</ele><time>2026-04-10T07:17:40.999Z</time></trkpt><trkpt lat="44.74796461801302" lon="7.829561967898372"><ele>347.6</ele><time>2026-04-10T07:17:42.999Z</time></trkpt><trkpt lat="44.747942565764326" lon="7.82968585276677"><ele>348.20000000000005</ele><time>2026-04-10T07:17:44.999Z</time></trkpt><trkpt lat="44.74792678610944" lon="7.829805612943062"><ele>348.8</ele><time>2026-04-10T07:17:46.999Z</time></trkpt><trkpt lat="44.7479362827437" lon="7.829924262463214"><ele>349.4</ele><time>2026-04-10T07:17:48.999Z</time></trkpt><trkpt lat="44.74797639775151" lon="7.830038866843442"><ele>350.0</ele><time>2026-04-10T07:17:50.999Z</time></trkpt><trkpt lat="44.74803469693898" lon="7.8301501005731"><ele>350.0</ele><time>2026-04-10T07:17:53.999Z</time></trkpt><trkpt lat="44.74809159774718" lon="7.830250701353402"><ele>350.0</ele><time>2026-04-10T07:17:55.999Z</time></trkpt><trkpt lat="44.748102440634284" lon="7.83037048261994"><ele>350.0</ele><time>2026-04-10T07:17:57.999Z</time></trkpt><trkpt lat="44.748096245460836" lon="7.830475367200999"><ele>350.0</ele><time>2026-04-10T07:17:59.999Z</time></trkpt><trkpt lat="44.748089475794565" lon="7.830586390678424"><ele>350.0</ele><time>2026-04-10T07:18:01.999Z</time></trkpt><trkpt lat="44.74808479194712" lon="7.830706629239581"><ele>350.0</ele><time>2026-04-10T07:18:03.999Z</time></trkpt><trkpt lat="44.74808681952733" lon="7.830829662197706"><ele>350.0</ele><time>2026-04-10T07:18:05.999Z</time></trkpt><trkpt lat="44.74810020308757" lon="7.830934275888267"><ele>350.0</ele><time>2026-04-10T07:18:07.999Z</time></trkpt><trkpt lat="44.74812758172413" lon="7.83102755530811"><ele>350.0</ele><time>2026-04-10T07:18:09.999Z</time></trkpt><trkpt lat="44.74816155121027" lon="7.831128559484571"><ele>350.0</ele><time>2026-04-10T07:18:11.999Z</time></trkpt><trkpt lat="44.748187353163" lon="7.831222051479741"><ele>350.0</ele><time>2026-04-10T07:18:13.999Z</time></trkpt><trkpt lat="44.74822583083588" lon="7.831320741558789"><ele>350.0</ele><time>2026-04-10T07:18:15.999Z</time></trkpt><trkpt lat="44.74823909311319" lon="7.831412108750172"><ele>350.0</ele><time>2026-04-10T07:18:17.999Z</time></trkpt><trkpt lat="44.74825177684796" lon="7.831515484052546"><ele>350.1666666666667</ele><time>2026-04-10T07:18:19.999Z</time></trkpt><trkpt lat="44.74824177068514" lon="7.831627379457678"><ele>350.33333333333337</ele><time>2026-04-10T07:18:21.999Z</time></trkpt><trkpt lat="44.748228311882286" lon="7.831725159981191"><ele>350.5</ele><time>2026-04-10T07:18:23.999Z</time></trkpt><trkpt lat="44.74821033028313" lon="7.831825994598926"><ele>350.6666666666667</ele><time>2026-04-10T07:18:25.999Z</time></trkpt><trkpt lat="44.74818223116039" lon="7.831917745583319"><ele>350.8333333333333</ele><time>2026-04-10T07:18:27.999Z</time></trkpt><trkpt lat="44.7481531321767" lon="7.8320101998430784"><ele>351.0</ele><time>2026-04-10T07:18:29.999Z</time></trkpt><trkpt lat="44.7481149299374" lon="7.832129955869453"><ele>351.5</ele><time>2026-04-10T07:18:32.999Z</time></trkpt><trkpt lat="44.74808548740594" lon="7.832257850677475"><ele>352.0</ele><time>2026-04-10T07:18:35.999Z</time></trkpt><trkpt lat="44.748073493604295" lon="7.832349175210472"><ele>352.5</ele><time>2026-04-10T07:18:37.999Z</time></trkpt><trkpt lat="44.74808347616852" lon="7.832474793250641"><ele>353.0</ele><time>2026-04-10T07:18:40.999Z</time></trkpt><trkpt lat="44.74810601782957" lon="7.832569061252686"><ele>353.5</ele><time>2026-04-10T07:18:42.999Z</time></trkpt><trkpt lat="44.748114814536684" lon="7.832661002183587"><ele>354.0</ele><time>2026-04-10T07:18:44.999Z</time></trkpt><trkpt lat="44.74811235376053" lon="7.832757377568388"><ele>354.0</ele><time>2026-04-10T07:18:46.999Z</time></trkpt><trkpt lat="44.74811193709278" lon="7.832868925862778"><ele>354.0</ele><time>2026-04-10T07:18:48.999Z</time></trkpt><trkpt lat="44.74810498565354" lon="7.832984147337828"><ele>354.0</ele><time>2026-04-10T07:18:51Z</time></trkpt><trkpt lat="44.74808849198785" lon="7.833097108404749"><ele>354.0</ele><time>2026-04-10T07:18:53Z</time></trkpt><trkpt lat="44.74806965322716" lon="7.833215213106878"><ele>354.0</ele><time>2026-04-10T07:18:55Z</time></trkpt><trkpt lat="44.74804560843934" lon="7.833342176809045"><ele>354.0</ele><time>2026-04-10T07:18:57Z</time></trkpt><trkpt lat="44.74801858420636" lon="7.833468549976448"><ele>353.79999999999995</ele><time>2026-04-10T07:18:59Z</time></trkpt><trkpt lat="44.747987346937755" lon="7.833592094179595"><ele>353.59999999999997</ele><time>2026-04-10T07:19:01Z</time></trkpt><trkpt lat="44.74796196056667" lon="7.8337148966411485"><ele>353.4</ele><time>2026-04-10T07:19:03Z</time></trkpt><trkpt lat="44.74793450134464" lon="7.833834741147383"><ele>353.2</ele><time>2026-04-10T07:19:05Z</time></trkpt><trkpt lat="44.74791352017684" lon="7.833956487869137"><ele>353.0</ele><time>2026-04-10T07:19:07Z</time></trkpt><trkpt lat="44.74790299294686" lon="7.8340802907509595"><ele>353.0</ele><time>2026-04-10T07:19:09Z</time></trkpt><trkpt lat="44.747892133806715" lon="7.834192927175975"><ele>353.0</ele><time>2026-04-10T07:19:11Z</time></trkpt><trkpt lat="44.74788171009677" lon="7.834305586262853"><ele>353.0</ele><time>2026-04-10T07:19:13Z</time></trkpt><trkpt lat="44.747856142934644" lon="7.834413574494558"><ele>353.0</ele><time>2026-04-10T07:19:15Z</time></trkpt><trkpt lat="44.74781369446424" lon="7.834509006668921"><ele>353.0</ele><time>2026-04-10T07:19:17Z</time></trkpt><trkpt lat="44.747766150143796" lon="7.834594621312385"><ele>353.0</ele><time>2026-04-10T07:19:19Z</time></trkpt><trkpt lat="44.74771986819083" lon="7.834690650027391"><ele>354.0</ele><time>2026-04-10T07:19:21Z</time></trkpt><trkpt lat="44.747684786879226" lon="7.834785769826625"><ele>355.0</ele><time>2026-04-10T07:19:23Z</time></trkpt><trkpt lat="44.74766182146988" lon="7.834884286793897"><ele>356.0</ele><time>2026-04-10T07:19:25Z</time></trkpt><trkpt lat="44.74763935105787" lon="7.834970619162969"><ele>357.0</ele><time>2026-04-10T07:19:27Z</time></trkpt><trkpt lat="44.74760690442639" lon="7.835098815054035"><ele>358.0</ele><time>2026-04-10T07:19:30Z</time></trkpt><trkpt lat="44.74758484007128" lon="7.835191704054696"><ele>359.0</ele><time>2026-04-10T07:19:32Z</time></trkpt><trkpt lat="44.7475471905293" lon="7.835289878077327"><ele>359.33333333333337</ele><time>2026-04-10T07:19:34Z</time></trkpt><trkpt lat="44.7475110555743" lon="7.835372569206699"><ele>359.6666666666667</ele><time>2026-04-10T07:19:36Z</time></trkpt><trkpt lat="44.7474562606992" lon="7.835432095146366"><ele>360.0</ele><time>2026-04-10T07:19:37.999Z</time></trkpt><trkpt lat="44.747378055995455" lon="7.835479156015338"><ele>360.3333333333333</ele><time>2026-04-10T07:19:39.999Z</time></trkpt><trkpt lat="44.747311150992196" lon="7.835532412815309"><ele>360.66666666666663</ele><time>2026-04-10T07:19:41.999Z</time></trkpt><trkpt lat="44.74724842898685" lon="7.835573772846842"><ele>361.0</ele><time>2026-04-10T07:19:43.999Z</time></trkpt><trkpt lat="44.74716772519561" lon="7.835619486482859"><ele>361.0</ele><time>2026-04-10T07:19:45.999Z</time></trkpt><trkpt lat="44.74709322842737" lon="7.835652939949437"><ele>361.0</ele><time>2026-04-10T07:19:47.999Z</time></trkpt><trkpt lat="44.74702197874065" lon="7.83570028743023"><ele>361.0</ele><time>2026-04-10T07:19:49.999Z</time></trkpt><trkpt lat="44.74695182646393" lon="7.83574706166297"><ele>361.0</ele><time>2026-04-10T07:19:51.999Z</time></trkpt><trkpt lat="44.7468791028666" lon="7.8357883006878755"><ele>361.0</ele><time>2026-04-10T07:19:53.999Z</time></trkpt><trkpt lat="44.74681133966929" lon="7.835833683348639"><ele>361.0</ele><time>2026-04-10T07:19:55.999Z</time></trkpt><trkpt lat="44.746740264557765" lon="7.83587823230151"><ele>361.16666666666663</ele><time>2026-04-10T07:19:57.999Z</time></trkpt><trkpt lat="44.746672679188386" lon="7.835926279728577"><ele>361.3333333333333</ele><time>2026-04-10T07:19:59.999Z</time></trkpt><trkpt lat="44.74660597875097" lon="7.835971091638488"><ele>361.5</ele><time>2026-04-10T07:20:01.999Z</time></trkpt><trkpt lat="44.746542257350654" lon="7.836036908825257"><ele>361.6666666666667</ele><time>2026-04-10T07:20:03.999Z</time></trkpt><trkpt lat="44.74647012646129" lon="7.836082227866724"><ele>361.83333333333337</ele><time>2026-04-10T07:20:05.999Z</time></trkpt><trkpt lat="44.74639606804816" lon="7.836137750829058"><ele>362.0</ele><time>2026-04-10T07:20:07.999Z</time></trkpt><trkpt lat="44.74633295705639" lon="7.83619060683683"><ele>362.33333333333337</ele><time>2026-04-10T07:20:09.999Z</time></trkpt><trkpt lat="44.74625819661378" lon="7.836230973422962"><ele>362.6666666666667</ele><time>2026-04-10T07:20:11.999Z</time></trkpt><trkpt lat="44.746200249323444" lon="7.836315109803278"><ele>363.0</ele><time>2026-04-10T07:20:13.999Z</time></trkpt><trkpt lat="44.74615910892769" lon="7.8364195744119085"><ele>363.3333333333333</ele><time>2026-04-10T07:20:15.999Z</time></trkpt><trkpt lat="44.74613162997809" lon="7.836518081215104"><ele>363.66666666666663</ele><time>2026-04-10T07:20:17.999Z</time></trkpt><trkpt lat="44.74610265131232" lon="7.836620073227821"><ele>364.0</ele><time>2026-04-10T07:20:19.999Z</time></trkpt><trkpt lat="44.7460628069615" lon="7.83671180782864"><ele>363.85714285714283</ele><time>2026-04-10T07:20:21.999Z</time></trkpt><trkpt lat="44.74602358932712" lon="7.83679293997268"><ele>363.7142857142857</ele><time>2026-04-10T07:20:23.999Z</time></trkpt><trkpt lat="44.74598022263434" lon="7.836881937794196"><ele>363.57142857142856</ele><time>2026-04-10T07:20:25.999Z</time></trkpt><trkpt lat="44.745941127879895" lon="7.836971579793001"><ele>363.42857142857144</ele><time>2026-04-10T07:20:27.999Z</time></trkpt><trkpt lat="44.74591460440611" lon="7.837070236454054"><ele>363.2857142857143</ele><time>2026-04-10T07:20:29.999Z</time></trkpt><trkpt lat="44.745898877015584" lon="7.83716543200259"><ele>363.1428571428571</ele><time>2026-04-10T07:20:31.999Z</time></trkpt><trkpt lat="44.74587729288316" lon="7.837255595929304"><ele>363.0</ele><time>2026-04-10T07:20:33.999Z</time></trkpt><trkpt lat="44.745864278254174" lon="7.837350861344421"><ele>362.85714285714283</ele><time>2026-04-10T07:20:35.999Z</time></trkpt><trkpt lat="44.74583976538742" lon="7.83745306330603"><ele>362.7142857142857</ele><time>2026-04-10T07:20:37.999Z</time></trkpt><trkpt lat="44.745820550302874" lon="7.837539245400422"><ele>362.57142857142856</ele><time>2026-04-10T07:20:39.999Z</time></trkpt><trkpt lat="44.74578668981296" lon="7.837622114942824"><ele>362.42857142857144</ele><time>2026-04-10T07:20:41.999Z</time></trkpt><trkpt lat="44.74573030655853" lon="7.837681140624562"><ele>362.2857142857143</ele><time>2026-04-10T07:20:43.999Z</time></trkpt><trkpt lat="44.74567325030407" lon="7.837636654649473"><ele>362.1428571428571</ele><time>2026-04-10T07:20:45.999Z</time></trkpt><trkpt lat="44.74560236346151" lon="7.837676627471117"><ele>362.0</ele><time>2026-04-10T07:20:48.999Z</time></trkpt><trkpt lat="44.745522680255384" lon="7.837730757292259"><ele>362.0</ele><time>2026-04-10T07:20:51.998Z</time></trkpt><trkpt lat="44.74546322458024" lon="7.837765659430246"><ele>362.0</ele><time>2026-04-10T07:20:53.998Z</time></trkpt><trkpt lat="44.745398109029914" lon="7.837809773512664"><ele>362.0</ele><time>2026-04-10T07:20:55.998Z</time></trkpt><trkpt lat="44.74531874761202" lon="7.837860079918473"><ele>362.0</ele><time>2026-04-10T07:20:59Z</time></trkpt><trkpt lat="44.7452570549701" lon="7.837900645932058"><ele>362.0</ele><time>2026-04-10T07:21:01Z</time></trkpt><trkpt lat="44.74519209999559" lon="7.837951490160557"><ele>362.0</ele><time>2026-04-10T07:21:03Z</time></trkpt><trkpt lat="44.74512993845276" lon="7.837974517042292"><ele>362.0</ele><time>2026-04-10T07:21:05Z</time></trkpt><trkpt lat="44.74504731837542" lon="7.838034173829222"><ele>363.0</ele><time>2026-04-10T07:21:08Z</time></trkpt><trkpt lat="44.744966185339" lon="7.838087483259545"><ele>364.0</ele><time>2026-04-10T07:21:11Z</time></trkpt><trkpt lat="44.74490690670536" lon="7.8381312034190325"><ele>365.0</ele><time>2026-04-10T07:21:13Z</time></trkpt><trkpt lat="44.74481979079709" lon="7.838187066848734"><ele>366.0</ele><time>2026-04-10T07:21:16Z</time></trkpt><trkpt lat="44.74475383961216" lon="7.838227258292666"><ele>367.0</ele><time>2026-04-10T07:21:18Z</time></trkpt><trkpt lat="44.744690740537166" lon="7.838269097838425"><ele>368.0</ele><time>2026-04-10T07:21:20Z</time></trkpt><trkpt lat="44.74462923077136" lon="7.838305692866958"><ele>368.0</ele><time>2026-04-10T07:21:22Z</time></trkpt><trkpt lat="44.74456966102308" lon="7.838347179341421"><ele>368.0</ele><time>2026-04-10T07:21:24Z</time></trkpt><trkpt lat="44.74449784802479" lon="7.838388248365089"><ele>368.0</ele><time>2026-04-10T07:21:26Z</time></trkpt><trkpt lat="44.74443035205544" lon="7.838424176378568"><ele>368.0</ele><time>2026-04-10T07:21:28Z</time></trkpt><trkpt lat="44.744348742441055" lon="7.83847703005497"><ele>368.0</ele><time>2026-04-10T07:21:30Z</time></trkpt><trkpt lat="44.744254659244376" lon="7.838532312711081"><ele>368.0</ele><time>2026-04-10T07:21:32Z</time></trkpt><trkpt lat="44.74416604251159" lon="7.838586353607776"><ele>367.83333333333337</ele><time>2026-04-10T07:21:34Z</time></trkpt><trkpt lat="44.74408120458478" lon="7.83863424841282"><ele>367.6666666666667</ele><time>2026-04-10T07:21:36Z</time></trkpt><trkpt lat="44.744004362039384" lon="7.838691614775896"><ele>367.5</ele><time>2026-04-10T07:21:38Z</time></trkpt><trkpt lat="44.74393013755575" lon="7.838738616114705"><ele>367.3333333333333</ele><time>2026-04-10T07:21:40Z</time></trkpt><trkpt lat="44.743853508850954" lon="7.838790145797943"><ele>367.16666666666663</ele><time>2026-04-10T07:21:42Z</time></trkpt><trkpt lat="44.74377467858265" lon="7.838837547948196"><ele>367.0</ele><time>2026-04-10T07:21:44Z</time></trkpt><trkpt lat="44.743696656484325" lon="7.838887809349238"><ele>367.0</ele><time>2026-04-10T07:21:46Z</time></trkpt><trkpt lat="44.743619496957905" lon="7.838931773444639"><ele>367.0</ele><time>2026-04-10T07:21:48Z</time></trkpt><trkpt lat="44.74353969949606" lon="7.838966033065793"><ele>367.0</ele><time>2026-04-10T07:21:50Z</time></trkpt><trkpt lat="44.74346084283353" lon="7.838981990461339"><ele>367.0</ele><time>2026-04-10T07:21:51.999Z</time></trkpt><trkpt lat="44.74338713505004" lon="7.8390066020731055"><ele>367.0</ele><time>2026-04-10T07:21:53.999Z</time></trkpt><trkpt lat="44.74330734375278" lon="7.839026187312269"><ele>367.0</ele><time>2026-04-10T07:21:55.999Z</time></trkpt><trkpt lat="44.74322626034042" lon="7.8390429063571965"><ele>367.5</ele><time>2026-04-10T07:21:57.999Z</time></trkpt><trkpt lat="44.74314070588259" lon="7.839059556365333"><ele>368.0</ele><time>2026-04-10T07:21:59.999Z</time></trkpt><trkpt lat="44.74305408615356" lon="7.839091168461999"><ele>368.5</ele><time>2026-04-10T07:22:01.999Z</time></trkpt><trkpt lat="44.74297497045199" lon="7.839139805172579"><ele>369.0</ele><time>2026-04-10T07:22:03.999Z</time></trkpt><trkpt lat="44.74290078301077" lon="7.839197691933392"><ele>369.5</ele><time>2026-04-10T07:22:05.999Z</time></trkpt><trkpt lat="44.74283014930071" lon="7.839266902831259"><ele>370.0</ele><time>2026-04-10T07:22:07.999Z</time></trkpt><trkpt lat="44.74276250303003" lon="7.83934443122282"><ele>370.3333333333333</ele><time>2026-04-10T07:22:09.999Z</time></trkpt><trkpt lat="44.74270357027135" lon="7.839443881172336"><ele>370.66666666666663</ele><time>2026-04-10T07:22:11.999Z</time></trkpt><trkpt lat="44.74264951701431" lon="7.839519906305016"><ele>371.0</ele><time>2026-04-10T07:22:13.999Z</time></trkpt><trkpt lat="44.74259280636268" lon="7.839569707092394"><ele>371.3333333333333</ele><time>2026-04-10T07:22:15.999Z</time></trkpt><trkpt lat="44.74253124773944" lon="7.839616778468864"><ele>371.6666666666667</ele><time>2026-04-10T07:22:17.999Z</time></trkpt><trkpt lat="44.742470862957155" lon="7.8396843467378545"><ele>372.0</ele><time>2026-04-10T07:22:19.999Z</time></trkpt><trkpt lat="44.74240936928218" lon="7.839745659478237"><ele>372.0</ele><time>2026-04-10T07:22:21.999Z</time></trkpt><trkpt lat="44.74234256632304" lon="7.839758408942874"><ele>372.0</ele><time>2026-04-10T07:22:23.999Z</time></trkpt><trkpt lat="44.74225703025404" lon="7.839752439123484"><ele>372.0</ele><time>2026-04-10T07:22:26.999Z</time></trkpt><trkpt lat="44.74218553890463" lon="7.839738425915575"><ele>372.0</ele><time>2026-04-10T07:22:29.999Z</time></trkpt><trkpt lat="44.74212429016799" lon="7.839765684639081"><ele>372.0</ele><time>2026-04-10T07:22:32.999Z</time></trkpt><trkpt lat="44.742037005797755" lon="7.839818406128699"><ele>372.0</ele><time>2026-04-10T07:22:34.999Z</time></trkpt><trkpt lat="44.74197035275679" lon="7.839869802645583"><ele>372.00000000000006</ele><time>2026-04-10T07:22:36.999Z</time></trkpt><trkpt lat="44.74191900054277" lon="7.839948080600365"><ele>372.0</ele><time>2026-04-10T07:22:38.999Z</time></trkpt><trkpt lat="44.741870900726816" lon="7.840027845096494"><ele>372.0</ele><time>2026-04-10T07:22:40.999Z</time></trkpt><trkpt lat="44.74183413693479" lon="7.840108305437697"><ele>372.0</ele><time>2026-04-10T07:22:42.999Z</time></trkpt><trkpt lat="44.74178482738193" lon="7.840174621169718"><ele>372.0</ele><time>2026-04-10T07:22:44.999Z</time></trkpt><trkpt lat="44.741729293509664" lon="7.840235958296678"><ele>372.00000000000006</ele><time>2026-04-10T07:22:46.999Z</time></trkpt><trkpt lat="44.741669552576255" lon="7.840305347831041"><ele>372.0</ele><time>2026-04-10T07:22:48.999Z</time></trkpt><trkpt lat="44.74161004560878" lon="7.840368076777533"><ele>372.5</ele><time>2026-04-10T07:22:50.999Z</time></trkpt><trkpt lat="44.74156283162716" lon="7.840441703838156"><ele>373.0</ele><time>2026-04-10T07:22:52.999Z</time></trkpt><trkpt lat="44.741516227829074" lon="7.840557779876498"><ele>373.5</ele><time>2026-04-10T07:22:55.999Z</time></trkpt><trkpt lat="44.74150111055099" lon="7.840650739482302"><ele>374.0</ele><time>2026-04-10T07:22:57.999Z</time></trkpt><trkpt lat="44.74149729822322" lon="7.840777755931645"><ele>374.5</ele><time>2026-04-10T07:23:00.999Z</time></trkpt><trkpt lat="44.74151361175752" lon="7.840903564711894"><ele>375.0</ele><time>2026-04-10T07:23:04Z</time></trkpt><trkpt lat="44.74152413060598" lon="7.841038435518453"><ele>375.0</ele><time>2026-04-10T07:23:07Z</time></trkpt><trkpt lat="44.741545537159226" lon="7.841134735511698"><ele>375.0</ele><time>2026-04-10T07:23:09Z</time></trkpt><trkpt lat="44.74157677095108" lon="7.84124639084629"><ele>375.0</ele><time>2026-04-10T07:23:12Z</time></trkpt><trkpt lat="44.741567090590124" lon="7.841369338251018"><ele>375.0</ele><time>2026-04-10T07:23:15Z</time></trkpt><trkpt lat="44.74154572895609" lon="7.841459742339548"><ele>375.0</ele><time>2026-04-10T07:23:17Z</time></trkpt><trkpt lat="44.741506854513545" lon="7.841560431897646"><ele>375.0</ele><time>2026-04-10T07:23:19Z</time></trkpt><trkpt lat="44.74145886800565" lon="7.841667530753841"><ele>375.0</ele><time>2026-04-10T07:23:21Z</time></trkpt><trkpt lat="44.7414115996961" lon="7.841770692356147"><ele>375.0</ele><time>2026-04-10T07:23:23Z</time></trkpt><trkpt lat="44.74135727837299" lon="7.841839557094277"><ele>375.0</ele><time>2026-04-10T07:23:25Z</time></trkpt><trkpt lat="44.74127847181727" lon="7.8418787164062"><ele>375.0</ele><time>2026-04-10T07:23:27Z</time></trkpt><trkpt lat="44.74120504526579" lon="7.841909855423317"><ele>375.0</ele><time>2026-04-10T07:23:29Z</time></trkpt><trkpt lat="44.74113271000213" lon="7.841956646204832"><ele>375.0</ele><time>2026-04-10T07:23:31Z</time></trkpt><trkpt lat="44.7410717996236" lon="7.842023179677546"><ele>375.0</ele><time>2026-04-10T07:23:33Z</time></trkpt><trkpt lat="44.74104628550146" lon="7.8421333802968425"><ele>375.0</ele><time>2026-04-10T07:23:35Z</time></trkpt><trkpt lat="44.7410713573344" lon="7.842247356692088"><ele>375.0</ele><time>2026-04-10T07:23:37Z</time></trkpt><trkpt lat="44.741106853388686" lon="7.8423452565267615"><ele>375.0</ele><time>2026-04-10T07:23:39Z</time></trkpt><trkpt lat="44.74113691073882" lon="7.842440581125933"><ele>375.0</ele><time>2026-04-10T07:23:42Z</time></trkpt><trkpt lat="44.74117860861479" lon="7.842567743160665"><ele>375.0</ele><time>2026-04-10T07:23:44Z</time></trkpt><trkpt lat="44.741218392352565" lon="7.8426665930176185"><ele>375.3333333333333</ele><time>2026-04-10T07:23:46Z</time></trkpt><trkpt lat="44.74125371981002" lon="7.842763886677234"><ele>375.6666666666667</ele><time>2026-04-10T07:23:47.999Z</time></trkpt><trkpt lat="44.741276779496424" lon="7.842877781111703"><ele>376.0</ele><time>2026-04-10T07:23:49.999Z</time></trkpt><trkpt lat="44.741272919270195" lon="7.842979868819645"><ele>376.33333333333337</ele><time>2026-04-10T07:23:52.999Z</time></trkpt><trkpt lat="44.74121043891195" lon="7.843099896277471"><ele>376.6666666666667</ele><time>2026-04-10T07:23:55.999Z</time></trkpt><trkpt lat="44.741144707614176" lon="7.843139732841713"><ele>377.0</ele><time>2026-04-10T07:23:57.999Z</time></trkpt><trkpt lat="44.74108293251562" lon="7.843166026914862"><ele>377.4285714285714</ele><time>2026-04-10T07:23:59.999Z</time></trkpt><trkpt lat="44.7410222174594" lon="7.8432059076988985"><ele>377.85714285714283</ele><time>2026-04-10T07:24:01.999Z</time></trkpt><trkpt lat="44.74096204070502" lon="7.843251538232744"><ele>378.2857142857143</ele><time>2026-04-10T07:24:03.999Z</time></trkpt><trkpt lat="44.740887991579484" lon="7.843338267122846"><ele>378.71428571428567</ele><time>2026-04-10T07:24:06.999Z</time></trkpt><trkpt lat="44.740839024495294" lon="7.843404067404201"><ele>379.14285714285717</ele><time>2026-04-10T07:24:08.999Z</time></trkpt><trkpt lat="44.74078788343476" lon="7.843461950936548"><ele>379.57142857142856</ele><time>2026-04-10T07:24:10.999Z</time></trkpt><trkpt lat="44.740729727033404" lon="7.84352005365538"><ele>380.0</ele><time>2026-04-10T07:24:12.999Z</time></trkpt><trkpt lat="44.74067541943662" lon="7.8435674268989795"><ele>380.33333333333337</ele><time>2026-04-10T07:24:14.999Z</time></trkpt><trkpt lat="44.74062472266759" lon="7.843620671533392"><ele>380.6666666666667</ele><time>2026-04-10T07:24:16.999Z</time></trkpt><trkpt lat="44.74053506301324" lon="7.843675285418029"><ele>381.0</ele><time>2026-04-10T07:24:19.999Z</time></trkpt><trkpt lat="44.74047597782419" lon="7.843719330885433"><ele>381.3333333333333</ele><time>2026-04-10T07:24:21.999Z</time></trkpt><trkpt lat="44.74040915866839" lon="7.843795085810182"><ele>381.66666666666663</ele><time>2026-04-10T07:24:24.999Z</time></trkpt><trkpt lat="44.74035493029" lon="7.843858005652262"><ele>382.0</ele><time>2026-04-10T07:24:26.999Z</time></trkpt><trkpt lat="44.74029569353987" lon="7.843935808557248"><ele>382.0</ele><time>2026-04-10T07:24:28.999Z</time></trkpt><trkpt lat="44.74024201209146" lon="7.84400672111368"><ele>382.0</ele><time>2026-04-10T07:24:30.999Z</time></trkpt><trkpt lat="44.74020183150859" lon="7.844081365353026"><ele>382.0</ele><time>2026-04-10T07:24:32.999Z</time></trkpt><trkpt lat="44.74015560462786" lon="7.844185425886694"><ele>382.0</ele><time>2026-04-10T07:24:35.999Z</time></trkpt><trkpt lat="44.7401213342859" lon="7.844273942189416"><ele>382.0</ele><time>2026-04-10T07:24:37.999Z</time></trkpt><trkpt lat="44.74008303388776" lon="7.844386844476063"><ele>382.0</ele><time>2026-04-10T07:24:40.999Z</time></trkpt><trkpt lat="44.74005346273222" lon="7.844481616692868"><ele>381.8571428571429</ele><time>2026-04-10T07:24:42.999Z</time></trkpt><trkpt lat="44.74001321582816" lon="7.844576684218438"><ele>381.71428571428567</ele><time>2026-04-10T07:24:44.999Z</time></trkpt><trkpt lat="44.73999441411472" lon="7.844677424828292"><ele>381.57142857142856</ele><time>2026-04-10T07:24:46.999Z</time></trkpt><trkpt lat="44.739998372086305" lon="7.844768155506194"><ele>381.42857142857144</ele><time>2026-04-10T07:24:48.999Z</time></trkpt><trkpt lat="44.73997354904396" lon="7.844883192023146"><ele>381.28571428571433</ele><time>2026-04-10T07:24:51.999Z</time></trkpt><trkpt lat="44.73999490277384" lon="7.844968064037887"><ele>381.1428571428571</ele><time>2026-04-10T07:26:03.999Z</time></trkpt><trkpt lat="44.73999449584187" lon="7.845067961395306"><ele>381.0</ele><time>2026-04-10T07:26:08.999Z</time></trkpt><trkpt lat="44.73995071587748" lon="7.845138516842887"><ele>381.0</ele><time>2026-04-10T07:26:12.999Z</time></trkpt><trkpt lat="44.73987964068952" lon="7.8452064026732975"><ele>381.0</ele><time>2026-04-10T07:29:40Z</time></trkpt><trkpt lat="44.73982341305422" lon="7.845286393141585"><ele>381.0</ele><time>2026-04-10T07:29:42Z</time></trkpt><trkpt lat="44.73975151470903" lon="7.845368757959116"><ele>381.0</ele><time>2026-04-10T07:29:44Z</time></trkpt><trkpt lat="44.73970980265881" lon="7.84546423537543"><ele>381.0</ele><time>2026-04-10T07:29:46Z</time></trkpt><trkpt lat="44.739721998630145" lon="7.8456029545746"><ele>381.0</ele><time>2026-04-10T07:29:48Z</time></trkpt><trkpt lat="44.739774844090064" lon="7.8457220030625345"><ele>381.0</ele><time>2026-04-10T07:29:50Z</time></trkpt><trkpt lat="44.739803671769735" lon="7.845845161488021"><ele>381.0</ele><time>2026-04-10T07:29:52Z</time></trkpt><trkpt lat="44.739805322778885" lon="7.8459660710057255"><ele>381.0</ele><time>2026-04-10T07:29:53.999Z</time></trkpt><trkpt lat="44.739806178125484" lon="7.846088035257976"><ele>381.0</ele><time>2026-04-10T07:29:55.999Z</time></trkpt><trkpt lat="44.73980733059485" lon="7.846199533908441"><ele>381.0</ele><time>2026-04-10T07:29:57.999Z</time></trkpt><trkpt lat="44.739830974361965" lon="7.8463131380568845"><ele>381.0</ele><time>2026-04-10T07:29:59.999Z</time></trkpt><trkpt lat="44.73987788389092" lon="7.8464385768462686"><ele>379.6666666666667</ele><time>2026-04-10T07:30:01.999Z</time></trkpt><trkpt lat="44.739921079162684" lon="7.846544969006094"><ele>378.3333333333333</ele><time>2026-04-10T07:30:03.999Z</time></trkpt><trkpt lat="44.7399655348417" lon="7.846634040451277"><ele>377.0</ele><time>2026-04-10T07:30:22.999Z</time></trkpt><trkpt lat="44.740029110876485" lon="7.846726005364135"><ele>375.66666666666663</ele><time>2026-04-10T07:30:25.999Z</time></trkpt><trkpt lat="44.74007682347172" lon="7.846802020527034"><ele>374.3333333333333</ele><time>2026-04-10T07:30:27.999Z</time></trkpt><trkpt lat="44.74011666585224" lon="7.846890931137873"><ele>373.0</ele><time>2026-04-10T07:30:29.999Z</time></trkpt><trkpt lat="44.74015685730509" lon="7.846959352958327"><ele>372.16666666666663</ele><time>2026-04-10T07:30:31.999Z</time></trkpt><trkpt lat="44.740171817510046" lon="7.847068372202044"><ele>371.3333333333333</ele><time>2026-04-10T07:30:34.999Z</time></trkpt><trkpt lat="44.740175029005684" lon="7.8471575978811"><ele>370.5</ele><time>2026-04-10T07:30:36.999Z</time></trkpt><trkpt lat="44.74017463302276" lon="7.847257945377078"><ele>369.6666666666667</ele><time>2026-04-10T07:30:38.999Z</time></trkpt><trkpt lat="44.740172845589974" lon="7.847352611273673"><ele>368.83333333333337</ele><time>2026-04-10T07:30:40.999Z</time></trkpt><trkpt lat="44.740149691384346" lon="7.847486342017133"><ele>368.0</ele><time>2026-04-10T07:30:42.999Z</time></trkpt><trkpt lat="44.74009237533379" lon="7.847606256201365"><ele>368.4</ele><time>2026-04-10T07:30:44.999Z</time></trkpt><trkpt lat="44.740019984599776" lon="7.847737856168559"><ele>368.79999999999995</ele><time>2026-04-10T07:30:46.999Z</time></trkpt><trkpt lat="44.73994739173194" lon="7.847878972860988"><ele>369.2</ele><time>2026-04-10T07:30:48.999Z</time></trkpt><trkpt lat="44.73990854285896" lon="7.847955388309698"><ele>369.6</ele><time>2026-04-10T07:30:49.999Z</time></trkpt><trkpt lat="44.73987676366286" lon="7.848032284064955"><ele>370.0</ele><time>2026-04-10T07:30:50.999Z</time></trkpt><trkpt lat="44.73982485731072" lon="7.848137649236851"><ele>370.0</ele><time>2026-04-10T07:30:52.999Z</time></trkpt><trkpt lat="44.73978418955798" lon="7.848220731773709"><ele>370.0</ele><time>2026-04-10T07:30:54.999Z</time></trkpt><trkpt lat="44.73975518845684" lon="7.848350489186784"><ele>370.0</ele><time>2026-04-10T07:30:56.999Z</time></trkpt><trkpt lat="44.73978334412006" lon="7.848489478713109"><ele>370.0</ele><time>2026-04-10T07:30:58.999Z</time></trkpt><trkpt lat="44.73984456899643" lon="7.84859818950126"><ele>370.0</ele><time>2026-04-10T07:31:00.999Z</time></trkpt><trkpt lat="44.73992434499974" lon="7.848706091038573"><ele>369.8</ele><time>2026-04-10T07:31:02.999Z</time></trkpt><trkpt lat="44.739985435342916" lon="7.848840468633975"><ele>369.6</ele><time>2026-04-10T07:31:04.999Z</time></trkpt><trkpt lat="44.74002000807275" lon="7.848914551130987"><ele>369.4</ele><time>2026-04-10T07:31:05.999Z</time></trkpt><trkpt lat="44.74005169537785" lon="7.848994185861255"><ele>369.2</ele><time>2026-04-10T07:31:06.999Z</time></trkpt><trkpt lat="44.74009857632181" lon="7.849148901259163"><ele>369.0</ele><time>2026-04-10T07:31:08.999Z</time></trkpt><trkpt lat="44.740129378696224" lon="7.849290363401851"><ele>369.57142857142856</ele><time>2026-04-10T07:31:10.999Z</time></trkpt><trkpt lat="44.74015862431592" lon="7.849401869558861"><ele>370.1428571428571</ele><time>2026-04-10T07:31:12.999Z</time></trkpt><trkpt lat="44.74020211145409" lon="7.8494892596264325"><ele>370.7142857142857</ele><time>2026-04-10T07:31:14.999Z</time></trkpt><trkpt lat="44.74025723866953" lon="7.849551850937403"><ele>371.2857142857143</ele><time>2026-04-10T07:31:16.999Z</time></trkpt><trkpt lat="44.740301838248165" lon="7.849615854786105"><ele>371.8571428571429</ele><time>2026-04-10T07:31:18.998Z</time></trkpt><trkpt lat="44.74035337285444" lon="7.849674322653687"><ele>372.42857142857144</ele><time>2026-04-10T07:31:20.998Z</time></trkpt><trkpt lat="44.740390755834866" lon="7.849747894693793"><ele>373.0</ele><time>2026-04-10T07:31:22.998Z</time></trkpt><trkpt lat="44.740474051837836" lon="7.849782644560172"><ele>373.8333333333333</ele><time>2026-04-10T07:31:25.999Z</time></trkpt><trkpt lat="44.74054993757357" lon="7.849772237657814"><ele>374.66666666666663</ele><time>2026-04-10T07:31:27.999Z</time></trkpt><trkpt lat="44.740624568343435" lon="7.849796023290157"><ele>375.5</ele><time>2026-04-10T07:31:29.999Z</time></trkpt><trkpt lat="44.74067591243151" lon="7.849870992463444"><ele>376.3333333333333</ele><time>2026-04-10T07:31:31.999Z</time></trkpt><trkpt lat="44.74065779524019" lon="7.849983451843954"><ele>377.1666666666667</ele><time>2026-04-10T07:31:34.999Z</time></trkpt><trkpt lat="44.740612938401945" lon="7.850065351931403"><ele>378.0</ele><time>2026-04-10T07:31:39Z</time></trkpt><trkpt lat="44.74058422156363" lon="7.850160475837667"><ele>378.5</ele><time>2026-04-10T07:31:42Z</time></trkpt><trkpt lat="44.740560964043254" lon="7.8502515135027"><ele>379.0</ele><time>2026-04-10T07:31:45Z</time></trkpt><trkpt lat="44.74055795832325" lon="7.850354588016203"><ele>379.5</ele><time>2026-04-10T07:31:49Z</time></trkpt><trkpt lat="44.74058400750519" lon="7.850436968436176"><ele>380.0</ele><time>2026-04-10T07:31:52.999Z</time></trkpt><trkpt lat="44.74062190697076" lon="7.85053315567771"><ele>380.5</ele><time>2026-04-10T07:31:56.999Z</time></trkpt><trkpt lat="44.740675647666556" lon="7.850466539312109"><ele>381.0</ele><time>2026-04-10T07:32:18.999Z</time></trkpt><trkpt lat="44.74075385073417" lon="7.850392769090704"><ele>381.0</ele><time>2026-04-10T07:42:21Z</time></trkpt><trkpt lat="44.74081806403436" lon="7.85031328475719"><ele>381.0</ele><time>2026-04-10T07:42:24Z</time></trkpt><trkpt lat="44.740869169914724" lon="7.8502106937369796"><ele>381.0</ele><time>2026-04-10T07:42:27Z</time></trkpt><trkpt lat="44.74090796999329" lon="7.8501352216594595"><ele>381.0</ele><time>2026-04-10T07:42:29Z</time></trkpt><trkpt lat="44.74096939895524" lon="7.850106108535733"><ele>381.0</ele><time>2026-04-10T07:42:32Z</time></trkpt><trkpt lat="44.74105984509318" lon="7.850088792449199"><ele>381.0</ele><time>2026-04-10T07:42:35Z</time></trkpt><trkpt lat="44.74113089424856" lon="7.8500335649762345"><ele>380.5</ele><time>2026-04-10T07:42:38Z</time></trkpt><trkpt lat="44.741195846453955" lon="7.8499871520467845"><ele>380.0</ele><time>2026-04-10T07:42:41Z</time></trkpt><trkpt lat="44.74124873169659" lon="7.849924127661309"><ele>379.5</ele><time>2026-04-10T07:42:43Z</time></trkpt><trkpt lat="44.741337413949765" lon="7.849891506238951"><ele>379.0</ele><time>2026-04-10T07:42:45Z</time></trkpt><trkpt lat="44.741386615201385" lon="7.849831591074727"><ele>378.5</ele><time>2026-04-10T07:42:47Z</time></trkpt><trkpt lat="44.74144643640453" lon="7.849744042253335"><ele>378.0</ele><time>2026-04-10T07:42:49Z</time></trkpt><trkpt lat="44.74153223878703" lon="7.849716137737562"><ele>378.0</ele><time>2026-04-10T07:42:51Z</time></trkpt><trkpt lat="44.74157354131877" lon="7.84964093457411"><ele>378.0</ele><time>2026-04-10T07:42:53Z</time></trkpt><trkpt lat="44.741605560413916" lon="7.849536723452925"><ele>378.0</ele><time>2026-04-10T07:42:55Z</time></trkpt><trkpt lat="44.74167801616703" lon="7.849475948649493"><ele>378.0</ele><time>2026-04-10T07:42:57.999Z</time></trkpt><trkpt lat="44.74174400130376" lon="7.849480588791358"><ele>378.0</ele><time>2026-04-10T07:42:59.999Z</time></trkpt><trkpt lat="44.74180315138744" lon="7.84942777062341"><ele>378.0</ele><time>2026-04-10T07:43:01.999Z</time></trkpt><trkpt lat="44.74189095631391" lon="7.849409767604377"><ele>377.0</ele><time>2026-04-10T07:43:03.999Z</time></trkpt><trkpt lat="44.741890389951244" lon="7.849288586179766"><ele>376.0</ele><time>2026-04-10T07:43:06.999Z</time></trkpt><trkpt lat="44.741898580864515" lon="7.849165862629968"><ele>375.0</ele><time>2026-04-10T07:43:09.999Z</time></trkpt><trkpt lat="44.74195990116301" lon="7.849121226000624"><ele>374.0</ele><time>2026-04-10T07:43:12.999Z</time></trkpt><trkpt lat="44.74202945565744" lon="7.849092252516356"><ele>373.0</ele><time>2026-04-10T07:43:14.999Z</time></trkpt><trkpt lat="44.742090431400456" lon="7.849026780776804"><ele>372.0</ele><time>2026-04-10T07:43:16.999Z</time></trkpt><trkpt lat="44.74217195011796" lon="7.848972567712236"><ele>372.0</ele><time>2026-04-10T07:43:19.999Z</time></trkpt><trkpt lat="44.742269827827116" lon="7.84895764173582"><ele>372.0</ele><time>2026-04-10T07:43:22.999Z</time></trkpt><trkpt lat="44.74233990596104" lon="7.848927410377531"><ele>372.0</ele><time>2026-04-10T07:43:24.999Z</time></trkpt><trkpt lat="44.74240425791281" lon="7.848863140734887"><ele>372.0</ele><time>2026-04-10T07:43:26.999Z</time></trkpt><trkpt lat="44.74248108368647" lon="7.848808003303307"><ele>372.0</ele><time>2026-04-10T07:43:28.999Z</time></trkpt><trkpt lat="44.74255896188391" lon="7.848738215513692"><ele>372.0</ele><time>2026-04-10T07:43:30.999Z</time></trkpt><trkpt lat="44.742626380815665" lon="7.848703522078196"><ele>372.0</ele><time>2026-04-10T07:43:32.999Z</time></trkpt><trkpt lat="44.74271281643952" lon="7.8486559513351475"><ele>372.0</ele><time>2026-04-10T07:43:34.999Z</time></trkpt><trkpt lat="44.742800358298005" lon="7.848581801109306"><ele>372.0</ele><time>2026-04-10T07:43:36.999Z</time></trkpt><trkpt lat="44.74287925886674" lon="7.848506715462261"><ele>372.0</ele><time>2026-04-10T07:43:38.999Z</time></trkpt><trkpt lat="44.7429524890727" lon="7.848443659381248"><ele>372.0</ele><time>2026-04-10T07:43:40.999Z</time></trkpt><trkpt lat="44.74303536240949" lon="7.84838636045663"><ele>371.6666666666667</ele><time>2026-04-10T07:43:42.999Z</time></trkpt><trkpt lat="44.74312938487606" lon="7.848358120313648"><ele>371.3333333333333</ele><time>2026-04-10T07:43:44.999Z</time></trkpt><trkpt lat="44.74321213701961" lon="7.848333635034077"><ele>371.0</ele><time>2026-04-10T07:43:46.999Z</time></trkpt><trkpt lat="44.74328217544414" lon="7.848295026875742"><ele>370.66666666666663</ele><time>2026-04-10T07:43:48.999Z</time></trkpt><trkpt lat="44.74335135803483" lon="7.848257709791749"><ele>370.3333333333333</ele><time>2026-04-10T07:43:50.999Z</time></trkpt><trkpt lat="44.743425722157795" lon="7.84821338293586"><ele>370.0</ele><time>2026-04-10T07:43:53.999Z</time></trkpt><trkpt lat="44.74347468454447" lon="7.848157462925177"><ele>370.0</ele><time>2026-04-10T07:43:56.999Z</time></trkpt><trkpt lat="44.743528859418426" lon="7.84806842773219"><ele>370.0</ele><time>2026-04-10T07:44:02Z</time></trkpt><trkpt lat="44.74358495675297" lon="7.847963706891661"><ele>370.0</ele><time>2026-04-10T07:44:05Z</time></trkpt><trkpt lat="44.743624765970026" lon="7.847888288719846"><ele>370.0</ele><time>2026-04-10T07:44:07Z</time></trkpt><trkpt lat="44.74365920713539" lon="7.847812120272807"><ele>370.0</ele><time>2026-04-10T07:44:09Z</time></trkpt><trkpt lat="44.743717912897075" lon="7.847737430307292"><ele>370.0</ele><time>2026-04-10T07:44:11Z</time></trkpt><trkpt lat="44.7437791142253" lon="7.847677377079561"><ele>369.3333333333333</ele><time>2026-04-10T07:44:14Z</time></trkpt><trkpt lat="44.74384339284902" lon="7.847698061262258"><ele>368.66666666666663</ele><time>2026-04-10T07:44:16Z</time></trkpt><trkpt lat="44.74392515108666" lon="7.84767470645601"><ele>368.0</ele><time>2026-04-10T07:44:18Z</time></trkpt><trkpt lat="44.74401046909821" lon="7.84763444489942"><ele>367.3333333333333</ele><time>2026-04-10T07:44:22Z</time></trkpt><trkpt lat="44.74407351142422" lon="7.847595373819445"><ele>366.6666666666667</ele><time>2026-04-10T07:44:24Z</time></trkpt><trkpt lat="44.74414451743772" lon="7.847555838641198"><ele>366.0</ele><time>2026-04-10T07:44:26Z</time></trkpt><trkpt lat="44.74421983256995" lon="7.847577027314652"><ele>366.0</ele><time>2026-04-10T07:44:28Z</time></trkpt><trkpt lat="44.74428188042188" lon="7.84760017750483"><ele>366.0</ele><time>2026-04-10T07:44:30Z</time></trkpt><trkpt lat="44.744234690209794" lon="7.847661367718621"><ele>366.0</ele><time>2026-04-10T07:44:40Z</time></trkpt><trkpt lat="44.74426502799738" lon="7.847758284930592"><ele>366.0</ele><time>2026-04-10T07:44:47Z</time></trkpt><trkpt lat="44.74427965091633" lon="7.847852523873809"><ele>366.0</ele><time>2026-04-10T07:44:51Z</time></trkpt><trkpt lat="44.74425355248062" lon="7.847936402648929"><ele>366.0</ele><time>2026-04-10T07:45:00.999Z</time></trkpt><trkpt lat="44.744197676955686" lon="7.847992057655763"><ele>366.0</ele><time>2026-04-10T07:45:08.999Z</time></trkpt><trkpt lat="44.74413667492981" lon="7.848029140020475"><ele>366.0</ele><time>2026-04-10T07:45:13.999Z</time></trkpt><trkpt lat="44.74407377383326" lon="7.848100269667757"><ele>366.0</ele><time>2026-04-10T07:45:18.999Z</time></trkpt><trkpt lat="44.744040112053455" lon="7.848204644329891"><ele>366.0</ele><time>2026-04-10T07:45:22.999Z</time></trkpt><trkpt lat="44.744021370301816" lon="7.848298671220456"><ele>366.0</ele><time>2026-04-10T07:45:26.999Z</time></trkpt><trkpt lat="44.74399712156552" lon="7.848393603466721"><ele>366.0</ele><time>2026-04-10T07:45:30.999Z</time></trkpt><trkpt lat="44.74394942301796" lon="7.848472697516464"><ele>366.0</ele><time>2026-04-10T07:45:34.999Z</time></trkpt><trkpt lat="44.74390382503477" lon="7.848536541364305"><ele>366.0</ele><time>2026-04-10T07:45:39.999Z</time></trkpt><trkpt lat="44.7438525838593" lon="7.848627978446807"><ele>366.7142857142857</ele><time>2026-04-10T07:45:43.999Z</time></trkpt><trkpt lat="44.74381490981559" lon="7.848722165998418"><ele>367.42857142857144</ele><time>2026-04-10T07:45:46.999Z</time></trkpt><trkpt lat="44.74376234417851" lon="7.848787287790174"><ele>368.1428571428571</ele><time>2026-04-10T07:45:49.999Z</time></trkpt><trkpt lat="44.743707427615846" lon="7.848835865674215"><ele>368.8571428571429</ele><time>2026-04-10T07:45:51.999Z</time></trkpt><trkpt lat="44.74364677418338" lon="7.8488895029939085"><ele>369.57142857142856</ele><time>2026-04-10T07:45:54.999Z</time></trkpt><trkpt lat="44.74356511648476" lon="7.848932779723269"><ele>370.2857142857143</ele><time>2026-04-10T07:45:57.999Z</time></trkpt><trkpt lat="44.74349642325661" lon="7.848961497487798"><ele>371.0</ele><time>2026-04-10T07:45:59.999Z</time></trkpt><trkpt lat="44.74341850034775" lon="7.848998956717778"><ele>371.14285714285717</ele><time>2026-04-10T07:46:02.999Z</time></trkpt><trkpt lat="44.74335153489521" lon="7.849047037968871"><ele>371.2857142857143</ele><time>2026-04-10T07:46:05.999Z</time></trkpt><trkpt lat="44.74327859197676" lon="7.849105849553346"><ele>371.42857142857144</ele><time>2026-04-10T07:46:10Z</time></trkpt><trkpt lat="44.74321553934603" lon="7.849129780800819"><ele>371.57142857142856</ele><time>2026-04-10T07:46:13Z</time></trkpt><trkpt lat="44.74315903992527" lon="7.849200484402317"><ele>371.7142857142857</ele><time>2026-04-10T07:46:17Z</time></trkpt><trkpt lat="44.743091819494126" lon="7.849240660843431"><ele>371.8571428571429</ele><time>2026-04-10T07:46:20Z</time></trkpt><trkpt lat="44.74302444198739" lon="7.849288267463305"><ele>372.0</ele><time>2026-04-10T07:46:23Z</time></trkpt><trkpt lat="44.74296630307287" lon="7.849362378515056"><ele>372.5</ele><time>2026-04-10T07:46:27Z</time></trkpt><trkpt lat="44.74291369631787" lon="7.849436463898013"><ele>373.0</ele><time>2026-04-10T07:46:31Z</time></trkpt><trkpt lat="44.74286882492058" lon="7.8495378246963785"><ele>373.5</ele><time>2026-04-10T07:46:33Z</time></trkpt><trkpt lat="44.74290167147895" lon="7.849644046166457"><ele>374.0</ele><time>2026-04-10T07:46:36Z</time></trkpt><trkpt lat="44.74297077095759" lon="7.849693725965539"><ele>374.5</ele><time>2026-04-10T07:46:40Z</time></trkpt><trkpt lat="44.74303200224159" lon="7.8497159829908165"><ele>375.0</ele><time>2026-04-10T07:46:48Z</time></trkpt><trkpt lat="44.74308952581628" lon="7.849780419589959"><ele>375.0</ele><time>2026-04-10T07:46:58Z</time></trkpt><trkpt lat="44.743119409021645" lon="7.8498592318990354"><ele>375.0</ele><time>2026-04-10T07:47:06.999Z</time></trkpt><trkpt lat="44.74315372937354" lon="7.849959089268706"><ele>375.0</ele><time>2026-04-10T07:47:19.999Z</time></trkpt><trkpt lat="44.74318483967581" lon="7.850051769384518"><ele>375.0</ele><time>2026-04-10T07:47:24.999Z</time></trkpt><trkpt lat="44.743150079362444" lon="7.850142827963508"><ele>375.0</ele><time>2026-04-10T07:47:31.999Z</time></trkpt><trkpt lat="44.74322287712038" lon="7.850151989232959"><ele>375.0</ele><time>2026-04-10T07:47:42.999Z</time></trkpt><trkpt lat="44.743302152448805" lon="7.850146865769568"><ele>375.0</ele><time>2026-04-10T07:47:44.999Z</time></trkpt><trkpt lat="44.74337275774392" lon="7.8501314479778745"><ele>375.0</ele><time>2026-04-10T07:47:46.999Z</time></trkpt><trkpt lat="44.74342436325988" lon="7.8500347492321785"><ele>375.0</ele><time>2026-04-10T07:47:48.999Z</time></trkpt><trkpt lat="44.74347473209375" lon="7.8499316508258925"><ele>375.0</ele><time>2026-04-10T07:47:50.999Z</time></trkpt><trkpt lat="44.74354713591652" lon="7.849848252894196"><ele>375.0</ele><time>2026-04-10T07:47:52.999Z</time></trkpt><trkpt lat="44.74361817854231" lon="7.849771604857365"><ele>375.0</ele><time>2026-04-10T07:47:54.999Z</time></trkpt><trkpt lat="44.743703029857805" lon="7.849745869438046"><ele>375.0</ele><time>2026-04-10T07:47:56.999Z</time></trkpt><trkpt lat="44.74377233090708" lon="7.849690914226895"><ele>374.42857142857144</ele><time>2026-04-10T07:47:58.999Z</time></trkpt><trkpt lat="44.74381818119813" lon="7.849625791993712"><ele>373.85714285714283</ele><time>2026-04-10T07:48:00.999Z</time></trkpt><trkpt lat="44.74386480437624" lon="7.849547543178207"><ele>373.2857142857143</ele><time>2026-04-10T07:48:02.999Z</time></trkpt><trkpt lat="44.743917376954926" lon="7.849458446955133"><ele>372.7142857142857</ele><time>2026-04-10T07:48:04.999Z</time></trkpt><trkpt lat="44.74393273886402" lon="7.8493621936613085"><ele>372.1428571428571</ele><time>2026-04-10T07:48:07.999Z</time></trkpt><trkpt lat="44.74395555436571" lon="7.849277242892976"><ele>371.57142857142856</ele><time>2026-04-10T07:48:10.999Z</time></trkpt><trkpt lat="44.74400675654119" lon="7.849220752278477"><ele>371.0</ele><time>2026-04-10T07:48:14Z</time></trkpt><trkpt lat="44.74408242062705" lon="7.849186878183137"><ele>371.0</ele><time>2026-04-10T07:48:25Z</time></trkpt><trkpt lat="44.74415395015103" lon="7.849187275147028"><ele>371.0</ele><time>2026-04-10T07:48:28Z</time></trkpt><trkpt lat="44.74423423744103" lon="7.849175074380193"><ele>371.0</ele><time>2026-04-10T07:48:30Z</time></trkpt><trkpt lat="44.74430072837891" lon="7.84916402974572"><ele>371.0</ele><time>2026-04-10T07:48:32Z</time></trkpt><trkpt lat="44.744388376662656" lon="7.849177355700656"><ele>371.0</ele><time>2026-04-10T07:48:35Z</time></trkpt><trkpt lat="44.74446817436121" lon="7.849133594369814"><ele>371.0</ele><time>2026-04-10T07:48:38Z</time></trkpt><trkpt lat="44.74453595785318" lon="7.849058961880374"><ele>370.33333333333337</ele><time>2026-04-10T07:48:40Z</time></trkpt><trkpt lat="44.744607305247435" lon="7.8489768829212165"><ele>369.6666666666667</ele><time>2026-04-10T07:48:42Z</time></trkpt><trkpt lat="44.74466709300381" lon="7.848913397123042"><ele>369.0</ele><time>2026-04-10T07:48:44Z</time></trkpt><trkpt lat="44.744747204264826" lon="7.8489294144004855"><ele>368.3333333333333</ele><time>2026-04-10T07:48:46Z</time></trkpt><trkpt lat="44.74480857226062" lon="7.848955429675153"><ele>367.66666666666663</ele><time>2026-04-10T07:48:48Z</time></trkpt><trkpt lat="44.74487149275404" lon="7.848985894846409"><ele>367.0</ele><time>2026-04-10T07:48:50Z</time></trkpt><trkpt lat="44.7449512681876" lon="7.849024917803333"><ele>367.0</ele><time>2026-04-10T07:48:52Z</time></trkpt><trkpt lat="44.74501729590559" lon="7.848997249730794"><ele>367.0</ele><time>2026-04-10T07:48:54Z</time></trkpt><trkpt lat="44.74509576185969" lon="7.848955048792187"><ele>367.0</ele><time>2026-04-10T07:48:57Z</time></trkpt><trkpt lat="44.745146288670966" lon="7.848848665290206"><ele>367.0</ele><time>2026-04-10T07:49:00Z</time></trkpt><trkpt lat="44.74518206423706" lon="7.848736393177872"><ele>367.0</ele><time>2026-04-10T07:49:02Z</time></trkpt><trkpt lat="44.74520062218166" lon="7.848646542027937"><ele>367.0</ele><time>2026-04-10T07:49:04Z</time></trkpt><trkpt lat="44.745255738817335" lon="7.848558963939576"><ele>366.5</ele><time>2026-04-10T07:49:07Z</time></trkpt><trkpt lat="44.74533261332554" lon="7.848521384847084"><ele>366.0</ele><time>2026-04-10T07:49:09.999Z</time></trkpt><trkpt lat="44.745393360604446" lon="7.84848613506432"><ele>365.5</ele><time>2026-04-10T07:49:12.999Z</time></trkpt><trkpt lat="44.74545013288778" lon="7.848420342077157"><ele>365.0</ele><time>2026-04-10T07:49:14.999Z</time></trkpt><trkpt lat="44.74552656503624" lon="7.848346526122512"><ele>364.5</ele><time>2026-04-10T07:49:17.999Z</time></trkpt><trkpt lat="44.74558665493714" lon="7.848296529823286"><ele>364.0</ele><time>2026-04-10T07:49:19.999Z</time></trkpt><trkpt lat="44.74564483132177" lon="7.848245466563116"><ele>364.0</ele><time>2026-04-10T07:49:21.999Z</time></trkpt><trkpt lat="44.745728569726175" lon="7.8482169426993"><ele>364.0</ele><time>2026-04-10T07:49:23.999Z</time></trkpt><trkpt lat="44.745824842048684" lon="7.848170528025031"><ele>364.0</ele><time>2026-04-10T07:49:25.999Z</time></trkpt><trkpt lat="44.74591878316918" lon="7.848115026252545"><ele>364.0</ele><time>2026-04-10T07:49:27.999Z</time></trkpt><trkpt lat="44.74601650081628" lon="7.848060848826656"><ele>364.0</ele><time>2026-04-10T07:49:29.999Z</time></trkpt><trkpt lat="44.74607225074411" lon="7.84800285297116"><ele>363.5</ele><time>2026-04-10T07:49:31.999Z</time></trkpt><trkpt lat="44.74612136530998" lon="7.847917292837483"><ele>363.0</ele><time>2026-04-10T07:49:33.999Z</time></trkpt><trkpt lat="44.74618017227559" lon="7.847857768903826"><ele>362.5</ele><time>2026-04-10T07:49:35.999Z</time></trkpt><trkpt lat="44.74624603508225" lon="7.847853852838801"><ele>362.0</ele><time>2026-04-10T07:49:37.999Z</time></trkpt><trkpt lat="44.74634637579253" lon="7.847864123109393"><ele>361.5</ele><time>2026-04-10T07:49:39.999Z</time></trkpt><trkpt lat="44.74643800296728" lon="7.847810390376491"><ele>361.0</ele><time>2026-04-10T07:49:41.999Z</time></trkpt><trkpt lat="44.74650927918186" lon="7.847767487044767"><ele>361.0</ele><time>2026-04-10T07:49:43.999Z</time></trkpt><trkpt lat="44.74659160938769" lon="7.847754623396255"><ele>361.0</ele><time>2026-04-10T07:49:45.999Z</time></trkpt><trkpt lat="44.74667366664519" lon="7.8477045901092515"><ele>361.0</ele><time>2026-04-10T07:49:47.999Z</time></trkpt><trkpt lat="44.746741109906154" lon="7.847678785834595"><ele>361.0</ele><time>2026-04-10T07:49:49.999Z</time></trkpt><trkpt lat="44.74682564222402" lon="7.847652380147134"><ele>361.0</ele><time>2026-04-10T07:49:51.999Z</time></trkpt><trkpt lat="44.746911800942" lon="7.847599773877065"><ele>361.0</ele><time>2026-04-10T07:49:53.999Z</time></trkpt><trkpt lat="44.74697754832263" lon="7.847622137029676"><ele>361.0</ele><time>2026-04-10T07:49:58.999Z</time></trkpt><trkpt lat="44.74704967759051" lon="7.8476094824498555"><ele>361.0</ele><time>2026-04-10T07:50:05.999Z</time></trkpt><trkpt lat="44.746912240356664" lon="7.847784858170281"><ele>361.0</ele><time>2026-04-10T07:51:26.999Z</time></trkpt><trkpt lat="44.7468880607157" lon="7.847890501059502"><ele>361.0</ele><time>2026-04-10T07:51:32.999Z</time></trkpt><trkpt lat="44.74686139682174" lon="7.847980844161066"><ele>361.0</ele><time>2026-04-10T07:51:35.999Z</time></trkpt><trkpt lat="44.74682113285606" lon="7.848055471795681"><ele>361.0</ele><time>2026-04-10T07:51:38.999Z</time></trkpt><trkpt lat="44.746758954761944" lon="7.848130129695055"><ele>361.0</ele><time>2026-04-10T07:51:42.999Z</time></trkpt><trkpt lat="44.74670154893002" lon="7.848190652023171"><ele>361.0</ele><time>2026-04-10T07:51:51.999Z</time></trkpt><trkpt lat="44.746670385564386" lon="7.848292833175341"><ele>361.0</ele><time>2026-04-10T07:52:10.999Z</time></trkpt><trkpt lat="44.746614389869166" lon="7.848345712447326"><ele>361.0</ele><time>2026-04-10T07:52:13.999Z</time></trkpt><trkpt lat="44.74654008133134" lon="7.848387627529358"><ele>361.0</ele><time>2026-04-10T07:52:17.999Z</time></trkpt><trkpt lat="44.74648505817074" lon="7.848456548821113"><ele>361.16666666666663</ele><time>2026-04-10T07:52:22.999Z</time></trkpt><trkpt lat="44.746420130003834" lon="7.848508429410732"><ele>361.3333333333333</ele><time>2026-04-10T07:52:37.999Z</time></trkpt><trkpt lat="44.74632476756238" lon="7.848544723519719"><ele>361.5</ele><time>2026-04-10T07:52:41.999Z</time></trkpt><trkpt lat="44.746246042347614" lon="7.848598144201947"><ele>361.6666666666667</ele><time>2026-04-10T07:52:45.999Z</time></trkpt><trkpt lat="44.74618087945239" lon="7.848652111758398"><ele>361.83333333333337</ele><time>2026-04-10T07:52:47.999Z</time></trkpt><trkpt lat="44.74610757943161" lon="7.848737586588822"><ele>362.0</ele><time>2026-04-10T07:52:50.999Z</time></trkpt><trkpt lat="44.74605637310958" lon="7.848827450250719"><ele>362.1428571428571</ele><time>2026-04-10T07:52:53.999Z</time></trkpt><trkpt lat="44.745971363511885" lon="7.848868687724317"><ele>362.2857142857143</ele><time>2026-04-10T07:52:57.999Z</time></trkpt><trkpt lat="44.74592124870767" lon="7.848923979956685"><ele>362.42857142857144</ele><time>2026-04-10T07:53:01.999Z</time></trkpt><trkpt lat="44.745856574459154" lon="7.848956410422892"><ele>362.57142857142856</ele><time>2026-04-10T07:53:04.999Z</time></trkpt><trkpt lat="44.74579310374148" lon="7.848969224630266"><ele>362.7142857142857</ele><time>2026-04-10T07:53:25.999Z</time></trkpt><trkpt lat="44.745724616029506" lon="7.848954903222879"><ele>362.85714285714283</ele><time>2026-04-10T07:53:46.999Z</time></trkpt><trkpt lat="44.7456654887271" lon="7.84898791097359"><ele>363.0</ele><time>2026-04-10T07:54:00.999Z</time></trkpt><trkpt lat="44.74558746022138" lon="7.849021570071224"><ele>362.99999999999994</ele><time>2026-04-10T07:54:05.999Z</time></trkpt><trkpt lat="44.74552007395098" lon="7.849073643612882"><ele>363.0</ele><time>2026-04-10T07:54:08.999Z</time></trkpt><trkpt lat="44.74546581685757" lon="7.849143757267075"><ele>363.0</ele><time>2026-04-10T07:54:11.999Z</time></trkpt><trkpt lat="44.745395080095236" lon="7.849183500932847"><ele>363.0</ele><time>2026-04-10T07:54:14.999Z</time></trkpt><trkpt lat="44.74533732352837" lon="7.849221342051194"><ele>363.0</ele><time>2026-04-10T07:54:16.999Z</time></trkpt><trkpt lat="44.74528300982305" lon="7.849271256323795"><ele>362.99999999999994</ele><time>2026-04-10T07:54:19.999Z</time></trkpt><trkpt lat="44.745233078553824" lon="7.8493267546494065"><ele>363.0</ele><time>2026-04-10T07:54:23.999Z</time></trkpt><trkpt lat="44.74515036334374" lon="7.84939238438049"><ele>363.6666666666667</ele><time>2026-04-10T07:54:27.999Z</time></trkpt><trkpt lat="44.745096009598534" lon="7.849496947325279"><ele>364.3333333333333</ele><time>2026-04-10T07:54:30.999Z</time></trkpt><trkpt lat="44.745034177411824" lon="7.849565038478551"><ele>365.0</ele><time>2026-04-10T07:54:33.999Z</time></trkpt><trkpt lat="44.74501011901308" lon="7.849649345991481"><ele>365.66666666666663</ele><time>2026-04-10T07:54:58.999Z</time></trkpt><trkpt lat="44.74495449148604" lon="7.84974593419156"><ele>366.3333333333333</ele><time>2026-04-10T07:55:03.999Z</time></trkpt><trkpt lat="44.744903645585694" lon="7.849810048145991"><ele>367.0</ele><time>2026-04-10T07:55:06.999Z</time></trkpt><trkpt lat="44.74484829402033" lon="7.84986729423508"><ele>367.0</ele><time>2026-04-10T07:55:10.999Z</time></trkpt><trkpt lat="44.744807625940744" lon="7.849938445403842"><ele>367.0</ele><time>2026-04-10T07:55:13.999Z</time></trkpt><trkpt lat="44.74475234718354" lon="7.849999448660812"><ele>367.0</ele><time>2026-04-10T07:55:17.999Z</time></trkpt><trkpt lat="44.74470951566262" lon="7.8500751398561475"><ele>367.0</ele><time>2026-04-10T07:55:20.999Z</time></trkpt><trkpt lat="44.74467509112925" lon="7.850158617317373"><ele>367.0</ele><time>2026-04-10T07:55:24.999Z</time></trkpt><trkpt lat="44.744596077428575" lon="7.850215124626746"><ele>367.0</ele><time>2026-04-10T07:55:28.999Z</time></trkpt><trkpt lat="44.744544989219065" lon="7.85027827180971"><ele>367.0</ele><time>2026-04-10T07:55:32.999Z</time></trkpt><trkpt lat="44.74449284143996" lon="7.850379989175089"><ele>367.3333333333333</ele><time>2026-04-10T07:55:35.999Z</time></trkpt><trkpt lat="44.74443378895324" lon="7.850452015365661"><ele>367.66666666666663</ele><time>2026-04-10T07:55:39.999Z</time></trkpt><trkpt lat="44.744378971573084" lon="7.850537969660486"><ele>368.0</ele><time>2026-04-10T07:55:42.999Z</time></trkpt><trkpt lat="44.74431735173198" lon="7.850635853558908"><ele>368.3333333333333</ele><time>2026-04-10T07:55:44.999Z</time></trkpt><trkpt lat="44.74426416092356" lon="7.850729974887007"><ele>368.6666666666667</ele><time>2026-04-10T07:55:47.999Z</time></trkpt><trkpt lat="44.74423619724809" lon="7.850813061973239"><ele>369.0</ele><time>2026-04-10T07:55:50.999Z</time></trkpt><trkpt lat="44.74420099338429" lon="7.850907737119833"><ele>369.7142857142857</ele><time>2026-04-10T07:55:52.999Z</time></trkpt><trkpt lat="44.74418388994232" lon="7.850994791851967"><ele>370.42857142857144</ele><time>2026-04-10T07:55:54.999Z</time></trkpt><trkpt lat="44.744160971348144" lon="7.851081960401521"><ele>371.1428571428571</ele><time>2026-04-10T07:55:56.999Z</time></trkpt><trkpt lat="44.7441265918174" lon="7.851189233408779"><ele>371.8571428571429</ele><time>2026-04-10T07:55:59.999Z</time></trkpt><trkpt lat="44.74409978182923" lon="7.851289139419562"><ele>372.5714285714286</ele><time>2026-04-10T07:56:03.999Z</time></trkpt><trkpt lat="44.74405445832451" lon="7.8513800500531765"><ele>373.2857142857143</ele><time>2026-04-10T07:56:06.999Z</time></trkpt><trkpt lat="44.74399563830134" lon="7.851457707301339"><ele>374.0</ele><time>2026-04-10T07:56:10.999Z</time></trkpt><trkpt lat="44.74395688514464" lon="7.8515556379796"><ele>374.0</ele><time>2026-04-10T07:56:13.999Z</time></trkpt><trkpt lat="44.7439753864964" lon="7.851649144331436"><ele>374.0</ele><time>2026-04-10T07:56:15.999Z</time></trkpt><trkpt lat="44.74395883917972" lon="7.851768449143306"><ele>374.0</ele><time>2026-04-10T07:56:18.999Z</time></trkpt><trkpt lat="44.74392920194765" lon="7.851872451307686"><ele>374.0</ele><time>2026-04-10T07:56:22.999Z</time></trkpt><trkpt lat="44.74390545153009" lon="7.851959492561353"><ele>374.0</ele><time>2026-04-10T07:56:25.999Z</time></trkpt><trkpt lat="44.743858748189155" lon="7.852024139311229"><ele>374.0</ele><time>2026-04-10T07:56:28.999Z</time></trkpt><trkpt lat="44.74382875757212" lon="7.852122404585602"><ele>374.0</ele><time>2026-04-10T07:56:31.999Z</time></trkpt><trkpt lat="44.74376673576844" lon="7.852194243849549"><ele>374.1666666666667</ele><time>2026-04-10T07:56:35.999Z</time></trkpt><trkpt lat="44.74374146991362" lon="7.852303727168903"><ele>374.33333333333337</ele><time>2026-04-10T07:56:40Z</time></trkpt><trkpt lat="44.743712426941514" lon="7.8524356773019806"><ele>374.5</ele><time>2026-04-10T07:56:44Z</time></trkpt><trkpt lat="44.74368028332039" lon="7.8525279479559424"><ele>374.6666666666667</ele><time>2026-04-10T07:56:49Z</time></trkpt><trkpt lat="44.74365935425345" lon="7.852625914388142"><ele>374.8333333333333</ele><time>2026-04-10T07:56:53Z</time></trkpt><trkpt lat="44.743604027678494" lon="7.852668632972041"><ele>375.0</ele><time>2026-04-10T07:56:57Z</time></trkpt><trkpt lat="44.743568613691295" lon="7.852763547692909"><ele>375.2857142857143</ele><time>2026-04-10T07:57:00Z</time></trkpt><trkpt lat="44.74349552497697" lon="7.852809943586775"><ele>375.57142857142856</ele><time>2026-04-10T07:57:04Z</time></trkpt><trkpt lat="44.74343566083741" lon="7.8528868088332"><ele>375.85714285714283</ele><time>2026-04-10T07:57:12Z</time></trkpt><trkpt lat="44.743394666040466" lon="7.852957740642256"><ele>376.1428571428571</ele><time>2026-04-10T07:57:15Z</time></trkpt><trkpt lat="44.74336109803007" lon="7.853035752232767"><ele>376.42857142857144</ele><time>2026-04-10T07:57:20Z</time></trkpt><trkpt lat="44.74329008411529" lon="7.853081053272852"><ele>376.71428571428567</ele><time>2026-04-10T07:57:24Z</time></trkpt><trkpt lat="44.74324106132381" lon="7.853165088016099"><ele>377.0</ele><time>2026-04-10T07:57:29Z</time></trkpt><trkpt lat="44.743174771354205" lon="7.85320583705891"><ele>376.99999999999994</ele><time>2026-04-10T07:57:33Z</time></trkpt><trkpt lat="44.743108507749916" lon="7.853219667100427"><ele>377.0</ele><time>2026-04-10T07:57:38Z</time></trkpt><trkpt lat="44.74303299950224" lon="7.853224765767167"><ele>377.0</ele><time>2026-04-10T07:57:41Z</time></trkpt><trkpt lat="44.742962161202804" lon="7.853224331437889"><ele>377.0</ele><time>2026-04-10T07:57:45Z</time></trkpt><trkpt lat="44.74289038872557" lon="7.853213656770313"><ele>377.0</ele><time>2026-04-10T07:57:49Z</time></trkpt><trkpt lat="44.742828948233054" lon="7.853156911022149"><ele>376.99999999999994</ele><time>2026-04-10T07:57:53Z</time></trkpt><trkpt lat="44.74276534665846" lon="7.853095688559552"><ele>377.0</ele><time>2026-04-10T07:57:58Z</time></trkpt><trkpt lat="44.742711845167534" lon="7.853151734288806"><ele>377.1666666666667</ele><time>2026-04-10T07:58:01Z</time></trkpt><trkpt lat="44.742683700792924" lon="7.853257296946001"><ele>377.33333333333337</ele><time>2026-04-10T07:58:08Z</time></trkpt><trkpt lat="44.74262779920228" lon="7.85329885830426"><ele>377.5</ele><time>2026-04-10T07:58:11Z</time></trkpt><trkpt lat="44.742564613196414" lon="7.853311139489407"><ele>377.6666666666667</ele><time>2026-04-10T07:58:14Z</time></trkpt><trkpt lat="44.74246125827922" lon="7.853236777654649"><ele>377.8333333333333</ele><time>2026-04-10T07:58:19Z</time></trkpt><trkpt lat="44.74241562175103" lon="7.853173585802272"><ele>378.0</ele><time>2026-04-10T07:58:22Z</time></trkpt><trkpt lat="44.74234510940902" lon="7.8531416362456286"><ele>378.0</ele><time>2026-04-10T07:58:25Z</time></trkpt><trkpt lat="44.74226337835602" lon="7.853153807326978"><ele>378.0</ele><time>2026-04-10T07:58:27.999Z</time></trkpt><trkpt lat="44.74218683586589" lon="7.853177177194787"><ele>378.0</ele><time>2026-04-10T07:58:31.999Z</time></trkpt><trkpt lat="44.74212246244012" lon="7.853213392112533"><ele>378.0</ele><time>2026-04-10T07:58:34.999Z</time></trkpt><trkpt lat="44.74205338142528" lon="7.853243544474233"><ele>378.0</ele><time>2026-04-10T07:58:37.999Z</time></trkpt><trkpt lat="44.74196708628746" lon="7.853227913425217"><ele>378.0</ele><time>2026-04-10T07:58:47Z</time></trkpt><trkpt lat="44.74189439544723" lon="7.8532131472439834"><ele>378.57142857142856</ele><time>2026-04-10T07:58:50Z</time></trkpt><trkpt lat="44.741827723093074" lon="7.853275190472004"><ele>379.1428571428571</ele><time>2026-04-10T07:58:52Z</time></trkpt><trkpt lat="44.741764117196055" lon="7.853270355020435"><ele>379.7142857142857</ele><time>2026-04-10T07:58:54Z</time></trkpt><trkpt lat="44.741690158075826" lon="7.853247317045498"><ele>380.2857142857143</ele><time>2026-04-10T07:58:57Z</time></trkpt><trkpt lat="44.7416255014422" lon="7.85325307636778"><ele>380.85714285714283</ele><time>2026-04-10T07:58:59Z</time></trkpt><trkpt lat="44.741549064561895" lon="7.853234126818495"><ele>381.42857142857144</ele><time>2026-04-10T07:59:03Z</time></trkpt><trkpt lat="44.74147634544071" lon="7.853300076772975"><ele>382.0</ele><time>2026-04-10T07:59:07Z</time></trkpt><trkpt lat="44.74141622943442" lon="7.853366644774367"><ele>382.0</ele><time>2026-04-10T07:59:20Z</time></trkpt><trkpt lat="44.74134227847409" lon="7.853438490304492"><ele>382.0</ele><time>2026-04-10T07:59:33Z</time></trkpt><trkpt lat="44.74129769780162" lon="7.853506594534675"><ele>382.0</ele><time>2026-04-10T07:59:39Z</time></trkpt><trkpt lat="44.74127118808632" lon="7.853618699790863"><ele>382.0</ele><time>2026-04-10T07:59:43Z</time></trkpt><trkpt lat="44.74126907242575" lon="7.853726984740671"><ele>382.0</ele><time>2026-04-10T07:59:47Z</time></trkpt><trkpt lat="44.74128475016174" lon="7.853825647329889"><ele>382.0</ele><time>2026-04-10T07:59:52Z</time></trkpt><trkpt lat="44.741298429313986" lon="7.853936598914536"><ele>382.0</ele><time>2026-04-10T07:59:56Z</time></trkpt><trkpt lat="44.74129230634229" lon="7.854028412653924"><ele>382.0</ele><time>2026-04-10T07:59:59Z</time></trkpt><trkpt lat="44.74125040294542" lon="7.8541141710150795"><ele>382.0</ele><time>2026-04-10T08:00:03Z</time></trkpt><trkpt lat="44.741190892476254" lon="7.8541504154084025"><ele>382.0</ele><time>2026-04-10T08:00:07Z</time></trkpt><trkpt lat="44.74111575957191" lon="7.854176812293652"><ele>382.0</ele><time>2026-04-10T08:00:11Z</time></trkpt><trkpt lat="44.74103609477284" lon="7.854213988421152"><ele>382.0</ele><time>2026-04-10T08:00:14.999Z</time></trkpt><trkpt lat="44.74094423682367" lon="7.85424401426277"><ele>382.66666666666663</ele><time>2026-04-10T08:00:19.999Z</time></trkpt><trkpt lat="44.74088005746112" lon="7.854287764772516"><ele>383.3333333333333</ele><time>2026-04-10T08:00:23.999Z</time></trkpt><trkpt lat="44.74079768243343" lon="7.854282242694226"><ele>384.0</ele><time>2026-04-10T08:00:27.999Z</time></trkpt><trkpt lat="44.74073399900863" lon="7.854292851966514"><ele>384.66666666666663</ele><time>2026-04-10T08:00:30.999Z</time></trkpt><trkpt lat="44.74065601216368" lon="7.854329108074519"><ele>385.3333333333333</ele><time>2026-04-10T08:00:33.999Z</time></trkpt><trkpt lat="44.74057589301685" lon="7.854373779059622"><ele>386.0</ele><time>2026-04-10T08:00:36.999Z</time></trkpt><trkpt lat="44.74049661654445" lon="7.854405731723557"><ele>386.42857142857144</ele><time>2026-04-10T08:00:39.999Z</time></trkpt><trkpt lat="44.74043755349215" lon="7.854448500400563"><ele>386.8571428571429</ele><time>2026-04-10T08:00:42.999Z</time></trkpt><trkpt lat="44.74038524121575" lon="7.854499060528262"><ele>387.28571428571433</ele><time>2026-04-10T08:00:45.999Z</time></trkpt><trkpt lat="44.74030536629353" lon="7.854524568662587"><ele>387.7142857142857</ele><time>2026-04-10T08:00:50.001Z</time></trkpt><trkpt lat="44.74024175227995" lon="7.854517449687606"><ele>388.1428571428571</ele><time>2026-04-10T08:00:53.001Z</time></trkpt><trkpt lat="44.74017659804064" lon="7.854590678646208"><ele>388.5714285714286</ele><time>2026-04-10T08:00:56.001Z</time></trkpt><trkpt lat="44.74011705580712" lon="7.854624353101512"><ele>389.0</ele><time>2026-04-10T08:00:59Z</time></trkpt><trkpt lat="44.7400468021668" lon="7.8546801827165105"><ele>388.99999999999994</ele><time>2026-04-10T08:01:02Z</time></trkpt><trkpt lat="44.73997574496284" lon="7.854680090871644"><ele>389.0</ele><time>2026-04-10T08:01:04Z</time></trkpt><trkpt lat="44.739900299332014" lon="7.854713222419293"><ele>389.0</ele><time>2026-04-10T08:01:07Z</time></trkpt><trkpt lat="44.73981956940056" lon="7.854728512159898"><ele>389.0</ele><time>2026-04-10T08:01:10Z</time></trkpt><trkpt lat="44.73973368682801" lon="7.854707096824545"><ele>388.99999999999994</ele><time>2026-04-10T08:01:13Z</time></trkpt><trkpt lat="44.73965761334137" lon="7.854713367651764"><ele>389.0</ele><time>2026-04-10T08:01:16Z</time></trkpt><trkpt lat="44.73958278943939" lon="7.854722766390762"><ele>388.99999999999994</ele><time>2026-04-10T08:01:19Z</time></trkpt><trkpt lat="44.73950333591944" lon="7.854738496653593"><ele>389.0</ele><time>2026-04-10T08:01:22Z</time></trkpt><trkpt lat="44.73943421382084" lon="7.854782005312539"><ele>389.0</ele><time>2026-04-10T08:01:25Z</time></trkpt><trkpt lat="44.73936773852859" lon="7.854849568208535"><ele>389.0</ele><time>2026-04-10T08:01:29Z</time></trkpt><trkpt lat="44.739314960978284" lon="7.854912652742525"><ele>388.99999999999994</ele><time>2026-04-10T08:01:31Z</time></trkpt><trkpt lat="44.73924088836969" lon="7.8549924305502925"><ele>389.0</ele><time>2026-04-10T08:01:33Z</time></trkpt><trkpt lat="44.73916876444457" lon="7.855061795560506"><ele>388.66666666666663</ele><time>2026-04-10T08:01:35Z</time></trkpt><trkpt lat="44.739083949671596" lon="7.855123867884473"><ele>388.3333333333333</ele><time>2026-04-10T08:01:37Z</time></trkpt><trkpt lat="44.7390253125341" lon="7.855208802342276"><ele>388.0</ele><time>2026-04-10T08:01:39Z</time></trkpt><trkpt lat="44.738969596173504" lon="7.8552983169494235"><ele>387.66666666666663</ele><time>2026-04-10T08:01:41Z</time></trkpt><trkpt lat="44.73888840701928" lon="7.8553519380114905"><ele>387.3333333333333</ele><time>2026-04-10T08:01:43Z</time></trkpt><trkpt lat="44.73881473170236" lon="7.855404357821608"><ele>387.0</ele><time>2026-04-10T08:01:45Z</time></trkpt><trkpt lat="44.73873186103522" lon="7.855453043347883"><ele>387.0</ele><time>2026-04-10T08:01:47Z</time></trkpt><trkpt lat="44.738673102885286" lon="7.855533564254534"><ele>387.0</ele><time>2026-04-10T08:01:49Z</time></trkpt><trkpt lat="44.738665166592455" lon="7.855662918739993"><ele>387.0</ele><time>2026-04-10T08:01:51Z</time></trkpt><trkpt lat="44.738687903665806" lon="7.855769484017552"><ele>387.0</ele><time>2026-04-10T08:01:53Z</time></trkpt><trkpt lat="44.738621152604914" lon="7.855906340926265"><ele>387.0</ele><time>2026-04-10T08:01:56Z</time></trkpt><trkpt lat="44.73857516207714" lon="7.856007141397757"><ele>387.0</ele><time>2026-04-10T08:01:58Z</time></trkpt><trkpt lat="44.73851452155149" lon="7.856076271497416"><ele>387.0</ele><time>2026-04-10T08:02:02Z</time></trkpt><trkpt lat="44.738462444253045" lon="7.856179756178883"><ele>387.0</ele><time>2026-04-10T08:02:05Z</time></trkpt><trkpt lat="44.738455328343605" lon="7.8562717944054725"><ele>387.0</ele><time>2026-04-10T08:02:08Z</time></trkpt><trkpt lat="44.738439575234814" lon="7.856159839592636"><ele>387.0</ele><time>2026-04-10T08:02:27Z</time></trkpt><trkpt lat="44.738507067980784" lon="7.856071654104304"><ele>387.0</ele><time>2026-04-10T08:02:30Z</time></trkpt><trkpt lat="44.73856733074275" lon="7.856001971173639"><ele>387.0</ele><time>2026-04-10T08:02:32Z</time></trkpt><trkpt lat="44.73860339043219" lon="7.855926447150363"><ele>387.0</ele><time>2026-04-10T08:02:34Z</time></trkpt><trkpt lat="44.7386949915866" lon="7.855944427483201"><ele>387.0</ele><time>2026-04-10T08:02:39Z</time></trkpt><trkpt lat="44.73875456426551" lon="7.855984066932476"><ele>387.0</ele><time>2026-04-10T08:02:41Z</time></trkpt><trkpt lat="44.73883906213931" lon="7.856032850752195"><ele>387.0</ele><time>2026-04-10T08:02:44Z</time></trkpt><trkpt lat="44.738910756141344" lon="7.856067902563623"><ele>387.0</ele><time>2026-04-10T08:02:46Z</time></trkpt><trkpt lat="44.73899143889095" lon="7.856125889439927"><ele>387.0</ele><time>2026-04-10T08:02:48Z</time></trkpt><trkpt lat="44.73906601074261" lon="7.856143807247695"><ele>387.0</ele><time>2026-04-10T08:02:50Z</time></trkpt><trkpt lat="44.73914169775085" lon="7.856182610984639"><ele>387.0</ele><time>2026-04-10T08:02:52Z</time></trkpt><trkpt lat="44.73923994295938" lon="7.856211492238909"><ele>387.0</ele><time>2026-04-10T08:02:53.999Z</time></trkpt><trkpt lat="44.739325169755894" lon="7.856259913798641"><ele>387.0</ele><time>2026-04-10T08:02:57.001Z</time></trkpt><trkpt lat="44.739401974803414" lon="7.856313827978237"><ele>387.0</ele><time>2026-04-10T08:02:59.001Z</time></trkpt><trkpt lat="44.73949558617857" lon="7.856378414089187"><ele>386.5</ele><time>2026-04-10T08:03:01.001Z</time></trkpt><trkpt lat="44.73957845686465" lon="7.856425531185625"><ele>386.0</ele><time>2026-04-10T08:03:03.001Z</time></trkpt><trkpt lat="44.73963290653482" lon="7.856526118896684"><ele>385.5</ele><time>2026-04-10T08:03:06.001Z</time></trkpt><trkpt lat="44.739716264987834" lon="7.856587561983483"><ele>385.0</ele><time>2026-04-10T08:03:08.001Z</time></trkpt><trkpt lat="44.73977734829414" lon="7.8566713222537325"><ele>384.5</ele><time>2026-04-10T08:03:10.001Z</time></trkpt><trkpt lat="44.739823301957536" lon="7.856775721908826"><ele>384.0</ele><time>2026-04-10T08:03:12.001Z</time></trkpt><trkpt lat="44.73990037500422" lon="7.85681485634713"><ele>383.3333333333333</ele><time>2026-04-10T08:03:14Z</time></trkpt><trkpt lat="44.7399677529346" lon="7.856769192731862"><ele>382.6666666666667</ele><time>2026-04-10T08:03:17Z</time></trkpt><trkpt lat="44.7400252974229" lon="7.856701302460183"><ele>382.0</ele><time>2026-04-10T08:03:19Z</time></trkpt><trkpt lat="44.74009464074372" lon="7.856711670991871"><ele>381.33333333333337</ele><time>2026-04-10T08:03:20Z</time></trkpt><trkpt lat="44.74018047125695" lon="7.856757294591704"><ele>380.6666666666667</ele><time>2026-04-10T08:03:22Z</time></trkpt><trkpt lat="44.74024751260387" lon="7.856811389296197"><ele>380.0</ele><time>2026-04-10T08:03:24Z</time></trkpt><trkpt lat="44.74034029661064" lon="7.856847464203217"><ele>380.0</ele><time>2026-04-10T08:03:26Z</time></trkpt><trkpt lat="44.74041390389549" lon="7.85679919164554"><ele>380.0</ele><time>2026-04-10T08:03:28Z</time></trkpt><trkpt lat="44.740476019564106" lon="7.856725856400035"><ele>380.0</ele><time>2026-04-10T08:03:30Z</time></trkpt><trkpt lat="44.74055375699712" lon="7.856687606559827"><ele>380.0</ele><time>2026-04-10T08:03:32Z</time></trkpt><trkpt lat="44.74062748892669" lon="7.856685001205594"><ele>380.0</ele><time>2026-04-10T08:03:34Z</time></trkpt><trkpt lat="44.740702213419944" lon="7.8567224660829265"><ele>380.0</ele><time>2026-04-10T08:03:38Z</time></trkpt><trkpt lat="44.74078472814703" lon="7.8566863947099765"><ele>378.83333333333337</ele><time>2026-04-10T08:03:40Z</time></trkpt><trkpt lat="44.74087717764467" lon="7.856682066945806"><ele>377.6666666666667</ele><time>2026-04-10T08:03:42Z</time></trkpt><trkpt lat="44.74095920636532" lon="7.85667319596345"><ele>376.5</ele><time>2026-04-10T08:03:44Z</time></trkpt><trkpt lat="44.7410475927194" lon="7.856717224592276"><ele>375.3333333333333</ele><time>2026-04-10T08:03:46Z</time></trkpt><trkpt lat="44.74113031866232" lon="7.856721600566342"><ele>374.16666666666663</ele><time>2026-04-10T08:03:48Z</time></trkpt><trkpt lat="44.741213461186014" lon="7.8567150739426594"><ele>373.0</ele><time>2026-04-10T08:03:50Z</time></trkpt><trkpt lat="44.741292522483484" lon="7.8567176266325776"><ele>372.59999999999997</ele><time>2026-04-10T08:03:52Z</time></trkpt><trkpt lat="44.741384744493025" lon="7.85671434355196"><ele>372.2</ele><time>2026-04-10T08:03:54Z</time></trkpt><trkpt lat="44.74148407819204" lon="7.856710407945141"><ele>371.8</ele><time>2026-04-10T08:03:56Z</time></trkpt><trkpt lat="44.74159242417239" lon="7.856704124357314"><ele>371.4</ele><time>2026-04-10T08:03:58Z</time></trkpt><trkpt lat="44.74170113005136" lon="7.85670079854965"><ele>371.0</ele><time>2026-04-10T08:04:00Z</time></trkpt><trkpt lat="44.74176487986734" lon="7.856723651134669"><ele>371.0</ele><time>2026-04-10T08:04:01Z</time></trkpt><trkpt lat="44.741864423827096" lon="7.85677662570548"><ele>371.0</ele><time>2026-04-10T08:04:03Z</time></trkpt><trkpt lat="44.741930403128805" lon="7.856876631066856"><ele>371.0</ele><time>2026-04-10T08:04:06Z</time></trkpt><trkpt lat="44.74196453168603" lon="7.8569840000949664"><ele>371.0</ele><time>2026-04-10T08:04:09Z</time></trkpt><trkpt lat="44.74202555851775" lon="7.857032575903337"><ele>371.0</ele><time>2026-04-10T08:04:10Z</time></trkpt><trkpt lat="44.74207072571268" lon="7.857124962048757"><ele>371.0</ele><time>2026-04-10T08:04:12Z</time></trkpt><trkpt lat="44.74211991499544" lon="7.857187364413349"><ele>370.33333333333337</ele><time>2026-04-10T08:04:14Z</time></trkpt><trkpt lat="44.74218033335185" lon="7.8572379852546765"><ele>369.6666666666667</ele><time>2026-04-10T08:04:15Z</time></trkpt><trkpt lat="44.74224950642217" lon="7.857315133067975"><ele>369.0</ele><time>2026-04-10T08:04:16Z</time></trkpt><trkpt lat="44.74230036327542" lon="7.857376481084051"><ele>368.3333333333333</ele><time>2026-04-10T08:04:17Z</time></trkpt><trkpt lat="44.742394240577354" lon="7.857492732199123"><ele>367.66666666666663</ele><time>2026-04-10T08:04:19Z</time></trkpt><trkpt lat="44.74243816279419" lon="7.857564452416938"><ele>367.0</ele><time>2026-04-10T08:04:20Z</time></trkpt><trkpt lat="44.7425093465979" lon="7.857718129393758"><ele>366.6</ele><time>2026-04-10T08:04:22Z</time></trkpt><trkpt lat="44.74256346424895" lon="7.85777613874603"><ele>366.20000000000005</ele><time>2026-04-10T08:04:23Z</time></trkpt><trkpt lat="44.74261357957125" lon="7.85783893264816"><ele>365.8</ele><time>2026-04-10T08:04:24Z</time></trkpt><trkpt lat="44.742690612727095" lon="7.857948954265812"><ele>365.4</ele><time>2026-04-10T08:04:26Z</time></trkpt><trkpt lat="44.74276218001933" lon="7.858075153407633"><ele>365.0</ele><time>2026-04-10T08:04:28Z</time></trkpt><trkpt lat="44.74281028318219" lon="7.858202356101416"><ele>364.4</ele><time>2026-04-10T08:04:30Z</time></trkpt><trkpt lat="44.74285585438591" lon="7.85830971405489"><ele>363.8</ele><time>2026-04-10T08:04:32Z</time></trkpt><trkpt lat="44.742933040808424" lon="7.858409537055889"><ele>363.20000000000005</ele><time>2026-04-10T08:04:35Z</time></trkpt><trkpt lat="44.74300571393432" lon="7.858468683268158"><ele>362.6</ele><time>2026-04-10T08:04:37.999Z</time></trkpt><trkpt lat="44.74307634419749" lon="7.858526709140214"><ele>362.0</ele><time>2026-04-10T08:04:39.999Z</time></trkpt><trkpt lat="44.74315959781809" lon="7.8585860242335155"><ele>361.6666666666667</ele><time>2026-04-10T08:04:41.999Z</time></trkpt><trkpt lat="44.743230578379205" lon="7.858645494910929"><ele>361.33333333333337</ele><time>2026-04-10T08:04:43.999Z</time></trkpt><trkpt lat="44.74331804766146" lon="7.858695786258197"><ele>361.0</ele><time>2026-04-10T08:04:46.999Z</time></trkpt><trkpt lat="44.743379848587345" lon="7.858718422364858"><ele>360.6666666666667</ele><time>2026-04-10T08:04:48.999Z</time></trkpt><trkpt lat="44.74346400979659" lon="7.858746931500559"><ele>360.3333333333333</ele><time>2026-04-10T08:04:51.999Z</time></trkpt><trkpt lat="44.743531816454784" lon="7.85875351322237"><ele>360.0</ele><time>2026-04-10T08:04:53.999Z</time></trkpt><trkpt lat="44.74362312976547" lon="7.858767596806524"><ele>359.8333333333333</ele><time>2026-04-10T08:04:56.999Z</time></trkpt><trkpt lat="44.74371323607113" lon="7.8588005095322675"><ele>359.6666666666667</ele><time>2026-04-10T08:04:59.999Z</time></trkpt><trkpt lat="44.74377775592928" lon="7.85884386568348"><ele>359.5</ele><time>2026-04-10T08:05:02.001Z</time></trkpt><trkpt lat="44.74385339057242" lon="7.85888511618656"><ele>359.33333333333337</ele><time>2026-04-10T08:05:04.001Z</time></trkpt><trkpt lat="44.743930250718144" lon="7.858950943698157"><ele>359.1666666666667</ele><time>2026-04-10T08:05:06.001Z</time></trkpt><trkpt lat="44.744001079187775" lon="7.859040999352866"><ele>359.0</ele><time>2026-04-10T08:05:08.001Z</time></trkpt><trkpt lat="44.74407226942688" lon="7.8591228805968125"><ele>359.0</ele><time>2026-04-10T08:05:10.001Z</time></trkpt><trkpt lat="44.74415144756369" lon="7.85920786673658"><ele>359.0</ele><time>2026-04-10T08:05:12.001Z</time></trkpt><trkpt lat="44.74423345885437" lon="7.859281702310338"><ele>359.0</ele><time>2026-04-10T08:05:14.001Z</time></trkpt><trkpt lat="44.74429689192308" lon="7.859354503937742"><ele>359.0</ele><time>2026-04-10T08:05:16Z</time></trkpt><trkpt lat="44.744356782977015" lon="7.859435246605697"><ele>359.0</ele><time>2026-04-10T08:05:18Z</time></trkpt><trkpt lat="44.74442501807423" lon="7.8594899059726995"><ele>359.0</ele><time>2026-04-10T08:05:20Z</time></trkpt><trkpt lat="44.74446908574539" lon="7.859574969374207"><ele>358.14285714285717</ele><time>2026-04-10T08:05:22Z</time></trkpt><trkpt lat="44.74453277534001" lon="7.859643549210783"><ele>357.28571428571433</ele><time>2026-04-10T08:05:25Z</time></trkpt><trkpt lat="44.744565120758594" lon="7.859725989408572"><ele>356.42857142857144</ele><time>2026-04-10T08:05:28Z</time></trkpt><trkpt lat="44.74460030787519" lon="7.859804357543538"><ele>355.57142857142856</ele><time>2026-04-10T08:05:30Z</time></trkpt><trkpt lat="44.74463651840086" lon="7.859881448824939"><ele>354.7142857142857</ele><time>2026-04-10T08:05:32Z</time></trkpt><trkpt lat="44.74466601506829" lon="7.859962313018297"><ele>353.85714285714283</ele><time>2026-04-10T08:05:34Z</time></trkpt><trkpt lat="44.744699831438744" lon="7.860041420899319"><ele>353.0</ele><time>2026-04-10T08:05:36Z</time></trkpt><trkpt lat="44.744741834826634" lon="7.860122913408218"><ele>353.0</ele><time>2026-04-10T08:05:38Z</time></trkpt><trkpt lat="44.74478702315747" lon="7.860195171089592"><ele>353.0</ele><time>2026-04-10T08:05:41Z</time></trkpt><trkpt lat="44.74486210426325" lon="7.860294177872297"><ele>353.0</ele><time>2026-04-10T08:05:44Z</time></trkpt><trkpt lat="44.74492431715588" lon="7.8604039252005995"><ele>353.0</ele><time>2026-04-10T08:05:47Z</time></trkpt><trkpt lat="44.74499831026288" lon="7.860330392695218"><ele>353.0</ele><time>2026-04-10T08:05:50Z</time></trkpt><trkpt lat="44.74501884206564" lon="7.860238906716102"><ele>353.0</ele><time>2026-04-10T08:05:52Z</time></trkpt><trkpt lat="44.74506124777387" lon="7.860141646037635"><ele>353.0</ele><time>2026-04-10T08:05:54Z</time></trkpt><trkpt lat="44.74511711897832" lon="7.86003089437018"><ele>353.0</ele><time>2026-04-10T08:05:57Z</time></trkpt><trkpt lat="44.74516892719049" lon="7.8599752948395825"><ele>353.0</ele><time>2026-04-10T08:05:59Z</time></trkpt><trkpt lat="44.745210435055846" lon="7.859865268927207"><ele>353.0</ele><time>2026-04-10T08:06:01Z</time></trkpt><trkpt lat="44.74528656140433" lon="7.859777243465947"><ele>353.0</ele><time>2026-04-10T08:06:04Z</time></trkpt><trkpt lat="44.74531971042467" lon="7.859697105491221"><ele>353.0</ele><time>2026-04-10T08:06:06Z</time></trkpt><trkpt lat="44.74538406653749" lon="7.859597031354027"><ele>353.1666666666667</ele><time>2026-04-10T08:06:08Z</time></trkpt><trkpt lat="44.74547121501959" lon="7.859525348742943"><ele>353.33333333333337</ele><time>2026-04-10T08:06:11Z</time></trkpt><trkpt lat="44.745519236287336" lon="7.859462776156603"><ele>353.5</ele><time>2026-04-10T08:06:13Z</time></trkpt><trkpt lat="44.74557825589307" lon="7.859397003853659"><ele>353.6666666666667</ele><time>2026-04-10T08:06:17Z</time></trkpt><trkpt lat="44.745647671989275" lon="7.85928441628155"><ele>353.8333333333333</ele><time>2026-04-10T08:06:19Z</time></trkpt><trkpt lat="44.74568836423051" lon="7.859190798176928"><ele>354.0</ele><time>2026-04-10T08:06:21Z</time></trkpt><trkpt lat="44.74572861295471" lon="7.859091284942148"><ele>354.1666666666667</ele><time>2026-04-10T08:06:23Z</time></trkpt><trkpt lat="44.74577952555131" lon="7.858987087886451"><ele>354.3333333333333</ele><time>2026-04-10T08:06:25Z</time></trkpt><trkpt lat="44.745824399207635" lon="7.858889025401696"><ele>354.5</ele><time>2026-04-10T08:06:27Z</time></trkpt><trkpt lat="44.74586371407769" lon="7.858770190026766"><ele>354.66666666666663</ele><time>2026-04-10T08:06:29Z</time></trkpt><trkpt lat="44.7459118656956" lon="7.858679725409146"><ele>354.8333333333333</ele><time>2026-04-10T08:06:30.999Z</time></trkpt><trkpt lat="44.745951366862506" lon="7.858578423485238"><ele>355.0</ele><time>2026-04-10T08:06:32.999Z</time></trkpt><trkpt lat="44.746005452566116" lon="7.858483561370219"><ele>354.3333333333333</ele><time>2026-04-10T08:06:34.999Z</time></trkpt><trkpt lat="44.74607691461845" lon="7.858431146377805"><ele>353.66666666666663</ele><time>2026-04-10T08:06:36.999Z</time></trkpt><trkpt lat="44.74615327079196" lon="7.858386751803917"><ele>353.0</ele><time>2026-04-10T08:06:38.999Z</time></trkpt><trkpt lat="44.74622020407334" lon="7.858332436042615"><ele>352.3333333333333</ele><time>2026-04-10T08:06:40.999Z</time></trkpt><trkpt lat="44.74627088431095" lon="7.858257867736992"><ele>351.6666666666667</ele><time>2026-04-10T08:06:42.999Z</time></trkpt><trkpt lat="44.74632112529752" lon="7.8581738473720275"><ele>351.0</ele><time>2026-04-10T08:06:44.999Z</time></trkpt><trkpt lat="44.74636202523042" lon="7.858092273869241"><ele>351.00000000000006</ele><time>2026-04-10T08:06:46.999Z</time></trkpt><trkpt lat="44.74638624047995" lon="7.858003263986822"><ele>351.0</ele><time>2026-04-10T08:06:48.999Z</time></trkpt><trkpt lat="44.74640171949475" lon="7.85791156139414"><ele>351.0</ele><time>2026-04-10T08:06:50.999Z</time></trkpt><trkpt lat="44.74643183411825" lon="7.857831480302653"><ele>351.0</ele><time>2026-04-10T08:06:52.999Z</time></trkpt><trkpt lat="44.74645154885721" lon="7.8577362470907595"><ele>351.0</ele><time>2026-04-10T08:06:54.999Z</time></trkpt><trkpt lat="44.746471244811" lon="7.857648988015566"><ele>351.00000000000006</ele><time>2026-04-10T08:06:56.999Z</time></trkpt><trkpt lat="44.74649847305065" lon="7.857552099908905"><ele>351.0</ele><time>2026-04-10T08:06:58.999Z</time></trkpt><trkpt lat="44.74653405573642" lon="7.85744856399924"><ele>351.0</ele><time>2026-04-10T08:07:00.999Z</time></trkpt><trkpt lat="44.74658056074921" lon="7.8573596516297215"><ele>351.0</ele><time>2026-04-10T08:07:02.999Z</time></trkpt><trkpt lat="44.746629366250446" lon="7.857277467117663"><ele>351.0</ele><time>2026-04-10T08:07:04.999Z</time></trkpt><trkpt lat="44.74667067083293" lon="7.85719935507348"><ele>351.0</ele><time>2026-04-10T08:07:07Z</time></trkpt><trkpt lat="44.74672957580545" lon="7.857119651175918"><ele>351.0</ele><time>2026-04-10T08:07:09Z</time></trkpt><trkpt lat="44.74679456235039" lon="7.857023825063264"><ele>351.0</ele><time>2026-04-10T08:07:11Z</time></trkpt><trkpt lat="44.74685880322805" lon="7.856921846304777"><ele>350.6</ele><time>2026-04-10T08:07:13Z</time></trkpt><trkpt lat="44.746931678267416" lon="7.856826567134248"><ele>350.20000000000005</ele><time>2026-04-10T08:07:15Z</time></trkpt><trkpt lat="44.74704385603634" lon="7.856712353599558"><ele>349.79999999999995</ele><time>2026-04-10T08:07:18Z</time></trkpt><trkpt lat="44.747098399030726" lon="7.856656898219125"><ele>349.4</ele><time>2026-04-10T08:07:19Z</time></trkpt><trkpt lat="44.747190344192276" lon="7.856559636119214"><ele>349.0</ele><time>2026-04-10T08:07:21Z</time></trkpt><trkpt lat="44.74728393496695" lon="7.856460862167346"><ele>349.0</ele><time>2026-04-10T08:07:23Z</time></trkpt><trkpt lat="44.74737251220674" lon="7.856346380095785"><ele>349.0</ele><time>2026-04-10T08:07:25Z</time></trkpt><trkpt lat="44.747445633374724" lon="7.856202879194994"><ele>349.0</ele><time>2026-04-10T08:07:27Z</time></trkpt><trkpt lat="44.7475237028342" lon="7.856062495696895"><ele>349.0</ele><time>2026-04-10T08:07:29Z</time></trkpt><trkpt lat="44.74762275546189" lon="7.8559545696543625"><ele>348.25</ele><time>2026-04-10T08:07:31Z</time></trkpt><trkpt lat="44.74773829214207" lon="7.855899022802686"><ele>347.5</ele><time>2026-04-10T08:07:33Z</time></trkpt><trkpt lat="44.747849135286124" lon="7.855842328557976"><ele>346.75</ele><time>2026-04-10T08:07:35Z</time></trkpt><trkpt lat="44.74795670500916" lon="7.855767637017833"><ele>346.0</ele><time>2026-04-10T08:07:37Z</time></trkpt><trkpt lat="44.74806402350156" lon="7.855689354591094"><ele>346.0</ele><time>2026-04-10T08:07:39Z</time></trkpt><trkpt lat="44.74816999015048" lon="7.8555963931760235"><ele>346.0</ele><time>2026-04-10T08:07:41Z</time></trkpt><trkpt lat="44.74826990417554" lon="7.855498745220023"><ele>346.0</ele><time>2026-04-10T08:07:43Z</time></trkpt><trkpt lat="44.74836967311595" lon="7.855399724092906"><ele>346.0</ele><time>2026-04-10T08:07:45Z</time></trkpt><trkpt lat="44.748462007093444" lon="7.855281089628227"><ele>346.0</ele><time>2026-04-10T08:07:47Z</time></trkpt><trkpt lat="44.74850499721536" lon="7.855215247327914"><ele>346.0</ele><time>2026-04-10T08:07:48Z</time></trkpt><trkpt lat="44.74857687128118" lon="7.855083564808584"><ele>346.0</ele><time>2026-04-10T08:07:50Z</time></trkpt><trkpt lat="44.748628786754615" lon="7.854964707426111"><ele>346.0</ele><time>2026-04-10T08:07:52Z</time></trkpt><trkpt lat="44.7486624119239" lon="7.854866917189024"><ele>346.0</ele><time>2026-04-10T08:07:54Z</time></trkpt><trkpt lat="44.748694826623115" lon="7.854782695822037"><ele>346.0</ele><time>2026-04-10T08:07:56Z</time></trkpt><trkpt lat="44.74873759749994" lon="7.854705198895771"><ele>345.66666666666663</ele><time>2026-04-10T08:07:58Z</time></trkpt><trkpt lat="44.748796622413124" lon="7.854621190516084"><ele>345.3333333333333</ele><time>2026-04-10T08:08:00Z</time></trkpt><trkpt lat="44.748862263555836" lon="7.854541584085135"><ele>345.0</ele><time>2026-04-10T08:08:02Z</time></trkpt><trkpt lat="44.74893524830869" lon="7.854476030703599"><ele>344.6666666666667</ele><time>2026-04-10T08:08:04Z</time></trkpt><trkpt lat="44.74900473926031" lon="7.854419652336612"><ele>344.33333333333337</ele><time>2026-04-10T08:08:05.999Z</time></trkpt><trkpt lat="44.749080453163685" lon="7.854379507136115"><ele>344.0</ele><time>2026-04-10T08:08:07.999Z</time></trkpt><trkpt lat="44.74915762878004" lon="7.854336092139129"><ele>344.0</ele><time>2026-04-10T08:08:09.999Z</time></trkpt><trkpt lat="44.749236353826085" lon="7.854288491607594"><ele>344.0</ele><time>2026-04-10T08:08:11.999Z</time></trkpt><trkpt lat="44.74931676068334" lon="7.854235199288486"><ele>344.0</ele><time>2026-04-10T08:08:13.999Z</time></trkpt><trkpt lat="44.749389346123024" lon="7.854181526251175"><ele>344.0</ele><time>2026-04-10T08:08:15.999Z</time></trkpt><trkpt lat="44.749458979606054" lon="7.854125868806104"><ele>344.0</ele><time>2026-04-10T08:08:17.999Z</time></trkpt><trkpt lat="44.749520543342584" lon="7.854064432728789"><ele>344.0</ele><time>2026-04-10T08:08:19.999Z</time></trkpt><trkpt lat="44.749580318035775" lon="7.8539990871045084"><ele>343.6666666666667</ele><time>2026-04-10T08:08:21.999Z</time></trkpt><trkpt lat="44.749645111834866" lon="7.853916288187209"><ele>343.33333333333337</ele><time>2026-04-10T08:08:24.999Z</time></trkpt><trkpt lat="44.74971454677727" lon="7.853842679203697"><ele>343.0</ele><time>2026-04-10T08:08:27.999Z</time></trkpt><trkpt lat="44.749772271014876" lon="7.853751317556424"><ele>342.6666666666667</ele><time>2026-04-10T08:08:30.999Z</time></trkpt><trkpt lat="44.74984728412414" lon="7.853691670609691"><ele>342.3333333333333</ele><time>2026-04-10T08:08:33.999Z</time></trkpt><trkpt lat="44.74990082357721" lon="7.853638242202963"><ele>342.0</ele><time>2026-04-10T08:08:35.999Z</time></trkpt><trkpt lat="44.74996763258669" lon="7.853576954543792"><ele>341.99999999999994</ele><time>2026-04-10T08:08:37.999Z</time></trkpt><trkpt lat="44.750021861331206" lon="7.8535079344147265"><ele>342.0</ele><time>2026-04-10T08:08:39.999Z</time></trkpt><trkpt lat="44.75006590351882" lon="7.853439700417256"><ele>342.0</ele><time>2026-04-10T08:08:41.999Z</time></trkpt><trkpt lat="44.750111658488024" lon="7.853377559329815"><ele>342.0</ele><time>2026-04-10T08:08:43.999Z</time></trkpt><trkpt lat="44.750185275018644" lon="7.853310052137935"><ele>342.0</ele><time>2026-04-10T08:08:46.999Z</time></trkpt><trkpt lat="44.75022572633162" lon="7.853222598109039"><ele>341.99999999999994</ele><time>2026-04-10T08:08:49.999Z</time></trkpt><trkpt lat="44.75027611424774" lon="7.853156923294184"><ele>342.0</ele><time>2026-04-10T08:08:51.999Z</time></trkpt><trkpt lat="44.7503326800159" lon="7.85307801112124"><ele>341.8333333333333</ele><time>2026-04-10T08:08:53.999Z</time></trkpt><trkpt lat="44.750394456591" lon="7.8529968037398765"><ele>341.6666666666667</ele><time>2026-04-10T08:08:55.999Z</time></trkpt><trkpt lat="44.75045834387202" lon="7.852903619917458"><ele>341.5</ele><time>2026-04-10T08:08:57.999Z</time></trkpt><trkpt lat="44.75051913966471" lon="7.852801729797925"><ele>341.33333333333337</ele><time>2026-04-10T08:08:59.999Z</time></trkpt><trkpt lat="44.75056789580438" lon="7.852687635428686"><ele>341.1666666666667</ele><time>2026-04-10T08:09:01.999Z</time></trkpt><trkpt lat="44.750608781122985" lon="7.852603685423656"><ele>341.0</ele><time>2026-04-10T08:09:04.999Z</time></trkpt><trkpt lat="44.75066591571731" lon="7.852510224093584"><ele>341.0</ele><time>2026-04-10T08:09:05.999Z</time></trkpt><trkpt lat="44.75070886680667" lon="7.852410998998255"><ele>341.0</ele><time>2026-04-10T08:09:07.999Z</time></trkpt><trkpt lat="44.7507480230011" lon="7.852303317177738"><ele>341.0</ele><time>2026-04-10T08:09:09.999Z</time></trkpt><trkpt lat="44.750789686986494" lon="7.852196663552503"><ele>341.0</ele><time>2026-04-10T08:09:11.999Z</time></trkpt><trkpt lat="44.75083286931958" lon="7.8520718636124265"><ele>341.0</ele><time>2026-04-10T08:09:14Z</time></trkpt><trkpt lat="44.7508753907292" lon="7.851950423477146"><ele>341.0</ele><time>2026-04-10T08:09:16Z</time></trkpt><trkpt lat="44.750917859168766" lon="7.851818066494337"><ele>341.0</ele><time>2026-04-10T08:09:18Z</time></trkpt><trkpt lat="44.75096178360401" lon="7.851696444494297"><ele>341.0</ele><time>2026-04-10T08:09:20Z</time></trkpt><trkpt lat="44.751010336570154" lon="7.851584235991269"><ele>341.0</ele><time>2026-04-10T08:09:22Z</time></trkpt><trkpt lat="44.75103784382869" lon="7.851477090731746"><ele>341.0</ele><time>2026-04-10T08:09:24Z</time></trkpt><trkpt lat="44.75107672355634" lon="7.851378386456861"><ele>340.6666666666667</ele><time>2026-04-10T08:09:26Z</time></trkpt><trkpt lat="44.751105917879556" lon="7.851282949773014"><ele>340.33333333333337</ele><time>2026-04-10T08:09:28Z</time></trkpt><trkpt lat="44.75115788034182" lon="7.851173578296579"><ele>340.0</ele><time>2026-04-10T08:09:31Z</time></trkpt><trkpt lat="44.75120654684699" lon="7.851069533051052"><ele>339.6666666666667</ele><time>2026-04-10T08:09:34Z</time></trkpt><trkpt lat="44.75124514943205" lon="7.850983434835398"><ele>339.3333333333333</ele><time>2026-04-10T08:09:37Z</time></trkpt><trkpt lat="44.75129670417677" lon="7.850891283574786"><ele>339.0</ele><time>2026-04-10T08:09:40Z</time></trkpt><trkpt lat="44.751345636526175" lon="7.850787773521428"><ele>338.6</ele><time>2026-04-10T08:09:43Z</time></trkpt><trkpt lat="44.751399855522976" lon="7.850708268237098"><ele>338.2</ele><time>2026-04-10T08:09:45Z</time></trkpt><trkpt lat="44.75145450375314" lon="7.850597578468467"><ele>337.8</ele><time>2026-04-10T08:09:47Z</time></trkpt><trkpt lat="44.7515251936424" lon="7.850480541667559"><ele>337.40000000000003</ele><time>2026-04-10T08:09:49Z</time></trkpt><trkpt lat="44.751597414441584" lon="7.850357230049142"><ele>337.0</ele><time>2026-04-10T08:09:51Z</time></trkpt><trkpt lat="44.75166268211379" lon="7.850224993613302"><ele>337.0</ele><time>2026-04-10T08:09:53Z</time></trkpt><trkpt lat="44.75172815548782" lon="7.85009538514566"><ele>337.0</ele><time>2026-04-10T08:09:55Z</time></trkpt><trkpt lat="44.75179630795259" lon="7.849987397973767"><ele>337.0</ele><time>2026-04-10T08:09:57Z</time></trkpt><trkpt lat="44.75185833696048" lon="7.849890766141727"><ele>337.0</ele><time>2026-04-10T08:09:59Z</time></trkpt><trkpt lat="44.75192138803055" lon="7.849779341786945"><ele>337.0</ele><time>2026-04-10T08:10:01Z</time></trkpt><trkpt lat="44.75198797810276" lon="7.849669079722626"><ele>337.0</ele><time>2026-04-10T08:10:03Z</time></trkpt><trkpt lat="44.75204528332961" lon="7.849555156573628"><ele>337.0</ele><time>2026-04-10T08:10:05Z</time></trkpt><trkpt lat="44.75209618720498" lon="7.849428056250728"><ele>337.0</ele><time>2026-04-10T08:10:07Z</time></trkpt><trkpt lat="44.7521483956135" lon="7.849296745566152"><ele>337.0</ele><time>2026-04-10T08:10:09Z</time></trkpt><trkpt lat="44.75219777269605" lon="7.849163347594426"><ele>337.0</ele><time>2026-04-10T08:10:11Z</time></trkpt><trkpt lat="44.75225284268992" lon="7.849035876743262"><ele>336.6</ele><time>2026-04-10T08:10:12.999Z</time></trkpt><trkpt lat="44.75231179363628" lon="7.848865395019284"><ele>336.20000000000005</ele><time>2026-04-10T08:10:15.999Z</time></trkpt><trkpt lat="44.75235211333852" lon="7.848740067410026"><ele>335.8</ele><time>2026-04-10T08:10:17.999Z</time></trkpt><trkpt lat="44.75239101202527" lon="7.84863731387765"><ele>335.4</ele><time>2026-04-10T08:10:18.999Z</time></trkpt><trkpt lat="44.75244589043976" lon="7.848488453012015"><ele>335.0</ele><time>2026-04-10T08:10:20.999Z</time></trkpt><trkpt lat="44.7524961270217" lon="7.848346369055021"><ele>334.75</ele><time>2026-04-10T08:10:22.999Z</time></trkpt><trkpt lat="44.752549763920776" lon="7.848205851642078"><ele>334.5</ele><time>2026-04-10T08:10:24.999Z</time></trkpt><trkpt lat="44.75260264449701" lon="7.848062372142065"><ele>334.25</ele><time>2026-04-10T08:10:26.999Z</time></trkpt><trkpt lat="44.75265722022646" lon="7.847917600885164"><ele>334.0</ele><time>2026-04-10T08:10:28.999Z</time></trkpt><trkpt lat="44.75271266443475" lon="7.847776019167954"><ele>334.0</ele><time>2026-04-10T08:10:30.999Z</time></trkpt><trkpt lat="44.75276943219171" lon="7.847630437399503"><ele>334.0</ele><time>2026-04-10T08:10:32.999Z</time></trkpt><trkpt lat="44.75282440701548" lon="7.84749080506305"><ele>334.0</ele><time>2026-04-10T08:10:34.999Z</time></trkpt><trkpt lat="44.7528846721237" lon="7.847349482428076"><ele>334.0</ele><time>2026-04-10T08:10:36.999Z</time></trkpt><trkpt lat="44.75295367511441" lon="7.847224172591222"><ele>334.0</ele><time>2026-04-10T08:10:38.999Z</time></trkpt><trkpt lat="44.75301777059082" lon="7.847100953869622"><ele>334.0</ele><time>2026-04-10T08:10:40.999Z</time></trkpt><trkpt lat="44.753083519306564" lon="7.846983644583827"><ele>334.0</ele><time>2026-04-10T08:10:42.999Z</time></trkpt><trkpt lat="44.753157447350844" lon="7.8468678254722795"><ele>334.0</ele><time>2026-04-10T08:10:44.999Z</time></trkpt><trkpt lat="44.75321903209378" lon="7.846731096392972"><ele>334.0</ele><time>2026-04-10T08:10:46.999Z</time></trkpt><trkpt lat="44.75324471889619" lon="7.846567987579156"><ele>334.0</ele><time>2026-04-10T08:10:48.999Z</time></trkpt><trkpt lat="44.753238467547106" lon="7.8464060173271495"><ele>334.0</ele><time>2026-04-10T08:10:50.999Z</time></trkpt><trkpt lat="44.753220923700084" lon="7.84625103599309"><ele>334.0</ele><time>2026-04-10T08:10:52.999Z</time></trkpt><trkpt lat="44.75321257624468" lon="7.8460913280107345"><ele>334.0</ele><time>2026-04-10T08:10:54.999Z</time></trkpt><trkpt lat="44.753209644093324" lon="7.845937227117047"><ele>334.0</ele><time>2026-04-10T08:10:56.999Z</time></trkpt><trkpt lat="44.75319396029946" lon="7.845775961274052"><ele>334.0</ele><time>2026-04-10T08:10:58.999Z</time></trkpt><trkpt lat="44.75317677639579" lon="7.845612097655894"><ele>334.0</ele><time>2026-04-10T08:11:00.999Z</time></trkpt><trkpt lat="44.753160722110266" lon="7.845460526929472"><ele>334.0</ele><time>2026-04-10T08:11:02.999Z</time></trkpt><trkpt lat="44.75315926488901" lon="7.845298211964602"><ele>334.0</ele><time>2026-04-10T08:11:04.999Z</time></trkpt><trkpt lat="44.75316074400157" lon="7.845134182011766"><ele>334.0</ele><time>2026-04-10T08:11:06.999Z</time></trkpt><trkpt lat="44.7531637772998" lon="7.8449717102107535"><ele>334.0</ele><time>2026-04-10T08:11:08.999Z</time></trkpt><trkpt lat="44.75316586516606" lon="7.8448272670658445"><ele>334.0</ele><time>2026-04-10T08:11:10.999Z</time></trkpt><trkpt lat="44.753173834650084" lon="7.844673907557002"><ele>334.0</ele><time>2026-04-10T08:11:12.999Z</time></trkpt><trkpt lat="44.75320716857342" lon="7.844531047866888"><ele>333.8333333333333</ele><time>2026-04-10T08:11:14.999Z</time></trkpt><trkpt lat="44.75322916754998" lon="7.84437269245052"><ele>333.66666666666663</ele><time>2026-04-10T08:11:16.999Z</time></trkpt><trkpt lat="44.753284490220615" lon="7.844218715194295"><ele>333.5</ele><time>2026-04-10T08:11:19Z</time></trkpt><trkpt lat="44.75331294583303" lon="7.844137210398838"><ele>333.3333333333333</ele><time>2026-04-10T08:11:20Z</time></trkpt><trkpt lat="44.75334218980339" lon="7.8440571342647285"><ele>333.1666666666667</ele><time>2026-04-10T08:11:21Z</time></trkpt><trkpt lat="44.753368927378155" lon="7.8439763739963935"><ele>333.0</ele><time>2026-04-10T08:11:22Z</time></trkpt><trkpt lat="44.7534087127919" lon="7.843830346358081"><ele>332.79999999999995</ele><time>2026-04-10T08:11:24Z</time></trkpt><trkpt lat="44.7534538281163" lon="7.843710858497458"><ele>332.6</ele><time>2026-04-10T08:11:26Z</time></trkpt><trkpt lat="44.753494034566835" lon="7.843589335108198"><ele>332.4</ele><time>2026-04-10T08:11:28Z</time></trkpt><trkpt lat="44.75350183280245" lon="7.843447904916101"><ele>332.20000000000005</ele><time>2026-04-10T08:11:30Z</time></trkpt><trkpt lat="44.75349870294672" lon="7.843296307999377"><ele>332.0</ele><time>2026-04-10T08:11:32Z</time></trkpt><trkpt lat="44.753489123134635" lon="7.843149974432775"><ele>332.0</ele><time>2026-04-10T08:11:34Z</time></trkpt><trkpt lat="44.75349780151503" lon="7.8429983505633905"><ele>332.0</ele><time>2026-04-10T08:11:36Z</time></trkpt><trkpt lat="44.75351415631521" lon="7.8428585863023645"><ele>332.0</ele><time>2026-04-10T08:11:38Z</time></trkpt><trkpt lat="44.753549170311715" lon="7.84272715918085"><ele>332.0</ele><time>2026-04-10T08:11:40Z</time></trkpt><trkpt lat="44.75359074096702" lon="7.842601054330326"><ele>332.0</ele><time>2026-04-10T08:11:42Z</time></trkpt><trkpt lat="44.75363011434012" lon="7.842476477448135"><ele>331.8</ele><time>2026-04-10T08:11:44Z</time></trkpt><trkpt lat="44.753668913677416" lon="7.842356184396694"><ele>331.6</ele><time>2026-04-10T08:11:46Z</time></trkpt><trkpt lat="44.753697129134565" lon="7.842233357543986"><ele>331.40000000000003</ele><time>2026-04-10T08:11:48Z</time></trkpt><trkpt lat="44.75373619553953" lon="7.8421033139980585"><ele>331.20000000000005</ele><time>2026-04-10T08:11:50Z</time></trkpt><trkpt lat="44.75378875573259" lon="7.841991278940483"><ele>331.0</ele><time>2026-04-10T08:11:52Z</time></trkpt><trkpt lat="44.75385106990912" lon="7.841887180272439"><ele>330.8</ele><time>2026-04-10T08:11:54Z</time></trkpt><trkpt lat="44.75391573878482" lon="7.841773023047456"><ele>330.6</ele><time>2026-04-10T08:11:56Z</time></trkpt><trkpt lat="44.75398086261489" lon="7.841666531542744"><ele>330.4</ele><time>2026-04-10T08:11:58Z</time></trkpt><trkpt lat="44.754048902238665" lon="7.841568833976543"><ele>330.2</ele><time>2026-04-10T08:12:00Z</time></trkpt><trkpt lat="44.75410867208966" lon="7.841481690156457"><ele>330.0</ele><time>2026-04-10T08:12:02Z</time></trkpt><trkpt lat="44.7541576620808" lon="7.841408041345892"><ele>330.0</ele><time>2026-04-10T08:12:04Z</time></trkpt><trkpt lat="44.75421720074891" lon="7.84131377254512"><ele>330.0</ele><time>2026-04-10T08:12:06Z</time></trkpt><trkpt lat="44.75426661046804" lon="7.841209561061729"><ele>330.0</ele><time>2026-04-10T08:12:08Z</time></trkpt><trkpt lat="44.754311676507" lon="7.841124134650718"><ele>330.0</ele><time>2026-04-10T08:12:10Z</time></trkpt><trkpt lat="44.75437144355932" lon="7.841048007625296"><ele>330.0</ele><time>2026-04-10T08:12:12Z</time></trkpt><trkpt lat="44.754424443265584" lon="7.840957418353921"><ele>330.0</ele><time>2026-04-10T08:12:13.999Z</time></trkpt><trkpt lat="44.75448014919753" lon="7.840866212941029"><ele>329.5</ele><time>2026-04-10T08:12:15.999Z</time></trkpt><trkpt lat="44.754560985884595" lon="7.840803838629462"><ele>329.0</ele><time>2026-04-10T08:12:17.999Z</time></trkpt><trkpt lat="44.75461893015217" lon="7.840718516645824"><ele>328.5</ele><time>2026-04-10T08:12:19.999Z</time></trkpt><trkpt lat="44.75467956620157" lon="7.840634764966953"><ele>328.0</ele><time>2026-04-10T08:12:21.999Z</time></trkpt><trkpt lat="44.754737262188016" lon="7.8405534873026586"><ele>327.5</ele><time>2026-04-10T08:12:23.999Z</time></trkpt><trkpt lat="44.754795461086964" lon="7.840476837806441"><ele>327.0</ele><time>2026-04-10T08:12:25.999Z</time></trkpt><trkpt lat="44.75485544621936" lon="7.840408493970058"><ele>327.0</ele><time>2026-04-10T08:12:27.999Z</time></trkpt><trkpt lat="44.75490070676671" lon="7.840290058410658"><ele>327.0</ele><time>2026-04-10T08:12:29.999Z</time></trkpt><trkpt lat="44.75493846508973" lon="7.840171504371699"><ele>327.0</ele><time>2026-04-10T08:12:31.999Z</time></trkpt><trkpt lat="44.75498064490446" lon="7.840052650001834"><ele>327.0</ele><time>2026-04-10T08:12:33.999Z</time></trkpt><trkpt lat="44.75501777220358" lon="7.839932035933947"><ele>327.0</ele><time>2026-04-10T08:12:35.999Z</time></trkpt><trkpt lat="44.75506616280867" lon="7.839812299409454"><ele>327.0</ele><time>2026-04-10T08:12:37.999Z</time></trkpt><trkpt lat="44.7551017205369" lon="7.839689117339174"><ele>327.0</ele><time>2026-04-10T08:12:39.999Z</time></trkpt><trkpt lat="44.75512257761175" lon="7.83957689103939"><ele>327.0</ele><time>2026-04-10T08:12:41.999Z</time></trkpt><trkpt lat="44.75513582324203" lon="7.839448676589157"><ele>327.0</ele><time>2026-04-10T08:12:43.999Z</time></trkpt><trkpt lat="44.75516400967112" lon="7.839324241233813"><ele>327.0</ele><time>2026-04-10T08:12:45.999Z</time></trkpt><trkpt lat="44.75517773536165" lon="7.839179508039209"><ele>327.1666666666667</ele><time>2026-04-10T08:12:48.999Z</time></trkpt><trkpt lat="44.75516092254218" lon="7.838999214091021"><ele>327.3333333333333</ele><time>2026-04-10T08:12:50.999Z</time></trkpt><trkpt lat="44.755155813042265" lon="7.838873891645055"><ele>327.5</ele><time>2026-04-10T08:12:52.999Z</time></trkpt><trkpt lat="44.75520108397342" lon="7.8387834622327475"><ele>327.66666666666663</ele><time>2026-04-10T08:12:54.999Z</time></trkpt><trkpt lat="44.7552415291965" lon="7.838689626021787"><ele>327.8333333333333</ele><time>2026-04-10T08:12:56.999Z</time></trkpt><trkpt lat="44.75528737748088" lon="7.838614620768707"><ele>328.0</ele><time>2026-04-10T08:12:58.999Z</time></trkpt><trkpt lat="44.755318308240916" lon="7.838529639046884"><ele>327.66666666666663</ele><time>2026-04-10T08:13:00.999Z</time></trkpt><trkpt lat="44.755350486509286" lon="7.838443131894785"><ele>327.3333333333333</ele><time>2026-04-10T08:13:02.999Z</time></trkpt><trkpt lat="44.75539464822313" lon="7.8383696916673165"><ele>327.0</ele><time>2026-04-10T08:13:04.999Z</time></trkpt><trkpt lat="44.75545791707384" lon="7.838287508425252"><ele>326.6666666666667</ele><time>2026-04-10T08:13:06.999Z</time></trkpt><trkpt lat="44.75551754062764" lon="7.838232543474777"><ele>326.33333333333337</ele><time>2026-04-10T08:13:08.999Z</time></trkpt><trkpt lat="44.75561191309914" lon="7.838197801911152"><ele>326.0</ele><time>2026-04-10T08:13:11.999Z</time></trkpt><trkpt lat="44.755685704886886" lon="7.8381695491932515"><ele>326.0</ele><time>2026-04-10T08:13:13.999Z</time></trkpt><trkpt lat="44.75574862046677" lon="7.838129577804844"><ele>326.0</ele><time>2026-04-10T08:13:15.999Z</time></trkpt><trkpt lat="44.755811030249966" lon="7.838112616952574"><ele>326.0</ele><time>2026-04-10T08:13:17.999Z</time></trkpt><trkpt lat="44.75588437587844" lon="7.838080872349115"><ele>326.0</ele><time>2026-04-10T08:13:19.999Z</time></trkpt><trkpt lat="44.7559585977996" lon="7.838041204091963"><ele>326.0</ele><time>2026-04-10T08:13:21.999Z</time></trkpt><trkpt lat="44.75603825311972" lon="7.837993554094908"><ele>326.0</ele><time>2026-04-10T08:13:24Z</time></trkpt><trkpt lat="44.75611381273467" lon="7.837929283211829"><ele>326.4</ele><time>2026-04-10T08:13:26Z</time></trkpt><trkpt lat="44.75619325529671" lon="7.837867048394473"><ele>326.8</ele><time>2026-04-10T08:13:28Z</time></trkpt><trkpt lat="44.75627593831461" lon="7.837792348185029"><ele>327.2</ele><time>2026-04-10T08:13:30Z</time></trkpt><trkpt lat="44.756356426447375" lon="7.837716522745663"><ele>327.59999999999997</ele><time>2026-04-10T08:13:32Z</time></trkpt><trkpt lat="44.756426806002224" lon="7.837640385538219"><ele>328.0</ele><time>2026-04-10T08:13:34Z</time></trkpt><trkpt lat="44.756498699981506" lon="7.837572987407451"><ele>327.16666666666663</ele><time>2026-04-10T08:13:36Z</time></trkpt><trkpt lat="44.75656652778183" lon="7.837510588880716"><ele>326.3333333333333</ele><time>2026-04-10T08:13:38Z</time></trkpt><trkpt lat="44.75663082475108" lon="7.837449660349658"><ele>325.5</ele><time>2026-04-10T08:13:40Z</time></trkpt><trkpt lat="44.75669039601233" lon="7.837383115819616"><ele>324.6666666666667</ele><time>2026-04-10T08:13:42Z</time></trkpt><trkpt lat="44.756759498623815" lon="7.837320925455843"><ele>323.83333333333337</ele><time>2026-04-10T08:13:44Z</time></trkpt><trkpt lat="44.756830310351994" lon="7.837255599211754"><ele>323.0</ele><time>2026-04-10T08:13:46Z</time></trkpt><trkpt lat="44.75689252622051" lon="7.837189250142987"><ele>322.6666666666667</ele><time>2026-04-10T08:13:48Z</time></trkpt><trkpt lat="44.756949100271555" lon="7.837096810472105"><ele>322.33333333333337</ele><time>2026-04-10T08:13:50Z</time></trkpt><trkpt lat="44.75702138908693" lon="7.837047708314014"><ele>322.0</ele><time>2026-04-10T08:13:52Z</time></trkpt><trkpt lat="44.75709613453826" lon="7.837011264348858"><ele>321.6666666666667</ele><time>2026-04-10T08:13:55Z</time></trkpt><trkpt lat="44.75715337696039" lon="7.836955886941269"><ele>321.3333333333333</ele><time>2026-04-10T08:13:58Z</time></trkpt><trkpt lat="44.757211439865664" lon="7.83688200165048"><ele>321.0</ele><time>2026-04-10T08:14:00Z</time></trkpt><trkpt lat="44.75725897138591" lon="7.8368087162750735"><ele>320.8333333333333</ele><time>2026-04-10T08:14:02Z</time></trkpt><trkpt lat="44.75730875318547" lon="7.836717623264356"><ele>320.6666666666667</ele><time>2026-04-10T08:14:04Z</time></trkpt><trkpt lat="44.75737422392837" lon="7.836667229433048"><ele>320.5</ele><time>2026-04-10T08:14:06Z</time></trkpt><trkpt lat="44.75744089489" lon="7.836611814987574"><ele>320.33333333333337</ele><time>2026-04-10T08:14:08Z</time></trkpt><trkpt lat="44.757505732889754" lon="7.836581857806554"><ele>320.1666666666667</ele><time>2026-04-10T08:14:10Z</time></trkpt><trkpt lat="44.75760947411289" lon="7.836534854220805"><ele>320.0</ele><time>2026-04-10T08:14:13Z</time></trkpt><trkpt lat="44.7576924178287" lon="7.8364802847880215"><ele>320.2</ele><time>2026-04-10T08:14:15Z</time></trkpt><trkpt lat="44.75779538400321" lon="7.836430448208234"><ele>320.4</ele><time>2026-04-10T08:14:17Z</time></trkpt><trkpt lat="44.75789447318585" lon="7.836400489838673"><ele>320.6</ele><time>2026-04-10T08:14:19Z</time></trkpt><trkpt lat="44.75798519565154" lon="7.836372903723526"><ele>320.8</ele><time>2026-04-10T08:14:21Z</time></trkpt><trkpt lat="44.75805321481874" lon="7.836358787193259"><ele>321.0</ele><time>2026-04-10T08:14:23Z</time></trkpt><trkpt lat="44.758190643331844" lon="7.836317322832339"><ele>321.0</ele><time>2026-04-10T08:14:25Z</time></trkpt><trkpt lat="44.758277684614825" lon="7.836285256525196"><ele>321.0</ele><time>2026-04-10T08:14:27Z</time></trkpt><trkpt lat="44.758352038496284" lon="7.836254652396208"><ele>321.0</ele><time>2026-04-10T08:14:28.999Z</time></trkpt><trkpt lat="44.75842783667855" lon="7.836240050153312"><ele>321.0</ele><time>2026-04-10T08:14:30.999Z</time></trkpt><trkpt lat="44.75849715214185" lon="7.836204570523424"><ele>321.0</ele><time>2026-04-10T08:14:32.999Z</time></trkpt><trkpt lat="44.75857498770018" lon="7.836190324540982"><ele>321.0</ele><time>2026-04-10T08:14:34.999Z</time></trkpt><trkpt lat="44.75863789238347" lon="7.836162917207026"><ele>321.4</ele><time>2026-04-10T08:14:36.999Z</time></trkpt><trkpt lat="44.75872418375475" lon="7.836145465357835"><ele>321.8</ele><time>2026-04-10T08:14:38.999Z</time></trkpt><trkpt lat="44.75880673062959" lon="7.836112273558761"><ele>322.2</ele><time>2026-04-10T08:14:40.999Z</time></trkpt><trkpt lat="44.75889235942154" lon="7.836075279605816"><ele>322.59999999999997</ele><time>2026-04-10T08:14:42.999Z</time></trkpt><trkpt lat="44.758981588676605" lon="7.836022908131442"><ele>323.0</ele><time>2026-04-10T08:14:45.999Z</time></trkpt><trkpt lat="44.759100078556926" lon="7.835933538912605"><ele>323.0</ele><time>2026-04-10T08:14:47.999Z</time></trkpt><trkpt lat="44.75916801778297" lon="7.835847527455289"><ele>323.0</ele><time>2026-04-10T08:14:49.999Z</time></trkpt><trkpt lat="44.759220668601685" lon="7.835745344534222"><ele>323.0</ele><time>2026-04-10T08:14:51.999Z</time></trkpt><trkpt lat="44.75927740843309" lon="7.835648728644462"><ele>323.0</ele><time>2026-04-10T08:14:53.999Z</time></trkpt><trkpt lat="44.75932957186898" lon="7.835544784403019"><ele>323.0</ele><time>2026-04-10T08:14:55.999Z</time></trkpt><trkpt lat="44.759376370808326" lon="7.83544601940178"><ele>323.0</ele><time>2026-04-10T08:14:57.999Z</time></trkpt><trkpt lat="44.75942522725755" lon="7.835361129540764"><ele>322.6666666666667</ele><time>2026-04-10T08:14:59.999Z</time></trkpt><trkpt lat="44.7594689892419" lon="7.835277472882961"><ele>322.33333333333337</ele><time>2026-04-10T08:15:01.999Z</time></trkpt><trkpt lat="44.759529366741084" lon="7.835195313836913"><ele>322.0</ele><time>2026-04-10T08:15:03.999Z</time></trkpt><trkpt lat="44.7595737078342" lon="7.835104356787171"><ele>321.6666666666667</ele><time>2026-04-10T08:15:05.999Z</time></trkpt><trkpt lat="44.75964635004796" lon="7.835018527765677"><ele>321.3333333333333</ele><time>2026-04-10T08:15:07.999Z</time></trkpt><trkpt lat="44.75971661045112" lon="7.8349250017438665"><ele>321.0</ele><time>2026-04-10T08:15:09.999Z</time></trkpt><trkpt lat="44.75978483628809" lon="7.83485244286901"><ele>321.0</ele><time>2026-04-10T08:15:11.999Z</time></trkpt><trkpt lat="44.75984757692075" lon="7.834776065287262"><ele>321.0</ele><time>2026-04-10T08:15:13.999Z</time></trkpt><trkpt lat="44.75991690304051" lon="7.834692644264294"><ele>321.0</ele><time>2026-04-10T08:15:15.999Z</time></trkpt><trkpt lat="44.75998044023255" lon="7.834603374324347"><ele>321.0</ele><time>2026-04-10T08:15:17.999Z</time></trkpt><trkpt lat="44.760038644714676" lon="7.834523301497395"><ele>321.0</ele><time>2026-04-10T08:15:19.999Z</time></trkpt><trkpt lat="44.760096792331616" lon="7.834458414942214"><ele>321.0</ele><time>2026-04-10T08:15:22.999Z</time></trkpt><trkpt lat="44.76016490543743" lon="7.834345148823231"><ele>320.6</ele><time>2026-04-10T08:15:24.999Z</time></trkpt><trkpt lat="44.76021676378604" lon="7.834273785083489"><ele>320.20000000000005</ele><time>2026-04-10T08:15:26.999Z</time></trkpt><trkpt lat="44.76027938839282" lon="7.834166662281241"><ele>319.79999999999995</ele><time>2026-04-10T08:15:30Z</time></trkpt><trkpt lat="44.76035066418026" lon="7.834045365103129"><ele>319.4</ele><time>2026-04-10T08:15:32Z</time></trkpt><trkpt lat="44.76041585341418" lon="7.833936150362895"><ele>319.0</ele><time>2026-04-10T08:15:34Z</time></trkpt><trkpt lat="44.76047758211307" lon="7.83383296776765"><ele>319.0</ele><time>2026-04-10T08:15:36Z</time></trkpt><trkpt lat="44.760542049028736" lon="7.833738363752655"><ele>319.0</ele><time>2026-04-10T08:15:38Z</time></trkpt><trkpt lat="44.76059780380932" lon="7.833647385016234"><ele>319.0</ele><time>2026-04-10T08:15:40Z</time></trkpt><trkpt lat="44.76065058179507" lon="7.833575344805475"><ele>319.0</ele><time>2026-04-10T08:15:42Z</time></trkpt><trkpt lat="44.76069545567641" lon="7.83348644933136"><ele>319.0</ele><time>2026-04-10T08:15:44Z</time></trkpt><trkpt lat="44.760724533417005" lon="7.833385632719005"><ele>319.0</ele><time>2026-04-10T08:15:46Z</time></trkpt><trkpt lat="44.7607565845279" lon="7.833284765299567"><ele>319.16666666666663</ele><time>2026-04-10T08:15:48Z</time></trkpt><trkpt lat="44.760798227510364" lon="7.833216050538826"><ele>319.3333333333333</ele><time>2026-04-10T08:15:50Z</time></trkpt><trkpt lat="44.76086064415676" lon="7.8331632565438545"><ele>319.5</ele><time>2026-04-10T08:15:52Z</time></trkpt><trkpt lat="44.76091922656432" lon="7.833089205338985"><ele>319.6666666666667</ele><time>2026-04-10T08:15:54Z</time></trkpt><trkpt lat="44.7609903535598" lon="7.833008099512965"><ele>319.83333333333337</ele><time>2026-04-10T08:15:56Z</time></trkpt><trkpt lat="44.7610525859226" lon="7.832910679506491"><ele>320.0</ele><time>2026-04-10T08:15:58Z</time></trkpt><trkpt lat="44.76111779942502" lon="7.832813806043477"><ele>320.0</ele><time>2026-04-10T08:16:00Z</time></trkpt><trkpt lat="44.76118143927435" lon="7.832721550841566"><ele>320.0</ele><time>2026-04-10T08:16:02Z</time></trkpt><trkpt lat="44.7612407340902" lon="7.832630467500144"><ele>320.0</ele><time>2026-04-10T08:16:04Z</time></trkpt><trkpt lat="44.76130073715205" lon="7.832552744194199"><ele>320.0</ele><time>2026-04-10T08:16:06Z</time></trkpt><trkpt lat="44.76135116689438" lon="7.832476371049657"><ele>320.0</ele><time>2026-04-10T08:16:08Z</time></trkpt><trkpt lat="44.761402575360826" lon="7.832394502634557"><ele>320.0</ele><time>2026-04-10T08:16:10Z</time></trkpt><trkpt lat="44.76147114935201" lon="7.8323030265770965"><ele>320.0</ele><time>2026-04-10T08:16:12Z</time></trkpt><trkpt lat="44.76152583380056" lon="7.832190766102015"><ele>320.0</ele><time>2026-04-10T08:16:14Z</time></trkpt><trkpt lat="44.76157257345283" lon="7.832067333659585"><ele>320.0</ele><time>2026-04-10T08:16:16Z</time></trkpt><trkpt lat="44.761620821745375" lon="7.831951605459127"><ele>320.0</ele><time>2026-04-10T08:16:18Z</time></trkpt><trkpt lat="44.761659593586984" lon="7.831828216143114"><ele>320.0</ele><time>2026-04-10T08:16:20Z</time></trkpt><trkpt lat="44.76170233006066" lon="7.831691404841081"><ele>320.0</ele><time>2026-04-10T08:16:22Z</time></trkpt><trkpt lat="44.76176038084804" lon="7.83157310210257"><ele>320.0</ele><time>2026-04-10T08:16:24Z</time></trkpt><trkpt lat="44.76181157776231" lon="7.83145727810476"><ele>320.0</ele><time>2026-04-10T08:16:26Z</time></trkpt><trkpt lat="44.7618586399765" lon="7.831324593382809"><ele>320.0</ele><time>2026-04-10T08:16:27.999Z</time></trkpt><trkpt lat="44.76190148803945" lon="7.831185010095369"><ele>320.0</ele><time>2026-04-10T08:16:29.999Z</time></trkpt><trkpt lat="44.76194256812969" lon="7.83104535136682"><ele>319.25</ele><time>2026-04-10T08:16:31.999Z</time></trkpt><trkpt lat="44.76196876976351" lon="7.830896524073142"><ele>318.5</ele><time>2026-04-10T08:16:33.999Z</time></trkpt><trkpt lat="44.76200157187765" lon="7.830750574678611"><ele>317.75</ele><time>2026-04-10T08:16:35.999Z</time></trkpt><trkpt lat="44.76204684717103" lon="7.830604221991813"><ele>317.0</ele><time>2026-04-10T08:16:37.999Z</time></trkpt><trkpt lat="44.762096951227875" lon="7.830452117252799"><ele>317.0</ele><time>2026-04-10T08:16:39.999Z</time></trkpt><trkpt lat="44.762150471250614" lon="7.830307004565094"><ele>317.0</ele><time>2026-04-10T08:16:41.999Z</time></trkpt><trkpt lat="44.76219186610081" lon="7.830165584298077"><ele>317.0</ele><time>2026-04-10T08:16:43.999Z</time></trkpt><trkpt lat="44.76222487571628" lon="7.83001865945091"><ele>317.0</ele><time>2026-04-10T08:16:45.999Z</time></trkpt><trkpt lat="44.76222773389007" lon="7.829872357930773"><ele>317.0</ele><time>2026-04-10T08:16:47.999Z</time></trkpt><trkpt lat="44.76222734931751" lon="7.829729911957362"><ele>316.8</ele><time>2026-04-10T08:16:49.999Z</time></trkpt><trkpt lat="44.76223143282645" lon="7.829589580161011"><ele>316.6</ele><time>2026-04-10T08:16:51.999Z</time></trkpt><trkpt lat="44.76222056477225" lon="7.8294577297704455"><ele>316.40000000000003</ele><time>2026-04-10T08:16:53.999Z</time></trkpt><trkpt lat="44.76221642044214" lon="7.829320951735351"><ele>316.2</ele><time>2026-04-10T08:16:55.999Z</time></trkpt><trkpt lat="44.76221278302807" lon="7.8291850300581025"><ele>316.0</ele><time>2026-04-10T08:16:57.999Z</time></trkpt><trkpt lat="44.76221679713064" lon="7.82903354424623"><ele>315.75</ele><time>2026-04-10T08:16:59.999Z</time></trkpt><trkpt lat="44.76222488890764" lon="7.828876882852515"><ele>315.5</ele><time>2026-04-10T08:17:01.999Z</time></trkpt><trkpt lat="44.762232674714745" lon="7.828716888622905"><ele>315.25</ele><time>2026-04-10T08:17:03.999Z</time></trkpt><trkpt lat="44.762238328052085" lon="7.828558213637156"><ele>315.0</ele><time>2026-04-10T08:17:05.999Z</time></trkpt><trkpt lat="44.762244925759774" lon="7.828393415570584"><ele>315.0</ele><time>2026-04-10T08:17:07.999Z</time></trkpt><trkpt lat="44.76225602100148" lon="7.82823955453769"><ele>315.0</ele><time>2026-04-10T08:17:09.999Z</time></trkpt><trkpt lat="44.762266604968474" lon="7.828081895095173"><ele>315.0</ele><time>2026-04-10T08:17:11.999Z</time></trkpt><trkpt lat="44.76229588771247" lon="7.827935998905064"><ele>315.0</ele><time>2026-04-10T08:17:13.999Z</time></trkpt><trkpt lat="44.76232615288701" lon="7.827784558455165"><ele>315.0</ele><time>2026-04-10T08:17:15.999Z</time></trkpt><trkpt lat="44.76235818356263" lon="7.827635464413371"><ele>314.8</ele><time>2026-04-10T08:17:17.999Z</time></trkpt><trkpt lat="44.76239219967338" lon="7.827491231024252"><ele>314.6</ele><time>2026-04-10T08:17:19.999Z</time></trkpt><trkpt lat="44.762432241936935" lon="7.82734331216389"><ele>314.4</ele><time>2026-04-10T08:17:21.999Z</time></trkpt><trkpt lat="44.76246329620173" lon="7.827196303756284"><ele>314.2</ele><time>2026-04-10T08:17:23.999Z</time></trkpt><trkpt lat="44.762489896369864" lon="7.827041587298667"><ele>314.0</ele><time>2026-04-10T08:17:25.999Z</time></trkpt><trkpt lat="44.76250998885139" lon="7.826881344332118"><ele>314.1666666666667</ele><time>2026-04-10T08:17:27.999Z</time></trkpt><trkpt lat="44.762525589029956" lon="7.826788864907991"><ele>314.33333333333337</ele><time>2026-04-10T08:17:28.999Z</time></trkpt><trkpt lat="44.76253225139822" lon="7.8266212910484505"><ele>314.5</ele><time>2026-04-10T08:17:30.999Z</time></trkpt><trkpt lat="44.7625320156386" lon="7.826529678053524"><ele>314.6666666666667</ele><time>2026-04-10T08:17:31.999Z</time></trkpt><trkpt lat="44.762553857961635" lon="7.8263967719951335"><ele>314.8333333333333</ele><time>2026-04-10T08:17:33.999Z</time></trkpt><trkpt lat="44.762577050340354" lon="7.826263617514276"><ele>315.0</ele><time>2026-04-10T08:17:36Z</time></trkpt><trkpt lat="44.76258888034846" lon="7.8261356497334775"><ele>315.0</ele><time>2026-04-10T08:17:38Z</time></trkpt><trkpt lat="44.762609163149364" lon="7.826010431439829"><ele>315.0</ele><time>2026-04-10T08:17:40Z</time></trkpt><trkpt lat="44.762605201884085" lon="7.825872979451792"><ele>315.0</ele><time>2026-04-10T08:17:42Z</time></trkpt><trkpt lat="44.762573006744745" lon="7.825777484204696"><ele>315.0</ele><time>2026-04-10T08:17:44Z</time></trkpt><trkpt lat="44.76255647519387" lon="7.825679474026735"><ele>315.0</ele><time>2026-04-10T08:17:46Z</time></trkpt><trkpt lat="44.762558719222596" lon="7.825574938709691"><ele>315.0</ele><time>2026-04-10T08:17:48Z</time></trkpt><trkpt lat="44.76254939226655" lon="7.825480046731364"><ele>315.1666666666667</ele><time>2026-04-10T08:17:50Z</time></trkpt><trkpt lat="44.76253054786888" lon="7.8253842793684365"><ele>315.3333333333333</ele><time>2026-04-10T08:17:52Z</time></trkpt><trkpt lat="44.76250748239113" lon="7.825282441741928"><ele>315.5</ele><time>2026-04-10T08:17:54Z</time></trkpt><trkpt lat="44.76250026371498" lon="7.8251822305023415"><ele>315.66666666666663</ele><time>2026-04-10T08:17:56Z</time></trkpt><trkpt lat="44.76250069638688" lon="7.825082520759337"><ele>315.8333333333333</ele><time>2026-04-10T08:17:58Z</time></trkpt><trkpt lat="44.76249007619337" lon="7.824973610344238"><ele>316.0</ele><time>2026-04-10T08:18:00Z</time></trkpt><trkpt lat="44.762507598794315" lon="7.824855748501034"><ele>315.66666666666663</ele><time>2026-04-10T08:18:02Z</time></trkpt><trkpt lat="44.76248652167839" lon="7.824726511498829"><ele>315.3333333333333</ele><time>2026-04-10T08:18:04Z</time></trkpt><trkpt lat="44.762482928786206" lon="7.824591828025741"><ele>315.0</ele><time>2026-04-10T08:18:06Z</time></trkpt><trkpt lat="44.76246979717321" lon="7.824470224746693"><ele>314.6666666666667</ele><time>2026-04-10T08:18:08Z</time></trkpt><trkpt lat="44.76243882818839" lon="7.824364126367497"><ele>314.33333333333337</ele><time>2026-04-10T08:18:10Z</time></trkpt><trkpt lat="44.76244892333979" lon="7.824260680726546"><ele>314.0</ele><time>2026-04-10T08:18:12Z</time></trkpt><trkpt lat="44.76253620191027" lon="7.8242078377944795"><ele>314.0</ele><time>2026-04-10T08:18:15Z</time></trkpt><trkpt lat="44.762569177069416" lon="7.824102719869928"><ele>314.0</ele><time>2026-04-10T08:18:17Z</time></trkpt><trkpt lat="44.762584805120625" lon="7.8239686405589275"><ele>314.0</ele><time>2026-04-10T08:18:19Z</time></trkpt><trkpt lat="44.76260984481658" lon="7.823843262631622"><ele>314.0</ele><time>2026-04-10T08:18:21Z</time></trkpt><trkpt lat="44.76262551621579" lon="7.823723197758624"><ele>314.0</ele><time>2026-04-10T08:18:23Z</time></trkpt><trkpt lat="44.76262978686074" lon="7.8235834774188255"><ele>313.99999999999994</ele><time>2026-04-10T08:18:25.999Z</time></trkpt><trkpt lat="44.76261818646092" lon="7.823490004858058"><ele>314.0</ele><time>2026-04-10T08:18:27.999Z</time></trkpt><trkpt lat="44.762610818913664" lon="7.823375415937308"><ele>314.0</ele><time>2026-04-10T08:18:30.999Z</time></trkpt><trkpt lat="44.76261708062223" lon="7.823262541302539"><ele>314.0</ele><time>2026-04-10T08:18:32.999Z</time></trkpt><trkpt lat="44.76262759582912" lon="7.823174839088805"><ele>314.0</ele><time>2026-04-10T08:18:34.999Z</time></trkpt><trkpt lat="44.76261965921313" lon="7.823086659881327"><ele>313.99999999999994</ele><time>2026-04-10T08:18:36.999Z</time></trkpt><trkpt lat="44.76262949681337" lon="7.822987643380029"><ele>314.0</ele><time>2026-04-10T08:18:38.999Z</time></trkpt><trkpt lat="44.762668920237246" lon="7.8228807963692635"><ele>313.1666666666667</ele><time>2026-04-10T08:18:40.999Z</time></trkpt><trkpt lat="44.762709069425064" lon="7.822774730049502"><ele>312.33333333333337</ele><time>2026-04-10T08:18:42.999Z</time></trkpt><trkpt lat="44.76270421796679" lon="7.822657037098289"><ele>311.5</ele><time>2026-04-10T08:18:45.999Z</time></trkpt><trkpt lat="44.76270467458581" lon="7.822527389065636"><ele>310.6666666666667</ele><time>2026-04-10T08:18:47.999Z</time></trkpt><trkpt lat="44.76270855118148" lon="7.822419503123822"><ele>309.8333333333333</ele><time>2026-04-10T08:18:48.999Z</time></trkpt><trkpt lat="44.762705227438154" lon="7.8223162742613335"><ele>309.0</ele><time>2026-04-10T08:18:50.999Z</time></trkpt><trkpt lat="44.76270413545789" lon="7.822219496402237"><ele>309.0</ele><time>2026-04-10T08:18:52.999Z</time></trkpt><trkpt lat="44.762700694536875" lon="7.822109086442551"><ele>309.0</ele><time>2026-04-10T08:18:54.999Z</time></trkpt><trkpt lat="44.76270223597169" lon="7.822001016930395"><ele>309.0</ele><time>2026-04-10T08:18:56.999Z</time></trkpt><trkpt lat="44.762697729408266" lon="7.8218518395457135"><ele>309.0</ele><time>2026-04-10T08:18:58.999Z</time></trkpt><trkpt lat="44.76269169125024" lon="7.821723243655668"><ele>309.0</ele><time>2026-04-10T08:19:00.999Z</time></trkpt><trkpt lat="44.762675088940064" lon="7.82157835024593"><ele>308.8571428571429</ele><time>2026-04-10T08:19:02.999Z</time></trkpt><trkpt lat="44.76263745102798" lon="7.821450627157879"><ele>308.7142857142857</ele><time>2026-04-10T08:19:04.999Z</time></trkpt><trkpt lat="44.76257295961048" lon="7.821377557012529"><ele>308.57142857142856</ele><time>2026-04-10T08:19:06.999Z</time></trkpt><trkpt lat="44.762515302325156" lon="7.821330252015258"><ele>308.42857142857144</ele><time>2026-04-10T08:19:21.999Z</time></trkpt><trkpt lat="44.762470136319905" lon="7.821266524258272"><ele>308.2857142857143</ele><time>2026-04-10T08:19:24.999Z</time></trkpt><trkpt lat="44.76242512694082" lon="7.821196588009256"><ele>308.14285714285717</ele><time>2026-04-10T08:19:26.999Z</time></trkpt><trkpt lat="44.76238662598124" lon="7.821126072422746"><ele>308.0</ele><time>2026-04-10T08:19:29.999Z</time></trkpt><trkpt lat="44.76235674074422" lon="7.821031746564152"><ele>307.33333333333337</ele><time>2026-04-10T08:19:33.999Z</time></trkpt><trkpt lat="44.76233672066134" lon="7.820944240205372"><ele>306.6666666666667</ele><time>2026-04-10T08:19:36.999Z</time></trkpt><trkpt lat="44.76231826833455" lon="7.820846336490231"><ele>306.0</ele><time>2026-04-10T08:19:39.999Z</time></trkpt><trkpt lat="44.76228495577464" lon="7.820746810085591"><ele>305.3333333333333</ele><time>2026-04-10T08:19:44Z</time></trkpt><trkpt lat="44.762237097807976" lon="7.820640610003648"><ele>304.66666666666663</ele><time>2026-04-10T08:19:47Z</time></trkpt><trkpt lat="44.76219784067227" lon="7.820549734350033"><ele>304.0</ele><time>2026-04-10T08:19:51Z</time></trkpt><trkpt lat="44.76217692000383" lon="7.820448910059214"><ele>304.0</ele><time>2026-04-10T08:19:55Z</time></trkpt><trkpt lat="44.76215746680842" lon="7.8203612159302045"><ele>304.0</ele><time>2026-04-10T08:19:58Z</time></trkpt><trkpt lat="44.762148608308614" lon="7.820266365084154"><ele>304.0</ele><time>2026-04-10T08:20:01Z</time></trkpt><trkpt lat="44.76216778169931" lon="7.820144648819011"><ele>304.0</ele><time>2026-04-10T08:20:05Z</time></trkpt><trkpt lat="44.76220867602339" lon="7.8200450095616105"><ele>304.0</ele><time>2026-04-10T08:20:09Z</time></trkpt><trkpt lat="44.76223363395515" lon="7.819937080790748"><ele>304.0</ele><time>2026-04-10T08:20:12Z</time></trkpt><trkpt lat="44.76225578648684" lon="7.819817192769067"><ele>304.0</ele><time>2026-04-10T08:20:15Z</time></trkpt><trkpt lat="44.762280395029364" lon="7.819655069201486"><ele>304.0</ele><time>2026-04-10T08:20:18Z</time></trkpt><trkpt lat="44.76230624485031" lon="7.8194950411789845"><ele>304.0</ele><time>2026-04-10T08:20:20Z</time></trkpt><trkpt lat="44.76233513572334" lon="7.819384032127948"><ele>304.0</ele><time>2026-04-10T08:20:22Z</time></trkpt><trkpt lat="44.76234955810365" lon="7.8192952193098435"><ele>304.0</ele><time>2026-04-10T08:20:24Z</time></trkpt><trkpt lat="44.76237418575157" lon="7.819202934306218"><ele>304.59999999999997</ele><time>2026-04-10T08:20:26Z</time></trkpt><trkpt lat="44.762385146878685" lon="7.819094792025754"><ele>305.2</ele><time>2026-04-10T08:20:28Z</time></trkpt><trkpt lat="44.76241093421164" lon="7.81895133488968"><ele>305.79999999999995</ele><time>2026-04-10T08:20:30Z</time></trkpt><trkpt lat="44.76244672531345" lon="7.818775831979558"><ele>306.4</ele><time>2026-04-10T08:20:31Z</time></trkpt><trkpt lat="44.76248656178235" lon="7.8186398451037045"><ele>307.0</ele><time>2026-04-10T08:20:32.999Z</time></trkpt><trkpt lat="44.76251609052616" lon="7.818505770025733"><ele>307.0</ele><time>2026-04-10T08:20:34.999Z</time></trkpt><trkpt lat="44.76254673320662" lon="7.818384296860025"><ele>307.0</ele><time>2026-04-10T08:20:36.999Z</time></trkpt><trkpt lat="44.76257904841075" lon="7.818236260289108"><ele>307.0</ele><time>2026-04-10T08:20:38.999Z</time></trkpt><trkpt lat="44.76259092638463" lon="7.818114716375872"><ele>307.0</ele><time>2026-04-10T08:20:40.999Z</time></trkpt><trkpt lat="44.76261452921197" lon="7.817955430638399"><ele>307.0</ele><time>2026-04-10T08:20:42.999Z</time></trkpt><trkpt lat="44.76263310273763" lon="7.8178160275334"><ele>307.0</ele><time>2026-04-10T08:20:44.999Z</time></trkpt><trkpt lat="44.762656730992205" lon="7.817679256649313"><ele>307.0</ele><time>2026-04-10T08:20:46.999Z</time></trkpt><trkpt lat="44.7626414257175" lon="7.817548112923429"><ele>307.0</ele><time>2026-04-10T08:20:48.999Z</time></trkpt><trkpt lat="44.76260657784915" lon="7.81742825287248"><ele>307.0</ele><time>2026-04-10T08:20:50.999Z</time></trkpt><trkpt lat="44.76257600759688" lon="7.817312415158125"><ele>307.0</ele><time>2026-04-10T08:20:52.999Z</time></trkpt><trkpt lat="44.76254049513418" lon="7.817186619858414"><ele>307.16666666666663</ele><time>2026-04-10T08:20:54.999Z</time></trkpt><trkpt lat="44.76251340693807" lon="7.817080852834268"><ele>307.3333333333333</ele><time>2026-04-10T08:20:56.999Z</time></trkpt><trkpt lat="44.76252296398657" lon="7.816968684253228"><ele>307.5</ele><time>2026-04-10T08:20:58.999Z</time></trkpt><trkpt lat="44.76251919370028" lon="7.816867734205881"><ele>307.6666666666667</ele><time>2026-04-10T08:21:00.999Z</time></trkpt><trkpt lat="44.76253004556202" lon="7.816752860600631"><ele>307.83333333333337</ele><time>2026-04-10T08:21:03.999Z</time></trkpt><trkpt lat="44.76253052509263" lon="7.8166329818574525"><ele>308.0</ele><time>2026-04-10T08:21:06.999Z</time></trkpt><trkpt lat="44.76252686408298" lon="7.816539547885694"><ele>308.2</ele><time>2026-04-10T08:21:08.999Z</time></trkpt><trkpt lat="44.76252879419166" lon="7.8164264611875005"><ele>308.4</ele><time>2026-04-10T08:21:10.999Z</time></trkpt><trkpt lat="44.76248698533584" lon="7.816179846360313"><ele>308.59999999999997</ele><time>2026-04-10T08:21:12.999Z</time></trkpt><trkpt lat="44.76245372759951" lon="7.816070699385554"><ele>308.8</ele><time>2026-04-10T08:21:14.999Z</time></trkpt><trkpt lat="44.762510075580835" lon="7.815988842540721"><ele>309.0</ele><time>2026-04-10T08:21:15.999Z</time></trkpt><trkpt lat="44.76249940151638" lon="7.815852620475698"><ele>309.0</ele><time>2026-04-10T08:21:17.999Z</time></trkpt><trkpt lat="44.76249210839508" lon="7.815734038171281"><ele>309.0</ele><time>2026-04-10T08:21:19.999Z</time></trkpt><trkpt lat="44.76250398259205" lon="7.815620463596378"><ele>309.0</ele><time>2026-04-10T08:21:21.999Z</time></trkpt><trkpt lat="44.76247165178526" lon="7.815513162480053"><ele>309.0</ele><time>2026-04-10T08:21:23.999Z</time></trkpt><trkpt lat="44.76242137884971" lon="7.815438358266194"><ele>309.0</ele><time>2026-04-10T08:21:25.999Z</time></trkpt><trkpt lat="44.762346792626424" lon="7.815410941295183"><ele>309.0</ele><time>2026-04-10T08:21:27.999Z</time></trkpt><trkpt lat="44.76228355378354" lon="7.815374089769545"><ele>309.0</ele><time>2026-04-10T08:21:29.999Z</time></trkpt><trkpt lat="44.76222076227806" lon="7.815332159313203"><ele>309.0</ele><time>2026-04-10T08:21:31.999Z</time></trkpt><trkpt lat="44.76216241658947" lon="7.815274802814092"><ele>309.0</ele><time>2026-04-10T08:21:33.999Z</time></trkpt><trkpt lat="44.76207991173165" lon="7.815201474304208"><ele>309.0</ele><time>2026-04-10T08:21:36.999Z</time></trkpt><trkpt lat="44.76202051502235" lon="7.815147504675356"><ele>309.0</ele><time>2026-04-10T08:21:38.999Z</time></trkpt><trkpt lat="44.761956158724374" lon="7.815097447109867"><ele>309.0</ele><time>2026-04-10T08:21:40.999Z</time></trkpt><trkpt lat="44.761872880609296" lon="7.8150335841197345"><ele>309.5714285714286</ele><time>2026-04-10T08:21:43.999Z</time></trkpt><trkpt lat="44.76181819454276" lon="7.814988862621999"><ele>310.14285714285717</ele><time>2026-04-10T08:21:45.999Z</time></trkpt><trkpt lat="44.76176406734478" lon="7.814930667642684"><ele>310.7142857142857</ele><time>2026-04-10T08:21:48Z</time></trkpt><trkpt lat="44.76171133881553" lon="7.814866366486388"><ele>311.28571428571433</ele><time>2026-04-10T08:21:50Z</time></trkpt><trkpt lat="44.76166642856615" lon="7.814792533350341"><ele>311.8571428571429</ele><time>2026-04-10T08:21:52Z</time></trkpt><trkpt lat="44.76163990940974" lon="7.814673874882765"><ele>312.42857142857144</ele><time>2026-04-10T08:21:55Z</time></trkpt><trkpt lat="44.76166608367744" lon="7.814588757653276"><ele>313.0</ele><time>2026-04-10T08:21:57Z</time></trkpt><trkpt lat="44.761699784980735" lon="7.814499693971601"><ele>313.0</ele><time>2026-04-10T08:21:59Z</time></trkpt><trkpt lat="44.76175278959823" lon="7.814415634326053"><ele>313.0</ele><time>2026-04-10T08:22:03Z</time></trkpt><trkpt lat="44.76181515750098" lon="7.814376465131406"><ele>313.0</ele><time>2026-04-10T08:22:08Z</time></trkpt><trkpt lat="44.7618803870998" lon="7.814289683328838"><ele>313.0</ele><time>2026-04-10T08:22:12Z</time></trkpt><trkpt lat="44.7619269395586" lon="7.814197589616075"><ele>313.0</ele><time>2026-04-10T08:22:15Z</time></trkpt><trkpt lat="44.76197244667121" lon="7.8140893385798424"><ele>313.0</ele><time>2026-04-10T08:22:17Z</time></trkpt><trkpt lat="44.762085392766515" lon="7.813940272983191"><ele>313.5</ele><time>2026-04-10T08:22:19Z</time></trkpt><trkpt lat="44.76213442770304" lon="7.81383998321843"><ele>314.0</ele><time>2026-04-10T08:22:21Z</time></trkpt><trkpt lat="44.76218461273342" lon="7.813741768525401"><ele>314.5</ele><time>2026-04-10T08:22:23Z</time></trkpt><trkpt lat="44.762235389372414" lon="7.813655252555068"><ele>315.0</ele><time>2026-04-10T08:22:25Z</time></trkpt><trkpt lat="44.762286602606466" lon="7.81355544754061"><ele>315.5</ele><time>2026-04-10T08:22:27Z</time></trkpt><trkpt lat="44.76233401286798" lon="7.813479082030625"><ele>316.0</ele><time>2026-04-10T08:22:29Z</time></trkpt><trkpt lat="44.76237952390867" lon="7.813384853357406"><ele>316.0</ele><time>2026-04-10T08:22:31Z</time></trkpt><trkpt lat="44.76241401371655" lon="7.813305232107142"><ele>316.0</ele><time>2026-04-10T08:22:33Z</time></trkpt><trkpt lat="44.76246778852829" lon="7.813228055017296"><ele>316.0</ele><time>2026-04-10T08:22:35Z</time></trkpt><trkpt lat="44.76251119870991" lon="7.813135812712205"><ele>316.0</ele><time>2026-04-10T08:22:37Z</time></trkpt><trkpt lat="44.76253037580059" lon="7.813024804000876"><ele>316.0</ele><time>2026-04-10T08:22:39Z</time></trkpt><trkpt lat="44.76255428353985" lon="7.812904250599529"><ele>316.0</ele><time>2026-04-10T08:22:40.999Z</time></trkpt><trkpt lat="44.76257501930902" lon="7.81277739555295"><ele>316.2</ele><time>2026-04-10T08:22:42.999Z</time></trkpt><trkpt lat="44.76258914466903" lon="7.812638670317461"><ele>316.40000000000003</ele><time>2026-04-10T08:22:44.999Z</time></trkpt><trkpt lat="44.76261748295097" lon="7.812486866394966"><ele>316.6</ele><time>2026-04-10T08:22:46.999Z</time></trkpt><trkpt lat="44.76264081508605" lon="7.812354749454195"><ele>316.8</ele><time>2026-04-10T08:22:48.999Z</time></trkpt><trkpt lat="44.762663878346366" lon="7.812243440270402"><ele>317.0</ele><time>2026-04-10T08:22:50.999Z</time></trkpt><trkpt lat="44.76271617996636" lon="7.812170231846303"><ele>315.4</ele><time>2026-04-10T08:22:52.999Z</time></trkpt><trkpt lat="44.7627971772823" lon="7.812137604628755"><ele>313.79999999999995</ele><time>2026-04-10T08:22:54.999Z</time></trkpt><trkpt lat="44.762884355633005" lon="7.812108223285862"><ele>312.2</ele><time>2026-04-10T08:22:56.999Z</time></trkpt><trkpt lat="44.762961295690296" lon="7.812055683228837"><ele>310.59999999999997</ele><time>2026-04-10T08:22:58.999Z</time></trkpt><trkpt lat="44.76304593378921" lon="7.811988038634873"><ele>309.0</ele><time>2026-04-10T08:23:00.999Z</time></trkpt><trkpt lat="44.763128828527854" lon="7.811897791048275"><ele>308.8</ele><time>2026-04-10T08:23:02.999Z</time></trkpt><trkpt lat="44.76317699770054" lon="7.811814754110806"><ele>308.59999999999997</ele><time>2026-04-10T08:23:04.999Z</time></trkpt><trkpt lat="44.76321569006495" lon="7.8117404964485"><ele>308.4</ele><time>2026-04-10T08:23:05.999Z</time></trkpt><trkpt lat="44.763275215970516" lon="7.811612845642893"><ele>308.2</ele><time>2026-04-10T08:23:07.999Z</time></trkpt><trkpt lat="44.76333689533171" lon="7.811490290050395"><ele>308.0</ele><time>2026-04-10T08:23:09.999Z</time></trkpt><trkpt lat="44.763393241191125" lon="7.8113757140220414"><ele>308.0</ele><time>2026-04-10T08:23:11.999Z</time></trkpt><trkpt lat="44.76344643079351" lon="7.811278924796228"><ele>308.0</ele><time>2026-04-10T08:23:13.999Z</time></trkpt><trkpt lat="44.76350261918149" lon="7.811176636037463"><ele>308.0</ele><time>2026-04-10T08:23:15.999Z</time></trkpt><trkpt lat="44.76355253811096" lon="7.811051142885714"><ele>308.0</ele><time>2026-04-10T08:23:17.999Z</time></trkpt><trkpt lat="44.76360416746748" lon="7.810936415312557"><ele>308.0</ele><time>2026-04-10T08:23:19.999Z</time></trkpt><trkpt lat="44.76366230191978" lon="7.810825871338094"><ele>307.6666666666667</ele><time>2026-04-10T08:23:21.999Z</time></trkpt><trkpt lat="44.76372322687759" lon="7.810725206095742"><ele>307.33333333333337</ele><time>2026-04-10T08:23:23.999Z</time></trkpt><trkpt lat="44.76377546538436" lon="7.810625059191726"><ele>307.0</ele><time>2026-04-10T08:23:25.999Z</time></trkpt><trkpt lat="44.76382823589003" lon="7.81052928744631"><ele>306.6666666666667</ele><time>2026-04-10T08:23:27.999Z</time></trkpt><trkpt lat="44.76388200689025" lon="7.810431872302294"><ele>306.3333333333333</ele><time>2026-04-10T08:23:29.999Z</time></trkpt><trkpt lat="44.76393409851885" lon="7.8103299047748225"><ele>306.0</ele><time>2026-04-10T08:23:31.999Z</time></trkpt><trkpt lat="44.763980292768174" lon="7.810233065262502"><ele>306.3333333333333</ele><time>2026-04-10T08:23:33.999Z</time></trkpt><trkpt lat="44.76402312605635" lon="7.810145850079998"><ele>306.6666666666667</ele><time>2026-04-10T08:23:36.999Z</time></trkpt><trkpt lat="44.76407710097351" lon="7.810051803054421"><ele>307.0</ele><time>2026-04-10T08:23:39.999Z</time></trkpt><trkpt lat="44.76413185393044" lon="7.809982013153998"><ele>307.33333333333337</ele><time>2026-04-10T08:23:41.999Z</time></trkpt><trkpt lat="44.76418500330059" lon="7.809891049910839"><ele>307.6666666666667</ele><time>2026-04-10T08:23:43.999Z</time></trkpt><trkpt lat="44.76423493606988" lon="7.809785554058927"><ele>308.0</ele><time>2026-04-10T08:23:45.999Z</time></trkpt><trkpt lat="44.76429249565135" lon="7.80969526284731"><ele>308.0</ele><time>2026-04-10T08:23:47.999Z</time></trkpt><trkpt lat="44.764360579628715" lon="7.809577962785383"><ele>308.0</ele><time>2026-04-10T08:23:50.999Z</time></trkpt><trkpt lat="44.76441529694241" lon="7.809494286742967"><ele>308.0</ele><time>2026-04-10T08:23:51.999Z</time></trkpt><trkpt lat="44.764478446785475" lon="7.809387296388133"><ele>308.0</ele><time>2026-04-10T08:23:54Z</time></trkpt><trkpt lat="44.76454072150991" lon="7.809285336331413"><ele>308.0</ele><time>2026-04-10T08:23:56Z</time></trkpt><trkpt lat="44.764597936619296" lon="7.809186416261545"><ele>307.4</ele><time>2026-04-10T08:23:58Z</time></trkpt><trkpt lat="44.76466169786319" lon="7.809084930527509"><ele>306.8</ele><time>2026-04-10T08:24:00Z</time></trkpt><trkpt lat="44.764731498845954" lon="7.80896250874021"><ele>306.2</ele><time>2026-04-10T08:24:02Z</time></trkpt><trkpt lat="44.764791848784725" lon="7.808853957028654"><ele>305.6</ele><time>2026-04-10T08:24:04Z</time></trkpt><trkpt lat="44.76485609623444" lon="7.8087599352745025"><ele>305.0</ele><time>2026-04-10T08:24:06Z</time></trkpt><trkpt lat="44.764921444415656" lon="7.808657302280353"><ele>305.0</ele><time>2026-04-10T08:24:08Z</time></trkpt><trkpt lat="44.76497902449541" lon="7.80855597120756"><ele>305.0</ele><time>2026-04-10T08:24:10Z</time></trkpt><trkpt lat="44.76503317045375" lon="7.80845833858206"><ele>305.0</ele><time>2026-04-10T08:24:12Z</time></trkpt><trkpt lat="44.76508840174323" lon="7.808353239876097"><ele>305.0</ele><time>2026-04-10T08:24:14Z</time></trkpt><trkpt lat="44.765143639466075" lon="7.808275096900755"><ele>305.0</ele><time>2026-04-10T08:24:16Z</time></trkpt><trkpt lat="44.765201015378196" lon="7.808178727639677"><ele>305.0</ele><time>2026-04-10T08:24:18Z</time></trkpt><trkpt lat="44.765258372080886" lon="7.808096180535417"><ele>304.6666666666667</ele><time>2026-04-10T08:24:20Z</time></trkpt><trkpt lat="44.76530346270345" lon="7.8080103918926484"><ele>304.33333333333337</ele><time>2026-04-10T08:24:22Z</time></trkpt><trkpt lat="44.76535139143417" lon="7.807898442677721"><ele>304.0</ele><time>2026-04-10T08:24:25Z</time></trkpt><trkpt lat="44.7653973637856" lon="7.8078110991402845"><ele>303.6666666666667</ele><time>2026-04-10T08:24:27Z</time></trkpt><trkpt lat="44.76543621696351" lon="7.8077345926698305"><ele>303.3333333333333</ele><time>2026-04-10T08:24:29Z</time></trkpt><trkpt lat="44.76547470188966" lon="7.807640917932991"><ele>303.0</ele><time>2026-04-10T08:24:31Z</time></trkpt><trkpt lat="44.765514192244794" lon="7.8075469890158375"><ele>303.0</ele><time>2026-04-10T08:24:33Z</time></trkpt><trkpt lat="44.7655667302222" lon="7.807457967075694"><ele>303.0</ele><time>2026-04-10T08:24:35Z</time></trkpt><trkpt lat="44.765616385484186" lon="7.807370992941969"><ele>303.0</ele><time>2026-04-10T08:24:37Z</time></trkpt><trkpt lat="44.765667950402104" lon="7.807276039332472"><ele>303.0</ele><time>2026-04-10T08:24:39Z</time></trkpt><trkpt lat="44.7657228841894" lon="7.807176214511345"><ele>303.0</ele><time>2026-04-10T08:24:41Z</time></trkpt><trkpt lat="44.76578150167925" lon="7.807086540472465"><ele>303.0</ele><time>2026-04-10T08:24:43Z</time></trkpt><trkpt lat="44.765835397930786" lon="7.806990576503356"><ele>303.0</ele><time>2026-04-10T08:24:45Z</time></trkpt><trkpt lat="44.765881242756805" lon="7.8068867316132335"><ele>303.0</ele><time>2026-04-10T08:24:47Z</time></trkpt><trkpt lat="44.76591584749885" lon="7.806771866375348"><ele>303.0</ele><time>2026-04-10T08:24:49Z</time></trkpt><trkpt lat="44.7659186494193" lon="7.806669442675028"><ele>303.0</ele><time>2026-04-10T08:24:51Z</time></trkpt><trkpt lat="44.7659041426249" lon="7.806554141652898"><ele>303.0</ele><time>2026-04-10T08:24:53Z</time></trkpt><trkpt lat="44.765899974571255" lon="7.806433919907554"><ele>303.0</ele><time>2026-04-10T08:24:55Z</time></trkpt><trkpt lat="44.76593433603511" lon="7.806327504280408"><ele>303.1666666666667</ele><time>2026-04-10T08:24:57Z</time></trkpt><trkpt lat="44.76599223242458" lon="7.806245708657827"><ele>303.3333333333333</ele><time>2026-04-10T08:24:59Z</time></trkpt><trkpt lat="44.766050287632254" lon="7.806168719655253"><ele>303.5</ele><time>2026-04-10T08:25:00.999Z</time></trkpt><trkpt lat="44.76610669094722" lon="7.806088203316026"><ele>303.66666666666663</ele><time>2026-04-10T08:25:02.999Z</time></trkpt><trkpt lat="44.76616362351139" lon="7.805998062412256"><ele>303.8333333333333</ele><time>2026-04-10T08:25:04.999Z</time></trkpt><trkpt lat="44.766220884056516" lon="7.805913514367873"><ele>304.0</ele><time>2026-04-10T08:25:06.999Z</time></trkpt><trkpt lat="44.76627646785836" lon="7.805827764939817"><ele>303.66666666666663</ele><time>2026-04-10T08:25:08.999Z</time></trkpt><trkpt lat="44.76633015694817" lon="7.805748433514478"><ele>303.3333333333333</ele><time>2026-04-10T08:25:10.999Z</time></trkpt><trkpt lat="44.766380868677174" lon="7.80567286578419"><ele>303.0</ele><time>2026-04-10T08:25:12.999Z</time></trkpt><trkpt lat="44.766434500392734" lon="7.805586745805347"><ele>302.6666666666667</ele><time>2026-04-10T08:25:14.999Z</time></trkpt><trkpt lat="44.76649296872862" lon="7.805500130962526"><ele>302.33333333333337</ele><time>2026-04-10T08:25:16.999Z</time></trkpt><trkpt lat="44.76655389262805" lon="7.805429057459858"><ele>302.0</ele><time>2026-04-10T08:25:18.999Z</time></trkpt><trkpt lat="44.766623726216736" lon="7.805402526025236"><ele>302.0</ele><time>2026-04-10T08:25:20.999Z</time></trkpt><trkpt lat="44.76669534190148" lon="7.805445345811537"><ele>302.0</ele><time>2026-04-10T08:25:22.999Z</time></trkpt><trkpt lat="44.76676619422746" lon="7.805532583533847"><ele>302.0</ele><time>2026-04-10T08:25:24.999Z</time></trkpt><trkpt lat="44.76684703333039" lon="7.805594267109387"><ele>302.0</ele><time>2026-04-10T08:25:26.999Z</time></trkpt><trkpt lat="44.76693331984489" lon="7.805592850236177"><ele>302.0</ele><time>2026-04-10T08:25:28.999Z</time></trkpt><trkpt lat="44.767008130385236" lon="7.805542080620416"><ele>302.0</ele><time>2026-04-10T08:25:30.999Z</time></trkpt><trkpt lat="44.76708078996546" lon="7.80545970574298"><ele>301.8</ele><time>2026-04-10T08:25:32.999Z</time></trkpt><trkpt lat="44.76715521584524" lon="7.8053807911393"><ele>301.6</ele><time>2026-04-10T08:25:34.999Z</time></trkpt><trkpt lat="44.76723143728946" lon="7.805295262884784"><ele>301.40000000000003</ele><time>2026-04-10T08:25:36.999Z</time></trkpt><trkpt lat="44.76730256318914" lon="7.8052186033318725"><ele>301.2</ele><time>2026-04-10T08:25:38.999Z</time></trkpt><trkpt lat="44.767375776196786" lon="7.805140549014014"><ele>301.0</ele><time>2026-04-10T08:25:40.999Z</time></trkpt><trkpt lat="44.76745062812329" lon="7.805063377782922"><ele>301.0</ele><time>2026-04-10T08:25:42.999Z</time></trkpt><trkpt lat="44.767524402047705" lon="7.804983435864437"><ele>301.0</ele><time>2026-04-10T08:25:44.999Z</time></trkpt><trkpt lat="44.76759730724465" lon="7.80490584300513"><ele>301.0</ele><time>2026-04-10T08:25:46.999Z</time></trkpt><trkpt lat="44.767663264757786" lon="7.804833355187269"><ele>301.0</ele><time>2026-04-10T08:25:48.999Z</time></trkpt><trkpt lat="44.76772681115387" lon="7.804761996238456"><ele>301.0</ele><time>2026-04-10T08:25:50.999Z</time></trkpt><trkpt lat="44.767786992410514" lon="7.8046952965408485"><ele>301.0</ele><time>2026-04-10T08:25:52.999Z</time></trkpt><trkpt lat="44.767846202284" lon="7.804620032857108"><ele>300.66666666666663</ele><time>2026-04-10T08:25:54.999Z</time></trkpt><trkpt lat="44.76789204799479" lon="7.804528686451487"><ele>300.3333333333333</ele><time>2026-04-10T08:25:56.999Z</time></trkpt><trkpt lat="44.76793887858285" lon="7.804415586308139"><ele>300.0</ele><time>2026-04-10T08:26:00Z</time></trkpt><trkpt lat="44.76796099566232" lon="7.804309352333818"><ele>299.6666666666667</ele><time>2026-04-10T08:26:02Z</time></trkpt><trkpt lat="44.76799299443084" lon="7.804200706854269"><ele>299.33333333333337</ele><time>2026-04-10T08:26:04Z</time></trkpt><trkpt lat="44.7680154911142" lon="7.804101828583538"><ele>299.0</ele><time>2026-04-10T08:26:06Z</time></trkpt><trkpt lat="44.76803969734872" lon="7.803997149697833"><ele>299.0</ele><time>2026-04-10T08:26:08Z</time></trkpt><trkpt lat="44.76806281793669" lon="7.803886958327837"><ele>299.0</ele><time>2026-04-10T08:26:10Z</time></trkpt><trkpt lat="44.76808892708375" lon="7.803772956365533"><ele>299.0</ele><time>2026-04-10T08:26:12Z</time></trkpt><trkpt lat="44.768112956949906" lon="7.803664353951021"><ele>299.0</ele><time>2026-04-10T08:26:14Z</time></trkpt><trkpt lat="44.768128959241764" lon="7.803545763483663"><ele>299.0</ele><time>2026-04-10T08:26:16Z</time></trkpt><trkpt lat="44.76813915988623" lon="7.8034399122265725"><ele>299.0</ele><time>2026-04-10T08:26:18Z</time></trkpt><trkpt lat="44.768157318559204" lon="7.803340717427235"><ele>298.83333333333337</ele><time>2026-04-10T08:26:20Z</time></trkpt><trkpt lat="44.768179937919506" lon="7.803252021003754"><ele>298.6666666666667</ele><time>2026-04-10T08:26:22Z</time></trkpt><trkpt lat="44.76819238105809" lon="7.803149999753273"><ele>298.5</ele><time>2026-04-10T08:26:24Z</time></trkpt><trkpt lat="44.7682064481845" lon="7.803046432859075"><ele>298.3333333333333</ele><time>2026-04-10T08:26:26Z</time></trkpt><trkpt lat="44.76823583486413" lon="7.802933754436076"><ele>298.16666666666663</ele><time>2026-04-10T08:26:28Z</time></trkpt><trkpt lat="44.768280358137815" lon="7.802835638016772"><ele>298.0</ele><time>2026-04-10T08:26:30Z</time></trkpt><trkpt lat="44.76834924376412" lon="7.802768166445533"><ele>298.0</ele><time>2026-04-10T08:26:32Z</time></trkpt><trkpt lat="44.76843591540106" lon="7.802753828072803"><ele>298.0</ele><time>2026-04-10T08:26:34Z</time></trkpt><trkpt lat="44.76852004433934" lon="7.802758846783979"><ele>298.0</ele><time>2026-04-10T08:26:36Z</time></trkpt><trkpt lat="44.76859396025343" lon="7.802741411324064"><ele>298.0</ele><time>2026-04-10T08:26:38Z</time></trkpt><trkpt lat="44.768650977116955" lon="7.802695185833546"><ele>298.0</ele><time>2026-04-10T08:26:40Z</time></trkpt><trkpt lat="44.7686835254965" lon="7.802606450854411"><ele>298.0</ele><time>2026-04-10T08:26:42Z</time></trkpt><trkpt lat="44.768690426708375" lon="7.802490660341015"><ele>298.0</ele><time>2026-04-10T08:26:44Z</time></trkpt><trkpt lat="44.768701935928654" lon="7.802373580926474"><ele>298.0</ele><time>2026-04-10T08:26:46Z</time></trkpt><trkpt lat="44.76870960561231" lon="7.802250649757038"><ele>298.0</ele><time>2026-04-10T08:26:48Z</time></trkpt><trkpt lat="44.76871637798497" lon="7.802133835222297"><ele>298.0</ele><time>2026-04-10T08:26:50Z</time></trkpt><trkpt lat="44.76873035375867" lon="7.8020222448130845"><ele>298.0</ele><time>2026-04-10T08:26:52Z</time></trkpt><trkpt lat="44.76874569772155" lon="7.801921868295174"><ele>298.0</ele><time>2026-04-10T08:26:54Z</time></trkpt><trkpt lat="44.76875933917187" lon="7.801824994584701"><ele>297.7142857142857</ele><time>2026-04-10T08:26:56Z</time></trkpt><trkpt lat="44.76877505920058" lon="7.801726099956896"><ele>297.4285714285714</ele><time>2026-04-10T08:26:58Z</time></trkpt><trkpt lat="44.768797316688385" lon="7.8016203663178745"><ele>297.1428571428571</ele><time>2026-04-10T08:27:00Z</time></trkpt><trkpt lat="44.76880995065412" lon="7.801524788499406"><ele>296.85714285714283</ele><time>2026-04-10T08:27:01.999Z</time></trkpt><trkpt lat="44.76882542081503" lon="7.801434110042947"><ele>296.57142857142856</ele><time>2026-04-10T08:27:03.999Z</time></trkpt><trkpt lat="44.768840152734235" lon="7.801331777571706"><ele>296.2857142857143</ele><time>2026-04-10T08:27:05.999Z</time></trkpt><trkpt lat="44.76885057484252" lon="7.801236265030195"><ele>296.0</ele><time>2026-04-10T08:27:07.999Z</time></trkpt><trkpt lat="44.76886646750047" lon="7.8011454087017915"><ele>296.0</ele><time>2026-04-10T08:27:09.999Z</time></trkpt><trkpt lat="44.768880051414904" lon="7.8010560219465805"><ele>296.0</ele><time>2026-04-10T08:27:11.999Z</time></trkpt><trkpt lat="44.768901481815426" lon="7.8009259500856665"><ele>296.0</ele><time>2026-04-10T08:27:14.999Z</time></trkpt><trkpt lat="44.76892080942155" lon="7.800829030183092"><ele>296.0</ele><time>2026-04-10T08:27:16.999Z</time></trkpt><trkpt lat="44.768939762193426" lon="7.80072536126513"><ele>296.0</ele><time>2026-04-10T08:27:18.999Z</time></trkpt><trkpt lat="44.768963434426176" lon="7.800625734150033"><ele>296.0</ele><time>2026-04-10T08:27:20.999Z</time></trkpt><trkpt lat="44.7689866328787" lon="7.800525674585702"><ele>296.0</ele><time>2026-04-10T08:27:22.999Z</time></trkpt><trkpt lat="44.76901199990862" lon="7.800419139355774"><ele>296.0</ele><time>2026-04-10T08:27:24.999Z</time></trkpt><trkpt lat="44.76903795109184" lon="7.800311771605255"><ele>296.0</ele><time>2026-04-10T08:27:26.999Z</time></trkpt><trkpt lat="44.76906157494101" lon="7.800204923033644"><ele>296.0</ele><time>2026-04-10T08:27:28.999Z</time></trkpt><trkpt lat="44.76908866940391" lon="7.8001041976466805"><ele>296.0</ele><time>2026-04-10T08:27:30.999Z</time></trkpt><trkpt lat="44.769111830691834" lon="7.799998920943565"><ele>296.0</ele><time>2026-04-10T08:27:32.999Z</time></trkpt><trkpt lat="44.769137425878704" lon="7.7998943036146455"><ele>295.6666666666667</ele><time>2026-04-10T08:27:34.999Z</time></trkpt><trkpt lat="44.769167078293535" lon="7.79978710745474"><ele>295.33333333333337</ele><time>2026-04-10T08:27:36.999Z</time></trkpt><trkpt lat="44.769201152116246" lon="7.799683189755745"><ele>295.0</ele><time>2026-04-10T08:27:38.999Z</time></trkpt><trkpt lat="44.769233791034516" lon="7.799570196637687"><ele>294.6666666666667</ele><time>2026-04-10T08:27:40.999Z</time></trkpt><trkpt lat="44.76927135996643" lon="7.799460787071238"><ele>294.3333333333333</ele><time>2026-04-10T08:27:42.999Z</time></trkpt><trkpt lat="44.769306360705635" lon="7.79934292782686"><ele>294.0</ele><time>2026-04-10T08:27:44.999Z</time></trkpt><trkpt lat="44.76933951513088" lon="7.799222253700075"><ele>293.6666666666667</ele><time>2026-04-10T08:27:46.999Z</time></trkpt><trkpt lat="44.769377639296586" lon="7.799107194824981"><ele>293.3333333333333</ele><time>2026-04-10T08:27:48.999Z</time></trkpt><trkpt lat="44.769411909635664" lon="7.798995200489252"><ele>293.0</ele><time>2026-04-10T08:27:50.999Z</time></trkpt><trkpt lat="44.7694498087546" lon="7.79889863765148"><ele>292.66666666666663</ele><time>2026-04-10T08:27:52.999Z</time></trkpt><trkpt lat="44.76948016093057" lon="7.798811802476365"><ele>292.3333333333333</ele><time>2026-04-10T08:27:54.999Z</time></trkpt><trkpt lat="44.76951035077458" lon="7.798733752881762"><ele>292.0</ele><time>2026-04-10T08:27:57.999Z</time></trkpt><trkpt lat="44.76956004966133" lon="7.798623476614739"><ele>292.0</ele><time>2026-04-10T08:28:00.999Z</time></trkpt><trkpt lat="44.76961493097642" lon="7.798573764606306"><ele>292.0</ele><time>2026-04-10T08:28:02.999Z</time></trkpt><trkpt lat="44.769681083230914" lon="7.79853915499777"><ele>292.0</ele><time>2026-04-10T08:28:04.999Z</time></trkpt><trkpt lat="44.76975331379996" lon="7.798497760292158"><ele>292.0</ele><time>2026-04-10T08:28:07Z</time></trkpt><trkpt lat="44.76983145255261" lon="7.798471440804956"><ele>292.0</ele><time>2026-04-10T08:28:09Z</time></trkpt><trkpt lat="44.769909147228184" lon="7.7984415437863355"><ele>292.0</ele><time>2026-04-10T08:28:11Z</time></trkpt><trkpt lat="44.76998583417909" lon="7.798404799937475"><ele>291.8333333333333</ele><time>2026-04-10T08:28:13Z</time></trkpt><trkpt lat="44.77005348130115" lon="7.798367544788868"><ele>291.66666666666663</ele><time>2026-04-10T08:28:15Z</time></trkpt><trkpt lat="44.770121574071034" lon="7.798328580644716"><ele>291.5</ele><time>2026-04-10T08:28:17Z</time></trkpt><trkpt lat="44.77018832757208" lon="7.798281039667708"><ele>291.3333333333333</ele><time>2026-04-10T08:28:19Z</time></trkpt><trkpt lat="44.77025508150814" lon="7.798221372523393"><ele>291.1666666666667</ele><time>2026-04-10T08:28:21Z</time></trkpt><trkpt lat="44.77032120145789" lon="7.7981610137776105"><ele>291.0</ele><time>2026-04-10T08:28:23Z</time></trkpt><trkpt lat="44.77038054955721" lon="7.798080450481341"><ele>290.8333333333333</ele><time>2026-04-10T08:28:25Z</time></trkpt><trkpt lat="44.77042618659466" lon="7.797982806556409"><ele>290.6666666666667</ele><time>2026-04-10T08:28:27Z</time></trkpt><trkpt lat="44.77047019456547" lon="7.797886853302014"><ele>290.5</ele><time>2026-04-10T08:28:29Z</time></trkpt><trkpt lat="44.77050897303003" lon="7.797783916629359"><ele>290.33333333333337</ele><time>2026-04-10T08:28:31Z</time></trkpt><trkpt lat="44.77055102211627" lon="7.797679758479403"><ele>290.1666666666667</ele><time>2026-04-10T08:28:33Z</time></trkpt><trkpt lat="44.77058792706923" lon="7.797589471806069"><ele>290.0</ele><time>2026-04-10T08:28:35Z</time></trkpt><trkpt lat="44.77062367892862" lon="7.797475045615806"><ele>290.0</ele><time>2026-04-10T08:28:37Z</time></trkpt><trkpt lat="44.770659889833695" lon="7.79735150349857"><ele>290.0</ele><time>2026-04-10T08:28:39Z</time></trkpt><trkpt lat="44.77069386961185" lon="7.797226944269926"><ele>290.0</ele><time>2026-04-10T08:28:41Z</time></trkpt><trkpt lat="44.77073064904541" lon="7.797087219910648"><ele>290.0</ele><time>2026-04-10T08:28:43Z</time></trkpt><trkpt lat="44.77078119045266" lon="7.796962268165376"><ele>290.0</ele><time>2026-04-10T08:28:45Z</time></trkpt><trkpt lat="44.77083315893134" lon="7.7968428142730515"><ele>289.8</ele><time>2026-04-10T08:28:47Z</time></trkpt><trkpt lat="44.77088174920503" lon="7.7967075522871685"><ele>289.6</ele><time>2026-04-10T08:28:49Z</time></trkpt><trkpt lat="44.770926588827976" lon="7.796572223926659"><ele>289.4</ele><time>2026-04-10T08:28:51Z</time></trkpt><trkpt lat="44.77096961978906" lon="7.796439840363375"><ele>289.2</ele><time>2026-04-10T08:28:53Z</time></trkpt><trkpt lat="44.771018565397576" lon="7.796300406031625"><ele>289.0</ele><time>2026-04-10T08:28:55Z</time></trkpt><trkpt lat="44.77106576476483" lon="7.7961762611941605"><ele>288.2</ele><time>2026-04-10T08:28:57Z</time></trkpt><trkpt lat="44.7711116438175" lon="7.796043836177067"><ele>287.4</ele><time>2026-04-10T08:28:59Z</time></trkpt><trkpt lat="44.77115670632402" lon="7.79591366255507"><ele>286.6</ele><time>2026-04-10T08:29:01Z</time></trkpt><trkpt lat="44.77120017027007" lon="7.795774341354912"><ele>285.8</ele><time>2026-04-10T08:29:03Z</time></trkpt><trkpt lat="44.7712384088538" lon="7.795637642600478"><ele>285.0</ele><time>2026-04-10T08:29:05Z</time></trkpt><trkpt lat="44.77127013398676" lon="7.795503627197527"><ele>284.8333333333333</ele><time>2026-04-10T08:29:06.999Z</time></trkpt><trkpt lat="44.7712855667281" lon="7.795348377033582"><ele>284.6666666666667</ele><time>2026-04-10T08:29:08.999Z</time></trkpt><trkpt lat="44.77128593355022" lon="7.795229500846946"><ele>284.5</ele><time>2026-04-10T08:29:10.999Z</time></trkpt><trkpt lat="44.771278013740364" lon="7.7951339806395685"><ele>284.33333333333337</ele><time>2026-04-10T08:29:12.999Z</time></trkpt><trkpt lat="44.77124429595061" lon="7.79503971643425"><ele>284.1666666666667</ele><time>2026-04-10T08:29:15.999Z</time></trkpt><trkpt lat="44.7712148685318" lon="7.794949836873005"><ele>284.0</ele><time>2026-04-10T08:29:18.999Z</time></trkpt><trkpt lat="44.771187172008986" lon="7.794821911734892"><ele>283.8</ele><time>2026-04-10T08:29:21.999Z</time></trkpt><trkpt lat="44.77114166917732" lon="7.79472028855381"><ele>283.59999999999997</ele><time>2026-04-10T08:29:23.999Z</time></trkpt><trkpt lat="44.77109406187988" lon="7.794621249163328"><ele>283.4</ele><time>2026-04-10T08:29:25.999Z</time></trkpt><trkpt lat="44.77102713586838" lon="7.794530578793937"><ele>283.2</ele><time>2026-04-10T08:29:27.999Z</time></trkpt><trkpt lat="44.77096845406984" lon="7.794427648967374"><ele>283.0</ele><time>2026-04-10T08:29:29.999Z</time></trkpt><trkpt lat="44.77091110189375" lon="7.794319969860069"><ele>282.2</ele><time>2026-04-10T08:29:31.999Z</time></trkpt><trkpt lat="44.770876151058324" lon="7.794192989955432"><ele>281.4</ele><time>2026-04-10T08:29:33.999Z</time></trkpt><trkpt lat="44.77088049117448" lon="7.794075131006825"><ele>280.59999999999997</ele><time>2026-04-10T08:29:35.999Z</time></trkpt><trkpt lat="44.77091188356025" lon="7.793962815214099"><ele>279.8</ele><time>2026-04-10T08:29:37.999Z</time></trkpt><trkpt lat="44.77095641279001" lon="7.7938525711795865"><ele>279.0</ele><time>2026-04-10T08:29:39.999Z</time></trkpt><trkpt lat="44.77102484041231" lon="7.793761933385407"><ele>278.6666666666667</ele><time>2026-04-10T08:29:41.999Z</time></trkpt><trkpt lat="44.771087619775344" lon="7.793670417633734"><ele>278.3333333333333</ele><time>2026-04-10T08:29:43.999Z</time></trkpt><trkpt lat="44.77114010818892" lon="7.793593551663037"><ele>278.0</ele><time>2026-04-10T08:29:45.999Z</time></trkpt><trkpt lat="44.77119084789592" lon="7.793509789237892"><ele>277.66666666666663</ele><time>2026-04-10T08:29:47.999Z</time></trkpt><trkpt lat="44.77124257150022" lon="7.793423508168955"><ele>277.3333333333333</ele><time>2026-04-10T08:29:49.999Z</time></trkpt><trkpt lat="44.7712844520687" lon="7.793329546241295"><ele>277.0</ele><time>2026-04-10T08:29:51.999Z</time></trkpt><trkpt lat="44.771321103974905" lon="7.793241924373009"><ele>276.66666666666663</ele><time>2026-04-10T08:29:53.999Z</time></trkpt><trkpt lat="44.77139725388408" lon="7.7931797356921875"><ele>276.3333333333333</ele><time>2026-04-10T08:29:56.999Z</time></trkpt><trkpt lat="44.77145703037398" lon="7.793124854419289"><ele>276.0</ele><time>2026-04-10T08:29:59.999Z</time></trkpt><trkpt lat="44.77152134806941" lon="7.793110990373828"><ele>275.6666666666667</ele><time>2026-04-10T08:30:02.999Z</time></trkpt><trkpt lat="44.77152438656202" lon="7.793208861420888"><ele>275.33333333333337</ele><time>2026-04-10T08:30:24Z</time></trkpt><trkpt lat="44.77154443939982" lon="7.793303647242308"><ele>275.0</ele><time>2026-04-10T08:30:27Z</time></trkpt><trkpt lat="44.77158082976683" lon="7.793418677002377"><ele>275.33333333333337</ele><time>2026-04-10T08:30:30Z</time></trkpt><trkpt lat="44.77160896363387" lon="7.7935139180902455"><ele>275.6666666666667</ele><time>2026-04-10T08:30:32Z</time></trkpt><trkpt lat="44.77164461517033" lon="7.793612911369845"><ele>276.0</ele><time>2026-04-10T08:30:34Z</time></trkpt><trkpt lat="44.77167785998511" lon="7.7937209836174635"><ele>276.3333333333333</ele><time>2026-04-10T08:30:36Z</time></trkpt><trkpt lat="44.77170440198679" lon="7.793821054630646"><ele>276.66666666666663</ele><time>2026-04-10T08:30:38Z</time></trkpt><trkpt lat="44.77177431845643" lon="7.793932550064746"><ele>277.0</ele><time>2026-04-10T08:30:41Z</time></trkpt><trkpt lat="44.77184184007073" lon="7.794020272881745"><ele>277.25</ele><time>2026-04-10T08:30:43Z</time></trkpt><trkpt lat="44.77190877722337" lon="7.794124540120796"><ele>277.5</ele><time>2026-04-10T08:30:45Z</time></trkpt><trkpt lat="44.77198727201397" lon="7.794228307240782"><ele>277.75</ele><time>2026-04-10T08:30:47Z</time></trkpt><trkpt lat="44.77206392475022" lon="7.794331188380937"><ele>278.0</ele><time>2026-04-10T08:30:49Z</time></trkpt><trkpt lat="44.77217475590831" lon="7.794520289201031"><ele>278.25</ele><time>2026-04-10T08:30:52Z</time></trkpt><trkpt lat="44.77224418113356" lon="7.794626130308597"><ele>278.5</ele><time>2026-04-10T08:30:54Z</time></trkpt><trkpt lat="44.772322399735515" lon="7.794744759235411"><ele>278.75</ele><time>2026-04-10T08:30:56Z</time></trkpt><trkpt lat="44.7724020553242" lon="7.7948687840827535"><ele>279.0</ele><time>2026-04-10T08:30:58Z</time></trkpt><trkpt lat="44.77245502233761" lon="7.795022050129303"><ele>278.8</ele><time>2026-04-10T08:31:00Z</time></trkpt><trkpt lat="44.77250467586355" lon="7.795180222725519"><ele>278.59999999999997</ele><time>2026-04-10T08:31:02Z</time></trkpt><trkpt lat="44.77254517072958" lon="7.795339308487569"><ele>278.4</ele><time>2026-04-10T08:31:04Z</time></trkpt><trkpt lat="44.77258047352694" lon="7.795494507580479"><ele>278.2</ele><time>2026-04-10T08:31:06Z</time></trkpt><trkpt lat="44.77260140827476" lon="7.795586541480908"><ele>278.0</ele><time>2026-04-10T08:31:07Z</time></trkpt><trkpt lat="44.772625403126455" lon="7.7956896902624715"><ele>278.0</ele><time>2026-04-10T08:31:07.999Z</time></trkpt><trkpt lat="44.772647231077286" lon="7.795779029227043"><ele>278.0</ele><time>2026-04-10T08:31:08.999Z</time></trkpt><trkpt lat="44.772682027533094" lon="7.795921446559308"><ele>278.0</ele><time>2026-04-10T08:31:10.999Z</time></trkpt><trkpt lat="44.77271984966705" lon="7.796076247574106"><ele>278.0</ele><time>2026-04-10T08:31:12.999Z</time></trkpt><trkpt lat="44.77275569952927" lon="7.796222976378577"><ele>278.0</ele><time>2026-04-10T08:31:14.999Z</time></trkpt><trkpt lat="44.7727904810981" lon="7.79636533277976"><ele>278.0</ele><time>2026-04-10T08:31:16.999Z</time></trkpt><trkpt lat="44.77282315283304" lon="7.796505005898681"><ele>278.0</ele><time>2026-04-10T08:31:18.999Z</time></trkpt><trkpt lat="44.772856111461046" lon="7.796649883830116"><ele>278.0</ele><time>2026-04-10T08:31:20.999Z</time></trkpt><trkpt lat="44.772886911605006" lon="7.796790992719318"><ele>278.0</ele><time>2026-04-10T08:31:22.999Z</time></trkpt><trkpt lat="44.772916545067915" lon="7.796930877104888"><ele>278.0</ele><time>2026-04-10T08:31:24.999Z</time></trkpt><trkpt lat="44.772945165489126" lon="7.797072244630216"><ele>278.0</ele><time>2026-04-10T08:31:26.999Z</time></trkpt><trkpt lat="44.77297126365447" lon="7.797215014483812"><ele>278.0</ele><time>2026-04-10T08:31:28.999Z</time></trkpt><trkpt lat="44.77299151244184" lon="7.797357812951885"><ele>278.0</ele><time>2026-04-10T08:31:30.999Z</time></trkpt><trkpt lat="44.77300614193176" lon="7.797493773537055"><ele>278.0</ele><time>2026-04-10T08:31:32.999Z</time></trkpt><trkpt lat="44.773007253148904" lon="7.797626128446024"><ele>278.0</ele><time>2026-04-10T08:31:34.999Z</time></trkpt><trkpt lat="44.77301566820103" lon="7.797764372012981"><ele>278.0</ele><time>2026-04-10T08:31:36.999Z</time></trkpt><trkpt lat="44.7730341425387" lon="7.797894208686732"><ele>278.0</ele><time>2026-04-10T08:31:38.999Z</time></trkpt><trkpt lat="44.773053920569055" lon="7.798031766597749"><ele>278.0</ele><time>2026-04-10T08:31:40.999Z</time></trkpt><trkpt lat="44.77308026109259" lon="7.798165591250328"><ele>278.0</ele><time>2026-04-10T08:31:42.999Z</time></trkpt><trkpt lat="44.77307588412664" lon="7.7983148841310035"><ele>278.0</ele><time>2026-04-10T08:31:45.999Z</time></trkpt><trkpt lat="44.77307618613886" lon="7.798429621880702"><ele>278.4</ele><time>2026-04-10T08:31:46.999Z</time></trkpt><trkpt lat="44.77308699012154" lon="7.798569254288931"><ele>278.8</ele><time>2026-04-10T08:31:48.999Z</time></trkpt><trkpt lat="44.77310309994927" lon="7.798715612224023"><ele>279.2</ele><time>2026-04-10T08:31:50.999Z</time></trkpt><trkpt lat="44.77310805711521" lon="7.798850642088754"><ele>279.6</ele><time>2026-04-10T08:31:52.999Z</time></trkpt><trkpt lat="44.77311143029217" lon="7.798978342147445"><ele>280.0</ele><time>2026-04-10T08:31:54.999Z</time></trkpt><trkpt lat="44.77310762088984" lon="7.799109210096073"><ele>280.0</ele><time>2026-04-10T08:31:56.999Z</time></trkpt><trkpt lat="44.77311112459608" lon="7.799237298224582"><ele>280.0</ele><time>2026-04-10T08:31:58.999Z</time></trkpt><trkpt lat="44.77311363320046" lon="7.799368625356109"><ele>280.0</ele><time>2026-04-10T08:32:00.999Z</time></trkpt><trkpt lat="44.773124325786206" lon="7.799464595232325"><ele>280.0</ele><time>2026-04-10T08:32:03.999Z</time></trkpt><trkpt lat="44.77311654449149" lon="7.799573577418482"><ele>280.0</ele><time>2026-04-10T08:32:04.999Z</time></trkpt><trkpt lat="44.773119629938954" lon="7.799671530838308"><ele>280.0</ele><time>2026-04-10T08:32:05.999Z</time></trkpt><trkpt lat="44.77312104001665" lon="7.7998026384107995"><ele>280.0</ele><time>2026-04-10T08:32:07.999Z</time></trkpt><trkpt lat="44.7731102949062" lon="7.7999280720055175"><ele>280.0</ele><time>2026-04-10T08:32:09.999Z</time></trkpt><trkpt lat="44.77311172067142" lon="7.800058381104248"><ele>280.0</ele><time>2026-04-10T08:32:11.999Z</time></trkpt><trkpt lat="44.77310588715824" lon="7.800189533386604"><ele>280.0</ele><time>2026-04-10T08:32:13.999Z</time></trkpt><trkpt lat="44.77310135248392" lon="7.800322860850273"><ele>280.0</ele><time>2026-04-10T08:32:15.999Z</time></trkpt><trkpt lat="44.7731033348913" lon="7.800450525031627"><ele>280.3333333333333</ele><time>2026-04-10T08:32:18Z</time></trkpt><trkpt lat="44.77312611866703" lon="7.8005745069029615"><ele>280.66666666666663</ele><time>2026-04-10T08:32:20Z</time></trkpt><trkpt lat="44.77315709029044" lon="7.800681364018795"><ele>281.0</ele><time>2026-04-10T08:32:22Z</time></trkpt><trkpt lat="44.77318300607472" lon="7.800771187944798"><ele>281.3333333333333</ele><time>2026-04-10T08:32:25Z</time></trkpt><trkpt lat="44.77320860735904" lon="7.800866648770191"><ele>281.6666666666667</ele><time>2026-04-10T08:32:28Z</time></trkpt><trkpt lat="44.77322449217487" lon="7.800952964008154"><ele>282.0</ele><time>2026-04-10T08:32:29Z</time></trkpt><trkpt lat="44.77326438678334" lon="7.801054553824198"><ele>282.1666666666667</ele><time>2026-04-10T08:32:31Z</time></trkpt><trkpt lat="44.7732982487527" lon="7.801171122242017"><ele>282.3333333333333</ele><time>2026-04-10T08:32:33Z</time></trkpt><trkpt lat="44.773324015770825" lon="7.801284273883536"><ele>282.5</ele><time>2026-04-10T08:32:35Z</time></trkpt><trkpt lat="44.773352363513325" lon="7.801387784061765"><ele>282.66666666666663</ele><time>2026-04-10T08:32:37Z</time></trkpt><trkpt lat="44.77338029632027" lon="7.801488252166806"><ele>282.8333333333333</ele><time>2026-04-10T08:32:39Z</time></trkpt><trkpt lat="44.773420771968674" lon="7.801578955283722"><ele>283.0</ele><time>2026-04-10T08:32:41Z</time></trkpt><trkpt lat="44.773465892926176" lon="7.801654419487324"><ele>283.8571428571429</ele><time>2026-04-10T08:32:43Z</time></trkpt><trkpt lat="44.773523793467426" lon="7.801704869628862"><ele>284.7142857142857</ele><time>2026-04-10T08:32:45Z</time></trkpt><trkpt lat="44.773581968157984" lon="7.801740308180878"><ele>285.57142857142856</ele><time>2026-04-10T08:32:47Z</time></trkpt><trkpt lat="44.773665158602185" lon="7.801758830126189"><ele>286.42857142857144</ele><time>2026-04-10T08:32:50Z</time></trkpt><trkpt lat="44.773741378601805" lon="7.801786356761582"><ele>287.2857142857143</ele><time>2026-04-10T08:32:53Z</time></trkpt><trkpt lat="44.77377502111662" lon="7.8018714481273985"><ele>288.14285714285717</ele><time>2026-04-10T08:32:56Z</time></trkpt><trkpt lat="44.77377180293516" lon="7.801987535270419"><ele>289.0</ele><time>2026-04-10T08:32:59Z</time></trkpt><trkpt lat="44.77376699784472" lon="7.802113206650552"><ele>290.16666666666663</ele><time>2026-04-10T08:33:02Z</time></trkpt><trkpt lat="44.773761508022766" lon="7.80222658729014"><ele>291.3333333333333</ele><time>2026-04-10T08:33:05Z</time></trkpt><trkpt lat="44.77376676054837" lon="7.802340369223292"><ele>292.5</ele><time>2026-04-10T08:33:08Z</time></trkpt><trkpt lat="44.77376154326084" lon="7.802445723210682"><ele>293.6666666666667</ele><time>2026-04-10T08:33:11Z</time></trkpt><trkpt lat="44.773774097309165" lon="7.802558359868121"><ele>294.83333333333337</ele><time>2026-04-10T08:33:14Z</time></trkpt><trkpt lat="44.773787325126136" lon="7.802651744149496"><ele>296.0</ele><time>2026-04-10T08:33:16.999Z</time></trkpt><trkpt lat="44.77381226883691" lon="7.802738993336814"><ele>296.2857142857143</ele><time>2026-04-10T08:33:19.999Z</time></trkpt><trkpt lat="44.77383943122877" lon="7.802820167868365"><ele>296.57142857142856</ele><time>2026-04-10T08:33:22.999Z</time></trkpt><trkpt lat="44.77388125208308" lon="7.802898215549094"><ele>296.85714285714283</ele><time>2026-04-10T08:33:26.999Z</time></trkpt><trkpt lat="44.77392952968686" lon="7.8029765257007835"><ele>297.1428571428571</ele><time>2026-04-10T08:33:30.999Z</time></trkpt><trkpt lat="44.773979863585154" lon="7.80305090331324"><ele>297.4285714285714</ele><time>2026-04-10T08:33:34.999Z</time></trkpt><trkpt lat="44.77402946915261" lon="7.803125901839443"><ele>297.7142857142857</ele><time>2026-04-10T08:33:38.999Z</time></trkpt><trkpt lat="44.77408288276824" lon="7.803202600432972"><ele>298.0</ele><time>2026-04-10T08:33:42.999Z</time></trkpt><trkpt lat="44.77413935207536" lon="7.80327305808581"><ele>298.0</ele><time>2026-04-10T08:33:46.999Z</time></trkpt><trkpt lat="44.77419099814725" lon="7.803339103715159"><ele>298.0</ele><time>2026-04-10T08:33:50.999Z</time></trkpt><trkpt lat="44.77425494928451" lon="7.803412002971292"><ele>298.0</ele><time>2026-04-10T08:33:55.999Z</time></trkpt><trkpt lat="44.77430620705752" lon="7.803467262450379"><ele>298.0</ele><time>2026-04-10T08:33:59.999Z</time></trkpt><trkpt lat="44.774367913538576" lon="7.803528162081186"><ele>298.0</ele><time>2026-04-10T08:34:04.999Z</time></trkpt><trkpt lat="44.77442224295902" lon="7.80358857268288"><ele>298.0</ele><time>2026-04-10T08:34:09.999Z</time></trkpt><trkpt lat="44.77448352664469" lon="7.803611245997374"><ele>298.0</ele><time>2026-04-10T08:34:18.999Z</time></trkpt><trkpt lat="44.77455374320707" lon="7.803618016634727"><ele>299.0</ele><time>2026-04-10T08:34:25Z</time></trkpt><trkpt lat="44.774622637678334" lon="7.8036365462064445"><ele>300.0</ele><time>2026-04-10T08:34:31Z</time></trkpt><trkpt lat="44.77468944727734" lon="7.803663277242082"><ele>301.0</ele><time>2026-04-10T08:34:39Z</time></trkpt><trkpt lat="44.77474683452854" lon="7.803712983639031"><ele>302.0</ele><time>2026-04-10T08:34:46Z</time></trkpt><trkpt lat="44.774813383241344" lon="7.803744051610607"><ele>303.0</ele><time>2026-04-10T08:34:52Z</time></trkpt><trkpt lat="44.774882973000814" lon="7.803802092454655"><ele>304.0</ele><time>2026-04-10T08:35:01Z</time></trkpt><trkpt lat="44.77495373654486" lon="7.8038395941003875"><ele>305.0</ele><time>2026-04-10T08:35:04Z</time></trkpt><trkpt lat="44.775033130629765" lon="7.803888725718179"><ele>305.0</ele><time>2026-04-10T08:35:07Z</time></trkpt><trkpt lat="44.77512120845471" lon="7.803931177990939"><ele>305.0</ele><time>2026-04-10T08:35:10Z</time></trkpt><trkpt lat="44.77518588357408" lon="7.803963360831121"><ele>305.0</ele><time>2026-04-10T08:35:12Z</time></trkpt><trkpt lat="44.77524855717853" lon="7.803992529675552"><ele>305.0</ele><time>2026-04-10T08:35:14Z</time></trkpt><trkpt lat="44.775310571243075" lon="7.804023444895675"><ele>305.0</ele><time>2026-04-10T08:35:16Z</time></trkpt><trkpt lat="44.775383127048585" lon="7.804055858675777"><ele>305.0</ele><time>2026-04-10T08:35:18Z</time></trkpt><trkpt lat="44.77545546560736" lon="7.80408851181027"><ele>305.0</ele><time>2026-04-10T08:35:20Z</time></trkpt><trkpt lat="44.775493999537524" lon="7.804164611306974"><ele>305.0</ele><time>2026-04-10T08:35:21.999Z</time></trkpt><trkpt lat="44.77547475367236" lon="7.804252447534586"><ele>305.0</ele><time>2026-04-10T08:35:23.999Z</time></trkpt><trkpt lat="44.77543587544686" lon="7.804338494562444"><ele>305.0</ele><time>2026-04-10T08:35:25.999Z</time></trkpt><trkpt lat="44.77540980497298" lon="7.804443628958453"><ele>305.0</ele><time>2026-04-10T08:35:27.999Z</time></trkpt><trkpt lat="44.775375924778444" lon="7.804548735957081"><ele>305.0</ele><time>2026-04-10T08:35:29.999Z</time></trkpt><trkpt lat="44.77534604916868" lon="7.804664628729174"><ele>305.0</ele><time>2026-04-10T08:35:31.999Z</time></trkpt><trkpt lat="44.77531615521975" lon="7.804780161182518"><ele>305.0</ele><time>2026-04-10T08:35:33.999Z</time></trkpt><trkpt lat="44.77529852398831" lon="7.804909001811711"><ele>305.0</ele><time>2026-04-10T08:35:35.999Z</time></trkpt><trkpt lat="44.77530486589465" lon="7.805025055311241"><ele>305.0</ele><time>2026-04-10T08:35:37.999Z</time></trkpt><trkpt lat="44.77532621842441" lon="7.805128384706813"><ele>305.0</ele><time>2026-04-10T08:35:39.999Z</time></trkpt><trkpt lat="44.77534398313022" lon="7.805233263926408"><ele>305.0</ele><time>2026-04-10T08:35:41.999Z</time></trkpt><trkpt lat="44.77537642511891" lon="7.805320937770628"><ele>305.0</ele><time>2026-04-10T08:35:43.999Z</time></trkpt><trkpt lat="44.775409450265364" lon="7.805414456605125"><ele>304.8</ele><time>2026-04-10T08:35:45.999Z</time></trkpt><trkpt lat="44.77542972903188" lon="7.8055070543457585"><ele>304.6</ele><time>2026-04-10T08:35:48.999Z</time></trkpt><trkpt lat="44.775453376941144" lon="7.805628004915387"><ele>304.4</ele><time>2026-04-10T08:35:51.999Z</time></trkpt><trkpt lat="44.77547525476564" lon="7.805750895173798"><ele>304.2</ele><time>2026-04-10T08:35:53.999Z</time></trkpt><trkpt lat="44.7754073905792" lon="7.805957823124597"><ele>304.0</ele><time>2026-04-10T08:36:37Z</time></trkpt><trkpt lat="44.775354379085314" lon="7.806077324223054"><ele>304.4</ele><time>2026-04-10T08:36:39Z</time></trkpt><trkpt lat="44.775308621525014" lon="7.806184423062802"><ele>304.79999999999995</ele><time>2026-04-10T08:36:41Z</time></trkpt><trkpt lat="44.77525284664495" lon="7.806291975385455"><ele>305.20000000000005</ele><time>2026-04-10T08:36:43Z</time></trkpt><trkpt lat="44.77518552147139" lon="7.806404237803554"><ele>305.6</ele><time>2026-04-10T08:36:45Z</time></trkpt><trkpt lat="44.77512028679355" lon="7.806526100503183"><ele>306.0</ele><time>2026-04-10T08:36:47Z</time></trkpt><trkpt lat="44.775060579407885" lon="7.806559981028002"><ele>306.0</ele><time>2026-04-10T08:36:48Z</time></trkpt><trkpt lat="44.774991068927385" lon="7.806690536968316"><ele>306.0</ele><time>2026-04-10T08:36:50Z</time></trkpt><trkpt lat="44.77491948558507" lon="7.80682498620629"><ele>306.0</ele><time>2026-04-10T08:36:52Z</time></trkpt><trkpt lat="44.77484956034436" lon="7.806957138063333"><ele>306.0</ele><time>2026-04-10T08:36:54Z</time></trkpt><trkpt lat="44.774775915591896" lon="7.807096423340903"><ele>306.0</ele><time>2026-04-10T08:36:56Z</time></trkpt><trkpt lat="44.77470291270169" lon="7.807234494676196"><ele>306.0</ele><time>2026-04-10T08:36:58Z</time></trkpt><trkpt lat="44.77466460749518" lon="7.80730694180051"><ele>306.0</ele><time>2026-04-10T08:36:59Z</time></trkpt><trkpt lat="44.77462781093723" lon="7.80737978170428"><ele>306.0</ele><time>2026-04-10T08:37:00Z</time></trkpt><trkpt lat="44.77459125452035" lon="7.807453104604691"><ele>306.0</ele><time>2026-04-10T08:37:01Z</time></trkpt><trkpt lat="44.774556267543026" lon="7.807526972184774"><ele>306.0</ele><time>2026-04-10T08:37:02Z</time></trkpt><trkpt lat="44.7745211526116" lon="7.807602465566824"><ele>306.0</ele><time>2026-04-10T08:37:03Z</time></trkpt><trkpt lat="44.77448581810435" lon="7.807680466231465"><ele>306.0</ele><time>2026-04-10T08:37:04Z</time></trkpt><trkpt lat="44.77445160201963" lon="7.80775599799726"><ele>306.0</ele><time>2026-04-10T08:37:05Z</time></trkpt><trkpt lat="44.77438513098077" lon="7.807902732337005"><ele>306.0</ele><time>2026-04-10T08:37:06.999Z</time></trkpt><trkpt lat="44.7743212871813" lon="7.8080436670493745"><ele>306.0</ele><time>2026-04-10T08:37:08.999Z</time></trkpt><trkpt lat="44.77425989151701" lon="7.808179197538934"><ele>306.0</ele><time>2026-04-10T08:37:10.999Z</time></trkpt><trkpt lat="44.774198889342344" lon="7.8083121724301785"><ele>306.0</ele><time>2026-04-10T08:37:12.999Z</time></trkpt><trkpt lat="44.774148023735236" lon="7.808452627058492"><ele>306.0</ele><time>2026-04-10T08:37:14.999Z</time></trkpt><trkpt lat="44.77405777271795" lon="7.808576996376361"><ele>306.0</ele><time>2026-04-10T08:37:16.999Z</time></trkpt><trkpt lat="44.77401605997634" lon="7.808643437448895"><ele>306.0</ele><time>2026-04-10T08:37:17.999Z</time></trkpt><trkpt lat="44.77396865874565" lon="7.808714382337426"><ele>306.0</ele><time>2026-04-10T08:37:18.999Z</time></trkpt><trkpt lat="44.77392489842372" lon="7.808779877919505"><ele>306.0</ele><time>2026-04-10T08:37:19.999Z</time></trkpt><trkpt lat="44.773878661721945" lon="7.80885286374755"><ele>306.0</ele><time>2026-04-10T08:37:20.999Z</time></trkpt><trkpt lat="44.7738339943872" lon="7.8089241164466765"><ele>306.0</ele><time>2026-04-10T08:37:21.999Z</time></trkpt><trkpt lat="44.773787706690435" lon="7.808997953927371"><ele>306.0</ele><time>2026-04-10T08:37:22.999Z</time></trkpt><trkpt lat="44.77374379478042" lon="7.809070698005248"><ele>306.0</ele><time>2026-04-10T08:37:23.999Z</time></trkpt><trkpt lat="44.77370077763284" lon="7.809142550823379"><ele>306.0</ele><time>2026-04-10T08:37:24.999Z</time></trkpt><trkpt lat="44.77367090163168" lon="7.809232539031767"><ele>306.0</ele><time>2026-04-10T08:37:25.999Z</time></trkpt><trkpt lat="44.77361890626501" lon="7.809294882964403"><ele>306.0</ele><time>2026-04-10T08:37:26.999Z</time></trkpt><trkpt lat="44.773581899894424" lon="7.80937454124831"><ele>306.1428571428571</ele><time>2026-04-10T08:37:27.999Z</time></trkpt><trkpt lat="44.773561752265486" lon="7.809466366852277"><ele>306.2857142857143</ele><time>2026-04-10T08:37:28.999Z</time></trkpt><trkpt lat="44.77352961570755" lon="7.809545626475645"><ele>306.42857142857144</ele><time>2026-04-10T08:37:29.999Z</time></trkpt><trkpt lat="44.77348297293293" lon="7.809618219081794"><ele>306.57142857142856</ele><time>2026-04-10T08:37:30.999Z</time></trkpt><trkpt lat="44.773451192597214" lon="7.809700739665567"><ele>306.7142857142857</ele><time>2026-04-10T08:37:31.999Z</time></trkpt><trkpt lat="44.77342099172965" lon="7.809780257752558"><ele>306.85714285714283</ele><time>2026-04-10T08:37:32.999Z</time></trkpt><trkpt lat="44.773404557040514" lon="7.809870164650804"><ele>307.0</ele><time>2026-04-10T08:37:33.999Z</time></trkpt><trkpt lat="44.77337181474711" lon="7.809948513117836"><ele>307.3333333333333</ele><time>2026-04-10T08:37:34.999Z</time></trkpt><trkpt lat="44.77334265960622" lon="7.810027368232608"><ele>307.66666666666663</ele><time>2026-04-10T08:37:35.999Z</time></trkpt><trkpt lat="44.77329750714595" lon="7.810094591914356"><ele>308.0</ele><time>2026-04-10T08:37:36.999Z</time></trkpt><trkpt lat="44.77326559626375" lon="7.810172984109029"><ele>308.3333333333333</ele><time>2026-04-10T08:37:37.999Z</time></trkpt><trkpt lat="44.7732063911197" lon="7.8103204923050376"><ele>308.6666666666667</ele><time>2026-04-10T08:37:39.999Z</time></trkpt><trkpt lat="44.77315212844732" lon="7.810456804752402"><ele>309.0</ele><time>2026-04-10T08:37:41.999Z</time></trkpt><trkpt lat="44.773097357657534" lon="7.810596495331389"><ele>309.0</ele><time>2026-04-10T08:37:43.999Z</time></trkpt><trkpt lat="44.77304655662264" lon="7.810731899636869"><ele>309.0</ele><time>2026-04-10T08:37:45.999Z</time></trkpt><trkpt lat="44.77299842222657" lon="7.810865387490265"><ele>309.0</ele><time>2026-04-10T08:37:47.999Z</time></trkpt><trkpt lat="44.772951856912755" lon="7.810996516223161"><ele>309.0</ele><time>2026-04-10T08:37:49.999Z</time></trkpt><trkpt lat="44.77290863589291" lon="7.811123174231309"><ele>309.0</ele><time>2026-04-10T08:37:51.999Z</time></trkpt><trkpt lat="44.772869508490665" lon="7.811246168663475"><ele>308.8</ele><time>2026-04-10T08:37:53.999Z</time></trkpt><trkpt lat="44.77282964162755" lon="7.811362945196608"><ele>308.59999999999997</ele><time>2026-04-10T08:37:55.999Z</time></trkpt><trkpt lat="44.77279111075117" lon="7.811473928313919"><ele>308.4</ele><time>2026-04-10T08:37:57.999Z</time></trkpt><trkpt lat="44.77275085171096" lon="7.8115898891602455"><ele>308.2</ele><time>2026-04-10T08:37:59.999Z</time></trkpt><trkpt lat="44.77270762047473" lon="7.811707100707013"><ele>308.0</ele><time>2026-04-10T08:38:01.999Z</time></trkpt><trkpt lat="44.7726536947627" lon="7.81181538515604"><ele>308.4</ele><time>2026-04-10T08:38:03.999Z</time></trkpt><trkpt lat="44.772587700463816" lon="7.811911938641582"><ele>308.8</ele><time>2026-04-10T08:38:05.999Z</time></trkpt><trkpt lat="44.772512444049966" lon="7.812005640092149"><ele>309.2</ele><time>2026-04-10T08:38:07.999Z</time></trkpt><trkpt lat="44.77243696223373" lon="7.812090478488338"><ele>309.6</ele><time>2026-04-10T08:38:09.999Z</time></trkpt><trkpt lat="44.7723763511225" lon="7.81215700424464"><ele>310.0</ele><time>2026-04-10T08:38:11.999Z</time></trkpt><trkpt lat="44.77224359432831" lon="7.812297330141456"><ele>310.0</ele><time>2026-04-10T08:38:14.999Z</time></trkpt><trkpt lat="44.7721601357727" lon="7.812385206763642"><ele>310.0</ele><time>2026-04-10T08:38:16.999Z</time></trkpt><trkpt lat="44.77208255812529" lon="7.812466290743867"><ele>310.0</ele><time>2026-04-10T08:38:18.999Z</time></trkpt><trkpt lat="44.772005174646196" lon="7.81255331163857"><ele>310.0</ele><time>2026-04-10T08:38:20.999Z</time></trkpt><trkpt lat="44.771927707390496" lon="7.812661429333577"><ele>310.0</ele><time>2026-04-10T08:38:22.999Z</time></trkpt><trkpt lat="44.771853200510336" lon="7.812779173951366"><ele>310.6</ele><time>2026-04-10T08:38:24.999Z</time></trkpt><trkpt lat="44.77181850446377" lon="7.812853195088839"><ele>311.2</ele><time>2026-04-10T08:38:25.999Z</time></trkpt><trkpt lat="44.771767198819944" lon="7.813012070650387"><ele>311.8</ele><time>2026-04-10T08:38:27.999Z</time></trkpt><trkpt lat="44.77173160560154" lon="7.813169654322899"><ele>312.4</ele><time>2026-04-10T08:38:29.999Z</time></trkpt><trkpt lat="44.77170305961354" lon="7.813337924940301"><ele>313.0</ele><time>2026-04-10T08:38:31.999Z</time></trkpt><trkpt lat="44.7716807405486" lon="7.813503357704144"><ele>313.0</ele><time>2026-04-10T08:38:33.999Z</time></trkpt><trkpt lat="44.77166094678574" lon="7.813670782646919"><ele>313.0</ele><time>2026-04-10T08:38:36Z</time></trkpt><trkpt lat="44.77165186487952" lon="7.81383995459585"><ele>313.0</ele><time>2026-04-10T08:38:38Z</time></trkpt><trkpt lat="44.77166251890639" lon="7.81401036655287"><ele>313.0</ele><time>2026-04-10T08:38:40Z</time></trkpt><trkpt lat="44.77169112635349" lon="7.814169684062928"><ele>313.0</ele><time>2026-04-10T08:38:42Z</time></trkpt><trkpt lat="44.771752274646055" lon="7.814316458888169"><ele>313.0</ele><time>2026-04-10T08:38:44Z</time></trkpt><trkpt lat="44.77180709462864" lon="7.814456489920458"><ele>313.0</ele><time>2026-04-10T08:38:46Z</time></trkpt><trkpt lat="44.771847486574075" lon="7.814594911369936"><ele>313.0</ele><time>2026-04-10T08:38:48Z</time></trkpt><trkpt lat="44.771875891598306" lon="7.814734406681137"><ele>313.0</ele><time>2026-04-10T08:38:50Z</time></trkpt><trkpt lat="44.77189360587232" lon="7.814873874791756"><ele>313.16666666666663</ele><time>2026-04-10T08:38:52Z</time></trkpt><trkpt lat="44.7718436416961" lon="7.814988100923209"><ele>313.3333333333333</ele><time>2026-04-10T08:38:54Z</time></trkpt><trkpt lat="44.771790613436394" lon="7.815080743805792"><ele>313.5</ele><time>2026-04-10T08:38:56Z</time></trkpt><trkpt lat="44.77172207569604" lon="7.815157531936961"><ele>313.6666666666667</ele><time>2026-04-10T08:38:58Z</time></trkpt><trkpt lat="44.77165136406083" lon="7.815215066449353"><ele>313.83333333333337</ele><time>2026-04-10T08:39:00Z</time></trkpt><trkpt lat="44.77157848852929" lon="7.815283674349084"><ele>314.0</ele><time>2026-04-10T08:39:02Z</time></trkpt><trkpt lat="44.77150793727597" lon="7.815350094078953"><ele>314.1666666666667</ele><time>2026-04-10T08:39:04Z</time></trkpt><trkpt lat="44.771433652405676" lon="7.815418772358185"><ele>314.33333333333337</ele><time>2026-04-10T08:39:06Z</time></trkpt><trkpt lat="44.77135993187444" lon="7.815484883036694"><ele>314.5</ele><time>2026-04-10T08:39:08Z</time></trkpt><trkpt lat="44.77128464837669" lon="7.815552866405596"><ele>314.6666666666667</ele><time>2026-04-10T08:39:10Z</time></trkpt><trkpt lat="44.77121123809341" lon="7.815624498441863"><ele>314.8333333333333</ele><time>2026-04-10T08:39:12Z</time></trkpt><trkpt lat="44.77113499208056" lon="7.815701654179153"><ele>315.0</ele><time>2026-04-10T08:39:14Z</time></trkpt><trkpt lat="44.77105825317262" lon="7.815785186780818"><ele>315.2</ele><time>2026-04-10T08:39:16Z</time></trkpt><trkpt lat="44.77099984078483" lon="7.815895691278304"><ele>315.4</ele><time>2026-04-10T08:39:18Z</time></trkpt><trkpt lat="44.77093075021776" lon="7.815987010051818"><ele>315.6</ele><time>2026-04-10T08:39:20Z</time></trkpt><trkpt lat="44.77089751350939" lon="7.816127379558007"><ele>315.8</ele><time>2026-04-10T08:39:22Z</time></trkpt><trkpt lat="44.77086385325955" lon="7.816285200053075"><ele>316.0</ele><time>2026-04-10T08:39:24Z</time></trkpt><trkpt lat="44.77090911719257" lon="7.816439687513879"><ele>316.25</ele><time>2026-04-10T08:39:25.999Z</time></trkpt><trkpt lat="44.77093553776191" lon="7.816594386325612"><ele>316.5</ele><time>2026-04-10T08:39:27.999Z</time></trkpt><trkpt lat="44.770979304805564" lon="7.8167420748440275"><ele>316.75</ele><time>2026-04-10T08:39:29.999Z</time></trkpt><trkpt lat="44.77103274572648" lon="7.816893607999811"><ele>317.0</ele><time>2026-04-10T08:39:31.999Z</time></trkpt><trkpt lat="44.7710875087833" lon="7.817047954026956"><ele>316.25</ele><time>2026-04-10T08:39:33.999Z</time></trkpt><trkpt lat="44.771147672325604" lon="7.817197606978727"><ele>315.5</ele><time>2026-04-10T08:39:35.999Z</time></trkpt><trkpt lat="44.77121408849839" lon="7.817341488268966"><ele>314.75</ele><time>2026-04-10T08:39:37.999Z</time></trkpt><trkpt lat="44.77127918794021" lon="7.817479769550005"><ele>314.0</ele><time>2026-04-10T08:39:39.999Z</time></trkpt><trkpt lat="44.77134246414746" lon="7.817614177975541"><ele>314.4</ele><time>2026-04-10T08:39:41.999Z</time></trkpt><trkpt lat="44.7714057616491" lon="7.817748631643687"><ele>314.79999999999995</ele><time>2026-04-10T08:39:43.999Z</time></trkpt><trkpt lat="44.77146591993988" lon="7.817880736128292"><ele>315.20000000000005</ele><time>2026-04-10T08:39:45.999Z</time></trkpt><trkpt lat="44.77152519329487" lon="7.818012961268116"><ele>315.6</ele><time>2026-04-10T08:39:47.999Z</time></trkpt><trkpt lat="44.771577601051455" lon="7.818150674111712"><ele>316.0</ele><time>2026-04-10T08:39:49.999Z</time></trkpt><trkpt lat="44.7716196302757" lon="7.818292957101536"><ele>316.0</ele><time>2026-04-10T08:39:51.999Z</time></trkpt><trkpt lat="44.77165401244417" lon="7.818440645637517"><ele>316.0</ele><time>2026-04-10T08:39:53.999Z</time></trkpt><trkpt lat="44.771686474586744" lon="7.818592280180267"><ele>316.0</ele><time>2026-04-10T08:39:55.999Z</time></trkpt><trkpt lat="44.771718287705866" lon="7.818741475348886"><ele>316.0</ele><time>2026-04-10T08:39:57.999Z</time></trkpt><trkpt lat="44.77175009112068" lon="7.818892583996897"><ele>316.0</ele><time>2026-04-10T08:39:59.999Z</time></trkpt><trkpt lat="44.77178110268299" lon="7.819045937831635"><ele>316.40000000000003</ele><time>2026-04-10T08:40:01.999Z</time></trkpt><trkpt lat="44.77181097815766" lon="7.8191936736962955"><ele>316.8</ele><time>2026-04-10T08:40:03.999Z</time></trkpt><trkpt lat="44.77184320122803" lon="7.819345311419043"><ele>317.20000000000005</ele><time>2026-04-10T08:40:05.999Z</time></trkpt><trkpt lat="44.77187576100116" lon="7.819493016716777"><ele>317.6</ele><time>2026-04-10T08:40:07.999Z</time></trkpt><trkpt lat="44.77190725616113" lon="7.819633849750017"><ele>318.0</ele><time>2026-04-10T08:40:09.999Z</time></trkpt><trkpt lat="44.771937121768076" lon="7.8197738854052545"><ele>318.8</ele><time>2026-04-10T08:40:11.999Z</time></trkpt><trkpt lat="44.771967512656666" lon="7.819916384042163"><ele>319.6</ele><time>2026-04-10T08:40:13.999Z</time></trkpt><trkpt lat="44.77199936312826" lon="7.8200519570572435"><ele>320.40000000000003</ele><time>2026-04-10T08:40:15.999Z</time></trkpt><trkpt lat="44.77202485566485" lon="7.8201856351648"><ele>321.20000000000005</ele><time>2026-04-10T08:40:17.999Z</time></trkpt><trkpt lat="44.772037911850504" lon="7.8203133662552355"><ele>322.0</ele><time>2026-04-10T08:40:19.999Z</time></trkpt><trkpt lat="44.772027598996615" lon="7.820443467937483"><ele>322.0</ele><time>2026-04-10T08:40:21.999Z</time></trkpt><trkpt lat="44.771988169134836" lon="7.82055820005101"><ele>322.0</ele><time>2026-04-10T08:40:23.999Z</time></trkpt><trkpt lat="44.77189941430071" lon="7.820625744917588"><ele>322.0</ele><time>2026-04-10T08:40:25.999Z</time></trkpt><trkpt lat="44.77181455597581" lon="7.820672936066933"><ele>322.0</ele><time>2026-04-10T08:40:27.999Z</time></trkpt><trkpt lat="44.77172770565706" lon="7.820717291338678"><ele>322.0</ele><time>2026-04-10T08:40:29.999Z</time></trkpt><trkpt lat="44.77165304095116" lon="7.8207885471452565"><ele>322.0</ele><time>2026-04-10T08:40:31.999Z</time></trkpt><trkpt lat="44.77159286480091" lon="7.8208750247937004"><ele>322.0</ele><time>2026-04-10T08:40:33.999Z</time></trkpt><trkpt lat="44.771558260557704" lon="7.820983169672768"><ele>322.0</ele><time>2026-04-10T08:40:35.999Z</time></trkpt><trkpt lat="44.771544426427894" lon="7.821096217234261"><ele>322.0</ele><time>2026-04-10T08:40:37.999Z</time></trkpt><trkpt lat="44.77154739678931" lon="7.82120775770594"><ele>322.0</ele><time>2026-04-10T08:40:39.999Z</time></trkpt><trkpt lat="44.77156057485531" lon="7.821322659106071"><ele>322.0</ele><time>2026-04-10T08:40:42Z</time></trkpt><trkpt lat="44.77157407555978" lon="7.82144813635681"><ele>322.0</ele><time>2026-04-10T08:40:44Z</time></trkpt><trkpt lat="44.771589128335535" lon="7.821587262241533"><ele>322.0</ele><time>2026-04-10T08:40:46Z</time></trkpt><trkpt lat="44.77160765222247" lon="7.821741687782005"><ele>322.0</ele><time>2026-04-10T08:40:48Z</time></trkpt><trkpt lat="44.77160619293754" lon="7.821912814552961"><ele>322.0</ele><time>2026-04-10T08:40:50Z</time></trkpt><trkpt lat="44.771628286572195" lon="7.822086419803063"><ele>321.85714285714283</ele><time>2026-04-10T08:40:52Z</time></trkpt><trkpt lat="44.77163976440386" lon="7.822176609210591"><ele>321.7142857142857</ele><time>2026-04-10T08:40:53Z</time></trkpt><trkpt lat="44.7716514458494" lon="7.822268259899989"><ele>321.57142857142856</ele><time>2026-04-10T08:40:54Z</time></trkpt><trkpt lat="44.771662178293624" lon="7.822363369315693"><ele>321.42857142857144</ele><time>2026-04-10T08:40:55Z</time></trkpt><trkpt lat="44.771673362445156" lon="7.822462481739658"><ele>321.2857142857143</ele><time>2026-04-10T08:40:56Z</time></trkpt><trkpt lat="44.771683843678225" lon="7.822555364970721"><ele>321.1428571428571</ele><time>2026-04-10T08:40:57Z</time></trkpt><trkpt lat="44.77169263408132" lon="7.822653509800937"><ele>321.0</ele><time>2026-04-10T08:40:58Z</time></trkpt><trkpt lat="44.77170129167633" lon="7.822752641805374"><ele>321.4285714285714</ele><time>2026-04-10T08:40:59Z</time></trkpt><trkpt lat="44.7717080647644" lon="7.822849843151175"><ele>321.85714285714283</ele><time>2026-04-10T08:41:00Z</time></trkpt><trkpt lat="44.77171268094674" lon="7.8229477122340425"><ele>322.2857142857143</ele><time>2026-04-10T08:41:01Z</time></trkpt><trkpt lat="44.7717156227137" lon="7.823043843694007"><ele>322.71428571428567</ele><time>2026-04-10T08:41:02Z</time></trkpt><trkpt lat="44.771714430517015" lon="7.82313873530769"><ele>323.1428571428571</ele><time>2026-04-10T08:41:03Z</time></trkpt><trkpt lat="44.771706288848875" lon="7.823230888234575"><ele>323.57142857142856</ele><time>2026-04-10T08:41:04Z</time></trkpt><trkpt lat="44.77169204303697" lon="7.823317589558928"><ele>324.0</ele><time>2026-04-10T08:41:05Z</time></trkpt><trkpt lat="44.77167349422211" lon="7.823408699959462"><ele>323.8333333333333</ele><time>2026-04-10T08:41:06Z</time></trkpt><trkpt lat="44.771654581432244" lon="7.823496932061621"><ele>323.6666666666667</ele><time>2026-04-10T08:41:07Z</time></trkpt><trkpt lat="44.7716358511312" lon="7.8235843128100395"><ele>323.5</ele><time>2026-04-10T08:41:08Z</time></trkpt><trkpt lat="44.77161863876485" lon="7.823673324429562"><ele>323.33333333333337</ele><time>2026-04-10T08:41:09Z</time></trkpt><trkpt lat="44.77158712451197" lon="7.823844373496236"><ele>323.1666666666667</ele><time>2026-04-10T08:41:11Z</time></trkpt><trkpt lat="44.77155438740354" lon="7.8240042262033285"><ele>323.0</ele><time>2026-04-10T08:41:13Z</time></trkpt><trkpt lat="44.77151036504418" lon="7.8241585106413"><ele>323.0</ele><time>2026-04-10T08:41:15Z</time></trkpt><trkpt lat="44.77145927855942" lon="7.82431138205684"><ele>323.0</ele><time>2026-04-10T08:41:17Z</time></trkpt><trkpt lat="44.771402391057215" lon="7.824462503253419"><ele>323.0</ele><time>2026-04-10T08:41:19Z</time></trkpt><trkpt lat="44.77133931940614" lon="7.8246117541858125"><ele>323.0</ele><time>2026-04-10T08:41:21Z</time></trkpt><trkpt lat="44.771272078930224" lon="7.82475819698286"><ele>323.0</ele><time>2026-04-10T08:41:23Z</time></trkpt><trkpt lat="44.771201115176304" lon="7.824895253501228"><ele>323.0</ele><time>2026-04-10T08:41:25Z</time></trkpt><trkpt lat="44.77112477033201" lon="7.82503134643855"><ele>323.0</ele><time>2026-04-10T08:41:27Z</time></trkpt><trkpt lat="44.7710560688604" lon="7.825172453605717"><ele>323.0</ele><time>2026-04-10T08:41:29Z</time></trkpt><trkpt lat="44.77099443449773" lon="7.825314863299347"><ele>323.59999999999997</ele><time>2026-04-10T08:41:31Z</time></trkpt><trkpt lat="44.77094974000506" lon="7.825450087592765"><ele>324.2</ele><time>2026-04-10T08:41:33Z</time></trkpt><trkpt lat="44.77090196464513" lon="7.825579375154331"><ele>324.8</ele><time>2026-04-10T08:41:35Z</time></trkpt><trkpt lat="44.770852117498094" lon="7.8257024981662955"><ele>325.4</ele><time>2026-04-10T08:41:37Z</time></trkpt><trkpt lat="44.770772170126925" lon="7.8257869742885955"><ele>326.0</ele><time>2026-04-10T08:41:39Z</time></trkpt><trkpt lat="44.7707151826753" lon="7.825851349327227"><ele>326.0</ele><time>2026-04-10T08:41:41Z</time></trkpt><trkpt lat="44.7706501866827" lon="7.825861804754972"><ele>326.0</ele><time>2026-04-10T08:41:42Z</time></trkpt><trkpt lat="44.77055720202029" lon="7.825896744095734"><ele>326.0</ele><time>2026-04-10T08:41:44Z</time></trkpt><trkpt lat="44.77046174914384" lon="7.825919235940912"><ele>326.0</ele><time>2026-04-10T08:41:46Z</time></trkpt><trkpt lat="44.77029871219371" lon="7.825952545850601"><ele>326.0</ele><time>2026-04-10T08:41:49Z</time></trkpt><trkpt lat="44.77019399714605" lon="7.82597212826256"><ele>326.6</ele><time>2026-04-10T08:41:50.999Z</time></trkpt><trkpt lat="44.770088088539424" lon="7.825992788642644"><ele>327.20000000000005</ele><time>2026-04-10T08:41:52.999Z</time></trkpt><trkpt lat="44.76997827561809" lon="7.826015347020055"><ele>327.79999999999995</ele><time>2026-04-10T08:41:54.999Z</time></trkpt><trkpt lat="44.76987002533419" lon="7.826037584389812"><ele>328.4</ele><time>2026-04-10T08:41:56.999Z</time></trkpt><trkpt lat="44.76976450328149" lon="7.826059261311444"><ele>329.0</ele><time>2026-04-10T08:41:58.999Z</time></trkpt><trkpt lat="44.76965673763237" lon="7.826080716242339"><ele>329.0</ele><time>2026-04-10T08:42:00.999Z</time></trkpt><trkpt lat="44.76955331128264" lon="7.8260985575588835"><ele>329.0</ele><time>2026-04-10T08:42:02.999Z</time></trkpt><trkpt lat="44.76944505814095" lon="7.826116422006312"><ele>329.0</ele><time>2026-04-10T08:42:04.999Z</time></trkpt><trkpt lat="44.769339303258796" lon="7.826132296387575"><ele>329.0</ele><time>2026-04-10T08:42:06.999Z</time></trkpt><trkpt lat="44.76922981887305" lon="7.826152861982187"><ele>329.0</ele><time>2026-04-10T08:42:08.999Z</time></trkpt><trkpt lat="44.76911783165045" lon="7.826180683370803"><ele>329.2</ele><time>2026-04-10T08:42:10.999Z</time></trkpt><trkpt lat="44.76901689893318" lon="7.826212485303465"><ele>329.4</ele><time>2026-04-10T08:42:12.999Z</time></trkpt><trkpt lat="44.76892224999504" lon="7.826292458030111"><ele>329.6</ele><time>2026-04-10T08:42:14.999Z</time></trkpt><trkpt lat="44.768868851794785" lon="7.826428367503689"><ele>329.8</ele><time>2026-04-10T08:42:16.999Z</time></trkpt><trkpt lat="44.76888135329246" lon="7.826527464889155"><ele>330.0</ele><time>2026-04-10T08:42:17.999Z</time></trkpt><trkpt lat="44.768928211578775" lon="7.826672517528616"><ele>330.0</ele><time>2026-04-10T08:42:19.999Z</time></trkpt><trkpt lat="44.768989197782275" lon="7.826775626682438"><ele>330.0</ele><time>2026-04-10T08:42:21.999Z</time></trkpt><trkpt lat="44.769042853342604" lon="7.826883418417969"><ele>330.0</ele><time>2026-04-10T08:42:23.999Z</time></trkpt><trkpt lat="44.76909376862936" lon="7.826997095625106"><ele>330.0</ele><time>2026-04-10T08:42:25.999Z</time></trkpt><trkpt lat="44.769138796004604" lon="7.827114638549524"><ele>330.0</ele><time>2026-04-10T08:42:27.999Z</time></trkpt><trkpt lat="44.76919070569837" lon="7.827233447782954"><ele>330.0</ele><time>2026-04-10T08:42:29.999Z</time></trkpt><trkpt lat="44.76920341081746" lon="7.827365485372372"><ele>330.0</ele><time>2026-04-10T08:42:31.999Z</time></trkpt><trkpt lat="44.76922158268919" lon="7.827488247188225"><ele>330.0</ele><time>2026-04-10T08:42:33.999Z</time></trkpt><trkpt lat="44.76923625927738" lon="7.827603421696308"><ele>330.0</ele><time>2026-04-10T08:42:35.999Z</time></trkpt><trkpt lat="44.76925131001004" lon="7.827721532320203"><ele>330.0</ele><time>2026-04-10T08:42:37.999Z</time></trkpt><trkpt lat="44.76926453377584" lon="7.827836495508865"><ele>330.0</ele><time>2026-04-10T08:42:39.999Z</time></trkpt><trkpt lat="44.76927991309487" lon="7.827967941595594"><ele>330.0</ele><time>2026-04-10T08:42:41.999Z</time></trkpt><trkpt lat="44.76929840267606" lon="7.82811458976674"><ele>330.0</ele><time>2026-04-10T08:42:43.999Z</time></trkpt><trkpt lat="44.76932400044607" lon="7.8282779506998725"><ele>330.0</ele><time>2026-04-10T08:42:45.999Z</time></trkpt><trkpt lat="44.76935373770424" lon="7.828441082560062"><ele>330.0</ele><time>2026-04-10T08:42:48Z</time></trkpt><trkpt lat="44.76938509292739" lon="7.828605619105324"><ele>329.7142857142857</ele><time>2026-04-10T08:42:50Z</time></trkpt><trkpt lat="44.76941708060685" lon="7.828772313053575"><ele>329.42857142857144</ele><time>2026-04-10T08:42:52Z</time></trkpt><trkpt lat="44.76943457815615" lon="7.828860591284481"><ele>329.1428571428571</ele><time>2026-04-10T08:42:53Z</time></trkpt><trkpt lat="44.76945157510346" lon="7.82894634389996"><ele>328.8571428571429</ele><time>2026-04-10T08:42:54Z</time></trkpt><trkpt lat="44.7694688489071" lon="7.829033493293239"><ele>328.57142857142856</ele><time>2026-04-10T08:42:55Z</time></trkpt><trkpt lat="44.76948578427245" lon="7.829118935213916"><ele>328.2857142857143</ele><time>2026-04-10T08:42:56Z</time></trkpt><trkpt lat="44.76950238782673" lon="7.829206437267605"><ele>328.0</ele><time>2026-04-10T08:42:57Z</time></trkpt><trkpt lat="44.76953293940216" lon="7.829376573572579"><ele>328.0</ele><time>2026-04-10T08:42:59Z</time></trkpt><trkpt lat="44.76955956418056" lon="7.829541009358917"><ele>328.0</ele><time>2026-04-10T08:43:01Z</time></trkpt><trkpt lat="44.76958563923192" lon="7.8297079658228785"><ele>328.0</ele><time>2026-04-10T08:43:03Z</time></trkpt><trkpt lat="44.769610420887965" lon="7.8298666407801045"><ele>328.0</ele><time>2026-04-10T08:43:05Z</time></trkpt><trkpt lat="44.76963129690839" lon="7.830021074551929"><ele>328.4</ele><time>2026-04-10T08:43:07Z</time></trkpt><trkpt lat="44.769652788685235" lon="7.830184418940211"><ele>328.79999999999995</ele><time>2026-04-10T08:43:09Z</time></trkpt><trkpt lat="44.76966316709638" lon="7.830338895695354"><ele>329.2</ele><time>2026-04-10T08:43:11Z</time></trkpt><trkpt lat="44.769650178892135" lon="7.830487500559386"><ele>329.6</ele><time>2026-04-10T08:43:13Z</time></trkpt><trkpt lat="44.7695980964021" lon="7.830605736240287"><ele>330.0</ele><time>2026-04-10T08:43:15Z</time></trkpt><trkpt lat="44.769527284171524" lon="7.830689753468132"><ele>330.0</ele><time>2026-04-10T08:43:17Z</time></trkpt><trkpt lat="44.76943789162841" lon="7.830749754022904"><ele>330.0</ele><time>2026-04-10T08:43:19Z</time></trkpt><trkpt lat="44.76936383561945" lon="7.830833141114306"><ele>330.0</ele><time>2026-04-10T08:43:21Z</time></trkpt><trkpt lat="44.76925654207856" lon="7.8308388986786"><ele>330.0</ele><time>2026-04-10T08:43:23Z</time></trkpt><trkpt lat="44.769169578343615" lon="7.830889716596258"><ele>330.0</ele><time>2026-04-10T08:43:25Z</time></trkpt><trkpt lat="44.7690806845831" lon="7.8309422252894825"><ele>329.8</ele><time>2026-04-10T08:43:27Z</time></trkpt><trkpt lat="44.768992929036585" lon="7.830996350389288"><ele>329.6</ele><time>2026-04-10T08:43:29Z</time></trkpt><trkpt lat="44.76890606452831" lon="7.831049925915218"><ele>329.4</ele><time>2026-04-10T08:43:31Z</time></trkpt><trkpt lat="44.768817660646334" lon="7.831104450885723"><ele>329.2</ele><time>2026-04-10T08:43:33Z</time></trkpt><trkpt lat="44.768732421285094" lon="7.831157024067"><ele>329.0</ele><time>2026-04-10T08:43:35Z</time></trkpt><trkpt lat="44.76864433404803" lon="7.831213616893297"><ele>329.0</ele><time>2026-04-10T08:43:37Z</time></trkpt><trkpt lat="44.76855416215967" lon="7.831273108434884"><ele>329.0</ele><time>2026-04-10T08:43:39Z</time></trkpt><trkpt lat="44.76847041851733" lon="7.831330454155715"><ele>329.0</ele><time>2026-04-10T08:43:41Z</time></trkpt><trkpt lat="44.76838447240965" lon="7.831390748184291"><ele>329.0</ele><time>2026-04-10T08:43:43Z</time></trkpt><trkpt lat="44.76829524254713" lon="7.831453345871065"><ele>329.0</ele><time>2026-04-10T08:43:45Z</time></trkpt><trkpt lat="44.768209192240946" lon="7.831518168156277"><ele>329.4</ele><time>2026-04-10T08:43:47Z</time></trkpt><trkpt lat="44.768124641752216" lon="7.831586987524673"><ele>329.79999999999995</ele><time>2026-04-10T08:43:49Z</time></trkpt><trkpt lat="44.76804347816667" lon="7.83166040173957"><ele>330.20000000000005</ele><time>2026-04-10T08:43:51Z</time></trkpt><trkpt lat="44.767983422282484" lon="7.831771225302549"><ele>330.6</ele><time>2026-04-10T08:43:53Z</time></trkpt><trkpt lat="44.76791187052708" lon="7.831858612847217"><ele>331.0</ele><time>2026-04-10T08:43:55Z</time></trkpt><trkpt lat="44.76784651337969" lon="7.831954502154383"><ele>331.0</ele><time>2026-04-10T08:43:57Z</time></trkpt><trkpt lat="44.76777443280526" lon="7.832041953774392"><ele>331.0</ele><time>2026-04-10T08:43:58.999Z</time></trkpt><trkpt lat="44.76770966901605" lon="7.832129521253084"><ele>331.0</ele><time>2026-04-10T08:44:00.999Z</time></trkpt><trkpt lat="44.76764538510332" lon="7.832223556618238"><ele>331.0</ele><time>2026-04-10T08:44:02.999Z</time></trkpt><trkpt lat="44.767584655959055" lon="7.832321881596323"><ele>331.0</ele><time>2026-04-10T08:44:04.999Z</time></trkpt><trkpt lat="44.76752765483118" lon="7.83241861975273"><ele>331.4</ele><time>2026-04-10T08:44:06.999Z</time></trkpt><trkpt lat="44.767462359054676" lon="7.832511367075975"><ele>331.8</ele><time>2026-04-10T08:44:08.999Z</time></trkpt><trkpt lat="44.76740059519347" lon="7.832613624203614"><ele>332.2</ele><time>2026-04-10T08:44:10.999Z</time></trkpt><trkpt lat="44.76733836041253" lon="7.832714610409317"><ele>332.59999999999997</ele><time>2026-04-10T08:44:12.999Z</time></trkpt><trkpt lat="44.767284809393885" lon="7.832833592838922"><ele>333.0</ele><time>2026-04-10T08:44:14.999Z</time></trkpt><trkpt lat="44.76724285310131" lon="7.832962622806968"><ele>333.2</ele><time>2026-04-10T08:44:16.999Z</time></trkpt><trkpt lat="44.76724239990246" lon="7.833115059126446"><ele>333.4</ele><time>2026-04-10T08:44:18.999Z</time></trkpt><trkpt lat="44.7672472115677" lon="7.833266877816746"><ele>333.59999999999997</ele><time>2026-04-10T08:44:20.999Z</time></trkpt><trkpt lat="44.767267803360006" lon="7.833409094441881"><ele>333.79999999999995</ele><time>2026-04-10T08:44:22.999Z</time></trkpt><trkpt lat="44.767280879352" lon="7.833555546218629"><ele>334.0</ele><time>2026-04-10T08:44:24.999Z</time></trkpt><trkpt lat="44.76728746509202" lon="7.833703138082394"><ele>334.6</ele><time>2026-04-10T08:44:26.999Z</time></trkpt><trkpt lat="44.76729032566547" lon="7.833851364426788"><ele>335.2</ele><time>2026-04-10T08:44:28.999Z</time></trkpt><trkpt lat="44.767287974261606" lon="7.833993971808852"><ele>335.8</ele><time>2026-04-10T08:44:30.999Z</time></trkpt><trkpt lat="44.76728173524321" lon="7.834142061441269"><ele>336.40000000000003</ele><time>2026-04-10T08:44:32.999Z</time></trkpt><trkpt lat="44.76727413712949" lon="7.834280315243719"><ele>337.0</ele><time>2026-04-10T08:44:34.999Z</time></trkpt><trkpt lat="44.76726573072169" lon="7.834423352814004"><ele>337.0</ele><time>2026-04-10T08:44:36.999Z</time></trkpt><trkpt lat="44.76725677462904" lon="7.834560783865434"><ele>337.0</ele><time>2026-04-10T08:44:38.999Z</time></trkpt><trkpt lat="44.7672476503366" lon="7.8347007959262145"><ele>337.0</ele><time>2026-04-10T08:44:40.999Z</time></trkpt><trkpt lat="44.76723724020552" lon="7.834838461723964"><ele>337.0</ele><time>2026-04-10T08:44:42.999Z</time></trkpt><trkpt lat="44.767226818054986" lon="7.834973091033713"><ele>337.0</ele><time>2026-04-10T08:44:44.999Z</time></trkpt><trkpt lat="44.767216454902005" lon="7.835106958244657"><ele>337.0</ele><time>2026-04-10T08:44:46.999Z</time></trkpt><trkpt lat="44.76723703697635" lon="7.835247913376574"><ele>337.0</ele><time>2026-04-10T08:44:48.999Z</time></trkpt><trkpt lat="44.7671933782819" lon="7.835390452463983"><ele>337.0</ele><time>2026-04-10T08:44:50.999Z</time></trkpt><trkpt lat="44.767181465312305" lon="7.835534556331708"><ele>337.0</ele><time>2026-04-10T08:44:53Z</time></trkpt><trkpt lat="44.76716858795177" lon="7.835690325855669"><ele>337.0</ele><time>2026-04-10T08:44:55Z</time></trkpt><trkpt lat="44.76715613975247" lon="7.835840904072019"><ele>337.0</ele><time>2026-04-10T08:44:57Z</time></trkpt><trkpt lat="44.76714331652277" lon="7.835981183496049"><ele>337.0</ele><time>2026-04-10T08:44:59Z</time></trkpt><trkpt lat="44.76713995840714" lon="7.83613225051381"><ele>337.0</ele><time>2026-04-10T08:45:01Z</time></trkpt><trkpt lat="44.76711351778142" lon="7.83627267280981"><ele>337.0</ele><time>2026-04-10T08:45:03Z</time></trkpt><trkpt lat="44.76710365663597" lon="7.8364191780559995"><ele>337.0</ele><time>2026-04-10T08:45:05Z</time></trkpt><trkpt lat="44.7670974945786" lon="7.8365628952191475"><ele>337.0</ele><time>2026-04-10T08:45:07Z</time></trkpt><trkpt lat="44.767109616544474" lon="7.836706723195971"><ele>337.0</ele><time>2026-04-10T08:45:09Z</time></trkpt><trkpt lat="44.767114218830294" lon="7.836843168674133"><ele>337.0</ele><time>2026-04-10T08:45:11Z</time></trkpt><trkpt lat="44.767143294216574" lon="7.83696304084744"><ele>337.0</ele><time>2026-04-10T08:45:13Z</time></trkpt><trkpt lat="44.76716921195748" lon="7.837091835362133"><ele>337.0</ele><time>2026-04-10T08:45:15Z</time></trkpt><trkpt lat="44.76721838438266" lon="7.837203286893666"><ele>336.5</ele><time>2026-04-10T08:45:17Z</time></trkpt><trkpt lat="44.76726671391907" lon="7.837319348062912"><ele>336.0</ele><time>2026-04-10T08:45:19Z</time></trkpt><trkpt lat="44.767324534329966" lon="7.837436541759501"><ele>335.5</ele><time>2026-04-10T08:45:21Z</time></trkpt><trkpt lat="44.76739229343751" lon="7.837581319281949"><ele>335.0</ele><time>2026-04-10T08:45:23Z</time></trkpt><trkpt lat="44.7674569528366" lon="7.8377449819746765"><ele>334.6666666666667</ele><time>2026-04-10T08:45:25Z</time></trkpt><trkpt lat="44.76749598305374" lon="7.837838979658151"><ele>334.33333333333337</ele><time>2026-04-10T08:45:26Z</time></trkpt><trkpt lat="44.76754968973537" lon="7.83793521447224"><ele>334.0</ele><time>2026-04-10T08:45:27Z</time></trkpt><trkpt lat="44.76760592409723" lon="7.838032347067266"><ele>333.6666666666667</ele><time>2026-04-10T08:45:28Z</time></trkpt><trkpt lat="44.767666499214016" lon="7.838127747220216"><ele>333.3333333333333</ele><time>2026-04-10T08:45:29Z</time></trkpt><trkpt lat="44.76772834081117" lon="7.838216975696076"><ele>333.0</ele><time>2026-04-10T08:45:30Z</time></trkpt><trkpt lat="44.76779346853105" lon="7.838289996101851"><ele>332.1666666666667</ele><time>2026-04-10T08:45:31Z</time></trkpt><trkpt lat="44.767859101815425" lon="7.838364511529606"><ele>331.3333333333333</ele><time>2026-04-10T08:45:32Z</time></trkpt><trkpt lat="44.767923667914424" lon="7.838438365659685"><ele>330.5</ele><time>2026-04-10T08:45:33Z</time></trkpt><trkpt lat="44.767988144305974" lon="7.838530582548752"><ele>329.66666666666663</ele><time>2026-04-10T08:45:34Z</time></trkpt><trkpt lat="44.768070984228466" lon="7.838582563274801"><ele>328.8333333333333</ele><time>2026-04-10T08:45:35Z</time></trkpt><trkpt lat="44.768135337861985" lon="7.8386654344354385"><ele>328.0</ele><time>2026-04-10T08:45:36Z</time></trkpt><trkpt lat="44.768211503488345" lon="7.838737105908456"><ele>328.0</ele><time>2026-04-10T08:45:37Z</time></trkpt><trkpt lat="44.76828514072368" lon="7.838799912804433"><ele>328.0</ele><time>2026-04-10T08:45:38Z</time></trkpt><trkpt lat="44.768349029113644" lon="7.838869776157601"><ele>328.0</ele><time>2026-04-10T08:45:39Z</time></trkpt><trkpt lat="44.768403918708934" lon="7.838948674544954"><ele>328.0</ele><time>2026-04-10T08:45:40Z</time></trkpt><trkpt lat="44.768439063541905" lon="7.839041981627288"><ele>328.0</ele><time>2026-04-10T08:45:41Z</time></trkpt><trkpt lat="44.76842456136497" lon="7.83915518467762"><ele>328.0</ele><time>2026-04-10T08:45:42Z</time></trkpt><trkpt lat="44.768413024129465" lon="7.839262337244104"><ele>328.57142857142856</ele><time>2026-04-10T08:45:43Z</time></trkpt><trkpt lat="44.768399292722926" lon="7.839367864388998"><ele>329.1428571428571</ele><time>2026-04-10T08:45:44Z</time></trkpt><trkpt lat="44.76837650539831" lon="7.839471972528004"><ele>329.71428571428567</ele><time>2026-04-10T08:45:45Z</time></trkpt><trkpt lat="44.76835854941154" lon="7.839570174196036"><ele>330.2857142857143</ele><time>2026-04-10T08:45:46Z</time></trkpt><trkpt lat="44.768346005162776" lon="7.8396717449836935"><ele>330.8571428571429</ele><time>2026-04-10T08:45:47Z</time></trkpt><trkpt lat="44.768329672669545" lon="7.839766682109242"><ele>331.4285714285714</ele><time>2026-04-10T08:45:48Z</time></trkpt><trkpt lat="44.76831718886966" lon="7.839862206912581"><ele>332.0</ele><time>2026-04-10T08:45:49Z</time></trkpt><trkpt lat="44.76828156841986" lon="7.8399380394596125"><ele>332.0</ele><time>2026-04-10T08:45:50Z</time></trkpt><trkpt lat="44.768231199992314" lon="7.840082204816891"><ele>332.0</ele><time>2026-04-10T08:45:52Z</time></trkpt><trkpt lat="44.76817971727929" lon="7.840200245281403"><ele>332.0</ele><time>2026-04-10T08:45:54Z</time></trkpt><trkpt lat="44.768123370168865" lon="7.840319713295209"><ele>332.0</ele><time>2026-04-10T08:45:55.999Z</time></trkpt><trkpt lat="44.7680564128652" lon="7.840438054441754"><ele>332.0</ele><time>2026-04-10T08:45:57.999Z</time></trkpt><trkpt lat="44.7679888573833" lon="7.840571242888315"><ele>332.6</ele><time>2026-04-10T08:45:59.999Z</time></trkpt><trkpt lat="44.76790400002482" lon="7.840668786747684"><ele>333.20000000000005</ele><time>2026-04-10T08:46:01.999Z</time></trkpt><trkpt lat="44.76783280023227" lon="7.84076370535587"><ele>333.8</ele><time>2026-04-10T08:46:03.999Z</time></trkpt><trkpt lat="44.767784983268015" lon="7.840823010715227"><ele>334.4</ele><time>2026-04-10T08:46:04.999Z</time></trkpt><trkpt lat="44.76771041852539" lon="7.84094812149341"><ele>335.0</ele><time>2026-04-10T08:46:06.999Z</time></trkpt><trkpt lat="44.76766007210096" lon="7.841100179485734"><ele>335.6</ele><time>2026-04-10T08:46:08.999Z</time></trkpt><trkpt lat="44.76763305370983" lon="7.841253070385158"><ele>336.2</ele><time>2026-04-10T08:46:10.999Z</time></trkpt><trkpt lat="44.76762123987387" lon="7.841405458009896"><ele>336.79999999999995</ele><time>2026-04-10T08:46:12.999Z</time></trkpt><trkpt lat="44.767611180216925" lon="7.841560067415617"><ele>337.4</ele><time>2026-04-10T08:46:14.999Z</time></trkpt><trkpt lat="44.76762433278525" lon="7.841691089941556"><ele>338.0</ele><time>2026-04-10T08:46:16.999Z</time></trkpt><trkpt lat="44.76765613054498" lon="7.841842524607576"><ele>338.0</ele><time>2026-04-10T08:46:18.999Z</time></trkpt><trkpt lat="44.767708479743405" lon="7.841954375369609"><ele>338.0</ele><time>2026-04-10T08:46:20.999Z</time></trkpt><trkpt lat="44.76773551825395" lon="7.8420633977343295"><ele>338.0</ele><time>2026-04-10T08:46:22.999Z</time></trkpt><trkpt lat="44.76777344278203" lon="7.842160797574648"><ele>338.0</ele><time>2026-04-10T08:46:24.999Z</time></trkpt><trkpt lat="44.76780509580405" lon="7.842264735660598"><ele>338.0</ele><time>2026-04-10T08:46:26.999Z</time></trkpt><trkpt lat="44.767841637965866" lon="7.842359224486957"><ele>338.0</ele><time>2026-04-10T08:46:28.999Z</time></trkpt><trkpt lat="44.767876073699746" lon="7.842438977053234"><ele>338.0</ele><time>2026-04-10T08:46:30.999Z</time></trkpt><trkpt lat="44.76789611721975" lon="7.84254081400156"><ele>338.0</ele><time>2026-04-10T08:46:33.999Z</time></trkpt><trkpt lat="44.767925830804074" lon="7.8426378817369065"><ele>338.0</ele><time>2026-04-10T08:46:36.999Z</time></trkpt><trkpt lat="44.76795397960163" lon="7.842743900607151"><ele>338.0</ele><time>2026-04-10T08:46:39.999Z</time></trkpt><trkpt lat="44.76795337254515" lon="7.842866081603385"><ele>338.0</ele><time>2026-04-10T08:46:42.999Z</time></trkpt><trkpt lat="44.76794171550079" lon="7.842958292996395"><ele>338.0</ele><time>2026-04-10T08:46:43.999Z</time></trkpt><trkpt lat="44.76791215899475" lon="7.843049691460376"><ele>338.1666666666667</ele><time>2026-04-10T08:46:45.999Z</time></trkpt><trkpt lat="44.76786428805438" lon="7.843137739204811"><ele>338.33333333333337</ele><time>2026-04-10T08:46:48.999Z</time></trkpt><trkpt lat="44.76780623293116" lon="7.843227089568248"><ele>338.5</ele><time>2026-04-10T08:46:51.999Z</time></trkpt><trkpt lat="44.76776366023481" lon="7.843305387852593"><ele>338.6666666666667</ele><time>2026-04-10T08:46:53.999Z</time></trkpt><trkpt lat="44.76769398513046" lon="7.843414813147493"><ele>338.8333333333333</ele><time>2026-04-10T08:46:54.999Z</time></trkpt><trkpt lat="44.767629170842596" lon="7.843480299100327"><ele>339.0</ele><time>2026-04-10T08:46:56.999Z</time></trkpt><trkpt lat="44.76756646132966" lon="7.843543089647602"><ele>339.3333333333333</ele><time>2026-04-10T08:46:59Z</time></trkpt><trkpt lat="44.76750037452401" lon="7.843595302571898"><ele>339.6666666666667</ele><time>2026-04-10T08:47:01Z</time></trkpt><trkpt lat="44.767428575080125" lon="7.843651592627242"><ele>340.0</ele><time>2026-04-10T08:47:03Z</time></trkpt><trkpt lat="44.76736206773877" lon="7.843711799937584"><ele>340.33333333333337</ele><time>2026-04-10T08:47:05Z</time></trkpt><trkpt lat="44.76729275278856" lon="7.8437752596364065"><ele>340.6666666666667</ele><time>2026-04-10T08:47:07Z</time></trkpt><trkpt lat="44.76723010482781" lon="7.843847475397055"><ele>341.0</ele><time>2026-04-10T08:47:09Z</time></trkpt><trkpt lat="44.76717166219996" lon="7.843922591063451"><ele>341.0</ele><time>2026-04-10T08:47:11Z</time></trkpt><trkpt lat="44.76710707998829" lon="7.843984964551692"><ele>341.0</ele><time>2026-04-10T08:47:13Z</time></trkpt><trkpt lat="44.7670496017199" lon="7.844045335512995"><ele>341.0</ele><time>2026-04-10T08:47:15Z</time></trkpt><trkpt lat="44.76698288065203" lon="7.844100379999734"><ele>341.0</ele><time>2026-04-10T08:47:17Z</time></trkpt><trkpt lat="44.766925430124495" lon="7.844163737145158"><ele>341.0</ele><time>2026-04-10T08:47:19Z</time></trkpt><trkpt lat="44.7668660731081" lon="7.844224581144626"><ele>341.0</ele><time>2026-04-10T08:47:21Z</time></trkpt><trkpt lat="44.766801726837386" lon="7.844287745648596"><ele>341.5</ele><time>2026-04-10T08:47:23Z</time></trkpt><trkpt lat="44.76673281429145" lon="7.844346998116319"><ele>342.0</ele><time>2026-04-10T08:47:25Z</time></trkpt><trkpt lat="44.766664351237395" lon="7.844406418528944"><ele>342.5</ele><time>2026-04-10T08:47:27Z</time></trkpt><trkpt lat="44.766605353222886" lon="7.844487194903702"><ele>343.0</ele><time>2026-04-10T08:47:29Z</time></trkpt><trkpt lat="44.76653779466983" lon="7.844548278353796"><ele>343.5</ele><time>2026-04-10T08:47:31Z</time></trkpt><trkpt lat="44.76647029458777" lon="7.844606132524953"><ele>344.0</ele><time>2026-04-10T08:47:33Z</time></trkpt><trkpt lat="44.76640460820552" lon="7.844680915101145"><ele>344.0</ele><time>2026-04-10T08:47:35Z</time></trkpt><trkpt lat="44.76633645051242" lon="7.844741249346639"><ele>344.0</ele><time>2026-04-10T08:47:37Z</time></trkpt><trkpt lat="44.76626212565517" lon="7.844808121184039"><ele>344.0</ele><time>2026-04-10T08:47:39Z</time></trkpt><trkpt lat="44.766192797615766" lon="7.84488547924173"><ele>344.0</ele><time>2026-04-10T08:47:41Z</time></trkpt><trkpt lat="44.76611970292929" lon="7.844954125497"><ele>344.0</ele><time>2026-04-10T08:47:43Z</time></trkpt><trkpt lat="44.766046940436524" lon="7.8450271543879"><ele>344.0</ele><time>2026-04-10T08:47:45Z</time></trkpt><trkpt lat="44.765972158544805" lon="7.845090124379536"><ele>344.0</ele><time>2026-04-10T08:47:47Z</time></trkpt><trkpt lat="44.76590043617199" lon="7.845157303826184"><ele>344.0</ele><time>2026-04-10T08:47:49Z</time></trkpt><trkpt lat="44.765853687209365" lon="7.845246749730446"><ele>344.0</ele><time>2026-04-10T08:47:51Z</time></trkpt><trkpt lat="44.76586393819988" lon="7.845367249439127"><ele>344.0</ele><time>2026-04-10T08:47:53Z</time></trkpt><trkpt lat="44.7659141869245" lon="7.845480662993022"><ele>344.0</ele><time>2026-04-10T08:47:55Z</time></trkpt><trkpt lat="44.765964368324234" lon="7.845605797407322"><ele>344.0</ele><time>2026-04-10T08:47:57Z</time></trkpt><trkpt lat="44.76603382207877" lon="7.845725150957937"><ele>344.0</ele><time>2026-04-10T08:47:59Z</time></trkpt><trkpt lat="44.76611154616685" lon="7.845842633111687"><ele>344.0</ele><time>2026-04-10T08:48:01Z</time></trkpt><trkpt lat="44.76618939627198" lon="7.845957121657938"><ele>344.0</ele><time>2026-04-10T08:48:02.999Z</time></trkpt><trkpt lat="44.766252452075314" lon="7.846070892100489"><ele>344.0</ele><time>2026-04-10T08:48:04.999Z</time></trkpt><trkpt lat="44.76630683230872" lon="7.84619330228795"><ele>344.0</ele><time>2026-04-10T08:48:06.999Z</time></trkpt><trkpt lat="44.766370596218366" lon="7.846321968946704"><ele>344.4</ele><time>2026-04-10T08:48:08.999Z</time></trkpt><trkpt lat="44.76643107053373" lon="7.8464538624984685"><ele>344.79999999999995</ele><time>2026-04-10T08:48:10.999Z</time></trkpt><trkpt lat="44.76648587365316" lon="7.8465889166604885"><ele>345.20000000000005</ele><time>2026-04-10T08:48:12.999Z</time></trkpt><trkpt lat="44.76655734848532" lon="7.846712764690972"><ele>345.6</ele><time>2026-04-10T08:48:14.999Z</time></trkpt><trkpt lat="44.766612610653105" lon="7.846852804296351"><ele>346.0</ele><time>2026-04-10T08:48:16.999Z</time></trkpt><trkpt lat="44.766670480811555" lon="7.846980444560104"><ele>346.4</ele><time>2026-04-10T08:48:18.999Z</time></trkpt><trkpt lat="44.76672392371343" lon="7.847103609101187"><ele>346.8</ele><time>2026-04-10T08:48:20.999Z</time></trkpt><trkpt lat="44.76678003934739" lon="7.8472221949596"><ele>347.2</ele><time>2026-04-10T08:48:22.999Z</time></trkpt><trkpt lat="44.766829080996835" lon="7.847332410877085"><ele>347.59999999999997</ele><time>2026-04-10T08:48:24.999Z</time></trkpt><trkpt lat="44.76688205606412" lon="7.847428679214147"><ele>348.0</ele><time>2026-04-10T08:48:26.999Z</time></trkpt><trkpt lat="44.76689601277125" lon="7.847534261427078"><ele>348.0</ele><time>2026-04-10T08:48:28.999Z</time></trkpt><trkpt lat="44.76685173521971" lon="7.847621587728596"><ele>348.0</ele><time>2026-04-10T08:48:30.999Z</time></trkpt><trkpt lat="44.76680802030751" lon="7.847686711139986"><ele>348.0</ele><time>2026-04-10T08:48:32.999Z</time></trkpt><trkpt lat="44.76675365013812" lon="7.8477421888213685"><ele>348.0</ele><time>2026-04-10T08:48:34.999Z</time></trkpt><trkpt lat="44.766689659563816" lon="7.847820995792247"><ele>348.0</ele><time>2026-04-10T08:48:36.999Z</time></trkpt><trkpt lat="44.76661882865194" lon="7.84789265004809"><ele>348.0</ele><time>2026-04-10T08:48:38.999Z</time></trkpt><trkpt lat="44.76655070490547" lon="7.847963230569473"><ele>347.6666666666667</ele><time>2026-04-10T08:48:40.999Z</time></trkpt><trkpt lat="44.76648305713715" lon="7.848018085830794"><ele>347.3333333333333</ele><time>2026-04-10T08:48:42.999Z</time></trkpt><trkpt lat="44.766418633253146" lon="7.8480863459826"><ele>347.0</ele><time>2026-04-10T08:48:44.999Z</time></trkpt><trkpt lat="44.76634448863686" lon="7.848157735300951"><ele>346.66666666666663</ele><time>2026-04-10T08:48:46.999Z</time></trkpt><trkpt lat="44.7662643770559" lon="7.848189108396082"><ele>346.3333333333333</ele><time>2026-04-10T08:48:48.999Z</time></trkpt><trkpt lat="44.766167459021155" lon="7.848151363098349"><ele>346.0</ele><time>2026-04-10T08:48:50.999Z</time></trkpt><trkpt lat="44.766066532225" lon="7.848104200952123"><ele>345.8333333333333</ele><time>2026-04-10T08:48:52.999Z</time></trkpt><trkpt lat="44.76602804106804" lon="7.848031497883589"><ele>345.66666666666663</ele><time>2026-04-10T08:48:53.999Z</time></trkpt><trkpt lat="44.765934041127174" lon="7.847994642301132"><ele>345.5</ele><time>2026-04-10T08:48:55.999Z</time></trkpt><trkpt lat="44.7658362030956" lon="7.847953251361248"><ele>345.3333333333333</ele><time>2026-04-10T08:48:57.999Z</time></trkpt><trkpt lat="44.76574100555209" lon="7.8479112424043045"><ele>345.1666666666667</ele><time>2026-04-10T08:48:59.999Z</time></trkpt><trkpt lat="44.76566344261884" lon="7.847885458088491"><ele>345.0</ele><time>2026-04-10T08:49:01.999Z</time></trkpt><trkpt lat="44.76559555307562" lon="7.847869878557049"><ele>345.0</ele><time>2026-04-10T08:49:05Z</time></trkpt><trkpt lat="44.765559586324244" lon="7.848045664942751"><ele>345.0</ele><time>2026-04-10T08:49:07Z</time></trkpt><trkpt lat="44.765523095086735" lon="7.8481346377406656"><ele>345.0</ele><time>2026-04-10T08:49:09Z</time></trkpt><trkpt lat="44.765461622916895" lon="7.848207086081593"><ele>345.0</ele><time>2026-04-10T08:49:11Z</time></trkpt><trkpt lat="44.76542482494427" lon="7.848298954071598"><ele>345.0</ele><time>2026-04-10T08:49:13Z</time></trkpt><trkpt lat="44.76537624014457" lon="7.8483793228214935"><ele>345.0</ele><time>2026-04-10T08:49:15Z</time></trkpt><trkpt lat="44.76534418570716" lon="7.848472265378749"><ele>344.6666666666667</ele><time>2026-04-10T08:49:17Z</time></trkpt><trkpt lat="44.765336368874976" lon="7.848579695728715"><ele>344.3333333333333</ele><time>2026-04-10T08:49:19Z</time></trkpt><trkpt lat="44.76533927793028" lon="7.848694817857336"><ele>344.0</ele><time>2026-04-10T08:49:21Z</time></trkpt><trkpt lat="44.76540479036141" lon="7.848781661087192"><ele>343.66666666666663</ele><time>2026-04-10T08:49:23Z</time></trkpt><trkpt lat="44.76547210836281" lon="7.8488633369658425"><ele>343.3333333333333</ele><time>2026-04-10T08:49:25Z</time></trkpt><trkpt lat="44.765500420965274" lon="7.848971929009593"><ele>343.0</ele><time>2026-04-10T08:49:27Z</time></trkpt><trkpt lat="44.76552538955243" lon="7.84909342884864"><ele>343.0</ele><time>2026-04-10T08:49:29Z</time></trkpt><trkpt lat="44.7655728545402" lon="7.849206504580002"><ele>343.0</ele><time>2026-04-10T08:49:31Z</time></trkpt><trkpt lat="44.765592310003555" lon="7.849306666975951"><ele>343.0</ele><time>2026-04-10T08:49:33Z</time></trkpt><trkpt lat="44.76561340210624" lon="7.849408663498836"><ele>343.0</ele><time>2026-04-10T08:49:35Z</time></trkpt><trkpt lat="44.765641829092026" lon="7.84950394741123"><ele>343.0</ele><time>2026-04-10T08:49:37Z</time></trkpt><trkpt lat="44.76566568937106" lon="7.849588152949635"><ele>343.0</ele><time>2026-04-10T08:49:39Z</time></trkpt><trkpt lat="44.76568928237346" lon="7.849675206029427"><ele>343.0</ele><time>2026-04-10T08:49:41Z</time></trkpt><trkpt lat="44.765711876097086" lon="7.849763888666608"><ele>343.16666666666663</ele><time>2026-04-10T08:49:43Z</time></trkpt><trkpt lat="44.76574183062944" lon="7.849879808000311"><ele>343.3333333333333</ele><time>2026-04-10T08:49:46Z</time></trkpt><trkpt lat="44.76574855598028" lon="7.849975221900493"><ele>343.5</ele><time>2026-04-10T08:49:50Z</time></trkpt><trkpt lat="44.76581323100526" lon="7.850026597433279"><ele>343.6666666666667</ele><time>2026-04-10T08:49:58Z</time></trkpt><trkpt lat="44.76586289278616" lon="7.85011130622633"><ele>343.83333333333337</ele><time>2026-04-10T08:50:01Z</time></trkpt><trkpt lat="44.76592943463588" lon="7.850187843572691"><ele>344.0</ele><time>2026-04-10T08:50:04Z</time></trkpt><trkpt lat="44.765993134424825" lon="7.850238673094544"><ele>343.33333333333337</ele><time>2026-04-10T08:50:06.999Z</time></trkpt><trkpt lat="44.76607706744265" lon="7.850274712118148"><ele>342.6666666666667</ele><time>2026-04-10T08:50:09.999Z</time></trkpt><trkpt lat="44.76613823803668" lon="7.85029595162991"><ele>342.0</ele><time>2026-04-10T08:50:11.999Z</time></trkpt><trkpt lat="44.76620685565978" lon="7.8503193435011305"><ele>341.3333333333333</ele><time>2026-04-10T08:50:13.999Z</time></trkpt><trkpt lat="44.76628367066247" lon="7.850329641180225"><ele>340.66666666666663</ele><time>2026-04-10T08:50:15.999Z</time></trkpt><trkpt lat="44.766364072232584" lon="7.850319435617309"><ele>340.0</ele><time>2026-04-10T08:50:17.999Z</time></trkpt><trkpt lat="44.76644296749026" lon="7.850337375880677"><ele>340.0</ele><time>2026-04-10T08:50:20.999Z</time></trkpt><trkpt lat="44.76652247919405" lon="7.850366776000045"><ele>340.0</ele><time>2026-04-10T08:50:22.999Z</time></trkpt><trkpt lat="44.766619448280174" lon="7.8504348831531185"><ele>340.0</ele><time>2026-04-10T08:50:24.999Z</time></trkpt><trkpt lat="44.76668270655383" lon="7.850445047180088"><ele>340.0</ele><time>2026-04-10T08:50:26.999Z</time></trkpt><trkpt lat="44.7667520436577" lon="7.850471916027081"><ele>340.0</ele><time>2026-04-10T08:50:27.999Z</time></trkpt><trkpt lat="44.76682345477074" lon="7.850555728652126"><ele>340.0</ele><time>2026-04-10T08:50:29.999Z</time></trkpt><trkpt lat="44.766860598466145" lon="7.850637385760997"><ele>339.66666666666663</ele><time>2026-04-10T08:50:32.999Z</time></trkpt><trkpt lat="44.766903960919294" lon="7.850731239474376"><ele>339.3333333333333</ele><time>2026-04-10T08:50:34.999Z</time></trkpt><trkpt lat="44.7669343335011" lon="7.850841709382203"><ele>339.0</ele><time>2026-04-10T08:50:36.999Z</time></trkpt><trkpt lat="44.76691812254667" lon="7.850948554986452"><ele>338.6666666666667</ele><time>2026-04-10T08:50:38.999Z</time></trkpt><trkpt lat="44.766916882740134" lon="7.851042238065337"><ele>338.33333333333337</ele><time>2026-04-10T08:50:40.999Z</time></trkpt><trkpt lat="44.76689664533232" lon="7.85121238849896"><ele>338.0</ele><time>2026-04-10T08:50:42.999Z</time></trkpt><trkpt lat="44.76693467656312" lon="7.851308069051746"><ele>338.0</ele><time>2026-04-10T08:50:44.999Z</time></trkpt><trkpt lat="44.76699279467781" lon="7.851357016406414"><ele>338.0</ele><time>2026-04-10T08:50:47.999Z</time></trkpt><trkpt lat="44.76704935994663" lon="7.851417962666545"><ele>338.0</ele><time>2026-04-10T08:50:51.999Z</time></trkpt><trkpt lat="44.76706836105386" lon="7.8515141508155635"><ele>338.0</ele><time>2026-04-10T08:50:55.999Z</time></trkpt><trkpt lat="44.767077071108396" lon="7.851619715408102"><ele>338.0</ele><time>2026-04-10T08:50:58.999Z</time></trkpt><trkpt lat="44.76710616067931" lon="7.851721135583437"><ele>338.0</ele><time>2026-04-10T08:51:01.999Z</time></trkpt><trkpt lat="44.76713199111919" lon="7.851816697620808"><ele>338.0</ele><time>2026-04-10T08:51:04.999Z</time></trkpt><trkpt lat="44.767112542287215" lon="7.851932367710467"><ele>337.83333333333337</ele><time>2026-04-10T08:51:08.999Z</time></trkpt><trkpt lat="44.76707378166899" lon="7.852016481479733"><ele>337.6666666666667</ele><time>2026-04-10T08:51:11Z</time></trkpt><trkpt lat="44.767038359001326" lon="7.852123168243934"><ele>337.5</ele><time>2026-04-10T08:51:14Z</time></trkpt><trkpt lat="44.76702687786118" lon="7.852213659455016"><ele>337.3333333333333</ele><time>2026-04-10T08:51:16Z</time></trkpt><trkpt lat="44.76700588398984" lon="7.8523525981031295"><ele>337.16666666666663</ele><time>2026-04-10T08:51:19Z</time></trkpt><trkpt lat="44.76696597532337" lon="7.852475197067799"><ele>337.0</ele><time>2026-04-10T08:51:22Z</time></trkpt><trkpt lat="44.76693621953446" lon="7.852559550396101"><ele>336.42857142857144</ele><time>2026-04-10T08:51:24Z</time></trkpt><trkpt lat="44.76692664025778" lon="7.852669220403523"><ele>335.8571428571429</ele><time>2026-04-10T08:51:26Z</time></trkpt><trkpt lat="44.76690774014918" lon="7.852765253800639"><ele>335.28571428571433</ele><time>2026-04-10T08:51:28Z</time></trkpt><trkpt lat="44.766902516769356" lon="7.852864096857047"><ele>334.7142857142857</ele><time>2026-04-10T08:51:30Z</time></trkpt><trkpt lat="44.76691025976879" lon="7.852971479396954"><ele>334.1428571428571</ele><time>2026-04-10T08:51:32Z</time></trkpt><trkpt lat="44.76690713084506" lon="7.853061852241196"><ele>333.5714285714286</ele><time>2026-04-10T08:51:34Z</time></trkpt><trkpt lat="44.76690167592645" lon="7.853165669564452"><ele>333.0</ele><time>2026-04-10T08:51:36Z</time></trkpt><trkpt lat="44.76688170128773" lon="7.853274180296722"><ele>333.1666666666667</ele><time>2026-04-10T08:51:38Z</time></trkpt><trkpt lat="44.76685570143239" lon="7.853389414099914"><ele>333.3333333333333</ele><time>2026-04-10T08:51:40Z</time></trkpt><trkpt lat="44.76684640709659" lon="7.85349159997943"><ele>333.5</ele><time>2026-04-10T08:51:42Z</time></trkpt><trkpt lat="44.76686086313905" lon="7.853608370075866"><ele>333.66666666666663</ele><time>2026-04-10T08:51:44Z</time></trkpt><trkpt lat="44.76686751092709" lon="7.853711385216396"><ele>333.8333333333333</ele><time>2026-04-10T08:51:46Z</time></trkpt><trkpt lat="44.76684938211449" lon="7.853817520400996"><ele>334.0</ele><time>2026-04-10T08:51:48Z</time></trkpt><trkpt lat="44.76683081104458" lon="7.85391159512432"><ele>334.0</ele><time>2026-04-10T08:51:52Z</time></trkpt><trkpt lat="44.7668080664998" lon="7.853999829502598"><ele>334.0</ele><time>2026-04-10T08:51:56Z</time></trkpt><trkpt lat="44.76675274650572" lon="7.854077597149183"><ele>334.0</ele><time>2026-04-10T08:52:00Z</time></trkpt><trkpt lat="44.76669287173908" lon="7.854112045741792"><ele>334.0</ele><time>2026-04-10T08:52:05Z</time></trkpt><trkpt lat="44.76663223594805" lon="7.854156323921439"><ele>334.0</ele><time>2026-04-10T08:52:08Z</time></trkpt><trkpt lat="44.76657472932245" lon="7.854195452631157"><ele>334.0</ele><time>2026-04-10T08:52:10Z</time></trkpt><trkpt lat="44.76648204378033" lon="7.854198647919201"><ele>334.0</ele><time>2026-04-10T08:52:12.999Z</time></trkpt><trkpt lat="44.76641693822228" lon="7.854218147357372"><ele>334.0</ele><time>2026-04-10T08:52:14.999Z</time></trkpt><trkpt lat="44.76632589618758" lon="7.854194819243523"><ele>334.0</ele><time>2026-04-10T08:52:17.999Z</time></trkpt><trkpt lat="44.76626091999158" lon="7.854190687487969"><ele>334.0</ele><time>2026-04-10T08:52:20.999Z</time></trkpt><trkpt lat="44.766191701158576" lon="7.854200756434155"><ele>334.0</ele><time>2026-04-10T08:52:23.999Z</time></trkpt><trkpt lat="44.766120552174975" lon="7.85418798502189"><ele>334.0</ele><time>2026-04-10T08:52:26.999Z</time></trkpt><trkpt lat="44.76605644700084" lon="7.854268556359615"><ele>334.0</ele><time>2026-04-10T08:52:31.999Z</time></trkpt><trkpt lat="44.76604103080085" lon="7.85436449304228"><ele>334.16666666666663</ele><time>2026-04-10T08:52:33.999Z</time></trkpt><trkpt lat="44.765961993067734" lon="7.854422911111482"><ele>334.3333333333333</ele><time>2026-04-10T08:52:36.999Z</time></trkpt><trkpt lat="44.76588984882641" lon="7.854485096676894"><ele>334.5</ele><time>2026-04-10T08:52:38.999Z</time></trkpt><trkpt lat="44.765823672070255" lon="7.8545261147949414"><ele>334.6666666666667</ele><time>2026-04-10T08:52:41.999Z</time></trkpt><trkpt lat="44.76575591069685" lon="7.854549378269717"><ele>334.83333333333337</ele><time>2026-04-10T08:52:44.999Z</time></trkpt><trkpt lat="44.76567347916599" lon="7.854584276338267"><ele>335.0</ele><time>2026-04-10T08:52:48.999Z</time></trkpt><trkpt lat="44.76560844189182" lon="7.8546317460814405"><ele>334.99999999999994</ele><time>2026-04-10T08:52:51.999Z</time></trkpt><trkpt lat="44.765547406413674" lon="7.854668040747912"><ele>335.0</ele><time>2026-04-10T08:52:53.999Z</time></trkpt><trkpt lat="44.76548976579191" lon="7.854709537887528"><ele>335.0</ele><time>2026-04-10T08:52:56.999Z</time></trkpt><trkpt lat="44.76542807008001" lon="7.854733248667914"><ele>335.0</ele><time>2026-04-10T08:52:59.999Z</time></trkpt><trkpt lat="44.76535884730475" lon="7.854774671000326"><ele>335.0</ele><time>2026-04-10T08:53:02.999Z</time></trkpt><trkpt lat="44.76527734862202" lon="7.854768351000493"><ele>334.99999999999994</ele><time>2026-04-10T08:53:04.999Z</time></trkpt><trkpt lat="44.7652039422802" lon="7.854724947897387"><ele>335.0</ele><time>2026-04-10T08:53:07.999Z</time></trkpt><trkpt lat="44.76513273120625" lon="7.854668456925057"><ele>335.5</ele><time>2026-04-10T08:53:10.999Z</time></trkpt><trkpt lat="44.765089960701744" lon="7.854582443195884"><ele>336.0</ele><time>2026-04-10T08:53:13.999Z</time></trkpt><trkpt lat="44.76510092993089" lon="7.854458819534106"><ele>336.5</ele><time>2026-04-10T08:53:17Z</time></trkpt><trkpt lat="44.765108004907844" lon="7.854363147615761"><ele>337.0</ele><time>2026-04-10T08:53:20Z</time></trkpt><trkpt lat="44.76512409684864" lon="7.854260925859005"><ele>337.5</ele><time>2026-04-10T08:53:23Z</time></trkpt><trkpt lat="44.7650901938612" lon="7.854157905068301"><ele>338.0</ele><time>2026-04-10T08:53:26Z</time></trkpt><trkpt lat="44.765025496046405" lon="7.8541042486791515"><ele>339.0</ele><time>2026-04-10T08:53:29Z</time></trkpt><trkpt lat="44.764949340202264" lon="7.854089213600618"><ele>340.0</ele><time>2026-04-10T08:53:33Z</time></trkpt><trkpt lat="44.76486553308593" lon="7.8540799452054175"><ele>341.0</ele><time>2026-04-10T08:53:35Z</time></trkpt><trkpt lat="44.764785125670784" lon="7.854043326265915"><ele>342.0</ele><time>2026-04-10T08:53:38Z</time></trkpt><trkpt lat="44.76472897710836" lon="7.853936616187136"><ele>343.0</ele><time>2026-04-10T08:53:41Z</time></trkpt><trkpt lat="44.76470107620833" lon="7.853811990275443"><ele>344.0</ele><time>2026-04-10T08:53:44Z</time></trkpt><trkpt lat="44.76468174585168" lon="7.853702701305796"><ele>344.0</ele><time>2026-04-10T08:53:47Z</time></trkpt><trkpt lat="44.76466333442715" lon="7.853576296829515"><ele>344.0</ele><time>2026-04-10T08:53:50Z</time></trkpt><trkpt lat="44.76463994929787" lon="7.853469001655312"><ele>344.0</ele><time>2026-04-10T08:53:53Z</time></trkpt><trkpt lat="44.764620649608716" lon="7.853381425271089"><ele>344.0</ele><time>2026-04-10T08:53:55Z</time></trkpt><trkpt lat="44.7646300435273" lon="7.853276069821113"><ele>344.0</ele><time>2026-04-10T08:53:57Z</time></trkpt><trkpt lat="44.76463973352935" lon="7.853183539082322"><ele>344.0</ele><time>2026-04-10T08:53:59Z</time></trkpt><trkpt lat="44.76463962973501" lon="7.853072836593273"><ele>344.33333333333337</ele><time>2026-04-10T08:54:01Z</time></trkpt><trkpt lat="44.76463786536898" lon="7.852941452468963"><ele>344.6666666666667</ele><time>2026-04-10T08:54:04Z</time></trkpt><trkpt lat="44.764621648562475" lon="7.852845989977941"><ele>345.0</ele><time>2026-04-10T08:54:06Z</time></trkpt><trkpt lat="44.764567832826565" lon="7.8527659277384885"><ele>345.3333333333333</ele><time>2026-04-10T08:54:09Z</time></trkpt><trkpt lat="44.76449458211555" lon="7.8526966841952035"><ele>345.66666666666663</ele><time>2026-04-10T08:54:12Z</time></trkpt><trkpt lat="44.764423528830605" lon="7.852701738793137"><ele>346.0</ele><time>2026-04-10T08:54:14.999Z</time></trkpt><trkpt lat="44.76434374295657" lon="7.852715442796081"><ele>347.16666666666663</ele><time>2026-04-10T08:54:17.999Z</time></trkpt><trkpt lat="44.76427711957046" lon="7.852732349787496"><ele>348.3333333333333</ele><time>2026-04-10T08:54:20.999Z</time></trkpt><trkpt lat="44.76421059222991" lon="7.852777423692687"><ele>349.5</ele><time>2026-04-10T08:54:24.999Z</time></trkpt><trkpt lat="44.76416677193109" lon="7.852844373919944"><ele>350.6666666666667</ele><time>2026-04-10T08:54:27.999Z</time></trkpt><trkpt lat="44.76412765156233" lon="7.852918424328643"><ele>351.83333333333337</ele><time>2026-04-10T08:54:30.999Z</time></trkpt><trkpt lat="44.76407427731368" lon="7.85304462044192"><ele>353.0</ele><time>2026-04-10T08:54:33.999Z</time></trkpt><trkpt lat="44.764007546487775" lon="7.8531004722717555"><ele>353.0</ele><time>2026-04-10T08:54:35.999Z</time></trkpt><trkpt lat="44.76395151273656" lon="7.853050407785959"><ele>353.0</ele><time>2026-04-10T08:54:37.999Z</time></trkpt><trkpt lat="44.76389852251027" lon="7.852999208284193"><ele>353.0</ele><time>2026-04-10T08:54:39.999Z</time></trkpt><trkpt lat="44.763802510979176" lon="7.852960942542156"><ele>353.0</ele><time>2026-04-10T08:54:42.999Z</time></trkpt><trkpt lat="44.763717718188325" lon="7.852936882220538"><ele>353.0</ele><time>2026-04-10T08:54:44.999Z</time></trkpt><trkpt lat="44.763666383210044" lon="7.852867991317662"><ele>353.0</ele><time>2026-04-10T08:54:46.999Z</time></trkpt><trkpt lat="44.76359419845779" lon="7.852763485614831"><ele>352.5</ele><time>2026-04-10T08:54:48.999Z</time></trkpt><trkpt lat="44.76352486642908" lon="7.852713635823381"><ele>352.0</ele><time>2026-04-10T08:54:50.999Z</time></trkpt><trkpt lat="44.76346791941813" lon="7.852619170193478"><ele>351.5</ele><time>2026-04-10T08:54:52.999Z</time></trkpt><trkpt lat="44.76340640363813" lon="7.852546919505615"><ele>351.0</ele><time>2026-04-10T08:54:55.999Z</time></trkpt><trkpt lat="44.7633492069121" lon="7.852473049405622"><ele>350.5</ele><time>2026-04-10T08:54:58.999Z</time></trkpt><trkpt lat="44.763295562860485" lon="7.852397894598594"><ele>350.0</ele><time>2026-04-10T08:55:01.999Z</time></trkpt><trkpt lat="44.76322872681931" lon="7.852360447879005"><ele>350.0</ele><time>2026-04-10T08:55:03.999Z</time></trkpt><trkpt lat="44.763161632113665" lon="7.85232754088437"><ele>350.0</ele><time>2026-04-10T08:55:04.999Z</time></trkpt><trkpt lat="44.7630846818857" lon="7.852284485252807"><ele>350.0</ele><time>2026-04-10T08:55:05.999Z</time></trkpt><trkpt lat="44.762958209695036" lon="7.852231337525388"><ele>350.0</ele><time>2026-04-10T08:55:07.999Z</time></trkpt><trkpt lat="44.762893164811565" lon="7.852204383658565"><ele>350.0</ele><time>2026-04-10T08:55:08.999Z</time></trkpt><trkpt lat="44.76283078753854" lon="7.852176585191826"><ele>350.0</ele><time>2026-04-10T08:55:09.999Z</time></trkpt><trkpt lat="44.76276662199749" lon="7.852154093969154"><ele>349.0</ele><time>2026-04-10T08:55:10.999Z</time></trkpt><trkpt lat="44.76264477087576" lon="7.852087927937691"><ele>348.0</ele><time>2026-04-10T08:55:12.999Z</time></trkpt><trkpt lat="44.76258349869552" lon="7.8520669883722425"><ele>347.0</ele><time>2026-04-10T08:55:13.999Z</time></trkpt><trkpt lat="44.762528376417" lon="7.852017940947805"><ele>346.0</ele><time>2026-04-10T08:55:14.999Z</time></trkpt><trkpt lat="44.76246550720594" lon="7.851984687253486"><ele>345.0</ele><time>2026-04-10T08:55:15.999Z</time></trkpt><trkpt lat="44.76240255409476" lon="7.85195067833617"><ele>344.0</ele><time>2026-04-10T08:55:16.999Z</time></trkpt><trkpt lat="44.76233245697528" lon="7.851913169248422"><ele>344.0</ele><time>2026-04-10T08:55:17.999Z</time></trkpt><trkpt lat="44.76226421185193" lon="7.8519042998052"><ele>344.0</ele><time>2026-04-10T08:55:18.999Z</time></trkpt><trkpt lat="44.762198672696" lon="7.851872805034144"><ele>344.0</ele><time>2026-04-10T08:55:19.999Z</time></trkpt><trkpt lat="44.76213877715859" lon="7.8518278482656765"><ele>344.0</ele><time>2026-04-10T08:55:20.999Z</time></trkpt><trkpt lat="44.76205774886357" lon="7.851816243053701"><ele>344.0</ele><time>2026-04-10T08:55:21.999Z</time></trkpt><trkpt lat="44.76194011111239" lon="7.851822425988774"><ele>344.0</ele><time>2026-04-10T08:55:24Z</time></trkpt><trkpt lat="44.76184589265866" lon="7.8518464629424365"><ele>344.4</ele><time>2026-04-10T08:55:26Z</time></trkpt><trkpt lat="44.761776708397626" lon="7.851760633270847"><ele>344.79999999999995</ele><time>2026-04-10T08:55:27Z</time></trkpt><trkpt lat="44.76168362788006" lon="7.851699148584646"><ele>345.20000000000005</ele><time>2026-04-10T08:55:29Z</time></trkpt><trkpt lat="44.76159815216596" lon="7.851639529716249"><ele>345.6</ele><time>2026-04-10T08:55:31Z</time></trkpt><trkpt lat="44.761521072345836" lon="7.851589644912903"><ele>346.0</ele><time>2026-04-10T08:55:33Z</time></trkpt><trkpt lat="44.76144114557338" lon="7.851567398900941"><ele>346.0</ele><time>2026-04-10T08:55:35Z</time></trkpt><trkpt lat="44.76137204854274" lon="7.851515964719028"><ele>346.0</ele><time>2026-04-10T08:55:37Z</time></trkpt><trkpt lat="44.76129434524843" lon="7.851477247577813"><ele>346.0</ele><time>2026-04-10T08:55:39Z</time></trkpt><trkpt lat="44.761216077457895" lon="7.851443870897154"><ele>346.0</ele><time>2026-04-10T08:55:41Z</time></trkpt><trkpt lat="44.76111782860383" lon="7.851399475296908"><ele>346.0</ele><time>2026-04-10T08:55:43Z</time></trkpt><trkpt lat="44.76105204640741" lon="7.8513956873513475"><ele>346.0</ele><time>2026-04-10T08:55:45Z</time></trkpt><trkpt lat="44.760976412167615" lon="7.851381112508267"><ele>347.5</ele><time>2026-04-10T08:55:47Z</time></trkpt><trkpt lat="44.760890357430384" lon="7.851409291993143"><ele>349.0</ele><time>2026-04-10T08:55:50Z</time></trkpt><trkpt lat="44.76080543722574" lon="7.851425141677983"><ele>350.5</ele><time>2026-04-10T08:55:53Z</time></trkpt><trkpt lat="44.760720795336496" lon="7.851450018099491"><ele>352.0</ele><time>2026-04-10T08:55:55Z</time></trkpt><trkpt lat="44.7606519294534" lon="7.851488659394363"><ele>353.5</ele><time>2026-04-10T08:55:57Z</time></trkpt><trkpt lat="44.76056163812211" lon="7.851534693208971"><ele>355.0</ele><time>2026-04-10T08:55:59Z</time></trkpt><trkpt lat="44.760475643155935" lon="7.851579463548434"><ele>355.0</ele><time>2026-04-10T08:56:01Z</time></trkpt><trkpt lat="44.76039799491019" lon="7.851628132574191"><ele>355.0</ele><time>2026-04-10T08:56:03Z</time></trkpt><trkpt lat="44.7603369022253" lon="7.851701697668952"><ele>355.0</ele><time>2026-04-10T08:56:06Z</time></trkpt><trkpt lat="44.760243348698005" lon="7.851789427740936"><ele>355.0</ele><time>2026-04-10T08:56:09Z</time></trkpt><trkpt lat="44.760176769990714" lon="7.851826959452651"><ele>355.0</ele><time>2026-04-10T08:56:11Z</time></trkpt><trkpt lat="44.76011063478107" lon="7.851846058305329"><ele>355.0</ele><time>2026-04-10T08:56:13Z</time></trkpt><trkpt lat="44.760045429059126" lon="7.8518459536430765"><ele>356.16666666666663</ele><time>2026-04-10T08:56:15Z</time></trkpt><trkpt lat="44.759977090405684" lon="7.851843056934833"><ele>357.3333333333333</ele><time>2026-04-10T08:56:16.999Z</time></trkpt><trkpt lat="44.759891229672895" lon="7.851827156223575"><ele>358.5</ele><time>2026-04-10T08:56:19.999Z</time></trkpt><trkpt lat="44.759826489704366" lon="7.851831805684788"><ele>359.6666666666667</ele><time>2026-04-10T08:56:22.999Z</time></trkpt><trkpt lat="44.759755231725265" lon="7.85183959161527"><ele>360.83333333333337</ele><time>2026-04-10T08:56:24.999Z</time></trkpt><trkpt lat="44.75967428146743" lon="7.851868783892152"><ele>362.0</ele><time>2026-04-10T08:56:26.999Z</time></trkpt><trkpt lat="44.75959542288487" lon="7.851930915367005"><ele>362.0</ele><time>2026-04-10T08:56:29.999Z</time></trkpt><trkpt lat="44.7595129511828" lon="7.851935665074586"><ele>362.0</ele><time>2026-04-10T08:56:32.999Z</time></trkpt><trkpt lat="44.759453432180784" lon="7.8518872223163"><ele>362.0</ele><time>2026-04-10T08:56:36.999Z</time></trkpt><trkpt lat="44.75941687303513" lon="7.851798640909907"><ele>362.0</ele><time>2026-04-10T08:56:41.999Z</time></trkpt><trkpt lat="44.75937059746154" lon="7.8517328981484"><ele>362.0</ele><time>2026-04-10T08:56:44.999Z</time></trkpt><trkpt lat="44.75932268587252" lon="7.8516750807927815"><ele>362.0</ele><time>2026-04-10T08:56:47.999Z</time></trkpt><trkpt lat="44.75927067699039" lon="7.851616863771147"><ele>362.0</ele><time>2026-04-10T08:56:50.999Z</time></trkpt><trkpt lat="44.75918870923942" lon="7.851557731079428"><ele>362.57142857142856</ele><time>2026-04-10T08:56:54.999Z</time></trkpt><trkpt lat="44.75912638404668" lon="7.851509338782236"><ele>363.1428571428571</ele><time>2026-04-10T08:56:57.999Z</time></trkpt><trkpt lat="44.75906341540561" lon="7.8515127183867195"><ele>363.7142857142857</ele><time>2026-04-10T08:56:59.999Z</time></trkpt><trkpt lat="44.75898830624558" lon="7.851537170219496"><ele>364.2857142857143</ele><time>2026-04-10T08:57:02.999Z</time></trkpt><trkpt lat="44.75891112985602" lon="7.851539356663108"><ele>364.8571428571429</ele><time>2026-04-10T08:57:05.999Z</time></trkpt><trkpt lat="44.75885055795688" lon="7.851486824780606"><ele>365.42857142857144</ele><time>2026-04-10T08:57:08.999Z</time></trkpt><trkpt lat="44.75884173365942" lon="7.851384115169231"><ele>366.0</ele><time>2026-04-10T08:57:12.999Z</time></trkpt><trkpt lat="44.7588003569145" lon="7.851276160230592"><ele>366.0</ele><time>2026-04-10T08:57:15.999Z</time></trkpt><trkpt lat="44.75875487618139" lon="7.851180592691888"><ele>366.0</ele><time>2026-04-10T08:57:18.999Z</time></trkpt><trkpt lat="44.758728067043066" lon="7.851083533070749"><ele>366.0</ele><time>2026-04-10T08:57:21.999Z</time></trkpt><trkpt lat="44.75869240137905" lon="7.850994421151121"><ele>366.0</ele><time>2026-04-10T08:57:24.999Z</time></trkpt><trkpt lat="44.75863728359871" lon="7.850908232091994"><ele>366.0</ele><time>2026-04-10T08:57:27.999Z</time></trkpt><trkpt lat="44.75857387695786" lon="7.850851165913049"><ele>366.0</ele><time>2026-04-10T08:57:31Z</time></trkpt><trkpt lat="44.75849007412182" lon="7.850827234825824"><ele>367.3333333333333</ele><time>2026-04-10T08:57:34Z</time></trkpt><trkpt lat="44.758410518073056" lon="7.85077378293572"><ele>368.6666666666667</ele><time>2026-04-10T08:57:37Z</time></trkpt><trkpt lat="44.75837664379837" lon="7.850674094297648"><ele>370.0</ele><time>2026-04-10T08:57:41Z</time></trkpt><trkpt lat="44.75833091438833" lon="7.850592133899385"><ele>371.33333333333337</ele><time>2026-04-10T08:57:45Z</time></trkpt><trkpt lat="44.75827883339142" lon="7.850534010399929"><ele>372.6666666666667</ele><time>2026-04-10T08:57:48Z</time></trkpt><trkpt lat="44.75821930002782" lon="7.850486625247315"><ele>374.0</ele><time>2026-04-10T08:57:51Z</time></trkpt><trkpt lat="44.75816220538" lon="7.850400702271515"><ele>374.0</ele><time>2026-04-10T08:57:55Z</time></trkpt><trkpt lat="44.75807053362847" lon="7.850383690630874"><ele>374.0</ele><time>2026-04-10T08:57:58Z</time></trkpt><trkpt lat="44.757988743248355" lon="7.850380891743911"><ele>374.0</ele><time>2026-04-10T08:58:02Z</time></trkpt><trkpt lat="44.757920023710014" lon="7.850367273185443"><ele>374.0</ele><time>2026-04-10T08:58:06Z</time></trkpt><trkpt lat="44.75785351215398" lon="7.850351664333681"><ele>374.0</ele><time>2026-04-10T08:58:10Z</time></trkpt><trkpt lat="44.75778670054277" lon="7.85034195724051"><ele>374.0</ele><time>2026-04-10T08:58:14Z</time></trkpt><trkpt lat="44.757721978631196" lon="7.850328765279644"><ele>374.0</ele><time>2026-04-10T08:58:18Z</time></trkpt><trkpt lat="44.75764650171345" lon="7.850304256475612"><ele>374.1428571428571</ele><time>2026-04-10T08:58:22.999Z</time></trkpt><trkpt lat="44.75758666614374" lon="7.850259653538445"><ele>374.28571428571433</ele><time>2026-04-10T08:58:27.999Z</time></trkpt><trkpt lat="44.75753797234045" lon="7.8502003950862305"><ele>374.42857142857144</ele><time>2026-04-10T08:58:32.999Z</time></trkpt><trkpt lat="44.757499339586886" lon="7.850130257718592"><ele>374.57142857142856</ele><time>2026-04-10T08:58:37.999Z</time></trkpt><trkpt lat="44.757450149471964" lon="7.850057122923557"><ele>374.71428571428567</ele><time>2026-04-10T08:58:42.999Z</time></trkpt><trkpt lat="44.75740526322478" lon="7.849966242594696"><ele>374.8571428571429</ele><time>2026-04-10T08:58:47.999Z</time></trkpt><trkpt lat="44.75735851861679" lon="7.849881037347398"><ele>375.0</ele><time>2026-04-10T08:58:52.999Z</time></trkpt><trkpt lat="44.75729178084283" lon="7.849846157185794"><ele>375.0</ele><time>2026-04-10T08:58:56.999Z</time></trkpt><trkpt lat="44.75722566373632" lon="7.849882762556643"><ele>375.0</ele><time>2026-04-10T08:58:59.999Z</time></trkpt><trkpt lat="44.757160870638764" lon="7.849925951572033"><ele>375.0</ele><time>2026-04-10T08:59:03.999Z</time></trkpt><trkpt lat="44.7570940956175" lon="7.849971280314413"><ele>375.0</ele><time>2026-04-10T08:59:06.999Z</time></trkpt><trkpt lat="44.75701730689893" lon="7.8500270161416505"><ele>375.0</ele><time>2026-04-10T08:59:09.999Z</time></trkpt><trkpt lat="44.756968739195536" lon="7.850096669382448"><ele>375.0</ele><time>2026-04-10T08:59:12.999Z</time></trkpt><trkpt lat="44.756932605904026" lon="7.850173340389453"><ele>375.0</ele><time>2026-04-10T08:59:14.999Z</time></trkpt><trkpt lat="44.756888908501104" lon="7.850274781492701"><ele>375.0</ele><time>2026-04-10T08:59:17.999Z</time></trkpt><trkpt lat="44.756863188452435" lon="7.850393599079975"><ele>375.0</ele><time>2026-04-10T08:59:20.999Z</time></trkpt><trkpt lat="44.756845520577336" lon="7.850506902259276"><ele>375.0</ele><time>2026-04-10T08:59:22.999Z</time></trkpt><trkpt lat="44.7568378767206" lon="7.850605916036845"><ele>375.0</ele><time>2026-04-10T08:59:24.999Z</time></trkpt><trkpt lat="44.75684034778725" lon="7.850711635006735"><ele>375.0</ele><time>2026-04-10T08:59:26.999Z</time></trkpt><trkpt lat="44.75683539246046" lon="7.85081758267648"><ele>375.0</ele><time>2026-04-10T08:59:28.999Z</time></trkpt><trkpt lat="44.75683544049474" lon="7.850916909988983"><ele>375.0</ele><time>2026-04-10T08:59:30.999Z</time></trkpt><trkpt lat="44.756836430123904" lon="7.851030062092327"><ele>375.0</ele><time>2026-04-10T08:59:32.999Z</time></trkpt><trkpt lat="44.75683725383448" lon="7.851135794812286"><ele>375.0</ele><time>2026-04-10T08:59:35Z</time></trkpt><trkpt lat="44.75683699036241" lon="7.851252580358446"><ele>375.0</ele><time>2026-04-10T08:59:37Z</time></trkpt><trkpt lat="44.756834093146885" lon="7.851356777049527"><ele>375.0</ele><time>2026-04-10T08:59:39Z</time></trkpt><trkpt lat="44.756828105410186" lon="7.851471495515248"><ele>375.0</ele><time>2026-04-10T08:59:41Z</time></trkpt><trkpt lat="44.75683188617423" lon="7.85157796291609"><ele>375.0</ele><time>2026-04-10T08:59:43Z</time></trkpt><trkpt lat="44.75683237462897" lon="7.851679551803764"><ele>375.0</ele><time>2026-04-10T08:59:45Z</time></trkpt><trkpt lat="44.75682996215452" lon="7.851779277376822"><ele>375.0</ele><time>2026-04-10T08:59:47Z</time></trkpt><trkpt lat="44.75683316680264" lon="7.8518802821455385"><ele>375.0</ele><time>2026-04-10T08:59:49Z</time></trkpt><trkpt lat="44.756819478545026" lon="7.851971816167053"><ele>375.0</ele><time>2026-04-10T08:59:51Z</time></trkpt><trkpt lat="44.75681113186718" lon="7.852065772038244"><ele>375.0</ele><time>2026-04-10T08:59:54Z</time></trkpt><trkpt lat="44.756797540425026" lon="7.852153590630001"><ele>375.0</ele><time>2026-04-10T08:59:56Z</time></trkpt><trkpt lat="44.75678447779177" lon="7.852282469327878"><ele>375.8</ele><time>2026-04-10T08:59:58Z</time></trkpt><trkpt lat="44.75676854278515" lon="7.852406901635417"><ele>376.6</ele><time>2026-04-10T09:00:00Z</time></trkpt><trkpt lat="44.756766486657966" lon="7.852534087475857"><ele>377.4</ele><time>2026-04-10T09:00:02Z</time></trkpt><trkpt lat="44.75678954319942" lon="7.852681732139735"><ele>378.2</ele><time>2026-04-10T09:00:04Z</time></trkpt><trkpt lat="44.756840120166814" lon="7.852820615598352"><ele>379.0</ele><time>2026-04-10T09:00:06Z</time></trkpt><trkpt lat="44.75685583147509" lon="7.852964440689656"><ele>379.4</ele><time>2026-04-10T09:00:08Z</time></trkpt><trkpt lat="44.756834024102446" lon="7.85311344762771"><ele>379.79999999999995</ele><time>2026-04-10T09:00:10Z</time></trkpt><trkpt lat="44.7568020054491" lon="7.8532456201358425"><ele>380.20000000000005</ele><time>2026-04-10T09:00:12Z</time></trkpt><trkpt lat="44.75675888543845" lon="7.853378014609401"><ele>380.6</ele><time>2026-04-10T09:00:14Z</time></trkpt><trkpt lat="44.75672758787075" lon="7.853509964093475"><ele>381.0</ele><time>2026-04-10T09:00:16Z</time></trkpt><trkpt lat="44.756682916105255" lon="7.853642162785554"><ele>381.5</ele><time>2026-04-10T09:00:18Z</time></trkpt><trkpt lat="44.75661968942428" lon="7.853763219307976"><ele>382.0</ele><time>2026-04-10T09:00:20Z</time></trkpt><trkpt lat="44.7565827848548" lon="7.8538965394396305"><ele>382.5</ele><time>2026-04-10T09:00:22Z</time></trkpt><trkpt lat="44.75655207996795" lon="7.854001785257557"><ele>383.0</ele><time>2026-04-10T09:00:24Z</time></trkpt><trkpt lat="44.75653417726335" lon="7.854086930523147"><ele>383.5</ele><time>2026-04-10T09:00:25.999Z</time></trkpt><trkpt lat="44.75652856211911" lon="7.854203960994014"><ele>384.0</ele><time>2026-04-10T09:00:29.999Z</time></trkpt><trkpt lat="44.75650770045373" lon="7.854321165190915"><ele>384.3333333333333</ele><time>2026-04-10T09:00:32.999Z</time></trkpt><trkpt lat="44.75648161595255" lon="7.854449141895471"><ele>384.66666666666663</ele><time>2026-04-10T09:00:35.999Z</time></trkpt><trkpt lat="44.75644360341812" lon="7.854538166685514"><ele>385.0</ele><time>2026-04-10T09:00:38.999Z</time></trkpt><trkpt lat="44.75639487039502" lon="7.854613400361375"><ele>385.3333333333333</ele><time>2026-04-10T09:00:40.999Z</time></trkpt><trkpt lat="44.75634729093169" lon="7.854691919719694"><ele>385.66666666666663</ele><time>2026-04-10T09:00:42.999Z</time></trkpt><trkpt lat="44.756296624269986" lon="7.854772195309377"><ele>386.0</ele><time>2026-04-10T09:00:45.999Z</time></trkpt><trkpt lat="44.75626732719299" lon="7.854875836252675"><ele>385.99999999999994</ele><time>2026-04-10T09:00:48.999Z</time></trkpt><trkpt lat="44.75623101567078" lon="7.854951190921077"><ele>386.0</ele><time>2026-04-10T09:00:51.999Z</time></trkpt><trkpt lat="44.756180039721116" lon="7.855041209933235"><ele>386.0</ele><time>2026-04-10T09:00:56.999Z</time></trkpt><trkpt lat="44.756121321260714" lon="7.855123943859471"><ele>386.0</ele><time>2026-04-10T09:01:00.999Z</time></trkpt><trkpt lat="44.75605863674736" lon="7.855207876604512"><ele>385.99999999999994</ele><time>2026-04-10T09:01:02.999Z</time></trkpt><trkpt lat="44.755999168918564" lon="7.855282905596063"><ele>386.0</ele><time>2026-04-10T09:01:05.999Z</time></trkpt><trkpt lat="44.75594373488033" lon="7.855346556855911"><ele>386.16666666666663</ele><time>2026-04-10T09:01:09.999Z</time></trkpt><trkpt lat="44.755889131833065" lon="7.855411383471866"><ele>386.3333333333333</ele><time>2026-04-10T09:01:11.999Z</time></trkpt><trkpt lat="44.755841751325576" lon="7.855527581173158"><ele>386.5</ele><time>2026-04-10T09:01:14.999Z</time></trkpt><trkpt lat="44.75580766250419" lon="7.855615052040141"><ele>386.66666666666663</ele><time>2026-04-10T09:01:16.999Z</time></trkpt><trkpt lat="44.75576345028023" lon="7.855700765869963"><ele>386.8333333333333</ele><time>2026-04-10T09:01:18.999Z</time></trkpt><trkpt lat="44.755717628637775" lon="7.8557993633999645"><ele>387.0</ele><time>2026-04-10T09:01:20.999Z</time></trkpt><trkpt lat="44.7556755950767" lon="7.855904257813098"><ele>387.1666666666667</ele><time>2026-04-10T09:01:22.999Z</time></trkpt><trkpt lat="44.75563718303161" lon="7.85600817831859"><ele>387.33333333333337</ele><time>2026-04-10T09:01:24.999Z</time></trkpt><trkpt lat="44.755592376357725" lon="7.856104298995221"><ele>387.5</ele><time>2026-04-10T09:01:26.999Z</time></trkpt><trkpt lat="44.75555793454466" lon="7.856213009147181"><ele>387.6666666666667</ele><time>2026-04-10T09:01:28.999Z</time></trkpt><trkpt lat="44.7555186517091" lon="7.856314218866413"><ele>387.83333333333337</ele><time>2026-04-10T09:01:30.999Z</time></trkpt><trkpt lat="44.75546960769731" lon="7.856430579480375"><ele>388.0</ele><time>2026-04-10T09:01:32.999Z</time></trkpt><trkpt lat="44.75543889162339" lon="7.85654524050769"><ele>388.00000000000006</ele><time>2026-04-10T09:01:34.999Z</time></trkpt><trkpt lat="44.75540053620261" lon="7.856653739644843"><ele>388.0</ele><time>2026-04-10T09:01:36.999Z</time></trkpt><trkpt lat="44.75536676752475" lon="7.856776407907734"><ele>388.0</ele><time>2026-04-10T09:01:38.999Z</time></trkpt><trkpt lat="44.75534226849444" lon="7.85689282022515"><ele>388.0</ele><time>2026-04-10T09:01:41Z</time></trkpt><trkpt lat="44.75531285724976" lon="7.856980756532665"><ele>388.00000000000006</ele><time>2026-04-10T09:01:44Z</time></trkpt><trkpt lat="44.75531766007802" lon="7.857094310039151"><ele>388.0</ele><time>2026-04-10T09:01:47Z</time></trkpt><trkpt lat="44.75537053033163" lon="7.857144703049708"><ele>387.50000000000006</ele><time>2026-04-10T09:01:49Z</time></trkpt><trkpt lat="44.755446870430085" lon="7.8571781321944805"><ele>387.0</ele><time>2026-04-10T09:01:52Z</time></trkpt><trkpt lat="44.75552155256253" lon="7.857196698020288"><ele>386.5</ele><time>2026-04-10T09:01:54Z</time></trkpt><trkpt lat="44.75559038158903" lon="7.857179935062246"><ele>386.0</ele><time>2026-04-10T09:01:57Z</time></trkpt><trkpt lat="44.75571241530916" lon="7.857218111464173"><ele>385.50000000000006</ele><time>2026-04-10T09:01:58Z</time></trkpt><trkpt lat="44.75580401829652" lon="7.857176320485205"><ele>385.0</ele><time>2026-04-10T09:02:00Z</time></trkpt><trkpt lat="44.755899533710675" lon="7.857116870250944"><ele>385.0</ele><time>2026-04-10T09:02:02Z</time></trkpt><trkpt lat="44.75599725172017" lon="7.85707538812744"><ele>385.0</ele><time>2026-04-10T09:02:04Z</time></trkpt><trkpt lat="44.75610035888631" lon="7.8570606072347955"><ele>385.0</ele><time>2026-04-10T09:02:06Z</time></trkpt><trkpt lat="44.756196376417236" lon="7.857075144739022"><ele>385.0</ele><time>2026-04-10T09:02:08Z</time></trkpt><trkpt lat="44.75629474980013" lon="7.857080361652887"><ele>385.0</ele><time>2026-04-10T09:02:10Z</time></trkpt><trkpt lat="44.756384494257475" lon="7.857075031212852"><ele>384.4</ele><time>2026-04-10T09:02:12Z</time></trkpt><trkpt lat="44.75647091582752" lon="7.857045154248488"><ele>383.8</ele><time>2026-04-10T09:02:14Z</time></trkpt><trkpt lat="44.75656893845653" lon="7.856994859527614"><ele>383.20000000000005</ele><time>2026-04-10T09:02:16Z</time></trkpt><trkpt lat="44.756639529346536" lon="7.856892889981866"><ele>382.6</ele><time>2026-04-10T09:02:18Z</time></trkpt><trkpt lat="44.75661522796804" lon="7.856767642631079"><ele>382.0</ele><time>2026-04-10T09:02:20Z</time></trkpt><trkpt lat="44.75667656091389" lon="7.856687964821502"><ele>382.0</ele><time>2026-04-10T09:02:22Z</time></trkpt><trkpt lat="44.756770678240585" lon="7.856671171256816"><ele>382.0</ele><time>2026-04-10T09:02:24Z</time></trkpt><trkpt lat="44.75685318904295" lon="7.8566156221605565"><ele>382.0</ele><time>2026-04-10T09:02:26Z</time></trkpt><trkpt lat="44.756928107556426" lon="7.856582371226876"><ele>382.0</ele><time>2026-04-10T09:02:28Z</time></trkpt><trkpt lat="44.75700674933415" lon="7.8565066871351235"><ele>382.0</ele><time>2026-04-10T09:02:30Z</time></trkpt><trkpt lat="44.75707193731386" lon="7.856442712253387"><ele>382.0</ele><time>2026-04-10T09:02:32Z</time></trkpt><trkpt lat="44.757130467133244" lon="7.856403808870589"><ele>379.8333333333333</ele><time>2026-04-10T09:02:34Z</time></trkpt><trkpt lat="44.757216338221404" lon="7.856398662204257"><ele>377.66666666666663</ele><time>2026-04-10T09:02:36.999Z</time></trkpt><trkpt lat="44.75728637133793" lon="7.856418432911854"><ele>375.5</ele><time>2026-04-10T09:02:38.999Z</time></trkpt><trkpt lat="44.75734634513943" lon="7.85635747015143"><ele>373.3333333333333</ele><time>2026-04-10T09:02:40.999Z</time></trkpt><trkpt lat="44.75738277234475" lon="7.856233903470647"><ele>371.1666666666667</ele><time>2026-04-10T09:02:43.999Z</time></trkpt><trkpt lat="44.757355122676415" lon="7.8561284606139585"><ele>369.0</ele><time>2026-04-10T09:02:46.999Z</time></trkpt><trkpt lat="44.75728306379525" lon="7.856071583098935"><ele>369.0</ele><time>2026-04-10T09:02:48.999Z</time></trkpt><trkpt lat="44.75721275720141" lon="7.856022205152303"><ele>369.0</ele><time>2026-04-10T09:02:51.999Z</time></trkpt><trkpt lat="44.75715258724323" lon="7.855975877496168"><ele>369.0</ele><time>2026-04-10T09:02:53.999Z</time></trkpt><trkpt lat="44.75715950784646" lon="7.855858111658652"><ele>369.0</ele><time>2026-04-10T09:02:57.999Z</time></trkpt><trkpt lat="44.757228160059405" lon="7.855781671805776"><ele>369.0</ele><time>2026-04-10T09:03:00.999Z</time></trkpt><trkpt lat="44.75731034190365" lon="7.8556958464414635"><ele>369.0</ele><time>2026-04-10T09:03:03.999Z</time></trkpt><trkpt lat="44.75737425268144" lon="7.8555855977400615"><ele>369.4</ele><time>2026-04-10T09:03:05.999Z</time></trkpt><trkpt lat="44.75745890503895" lon="7.855485160450139"><ele>369.79999999999995</ele><time>2026-04-10T09:03:07.999Z</time></trkpt><trkpt lat="44.75753764091377" lon="7.855420217043394"><ele>370.20000000000005</ele><time>2026-04-10T09:03:09.999Z</time></trkpt><trkpt lat="44.757604822262635" lon="7.8553381722334565"><ele>370.6</ele><time>2026-04-10T09:03:11.999Z</time></trkpt><trkpt lat="44.75765570531963" lon="7.855226872380419"><ele>371.0</ele><time>2026-04-10T09:03:13.999Z</time></trkpt><trkpt lat="44.75771047864635" lon="7.8551540648930995"><ele>370.1666666666667</ele><time>2026-04-10T09:03:15.999Z</time></trkpt><trkpt lat="44.75776296153763" lon="7.855099355345647"><ele>369.33333333333337</ele><time>2026-04-10T09:03:32.999Z</time></trkpt><trkpt lat="44.75776975967793" lon="7.854936574849822"><ele>368.5</ele><time>2026-04-10T09:04:02Z</time></trkpt><trkpt lat="44.7577820928779" lon="7.854830434462378"><ele>367.6666666666667</ele><time>2026-04-10T09:04:08Z</time></trkpt><trkpt lat="44.7577691936445" lon="7.854927353583468"><ele>366.8333333333333</ele><time>2026-04-10T09:04:49.999Z</time></trkpt><trkpt lat="44.757741977921405" lon="7.855022999392833"><ele>366.0</ele><time>2026-04-10T09:06:53.999Z</time></trkpt><trkpt lat="44.75777167255775" lon="7.855104208989012"><ele>366.14285714285717</ele><time>2026-04-10T09:07:07.999Z</time></trkpt><trkpt lat="44.75780771947385" lon="7.855148989126671"><ele>366.28571428571433</ele><time>2026-04-10T09:14:30.999Z</time></trkpt><trkpt lat="44.75788003345657" lon="7.855177124643234"><ele>366.42857142857144</ele><time>2026-04-10T09:14:34.999Z</time></trkpt><trkpt lat="44.75796163625748" lon="7.855226013965966"><ele>366.57142857142856</ele><time>2026-04-10T09:14:37.999Z</time></trkpt><trkpt lat="44.75802609635075" lon="7.855250379169022"><ele>366.7142857142857</ele><time>2026-04-10T09:14:39.999Z</time></trkpt><trkpt lat="44.758091268778294" lon="7.855278359955824"><ele>366.85714285714283</ele><time>2026-04-10T09:14:41.999Z</time></trkpt><trkpt lat="44.7581568771678" lon="7.855249335476976"><ele>367.0</ele><time>2026-04-10T09:14:43.999Z</time></trkpt><trkpt lat="44.75822747654119" lon="7.855198004748043"><ele>367.0</ele><time>2026-04-10T09:14:45.999Z</time></trkpt><trkpt lat="44.758299842814104" lon="7.855163912167997"><ele>367.0</ele><time>2026-04-10T09:14:47.999Z</time></trkpt><trkpt lat="44.75835961301581" lon="7.855199491185024"><ele>367.0</ele><time>2026-04-10T09:14:50.999Z</time></trkpt><trkpt lat="44.758304104000544" lon="7.855273496768197"><ele>367.0</ele><time>2026-04-10T09:14:54.999Z</time></trkpt><trkpt lat="44.75828786407943" lon="7.855359588016022"><ele>367.0</ele><time>2026-04-10T09:14:58.999Z</time></trkpt><trkpt lat="44.75826329293109" lon="7.8554435958585"><ele>367.0</ele><time>2026-04-10T09:15:01.999Z</time></trkpt><trkpt lat="44.75833365201028" lon="7.855414808957129"><ele>367.0</ele><time>2026-04-10T09:15:23.999Z</time></trkpt><trkpt lat="44.75839719278594" lon="7.855346133179895"><ele>367.0</ele><time>2026-04-10T09:15:26.999Z</time></trkpt><trkpt lat="44.75846070131431" lon="7.855288435972008"><ele>367.0</ele><time>2026-04-10T09:15:29.999Z</time></trkpt><trkpt lat="44.758530176595855" lon="7.855236955617336"><ele>367.0</ele><time>2026-04-10T09:15:32.999Z</time></trkpt><trkpt lat="44.75858706551213" lon="7.855172629494221"><ele>367.0</ele><time>2026-04-10T09:15:35.999Z</time></trkpt><trkpt lat="44.7586551554218" lon="7.855106192815487"><ele>367.0</ele><time>2026-04-10T09:15:38.999Z</time></trkpt><trkpt lat="44.75871289717683" lon="7.855066336328278"><ele>367.0</ele><time>2026-04-10T09:15:40.999Z</time></trkpt><trkpt lat="44.75878043238247" lon="7.8550042102860935"><ele>367.2857142857143</ele><time>2026-04-10T09:15:43.999Z</time></trkpt><trkpt lat="44.75884314845918" lon="7.854964386524257"><ele>367.5714285714286</ele><time>2026-04-10T09:15:47.999Z</time></trkpt><trkpt lat="44.75889836443945" lon="7.854911575451293"><ele>367.8571428571429</ele><time>2026-04-10T09:15:50.999Z</time></trkpt><trkpt lat="44.75895658521562" lon="7.854865406125679"><ele>368.1428571428571</ele><time>2026-04-10T09:15:53.999Z</time></trkpt><trkpt lat="44.75901722638572" lon="7.854824042136701"><ele>368.42857142857144</ele><time>2026-04-10T09:15:56.999Z</time></trkpt><trkpt lat="44.759083777037596" lon="7.854783795897782"><ele>368.7142857142857</ele><time>2026-04-10T09:16:00.999Z</time></trkpt><trkpt lat="44.75915976023889" lon="7.854746119408233"><ele>369.0</ele><time>2026-04-10T09:16:04.999Z</time></trkpt><trkpt lat="44.759237256404454" lon="7.8547320099907685"><ele>369.0</ele><time>2026-04-10T09:16:08.999Z</time></trkpt><trkpt lat="44.759303390321314" lon="7.85471600694971"><ele>369.0</ele><time>2026-04-10T09:16:11.999Z</time></trkpt><trkpt lat="44.75936863606619" lon="7.854715545596795"><ele>369.0</ele><time>2026-04-10T09:16:15.999Z</time></trkpt><trkpt lat="44.75944949619228" lon="7.854709310992958"><ele>369.0</ele><time>2026-04-10T09:16:19.999Z</time></trkpt><trkpt lat="44.759528383188005" lon="7.854682790694831"><ele>369.0</ele><time>2026-04-10T09:16:24Z</time></trkpt><trkpt lat="44.759592481564255" lon="7.854678128878182"><ele>369.0</ele><time>2026-04-10T09:16:27Z</time></trkpt><trkpt lat="44.759659482265754" lon="7.854677820472134"><ele>369.0</ele><time>2026-04-10T09:16:31Z</time></trkpt><trkpt lat="44.75971674210021" lon="7.8547380333393075"><ele>369.0</ele><time>2026-04-10T09:16:36Z</time></trkpt><trkpt lat="44.75969845087767" lon="7.854843592556149"><ele>369.0</ele><time>2026-04-10T09:16:41Z</time></trkpt><trkpt lat="44.759662066599404" lon="7.854965079687624"><ele>369.0</ele><time>2026-04-10T09:16:45Z</time></trkpt><trkpt lat="44.75962689075066" lon="7.855050945313862"><ele>369.0</ele><time>2026-04-10T09:16:49Z</time></trkpt><trkpt lat="44.75957186993193" lon="7.855170834869538"><ele>369.0</ele><time>2026-04-10T09:16:52Z</time></trkpt><trkpt lat="44.759520298050404" lon="7.855279078281244"><ele>369.0</ele><time>2026-04-10T09:16:55Z</time></trkpt><trkpt lat="44.75948899549916" lon="7.855357021842175"><ele>369.3333333333333</ele><time>2026-04-10T09:16:58Z</time></trkpt><trkpt lat="44.759449535049306" lon="7.85546404215522"><ele>369.6666666666667</ele><time>2026-04-10T09:17:01Z</time></trkpt><trkpt lat="44.75941004368738" lon="7.855589852502104"><ele>370.0</ele><time>2026-04-10T09:17:04Z</time></trkpt><trkpt lat="44.75938263441102" lon="7.855684687697172"><ele>370.33333333333337</ele><time>2026-04-10T09:17:06Z</time></trkpt><trkpt lat="44.759351468605104" lon="7.855799470734744"><ele>370.6666666666667</ele><time>2026-04-10T09:17:09Z</time></trkpt><trkpt lat="44.759323695195654" lon="7.855885628571268"><ele>371.0</ele><time>2026-04-10T09:17:12Z</time></trkpt><trkpt lat="44.759294103791774" lon="7.855988792977142"><ele>372.6</ele><time>2026-04-10T09:17:15Z</time></trkpt><trkpt lat="44.75926113868707" lon="7.856105453308293"><ele>374.20000000000005</ele><time>2026-04-10T09:17:18Z</time></trkpt><trkpt lat="44.75921169392373" lon="7.856256045560203"><ele>375.79999999999995</ele><time>2026-04-10T09:17:21Z</time></trkpt><trkpt lat="44.75918269669847" lon="7.856358963207146"><ele>377.4</ele><time>2026-04-10T09:17:23Z</time></trkpt><trkpt lat="44.75915150956695" lon="7.856466864531914"><ele>379.0</ele><time>2026-04-10T09:17:26Z</time></trkpt><trkpt lat="44.75911141954242" lon="7.856578612512032"><ele>379.0</ele><time>2026-04-10T09:17:28Z</time></trkpt><trkpt lat="44.75907582346607" lon="7.856709615054132"><ele>379.0</ele><time>2026-04-10T09:17:31Z</time></trkpt><trkpt lat="44.75902453311834" lon="7.856921737494903"><ele>379.0</ele><time>2026-04-10T09:17:33Z</time></trkpt><trkpt lat="44.75899345065313" lon="7.857024481893734"><ele>379.0</ele><time>2026-04-10T09:17:35Z</time></trkpt><trkpt lat="44.75894941992138" lon="7.85712863459685"><ele>379.0</ele><time>2026-04-10T09:17:37Z</time></trkpt><trkpt lat="44.758922479543756" lon="7.857235365545384"><ele>379.3333333333333</ele><time>2026-04-10T09:17:39Z</time></trkpt><trkpt lat="44.7588858842267" lon="7.857340161915427"><ele>379.66666666666663</ele><time>2026-04-10T09:17:41Z</time></trkpt><trkpt lat="44.75885474294556" lon="7.8574588405966574"><ele>380.0</ele><time>2026-04-10T09:17:43Z</time></trkpt><trkpt lat="44.758815928034615" lon="7.857557260467031"><ele>380.3333333333333</ele><time>2026-04-10T09:17:45Z</time></trkpt><trkpt lat="44.75878124888919" lon="7.857659895448295"><ele>380.6666666666667</ele><time>2026-04-10T09:17:47Z</time></trkpt><trkpt lat="44.758745622354304" lon="7.857765728532674"><ele>381.0</ele><time>2026-04-10T09:17:49Z</time></trkpt><trkpt lat="44.75870909068887" lon="7.857864471125717"><ele>381.3333333333333</ele><time>2026-04-10T09:17:51Z</time></trkpt><trkpt lat="44.758673924469065" lon="7.857953686881944"><ele>381.6666666666667</ele><time>2026-04-10T09:17:53Z</time></trkpt><trkpt lat="44.75863940574477" lon="7.858037229534021"><ele>382.0</ele><time>2026-04-10T09:17:55Z</time></trkpt><trkpt lat="44.75860579995072" lon="7.858136681686642"><ele>382.33333333333337</ele><time>2026-04-10T09:17:57Z</time></trkpt><trkpt lat="44.75856949940604" lon="7.8582192432930915"><ele>382.6666666666667</ele><time>2026-04-10T09:18:00Z</time></trkpt><trkpt lat="44.758522545437" lon="7.858363835237692"><ele>383.0</ele><time>2026-04-10T09:18:02Z</time></trkpt><trkpt lat="44.75848431484926" lon="7.858455691251213"><ele>383.33333333333337</ele><time>2026-04-10T09:18:04Z</time></trkpt><trkpt lat="44.75844073892039" lon="7.858543090976015"><ele>383.6666666666667</ele><time>2026-04-10T09:18:06Z</time></trkpt><trkpt lat="44.758415321024614" lon="7.858637776311613"><ele>384.0</ele><time>2026-04-10T09:18:08Z</time></trkpt><trkpt lat="44.758387482177746" lon="7.8587388900259185"><ele>384.33333333333337</ele><time>2026-04-10T09:18:10Z</time></trkpt><trkpt lat="44.75835294404038" lon="7.858833421233519"><ele>384.6666666666667</ele><time>2026-04-10T09:18:12Z</time></trkpt><trkpt lat="44.75831867335225" lon="7.858928272012592"><ele>385.0</ele><time>2026-04-10T09:18:14Z</time></trkpt><trkpt lat="44.75827746264183" lon="7.859024852723"><ele>385.00000000000006</ele><time>2026-04-10T09:18:17Z</time></trkpt><trkpt lat="44.758237805219835" lon="7.859147089482937"><ele>385.0</ele><time>2026-04-10T09:18:19Z</time></trkpt><trkpt lat="44.75821294495714" lon="7.859233529023598"><ele>385.0</ele><time>2026-04-10T09:18:21Z</time></trkpt><trkpt lat="44.75817806136534" lon="7.859334769441039"><ele>385.0</ele><time>2026-04-10T09:18:23Z</time></trkpt><trkpt lat="44.75813470527233" lon="7.859452396401509"><ele>385.00000000000006</ele><time>2026-04-10T09:18:25Z</time></trkpt><trkpt lat="44.75810545875935" lon="7.859562225223699"><ele>385.0</ele><time>2026-04-10T09:18:27Z</time></trkpt><trkpt lat="44.75807307487891" lon="7.8596608245191035"><ele>385.00000000000006</ele><time>2026-04-10T09:18:29.001Z</time></trkpt><trkpt lat="44.75803935675118" lon="7.859765434052112"><ele>385.0</ele><time>2026-04-10T09:18:31.001Z</time></trkpt><trkpt lat="44.75801216455798" lon="7.859860876329834"><ele>385.0</ele><time>2026-04-10T09:18:33.001Z</time></trkpt><trkpt lat="44.75798658946366" lon="7.8599604097884015"><ele>385.0</ele><time>2026-04-10T09:18:35.001Z</time></trkpt><trkpt lat="44.757948271410925" lon="7.860050270838594"><ele>385.00000000000006</ele><time>2026-04-10T09:18:37.001Z</time></trkpt><trkpt lat="44.75788578171398" lon="7.860135498241095"><ele>385.0</ele><time>2026-04-10T09:18:40.001Z</time></trkpt><trkpt lat="44.757837990693425" lon="7.8602166785859096"><ele>385.50000000000006</ele><time>2026-04-10T09:18:42.001Z</time></trkpt><trkpt lat="44.75778988477425" lon="7.860294709156868"><ele>386.0</ele><time>2026-04-10T09:18:44.001Z</time></trkpt><trkpt lat="44.75773875587975" lon="7.860366482151559"><ele>386.5</ele><time>2026-04-10T09:18:46Z</time></trkpt><trkpt lat="44.757689096057405" lon="7.860441066491201"><ele>387.0</ele><time>2026-04-10T09:18:48Z</time></trkpt><trkpt lat="44.75762746154726" lon="7.860508807828099"><ele>387.50000000000006</ele><time>2026-04-10T09:18:50Z</time></trkpt><trkpt lat="44.75756083360008" lon="7.86056766802041"><ele>388.0</ele><time>2026-04-10T09:18:52Z</time></trkpt><trkpt lat="44.75749142669795" lon="7.860617929293721"><ele>388.00000000000006</ele><time>2026-04-10T09:18:54Z</time></trkpt><trkpt lat="44.75744048658963" lon="7.860677282778163"><ele>388.0</ele><time>2026-04-10T09:18:56Z</time></trkpt><trkpt lat="44.7573683179362" lon="7.8607585050789375"><ele>388.0</ele><time>2026-04-10T09:18:59Z</time></trkpt><trkpt lat="44.75728195647125" lon="7.8608107669541365"><ele>388.0</ele><time>2026-04-10T09:19:02Z</time></trkpt><trkpt lat="44.75721445736456" lon="7.860848380651629"><ele>388.00000000000006</ele><time>2026-04-10T09:19:04Z</time></trkpt><trkpt lat="44.75714514101688" lon="7.860878179482283"><ele>388.0</ele><time>2026-04-10T09:19:06Z</time></trkpt><trkpt lat="44.7570774649816" lon="7.8609021074107925"><ele>388.0</ele><time>2026-04-10T09:19:08Z</time></trkpt><trkpt lat="44.75701445433502" lon="7.860909208326072"><ele>388.0</ele><time>2026-04-10T09:19:10Z</time></trkpt><trkpt lat="44.756924887651145" lon="7.860925806983575"><ele>388.0</ele><time>2026-04-10T09:19:13Z</time></trkpt><trkpt lat="44.756851904228895" lon="7.860926285347001"><ele>388.0</ele><time>2026-04-10T09:19:16Z</time></trkpt><trkpt lat="44.75678208138033" lon="7.860935422346246"><ele>388.0</ele><time>2026-04-10T09:19:18Z</time></trkpt><trkpt lat="44.756705389532414" lon="7.860943319875323"><ele>388.0</ele><time>2026-04-10T09:19:20Z</time></trkpt><trkpt lat="44.75663352373514" lon="7.860951185332257"><ele>388.0</ele><time>2026-04-10T09:19:22Z</time></trkpt><trkpt lat="44.756538215060935" lon="7.8609715487988465"><ele>387.6666666666667</ele><time>2026-04-10T09:19:24Z</time></trkpt><trkpt lat="44.75644433024374" lon="7.860986296677677"><ele>387.33333333333337</ele><time>2026-04-10T09:19:26Z</time></trkpt><trkpt lat="44.75635102798147" lon="7.861029881629682"><ele>387.0</ele><time>2026-04-10T09:19:28Z</time></trkpt><trkpt lat="44.75627769651639" lon="7.861081481520185"><ele>386.66666666666663</ele><time>2026-04-10T09:19:30Z</time></trkpt><trkpt lat="44.75620378270629" lon="7.861120390750021"><ele>386.3333333333333</ele><time>2026-04-10T09:19:32Z</time></trkpt><trkpt lat="44.75612943047915" lon="7.86117727234164"><ele>386.0</ele><time>2026-04-10T09:19:34Z</time></trkpt><trkpt lat="44.75604884426289" lon="7.861220477893283"><ele>386.49999999999994</ele><time>2026-04-10T09:19:36Z</time></trkpt><trkpt lat="44.75596840003556" lon="7.8612624512696305"><ele>387.0</ele><time>2026-04-10T09:19:38Z</time></trkpt><trkpt lat="44.75589246650632" lon="7.861283247529212"><ele>387.5</ele><time>2026-04-10T09:19:40Z</time></trkpt><trkpt lat="44.755809787489255" lon="7.861308872853877"><ele>388.0</ele><time>2026-04-10T09:19:42Z</time></trkpt><trkpt lat="44.75572717742998" lon="7.861336544642165"><ele>388.49999999999994</ele><time>2026-04-10T09:19:44Z</time></trkpt><trkpt lat="44.75564710267099" lon="7.861381661484771"><ele>389.0</ele><time>2026-04-10T09:19:46Z</time></trkpt><trkpt lat="44.75556403884852" lon="7.861429886283224"><ele>389.0</ele><time>2026-04-10T09:19:48Z</time></trkpt><trkpt lat="44.755497333869016" lon="7.8615034728051745"><ele>389.0</ele><time>2026-04-10T09:19:50Z</time></trkpt><trkpt lat="44.75542917024948" lon="7.861598834472595"><ele>389.0</ele><time>2026-04-10T09:19:52Z</time></trkpt><trkpt lat="44.75534986484679" lon="7.8616730407606354"><ele>389.0</ele><time>2026-04-10T09:19:54Z</time></trkpt><trkpt lat="44.75526697842639" lon="7.861747558471059"><ele>389.0</ele><time>2026-04-10T09:19:56Z</time></trkpt><trkpt lat="44.75519121935585" lon="7.8618217552440335"><ele>389.3333333333333</ele><time>2026-04-10T09:19:58Z</time></trkpt><trkpt lat="44.75511617347245" lon="7.861897150383583"><ele>389.66666666666663</ele><time>2026-04-10T09:20:00Z</time></trkpt><trkpt lat="44.75503779670243" lon="7.861970262278457"><ele>390.0</ele><time>2026-04-10T09:20:02Z</time></trkpt><trkpt lat="44.754966223395655" lon="7.862038403777039"><ele>390.33333333333337</ele><time>2026-04-10T09:20:04Z</time></trkpt><trkpt lat="44.75490000092677" lon="7.862119786280473"><ele>390.6666666666667</ele><time>2026-04-10T09:20:06Z</time></trkpt><trkpt lat="44.754838751865734" lon="7.862206035919842"><ele>391.0</ele><time>2026-04-10T09:20:08Z</time></trkpt><trkpt lat="44.75477722268854" lon="7.862285491240511"><ele>391.00000000000006</ele><time>2026-04-10T09:20:10Z</time></trkpt><trkpt lat="44.754710671670495" lon="7.862372597219822"><ele>391.0</ele><time>2026-04-10T09:20:12Z</time></trkpt><trkpt lat="44.75464122766312" lon="7.862453419574331"><ele>391.0</ele><time>2026-04-10T09:20:14Z</time></trkpt><trkpt lat="44.75456483370515" lon="7.862512681998616"><ele>391.0</ele><time>2026-04-10T09:20:16Z</time></trkpt><trkpt lat="44.75449839463756" lon="7.862582639882442"><ele>391.00000000000006</ele><time>2026-04-10T09:20:18Z</time></trkpt><trkpt lat="44.75443688348017" lon="7.8626611084554385"><ele>391.0</ele><time>2026-04-10T09:20:20Z</time></trkpt><trkpt lat="44.754382408704195" lon="7.862752607144468"><ele>391.83333333333337</ele><time>2026-04-10T09:20:22Z</time></trkpt><trkpt lat="44.75432285861124" lon="7.862828736925261"><ele>392.6666666666667</ele><time>2026-04-10T09:20:24Z</time></trkpt><trkpt lat="44.75425407196493" lon="7.862905354287411"><ele>393.5</ele><time>2026-04-10T09:20:26Z</time></trkpt><trkpt lat="44.754196522005664" lon="7.862975460158824"><ele>394.33333333333337</ele><time>2026-04-10T09:20:28Z</time></trkpt><trkpt lat="44.7541501511454" lon="7.863040524702316"><ele>395.1666666666667</ele><time>2026-04-10T09:20:30Z</time></trkpt><trkpt lat="44.75407758070805" lon="7.863140534661273"><ele>396.0</ele><time>2026-04-10T09:20:32Z</time></trkpt><trkpt lat="44.754023520984596" lon="7.863247733455958"><ele>396.0</ele><time>2026-04-10T09:20:34Z</time></trkpt><trkpt lat="44.75397346497553" lon="7.863350854346366"><ele>396.0</ele><time>2026-04-10T09:20:36.001Z</time></trkpt><trkpt lat="44.753939950785764" lon="7.863439915789323"><ele>396.0</ele><time>2026-04-10T09:20:38.001Z</time></trkpt><trkpt lat="44.75387844546839" lon="7.863495478557064"><ele>396.0</ele><time>2026-04-10T09:20:40.001Z</time></trkpt><trkpt lat="44.75382776316828" lon="7.86357427689503"><ele>396.0</ele><time>2026-04-10T09:20:42.001Z</time></trkpt><trkpt lat="44.75378867964846" lon="7.863652777555762"><ele>396.0</ele><time>2026-04-10T09:20:44.001Z</time></trkpt><trkpt lat="44.75375429382649" lon="7.863728723070534"><ele>396.0</ele><time>2026-04-10T09:20:46.001Z</time></trkpt><trkpt lat="44.75374575806733" lon="7.863829119520926"><ele>395.5714285714286</ele><time>2026-04-10T09:20:48.001Z</time></trkpt><trkpt lat="44.75372975967785" lon="7.863924038493549"><ele>395.1428571428571</ele><time>2026-04-10T09:20:51Z</time></trkpt><trkpt lat="44.753708842208134" lon="7.864008095329304"><ele>394.7142857142857</ele><time>2026-04-10T09:20:53Z</time></trkpt><trkpt lat="44.75371309519813" lon="7.864136924859531"><ele>394.28571428571433</ele><time>2026-04-10T09:20:56Z</time></trkpt><trkpt lat="44.75373285284403" lon="7.864244067868192"><ele>393.8571428571429</ele><time>2026-04-10T09:20:58Z</time></trkpt><trkpt lat="44.75377481699783" lon="7.864311796535625"><ele>393.42857142857144</ele><time>2026-04-10T09:21:00Z</time></trkpt><trkpt lat="44.75382509954168" lon="7.864387188846384"><ele>393.0</ele><time>2026-04-10T09:21:02Z</time></trkpt><trkpt lat="44.753840326271686" lon="7.8644956281797125"><ele>391.3333333333333</ele><time>2026-04-10T09:21:04Z</time></trkpt><trkpt lat="44.75381638127678" lon="7.864597655170373"><ele>389.6666666666667</ele><time>2026-04-10T09:21:06Z</time></trkpt><trkpt lat="44.75377236910832" lon="7.864695687738875"><ele>388.0</ele><time>2026-04-10T09:21:08Z</time></trkpt><trkpt lat="44.75372322368174" lon="7.86477101902651"><ele>386.33333333333337</ele><time>2026-04-10T09:21:10Z</time></trkpt><trkpt lat="44.75366962455794" lon="7.864874866632229"><ele>384.6666666666667</ele><time>2026-04-10T09:21:12Z</time></trkpt><trkpt lat="44.75363940626215" lon="7.864992584471173"><ele>383.0</ele><time>2026-04-10T09:21:14Z</time></trkpt><trkpt lat="44.753629696522424" lon="7.865108856777926"><ele>382.1666666666667</ele><time>2026-04-10T09:21:16Z</time></trkpt><trkpt lat="44.75364947097467" lon="7.865235302146844"><ele>381.33333333333337</ele><time>2026-04-10T09:21:18Z</time></trkpt><trkpt lat="44.7536769605507" lon="7.86532797715752"><ele>380.5</ele><time>2026-04-10T09:21:20Z</time></trkpt><trkpt lat="44.75370922210972" lon="7.865410221009585"><ele>379.6666666666667</ele><time>2026-04-10T09:21:22Z</time></trkpt><trkpt lat="44.75374174909371" lon="7.865508572226586"><ele>378.8333333333333</ele><time>2026-04-10T09:21:24Z</time></trkpt><trkpt lat="44.75376702262092" lon="7.865628365918533"><ele>378.0</ele><time>2026-04-10T09:21:26Z</time></trkpt><trkpt lat="44.75378439890453" lon="7.8657366251255265"><ele>378.0</ele><time>2026-04-10T09:21:28Z</time></trkpt><trkpt lat="44.753782255696635" lon="7.865843044180001"><ele>378.0</ele><time>2026-04-10T09:21:30Z</time></trkpt><trkpt lat="44.75377841972023" lon="7.8659596703320585"><ele>378.0</ele><time>2026-04-10T09:21:32Z</time></trkpt><trkpt lat="44.75380539912604" lon="7.866075358266221"><ele>378.0</ele><time>2026-04-10T09:21:34Z</time></trkpt><trkpt lat="44.753800037232736" lon="7.8662094220319565"><ele>378.0</ele><time>2026-04-10T09:21:36Z</time></trkpt><trkpt lat="44.75374921501924" lon="7.866337762698542"><ele>378.0</ele><time>2026-04-10T09:21:38Z</time></trkpt><trkpt lat="44.75368221354823" lon="7.86643498963804"><ele>377.42857142857144</ele><time>2026-04-10T09:21:40Z</time></trkpt><trkpt lat="44.75361868533571" lon="7.866499406407458"><ele>376.8571428571429</ele><time>2026-04-10T09:21:42Z</time></trkpt><trkpt lat="44.75355938829814" lon="7.8665614876063135"><ele>376.2857142857143</ele><time>2026-04-10T09:21:44Z</time></trkpt><trkpt lat="44.75350205330318" lon="7.866615280056253"><ele>375.7142857142857</ele><time>2026-04-10T09:21:46Z</time></trkpt><trkpt lat="44.753425214367226" lon="7.866623898931365"><ele>375.14285714285717</ele><time>2026-04-10T09:21:48Z</time></trkpt><trkpt lat="44.75334440598824" lon="7.866599622152118"><ele>374.57142857142856</ele><time>2026-04-10T09:21:50Z</time></trkpt><trkpt lat="44.753279841303836" lon="7.866580232714069"><ele>374.0</ele><time>2026-04-10T09:21:52Z</time></trkpt><trkpt lat="44.75320125978371" lon="7.8665204027136575"><ele>373.5</ele><time>2026-04-10T09:21:55Z</time></trkpt><trkpt lat="44.75314624068377" lon="7.86656554548864"><ele>373.0</ele><time>2026-04-10T09:21:57Z</time></trkpt><trkpt lat="44.75314746823901" lon="7.866667575949499"><ele>372.5</ele><time>2026-04-10T09:22:00Z</time></trkpt><trkpt lat="44.753159984911655" lon="7.866761179689772"><ele>372.0</ele><time>2026-04-10T09:22:02Z</time></trkpt><trkpt lat="44.75313986373318" lon="7.86690572577004"><ele>371.5</ele><time>2026-04-10T09:22:04Z</time></trkpt><trkpt lat="44.75311304429338" lon="7.867031207753827"><ele>371.0</ele><time>2026-04-10T09:22:06Z</time></trkpt><trkpt lat="44.75307112381905" lon="7.867125453667626"><ele>370.33333333333337</ele><time>2026-04-10T09:22:08Z</time></trkpt><trkpt lat="44.75305040948369" lon="7.867252443089035"><ele>369.6666666666667</ele><time>2026-04-10T09:22:10Z</time></trkpt><trkpt lat="44.753030352361144" lon="7.8673644321203575"><ele>369.0</ele><time>2026-04-10T09:22:12Z</time></trkpt><trkpt lat="44.75302234475249" lon="7.867464154476616"><ele>368.3333333333333</ele><time>2026-04-10T09:22:14Z</time></trkpt><trkpt lat="44.753050695671384" lon="7.867596031106464"><ele>367.66666666666663</ele><time>2026-04-10T09:22:16Z</time></trkpt><trkpt lat="44.75308785713638" lon="7.867719480846598"><ele>367.0</ele><time>2026-04-10T09:22:18Z</time></trkpt><trkpt lat="44.75312396774612" lon="7.867835860290904"><ele>366.3333333333333</ele><time>2026-04-10T09:22:20Z</time></trkpt><trkpt lat="44.753172984339976" lon="7.8679367669384925"><ele>365.66666666666663</ele><time>2026-04-10T09:22:22Z</time></trkpt><trkpt lat="44.753216331998026" lon="7.868015705423266"><ele>365.0</ele><time>2026-04-10T09:22:24Z</time></trkpt><trkpt lat="44.75324475108979" lon="7.8681143646401415"><ele>364.3333333333333</ele><time>2026-04-10T09:22:26Z</time></trkpt><trkpt lat="44.75325128388695" lon="7.868273259261538"><ele>363.6666666666667</ele><time>2026-04-10T09:22:28Z</time></trkpt><trkpt lat="44.75325659928411" lon="7.8683640502230405"><ele>363.0</ele><time>2026-04-10T09:22:29Z</time></trkpt><trkpt lat="44.753281298339026" lon="7.868537380070865"><ele>361.59999999999997</ele><time>2026-04-10T09:22:31Z</time></trkpt><trkpt lat="44.75330867790415" lon="7.868689240836219"><ele>360.2</ele><time>2026-04-10T09:22:33Z</time></trkpt><trkpt lat="44.75329005800569" lon="7.868825655918661"><ele>358.8</ele><time>2026-04-10T09:22:34.999Z</time></trkpt><trkpt lat="44.75325958369132" lon="7.8689643326390915"><ele>357.4</ele><time>2026-04-10T09:22:36.999Z</time></trkpt><trkpt lat="44.75325124220309" lon="7.869139296195481"><ele>356.0</ele><time>2026-04-10T09:22:38.999Z</time></trkpt><trkpt lat="44.75325316262651" lon="7.869307457089007"><ele>354.8</ele><time>2026-04-10T09:22:41.001Z</time></trkpt><trkpt lat="44.753247965081584" lon="7.869479698167508"><ele>353.6</ele><time>2026-04-10T09:22:43.001Z</time></trkpt><trkpt lat="44.753263804415326" lon="7.869635188189641"><ele>352.4</ele><time>2026-04-10T09:22:45.001Z</time></trkpt><trkpt lat="44.7532590924517" lon="7.8697684508991985"><ele>351.2</ele><time>2026-04-10T09:22:47.001Z</time></trkpt><trkpt lat="44.753248550883264" lon="7.869898446255279"><ele>350.0</ele><time>2026-04-10T09:22:49.001Z</time></trkpt><trkpt lat="44.75318556932593" lon="7.869962823522887"><ele>350.0</ele><time>2026-04-10T09:22:51.001Z</time></trkpt><trkpt lat="44.75309375249714" lon="7.869957126940184"><ele>350.0</ele><time>2026-04-10T09:22:53Z</time></trkpt><trkpt lat="44.75300456452686" lon="7.869995578389916"><ele>350.0</ele><time>2026-04-10T09:22:55Z</time></trkpt><trkpt lat="44.75293826272378" lon="7.870093794780957"><ele>350.0</ele><time>2026-04-10T09:22:57Z</time></trkpt><trkpt lat="44.75290935399606" lon="7.870221849415545"><ele>350.0</ele><time>2026-04-10T09:22:59Z</time></trkpt><trkpt lat="44.75288855206766" lon="7.870352099158894"><ele>350.33333333333337</ele><time>2026-04-10T09:23:01Z</time></trkpt><trkpt lat="44.752871263489794" lon="7.87048168319677"><ele>350.6666666666667</ele><time>2026-04-10T09:23:03Z</time></trkpt><trkpt lat="44.75285526758106" lon="7.870606589427351"><ele>351.0</ele><time>2026-04-10T09:23:05Z</time></trkpt><trkpt lat="44.75282928506337" lon="7.870727312661067"><ele>351.3333333333333</ele><time>2026-04-10T09:23:07Z</time></trkpt><trkpt lat="44.75278546085107" lon="7.870839798889392"><ele>351.66666666666663</ele><time>2026-04-10T09:23:09Z</time></trkpt><trkpt lat="44.752741672633974" lon="7.870922572529925"><ele>352.0</ele><time>2026-04-10T09:23:11Z</time></trkpt><trkpt lat="44.75268915624768" lon="7.871010153714181"><ele>352.0</ele><time>2026-04-10T09:23:13Z</time></trkpt><trkpt lat="44.75266270713633" lon="7.871137506746867"><ele>352.0</ele><time>2026-04-10T09:23:15Z</time></trkpt><trkpt lat="44.75263945315378" lon="7.871264034037503"><ele>352.0</ele><time>2026-04-10T09:23:17Z</time></trkpt><trkpt lat="44.752580446952926" lon="7.871356105639127"><ele>352.0</ele><time>2026-04-10T09:23:19Z</time></trkpt><trkpt lat="44.75250904535983" lon="7.871428633680623"><ele>352.0</ele><time>2026-04-10T09:23:21Z</time></trkpt><trkpt lat="44.75244552979091" lon="7.871522823462824"><ele>352.0</ele><time>2026-04-10T09:23:23Z</time></trkpt><trkpt lat="44.75238329905315" lon="7.871660047921639"><ele>352.0</ele><time>2026-04-10T09:23:26Z</time></trkpt><trkpt lat="44.752358463159915" lon="7.87177308194479"><ele>352.0</ele><time>2026-04-10T09:23:28Z</time></trkpt><trkpt lat="44.75232861968763" lon="7.87192980106333"><ele>352.0</ele><time>2026-04-10T09:23:30Z</time></trkpt><trkpt lat="44.75229303490434" lon="7.872048082133359"><ele>352.0</ele><time>2026-04-10T09:23:32Z</time></trkpt><trkpt lat="44.75226342302052" lon="7.872159802420861"><ele>352.0</ele><time>2026-04-10T09:23:34Z</time></trkpt><trkpt lat="44.75222752289173" lon="7.872258536872068"><ele>352.0</ele><time>2026-04-10T09:23:37Z</time></trkpt><trkpt lat="44.7521536016063" lon="7.872412067816277"><ele>352.0</ele><time>2026-04-10T09:23:39Z</time></trkpt><trkpt lat="44.75211409014553" lon="7.872521016680076"><ele>352.0</ele><time>2026-04-10T09:23:41Z</time></trkpt><trkpt lat="44.752073671885036" lon="7.872620050280628"><ele>352.0</ele><time>2026-04-10T09:23:43Z</time></trkpt><trkpt lat="44.75202688851422" lon="7.872719747566061"><ele>352.3333333333333</ele><time>2026-04-10T09:23:45Z</time></trkpt><trkpt lat="44.751984126455014" lon="7.8728253551618455"><ele>352.66666666666663</ele><time>2026-04-10T09:23:47Z</time></trkpt><trkpt lat="44.75194506847905" lon="7.872930238059226"><ele>353.0</ele><time>2026-04-10T09:23:49Z</time></trkpt><trkpt lat="44.751900224432305" lon="7.873035365513303"><ele>353.3333333333333</ele><time>2026-04-10T09:23:51Z</time></trkpt><trkpt lat="44.751849580529345" lon="7.8731350021829165"><ele>353.6666666666667</ele><time>2026-04-10T09:23:53Z</time></trkpt><trkpt lat="44.75180448515206" lon="7.873230574014898"><ele>354.0</ele><time>2026-04-10T09:23:55Z</time></trkpt><trkpt lat="44.75175800951235" lon="7.873333089290037"><ele>354.0</ele><time>2026-04-10T09:23:57Z</time></trkpt><trkpt lat="44.75170835078439" lon="7.8734173417695965"><ele>354.0</ele><time>2026-04-10T09:23:59Z</time></trkpt><trkpt lat="44.75165950270198" lon="7.873500728603808"><ele>354.0</ele><time>2026-04-10T09:24:01Z</time></trkpt><trkpt lat="44.751618415888586" lon="7.873580268494746"><ele>354.0</ele><time>2026-04-10T09:24:03Z</time></trkpt><trkpt lat="44.75156158957857" lon="7.87365376405702"><ele>354.0</ele><time>2026-04-10T09:24:05Z</time></trkpt><trkpt lat="44.751507189782345" lon="7.873707772243427"><ele>354.0</ele><time>2026-04-10T09:24:08Z</time></trkpt><trkpt lat="44.751452549509196" lon="7.873771624257259"><ele>354.0</ele><time>2026-04-10T09:24:09Z</time></trkpt><trkpt lat="44.75139053165789" lon="7.873838547264964"><ele>354.2</ele><time>2026-04-10T09:24:12Z</time></trkpt><trkpt lat="44.75134652019877" lon="7.873905508711403"><ele>354.4</ele><time>2026-04-10T09:24:14Z</time></trkpt><trkpt lat="44.75128334390685" lon="7.873953110476148"><ele>354.6</ele><time>2026-04-10T09:24:16Z</time></trkpt><trkpt lat="44.7511559518693" lon="7.8741453808938955"><ele>354.8</ele><time>2026-04-10T09:24:18Z</time></trkpt><trkpt lat="44.751098632122165" lon="7.874225521768882"><ele>355.0</ele><time>2026-04-10T09:24:20Z</time></trkpt><trkpt lat="44.75103568188392" lon="7.874311697311101"><ele>355.0</ele><time>2026-04-10T09:24:21.999Z</time></trkpt><trkpt lat="44.75096172341788" lon="7.874393992402622"><ele>355.0</ele><time>2026-04-10T09:24:23.999Z</time></trkpt><trkpt lat="44.75089027972892" lon="7.874467011424713"><ele>355.0</ele><time>2026-04-10T09:24:25.999Z</time></trkpt><trkpt lat="44.750831527834066" lon="7.874556036252815"><ele>355.0</ele><time>2026-04-10T09:24:27.999Z</time></trkpt><trkpt lat="44.75075607535926" lon="7.874636883769812"><ele>355.0</ele><time>2026-04-10T09:24:29.999Z</time></trkpt><trkpt lat="44.7506929913391" lon="7.874720894056582"><ele>355.0</ele><time>2026-04-10T09:24:31.999Z</time></trkpt><trkpt lat="44.75062188355309" lon="7.874784925182448"><ele>355.0</ele><time>2026-04-10T09:24:33.999Z</time></trkpt><trkpt lat="44.750553638849375" lon="7.874851564072002"><ele>355.0</ele><time>2026-04-10T09:24:35.999Z</time></trkpt><trkpt lat="44.75048160331217" lon="7.87491656371668"><ele>355.0</ele><time>2026-04-10T09:24:37.999Z</time></trkpt><trkpt lat="44.750398162876756" lon="7.874966451586194"><ele>355.0</ele><time>2026-04-10T09:24:39.999Z</time></trkpt><trkpt lat="44.750325689199194" lon="7.875026398632915"><ele>355.0</ele><time>2026-04-10T09:24:41.999Z</time></trkpt><trkpt lat="44.750256644204526" lon="7.875087981160542"><ele>355.5</ele><time>2026-04-10T09:24:43.999Z</time></trkpt><trkpt lat="44.750189452827435" lon="7.875169208155024"><ele>356.0</ele><time>2026-04-10T09:24:45.999Z</time></trkpt><trkpt lat="44.7501391822819" lon="7.875252174092688"><ele>356.5</ele><time>2026-04-10T09:24:48Z</time></trkpt><trkpt lat="44.75009730700338" lon="7.875350167831826"><ele>357.0</ele><time>2026-04-10T09:24:50Z</time></trkpt><trkpt lat="44.75005899735274" lon="7.875458868761722"><ele>357.5</ele><time>2026-04-10T09:24:52Z</time></trkpt><trkpt lat="44.75003127169979" lon="7.875563958580685"><ele>358.0</ele><time>2026-04-10T09:24:54Z</time></trkpt><trkpt lat="44.750010685223366" lon="7.875677734793099"><ele>358.0</ele><time>2026-04-10T09:24:56Z</time></trkpt><trkpt lat="44.75000016599837" lon="7.875796502121834"><ele>358.0</ele><time>2026-04-10T09:24:58Z</time></trkpt><trkpt lat="44.7500008373147" lon="7.875923516148913"><ele>358.0</ele><time>2026-04-10T09:25:00Z</time></trkpt><trkpt lat="44.74998523734413" lon="7.876035867468185"><ele>358.0</ele><time>2026-04-10T09:25:02Z</time></trkpt><trkpt lat="44.74995196371087" lon="7.876152952279822"><ele>358.0</ele><time>2026-04-10T09:25:04Z</time></trkpt><trkpt lat="44.74992790572281" lon="7.876267486235824"><ele>358.0</ele><time>2026-04-10T09:25:06Z</time></trkpt><trkpt lat="44.74990530390803" lon="7.876360887721321"><ele>358.0</ele><time>2026-04-10T09:25:09Z</time></trkpt><trkpt lat="44.74988685682039" lon="7.876460706976368"><ele>358.0</ele><time>2026-04-10T09:25:10Z</time></trkpt><trkpt lat="44.74985822083508" lon="7.87658613964672"><ele>358.0</ele><time>2026-04-10T09:25:12Z</time></trkpt><trkpt lat="44.74983914949578" lon="7.8766885682904295"><ele>358.0</ele><time>2026-04-10T09:25:14Z</time></trkpt><trkpt lat="44.74981394943221" lon="7.87678745438317"><ele>358.0</ele><time>2026-04-10T09:25:17Z</time></trkpt><trkpt lat="44.749785104144046" lon="7.876917744614856"><ele>358.0</ele><time>2026-04-10T09:25:19Z</time></trkpt><trkpt lat="44.749749828377006" lon="7.877051995002315"><ele>359.4</ele><time>2026-04-10T09:25:21Z</time></trkpt><trkpt lat="44.74971256121657" lon="7.877153024116531"><ele>360.79999999999995</ele><time>2026-04-10T09:25:23Z</time></trkpt><trkpt lat="44.74967936632277" lon="7.877272506220273"><ele>362.2</ele><time>2026-04-10T09:25:26Z</time></trkpt><trkpt lat="44.749647221686374" lon="7.877383938128704"><ele>363.6</ele><time>2026-04-10T09:25:29Z</time></trkpt><trkpt lat="44.74961546105687" lon="7.877474192284053"><ele>365.0</ele><time>2026-04-10T09:25:32Z</time></trkpt><trkpt lat="44.74955365460636" lon="7.8776716474470865"><ele>365.83333333333337</ele><time>2026-04-10T09:25:33Z</time></trkpt><trkpt lat="44.74951678640687" lon="7.877766493656036"><ele>366.6666666666667</ele><time>2026-04-10T09:25:35Z</time></trkpt><trkpt lat="44.74947314069158" lon="7.8778589796104015"><ele>367.5</ele><time>2026-04-10T09:25:37Z</time></trkpt><trkpt lat="44.749450265748244" lon="7.877965223623857"><ele>368.3333333333333</ele><time>2026-04-10T09:25:39Z</time></trkpt><trkpt lat="44.749469466913176" lon="7.878084890561511"><ele>369.16666666666663</ele><time>2026-04-10T09:25:41Z</time></trkpt><trkpt lat="44.74952081063469" lon="7.878178440075459"><ele>370.0</ele><time>2026-04-10T09:25:43Z</time></trkpt><trkpt lat="44.749550816254086" lon="7.878290567897518"><ele>370.0</ele><time>2026-04-10T09:25:45Z</time></trkpt><trkpt lat="44.749574704851426" lon="7.878386820208637"><ele>370.0</ele><time>2026-04-10T09:25:47Z</time></trkpt><trkpt lat="44.74957731698255" lon="7.878504930620218"><ele>370.0</ele><time>2026-04-10T09:25:49Z</time></trkpt><trkpt lat="44.749570152592256" lon="7.878631152657547"><ele>370.0</ele><time>2026-04-10T09:25:52Z</time></trkpt><trkpt lat="44.74955009844034" lon="7.878746277487664"><ele>370.0</ele><time>2026-04-10T09:25:55Z</time></trkpt><trkpt lat="44.74954392784289" lon="7.878842138013166"><ele>370.0</ele><time>2026-04-10T09:25:56Z</time></trkpt><trkpt lat="44.74953012368669" lon="7.878950713300663"><ele>370.2857142857143</ele><time>2026-04-10T09:25:58Z</time></trkpt><trkpt lat="44.74951046697469" lon="7.8790503862281005"><ele>370.57142857142856</ele><time>2026-04-10T09:25:59.999Z</time></trkpt><trkpt lat="44.749495187855985" lon="7.87914600870516"><ele>370.8571428571429</ele><time>2026-04-10T09:26:01.999Z</time></trkpt><trkpt lat="44.74947605997182" lon="7.879244417857165"><ele>371.1428571428571</ele><time>2026-04-10T09:26:03.999Z</time></trkpt><trkpt lat="44.74946839287021" lon="7.879348179388168"><ele>371.42857142857144</ele><time>2026-04-10T09:26:05.999Z</time></trkpt><trkpt lat="44.749460219099845" lon="7.879463101186199"><ele>371.7142857142857</ele><time>2026-04-10T09:26:08.999Z</time></trkpt><trkpt lat="44.749453117480584" lon="7.879560222020182"><ele>372.0</ele><time>2026-04-10T09:26:10.999Z</time></trkpt><trkpt lat="44.749451876520595" lon="7.87965599986648"><ele>372.14285714285717</ele><time>2026-04-10T09:26:11.999Z</time></trkpt><trkpt lat="44.749449003790765" lon="7.879757727423773"><ele>372.2857142857143</ele><time>2026-04-10T09:26:13.999Z</time></trkpt><trkpt lat="44.74945491607764" lon="7.879860231384007"><ele>372.42857142857144</ele><time>2026-04-10T09:26:15.999Z</time></trkpt><trkpt lat="44.74945279572474" lon="7.879966162149215"><ele>372.57142857142856</ele><time>2026-04-10T09:26:17.999Z</time></trkpt><trkpt lat="44.74945422372127" lon="7.880068202804734"><ele>372.7142857142857</ele><time>2026-04-10T09:26:19.999Z</time></trkpt><trkpt lat="44.749454803571496" lon="7.880175180232461"><ele>372.8571428571429</ele><time>2026-04-10T09:26:21.999Z</time></trkpt><trkpt lat="44.74945460526964" lon="7.880272941345536"><ele>373.0</ele><time>2026-04-10T09:26:23.999Z</time></trkpt><trkpt lat="44.749459551286456" lon="7.880386550725609"><ele>373.2</ele><time>2026-04-10T09:26:26.999Z</time></trkpt><trkpt lat="44.74946631829786" lon="7.880492359132828"><ele>373.4</ele><time>2026-04-10T09:26:29.999Z</time></trkpt><trkpt lat="44.74946875924096" lon="7.8806084371170115"><ele>373.59999999999997</ele><time>2026-04-10T09:26:32.999Z</time></trkpt><trkpt lat="44.7494588626484" lon="7.88070631810234"><ele>373.79999999999995</ele><time>2026-04-10T09:26:35.999Z</time></trkpt><trkpt lat="44.74944566493403" lon="7.880916493152914"><ele>374.0</ele><time>2026-04-10T09:26:36.999Z</time></trkpt><trkpt lat="44.74941353151895" lon="7.881025129297544"><ele>374.0</ele><time>2026-04-10T09:26:38.999Z</time></trkpt><trkpt lat="44.7493784004992" lon="7.881128835023405"><ele>374.0</ele><time>2026-04-10T09:26:40.999Z</time></trkpt><trkpt lat="44.749333256700965" lon="7.881226602071768"><ele>374.0</ele><time>2026-04-10T09:26:42.999Z</time></trkpt><trkpt lat="44.749300416439986" lon="7.881326557282788"><ele>374.0</ele><time>2026-04-10T09:26:44.999Z</time></trkpt><trkpt lat="44.74926487526429" lon="7.8814214042292035"><ele>374.0</ele><time>2026-04-10T09:26:46.999Z</time></trkpt><trkpt lat="44.749224487706776" lon="7.881519666985294"><ele>374.0</ele><time>2026-04-10T09:26:48.999Z</time></trkpt><trkpt lat="44.749192712647755" lon="7.881614541800955"><ele>374.2857142857143</ele><time>2026-04-10T09:26:50.999Z</time></trkpt><trkpt lat="44.74916043009072" lon="7.881704665909433"><ele>374.5714285714286</ele><time>2026-04-10T09:26:53Z</time></trkpt><trkpt lat="44.749130432497275" lon="7.8817947197704274"><ele>374.8571428571429</ele><time>2026-04-10T09:26:55Z</time></trkpt><trkpt lat="44.7490875970373" lon="7.8818722227409825"><ele>375.1428571428571</ele><time>2026-04-10T09:26:57Z</time></trkpt><trkpt lat="44.749046402445266" lon="7.881940481273364"><ele>375.42857142857144</ele><time>2026-04-10T09:26:59Z</time></trkpt><trkpt lat="44.74900900892382" lon="7.882017136938898"><ele>375.7142857142857</ele><time>2026-04-10T09:27:01Z</time></trkpt><trkpt lat="44.74896735483416" lon="7.882085858006445"><ele>376.0</ele><time>2026-04-10T09:27:03Z</time></trkpt><trkpt lat="44.748916085374674" lon="7.882146662424426"><ele>376.0</ele><time>2026-04-10T09:27:05Z</time></trkpt><trkpt lat="44.748862670355784" lon="7.882200023229219"><ele>376.0</ele><time>2026-04-10T09:27:07Z</time></trkpt><trkpt lat="44.74880901382154" lon="7.882256083980854"><ele>376.0</ele><time>2026-04-10T09:27:09Z</time></trkpt><trkpt lat="44.74875503539802" lon="7.882308679109811"><ele>376.0</ele><time>2026-04-10T09:27:11Z</time></trkpt><trkpt lat="44.74870000640205" lon="7.882358633590362"><ele>376.0</ele><time>2026-04-10T09:27:14Z</time></trkpt><trkpt lat="44.7486472899705" lon="7.88240910254452"><ele>376.0</ele><time>2026-04-10T09:27:16Z</time></trkpt><trkpt lat="44.7485783210041" lon="7.882485839900791"><ele>376.0</ele><time>2026-04-10T09:27:19Z</time></trkpt><trkpt lat="44.74850804269155" lon="7.882573079778057"><ele>376.5</ele><time>2026-04-10T09:27:22Z</time></trkpt><trkpt lat="44.74845495145958" lon="7.88263103091517"><ele>377.0</ele><time>2026-04-10T09:27:23Z</time></trkpt><trkpt lat="44.74838530633968" lon="7.882717977748066"><ele>377.5</ele><time>2026-04-10T09:27:26Z</time></trkpt><trkpt lat="44.74833714343656" lon="7.882796497493044"><ele>378.0</ele><time>2026-04-10T09:27:29Z</time></trkpt><trkpt lat="44.7482753177163" lon="7.882909419929575"><ele>378.5</ele><time>2026-04-10T09:27:32Z</time></trkpt><trkpt lat="44.74823399203675" lon="7.882989149426249"><ele>379.0</ele><time>2026-04-10T09:27:35Z</time></trkpt><trkpt lat="44.748191988401054" lon="7.88307872879514"><ele>379.0</ele><time>2026-04-10T09:27:38Z</time></trkpt><trkpt lat="44.74814431343122" lon="7.883206108279627"><ele>379.0</ele><time>2026-04-10T09:27:41Z</time></trkpt><trkpt lat="44.748108510620945" lon="7.883306825229025"><ele>379.0</ele><time>2026-04-10T09:27:44Z</time></trkpt><trkpt lat="44.74808099010185" lon="7.883407790865779"><ele>379.0</ele><time>2026-04-10T09:27:47Z</time></trkpt><trkpt lat="44.74804857913088" lon="7.883507638708852"><ele>379.0</ele><time>2026-04-10T09:27:50Z</time></trkpt><trkpt lat="44.74802586694748" lon="7.883609113489411"><ele>379.0</ele><time>2026-04-10T09:27:53Z</time></trkpt><trkpt lat="44.74799725359902" lon="7.883704591805403"><ele>380.7142857142857</ele><time>2026-04-10T09:27:56Z</time></trkpt><trkpt lat="44.74796658912488" lon="7.883783375232731"><ele>382.42857142857144</ele><time>2026-04-10T09:27:59Z</time></trkpt><trkpt lat="44.74792671915717" lon="7.88388384932168"><ele>384.1428571428571</ele><time>2026-04-10T09:28:03Z</time></trkpt><trkpt lat="44.747888605268656" lon="7.883979048277692"><ele>385.8571428571429</ele><time>2026-04-10T09:28:07Z</time></trkpt><trkpt lat="44.74784758643866" lon="7.8840646467333215"><ele>387.57142857142856</ele><time>2026-04-10T09:28:10.999Z</time></trkpt><trkpt lat="44.747804775592236" lon="7.884151668389457"><ele>389.2857142857143</ele><time>2026-04-10T09:28:14.999Z</time></trkpt><trkpt lat="44.74776361948385" lon="7.884235282036179"><ele>391.0</ele><time>2026-04-10T09:28:18.999Z</time></trkpt><trkpt lat="44.74771751835387" lon="7.884324578755184"><ele>391.1428571428571</ele><time>2026-04-10T09:28:23.999Z</time></trkpt><trkpt lat="44.74767528214519" lon="7.884407878849154"><ele>391.2857142857143</ele><time>2026-04-10T09:28:27.999Z</time></trkpt><trkpt lat="44.747644252039635" lon="7.884505773855766"><ele>391.42857142857144</ele><time>2026-04-10T09:28:32.999Z</time></trkpt><trkpt lat="44.7476019244582" lon="7.884609718414769"><ele>391.57142857142856</ele><time>2026-04-10T09:28:37.999Z</time></trkpt><trkpt lat="44.74757355976881" lon="7.884695527438792"><ele>391.7142857142857</ele><time>2026-04-10T09:28:41.999Z</time></trkpt><trkpt lat="44.747531514913874" lon="7.884783985226861"><ele>391.85714285714283</ele><time>2026-04-10T09:28:46.999Z</time></trkpt><trkpt lat="44.74748997301296" lon="7.88485583545"><ele>392.0</ele><time>2026-04-10T09:28:50.999Z</time></trkpt><trkpt lat="44.747441996431824" lon="7.884926364113986"><ele>392.0</ele><time>2026-04-10T09:28:55.999Z</time></trkpt><trkpt lat="44.74738893530169" lon="7.884978395062547"><ele>392.0</ele><time>2026-04-10T09:29:00Z</time></trkpt><trkpt lat="44.747332317965586" lon="7.8850204565656865"><ele>392.0</ele><time>2026-04-10T09:29:04Z</time></trkpt><trkpt lat="44.74726196019389" lon="7.88502936816216"><ele>392.0</ele><time>2026-04-10T09:29:09Z</time></trkpt><trkpt lat="44.74719088792313" lon="7.885024808623751"><ele>392.0</ele><time>2026-04-10T09:29:13Z</time></trkpt><trkpt lat="44.74712096509328" lon="7.885027002847072"><ele>392.0</ele><time>2026-04-10T09:29:17Z</time></trkpt><trkpt lat="44.74705656547257" lon="7.885031343513413"><ele>392.0</ele><time>2026-04-10T09:29:20Z</time></trkpt><trkpt lat="44.74698050764276" lon="7.885060446984886"><ele>392.7142857142857</ele><time>2026-04-10T09:29:24Z</time></trkpt><trkpt lat="44.74692282620509" lon="7.885110254416364"><ele>393.42857142857144</ele><time>2026-04-10T09:29:28Z</time></trkpt><trkpt lat="44.74687857358391" lon="7.885206475773144"><ele>394.1428571428571</ele><time>2026-04-10T09:29:33Z</time></trkpt><trkpt lat="44.74686892804738" lon="7.885316399540149"><ele>394.8571428571429</ele><time>2026-04-10T09:29:37Z</time></trkpt><trkpt lat="44.746894511359635" lon="7.885401233285723"><ele>395.57142857142856</ele><time>2026-04-10T09:29:41Z</time></trkpt><trkpt lat="44.746927857744005" lon="7.885482417880364"><ele>396.2857142857143</ele><time>2026-04-10T09:29:45Z</time></trkpt><trkpt lat="44.74697116999194" lon="7.885556626498101"><ele>397.0</ele><time>2026-04-10T09:29:49Z</time></trkpt><trkpt lat="44.747022454693116" lon="7.885620012870419"><ele>397.85714285714283</ele><time>2026-04-10T09:29:53Z</time></trkpt><trkpt lat="44.74707215766555" lon="7.885692039622428"><ele>398.71428571428567</ele><time>2026-04-10T09:29:57Z</time></trkpt><trkpt lat="44.74711501490765" lon="7.885767701941176"><ele>399.57142857142856</ele><time>2026-04-10T09:30:01Z</time></trkpt><trkpt lat="44.74716163998079" lon="7.885854872161187"><ele>400.42857142857144</ele><time>2026-04-10T09:30:05.999Z</time></trkpt><trkpt lat="44.74719401407704" lon="7.885937664963902"><ele>401.2857142857143</ele><time>2026-04-10T09:30:09.999Z</time></trkpt><trkpt lat="44.74722433010439" lon="7.886036903635873"><ele>402.14285714285717</ele><time>2026-04-10T09:30:13.999Z</time></trkpt><trkpt lat="44.747242069179784" lon="7.886144022302879"><ele>403.0</ele><time>2026-04-10T09:30:17.999Z</time></trkpt><trkpt lat="44.74726100953259" lon="7.886241190200189"><ele>403.42857142857144</ele><time>2026-04-10T09:30:21.999Z</time></trkpt><trkpt lat="44.74727222805584" lon="7.886332067777018"><ele>403.85714285714283</ele><time>2026-04-10T09:30:25.999Z</time></trkpt><trkpt lat="44.74728022009673" lon="7.886426527513644"><ele>404.2857142857143</ele><time>2026-04-10T09:30:29.999Z</time></trkpt><trkpt lat="44.74729147979344" lon="7.886533896741921"><ele>404.7142857142857</ele><time>2026-04-10T09:30:33.999Z</time></trkpt><trkpt lat="44.74729642297749" lon="7.8866344960203225"><ele>405.1428571428571</ele><time>2026-04-10T09:30:37.999Z</time></trkpt><trkpt lat="44.747311807949266" lon="7.886728733938044"><ele>405.57142857142856</ele><time>2026-04-10T09:30:41.999Z</time></trkpt><trkpt lat="44.747319939203045" lon="7.886824540087997"><ele>406.0</ele><time>2026-04-10T09:30:45.999Z</time></trkpt><trkpt lat="44.747322377686125" lon="7.886920492132844"><ele>406.0</ele><time>2026-04-10T09:30:49.999Z</time></trkpt><trkpt lat="44.74731584924954" lon="7.887022520900058"><ele>406.0</ele><time>2026-04-10T09:30:53.999Z</time></trkpt><trkpt lat="44.7473015301149" lon="7.88710943011192"><ele>406.0</ele><time>2026-04-10T09:30:57.999Z</time></trkpt><trkpt lat="44.74727849533719" lon="7.88719489860788"><ele>406.0</ele><time>2026-04-10T09:31:01.999Z</time></trkpt><trkpt lat="44.747258388348286" lon="7.887286101433266"><ele>406.0</ele><time>2026-04-10T09:31:06Z</time></trkpt><trkpt lat="44.74732235804552" lon="7.887255828838979"><ele>406.0</ele><time>2026-04-10T09:31:14Z</time></trkpt><trkpt lat="44.7473585651467" lon="7.887150165071156"><ele>406.0</ele><time>2026-04-10T09:31:17Z</time></trkpt><trkpt lat="44.74739072118098" lon="7.887047205563912"><ele>406.0</ele><time>2026-04-10T09:31:20Z</time></trkpt><trkpt lat="44.747423014353615" lon="7.886921379235257"><ele>406.0</ele><time>2026-04-10T09:31:22Z</time></trkpt><trkpt lat="44.74745026180766" lon="7.886841086488981"><ele>406.0</ele><time>2026-04-10T09:31:24Z</time></trkpt><trkpt lat="44.747476419634786" lon="7.886753227969039"><ele>406.0</ele><time>2026-04-10T09:31:26Z</time></trkpt><trkpt lat="44.74750435562235" lon="7.886667765167062"><ele>406.0</ele><time>2026-04-10T09:31:28Z</time></trkpt><trkpt lat="44.74754126669113" lon="7.8865896968309555"><ele>406.0</ele><time>2026-04-10T09:31:30Z</time></trkpt><trkpt lat="44.747565554096305" lon="7.88650174612328"><ele>406.0</ele><time>2026-04-10T09:31:32Z</time></trkpt><trkpt lat="44.74759825303895" lon="7.886418072490894"><ele>406.4</ele><time>2026-04-10T09:31:34Z</time></trkpt><trkpt lat="44.74764017217185" lon="7.886345815099148"><ele>406.8</ele><time>2026-04-10T09:31:37Z</time></trkpt><trkpt lat="44.74771553900442" lon="7.8862178571637385"><ele>407.2</ele><time>2026-04-10T09:31:39Z</time></trkpt><trkpt lat="44.7477749171745" lon="7.886144399623326"><ele>407.59999999999997</ele><time>2026-04-10T09:31:41Z</time></trkpt><trkpt lat="44.74783943595008" lon="7.88604519444415"><ele>408.0</ele><time>2026-04-10T09:31:43Z</time></trkpt><trkpt lat="44.74791029768951" lon="7.8859460849262835"><ele>407.79999999999995</ele><time>2026-04-10T09:31:45Z</time></trkpt><trkpt lat="44.74798322492444" lon="7.885834456830116"><ele>407.6</ele><time>2026-04-10T09:31:47Z</time></trkpt><trkpt lat="44.748049570572405" lon="7.885710813412214"><ele>407.4</ele><time>2026-04-10T09:31:49Z</time></trkpt><trkpt lat="44.74811358866018" lon="7.885580253235779"><ele>407.20000000000005</ele><time>2026-04-10T09:31:51Z</time></trkpt><trkpt lat="44.74817931710025" lon="7.885447534529632"><ele>407.0</ele><time>2026-04-10T09:31:53Z</time></trkpt><trkpt lat="44.74825063282159" lon="7.885321014918396"><ele>407.0</ele><time>2026-04-10T09:31:55Z</time></trkpt><trkpt lat="44.748320848917835" lon="7.885195055313218"><ele>407.0</ele><time>2026-04-10T09:31:57Z</time></trkpt><trkpt lat="44.74840124986119" lon="7.885073121658766"><ele>407.0</ele><time>2026-04-10T09:31:59Z</time></trkpt><trkpt lat="44.74848236581752" lon="7.884957023496156"><ele>407.0</ele><time>2026-04-10T09:32:01Z</time></trkpt><trkpt lat="44.74857106985578" lon="7.884857470696734"><ele>406.6</ele><time>2026-04-10T09:32:03Z</time></trkpt><trkpt lat="44.748664085088" lon="7.884769966812667"><ele>406.20000000000005</ele><time>2026-04-10T09:32:05Z</time></trkpt><trkpt lat="44.74875663787945" lon="7.884683740173872"><ele>405.8</ele><time>2026-04-10T09:32:06.999Z</time></trkpt><trkpt lat="44.748852620471496" lon="7.88461180962798"><ele>405.4</ele><time>2026-04-10T09:32:08.999Z</time></trkpt><trkpt lat="44.74895126478905" lon="7.8845434742518075"><ele>405.0</ele><time>2026-04-10T09:32:10.999Z</time></trkpt><trkpt lat="44.74905559327092" lon="7.884495593199942"><ele>405.0</ele><time>2026-04-10T09:32:12.999Z</time></trkpt><trkpt lat="44.7491565562558" lon="7.884474717529992"><ele>405.0</ele><time>2026-04-10T09:32:14.999Z</time></trkpt><trkpt lat="44.749261312542224" lon="7.884467596143597"><ele>405.0</ele><time>2026-04-10T09:32:16.999Z</time></trkpt><trkpt lat="44.7493564768339" lon="7.884464894778171"><ele>405.0</ele><time>2026-04-10T09:32:18.999Z</time></trkpt><trkpt lat="44.74945266773124" lon="7.884468923301579"><ele>405.0</ele><time>2026-04-10T09:32:20.999Z</time></trkpt><trkpt lat="44.749544654880246" lon="7.884471502365998"><ele>404.6</ele><time>2026-04-10T09:32:22.999Z</time></trkpt><trkpt lat="44.749635866184946" lon="7.884462851655583"><ele>404.2</ele><time>2026-04-10T09:32:24.999Z</time></trkpt><trkpt lat="44.7497240360603" lon="7.884456698997674"><ele>403.79999999999995</ele><time>2026-04-10T09:32:26.999Z</time></trkpt><trkpt lat="44.74982732081037" lon="7.884475592617213"><ele>403.4</ele><time>2026-04-10T09:32:28.999Z</time></trkpt><trkpt lat="44.74991484580896" lon="7.88445644158235"><ele>403.0</ele><time>2026-04-10T09:32:30.999Z</time></trkpt><trkpt lat="44.750010408857996" lon="7.884457561604758"><ele>403.00000000000006</ele><time>2026-04-10T09:32:32.999Z</time></trkpt><trkpt lat="44.7501057017456" lon="7.884473110321404"><ele>403.0</ele><time>2026-04-10T09:32:34.999Z</time></trkpt><trkpt lat="44.75019382604401" lon="7.884452817367959"><ele>403.0</ele><time>2026-04-10T09:32:37.999Z</time></trkpt><trkpt lat="44.75029039328493" lon="7.884466587922177"><ele>403.0</ele><time>2026-04-10T09:32:39.999Z</time></trkpt><trkpt lat="44.75035369890659" lon="7.884449584744664"><ele>403.00000000000006</ele><time>2026-04-10T09:32:41.999Z</time></trkpt><trkpt lat="44.75042916859908" lon="7.884440154340591"><ele>403.0</ele><time>2026-04-10T09:32:44.999Z</time></trkpt><trkpt lat="44.750547150130444" lon="7.884414045019303"><ele>402.50000000000006</ele><time>2026-04-10T09:32:48.999Z</time></trkpt><trkpt lat="44.750605880239156" lon="7.884363634137688"><ele>402.0</ele><time>2026-04-10T09:32:49.999Z</time></trkpt><trkpt lat="44.75070056543795" lon="7.884283397141879"><ele>401.5</ele><time>2026-04-10T09:32:52.999Z</time></trkpt><trkpt lat="44.75076200784815" lon="7.884241234422087"><ele>401.0</ele><time>2026-04-10T09:32:54.999Z</time></trkpt><trkpt lat="44.7508319253696" lon="7.884207019675837"><ele>400.50000000000006</ele><time>2026-04-10T09:32:56.999Z</time></trkpt><trkpt lat="44.75090098183077" lon="7.884147280501255"><ele>400.0</ele><time>2026-04-10T09:32:58.999Z</time></trkpt><trkpt lat="44.750969391810656" lon="7.884120137394168"><ele>401.1666666666667</ele><time>2026-04-10T09:33:00.999Z</time></trkpt><trkpt lat="44.75103037789001" lon="7.884071545955529"><ele>402.33333333333337</ele><time>2026-04-10T09:33:02.999Z</time></trkpt><trkpt lat="44.751130431438504" lon="7.8840726222702635"><ele>403.5</ele><time>2026-04-10T09:33:08.999Z</time></trkpt><trkpt lat="44.751198595301055" lon="7.884012314108122"><ele>404.66666666666663</ele><time>2026-04-10T09:33:12Z</time></trkpt><trkpt lat="44.751276277790105" lon="7.883965488215802"><ele>405.8333333333333</ele><time>2026-04-10T09:33:16Z</time></trkpt><trkpt lat="44.75136059455936" lon="7.883904715567901"><ele>407.0</ele><time>2026-04-10T09:33:20Z</time></trkpt><trkpt lat="44.751428286003744" lon="7.883854260272676"><ele>407.3333333333333</ele><time>2026-04-10T09:33:22Z</time></trkpt><trkpt lat="44.751520372281824" lon="7.883789540898542"><ele>407.66666666666663</ele><time>2026-04-10T09:33:24Z</time></trkpt><trkpt lat="44.75156033747557" lon="7.883717736489364"><ele>408.0</ele><time>2026-04-10T09:33:28Z</time></trkpt><trkpt lat="44.75163444947252" lon="7.883647679890982"><ele>408.33333333333337</ele><time>2026-04-10T09:33:31Z</time></trkpt><trkpt lat="44.75168916874009" lon="7.883558845295738"><ele>408.6666666666667</ele><time>2026-04-10T09:33:33Z</time></trkpt><trkpt lat="44.75177367407766" lon="7.883476653354945"><ele>409.0</ele><time>2026-04-10T09:33:35Z</time></trkpt><trkpt lat="44.75183042920034" lon="7.883420852550698"><ele>410.1666666666667</ele><time>2026-04-10T09:33:37Z</time></trkpt><trkpt lat="44.75189008140005" lon="7.883325247003425"><ele>411.33333333333337</ele><time>2026-04-10T09:33:40Z</time></trkpt><trkpt lat="44.751926703510456" lon="7.883247517001601"><ele>412.5</ele><time>2026-04-10T09:33:43Z</time></trkpt><trkpt lat="44.752010929275194" lon="7.883166323879036"><ele>413.66666666666663</ele><time>2026-04-10T09:38:16Z</time></trkpt><trkpt lat="44.75205779491159" lon="7.883072399990732"><ele>414.8333333333333</ele><time>2026-04-10T09:39:02.999Z</time></trkpt><trkpt lat="44.752092905138014" lon="7.882984572062083"><ele>416.0</ele><time>2026-04-10T09:39:05.999Z</time></trkpt><trkpt lat="44.75212671608177" lon="7.882905657277713"><ele>415.99999999999994</ele><time>2026-04-10T09:39:07.999Z</time></trkpt><trkpt lat="44.752161044061474" lon="7.882807629362935"><ele>416.0</ele><time>2026-04-10T09:39:09.999Z</time></trkpt><trkpt lat="44.75219356302088" lon="7.882708607723704"><ele>416.0</ele><time>2026-04-10T09:39:11.999Z</time></trkpt><trkpt lat="44.75222502474067" lon="7.882621128925967"><ele>416.0</ele><time>2026-04-10T09:39:13.999Z</time></trkpt><trkpt lat="44.752251060474045" lon="7.882520153629018"><ele>415.99999999999994</ele><time>2026-04-10T09:39:16.999Z</time></trkpt><trkpt lat="44.75223670531372" lon="7.882392778899082"><ele>416.0</ele><time>2026-04-10T09:39:19.999Z</time></trkpt><trkpt lat="44.752193612482806" lon="7.882281829427105"><ele>416.99999999999994</ele><time>2026-04-10T09:39:21.999Z</time></trkpt><trkpt lat="44.75216275753052" lon="7.882168677330886"><ele>418.0</ele><time>2026-04-10T09:39:23.999Z</time></trkpt><trkpt lat="44.752143549083506" lon="7.882060310437272"><ele>419.0</ele><time>2026-04-10T09:39:25.999Z</time></trkpt><trkpt lat="44.75213122869839" lon="7.8819567203929095"><ele>420.0</ele><time>2026-04-10T09:39:27.999Z</time></trkpt><trkpt lat="44.75212914718475" lon="7.8818419778829245"><ele>420.99999999999994</ele><time>2026-04-10T09:39:30Z</time></trkpt><trkpt lat="44.75212155241125" lon="7.881713221569684"><ele>422.0</ele><time>2026-04-10T09:39:32Z</time></trkpt><trkpt lat="44.75211148672273" lon="7.881603254737839"><ele>421.99999999999994</ele><time>2026-04-10T09:39:34Z</time></trkpt><trkpt lat="44.75210707101027" lon="7.881496071460161"><ele>422.0</ele><time>2026-04-10T09:39:36Z</time></trkpt><trkpt lat="44.75213370930361" lon="7.881382759967559"><ele>422.0</ele><time>2026-04-10T09:39:38Z</time></trkpt><trkpt lat="44.75215240937558" lon="7.881263684601996"><ele>422.0</ele><time>2026-04-10T09:39:40Z</time></trkpt><trkpt lat="44.75217910986661" lon="7.881160708264039"><ele>421.99999999999994</ele><time>2026-04-10T09:39:42Z</time></trkpt><trkpt lat="44.7522165938321" lon="7.881062433738253"><ele>422.0</ele><time>2026-04-10T09:39:44Z</time></trkpt><trkpt lat="44.7522424391842" lon="7.880949735129407"><ele>421.16666666666663</ele><time>2026-04-10T09:39:46Z</time></trkpt><trkpt lat="44.75227414058376" lon="7.880850871809036"><ele>420.3333333333333</ele><time>2026-04-10T09:39:48Z</time></trkpt><trkpt lat="44.75230713522735" lon="7.880733865833773"><ele>419.5</ele><time>2026-04-10T09:39:50Z</time></trkpt><trkpt lat="44.75233075814432" lon="7.8806197980405654"><ele>418.66666666666663</ele><time>2026-04-10T09:39:52Z</time></trkpt><trkpt lat="44.7523564134069" lon="7.880504467999118"><ele>417.8333333333333</ele><time>2026-04-10T09:39:54Z</time></trkpt><trkpt lat="44.75240074385616" lon="7.880429768330984"><ele>417.0</ele><time>2026-04-10T09:39:56Z</time></trkpt><trkpt lat="44.75244564920691" lon="7.880365518192802"><ele>417.0</ele><time>2026-04-10T09:39:58Z</time></trkpt><trkpt lat="44.75251786780617" lon="7.880334050080089"><ele>417.0</ele><time>2026-04-10T09:40:00Z</time></trkpt><trkpt lat="44.752603428483255" lon="7.88028841125405"><ele>417.0</ele><time>2026-04-10T09:40:02Z</time></trkpt><trkpt lat="44.75270034811483" lon="7.880234214283188"><ele>417.0</ele><time>2026-04-10T09:40:04Z</time></trkpt><trkpt lat="44.75279068607429" lon="7.8802152400239756"><ele>417.0</ele><time>2026-04-10T09:40:06Z</time></trkpt><trkpt lat="44.75288870371597" lon="7.8802130940614985"><ele>415.8</ele><time>2026-04-10T09:40:08Z</time></trkpt><trkpt lat="44.75298870706215" lon="7.880186107376544"><ele>414.6</ele><time>2026-04-10T09:40:10Z</time></trkpt><trkpt lat="44.753086470002174" lon="7.88013734234724"><ele>413.40000000000003</ele><time>2026-04-10T09:40:12Z</time></trkpt><trkpt lat="44.753155065050585" lon="7.880030679618419"><ele>412.20000000000005</ele><time>2026-04-10T09:40:14Z</time></trkpt><trkpt lat="44.7532032878424" lon="7.879904955010492"><ele>411.0</ele><time>2026-04-10T09:40:16Z</time></trkpt><trkpt lat="44.75325710943267" lon="7.879766920110559"><ele>409.0</ele><time>2026-04-10T09:40:18Z</time></trkpt><trkpt lat="44.753295320075104" lon="7.879661619857351"><ele>407.0</ele><time>2026-04-10T09:40:19.999Z</time></trkpt><trkpt lat="44.75332844054957" lon="7.879569581138766"><ele>405.0</ele><time>2026-04-10T09:40:21.999Z</time></trkpt><trkpt lat="44.753368502031876" lon="7.8794354075284865"><ele>403.0</ele><time>2026-04-10T09:40:23.999Z</time></trkpt><trkpt lat="44.7533987629832" lon="7.879281400095551"><ele>401.0</ele><time>2026-04-10T09:40:25.999Z</time></trkpt><trkpt lat="44.75343863632478" lon="7.879158513518685"><ele>400.8333333333333</ele><time>2026-04-10T09:40:27.999Z</time></trkpt><trkpt lat="44.75346702194455" lon="7.879011370165356"><ele>400.66666666666663</ele><time>2026-04-10T09:40:29.999Z</time></trkpt><trkpt lat="44.75349238632641" lon="7.878900682119308"><ele>400.5</ele><time>2026-04-10T09:40:31.999Z</time></trkpt><trkpt lat="44.75353526896344" lon="7.878812859988954"><ele>400.33333333333337</ele><time>2026-04-10T09:40:33.999Z</time></trkpt><trkpt lat="44.753558697612775" lon="7.878708642243349"><ele>400.1666666666667</ele><time>2026-04-10T09:40:35.999Z</time></trkpt><trkpt lat="44.75359565999594" lon="7.878612090050387"><ele>400.0</ele><time>2026-04-10T09:40:37.999Z</time></trkpt><trkpt lat="44.753638718892596" lon="7.8785054946693664"><ele>399.28571428571433</ele><time>2026-04-10T09:40:39.999Z</time></trkpt><trkpt lat="44.75369556187026" lon="7.878447377385326"><ele>398.57142857142856</ele><time>2026-04-10T09:40:42.999Z</time></trkpt><trkpt lat="44.75376704165582" lon="7.878420302346421"><ele>397.8571428571429</ele><time>2026-04-10T09:40:45.999Z</time></trkpt><trkpt lat="44.7538380173553" lon="7.878329450691195"><ele>397.14285714285717</ele><time>2026-04-10T09:40:48.999Z</time></trkpt><trkpt lat="44.75389236615297" lon="7.878274787021843"><ele>396.42857142857144</ele><time>2026-04-10T09:40:50.999Z</time></trkpt><trkpt lat="44.75393739057808" lon="7.8782069805813375"><ele>395.7142857142857</ele><time>2026-04-10T09:40:52.999Z</time></trkpt><trkpt lat="44.75398351615666" lon="7.878136503999421"><ele>395.0</ele><time>2026-04-10T09:40:54.999Z</time></trkpt><trkpt lat="44.754018358839275" lon="7.8780546706232215"><ele>397.4</ele><time>2026-04-10T09:40:56.999Z</time></trkpt><trkpt lat="44.75404912317438" lon="7.877971243646631"><ele>399.8</ele><time>2026-04-10T09:40:58.999Z</time></trkpt><trkpt lat="44.75408271697252" lon="7.877889125896361"><ele>402.20000000000005</ele><time>2026-04-10T09:41:00.999Z</time></trkpt><trkpt lat="44.75414335544366" lon="7.87776378201049"><ele>404.6</ele><time>2026-04-10T09:41:02.999Z</time></trkpt><trkpt lat="44.75419892342716" lon="7.877624456740139"><ele>407.0</ele><time>2026-04-10T09:41:04.999Z</time></trkpt><trkpt lat="44.75426229119991" lon="7.877486940501046"><ele>407.6</ele><time>2026-04-10T09:41:06.999Z</time></trkpt><trkpt lat="44.754323495282975" lon="7.877357463348521"><ele>408.20000000000005</ele><time>2026-04-10T09:41:08.999Z</time></trkpt><trkpt lat="44.754372075347575" lon="7.877236095019212"><ele>408.8</ele><time>2026-04-10T09:41:10.999Z</time></trkpt><trkpt lat="44.75442846346322" lon="7.877110183657231"><ele>409.4</ele><time>2026-04-10T09:41:12.999Z</time></trkpt><trkpt lat="44.75447634905291" lon="7.876985859359025"><ele>410.0</ele><time>2026-04-10T09:41:14.999Z</time></trkpt><trkpt lat="44.754527188904824" lon="7.8768456977012455"><ele>410.8</ele><time>2026-04-10T09:41:16.999Z</time></trkpt><trkpt lat="44.754571980609555" lon="7.876711213437587"><ele>411.6</ele><time>2026-04-10T09:41:18.999Z</time></trkpt><trkpt lat="44.75460725971039" lon="7.876551425837377"><ele>412.4</ele><time>2026-04-10T09:41:20.999Z</time></trkpt><trkpt lat="44.7546107417658" lon="7.876421170417396"><ele>413.2</ele><time>2026-04-10T09:41:22.999Z</time></trkpt><trkpt lat="44.75463189931186" lon="7.876318757588005"><ele>414.0</ele><time>2026-04-10T09:41:24.999Z</time></trkpt><trkpt lat="44.75464380206681" lon="7.876192458925"><ele>414.0</ele><time>2026-04-10T09:41:26.999Z</time></trkpt><trkpt lat="44.75461765009318" lon="7.876060793030746"><ele>414.0</ele><time>2026-04-10T09:41:28.999Z</time></trkpt><trkpt lat="44.75459066696056" lon="7.875952717747683"><ele>414.0</ele><time>2026-04-10T09:41:30.999Z</time></trkpt><trkpt lat="44.7545793845416" lon="7.875821804328332"><ele>414.0</ele><time>2026-04-10T09:41:32.999Z</time></trkpt><trkpt lat="44.75457527237597" lon="7.875730533431005"><ele>414.0</ele><time>2026-04-10T09:41:35Z</time></trkpt><trkpt lat="44.75459471193444" lon="7.875633310983631"><ele>414.0</ele><time>2026-04-10T09:41:38Z</time></trkpt><trkpt lat="44.75458368127691" lon="7.875530882224285"><ele>413.0</ele><time>2026-04-10T09:41:41Z</time></trkpt><trkpt lat="44.75456023457996" lon="7.875425390068165"><ele>412.0</ele><time>2026-04-10T09:41:43Z</time></trkpt><trkpt lat="44.754559199548176" lon="7.875299702214901"><ele>411.0</ele><time>2026-04-10T09:41:45Z</time></trkpt><trkpt lat="44.75456309126691" lon="7.875199782476025"><ele>410.0</ele><time>2026-04-10T09:41:47Z</time></trkpt><trkpt lat="44.75457683935306" lon="7.875072565119199"><ele>409.0</ele><time>2026-04-10T09:41:50Z</time></trkpt><trkpt lat="44.75456933848289" lon="7.87495360985767"><ele>408.0</ele><time>2026-04-10T09:41:54Z</time></trkpt><trkpt lat="44.75457044079968" lon="7.874860010717472"><ele>406.5</ele><time>2026-04-10T09:41:56Z</time></trkpt><trkpt lat="44.75459277635004" lon="7.874541662421903"><ele>405.0</ele><time>2026-04-10T09:41:59Z</time></trkpt><trkpt lat="44.7545850808736" lon="7.874448343227689"><ele>403.5</ele><time>2026-04-10T09:42:00Z</time></trkpt><trkpt lat="44.754622600426245" lon="7.874297103093787"><ele>402.0</ele><time>2026-04-10T09:42:02Z</time></trkpt><trkpt lat="44.754615397578355" lon="7.874143618081927"><ele>402.0</ele><time>2026-04-10T09:42:04Z</time></trkpt><trkpt lat="44.754619354015766" lon="7.873998493114775"><ele>402.0</ele><time>2026-04-10T09:42:06Z</time></trkpt><trkpt lat="44.75459750594702" lon="7.873872129788566"><ele>402.0</ele><time>2026-04-10T09:42:08Z</time></trkpt><trkpt lat="44.75457601631095" lon="7.873763078217359"><ele>402.0</ele><time>2026-04-10T09:42:10Z</time></trkpt><trkpt lat="44.75465415725094" lon="7.8737325285009625"><ele>402.0</ele><time>2026-04-10T09:42:11Z</time></trkpt><trkpt lat="44.75473793452944" lon="7.873743406815989"><ele>402.0</ele><time>2026-04-10T09:42:13Z</time></trkpt><trkpt lat="44.754812739564876" lon="7.873702849616252"><ele>402.0</ele><time>2026-04-10T09:42:15Z</time></trkpt><trkpt lat="44.75487969955653" lon="7.873664135379747"><ele>402.0</ele><time>2026-04-10T09:42:19Z</time></trkpt><trkpt lat="44.75497908336603" lon="7.873606263032446"><ele>402.0</ele><time>2026-04-10T09:42:22Z</time></trkpt><trkpt lat="44.755050067837246" lon="7.873521396351426"><ele>402.0</ele><time>2026-04-10T09:42:25Z</time></trkpt><trkpt lat="44.755111543724546" lon="7.873491687196766"><ele>402.0</ele><time>2026-04-10T09:42:27Z</time></trkpt><trkpt lat="44.755193153461725" lon="7.873466243532112"><ele>402.0</ele><time>2026-04-10T09:42:30Z</time></trkpt><trkpt lat="44.75527689344289" lon="7.873459912368243"><ele>402.3333333333333</ele><time>2026-04-10T09:42:33Z</time></trkpt><trkpt lat="44.755365270852366" lon="7.873444859736385"><ele>402.66666666666663</ele><time>2026-04-10T09:42:36Z</time></trkpt><trkpt lat="44.755435404094676" lon="7.873417868164036"><ele>403.0</ele><time>2026-04-10T09:42:38.999Z</time></trkpt><trkpt lat="44.755517140516176" lon="7.873394427300673"><ele>403.3333333333333</ele><time>2026-04-10T09:42:41.999Z</time></trkpt><trkpt lat="44.75558597258772" lon="7.873384142021238"><ele>403.66666666666663</ele><time>2026-04-10T09:42:43.999Z</time></trkpt><trkpt lat="44.755677951484195" lon="7.873385997634091"><ele>404.0</ele><time>2026-04-10T09:42:45.999Z</time></trkpt><trkpt lat="44.75579948723574" lon="7.873371610729879"><ele>404.0</ele><time>2026-04-10T09:42:47.999Z</time></trkpt><trkpt lat="44.75596198195915" lon="7.873349111564965"><ele>404.0</ele><time>2026-04-10T09:42:48.999Z</time></trkpt><trkpt lat="44.75607171195903" lon="7.873302136447926"><ele>404.0</ele><time>2026-04-10T09:42:50.999Z</time></trkpt><trkpt lat="44.756176642355456" lon="7.873252072974179"><ele>404.0</ele><time>2026-04-10T09:42:52.999Z</time></trkpt><trkpt lat="44.75628438839828" lon="7.873225405140359"><ele>404.3333333333333</ele><time>2026-04-10T09:42:54.999Z</time></trkpt><trkpt lat="44.7563734225226" lon="7.873188783591656"><ele>404.66666666666663</ele><time>2026-04-10T09:42:56.999Z</time></trkpt><trkpt lat="44.756469432520674" lon="7.873204256741757"><ele>405.0</ele><time>2026-04-10T09:42:58.999Z</time></trkpt><trkpt lat="44.756549581896564" lon="7.873209267288115"><ele>405.33333333333337</ele><time>2026-04-10T09:43:00.999Z</time></trkpt><trkpt lat="44.756629432488836" lon="7.8732131675457495"><ele>405.6666666666667</ele><time>2026-04-10T09:43:03.999Z</time></trkpt><trkpt lat="44.75670917911126" lon="7.873226650239509"><ele>406.0</ele><time>2026-04-10T09:43:06.999Z</time></trkpt><trkpt lat="44.75677730490498" lon="7.873247252942821"><ele>406.00000000000006</ele><time>2026-04-10T09:43:08.999Z</time></trkpt><trkpt lat="44.756857872565355" lon="7.873259279793758"><ele>406.0</ele><time>2026-04-10T09:43:10.999Z</time></trkpt><trkpt lat="44.75693340607512" lon="7.873272648833611"><ele>406.0</ele><time>2026-04-10T09:43:12.999Z</time></trkpt><trkpt lat="44.757017793555605" lon="7.873286762870237"><ele>406.0</ele><time>2026-04-10T09:43:14.999Z</time></trkpt><trkpt lat="44.757109291760564" lon="7.873297896332272"><ele>406.00000000000006</ele><time>2026-04-10T09:43:16.999Z</time></trkpt><trkpt lat="44.757201935374205" lon="7.873293604784201"><ele>406.0</ele><time>2026-04-10T09:43:18.999Z</time></trkpt><trkpt lat="44.757277720421946" lon="7.873269116904762"><ele>406.4</ele><time>2026-04-10T09:43:21.999Z</time></trkpt><trkpt lat="44.75738434283667" lon="7.873228000970575"><ele>406.8</ele><time>2026-04-10T09:43:23.999Z</time></trkpt><trkpt lat="44.75745372712684" lon="7.8732382878966245"><ele>407.2</ele><time>2026-04-10T09:43:25.999Z</time></trkpt><trkpt lat="44.757529197012936" lon="7.87313451004831"><ele>407.59999999999997</ele><time>2026-04-10T09:43:28.999Z</time></trkpt><trkpt lat="44.757612274207524" lon="7.8731265336391205"><ele>408.0</ele><time>2026-04-10T09:43:31.999Z</time></trkpt><trkpt lat="44.7577168090009" lon="7.873073457736274"><ele>408.0</ele><time>2026-04-10T09:43:33.999Z</time></trkpt><trkpt lat="44.757796235653224" lon="7.873042541885012"><ele>408.0</ele><time>2026-04-10T09:43:35.999Z</time></trkpt><trkpt lat="44.7578719380956" lon="7.873015727184492"><ele>408.0</ele><time>2026-04-10T09:43:37.999Z</time></trkpt><trkpt lat="44.75794994935436" lon="7.872955866265845"><ele>408.0</ele><time>2026-04-10T09:43:39.999Z</time></trkpt><trkpt lat="44.75800647707362" lon="7.8728816884684365"><ele>408.0</ele><time>2026-04-10T09:43:44Z</time></trkpt><trkpt lat="44.758060824662174" lon="7.872796256288212"><ele>408.0</ele><time>2026-04-10T09:43:46Z</time></trkpt><trkpt lat="44.75810182343986" lon="7.87270777679134"><ele>408.0</ele><time>2026-04-10T09:43:47Z</time></trkpt><trkpt lat="44.75815099653431" lon="7.872612591669668"><ele>408.0</ele><time>2026-04-10T09:43:49Z</time></trkpt><trkpt lat="44.758190284489146" lon="7.8725399495800525"><ele>408.0</ele><time>2026-04-10T09:43:51Z</time></trkpt><trkpt lat="44.75824548301138" lon="7.872439169241374"><ele>408.0</ele><time>2026-04-10T09:43:53Z</time></trkpt><trkpt lat="44.75829704901276" lon="7.872345729652184"><ele>408.0</ele><time>2026-04-10T09:43:55Z</time></trkpt><trkpt lat="44.75833676519899" lon="7.872245249369566"><ele>408.0</ele><time>2026-04-10T09:43:57Z</time></trkpt><trkpt lat="44.7583604185782" lon="7.8721138471157035"><ele>407.0</ele><time>2026-04-10T09:43:59Z</time></trkpt><trkpt lat="44.75839981289845" lon="7.871972892519121"><ele>406.0</ele><time>2026-04-10T09:44:01Z</time></trkpt><trkpt lat="44.758456493318484" lon="7.871853608642484"><ele>405.0</ele><time>2026-04-10T09:44:03Z</time></trkpt><trkpt lat="44.7585568552993" lon="7.871764872856122"><ele>404.0</ele><time>2026-04-10T09:44:05Z</time></trkpt><trkpt lat="44.758649720907805" lon="7.871665912234935"><ele>403.0</ele><time>2026-04-10T09:44:07Z</time></trkpt><trkpt lat="44.758727367549966" lon="7.871523165750797"><ele>402.0</ele><time>2026-04-10T09:44:09Z</time></trkpt><trkpt lat="44.758768720633796" lon="7.871450337709574"><ele>401.0</ele><time>2026-04-10T09:44:12Z</time></trkpt><trkpt lat="44.75883238677251" lon="7.871380517511235"><ele>400.0</ele><time>2026-04-10T09:44:37Z</time></trkpt><trkpt lat="44.75884318573894" lon="7.87129164594813"><ele>399.0</ele><time>2026-04-10T09:44:55.999Z</time></trkpt><trkpt lat="44.75886179019811" lon="7.871196848138341"><ele>398.0</ele><time>2026-04-10T09:45:00.999Z</time></trkpt><trkpt lat="44.758894902422796" lon="7.871109986195461"><ele>397.0</ele><time>2026-04-10T09:45:03.999Z</time></trkpt><trkpt lat="44.75893815743544" lon="7.871023255755591"><ele>396.0</ele><time>2026-04-10T09:45:06.999Z</time></trkpt><trkpt lat="44.75896650060391" lon="7.870930318608944"><ele>396.0</ele><time>2026-04-10T09:45:09.999Z</time></trkpt><trkpt lat="44.75899065481333" lon="7.870840267415846"><ele>396.0</ele><time>2026-04-10T09:45:12.999Z</time></trkpt><trkpt lat="44.75901544252065" lon="7.870732934436241"><ele>396.0</ele><time>2026-04-10T09:45:15.999Z</time></trkpt><trkpt lat="44.75903818382838" lon="7.870619603406424"><ele>396.0</ele><time>2026-04-10T09:45:18.999Z</time></trkpt><trkpt lat="44.75906399909876" lon="7.870518840516657"><ele>396.0</ele><time>2026-04-10T09:45:21.999Z</time></trkpt><trkpt lat="44.759066234351366" lon="7.870408524566883"><ele>396.0</ele><time>2026-04-10T09:45:24.999Z</time></trkpt><trkpt lat="44.75907100595414" lon="7.870315413109232"><ele>396.0</ele><time>2026-04-10T09:45:27.999Z</time></trkpt><trkpt lat="44.75908422553217" lon="7.870222115671682"><ele>396.0</ele><time>2026-04-10T09:45:30.999Z</time></trkpt><trkpt lat="44.75906680769451" lon="7.8700773960756685"><ele>396.0</ele><time>2026-04-10T09:45:33.999Z</time></trkpt><trkpt lat="44.75908059234818" lon="7.869966990788542"><ele>396.0</ele><time>2026-04-10T09:45:36.999Z</time></trkpt><trkpt lat="44.75911003115349" lon="7.869874517449894"><ele>396.0</ele><time>2026-04-10T09:45:38.999Z</time></trkpt><trkpt lat="44.759168182870035" lon="7.869765634687738"><ele>396.0</ele><time>2026-04-10T09:45:41.999Z</time></trkpt><trkpt lat="44.759215747677054" lon="7.869693316282673"><ele>395.6666666666667</ele><time>2026-04-10T09:45:43.999Z</time></trkpt><trkpt lat="44.759286714672555" lon="7.869630587787551"><ele>395.33333333333337</ele><time>2026-04-10T09:45:45.999Z</time></trkpt><trkpt lat="44.75934684055423" lon="7.869589784907174"><ele>395.0</ele><time>2026-04-10T09:45:47Z</time></trkpt><trkpt lat="44.759437786525424" lon="7.869601572521567"><ele>394.6666666666667</ele><time>2026-04-10T09:45:49Z</time></trkpt><trkpt lat="44.7595194144071" lon="7.869583587087711"><ele>394.33333333333337</ele><time>2026-04-10T09:45:51Z</time></trkpt><trkpt lat="44.759581438710455" lon="7.869501674041657"><ele>394.0</ele><time>2026-04-10T09:45:53Z</time></trkpt><trkpt lat="44.75964565951113" lon="7.86943065058065"><ele>392.6666666666667</ele><time>2026-04-10T09:45:55Z</time></trkpt><trkpt lat="44.75970803478969" lon="7.869388075280751"><ele>391.33333333333337</ele><time>2026-04-10T09:45:57Z</time></trkpt><trkpt lat="44.75979552473388" lon="7.869399620088552"><ele>390.0</ele><time>2026-04-10T09:46:00Z</time></trkpt><trkpt lat="44.75983446335733" lon="7.869291595258404"><ele>388.66666666666663</ele><time>2026-04-10T09:46:02Z</time></trkpt><trkpt lat="44.75986476457922" lon="7.869151406741451"><ele>387.3333333333333</ele><time>2026-04-10T09:46:04Z</time></trkpt><trkpt lat="44.759903131075355" lon="7.869020077697265"><ele>386.0</ele><time>2026-04-10T09:46:06Z</time></trkpt><trkpt lat="44.75993047695955" lon="7.868901012719814"><ele>386.0</ele><time>2026-04-10T09:46:08Z</time></trkpt><trkpt lat="44.759893092336306" lon="7.868799597331397"><ele>386.0</ele><time>2026-04-10T09:46:10Z</time></trkpt><trkpt lat="44.75991756848867" lon="7.868669707628836"><ele>386.0</ele><time>2026-04-10T09:46:12Z</time></trkpt><trkpt lat="44.75997267997709" lon="7.8685431217689095"><ele>386.0</ele><time>2026-04-10T09:46:14Z</time></trkpt><trkpt lat="44.76001601399771" lon="7.868430124687083"><ele>386.0</ele><time>2026-04-10T09:46:16Z</time></trkpt><trkpt lat="44.7600784334596" lon="7.86830702786704"><ele>385.6</ele><time>2026-04-10T09:46:18Z</time></trkpt><trkpt lat="44.76012586513278" lon="7.8682099104699965"><ele>385.20000000000005</ele><time>2026-04-10T09:46:20Z</time></trkpt><trkpt lat="44.76017402354142" lon="7.868105187850002"><ele>384.79999999999995</ele><time>2026-04-10T09:46:22Z</time></trkpt><trkpt lat="44.76016880360681" lon="7.8679458118187595"><ele>384.4</ele><time>2026-04-10T09:46:25Z</time></trkpt><trkpt lat="44.76017044108041" lon="7.86784689859622"><ele>384.0</ele><time>2026-04-10T09:46:27Z</time></trkpt><trkpt lat="44.76019939337852" lon="7.8677143263850775"><ele>382.6666666666667</ele><time>2026-04-10T09:46:30Z</time></trkpt><trkpt lat="44.760230457696125" lon="7.867636453664799"><ele>381.3333333333333</ele><time>2026-04-10T09:46:32Z</time></trkpt><trkpt lat="44.76030065634987" lon="7.8675842538903416"><ele>380.0</ele><time>2026-04-10T09:46:34Z</time></trkpt><trkpt lat="44.76034244010763" lon="7.867487136792112"><ele>378.66666666666663</ele><time>2026-04-10T09:46:37Z</time></trkpt><trkpt lat="44.760313703727874" lon="7.867379754137164"><ele>377.3333333333333</ele><time>2026-04-10T09:46:39Z</time></trkpt><trkpt lat="44.76035280450375" lon="7.867264995368452"><ele>376.0</ele><time>2026-04-10T09:46:42Z</time></trkpt><trkpt lat="44.76039621407152" lon="7.867159597408384"><ele>375.5</ele><time>2026-04-10T09:46:45Z</time></trkpt><trkpt lat="44.76043449185454" lon="7.867070161516414"><ele>375.0</ele><time>2026-04-10T09:46:47.999Z</time></trkpt><trkpt lat="44.760504513672025" lon="7.867027170302637"><ele>374.5</ele><time>2026-04-10T09:46:50.999Z</time></trkpt><trkpt lat="44.76049896484606" lon="7.866896468896241"><ele>374.0</ele><time>2026-04-10T09:46:52.999Z</time></trkpt><trkpt lat="44.76049372076576" lon="7.866754561663271"><ele>373.5</ele><time>2026-04-10T09:46:54.999Z</time></trkpt><trkpt lat="44.760553211965494" lon="7.866655217230484"><ele>373.0</ele><time>2026-04-10T09:46:56.999Z</time></trkpt><trkpt lat="44.76062003340722" lon="7.866575946546286"><ele>372.3333333333333</ele><time>2026-04-10T09:46:58.999Z</time></trkpt><trkpt lat="44.76064484874424" lon="7.86646399890683"><ele>371.66666666666663</ele><time>2026-04-10T09:47:01.999Z</time></trkpt><trkpt lat="44.76066022170208" lon="7.866325294364362"><ele>371.0</ele><time>2026-04-10T09:47:03.999Z</time></trkpt><trkpt lat="44.76064986253885" lon="7.866229477700597"><ele>370.3333333333333</ele><time>2026-04-10T09:47:05.999Z</time></trkpt><trkpt lat="44.760611914559014" lon="7.866133045993308"><ele>369.6666666666667</ele><time>2026-04-10T09:47:08.999Z</time></trkpt><trkpt lat="44.76059263928435" lon="7.866019959171534"><ele>369.0</ele><time>2026-04-10T09:47:11.999Z</time></trkpt><trkpt lat="44.760615214247075" lon="7.8659314359848524"><ele>366.6666666666667</ele><time>2026-04-10T09:47:13.999Z</time></trkpt><trkpt lat="44.76069891599826" lon="7.865911791867447"><ele>364.3333333333333</ele><time>2026-04-10T09:47:18.999Z</time></trkpt><trkpt lat="44.76078243020348" lon="7.8659011976048605"><ele>362.0</ele><time>2026-04-10T09:47:20.999Z</time></trkpt><trkpt lat="44.76086423395372" lon="7.865880429423677"><ele>359.66666666666663</ele><time>2026-04-10T09:47:22.999Z</time></trkpt><trkpt lat="44.76094348790141" lon="7.865861637751775"><ele>357.3333333333333</ele><time>2026-04-10T09:47:25.999Z</time></trkpt><trkpt lat="44.761015943871996" lon="7.865744088802257"><ele>355.0</ele><time>2026-04-10T09:47:27.999Z</time></trkpt><trkpt lat="44.76108437787421" lon="7.865676797169647"><ele>355.0</ele><time>2026-04-10T09:47:29.999Z</time></trkpt><trkpt lat="44.761118036232006" lon="7.865574912307257"><ele>355.0</ele><time>2026-04-10T09:47:31.999Z</time></trkpt><trkpt lat="44.76117745845033" lon="7.8655368721001135"><ele>355.0</ele><time>2026-04-10T09:47:33.999Z</time></trkpt><trkpt lat="44.76126623806086" lon="7.865532679744825"><ele>355.0</ele><time>2026-04-10T09:47:35.999Z</time></trkpt><trkpt lat="44.76134764030022" lon="7.865564714971265"><ele>355.0</ele><time>2026-04-10T09:47:37.999Z</time></trkpt><trkpt lat="44.761438925915094" lon="7.8655970085314"><ele>355.0</ele><time>2026-04-10T09:47:39.999Z</time></trkpt><trkpt lat="44.76153483717066" lon="7.865549780178751"><ele>355.0</ele><time>2026-04-10T09:47:41.999Z</time></trkpt><trkpt lat="44.761616987066894" lon="7.865577184177309"><ele>355.0</ele><time>2026-04-10T09:47:43.999Z</time></trkpt><trkpt lat="44.76181933596484" lon="7.865644658062684"><ele>355.0</ele><time>2026-04-10T09:47:51.999Z</time></trkpt><trkpt lat="44.761988483388365" lon="7.8656050578889145"><ele>353.8333333333333</ele><time>2026-04-10T09:47:58Z</time></trkpt><trkpt lat="44.76200771016831" lon="7.865487897005951"><ele>352.66666666666663</ele><time>2026-04-10T09:48:01Z</time></trkpt><trkpt lat="44.76204029126819" lon="7.865393569204866"><ele>351.5</ele><time>2026-04-10T09:48:05Z</time></trkpt><trkpt lat="44.76205342477607" lon="7.865265753136404"><ele>350.3333333333333</ele><time>2026-04-10T09:48:07Z</time></trkpt><trkpt lat="44.76207114169816" lon="7.865127429870108"><ele>349.1666666666667</ele><time>2026-04-10T09:48:09Z</time></trkpt><trkpt lat="44.76203623436775" lon="7.865046118681531"><ele>348.0</ele><time>2026-04-10T09:48:12Z</time></trkpt><trkpt lat="44.76208452470433" lon="7.8649632869976704"><ele>346.0</ele><time>2026-04-10T09:48:25Z</time></trkpt><trkpt lat="44.76216469174314" lon="7.864947395854392"><ele>344.0</ele><time>2026-04-10T09:48:27Z</time></trkpt><trkpt lat="44.762242468040974" lon="7.8648902473233155"><ele>342.0</ele><time>2026-04-10T09:48:38Z</time></trkpt><trkpt lat="44.762289022985954" lon="7.864829793111986"><ele>340.0</ele><time>2026-04-10T09:48:43Z</time></trkpt><trkpt lat="44.76241551759034" lon="7.864638707552451"><ele>338.0</ele><time>2026-04-10T09:49:00.999Z</time></trkpt><trkpt lat="44.76245224627595" lon="7.864723608839466"><ele>338.0</ele><time>2026-04-10T09:49:09.999Z</time></trkpt><trkpt lat="44.76249106034706" lon="7.864832352012249"><ele>338.0</ele><time>2026-04-10T09:49:12.999Z</time></trkpt><trkpt lat="44.76252429816306" lon="7.864931412893176"><ele>338.0</ele><time>2026-04-10T09:49:15.999Z</time></trkpt><trkpt lat="44.76256980466078" lon="7.8650280125414325"><ele>338.0</ele><time>2026-04-10T09:49:18.999Z</time></trkpt><trkpt lat="44.76264765568852" lon="7.865103913730697"><ele>338.0</ele><time>2026-04-10T09:49:21.999Z</time></trkpt><trkpt lat="44.762710698475814" lon="7.865108789803465"><ele>338.0</ele><time>2026-04-10T09:49:23.999Z</time></trkpt><trkpt lat="44.76278304598943" lon="7.865105803821939"><ele>338.0</ele><time>2026-04-10T09:49:25.999Z</time></trkpt><trkpt lat="44.76285501363119" lon="7.865118014978135"><ele>338.0</ele><time>2026-04-10T09:49:27.999Z</time></trkpt><trkpt lat="44.76292198502466" lon="7.865089739829979"><ele>338.0</ele><time>2026-04-10T09:49:29.999Z</time></trkpt><trkpt lat="44.76298637740503" lon="7.865035494702672"><ele>338.0</ele><time>2026-04-10T09:49:31.999Z</time></trkpt><trkpt lat="44.76304287337122" lon="7.864992787619916"><ele>338.0</ele><time>2026-04-10T09:49:33.999Z</time></trkpt><trkpt lat="44.76310772195182" lon="7.865000488529327"><ele>338.0</ele><time>2026-04-10T09:49:35.999Z</time></trkpt><trkpt lat="44.76316976498485" lon="7.865065207364597"><ele>338.0</ele><time>2026-04-10T09:49:37.999Z</time></trkpt><trkpt lat="44.76321854459708" lon="7.8651566905222365"><ele>338.0</ele><time>2026-04-10T09:49:39.999Z</time></trkpt><trkpt lat="44.763268478620624" lon="7.86524227093743"><ele>338.0</ele><time>2026-04-10T09:49:41.999Z</time></trkpt><trkpt lat="44.76333855274164" lon="7.865295814235463"><ele>338.0</ele><time>2026-04-10T09:49:43.999Z</time></trkpt><trkpt lat="44.76341284006888" lon="7.865313515737711"><ele>338.0</ele><time>2026-04-10T09:49:45.999Z</time></trkpt><trkpt lat="44.76349536217257" lon="7.865277104110287"><ele>338.0</ele><time>2026-04-10T09:49:47.999Z</time></trkpt><trkpt lat="44.76357650697551" lon="7.865251184762368"><ele>338.0</ele><time>2026-04-10T09:49:49.999Z</time></trkpt><trkpt lat="44.763665664193134" lon="7.865234993142135"><ele>338.1666666666667</ele><time>2026-04-10T09:49:51.999Z</time></trkpt><trkpt lat="44.76374134542789" lon="7.86525428584094"><ele>338.33333333333337</ele><time>2026-04-10T09:49:53.999Z</time></trkpt><trkpt lat="44.76382658105314" lon="7.865270548919156"><ele>338.5</ele><time>2026-04-10T09:49:55.999Z</time></trkpt><trkpt lat="44.76390358098852" lon="7.865276539648646"><ele>338.6666666666667</ele><time>2026-04-10T09:49:57.999Z</time></trkpt><trkpt lat="44.76398817556986" lon="7.865273614312224"><ele>338.8333333333333</ele><time>2026-04-10T09:50:00Z</time></trkpt><trkpt lat="44.76407476689855" lon="7.865267388459499"><ele>339.0</ele><time>2026-04-10T09:50:02Z</time></trkpt><trkpt lat="44.76415392044293" lon="7.865238742176722"><ele>339.0</ele><time>2026-04-10T09:50:04Z</time></trkpt><trkpt lat="44.76421592384246" lon="7.865178874126602"><ele>339.0</ele><time>2026-04-10T09:50:06Z</time></trkpt><trkpt lat="44.76425471932423" lon="7.865093396051223"><ele>339.0</ele><time>2026-04-10T09:50:08Z</time></trkpt><trkpt lat="44.76426946167405" lon="7.864980654369532"><ele>339.0</ele><time>2026-04-10T09:50:10Z</time></trkpt><trkpt lat="44.76425736846843" lon="7.864875862159332"><ele>339.0</ele><time>2026-04-10T09:50:12Z</time></trkpt><trkpt lat="44.764236860132236" lon="7.864766468931301"><ele>339.0</ele><time>2026-04-10T09:50:14Z</time></trkpt><trkpt lat="44.76422758957822" lon="7.864660808269927"><ele>337.6666666666667</ele><time>2026-04-10T09:50:16Z</time></trkpt><trkpt lat="44.764228119919466" lon="7.864548600933575"><ele>336.3333333333333</ele><time>2026-04-10T09:50:18Z</time></trkpt><trkpt lat="44.76425136289414" lon="7.864454777779043"><ele>335.0</ele><time>2026-04-10T09:50:20Z</time></trkpt><trkpt lat="44.7642921601054" lon="7.864361284159614"><ele>333.66666666666663</ele><time>2026-04-10T09:50:22Z</time></trkpt><trkpt lat="44.764328647024854" lon="7.864283240633242"><ele>332.3333333333333</ele><time>2026-04-10T09:50:24Z</time></trkpt><trkpt lat="44.76437402335764" lon="7.864188221727619"><ele>331.0</ele><time>2026-04-10T09:50:26Z</time></trkpt><trkpt lat="44.764416797659166" lon="7.8640970409021245"><ele>331.0</ele><time>2026-04-10T09:50:28Z</time></trkpt><trkpt lat="44.76446977553778" lon="7.864007316114184"><ele>331.0</ele><time>2026-04-10T09:50:30Z</time></trkpt><trkpt lat="44.764537367193924" lon="7.863929507101518"><ele>331.0</ele><time>2026-04-10T09:50:32Z</time></trkpt><trkpt lat="44.76462515641726" lon="7.863882249102714"><ele>331.0</ele><time>2026-04-10T09:50:34Z</time></trkpt><trkpt lat="44.764714553891686" lon="7.863847154049361"><ele>331.0</ele><time>2026-04-10T09:50:36Z</time></trkpt><trkpt lat="44.76477309989874" lon="7.863786493658087"><ele>331.0</ele><time>2026-04-10T09:50:39Z</time></trkpt><trkpt lat="44.764839718589045" lon="7.863717682867115"><ele>331.0</ele><time>2026-04-10T09:50:40Z</time></trkpt><trkpt lat="44.764900682298965" lon="7.86361000216672"><ele>331.0</ele><time>2026-04-10T09:50:42Z</time></trkpt><trkpt lat="44.764939284344564" lon="7.863496386737862"><ele>331.0</ele><time>2026-04-10T09:50:44Z</time></trkpt><trkpt lat="44.764947049181146" lon="7.863366532772715"><ele>331.0</ele><time>2026-04-10T09:50:46Z</time></trkpt><trkpt lat="44.76494670524955" lon="7.863237285631421"><ele>331.0</ele><time>2026-04-10T09:50:48Z</time></trkpt><trkpt lat="44.764975122345234" lon="7.863113487915123"><ele>330.6</ele><time>2026-04-10T09:50:50Z</time></trkpt><trkpt lat="44.76502484508132" lon="7.862994214563084"><ele>330.20000000000005</ele><time>2026-04-10T09:50:52Z</time></trkpt><trkpt lat="44.76507132304835" lon="7.862881558813182"><ele>329.79999999999995</ele><time>2026-04-10T09:50:54Z</time></trkpt><trkpt lat="44.76510564330435" lon="7.862766446959781"><ele>329.4</ele><time>2026-04-10T09:50:56Z</time></trkpt><trkpt lat="44.76514365316578" lon="7.862645861203026"><ele>329.0</ele><time>2026-04-10T09:50:58Z</time></trkpt><trkpt lat="44.765170383577995" lon="7.8625194297157766"><ele>329.5</ele><time>2026-04-10T09:51:00Z</time></trkpt><trkpt lat="44.76520228601262" lon="7.862391206041584"><ele>330.0</ele><time>2026-04-10T09:51:01.999Z</time></trkpt><trkpt lat="44.765245635393256" lon="7.862302465013243"><ele>330.5</ele><time>2026-04-10T09:51:04.999Z</time></trkpt><trkpt lat="44.7652852036695" lon="7.862196999548494"><ele>331.0</ele><time>2026-04-10T09:51:05.999Z</time></trkpt><trkpt lat="44.76533063404034" lon="7.862071130440509"><ele>331.5</ele><time>2026-04-10T09:51:07.999Z</time></trkpt><trkpt lat="44.765364077745296" lon="7.861956011028424"><ele>332.0</ele><time>2026-04-10T09:51:09.999Z</time></trkpt><trkpt lat="44.76540536192237" lon="7.861807969465902"><ele>331.5</ele><time>2026-04-10T09:51:12.999Z</time></trkpt><trkpt lat="44.765430629483795" lon="7.86172167574398"><ele>331.0</ele><time>2026-04-10T09:51:13.999Z</time></trkpt><trkpt lat="44.765474954853794" lon="7.861601616751333"><ele>330.5</ele><time>2026-04-10T09:51:15.999Z</time></trkpt><trkpt lat="44.765523290647714" lon="7.86148947740863"><ele>330.0</ele><time>2026-04-10T09:51:17.999Z</time></trkpt><trkpt lat="44.76556958463465" lon="7.861371590310515"><ele>329.5</ele><time>2026-04-10T09:51:19.999Z</time></trkpt><trkpt lat="44.76559663906188" lon="7.8612489068533105"><ele>329.0</ele><time>2026-04-10T09:51:21.999Z</time></trkpt><trkpt lat="44.765615971867014" lon="7.861123951726208"><ele>329.0</ele><time>2026-04-10T09:51:23.999Z</time></trkpt><trkpt lat="44.76563609587807" lon="7.860997355126705"><ele>329.0</ele><time>2026-04-10T09:51:25.999Z</time></trkpt><trkpt lat="44.76566327022633" lon="7.860874650717004"><ele>329.0</ele><time>2026-04-10T09:51:27.999Z</time></trkpt><trkpt lat="44.76570436305482" lon="7.860753345724594"><ele>329.0</ele><time>2026-04-10T09:51:29.999Z</time></trkpt><trkpt lat="44.76574622355293" lon="7.860642511355493"><ele>329.0</ele><time>2026-04-10T09:51:31.999Z</time></trkpt><trkpt lat="44.76579127350246" lon="7.860529453147343"><ele>329.0</ele><time>2026-04-10T09:51:33.999Z</time></trkpt><trkpt lat="44.76583569274468" lon="7.8604250914884775"><ele>329.0</ele><time>2026-04-10T09:51:35.999Z</time></trkpt><trkpt lat="44.76587550504227" lon="7.860319275037427"><ele>329.0</ele><time>2026-04-10T09:51:37.999Z</time></trkpt><trkpt lat="44.76592317541314" lon="7.860201864783255"><ele>329.0</ele><time>2026-04-10T09:51:39.999Z</time></trkpt><trkpt lat="44.76596782931197" lon="7.860091931910783"><ele>329.0</ele><time>2026-04-10T09:51:41.999Z</time></trkpt><trkpt lat="44.76601579891182" lon="7.859975830966333"><ele>329.6666666666667</ele><time>2026-04-10T09:51:43.999Z</time></trkpt><trkpt lat="44.766071826469634" lon="7.859876900253271"><ele>330.33333333333337</ele><time>2026-04-10T09:51:45.999Z</time></trkpt><trkpt lat="44.766138091215616" lon="7.859788995776738"><ele>331.0</ele><time>2026-04-10T09:51:47.999Z</time></trkpt><trkpt lat="44.766208459363774" lon="7.8597106880456895"><ele>331.6666666666667</ele><time>2026-04-10T09:51:49.999Z</time></trkpt><trkpt lat="44.76628253029697" lon="7.859638098836628"><ele>332.3333333333333</ele><time>2026-04-10T09:51:51.999Z</time></trkpt><trkpt lat="44.76633769675435" lon="7.85954718252138"><ele>333.0</ele><time>2026-04-10T09:51:53.999Z</time></trkpt><trkpt lat="44.76640078563572" lon="7.859434749466958"><ele>333.0</ele><time>2026-04-10T09:51:55.999Z</time></trkpt><trkpt lat="44.766465503473576" lon="7.859336384130777"><ele>333.0</ele><time>2026-04-10T09:51:57.999Z</time></trkpt><trkpt lat="44.766520213445496" lon="7.8592122750255236"><ele>333.0</ele><time>2026-04-10T09:51:59.999Z</time></trkpt><trkpt lat="44.76657832356888" lon="7.859094528409023"><ele>333.0</ele><time>2026-04-10T09:52:01.999Z</time></trkpt><trkpt lat="44.766622556270704" lon="7.858966651453223"><ele>333.0</ele><time>2026-04-10T09:52:03.999Z</time></trkpt><trkpt lat="44.76666685342457" lon="7.858837333358179"><ele>332.0</ele><time>2026-04-10T09:52:06Z</time></trkpt><trkpt lat="44.766697744558904" lon="7.858697943640048"><ele>331.0</ele><time>2026-04-10T09:52:08Z</time></trkpt><trkpt lat="44.766718651283256" lon="7.858563522089195"><ele>330.0</ele><time>2026-04-10T09:52:10Z</time></trkpt><trkpt lat="44.76676592616314" lon="7.85843076837368"><ele>329.0</ele><time>2026-04-10T09:52:12Z</time></trkpt><trkpt lat="44.76683573266452" lon="7.858331554847458"><ele>328.0</ele><time>2026-04-10T09:52:14Z</time></trkpt><trkpt lat="44.76690672531162" lon="7.858239130435689"><ele>327.79999999999995</ele><time>2026-04-10T09:52:16Z</time></trkpt><trkpt lat="44.766976019481476" lon="7.858136375271198"><ele>327.6</ele><time>2026-04-10T09:52:18Z</time></trkpt><trkpt lat="44.767040080127025" lon="7.858046819306447"><ele>327.4</ele><time>2026-04-10T09:52:20Z</time></trkpt><trkpt lat="44.76709609919217" lon="7.857941971904694"><ele>327.20000000000005</ele><time>2026-04-10T09:52:22Z</time></trkpt><trkpt lat="44.76714952187495" lon="7.857843671845582"><ele>327.0</ele><time>2026-04-10T09:52:24Z</time></trkpt><trkpt lat="44.7672065569183" lon="7.857736600920586"><ele>327.0</ele><time>2026-04-10T09:52:26Z</time></trkpt><trkpt lat="44.76726755902303" lon="7.857626289269764"><ele>327.0</ele><time>2026-04-10T09:52:28Z</time></trkpt><trkpt lat="44.76732268101438" lon="7.85754664862407"><ele>327.0</ele><time>2026-04-10T09:52:30Z</time></trkpt><trkpt lat="44.76737737758788" lon="7.857457647157344"><ele>327.0</ele><time>2026-04-10T09:52:32Z</time></trkpt><trkpt lat="44.767419658419875" lon="7.857353817765659"><ele>327.0</ele><time>2026-04-10T09:52:34Z</time></trkpt><trkpt lat="44.767458282773795" lon="7.85726477069626"><ele>327.0</ele><time>2026-04-10T09:52:36Z</time></trkpt><trkpt lat="44.76749168976667" lon="7.857156459059917"><ele>327.0</ele><time>2026-04-10T09:52:38Z</time></trkpt><trkpt lat="44.76752344944263" lon="7.857055858308165"><ele>327.0</ele><time>2026-04-10T09:52:41Z</time></trkpt><trkpt lat="44.76756039611574" lon="7.856947343410836"><ele>327.0</ele><time>2026-04-10T09:52:44Z</time></trkpt><trkpt lat="44.76761057132963" lon="7.85679109736573"><ele>327.0</ele><time>2026-04-10T09:52:46Z</time></trkpt><trkpt lat="44.76765007663198" lon="7.856683468344292"><ele>327.0</ele><time>2026-04-10T09:52:48Z</time></trkpt><trkpt lat="44.76767413855709" lon="7.856536950242993"><ele>327.6666666666667</ele><time>2026-04-10T09:52:51Z</time></trkpt><trkpt lat="44.76767752601996" lon="7.85643306495479"><ele>328.3333333333333</ele><time>2026-04-10T09:52:54Z</time></trkpt><trkpt lat="44.76765240618045" lon="7.856281399996252"><ele>329.0</ele><time>2026-04-10T09:52:56Z</time></trkpt><trkpt lat="44.76762206408419" lon="7.856194060522258"><ele>329.66666666666663</ele><time>2026-04-10T09:52:58Z</time></trkpt><trkpt lat="44.76757779273474" lon="7.85609170570827"><ele>330.3333333333333</ele><time>2026-04-10T09:53:00Z</time></trkpt><trkpt lat="44.76753311529317" lon="7.855999976110029"><ele>331.0</ele><time>2026-04-10T09:53:02Z</time></trkpt><trkpt lat="44.767464302651874" lon="7.85593239497236"><ele>331.16666666666663</ele><time>2026-04-10T09:53:04Z</time></trkpt><trkpt lat="44.76738938265551" lon="7.855884550954049"><ele>331.3333333333333</ele><time>2026-04-10T09:53:05.999Z</time></trkpt><trkpt lat="44.7673079213519" lon="7.855826768251278"><ele>331.5</ele><time>2026-04-10T09:53:07.999Z</time></trkpt><trkpt lat="44.767270622612195" lon="7.855718344272244"><ele>331.6666666666667</ele><time>2026-04-10T09:53:09.999Z</time></trkpt><trkpt lat="44.76727079100103" lon="7.855610467438888"><ele>331.83333333333337</ele><time>2026-04-10T09:53:11.999Z</time></trkpt><trkpt lat="44.76728324127321" lon="7.8554945262295535"><ele>332.0</ele><time>2026-04-10T09:53:13.999Z</time></trkpt><trkpt lat="44.767278007825695" lon="7.855382485260826"><ele>332.0</ele><time>2026-04-10T09:53:15.999Z</time></trkpt><trkpt lat="44.7672805774506" lon="7.855247989983386"><ele>332.0</ele><time>2026-04-10T09:53:17.999Z</time></trkpt><trkpt lat="44.76727107121223" lon="7.855102873251836"><ele>332.0</ele><time>2026-04-10T09:53:19.999Z</time></trkpt><trkpt lat="44.76729397675097" lon="7.8549945363948295"><ele>332.0</ele><time>2026-04-10T09:53:22.999Z</time></trkpt><trkpt lat="44.76735643855085" lon="7.854792738299756"><ele>332.0</ele><time>2026-04-10T09:53:24.999Z</time></trkpt><trkpt lat="44.76743613402133" lon="7.854697586984609"><ele>331.5</ele><time>2026-04-10T09:53:26.999Z</time></trkpt><trkpt lat="44.76753051041514" lon="7.854619482382294"><ele>331.0</ele><time>2026-04-10T09:53:28.999Z</time></trkpt><trkpt lat="44.76761273364526" lon="7.8545136094208585"><ele>330.5</ele><time>2026-04-10T09:53:30.999Z</time></trkpt><trkpt lat="44.767667319858134" lon="7.854377677895076"><ele>330.0</ele><time>2026-04-10T09:53:32.999Z</time></trkpt><trkpt lat="44.76774845439728" lon="7.854238402157097"><ele>329.0</ele><time>2026-04-10T09:53:34.999Z</time></trkpt><trkpt lat="44.76784253257507" lon="7.854143580539468"><ele>328.0</ele><time>2026-04-10T09:53:36.999Z</time></trkpt><trkpt lat="44.767939209734216" lon="7.854043057812176"><ele>327.0</ele><time>2026-04-10T09:53:38.999Z</time></trkpt><trkpt lat="44.767992840339026" lon="7.853990593603567"><ele>326.0</ele><time>2026-04-10T09:53:39.999Z</time></trkpt><trkpt lat="44.76810086915825" lon="7.853891742044946"><ele>325.0</ele><time>2026-04-10T09:53:41.999Z</time></trkpt><trkpt lat="44.7681634573355" lon="7.853855500212108"><ele>325.0</ele><time>2026-04-10T09:53:42.999Z</time></trkpt><trkpt lat="44.76824281475119" lon="7.853752891684023"><ele>325.0</ele><time>2026-04-10T09:53:44.999Z</time></trkpt><trkpt lat="44.76829578355429" lon="7.8536921243877"><ele>325.0</ele><time>2026-04-10T09:53:45.999Z</time></trkpt><trkpt lat="44.76834624030848" lon="7.853638184840721"><ele>325.0</ele><time>2026-04-10T09:53:46.999Z</time></trkpt><trkpt lat="44.7684073082043" lon="7.85358064753602"><ele>325.0</ele><time>2026-04-10T09:53:48.999Z</time></trkpt><trkpt lat="44.76848240667107" lon="7.853524136709844"><ele>325.0</ele><time>2026-04-10T09:53:51.999Z</time></trkpt><trkpt lat="44.768542289874" lon="7.853490691257044"><ele>325.0</ele><time>2026-04-10T09:53:53.999Z</time></trkpt><trkpt lat="44.76860318775332" lon="7.853464948154184"><ele>325.0</ele><time>2026-04-10T09:53:55.999Z</time></trkpt><trkpt lat="44.76865995370224" lon="7.853414483989957"><ele>325.0</ele><time>2026-04-10T09:53:57.999Z</time></trkpt><trkpt lat="44.768723067461146" lon="7.853321664855043"><ele>325.0</ele><time>2026-04-10T09:54:00.999Z</time></trkpt><trkpt lat="44.768790860215866" lon="7.853220617051517"><ele>325.0</ele><time>2026-04-10T09:54:03.999Z</time></trkpt><trkpt lat="44.76884012518591" lon="7.8531380977978404"><ele>325.0</ele><time>2026-04-10T09:54:05.999Z</time></trkpt><trkpt lat="44.76889104521368" lon="7.853051980410344"><ele>325.0</ele><time>2026-04-10T09:54:07.999Z</time></trkpt><trkpt lat="44.76891253420862" lon="7.8529541944443455"><ele>325.0</ele><time>2026-04-10T09:54:09.999Z</time></trkpt><trkpt lat="44.76893422625793" lon="7.852841861898763"><ele>325.0</ele><time>2026-04-10T09:54:12Z</time></trkpt><trkpt lat="44.76895236834297" lon="7.852732051576"><ele>325.0</ele><time>2026-04-10T09:54:14Z</time></trkpt><trkpt lat="44.76895476379343" lon="7.8526125041145685"><ele>325.0</ele><time>2026-04-10T09:54:16Z</time></trkpt><trkpt lat="44.76894061734792" lon="7.852485849090898"><ele>325.0</ele><time>2026-04-10T09:54:18Z</time></trkpt><trkpt lat="44.7689259595676" lon="7.852383768737458"><ele>324.5</ele><time>2026-04-10T09:54:20Z</time></trkpt><trkpt lat="44.76895013142748" lon="7.852280891432075"><ele>324.0</ele><time>2026-04-10T09:54:23Z</time></trkpt><trkpt lat="44.76899527125569" lon="7.852182814492284"><ele>323.5</ele><time>2026-04-10T09:54:27Z</time></trkpt><trkpt lat="44.76899293388775" lon="7.85209284654702"><ele>323.0</ele><time>2026-04-10T09:54:30Z</time></trkpt><trkpt lat="44.768984831059925" lon="7.851973652180855"><ele>322.5</ele><time>2026-04-10T09:54:33Z</time></trkpt><trkpt lat="44.76896721539202" lon="7.851862118375663"><ele>322.0</ele><time>2026-04-10T09:54:36Z</time></trkpt><trkpt lat="44.768958679420045" lon="7.851774003470921"><ele>321.57142857142856</ele><time>2026-04-10T09:54:39Z</time></trkpt><trkpt lat="44.76893465171572" lon="7.851679579193395"><ele>321.1428571428571</ele><time>2026-04-10T09:54:42Z</time></trkpt><trkpt lat="44.76892103194265" lon="7.851591821531964"><ele>320.7142857142857</ele><time>2026-04-10T09:54:45Z</time></trkpt><trkpt lat="44.76890673507911" lon="7.851499310776078"><ele>320.2857142857143</ele><time>2026-04-10T09:54:49Z</time></trkpt><trkpt lat="44.76888319754619" lon="7.851381886777265"><ele>319.85714285714283</ele><time>2026-04-10T09:54:53Z</time></trkpt><trkpt lat="44.768856923376184" lon="7.851274554595445"><ele>319.42857142857144</ele><time>2026-04-10T09:54:57Z</time></trkpt><trkpt lat="44.76882966597962" lon="7.851180811097235"><ele>319.0</ele><time>2026-04-10T09:55:00Z</time></trkpt><trkpt lat="44.768815960370894" lon="7.851087562189506"><ele>319.0</ele><time>2026-04-10T09:55:03Z</time></trkpt><trkpt lat="44.76879515464052" lon="7.850997847307172"><ele>319.0</ele><time>2026-04-10T09:55:05.999Z</time></trkpt><trkpt lat="44.76877523439893" lon="7.8509025838711155"><ele>319.0</ele><time>2026-04-10T09:55:08.999Z</time></trkpt><trkpt lat="44.768751187657635" lon="7.85080478807025"><ele>319.0</ele><time>2026-04-10T09:55:12.999Z</time></trkpt><trkpt lat="44.76872847700869" lon="7.850711562478059"><ele>319.0</ele><time>2026-04-10T09:55:16.999Z</time></trkpt><trkpt lat="44.76871628858397" lon="7.850588691165432"><ele>319.0</ele><time>2026-04-10T09:55:20.999Z</time></trkpt><trkpt lat="44.76875393427507" lon="7.850513239224621"><ele>319.0</ele><time>2026-04-10T09:55:23.999Z</time></trkpt><trkpt lat="44.76881199865995" lon="7.85046492344927"><ele>319.6</ele><time>2026-04-10T09:55:26.999Z</time></trkpt><trkpt lat="44.76888604361387" lon="7.850418660158642"><ele>320.2</ele><time>2026-04-10T09:55:29.999Z</time></trkpt><trkpt lat="44.768982920907916" lon="7.850375525637103"><ele>320.8</ele><time>2026-04-10T09:55:31.999Z</time></trkpt><trkpt lat="44.76905096538625" lon="7.850328592870176"><ele>321.40000000000003</ele><time>2026-04-10T09:55:33.999Z</time></trkpt><trkpt lat="44.76915196832266" lon="7.850268795388914"><ele>322.0</ele><time>2026-04-10T09:55:36.999Z</time></trkpt><trkpt lat="44.76924735500136" lon="7.850215820801196"><ele>321.8</ele><time>2026-04-10T09:55:38.999Z</time></trkpt><trkpt lat="44.76940428173225" lon="7.850128074697359"><ele>321.6</ele><time>2026-04-10T09:55:40.999Z</time></trkpt><trkpt lat="44.769495538913255" lon="7.850073568429603"><ele>321.40000000000003</ele><time>2026-04-10T09:55:42.999Z</time></trkpt><trkpt lat="44.76958126803717" lon="7.850022599083072"><ele>321.20000000000005</ele><time>2026-04-10T09:55:44.999Z</time></trkpt><trkpt lat="44.76966094808076" lon="7.849968390781079"><ele>321.0</ele><time>2026-04-10T09:55:46.999Z</time></trkpt><trkpt lat="44.769734782741935" lon="7.849905167822646"><ele>321.0</ele><time>2026-04-10T09:55:48.999Z</time></trkpt><trkpt lat="44.76979227841698" lon="7.849800405933762"><ele>321.0</ele><time>2026-04-10T09:55:50.999Z</time></trkpt><trkpt lat="44.76980336919136" lon="7.849689552049693"><ele>321.0</ele><time>2026-04-10T09:55:52.999Z</time></trkpt><trkpt lat="44.76978867846363" lon="7.849575261606012"><ele>321.0</ele><time>2026-04-10T09:55:54.999Z</time></trkpt><trkpt lat="44.76978293550756" lon="7.8494734090299785"><ele>321.0</ele><time>2026-04-10T09:55:56.999Z</time></trkpt><trkpt lat="44.769762318978" lon="7.849367901221611"><ele>321.0</ele><time>2026-04-10T09:55:58.999Z</time></trkpt><trkpt lat="44.769730526074" lon="7.849258179601457"><ele>320.99999999999994</ele><time>2026-04-10T09:56:00.999Z</time></trkpt><trkpt lat="44.76971944353087" lon="7.8491643503260144"><ele>321.0</ele><time>2026-04-10T09:56:02.999Z</time></trkpt><trkpt lat="44.76970787726725" lon="7.849069548240268"><ele>321.0</ele><time>2026-04-10T09:56:04.999Z</time></trkpt><trkpt lat="44.76969910212713" lon="7.848974859667532"><ele>321.0</ele><time>2026-04-10T09:56:06.999Z</time></trkpt><trkpt lat="44.76968669464107" lon="7.848873803508558"><ele>321.0</ele><time>2026-04-10T09:56:08.999Z</time></trkpt><trkpt lat="44.76967966308655" lon="7.848777361969848"><ele>320.99999999999994</ele><time>2026-04-10T09:56:10.999Z</time></trkpt><trkpt lat="44.76966328755425" lon="7.848688483936952"><ele>321.0</ele><time>2026-04-10T09:56:12.999Z</time></trkpt><trkpt lat="44.769656031495735" lon="7.848597019436284"><ele>320.99999999999994</ele><time>2026-04-10T09:56:15.999Z</time></trkpt><trkpt lat="44.76964006733794" lon="7.84851099629452"><ele>321.0</ele><time>2026-04-10T09:56:18Z</time></trkpt><trkpt lat="44.7696342524486" lon="7.848403022287405"><ele>321.0</ele><time>2026-04-10T09:56:20Z</time></trkpt><trkpt lat="44.76962400813213" lon="7.848299314151271"><ele>321.0</ele><time>2026-04-10T09:56:23Z</time></trkpt><trkpt lat="44.76964883033219" lon="7.848208050209324"><ele>321.0</ele><time>2026-04-10T09:56:26Z</time></trkpt><trkpt lat="44.769711344305655" lon="7.848171977465435"><ele>320.99999999999994</ele><time>2026-04-10T09:56:28Z</time></trkpt><trkpt lat="44.769797913119994" lon="7.848180505818719"><ele>321.0</ele><time>2026-04-10T09:56:31Z</time></trkpt><trkpt lat="44.769940935406446" lon="7.848157051863084"><ele>321.6</ele><time>2026-04-10T09:56:33Z</time></trkpt><trkpt lat="44.77005690189271" lon="7.848162738330265"><ele>322.20000000000005</ele><time>2026-04-10T09:56:35Z</time></trkpt><trkpt lat="44.77017564183219" lon="7.848155987800119"><ele>322.79999999999995</ele><time>2026-04-10T09:56:37Z</time></trkpt><trkpt lat="44.77029742950983" lon="7.848144357501796"><ele>323.4</ele><time>2026-04-10T09:56:39Z</time></trkpt><trkpt lat="44.770361150234734" lon="7.8481267606132"><ele>324.0</ele><time>2026-04-10T09:56:40Z</time></trkpt><trkpt lat="44.77042450870838" lon="7.848111810412729"><ele>324.0</ele><time>2026-04-10T09:56:41Z</time></trkpt><trkpt lat="44.77048963777676" lon="7.84810400611447"><ele>324.0</ele><time>2026-04-10T09:56:42Z</time></trkpt><trkpt lat="44.77055314419286" lon="7.848082636199881"><ele>324.0</ele><time>2026-04-10T09:56:43Z</time></trkpt><trkpt lat="44.770616013370315" lon="7.8480572675276035"><ele>324.0</ele><time>2026-04-10T09:56:44Z</time></trkpt><trkpt lat="44.77073812068948" lon="7.848017012397132"><ele>324.0</ele><time>2026-04-10T09:56:46Z</time></trkpt><trkpt lat="44.77080191101751" lon="7.847974632953294"><ele>324.0</ele><time>2026-04-10T09:56:47Z</time></trkpt><trkpt lat="44.770865959529374" lon="7.847956910819766"><ele>324.0</ele><time>2026-04-10T09:56:48Z</time></trkpt><trkpt lat="44.77092457232397" lon="7.847920123718748"><ele>324.0</ele><time>2026-04-10T09:56:49Z</time></trkpt><trkpt lat="44.770983302641056" lon="7.847881901280177"><ele>324.0</ele><time>2026-04-10T09:56:50Z</time></trkpt><trkpt lat="44.77104340223453" lon="7.847854798442373"><ele>324.0</ele><time>2026-04-10T09:56:51Z</time></trkpt><trkpt lat="44.77112128786801" lon="7.847767876621512"><ele>324.0</ele><time>2026-04-10T09:56:53Z</time></trkpt><trkpt lat="44.771179234519614" lon="7.847723076969003"><ele>324.0</ele><time>2026-04-10T09:56:54Z</time></trkpt><trkpt lat="44.77123438325082" lon="7.8476774011997605"><ele>324.0</ele><time>2026-04-10T09:56:55Z</time></trkpt><trkpt lat="44.771332593365095" lon="7.847579900986076"><ele>325.2</ele><time>2026-04-10T09:56:57Z</time></trkpt><trkpt lat="44.77142958085646" lon="7.8474939304446885"><ele>326.4</ele><time>2026-04-10T09:56:59Z</time></trkpt><trkpt lat="44.77152632858494" lon="7.847408340316274"><ele>327.6</ele><time>2026-04-10T09:57:01Z</time></trkpt><trkpt lat="44.77161670655137" lon="7.847324566484952"><ele>328.8</ele><time>2026-04-10T09:57:03Z</time></trkpt><trkpt lat="44.77170570306864" lon="7.847242289502596"><ele>330.0</ele><time>2026-04-10T09:57:05Z</time></trkpt><trkpt lat="44.77179819849489" lon="7.847158796311075"><ele>330.0</ele><time>2026-04-10T09:57:07Z</time></trkpt><trkpt lat="44.77188652381041" lon="7.847081348827178"><ele>330.0</ele><time>2026-04-10T09:57:09Z</time></trkpt><trkpt lat="44.77197401973742" lon="7.847004009253051"><ele>330.0</ele><time>2026-04-10T09:57:10.999Z</time></trkpt><trkpt lat="44.77205497244993" lon="7.8469161646131145"><ele>330.0</ele><time>2026-04-10T09:57:12.999Z</time></trkpt><trkpt lat="44.77214146752641" lon="7.846834661448291"><ele>330.0</ele><time>2026-04-10T09:57:14.999Z</time></trkpt><trkpt lat="44.772229377293456" lon="7.846756142102503"><ele>330.0</ele><time>2026-04-10T09:57:16.999Z</time></trkpt><trkpt lat="44.772322308136566" lon="7.846673806036342"><ele>330.0</ele><time>2026-04-10T09:57:19.999Z</time></trkpt><trkpt lat="44.77250285615063" lon="7.846527998992236"><ele>330.0</ele><time>2026-04-10T09:57:22.999Z</time></trkpt><trkpt lat="44.77259606511032" lon="7.846456016449273"><ele>330.0</ele><time>2026-04-10T09:57:24.999Z</time></trkpt><trkpt lat="44.772681694377674" lon="7.846357776644477"><ele>329.8</ele><time>2026-04-10T09:57:26.999Z</time></trkpt><trkpt lat="44.77277536278102" lon="7.846285604332044"><ele>329.6</ele><time>2026-04-10T09:57:28.999Z</time></trkpt><trkpt lat="44.772857632859825" lon="7.8461982339151355"><ele>329.4</ele><time>2026-04-10T09:57:30.999Z</time></trkpt><trkpt lat="44.77294461449383" lon="7.846105852146372"><ele>329.2</ele><time>2026-04-10T09:57:32.999Z</time></trkpt><trkpt lat="44.77303747151497" lon="7.846015754923767"><ele>329.0</ele><time>2026-04-10T09:57:34.999Z</time></trkpt><trkpt lat="44.77312901562252" lon="7.845924339618012"><ele>329.4</ele><time>2026-04-10T09:57:36.999Z</time></trkpt><trkpt lat="44.773213175441334" lon="7.8458337576313735"><ele>329.79999999999995</ele><time>2026-04-10T09:57:38.999Z</time></trkpt><trkpt lat="44.773285842751555" lon="7.845742725283959"><ele>330.20000000000005</ele><time>2026-04-10T09:57:40.999Z</time></trkpt><trkpt lat="44.773382081126634" lon="7.845649900940829"><ele>330.6</ele><time>2026-04-10T09:57:42.999Z</time></trkpt><trkpt lat="44.773476011346375" lon="7.845551540411324"><ele>331.0</ele><time>2026-04-10T09:57:44.999Z</time></trkpt><trkpt lat="44.7735721185965" lon="7.845456296698708"><ele>330.25</ele><time>2026-04-10T09:57:46.999Z</time></trkpt><trkpt lat="44.77367071416527" lon="7.845351872168758"><ele>329.5</ele><time>2026-04-10T09:57:48.999Z</time></trkpt><trkpt lat="44.773768393997045" lon="7.845249177936253"><ele>328.75</ele><time>2026-04-10T09:57:50.999Z</time></trkpt><trkpt lat="44.773870277550316" lon="7.845151679145721"><ele>328.0</ele><time>2026-04-10T09:57:52.999Z</time></trkpt><trkpt lat="44.77396671065242" lon="7.845055001507742"><ele>328.0</ele><time>2026-04-10T09:57:54.999Z</time></trkpt><trkpt lat="44.77406863800666" lon="7.84494925083709"><ele>328.0</ele><time>2026-04-10T09:57:56.999Z</time></trkpt><trkpt lat="44.774123642529744" lon="7.844899499393981"><ele>328.0</ele><time>2026-04-10T09:57:57.999Z</time></trkpt><trkpt lat="44.77418429786634" lon="7.844847510037283"><ele>328.0</ele><time>2026-04-10T09:57:58.999Z</time></trkpt><trkpt lat="44.77424054982663" lon="7.844793100402374"><ele>328.0</ele><time>2026-04-10T09:57:59.999Z</time></trkpt><trkpt lat="44.774311624482316" lon="7.844751177627551"><ele>328.0</ele><time>2026-04-10T09:58:00.999Z</time></trkpt><trkpt lat="44.774385390518425" lon="7.844724217522476"><ele>327.0</ele><time>2026-04-10T09:58:01.999Z</time></trkpt><trkpt lat="44.77445907978574" lon="7.844702268915808"><ele>326.0</ele><time>2026-04-10T09:58:02.999Z</time></trkpt><trkpt lat="44.77452690079544" lon="7.844685581471887"><ele>325.0</ele><time>2026-04-10T09:58:03.999Z</time></trkpt><trkpt lat="44.774600085981646" lon="7.844688478948108"><ele>324.0</ele><time>2026-04-10T09:58:04.999Z</time></trkpt><trkpt lat="44.774677906595095" lon="7.84468763625177"><ele>323.0</ele><time>2026-04-10T09:58:05.999Z</time></trkpt><trkpt lat="44.77475864892015" lon="7.84468759927931"><ele>322.0</ele><time>2026-04-10T09:58:06.999Z</time></trkpt><trkpt lat="44.774834336572" lon="7.844682270477992"><ele>322.0</ele><time>2026-04-10T09:58:07.999Z</time></trkpt><trkpt lat="44.77491956325565" lon="7.844679543719315"><ele>322.0</ele><time>2026-04-10T09:58:08.999Z</time></trkpt><trkpt lat="44.775003705083336" lon="7.844674833699958"><ele>322.0</ele><time>2026-04-10T09:58:09.999Z</time></trkpt><trkpt lat="44.77508832568273" lon="7.844655750420446"><ele>322.0</ele><time>2026-04-10T09:58:10.999Z</time></trkpt><trkpt lat="44.77517172673287" lon="7.84461400977645"><ele>322.0</ele><time>2026-04-10T09:58:11.999Z</time></trkpt><trkpt lat="44.77525414701321" lon="7.844558950057117"><ele>322.0</ele><time>2026-04-10T09:58:12.999Z</time></trkpt><trkpt lat="44.7753281757754" lon="7.844491034058053"><ele>321.6</ele><time>2026-04-10T09:58:13.999Z</time></trkpt><trkpt lat="44.77540629305216" lon="7.844425077708415"><ele>321.20000000000005</ele><time>2026-04-10T09:58:14.999Z</time></trkpt><trkpt lat="44.77548951547433" lon="7.844360694440098"><ele>320.8</ele><time>2026-04-10T09:58:15.999Z</time></trkpt><trkpt lat="44.775567772667735" lon="7.844293899085837"><ele>320.4</ele><time>2026-04-10T09:58:16.999Z</time></trkpt><trkpt lat="44.77564565545241" lon="7.844227763479308"><ele>320.0</ele><time>2026-04-10T09:58:17.999Z</time></trkpt><trkpt lat="44.775723940123214" lon="7.844160611197864"><ele>320.0</ele><time>2026-04-10T09:58:18.999Z</time></trkpt><trkpt lat="44.77580836263288" lon="7.844085108287904"><ele>320.0</ele><time>2026-04-10T09:58:19.999Z</time></trkpt><trkpt lat="44.775891369137085" lon="7.844020282577854"><ele>320.0</ele><time>2026-04-10T09:58:20.999Z</time></trkpt><trkpt lat="44.77597456784924" lon="7.843953932526475"><ele>320.0</ele><time>2026-04-10T09:58:21.999Z</time></trkpt><trkpt lat="44.77605352030181" lon="7.843878437039271"><ele>320.0</ele><time>2026-04-10T09:58:23Z</time></trkpt><trkpt lat="44.776131453436804" lon="7.843825939201362"><ele>318.6</ele><time>2026-04-10T09:58:24Z</time></trkpt><trkpt lat="44.77621578214041" lon="7.843756882391712"><ele>317.2</ele><time>2026-04-10T09:58:25Z</time></trkpt><trkpt lat="44.77629893683585" lon="7.843691140300087"><ele>315.8</ele><time>2026-04-10T09:58:26Z</time></trkpt><trkpt lat="44.77637724708913" lon="7.843623922792032"><ele>314.4</ele><time>2026-04-10T09:58:27Z</time></trkpt><trkpt lat="44.77645472617523" lon="7.843560940141036"><ele>313.0</ele><time>2026-04-10T09:58:28Z</time></trkpt><trkpt lat="44.77652837019664" lon="7.843503158681028"><ele>313.2</ele><time>2026-04-10T09:58:29Z</time></trkpt><trkpt lat="44.77660337985155" lon="7.843443946221361"><ele>313.4</ele><time>2026-04-10T09:58:30Z</time></trkpt><trkpt lat="44.776684628124556" lon="7.843379242869835"><ele>313.59999999999997</ele><time>2026-04-10T09:58:31Z</time></trkpt><trkpt lat="44.77675863856221" lon="7.8433170534096694"><ele>313.8</ele><time>2026-04-10T09:58:32Z</time></trkpt><trkpt lat="44.776840146925046" lon="7.843248981598946"><ele>314.0</ele><time>2026-04-10T09:58:33Z</time></trkpt><trkpt lat="44.77692001490063" lon="7.843180677148314"><ele>312.59999999999997</ele><time>2026-04-10T09:58:34Z</time></trkpt><trkpt lat="44.776994035736706" lon="7.843112923376313"><ele>311.2</ele><time>2026-04-10T09:58:35Z</time></trkpt><trkpt lat="44.77707272833885" lon="7.8430503810873695"><ele>309.79999999999995</ele><time>2026-04-10T09:58:36Z</time></trkpt><trkpt lat="44.777153777059816" lon="7.842984391979863"><ele>308.4</ele><time>2026-04-10T09:58:37Z</time></trkpt><trkpt lat="44.77722757043792" lon="7.84291328561254"><ele>307.0</ele><time>2026-04-10T09:58:38Z</time></trkpt><trkpt lat="44.77730251550254" lon="7.84283826468045"><ele>307.0</ele><time>2026-04-10T09:58:39Z</time></trkpt><trkpt lat="44.77737461168079" lon="7.842763144741821"><ele>307.0</ele><time>2026-04-10T09:58:40Z</time></trkpt><trkpt lat="44.77744139318633" lon="7.842687880734789"><ele>307.0</ele><time>2026-04-10T09:58:41Z</time></trkpt><trkpt lat="44.77750700761776" lon="7.8426135706328495"><ele>307.0</ele><time>2026-04-10T09:58:42Z</time></trkpt><trkpt lat="44.77756965181533" lon="7.842540229844693"><ele>307.0</ele><time>2026-04-10T09:58:43Z</time></trkpt><trkpt lat="44.777629373552074" lon="7.842477068111252"><ele>307.0</ele><time>2026-04-10T09:58:44Z</time></trkpt><trkpt lat="44.777686169348385" lon="7.84241355750451"><ele>308.8</ele><time>2026-04-10T09:58:45Z</time></trkpt><trkpt lat="44.77773951265354" lon="7.842352739441607"><ele>310.6</ele><time>2026-04-10T09:58:46Z</time></trkpt><trkpt lat="44.77779084775891" lon="7.842296394856153"><ele>312.40000000000003</ele><time>2026-04-10T09:58:47Z</time></trkpt><trkpt lat="44.77788178620023" lon="7.84219259271187"><ele>314.2</ele><time>2026-04-10T09:58:49Z</time></trkpt><trkpt lat="44.777966924367234" lon="7.842100948825156"><ele>316.0</ele><time>2026-04-10T09:58:51Z</time></trkpt><trkpt lat="44.77804046374392" lon="7.84201389434187"><ele>316.0</ele><time>2026-04-10T09:58:53Z</time></trkpt><trkpt lat="44.778108387345775" lon="7.841935833801702"><ele>316.0</ele><time>2026-04-10T09:58:55Z</time></trkpt><trkpt lat="44.7781760761073" lon="7.8418552988546955"><ele>316.0</ele><time>2026-04-10T09:58:57Z</time></trkpt><trkpt lat="44.77824039122492" lon="7.841784583274379"><ele>316.0</ele><time>2026-04-10T09:58:59Z</time></trkpt><trkpt lat="44.77828863173316" lon="7.84172340071738"><ele>316.0</ele><time>2026-04-10T09:59:02Z</time></trkpt><trkpt lat="44.77834840859796" lon="7.8416643968647275"><ele>316.0</ele><time>2026-04-10T09:59:04Z</time></trkpt><trkpt lat="44.7784167653964" lon="7.841604747910987"><ele>315.3333333333333</ele><time>2026-04-10T09:59:07Z</time></trkpt><trkpt lat="44.77848987289974" lon="7.841570070177519"><ele>314.66666666666663</ele><time>2026-04-10T09:59:10Z</time></trkpt><trkpt lat="44.778565011362474" lon="7.841576975471472"><ele>314.0</ele><time>2026-04-10T09:59:13Z</time></trkpt><trkpt lat="44.778642010907284" lon="7.841576340583635"><ele>313.3333333333333</ele><time>2026-04-10T09:59:16Z</time></trkpt><trkpt lat="44.77871639751174" lon="7.84161697155519"><ele>312.6666666666667</ele><time>2026-04-10T09:59:19Z</time></trkpt><trkpt lat="44.77872588081448" lon="7.841739711315947"><ele>312.0</ele><time>2026-04-10T09:59:21Z</time></trkpt><trkpt lat="44.77878871031655" lon="7.841871473945053"><ele>314.0</ele><time>2026-04-10T09:59:24Z</time></trkpt><trkpt lat="44.778824668366994" lon="7.841947390779384"><ele>316.0</ele><time>2026-04-10T09:59:25.999Z</time></trkpt><trkpt lat="44.77887281274571" lon="7.842058393064088"><ele>318.0</ele><time>2026-04-10T09:59:28.999Z</time></trkpt><trkpt lat="44.77892595470591" lon="7.842158186470239"><ele>320.0</ele><time>2026-04-10T09:59:31.999Z</time></trkpt><trkpt lat="44.77898726245793" lon="7.842247356060171"><ele>322.0</ele><time>2026-04-10T09:59:34.999Z</time></trkpt><trkpt lat="44.77906144914442" lon="7.8423020429587345"><ele>324.0</ele><time>2026-04-10T09:59:37.999Z</time></trkpt><trkpt lat="44.779126755122455" lon="7.8423379107587765"><ele>324.0</ele><time>2026-04-10T09:59:40.999Z</time></trkpt><trkpt lat="44.77920582672143" lon="7.84237217086926"><ele>324.0</ele><time>2026-04-10T09:59:43.999Z</time></trkpt><trkpt lat="44.77929207555788" lon="7.842366259413972"><ele>324.0</ele><time>2026-04-10T09:59:46.999Z</time></trkpt><trkpt lat="44.77937205045557" lon="7.842359819381187"><ele>324.0</ele><time>2026-04-10T09:59:49.999Z</time></trkpt><trkpt lat="44.77944867173559" lon="7.842337197642058"><ele>324.0</ele><time>2026-04-10T09:59:52.999Z</time></trkpt><trkpt lat="44.779532293686856" lon="7.842325690428992"><ele>324.0</ele><time>2026-04-10T09:59:55.999Z</time></trkpt><trkpt lat="44.77961403931366" lon="7.842297614555394"><ele>324.3333333333333</ele><time>2026-04-10T09:59:58.999Z</time></trkpt><trkpt lat="44.77969402006507" lon="7.8422831276993605"><ele>324.6666666666667</ele><time>2026-04-10T10:00:01.999Z</time></trkpt><trkpt lat="44.779771137860486" lon="7.842248968801097"><ele>325.0</ele><time>2026-04-10T10:00:04.999Z</time></trkpt><trkpt lat="44.77984383560462" lon="7.842202446596818"><ele>325.33333333333337</ele><time>2026-04-10T10:00:07.999Z</time></trkpt><trkpt lat="44.77991628328909" lon="7.842134699460951"><ele>325.6666666666667</ele><time>2026-04-10T10:00:10.999Z</time></trkpt><trkpt lat="44.77996999403361" lon="7.842080423002225"><ele>326.0</ele><time>2026-04-10T10:00:12.999Z</time></trkpt><trkpt lat="44.78002604642704" lon="7.842027805472243"><ele>326.0</ele><time>2026-04-10T10:00:14.999Z</time></trkpt><trkpt lat="44.780083418823885" lon="7.841964534105304"><ele>326.0</ele><time>2026-04-10T10:00:16.999Z</time></trkpt><trkpt lat="44.78014142444298" lon="7.841898412848687"><ele>326.0</ele><time>2026-04-10T10:00:18.999Z</time></trkpt><trkpt lat="44.780206584458895" lon="7.841834737144716"><ele>326.0</ele><time>2026-04-10T10:00:20.999Z</time></trkpt><trkpt lat="44.780269107487754" lon="7.841761473738769"><ele>326.0</ele><time>2026-04-10T10:00:22.999Z</time></trkpt><trkpt lat="44.78033143465863" lon="7.841688681115657"><ele>326.0</ele><time>2026-04-10T10:00:24.999Z</time></trkpt><trkpt lat="44.78039971823906" lon="7.84161003860482"><ele>325.6</ele><time>2026-04-10T10:00:26.999Z</time></trkpt><trkpt lat="44.78046516120329" lon="7.841516998238143"><ele>325.20000000000005</ele><time>2026-04-10T10:00:29Z</time></trkpt><trkpt lat="44.780542370377354" lon="7.84143600406617"><ele>324.79999999999995</ele><time>2026-04-10T10:00:31Z</time></trkpt><trkpt lat="44.78062582707679" lon="7.841341732670027"><ele>324.4</ele><time>2026-04-10T10:00:33Z</time></trkpt><trkpt lat="44.78071957133691" lon="7.8412554040369065"><ele>324.0</ele><time>2026-04-10T10:00:35Z</time></trkpt><trkpt lat="44.78083266021817" lon="7.841191316101963"><ele>324.0</ele><time>2026-04-10T10:00:37Z</time></trkpt><trkpt lat="44.78089763120515" lon="7.841183141305438"><ele>324.0</ele><time>2026-04-10T10:00:38Z</time></trkpt><trkpt lat="44.78096609743855" lon="7.841189853649895"><ele>324.0</ele><time>2026-04-10T10:00:39Z</time></trkpt><trkpt lat="44.78103167295551" lon="7.8412180912930385"><ele>324.0</ele><time>2026-04-10T10:00:40Z</time></trkpt><trkpt lat="44.78109541748426" lon="7.8412652253113775"><ele>324.0</ele><time>2026-04-10T10:00:41Z</time></trkpt><trkpt lat="44.78115108194427" lon="7.841334291150886"><ele>324.0</ele><time>2026-04-10T10:00:42Z</time></trkpt><trkpt lat="44.78120060804919" lon="7.841419385083506"><ele>324.0</ele><time>2026-04-10T10:00:43Z</time></trkpt><trkpt lat="44.781236744124236" lon="7.841517834811025"><ele>323.3333333333333</ele><time>2026-04-10T10:00:44Z</time></trkpt><trkpt lat="44.78126235318099" lon="7.841634230495245"><ele>322.6666666666667</ele><time>2026-04-10T10:00:45Z</time></trkpt><trkpt lat="44.78128879092801" lon="7.841748821681111"><ele>322.0</ele><time>2026-04-10T10:00:46Z</time></trkpt><trkpt lat="44.781317423486996" lon="7.841865880840231"><ele>321.33333333333337</ele><time>2026-04-10T10:00:47Z</time></trkpt><trkpt lat="44.781332173293876" lon="7.841984002083909"><ele>320.6666666666667</ele><time>2026-04-10T10:00:48Z</time></trkpt><trkpt lat="44.781353852552755" lon="7.842111923973766"><ele>320.0</ele><time>2026-04-10T10:00:49Z</time></trkpt><trkpt lat="44.781377429003975" lon="7.8422459934232345"><ele>319.2</ele><time>2026-04-10T10:00:50Z</time></trkpt><trkpt lat="44.78140601804881" lon="7.842377830087738"><ele>318.4</ele><time>2026-04-10T10:00:51Z</time></trkpt><trkpt lat="44.78144471719139" lon="7.842506571428685"><ele>317.6</ele><time>2026-04-10T10:00:52Z</time></trkpt><trkpt lat="44.78149770826102" lon="7.842623391585189"><ele>316.8</ele><time>2026-04-10T10:00:53Z</time></trkpt><trkpt lat="44.78157131646406" lon="7.842715157645294"><ele>316.0</ele><time>2026-04-10T10:00:54Z</time></trkpt><trkpt lat="44.781665548826254" lon="7.84277049352523"><ele>315.8</ele><time>2026-04-10T10:00:55Z</time></trkpt><trkpt lat="44.781771763237735" lon="7.842787619947745"><ele>315.6</ele><time>2026-04-10T10:00:56Z</time></trkpt><trkpt lat="44.781876966602184" lon="7.842758447469259"><ele>315.4</ele><time>2026-04-10T10:00:57Z</time></trkpt><trkpt lat="44.781981699073405" lon="7.842689230130691"><ele>315.2</ele><time>2026-04-10T10:00:58Z</time></trkpt><trkpt lat="44.78207739888895" lon="7.84261021881668"><ele>315.0</ele><time>2026-04-10T10:00:59Z</time></trkpt><trkpt lat="44.78217234239" lon="7.842533106003923"><ele>314.2</ele><time>2026-04-10T10:01:00Z</time></trkpt><trkpt lat="44.782275571672834" lon="7.84247065593239"><ele>313.4</ele><time>2026-04-10T10:01:01Z</time></trkpt><trkpt lat="44.78237559705727" lon="7.842408863236025"><ele>312.6</ele><time>2026-04-10T10:01:02Z</time></trkpt><trkpt lat="44.782481858169845" lon="7.842358953783386"><ele>311.8</ele><time>2026-04-10T10:01:03Z</time></trkpt><trkpt lat="44.782594980068225" lon="7.842328618675657"><ele>311.0</ele><time>2026-04-10T10:01:04Z</time></trkpt><trkpt lat="44.782704632332376" lon="7.8422973337568544"><ele>309.0</ele><time>2026-04-10T10:01:05Z</time></trkpt><trkpt lat="44.78281441758405" lon="7.842283798141306"><ele>307.0</ele><time>2026-04-10T10:01:06Z</time></trkpt><trkpt lat="44.78292465347867" lon="7.842282257420056"><ele>305.0</ele><time>2026-04-10T10:01:07Z</time></trkpt><trkpt lat="44.78303788339397" lon="7.842294079546217"><ele>303.0</ele><time>2026-04-10T10:01:08Z</time></trkpt><trkpt lat="44.78315988656857" lon="7.842311582566938"><ele>303.0</ele><time>2026-04-10T10:01:09Z</time></trkpt><trkpt lat="44.783274457664525" lon="7.842351697235959"><ele>303.0</ele><time>2026-04-10T10:01:10Z</time></trkpt><trkpt lat="44.78338000875767" lon="7.842410182468473"><ele>303.0</ele><time>2026-04-10T10:01:11Z</time></trkpt><trkpt lat="44.7834869791706" lon="7.8424791350117"><ele>303.0</ele><time>2026-04-10T10:01:12Z</time></trkpt><trkpt lat="44.78359165841762" lon="7.84255807224742"><ele>301.25</ele><time>2026-04-10T10:01:13Z</time></trkpt><trkpt lat="44.78368838263156" lon="7.84264748656138"><ele>299.5</ele><time>2026-04-10T10:01:14Z</time></trkpt><trkpt lat="44.78377633597327" lon="7.8427493458969675"><ele>297.75</ele><time>2026-04-10T10:01:15Z</time></trkpt><trkpt lat="44.78386786197968" lon="7.842864870664415"><ele>296.0</ele><time>2026-04-10T10:01:16Z</time></trkpt><trkpt lat="44.78395604021602" lon="7.842973349701528"><ele>296.0</ele><time>2026-04-10T10:01:17Z</time></trkpt><trkpt lat="44.784045259136995" lon="7.843083670304159"><ele>296.0</ele><time>2026-04-10T10:01:18Z</time></trkpt><trkpt lat="44.784125065696294" lon="7.843197843527743"><ele>296.0</ele><time>2026-04-10T10:01:19Z</time></trkpt><trkpt lat="44.78421556893608" lon="7.843314757369643"><ele>296.0</ele><time>2026-04-10T10:01:20Z</time></trkpt><trkpt lat="44.784311436962916" lon="7.843428281487469"><ele>296.0</ele><time>2026-04-10T10:01:21Z</time></trkpt><trkpt lat="44.784399181121394" lon="7.8435497463387716"><ele>296.0</ele><time>2026-04-10T10:01:22Z</time></trkpt><trkpt lat="44.78448771480322" lon="7.843661731602654"><ele>296.0</ele><time>2026-04-10T10:01:23Z</time></trkpt><trkpt lat="44.78458177122476" lon="7.8437683168463055"><ele>296.0</ele><time>2026-04-10T10:01:24Z</time></trkpt><trkpt lat="44.78467167190542" lon="7.843878395177266"><ele>296.0</ele><time>2026-04-10T10:01:25Z</time></trkpt><trkpt lat="44.784757856544786" lon="7.843989698557751"><ele>296.0</ele><time>2026-04-10T10:01:26Z</time></trkpt><trkpt lat="44.78484246635763" lon="7.844094784634079"><ele>296.0</ele><time>2026-04-10T10:01:27Z</time></trkpt><trkpt lat="44.78492104729149" lon="7.844199623923212"><ele>296.0</ele><time>2026-04-10T10:01:28Z</time></trkpt><trkpt lat="44.78499800228052" lon="7.844302119102493"><ele>296.0</ele><time>2026-04-10T10:01:29Z</time></trkpt><trkpt lat="44.78507251490582" lon="7.844397927739736"><ele>296.1666666666667</ele><time>2026-04-10T10:01:30Z</time></trkpt><trkpt lat="44.785142954828395" lon="7.84448683012091"><ele>296.33333333333337</ele><time>2026-04-10T10:01:31Z</time></trkpt><trkpt lat="44.7852080494563" lon="7.844577288674982"><ele>296.5</ele><time>2026-04-10T10:01:32Z</time></trkpt><trkpt lat="44.78527094585965" lon="7.844654812995254"><ele>296.6666666666667</ele><time>2026-04-10T10:01:33Z</time></trkpt><trkpt lat="44.78533968493039" lon="7.844721859945154"><ele>296.8333333333333</ele><time>2026-04-10T10:01:33.999Z</time></trkpt><trkpt lat="44.785398999456675" lon="7.844788248519542"><ele>297.0</ele><time>2026-04-10T10:01:34.999Z</time></trkpt><trkpt lat="44.7854801273574" lon="7.844874210508158"><ele>297.0</ele><time>2026-04-10T10:01:36.999Z</time></trkpt><trkpt lat="44.78555203239671" lon="7.844905040423237"><ele>297.0</ele><time>2026-04-10T10:01:42.999Z</time></trkpt><trkpt lat="44.78563108499013" lon="7.84477274409978"><ele>297.0</ele><time>2026-04-10T10:01:45.999Z</time></trkpt><trkpt lat="44.78565036408258" lon="7.844633300166732"><ele>297.0</ele><time>2026-04-10T10:01:47.999Z</time></trkpt><trkpt lat="44.78567869632339" lon="7.844482567867733"><ele>297.0</ele><time>2026-04-10T10:01:49.999Z</time></trkpt><trkpt lat="44.78571805411223" lon="7.844319454152586"><ele>296.6</ele><time>2026-04-10T10:01:51.999Z</time></trkpt><trkpt lat="44.7857518819954" lon="7.84415792365447"><ele>296.2</ele><time>2026-04-10T10:01:53.999Z</time></trkpt><trkpt lat="44.78577361064716" lon="7.844073645895691"><ele>295.8</ele><time>2026-04-10T10:01:54.999Z</time></trkpt><trkpt lat="44.7858134765117" lon="7.84390930570628"><ele>295.4</ele><time>2026-04-10T10:01:56.999Z</time></trkpt><trkpt lat="44.78583607927028" lon="7.8438245589360465"><ele>295.0</ele><time>2026-04-10T10:01:57.999Z</time></trkpt><trkpt lat="44.78587218559744" lon="7.843657673764627"><ele>295.0</ele><time>2026-04-10T10:01:59.999Z</time></trkpt><trkpt lat="44.785914616890665" lon="7.843496075472433"><ele>295.0</ele><time>2026-04-10T10:02:01.999Z</time></trkpt><trkpt lat="44.78594927969487" lon="7.843335690244679"><ele>295.0</ele><time>2026-04-10T10:02:03.999Z</time></trkpt><trkpt lat="44.78598414075268" lon="7.84317951548254"><ele>295.0</ele><time>2026-04-10T10:02:05.999Z</time></trkpt><trkpt lat="44.78602523255213" lon="7.843021384404356"><ele>294.75</ele><time>2026-04-10T10:02:07.999Z</time></trkpt><trkpt lat="44.78605981240191" lon="7.8428627317142645"><ele>294.5</ele><time>2026-04-10T10:02:09.999Z</time></trkpt><trkpt lat="44.78609493941908" lon="7.842707165919314"><ele>294.25</ele><time>2026-04-10T10:02:11.999Z</time></trkpt><trkpt lat="44.78613182775461" lon="7.842552055187058"><ele>294.0</ele><time>2026-04-10T10:02:13.999Z</time></trkpt><trkpt lat="44.78616579497024" lon="7.842394082368748"><ele>294.75</ele><time>2026-04-10T10:02:15.999Z</time></trkpt><trkpt lat="44.78620330009207" lon="7.842236333942162"><ele>295.5</ele><time>2026-04-10T10:02:17.999Z</time></trkpt><trkpt lat="44.7862382197197" lon="7.842082386336212"><ele>296.25</ele><time>2026-04-10T10:02:19.999Z</time></trkpt><trkpt lat="44.786274277822514" lon="7.84193116005798"><ele>297.0</ele><time>2026-04-10T10:02:21.999Z</time></trkpt><trkpt lat="44.7863096499655" lon="7.841780298191828"><ele>297.0</ele><time>2026-04-10T10:02:23.999Z</time></trkpt><trkpt lat="44.78634546326445" lon="7.841638058435644"><ele>297.0</ele><time>2026-04-10T10:02:25.999Z</time></trkpt><trkpt lat="44.786375766280145" lon="7.841501216147558"><ele>297.0</ele><time>2026-04-10T10:02:27.999Z</time></trkpt><trkpt lat="44.78640926171896" lon="7.84138907917202"><ele>297.0</ele><time>2026-04-10T10:02:29.999Z</time></trkpt><trkpt lat="44.786522851004406" lon="7.841444610476145"><ele>297.0</ele><time>2026-04-10T10:02:32.999Z</time></trkpt><trkpt lat="44.78660013293956" lon="7.841463360148437"><ele>297.0</ele><time>2026-04-10T10:02:35Z</time></trkpt><trkpt lat="44.78665145206613" lon="7.841524137015525"><ele>297.0</ele><time>2026-04-10T10:02:37Z</time></trkpt><trkpt lat="44.78670727200913" lon="7.841575314884268"><ele>297.0</ele><time>2026-04-10T10:02:39Z</time></trkpt><trkpt lat="44.786763115083154" lon="7.841640212056655"><ele>297.0</ele><time>2026-04-10T10:02:41Z</time></trkpt><trkpt lat="44.78682372352648" lon="7.841699030067074"><ele>297.0</ele><time>2026-04-10T10:02:43Z</time></trkpt><trkpt lat="44.78687986220343" lon="7.841761589454812"><ele>297.0</ele><time>2026-04-10T10:02:45Z</time></trkpt><trkpt lat="44.78694666932581" lon="7.8417922976716845"><ele>297.0</ele><time>2026-04-10T10:02:48Z</time></trkpt><trkpt lat="44.787027308090806" lon="7.841788570758494"><ele>298.5</ele><time>2026-04-10T10:02:51Z</time></trkpt><trkpt lat="44.787089877159644" lon="7.841774186778136"><ele>300.0</ele><time>2026-04-10T10:02:53Z</time></trkpt><trkpt lat="44.7871754638449" lon="7.841746617043516"><ele>301.5</ele><time>2026-04-10T10:02:56Z</time></trkpt><trkpt lat="44.78726708904287" lon="7.841715544857217"><ele>303.0</ele><time>2026-04-10T10:02:59Z</time></trkpt><trkpt lat="44.787354979886665" lon="7.841692261886544"><ele>304.5</ele><time>2026-04-10T10:03:01Z</time></trkpt><trkpt lat="44.78743838257623" lon="7.841676068201231"><ele>306.0</ele><time>2026-04-10T10:03:03Z</time></trkpt><trkpt lat="44.78751859951129" lon="7.841661205453208"><ele>306.0</ele><time>2026-04-10T10:03:06Z</time></trkpt><trkpt lat="44.787611682230825" lon="7.841643123190345"><ele>306.0</ele><time>2026-04-10T10:03:09Z</time></trkpt><trkpt lat="44.78769858824729" lon="7.841640655476335"><ele>306.0</ele><time>2026-04-10T10:03:12Z</time></trkpt><trkpt lat="44.787784509904164" lon="7.8416589230333535"><ele>306.0</ele><time>2026-04-10T10:03:15Z</time></trkpt><trkpt lat="44.7878526073618" lon="7.841677961523685"><ele>306.0</ele><time>2026-04-10T10:03:17Z</time></trkpt><trkpt lat="44.78793217618976" lon="7.841692192967359"><ele>306.0</ele><time>2026-04-10T10:03:20Z</time></trkpt><trkpt lat="44.7880013884639" lon="7.841720886905211"><ele>306.8333333333333</ele><time>2026-04-10T10:03:22Z</time></trkpt><trkpt lat="44.788066264868306" lon="7.841752341438689"><ele>307.6666666666667</ele><time>2026-04-10T10:03:24Z</time></trkpt><trkpt lat="44.788125826401526" lon="7.841783216776764"><ele>308.5</ele><time>2026-04-10T10:03:26Z</time></trkpt><trkpt lat="44.78820027037898" lon="7.841835725208788"><ele>309.33333333333337</ele><time>2026-04-10T10:03:29Z</time></trkpt><trkpt lat="44.78827392974631" lon="7.8418899994494025"><ele>310.1666666666667</ele><time>2026-04-10T10:03:32Z</time></trkpt><trkpt lat="44.788346499474486" lon="7.841957480959503"><ele>311.0</ele><time>2026-04-10T10:03:34.999Z</time></trkpt><trkpt lat="44.78841796097407" lon="7.842046794194101"><ele>311.0</ele><time>2026-04-10T10:03:38.999Z</time></trkpt><trkpt lat="44.78846715344679" lon="7.842107508179309"><ele>311.0</ele><time>2026-04-10T10:03:41.999Z</time></trkpt><trkpt lat="44.78851410244493" lon="7.842182967886784"><ele>311.0</ele><time>2026-04-10T10:03:44.999Z</time></trkpt><trkpt lat="44.788557612957895" lon="7.842251555958324"><ele>311.0</ele><time>2026-04-10T10:03:47.999Z</time></trkpt><trkpt lat="44.78859688981334" lon="7.842323780537024"><ele>311.0</ele><time>2026-04-10T10:03:50.999Z</time></trkpt><trkpt lat="44.78864206796638" lon="7.842412417054487"><ele>311.0</ele><time>2026-04-10T10:03:53.999Z</time></trkpt><trkpt lat="44.788684601787395" lon="7.842481317056563"><ele>311.0</ele><time>2026-04-10T10:03:55.999Z</time></trkpt><trkpt lat="44.78874128304414" lon="7.842574166182984"><ele>311.5</ele><time>2026-04-10T10:03:58.999Z</time></trkpt><trkpt lat="44.788785309467514" lon="7.842656839598933"><ele>312.0</ele><time>2026-04-10T10:04:01.999Z</time></trkpt><trkpt lat="44.788834646449786" lon="7.842745634160077"><ele>312.5</ele><time>2026-04-10T10:04:04.999Z</time></trkpt><trkpt lat="44.78888281074372" lon="7.842825808627171"><ele>313.0</ele><time>2026-04-10T10:04:07.999Z</time></trkpt><trkpt lat="44.78894356786388" lon="7.842912117904701"><ele>313.5</ele><time>2026-04-10T10:04:09.999Z</time></trkpt><trkpt lat="44.78900414295214" lon="7.843001643143243"><ele>314.0</ele><time>2026-04-10T10:04:12.999Z</time></trkpt><trkpt lat="44.789055755400774" lon="7.843086827445192"><ele>314.0</ele><time>2026-04-10T10:04:15.999Z</time></trkpt><trkpt lat="44.78911261541463" lon="7.843164784944737"><ele>314.0</ele><time>2026-04-10T10:04:19.999Z</time></trkpt><trkpt lat="44.78916267186876" lon="7.843242659489785"><ele>314.0</ele><time>2026-04-10T10:04:22.999Z</time></trkpt><trkpt lat="44.78920612066769" lon="7.843319602906502"><ele>314.0</ele><time>2026-04-10T10:04:25.999Z</time></trkpt><trkpt lat="44.78927178617449" lon="7.843420266679995"><ele>314.0</ele><time>2026-04-10T10:04:28.999Z</time></trkpt><trkpt lat="44.78933488627683" lon="7.8434791061303475"><ele>314.0</ele><time>2026-04-10T10:04:32.999Z</time></trkpt><trkpt lat="44.78939377365729" lon="7.843537071365861"><ele>314.85714285714283</ele><time>2026-04-10T10:04:35.999Z</time></trkpt><trkpt lat="44.789457055343284" lon="7.843586728246288"><ele>315.7142857142857</ele><time>2026-04-10T10:04:38.999Z</time></trkpt><trkpt lat="44.78952890816929" lon="7.843639944731671"><ele>316.57142857142856</ele><time>2026-04-10T10:04:43Z</time></trkpt><trkpt lat="44.78959715828549" lon="7.843680128934153"><ele>317.42857142857144</ele><time>2026-04-10T10:04:46Z</time></trkpt><trkpt lat="44.789671895832186" lon="7.843715867561359"><ele>318.2857142857143</ele><time>2026-04-10T10:04:49Z</time></trkpt><trkpt lat="44.78973702766923" lon="7.843727581794331"><ele>319.1428571428571</ele><time>2026-04-10T10:04:52Z</time></trkpt><trkpt lat="44.78980863783626" lon="7.843745740084713"><ele>320.0</ele><time>2026-04-10T10:04:55Z</time></trkpt><trkpt lat="44.78987706773936" lon="7.84376807626151"><ele>320.0</ele><time>2026-04-10T10:04:58Z</time></trkpt><trkpt lat="44.789966809223294" lon="7.843793094596217"><ele>320.0</ele><time>2026-04-10T10:05:01Z</time></trkpt><trkpt lat="44.79005011806064" lon="7.843797725096123"><ele>320.0</ele><time>2026-04-10T10:05:04Z</time></trkpt><trkpt lat="44.79013795207904" lon="7.843843537904371"><ele>320.0</ele><time>2026-04-10T10:05:08Z</time></trkpt><trkpt lat="44.79020042268601" lon="7.843854509241169"><ele>320.0</ele><time>2026-04-10T10:05:11Z</time></trkpt><trkpt lat="44.790267649878345" lon="7.8438652811189264"><ele>320.0</ele><time>2026-04-10T10:05:14Z</time></trkpt><trkpt lat="44.790335057785185" lon="7.843865904338628"><ele>321.0</ele><time>2026-04-10T10:05:17Z</time></trkpt><trkpt lat="44.79040879967322" lon="7.843860730728452"><ele>322.0</ele><time>2026-04-10T10:05:20Z</time></trkpt><trkpt lat="44.79048451408399" lon="7.8438441027289745"><ele>323.0</ele><time>2026-04-10T10:05:23Z</time></trkpt><trkpt lat="44.790560786217654" lon="7.84381675939298"><ele>324.0</ele><time>2026-04-10T10:05:26Z</time></trkpt><trkpt lat="44.79063846152042" lon="7.843787887298238"><ele>325.0</ele><time>2026-04-10T10:05:29Z</time></trkpt><trkpt lat="44.79070770207506" lon="7.843777415790933"><ele>326.0</ele><time>2026-04-10T10:05:32Z</time></trkpt><trkpt lat="44.790774651398166" lon="7.843744989927528"><ele>326.0</ele><time>2026-04-10T10:05:35Z</time></trkpt><trkpt lat="44.790843801991954" lon="7.843712723629349"><ele>326.0</ele><time>2026-04-10T10:05:37.999Z</time></trkpt><trkpt lat="44.79091790258962" lon="7.843693359706588"><ele>326.0</ele><time>2026-04-10T10:05:40.999Z</time></trkpt><trkpt lat="44.79100949573177" lon="7.843680715235411"><ele>326.0</ele><time>2026-04-10T10:05:43.999Z</time></trkpt><trkpt lat="44.79108800896257" lon="7.843700143393396"><ele>326.0</ele><time>2026-04-10T10:05:47.999Z</time></trkpt><trkpt lat="44.791162497248344" lon="7.843714762891749"><ele>326.0</ele><time>2026-04-10T10:05:50.999Z</time></trkpt><trkpt lat="44.79124258393925" lon="7.843754790530995"><ele>326.7142857142857</ele><time>2026-04-10T10:05:53.999Z</time></trkpt><trkpt lat="44.791301425891476" lon="7.84379073219977"><ele>327.4285714285714</ele><time>2026-04-10T10:05:56.999Z</time></trkpt><trkpt lat="44.791353635613234" lon="7.843845795490251"><ele>328.1428571428571</ele><time>2026-04-10T10:05:59.999Z</time></trkpt><trkpt lat="44.7914042846504" lon="7.843909439830737"><ele>328.8571428571429</ele><time>2026-04-10T10:06:02.999Z</time></trkpt><trkpt lat="44.791448534891806" lon="7.843984261565178"><ele>329.57142857142856</ele><time>2026-04-10T10:06:05.999Z</time></trkpt><trkpt lat="44.79146025578633" lon="7.844102817434668"><ele>330.2857142857143</ele><time>2026-04-10T10:06:08.999Z</time></trkpt><trkpt lat="44.79148467365334" lon="7.844187721225176"><ele>331.0</ele><time>2026-04-10T10:06:11.999Z</time></trkpt><trkpt lat="44.7915165720092" lon="7.844295916134506"><ele>331.66666666666663</ele><time>2026-04-10T10:06:15.999Z</time></trkpt><trkpt lat="44.79153578677326" lon="7.844388080719226"><ele>332.3333333333333</ele><time>2026-04-10T10:06:18.999Z</time></trkpt><trkpt lat="44.791575519129445" lon="7.844500451355336"><ele>333.0</ele><time>2026-04-10T10:06:21.999Z</time></trkpt><trkpt lat="44.79161287062953" lon="7.844577800200389"><ele>333.6666666666667</ele><time>2026-04-10T10:06:24.999Z</time></trkpt><trkpt lat="44.79163768897253" lon="7.844666503363861"><ele>334.33333333333337</ele><time>2026-04-10T10:06:27.999Z</time></trkpt><trkpt lat="44.79164728582503" lon="7.844766637528804"><ele>335.0</ele><time>2026-04-10T10:06:30.999Z</time></trkpt><trkpt lat="44.791674286224115" lon="7.8448977364046915"><ele>335.0</ele><time>2026-04-10T10:06:32.999Z</time></trkpt><trkpt lat="44.79169349581904" lon="7.844983649711002"><ele>335.0</ele><time>2026-04-10T10:06:34.999Z</time></trkpt><trkpt lat="44.79170236739476" lon="7.845103459276718"><ele>335.0</ele><time>2026-04-10T10:06:37.999Z</time></trkpt><trkpt lat="44.791710103043336" lon="7.845212559734052"><ele>335.0</ele><time>2026-04-10T10:06:39.999Z</time></trkpt><trkpt lat="44.79176274311111" lon="7.845317449631964"><ele>335.0</ele><time>2026-04-10T10:06:42.999Z</time></trkpt><trkpt lat="44.79183533833042" lon="7.845417484897906"><ele>335.0</ele><time>2026-04-10T10:06:44.999Z</time></trkpt><trkpt lat="44.79192713301846" lon="7.845483464447447"><ele>334.6666666666667</ele><time>2026-04-10T10:06:47Z</time></trkpt><trkpt lat="44.792001196370684" lon="7.845526541550829"><ele>334.33333333333337</ele><time>2026-04-10T10:06:49Z</time></trkpt><trkpt lat="44.79207703745758" lon="7.845532379142125"><ele>334.0</ele><time>2026-04-10T10:06:51Z</time></trkpt><trkpt lat="44.79215476954738" lon="7.845506033294041"><ele>333.6666666666667</ele><time>2026-04-10T10:06:53Z</time></trkpt><trkpt lat="44.792217790255364" lon="7.845477154638181"><ele>333.3333333333333</ele><time>2026-04-10T10:06:55Z</time></trkpt><trkpt lat="44.79229016475751" lon="7.845447077510358"><ele>333.0</ele><time>2026-04-10T10:06:57Z</time></trkpt><trkpt lat="44.792356583589736" lon="7.845404018720423"><ele>333.0</ele><time>2026-04-10T10:06:59Z</time></trkpt><trkpt lat="44.7924225053779" lon="7.845376260215191"><ele>333.0</ele><time>2026-04-10T10:07:01Z</time></trkpt><trkpt lat="44.79248970420658" lon="7.845343698089979"><ele>333.0</ele><time>2026-04-10T10:07:03Z</time></trkpt><trkpt lat="44.79255960624186" lon="7.8453143061360056"><ele>333.0</ele><time>2026-04-10T10:07:05Z</time></trkpt><trkpt lat="44.79264040780447" lon="7.845294545616599"><ele>333.0</ele><time>2026-04-10T10:07:07Z</time></trkpt><trkpt lat="44.79272525715538" lon="7.845262699429115"><ele>333.0</ele><time>2026-04-10T10:07:09Z</time></trkpt><trkpt lat="44.79281554941148" lon="7.845236066812786"><ele>332.3333333333333</ele><time>2026-04-10T10:07:11Z</time></trkpt><trkpt lat="44.79290584459672" lon="7.845199382468855"><ele>331.6666666666667</ele><time>2026-04-10T10:07:13Z</time></trkpt><trkpt lat="44.792969868432415" lon="7.845175517388756"><ele>331.0</ele><time>2026-04-10T10:07:15Z</time></trkpt><trkpt lat="44.793043140925384" lon="7.84517192962046"><ele>330.33333333333337</ele><time>2026-04-10T10:07:18Z</time></trkpt><trkpt lat="44.793096007668176" lon="7.845275277257291"><ele>329.6666666666667</ele><time>2026-04-10T10:07:21Z</time></trkpt><trkpt lat="44.79307055751081" lon="7.845395471095142"><ele>329.0</ele><time>2026-04-10T10:07:23Z</time></trkpt><trkpt lat="44.793064721655846" lon="7.84551716744516"><ele>329.0</ele><time>2026-04-10T10:07:25Z</time></trkpt><trkpt lat="44.793055840896336" lon="7.845643726539365"><ele>329.0</ele><time>2026-04-10T10:07:27Z</time></trkpt><trkpt lat="44.79303709743857" lon="7.845764075779879"><ele>329.0</ele><time>2026-04-10T10:07:29Z</time></trkpt><trkpt lat="44.793028050691454" lon="7.8458953951168"><ele>329.0</ele><time>2026-04-10T10:07:30.999Z</time></trkpt><trkpt lat="44.79301777924057" lon="7.8460199831741075"><ele>329.0</ele><time>2026-04-10T10:07:32.999Z</time></trkpt><trkpt lat="44.79299475808038" lon="7.8461536044500395"><ele>329.2</ele><time>2026-04-10T10:07:34.999Z</time></trkpt><trkpt lat="44.792970876821414" lon="7.846285618732511"><ele>329.4</ele><time>2026-04-10T10:07:36.999Z</time></trkpt><trkpt lat="44.79295212906652" lon="7.846419321985549"><ele>329.6</ele><time>2026-04-10T10:07:38.999Z</time></trkpt><trkpt lat="44.79292093354397" lon="7.846547589115004"><ele>329.8</ele><time>2026-04-10T10:07:40.999Z</time></trkpt><trkpt lat="44.79290015716233" lon="7.84667654169178"><ele>330.0</ele><time>2026-04-10T10:07:42.999Z</time></trkpt><trkpt lat="44.79287698902535" lon="7.8468032721502965"><ele>330.4</ele><time>2026-04-10T10:07:44.999Z</time></trkpt><trkpt lat="44.79286375080358" lon="7.846931252706709"><ele>330.8</ele><time>2026-04-10T10:07:46.999Z</time></trkpt><trkpt lat="44.792854191482725" lon="7.847063000324594"><ele>331.20000000000005</ele><time>2026-04-10T10:07:48.999Z</time></trkpt><trkpt lat="44.79287789289842" lon="7.847188660376126"><ele>331.6</ele><time>2026-04-10T10:07:50.999Z</time></trkpt><trkpt lat="44.79295374049889" lon="7.847281644680522"><ele>332.0</ele><time>2026-04-10T10:07:52.999Z</time></trkpt><trkpt lat="44.793045102328215" lon="7.847333335014253"><ele>332.0</ele><time>2026-04-10T10:07:54.999Z</time></trkpt><trkpt lat="44.793142109973296" lon="7.8473597343711985"><ele>332.0</ele><time>2026-04-10T10:07:56.999Z</time></trkpt><trkpt lat="44.79323237144903" lon="7.847390316342909"><ele>332.0</ele><time>2026-04-10T10:07:58.999Z</time></trkpt><trkpt lat="44.79331910281989" lon="7.84742791265801"><ele>332.0</ele><time>2026-04-10T10:08:00.999Z</time></trkpt><trkpt lat="44.79340672613344" lon="7.847464045400104"><ele>332.0</ele><time>2026-04-10T10:08:02.999Z</time></trkpt><trkpt lat="44.79348888807501" lon="7.847499280924217"><ele>332.40000000000003</ele><time>2026-04-10T10:08:04.999Z</time></trkpt><trkpt lat="44.79357101244134" lon="7.847534808550255"><ele>332.8</ele><time>2026-04-10T10:08:06.999Z</time></trkpt><trkpt lat="44.793657533137434" lon="7.847566820338698"><ele>333.2</ele><time>2026-04-10T10:08:08.999Z</time></trkpt><trkpt lat="44.79374135702057" lon="7.84759918856264"><ele>333.6</ele><time>2026-04-10T10:08:10.999Z</time></trkpt><trkpt lat="44.79383192697626" lon="7.847626580397676"><ele>334.0</ele><time>2026-04-10T10:08:12.999Z</time></trkpt><trkpt lat="44.79392784819205" lon="7.847653839114488"><ele>334.0</ele><time>2026-04-10T10:08:14.999Z</time></trkpt><trkpt lat="44.794029935829215" lon="7.84768600666561"><ele>334.0</ele><time>2026-04-10T10:08:16.999Z</time></trkpt><trkpt lat="44.79414284502474" lon="7.847724751426725"><ele>334.0</ele><time>2026-04-10T10:08:18.999Z</time></trkpt><trkpt lat="44.794261764657875" lon="7.847768501284726"><ele>334.0</ele><time>2026-04-10T10:08:20.999Z</time></trkpt><trkpt lat="44.794323160390306" lon="7.847791383775002"><ele>334.0</ele><time>2026-04-10T10:08:21.999Z</time></trkpt><trkpt lat="44.79443770265389" lon="7.847835697287876"><ele>334.0</ele><time>2026-04-10T10:08:23.999Z</time></trkpt><trkpt lat="44.794499570768394" lon="7.8478574651192705"><ele>334.0</ele><time>2026-04-10T10:08:24.999Z</time></trkpt><trkpt lat="44.79461091860361" lon="7.847902704289343"><ele>334.0</ele><time>2026-04-10T10:08:26.999Z</time></trkpt><trkpt lat="44.79471933804039" lon="7.847950331052573"><ele>334.0</ele><time>2026-04-10T10:08:28.999Z</time></trkpt><trkpt lat="44.79482397603767" lon="7.848003597032039"><ele>334.0</ele><time>2026-04-10T10:08:30.999Z</time></trkpt><trkpt lat="44.79492635231646" lon="7.848055908189459"><ele>334.0</ele><time>2026-04-10T10:08:32.999Z</time></trkpt><trkpt lat="44.795032215808966" lon="7.848109856954225"><ele>334.0</ele><time>2026-04-10T10:08:34.999Z</time></trkpt><trkpt lat="44.7951429213875" lon="7.8481592303466545"><ele>334.0</ele><time>2026-04-10T10:08:36.999Z</time></trkpt><trkpt lat="44.795254320789155" lon="7.848218025025508"><ele>334.0</ele><time>2026-04-10T10:08:38.999Z</time></trkpt><trkpt lat="44.79536131268678" lon="7.848276010694586"><ele>333.6</ele><time>2026-04-10T10:08:40.999Z</time></trkpt><trkpt lat="44.7954656426363" lon="7.848336849173058"><ele>333.2</ele><time>2026-04-10T10:08:42.999Z</time></trkpt><trkpt lat="44.79557578723843" lon="7.848398584757717"><ele>332.8</ele><time>2026-04-10T10:08:44.999Z</time></trkpt><trkpt lat="44.79567449975994" lon="7.848466538170403"><ele>332.40000000000003</ele><time>2026-04-10T10:08:46.999Z</time></trkpt><trkpt lat="44.795772490475706" lon="7.848528655801554"><ele>332.0</ele><time>2026-04-10T10:08:48.999Z</time></trkpt><trkpt lat="44.79586850247047" lon="7.848592099323521"><ele>332.0</ele><time>2026-04-10T10:08:50.999Z</time></trkpt><trkpt lat="44.795967096209864" lon="7.848653259410904"><ele>332.0</ele><time>2026-04-10T10:08:53Z</time></trkpt><trkpt lat="44.79606244300936" lon="7.8487145100777695"><ele>332.0</ele><time>2026-04-10T10:08:55Z</time></trkpt><trkpt lat="44.796170787508174" lon="7.848816981166969"><ele>332.0</ele><time>2026-04-10T10:08:57Z</time></trkpt><trkpt lat="44.79625649726193" lon="7.848902389671941"><ele>332.0</ele><time>2026-04-10T10:08:59Z</time></trkpt><trkpt lat="44.79631883168213" lon="7.84901035713519"><ele>331.83333333333337</ele><time>2026-04-10T10:09:01Z</time></trkpt><trkpt lat="44.796328835932265" lon="7.849145536237787"><ele>331.6666666666667</ele><time>2026-04-10T10:09:03Z</time></trkpt><trkpt lat="44.79632239179843" lon="7.849297107339316"><ele>331.5</ele><time>2026-04-10T10:09:05Z</time></trkpt><trkpt lat="44.796314953537845" lon="7.849392186584885"><ele>331.3333333333333</ele><time>2026-04-10T10:09:06Z</time></trkpt><trkpt lat="44.796306367082614" lon="7.8494929915415685"><ele>331.16666666666663</ele><time>2026-04-10T10:09:07Z</time></trkpt><trkpt lat="44.79629833278988" lon="7.849589593042539"><ele>331.0</ele><time>2026-04-10T10:09:08Z</time></trkpt><trkpt lat="44.79629127947181" lon="7.849688161636923"><ele>330.57142857142856</ele><time>2026-04-10T10:09:09Z</time></trkpt><trkpt lat="44.79628410215731" lon="7.849788463072209"><ele>330.1428571428571</ele><time>2026-04-10T10:09:10Z</time></trkpt><trkpt lat="44.79627689508114" lon="7.849889180468411"><ele>329.71428571428567</ele><time>2026-04-10T10:09:11Z</time></trkpt><trkpt lat="44.79626913650713" lon="7.84998496818058"><ele>329.2857142857143</ele><time>2026-04-10T10:09:12Z</time></trkpt><trkpt lat="44.79626049580204" lon="7.850088696065749"><ele>328.85714285714283</ele><time>2026-04-10T10:09:13Z</time></trkpt><trkpt lat="44.796251028722914" lon="7.850192018847435"><ele>328.4285714285714</ele><time>2026-04-10T10:09:14Z</time></trkpt><trkpt lat="44.79623867776314" lon="7.850292869925212"><ele>328.0</ele><time>2026-04-10T10:09:15Z</time></trkpt><trkpt lat="44.79620825088096" lon="7.850457384871281"><ele>327.3333333333333</ele><time>2026-04-10T10:09:17Z</time></trkpt><trkpt lat="44.7961930026061" lon="7.850552484293913"><ele>326.66666666666663</ele><time>2026-04-10T10:09:18Z</time></trkpt><trkpt lat="44.796180475129304" lon="7.850647804266966"><ele>326.0</ele><time>2026-04-10T10:09:19Z</time></trkpt><trkpt lat="44.79619137813209" lon="7.850735932632833"><ele>325.3333333333333</ele><time>2026-04-10T10:09:20Z</time></trkpt><trkpt lat="44.79623483607999" lon="7.850831237247083"><ele>324.6666666666667</ele><time>2026-04-10T10:09:21Z</time></trkpt><trkpt lat="44.796308292171105" lon="7.850894763331268"><ele>324.0</ele><time>2026-04-10T10:09:22Z</time></trkpt><trkpt lat="44.796412810189885" lon="7.850843628091053"><ele>324.0</ele><time>2026-04-10T10:09:23Z</time></trkpt><trkpt lat="44.796488544030304" lon="7.850846743223563"><ele>324.0</ele><time>2026-04-10T10:09:24Z</time></trkpt><trkpt lat="44.796556720825166" lon="7.850832376411705"><ele>324.0</ele><time>2026-04-10T10:09:25Z</time></trkpt><trkpt lat="44.79662668098745" lon="7.850816781509288"><ele>324.0</ele><time>2026-04-10T10:09:26Z</time></trkpt><trkpt lat="44.796693136877415" lon="7.8508001869031965"><ele>324.0</ele><time>2026-04-10T10:09:27Z</time></trkpt><trkpt lat="44.796757313604274" lon="7.850781234300819"><ele>324.0</ele><time>2026-04-10T10:09:28Z</time></trkpt><trkpt lat="44.796824671697316" lon="7.85076129661206"><ele>324.0</ele><time>2026-04-10T10:09:29Z</time></trkpt><trkpt lat="44.79689169846953" lon="7.850739900844335"><ele>324.0</ele><time>2026-04-10T10:09:30Z</time></trkpt><trkpt lat="44.796958195155675" lon="7.850716031928912"><ele>324.0</ele><time>2026-04-10T10:09:31Z</time></trkpt><trkpt lat="44.79701975563327" lon="7.850673304145728"><ele>324.0</ele><time>2026-04-10T10:09:32Z</time></trkpt><trkpt lat="44.79708419010202" lon="7.850656997089577"><ele>324.0</ele><time>2026-04-10T10:09:33Z</time></trkpt><trkpt lat="44.79715007180676" lon="7.850641208941311"><ele>324.0</ele><time>2026-04-10T10:09:34Z</time></trkpt><trkpt lat="44.79721615477853" lon="7.850625354968131"><ele>324.0</ele><time>2026-04-10T10:09:35Z</time></trkpt><trkpt lat="44.797343268208444" lon="7.850607234632435"><ele>324.0</ele><time>2026-04-10T10:09:37Z</time></trkpt><trkpt lat="44.797412602213925" lon="7.8506222389739175"><ele>324.0</ele><time>2026-04-10T10:09:38Z</time></trkpt><trkpt lat="44.79747883117861" lon="7.850672875450719"><ele>324.0</ele><time>2026-04-10T10:09:39Z</time></trkpt><trkpt lat="44.79750913236209" lon="7.850777855649721"><ele>324.0</ele><time>2026-04-10T10:09:40Z</time></trkpt><trkpt lat="44.79753260376369" lon="7.850868865137478"><ele>324.0</ele><time>2026-04-10T10:09:41Z</time></trkpt><trkpt lat="44.79756737885746" lon="7.850964253666792"><ele>324.0</ele><time>2026-04-10T10:09:42Z</time></trkpt><trkpt lat="44.797595069922394" lon="7.851052804714031"><ele>324.0</ele><time>2026-04-10T10:09:43Z</time></trkpt><trkpt lat="44.79762343503587" lon="7.851142441193252"><ele>323.79999999999995</ele><time>2026-04-10T10:09:43.999Z</time></trkpt><trkpt lat="44.79765176275748" lon="7.851231959547763"><ele>323.59999999999997</ele><time>2026-04-10T10:09:44.999Z</time></trkpt><trkpt lat="44.79767872630329" lon="7.851317167025233"><ele>323.4</ele><time>2026-04-10T10:09:45.999Z</time></trkpt><trkpt lat="44.79773017173459" lon="7.851480096223837"><ele>323.2</ele><time>2026-04-10T10:09:47.999Z</time></trkpt><trkpt lat="44.797781156084" lon="7.851641627814882"><ele>323.0</ele><time>2026-04-10T10:09:49.999Z</time></trkpt><trkpt lat="44.79782639281431" lon="7.851784949373378"><ele>323.0</ele><time>2026-04-10T10:09:51.999Z</time></trkpt><trkpt lat="44.79787084056277" lon="7.851925771371892"><ele>323.0</ele><time>2026-04-10T10:09:53.999Z</time></trkpt><trkpt lat="44.797911106506106" lon="7.852051271525306"><ele>323.0</ele><time>2026-04-10T10:09:55.999Z</time></trkpt><trkpt lat="44.79794966410237" lon="7.852171224227413"><ele>323.0</ele><time>2026-04-10T10:09:57.999Z</time></trkpt><trkpt lat="44.79798372628562" lon="7.8522771922324415"><ele>323.0</ele><time>2026-04-10T10:09:59.999Z</time></trkpt><trkpt lat="44.79801953931916" lon="7.852391227419722"><ele>323.0</ele><time>2026-04-10T10:10:01.999Z</time></trkpt><trkpt lat="44.79806740110939" lon="7.852501319475314"><ele>323.0</ele><time>2026-04-10T10:10:03.999Z</time></trkpt><trkpt lat="44.79815595119318" lon="7.852602669001314"><ele>323.0</ele><time>2026-04-10T10:10:05.999Z</time></trkpt><trkpt lat="44.79822920801444" lon="7.85261091988331"><ele>323.0</ele><time>2026-04-10T10:10:06.999Z</time></trkpt><trkpt lat="44.798300274771115" lon="7.852571627329967"><ele>323.0</ele><time>2026-04-10T10:10:07.999Z</time></trkpt><trkpt lat="44.79841233594407" lon="7.852527270910512"><ele>322.2</ele><time>2026-04-10T10:10:09.999Z</time></trkpt><trkpt lat="44.7985250142672" lon="7.8524783726932075"><ele>321.4</ele><time>2026-04-10T10:10:11.999Z</time></trkpt><trkpt lat="44.7986453647505" lon="7.852423711550866"><ele>320.59999999999997</ele><time>2026-04-10T10:10:13.999Z</time></trkpt><trkpt lat="44.798766165429335" lon="7.852367673892118"><ele>319.79999999999995</ele><time>2026-04-10T10:10:15.999Z</time></trkpt><trkpt lat="44.798826612200926" lon="7.852339438934966"><ele>319.0</ele><time>2026-04-10T10:10:16.999Z</time></trkpt><trkpt lat="44.79888791922698" lon="7.852310802039238"><ele>319.0</ele><time>2026-04-10T10:10:17.999Z</time></trkpt><trkpt lat="44.7989496223244" lon="7.852281980208078"><ele>319.0</ele><time>2026-04-10T10:10:18.999Z</time></trkpt><trkpt lat="44.799013290229304" lon="7.852252240623559"><ele>319.0</ele><time>2026-04-10T10:10:19.999Z</time></trkpt><trkpt lat="44.79907825024072" lon="7.852221897432879"><ele>319.0</ele><time>2026-04-10T10:10:20.999Z</time></trkpt><trkpt lat="44.7991417855256" lon="7.8521922197734755"><ele>319.0</ele><time>2026-04-10T10:10:21.999Z</time></trkpt><trkpt lat="44.799207290973584" lon="7.8521616218324475"><ele>319.0</ele><time>2026-04-10T10:10:22.999Z</time></trkpt><trkpt lat="44.7992711803603" lon="7.85213366052117"><ele>319.0</ele><time>2026-04-10T10:10:23.999Z</time></trkpt><trkpt lat="44.799337505248566" lon="7.8521066674043265"><ele>318.42857142857144</ele><time>2026-04-10T10:10:24.999Z</time></trkpt><trkpt lat="44.79940465477807" lon="7.852081621249443"><ele>317.85714285714283</ele><time>2026-04-10T10:10:25.999Z</time></trkpt><trkpt lat="44.799474807790276" lon="7.852060427977385"><ele>317.2857142857143</ele><time>2026-04-10T10:10:26.999Z</time></trkpt><trkpt lat="44.79954176110034" lon="7.852063078696681"><ele>316.7142857142857</ele><time>2026-04-10T10:10:27.999Z</time></trkpt><trkpt lat="44.79961133988034" lon="7.852094742731359"><ele>316.1428571428571</ele><time>2026-04-10T10:10:28.999Z</time></trkpt><trkpt lat="44.799671814761844" lon="7.852164859336869"><ele>315.57142857142856</ele><time>2026-04-10T10:10:29.999Z</time></trkpt><trkpt lat="44.79968845606939" lon="7.852264266599922"><ele>315.0</ele><time>2026-04-10T10:10:30.999Z</time></trkpt><trkpt lat="44.79972493795256" lon="7.85237723013563"><ele>315.0</ele><time>2026-04-10T10:10:31.999Z</time></trkpt><trkpt lat="44.79976996193005" lon="7.8525084872154745"><ele>315.0</ele><time>2026-04-10T10:10:32.999Z</time></trkpt><trkpt lat="44.799815933108256" lon="7.852627590628312"><ele>315.0</ele><time>2026-04-10T10:10:33.999Z</time></trkpt><trkpt lat="44.79986464138322" lon="7.852747567417144"><ele>315.0</ele><time>2026-04-10T10:10:34.999Z</time></trkpt><trkpt lat="44.799914528050316" lon="7.852868654170492"><ele>315.0</ele><time>2026-04-10T10:10:35.999Z</time></trkpt><trkpt lat="44.79996747984927" lon="7.852987064974889"><ele>315.1666666666667</ele><time>2026-04-10T10:10:36.999Z</time></trkpt><trkpt lat="44.800018060288195" lon="7.853095577952887"><ele>315.3333333333333</ele><time>2026-04-10T10:10:37.999Z</time></trkpt><trkpt lat="44.8000669562891" lon="7.853204106125971"><ele>315.5</ele><time>2026-04-10T10:10:38.999Z</time></trkpt><trkpt lat="44.80011417771629" lon="7.8533163205799825"><ele>315.66666666666663</ele><time>2026-04-10T10:10:39.999Z</time></trkpt><trkpt lat="44.80015727832475" lon="7.853421476357"><ele>315.8333333333333</ele><time>2026-04-10T10:10:40.999Z</time></trkpt><trkpt lat="44.80019609899233" lon="7.853516189971484"><ele>316.0</ele><time>2026-04-10T10:10:41.999Z</time></trkpt><trkpt lat="44.80023607296012" lon="7.853609150590581"><ele>317.0</ele><time>2026-04-10T10:10:42.999Z</time></trkpt><trkpt lat="44.800275840051384" lon="7.853700387206447"><ele>318.0</ele><time>2026-04-10T10:10:43.999Z</time></trkpt><trkpt lat="44.80031038846716" lon="7.853779650835815"><ele>319.0</ele><time>2026-04-10T10:10:44.999Z</time></trkpt><trkpt lat="44.80034549044001" lon="7.853860184487232"><ele>320.0</ele><time>2026-04-10T10:10:45.999Z</time></trkpt><trkpt lat="44.800409166508146" lon="7.854009822886524"><ele>321.0</ele><time>2026-04-10T10:10:47.999Z</time></trkpt><trkpt lat="44.80045882934439" lon="7.85413125614797"><ele>322.0</ele><time>2026-04-10T10:10:49.999Z</time></trkpt><trkpt lat="44.80049491746617" lon="7.854223497037218"><ele>323.5</ele><time>2026-04-10T10:10:51.999Z</time></trkpt><trkpt lat="44.800539662871024" lon="7.854337865935707"><ele>325.0</ele><time>2026-04-10T10:10:54.999Z</time></trkpt><trkpt lat="44.800582373959685" lon="7.854445222342707"><ele>326.5</ele><time>2026-04-10T10:10:57.999Z</time></trkpt><trkpt lat="44.8006235525364" lon="7.854535260367255"><ele>328.0</ele><time>2026-04-10T10:11:01Z</time></trkpt><trkpt lat="44.800668699327026" lon="7.854631329734192"><ele>329.5</ele><time>2026-04-10T10:11:04Z</time></trkpt><trkpt lat="44.800713145878625" lon="7.854721659458703"><ele>331.0</ele><time>2026-04-10T10:11:07Z</time></trkpt><trkpt lat="44.80075453614448" lon="7.8548057780495455"><ele>331.0</ele><time>2026-04-10T10:11:10Z</time></trkpt><trkpt lat="44.80079319290918" lon="7.854887170711639"><ele>331.0</ele><time>2026-04-10T10:11:13Z</time></trkpt><trkpt lat="44.800844716124686" lon="7.854995308282955"><ele>331.0</ele><time>2026-04-10T10:11:17Z</time></trkpt><trkpt lat="44.80089541116264" lon="7.855051040647714"><ele>331.0</ele><time>2026-04-10T10:11:20Z</time></trkpt><trkpt lat="44.80092219878879" lon="7.855147116628843"><ele>331.0</ele><time>2026-04-10T10:11:23Z</time></trkpt><trkpt lat="44.80094101507477" lon="7.855257452022237"><ele>331.0</ele><time>2026-04-10T10:11:26Z</time></trkpt><trkpt lat="44.800939315018994" lon="7.855388639211267"><ele>331.5</ele><time>2026-04-10T10:11:29Z</time></trkpt><trkpt lat="44.80092418413016" lon="7.855514225718807"><ele>332.0</ele><time>2026-04-10T10:11:32Z</time></trkpt><trkpt lat="44.800896047087704" lon="7.855615551787306"><ele>332.5</ele><time>2026-04-10T10:11:35Z</time></trkpt><trkpt lat="44.80087122855188" lon="7.855724069106667"><ele>333.0</ele><time>2026-04-10T10:11:38Z</time></trkpt><trkpt lat="44.8008409618964" lon="7.855820757688266"><ele>333.5</ele><time>2026-04-10T10:11:41Z</time></trkpt><trkpt lat="44.800807865419436" lon="7.855902727839677"><ele>334.0</ele><time>2026-04-10T10:11:44Z</time></trkpt><trkpt lat="44.80077828559808" lon="7.855991075213609"><ele>334.5</ele><time>2026-04-10T10:11:47Z</time></trkpt><trkpt lat="44.8007467467233" lon="7.8560770107616875"><ele>335.0</ele><time>2026-04-10T10:11:50Z</time></trkpt><trkpt lat="44.800740112630855" lon="7.856170279289514"><ele>335.5</ele><time>2026-04-10T10:11:53Z</time></trkpt><trkpt lat="44.80075283420971" lon="7.856275897079224"><ele>336.0</ele><time>2026-04-10T10:11:56Z</time></trkpt><trkpt lat="44.80080685139145" lon="7.8563517215327625"><ele>336.5</ele><time>2026-04-10T10:11:59.999Z</time></trkpt><trkpt lat="44.80087451293653" lon="7.856422788639284"><ele>337.0</ele><time>2026-04-10T10:12:02.999Z</time></trkpt><trkpt lat="44.80094581061727" lon="7.856487513045841"><ele>336.5714285714286</ele><time>2026-04-10T10:12:05.999Z</time></trkpt><trkpt lat="44.80100580296452" lon="7.856547398515305"><ele>336.14285714285717</ele><time>2026-04-10T10:12:08.999Z</time></trkpt><trkpt lat="44.80105305638848" lon="7.856608760591456"><ele>335.7142857142857</ele><time>2026-04-10T10:12:10.999Z</time></trkpt><trkpt lat="44.80111150463967" lon="7.856661794556558"><ele>335.28571428571433</ele><time>2026-04-10T10:12:13.999Z</time></trkpt><trkpt lat="44.8011659156644" lon="7.856723287035138"><ele>334.8571428571429</ele><time>2026-04-10T10:12:16.999Z</time></trkpt><trkpt lat="44.80121865378343" lon="7.856806623217688"><ele>334.42857142857144</ele><time>2026-04-10T10:12:19.999Z</time></trkpt><trkpt lat="44.80126600211306" lon="7.856869567619687"><ele>334.0</ele><time>2026-04-10T10:12:21.999Z</time></trkpt><trkpt lat="44.8012950266039" lon="7.856963721257592"><ele>333.3333333333333</ele><time>2026-04-10T10:12:23.999Z</time></trkpt><trkpt lat="44.801310766940645" lon="7.8570999488794"><ele>332.66666666666663</ele><time>2026-04-10T10:12:26.999Z</time></trkpt><trkpt lat="44.801328467263104" lon="7.857249898635832"><ele>332.0</ele><time>2026-04-10T10:12:28.999Z</time></trkpt><trkpt lat="44.80132878729983" lon="7.857342604102918"><ele>331.3333333333333</ele><time>2026-04-10T10:12:29.999Z</time></trkpt><trkpt lat="44.801324543642984" lon="7.857434137419149"><ele>330.6666666666667</ele><time>2026-04-10T10:12:30.999Z</time></trkpt><trkpt lat="44.801321427734855" lon="7.857527568052877"><ele>330.0</ele><time>2026-04-10T10:12:31.999Z</time></trkpt><trkpt lat="44.80131440643086" lon="7.857706854852783"><ele>328.8571428571429</ele><time>2026-04-10T10:12:33.999Z</time></trkpt><trkpt lat="44.80128849218504" lon="7.857800097015461"><ele>327.7142857142857</ele><time>2026-04-10T10:12:34.999Z</time></trkpt><trkpt lat="44.80127731585309" lon="7.857895662667495"><ele>326.57142857142856</ele><time>2026-04-10T10:12:35.999Z</time></trkpt><trkpt lat="44.80126532785914" lon="7.85799816866648"><ele>325.42857142857144</ele><time>2026-04-10T10:12:36.999Z</time></trkpt><trkpt lat="44.80125095868283" lon="7.858104580657209"><ele>324.2857142857143</ele><time>2026-04-10T10:12:37.999Z</time></trkpt><trkpt lat="44.80123767230802" lon="7.8581997495464515"><ele>323.14285714285717</ele><time>2026-04-10T10:12:38.999Z</time></trkpt><trkpt lat="44.8012227441072" lon="7.858306678505563"><ele>322.0</ele><time>2026-04-10T10:12:39.999Z</time></trkpt><trkpt lat="44.80121010377677" lon="7.858413956729052"><ele>321.8333333333333</ele><time>2026-04-10T10:12:40.999Z</time></trkpt><trkpt lat="44.8012173627449" lon="7.858518111367594"><ele>321.66666666666663</ele><time>2026-04-10T10:12:41.999Z</time></trkpt><trkpt lat="44.80121289820417" lon="7.8586231844840935"><ele>321.5</ele><time>2026-04-10T10:12:42.999Z</time></trkpt><trkpt lat="44.80121241823625" lon="7.858734912419967"><ele>321.3333333333333</ele><time>2026-04-10T10:12:43.999Z</time></trkpt><trkpt lat="44.80124935658263" lon="7.85884726880602"><ele>321.1666666666667</ele><time>2026-04-10T10:12:44.999Z</time></trkpt><trkpt lat="44.80133176419743" lon="7.8589298913597405"><ele>321.0</ele><time>2026-04-10T10:12:45.999Z</time></trkpt><trkpt lat="44.801404258501336" lon="7.859016626760325"><ele>321.0</ele><time>2026-04-10T10:12:46.999Z</time></trkpt><trkpt lat="44.801478435898055" lon="7.859097819601298"><ele>321.0</ele><time>2026-04-10T10:12:47.999Z</time></trkpt><trkpt lat="44.801540096244686" lon="7.859197700887516"><ele>321.0</ele><time>2026-04-10T10:12:48.999Z</time></trkpt><trkpt lat="44.801608546810584" lon="7.859283840931459"><ele>321.0</ele><time>2026-04-10T10:12:49.999Z</time></trkpt><trkpt lat="44.80167383644911" lon="7.859371770998479"><ele>321.0</ele><time>2026-04-10T10:12:50.999Z</time></trkpt><trkpt lat="44.80173192786069" lon="7.859453737506884"><ele>321.20000000000005</ele><time>2026-04-10T10:12:51.999Z</time></trkpt><trkpt lat="44.80178177894209" lon="7.859535794025498"><ele>321.40000000000003</ele><time>2026-04-10T10:12:52.999Z</time></trkpt><trkpt lat="44.80182429677995" lon="7.859618995805704"><ele>321.6</ele><time>2026-04-10T10:12:53.999Z</time></trkpt><trkpt lat="44.801877625953615" lon="7.8597703769402125"><ele>321.8</ele><time>2026-04-10T10:12:55.999Z</time></trkpt><trkpt lat="44.80191619273276" lon="7.859906835051432"><ele>322.0</ele><time>2026-04-10T10:12:57.999Z</time></trkpt><trkpt lat="44.80194535088259" lon="7.860018265214194"><ele>323.14285714285717</ele><time>2026-04-10T10:12:59.999Z</time></trkpt><trkpt lat="44.80199446816661" lon="7.860107934154264"><ele>324.2857142857143</ele><time>2026-04-10T10:13:01.999Z</time></trkpt><trkpt lat="44.80202068037271" lon="7.860201556471096"><ele>325.42857142857144</ele><time>2026-04-10T10:13:03.999Z</time></trkpt><trkpt lat="44.80204669232285" lon="7.8602981109286105"><ele>326.57142857142856</ele><time>2026-04-10T10:13:06Z</time></trkpt><trkpt lat="44.802081521890116" lon="7.860384798763928"><ele>327.7142857142857</ele><time>2026-04-10T10:13:08Z</time></trkpt><trkpt lat="44.8021112128938" lon="7.860469415069551"><ele>328.8571428571429</ele><time>2026-04-10T10:13:10Z</time></trkpt><trkpt lat="44.80213382347735" lon="7.860561325188556"><ele>330.0</ele><time>2026-04-10T10:13:12Z</time></trkpt><trkpt lat="44.802161531101106" lon="7.8606481358315845"><ele>330.00000000000006</ele><time>2026-04-10T10:13:14Z</time></trkpt><trkpt lat="44.80218984247108" lon="7.860731793369376"><ele>330.0</ele><time>2026-04-10T10:13:16Z</time></trkpt><trkpt lat="44.80221413536965" lon="7.860817159681335"><ele>330.0</ele><time>2026-04-10T10:13:18Z</time></trkpt><trkpt lat="44.80224126698066" lon="7.860904391723268"><ele>330.0</ele><time>2026-04-10T10:13:20Z</time></trkpt><trkpt lat="44.80226446476254" lon="7.860989068735428"><ele>330.0</ele><time>2026-04-10T10:13:22Z</time></trkpt><trkpt lat="44.80230250500217" lon="7.8610664211105385"><ele>330.00000000000006</ele><time>2026-04-10T10:13:24Z</time></trkpt><trkpt lat="44.80234135881745" lon="7.861144773488681"><ele>330.0</ele><time>2026-04-10T10:13:26Z</time></trkpt><trkpt lat="44.802376481029874" lon="7.861228559046939"><ele>329.5714285714286</ele><time>2026-04-10T10:13:28Z</time></trkpt><trkpt lat="44.802420109987395" lon="7.86129358018149"><ele>329.14285714285717</ele><time>2026-04-10T10:13:30Z</time></trkpt><trkpt lat="44.8024643336816" lon="7.861359460382676"><ele>328.7142857142857</ele><time>2026-04-10T10:13:33Z</time></trkpt><trkpt lat="44.802507936754864" lon="7.861426410647915"><ele>328.28571428571433</ele><time>2026-04-10T10:13:35Z</time></trkpt><trkpt lat="44.802558320028375" lon="7.861499187178998"><ele>327.8571428571429</ele><time>2026-04-10T10:13:37Z</time></trkpt><trkpt lat="44.802621488792965" lon="7.861578824659278"><ele>327.42857142857144</ele><time>2026-04-10T10:13:40Z</time></trkpt><trkpt lat="44.802688597407816" lon="7.8616579547658505"><ele>327.0</ele><time>2026-04-10T10:13:43Z</time></trkpt><trkpt lat="44.80274849300078" lon="7.8617356404286385"><ele>328.3333333333333</ele><time>2026-04-10T10:13:46Z</time></trkpt><trkpt lat="44.80280367709137" lon="7.861799594981614"><ele>329.6666666666667</ele><time>2026-04-10T10:13:48Z</time></trkpt><trkpt lat="44.80286740987069" lon="7.861877005370032"><ele>331.0</ele><time>2026-04-10T10:13:51Z</time></trkpt><trkpt lat="44.80291422752616" lon="7.861950245274431"><ele>332.33333333333337</ele><time>2026-04-10T10:13:53Z</time></trkpt><trkpt lat="44.80296725704226" lon="7.862048728948908"><ele>333.6666666666667</ele><time>2026-04-10T10:13:56Z</time></trkpt><trkpt lat="44.80302203747212" lon="7.86213712896513"><ele>335.0</ele><time>2026-04-10T10:13:59Z</time></trkpt><trkpt lat="44.803072129677034" lon="7.862206797389698"><ele>335.0</ele><time>2026-04-10T10:14:01Z</time></trkpt><trkpt lat="44.803118352434694" lon="7.862284594152958"><ele>335.0</ele><time>2026-04-10T10:14:04Z</time></trkpt><trkpt lat="44.8031728191937" lon="7.86236784815879"><ele>335.0</ele><time>2026-04-10T10:14:07Z</time></trkpt><trkpt lat="44.8032289966089" lon="7.862455703700542"><ele>335.0</ele><time>2026-04-10T10:14:10Z</time></trkpt><trkpt lat="44.8032817642267" lon="7.862526491796731"><ele>335.0</ele><time>2026-04-10T10:14:12Z</time></trkpt><trkpt lat="44.803337512259" lon="7.862601484189762"><ele>335.0</ele><time>2026-04-10T10:14:14.999Z</time></trkpt><trkpt lat="44.80338860146057" lon="7.862662936098566"><ele>334.99999999999994</ele><time>2026-04-10T10:14:16.999Z</time></trkpt><trkpt lat="44.803446341691455" lon="7.862728359699534"><ele>335.0</ele><time>2026-04-10T10:14:19.999Z</time></trkpt><trkpt lat="44.80349979602264" lon="7.862787071348416"><ele>335.0</ele><time>2026-04-10T10:14:22.999Z</time></trkpt><trkpt lat="44.803560581082714" lon="7.8628444898892536"><ele>335.0</ele><time>2026-04-10T10:14:25.999Z</time></trkpt><trkpt lat="44.803619612670865" lon="7.862907766194398"><ele>335.0</ele><time>2026-04-10T10:14:28.999Z</time></trkpt><trkpt lat="44.80368212206279" lon="7.86296360057957"><ele>334.99999999999994</ele><time>2026-04-10T10:14:31.999Z</time></trkpt><trkpt lat="44.8037420980557" lon="7.863023259617737"><ele>335.0</ele><time>2026-04-10T10:14:33.999Z</time></trkpt><trkpt lat="44.803802285271956" lon="7.863089321068129"><ele>335.99999999999994</ele><time>2026-04-10T10:14:36.999Z</time></trkpt><trkpt lat="44.803861417477904" lon="7.863161815762306"><ele>337.0</ele><time>2026-04-10T10:14:39.999Z</time></trkpt><trkpt lat="44.80390928254252" lon="7.86323219597781"><ele>338.0</ele><time>2026-04-10T10:14:42.999Z</time></trkpt><trkpt lat="44.803960776160075" lon="7.86330516921984"><ele>339.0</ele><time>2026-04-10T10:14:45.999Z</time></trkpt><trkpt lat="44.804002018308296" lon="7.863384589083117"><ele>340.0</ele><time>2026-04-10T10:14:48.999Z</time></trkpt><trkpt lat="44.80404295244905" lon="7.863469624022045"><ele>340.99999999999994</ele><time>2026-04-10T10:14:51.999Z</time></trkpt><trkpt lat="44.80408017242259" lon="7.863550975391744"><ele>342.0</ele><time>2026-04-10T10:14:54.999Z</time></trkpt><trkpt lat="44.804110142609865" lon="7.863638551933323"><ele>342.1428571428571</ele><time>2026-04-10T10:14:57.999Z</time></trkpt><trkpt lat="44.804151329358184" lon="7.863715769729214"><ele>342.2857142857143</ele><time>2026-04-10T10:15:00.999Z</time></trkpt><trkpt lat="44.8041769857763" lon="7.863803473730516"><ele>342.42857142857144</ele><time>2026-04-10T10:15:03.999Z</time></trkpt><trkpt lat="44.804220324338026" lon="7.863879001635936"><ele>342.57142857142856</ele><time>2026-04-10T10:15:06.999Z</time></trkpt><trkpt lat="44.80426275192067" lon="7.863975623193857"><ele>342.7142857142857</ele><time>2026-04-10T10:15:11Z</time></trkpt><trkpt lat="44.80429927025132" lon="7.864050044921773"><ele>342.85714285714283</ele><time>2026-04-10T10:15:14Z</time></trkpt><trkpt lat="44.804335381318005" lon="7.864154669489829"><ele>343.0</ele><time>2026-04-10T10:15:18Z</time></trkpt><trkpt lat="44.80437711038156" lon="7.864248830845423"><ele>344.14285714285717</ele><time>2026-04-10T10:15:22Z</time></trkpt><trkpt lat="44.80441501630819" lon="7.8643253445150405"><ele>345.2857142857143</ele><time>2026-04-10T10:15:26Z</time></trkpt><trkpt lat="44.80443015684365" lon="7.864412507487967"><ele>346.42857142857144</ele><time>2026-04-10T10:15:29Z</time></trkpt><trkpt lat="44.80445167036466" lon="7.864498829919289"><ele>347.57142857142856</ele><time>2026-04-10T10:15:33Z</time></trkpt><trkpt lat="44.804460218592396" lon="7.864614083384452"><ele>348.7142857142857</ele><time>2026-04-10T10:15:37Z</time></trkpt><trkpt lat="44.80447726961688" lon="7.864730641064256"><ele>349.8571428571429</ele><time>2026-04-10T10:15:41Z</time></trkpt><trkpt lat="44.80449419149808" lon="7.8648268807748805"><ele>351.0</ele><time>2026-04-10T10:15:44Z</time></trkpt><trkpt lat="44.80451169661368" lon="7.8649185966286925"><ele>351.00000000000006</ele><time>2026-04-10T10:15:47Z</time></trkpt><trkpt lat="44.80452618626629" lon="7.86501463586362"><ele>351.0</ele><time>2026-04-10T10:15:50Z</time></trkpt><trkpt lat="44.804533258350496" lon="7.865102962525662"><ele>351.0</ele><time>2026-04-10T10:15:52Z</time></trkpt><trkpt lat="44.80455158369629" lon="7.865201909535937"><ele>351.0</ele><time>2026-04-10T10:15:55Z</time></trkpt><trkpt lat="44.8045767593984" lon="7.8653177448913585"><ele>351.0</ele><time>2026-04-10T10:15:58Z</time></trkpt><trkpt lat="44.80459622769849" lon="7.865426545870812"><ele>351.00000000000006</ele><time>2026-04-10T10:16:00Z</time></trkpt><trkpt lat="44.804608957589735" lon="7.865532830776915"><ele>351.0</ele><time>2026-04-10T10:16:03Z</time></trkpt><trkpt lat="44.80463256756742" lon="7.865647459441413"><ele>350.6</ele><time>2026-04-10T10:16:05Z</time></trkpt><trkpt lat="44.80465547851408" lon="7.8657799610128984"><ele>350.20000000000005</ele><time>2026-04-10T10:16:07Z</time></trkpt><trkpt lat="44.80468889082041" lon="7.865913619220053"><ele>349.79999999999995</ele><time>2026-04-10T10:16:09Z</time></trkpt><trkpt lat="44.804687426407575" lon="7.866055553198137"><ele>349.4</ele><time>2026-04-10T10:16:11Z</time></trkpt><trkpt lat="44.80471165397411" lon="7.866203202844177"><ele>349.0</ele><time>2026-04-10T10:16:13Z</time></trkpt><trkpt lat="44.804732018772825" lon="7.866358234870343"><ele>348.5</ele><time>2026-04-10T10:16:15Z</time></trkpt><trkpt lat="44.8047505891271" lon="7.86651043879393"><ele>348.0</ele><time>2026-04-10T10:16:17Z</time></trkpt><trkpt lat="44.80477350078351" lon="7.866663748238697"><ele>347.5</ele><time>2026-04-10T10:16:19Z</time></trkpt><trkpt lat="44.804764309193054" lon="7.866828710580273"><ele>347.0</ele><time>2026-04-10T10:16:21Z</time></trkpt><trkpt lat="44.80475459821524" lon="7.866996631146279"><ele>346.75</ele><time>2026-04-10T10:16:23Z</time></trkpt><trkpt lat="44.80473564898713" lon="7.8671574238843105"><ele>346.5</ele><time>2026-04-10T10:16:25Z</time></trkpt><trkpt lat="44.804718669183345" lon="7.867315050402147"><ele>346.25</ele><time>2026-04-10T10:16:27Z</time></trkpt><trkpt lat="44.80469835405715" lon="7.867474054758405"><ele>346.0</ele><time>2026-04-10T10:16:28.999Z</time></trkpt><trkpt lat="44.8046763719034" lon="7.86763439619741"><ele>346.0</ele><time>2026-04-10T10:16:30.999Z</time></trkpt><trkpt lat="44.804658749172155" lon="7.867806880940758"><ele>346.0</ele><time>2026-04-10T10:16:32.999Z</time></trkpt><trkpt lat="44.80463794065248" lon="7.867970894095342"><ele>346.0</ele><time>2026-04-10T10:16:34.999Z</time></trkpt><trkpt lat="44.80461712653601" lon="7.868131452894066"><ele>346.0</ele><time>2026-04-10T10:16:36.999Z</time></trkpt><trkpt lat="44.80459750219405" lon="7.86829586793412"><ele>346.5</ele><time>2026-04-10T10:16:38.999Z</time></trkpt><trkpt lat="44.80457249781643" lon="7.8684588471313015"><ele>347.0</ele><time>2026-04-10T10:16:40.999Z</time></trkpt><trkpt lat="44.80454881970821" lon="7.868620148808138"><ele>347.5</ele><time>2026-04-10T10:16:42.999Z</time></trkpt><trkpt lat="44.804530256328704" lon="7.868777817635995"><ele>348.0</ele><time>2026-04-10T10:16:44.999Z</time></trkpt><trkpt lat="44.80450792086389" lon="7.868929592983324"><ele>348.0</ele><time>2026-04-10T10:16:46.999Z</time></trkpt><trkpt lat="44.804491515590925" lon="7.869079688742323"><ele>348.0</ele><time>2026-04-10T10:16:48.999Z</time></trkpt><trkpt lat="44.80447033570679" lon="7.869224065036085"><ele>348.0</ele><time>2026-04-10T10:16:50.999Z</time></trkpt><trkpt lat="44.80445777270476" lon="7.869366075186862"><ele>348.0</ele><time>2026-04-10T10:16:52.999Z</time></trkpt><trkpt lat="44.804444222123536" lon="7.86949436465864"><ele>348.0</ele><time>2026-04-10T10:16:54.999Z</time></trkpt><trkpt lat="44.80442405344498" lon="7.869580284069159"><ele>349.0</ele><time>2026-04-10T10:16:56.999Z</time></trkpt><trkpt lat="44.80447416136495" lon="7.869735925274528"><ele>350.0</ele><time>2026-04-10T10:16:57.999Z</time></trkpt><trkpt lat="44.80459439842334" lon="7.869596918222931"><ele>351.0</ele><time>2026-04-10T10:16:58.999Z</time></trkpt><trkpt lat="44.80468993815629" lon="7.869580560573731"><ele>352.0</ele><time>2026-04-10T10:17:00.999Z</time></trkpt><trkpt lat="44.804797577510826" lon="7.869565006965952"><ele>352.0</ele><time>2026-04-10T10:17:02.999Z</time></trkpt><trkpt lat="44.80490528907814" lon="7.869554384716222"><ele>352.0</ele><time>2026-04-10T10:17:04.999Z</time></trkpt><trkpt lat="44.80501225047928" lon="7.869553202894801"><ele>352.0</ele><time>2026-04-10T10:17:06.999Z</time></trkpt><trkpt lat="44.80513013316051" lon="7.869529925568414"><ele>352.0</ele><time>2026-04-10T10:17:08.999Z</time></trkpt><trkpt lat="44.80524546015211" lon="7.8695552882797255"><ele>351.6</ele><time>2026-04-10T10:17:10.999Z</time></trkpt><trkpt lat="44.80535469220933" lon="7.86956154345333"><ele>351.20000000000005</ele><time>2026-04-10T10:17:12.999Z</time></trkpt><trkpt lat="44.80545413917244" lon="7.869577574437098"><ele>350.8</ele><time>2026-04-10T10:17:14.999Z</time></trkpt><trkpt lat="44.805553312542486" lon="7.869595995236864"><ele>350.4</ele><time>2026-04-10T10:17:17Z</time></trkpt><trkpt lat="44.80564860899687" lon="7.869613695921177"><ele>350.0</ele><time>2026-04-10T10:17:19Z</time></trkpt><trkpt lat="44.805747356209835" lon="7.8696165951200525"><ele>350.0</ele><time>2026-04-10T10:17:21Z</time></trkpt><trkpt lat="44.80584615486351" lon="7.869591394548743"><ele>350.0</ele><time>2026-04-10T10:17:23Z</time></trkpt><trkpt lat="44.80594136552021" lon="7.869557020250939"><ele>350.0</ele><time>2026-04-10T10:17:25Z</time></trkpt><trkpt lat="44.80603662915915" lon="7.869512459067351"><ele>350.0</ele><time>2026-04-10T10:17:27Z</time></trkpt><trkpt lat="44.80613179430642" lon="7.869472666917762"><ele>350.0</ele><time>2026-04-10T10:17:29Z</time></trkpt><trkpt lat="44.80623459428793" lon="7.869448761307538"><ele>348.6</ele><time>2026-04-10T10:17:31Z</time></trkpt><trkpt lat="44.80630755457301" lon="7.869436395310678"><ele>347.2</ele><time>2026-04-10T10:17:33Z</time></trkpt><trkpt lat="44.806387364300214" lon="7.869425260271366"><ele>345.79999999999995</ele><time>2026-04-10T10:17:34Z</time></trkpt><trkpt lat="44.80650192934157" lon="7.869405519154756"><ele>344.4</ele><time>2026-04-10T10:17:36Z</time></trkpt><trkpt lat="44.80661071233454" lon="7.869373885079422"><ele>343.0</ele><time>2026-04-10T10:17:38Z</time></trkpt><trkpt lat="44.80671626058345" lon="7.869308695657356"><ele>343.4</ele><time>2026-04-10T10:17:40Z</time></trkpt><trkpt lat="44.806815189819" lon="7.869233831386471"><ele>343.79999999999995</ele><time>2026-04-10T10:17:42Z</time></trkpt><trkpt lat="44.80692137245448" lon="7.8691534781326"><ele>344.2</ele><time>2026-04-10T10:17:44Z</time></trkpt><trkpt lat="44.80697752794981" lon="7.869112555684327"><ele>344.6</ele><time>2026-04-10T10:17:45Z</time></trkpt><trkpt lat="44.80708487816204" lon="7.86903638510849"><ele>345.0</ele><time>2026-04-10T10:17:47Z</time></trkpt><trkpt lat="44.80714198918527" lon="7.868998785939946"><ele>345.0</ele><time>2026-04-10T10:17:48Z</time></trkpt><trkpt lat="44.80720056371046" lon="7.868960223259828"><ele>345.0</ele><time>2026-04-10T10:17:49Z</time></trkpt><trkpt lat="44.80731338936661" lon="7.868887037059356"><ele>345.0</ele><time>2026-04-10T10:17:51Z</time></trkpt><trkpt lat="44.807372415525656" lon="7.868848780641816"><ele>345.0</ele><time>2026-04-10T10:17:52Z</time></trkpt><trkpt lat="44.807434484333236" lon="7.8688085522061275"><ele>345.0</ele><time>2026-04-10T10:17:53Z</time></trkpt><trkpt lat="44.80749427351292" lon="7.8687698012656"><ele>345.0</ele><time>2026-04-10T10:17:54Z</time></trkpt><trkpt lat="44.80755540359066" lon="7.868730431396621"><ele>345.0</ele><time>2026-04-10T10:17:55Z</time></trkpt><trkpt lat="44.80761600708275" lon="7.868693179705666"><ele>345.0</ele><time>2026-04-10T10:17:56Z</time></trkpt><trkpt lat="44.80767822072911" lon="7.868655122025946"><ele>345.0</ele><time>2026-04-10T10:17:57Z</time></trkpt><trkpt lat="44.807740546750175" lon="7.868617889279314"><ele>345.0</ele><time>2026-04-10T10:17:58Z</time></trkpt><trkpt lat="44.807804047326876" lon="7.8685799548717545"><ele>345.0</ele><time>2026-04-10T10:17:59Z</time></trkpt><trkpt lat="44.807866071724725" lon="7.868542112294654"><ele>345.0</ele><time>2026-04-10T10:18:00Z</time></trkpt><trkpt lat="44.8079289298925" lon="7.868501187640415"><ele>345.0</ele><time>2026-04-10T10:18:01Z</time></trkpt><trkpt lat="44.80798866369757" lon="7.868459944955149"><ele>345.1666666666667</ele><time>2026-04-10T10:18:02Z</time></trkpt><trkpt lat="44.808051382589696" lon="7.8684155955421105"><ele>345.3333333333333</ele><time>2026-04-10T10:18:03Z</time></trkpt><trkpt lat="44.808110292470644" lon="7.868366445532861"><ele>345.5</ele><time>2026-04-10T10:18:04Z</time></trkpt><trkpt lat="44.80816359388937" lon="7.868318551400227"><ele>345.66666666666663</ele><time>2026-04-10T10:18:05Z</time></trkpt><trkpt lat="44.8082037691608" lon="7.868246761056519"><ele>345.8333333333333</ele><time>2026-04-10T10:18:06Z</time></trkpt><trkpt lat="44.808302001553436" lon="7.868138393489561"><ele>346.0</ele><time>2026-04-10T10:18:08Z</time></trkpt><trkpt lat="44.8083474434595" lon="7.868076599889983"><ele>346.0</ele><time>2026-04-10T10:18:09Z</time></trkpt><trkpt lat="44.80843153773751" lon="7.867957139827186"><ele>346.0</ele><time>2026-04-10T10:18:11Z</time></trkpt><trkpt lat="44.808514540171224" lon="7.867835499394687"><ele>346.0</ele><time>2026-04-10T10:18:13Z</time></trkpt><trkpt lat="44.808592948079266" lon="7.867720002417887"><ele>346.0</ele><time>2026-04-10T10:18:15Z</time></trkpt><trkpt lat="44.80866674796175" lon="7.867605255789009"><ele>345.8</ele><time>2026-04-10T10:18:17Z</time></trkpt><trkpt lat="44.808741138110676" lon="7.867494470183546"><ele>345.6</ele><time>2026-04-10T10:18:19Z</time></trkpt><trkpt lat="44.80882211374308" lon="7.867408460935313"><ele>345.4</ele><time>2026-04-10T10:18:21Z</time></trkpt><trkpt lat="44.80889351571573" lon="7.86730473040032"><ele>345.2</ele><time>2026-04-10T10:18:23Z</time></trkpt><trkpt lat="44.80896568043394" lon="7.867200376976542"><ele>345.0</ele><time>2026-04-10T10:18:25Z</time></trkpt><trkpt lat="44.80904620791009" lon="7.8670891123238125"><ele>345.0</ele><time>2026-04-10T10:18:27Z</time></trkpt><trkpt lat="44.80913860840665" lon="7.866972475354809"><ele>345.0</ele><time>2026-04-10T10:18:29Z</time></trkpt><trkpt lat="44.809191399785874" lon="7.866909227821271"><ele>345.0</ele><time>2026-04-10T10:18:30Z</time></trkpt><trkpt lat="44.80924464631703" lon="7.866848290916436"><ele>345.0</ele><time>2026-04-10T10:18:31Z</time></trkpt><trkpt lat="44.80930273867029" lon="7.866784297030657"><ele>345.0</ele><time>2026-04-10T10:18:32Z</time></trkpt><trkpt lat="44.80936308990115" lon="7.866720351501648"><ele>345.0</ele><time>2026-04-10T10:18:33Z</time></trkpt><trkpt lat="44.809426607781184" lon="7.866657924683548"><ele>344.1666666666667</ele><time>2026-04-10T10:18:34Z</time></trkpt><trkpt lat="44.809491985103186" lon="7.866598534523727"><ele>343.3333333333333</ele><time>2026-04-10T10:18:35Z</time></trkpt><trkpt lat="44.809560477777254" lon="7.86653923598122"><ele>342.5</ele><time>2026-04-10T10:18:36Z</time></trkpt><trkpt lat="44.80963080431738" lon="7.866482232390781"><ele>341.66666666666663</ele><time>2026-04-10T10:18:37Z</time></trkpt><trkpt lat="44.80970252424201" lon="7.866424566846459"><ele>340.8333333333333</ele><time>2026-04-10T10:18:38Z</time></trkpt><trkpt lat="44.80977224419261" lon="7.866369363448518"><ele>340.0</ele><time>2026-04-10T10:18:38.999Z</time></trkpt><trkpt lat="44.809845006450814" lon="7.8663125733929755"><ele>340.0</ele><time>2026-04-10T10:18:39.999Z</time></trkpt><trkpt lat="44.80991456650794" lon="7.866258282619702"><ele>340.0</ele><time>2026-04-10T10:18:40.999Z</time></trkpt><trkpt lat="44.80998489454428" lon="7.866204180892185"><ele>340.0</ele><time>2026-04-10T10:18:41.999Z</time></trkpt><trkpt lat="44.81005159995055" lon="7.866153583244893"><ele>340.0</ele><time>2026-04-10T10:18:42.999Z</time></trkpt><trkpt lat="44.81011927566783" lon="7.866102249596324"><ele>340.0</ele><time>2026-04-10T10:18:43.999Z</time></trkpt><trkpt lat="44.810184719405406" lon="7.866052608951038"><ele>340.0</ele><time>2026-04-10T10:18:44.999Z</time></trkpt><trkpt lat="44.81024974156781" lon="7.866000135938147"><ele>339.7142857142857</ele><time>2026-04-10T10:18:45.999Z</time></trkpt><trkpt lat="44.81030962383756" lon="7.865951033505583"><ele>339.4285714285714</ele><time>2026-04-10T10:18:46.999Z</time></trkpt><trkpt lat="44.81037073880715" lon="7.865900920285606"><ele>339.1428571428571</ele><time>2026-04-10T10:18:47.999Z</time></trkpt><trkpt lat="44.810432841684815" lon="7.86584999699139"><ele>338.8571428571429</ele><time>2026-04-10T10:18:48.999Z</time></trkpt><trkpt lat="44.81049154436062" lon="7.865804982959667"><ele>338.57142857142856</ele><time>2026-04-10T10:18:49.999Z</time></trkpt><trkpt lat="44.81054736585635" lon="7.86576302413183"><ele>338.2857142857143</ele><time>2026-04-10T10:18:50.999Z</time></trkpt><trkpt lat="44.81060746728133" lon="7.865718644518239"><ele>338.0</ele><time>2026-04-10T10:18:51.999Z</time></trkpt><trkpt lat="44.81066600608339" lon="7.865675418747745"><ele>338.0</ele><time>2026-04-10T10:18:52.999Z</time></trkpt><trkpt lat="44.810721864695296" lon="7.86563417207408"><ele>338.0</ele><time>2026-04-10T10:18:53.999Z</time></trkpt><trkpt lat="44.81083141796758" lon="7.865553182077901"><ele>338.0</ele><time>2026-04-10T10:18:55.999Z</time></trkpt><trkpt lat="44.81093107292103" lon="7.865478595241264"><ele>338.0</ele><time>2026-04-10T10:18:57.999Z</time></trkpt><trkpt lat="44.81102032260335" lon="7.865407972415417"><ele>338.0</ele><time>2026-04-10T10:18:59.999Z</time></trkpt><trkpt lat="44.81110312098956" lon="7.865338980061583"><ele>338.2</ele><time>2026-04-10T10:19:01.999Z</time></trkpt><trkpt lat="44.81117917744346" lon="7.865275605478029"><ele>338.4</ele><time>2026-04-10T10:19:03.999Z</time></trkpt><trkpt lat="44.81125495685103" lon="7.8652133323155"><ele>338.59999999999997</ele><time>2026-04-10T10:19:05.999Z</time></trkpt><trkpt lat="44.81134109014091" lon="7.86514490561295"><ele>338.79999999999995</ele><time>2026-04-10T10:19:07.999Z</time></trkpt><trkpt lat="44.811429439367274" lon="7.86507624231746"><ele>339.0</ele><time>2026-04-10T10:19:09.999Z</time></trkpt><trkpt lat="44.81152332196542" lon="7.865002022948519"><ele>339.2</ele><time>2026-04-10T10:19:11.999Z</time></trkpt><trkpt lat="44.81162058381562" lon="7.86492271100039"><ele>339.4</ele><time>2026-04-10T10:19:13.999Z</time></trkpt><trkpt lat="44.81171254209995" lon="7.864846161530717"><ele>339.6</ele><time>2026-04-10T10:19:15.999Z</time></trkpt><trkpt lat="44.81180390146878" lon="7.864770110627866"><ele>339.8</ele><time>2026-04-10T10:19:17.999Z</time></trkpt><trkpt lat="44.81189657716207" lon="7.864696083469207"><ele>340.0</ele><time>2026-04-10T10:19:19.999Z</time></trkpt><trkpt lat="44.81199300671339" lon="7.864619556245584"><ele>340.0</ele><time>2026-04-10T10:19:21.999Z</time></trkpt><trkpt lat="44.81208588918797" lon="7.864545844003962"><ele>340.0</ele><time>2026-04-10T10:19:24Z</time></trkpt><trkpt lat="44.81217070000338" lon="7.864476964538371"><ele>340.0</ele><time>2026-04-10T10:19:26Z</time></trkpt><trkpt lat="44.81226086952036" lon="7.864403057531999"><ele>340.0</ele><time>2026-04-10T10:19:28Z</time></trkpt><trkpt lat="44.81234884397337" lon="7.864330949690649"><ele>340.0</ele><time>2026-04-10T10:19:30Z</time></trkpt><trkpt lat="44.812439118997574" lon="7.864257895308184"><ele>339.8</ele><time>2026-04-10T10:19:32Z</time></trkpt><trkpt lat="44.812528966066466" lon="7.864187699607856"><ele>339.6</ele><time>2026-04-10T10:19:34Z</time></trkpt><trkpt lat="44.812617610352994" lon="7.864118443613246"><ele>339.4</ele><time>2026-04-10T10:19:36Z</time></trkpt><trkpt lat="44.81270741831923" lon="7.864048931082058"><ele>339.2</ele><time>2026-04-10T10:19:38Z</time></trkpt><trkpt lat="44.8127947643223" lon="7.863981371630258"><ele>339.0</ele><time>2026-04-10T10:19:40Z</time></trkpt><trkpt lat="44.81289129751111" lon="7.863908254948947"><ele>339.0</ele><time>2026-04-10T10:19:42Z</time></trkpt><trkpt lat="44.81298051382542" lon="7.863841179910174"><ele>339.0</ele><time>2026-04-10T10:19:44Z</time></trkpt><trkpt lat="44.813073301747345" lon="7.863771419646436"><ele>339.0</ele><time>2026-04-10T10:19:46Z</time></trkpt><trkpt lat="44.81316316842529" lon="7.863703815527379"><ele>339.0</ele><time>2026-04-10T10:19:48Z</time></trkpt><trkpt lat="44.81325798967746" lon="7.863627867914528"><ele>339.0</ele><time>2026-04-10T10:19:50Z</time></trkpt><trkpt lat="44.81335731169149" lon="7.863548315415689"><ele>339.0</ele><time>2026-04-10T10:19:52Z</time></trkpt><trkpt lat="44.81341207554515" lon="7.863504452015271"><ele>339.0</ele><time>2026-04-10T10:19:53Z</time></trkpt><trkpt lat="44.813459622143405" lon="7.863444521298319"><ele>339.0</ele><time>2026-04-10T10:19:54Z</time></trkpt><trkpt lat="44.81351594443402" lon="7.863403127794275"><ele>339.0</ele><time>2026-04-10T10:19:55Z</time></trkpt><trkpt lat="44.81357277009554" lon="7.863353961869446"><ele>339.0</ele><time>2026-04-10T10:19:56Z</time></trkpt><trkpt lat="44.81363799074468" lon="7.863326146137232"><ele>339.0</ele><time>2026-04-10T10:19:57Z</time></trkpt><trkpt lat="44.81369438402719" lon="7.8632816419356955"><ele>339.0</ele><time>2026-04-10T10:19:58Z</time></trkpt><trkpt lat="44.81378920231853" lon="7.863188064920035"><ele>337.6</ele><time>2026-04-10T10:20:00Z</time></trkpt><trkpt lat="44.81388547861007" lon="7.863108317751738"><ele>336.2</ele><time>2026-04-10T10:20:02Z</time></trkpt><trkpt lat="44.813934021339335" lon="7.862989841276654"><ele>334.8</ele><time>2026-04-10T10:20:04Z</time></trkpt><trkpt lat="44.81390342767361" lon="7.862858654561863"><ele>333.40000000000003</ele><time>2026-04-10T10:20:06Z</time></trkpt><trkpt lat="44.81384049192605" lon="7.862750246384484"><ele>332.0</ele><time>2026-04-10T10:20:08Z</time></trkpt><trkpt lat="44.813768333496135" lon="7.862628883752966"><ele>332.1666666666667</ele><time>2026-04-10T10:20:10Z</time></trkpt><trkpt lat="44.8136913528057" lon="7.862489642897754"><ele>332.33333333333337</ele><time>2026-04-10T10:20:12Z</time></trkpt><trkpt lat="44.813655215251686" lon="7.862415139449151"><ele>332.5</ele><time>2026-04-10T10:20:13Z</time></trkpt><trkpt lat="44.813614394044" lon="7.862343049928767"><ele>332.6666666666667</ele><time>2026-04-10T10:20:14Z</time></trkpt><trkpt lat="44.81353515069182" lon="7.862205914751425"><ele>332.8333333333333</ele><time>2026-04-10T10:20:16Z</time></trkpt><trkpt lat="44.813493579483804" lon="7.862138575187672"><ele>333.0</ele><time>2026-04-10T10:20:17Z</time></trkpt><trkpt lat="44.81343177880116" lon="7.861999860928159"><ele>333.0</ele><time>2026-04-10T10:20:19Z</time></trkpt><trkpt lat="44.8133632861604" lon="7.861869957784464"><ele>333.0</ele><time>2026-04-10T10:20:21Z</time></trkpt><trkpt lat="44.813296609631436" lon="7.861730845096269"><ele>333.0</ele><time>2026-04-10T10:20:23Z</time></trkpt><trkpt lat="44.813237367811205" lon="7.861582018541989"><ele>333.0</ele><time>2026-04-10T10:20:25Z</time></trkpt><trkpt lat="44.81318251401227" lon="7.8614319614053585"><ele>332.79999999999995</ele><time>2026-04-10T10:20:27Z</time></trkpt><trkpt lat="44.81313022420332" lon="7.86129119426236"><ele>332.6</ele><time>2026-04-10T10:20:29Z</time></trkpt><trkpt lat="44.81307916366263" lon="7.861155969737139"><ele>332.4</ele><time>2026-04-10T10:20:31Z</time></trkpt><trkpt lat="44.81302962975588" lon="7.861024788403874"><ele>332.20000000000005</ele><time>2026-04-10T10:20:33Z</time></trkpt><trkpt lat="44.81297927103092" lon="7.86089142244867"><ele>332.0</ele><time>2026-04-10T10:20:35Z</time></trkpt><trkpt lat="44.812926582401616" lon="7.860754562274442"><ele>332.0</ele><time>2026-04-10T10:20:37Z</time></trkpt><trkpt lat="44.812875619404636" lon="7.860630094967665"><ele>332.0</ele><time>2026-04-10T10:20:39Z</time></trkpt><trkpt lat="44.812817009822" lon="7.860501487972562"><ele>332.0</ele><time>2026-04-10T10:20:41Z</time></trkpt><trkpt lat="44.8127639197456" lon="7.860396213821283"><ele>332.0</ele><time>2026-04-10T10:20:43Z</time></trkpt><trkpt lat="44.81271447037225" lon="7.860297611073438"><ele>332.0</ele><time>2026-04-10T10:20:45Z</time></trkpt><trkpt lat="44.81269519991447" lon="7.860195437819546"><ele>332.0</ele><time>2026-04-10T10:20:47Z</time></trkpt><trkpt lat="44.81261601996591" lon="7.860144401009477"><ele>332.0</ele><time>2026-04-10T10:20:49Z</time></trkpt><trkpt lat="44.812567294958185" lon="7.860067834200199"><ele>332.0</ele><time>2026-04-10T10:20:51Z</time></trkpt><trkpt lat="44.8125718615135" lon="7.859968281435043"><ele>332.0</ele><time>2026-04-10T10:20:52Z</time></trkpt><trkpt lat="44.81265775557965" lon="7.859815227786483"><ele>332.0</ele><time>2026-04-10T10:20:53Z</time></trkpt><trkpt lat="44.81266710467932" lon="7.859694706405216"><ele>332.0</ele><time>2026-04-10T10:20:55Z</time></trkpt><trkpt lat="44.8126777978137" lon="7.859578010523163"><ele>332.0</ele><time>2026-04-10T10:20:57Z</time></trkpt><trkpt lat="44.81267803729218" lon="7.859445153534771"><ele>332.0</ele><time>2026-04-10T10:20:58.999Z</time></trkpt><trkpt lat="44.812676184191865" lon="7.859294712991826"><ele>332.0</ele><time>2026-04-10T10:21:00.999Z</time></trkpt><trkpt lat="44.81267367848721" lon="7.859130263897245"><ele>332.0</ele><time>2026-04-10T10:21:02.999Z</time></trkpt><trkpt lat="44.81266758818554" lon="7.858958091935309"><ele>331.8</ele><time>2026-04-10T10:21:04.999Z</time></trkpt><trkpt lat="44.812670346622" lon="7.858792692223526"><ele>331.6</ele><time>2026-04-10T10:21:06.999Z</time></trkpt><trkpt lat="44.8126583567288" lon="7.858636270187871"><ele>331.40000000000003</ele><time>2026-04-10T10:21:08.999Z</time></trkpt><trkpt lat="44.81264897799079" lon="7.858489801802008"><ele>331.20000000000005</ele><time>2026-04-10T10:21:10.999Z</time></trkpt><trkpt lat="44.81264124767988" lon="7.858347001686756"><ele>331.0</ele><time>2026-04-10T10:21:12.999Z</time></trkpt><trkpt lat="44.81263076555715" lon="7.8582062107660855"><ele>331.0</ele><time>2026-04-10T10:21:14.999Z</time></trkpt><trkpt lat="44.81261762959047" lon="7.858070689286428"><ele>331.0</ele><time>2026-04-10T10:21:16.999Z</time></trkpt><trkpt lat="44.812598648049416" lon="7.8579487735710085"><ele>331.0</ele><time>2026-04-10T10:21:18.999Z</time></trkpt><trkpt lat="44.81258110616317" lon="7.85782217268727"><ele>331.0</ele><time>2026-04-10T10:21:20.999Z</time></trkpt><trkpt lat="44.81259014643189" lon="7.857702790427181"><ele>331.0</ele><time>2026-04-10T10:21:22.999Z</time></trkpt><trkpt lat="44.81260521854748" lon="7.8575703620122725"><ele>331.0</ele><time>2026-04-10T10:21:24.999Z</time></trkpt><trkpt lat="44.81263046763798" lon="7.857447812516769"><ele>331.0</ele><time>2026-04-10T10:21:26.999Z</time></trkpt><trkpt lat="44.812663109312794" lon="7.857326864507757"><ele>331.0</ele><time>2026-04-10T10:21:29Z</time></trkpt><trkpt lat="44.812700119846525" lon="7.857198430740315"><ele>331.0</ele><time>2026-04-10T10:21:31Z</time></trkpt><trkpt lat="44.81273756286453" lon="7.857056594025879"><ele>331.0</ele><time>2026-04-10T10:21:33Z</time></trkpt><trkpt lat="44.81278233504215" lon="7.856912922068192"><ele>331.5</ele><time>2026-04-10T10:21:35Z</time></trkpt><trkpt lat="44.812830330970804" lon="7.856771717613795"><ele>332.0</ele><time>2026-04-10T10:21:37Z</time></trkpt><trkpt lat="44.8128842575314" lon="7.85662864305232"><ele>332.5</ele><time>2026-04-10T10:21:39Z</time></trkpt><trkpt lat="44.81294656587434" lon="7.856492943423134"><ele>333.0</ele><time>2026-04-10T10:21:41Z</time></trkpt><trkpt lat="44.81301762428352" lon="7.856373041768897"><ele>333.0</ele><time>2026-04-10T10:21:43Z</time></trkpt><trkpt lat="44.81309683368804" lon="7.856260477215085"><ele>333.0</ele><time>2026-04-10T10:21:45Z</time></trkpt><trkpt lat="44.81316663428383" lon="7.856146504969899"><ele>333.0</ele><time>2026-04-10T10:21:47Z</time></trkpt><trkpt lat="44.81323519773901" lon="7.856050855827242"><ele>333.0</ele><time>2026-04-10T10:21:49Z</time></trkpt><trkpt lat="44.81329509369872" lon="7.855936643260942"><ele>333.0</ele><time>2026-04-10T10:21:51Z</time></trkpt><trkpt lat="44.81335595087858" lon="7.855821152394149"><ele>333.2</ele><time>2026-04-10T10:21:53Z</time></trkpt><trkpt lat="44.813405083563616" lon="7.855678049025101"><ele>333.4</ele><time>2026-04-10T10:21:55Z</time></trkpt><trkpt lat="44.813454014600126" lon="7.855550878414463"><ele>333.59999999999997</ele><time>2026-04-10T10:21:57Z</time></trkpt><trkpt lat="44.81350010510283" lon="7.855419071153977"><ele>333.79999999999995</ele><time>2026-04-10T10:21:59Z</time></trkpt><trkpt lat="44.81355127937093" lon="7.855297038405206"><ele>334.0</ele><time>2026-04-10T10:22:01Z</time></trkpt><trkpt lat="44.81359992062003" lon="7.855171379738918"><ele>334.16666666666663</ele><time>2026-04-10T10:22:03Z</time></trkpt><trkpt lat="44.81365309236576" lon="7.855054280643459"><ele>334.3333333333333</ele><time>2026-04-10T10:22:05Z</time></trkpt><trkpt lat="44.81370794907749" lon="7.854938099588376"><ele>334.5</ele><time>2026-04-10T10:22:07Z</time></trkpt><trkpt lat="44.813743059773685" lon="7.854862441254229"><ele>334.6666666666667</ele><time>2026-04-10T10:22:10Z</time></trkpt><trkpt lat="44.81378678118369" lon="7.854756342730797"><ele>334.83333333333337</ele><time>2026-04-10T10:22:12Z</time></trkpt><trkpt lat="44.81383928949561" lon="7.854675909608329"><ele>335.0</ele><time>2026-04-10T10:22:14Z</time></trkpt><trkpt lat="44.8139294340857" lon="7.854610892311527"><ele>335.0</ele><time>2026-04-10T10:22:16Z</time></trkpt><trkpt lat="44.814040741193104" lon="7.854579688307035"><ele>335.0</ele><time>2026-04-10T10:22:18Z</time></trkpt><trkpt lat="44.81413898352899" lon="7.854507400926263"><ele>335.0</ele><time>2026-04-10T10:22:20Z</time></trkpt><trkpt lat="44.81423476066269" lon="7.854424527617141"><ele>335.0</ele><time>2026-04-10T10:22:22Z</time></trkpt><trkpt lat="44.814320600019386" lon="7.854373451795035"><ele>335.0</ele><time>2026-04-10T10:22:24Z</time></trkpt><trkpt lat="44.81441446174899" lon="7.854368174315491"><ele>334.8</ele><time>2026-04-10T10:22:26Z</time></trkpt><trkpt lat="44.81451519302309" lon="7.854346592769021"><ele>334.6</ele><time>2026-04-10T10:22:28Z</time></trkpt><trkpt lat="44.814613733217655" lon="7.854264304158878"><ele>334.4</ele><time>2026-04-10T10:22:30Z</time></trkpt><trkpt lat="44.814708624871436" lon="7.854165617490407"><ele>334.2</ele><time>2026-04-10T10:22:32Z</time></trkpt><trkpt lat="44.81477289220243" lon="7.854066854327119"><ele>334.0</ele><time>2026-04-10T10:22:34Z</time></trkpt><trkpt lat="44.81484331850887" lon="7.8539716005755515"><ele>333.16666666666663</ele><time>2026-04-10T10:22:36Z</time></trkpt><trkpt lat="44.814894784286764" lon="7.853910986512025"><ele>332.3333333333333</ele><time>2026-04-10T10:22:38Z</time></trkpt><trkpt lat="44.814955192659674" lon="7.853828578817933"><ele>331.5</ele><time>2026-04-10T10:22:40Z</time></trkpt><trkpt lat="44.81501577841878" lon="7.853740252577627"><ele>330.6666666666667</ele><time>2026-04-10T10:22:42Z</time></trkpt><trkpt lat="44.8150733834446" lon="7.8536616805033415"><ele>329.83333333333337</ele><time>2026-04-10T10:22:44Z</time></trkpt><trkpt lat="44.815125122561255" lon="7.85357812602877"><ele>329.0</ele><time>2026-04-10T10:22:46Z</time></trkpt><trkpt lat="44.81518095022204" lon="7.853495406628188"><ele>327.6666666666667</ele><time>2026-04-10T10:22:48Z</time></trkpt><trkpt lat="44.815233895278524" lon="7.853419224948923"><ele>326.33333333333337</ele><time>2026-04-10T10:22:50Z</time></trkpt><trkpt lat="44.81529110247263" lon="7.8533262806251765"><ele>325.0</ele><time>2026-04-10T10:22:52Z</time></trkpt><trkpt lat="44.81533823316072" lon="7.853236053335124"><ele>323.6666666666667</ele><time>2026-04-10T10:22:54Z</time></trkpt><trkpt lat="44.8153943717185" lon="7.853147806286345"><ele>322.3333333333333</ele><time>2026-04-10T10:22:56Z</time></trkpt><trkpt lat="44.81544983452626" lon="7.853060253302484"><ele>321.0</ele><time>2026-04-10T10:22:57.999Z</time></trkpt><trkpt lat="44.815503143133654" lon="7.852974305002944"><ele>321.0</ele><time>2026-04-10T10:22:59.999Z</time></trkpt><trkpt lat="44.81556846638894" lon="7.8528662370525115"><ele>321.0</ele><time>2026-04-10T10:23:01.999Z</time></trkpt><trkpt lat="44.815633648848724" lon="7.852754067248216"><ele>321.0</ele><time>2026-04-10T10:23:03.999Z</time></trkpt><trkpt lat="44.81570771086393" lon="7.852667830836919"><ele>321.0</ele><time>2026-04-10T10:23:05.999Z</time></trkpt><trkpt lat="44.81579455249533" lon="7.85267504852773"><ele>321.0</ele><time>2026-04-10T10:23:07.999Z</time></trkpt><trkpt lat="44.8158567397039" lon="7.852723849877744"><ele>321.0</ele><time>2026-04-10T10:23:09.999Z</time></trkpt><trkpt lat="44.81591454942325" lon="7.852799739797536"><ele>321.0</ele><time>2026-04-10T10:23:12.999Z</time></trkpt><trkpt lat="44.81598917289928" lon="7.852867724392057"><ele>321.0</ele><time>2026-04-10T10:23:15.999Z</time></trkpt><trkpt lat="44.816061214506306" lon="7.852935672659381"><ele>321.0</ele><time>2026-04-10T10:23:17.999Z</time></trkpt><trkpt lat="44.81615413070226" lon="7.853000770978689"><ele>321.0</ele><time>2026-04-10T10:23:19.999Z</time></trkpt><trkpt lat="44.81624915826984" lon="7.853055729891291"><ele>320.5</ele><time>2026-04-10T10:23:21.999Z</time></trkpt><trkpt lat="44.81634206725486" lon="7.853103473232931"><ele>320.0</ele><time>2026-04-10T10:23:23.999Z</time></trkpt><trkpt lat="44.816419293387355" lon="7.853099753394937"><ele>319.5</ele><time>2026-04-10T10:23:25.999Z</time></trkpt><trkpt lat="44.816444270576135" lon="7.853012704296885"><ele>319.0</ele><time>2026-04-10T10:23:27.999Z</time></trkpt><trkpt lat="44.81648369697712" lon="7.8529199530532985"><ele>318.5</ele><time>2026-04-10T10:23:29.999Z</time></trkpt><trkpt lat="44.81653064511547" lon="7.8528029614194095"><ele>318.0</ele><time>2026-04-10T10:23:31.999Z</time></trkpt><trkpt lat="44.81657740584311" lon="7.8526880761797955"><ele>317.2</ele><time>2026-04-10T10:23:33.999Z</time></trkpt><trkpt lat="44.81662606511155" lon="7.852569732414849"><ele>316.4</ele><time>2026-04-10T10:23:36Z</time></trkpt><trkpt lat="44.81666491752469" lon="7.852434617749888"><ele>315.59999999999997</ele><time>2026-04-10T10:23:38Z</time></trkpt><trkpt lat="44.81669615310701" lon="7.852308417193858"><ele>314.8</ele><time>2026-04-10T10:23:40Z</time></trkpt><trkpt lat="44.81672613250371" lon="7.852186830467663"><ele>314.0</ele><time>2026-04-10T10:23:42Z</time></trkpt><trkpt lat="44.816749707294875" lon="7.852076436912486"><ele>314.0</ele><time>2026-04-10T10:23:44Z</time></trkpt><trkpt lat="44.816771103807625" lon="7.851952028631616"><ele>314.0</ele><time>2026-04-10T10:23:46Z</time></trkpt><trkpt lat="44.816800827776156" lon="7.851828971054396"><ele>314.0</ele><time>2026-04-10T10:23:48Z</time></trkpt><trkpt lat="44.81683338811115" lon="7.851695811216823"><ele>314.0</ele><time>2026-04-10T10:23:50Z</time></trkpt><trkpt lat="44.81686864815331" lon="7.851556126705644"><ele>314.0</ele><time>2026-04-10T10:23:52Z</time></trkpt><trkpt lat="44.81690664163739" lon="7.851414008868649"><ele>313.59999999999997</ele><time>2026-04-10T10:23:54Z</time></trkpt><trkpt lat="44.816943607324454" lon="7.851269188939619"><ele>313.2</ele><time>2026-04-10T10:23:56Z</time></trkpt><trkpt lat="44.81698065551475" lon="7.851133736969452"><ele>312.79999999999995</ele><time>2026-04-10T10:23:58Z</time></trkpt><trkpt lat="44.817015105181845" lon="7.8509978345965585"><ele>312.4</ele><time>2026-04-10T10:24:00Z</time></trkpt><trkpt lat="44.81705447170388" lon="7.85086912727493"><ele>312.0</ele><time>2026-04-10T10:24:02Z</time></trkpt><trkpt lat="44.8171140040776" lon="7.850754885131704"><ele>311.6</ele><time>2026-04-10T10:24:04Z</time></trkpt><trkpt lat="44.81718998612905" lon="7.850661740353062"><ele>311.2</ele><time>2026-04-10T10:24:06Z</time></trkpt><trkpt lat="44.81725227879805" lon="7.850578253181915"><ele>310.8</ele><time>2026-04-10T10:24:08Z</time></trkpt><trkpt lat="44.81731873448628" lon="7.85049295022245"><ele>310.4</ele><time>2026-04-10T10:24:10Z</time></trkpt><trkpt lat="44.81738228765525" lon="7.8503973285380075"><ele>310.0</ele><time>2026-04-10T10:24:12Z</time></trkpt><trkpt lat="44.817453466653554" lon="7.850309718666828"><ele>310.0</ele><time>2026-04-10T10:24:14Z</time></trkpt><trkpt lat="44.817523023705405" lon="7.850228726500567"><ele>310.0</ele><time>2026-04-10T10:24:16Z</time></trkpt><trkpt lat="44.81759351388994" lon="7.850168731436766"><ele>310.0</ele><time>2026-04-10T10:24:18Z</time></trkpt><trkpt lat="44.81767954956725" lon="7.8501315049577185"><ele>310.0</ele><time>2026-04-10T10:24:20Z</time></trkpt><trkpt lat="44.81777781498988" lon="7.850113906029067"><ele>310.0</ele><time>2026-04-10T10:24:22Z</time></trkpt><trkpt lat="44.81788272887551" lon="7.8501144418166975"><ele>309.6</ele><time>2026-04-10T10:24:24Z</time></trkpt><trkpt lat="44.81799056630072" lon="7.850084235091585"><ele>309.2</ele><time>2026-04-10T10:24:26Z</time></trkpt><trkpt lat="44.818085403127675" lon="7.850002347537952"><ele>308.8</ele><time>2026-04-10T10:24:28Z</time></trkpt><trkpt lat="44.81817391259394" lon="7.849906550163059"><ele>308.4</ele><time>2026-04-10T10:24:30Z</time></trkpt><trkpt lat="44.8182484731279" lon="7.849805290287989"><ele>308.0</ele><time>2026-04-10T10:24:32Z</time></trkpt><trkpt lat="44.818326943226026" lon="7.849695351589111"><ele>308.0</ele><time>2026-04-10T10:24:34Z</time></trkpt><trkpt lat="44.818401682016926" lon="7.849589732358201"><ele>308.0</ele><time>2026-04-10T10:24:36Z</time></trkpt><trkpt lat="44.81847127982198" lon="7.849498282675782"><ele>308.0</ele><time>2026-04-10T10:24:38Z</time></trkpt><trkpt lat="44.818541395521414" lon="7.849401454655264"><ele>308.0</ele><time>2026-04-10T10:24:40Z</time></trkpt><trkpt lat="44.818611608957205" lon="7.849290406494251"><ele>308.0</ele><time>2026-04-10T10:24:42Z</time></trkpt><trkpt lat="44.81867482554258" lon="7.849188660230695"><ele>306.8</ele><time>2026-04-10T10:24:44Z</time></trkpt><trkpt lat="44.81872895516978" lon="7.849094561821008"><ele>305.6</ele><time>2026-04-10T10:24:46Z</time></trkpt><trkpt lat="44.818738669540174" lon="7.848984356007588"><ele>304.4</ele><time>2026-04-10T10:24:48Z</time></trkpt><trkpt lat="44.818680347434984" lon="7.848879314441284"><ele>303.2</ele><time>2026-04-10T10:24:50Z</time></trkpt><trkpt lat="44.81863279433385" lon="7.8487673767304"><ele>302.0</ele><time>2026-04-10T10:24:52Z</time></trkpt><trkpt lat="44.818598536759595" lon="7.84863088867631"><ele>302.0</ele><time>2026-04-10T10:24:54Z</time></trkpt><trkpt lat="44.81855694318013" lon="7.848496890987838"><ele>302.0</ele><time>2026-04-10T10:24:56Z</time></trkpt><trkpt lat="44.81851376868482" lon="7.848369911952794"><ele>302.0</ele><time>2026-04-10T10:24:58Z</time></trkpt><trkpt lat="44.81845731740706" lon="7.8482435591540565"><ele>302.0</ele><time>2026-04-10T10:25:00Z</time></trkpt><trkpt lat="44.818370598444226" lon="7.848135491997429"><ele>302.0</ele><time>2026-04-10T10:25:02Z</time></trkpt><trkpt lat="44.81826285854337" lon="7.848075333673214"><ele>302.83333333333337</ele><time>2026-04-10T10:25:04Z</time></trkpt><trkpt lat="44.818166127408524" lon="7.848036895990388"><ele>303.6666666666667</ele><time>2026-04-10T10:25:06Z</time></trkpt><trkpt lat="44.818099669686845" lon="7.84802908332845"><ele>304.5</ele><time>2026-04-10T10:25:07Z</time></trkpt><trkpt lat="44.818032943423674" lon="7.848024350243087"><ele>305.3333333333333</ele><time>2026-04-10T10:25:08Z</time></trkpt><trkpt lat="44.81796360613106" lon="7.848006928660382"><ele>306.16666666666663</ele><time>2026-04-10T10:25:09Z</time></trkpt><trkpt lat="44.81789026365555" lon="7.848008295745868"><ele>307.0</ele><time>2026-04-10T10:25:10Z</time></trkpt><trkpt lat="44.817814668526665" lon="7.848013714368481"><ele>307.0</ele><time>2026-04-10T10:25:11Z</time></trkpt><trkpt lat="44.817747960262835" lon="7.848008982138882"><ele>307.0</ele><time>2026-04-10T10:25:12Z</time></trkpt><trkpt lat="44.81763410587846" lon="7.8479625378159685"><ele>307.0</ele><time>2026-04-10T10:25:14Z</time></trkpt><trkpt lat="44.81754381172245" lon="7.847879263733029"><ele>307.0</ele><time>2026-04-10T10:25:16Z</time></trkpt><trkpt lat="44.81747446356859" lon="7.847766341729989"><ele>307.0</ele><time>2026-04-10T10:25:17.999Z</time></trkpt><trkpt lat="44.81743753072428" lon="7.847688915142249"><ele>306.4</ele><time>2026-04-10T10:25:18.999Z</time></trkpt><trkpt lat="44.8173853296405" lon="7.847537679789362"><ele>305.79999999999995</ele><time>2026-04-10T10:25:20.999Z</time></trkpt><trkpt lat="44.81733153704653" lon="7.847402900260396"><ele>305.2</ele><time>2026-04-10T10:25:22.999Z</time></trkpt><trkpt lat="44.81724814854253" lon="7.847332593731063"><ele>304.59999999999997</ele><time>2026-04-10T10:25:24.999Z</time></trkpt><trkpt lat="44.81717051539032" lon="7.847275322554148"><ele>304.0</ele><time>2026-04-10T10:25:26.999Z</time></trkpt><trkpt lat="44.81710805187622" lon="7.8472503195883325"><ele>304.0</ele><time>2026-04-10T10:25:28.999Z</time></trkpt><trkpt lat="44.81703368702379" lon="7.8472144724510535"><ele>304.0</ele><time>2026-04-10T10:25:32.999Z</time></trkpt><trkpt lat="44.816967666637666" lon="7.84720088445489"><ele>304.0</ele><time>2026-04-10T10:25:36.999Z</time></trkpt><trkpt lat="44.81687476173189" lon="7.84719268785744"><ele>304.0</ele><time>2026-04-10T10:25:41Z</time></trkpt><trkpt lat="44.81680473497731" lon="7.84718339281008"><ele>304.0</ele><time>2026-04-10T10:25:43Z</time></trkpt><trkpt lat="44.8167245064079" lon="7.847169520600454"><ele>304.0</ele><time>2026-04-10T10:25:45Z</time></trkpt><trkpt lat="44.816646120128134" lon="7.847136979496582"><ele>303.5</ele><time>2026-04-10T10:25:47Z</time></trkpt><trkpt lat="44.81657447754411" lon="7.847109076388435"><ele>303.0</ele><time>2026-04-10T10:25:49Z</time></trkpt><trkpt lat="44.816504747819394" lon="7.847066808847025"><ele>302.5</ele><time>2026-04-10T10:25:51Z</time></trkpt><trkpt lat="44.81644200347941" lon="7.847015442069608"><ele>302.0</ele><time>2026-04-10T10:25:53Z</time></trkpt><trkpt lat="44.816380478387956" lon="7.846965089713686"><ele>301.5</ele><time>2026-04-10T10:25:55Z</time></trkpt><trkpt lat="44.816305617121856" lon="7.846898471696439"><ele>301.0</ele><time>2026-04-10T10:25:58Z</time></trkpt><trkpt lat="44.81624833291157" lon="7.846847785738664"><ele>301.0</ele><time>2026-04-10T10:26:00Z</time></trkpt><trkpt lat="44.816187981856196" lon="7.846788046388974"><ele>301.0</ele><time>2026-04-10T10:26:03Z</time></trkpt><trkpt lat="44.81613218728681" lon="7.846742739967707"><ele>301.0</ele><time>2026-04-10T10:26:06Z</time></trkpt><trkpt lat="44.81607896986147" lon="7.846659779820245"><ele>301.0</ele><time>2026-04-10T10:26:10Z</time></trkpt><trkpt lat="44.81602550654861" lon="7.846583011356514"><ele>301.0</ele><time>2026-04-10T10:26:14Z</time></trkpt><trkpt lat="44.81597579226342" lon="7.846504530120357"><ele>301.0</ele><time>2026-04-10T10:26:17Z</time></trkpt><trkpt lat="44.81592938904416" lon="7.8464204903272625"><ele>301.0</ele><time>2026-04-10T10:26:20Z</time></trkpt><trkpt lat="44.81588927269777" lon="7.846304563474145"><ele>300.8333333333333</ele><time>2026-04-10T10:26:23Z</time></trkpt><trkpt lat="44.81584804386001" lon="7.846217665352801"><ele>300.66666666666663</ele><time>2026-04-10T10:26:27Z</time></trkpt><trkpt lat="44.81581090993652" lon="7.8461198003296095"><ele>300.5</ele><time>2026-04-10T10:26:30Z</time></trkpt><trkpt lat="44.815765898248394" lon="7.846017721546387"><ele>300.3333333333333</ele><time>2026-04-10T10:26:33Z</time></trkpt><trkpt lat="44.81571177054632" lon="7.84596456956603"><ele>300.1666666666667</ele><time>2026-04-10T10:26:36Z</time></trkpt><trkpt lat="44.815650071420144" lon="7.845902994579044"><ele>300.0</ele><time>2026-04-10T10:26:39Z</time></trkpt><trkpt lat="44.815589500998435" lon="7.845853243425802"><ele>299.8333333333333</ele><time>2026-04-10T10:26:41Z</time></trkpt><trkpt lat="44.81554710416916" lon="7.845756212161954"><ele>299.6666666666667</ele><time>2026-04-10T10:26:44Z</time></trkpt><trkpt lat="44.81550068282476" lon="7.845684387699032"><ele>299.5</ele><time>2026-04-10T10:26:46Z</time></trkpt><trkpt lat="44.81543965004762" lon="7.845642403797658"><ele>299.33333333333337</ele><time>2026-04-10T10:26:48Z</time></trkpt><trkpt lat="44.81538930744182" lon="7.845588182227788"><ele>299.1666666666667</ele><time>2026-04-10T10:26:50Z</time></trkpt><trkpt lat="44.81534831660867" lon="7.845498738570278"><ele>299.0</ele><time>2026-04-10T10:26:52Z</time></trkpt><trkpt lat="44.81539415260593" lon="7.845378431182714"><ele>299.0</ele><time>2026-04-10T10:26:55Z</time></trkpt><trkpt lat="44.815453133402826" lon="7.845324217164131"><ele>299.0</ele><time>2026-04-10T10:26:57Z</time></trkpt><trkpt lat="44.81551146867717" lon="7.8452592221505775"><ele>299.0</ele><time>2026-04-10T10:26:59Z</time></trkpt><trkpt lat="44.8155740664506" lon="7.8451941270015"><ele>299.0</ele><time>2026-04-10T10:27:01Z</time></trkpt><trkpt lat="44.81564633435373" lon="7.845116500910408"><ele>299.0</ele><time>2026-04-10T10:27:03Z</time></trkpt><trkpt lat="44.81572039404855" lon="7.845041287806412"><ele>299.0</ele><time>2026-04-10T10:27:05Z</time></trkpt><trkpt lat="44.815792570686405" lon="7.844963072594211"><ele>298.4</ele><time>2026-04-10T10:27:07Z</time></trkpt><trkpt lat="44.81586629499396" lon="7.844891542968876"><ele>297.79999999999995</ele><time>2026-04-10T10:27:09Z</time></trkpt><trkpt lat="44.81593875835761" lon="7.844825561879829"><ele>297.20000000000005</ele><time>2026-04-10T10:27:11Z</time></trkpt><trkpt lat="44.81601684458905" lon="7.844752226467844"><ele>296.6</ele><time>2026-04-10T10:27:13Z</time></trkpt><trkpt lat="44.81609015563364" lon="7.844689782634654"><ele>296.0</ele><time>2026-04-10T10:27:15Z</time></trkpt><trkpt lat="44.816173166044614" lon="7.844625208677498"><ele>296.0</ele><time>2026-04-10T10:27:17Z</time></trkpt><trkpt lat="44.816242648035484" lon="7.844564015220521"><ele>296.0</ele><time>2026-04-10T10:27:18.999Z</time></trkpt><trkpt lat="44.816310376832924" lon="7.84451493655747"><ele>296.0</ele><time>2026-04-10T10:27:20.999Z</time></trkpt><trkpt lat="44.81637647770024" lon="7.844470107562615"><ele>296.0</ele><time>2026-04-10T10:27:22.999Z</time></trkpt><trkpt lat="44.81644047961963" lon="7.844438279773396"><ele>296.0</ele><time>2026-04-10T10:27:25.999Z</time></trkpt><trkpt lat="44.8165910319452" lon="7.844381173139628"><ele>296.0</ele><time>2026-04-10T10:27:27.999Z</time></trkpt><trkpt lat="44.8166630579885" lon="7.844351232442541"><ele>296.0</ele><time>2026-04-10T10:27:29.999Z</time></trkpt><trkpt lat="44.816733890760936" lon="7.844310968181947"><ele>296.0</ele><time>2026-04-10T10:27:31.999Z</time></trkpt><trkpt lat="44.81681453114492" lon="7.844250336394126"><ele>296.0</ele><time>2026-04-10T10:27:33.999Z</time></trkpt><trkpt lat="44.81687940692447" lon="7.844190974069184"><ele>296.0</ele><time>2026-04-10T10:27:35.999Z</time></trkpt><trkpt lat="44.81693698927601" lon="7.844080809085337"><ele>296.0</ele><time>2026-04-10T10:27:38.999Z</time></trkpt><trkpt lat="44.816950142305885" lon="7.843966137068566"><ele>296.0</ele><time>2026-04-10T10:27:40.999Z</time></trkpt><trkpt lat="44.81692860456285" lon="7.843864892277076"><ele>296.0</ele><time>2026-04-10T10:27:42.999Z</time></trkpt><trkpt lat="44.816911423725955" lon="7.843760232976206"><ele>296.0</ele><time>2026-04-10T10:27:44.999Z</time></trkpt><trkpt lat="44.81688460719177" lon="7.8436512679631525"><ele>296.0</ele><time>2026-04-10T10:27:47Z</time></trkpt><trkpt lat="44.81686758927143" lon="7.8435628198560625"><ele>296.0</ele><time>2026-04-10T10:27:50Z</time></trkpt><trkpt lat="44.81685336889936" lon="7.843436785827462"><ele>296.0</ele><time>2026-04-10T10:27:53Z</time></trkpt><trkpt lat="44.81684977639823" lon="7.843338562403712"><ele>296.0</ele><time>2026-04-10T10:27:55Z</time></trkpt><trkpt lat="44.81682995492083" lon="7.843205740537347"><ele>296.0</ele><time>2026-04-10T10:27:57Z</time></trkpt><trkpt lat="44.81681715397583" lon="7.843081453423649"><ele>296.0</ele><time>2026-04-10T10:27:59Z</time></trkpt><trkpt lat="44.81680771550398" lon="7.842964717344217"><ele>296.0</ele><time>2026-04-10T10:28:01Z</time></trkpt><trkpt lat="44.816807102979354" lon="7.842853016267559"><ele>296.0</ele><time>2026-04-10T10:28:03Z</time></trkpt><trkpt lat="44.81681831339068" lon="7.842748034312942"><ele>296.0</ele><time>2026-04-10T10:28:05Z</time></trkpt><trkpt lat="44.81684056849499" lon="7.842618083531696"><ele>296.1666666666667</ele><time>2026-04-10T10:28:08Z</time></trkpt><trkpt lat="44.81687334317802" lon="7.842486214396949"><ele>296.33333333333337</ele><time>2026-04-10T10:28:11Z</time></trkpt><trkpt lat="44.816901955551366" lon="7.842377832823592"><ele>296.5</ele><time>2026-04-10T10:28:13Z</time></trkpt><trkpt lat="44.81692637255784" lon="7.842261653395355"><ele>296.6666666666667</ele><time>2026-04-10T10:28:16Z</time></trkpt><trkpt lat="44.81693601773187" lon="7.8421333688016315"><ele>296.8333333333333</ele><time>2026-04-10T10:28:19Z</time></trkpt><trkpt lat="44.81694134380327" lon="7.842026971059119"><ele>297.0</ele><time>2026-04-10T10:28:22Z</time></trkpt><trkpt lat="44.816945634278404" lon="7.841930634609556"><ele>297.0</ele><time>2026-04-10T10:28:23Z</time></trkpt><trkpt lat="44.81695284519634" lon="7.841823436586866"><ele>297.0</ele><time>2026-04-10T10:28:25Z</time></trkpt><trkpt lat="44.8169542287602" lon="7.841734241428052"><ele>297.0</ele><time>2026-04-10T10:28:27Z</time></trkpt><trkpt lat="44.81695496730019" lon="7.841633933847529"><ele>297.0</ele><time>2026-04-10T10:28:29Z</time></trkpt><trkpt lat="44.81695523483619" lon="7.841542401581007"><ele>297.0</ele><time>2026-04-10T10:28:31Z</time></trkpt><trkpt lat="44.8169511990146" lon="7.8414509115650795"><ele>297.0</ele><time>2026-04-10T10:28:33Z</time></trkpt><trkpt lat="44.81694053256055" lon="7.841349687958787"><ele>297.0</ele><time>2026-04-10T10:28:36Z</time></trkpt><trkpt lat="44.81691583942043" lon="7.841250227174442"><ele>297.14285714285717</ele><time>2026-04-10T10:28:39Z</time></trkpt><trkpt lat="44.816884186312485" lon="7.841147308570867"><ele>297.28571428571433</ele><time>2026-04-10T10:28:42Z</time></trkpt><trkpt lat="44.816855155865646" lon="7.841039087357294"><ele>297.42857142857144</ele><time>2026-04-10T10:28:45Z</time></trkpt><trkpt lat="44.816832209847966" lon="7.840949058951411"><ele>297.57142857142856</ele><time>2026-04-10T10:28:46Z</time></trkpt><trkpt lat="44.81680582423405" lon="7.8408500630242"><ele>297.71428571428567</ele><time>2026-04-10T10:28:48Z</time></trkpt><trkpt lat="44.81679783080307" lon="7.840759258443858"><ele>297.85714285714283</ele><time>2026-04-10T10:28:50Z</time></trkpt><trkpt lat="44.8167893668733" lon="7.840667422418573"><ele>298.0</ele><time>2026-04-10T10:28:52Z</time></trkpt><trkpt lat="44.81677981563914" lon="7.840569453790227"><ele>298.2857142857143</ele><time>2026-04-10T10:28:55Z</time></trkpt><trkpt lat="44.816768598112716" lon="7.840453715515654"><ele>298.57142857142856</ele><time>2026-04-10T10:28:58Z</time></trkpt><trkpt lat="44.81676337768557" lon="7.840363537353547"><ele>298.85714285714283</ele><time>2026-04-10T10:28:59Z</time></trkpt><trkpt lat="44.816753706634294" lon="7.840275363685032"><ele>299.1428571428571</ele><time>2026-04-10T10:29:01Z</time></trkpt><trkpt lat="44.81674450619154" lon="7.840140133249053"><ele>299.42857142857144</ele><time>2026-04-10T10:29:04Z</time></trkpt><trkpt lat="44.816734092584056" lon="7.840051271326878"><ele>299.71428571428567</ele><time>2026-04-10T10:29:06Z</time></trkpt><trkpt lat="44.816720187125895" lon="7.839958291540157"><ele>300.0</ele><time>2026-04-10T10:29:08Z</time></trkpt><trkpt lat="44.816701377256706" lon="7.839861805485202"><ele>300.3333333333333</ele><time>2026-04-10T10:29:10Z</time></trkpt><trkpt lat="44.81667420962832" lon="7.839775757640619"><ele>300.6666666666667</ele><time>2026-04-10T10:29:13Z</time></trkpt><trkpt lat="44.816636493500354" lon="7.839689201570382"><ele>301.0</ele><time>2026-04-10T10:29:15Z</time></trkpt><trkpt lat="44.81658161808795" lon="7.839563317950179"><ele>301.33333333333337</ele><time>2026-04-10T10:29:17.999Z</time></trkpt><trkpt lat="44.81653099752022" lon="7.839466680898297"><ele>301.6666666666667</ele><time>2026-04-10T10:29:19.999Z</time></trkpt><trkpt lat="44.81647987646498" lon="7.839382820281494"><ele>302.0</ele><time>2026-04-10T10:29:21.999Z</time></trkpt><trkpt lat="44.816436142833396" lon="7.839296888021493"><ele>302.1666666666667</ele><time>2026-04-10T10:29:23.999Z</time></trkpt><trkpt lat="44.81635661024814" lon="7.8392062677515035"><ele>302.33333333333337</ele><time>2026-04-10T10:29:24.999Z</time></trkpt><trkpt lat="44.81630990482934" lon="7.839120394906483"><ele>302.5</ele><time>2026-04-10T10:29:26.999Z</time></trkpt><trkpt lat="44.8162645762115" lon="7.839024944776764"><ele>302.6666666666667</ele><time>2026-04-10T10:29:28.999Z</time></trkpt><trkpt lat="44.81623866889183" lon="7.838931389203296"><ele>302.8333333333333</ele><time>2026-04-10T10:29:30.999Z</time></trkpt><trkpt lat="44.8162328933198" lon="7.83882967287287"><ele>303.0</ele><time>2026-04-10T10:29:32.999Z</time></trkpt><trkpt lat="44.81623135547905" lon="7.838718157936059"><ele>303.0</ele><time>2026-04-10T10:29:34.999Z</time></trkpt><trkpt lat="44.816236304626365" lon="7.838623813342697"><ele>303.0</ele><time>2026-04-10T10:29:36.999Z</time></trkpt><trkpt lat="44.816245897847196" lon="7.838526652904103"><ele>303.0</ele><time>2026-04-10T10:29:38.999Z</time></trkpt><trkpt lat="44.81625405700397" lon="7.838432483125486"><ele>303.0</ele><time>2026-04-10T10:29:40.999Z</time></trkpt><trkpt lat="44.8162605705429" lon="7.838332215484539"><ele>303.0</ele><time>2026-04-10T10:29:42.999Z</time></trkpt><trkpt lat="44.81626223385185" lon="7.838241140410114"><ele>303.0</ele><time>2026-04-10T10:29:44.999Z</time></trkpt><trkpt lat="44.816287734274" lon="7.83814468819364"><ele>303.0</ele><time>2026-04-10T10:29:47.999Z</time></trkpt><trkpt lat="44.81632023771887" lon="7.838025275816057"><ele>303.3333333333333</ele><time>2026-04-10T10:29:50.999Z</time></trkpt><trkpt lat="44.816340946875826" lon="7.837919328026517"><ele>303.6666666666667</ele><time>2026-04-10T10:29:53Z</time></trkpt><trkpt lat="44.81634433522234" lon="7.837781718485275"><ele>304.0</ele><time>2026-04-10T10:29:55Z</time></trkpt><trkpt lat="44.81637796192764" lon="7.837671400371292"><ele>304.33333333333337</ele><time>2026-04-10T10:29:56Z</time></trkpt><trkpt lat="44.81635336386697" lon="7.837564260077694"><ele>304.6666666666667</ele><time>2026-04-10T10:29:58Z</time></trkpt><trkpt lat="44.81632691201785" lon="7.837481990468036"><ele>305.0</ele><time>2026-04-10T10:30:00Z</time></trkpt><trkpt lat="44.81633925915817" lon="7.837388929449034"><ele>305.4</ele><time>2026-04-10T10:30:02Z</time></trkpt><trkpt lat="44.81641103546377" lon="7.83732664105351"><ele>305.8</ele><time>2026-04-10T10:30:04Z</time></trkpt><trkpt lat="44.81652710716274" lon="7.837305853151993"><ele>306.2</ele><time>2026-04-10T10:30:06Z</time></trkpt><trkpt lat="44.81661102298003" lon="7.837250539472414"><ele>306.6</ele><time>2026-04-10T10:30:08Z</time></trkpt><trkpt lat="44.81669407729021" lon="7.837176601698158"><ele>307.0</ele><time>2026-04-10T10:30:10Z</time></trkpt><trkpt lat="44.81676409683228" lon="7.837085340757732"><ele>306.5</ele><time>2026-04-10T10:30:12Z</time></trkpt><trkpt lat="44.81684189593032" lon="7.836984272574075"><ele>306.0</ele><time>2026-04-10T10:30:14Z</time></trkpt><trkpt lat="44.816914394935026" lon="7.836858998693725"><ele>305.5</ele><time>2026-04-10T10:30:16Z</time></trkpt><trkpt lat="44.81699346182453" lon="7.836724224297851"><ele>305.0</ele><time>2026-04-10T10:30:18Z</time></trkpt><trkpt lat="44.817079582740796" lon="7.836601124051277"><ele>304.6666666666667</ele><time>2026-04-10T10:30:20Z</time></trkpt><trkpt lat="44.81716649197017" lon="7.83647407763879"><ele>304.33333333333337</ele><time>2026-04-10T10:30:22Z</time></trkpt><trkpt lat="44.817221059587766" lon="7.836419527762329"><ele>304.0</ele><time>2026-04-10T10:30:23Z</time></trkpt><trkpt lat="44.81725423721337" lon="7.836335910663761"><ele>303.6666666666667</ele><time>2026-04-10T10:30:24Z</time></trkpt><trkpt lat="44.81731009875549" lon="7.836284087859475"><ele>303.3333333333333</ele><time>2026-04-10T10:30:25Z</time></trkpt><trkpt lat="44.81735637542559" lon="7.836211426412228"><ele>303.0</ele><time>2026-04-10T10:30:26Z</time></trkpt><trkpt lat="44.81743769080413" lon="7.83607021057625"><ele>303.0</ele><time>2026-04-10T10:30:28Z</time></trkpt><trkpt lat="44.81747438284378" lon="7.8359939868111645"><ele>303.0</ele><time>2026-04-10T10:30:29Z</time></trkpt><trkpt lat="44.817507436465654" lon="7.835914485472562"><ele>303.0</ele><time>2026-04-10T10:30:30Z</time></trkpt><trkpt lat="44.81752093554766" lon="7.835815698506413"><ele>303.0</ele><time>2026-04-10T10:30:31Z</time></trkpt><trkpt lat="44.81752983256508" lon="7.835727172387877"><ele>303.0</ele><time>2026-04-10T10:30:32Z</time></trkpt><trkpt lat="44.81754787136931" lon="7.835563521480398"><ele>303.0</ele><time>2026-04-10T10:30:34Z</time></trkpt><trkpt lat="44.81755346563277" lon="7.835438144622505"><ele>302.8</ele><time>2026-04-10T10:30:36Z</time></trkpt><trkpt lat="44.81759186214107" lon="7.8353561850244295"><ele>302.6</ele><time>2026-04-10T10:30:38Z</time></trkpt><trkpt lat="44.81765693046139" lon="7.83550911267125"><ele>302.4</ele><time>2026-04-10T10:30:39Z</time></trkpt><trkpt lat="44.817739245900064" lon="7.8355828025704275"><ele>302.2</ele><time>2026-04-10T10:30:41Z</time></trkpt><trkpt lat="44.8178296093508" lon="7.835663022371191"><ele>302.0</ele><time>2026-04-10T10:30:43Z</time></trkpt><trkpt lat="44.81792228807655" lon="7.835745828999711"><ele>301.8</ele><time>2026-04-10T10:30:45Z</time></trkpt><trkpt lat="44.81800997075521" lon="7.835825273340049"><ele>301.6</ele><time>2026-04-10T10:30:47Z</time></trkpt><trkpt lat="44.81810102131893" lon="7.835908009678537"><ele>301.40000000000003</ele><time>2026-04-10T10:30:49Z</time></trkpt><trkpt lat="44.81818180904872" lon="7.8359829703554436"><ele>301.2</ele><time>2026-04-10T10:30:51Z</time></trkpt><trkpt lat="44.81828133140676" lon="7.836075314342082"><ele>301.0</ele><time>2026-04-10T10:30:53Z</time></trkpt><trkpt lat="44.818375829783385" lon="7.836162996772475"><ele>300.8</ele><time>2026-04-10T10:30:55Z</time></trkpt><trkpt lat="44.81846529658269" lon="7.836243113684881"><ele>300.6</ele><time>2026-04-10T10:30:57Z</time></trkpt><trkpt lat="44.81856628665393" lon="7.836311231421305"><ele>300.4</ele><time>2026-04-10T10:30:59Z</time></trkpt><trkpt lat="44.818656376715516" lon="7.8363968811564515"><ele>300.2</ele><time>2026-04-10T10:31:01Z</time></trkpt><trkpt lat="44.818756807123414" lon="7.836481261021331"><ele>300.0</ele><time>2026-04-10T10:31:03Z</time></trkpt><trkpt lat="44.81885114901465" lon="7.836593344920235"><ele>300.5</ele><time>2026-04-10T10:31:05Z</time></trkpt><trkpt lat="44.81894745810652" lon="7.836712357222418"><ele>301.0</ele><time>2026-04-10T10:31:07Z</time></trkpt><trkpt lat="44.81903683136243" lon="7.836830713205046"><ele>301.5</ele><time>2026-04-10T10:31:09Z</time></trkpt><trkpt lat="44.8191093250464" lon="7.836970829336138"><ele>302.0</ele><time>2026-04-10T10:31:11Z</time></trkpt><trkpt lat="44.8191806864886" lon="7.837109542142624"><ele>302.2</ele><time>2026-04-10T10:31:13Z</time></trkpt><trkpt lat="44.81924156407329" lon="7.837251504673022"><ele>302.4</ele><time>2026-04-10T10:31:15Z</time></trkpt><trkpt lat="44.819281401960204" lon="7.837404805834855"><ele>302.6</ele><time>2026-04-10T10:31:17Z</time></trkpt><trkpt lat="44.81931065551108" lon="7.837548114616458"><ele>302.8</ele><time>2026-04-10T10:31:19Z</time></trkpt><trkpt lat="44.81933920952899" lon="7.83767998890211"><ele>303.0</ele><time>2026-04-10T10:31:21Z</time></trkpt><trkpt lat="44.81949603190027" lon="7.8377254173768724"><ele>302.5</ele><time>2026-04-10T10:31:24Z</time></trkpt><trkpt lat="44.81961334527903" lon="7.83766772409009"><ele>302.0</ele><time>2026-04-10T10:31:26Z</time></trkpt><trkpt lat="44.819671884563846" lon="7.837634316310529"><ele>301.5</ele><time>2026-04-10T10:31:26.999Z</time></trkpt><trkpt lat="44.819785011242516" lon="7.837572390492355"><ele>301.0</ele><time>2026-04-10T10:31:28.999Z</time></trkpt><trkpt lat="44.81984725422432" lon="7.8375423740941645"><ele>300.5</ele><time>2026-04-10T10:31:29.999Z</time></trkpt><trkpt lat="44.819909300956034" lon="7.8375129612968735"><ele>300.0</ele><time>2026-04-10T10:31:30.999Z</time></trkpt><trkpt lat="44.819973042125326" lon="7.8374827452753735"><ele>300.0</ele><time>2026-04-10T10:31:31.999Z</time></trkpt><trkpt lat="44.820038722550386" lon="7.837451436122273"><ele>300.0</ele><time>2026-04-10T10:31:32.999Z</time></trkpt><trkpt lat="44.820102978791546" lon="7.837419801321162"><ele>300.0</ele><time>2026-04-10T10:31:33.999Z</time></trkpt><trkpt lat="44.820166689301814" lon="7.837388435184285"><ele>300.0</ele><time>2026-04-10T10:31:34.999Z</time></trkpt><trkpt lat="44.82029482363783" lon="7.837325351746105"><ele>300.0</ele><time>2026-04-10T10:31:36.999Z</time></trkpt><trkpt lat="44.8203643843725" lon="7.837291105403623"><ele>300.0</ele><time>2026-04-10T10:31:37.999Z</time></trkpt><trkpt lat="44.8204324973492" lon="7.837257571851756"><ele>299.85714285714283</ele><time>2026-04-10T10:31:38.999Z</time></trkpt><trkpt lat="44.82049884948361" lon="7.837224905180223"><ele>299.7142857142857</ele><time>2026-04-10T10:31:39.999Z</time></trkpt><trkpt lat="44.82056420155181" lon="7.837192730871969"><ele>299.57142857142856</ele><time>2026-04-10T10:31:40.999Z</time></trkpt><trkpt lat="44.820631122565004" lon="7.837159784144436"><ele>299.42857142857144</ele><time>2026-04-10T10:31:41.999Z</time></trkpt><trkpt lat="44.820695212257654" lon="7.8371282313215005"><ele>299.2857142857143</ele><time>2026-04-10T10:31:42.999Z</time></trkpt><trkpt lat="44.82076052074677" lon="7.837096275529586"><ele>299.1428571428571</ele><time>2026-04-10T10:31:43.999Z</time></trkpt><trkpt lat="44.820825828165226" lon="7.837064987945917"><ele>299.0</ele><time>2026-04-10T10:31:44.999Z</time></trkpt><trkpt lat="44.82089184164337" lon="7.837033362103272"><ele>299.0</ele><time>2026-04-10T10:31:45.999Z</time></trkpt><trkpt lat="44.82101900877651" lon="7.836974075824318"><ele>299.0</ele><time>2026-04-10T10:31:47.999Z</time></trkpt><trkpt lat="44.821081153714076" lon="7.83692222006743"><ele>299.0</ele><time>2026-04-10T10:31:48.999Z</time></trkpt><trkpt lat="44.82115186194913" lon="7.836916394188045"><ele>299.0</ele><time>2026-04-10T10:31:49.999Z</time></trkpt><trkpt lat="44.82121514650629" lon="7.836889485413766"><ele>299.0</ele><time>2026-04-10T10:31:50.999Z</time></trkpt><trkpt lat="44.82128155600695" lon="7.836861247905839"><ele>299.0</ele><time>2026-04-10T10:31:51.999Z</time></trkpt><trkpt lat="44.821347388261685" lon="7.836834021596756"><ele>299.0</ele><time>2026-04-10T10:31:52.999Z</time></trkpt><trkpt lat="44.821413309414055" lon="7.836807494772776"><ele>299.0</ele><time>2026-04-10T10:31:53.999Z</time></trkpt><trkpt lat="44.82147863256975" lon="7.836783176361458"><ele>299.0</ele><time>2026-04-10T10:31:54.999Z</time></trkpt><trkpt lat="44.821548711398286" lon="7.836757091204539"><ele>299.0</ele><time>2026-04-10T10:31:55.999Z</time></trkpt><trkpt lat="44.82161948000862" lon="7.836730749332606"><ele>299.0</ele><time>2026-04-10T10:31:56.999Z</time></trkpt><trkpt lat="44.82168967673811" lon="7.836704620290916"><ele>299.0</ele><time>2026-04-10T10:31:57.999Z</time></trkpt><trkpt lat="44.82176007453884" lon="7.836678416423815"><ele>299.0</ele><time>2026-04-10T10:31:59Z</time></trkpt><trkpt lat="44.82182717594172" lon="7.836653439538948"><ele>298.83333333333337</ele><time>2026-04-10T10:32:00Z</time></trkpt><trkpt lat="44.82189753573712" lon="7.836627249831827"><ele>298.6666666666667</ele><time>2026-04-10T10:32:01Z</time></trkpt><trkpt lat="44.82197104164135" lon="7.836599889038741"><ele>298.5</ele><time>2026-04-10T10:32:02Z</time></trkpt><trkpt lat="44.82204483005805" lon="7.836572404235831"><ele>298.3333333333333</ele><time>2026-04-10T10:32:03Z</time></trkpt><trkpt lat="44.8221129072888" lon="7.836544927299273"><ele>298.16666666666663</ele><time>2026-04-10T10:32:04Z</time></trkpt><trkpt lat="44.82218359491616" lon="7.836516396750945"><ele>298.0</ele><time>2026-04-10T10:32:05Z</time></trkpt><trkpt lat="44.82226638468935" lon="7.836481237512562"><ele>298.0</ele><time>2026-04-10T10:32:06Z</time></trkpt><trkpt lat="44.82233273360038" lon="7.836451502864613"><ele>298.0</ele><time>2026-04-10T10:32:07Z</time></trkpt><trkpt lat="44.822405273656166" lon="7.8364175716354785"><ele>298.0</ele><time>2026-04-10T10:32:08Z</time></trkpt><trkpt lat="44.82247565702198" lon="7.83638307674851"><ele>298.0</ele><time>2026-04-10T10:32:09Z</time></trkpt><trkpt lat="44.822544336255866" lon="7.836349417055582"><ele>298.0</ele><time>2026-04-10T10:32:10Z</time></trkpt><trkpt lat="44.822613241990695" lon="7.836315646354831"><ele>298.0</ele><time>2026-04-10T10:32:11Z</time></trkpt><trkpt lat="44.82268382496993" lon="7.836281053639173"><ele>298.0</ele><time>2026-04-10T10:32:12Z</time></trkpt><trkpt lat="44.82274584289353" lon="7.836250658644684"><ele>297.0</ele><time>2026-04-10T10:32:13Z</time></trkpt><trkpt lat="44.82286195250721" lon="7.8361937533335295"><ele>296.0</ele><time>2026-04-10T10:32:15Z</time></trkpt><trkpt lat="44.82292258876691" lon="7.836165868458723"><ele>295.0</ele><time>2026-04-10T10:32:16Z</time></trkpt><trkpt lat="44.823030315968296" lon="7.836118723536628"><ele>294.0</ele><time>2026-04-10T10:32:18Z</time></trkpt><trkpt lat="44.82314646883278" lon="7.836071270226281"><ele>293.0</ele><time>2026-04-10T10:32:20Z</time></trkpt><trkpt lat="44.82326129887373" lon="7.836026956697927"><ele>293.0</ele><time>2026-04-10T10:32:22Z</time></trkpt><trkpt lat="44.82338337967189" lon="7.835983513454171"><ele>293.0</ele><time>2026-04-10T10:32:24Z</time></trkpt><trkpt lat="44.82344914681868" lon="7.835960108763647"><ele>293.0</ele><time>2026-04-10T10:32:25Z</time></trkpt><trkpt lat="44.8235160138807" lon="7.835936312750363"><ele>293.0</ele><time>2026-04-10T10:32:26Z</time></trkpt><trkpt lat="44.82358540287474" lon="7.835913068723858"><ele>293.0</ele><time>2026-04-10T10:32:27Z</time></trkpt><trkpt lat="44.82365818486446" lon="7.835893145919388"><ele>293.0</ele><time>2026-04-10T10:32:28Z</time></trkpt><trkpt lat="44.823724291019786" lon="7.835875571019403"><ele>293.1666666666667</ele><time>2026-04-10T10:32:29Z</time></trkpt><trkpt lat="44.82378756180346" lon="7.835845934861758"><ele>293.33333333333337</ele><time>2026-04-10T10:32:30Z</time></trkpt><trkpt lat="44.823845992037235" lon="7.835782748702802"><ele>293.5</ele><time>2026-04-10T10:32:31Z</time></trkpt><trkpt lat="44.82388427386175" lon="7.835688007439067"><ele>293.6666666666667</ele><time>2026-04-10T10:32:32Z</time></trkpt><trkpt lat="44.82387218303557" lon="7.835560619026585"><ele>293.8333333333333</ele><time>2026-04-10T10:32:33Z</time></trkpt><trkpt lat="44.82381809529121" lon="7.835463998391148"><ele>294.0</ele><time>2026-04-10T10:32:34Z</time></trkpt><trkpt lat="44.82377458213056" lon="7.835381987745479"><ele>294.0</ele><time>2026-04-10T10:32:35Z</time></trkpt><trkpt lat="44.82374700335467" lon="7.8352933902094035"><ele>294.0</ele><time>2026-04-10T10:32:36Z</time></trkpt><trkpt lat="44.82369390272722" lon="7.835137940591381"><ele>294.0</ele><time>2026-04-10T10:32:38Z</time></trkpt><trkpt lat="44.82370901728986" lon="7.834971075134809"><ele>294.0</ele><time>2026-04-10T10:32:40Z</time></trkpt><trkpt lat="44.823748263486664" lon="7.8348875319193265"><ele>294.0</ele><time>2026-04-10T10:32:41Z</time></trkpt><trkpt lat="44.82380078466973" lon="7.834816997918983"><ele>293.6666666666667</ele><time>2026-04-10T10:32:42Z</time></trkpt><trkpt lat="44.82384291621592" lon="7.834727447834835"><ele>293.3333333333333</ele><time>2026-04-10T10:32:43Z</time></trkpt><trkpt lat="44.82389715976293" lon="7.834654016144765"><ele>293.0</ele><time>2026-04-10T10:32:44Z</time></trkpt><trkpt lat="44.823965128990544" lon="7.8345946680909595"><ele>292.66666666666663</ele><time>2026-04-10T10:32:45Z</time></trkpt><trkpt lat="44.82400745706659" lon="7.834501738945033"><ele>292.3333333333333</ele><time>2026-04-10T10:32:46Z</time></trkpt><trkpt lat="44.82406292596976" lon="7.834424954406779"><ele>292.0</ele><time>2026-04-10T10:32:47Z</time></trkpt><trkpt lat="44.824113838156904" lon="7.834344886227202"><ele>291.66666666666663</ele><time>2026-04-10T10:32:48Z</time></trkpt><trkpt lat="44.82417784584437" lon="7.834270851499259"><ele>291.3333333333333</ele><time>2026-04-10T10:32:49Z</time></trkpt><trkpt lat="44.8242136780974" lon="7.834172853445233"><ele>291.0</ele><time>2026-04-10T10:32:50Z</time></trkpt><trkpt lat="44.824265146209015" lon="7.834096014375146"><ele>290.6666666666667</ele><time>2026-04-10T10:32:51Z</time></trkpt><trkpt lat="44.824315710169586" lon="7.834002718766007"><ele>290.33333333333337</ele><time>2026-04-10T10:32:52Z</time></trkpt><trkpt lat="44.8243743656576" lon="7.833923804150339"><ele>290.0</ele><time>2026-04-10T10:32:53Z</time></trkpt><trkpt lat="44.82441997642235" lon="7.83383670461794"><ele>290.33333333333337</ele><time>2026-04-10T10:32:54Z</time></trkpt><trkpt lat="44.82446384124378" lon="7.833751706460221"><ele>290.6666666666667</ele><time>2026-04-10T10:32:55Z</time></trkpt><trkpt lat="44.824491214992506" lon="7.8336579143578335"><ele>291.0</ele><time>2026-04-10T10:32:56Z</time></trkpt><trkpt lat="44.8245510299171" lon="7.833600651264595"><ele>291.3333333333333</ele><time>2026-04-10T10:32:57Z</time></trkpt><trkpt lat="44.8246342416454" lon="7.83349281006738"><ele>291.66666666666663</ele><time>2026-04-10T10:32:59Z</time></trkpt><trkpt lat="44.82473907339617" lon="7.833420366873408"><ele>292.0</ele><time>2026-04-10T10:33:01Z</time></trkpt><trkpt lat="44.824838210593995" lon="7.833327900610306"><ele>292.0</ele><time>2026-04-10T10:33:03Z</time></trkpt><trkpt lat="44.82493591450856" lon="7.833224841396856"><ele>292.0</ele><time>2026-04-10T10:33:05Z</time></trkpt><trkpt lat="44.82502844736341" lon="7.83312058460912"><ele>292.0</ele><time>2026-04-10T10:33:07Z</time></trkpt><trkpt lat="44.82507934627567" lon="7.833063236814817"><ele>292.0</ele><time>2026-04-10T10:33:08Z</time></trkpt><trkpt lat="44.82516421655084" lon="7.832944186748764"><ele>292.0</ele><time>2026-04-10T10:33:10Z</time></trkpt><trkpt lat="44.82525696022242" lon="7.83285121006549"><ele>291.8333333333333</ele><time>2026-04-10T10:33:12Z</time></trkpt><trkpt lat="44.82530684240123" lon="7.832793526026975"><ele>291.66666666666663</ele><time>2026-04-10T10:33:13Z</time></trkpt><trkpt lat="44.82539505517521" lon="7.832685909966116"><ele>291.5</ele><time>2026-04-10T10:33:15Z</time></trkpt><trkpt lat="44.82542284609714" lon="7.832602924559241"><ele>291.3333333333333</ele><time>2026-04-10T10:33:16Z</time></trkpt><trkpt lat="44.82541602659789" lon="7.832500091069927"><ele>291.1666666666667</ele><time>2026-04-10T10:33:17Z</time></trkpt><trkpt lat="44.82538997898282" lon="7.832404654939373"><ele>291.0</ele><time>2026-04-10T10:33:18Z</time></trkpt><trkpt lat="44.82532367102364" lon="7.832342485533195"><ele>290.40000000000003</ele><time>2026-04-10T10:33:19Z</time></trkpt><trkpt lat="44.825277351905235" lon="7.83227586301756"><ele>289.8</ele><time>2026-04-10T10:33:20Z</time></trkpt><trkpt lat="44.82519697355151" lon="7.832175508828132"><ele>289.20000000000005</ele><time>2026-04-10T10:33:22Z</time></trkpt><trkpt lat="44.82515238274021" lon="7.8320318402992255"><ele>288.6</ele><time>2026-04-10T10:33:24Z</time></trkpt><trkpt lat="44.82516771213274" lon="7.8318704685644205"><ele>288.0</ele><time>2026-04-10T10:33:26Z</time></trkpt><trkpt lat="44.82521433430734" lon="7.831808357818638"><ele>288.14285714285717</ele><time>2026-04-10T10:33:27Z</time></trkpt><trkpt lat="44.825234327521024" lon="7.831720635357847"><ele>288.2857142857143</ele><time>2026-04-10T10:33:28Z</time></trkpt><trkpt lat="44.825274475376965" lon="7.831640973422743"><ele>288.42857142857144</ele><time>2026-04-10T10:33:29Z</time></trkpt><trkpt lat="44.82530914825035" lon="7.831565532690164"><ele>288.57142857142856</ele><time>2026-04-10T10:33:30Z</time></trkpt><trkpt lat="44.8253636517923" lon="7.831496932781543"><ele>288.7142857142857</ele><time>2026-04-10T10:33:31Z</time></trkpt><trkpt lat="44.82538870036373" lon="7.831401999886948"><ele>288.8571428571429</ele><time>2026-04-10T10:33:32Z</time></trkpt><trkpt lat="44.82542004192676" lon="7.831312298136842"><ele>289.0</ele><time>2026-04-10T10:33:33Z</time></trkpt><trkpt lat="44.82544430331297" lon="7.831220712824996"><ele>289.0</ele><time>2026-04-10T10:33:34Z</time></trkpt><trkpt lat="44.825474073895826" lon="7.831132074685945"><ele>289.0</ele><time>2026-04-10T10:33:35Z</time></trkpt><trkpt lat="44.82550321738708" lon="7.831049771329859"><ele>289.0</ele><time>2026-04-10T10:33:36Z</time></trkpt><trkpt lat="44.82553561778616" lon="7.83097056895928"><ele>289.0</ele><time>2026-04-10T10:33:37Z</time></trkpt><trkpt lat="44.825589567957024" lon="7.830911064560565"><ele>289.0</ele><time>2026-04-10T10:33:38Z</time></trkpt><trkpt lat="44.825638505852545" lon="7.830848604110526"><ele>289.0</ele><time>2026-04-10T10:33:39Z</time></trkpt><trkpt lat="44.82567142969211" lon="7.830768384818234"><ele>289.0</ele><time>2026-04-10T10:33:40Z</time></trkpt><trkpt lat="44.825715849922496" lon="7.830703633334417"><ele>289.0</ele><time>2026-04-10T10:33:41Z</time></trkpt><trkpt lat="44.825762744217435" lon="7.830635899877413"><ele>289.0</ele><time>2026-04-10T10:33:42Z</time></trkpt><trkpt lat="44.825847608366956" lon="7.830502391596428"><ele>289.0</ele><time>2026-04-10T10:33:43.999Z</time></trkpt><trkpt lat="44.82589761458487" lon="7.830439009624957"><ele>289.0</ele><time>2026-04-10T10:33:44.999Z</time></trkpt><trkpt lat="44.82595187617466" lon="7.83037713662777"><ele>289.0</ele><time>2026-04-10T10:33:45.999Z</time></trkpt><trkpt lat="44.82601562128205" lon="7.8303298938922"><ele>289.0</ele><time>2026-04-10T10:33:46.999Z</time></trkpt><trkpt lat="44.826069289818946" lon="7.830268613224319"><ele>288.57142857142856</ele><time>2026-04-10T10:33:47.999Z</time></trkpt><trkpt lat="44.826122345775936" lon="7.830203190641224"><ele>288.1428571428571</ele><time>2026-04-10T10:33:48.999Z</time></trkpt><trkpt lat="44.82617619084893" lon="7.830129327254078"><ele>287.71428571428567</ele><time>2026-04-10T10:33:49.999Z</time></trkpt><trkpt lat="44.82622246671373" lon="7.8300553611658605"><ele>287.2857142857143</ele><time>2026-04-10T10:33:50.999Z</time></trkpt><trkpt lat="44.8262632372305" lon="7.829971354092743"><ele>286.85714285714283</ele><time>2026-04-10T10:33:51.999Z</time></trkpt><trkpt lat="44.82627743057813" lon="7.829870203792229"><ele>286.4285714285714</ele><time>2026-04-10T10:33:52.999Z</time></trkpt><trkpt lat="44.82629853770692" lon="7.829777710426933"><ele>286.0</ele><time>2026-04-10T10:33:53.999Z</time></trkpt><trkpt lat="44.826308744316066" lon="7.829687218312998"><ele>285.99999999999994</ele><time>2026-04-10T10:33:54.999Z</time></trkpt><trkpt lat="44.826315922472745" lon="7.829597705250105"><ele>286.0</ele><time>2026-04-10T10:33:55.999Z</time></trkpt><trkpt lat="44.82633839223176" lon="7.829498280796535"><ele>286.0</ele><time>2026-04-10T10:33:56.999Z</time></trkpt><trkpt lat="44.82634612879747" lon="7.8294031855609445"><ele>286.0</ele><time>2026-04-10T10:33:57.999Z</time></trkpt><trkpt lat="44.82635126280354" lon="7.829303873242757"><ele>286.0</ele><time>2026-04-10T10:33:58.999Z</time></trkpt><trkpt lat="44.826352646661796" lon="7.829199822734596"><ele>285.99999999999994</ele><time>2026-04-10T10:33:59.999Z</time></trkpt><trkpt lat="44.82633599249399" lon="7.829104675144801"><ele>286.0</ele><time>2026-04-10T10:34:00.999Z</time></trkpt><trkpt lat="44.82633826707409" lon="7.829003618292149"><ele>286.5</ele><time>2026-04-10T10:34:01.999Z</time></trkpt><trkpt lat="44.826344989030396" lon="7.8289096584523366"><ele>287.0</ele><time>2026-04-10T10:34:02.999Z</time></trkpt><trkpt lat="44.82634613616268" lon="7.828819734258226"><ele>287.5</ele><time>2026-04-10T10:34:03.999Z</time></trkpt><trkpt lat="44.826334961046555" lon="7.82872314443739"><ele>288.0</ele><time>2026-04-10T10:34:04.999Z</time></trkpt><trkpt lat="44.8263666924712" lon="7.828634688153892"><ele>288.5</ele><time>2026-04-10T10:34:05.999Z</time></trkpt><trkpt lat="44.82636663185711" lon="7.82846888282242"><ele>289.0</ele><time>2026-04-10T10:34:07.999Z</time></trkpt><trkpt lat="44.82638073797151" lon="7.828352128816131"><ele>289.16666666666663</ele><time>2026-04-10T10:34:09.999Z</time></trkpt><trkpt lat="44.8263510676695" lon="7.828245626372869"><ele>289.3333333333333</ele><time>2026-04-10T10:34:11.999Z</time></trkpt><trkpt lat="44.82640738315376" lon="7.828167019114018"><ele>289.5</ele><time>2026-04-10T10:34:12.999Z</time></trkpt><trkpt lat="44.826406424726166" lon="7.828054446037056"><ele>289.6666666666667</ele><time>2026-04-10T10:34:14.999Z</time></trkpt><trkpt lat="44.82648121690311" lon="7.828009780868484"><ele>289.83333333333337</ele><time>2026-04-10T10:34:17.999Z</time></trkpt><trkpt lat="44.82655792948488" lon="7.828068901135194"><ele>290.0</ele><time>2026-04-10T10:34:20.999Z</time></trkpt><trkpt lat="44.82661610766724" lon="7.828122130444023"><ele>290.0</ele><time>2026-04-10T10:34:22.999Z</time></trkpt><trkpt lat="44.82668464851742" lon="7.828182458529808"><ele>290.0</ele><time>2026-04-10T10:34:24.999Z</time></trkpt><trkpt lat="44.82676458997386" lon="7.8282377913043515"><ele>290.0</ele><time>2026-04-10T10:34:26.999Z</time></trkpt><trkpt lat="44.82683324395802" lon="7.828296544666253"><ele>290.0</ele><time>2026-04-10T10:34:28.999Z</time></trkpt><trkpt lat="44.82689857500015" lon="7.8283367939730315"><ele>290.0</ele><time>2026-04-10T10:34:36.999Z</time></trkpt><trkpt lat="44.826973624059725" lon="7.828381526921243"><ele>290.0</ele><time>2026-04-10T10:34:39.999Z</time></trkpt><trkpt lat="44.827052282732474" lon="7.828449074165"><ele>289.33333333333337</ele><time>2026-04-10T10:34:42.999Z</time></trkpt><trkpt lat="44.82711754608859" lon="7.828505788752675"><ele>288.6666666666667</ele><time>2026-04-10T10:34:44.999Z</time></trkpt><trkpt lat="44.82718518431408" lon="7.82855955945934"><ele>288.0</ele><time>2026-04-10T10:34:46.999Z</time></trkpt><trkpt lat="44.82726210478699" lon="7.828615818565137"><ele>287.3333333333333</ele><time>2026-04-10T10:34:48.999Z</time></trkpt><trkpt lat="44.82734263269627" lon="7.828684060459866"><ele>286.66666666666663</ele><time>2026-04-10T10:34:50.999Z</time></trkpt><trkpt lat="44.827431336065274" lon="7.828753876419328"><ele>286.0</ele><time>2026-04-10T10:34:52.999Z</time></trkpt><trkpt lat="44.82752110054428" lon="7.82882165294956"><ele>286.0</ele><time>2026-04-10T10:34:54.999Z</time></trkpt><trkpt lat="44.82761392141737" lon="7.828892357952142"><ele>286.0</ele><time>2026-04-10T10:34:56.999Z</time></trkpt><trkpt lat="44.82769973806467" lon="7.828966072659318"><ele>286.0</ele><time>2026-04-10T10:34:58.999Z</time></trkpt><trkpt lat="44.827790048509435" lon="7.829035978579537"><ele>286.0</ele><time>2026-04-10T10:35:00.999Z</time></trkpt><trkpt lat="44.82788136523692" lon="7.8291025823747775"><ele>286.0</ele><time>2026-04-10T10:35:02.999Z</time></trkpt><trkpt lat="44.82797443452154" lon="7.829164551068588"><ele>285.8</ele><time>2026-04-10T10:35:04.999Z</time></trkpt><trkpt lat="44.82806165250819" lon="7.829224055345159"><ele>285.6</ele><time>2026-04-10T10:35:06.999Z</time></trkpt><trkpt lat="44.828165414237084" lon="7.829297758114206"><ele>285.4</ele><time>2026-04-10T10:35:09.999Z</time></trkpt><trkpt lat="44.82823084687505" lon="7.8293362536474005"><ele>285.2</ele><time>2026-04-10T10:35:11.999Z</time></trkpt><trkpt lat="44.82834647470578" lon="7.829458784865705"><ele>285.0</ele><time>2026-04-10T10:35:12.999Z</time></trkpt><trkpt lat="44.82843935100876" lon="7.8295258047638026"><ele>285.0</ele><time>2026-04-10T10:35:14.999Z</time></trkpt><trkpt lat="44.82852983776695" lon="7.82959394968489"><ele>285.0</ele><time>2026-04-10T10:35:16.999Z</time></trkpt><trkpt lat="44.82861731992607" lon="7.829667923347883"><ele>285.0</ele><time>2026-04-10T10:35:18.999Z</time></trkpt><trkpt lat="44.82870965043119" lon="7.82972974732114"><ele>285.0</ele><time>2026-04-10T10:35:20.999Z</time></trkpt><trkpt lat="44.82880128017259" lon="7.829816006281534"><ele>285.0</ele><time>2026-04-10T10:35:22.999Z</time></trkpt><trkpt lat="44.82886231398259" lon="7.829890293987149"><ele>285.0</ele><time>2026-04-10T10:35:24.999Z</time></trkpt><trkpt lat="44.82893869648876" lon="7.829949066933808"><ele>285.0</ele><time>2026-04-10T10:35:26.999Z</time></trkpt><trkpt lat="44.82899573005704" lon="7.8300381240058865"><ele>285.0</ele><time>2026-04-10T10:35:28.999Z</time></trkpt><trkpt lat="44.8290560186342" lon="7.830091220697411"><ele>285.0</ele><time>2026-04-10T10:35:29.999Z</time></trkpt><trkpt lat="44.829119184946165" lon="7.830197359365016"><ele>285.0</ele><time>2026-04-10T10:35:33.999Z</time></trkpt><trkpt lat="44.82921184070517" lon="7.830189429948716"><ele>285.0</ele><time>2026-04-10T10:35:36.999Z</time></trkpt><trkpt lat="44.82926038066648" lon="7.830102040953519"><ele>285.0</ele><time>2026-04-10T10:35:38.999Z</time></trkpt><trkpt lat="44.82930427786124" lon="7.830003275864856"><ele>285.0</ele><time>2026-04-10T10:35:40.999Z</time></trkpt><trkpt lat="44.829343475522705" lon="7.829901586757069"><ele>285.0</ele><time>2026-04-10T10:35:42.999Z</time></trkpt><trkpt lat="44.82939561003435" lon="7.829802958737442"><ele>285.0</ele><time>2026-04-10T10:35:44.999Z</time></trkpt><trkpt lat="44.82944472807533" lon="7.82970099787461"><ele>285.0</ele><time>2026-04-10T10:35:46.999Z</time></trkpt><trkpt lat="44.82950104769451" lon="7.829604519733456"><ele>285.0</ele><time>2026-04-10T10:35:48.999Z</time></trkpt><trkpt lat="44.82954922059835" lon="7.8295032904673"><ele>284.8333333333333</ele><time>2026-04-10T10:35:50.999Z</time></trkpt><trkpt lat="44.82960531674465" lon="7.82941726483597"><ele>284.6666666666667</ele><time>2026-04-10T10:35:52.999Z</time></trkpt><trkpt lat="44.829655753054254" lon="7.829325359328416"><ele>284.5</ele><time>2026-04-10T10:35:54.999Z</time></trkpt><trkpt lat="44.829699319181884" lon="7.829231549072469"><ele>284.33333333333337</ele><time>2026-04-10T10:35:57.999Z</time></trkpt><trkpt lat="44.829758356751825" lon="7.829136616249657"><ele>284.1666666666667</ele><time>2026-04-10T10:36:00.999Z</time></trkpt><trkpt lat="44.82980100615157" lon="7.829033951681699"><ele>284.0</ele><time>2026-04-10T10:36:02.999Z</time></trkpt><trkpt lat="44.829847341893014" lon="7.82895021399508"><ele>284.0</ele><time>2026-04-10T10:36:04.999Z</time></trkpt><trkpt lat="44.82989407450726" lon="7.828864687074109"><ele>284.0</ele><time>2026-04-10T10:36:05.999Z</time></trkpt><trkpt lat="44.82995676207247" lon="7.828756343017087"><ele>284.0</ele><time>2026-04-10T10:36:07.999Z</time></trkpt><trkpt lat="44.83001364835426" lon="7.828645451033072"><ele>284.0</ele><time>2026-04-10T10:36:09.999Z</time></trkpt><trkpt lat="44.83007752948332" lon="7.828535384664642"><ele>284.0</ele><time>2026-04-10T10:36:12Z</time></trkpt><trkpt lat="44.83013780232538" lon="7.828420402866793"><ele>284.0</ele><time>2026-04-10T10:36:14Z</time></trkpt><trkpt lat="44.83018854478615" lon="7.828311330268923"><ele>284.0</ele><time>2026-04-10T10:36:16Z</time></trkpt><trkpt lat="44.83024579967445" lon="7.828205321663242"><ele>284.0</ele><time>2026-04-10T10:36:18Z</time></trkpt><trkpt lat="44.83029036357154" lon="7.828086540558756"><ele>284.0</ele><time>2026-04-10T10:36:20Z</time></trkpt><trkpt lat="44.830320628409154" lon="7.827977169755311"><ele>284.0</ele><time>2026-04-10T10:36:22Z</time></trkpt><trkpt lat="44.830363130937684" lon="7.827859770558377"><ele>284.0</ele><time>2026-04-10T10:36:24Z</time></trkpt><trkpt lat="44.83042025284601" lon="7.827746213323092"><ele>284.0</ele><time>2026-04-10T10:36:26Z</time></trkpt><trkpt lat="44.830471072046976" lon="7.82763408610821"><ele>284.0</ele><time>2026-04-10T10:36:28Z</time></trkpt><trkpt lat="44.830528640356256" lon="7.827531080407452"><ele>284.0</ele><time>2026-04-10T10:36:30Z</time></trkpt><trkpt lat="44.83059128578887" lon="7.827453687660694"><ele>284.0</ele><time>2026-04-10T10:36:33Z</time></trkpt><trkpt lat="44.830659460596245" lon="7.8273801077300025"><ele>283.33333333333337</ele><time>2026-04-10T10:36:34Z</time></trkpt><trkpt lat="44.83074813777493" lon="7.827378363186816"><ele>282.6666666666667</ele><time>2026-04-10T10:36:36Z</time></trkpt><trkpt lat="44.83084063709732" lon="7.827419529007762"><ele>282.0</ele><time>2026-04-10T10:36:38Z</time></trkpt><trkpt lat="44.830937273456975" lon="7.827391052744157"><ele>281.3333333333333</ele><time>2026-04-10T10:36:40Z</time></trkpt><trkpt lat="44.830993337254746" lon="7.8273147861547745"><ele>280.66666666666663</ele><time>2026-04-10T10:36:42Z</time></trkpt><trkpt lat="44.83103834158267" lon="7.827225332012773"><ele>280.0</ele><time>2026-04-10T10:36:44Z</time></trkpt><trkpt lat="44.8310656219386" lon="7.827112779301843"><ele>279.8333333333333</ele><time>2026-04-10T10:36:46Z</time></trkpt><trkpt lat="44.831087396313166" lon="7.827002649301612"><ele>279.66666666666663</ele><time>2026-04-10T10:36:48Z</time></trkpt><trkpt lat="44.8311173942486" lon="7.826898552295377"><ele>279.5</ele><time>2026-04-10T10:36:50Z</time></trkpt><trkpt lat="44.83113512869133" lon="7.8267933724985115"><ele>279.3333333333333</ele><time>2026-04-10T10:36:52Z</time></trkpt><trkpt lat="44.83114300151237" lon="7.8266773510633865"><ele>279.1666666666667</ele><time>2026-04-10T10:36:54Z</time></trkpt><trkpt lat="44.831145661450606" lon="7.826565604331039"><ele>279.0</ele><time>2026-04-10T10:36:56Z</time></trkpt><trkpt lat="44.83114742206728" lon="7.826452662494867"><ele>279.3333333333333</ele><time>2026-04-10T10:36:58Z</time></trkpt><trkpt lat="44.83115321026351" lon="7.82633534373809"><ele>279.6666666666667</ele><time>2026-04-10T10:37:00Z</time></trkpt><trkpt lat="44.83114856035241" lon="7.826221604586663"><ele>280.0</ele><time>2026-04-10T10:37:02Z</time></trkpt><trkpt lat="44.83115194571343" lon="7.826112642270845"><ele>280.33333333333337</ele><time>2026-04-10T10:37:04Z</time></trkpt><trkpt lat="44.83114621718179" lon="7.826006849266782"><ele>280.6666666666667</ele><time>2026-04-10T10:37:06Z</time></trkpt><trkpt lat="44.83114314744512" lon="7.825906436502053"><ele>281.0</ele><time>2026-04-10T10:37:08Z</time></trkpt><trkpt lat="44.8311381896546" lon="7.825798843835755"><ele>281.28571428571433</ele><time>2026-04-10T10:37:10Z</time></trkpt><trkpt lat="44.83113812225274" lon="7.8256968101287825"><ele>281.57142857142856</ele><time>2026-04-10T10:37:12Z</time></trkpt><trkpt lat="44.83113428425008" lon="7.825598042346082"><ele>281.8571428571429</ele><time>2026-04-10T10:37:14Z</time></trkpt><trkpt lat="44.831129767011895" lon="7.8254971111286915"><ele>282.14285714285717</ele><time>2026-04-10T10:37:16Z</time></trkpt><trkpt lat="44.83112974353871" lon="7.825395951372426"><ele>282.42857142857144</ele><time>2026-04-10T10:37:19Z</time></trkpt><trkpt lat="44.83114446890959" lon="7.825269725088978"><ele>282.7142857142857</ele><time>2026-04-10T10:37:21Z</time></trkpt><trkpt lat="44.83116652015242" lon="7.825176944156851"><ele>283.0</ele><time>2026-04-10T10:37:23Z</time></trkpt><trkpt lat="44.8311928881224" lon="7.825089151038161"><ele>283.16666666666663</ele><time>2026-04-10T10:37:25Z</time></trkpt><trkpt lat="44.83121472512142" lon="7.8249973570308"><ele>283.3333333333333</ele><time>2026-04-10T10:37:27Z</time></trkpt><trkpt lat="44.83125808935879" lon="7.824906197696849"><ele>283.5</ele><time>2026-04-10T10:37:29Z</time></trkpt><trkpt lat="44.831297462384434" lon="7.824799870768716"><ele>283.6666666666667</ele><time>2026-04-10T10:37:31Z</time></trkpt><trkpt lat="44.83132447643667" lon="7.824705384999094"><ele>283.83333333333337</ele><time>2026-04-10T10:37:33Z</time></trkpt><trkpt lat="44.83135112860781" lon="7.8246142876246605"><ele>284.0</ele><time>2026-04-10T10:37:35Z</time></trkpt><trkpt lat="44.83138065551979" lon="7.824508129439986"><ele>284.0</ele><time>2026-04-10T10:37:37Z</time></trkpt><trkpt lat="44.83141489717554" lon="7.82439192509886"><ele>284.0</ele><time>2026-04-10T10:37:39Z</time></trkpt><trkpt lat="44.831506782216834" lon="7.824143020829879"><ele>284.0</ele><time>2026-04-10T10:37:42Z</time></trkpt><trkpt lat="44.831557871255264" lon="7.824024723066984"><ele>284.0</ele><time>2026-04-10T10:37:44Z</time></trkpt><trkpt lat="44.83159815551045" lon="7.823899470042474"><ele>283.8</ele><time>2026-04-10T10:37:46Z</time></trkpt><trkpt lat="44.83164118006607" lon="7.823769815960681"><ele>283.59999999999997</ele><time>2026-04-10T10:37:48Z</time></trkpt><trkpt lat="44.83167316150234" lon="7.823648374043285"><ele>283.4</ele><time>2026-04-10T10:37:50Z</time></trkpt><trkpt lat="44.83168551696816" lon="7.823526664665858"><ele>283.2</ele><time>2026-04-10T10:37:52Z</time></trkpt><trkpt lat="44.83167458648202" lon="7.823389325823539"><ele>283.0</ele><time>2026-04-10T10:37:54Z</time></trkpt><trkpt lat="44.83164942402455" lon="7.823283282284054"><ele>283.0</ele><time>2026-04-10T10:37:56Z</time></trkpt><trkpt lat="44.831600990936074" lon="7.823177781532867"><ele>283.0</ele><time>2026-04-10T10:37:58Z</time></trkpt><trkpt lat="44.83157366644041" lon="7.82305668638503"><ele>283.0</ele><time>2026-04-10T10:38:00Z</time></trkpt><trkpt lat="44.831552446625004" lon="7.8229161439064825"><ele>283.0</ele><time>2026-04-10T10:38:02Z</time></trkpt><trkpt lat="44.83159031114923" lon="7.822775047951565"><ele>283.0</ele><time>2026-04-10T10:38:04Z</time></trkpt><trkpt lat="44.83164969591899" lon="7.8226578160404765"><ele>283.4</ele><time>2026-04-10T10:38:06Z</time></trkpt><trkpt lat="44.83170251674335" lon="7.8225277062906775"><ele>283.8</ele><time>2026-04-10T10:38:07.999Z</time></trkpt><trkpt lat="44.831760539462074" lon="7.822405323867771"><ele>284.2</ele><time>2026-04-10T10:38:09.999Z</time></trkpt><trkpt lat="44.8318174383913" lon="7.822280038578058"><ele>284.6</ele><time>2026-04-10T10:38:11.999Z</time></trkpt><trkpt lat="44.83187144202447" lon="7.822144353063223"><ele>285.0</ele><time>2026-04-10T10:38:13.999Z</time></trkpt><trkpt lat="44.83192546299242" lon="7.822013761953729"><ele>284.2</ele><time>2026-04-10T10:38:15.999Z</time></trkpt><trkpt lat="44.831983900294475" lon="7.821878187373373"><ele>283.4</ele><time>2026-04-10T10:38:18Z</time></trkpt><trkpt lat="44.83203699332485" lon="7.821752506561916"><ele>282.6</ele><time>2026-04-10T10:38:20Z</time></trkpt><trkpt lat="44.83208730533947" lon="7.821628683543585"><ele>281.8</ele><time>2026-04-10T10:38:22Z</time></trkpt><trkpt lat="44.832137387000714" lon="7.821508957283834"><ele>281.0</ele><time>2026-04-10T10:38:24Z</time></trkpt><trkpt lat="44.83219203006765" lon="7.8213808294112575"><ele>281.0</ele><time>2026-04-10T10:38:26Z</time></trkpt><trkpt lat="44.83223832684603" lon="7.821261721214704"><ele>281.0</ele><time>2026-04-10T10:38:28Z</time></trkpt><trkpt lat="44.83228809532227" lon="7.821150302186261"><ele>281.0</ele><time>2026-04-10T10:38:30Z</time></trkpt><trkpt lat="44.83234794565903" lon="7.821023883546601"><ele>281.0</ele><time>2026-04-10T10:38:32Z</time></trkpt><trkpt lat="44.83240319590824" lon="7.820892106623551"><ele>281.0</ele><time>2026-04-10T10:38:34Z</time></trkpt><trkpt lat="44.83245598903477" lon="7.820755551301867"><ele>280.5</ele><time>2026-04-10T10:38:36Z</time></trkpt><trkpt lat="44.83251300771075" lon="7.8206215648763235"><ele>280.0</ele><time>2026-04-10T10:38:38Z</time></trkpt><trkpt lat="44.83257476161217" lon="7.820493659624371"><ele>279.5</ele><time>2026-04-10T10:38:40Z</time></trkpt><trkpt lat="44.83264663472404" lon="7.820367901672635"><ele>279.0</ele><time>2026-04-10T10:38:42Z</time></trkpt><trkpt lat="44.83273104732013" lon="7.8202562659991"><ele>279.0</ele><time>2026-04-10T10:38:44Z</time></trkpt><trkpt lat="44.83281506174059" lon="7.820152455606782"><ele>279.0</ele><time>2026-04-10T10:38:46Z</time></trkpt><trkpt lat="44.83289820489167" lon="7.820042996331879"><ele>279.0</ele><time>2026-04-10T10:38:48Z</time></trkpt><trkpt lat="44.8329767695668" lon="7.819938311157039"><ele>279.0</ele><time>2026-04-10T10:38:50Z</time></trkpt><trkpt lat="44.83305266420898" lon="7.819823806888407"><ele>279.0</ele><time>2026-04-10T10:38:52Z</time></trkpt><trkpt lat="44.83312865394182" lon="7.819713937055625"><ele>279.0</ele><time>2026-04-10T10:38:54Z</time></trkpt><trkpt lat="44.83320554014639" lon="7.819606278492553"><ele>279.0</ele><time>2026-04-10T10:38:56Z</time></trkpt><trkpt lat="44.8332718033047" lon="7.819501020237497"><ele>279.0</ele><time>2026-04-10T10:38:58Z</time></trkpt><trkpt lat="44.83334301623137" lon="7.819389975996358"><ele>279.0</ele><time>2026-04-10T10:39:00Z</time></trkpt><trkpt lat="44.83340898215825" lon="7.819284750770109"><ele>279.0</ele><time>2026-04-10T10:39:02Z</time></trkpt><trkpt lat="44.83347411014785" lon="7.819183541139313"><ele>279.0</ele><time>2026-04-10T10:39:04Z</time></trkpt><trkpt lat="44.83352855821777" lon="7.819102382664895"><ele>279.0</ele><time>2026-04-10T10:39:06Z</time></trkpt><trkpt lat="44.833589118901344" lon="7.819036202751851"><ele>279.0</ele><time>2026-04-10T10:39:09Z</time></trkpt><trkpt lat="44.833657619852765" lon="7.819111290550826"><ele>279.0</ele><time>2026-04-10T10:39:12Z</time></trkpt><trkpt lat="44.833702753599084" lon="7.819208765060174"><ele>279.0</ele><time>2026-04-10T10:39:14Z</time></trkpt><trkpt lat="44.8337660648739" lon="7.819286808700459"><ele>279.0</ele><time>2026-04-10T10:39:16Z</time></trkpt><trkpt lat="44.8338264602971" lon="7.81937078424188"><ele>278.8</ele><time>2026-04-10T10:39:18Z</time></trkpt><trkpt lat="44.83389009810298" lon="7.81945814178277"><ele>278.59999999999997</ele><time>2026-04-10T10:39:20Z</time></trkpt><trkpt lat="44.83395870260287" lon="7.819540482766472"><ele>278.4</ele><time>2026-04-10T10:39:22Z</time></trkpt><trkpt lat="44.83402106149227" lon="7.8196220582903715"><ele>278.2</ele><time>2026-04-10T10:39:24Z</time></trkpt><trkpt lat="44.834104505327865" lon="7.8196962446426"><ele>278.0</ele><time>2026-04-10T10:39:26Z</time></trkpt><trkpt lat="44.83418553772755" lon="7.819768787785787"><ele>278.0</ele><time>2026-04-10T10:39:28Z</time></trkpt><trkpt lat="44.834239156670165" lon="7.81988609858531"><ele>278.0</ele><time>2026-04-10T10:39:30Z</time></trkpt><trkpt lat="44.8343239683922" lon="7.81997058203202"><ele>278.0</ele><time>2026-04-10T10:39:32Z</time></trkpt><trkpt lat="44.83441147984431" lon="7.820057861132969"><ele>278.0</ele><time>2026-04-10T10:39:34Z</time></trkpt><trkpt lat="44.834489143092334" lon="7.820134068884974"><ele>278.0</ele><time>2026-04-10T10:39:36Z</time></trkpt><trkpt lat="44.83457161004215" lon="7.820214324075901"><ele>277.4</ele><time>2026-04-10T10:39:38Z</time></trkpt><trkpt lat="44.83464659206941" lon="7.820287295084561"><ele>276.8</ele><time>2026-04-10T10:39:40Z</time></trkpt><trkpt lat="44.83473200690232" lon="7.820370419102552"><ele>276.2</ele><time>2026-04-10T10:39:42Z</time></trkpt><trkpt lat="44.834817418026425" lon="7.820453539501597"><ele>275.6</ele><time>2026-04-10T10:39:44Z</time></trkpt><trkpt lat="44.83490544815645" lon="7.820540172468689"><ele>275.0</ele><time>2026-04-10T10:39:46Z</time></trkpt><trkpt lat="44.834995904991395" lon="7.820629933477711"><ele>275.0</ele><time>2026-04-10T10:39:48Z</time></trkpt><trkpt lat="44.835082056698724" lon="7.820715422523549"><ele>275.0</ele><time>2026-04-10T10:39:50Z</time></trkpt><trkpt lat="44.835163777345656" lon="7.820797471353832"><ele>275.0</ele><time>2026-04-10T10:39:52Z</time></trkpt><trkpt lat="44.83524991781829" lon="7.820885247419171"><ele>275.0</ele><time>2026-04-10T10:39:54Z</time></trkpt><trkpt lat="44.83533124433566" lon="7.820968118132299"><ele>275.0</ele><time>2026-04-10T10:39:56Z</time></trkpt><trkpt lat="44.83541948242672" lon="7.821058244122074"><ele>275.2</ele><time>2026-04-10T10:39:58Z</time></trkpt><trkpt lat="44.83550973304653" lon="7.821152819759526"><ele>275.4</ele><time>2026-04-10T10:40:00Z</time></trkpt><trkpt lat="44.83559188070379" lon="7.821238904040137"><ele>275.6</ele><time>2026-04-10T10:40:02Z</time></trkpt><trkpt lat="44.83567874600196" lon="7.821329932102443"><ele>275.8</ele><time>2026-04-10T10:40:04Z</time></trkpt><trkpt lat="44.835764497862854" lon="7.821419793328242"><ele>276.0</ele><time>2026-04-10T10:40:06Z</time></trkpt><trkpt lat="44.83584717730685" lon="7.821506434929264"><ele>276.0</ele><time>2026-04-10T10:40:08Z</time></trkpt><trkpt lat="44.83593047462886" lon="7.8215895431110445"><ele>276.0</ele><time>2026-04-10T10:40:10Z</time></trkpt><trkpt lat="44.836039435256794" lon="7.821697109935371"><ele>276.0</ele><time>2026-04-10T10:40:12Z</time></trkpt><trkpt lat="44.83611982162679" lon="7.821776411545198"><ele>276.0</ele><time>2026-04-10T10:40:14Z</time></trkpt><trkpt lat="44.83620365288273" lon="7.82182709132974"><ele>276.0</ele><time>2026-04-10T10:40:16Z</time></trkpt><trkpt lat="44.8362497229711" lon="7.821892184287336"><ele>275.8333333333333</ele><time>2026-04-10T10:40:17Z</time></trkpt><trkpt lat="44.836313098738096" lon="7.821893191766995"><ele>275.6666666666667</ele><time>2026-04-10T10:40:18Z</time></trkpt><trkpt lat="44.836401675575246" lon="7.821775966342735"><ele>275.5</ele><time>2026-04-10T10:40:20Z</time></trkpt><trkpt lat="44.83646836292452" lon="7.8216999682561905"><ele>275.33333333333337</ele><time>2026-04-10T10:40:22Z</time></trkpt><trkpt lat="44.836503592305" lon="7.821620444307213"><ele>275.1666666666667</ele><time>2026-04-10T10:40:23.001Z</time></trkpt><trkpt lat="44.836577832877715" lon="7.8215256421778125"><ele>275.0</ele><time>2026-04-10T10:40:25.001Z</time></trkpt><trkpt lat="44.836647246140615" lon="7.821406220642931"><ele>275.0</ele><time>2026-04-10T10:40:27.001Z</time></trkpt><trkpt lat="44.836721602057956" lon="7.821296126503959"><ele>275.0</ele><time>2026-04-10T10:40:29Z</time></trkpt><trkpt lat="44.83680040276867" lon="7.821200269939562"><ele>275.0</ele><time>2026-04-10T10:40:31Z</time></trkpt><trkpt lat="44.83687442015706" lon="7.821094464511923"><ele>275.0</ele><time>2026-04-10T10:40:33Z</time></trkpt><trkpt lat="44.83695009051306" lon="7.820986296229175"><ele>275.0</ele><time>2026-04-10T10:40:35Z</time></trkpt><trkpt lat="44.83702892601616" lon="7.820872146535219"><ele>275.25</ele><time>2026-04-10T10:40:37Z</time></trkpt><trkpt lat="44.83710432920858" lon="7.820762756661383"><ele>275.5</ele><time>2026-04-10T10:40:39Z</time></trkpt><trkpt lat="44.837223318635594" lon="7.820591998301292"><ele>275.75</ele><time>2026-04-10T10:40:42Z</time></trkpt><trkpt lat="44.837296363837076" lon="7.820480068238817"><ele>276.0</ele><time>2026-04-10T10:40:44Z</time></trkpt><trkpt lat="44.83736609135983" lon="7.820360437248196"><ele>276.0</ele><time>2026-04-10T10:40:46Z</time></trkpt><trkpt lat="44.837445982934646" lon="7.820249272350502"><ele>276.0</ele><time>2026-04-10T10:40:48Z</time></trkpt><trkpt lat="44.83752077720858" lon="7.820132791567673"><ele>276.0</ele><time>2026-04-10T10:40:50Z</time></trkpt><trkpt lat="44.837605378146854" lon="7.820025669460958"><ele>276.0</ele><time>2026-04-10T10:40:52Z</time></trkpt><trkpt lat="44.83767933847682" lon="7.819908295503555"><ele>276.0</ele><time>2026-04-10T10:40:54Z</time></trkpt><trkpt lat="44.837763234836764" lon="7.819802527786193"><ele>276.0</ele><time>2026-04-10T10:40:56Z</time></trkpt><trkpt lat="44.83784379487033" lon="7.819682858831064"><ele>276.0</ele><time>2026-04-10T10:40:58Z</time></trkpt><trkpt lat="44.837924154036806" lon="7.81956316718042"><ele>276.0</ele><time>2026-04-10T10:41:00Z</time></trkpt><trkpt lat="44.838002801327626" lon="7.819452703003323"><ele>276.0</ele><time>2026-04-10T10:41:02Z</time></trkpt><trkpt lat="44.83806909323573" lon="7.819342574102398"><ele>276.0</ele><time>2026-04-10T10:41:04Z</time></trkpt><trkpt lat="44.83812499982198" lon="7.819294411730471"><ele>275.8</ele><time>2026-04-10T10:41:05Z</time></trkpt><trkpt lat="44.83815831863192" lon="7.819217301069621"><ele>275.6</ele><time>2026-04-10T10:41:06Z</time></trkpt><trkpt lat="44.838240785650605" lon="7.819115311532743"><ele>275.4</ele><time>2026-04-10T10:41:08Z</time></trkpt><trkpt lat="44.83831825622361" lon="7.819002636313481"><ele>275.2</ele><time>2026-04-10T10:41:10Z</time></trkpt><trkpt lat="44.83839580159295" lon="7.818890979867241"><ele>275.0</ele><time>2026-04-10T10:41:12Z</time></trkpt><trkpt lat="44.838476266865" lon="7.818777157012507"><ele>275.0</ele><time>2026-04-10T10:41:14Z</time></trkpt><trkpt lat="44.83855736973879" lon="7.818672159723988"><ele>275.0</ele><time>2026-04-10T10:41:16Z</time></trkpt><trkpt lat="44.838635823139775" lon="7.818554913977358"><ele>275.0</ele><time>2026-04-10T10:41:18Z</time></trkpt><trkpt lat="44.838717588006816" lon="7.818436191015464"><ele>275.0</ele><time>2026-04-10T10:41:20Z</time></trkpt><trkpt lat="44.83879291206979" lon="7.818321402064401"><ele>274.5</ele><time>2026-04-10T10:41:22Z</time></trkpt><trkpt lat="44.83886895948535" lon="7.818207974512248"><ele>274.0</ele><time>2026-04-10T10:41:24Z</time></trkpt><trkpt lat="44.83895543224101" lon="7.818102332293525"><ele>273.5</ele><time>2026-04-10T10:41:26Z</time></trkpt><trkpt lat="44.83903386519281" lon="7.817984042019288"><ele>273.0</ele><time>2026-04-10T10:41:28Z</time></trkpt><trkpt lat="44.83911146032766" lon="7.8178618311345325"><ele>273.0</ele><time>2026-04-10T10:41:30Z</time></trkpt><trkpt lat="44.83918507979847" lon="7.817737962992253"><ele>273.0</ele><time>2026-04-10T10:41:32Z</time></trkpt><trkpt lat="44.839240164266485" lon="7.817608101382844"><ele>273.0</ele><time>2026-04-10T10:41:34Z</time></trkpt><trkpt lat="44.839313637385956" lon="7.817490421548578"><ele>273.0</ele><time>2026-04-10T10:41:36Z</time></trkpt><trkpt lat="44.8393961662953" lon="7.8173880713807335"><ele>273.0</ele><time>2026-04-10T10:41:38Z</time></trkpt><trkpt lat="44.839481515967" lon="7.817279300947871"><ele>273.25</ele><time>2026-04-10T10:41:40Z</time></trkpt><trkpt lat="44.83956831053165" lon="7.81717176620556"><ele>273.5</ele><time>2026-04-10T10:41:42Z</time></trkpt><trkpt lat="44.839668525510476" lon="7.817070936636559"><ele>273.75</ele><time>2026-04-10T10:41:44Z</time></trkpt><trkpt lat="44.83975325799863" lon="7.8169588855907515"><ele>274.0</ele><time>2026-04-10T10:41:46Z</time></trkpt><trkpt lat="44.839830007805" lon="7.816849598046511"><ele>273.2</ele><time>2026-04-10T10:41:48Z</time></trkpt><trkpt lat="44.8399155186261" lon="7.8167670693905675"><ele>272.4</ele><time>2026-04-10T10:41:50Z</time></trkpt><trkpt lat="44.840023052524536" lon="7.816728173108369"><ele>271.6</ele><time>2026-04-10T10:41:52Z</time></trkpt><trkpt lat="44.84011941973915" lon="7.816814899948403"><ele>270.8</ele><time>2026-04-10T10:41:54Z</time></trkpt><trkpt lat="44.84020133874173" lon="7.8168965886888655"><ele>270.0</ele><time>2026-04-10T10:41:56Z</time></trkpt><trkpt lat="44.84028046699168" lon="7.816949260675409"><ele>270.0</ele><time>2026-04-10T10:41:58Z</time></trkpt><trkpt lat="44.84035395974614" lon="7.81701845057512"><ele>270.0</ele><time>2026-04-10T10:42:00Z</time></trkpt><trkpt lat="44.84042066402817" lon="7.817092438662419"><ele>270.0</ele><time>2026-04-10T10:42:02Z</time></trkpt><trkpt lat="44.84049172548645" lon="7.817165188580708"><ele>270.0</ele><time>2026-04-10T10:42:04Z</time></trkpt><trkpt lat="44.84056331140111" lon="7.817223417363637"><ele>270.0</ele><time>2026-04-10T10:42:06Z</time></trkpt><trkpt lat="44.84064272453967" lon="7.8172759111499825"><ele>270.0</ele><time>2026-04-10T10:42:08Z</time></trkpt><trkpt lat="44.8407297845589" lon="7.817341506999587"><ele>270.0</ele><time>2026-04-10T10:42:10Z</time></trkpt><trkpt lat="44.84081204757885" lon="7.817404553459634"><ele>270.0</ele><time>2026-04-10T10:42:12Z</time></trkpt><trkpt lat="44.84089002589436" lon="7.8174784904463035"><ele>270.0</ele><time>2026-04-10T10:42:14Z</time></trkpt><trkpt lat="44.84096845870631" lon="7.817546352117896"><ele>270.0</ele><time>2026-04-10T10:42:16Z</time></trkpt><trkpt lat="44.841050766716634" lon="7.817610241592578"><ele>270.0</ele><time>2026-04-10T10:42:18Z</time></trkpt><trkpt lat="44.8411306108503" lon="7.817674880797183"><ele>270.0</ele><time>2026-04-10T10:42:20Z</time></trkpt><trkpt lat="44.84121782067399" lon="7.817725324994257"><ele>270.0</ele><time>2026-04-10T10:42:22Z</time></trkpt><trkpt lat="44.84131232530085" lon="7.817789272129971"><ele>270.0</ele><time>2026-04-10T10:42:24Z</time></trkpt><trkpt lat="44.841409149886" lon="7.8178560722831305"><ele>270.0</ele><time>2026-04-10T10:42:26Z</time></trkpt><trkpt lat="44.84151391284026" lon="7.817886143908732"><ele>270.0</ele><time>2026-04-10T10:42:28Z</time></trkpt><trkpt lat="44.84162114001534" lon="7.817896220667283"><ele>270.0</ele><time>2026-04-10T10:42:30Z</time></trkpt><trkpt lat="44.84173109173101" lon="7.817896053396271"><ele>270.0</ele><time>2026-04-10T10:42:32Z</time></trkpt><trkpt lat="44.84184263298214" lon="7.817886172260567"><ele>270.0</ele><time>2026-04-10T10:42:34Z</time></trkpt><trkpt lat="44.841951636228345" lon="7.817879503203073"><ele>270.0</ele><time>2026-04-10T10:42:36Z</time></trkpt><trkpt lat="44.84205956652889" lon="7.817878016039793"><ele>270.0</ele><time>2026-04-10T10:42:38Z</time></trkpt><trkpt lat="44.84215857426518" lon="7.817893457165049"><ele>269.4</ele><time>2026-04-10T10:42:40Z</time></trkpt><trkpt lat="44.84225999561017" lon="7.817924589880542"><ele>268.8</ele><time>2026-04-10T10:42:42Z</time></trkpt><trkpt lat="44.84236787907704" lon="7.817962453804605"><ele>268.2</ele><time>2026-04-10T10:42:44Z</time></trkpt><trkpt lat="44.84247526003611" lon="7.818001158754945"><ele>267.6</ele><time>2026-04-10T10:42:46Z</time></trkpt><trkpt lat="44.842586500640245" lon="7.818027822073405"><ele>267.0</ele><time>2026-04-10T10:42:48Z</time></trkpt><trkpt lat="44.842687801046814" lon="7.8180402868790555"><ele>266.6</ele><time>2026-04-10T10:42:50Z</time></trkpt><trkpt lat="44.8427895347225" lon="7.818049539612853"><ele>266.2</ele><time>2026-04-10T10:42:52Z</time></trkpt><trkpt lat="44.84290016390493" lon="7.818050349432853"><ele>265.8</ele><time>2026-04-10T10:42:54Z</time></trkpt><trkpt lat="44.84300777994022" lon="7.818044015632563"><ele>265.4</ele><time>2026-04-10T10:42:56Z</time></trkpt><trkpt lat="44.843121190388416" lon="7.818039089148265"><ele>265.0</ele><time>2026-04-10T10:42:58Z</time></trkpt><trkpt lat="44.84323314294122" lon="7.818039027243297"><ele>265.0</ele><time>2026-04-10T10:43:00Z</time></trkpt><trkpt lat="44.84333875638217" lon="7.8180500470101295"><ele>265.0</ele><time>2026-04-10T10:43:02Z</time></trkpt><trkpt lat="44.84344902338088" lon="7.8180746851930865"><ele>265.0</ele><time>2026-04-10T10:43:04Z</time></trkpt><trkpt lat="44.84356235795035" lon="7.818105418780451"><ele>265.0</ele><time>2026-04-10T10:43:06Z</time></trkpt><trkpt lat="44.84367561901323" lon="7.8181360971591225"><ele>265.0</ele><time>2026-04-10T10:43:08Z</time></trkpt><trkpt lat="44.84378989983584" lon="7.818167143225003"><ele>265.0</ele><time>2026-04-10T10:43:10Z</time></trkpt><trkpt lat="44.84390245745611" lon="7.818199488868714"><ele>265.0</ele><time>2026-04-10T10:43:12Z</time></trkpt><trkpt lat="44.844010944478875" lon="7.818230664741557"><ele>265.0</ele><time>2026-04-10T10:43:14Z</time></trkpt><trkpt lat="44.84411434048442" lon="7.818260377618341"><ele>265.0</ele><time>2026-04-10T10:43:16Z</time></trkpt><trkpt lat="44.8442295261035" lon="7.81827189831699"><ele>265.0</ele><time>2026-04-10T10:43:18Z</time></trkpt><trkpt lat="44.84433937162245" lon="7.818214837163555"><ele>265.0</ele><time>2026-04-10T10:43:20Z</time></trkpt><trkpt lat="44.84442112509658" lon="7.818100563512029"><ele>265.0</ele><time>2026-04-10T10:43:22Z</time></trkpt><trkpt lat="44.84450880119977" lon="7.818011776704231"><ele>265.0</ele><time>2026-04-10T10:43:24Z</time></trkpt><trkpt lat="44.84459758005451" lon="7.817913101601366"><ele>265.0</ele><time>2026-04-10T10:43:26Z</time></trkpt><trkpt lat="44.84469573842686" lon="7.817843865414997"><ele>265.0</ele><time>2026-04-10T10:43:28Z</time></trkpt><trkpt lat="44.84477738597732" lon="7.817743081184806"><ele>264.8</ele><time>2026-04-10T10:43:30Z</time></trkpt><trkpt lat="44.84486905815176" lon="7.8176451391023205"><ele>264.6</ele><time>2026-04-10T10:43:32Z</time></trkpt><trkpt lat="44.84495968418953" lon="7.817557159349305"><ele>264.4</ele><time>2026-04-10T10:43:34Z</time></trkpt><trkpt lat="44.845050680057966" lon="7.817469710835793"><ele>264.2</ele><time>2026-04-10T10:43:36Z</time></trkpt><trkpt lat="44.84514032792634" lon="7.817387724462864"><ele>264.0</ele><time>2026-04-10T10:43:38Z</time></trkpt><trkpt lat="44.84522933429459" lon="7.817306768264418"><ele>264.0</ele><time>2026-04-10T10:43:40Z</time></trkpt><trkpt lat="44.84532065113403" lon="7.817240480755978"><ele>264.0</ele><time>2026-04-10T10:43:42Z</time></trkpt><trkpt lat="44.84539941685787" lon="7.817136658405758"><ele>264.0</ele><time>2026-04-10T10:43:44Z</time></trkpt><trkpt lat="44.84548914893086" lon="7.817044087368128"><ele>264.0</ele><time>2026-04-10T10:43:46Z</time></trkpt><trkpt lat="44.84558065492238" lon="7.8169573041918134"><ele>264.0</ele><time>2026-04-10T10:43:48Z</time></trkpt><trkpt lat="44.84567372735469" lon="7.816868493782402"><ele>263.75</ele><time>2026-04-10T10:43:50Z</time></trkpt><trkpt lat="44.84576772478537" lon="7.8167832531369745"><ele>263.5</ele><time>2026-04-10T10:43:52Z</time></trkpt><trkpt lat="44.84585784585969" lon="7.816688369308231"><ele>263.25</ele><time>2026-04-10T10:43:54Z</time></trkpt><trkpt lat="44.84594902645858" lon="7.816591150823366"><ele>263.0</ele><time>2026-04-10T10:43:56Z</time></trkpt><trkpt lat="44.84604267960488" lon="7.816498578914468"><ele>263.0</ele><time>2026-04-10T10:43:58Z</time></trkpt><trkpt lat="44.84613044292168" lon="7.816405530137001"><ele>263.0</ele><time>2026-04-10T10:44:00Z</time></trkpt><trkpt lat="44.846223172369754" lon="7.816314677909018"><ele>263.0</ele><time>2026-04-10T10:44:02Z</time></trkpt><trkpt lat="44.84632280024296" lon="7.816228482918201"><ele>263.0</ele><time>2026-04-10T10:44:04Z</time></trkpt><trkpt lat="44.84642454495132" lon="7.816159406241392"><ele>263.0</ele><time>2026-04-10T10:44:06Z</time></trkpt><trkpt lat="44.846531430389945" lon="7.816111968118651"><ele>263.0</ele><time>2026-04-10T10:44:08Z</time></trkpt><trkpt lat="44.846637340981566" lon="7.816063178939486"><ele>263.0</ele><time>2026-04-10T10:44:10Z</time></trkpt><trkpt lat="44.84674398747217" lon="7.816012717947069"><ele>263.0</ele><time>2026-04-10T10:44:12Z</time></trkpt><trkpt lat="44.84685602920333" lon="7.815963688328693"><ele>262.6</ele><time>2026-04-10T10:44:13.999Z</time></trkpt><trkpt lat="44.846962795914074" lon="7.815910136840932"><ele>262.20000000000005</ele><time>2026-04-10T10:44:15.999Z</time></trkpt><trkpt lat="44.84706342098449" lon="7.815867616407186"><ele>261.8</ele><time>2026-04-10T10:44:17.999Z</time></trkpt><trkpt lat="44.84715971640893" lon="7.815820046317499"><ele>261.40000000000003</ele><time>2026-04-10T10:44:19.999Z</time></trkpt><trkpt lat="44.847257498972326" lon="7.815769392479409"><ele>261.0</ele><time>2026-04-10T10:44:21.999Z</time></trkpt><trkpt lat="44.84735754208776" lon="7.815724089832511"><ele>261.0</ele><time>2026-04-10T10:44:23.999Z</time></trkpt><trkpt lat="44.847455470369134" lon="7.8156757924473"><ele>261.0</ele><time>2026-04-10T10:44:25.999Z</time></trkpt><trkpt lat="44.847556500003684" lon="7.8156273623136965"><ele>261.0</ele><time>2026-04-10T10:44:27.999Z</time></trkpt><trkpt lat="44.84766137785193" lon="7.81557418336664"><ele>261.0</ele><time>2026-04-10T10:44:29.999Z</time></trkpt><trkpt lat="44.84775473334493" lon="7.815525859079143"><ele>261.0</ele><time>2026-04-10T10:44:31.999Z</time></trkpt><trkpt lat="44.847857551898855" lon="7.815471223601002"><ele>261.0</ele><time>2026-04-10T10:44:33.999Z</time></trkpt><trkpt lat="44.84795482213987" lon="7.815426593245004"><ele>261.0</ele><time>2026-04-10T10:44:36Z</time></trkpt><trkpt lat="44.84805528158004" lon="7.815370385936257"><ele>261.0</ele><time>2026-04-10T10:44:38Z</time></trkpt><trkpt lat="44.848157441066654" lon="7.81531622567599"><ele>261.0</ele><time>2026-04-10T10:44:40Z</time></trkpt><trkpt lat="44.84825675783782" lon="7.815264355238634"><ele>261.0</ele><time>2026-04-10T10:44:42Z</time></trkpt><trkpt lat="44.848355770270125" lon="7.815208345568959"><ele>261.0</ele><time>2026-04-10T10:44:44Z</time></trkpt><trkpt lat="44.84845542820012" lon="7.815157756983848"><ele>261.0</ele><time>2026-04-10T10:44:46Z</time></trkpt><trkpt lat="44.84855317637328" lon="7.81510455627517"><ele>261.0</ele><time>2026-04-10T10:44:48Z</time></trkpt><trkpt lat="44.84865307623649" lon="7.815048609587871"><ele>261.0</ele><time>2026-04-10T10:44:50Z</time></trkpt><trkpt lat="44.84875168272052" lon="7.81498698545008"><ele>261.0</ele><time>2026-04-10T10:44:52Z</time></trkpt><trkpt lat="44.848822144185895" lon="7.814953279948879"><ele>260.75</ele><time>2026-04-10T10:44:54Z</time></trkpt><trkpt lat="44.84889863946443" lon="7.814912820977887"><ele>260.5</ele><time>2026-04-10T10:44:55Z</time></trkpt><trkpt lat="44.84900140821927" lon="7.814859022510463"><ele>260.25</ele><time>2026-04-10T10:44:57Z</time></trkpt><trkpt lat="44.849163217380855" lon="7.814768705935651"><ele>260.0</ele><time>2026-04-10T10:45:00Z</time></trkpt><trkpt lat="44.84926384299679" lon="7.814705789699211"><ele>259.8</ele><time>2026-04-10T10:45:02Z</time></trkpt><trkpt lat="44.8493660221216" lon="7.814651519546372"><ele>259.6</ele><time>2026-04-10T10:45:04Z</time></trkpt><trkpt lat="44.84946734504991" lon="7.814592535143679"><ele>259.4</ele><time>2026-04-10T10:45:06Z</time></trkpt><trkpt lat="44.84956817408285" lon="7.814544400135268"><ele>259.2</ele><time>2026-04-10T10:45:08Z</time></trkpt><trkpt lat="44.84966777385138" lon="7.814473137797889"><ele>259.0</ele><time>2026-04-10T10:45:10Z</time></trkpt><trkpt lat="44.84977601206945" lon="7.814417513276176"><ele>259.0</ele><time>2026-04-10T10:45:12Z</time></trkpt><trkpt lat="44.849881047883855" lon="7.81435517079514"><ele>259.0</ele><time>2026-04-10T10:45:14Z</time></trkpt><trkpt lat="44.84998279255872" lon="7.81430081683036"><ele>259.0</ele><time>2026-04-10T10:45:16Z</time></trkpt><trkpt lat="44.85008422008886" lon="7.814246521107116"><ele>259.0</ele><time>2026-04-10T10:45:18Z</time></trkpt><trkpt lat="44.85017085274816" lon="7.814193047442369"><ele>259.0</ele><time>2026-04-10T10:45:20Z</time></trkpt><trkpt lat="44.850274799950874" lon="7.814136321675215"><ele>259.2</ele><time>2026-04-10T10:45:22Z</time></trkpt><trkpt lat="44.850380562514914" lon="7.814077300682605"><ele>259.4</ele><time>2026-04-10T10:45:24Z</time></trkpt><trkpt lat="44.85048180800092" lon="7.814015654411045"><ele>259.6</ele><time>2026-04-10T10:45:26Z</time></trkpt><trkpt lat="44.85058436536982" lon="7.8139584007501535"><ele>259.8</ele><time>2026-04-10T10:45:28Z</time></trkpt><trkpt lat="44.85068661110074" lon="7.8138970519047755"><ele>260.0</ele><time>2026-04-10T10:45:30Z</time></trkpt><trkpt lat="44.85078922337928" lon="7.813841252532463"><ele>260.0</ele><time>2026-04-10T10:45:32Z</time></trkpt><trkpt lat="44.850888189808494" lon="7.813783732532409"><ele>260.0</ele><time>2026-04-10T10:45:34Z</time></trkpt><trkpt lat="44.850989734857656" lon="7.813729590792595"><ele>260.0</ele><time>2026-04-10T10:45:36Z</time></trkpt><trkpt lat="44.851092704163705" lon="7.813667754310362"><ele>260.0</ele><time>2026-04-10T10:45:38Z</time></trkpt><trkpt lat="44.85119520744196" lon="7.813602801140693"><ele>260.0</ele><time>2026-04-10T10:45:40Z</time></trkpt><trkpt lat="44.85129752439034" lon="7.813544106343893"><ele>259.8</ele><time>2026-04-10T10:45:42Z</time></trkpt><trkpt lat="44.85139921776743" lon="7.813481853703028"><ele>259.6</ele><time>2026-04-10T10:45:44Z</time></trkpt><trkpt lat="44.85150355101264" lon="7.813421774735902"><ele>259.4</ele><time>2026-04-10T10:45:46Z</time></trkpt><trkpt lat="44.85160343991362" lon="7.813359562128374"><ele>259.2</ele><time>2026-04-10T10:45:48Z</time></trkpt><trkpt lat="44.851706032838585" lon="7.813291457409824"><ele>259.0</ele><time>2026-04-10T10:45:50Z</time></trkpt><trkpt lat="44.851802673810006" lon="7.813219676909184"><ele>259.0</ele><time>2026-04-10T10:45:52Z</time></trkpt><trkpt lat="44.851895492838786" lon="7.813135232881346"><ele>259.0</ele><time>2026-04-10T10:45:54Z</time></trkpt><trkpt lat="44.8519824577545" lon="7.813044247388621"><ele>259.0</ele><time>2026-04-10T10:45:56Z</time></trkpt><trkpt lat="44.85206606689463" lon="7.812955557523092"><ele>259.0</ele><time>2026-04-10T10:45:58Z</time></trkpt><trkpt lat="44.85215032242034" lon="7.812855766529774"><ele>259.0</ele><time>2026-04-10T10:46:00Z</time></trkpt><trkpt lat="44.85223435646661" lon="7.812753568843766"><ele>258.8</ele><time>2026-04-10T10:46:01.999Z</time></trkpt><trkpt lat="44.85232162548752" lon="7.8126488575689965"><ele>258.59999999999997</ele><time>2026-04-10T10:46:03.999Z</time></trkpt><trkpt lat="44.85240487671447" lon="7.812548839980249"><ele>258.4</ele><time>2026-04-10T10:46:05.999Z</time></trkpt><trkpt lat="44.852488166464326" lon="7.812453128477761"><ele>258.2</ele><time>2026-04-10T10:46:07.999Z</time></trkpt><trkpt lat="44.8525740313234" lon="7.812348272201711"><ele>258.0</ele><time>2026-04-10T10:46:09.999Z</time></trkpt><trkpt lat="44.85266059552195" lon="7.812243941567231"><ele>258.0</ele><time>2026-04-10T10:46:11.999Z</time></trkpt><trkpt lat="44.85274390156946" lon="7.812149431630328"><ele>258.0</ele><time>2026-04-10T10:46:13.999Z</time></trkpt><trkpt lat="44.85282967690949" lon="7.812043594857579"><ele>258.0</ele><time>2026-04-10T10:46:15.999Z</time></trkpt><trkpt lat="44.852914306004806" lon="7.811938391791106"><ele>258.0</ele><time>2026-04-10T10:46:17.999Z</time></trkpt><trkpt lat="44.85299987053768" lon="7.811833863258423"><ele>258.0</ele><time>2026-04-10T10:46:19.999Z</time></trkpt><trkpt lat="44.853086154970796" lon="7.811735792744425"><ele>258.0</ele><time>2026-04-10T10:46:21.999Z</time></trkpt><trkpt lat="44.85316857897506" lon="7.811636800995949"><ele>258.0</ele><time>2026-04-10T10:46:23.999Z</time></trkpt><trkpt lat="44.85324854641807" lon="7.81153550739198"><ele>258.0</ele><time>2026-04-10T10:46:25.999Z</time></trkpt><trkpt lat="44.85332837913826" lon="7.811446371594931"><ele>258.0</ele><time>2026-04-10T10:46:27.999Z</time></trkpt><trkpt lat="44.85340508582116" lon="7.81134912242279"><ele>258.0</ele><time>2026-04-10T10:46:29.999Z</time></trkpt><trkpt lat="44.85348411321265" lon="7.811257202765243"><ele>257.8</ele><time>2026-04-10T10:46:31.999Z</time></trkpt><trkpt lat="44.85353039580567" lon="7.811195602677918"><ele>257.6</ele><time>2026-04-10T10:46:32.999Z</time></trkpt><trkpt lat="44.853606974877415" lon="7.811107347344806"><ele>257.4</ele><time>2026-04-10T10:46:34.999Z</time></trkpt><trkpt lat="44.85368768410866" lon="7.811003694095078"><ele>257.2</ele><time>2026-04-10T10:46:36.999Z</time></trkpt><trkpt lat="44.853766706413275" lon="7.810912575148241"><ele>257.0</ele><time>2026-04-10T10:46:38.999Z</time></trkpt><trkpt lat="44.853846250141046" lon="7.8108160152964885"><ele>257.0</ele><time>2026-04-10T10:46:41Z</time></trkpt><trkpt lat="44.853927208765434" lon="7.810712934409118"><ele>257.0</ele><time>2026-04-10T10:46:43Z</time></trkpt><trkpt lat="44.85400481773183" lon="7.810627313601293"><ele>257.0</ele><time>2026-04-10T10:46:45Z</time></trkpt><trkpt lat="44.854078935961304" lon="7.810535758083413"><ele>257.0</ele><time>2026-04-10T10:46:47Z</time></trkpt><trkpt lat="44.85414745183548" lon="7.8104555678882015"><ele>257.0</ele><time>2026-04-10T10:46:49Z</time></trkpt><trkpt lat="44.85421679382767" lon="7.810380105041319"><ele>257.0</ele><time>2026-04-10T10:46:51Z</time></trkpt><trkpt lat="44.85428512872879" lon="7.810297230057797"><ele>257.0</ele><time>2026-04-10T10:46:53Z</time></trkpt><trkpt lat="44.854354654118815" lon="7.810201467600404"><ele>257.0</ele><time>2026-04-10T10:46:55Z</time></trkpt><trkpt lat="44.854427831845996" lon="7.810120239513133"><ele>257.0</ele><time>2026-04-10T10:46:57Z</time></trkpt><trkpt lat="44.85449543213733" lon="7.810036370727404"><ele>257.0</ele><time>2026-04-10T10:46:59Z</time></trkpt><trkpt lat="44.85456563033132" lon="7.809944095682478"><ele>256.83333333333337</ele><time>2026-04-10T10:47:01Z</time></trkpt><trkpt lat="44.85463290969858" lon="7.809871501701497"><ele>256.6666666666667</ele><time>2026-04-10T10:47:03Z</time></trkpt><trkpt lat="44.85469801943663" lon="7.809813175618438"><ele>256.5</ele><time>2026-04-10T10:47:05Z</time></trkpt><trkpt lat="44.85476410071206" lon="7.809787030051067"><ele>256.3333333333333</ele><time>2026-04-10T10:47:08Z</time></trkpt><trkpt lat="44.85486967238768" lon="7.809798373481652"><ele>256.16666666666663</ele><time>2026-04-10T10:48:10.999Z</time></trkpt><trkpt lat="44.854940455901115" lon="7.809809815646678"><ele>256.0</ele><time>2026-04-10T10:48:12.999Z</time></trkpt><trkpt lat="44.855013803231365" lon="7.809818500672425"><ele>255.99999999999997</ele><time>2026-04-10T10:48:14.999Z</time></trkpt><trkpt lat="44.85509238221621" lon="7.809823233626516"><ele>256.0</ele><time>2026-04-10T10:48:16.999Z</time></trkpt><trkpt lat="44.85517654115218" lon="7.809834168558233"><ele>256.0</ele><time>2026-04-10T10:48:18.999Z</time></trkpt><trkpt lat="44.855261110688254" lon="7.8098401394254475"><ele>256.0</ele><time>2026-04-10T10:48:20.999Z</time></trkpt><trkpt lat="44.85533654578449" lon="7.809847265173352"><ele>255.99999999999997</ele><time>2026-04-10T10:48:22.999Z</time></trkpt><trkpt lat="44.85540903992503" lon="7.809844638739269"><ele>256.0</ele><time>2026-04-10T10:48:24.999Z</time></trkpt><trkpt lat="44.855480402580305" lon="7.809834902021819"><ele>255.83333333333331</ele><time>2026-04-10T10:48:26.999Z</time></trkpt><trkpt lat="44.85555602218818" lon="7.80981744650476"><ele>255.66666666666666</ele><time>2026-04-10T10:48:29.999Z</time></trkpt><trkpt lat="44.85561477421493" lon="7.809763065571364"><ele>255.5</ele><time>2026-04-10T10:48:32.999Z</time></trkpt><trkpt lat="44.855648904667866" lon="7.809671114855317"><ele>255.33333333333331</ele><time>2026-04-10T10:48:34.999Z</time></trkpt><trkpt lat="44.85566897017052" lon="7.809555500229243"><ele>255.16666666666666</ele><time>2026-04-10T10:48:36.999Z</time></trkpt><trkpt lat="44.85568947249796" lon="7.8094342104763905"><ele>255.0</ele><time>2026-04-10T10:48:38.999Z</time></trkpt><trkpt lat="44.85571405441681" lon="7.8093124909002105"><ele>254.8</ele><time>2026-04-10T10:48:40.999Z</time></trkpt><trkpt lat="44.855752889940476" lon="7.809209497385457"><ele>254.6</ele><time>2026-04-10T10:48:42.999Z</time></trkpt><trkpt lat="44.85582879082523" lon="7.809132170093617"><ele>254.39999999999998</ele><time>2026-04-10T10:48:44.999Z</time></trkpt><trkpt lat="44.85590888259562" lon="7.809050539115989"><ele>254.2</ele><time>2026-04-10T10:48:46.999Z</time></trkpt><trkpt lat="44.85599591455059" lon="7.808961585626954"><ele>254.0</ele><time>2026-04-10T10:48:48.999Z</time></trkpt><trkpt lat="44.856092667764294" lon="7.808855246099932"><ele>254.0</ele><time>2026-04-10T10:48:50.999Z</time></trkpt><trkpt lat="44.856187931742525" lon="7.808740145826452"><ele>253.99999999999997</ele><time>2026-04-10T10:48:52.999Z</time></trkpt><trkpt lat="44.85622466856277" lon="7.808665976664264"><ele>253.99999999999997</ele><time>2026-04-10T10:48:53.999Z</time></trkpt><trkpt lat="44.85631819745248" lon="7.80855494564446"><ele>254.0</ele><time>2026-04-10T10:48:55.999Z</time></trkpt><trkpt lat="44.856408787192244" lon="7.808448177248559"><ele>254.0</ele><time>2026-04-10T10:48:58Z</time></trkpt><trkpt lat="44.85651102162752" lon="7.808354826225173"><ele>254.0</ele><time>2026-04-10T10:49:00Z</time></trkpt><trkpt lat="44.85659491038152" lon="7.808231089219326"><ele>254.0</ele><time>2026-04-10T10:49:02Z</time></trkpt><trkpt lat="44.85669542707471" lon="7.808136856060252"><ele>254.0</ele><time>2026-04-10T10:49:04Z</time></trkpt><trkpt lat="44.856772567445624" lon="7.808018823670594"><ele>254.0</ele><time>2026-04-10T10:49:06Z</time></trkpt><trkpt lat="44.85686368862767" lon="7.807913990559269"><ele>254.0</ele><time>2026-04-10T10:49:08Z</time></trkpt><trkpt lat="44.85696011946442" lon="7.807825776987275"><ele>254.0</ele><time>2026-04-10T10:49:10Z</time></trkpt><trkpt lat="44.85703968561207" lon="7.807706822441278"><ele>254.0</ele><time>2026-04-10T10:49:12Z</time></trkpt><trkpt lat="44.85713720903523" lon="7.807614446853331"><ele>254.0</ele><time>2026-04-10T10:49:14Z</time></trkpt><trkpt lat="44.857219790598535" lon="7.807490871381278"><ele>254.0</ele><time>2026-04-10T10:49:16Z</time></trkpt><trkpt lat="44.85731907591454" lon="7.807396530639313"><ele>254.0</ele><time>2026-04-10T10:49:18Z</time></trkpt><trkpt lat="44.85740946612611" lon="7.807288484433184"><ele>254.0</ele><time>2026-04-10T10:49:20Z</time></trkpt><trkpt lat="44.85748946947418" lon="7.807165902804175"><ele>254.0</ele><time>2026-04-10T10:49:22Z</time></trkpt><trkpt lat="44.857591473437964" lon="7.8070801662814"><ele>253.75</ele><time>2026-04-10T10:49:24Z</time></trkpt><trkpt lat="44.857683154891646" lon="7.80697665612798"><ele>253.5</ele><time>2026-04-10T10:49:26Z</time></trkpt><trkpt lat="44.85777633275112" lon="7.806868816725404"><ele>253.25</ele><time>2026-04-10T10:49:28Z</time></trkpt><trkpt lat="44.857860976898465" lon="7.806766922781728"><ele>253.0</ele><time>2026-04-10T10:49:30Z</time></trkpt><trkpt lat="44.85795231632358" lon="7.8066569692122725"><ele>253.0</ele><time>2026-04-10T10:49:32Z</time></trkpt><trkpt lat="44.858038480860145" lon="7.806553244829041"><ele>253.0</ele><time>2026-04-10T10:49:34Z</time></trkpt><trkpt lat="44.85811290442045" lon="7.8064376418455295"><ele>253.0</ele><time>2026-04-10T10:49:35.999Z</time></trkpt><trkpt lat="44.85821037167241" lon="7.806351726654851"><ele>253.0</ele><time>2026-04-10T10:49:37.999Z</time></trkpt><trkpt lat="44.8582978462115" lon="7.806250014997592"><ele>253.0</ele><time>2026-04-10T10:49:39.999Z</time></trkpt><trkpt lat="44.858383453778366" lon="7.806151508615673"><ele>253.0</ele><time>2026-04-10T10:49:41.999Z</time></trkpt><trkpt lat="44.858470292421984" lon="7.806050968864893"><ele>253.0</ele><time>2026-04-10T10:49:43.999Z</time></trkpt><trkpt lat="44.85855263866156" lon="7.805930388344379"><ele>253.0</ele><time>2026-04-10T10:49:45.999Z</time></trkpt><trkpt lat="44.858587662449054" lon="7.805848190150862"><ele>253.0</ele><time>2026-04-10T10:49:46.999Z</time></trkpt><trkpt lat="44.85864314926055" lon="7.805698305949567"><ele>252.8</ele><time>2026-04-10T10:49:48.999Z</time></trkpt><trkpt lat="44.8586648089392" lon="7.80553102695279"><ele>252.60000000000002</ele><time>2026-04-10T10:49:50.999Z</time></trkpt><trkpt lat="44.85869314852923" lon="7.805372112507865"><ele>252.39999999999998</ele><time>2026-04-10T10:49:52.999Z</time></trkpt><trkpt lat="44.85872464926175" lon="7.805294745161437"><ele>252.2</ele><time>2026-04-10T10:49:53.999Z</time></trkpt><trkpt lat="44.858755447147885" lon="7.8051337405118995"><ele>252.0</ele><time>2026-04-10T10:49:55.999Z</time></trkpt><trkpt lat="44.8587844476976" lon="7.8049787334854015"><ele>252.0</ele><time>2026-04-10T10:49:57.999Z</time></trkpt><trkpt lat="44.85881507044118" lon="7.804815056760792"><ele>252.0</ele><time>2026-04-10T10:49:59.999Z</time></trkpt><trkpt lat="44.858845525211194" lon="7.804652277350202"><ele>252.0</ele><time>2026-04-10T10:50:01.999Z</time></trkpt><trkpt lat="44.85887580002676" lon="7.80449045949977"><ele>252.0</ele><time>2026-04-10T10:50:03.999Z</time></trkpt><trkpt lat="44.858905882314446" lon="7.80432967145693"><ele>252.25</ele><time>2026-04-10T10:50:05.999Z</time></trkpt><trkpt lat="44.8589196908491" lon="7.804166757993826"><ele>252.5</ele><time>2026-04-10T10:50:07.999Z</time></trkpt><trkpt lat="44.85894897963919" lon="7.804020536346422"><ele>252.75</ele><time>2026-04-10T10:50:09.999Z</time></trkpt><trkpt lat="44.8589826493008" lon="7.803851756262462"><ele>253.0</ele><time>2026-04-10T10:50:11.999Z</time></trkpt><trkpt lat="44.85901095320702" lon="7.803697211482695"><ele>253.0</ele><time>2026-04-10T10:50:13.999Z</time></trkpt><trkpt lat="44.85903849508708" lon="7.803539515369043"><ele>253.0</ele><time>2026-04-10T10:50:15.999Z</time></trkpt><trkpt lat="44.859084560579994" lon="7.8033904182627145"><ele>253.0</ele><time>2026-04-10T10:50:17.999Z</time></trkpt><trkpt lat="44.85910278665565" lon="7.803230100261991"><ele>253.0</ele><time>2026-04-10T10:50:19.999Z</time></trkpt><trkpt lat="44.859144361726365" lon="7.803085685905652"><ele>252.8</ele><time>2026-04-10T10:50:21.999Z</time></trkpt><trkpt lat="44.85919572271047" lon="7.802944559727778"><ele>252.60000000000002</ele><time>2026-04-10T10:50:23.999Z</time></trkpt><trkpt lat="44.859256274117776" lon="7.802811452066483"><ele>252.39999999999998</ele><time>2026-04-10T10:50:25.999Z</time></trkpt><trkpt lat="44.85932255134561" lon="7.802683161899969"><ele>252.2</ele><time>2026-04-10T10:50:27.999Z</time></trkpt><trkpt lat="44.85939728334788" lon="7.802568162687573"><ele>252.0</ele><time>2026-04-10T10:50:29.999Z</time></trkpt><trkpt lat="44.85948484036654" lon="7.80246717147161"><ele>252.0</ele><time>2026-04-10T10:50:31.999Z</time></trkpt><trkpt lat="44.85954406670527" lon="7.802331843956032"><ele>252.0</ele><time>2026-04-10T10:50:33.999Z</time></trkpt><trkpt lat="44.85962499162696" lon="7.802224282430395"><ele>252.0</ele><time>2026-04-10T10:50:35.999Z</time></trkpt><trkpt lat="44.859691017075924" lon="7.802088975293887"><ele>252.0</ele><time>2026-04-10T10:50:37.999Z</time></trkpt><trkpt lat="44.859766756001775" lon="7.801967043453852"><ele>252.0</ele><time>2026-04-10T10:50:39.999Z</time></trkpt><trkpt lat="44.85983902385915" lon="7.801849741615848"><ele>252.0</ele><time>2026-04-10T10:50:41.999Z</time></trkpt><trkpt lat="44.85991399274943" lon="7.801731220349862"><ele>252.0</ele><time>2026-04-10T10:50:43.999Z</time></trkpt><trkpt lat="44.85998986408309" lon="7.801616031069635"><ele>252.0</ele><time>2026-04-10T10:50:45.999Z</time></trkpt><trkpt lat="44.86006087274636" lon="7.801496466039703"><ele>252.0</ele><time>2026-04-10T10:50:47.999Z</time></trkpt><trkpt lat="44.86013780106484" lon="7.801374908072008"><ele>252.0</ele><time>2026-04-10T10:50:49.999Z</time></trkpt><trkpt lat="44.86021183024489" lon="7.801255984050833"><ele>252.0</ele><time>2026-04-10T10:50:51.999Z</time></trkpt><trkpt lat="44.860286991591565" lon="7.801134497720933"><ele>252.0</ele><time>2026-04-10T10:50:54Z</time></trkpt><trkpt lat="44.86035988758669" lon="7.8010088063098015"><ele>252.0</ele><time>2026-04-10T10:50:56Z</time></trkpt><trkpt lat="44.86043293618997" lon="7.800883225005239"><ele>252.0</ele><time>2026-04-10T10:50:58Z</time></trkpt><trkpt lat="44.860507388548385" lon="7.8007629040742374"><ele>252.0</ele><time>2026-04-10T10:51:00Z</time></trkpt><trkpt lat="44.86058161839026" lon="7.8006379255051375"><ele>252.0</ele><time>2026-04-10T10:51:02Z</time></trkpt><trkpt lat="44.860658336658055" lon="7.800515016796562"><ele>252.0</ele><time>2026-04-10T10:51:04Z</time></trkpt><trkpt lat="44.86073274395415" lon="7.800393140909545"><ele>252.0</ele><time>2026-04-10T10:51:06Z</time></trkpt><trkpt lat="44.86080654093965" lon="7.800271008586125"><ele>252.0</ele><time>2026-04-10T10:51:08Z</time></trkpt><trkpt lat="44.86088007813999" lon="7.800145653491592"><ele>252.0</ele><time>2026-04-10T10:51:10Z</time></trkpt><trkpt lat="44.86095291382757" lon="7.800025621406222"><ele>252.0</ele><time>2026-04-10T10:51:12Z</time></trkpt><trkpt lat="44.86102796458544" lon="7.799908851541894"><ele>251.25</ele><time>2026-04-10T10:51:14Z</time></trkpt><trkpt lat="44.861101946679824" lon="7.799785270453972"><ele>250.5</ele><time>2026-04-10T10:51:16Z</time></trkpt><trkpt lat="44.861175834312355" lon="7.799660476784163"><ele>249.75</ele><time>2026-04-10T10:51:18Z</time></trkpt><trkpt lat="44.86125057794125" lon="7.799541072828767"><ele>249.0</ele><time>2026-04-10T10:51:20Z</time></trkpt><trkpt lat="44.86132373870306" lon="7.799417122543573"><ele>249.5</ele><time>2026-04-10T10:51:22Z</time></trkpt><trkpt lat="44.86139204424816" lon="7.79928601020706"><ele>250.0</ele><time>2026-04-10T10:51:24Z</time></trkpt><trkpt lat="44.861448720944075" lon="7.799146540591037"><ele>250.5</ele><time>2026-04-10T10:51:26Z</time></trkpt><trkpt lat="44.86150397933738" lon="7.7990050419395045"><ele>251.0</ele><time>2026-04-10T10:51:28Z</time></trkpt><trkpt lat="44.86154607756033" lon="7.798855628175874"><ele>251.0</ele><time>2026-04-10T10:51:30Z</time></trkpt><trkpt lat="44.86159134308574" lon="7.7987051265832665"><ele>251.0</ele><time>2026-04-10T10:51:32Z</time></trkpt><trkpt lat="44.86164660071841" lon="7.798561505280267"><ele>251.0</ele><time>2026-04-10T10:51:34Z</time></trkpt><trkpt lat="44.86171115058261" lon="7.7984285380878795"><ele>251.0</ele><time>2026-04-10T10:51:36Z</time></trkpt><trkpt lat="44.86177297247133" lon="7.798306888486996"><ele>250.75</ele><time>2026-04-10T10:51:38Z</time></trkpt><trkpt lat="44.86184146022907" lon="7.798173523022784"><ele>250.5</ele><time>2026-04-10T10:51:40Z</time></trkpt><trkpt lat="44.8618967169764" lon="7.798035216703291"><ele>250.25</ele><time>2026-04-10T10:51:42Z</time></trkpt><trkpt lat="44.86195430753498" lon="7.797895485015332"><ele>250.0</ele><time>2026-04-10T10:51:44Z</time></trkpt><trkpt lat="44.862011047869004" lon="7.797756899128126"><ele>249.8</ele><time>2026-04-10T10:51:46Z</time></trkpt><trkpt lat="44.862066484717865" lon="7.7976170529812014"><ele>249.6</ele><time>2026-04-10T10:51:48Z</time></trkpt><trkpt lat="44.86212489970388" lon="7.797478917597341"><ele>249.39999999999998</ele><time>2026-04-10T10:51:50Z</time></trkpt><trkpt lat="44.86218602177161" lon="7.797350330072277"><ele>249.2</ele><time>2026-04-10T10:51:52Z</time></trkpt><trkpt lat="44.86224537257729" lon="7.797217642165354"><ele>249.0</ele><time>2026-04-10T10:51:54Z</time></trkpt><trkpt lat="44.86230296550949" lon="7.797100869023839"><ele>249.0</ele><time>2026-04-10T10:51:56Z</time></trkpt><trkpt lat="44.86236581572397" lon="7.7969618985977345"><ele>248.99999999999997</ele><time>2026-04-10T10:51:58Z</time></trkpt><trkpt lat="44.862416978591675" lon="7.796822694181502"><ele>248.99999999999997</ele><time>2026-04-10T10:51:59.999Z</time></trkpt><trkpt lat="44.86248508327759" lon="7.796702628462856"><ele>249.0</ele><time>2026-04-10T10:52:01.999Z</time></trkpt><trkpt lat="44.86253201624809" lon="7.796567997958107"><ele>249.0</ele><time>2026-04-10T10:52:03.999Z</time></trkpt><trkpt lat="44.86256359715402" lon="7.796408798305018"><ele>249.0</ele><time>2026-04-10T10:52:05.999Z</time></trkpt><trkpt lat="44.86257084746843" lon="7.796246360532231"><ele>249.0</ele><time>2026-04-10T10:52:07.999Z</time></trkpt><trkpt lat="44.862554295903166" lon="7.7960802664701285"><ele>249.0</ele><time>2026-04-10T10:52:09.999Z</time></trkpt><trkpt lat="44.86253672129246" lon="7.795919445849917"><ele>249.0</ele><time>2026-04-10T10:52:11.999Z</time></trkpt><trkpt lat="44.86251656215248" lon="7.795765828827539"><ele>249.2</ele><time>2026-04-10T10:52:13.999Z</time></trkpt><trkpt lat="44.86247789706068" lon="7.795623705320765"><ele>249.39999999999998</ele><time>2026-04-10T10:52:15.999Z</time></trkpt><trkpt lat="44.8624618118982" lon="7.79548427913088"><ele>249.6</ele><time>2026-04-10T10:52:17.999Z</time></trkpt><trkpt lat="44.86247853561009" lon="7.795381546878869"><ele>249.8</ele><time>2026-04-10T10:52:19.999Z</time></trkpt><trkpt lat="44.86256110371673" lon="7.7953176007310185"><ele>250.0</ele><time>2026-04-10T10:52:22.999Z</time></trkpt><trkpt lat="44.86264608249759" lon="7.795313721520274"><ele>250.0</ele><time>2026-04-10T10:52:24.999Z</time></trkpt><trkpt lat="44.86273554946182" lon="7.795291097718124"><ele>250.0</ele><time>2026-04-10T10:52:26.999Z</time></trkpt><trkpt lat="44.86283223785029" lon="7.795269361441656"><ele>250.0</ele><time>2026-04-10T10:52:28.999Z</time></trkpt><trkpt lat="44.86293508179391" lon="7.795247230740898"><ele>250.0</ele><time>2026-04-10T10:52:30.999Z</time></trkpt><trkpt lat="44.86303717403834" lon="7.795221357478764"><ele>250.0</ele><time>2026-04-10T10:52:32.999Z</time></trkpt><trkpt lat="44.863137183261394" lon="7.795195491082884"><ele>249.8</ele><time>2026-04-10T10:52:34.999Z</time></trkpt><trkpt lat="44.863239849627234" lon="7.795168530799776"><ele>249.6</ele><time>2026-04-10T10:52:36.999Z</time></trkpt><trkpt lat="44.86334435073498" lon="7.795144333258951"><ele>249.39999999999998</ele><time>2026-04-10T10:52:38.999Z</time></trkpt><trkpt lat="44.86345201149793" lon="7.795112611644925"><ele>249.2</ele><time>2026-04-10T10:52:40.999Z</time></trkpt><trkpt lat="44.86355995819435" lon="7.795087472933333"><ele>249.0</ele><time>2026-04-10T10:52:42.999Z</time></trkpt><trkpt lat="44.863671616264945" lon="7.795066799242658"><ele>249.0</ele><time>2026-04-10T10:52:44.999Z</time></trkpt><trkpt lat="44.86378025620322" lon="7.79503288345139"><ele>248.99999999999997</ele><time>2026-04-10T10:52:46.999Z</time></trkpt><trkpt lat="44.86388995215623" lon="7.795002021481105"><ele>248.99999999999997</ele><time>2026-04-10T10:52:48.999Z</time></trkpt><trkpt lat="44.864002012791275" lon="7.794983315954947"><ele>249.0</ele><time>2026-04-10T10:52:50.999Z</time></trkpt><trkpt lat="44.86410952652226" lon="7.794953780094391"><ele>249.0</ele><time>2026-04-10T10:52:52.999Z</time></trkpt><trkpt lat="44.86422002053626" lon="7.794937149554448"><ele>248.5</ele><time>2026-04-10T10:52:54.999Z</time></trkpt><trkpt lat="44.86433248996176" lon="7.794909234050064"><ele>248.0</ele><time>2026-04-10T10:52:56.999Z</time></trkpt><trkpt lat="44.86444197602249" lon="7.794880550748536"><ele>247.5</ele><time>2026-04-10T10:52:59Z</time></trkpt><trkpt lat="44.86455190600097" lon="7.794849257973064"><ele>247.0</ele><time>2026-04-10T10:53:01Z</time></trkpt><trkpt lat="44.864667397172795" lon="7.794824862987691"><ele>247.0</ele><time>2026-04-10T10:53:03Z</time></trkpt><trkpt lat="44.86478371902712" lon="7.794800052349446"><ele>247.0</ele><time>2026-04-10T10:53:05Z</time></trkpt><trkpt lat="44.86489606134925" lon="7.794769575984601"><ele>247.0</ele><time>2026-04-10T10:53:07Z</time></trkpt><trkpt lat="44.86501410376851" lon="7.794746887955115"><ele>247.0</ele><time>2026-04-10T10:53:09Z</time></trkpt><trkpt lat="44.865134186781866" lon="7.794713591791525"><ele>246.75</ele><time>2026-04-10T10:53:11Z</time></trkpt><trkpt lat="44.86525151685939" lon="7.794688308104632"><ele>246.5</ele><time>2026-04-10T10:53:13Z</time></trkpt><trkpt lat="44.865368831996335" lon="7.7946580793506195"><ele>246.25</ele><time>2026-04-10T10:53:15Z</time></trkpt><trkpt lat="44.86548848589682" lon="7.794634615215955"><ele>246.0</ele><time>2026-04-10T10:53:17Z</time></trkpt><trkpt lat="44.865601547389275" lon="7.794606487935672"><ele>246.0</ele><time>2026-04-10T10:53:19Z</time></trkpt><trkpt lat="44.86571801632863" lon="7.794572257635388"><ele>246.0</ele><time>2026-04-10T10:53:21Z</time></trkpt><trkpt lat="44.865832411169094" lon="7.794549686494704"><ele>246.0</ele><time>2026-04-10T10:53:23Z</time></trkpt><trkpt lat="44.865952101694155" lon="7.7945259248992125"><ele>246.0</ele><time>2026-04-10T10:53:25Z</time></trkpt><trkpt lat="44.86606611136949" lon="7.794493399311903"><ele>246.0</ele><time>2026-04-10T10:53:27Z</time></trkpt><trkpt lat="44.86618077748178" lon="7.794466664185641"><ele>246.0</ele><time>2026-04-10T10:53:29Z</time></trkpt><trkpt lat="44.866297655725575" lon="7.794440796348032"><ele>246.0</ele><time>2026-04-10T10:53:31Z</time></trkpt><trkpt lat="44.866413942817154" lon="7.794406863122087"><ele>246.0</ele><time>2026-04-10T10:53:33Z</time></trkpt><trkpt lat="44.86652925078726" lon="7.794380273371729"><ele>246.0</ele><time>2026-04-10T10:53:35Z</time></trkpt><trkpt lat="44.86664681313678" lon="7.79435437526126"><ele>246.0</ele><time>2026-04-10T10:53:37Z</time></trkpt><trkpt lat="44.86676212217552" lon="7.794323986968683"><ele>246.0</ele><time>2026-04-10T10:53:39Z</time></trkpt><trkpt lat="44.866878592465326" lon="7.794300417558154"><ele>246.0</ele><time>2026-04-10T10:53:41Z</time></trkpt><trkpt lat="44.866997154357" lon="7.79427263403308"><ele>246.0</ele><time>2026-04-10T10:53:43Z</time></trkpt><trkpt lat="44.86711411591095" lon="7.7942492946457635"><ele>246.0</ele><time>2026-04-10T10:53:45Z</time></trkpt><trkpt lat="44.86722947953594" lon="7.794219267605897"><ele>246.0</ele><time>2026-04-10T10:53:47Z</time></trkpt><trkpt lat="44.867346845940006" lon="7.794198801829988"><ele>246.0</ele><time>2026-04-10T10:53:49Z</time></trkpt><trkpt lat="44.86746296497336" lon="7.794170235896972"><ele>246.0</ele><time>2026-04-10T10:53:51Z</time></trkpt><trkpt lat="44.86758125171251" lon="7.794141119577467"><ele>246.0</ele><time>2026-04-10T10:53:53Z</time></trkpt><trkpt lat="44.86769642231715" lon="7.794115145968124"><ele>246.0</ele><time>2026-04-10T10:53:55Z</time></trkpt><trkpt lat="44.86781563073122" lon="7.7940913320072545"><ele>246.0</ele><time>2026-04-10T10:53:57Z</time></trkpt><trkpt lat="44.86793330564213" lon="7.794062499662924"><ele>246.0</ele><time>2026-04-10T10:53:59Z</time></trkpt><trkpt lat="44.8680487207452" lon="7.79403477623606"><ele>246.0</ele><time>2026-04-10T10:54:01Z</time></trkpt><trkpt lat="44.86817005068883" lon="7.79400247017233"><ele>246.0</ele><time>2026-04-10T10:54:03Z</time></trkpt><trkpt lat="44.86828401046565" lon="7.793975965246379"><ele>246.0</ele><time>2026-04-10T10:54:05Z</time></trkpt><trkpt lat="44.86840298848927" lon="7.793952401834259"><ele>245.75</ele><time>2026-04-10T10:54:07Z</time></trkpt><trkpt lat="44.86851761366751" lon="7.793919153374062"><ele>245.5</ele><time>2026-04-10T10:54:09Z</time></trkpt><trkpt lat="44.868630414879796" lon="7.7938948549192615"><ele>245.25</ele><time>2026-04-10T10:54:11Z</time></trkpt><trkpt lat="44.86874256961847" lon="7.793864568634373"><ele>245.0</ele><time>2026-04-10T10:54:13Z</time></trkpt><trkpt lat="44.868853261355895" lon="7.793836996910136"><ele>245.0</ele><time>2026-04-10T10:54:15Z</time></trkpt><trkpt lat="44.86894593997452" lon="7.793792547512877"><ele>245.0</ele><time>2026-04-10T10:54:17Z</time></trkpt><trkpt lat="44.86903488518666" lon="7.793754108413028"><ele>245.0</ele><time>2026-04-10T10:54:19Z</time></trkpt><trkpt lat="44.86909755281936" lon="7.793726303165839"><ele>245.0</ele><time>2026-04-10T10:54:22Z</time></trkpt><trkpt lat="44.8690975519484" lon="7.793888199386074"><ele>245.0</ele><time>2026-04-10T10:54:24Z</time></trkpt><trkpt lat="44.869127938629305" lon="7.794010592738076"><ele>245.00000000000003</ele><time>2026-04-10T10:54:26Z</time></trkpt><trkpt lat="44.8691623505875" lon="7.7941360815575145"><ele>245.0</ele><time>2026-04-10T10:54:27.999Z</time></trkpt><trkpt lat="44.86919527288576" lon="7.794255510738085"><ele>245.0</ele><time>2026-04-10T10:54:29.999Z</time></trkpt><trkpt lat="44.8692252879392" lon="7.794364393601461"><ele>245.0</ele><time>2026-04-10T10:54:31.999Z</time></trkpt><trkpt lat="44.869278157403116" lon="7.794468493983445"><ele>245.00000000000003</ele><time>2026-04-10T10:54:33.999Z</time></trkpt><trkpt lat="44.86930960319911" lon="7.794583191966834"><ele>245.0</ele><time>2026-04-10T10:54:35.999Z</time></trkpt><trkpt lat="44.869340582277935" lon="7.794701424570593"><ele>245.16666666666669</ele><time>2026-04-10T10:54:37.999Z</time></trkpt><trkpt lat="44.86937387137869" lon="7.794818938948086"><ele>245.33333333333334</ele><time>2026-04-10T10:54:39.999Z</time></trkpt><trkpt lat="44.86940270528609" lon="7.794929955187903"><ele>245.5</ele><time>2026-04-10T10:54:41.999Z</time></trkpt><trkpt lat="44.86943317746482" lon="7.795055207689952"><ele>245.66666666666669</ele><time>2026-04-10T10:54:43.999Z</time></trkpt><trkpt lat="44.86946478331637" lon="7.79517040526549"><ele>245.83333333333334</ele><time>2026-04-10T10:54:45.999Z</time></trkpt><trkpt lat="44.86949811236862" lon="7.795291030193918"><ele>246.0</ele><time>2026-04-10T10:54:47.999Z</time></trkpt><trkpt lat="44.8695287248218" lon="7.795410156792554"><ele>246.0</ele><time>2026-04-10T10:54:49.999Z</time></trkpt><trkpt lat="44.86955652274675" lon="7.795490621978383"><ele>246.0</ele><time>2026-04-10T10:54:50.999Z</time></trkpt><trkpt lat="44.86956369119774" lon="7.795615046764489"><ele>246.0</ele><time>2026-04-10T10:54:52.999Z</time></trkpt><trkpt lat="44.8695960268602" lon="7.795734757590381"><ele>246.0</ele><time>2026-04-10T10:54:54.999Z</time></trkpt><trkpt lat="44.86962842483045" lon="7.795852290389304"><ele>246.0</ele><time>2026-04-10T10:54:56.999Z</time></trkpt><trkpt lat="44.86966265120187" lon="7.795975974212938"><ele>246.0</ele><time>2026-04-10T10:54:58.999Z</time></trkpt><trkpt lat="44.869697002326646" lon="7.7960967589905765"><ele>246.0</ele><time>2026-04-10T10:55:00.999Z</time></trkpt><trkpt lat="44.86973062580144" lon="7.796216965702076"><ele>246.00000000000003</ele><time>2026-04-10T10:55:02.999Z</time></trkpt><trkpt lat="44.86976484100671" lon="7.796344301179283"><ele>246.00000000000003</ele><time>2026-04-10T10:55:05Z</time></trkpt><trkpt lat="44.869805931130216" lon="7.7964972222534525"><ele>246.0</ele><time>2026-04-10T10:55:08Z</time></trkpt><trkpt lat="44.869852337249355" lon="7.796669034046357"><ele>246.0</ele><time>2026-04-10T10:55:10Z</time></trkpt><trkpt lat="44.86988598442635" lon="7.796793003034719"><ele>245.60000000000002</ele><time>2026-04-10T10:55:12Z</time></trkpt><trkpt lat="44.86991881523885" lon="7.796913964271929"><ele>245.20000000000002</ele><time>2026-04-10T10:55:14Z</time></trkpt><trkpt lat="44.86995180181237" lon="7.797035499344391"><ele>244.79999999999998</ele><time>2026-04-10T10:55:16Z</time></trkpt><trkpt lat="44.86998547535427" lon="7.797159565481324"><ele>244.39999999999998</ele><time>2026-04-10T10:55:18Z</time></trkpt><trkpt lat="44.87001899410235" lon="7.797283061305216"><ele>244.0</ele><time>2026-04-10T10:55:20Z</time></trkpt><trkpt lat="44.8700741564155" lon="7.79738745375843"><ele>244.0</ele><time>2026-04-10T10:55:22Z</time></trkpt><trkpt lat="44.87010084775951" lon="7.797502909912814"><ele>243.99999999999997</ele><time>2026-04-10T10:55:24Z</time></trkpt><trkpt lat="44.87013454549909" lon="7.79762007470123"><ele>243.99999999999997</ele><time>2026-04-10T10:55:26Z</time></trkpt><trkpt lat="44.87016580550709" lon="7.797735547842032"><ele>244.0</ele><time>2026-04-10T10:55:28Z</time></trkpt><trkpt lat="44.87021036388289" lon="7.797906691628034"><ele>244.0</ele><time>2026-04-10T10:55:31Z</time></trkpt><trkpt lat="44.870242550758206" lon="7.798025959367906"><ele>244.0</ele><time>2026-04-10T10:55:33Z</time></trkpt><trkpt lat="44.8702772385544" lon="7.798139597561296"><ele>243.99999999999997</ele><time>2026-04-10T10:55:35Z</time></trkpt><trkpt lat="44.87033879178782" lon="7.798377468368305"><ele>243.99999999999997</ele><time>2026-04-10T10:55:39Z</time></trkpt><trkpt lat="44.87036691390011" lon="7.798490888431913"><ele>244.0</ele><time>2026-04-10T10:55:41Z</time></trkpt><trkpt lat="44.87040207576596" lon="7.7986048499908724"><ele>244.0</ele><time>2026-04-10T10:55:43Z</time></trkpt><trkpt lat="44.870436797621906" lon="7.7987176233973035"><ele>243.99999999999997</ele><time>2026-04-10T10:55:45Z</time></trkpt><trkpt lat="44.870461587895406" lon="7.798841911830568"><ele>244.0</ele><time>2026-04-10T10:55:47Z</time></trkpt><trkpt lat="44.87050466623688" lon="7.798947062188969"><ele>244.0</ele><time>2026-04-10T10:55:49Z</time></trkpt><trkpt lat="44.8705203398748" lon="7.799048768343372"><ele>244.0</ele><time>2026-04-10T10:55:52Z</time></trkpt><trkpt lat="44.87054930694662" lon="7.799155006802769"><ele>243.99999999999997</ele><time>2026-04-10T10:55:54Z</time></trkpt><trkpt lat="44.870573209655205" lon="7.79925421234041"><ele>244.0</ele><time>2026-04-10T10:55:56Z</time></trkpt><trkpt lat="44.87064335737615" lon="7.7994617753641196"><ele>243.99999999999997</ele><time>2026-04-10T10:55:58Z</time></trkpt><trkpt lat="44.87066921441807" lon="7.799574088076101"><ele>244.0</ele><time>2026-04-10T10:56:00Z</time></trkpt><trkpt lat="44.8707042896804" lon="7.7996649306821375"><ele>244.0</ele><time>2026-04-10T10:56:02Z</time></trkpt><trkpt lat="44.87073419126994" lon="7.799747020961867"><ele>244.0</ele><time>2026-04-10T10:56:04Z</time></trkpt><trkpt lat="44.870791156903955" lon="7.7998332234393075"><ele>243.99999999999997</ele><time>2026-04-10T10:56:06Z</time></trkpt><trkpt lat="44.870889125301694" lon="7.799861922996552"><ele>244.0</ele><time>2026-04-10T10:56:08Z</time></trkpt><trkpt lat="44.87098479277729" lon="7.799906204776149"><ele>244.0</ele><time>2026-04-10T10:56:10Z</time></trkpt><trkpt lat="44.871085829753945" lon="7.799937824413044"><ele>243.99999999999997</ele><time>2026-04-10T10:56:12Z</time></trkpt><trkpt lat="44.871182934820986" lon="7.800000015360107"><ele>243.99999999999997</ele><time>2026-04-10T10:56:14Z</time></trkpt><trkpt lat="44.871286809512064" lon="7.800036860919464"><ele>244.0</ele><time>2026-04-10T10:56:16Z</time></trkpt><trkpt lat="44.871379218050976" lon="7.800069639301742"><ele>244.0</ele><time>2026-04-10T10:56:18Z</time></trkpt><trkpt lat="44.87148365921237" lon="7.800106442337683"><ele>244.0</ele><time>2026-04-10T10:56:20Z</time></trkpt><trkpt lat="44.87158771808888" lon="7.800143832547184"><ele>243.99999999999997</ele><time>2026-04-10T10:56:22Z</time></trkpt><trkpt lat="44.87168522023866" lon="7.8001788668006204"><ele>243.99999999999997</ele><time>2026-04-10T10:56:24Z</time></trkpt><trkpt lat="44.87178448260668" lon="7.8002145335224276"><ele>244.0</ele><time>2026-04-10T10:56:26Z</time></trkpt><trkpt lat="44.87188561570534" lon="7.80025087244635"><ele>244.0</ele><time>2026-04-10T10:56:28Z</time></trkpt><trkpt lat="44.87198561130612" lon="7.800286802628743"><ele>244.2</ele><time>2026-04-10T10:56:30Z</time></trkpt><trkpt lat="44.872080268910956" lon="7.8003205598130325"><ele>244.39999999999998</ele><time>2026-04-10T10:56:32Z</time></trkpt><trkpt lat="44.87218163824433" lon="7.80035516268693"><ele>244.6</ele><time>2026-04-10T10:56:34Z</time></trkpt><trkpt lat="44.87227926267307" lon="7.800388487185355"><ele>244.8</ele><time>2026-04-10T10:56:36Z</time></trkpt><trkpt lat="44.87237881884763" lon="7.800422471114307"><ele>245.0</ele><time>2026-04-10T10:56:38Z</time></trkpt><trkpt lat="44.87247306937541" lon="7.8004562539417135"><ele>245.0</ele><time>2026-04-10T10:56:40Z</time></trkpt><trkpt lat="44.87256847068011" lon="7.8004919118094955"><ele>245.0</ele><time>2026-04-10T10:56:42Z</time></trkpt><trkpt lat="44.87266303221667" lon="7.800527255765256"><ele>245.0</ele><time>2026-04-10T10:56:44Z</time></trkpt><trkpt lat="44.87276291277573" lon="7.800564587842044"><ele>245.0</ele><time>2026-04-10T10:56:46Z</time></trkpt><trkpt lat="44.872858486307784" lon="7.800600311879476"><ele>245.0</ele><time>2026-04-10T10:56:48Z</time></trkpt><trkpt lat="44.87295409814152" lon="7.800636048535105"><ele>245.0</ele><time>2026-04-10T10:56:50Z</time></trkpt><trkpt lat="44.87305050716615" lon="7.800671402069089"><ele>245.0</ele><time>2026-04-10T10:56:52Z</time></trkpt><trkpt lat="44.87314410924403" lon="7.800705094754548"><ele>245.0</ele><time>2026-04-10T10:56:54Z</time></trkpt><trkpt lat="44.873235703762504" lon="7.800738064809545"><ele>245.0</ele><time>2026-04-10T10:56:55.999Z</time></trkpt><trkpt lat="44.873328776003696" lon="7.800771566753971"><ele>245.0</ele><time>2026-04-10T10:56:57.999Z</time></trkpt><trkpt lat="44.87342262316301" lon="7.800805347652902"><ele>245.0</ele><time>2026-04-10T10:56:59.999Z</time></trkpt><trkpt lat="44.87351688255649" lon="7.800839278301383"><ele>245.0</ele><time>2026-04-10T10:57:01.999Z</time></trkpt><trkpt lat="44.87360644008437" lon="7.800869371832965"><ele>245.0</ele><time>2026-04-10T10:57:03.999Z</time></trkpt><trkpt lat="44.873700335324266" lon="7.800901764427802"><ele>245.0</ele><time>2026-04-10T10:57:05.999Z</time></trkpt><trkpt lat="44.87378972880958" lon="7.800932603777475"><ele>245.0</ele><time>2026-04-10T10:57:07.999Z</time></trkpt><trkpt lat="44.873880078992485" lon="7.800967652250327"><ele>244.8</ele><time>2026-04-10T10:57:09.999Z</time></trkpt><trkpt lat="44.87397008130423" lon="7.800999836843762"><ele>244.6</ele><time>2026-04-10T10:57:12Z</time></trkpt><trkpt lat="44.87406939274481" lon="7.801034965777865"><ele>244.39999999999998</ele><time>2026-04-10T10:57:14Z</time></trkpt><trkpt lat="44.87416149948914" lon="7.801067546216703"><ele>244.2</ele><time>2026-04-10T10:57:16Z</time></trkpt><trkpt lat="44.87425501374789" lon="7.8011006245325225"><ele>244.0</ele><time>2026-04-10T10:57:18Z</time></trkpt><trkpt lat="44.87436657974928" lon="7.801141947134946"><ele>243.6</ele><time>2026-04-10T10:57:21Z</time></trkpt><trkpt lat="44.87446555963078" lon="7.801178712225057"><ele>243.2</ele><time>2026-04-10T10:57:23Z</time></trkpt><trkpt lat="44.87452916934813" lon="7.8012020336950645"><ele>242.79999999999998</ele><time>2026-04-10T10:57:24Z</time></trkpt><trkpt lat="44.87463073236793" lon="7.801237647556854"><ele>242.39999999999998</ele><time>2026-04-10T10:57:26Z</time></trkpt><trkpt lat="44.874725755707225" lon="7.801270968188984"><ele>242.0</ele><time>2026-04-10T10:57:28Z</time></trkpt><trkpt lat="44.87483034548566" lon="7.801307643359756"><ele>242.0</ele><time>2026-04-10T10:57:30Z</time></trkpt><trkpt lat="44.87493292965794" lon="7.801343615287248"><ele>242.0</ele><time>2026-04-10T10:57:32Z</time></trkpt><trkpt lat="44.87502915516447" lon="7.801377357485894"><ele>242.0</ele><time>2026-04-10T10:57:34Z</time></trkpt><trkpt lat="44.8751300518752" lon="7.801412737681495"><ele>242.0</ele><time>2026-04-10T10:57:36Z</time></trkpt><trkpt lat="44.875228181716636" lon="7.801448564772483"><ele>242.0</ele><time>2026-04-10T10:57:38Z</time></trkpt><trkpt lat="44.87532354135884" lon="7.801483807323414"><ele>242.39999999999998</ele><time>2026-04-10T10:57:40Z</time></trkpt><trkpt lat="44.87541088614488" lon="7.80151608780943"><ele>242.79999999999998</ele><time>2026-04-10T10:57:42Z</time></trkpt><trkpt lat="44.87551376207462" lon="7.801554108172446"><ele>243.2</ele><time>2026-04-10T10:57:44Z</time></trkpt><trkpt lat="44.875612210741295" lon="7.801590492350336"><ele>243.6</ele><time>2026-04-10T10:57:46Z</time></trkpt><trkpt lat="44.87571021366877" lon="7.801626711807947"><ele>244.0</ele><time>2026-04-10T10:57:48Z</time></trkpt><trkpt lat="44.87581047920217" lon="7.801663767425259"><ele>244.0</ele><time>2026-04-10T10:57:50Z</time></trkpt><trkpt lat="44.87590937085909" lon="7.801697879370021"><ele>243.99999999999997</ele><time>2026-04-10T10:57:52Z</time></trkpt><trkpt lat="44.876016510088405" lon="7.801734848938143"><ele>243.99999999999997</ele><time>2026-04-10T10:57:54Z</time></trkpt><trkpt lat="44.87611570176692" lon="7.801769184388648"><ele>244.0</ele><time>2026-04-10T10:57:56Z</time></trkpt><trkpt lat="44.87621008407118" lon="7.801802771231866"><ele>244.0</ele><time>2026-04-10T10:57:58Z</time></trkpt><trkpt lat="44.87630298071732" lon="7.80183730113971"><ele>244.0</ele><time>2026-04-10T10:58:00Z</time></trkpt><trkpt lat="44.87640202532204" lon="7.801874356456855"><ele>243.99999999999997</ele><time>2026-04-10T10:58:02Z</time></trkpt><trkpt lat="44.87649969357558" lon="7.801907980728791"><ele>243.99999999999997</ele><time>2026-04-10T10:58:04Z</time></trkpt><trkpt lat="44.87659461975821" lon="7.801940449951121"><ele>244.0</ele><time>2026-04-10T10:58:06Z</time></trkpt><trkpt lat="44.87669603784735" lon="7.801975139742309"><ele>244.0</ele><time>2026-04-10T10:58:08Z</time></trkpt><trkpt lat="44.87679110623228" lon="7.802008135555823"><ele>244.0</ele><time>2026-04-10T10:58:10Z</time></trkpt><trkpt lat="44.876884708412646" lon="7.802040843560048"><ele>243.99999999999997</ele><time>2026-04-10T10:58:12Z</time></trkpt><trkpt lat="44.87698901590706" lon="7.802036233154503"><ele>243.99999999999997</ele><time>2026-04-10T10:58:14Z</time></trkpt><trkpt lat="44.8770812674895" lon="7.80210952845515"><ele>244.0</ele><time>2026-04-10T10:58:16Z</time></trkpt><trkpt lat="44.877182642754086" lon="7.802146098776105"><ele>244.0</ele><time>2026-04-10T10:58:18Z</time></trkpt><trkpt lat="44.87728056557925" lon="7.8021816569609665"><ele>244.0</ele><time>2026-04-10T10:58:20Z</time></trkpt><trkpt lat="44.87737996916218" lon="7.802217752850329"><ele>243.99999999999997</ele><time>2026-04-10T10:58:22Z</time></trkpt><trkpt lat="44.87747846854305" lon="7.8022510809399135"><ele>243.99999999999997</ele><time>2026-04-10T10:58:24Z</time></trkpt><trkpt lat="44.87757879168233" lon="7.802286037013745"><ele>244.0</ele><time>2026-04-10T10:58:26Z</time></trkpt><trkpt lat="44.87768406816981" lon="7.802324159656821"><ele>244.0</ele><time>2026-04-10T10:58:28Z</time></trkpt><trkpt lat="44.8777870422747" lon="7.802362243271623"><ele>243.79999999999998</ele><time>2026-04-10T10:58:30Z</time></trkpt><trkpt lat="44.87788844432689" lon="7.8024001542242605"><ele>243.59999999999997</ele><time>2026-04-10T10:58:32Z</time></trkpt><trkpt lat="44.87799233024356" lon="7.802438993795824"><ele>243.4</ele><time>2026-04-10T10:58:34Z</time></trkpt><trkpt lat="44.87809315765459" lon="7.802475656849017"><ele>243.2</ele><time>2026-04-10T10:58:36Z</time></trkpt><trkpt lat="44.87819348915871" lon="7.802511973044086"><ele>243.0</ele><time>2026-04-10T10:58:38Z</time></trkpt><trkpt lat="44.878294180352704" lon="7.802548419435377"><ele>243.0</ele><time>2026-04-10T10:58:40Z</time></trkpt><trkpt lat="44.8783976263987" lon="7.802585864813562"><ele>243.0</ele><time>2026-04-10T10:58:42Z</time></trkpt><trkpt lat="44.87850125256864" lon="7.802623373595914"><ele>243.0</ele><time>2026-04-10T10:58:44Z</time></trkpt><trkpt lat="44.87860495863899" lon="7.802661256767553"><ele>243.0</ele><time>2026-04-10T10:58:46Z</time></trkpt><trkpt lat="44.87870569861098" lon="7.802698415108551"><ele>243.0</ele><time>2026-04-10T10:58:48Z</time></trkpt><trkpt lat="44.87881247092182" lon="7.802737798477477"><ele>243.0</ele><time>2026-04-10T10:58:50Z</time></trkpt><trkpt lat="44.878916551978705" lon="7.802776189113806"><ele>243.0</ele><time>2026-04-10T10:58:52Z</time></trkpt><trkpt lat="44.879020693852866" lon="7.802814602249883"><ele>243.0</ele><time>2026-04-10T10:58:54Z</time></trkpt><trkpt lat="44.87912484607987" lon="7.802853019163825"><ele>243.0</ele><time>2026-04-10T10:58:56Z</time></trkpt><trkpt lat="44.879229186715584" lon="7.802891482954235"><ele>243.0</ele><time>2026-04-10T10:58:57.999Z</time></trkpt><trkpt lat="44.87933208362715" lon="7.802928995875342"><ele>243.2</ele><time>2026-04-10T10:58:59.999Z</time></trkpt><trkpt lat="44.879436961297586" lon="7.802967230923051"><ele>243.4</ele><time>2026-04-10T10:59:01.999Z</time></trkpt><trkpt lat="44.87953854000812" lon="7.8030042632947"><ele>243.59999999999997</ele><time>2026-04-10T10:59:03.999Z</time></trkpt><trkpt lat="44.87963823594023" lon="7.803040609252319"><ele>243.79999999999998</ele><time>2026-04-10T10:59:05.999Z</time></trkpt><trkpt lat="44.87974026458172" lon="7.803077000278357"><ele>244.0</ele><time>2026-04-10T10:59:07.999Z</time></trkpt><trkpt lat="44.879838503537194" lon="7.803110740016909"><ele>244.0</ele><time>2026-04-10T10:59:09.999Z</time></trkpt><trkpt lat="44.879941032295285" lon="7.80314595307346"><ele>243.99999999999997</ele><time>2026-04-10T10:59:11.999Z</time></trkpt><trkpt lat="44.8800410604907" lon="7.803180307307683"><ele>243.99999999999997</ele><time>2026-04-10T10:59:13.999Z</time></trkpt><trkpt lat="44.88014398991827" lon="7.803216981516317"><ele>244.0</ele><time>2026-04-10T10:59:15.999Z</time></trkpt><trkpt lat="44.88024475394462" lon="7.8032549528482456"><ele>244.0</ele><time>2026-04-10T10:59:18Z</time></trkpt><trkpt lat="44.880346465405715" lon="7.803293664359404"><ele>244.0</ele><time>2026-04-10T10:59:20Z</time></trkpt><trkpt lat="44.88044931912306" lon="7.803332810606417"><ele>243.99999999999997</ele><time>2026-04-10T10:59:22Z</time></trkpt><trkpt lat="44.88055107162168" lon="7.803371281511508"><ele>243.99999999999997</ele><time>2026-04-10T10:59:24Z</time></trkpt><trkpt lat="44.88064662125723" lon="7.803406978603085"><ele>244.0</ele><time>2026-04-10T10:59:26Z</time></trkpt><trkpt lat="44.880751292385625" lon="7.803446083467831"><ele>244.0</ele><time>2026-04-10T10:59:28Z</time></trkpt><trkpt lat="44.88083704811262" lon="7.8034781215784825"><ele>243.25</ele><time>2026-04-10T10:59:30Z</time></trkpt><trkpt lat="44.88093377215701" lon="7.8035142574126235"><ele>242.5</ele><time>2026-04-10T10:59:32Z</time></trkpt><trkpt lat="44.88103323522299" lon="7.803551416575982"><ele>241.75</ele><time>2026-04-10T10:59:34Z</time></trkpt><trkpt lat="44.88113540525555" lon="7.803589587016304"><ele>241.0</ele><time>2026-04-10T10:59:36Z</time></trkpt><trkpt lat="44.88129579544867" lon="7.803649508167006"><ele>241.0</ele><time>2026-04-10T10:59:39Z</time></trkpt><trkpt lat="44.881391990109194" lon="7.803684071664521"><ele>241.00000000000003</ele><time>2026-04-10T10:59:41Z</time></trkpt><trkpt lat="44.88149195995303" lon="7.803716688436808"><ele>241.00000000000003</ele><time>2026-04-10T10:59:43Z</time></trkpt><trkpt lat="44.88159654450502" lon="7.803750810829802"><ele>241.0</ele><time>2026-04-10T10:59:45Z</time></trkpt><trkpt lat="44.881690655971404" lon="7.80378272425697"><ele>241.0</ele><time>2026-04-10T10:59:47Z</time></trkpt><trkpt lat="44.88178973902638" lon="7.803793625110018"><ele>240.8</ele><time>2026-04-10T10:59:49Z</time></trkpt><trkpt lat="44.88189234180388" lon="7.803852234951018"><ele>240.60000000000002</ele><time>2026-04-10T10:59:51Z</time></trkpt><trkpt lat="44.88199167101543" lon="7.803884655788419"><ele>240.4</ele><time>2026-04-10T10:59:53Z</time></trkpt><trkpt lat="44.882091539138145" lon="7.803914501420259"><ele>240.2</ele><time>2026-04-10T10:59:55Z</time></trkpt><trkpt lat="44.882197907414564" lon="7.803946289665372"><ele>240.0</ele><time>2026-04-10T10:59:57Z</time></trkpt><trkpt lat="44.88229465235181" lon="7.803978328174386"><ele>240.0</ele><time>2026-04-10T10:59:59Z</time></trkpt><trkpt lat="44.882380410558106" lon="7.804012610629533"><ele>240.0</ele><time>2026-04-10T11:00:01Z</time></trkpt><trkpt lat="44.88243806889102" lon="7.804082787660437"><ele>240.0</ele><time>2026-04-10T11:00:03Z</time></trkpt><trkpt lat="44.88241792296045" lon="7.804199873290131"><ele>240.0</ele><time>2026-04-10T11:00:05Z</time></trkpt><trkpt lat="44.88238175516826" lon="7.8043198251662504"><ele>240.0</ele><time>2026-04-10T11:00:07Z</time></trkpt><trkpt lat="44.88235387407133" lon="7.804461453402452"><ele>240.0</ele><time>2026-04-10T11:00:09Z</time></trkpt><trkpt lat="44.882328471764204" lon="7.804594284538635"><ele>240.2</ele><time>2026-04-10T11:00:11Z</time></trkpt><trkpt lat="44.882304602732034" lon="7.804719098063703"><ele>240.4</ele><time>2026-04-10T11:00:13Z</time></trkpt><trkpt lat="44.88228082861754" lon="7.804843415314299"><ele>240.60000000000002</ele><time>2026-04-10T11:00:15Z</time></trkpt><trkpt lat="44.88227864396151" lon="7.804993722850704"><ele>240.8</ele><time>2026-04-10T11:00:17Z</time></trkpt><trkpt lat="44.882252588718174" lon="7.805115781897848"><ele>241.0</ele><time>2026-04-10T11:00:19Z</time></trkpt><trkpt lat="44.88222329508623" lon="7.805240580914968"><ele>241.20000000000002</ele><time>2026-04-10T11:00:21Z</time></trkpt><trkpt lat="44.88219749075322" lon="7.8053690363505615"><ele>241.40000000000003</ele><time>2026-04-10T11:00:23Z</time></trkpt><trkpt lat="44.882158278043754" lon="7.805503617001653"><ele>241.6</ele><time>2026-04-10T11:00:25Z</time></trkpt><trkpt lat="44.88213251468143" lon="7.805641360638318"><ele>241.8</ele><time>2026-04-10T11:00:27Z</time></trkpt><trkpt lat="44.882108290979104" lon="7.805768574713995"><ele>242.0</ele><time>2026-04-10T11:00:29Z</time></trkpt><trkpt lat="44.8820860965774" lon="7.805885131958756"><ele>242.83333333333334</ele><time>2026-04-10T11:00:31Z</time></trkpt><trkpt lat="44.882061768594625" lon="7.806012893610066"><ele>243.66666666666669</ele><time>2026-04-10T11:00:33Z</time></trkpt><trkpt lat="44.88203961796183" lon="7.806129220688154"><ele>244.5</ele><time>2026-04-10T11:00:35Z</time></trkpt><trkpt lat="44.882020018349564" lon="7.806244444321342"><ele>245.33333333333331</ele><time>2026-04-10T11:00:37Z</time></trkpt><trkpt lat="44.882003170856954" lon="7.806355469878037"><ele>246.16666666666666</ele><time>2026-04-10T11:00:39Z</time></trkpt><trkpt lat="44.8820022950524" lon="7.806467306397492"><ele>247.0</ele><time>2026-04-10T11:00:41Z</time></trkpt><trkpt lat="44.88197158008753" lon="7.806564306267719"><ele>247.0</ele><time>2026-04-10T11:00:43Z</time></trkpt><trkpt lat="44.88195804295355" lon="7.806653795658906"><ele>247.0</ele><time>2026-04-10T11:00:44.999Z</time></trkpt><trkpt lat="44.88194410333655" lon="7.806743018315231"><ele>247.0</ele><time>2026-04-10T11:00:46.999Z</time></trkpt><trkpt lat="44.88193716698238" lon="7.806866051374071"><ele>247.0</ele><time>2026-04-10T11:00:49.999Z</time></trkpt><trkpt lat="44.881922913251756" lon="7.80697063957151"><ele>247.0</ele><time>2026-04-10T11:00:52.999Z</time></trkpt><trkpt lat="44.881903665783895" lon="7.807069358516609"><ele>247.0</ele><time>2026-04-10T11:00:55.999Z</time></trkpt><trkpt lat="44.88188834201725" lon="7.807155877103023"><ele>247.0</ele><time>2026-04-10T11:00:58.999Z</time></trkpt><trkpt lat="44.88186614326548" lon="7.807256459643636"><ele>247.57142857142858</ele><time>2026-04-10T11:01:02.999Z</time></trkpt><trkpt lat="44.881860679039626" lon="7.80735676004349"><ele>248.1428571428571</ele><time>2026-04-10T11:01:06.999Z</time></trkpt><trkpt lat="44.881815460027916" lon="7.807446205598599"><ele>248.7142857142857</ele><time>2026-04-10T11:01:10.999Z</time></trkpt><trkpt lat="44.88177121302034" lon="7.807542994840987"><ele>249.28571428571428</ele><time>2026-04-10T11:01:14.999Z</time></trkpt><trkpt lat="44.88172006371348" lon="7.807614728762153"><ele>249.85714285714283</ele><time>2026-04-10T11:01:18.999Z</time></trkpt><trkpt lat="44.88166715025939" lon="7.807677473389525"><ele>250.4285714285714</ele><time>2026-04-10T11:01:20.999Z</time></trkpt><trkpt lat="44.88160245418064" lon="7.80772017637768"><ele>250.99999999999997</ele><time>2026-04-10T11:01:24Z</time></trkpt><trkpt lat="44.88152681103463" lon="7.807769221970047"><ele>251.83333333333334</ele><time>2026-04-10T11:01:28Z</time></trkpt><trkpt lat="44.8814523743503" lon="7.807825905423465"><ele>252.66666666666669</ele><time>2026-04-10T11:01:32Z</time></trkpt><trkpt lat="44.88138870702463" lon="7.807862407974093"><ele>253.5</ele><time>2026-04-10T11:01:35Z</time></trkpt><trkpt lat="44.88131829155742" lon="7.807907706961835"><ele>254.33333333333331</ele><time>2026-04-10T11:01:38Z</time></trkpt><trkpt lat="44.881241903796095" lon="7.807960757136561"><ele>255.16666666666666</ele><time>2026-04-10T11:01:41Z</time></trkpt><trkpt lat="44.881171538074845" lon="7.808026751723879"><ele>256.0</ele><time>2026-04-10T11:01:44Z</time></trkpt><trkpt lat="44.881092250662206" lon="7.808088373714629"><ele>255.99999999999997</ele><time>2026-04-10T11:01:47Z</time></trkpt><trkpt lat="44.88103911497629" lon="7.808139797877716"><ele>256.0</ele><time>2026-04-10T11:01:49Z</time></trkpt><trkpt lat="44.88095856757022" lon="7.8082019460637815"><ele>256.0</ele><time>2026-04-10T11:01:52Z</time></trkpt><trkpt lat="44.880880616710115" lon="7.808270596416259"><ele>256.0</ele><time>2026-04-10T11:01:55Z</time></trkpt><trkpt lat="44.88080816073458" lon="7.808352949308451"><ele>255.99999999999997</ele><time>2026-04-10T11:01:58Z</time></trkpt><trkpt lat="44.88073380896915" lon="7.808420836647019"><ele>256.0</ele><time>2026-04-10T11:02:01Z</time></trkpt><trkpt lat="44.88066042319946" lon="7.808500929001377"><ele>256.3333333333333</ele><time>2026-04-10T11:02:04Z</time></trkpt><trkpt lat="44.88059738939478" lon="7.808597297696501"><ele>256.66666666666663</ele><time>2026-04-10T11:02:07Z</time></trkpt><trkpt lat="44.88053234094309" lon="7.808698142209666"><ele>257.0</ele><time>2026-04-10T11:02:10Z</time></trkpt><trkpt lat="44.88048994824521" lon="7.808769772184301"><ele>257.3333333333333</ele><time>2026-04-10T11:02:12Z</time></trkpt><trkpt lat="44.8804432289685" lon="7.808840043507101"><ele>257.6666666666667</ele><time>2026-04-10T11:02:14Z</time></trkpt><trkpt lat="44.8803930645313" lon="7.808908558755628"><ele>258.0</ele><time>2026-04-10T11:02:16Z</time></trkpt><trkpt lat="44.88035010230591" lon="7.808993398462664"><ele>257.99999999999994</ele><time>2026-04-10T11:02:18Z</time></trkpt><trkpt lat="44.8803059454765" lon="7.8090716604728305"><ele>258.0</ele><time>2026-04-10T11:02:20Z</time></trkpt><trkpt lat="44.880264718858015" lon="7.809156634722179"><ele>258.0</ele><time>2026-04-10T11:02:22Z</time></trkpt><trkpt lat="44.88022084888731" lon="7.8092377189357824"><ele>258.0</ele><time>2026-04-10T11:02:24Z</time></trkpt><trkpt lat="44.8801801260173" lon="7.809322969397727"><ele>258.0</ele><time>2026-04-10T11:02:26Z</time></trkpt><trkpt lat="44.880134042753596" lon="7.8094043455624975"><ele>257.99999999999994</ele><time>2026-04-10T11:02:28Z</time></trkpt><trkpt lat="44.8800977446012" lon="7.80949398373544"><ele>258.0</ele><time>2026-04-10T11:02:30Z</time></trkpt><trkpt lat="44.880062565696136" lon="7.809584526882645"><ele>257.99999999999994</ele><time>2026-04-10T11:02:32Z</time></trkpt><trkpt lat="44.88002578840809" lon="7.809673002902688"><ele>258.0</ele><time>2026-04-10T11:02:34Z</time></trkpt><trkpt lat="44.87999904362021" lon="7.809763990039832"><ele>258.0</ele><time>2026-04-10T11:02:36Z</time></trkpt><trkpt lat="44.879983595080645" lon="7.8098589230271624"><ele>258.0</ele><time>2026-04-10T11:02:38Z</time></trkpt><trkpt lat="44.879953883614455" lon="7.8099478384627865"><ele>258.0</ele><time>2026-04-10T11:02:40Z</time></trkpt><trkpt lat="44.879921201955" lon="7.810038020368111"><ele>257.99999999999994</ele><time>2026-04-10T11:02:42Z</time></trkpt><trkpt lat="44.87989216441703" lon="7.810132815534027"><ele>258.0</ele><time>2026-04-10T11:02:44Z</time></trkpt><trkpt lat="44.879865699143046" lon="7.810233654044864"><ele>258.0</ele><time>2026-04-10T11:02:45.999Z</time></trkpt><trkpt lat="44.87983644113186" lon="7.810341070626312"><ele>258.0</ele><time>2026-04-10T11:02:47.999Z</time></trkpt><trkpt lat="44.879808703585155" lon="7.810450506662635"><ele>258.0</ele><time>2026-04-10T11:02:49.999Z</time></trkpt><trkpt lat="44.87977516176066" lon="7.810562402241023"><ele>258.0</ele><time>2026-04-10T11:02:51.999Z</time></trkpt><trkpt lat="44.87973636802735" lon="7.810668732855165"><ele>258.0</ele><time>2026-04-10T11:02:53.999Z</time></trkpt><trkpt lat="44.879695894084676" lon="7.810774876161728"><ele>258.0</ele><time>2026-04-10T11:02:55.999Z</time></trkpt><trkpt lat="44.87964987625722" lon="7.810876584089071"><ele>258.0</ele><time>2026-04-10T11:02:57.999Z</time></trkpt><trkpt lat="44.8795880164602" lon="7.810962963258484"><ele>258.0</ele><time>2026-04-10T11:02:59.999Z</time></trkpt><trkpt lat="44.87951540794536" lon="7.811033070494332"><ele>258.0</ele><time>2026-04-10T11:03:01.999Z</time></trkpt><trkpt lat="44.87944251298566" lon="7.811110676421177"><ele>258.0</ele><time>2026-04-10T11:03:03.999Z</time></trkpt><trkpt lat="44.879364777620786" lon="7.811180888128586"><ele>258.0</ele><time>2026-04-10T11:03:05.999Z</time></trkpt><trkpt lat="44.87928458776092" lon="7.811239460373779"><ele>258.0</ele><time>2026-04-10T11:03:07.999Z</time></trkpt><trkpt lat="44.87920433591616" lon="7.811290021494446"><ele>258.1666666666667</ele><time>2026-04-10T11:03:09.999Z</time></trkpt><trkpt lat="44.879132987686624" lon="7.811341524113237"><ele>258.3333333333333</ele><time>2026-04-10T11:03:11.999Z</time></trkpt><trkpt lat="44.87906090481413" lon="7.811384305466021"><ele>258.5</ele><time>2026-04-10T11:03:13.999Z</time></trkpt><trkpt lat="44.87898731906691" lon="7.811421239356488"><ele>258.66666666666663</ele><time>2026-04-10T11:03:15.999Z</time></trkpt><trkpt lat="44.87891024937907" lon="7.811488091432064"><ele>258.8333333333333</ele><time>2026-04-10T11:03:17.999Z</time></trkpt><trkpt lat="44.878838410626386" lon="7.811552167624918"><ele>259.0</ele><time>2026-04-10T11:03:19.999Z</time></trkpt><trkpt lat="44.87876763588862" lon="7.811622866619165"><ele>259.0</ele><time>2026-04-10T11:03:21.999Z</time></trkpt><trkpt lat="44.87870767692118" lon="7.8117036698255315"><ele>259.0</ele><time>2026-04-10T11:03:23.999Z</time></trkpt><trkpt lat="44.87865108502345" lon="7.811796550031347"><ele>259.0</ele><time>2026-04-10T11:03:25.999Z</time></trkpt><trkpt lat="44.87860919670263" lon="7.811896260287449"><ele>259.0</ele><time>2026-04-10T11:03:27.999Z</time></trkpt><trkpt lat="44.878567350196064" lon="7.811994915641811"><ele>259.0</ele><time>2026-04-10T11:03:30Z</time></trkpt><trkpt lat="44.87852478973561" lon="7.812086598317801"><ele>259.0</ele><time>2026-04-10T11:03:32Z</time></trkpt><trkpt lat="44.87848836176348" lon="7.81215991629734"><ele>258.8333333333333</ele><time>2026-04-10T11:03:35Z</time></trkpt><trkpt lat="44.87844642698925" lon="7.812250584041704"><ele>258.66666666666663</ele><time>2026-04-10T11:03:37Z</time></trkpt><trkpt lat="44.87839331070956" lon="7.812341430662504"><ele>258.5</ele><time>2026-04-10T11:03:40Z</time></trkpt><trkpt lat="44.878354080498816" lon="7.812412388314454"><ele>258.3333333333333</ele><time>2026-04-10T11:03:42Z</time></trkpt><trkpt lat="44.87827957451349" lon="7.812516280894491"><ele>258.1666666666667</ele><time>2026-04-10T11:03:44Z</time></trkpt><trkpt lat="44.87820542499645" lon="7.812622103272552"><ele>258.0</ele><time>2026-04-10T11:03:46Z</time></trkpt><trkpt lat="44.878128270168204" lon="7.81272323214456"><ele>257.8</ele><time>2026-04-10T11:03:48Z</time></trkpt><trkpt lat="44.878052675936665" lon="7.812820404121652"><ele>257.6</ele><time>2026-04-10T11:03:50Z</time></trkpt><trkpt lat="44.87798556522326" lon="7.812913647278925"><ele>257.4</ele><time>2026-04-10T11:03:52Z</time></trkpt><trkpt lat="44.87791812109486" lon="7.812997918030468"><ele>257.2</ele><time>2026-04-10T11:03:54Z</time></trkpt><trkpt lat="44.877850502212596" lon="7.8130776979058645"><ele>257.0</ele><time>2026-04-10T11:03:56Z</time></trkpt><trkpt lat="44.877791550603924" lon="7.813155231550157"><ele>257.0</ele><time>2026-04-10T11:03:58Z</time></trkpt><trkpt lat="44.87773876547653" lon="7.813213255933698"><ele>257.0</ele><time>2026-04-10T11:04:00Z</time></trkpt><trkpt lat="44.87769247518051" lon="7.813280258278689"><ele>257.0</ele><time>2026-04-10T11:04:02Z</time></trkpt><trkpt lat="44.87763129182358" lon="7.813352240602572"><ele>257.0</ele><time>2026-04-10T11:04:04Z</time></trkpt><trkpt lat="44.877573025479364" lon="7.813444132123447"><ele>257.0</ele><time>2026-04-10T11:04:06Z</time></trkpt><trkpt lat="44.87751507679496" lon="7.8135315653244"><ele>257.0</ele><time>2026-04-10T11:04:08Z</time></trkpt><trkpt lat="44.87745621704674" lon="7.813613178753007"><ele>257.6</ele><time>2026-04-10T11:04:10Z</time></trkpt><trkpt lat="44.87738973601535" lon="7.813696610641078"><ele>258.2</ele><time>2026-04-10T11:04:12Z</time></trkpt><trkpt lat="44.877319283125914" lon="7.813790586483034"><ele>258.8</ele><time>2026-04-10T11:04:14Z</time></trkpt><trkpt lat="44.87725825278661" lon="7.813880737128816"><ele>259.4</ele><time>2026-04-10T11:04:16Z</time></trkpt><trkpt lat="44.87719037942944" lon="7.813969240236398"><ele>260.0</ele><time>2026-04-10T11:04:18Z</time></trkpt><trkpt lat="44.87712680893344" lon="7.814063885068558"><ele>260.0</ele><time>2026-04-10T11:04:20Z</time></trkpt><trkpt lat="44.87705852035303" lon="7.81414956055534"><ele>260.0</ele><time>2026-04-10T11:04:22Z</time></trkpt><trkpt lat="44.87699005736252" lon="7.8142443281140865"><ele>260.0</ele><time>2026-04-10T11:04:24Z</time></trkpt><trkpt lat="44.87691571669773" lon="7.8143332334946"><ele>260.0</ele><time>2026-04-10T11:04:26Z</time></trkpt><trkpt lat="44.8768475546603" lon="7.814423271044985"><ele>260.0</ele><time>2026-04-10T11:04:28Z</time></trkpt><trkpt lat="44.87677452793703" lon="7.8145309694156335"><ele>260.0</ele><time>2026-04-10T11:04:30Z</time></trkpt><trkpt lat="44.87670262691919" lon="7.8146168279586945"><ele>260.0</ele><time>2026-04-10T11:04:32Z</time></trkpt><trkpt lat="44.876631662410446" lon="7.814717345483016"><ele>260.0</ele><time>2026-04-10T11:04:34Z</time></trkpt><trkpt lat="44.87655749950081" lon="7.81480853310775"><ele>260.0</ele><time>2026-04-10T11:04:36Z</time></trkpt><trkpt lat="44.876486003511275" lon="7.814906919928291"><ele>260.0</ele><time>2026-04-10T11:04:38Z</time></trkpt><trkpt lat="44.87640417825882" lon="7.815001043824995"><ele>260.0</ele><time>2026-04-10T11:04:40Z</time></trkpt><trkpt lat="44.87633172848106" lon="7.81509309385838"><ele>260.0</ele><time>2026-04-10T11:04:42Z</time></trkpt><trkpt lat="44.87625581749589" lon="7.8151841813488065"><ele>260.0</ele><time>2026-04-10T11:04:43.999Z</time></trkpt><trkpt lat="44.87617569481951" lon="7.815272707192651"><ele>260.0</ele><time>2026-04-10T11:04:45.999Z</time></trkpt><trkpt lat="44.87609320824771" lon="7.815361141246972"><ele>260.0</ele><time>2026-04-10T11:04:47.999Z</time></trkpt><trkpt lat="44.87601175654472" lon="7.815446927532593"><ele>259.6</ele><time>2026-04-10T11:04:49.999Z</time></trkpt><trkpt lat="44.87593392281512" lon="7.815531516916691"><ele>259.2</ele><time>2026-04-10T11:04:51.999Z</time></trkpt><trkpt lat="44.875845352074094" lon="7.815616851162077"><ele>258.8</ele><time>2026-04-10T11:04:53.999Z</time></trkpt><trkpt lat="44.87575716877929" lon="7.815697391559244"><ele>258.4</ele><time>2026-04-10T11:04:55.999Z</time></trkpt><trkpt lat="44.87567964555959" lon="7.81578631533895"><ele>258.0</ele><time>2026-04-10T11:04:57.999Z</time></trkpt><trkpt lat="44.87559964610504" lon="7.815859768655062"><ele>258.0</ele><time>2026-04-10T11:04:59.999Z</time></trkpt><trkpt lat="44.87552182318256" lon="7.815939500330077"><ele>258.0</ele><time>2026-04-10T11:05:01.999Z</time></trkpt><trkpt lat="44.875451486629345" lon="7.8160249493345715"><ele>258.0</ele><time>2026-04-10T11:05:03.999Z</time></trkpt><trkpt lat="44.87537446192123" lon="7.816081188777049"><ele>258.0</ele><time>2026-04-10T11:05:05.999Z</time></trkpt><trkpt lat="44.875288135804624" lon="7.816166432089067"><ele>258.0</ele><time>2026-04-10T11:05:07.999Z</time></trkpt><trkpt lat="44.87521313990609" lon="7.816240487761996"><ele>257.6</ele><time>2026-04-10T11:05:09.999Z</time></trkpt><trkpt lat="44.875128777374314" lon="7.816324333117318"><ele>257.20000000000005</ele><time>2026-04-10T11:05:11.999Z</time></trkpt><trkpt lat="44.8750559312503" lon="7.816398378621876"><ele>256.8</ele><time>2026-04-10T11:05:13.999Z</time></trkpt><trkpt lat="44.87498127977279" lon="7.816477015691916"><ele>256.40000000000003</ele><time>2026-04-10T11:05:15.999Z</time></trkpt><trkpt lat="44.87490150058178" lon="7.816561054042413"><ele>256.0</ele><time>2026-04-10T11:05:17.999Z</time></trkpt><trkpt lat="44.87482705188329" lon="7.816641245542533"><ele>256.2</ele><time>2026-04-10T11:05:19.999Z</time></trkpt><trkpt lat="44.87475234294338" lon="7.816722188577646"><ele>256.40000000000003</ele><time>2026-04-10T11:05:21.999Z</time></trkpt><trkpt lat="44.87467974798216" lon="7.816800337807582"><ele>256.6</ele><time>2026-04-10T11:05:23.999Z</time></trkpt><trkpt lat="44.87460409103104" lon="7.816880194428083"><ele>256.8</ele><time>2026-04-10T11:05:25.999Z</time></trkpt><trkpt lat="44.87452123541459" lon="7.816970679733084"><ele>257.0</ele><time>2026-04-10T11:05:27.999Z</time></trkpt><trkpt lat="44.874450035734334" lon="7.817049704610514"><ele>257.0</ele><time>2026-04-10T11:05:29.999Z</time></trkpt><trkpt lat="44.874393572352545" lon="7.817162819670102"><ele>257.0</ele><time>2026-04-10T11:05:31.999Z</time></trkpt><trkpt lat="44.874317726635795" lon="7.817240158076712"><ele>257.0</ele><time>2026-04-10T11:05:33.999Z</time></trkpt><trkpt lat="44.874242935526745" lon="7.817327893985404"><ele>257.0</ele><time>2026-04-10T11:05:36Z</time></trkpt><trkpt lat="44.874176521460164" lon="7.817411129635223"><ele>257.0</ele><time>2026-04-10T11:05:38Z</time></trkpt><trkpt lat="44.874101209187415" lon="7.817486299141571"><ele>258.0</ele><time>2026-04-10T11:05:40Z</time></trkpt><trkpt lat="44.8740339085384" lon="7.817572600972701"><ele>259.0</ele><time>2026-04-10T11:05:42Z</time></trkpt><trkpt lat="44.87396062977851" lon="7.81764616168487"><ele>260.0</ele><time>2026-04-10T11:05:44Z</time></trkpt><trkpt lat="44.87389127473101" lon="7.81772182799057"><ele>261.0</ele><time>2026-04-10T11:05:46Z</time></trkpt><trkpt lat="44.873830769748196" lon="7.817812681159623"><ele>262.0</ele><time>2026-04-10T11:05:48Z</time></trkpt><trkpt lat="44.87378900015659" lon="7.817932532094824"><ele>262.0</ele><time>2026-04-10T11:05:50Z</time></trkpt><trkpt lat="44.87377869683947" lon="7.818071656803077"><ele>262.0</ele><time>2026-04-10T11:05:52Z</time></trkpt><trkpt lat="44.873792743368256" lon="7.8182131185287735"><ele>262.0</ele><time>2026-04-10T11:05:54Z</time></trkpt><trkpt lat="44.87381741992276" lon="7.818341966306978"><ele>262.0</ele><time>2026-04-10T11:05:56Z</time></trkpt><trkpt lat="44.87385178780375" lon="7.818474040939363"><ele>262.0</ele><time>2026-04-10T11:05:58Z</time></trkpt><trkpt lat="44.87387293003315" lon="7.81861336515985"><ele>261.8</ele><time>2026-04-10T11:06:00Z</time></trkpt><trkpt lat="44.873885708124725" lon="7.81876035694109"><ele>261.6</ele><time>2026-04-10T11:06:02Z</time></trkpt><trkpt lat="44.873918347221235" lon="7.818912658108583"><ele>261.40000000000003</ele><time>2026-04-10T11:06:04Z</time></trkpt><trkpt lat="44.87395519214025" lon="7.819083667102712"><ele>261.2</ele><time>2026-04-10T11:06:06Z</time></trkpt><trkpt lat="44.87398651772169" lon="7.819163024319708"><ele>261.0</ele><time>2026-04-10T11:06:07Z</time></trkpt><trkpt lat="44.87400120048948" lon="7.819261128571488"><ele>260.42857142857144</ele><time>2026-04-10T11:06:08Z</time></trkpt><trkpt lat="44.87402154267261" lon="7.819357754659621"><ele>259.85714285714283</ele><time>2026-04-10T11:06:09Z</time></trkpt><trkpt lat="44.8740413640941" lon="7.819453547721358"><ele>259.2857142857143</ele><time>2026-04-10T11:06:10Z</time></trkpt><trkpt lat="44.87406271237778" lon="7.819547259019125"><ele>258.7142857142857</ele><time>2026-04-10T11:06:11Z</time></trkpt><trkpt lat="44.87408137186356" lon="7.8196338666466545"><ele>258.14285714285717</ele><time>2026-04-10T11:06:12Z</time></trkpt><trkpt lat="44.874106509683465" lon="7.819745385970529"><ele>257.57142857142856</ele><time>2026-04-10T11:06:13Z</time></trkpt><trkpt lat="44.874111865118984" lon="7.8198540218180534"><ele>257.0</ele><time>2026-04-10T11:06:14Z</time></trkpt><trkpt lat="44.87414448313902" lon="7.819950291728701"><ele>257.0</ele><time>2026-04-10T11:06:15Z</time></trkpt><trkpt lat="44.874160751714705" lon="7.820055735765035"><ele>257.0</ele><time>2026-04-10T11:06:16Z</time></trkpt><trkpt lat="44.87418304904238" lon="7.820156703213118"><ele>257.0</ele><time>2026-04-10T11:06:17Z</time></trkpt><trkpt lat="44.874212930922816" lon="7.82025211570099"><ele>257.0</ele><time>2026-04-10T11:06:18Z</time></trkpt><trkpt lat="44.8742229846589" lon="7.8203615773141415"><ele>257.0</ele><time>2026-04-10T11:06:19Z</time></trkpt><trkpt lat="44.8742450520729" lon="7.820461377962398"><ele>257.0</ele><time>2026-04-10T11:06:20Z</time></trkpt><trkpt lat="44.87426821078882" lon="7.820562718521541"><ele>256.1428571428571</ele><time>2026-04-10T11:06:21Z</time></trkpt><trkpt lat="44.87429064513283" lon="7.820660206495411"><ele>255.28571428571428</ele><time>2026-04-10T11:06:22Z</time></trkpt><trkpt lat="44.87431306265926" lon="7.820757621395722"><ele>254.42857142857142</ele><time>2026-04-10T11:06:23Z</time></trkpt><trkpt lat="44.87433474565191" lon="7.82085551752788"><ele>253.57142857142856</ele><time>2026-04-10T11:06:24Z</time></trkpt><trkpt lat="44.874356011262904" lon="7.82095464047431"><ele>252.71428571428572</ele><time>2026-04-10T11:06:25Z</time></trkpt><trkpt lat="44.87437722905862" lon="7.8210535405130575"><ele>251.85714285714283</ele><time>2026-04-10T11:06:26Z</time></trkpt><trkpt lat="44.87439900611828" lon="7.821155047389644"><ele>250.99999999999997</ele><time>2026-04-10T11:06:27Z</time></trkpt><trkpt lat="44.874421043469646" lon="7.821256814664821"><ele>250.99999999999997</ele><time>2026-04-10T11:06:28Z</time></trkpt><trkpt lat="44.874443179339764" lon="7.82135687354485"><ele>251.0</ele><time>2026-04-10T11:06:29Z</time></trkpt><trkpt lat="44.874465582376" lon="7.821458140112797"><ele>250.99999999999997</ele><time>2026-04-10T11:06:30Z</time></trkpt><trkpt lat="44.874503167056595" lon="7.821552879488653"><ele>250.99999999999997</ele><time>2026-04-10T11:06:31Z</time></trkpt><trkpt lat="44.87450504780357" lon="7.8216574868548365"><ele>251.0</ele><time>2026-04-10T11:06:32Z</time></trkpt><trkpt lat="44.874518712376045" lon="7.821755692990558"><ele>250.99999999999997</ele><time>2026-04-10T11:06:33Z</time></trkpt><trkpt lat="44.87452761641373" lon="7.8218529646109305"><ele>250.99999999999997</ele><time>2026-04-10T11:06:34Z</time></trkpt><trkpt lat="44.87453203364716" lon="7.8219477031450415"><ele>250.8</ele><time>2026-04-10T11:06:35Z</time></trkpt><trkpt lat="44.87453187940581" lon="7.822127556194344"><ele>250.60000000000002</ele><time>2026-04-10T11:06:37Z</time></trkpt><trkpt lat="44.874530939249134" lon="7.822218454388964"><ele>250.4</ele><time>2026-04-10T11:06:38Z</time></trkpt><trkpt lat="44.87453014637771" lon="7.822307855758372"><ele>250.2</ele><time>2026-04-10T11:06:39Z</time></trkpt><trkpt lat="44.874528841979874" lon="7.822487896943402"><ele>250.0</ele><time>2026-04-10T11:06:41Z</time></trkpt><trkpt lat="44.87452759892077" lon="7.822659471894587"><ele>250.6</ele><time>2026-04-10T11:06:43Z</time></trkpt><trkpt lat="44.87452665338535" lon="7.822824169279812"><ele>251.2</ele><time>2026-04-10T11:06:45Z</time></trkpt><trkpt lat="44.874526653386035" lon="7.822985881542592"><ele>251.8</ele><time>2026-04-10T11:06:47Z</time></trkpt><trkpt lat="44.87453287810692" lon="7.823134571849667"><ele>252.4</ele><time>2026-04-10T11:06:49Z</time></trkpt><trkpt lat="44.874561037081385" lon="7.82327307066305"><ele>253.0</ele><time>2026-04-10T11:06:51Z</time></trkpt><trkpt lat="44.874561302852825" lon="7.82340246203675"><ele>254.16666666666666</ele><time>2026-04-10T11:06:53Z</time></trkpt><trkpt lat="44.87458392790267" lon="7.823527398394941"><ele>255.33333333333331</ele><time>2026-04-10T11:06:55Z</time></trkpt><trkpt lat="44.87460655608495" lon="7.823632808996823"><ele>256.5</ele><time>2026-04-10T11:06:57Z</time></trkpt><trkpt lat="44.874629859342015" lon="7.823733651695614"><ele>257.6666666666667</ele><time>2026-04-10T11:06:59Z</time></trkpt><trkpt lat="44.874652479071486" lon="7.823829327037521"><ele>258.83333333333337</ele><time>2026-04-10T11:07:01Z</time></trkpt><trkpt lat="44.874693737015214" lon="7.82389670854261"><ele>260.0</ele><time>2026-04-10T11:07:03Z</time></trkpt><trkpt lat="44.874722918476515" lon="7.824025508956225"><ele>260.0</ele><time>2026-04-10T11:07:06Z</time></trkpt><trkpt lat="44.874747821805364" lon="7.824138669366046"><ele>260.0</ele><time>2026-04-10T11:07:09Z</time></trkpt><trkpt lat="44.874774044865426" lon="7.824232174870249"><ele>260.0</ele><time>2026-04-10T11:07:11.999Z</time></trkpt><trkpt lat="44.87480946490158" lon="7.824356562910535"><ele>260.0</ele><time>2026-04-10T11:07:15.999Z</time></trkpt><trkpt lat="44.87482837049517" lon="7.824444880906755"><ele>260.0</ele><time>2026-04-10T11:07:19.999Z</time></trkpt><trkpt lat="44.87486679509646" lon="7.824520227364964"><ele>260.0</ele><time>2026-04-10T11:07:22.999Z</time></trkpt><trkpt lat="44.874906491677734" lon="7.824611199289852"><ele>260.6666666666667</ele><time>2026-04-10T11:07:25.999Z</time></trkpt><trkpt lat="44.874957549226984" lon="7.824713081295314"><ele>261.33333333333337</ele><time>2026-04-10T11:07:29.999Z</time></trkpt><trkpt lat="44.87498730546563" lon="7.824818599653948"><ele>262.0</ele><time>2026-04-10T11:07:32.999Z</time></trkpt><trkpt lat="44.87501225167571" lon="7.8249137722786"><ele>262.6666666666667</ele><time>2026-04-10T11:07:35.999Z</time></trkpt><trkpt lat="44.87503179740009" lon="7.825007439872559"><ele>263.3333333333333</ele><time>2026-04-10T11:07:38.999Z</time></trkpt><trkpt lat="44.87506968384213" lon="7.825103465192132"><ele>264.0</ele><time>2026-04-10T11:07:43Z</time></trkpt><trkpt lat="44.87510314302201" lon="7.825213516820428"><ele>264.0</ele><time>2026-04-10T11:07:46Z</time></trkpt><trkpt lat="44.875153331193175" lon="7.825334876180284"><ele>264.0</ele><time>2026-04-10T11:07:49Z</time></trkpt><trkpt lat="44.87519878979891" lon="7.825423772587372"><ele>264.0</ele><time>2026-04-10T11:07:52Z</time></trkpt><trkpt lat="44.87524707673413" lon="7.8255153122328975"><ele>264.0</ele><time>2026-04-10T11:07:54Z</time></trkpt><trkpt lat="44.87529113087884" lon="7.8255937385854315"><ele>264.0</ele><time>2026-04-10T11:07:57Z</time></trkpt><trkpt lat="44.87533929801081" lon="7.825678963196894"><ele>264.0</ele><time>2026-04-10T11:07:59Z</time></trkpt><trkpt lat="44.875383724193945" lon="7.825759863738752"><ele>264.0</ele><time>2026-04-10T11:08:01Z</time></trkpt><trkpt lat="44.87541989063545" lon="7.825840887146959"><ele>264.0</ele><time>2026-04-10T11:08:03Z</time></trkpt><trkpt lat="44.87545127118816" lon="7.82591814302909"><ele>264.0</ele><time>2026-04-10T11:08:05Z</time></trkpt><trkpt lat="44.87547460888387" lon="7.826044529735257"><ele>264.0</ele><time>2026-04-10T11:08:08Z</time></trkpt><trkpt lat="44.87546138715387" lon="7.826132180572764"><ele>264.0</ele><time>2026-04-10T11:08:10Z</time></trkpt><trkpt lat="44.8754380506632" lon="7.826243590777497"><ele>264.0</ele><time>2026-04-10T11:08:13Z</time></trkpt><trkpt lat="44.87541112145616" lon="7.826333660773015"><ele>264.0</ele><time>2026-04-10T11:08:16Z</time></trkpt><trkpt lat="44.87540284545657" lon="7.8264507225710505"><ele>263.5</ele><time>2026-04-10T11:08:19Z</time></trkpt><trkpt lat="44.875367374132566" lon="7.826584728067096"><ele>263.0</ele><time>2026-04-10T11:08:22Z</time></trkpt><trkpt lat="44.875357276541415" lon="7.826688909144888"><ele>262.5</ele><time>2026-04-10T11:08:25Z</time></trkpt><trkpt lat="44.87533684714258" lon="7.826775583986839"><ele>262.0</ele><time>2026-04-10T11:08:28Z</time></trkpt><trkpt lat="44.87530855022513" lon="7.8268656790469695"><ele>261.5</ele><time>2026-04-10T11:08:31Z</time></trkpt><trkpt lat="44.87527485786514" lon="7.82695997654507"><ele>261.0</ele><time>2026-04-10T11:08:34Z</time></trkpt><trkpt lat="44.87524274517337" lon="7.827048032254814"><ele>260.6666666666667</ele><time>2026-04-10T11:08:37Z</time></trkpt><trkpt lat="44.87520594671741" lon="7.827122468641151"><ele>260.3333333333333</ele><time>2026-04-10T11:08:39Z</time></trkpt><trkpt lat="44.87516443080413" lon="7.82721252499221"><ele>260.0</ele><time>2026-04-10T11:08:42Z</time></trkpt><trkpt lat="44.87512431919266" lon="7.827296025743749"><ele>259.66666666666663</ele><time>2026-04-10T11:08:44Z</time></trkpt><trkpt lat="44.87507896067232" lon="7.827375307200062"><ele>259.3333333333333</ele><time>2026-04-10T11:08:46Z</time></trkpt><trkpt lat="44.875030936364666" lon="7.8274808445823"><ele>259.0</ele><time>2026-04-10T11:08:48Z</time></trkpt><trkpt lat="44.87498650677072" lon="7.827614630276726"><ele>259.8</ele><time>2026-04-10T11:08:50Z</time></trkpt><trkpt lat="44.8749409403473" lon="7.8277250602119635"><ele>260.59999999999997</ele><time>2026-04-10T11:08:52Z</time></trkpt><trkpt lat="44.87489909480737" lon="7.827846168147957"><ele>261.4</ele><time>2026-04-10T11:08:54Z</time></trkpt><trkpt lat="44.87485677353812" lon="7.827978504892007"><ele>262.2</ele><time>2026-04-10T11:08:56Z</time></trkpt><trkpt lat="44.87480416989388" lon="7.828111759480364"><ele>263.0</ele><time>2026-04-10T11:08:58Z</time></trkpt><trkpt lat="44.87474805194162" lon="7.82824761404043"><ele>263.0</ele><time>2026-04-10T11:09:00Z</time></trkpt><trkpt lat="44.874694554580294" lon="7.828295021424106"><ele>263.0</ele><time>2026-04-10T11:09:01Z</time></trkpt><trkpt lat="44.87463071774317" lon="7.828429117410632"><ele>263.0</ele><time>2026-04-10T11:09:03Z</time></trkpt><trkpt lat="44.874572224608194" lon="7.8285610506431444"><ele>263.0</ele><time>2026-04-10T11:09:05Z</time></trkpt><trkpt lat="44.87451823499431" lon="7.828693023731252"><ele>263.0</ele><time>2026-04-10T11:09:07Z</time></trkpt><trkpt lat="44.87447132585002" lon="7.828810662014696"><ele>263.2</ele><time>2026-04-10T11:09:09Z</time></trkpt><trkpt lat="44.87441712624503" lon="7.828933654775466"><ele>263.4</ele><time>2026-04-10T11:09:11Z</time></trkpt><trkpt lat="44.87435826339845" lon="7.829055271105908"><ele>263.59999999999997</ele><time>2026-04-10T11:09:13Z</time></trkpt><trkpt lat="44.874298102565454" lon="7.829172624929429"><ele>263.8</ele><time>2026-04-10T11:09:15Z</time></trkpt><trkpt lat="44.874229168748144" lon="7.829279564891302"><ele>264.0</ele><time>2026-04-10T11:09:16.999Z</time></trkpt><trkpt lat="44.87415310813656" lon="7.829384669255447"><ele>264.0</ele><time>2026-04-10T11:09:18.999Z</time></trkpt><trkpt lat="44.874076552071465" lon="7.829490458275995"><ele>264.0</ele><time>2026-04-10T11:09:20.999Z</time></trkpt><trkpt lat="44.87399725450598" lon="7.8296012138058755"><ele>264.0</ele><time>2026-04-10T11:09:22.999Z</time></trkpt><trkpt lat="44.87391901222937" lon="7.829713194097187"><ele>264.0</ele><time>2026-04-10T11:09:24.999Z</time></trkpt><trkpt lat="44.87384200647219" lon="7.829826178018082"><ele>264.0</ele><time>2026-04-10T11:09:26.999Z</time></trkpt><trkpt lat="44.873767849716835" lon="7.82994855536199"><ele>264.0</ele><time>2026-04-10T11:09:28.999Z</time></trkpt><trkpt lat="44.87370044214016" lon="7.830080752532237"><ele>264.0</ele><time>2026-04-10T11:09:30.999Z</time></trkpt><trkpt lat="44.873641834296805" lon="7.830224554730379"><ele>264.0</ele><time>2026-04-10T11:09:32.999Z</time></trkpt><trkpt lat="44.87358592294479" lon="7.830369793578894"><ele>264.0</ele><time>2026-04-10T11:09:34.999Z</time></trkpt><trkpt lat="44.8735394938572" lon="7.8305286657062085"><ele>264.0</ele><time>2026-04-10T11:09:36.999Z</time></trkpt><trkpt lat="44.873468476655866" lon="7.8306676295194695"><ele>264.0</ele><time>2026-04-10T11:09:38.999Z</time></trkpt><trkpt lat="44.87341608222121" lon="7.830828710940475"><ele>264.0</ele><time>2026-04-10T11:09:40.999Z</time></trkpt><trkpt lat="44.873407543789284" lon="7.830925849605974"><ele>264.0</ele><time>2026-04-10T11:09:41.999Z</time></trkpt><trkpt lat="44.87342349053596" lon="7.831030911693819"><ele>264.0</ele><time>2026-04-10T11:09:42.999Z</time></trkpt><trkpt lat="44.87349755708364" lon="7.831114441737895"><ele>263.8</ele><time>2026-04-10T11:09:43.999Z</time></trkpt><trkpt lat="44.87358667350622" lon="7.83114143054821"><ele>263.59999999999997</ele><time>2026-04-10T11:09:44.999Z</time></trkpt><trkpt lat="44.87363645936684" lon="7.831200577403592"><ele>263.4</ele><time>2026-04-10T11:09:45.999Z</time></trkpt><trkpt lat="44.87369371555577" lon="7.831246529506102"><ele>263.2</ele><time>2026-04-10T11:09:47Z</time></trkpt><trkpt lat="44.87379911720526" lon="7.831330902673221"><ele>263.0</ele><time>2026-04-10T11:09:49Z</time></trkpt><trkpt lat="44.8738900834589" lon="7.831433759138594"><ele>263.0</ele><time>2026-04-10T11:09:51Z</time></trkpt><trkpt lat="44.87392176603261" lon="7.831585481226157"><ele>263.0</ele><time>2026-04-10T11:09:53Z</time></trkpt><trkpt lat="44.87385219514784" lon="7.831713421164404"><ele>263.0</ele><time>2026-04-10T11:09:55Z</time></trkpt><trkpt lat="44.87379097830961" lon="7.831853127591021"><ele>263.0</ele><time>2026-04-10T11:09:57Z</time></trkpt><trkpt lat="44.87374833426604" lon="7.831951298466158"><ele>263.0</ele><time>2026-04-10T11:09:59Z</time></trkpt><trkpt lat="44.87389498899395" lon="7.832074599705735"><ele>263.4</ele><time>2026-04-10T11:10:00Z</time></trkpt><trkpt lat="44.8739605922716" lon="7.832099451572521"><ele>263.8</ele><time>2026-04-10T11:10:01Z</time></trkpt><trkpt lat="44.87405906030398" lon="7.832170791315394"><ele>264.2</ele><time>2026-04-10T11:10:03Z</time></trkpt><trkpt lat="44.87416757880256" lon="7.832222100844598"><ele>264.6</ele><time>2026-04-10T11:10:05Z</time></trkpt><trkpt lat="44.87425866932643" lon="7.832290080938645"><ele>265.0</ele><time>2026-04-10T11:10:07Z</time></trkpt><trkpt lat="44.874363931315415" lon="7.83234954626753"><ele>265.0</ele><time>2026-04-10T11:10:09Z</time></trkpt><trkpt lat="44.87446018652145" lon="7.832414684518964"><ele>265.0</ele><time>2026-04-10T11:10:11Z</time></trkpt><trkpt lat="44.87455068403218" lon="7.832474130125246"><ele>265.0</ele><time>2026-04-10T11:10:13Z</time></trkpt><trkpt lat="44.874637950756764" lon="7.832526851119957"><ele>265.0</ele><time>2026-04-10T11:10:15Z</time></trkpt><trkpt lat="44.87471804637602" lon="7.832576180623112"><ele>265.0</ele><time>2026-04-10T11:10:17Z</time></trkpt><trkpt lat="44.87479784954841" lon="7.832629802650268"><ele>265.16666666666663</ele><time>2026-04-10T11:10:19Z</time></trkpt><trkpt lat="44.87487520000288" lon="7.832681618196966"><ele>265.3333333333333</ele><time>2026-04-10T11:10:21Z</time></trkpt><trkpt lat="44.874952929146566" lon="7.832735155553444"><ele>265.5</ele><time>2026-04-10T11:10:23Z</time></trkpt><trkpt lat="44.87501103757118" lon="7.832792461922368"><ele>265.6666666666667</ele><time>2026-04-10T11:10:25Z</time></trkpt><trkpt lat="44.875074748062744" lon="7.8327880599671955"><ele>265.83333333333337</ele><time>2026-04-10T11:10:29Z</time></trkpt><trkpt lat="44.87514462431654" lon="7.832819103831225"><ele>266.0</ele><time>2026-04-10T11:10:34Z</time></trkpt><trkpt lat="44.87521800964364" lon="7.832871115341328"><ele>265.33333333333337</ele><time>2026-04-10T11:10:37Z</time></trkpt><trkpt lat="44.87528298842773" lon="7.832916799945448"><ele>264.6666666666667</ele><time>2026-04-10T11:10:39Z</time></trkpt><trkpt lat="44.87535574404344" lon="7.832971715773091"><ele>264.0</ele><time>2026-04-10T11:10:41Z</time></trkpt><trkpt lat="44.875440858501676" lon="7.833019197956546"><ele>263.3333333333333</ele><time>2026-04-10T11:10:43Z</time></trkpt><trkpt lat="44.87552585238102" lon="7.833080298502809"><ele>262.66666666666663</ele><time>2026-04-10T11:10:45Z</time></trkpt><trkpt lat="44.875620113598345" lon="7.833134100014181"><ele>262.0</ele><time>2026-04-10T11:10:47Z</time></trkpt><trkpt lat="44.87570481529269" lon="7.833218809442567"><ele>262.0</ele><time>2026-04-10T11:10:49Z</time></trkpt><trkpt lat="44.875800864938896" lon="7.833278966026338"><ele>262.0</ele><time>2026-04-10T11:10:51Z</time></trkpt><trkpt lat="44.87590597031383" lon="7.833346080558668"><ele>262.0</ele><time>2026-04-10T11:10:53Z</time></trkpt><trkpt lat="44.876005031162265" lon="7.833409335382222"><ele>262.0</ele><time>2026-04-10T11:10:55Z</time></trkpt><trkpt lat="44.87611004820341" lon="7.833476393500982"><ele>262.0</ele><time>2026-04-10T11:10:57Z</time></trkpt><trkpt lat="44.876218919229835" lon="7.833520784271553"><ele>262.5</ele><time>2026-04-10T11:10:59Z</time></trkpt><trkpt lat="44.87631381507578" lon="7.833606507844342"><ele>263.0</ele><time>2026-04-10T11:11:01Z</time></trkpt><trkpt lat="44.876417306871424" lon="7.83367259201882"><ele>263.5</ele><time>2026-04-10T11:11:03Z</time></trkpt><trkpt lat="44.876520696522526" lon="7.833738610967401"><ele>264.0</ele><time>2026-04-10T11:11:05Z</time></trkpt><trkpt lat="44.876621687634156" lon="7.833804697066548"><ele>264.0</ele><time>2026-04-10T11:11:07Z</time></trkpt><trkpt lat="44.87672552926477" lon="7.833875367063517"><ele>264.0</ele><time>2026-04-10T11:11:09Z</time></trkpt><trkpt lat="44.876829456157935" lon="7.8339413243365845"><ele>264.0</ele><time>2026-04-10T11:11:11Z</time></trkpt><trkpt lat="44.876942367584356" lon="7.8339810618990695"><ele>264.0</ele><time>2026-04-10T11:11:13Z</time></trkpt><trkpt lat="44.877043626363246" lon="7.834046870784038"><ele>263.59999999999997</ele><time>2026-04-10T11:11:15Z</time></trkpt><trkpt lat="44.87713752294436" lon="7.834129283133028"><ele>263.2</ele><time>2026-04-10T11:11:17Z</time></trkpt><trkpt lat="44.87719586990168" lon="7.834164745503616"><ele>262.79999999999995</ele><time>2026-04-10T11:11:18Z</time></trkpt><trkpt lat="44.87730371614535" lon="7.834206361092103"><ele>262.4</ele><time>2026-04-10T11:11:19.999Z</time></trkpt><trkpt lat="44.877402133222915" lon="7.834294539601041"><ele>262.0</ele><time>2026-04-10T11:11:21.999Z</time></trkpt><trkpt lat="44.87750895390152" lon="7.834363155345433"><ele>261.25</ele><time>2026-04-10T11:11:23.999Z</time></trkpt><trkpt lat="44.87761491020116" lon="7.834431215854329"><ele>260.5</ele><time>2026-04-10T11:11:25.999Z</time></trkpt><trkpt lat="44.877725495227985" lon="7.8345006785164335"><ele>259.75</ele><time>2026-04-10T11:11:27.999Z</time></trkpt><trkpt lat="44.877836216565235" lon="7.834568947931164"><ele>259.0</ele><time>2026-04-10T11:11:29.999Z</time></trkpt><trkpt lat="44.877951632740036" lon="7.834620345828586"><ele>259.0</ele><time>2026-04-10T11:11:31.999Z</time></trkpt><trkpt lat="44.878052029580736" lon="7.834704102961282"><ele>259.0</ele><time>2026-04-10T11:11:33.999Z</time></trkpt><trkpt lat="44.878161115548366" lon="7.834774884602148"><ele>259.0</ele><time>2026-04-10T11:11:35.999Z</time></trkpt><trkpt lat="44.87827023798455" lon="7.834845689909"><ele>259.0</ele><time>2026-04-10T11:11:37.999Z</time></trkpt><trkpt lat="44.878376703600544" lon="7.834914771312837"><ele>259.0</ele><time>2026-04-10T11:11:39.999Z</time></trkpt><trkpt lat="44.87843403568865" lon="7.834951971866418"><ele>259.0</ele><time>2026-04-10T11:11:40.999Z</time></trkpt><trkpt lat="44.87849770119515" lon="7.834967929056581"><ele>259.0</ele><time>2026-04-10T11:11:41.999Z</time></trkpt><trkpt lat="44.878547165894545" lon="7.83502568980877"><ele>259.0</ele><time>2026-04-10T11:11:42.999Z</time></trkpt><trkpt lat="44.87860526738816" lon="7.8350638936924994"><ele>259.0</ele><time>2026-04-10T11:11:43.999Z</time></trkpt><trkpt lat="44.87871926039262" lon="7.835138848319855"><ele>259.0</ele><time>2026-04-10T11:11:45.999Z</time></trkpt><trkpt lat="44.878833681368" lon="7.835214084351048"><ele>259.0</ele><time>2026-04-10T11:11:47.999Z</time></trkpt><trkpt lat="44.87894653035269" lon="7.835288286746731"><ele>259.0</ele><time>2026-04-10T11:11:49.999Z</time></trkpt><trkpt lat="44.87906389452342" lon="7.835340393784413"><ele>259.0</ele><time>2026-04-10T11:11:51.999Z</time></trkpt><trkpt lat="44.87916730658052" lon="7.835408129499117"><ele>259.0</ele><time>2026-04-10T11:11:54Z</time></trkpt><trkpt lat="44.87927447329385" lon="7.835423700368493"><ele>258.2</ele><time>2026-04-10T11:11:56Z</time></trkpt><trkpt lat="44.87937233826266" lon="7.835382257545262"><ele>257.4</ele><time>2026-04-10T11:11:58Z</time></trkpt><trkpt lat="44.87946311978401" lon="7.835307686893432"><ele>256.6</ele><time>2026-04-10T11:12:00Z</time></trkpt><trkpt lat="44.879559059396186" lon="7.835227064008402"><ele>255.8</ele><time>2026-04-10T11:12:02Z</time></trkpt><trkpt lat="44.87964826047734" lon="7.835130944555806"><ele>255.0</ele><time>2026-04-10T11:12:04Z</time></trkpt><trkpt lat="44.87973623251643" lon="7.835018755317015"><ele>255.0</ele><time>2026-04-10T11:12:06Z</time></trkpt><trkpt lat="44.87981498300038" lon="7.8348933069861735"><ele>255.0</ele><time>2026-04-10T11:12:08Z</time></trkpt><trkpt lat="44.87988354588747" lon="7.834753224902943"><ele>255.0</ele><time>2026-04-10T11:12:10Z</time></trkpt><trkpt lat="44.87994587201016" lon="7.834629653558544"><ele>255.0</ele><time>2026-04-10T11:12:12Z</time></trkpt><trkpt lat="44.88001672667668" lon="7.8345153885817105"><ele>255.4</ele><time>2026-04-10T11:12:14Z</time></trkpt><trkpt lat="44.88011780159586" lon="7.8344299124758034"><ele>255.8</ele><time>2026-04-10T11:12:16Z</time></trkpt><trkpt lat="44.88023364949608" lon="7.83442908262976"><ele>256.2</ele><time>2026-04-10T11:12:18Z</time></trkpt><trkpt lat="44.88032894459012" lon="7.8344516514094025"><ele>256.6</ele><time>2026-04-10T11:12:20Z</time></trkpt><trkpt lat="44.880417509039255" lon="7.834497709541301"><ele>257.0</ele><time>2026-04-10T11:12:22Z</time></trkpt><trkpt lat="44.88051708631063" lon="7.8345615593282565"><ele>257.0</ele><time>2026-04-10T11:12:24Z</time></trkpt><trkpt lat="44.88062247243959" lon="7.8346294966036645"><ele>257.0</ele><time>2026-04-10T11:12:26Z</time></trkpt><trkpt lat="44.88072068719268" lon="7.83471549327911"><ele>257.0</ele><time>2026-04-10T11:12:28Z</time></trkpt><trkpt lat="44.88082030615751" lon="7.834811491663725"><ele>257.0</ele><time>2026-04-10T11:12:30Z</time></trkpt><trkpt lat="44.88091682151166" lon="7.834910234536511"><ele>256.85714285714283</ele><time>2026-04-10T11:12:32Z</time></trkpt><trkpt lat="44.88097168002759" lon="7.834958399420093"><ele>256.7142857142857</ele><time>2026-04-10T11:12:33Z</time></trkpt><trkpt lat="44.88102883713714" lon="7.83500644183716"><ele>256.57142857142856</ele><time>2026-04-10T11:12:34Z</time></trkpt><trkpt lat="44.881088573385284" lon="7.835055501352965"><ele>256.42857142857144</ele><time>2026-04-10T11:12:35Z</time></trkpt><trkpt lat="44.88115208659071" lon="7.835107662860578"><ele>256.2857142857143</ele><time>2026-04-10T11:12:36Z</time></trkpt><trkpt lat="44.88121353710799" lon="7.835157545770265"><ele>256.1428571428571</ele><time>2026-04-10T11:12:37Z</time></trkpt><trkpt lat="44.88127751720412" lon="7.835209212298471"><ele>256.0</ele><time>2026-04-10T11:12:38Z</time></trkpt><trkpt lat="44.881343938931174" lon="7.83526285053942"><ele>255.83333333333331</ele><time>2026-04-10T11:12:39Z</time></trkpt><trkpt lat="44.88140947176862" lon="7.835314109817097"><ele>255.66666666666666</ele><time>2026-04-10T11:12:40Z</time></trkpt><trkpt lat="44.88148206932451" lon="7.835370637784409"><ele>255.5</ele><time>2026-04-10T11:12:41Z</time></trkpt><trkpt lat="44.881553524275084" lon="7.835402687069562"><ele>255.33333333333331</ele><time>2026-04-10T11:12:42Z</time></trkpt><trkpt lat="44.88162285129322" lon="7.835456118778899"><ele>255.16666666666666</ele><time>2026-04-10T11:12:43Z</time></trkpt><trkpt lat="44.88169093740311" lon="7.835513635955134"><ele>255.0</ele><time>2026-04-10T11:12:44Z</time></trkpt><trkpt lat="44.88175686977463" lon="7.835563898213736"><ele>254.42857142857144</ele><time>2026-04-10T11:12:45Z</time></trkpt><trkpt lat="44.881825820498506" lon="7.835612442733234"><ele>253.8571428571429</ele><time>2026-04-10T11:12:46Z</time></trkpt><trkpt lat="44.881889336465" lon="7.835662307434115"><ele>253.28571428571428</ele><time>2026-04-10T11:12:47Z</time></trkpt><trkpt lat="44.88195267323864" lon="7.835713018924485"><ele>252.71428571428572</ele><time>2026-04-10T11:12:48Z</time></trkpt><trkpt lat="44.88201330548849" lon="7.835759936971303"><ele>252.14285714285714</ele><time>2026-04-10T11:12:49Z</time></trkpt><trkpt lat="44.88207443020535" lon="7.835805881265868"><ele>251.57142857142856</ele><time>2026-04-10T11:12:50Z</time></trkpt><trkpt lat="44.88213284381716" lon="7.835851819271752"><ele>250.99999999999997</ele><time>2026-04-10T11:12:51Z</time></trkpt><trkpt lat="44.88219011776787" lon="7.835897380447592"><ele>251.0</ele><time>2026-04-10T11:12:52Z</time></trkpt><trkpt lat="44.8822369697883" lon="7.835961011012518"><ele>251.00000000000003</ele><time>2026-04-10T11:12:53Z</time></trkpt><trkpt lat="44.88230154065363" lon="7.835981880979592"><ele>251.00000000000003</ele><time>2026-04-10T11:12:54Z</time></trkpt><trkpt lat="44.88240504355578" lon="7.836048426238866"><ele>251.0</ele><time>2026-04-10T11:12:56Z</time></trkpt><trkpt lat="44.882509676423915" lon="7.836054834154048"><ele>251.0</ele><time>2026-04-10T11:12:58Z</time></trkpt><trkpt lat="44.882601921228286" lon="7.835989123874561"><ele>250.25</ele><time>2026-04-10T11:13:00Z</time></trkpt><trkpt lat="44.88266159243814" lon="7.835857430268006"><ele>249.5</ele><time>2026-04-10T11:13:02Z</time></trkpt><trkpt lat="44.88269491673702" lon="7.8357036370880655"><ele>248.75</ele><time>2026-04-10T11:13:04Z</time></trkpt><trkpt lat="44.882742870467716" lon="7.83556081167293"><ele>248.0</ele><time>2026-04-10T11:13:06Z</time></trkpt><trkpt lat="44.88279237193655" lon="7.83541211921877"><ele>248.0</ele><time>2026-04-10T11:13:08Z</time></trkpt><trkpt lat="44.8828380571719" lon="7.835268888734993"><ele>248.0</ele><time>2026-04-10T11:13:10Z</time></trkpt><trkpt lat="44.88289556444305" lon="7.835181178486209"><ele>248.0</ele><time>2026-04-10T11:13:12Z</time></trkpt><trkpt lat="44.88298997038161" lon="7.83518016063269"><ele>248.0</ele><time>2026-04-10T11:13:14Z</time></trkpt><trkpt lat="44.88305664885715" lon="7.835279450005367"><ele>248.0</ele><time>2026-04-10T11:13:16Z</time></trkpt><trkpt lat="44.88314991698285" lon="7.835334411153746"><ele>248.0</ele><time>2026-04-10T11:13:18Z</time></trkpt><trkpt lat="44.88324307419138" lon="7.83540903485938"><ele>248.0</ele><time>2026-04-10T11:13:20Z</time></trkpt><trkpt lat="44.88333919433906" lon="7.835480866408975"><ele>248.0</ele><time>2026-04-10T11:13:22Z</time></trkpt><trkpt lat="44.88344382068335" lon="7.835554849317503"><ele>248.0</ele><time>2026-04-10T11:13:24Z</time></trkpt><trkpt lat="44.88354624793929" lon="7.835625770415674"><ele>248.0</ele><time>2026-04-10T11:13:25.999Z</time></trkpt><trkpt lat="44.883651874219474" lon="7.835695504473857"><ele>248.2</ele><time>2026-04-10T11:13:27.999Z</time></trkpt><trkpt lat="44.88375175063252" lon="7.835762974197298"><ele>248.4</ele><time>2026-04-10T11:13:29.999Z</time></trkpt><trkpt lat="44.88384859844925" lon="7.835834508692243"><ele>248.59999999999997</ele><time>2026-04-10T11:13:31.999Z</time></trkpt><trkpt lat="44.88395377094848" lon="7.835898260704693"><ele>248.79999999999998</ele><time>2026-04-10T11:13:33.999Z</time></trkpt><trkpt lat="44.8840446750495" lon="7.835957377819229"><ele>249.0</ele><time>2026-04-10T11:13:35.999Z</time></trkpt><trkpt lat="44.8841433643553" lon="7.836026562052184"><ele>249.0</ele><time>2026-04-10T11:13:37.999Z</time></trkpt><trkpt lat="44.884230208156275" lon="7.8360918792505325"><ele>248.99999999999997</ele><time>2026-04-10T11:13:39.999Z</time></trkpt><trkpt lat="44.88431420266722" lon="7.836126048798276"><ele>248.99999999999997</ele><time>2026-04-10T11:13:41.999Z</time></trkpt><trkpt lat="44.88440595085724" lon="7.836146210856178"><ele>249.0</ele><time>2026-04-10T11:13:43.999Z</time></trkpt><trkpt lat="44.88450822307233" lon="7.83614604818141"><ele>249.0</ele><time>2026-04-10T11:13:45.999Z</time></trkpt><trkpt lat="44.884613423808496" lon="7.836113797364629"><ele>249.39999999999998</ele><time>2026-04-10T11:13:47.999Z</time></trkpt><trkpt lat="44.884713715884146" lon="7.83607246242979"><ele>249.79999999999998</ele><time>2026-04-10T11:13:49.999Z</time></trkpt><trkpt lat="44.8848248231103" lon="7.836043354510475"><ele>250.20000000000002</ele><time>2026-04-10T11:13:51.999Z</time></trkpt><trkpt lat="44.88492141355594" lon="7.836014672733612"><ele>250.60000000000002</ele><time>2026-04-10T11:13:53.999Z</time></trkpt><trkpt lat="44.88502331353969" lon="7.835948149150088"><ele>251.0</ele><time>2026-04-10T11:13:55.999Z</time></trkpt><trkpt lat="44.885119870888026" lon="7.8358938149210955"><ele>251.0</ele><time>2026-04-10T11:13:57.999Z</time></trkpt><trkpt lat="44.88521904774332" lon="7.835845578255631"><ele>251.00000000000003</ele><time>2026-04-10T11:14:00Z</time></trkpt><trkpt lat="44.88531896165985" lon="7.8357955290681875"><ele>251.00000000000003</ele><time>2026-04-10T11:14:02Z</time></trkpt><trkpt lat="44.885421933006604" lon="7.835739754931772"><ele>251.0</ele><time>2026-04-10T11:14:04Z</time></trkpt><trkpt lat="44.88552324113633" lon="7.835713504812946"><ele>251.0</ele><time>2026-04-10T11:14:06Z</time></trkpt><trkpt lat="44.88562141918952" lon="7.835686229098131"><ele>251.0</ele><time>2026-04-10T11:14:08Z</time></trkpt><trkpt lat="44.88572207873224" lon="7.835668240692287"><ele>251.00000000000003</ele><time>2026-04-10T11:14:10Z</time></trkpt><trkpt lat="44.88582390456164" lon="7.835655907410795"><ele>251.00000000000003</ele><time>2026-04-10T11:14:12Z</time></trkpt><trkpt lat="44.885924740025665" lon="7.8356556017538805"><ele>251.0</ele><time>2026-04-10T11:14:14Z</time></trkpt><trkpt lat="44.886028653702745" lon="7.835656772487844"><ele>251.0</ele><time>2026-04-10T11:14:16Z</time></trkpt><trkpt lat="44.88613340314015" lon="7.8356555581453"><ele>251.60000000000002</ele><time>2026-04-10T11:14:18Z</time></trkpt><trkpt lat="44.886236503706876" lon="7.8356547157888174"><ele>252.20000000000002</ele><time>2026-04-10T11:14:20Z</time></trkpt><trkpt lat="44.88633822195498" lon="7.835650523006659"><ele>252.79999999999998</ele><time>2026-04-10T11:14:22Z</time></trkpt><trkpt lat="44.886438581396455" lon="7.835649355177862"><ele>253.39999999999998</ele><time>2026-04-10T11:14:24Z</time></trkpt><trkpt lat="44.88654345152135" lon="7.8356444295706815"><ele>254.0</ele><time>2026-04-10T11:14:26Z</time></trkpt><trkpt lat="44.886639118643394" lon="7.83563496583089"><ele>254.0</ele><time>2026-04-10T11:14:28Z</time></trkpt><trkpt lat="44.886732213354534" lon="7.835656283974969"><ele>253.99999999999997</ele><time>2026-04-10T11:14:30Z</time></trkpt><trkpt lat="44.88682179029167" lon="7.835632846278861"><ele>253.99999999999997</ele><time>2026-04-10T11:14:32Z</time></trkpt><trkpt lat="44.886903720532196" lon="7.835607438294503"><ele>254.0</ele><time>2026-04-10T11:14:34Z</time></trkpt><trkpt lat="44.88699424110598" lon="7.835588941092639"><ele>254.0</ele><time>2026-04-10T11:14:36Z</time></trkpt><trkpt lat="44.88708451409122" lon="7.835560514304376"><ele>254.39999999999998</ele><time>2026-04-10T11:14:38Z</time></trkpt><trkpt lat="44.88717529247723" lon="7.835556939102035"><ele>254.79999999999998</ele><time>2026-04-10T11:14:40Z</time></trkpt><trkpt lat="44.887264170013" lon="7.835525643153164"><ele>255.20000000000002</ele><time>2026-04-10T11:14:42Z</time></trkpt><trkpt lat="44.887352959931604" lon="7.8354946796520615"><ele>255.60000000000002</ele><time>2026-04-10T11:14:44Z</time></trkpt><trkpt lat="44.88743541273352" lon="7.83546338844506"><ele>256.0</ele><time>2026-04-10T11:14:46Z</time></trkpt><trkpt lat="44.88753040163443" lon="7.835423226052437"><ele>255.99999999999997</ele><time>2026-04-10T11:14:48Z</time></trkpt><trkpt lat="44.887605123285816" lon="7.83536474360004"><ele>256.0</ele><time>2026-04-10T11:14:50Z</time></trkpt><trkpt lat="44.88767838538877" lon="7.835295838598602"><ele>256.0</ele><time>2026-04-10T11:14:52Z</time></trkpt><trkpt lat="44.88774650896633" lon="7.835214990300503"><ele>256.0</ele><time>2026-04-10T11:14:54Z</time></trkpt><trkpt lat="44.88780856948444" lon="7.835129098890818"><ele>255.99999999999997</ele><time>2026-04-10T11:14:56Z</time></trkpt><trkpt lat="44.887873362198334" lon="7.8350386469584645"><ele>256.0</ele><time>2026-04-10T11:14:58Z</time></trkpt><trkpt lat="44.88794071468819" lon="7.8349480692453675"><ele>255.49999999999997</ele><time>2026-04-10T11:15:00Z</time></trkpt><trkpt lat="44.888000617790915" lon="7.834868816848094"><ele>255.0</ele><time>2026-04-10T11:15:02Z</time></trkpt><trkpt lat="44.88806559663625" lon="7.8347861077785"><ele>254.5</ele><time>2026-04-10T11:15:04Z</time></trkpt><trkpt lat="44.88812885470265" lon="7.8347112811339565"><ele>254.0</ele><time>2026-04-10T11:15:06Z</time></trkpt><trkpt lat="44.88819738263723" lon="7.834642964924776"><ele>253.49999999999997</ele><time>2026-04-10T11:15:08Z</time></trkpt><trkpt lat="44.88826657609114" lon="7.834576390485811"><ele>253.0</ele><time>2026-04-10T11:15:10Z</time></trkpt><trkpt lat="44.8883395023458" lon="7.834513075742063"><ele>253.0</ele><time>2026-04-10T11:15:12Z</time></trkpt><trkpt lat="44.888411912240485" lon="7.834447890022041"><ele>253.0</ele><time>2026-04-10T11:15:14Z</time></trkpt><trkpt lat="44.88848952426037" lon="7.834395010117868"><ele>253.0</ele><time>2026-04-10T11:15:16Z</time></trkpt><trkpt lat="44.88857531037921" lon="7.834342330959117"><ele>253.0</ele><time>2026-04-10T11:15:18Z</time></trkpt><trkpt lat="44.88866215673502" lon="7.834282909358997"><ele>253.0</ele><time>2026-04-10T11:15:20Z</time></trkpt><trkpt lat="44.88875682387948" lon="7.834237036256268"><ele>253.4</ele><time>2026-04-10T11:15:22Z</time></trkpt><trkpt lat="44.88885588201732" lon="7.834196539214773"><ele>253.8</ele><time>2026-04-10T11:15:24Z</time></trkpt><trkpt lat="44.88895205363353" lon="7.8341482490647545"><ele>254.2</ele><time>2026-04-10T11:15:26Z</time></trkpt><trkpt lat="44.889049458115096" lon="7.834080321662138"><ele>254.6</ele><time>2026-04-10T11:15:27.999Z</time></trkpt><trkpt lat="44.88914399789313" lon="7.834015468801562"><ele>255.0</ele><time>2026-04-10T11:15:29.999Z</time></trkpt><trkpt lat="44.88923677576227" lon="7.833948870135837"><ele>254.8</ele><time>2026-04-10T11:15:31.999Z</time></trkpt><trkpt lat="44.889337166522296" lon="7.83388472889193"><ele>254.6</ele><time>2026-04-10T11:15:33.999Z</time></trkpt><trkpt lat="44.88943620427508" lon="7.833816369095002"><ele>254.39999999999998</ele><time>2026-04-10T11:15:35.999Z</time></trkpt><trkpt lat="44.88953284111887" lon="7.8337392635423"><ele>254.2</ele><time>2026-04-10T11:15:37.999Z</time></trkpt><trkpt lat="44.8896274963628" lon="7.833654332936269"><ele>254.0</ele><time>2026-04-10T11:15:39.999Z</time></trkpt><trkpt lat="44.88972105573037" lon="7.833564820661731"><ele>254.2</ele><time>2026-04-10T11:15:41.999Z</time></trkpt><trkpt lat="44.88980752896022" lon="7.833463533172287"><ele>254.39999999999998</ele><time>2026-04-10T11:15:43.999Z</time></trkpt><trkpt lat="44.88989488405611" lon="7.833359359831916"><ele>254.6</ele><time>2026-04-10T11:15:45.999Z</time></trkpt><trkpt lat="44.88997955949832" lon="7.83325254586955"><ele>254.8</ele><time>2026-04-10T11:15:47.999Z</time></trkpt><trkpt lat="44.89005946446008" lon="7.833153797953136"><ele>255.0</ele><time>2026-04-10T11:15:49.999Z</time></trkpt><trkpt lat="44.8901240766457" lon="7.833065334840534"><ele>254.66666666666666</ele><time>2026-04-10T11:15:51.999Z</time></trkpt><trkpt lat="44.89019651404288" lon="7.832974189942842"><ele>254.33333333333331</ele><time>2026-04-10T11:15:53.999Z</time></trkpt><trkpt lat="44.89025712013895" lon="7.832894386324044"><ele>254.0</ele><time>2026-04-10T11:15:55.999Z</time></trkpt><trkpt lat="44.8903218698241" lon="7.8328184516363715"><ele>253.66666666666666</ele><time>2026-04-10T11:15:57.999Z</time></trkpt><trkpt lat="44.890381508884246" lon="7.832740757817856"><ele>253.33333333333331</ele><time>2026-04-10T11:15:59.999Z</time></trkpt><trkpt lat="44.8904340865866" lon="7.832671551321411"><ele>253.0</ele><time>2026-04-10T11:16:01.999Z</time></trkpt><trkpt lat="44.890482967119425" lon="7.83261183735152"><ele>252.99999999999997</ele><time>2026-04-10T11:16:03.999Z</time></trkpt><trkpt lat="44.89051230289514" lon="7.832532335667603"><ele>253.0</ele><time>2026-04-10T11:16:07Z</time></trkpt><trkpt lat="44.890467004329444" lon="7.832420235837383"><ele>253.0</ele><time>2026-04-10T11:16:10Z</time></trkpt><trkpt lat="44.89043163854289" lon="7.832302706533885"><ele>253.0</ele><time>2026-04-10T11:16:13Z</time></trkpt><trkpt lat="44.89039349687828" lon="7.832186366429005"><ele>252.99999999999997</ele><time>2026-04-10T11:16:16Z</time></trkpt><trkpt lat="44.89035308070775" lon="7.832106771767204"><ele>253.0</ele><time>2026-04-10T11:16:19Z</time></trkpt><trkpt lat="44.890308530469646" lon="7.832032100063878"><ele>252.99999999999997</ele><time>2026-04-10T11:16:23Z</time></trkpt><trkpt lat="44.89022555977909" lon="7.832072834690049"><ele>253.0</ele><time>2026-04-10T11:16:36Z</time></trkpt><trkpt lat="44.89015562111157" lon="7.8320860517895285"><ele>253.0</ele><time>2026-04-10T11:16:40Z</time></trkpt><trkpt lat="44.89023227606591" lon="7.83213429565488"><ele>253.0</ele><time>2026-04-10T11:22:38Z</time></trkpt><trkpt lat="44.89029484296312" lon="7.832112462786757"><ele>252.99999999999997</ele><time>2026-04-10T11:24:23.999Z</time></trkpt><trkpt lat="44.89036448294761" lon="7.832116616160552"><ele>253.0</ele><time>2026-04-10T11:24:38Z</time></trkpt><trkpt lat="44.89039592857771" lon="7.832216059536816"><ele>253.00000000000003</ele><time>2026-04-10T11:24:42Z</time></trkpt><trkpt lat="44.89042430168835" lon="7.832312547539234"><ele>253.0</ele><time>2026-04-10T11:24:45Z</time></trkpt><trkpt lat="44.890450844044096" lon="7.832417121977337"><ele>253.00000000000003</ele><time>2026-04-10T11:24:48Z</time></trkpt><trkpt lat="44.89048765602685" lon="7.832494192781217"><ele>253.00000000000003</ele><time>2026-04-10T11:24:51Z</time></trkpt><trkpt lat="44.89055994853275" lon="7.832489679699916"><ele>253.0</ele><time>2026-04-10T11:24:55Z</time></trkpt><trkpt lat="44.8906202890937" lon="7.83243233039882"><ele>253.00000000000003</ele><time>2026-04-10T11:24:58Z</time></trkpt><trkpt lat="44.890671013075625" lon="7.832379368779046"><ele>253.00000000000003</ele><time>2026-04-10T11:25:00Z</time></trkpt><trkpt lat="44.890734786744524" lon="7.832316543108171"><ele>253.0</ele><time>2026-04-10T11:25:02Z</time></trkpt><trkpt lat="44.89080030095595" lon="7.832242900600878"><ele>253.0</ele><time>2026-04-10T11:25:04Z</time></trkpt><trkpt lat="44.89087244825884" lon="7.832162463654365"><ele>253.0</ele><time>2026-04-10T11:25:06Z</time></trkpt><trkpt lat="44.890952940386555" lon="7.832069025286211"><ele>253.0</ele><time>2026-04-10T11:25:08Z</time></trkpt><trkpt lat="44.89104134637853" lon="7.831978352171722"><ele>253.0</ele><time>2026-04-10T11:25:10Z</time></trkpt><trkpt lat="44.89112832174918" lon="7.831875956405112"><ele>252.0</ele><time>2026-04-10T11:25:12Z</time></trkpt><trkpt lat="44.89121723169932" lon="7.831772605066127"><ele>251.0</ele><time>2026-04-10T11:25:14Z</time></trkpt><trkpt lat="44.89130869741818" lon="7.8316730709268665"><ele>250.0</ele><time>2026-04-10T11:25:16Z</time></trkpt><trkpt lat="44.89140068828166" lon="7.83156648720416"><ele>249.0</ele><time>2026-04-10T11:25:18Z</time></trkpt><trkpt lat="44.89149534294679" lon="7.83146168273731"><ele>249.0</ele><time>2026-04-10T11:25:20Z</time></trkpt><trkpt lat="44.89159108268137" lon="7.831355961739942"><ele>249.0</ele><time>2026-04-10T11:25:22Z</time></trkpt><trkpt lat="44.89169006592695" lon="7.831249237020735"><ele>249.0</ele><time>2026-04-10T11:25:24Z</time></trkpt><trkpt lat="44.891793050397496" lon="7.831160737298564"><ele>249.0</ele><time>2026-04-10T11:25:26Z</time></trkpt><trkpt lat="44.89190069197156" lon="7.831082244335339"><ele>248.6</ele><time>2026-04-10T11:25:28Z</time></trkpt><trkpt lat="44.89201687152595" lon="7.831013805016669"><ele>248.2</ele><time>2026-04-10T11:25:30Z</time></trkpt><trkpt lat="44.89213730998808" lon="7.8309617587901705"><ele>247.79999999999998</ele><time>2026-04-10T11:25:32Z</time></trkpt><trkpt lat="44.892201018654276" lon="7.830943254125026"><ele>247.39999999999998</ele><time>2026-04-10T11:25:33Z</time></trkpt><trkpt lat="44.892264822790295" lon="7.830932177957763"><ele>247.0</ele><time>2026-04-10T11:25:34Z</time></trkpt><trkpt lat="44.892388367699525" lon="7.830912546063416"><ele>246.8</ele><time>2026-04-10T11:25:36Z</time></trkpt><trkpt lat="44.89251141900336" lon="7.830890894542783"><ele>246.6</ele><time>2026-04-10T11:25:38Z</time></trkpt><trkpt lat="44.892632605114606" lon="7.83086103826134"><ele>246.40000000000003</ele><time>2026-04-10T11:25:40Z</time></trkpt><trkpt lat="44.89275239544954" lon="7.830830970303622"><ele>246.20000000000002</ele><time>2026-04-10T11:25:42Z</time></trkpt><trkpt lat="44.89281557821517" lon="7.830815850192269"><ele>246.0</ele><time>2026-04-10T11:25:43Z</time></trkpt><trkpt lat="44.89288063456162" lon="7.830804759513749"><ele>246.0</ele><time>2026-04-10T11:25:44Z</time></trkpt><trkpt lat="44.89300366556249" lon="7.830819965303018"><ele>246.00000000000003</ele><time>2026-04-10T11:25:46Z</time></trkpt><trkpt lat="44.89306542013591" lon="7.830841312221843"><ele>246.00000000000003</ele><time>2026-04-10T11:25:47Z</time></trkpt><trkpt lat="44.89318228416099" lon="7.830900852510367"><ele>246.0</ele><time>2026-04-10T11:25:49Z</time></trkpt><trkpt lat="44.89329810132422" lon="7.830958336177694"><ele>246.0</ele><time>2026-04-10T11:25:51Z</time></trkpt><trkpt lat="44.893409374305634" lon="7.8310151519251185"><ele>247.0</ele><time>2026-04-10T11:25:53Z</time></trkpt><trkpt lat="44.89352306346466" lon="7.831071965676609"><ele>248.0</ele><time>2026-04-10T11:25:54.999Z</time></trkpt><trkpt lat="44.89363062665712" lon="7.8311258938321595"><ele>249.0</ele><time>2026-04-10T11:25:56.999Z</time></trkpt><trkpt lat="44.89374480156418" lon="7.831177731705187"><ele>250.0</ele><time>2026-04-10T11:25:58.999Z</time></trkpt><trkpt lat="44.89385092888764" lon="7.831227803661413"><ele>250.0</ele><time>2026-04-10T11:26:00.999Z</time></trkpt><trkpt lat="44.89395853603121" lon="7.831283379824968"><ele>250.0</ele><time>2026-04-10T11:26:02.999Z</time></trkpt><trkpt lat="44.89406597272643" lon="7.831341755433004"><ele>250.0</ele><time>2026-04-10T11:26:04.999Z</time></trkpt><trkpt lat="44.89416540658669" lon="7.831419051136981"><ele>250.0</ele><time>2026-04-10T11:26:06.999Z</time></trkpt><trkpt lat="44.89426947990163" lon="7.831475924482181"><ele>250.0</ele><time>2026-04-10T11:26:08.999Z</time></trkpt><trkpt lat="44.89437232506441" lon="7.83153212662092"><ele>250.0</ele><time>2026-04-10T11:26:10.999Z</time></trkpt><trkpt lat="44.89447180447718" lon="7.83158522492938"><ele>250.0</ele><time>2026-04-10T11:26:12.999Z</time></trkpt><trkpt lat="44.89456519784895" lon="7.8316311553552795"><ele>250.0</ele><time>2026-04-10T11:26:14.999Z</time></trkpt><trkpt lat="44.89466449391611" lon="7.831678927500519"><ele>250.0</ele><time>2026-04-10T11:26:16.999Z</time></trkpt><trkpt lat="44.89476251662638" lon="7.831704488013211"><ele>250.0</ele><time>2026-04-10T11:26:18.999Z</time></trkpt><trkpt lat="44.89486763794055" lon="7.8317400399512636"><ele>250.0</ele><time>2026-04-10T11:26:20.999Z</time></trkpt><trkpt lat="44.89498032350606" lon="7.831766362118825"><ele>250.0</ele><time>2026-04-10T11:26:22.999Z</time></trkpt><trkpt lat="44.89509986364724" lon="7.831774844704772"><ele>250.0</ele><time>2026-04-10T11:26:24.999Z</time></trkpt><trkpt lat="44.89521842698995" lon="7.831793929218637"><ele>249.5</ele><time>2026-04-10T11:26:26.999Z</time></trkpt><trkpt lat="44.89533913476131" lon="7.831807757726346"><ele>249.0</ele><time>2026-04-10T11:26:28.999Z</time></trkpt><trkpt lat="44.89546098575483" lon="7.831826750951709"><ele>248.5</ele><time>2026-04-10T11:26:30.999Z</time></trkpt><trkpt lat="44.89558005796531" lon="7.831863463430657"><ele>248.0</ele><time>2026-04-10T11:26:32.999Z</time></trkpt><trkpt lat="44.89568119624816" lon="7.831911357945786"><ele>248.0</ele><time>2026-04-10T11:26:35Z</time></trkpt><trkpt lat="44.895741719274724" lon="7.831952521316819"><ele>248.0</ele><time>2026-04-10T11:26:37Z</time></trkpt><trkpt lat="44.89580796179131" lon="7.831743056645615"><ele>248.0</ele><time>2026-04-10T11:26:39Z</time></trkpt><trkpt lat="44.89582894877333" lon="7.831589370474809"><ele>248.0</ele><time>2026-04-10T11:26:41Z</time></trkpt><trkpt lat="44.895867476517445" lon="7.831425601248298"><ele>247.60000000000002</ele><time>2026-04-10T11:26:43Z</time></trkpt><trkpt lat="44.895904796827324" lon="7.831281218021066"><ele>247.20000000000002</ele><time>2026-04-10T11:26:45Z</time></trkpt><trkpt lat="44.895942908415954" lon="7.831137073707626"><ele>246.8</ele><time>2026-04-10T11:26:47Z</time></trkpt><trkpt lat="44.895991939629475" lon="7.831000788705084"><ele>246.4</ele><time>2026-04-10T11:26:49Z</time></trkpt><trkpt lat="44.896055231184214" lon="7.830875383852702"><ele>246.0</ele><time>2026-04-10T11:26:51Z</time></trkpt><trkpt lat="44.89612765603188" lon="7.830752865185108"><ele>245.75</ele><time>2026-04-10T11:26:53Z</time></trkpt><trkpt lat="44.896204989880964" lon="7.830634113837105"><ele>245.5</ele><time>2026-04-10T11:26:55Z</time></trkpt><trkpt lat="44.896273968124575" lon="7.830507378016875"><ele>245.25</ele><time>2026-04-10T11:26:57Z</time></trkpt><trkpt lat="44.89633591754159" lon="7.830370651578956"><ele>245.0</ele><time>2026-04-10T11:26:59Z</time></trkpt><trkpt lat="44.896389212451815" lon="7.830234290339982"><ele>245.6</ele><time>2026-04-10T11:27:01Z</time></trkpt><trkpt lat="44.89643663535968" lon="7.830099482750988"><ele>246.2</ele><time>2026-04-10T11:27:03Z</time></trkpt><trkpt lat="44.8964828371138" lon="7.829967183628683"><ele>246.8</ele><time>2026-04-10T11:27:05Z</time></trkpt><trkpt lat="44.896501913021474" lon="7.82981804507477"><ele>247.4</ele><time>2026-04-10T11:27:07Z</time></trkpt><trkpt lat="44.89649478138848" lon="7.829672025034006"><ele>248.0</ele><time>2026-04-10T11:27:09Z</time></trkpt><trkpt lat="44.89645924684931" lon="7.829534150150849"><ele>248.0</ele><time>2026-04-10T11:27:11Z</time></trkpt><trkpt lat="44.89641967024823" lon="7.8294095748468235"><ele>248.0</ele><time>2026-04-10T11:27:13Z</time></trkpt><trkpt lat="44.89637934059345" lon="7.829281119612044"><ele>248.0</ele><time>2026-04-10T11:27:15Z</time></trkpt><trkpt lat="44.896351028118445" lon="7.829156254663407"><ele>248.0</ele><time>2026-04-10T11:27:17Z</time></trkpt><trkpt lat="44.89631268011009" lon="7.829041315582373"><ele>248.0</ele><time>2026-04-10T11:27:19Z</time></trkpt><trkpt lat="44.89628429801673" lon="7.828920039606816"><ele>248.4</ele><time>2026-04-10T11:27:21Z</time></trkpt><trkpt lat="44.89625509673211" lon="7.828777159099311"><ele>248.8</ele><time>2026-04-10T11:27:24Z</time></trkpt><trkpt lat="44.896209636568784" lon="7.828610281838751"><ele>249.2</ele><time>2026-04-10T11:27:26Z</time></trkpt><trkpt lat="44.89617813731678" lon="7.8284842964878125"><ele>249.6</ele><time>2026-04-10T11:27:28Z</time></trkpt><trkpt lat="44.89617261441095" lon="7.828359698391032"><ele>250.0</ele><time>2026-04-10T11:27:30Z</time></trkpt><trkpt lat="44.89623416787101" lon="7.828244020780664"><ele>250.0</ele><time>2026-04-10T11:27:32Z</time></trkpt><trkpt lat="44.89633331603604" lon="7.828213560906628"><ele>250.0</ele><time>2026-04-10T11:27:34Z</time></trkpt><trkpt lat="44.8964368072006" lon="7.828194353186074"><ele>250.0</ele><time>2026-04-10T11:27:36Z</time></trkpt><trkpt lat="44.89654176465893" lon="7.828170581269835"><ele>250.0</ele><time>2026-04-10T11:27:38Z</time></trkpt><trkpt lat="44.89665109221549" lon="7.828152506314962"><ele>250.0</ele><time>2026-04-10T11:27:40Z</time></trkpt><trkpt lat="44.89675315204368" lon="7.828124008227397"><ele>250.2</ele><time>2026-04-10T11:27:42Z</time></trkpt><trkpt lat="44.89685072265769" lon="7.828086366561398"><ele>250.4</ele><time>2026-04-10T11:27:44Z</time></trkpt><trkpt lat="44.896952207525594" lon="7.8280476650446"><ele>250.60000000000002</ele><time>2026-04-10T11:27:45.999Z</time></trkpt><trkpt lat="44.8970405946032" lon="7.828001436962762"><ele>250.8</ele><time>2026-04-10T11:27:47.999Z</time></trkpt><trkpt lat="44.8971274579469" lon="7.827943144057338"><ele>251.0</ele><time>2026-04-10T11:27:49.999Z</time></trkpt><trkpt lat="44.897221612518585" lon="7.827888370166469"><ele>251.0</ele><time>2026-04-10T11:27:51.999Z</time></trkpt><trkpt lat="44.89737282590627" lon="7.827810921063571"><ele>251.0</ele><time>2026-04-10T11:27:54.999Z</time></trkpt><trkpt lat="44.897493478806375" lon="7.827794855994797"><ele>251.0</ele><time>2026-04-10T11:27:56.999Z</time></trkpt><trkpt lat="44.897612322730055" lon="7.827799884158641"><ele>251.0</ele><time>2026-04-10T11:27:58.999Z</time></trkpt><trkpt lat="44.89773287275426" lon="7.827792912516885"><ele>250.00000000000003</ele><time>2026-04-10T11:28:00.999Z</time></trkpt><trkpt lat="44.897858719831895" lon="7.827801582335797"><ele>249.0</ele><time>2026-04-10T11:28:02.999Z</time></trkpt><trkpt lat="44.8979247902796" lon="7.827813041256853"><ele>248.0</ele><time>2026-04-10T11:28:03.999Z</time></trkpt><trkpt lat="44.897988566153415" lon="7.827817740154586"><ele>247.0</ele><time>2026-04-10T11:28:04.999Z</time></trkpt><trkpt lat="44.89805330820419" lon="7.827810974755376"><ele>246.00000000000003</ele><time>2026-04-10T11:28:05.999Z</time></trkpt><trkpt lat="44.898119164511975" lon="7.82780064068701"><ele>245.0</ele><time>2026-04-10T11:28:06.999Z</time></trkpt><trkpt lat="44.8981824380229" lon="7.827782805725794"><ele>245.00000000000003</ele><time>2026-04-10T11:28:07.999Z</time></trkpt><trkpt lat="44.898293802086286" lon="7.827744716228817"><ele>245.0</ele><time>2026-04-10T11:28:09.999Z</time></trkpt><trkpt lat="44.8984043982224" lon="7.827719884892963"><ele>245.0</ele><time>2026-04-10T11:28:11.999Z</time></trkpt><trkpt lat="44.89846497466771" lon="7.8276895059603895"><ele>245.0</ele><time>2026-04-10T11:28:12.999Z</time></trkpt><trkpt lat="44.89852697444182" lon="7.827665586783046"><ele>245.00000000000003</ele><time>2026-04-10T11:28:13.999Z</time></trkpt><trkpt lat="44.89858767831523" lon="7.827626504988112"><ele>245.0</ele><time>2026-04-10T11:28:14.999Z</time></trkpt><trkpt lat="44.89864680507816" lon="7.827579546063846"><ele>245.00000000000003</ele><time>2026-04-10T11:28:15.999Z</time></trkpt><trkpt lat="44.898745145428286" lon="7.827471019415584"><ele>245.0</ele><time>2026-04-10T11:28:17.999Z</time></trkpt><trkpt lat="44.898795857931496" lon="7.827402140413357"><ele>245.0</ele><time>2026-04-10T11:28:18.999Z</time></trkpt><trkpt lat="44.898845803606235" lon="7.8273261655969"><ele>245.0</ele><time>2026-04-10T11:28:19.999Z</time></trkpt><trkpt lat="44.89889002286293" lon="7.827240441972396"><ele>245.00000000000003</ele><time>2026-04-10T11:28:20.999Z</time></trkpt><trkpt lat="44.8989351496029" lon="7.8271553730258905"><ele>245.0</ele><time>2026-04-10T11:28:21.999Z</time></trkpt><trkpt lat="44.89897906023695" lon="7.827068011702652"><ele>245.0</ele><time>2026-04-10T11:28:22.999Z</time></trkpt><trkpt lat="44.89902265478132" lon="7.8269821028096676"><ele>245.0</ele><time>2026-04-10T11:28:23.999Z</time></trkpt><trkpt lat="44.899065296313864" lon="7.826900284593629"><ele>245.0</ele><time>2026-04-10T11:28:24.999Z</time></trkpt><trkpt lat="44.89910930453575" lon="7.826818588414597"><ele>245.0</ele><time>2026-04-10T11:28:25.999Z</time></trkpt><trkpt lat="44.89915398767446" lon="7.826738091815814"><ele>245.0</ele><time>2026-04-10T11:28:26.999Z</time></trkpt><trkpt lat="44.89919436055974" lon="7.826658868376688"><ele>245.0</ele><time>2026-04-10T11:28:27.999Z</time></trkpt><trkpt lat="44.89923943148659" lon="7.8265905662244"><ele>245.0</ele><time>2026-04-10T11:28:28.999Z</time></trkpt><trkpt lat="44.89928205007292" lon="7.826521424861262"><ele>244.57142857142856</ele><time>2026-04-10T11:28:29.999Z</time></trkpt><trkpt lat="44.89932490212061" lon="7.8264544650970596"><ele>244.14285714285714</ele><time>2026-04-10T11:28:30.999Z</time></trkpt><trkpt lat="44.89941282154612" lon="7.8263370189832555"><ele>243.71428571428572</ele><time>2026-04-10T11:28:32.999Z</time></trkpt><trkpt lat="44.899460215743176" lon="7.826277560221561"><ele>243.28571428571428</ele><time>2026-04-10T11:28:33.999Z</time></trkpt><trkpt lat="44.899507480036625" lon="7.826214599626562"><ele>242.85714285714283</ele><time>2026-04-10T11:28:34.999Z</time></trkpt><trkpt lat="44.89955500417742" lon="7.826155004604251"><ele>242.42857142857142</ele><time>2026-04-10T11:28:35.999Z</time></trkpt><trkpt lat="44.899602563450124" lon="7.826093772910189"><ele>242.0</ele><time>2026-04-10T11:28:36.999Z</time></trkpt><trkpt lat="44.8996951072679" lon="7.825975072957536"><ele>242.0</ele><time>2026-04-10T11:28:38.999Z</time></trkpt><trkpt lat="44.89978730232274" lon="7.825858937770199"><ele>242.0</ele><time>2026-04-10T11:28:41Z</time></trkpt><trkpt lat="44.89986970376645" lon="7.82573435885994"><ele>242.0</ele><time>2026-04-10T11:28:43Z</time></trkpt><trkpt lat="44.899946792293164" lon="7.825611824843949"><ele>242.0</ele><time>2026-04-10T11:28:45Z</time></trkpt><trkpt lat="44.90002739855919" lon="7.825495058046543"><ele>242.25</ele><time>2026-04-10T11:28:47Z</time></trkpt><trkpt lat="44.90011428223325" lon="7.825376443397019"><ele>242.5</ele><time>2026-04-10T11:28:49Z</time></trkpt><trkpt lat="44.90020724728113" lon="7.825266583972134"><ele>242.75</ele><time>2026-04-10T11:28:51Z</time></trkpt><trkpt lat="44.900305115926244" lon="7.825175590942278"><ele>243.0</ele><time>2026-04-10T11:28:53Z</time></trkpt><trkpt lat="44.90040440481004" lon="7.825080449580443"><ele>243.0</ele><time>2026-04-10T11:28:55Z</time></trkpt><trkpt lat="44.90049990616101" lon="7.824998909077271"><ele>243.0</ele><time>2026-04-10T11:28:57Z</time></trkpt><trkpt lat="44.90059563852808" lon="7.824920706179357"><ele>243.0</ele><time>2026-04-10T11:28:59Z</time></trkpt><trkpt lat="44.90069344569671" lon="7.824852379429831"><ele>243.0</ele><time>2026-04-10T11:29:01Z</time></trkpt><trkpt lat="44.900791984257445" lon="7.824780159763703"><ele>243.0</ele><time>2026-04-10T11:29:03Z</time></trkpt><trkpt lat="44.90089425820673" lon="7.824706316310888"><ele>242.25</ele><time>2026-04-10T11:29:05Z</time></trkpt><trkpt lat="44.900997779155375" lon="7.824645370392322"><ele>241.5</ele><time>2026-04-10T11:29:07Z</time></trkpt><trkpt lat="44.90110586119568" lon="7.824591507166515"><ele>240.75</ele><time>2026-04-10T11:29:09Z</time></trkpt><trkpt lat="44.90121376251307" lon="7.824545762767421"><ele>240.0</ele><time>2026-04-10T11:29:11Z</time></trkpt><trkpt lat="44.90132616917482" lon="7.824513920289692"><ele>240.0</ele><time>2026-04-10T11:29:13Z</time></trkpt><trkpt lat="44.90144187470405" lon="7.824487704775059"><ele>240.0</ele><time>2026-04-10T11:29:15Z</time></trkpt><trkpt lat="44.90155967417561" lon="7.824460577837227"><ele>240.0</ele><time>2026-04-10T11:29:17Z</time></trkpt><trkpt lat="44.90167390744997" lon="7.8244363876028125"><ele>240.0</ele><time>2026-04-10T11:29:19Z</time></trkpt><trkpt lat="44.90178750002391" lon="7.824408002438034"><ele>240.25</ele><time>2026-04-10T11:29:21Z</time></trkpt><trkpt lat="44.901903466715034" lon="7.82438092220712"><ele>240.5</ele><time>2026-04-10T11:29:23Z</time></trkpt><trkpt lat="44.902018050031494" lon="7.824354998802205"><ele>240.75</ele><time>2026-04-10T11:29:25Z</time></trkpt><trkpt lat="44.902136327023825" lon="7.82432184992398"><ele>241.0</ele><time>2026-04-10T11:29:27Z</time></trkpt><trkpt lat="44.90225777955258" lon="7.824287743317359"><ele>241.0</ele><time>2026-04-10T11:29:29Z</time></trkpt><trkpt lat="44.90232040042418" lon="7.824270170263131"><ele>241.00000000000003</ele><time>2026-04-10T11:29:30Z</time></trkpt><trkpt lat="44.90238183146591" lon="7.824249271962063"><ele>241.0</ele><time>2026-04-10T11:29:31Z</time></trkpt><trkpt lat="44.902500808270986" lon="7.8242039546713835"><ele>241.0</ele><time>2026-04-10T11:29:33Z</time></trkpt><trkpt lat="44.90256449139953" lon="7.824184836208769"><ele>241.00000000000003</ele><time>2026-04-10T11:29:34Z</time></trkpt><trkpt lat="44.902628509019245" lon="7.824167124447304"><ele>241.0</ele><time>2026-04-10T11:29:35Z</time></trkpt><trkpt lat="44.902691142886056" lon="7.824145242970163"><ele>241.0</ele><time>2026-04-10T11:29:36Z</time></trkpt><trkpt lat="44.902753920312485" lon="7.824119240171785"><ele>241.16666666666666</ele><time>2026-04-10T11:29:37Z</time></trkpt><trkpt lat="44.90281656827562" lon="7.824094055031842"><ele>241.33333333333331</ele><time>2026-04-10T11:29:38Z</time></trkpt><trkpt lat="44.902879657222044" lon="7.824070742181829"><ele>241.5</ele><time>2026-04-10T11:29:39Z</time></trkpt><trkpt lat="44.90294393125599" lon="7.824042083493922"><ele>241.66666666666669</ele><time>2026-04-10T11:29:40Z</time></trkpt><trkpt lat="44.903066360303875" lon="7.824004973843777"><ele>241.83333333333334</ele><time>2026-04-10T11:29:42Z</time></trkpt><trkpt lat="44.90312899562414" lon="7.823983694146044"><ele>242.0</ele><time>2026-04-10T11:29:43Z</time></trkpt><trkpt lat="44.90318978265854" lon="7.823957825292259"><ele>242.0</ele><time>2026-04-10T11:29:44Z</time></trkpt><trkpt lat="44.903309014445405" lon="7.823913153152639"><ele>242.0</ele><time>2026-04-10T11:29:46Z</time></trkpt><trkpt lat="44.90343239246668" lon="7.823881881219644"><ele>242.0</ele><time>2026-04-10T11:29:48Z</time></trkpt><trkpt lat="44.90349537702753" lon="7.823867516384054"><ele>242.0</ele><time>2026-04-10T11:29:49Z</time></trkpt><trkpt lat="44.90355786498054" lon="7.823850993431361"><ele>242.0</ele><time>2026-04-10T11:29:50Z</time></trkpt><trkpt lat="44.903680564606994" lon="7.8238172822069725"><ele>241.5</ele><time>2026-04-10T11:29:52Z</time></trkpt><trkpt lat="44.903801094777656" lon="7.823771655886799"><ele>241.0</ele><time>2026-04-10T11:29:54Z</time></trkpt><trkpt lat="44.90392030063146" lon="7.8237260054363365"><ele>240.5</ele><time>2026-04-10T11:29:56Z</time></trkpt><trkpt lat="44.904039893801354" lon="7.8236821315009015"><ele>240.0</ele><time>2026-04-10T11:29:57.999Z</time></trkpt><trkpt lat="44.904160458220275" lon="7.823634527108428"><ele>240.0</ele><time>2026-04-10T11:29:59.999Z</time></trkpt><trkpt lat="44.904224811180754" lon="7.823613422311448"><ele>240.0</ele><time>2026-04-10T11:30:00.999Z</time></trkpt><trkpt lat="44.90434659402293" lon="7.823565161574713"><ele>240.0</ele><time>2026-04-10T11:30:02.999Z</time></trkpt><trkpt lat="44.90440980486288" lon="7.8235425645823335"><ele>240.0</ele><time>2026-04-10T11:30:03.999Z</time></trkpt><trkpt lat="44.90447018466702" lon="7.823516967699048"><ele>240.0</ele><time>2026-04-10T11:30:04.999Z</time></trkpt><trkpt lat="44.90453329768596" lon="7.823491056924359"><ele>240.0</ele><time>2026-04-10T11:30:05.999Z</time></trkpt><trkpt lat="44.904595823394764" lon="7.823467606145611"><ele>240.14285714285717</ele><time>2026-04-10T11:30:06.999Z</time></trkpt><trkpt lat="44.90465608413152" lon="7.82343862525576"><ele>240.28571428571428</ele><time>2026-04-10T11:30:07.999Z</time></trkpt><trkpt lat="44.9047158694322" lon="7.823402428117432"><ele>240.42857142857144</ele><time>2026-04-10T11:30:08.999Z</time></trkpt><trkpt lat="44.9047773863034" lon="7.823370206737002"><ele>240.57142857142858</ele><time>2026-04-10T11:30:09.999Z</time></trkpt><trkpt lat="44.90483284027923" lon="7.82332341288987"><ele>240.71428571428572</ele><time>2026-04-10T11:30:10.999Z</time></trkpt><trkpt lat="44.90488670517031" lon="7.823270977575781"><ele>240.85714285714286</ele><time>2026-04-10T11:30:11.999Z</time></trkpt><trkpt lat="44.904940788308934" lon="7.823213893795456"><ele>241.0</ele><time>2026-04-10T11:30:12.999Z</time></trkpt><trkpt lat="44.904989666552744" lon="7.823155761199841"><ele>240.99999999999997</ele><time>2026-04-10T11:30:13.999Z</time></trkpt><trkpt lat="44.90504202677741" lon="7.823099841409864"><ele>241.0</ele><time>2026-04-10T11:30:14.999Z</time></trkpt><trkpt lat="44.905095145397674" lon="7.823049653671242"><ele>241.0</ele><time>2026-04-10T11:30:15.999Z</time></trkpt><trkpt lat="44.90515021107619" lon="7.823004194466797"><ele>241.0</ele><time>2026-04-10T11:30:16.999Z</time></trkpt><trkpt lat="44.905203104067546" lon="7.822951700842963"><ele>240.99999999999997</ele><time>2026-04-10T11:30:17.999Z</time></trkpt><trkpt lat="44.905258586216405" lon="7.822900388897001"><ele>241.0</ele><time>2026-04-10T11:30:18.999Z</time></trkpt><trkpt lat="44.90536917256862" lon="7.822812717963456"><ele>240.75</ele><time>2026-04-10T11:30:20.999Z</time></trkpt><trkpt lat="44.9054845797199" lon="7.822749394665436"><ele>240.5</ele><time>2026-04-10T11:30:22.999Z</time></trkpt><trkpt lat="44.905601801376726" lon="7.822678623214092"><ele>240.25</ele><time>2026-04-10T11:30:24.999Z</time></trkpt><trkpt lat="44.90571508803321" lon="7.822618359716879"><ele>240.0</ele><time>2026-04-10T11:30:26.999Z</time></trkpt><trkpt lat="44.905831826046004" lon="7.822566362115147"><ele>239.75</ele><time>2026-04-10T11:30:28.999Z</time></trkpt><trkpt lat="44.90594982010393" lon="7.822513135036278"><ele>239.5</ele><time>2026-04-10T11:30:30.999Z</time></trkpt><trkpt lat="44.90606625473006" lon="7.822459308199995"><ele>239.25</ele><time>2026-04-10T11:30:32.999Z</time></trkpt><trkpt lat="44.906181372106" lon="7.822403971700496"><ele>239.0</ele><time>2026-04-10T11:30:34.999Z</time></trkpt><trkpt lat="44.9062997479741" lon="7.8223502680499575"><ele>239.0</ele><time>2026-04-10T11:30:36.999Z</time></trkpt><trkpt lat="44.906358772926666" lon="7.82231922032993"><ele>238.99999999999997</ele><time>2026-04-10T11:30:37.999Z</time></trkpt><trkpt lat="44.9064720803176" lon="7.822260687139459"><ele>238.99999999999997</ele><time>2026-04-10T11:30:39.999Z</time></trkpt><trkpt lat="44.90658290032325" lon="7.822197521068435"><ele>239.0</ele><time>2026-04-10T11:30:41.999Z</time></trkpt><trkpt lat="44.90669100539477" lon="7.822128691807145"><ele>239.0</ele><time>2026-04-10T11:30:43.999Z</time></trkpt><trkpt lat="44.90680400725357" lon="7.822063206011808"><ele>239.25</ele><time>2026-04-10T11:30:45.999Z</time></trkpt><trkpt lat="44.90691038778342" lon="7.821993617287859"><ele>239.5</ele><time>2026-04-10T11:30:48Z</time></trkpt><trkpt lat="44.90702169843052" lon="7.82193898024135"><ele>239.75</ele><time>2026-04-10T11:30:50Z</time></trkpt><trkpt lat="44.90712804815973" lon="7.821899687730637"><ele>240.0</ele><time>2026-04-10T11:30:52Z</time></trkpt><trkpt lat="44.90723477628476" lon="7.821862510710212"><ele>240.0</ele><time>2026-04-10T11:30:54Z</time></trkpt><trkpt lat="44.90733367019662" lon="7.821830570004122"><ele>240.0</ele><time>2026-04-10T11:30:56Z</time></trkpt><trkpt lat="44.907425962091715" lon="7.821793748805654"><ele>240.0</ele><time>2026-04-10T11:30:58Z</time></trkpt><trkpt lat="44.907500212066736" lon="7.821754918949799"><ele>240.0</ele><time>2026-04-10T11:31:00Z</time></trkpt><trkpt lat="44.907538790861736" lon="7.821902078710945"><ele>240.0</ele><time>2026-04-10T11:31:04Z</time></trkpt><trkpt lat="44.90755383211888" lon="7.822022341327788"><ele>240.0</ele><time>2026-04-10T11:31:06Z</time></trkpt><trkpt lat="44.9075722840812" lon="7.822159903164505"><ele>240.0</ele><time>2026-04-10T11:31:08Z</time></trkpt><trkpt lat="44.90759212152856" lon="7.822290613895752"><ele>240.0</ele><time>2026-04-10T11:31:10Z</time></trkpt><trkpt lat="44.90761362608969" lon="7.822430150895587"><ele>240.0</ele><time>2026-04-10T11:31:12Z</time></trkpt><trkpt lat="44.90763829320183" lon="7.822579926792589"><ele>240.0</ele><time>2026-04-10T11:31:14Z</time></trkpt><trkpt lat="44.90767200503171" lon="7.822729237796069"><ele>240.0</ele><time>2026-04-10T11:31:16Z</time></trkpt><trkpt lat="44.90771582167021" lon="7.822879691168097"><ele>240.0</ele><time>2026-04-10T11:31:18Z</time></trkpt><trkpt lat="44.90776634963445" lon="7.823009989885448"><ele>240.0</ele><time>2026-04-10T11:31:20Z</time></trkpt><trkpt lat="44.90782016046149" lon="7.82313611316223"><ele>240.0</ele><time>2026-04-10T11:31:22Z</time></trkpt><trkpt lat="44.90783716477296" lon="7.823284302551765"><ele>240.0</ele><time>2026-04-10T11:31:24Z</time></trkpt><trkpt lat="44.9078644874019" lon="7.823437689674186"><ele>239.75</ele><time>2026-04-10T11:31:26Z</time></trkpt><trkpt lat="44.9078890241567" lon="7.823590459780178"><ele>239.5</ele><time>2026-04-10T11:31:28Z</time></trkpt><trkpt lat="44.907913374836816" lon="7.823750869853645"><ele>239.25</ele><time>2026-04-10T11:31:30Z</time></trkpt><trkpt lat="44.9079378520363" lon="7.823912113424954"><ele>239.0</ele><time>2026-04-10T11:31:32Z</time></trkpt><trkpt lat="44.907961456119025" lon="7.824075573166923"><ele>239.0</ele><time>2026-04-10T11:31:34Z</time></trkpt><trkpt lat="44.907984666679305" lon="7.824237298426188"><ele>239.0</ele><time>2026-04-10T11:31:36Z</time></trkpt><trkpt lat="44.90800807001721" lon="7.824404616113988"><ele>239.0</ele><time>2026-04-10T11:31:38Z</time></trkpt><trkpt lat="44.90802978918526" lon="7.824566547980357"><ele>239.0</ele><time>2026-04-10T11:31:40Z</time></trkpt><trkpt lat="44.90805192586359" lon="7.824731592754458"><ele>239.25</ele><time>2026-04-10T11:31:42Z</time></trkpt><trkpt lat="44.90807399649341" lon="7.824896144957299"><ele>239.5</ele><time>2026-04-10T11:31:44Z</time></trkpt><trkpt lat="44.90809875170225" lon="7.825059928952016"><ele>239.75</ele><time>2026-04-10T11:31:46Z</time></trkpt><trkpt lat="44.90812401432569" lon="7.825223822059637"><ele>240.0</ele><time>2026-04-10T11:31:48Z</time></trkpt><trkpt lat="44.90814721406029" lon="7.825383300742029"><ele>240.0</ele><time>2026-04-10T11:31:50Z</time></trkpt><trkpt lat="44.90817026877056" lon="7.825544612430891"><ele>240.0</ele><time>2026-04-10T11:31:52Z</time></trkpt><trkpt lat="44.90819290829153" lon="7.825703019014451"><ele>240.0</ele><time>2026-04-10T11:31:54Z</time></trkpt><trkpt lat="44.90821734432014" lon="7.825862682301703"><ele>240.0</ele><time>2026-04-10T11:31:56Z</time></trkpt><trkpt lat="44.90824375157567" lon="7.82602559841309"><ele>240.0</ele><time>2026-04-10T11:31:58Z</time></trkpt><trkpt lat="44.90828331992623" lon="7.826181384668782"><ele>240.0</ele><time>2026-04-10T11:32:00Z</time></trkpt><trkpt lat="44.90833723293401" lon="7.826333095879213"><ele>240.0</ele><time>2026-04-10T11:32:02Z</time></trkpt><trkpt lat="44.908392513017716" lon="7.826482718564387"><ele>240.0</ele><time>2026-04-10T11:32:04Z</time></trkpt><trkpt lat="44.908446920663984" lon="7.826634080202005"><ele>239.75</ele><time>2026-04-10T11:32:05.999Z</time></trkpt><trkpt lat="44.90849966365331" lon="7.826785741658236"><ele>239.5</ele><time>2026-04-10T11:32:07.999Z</time></trkpt><trkpt lat="44.90855348127266" lon="7.826934512187676"><ele>239.25</ele><time>2026-04-10T11:32:09.999Z</time></trkpt><trkpt lat="44.90860625166521" lon="7.827084685665507"><ele>239.0</ele><time>2026-04-10T11:32:11.999Z</time></trkpt><trkpt lat="44.90865690205856" lon="7.827231979434207"><ele>239.0</ele><time>2026-04-10T11:32:13.999Z</time></trkpt><trkpt lat="44.908701399713465" lon="7.827378420994361"><ele>239.0</ele><time>2026-04-10T11:32:15.999Z</time></trkpt><trkpt lat="44.90874334770778" lon="7.8275340502761255"><ele>239.0</ele><time>2026-04-10T11:32:17.999Z</time></trkpt><trkpt lat="44.908782445925155" lon="7.827684169293219"><ele>239.0</ele><time>2026-04-10T11:32:19.999Z</time></trkpt><trkpt lat="44.90882261296105" lon="7.827840102977957"><ele>239.2</ele><time>2026-04-10T11:32:21.999Z</time></trkpt><trkpt lat="44.90885691504667" lon="7.828000388052355"><ele>239.39999999999998</ele><time>2026-04-10T11:32:23.999Z</time></trkpt><trkpt lat="44.908887107408994" lon="7.828155322527603"><ele>239.6</ele><time>2026-04-10T11:32:25.999Z</time></trkpt><trkpt lat="44.908904368178156" lon="7.828241082981991"><ele>239.8</ele><time>2026-04-10T11:32:26.999Z</time></trkpt><trkpt lat="44.90893667921353" lon="7.828397599197282"><ele>240.0</ele><time>2026-04-10T11:32:28.999Z</time></trkpt><trkpt lat="44.908968611229156" lon="7.828552279552711"><ele>240.5</ele><time>2026-04-10T11:32:30.999Z</time></trkpt><trkpt lat="44.90900038916602" lon="7.828711179626095"><ele>241.0</ele><time>2026-04-10T11:32:32.999Z</time></trkpt><trkpt lat="44.909030453907654" lon="7.828861381582873"><ele>241.5</ele><time>2026-04-10T11:32:34.999Z</time></trkpt><trkpt lat="44.90906303632445" lon="7.829020431758629"><ele>242.0</ele><time>2026-04-10T11:32:36.999Z</time></trkpt><trkpt lat="44.909096194988415" lon="7.829180267187465"><ele>242.5</ele><time>2026-04-10T11:32:38.999Z</time></trkpt><trkpt lat="44.90912886128585" lon="7.829339044919076"><ele>243.0</ele><time>2026-04-10T11:32:40.999Z</time></trkpt><trkpt lat="44.90916071098309" lon="7.829499151979974"><ele>243.5</ele><time>2026-04-10T11:32:42.999Z</time></trkpt><trkpt lat="44.909192548814794" lon="7.829659199410791"><ele>244.0</ele><time>2026-04-10T11:32:44.999Z</time></trkpt><trkpt lat="44.90922224292242" lon="7.829814787949445"><ele>243.2</ele><time>2026-04-10T11:32:46.999Z</time></trkpt><trkpt lat="44.90925269999613" lon="7.829969199061764"><ele>242.39999999999998</ele><time>2026-04-10T11:32:48.999Z</time></trkpt><trkpt lat="44.909291119148804" lon="7.830111441143748"><ele>241.6</ele><time>2026-04-10T11:32:50.999Z</time></trkpt><trkpt lat="44.909363313118774" lon="7.830213043542386"><ele>240.8</ele><time>2026-04-10T11:32:53Z</time></trkpt><trkpt lat="44.90942364923602" lon="7.830296929302427"><ele>240.0</ele><time>2026-04-10T11:32:55Z</time></trkpt><trkpt lat="44.909469452254335" lon="7.830360611466924"><ele>240.0</ele><time>2026-04-10T11:32:57Z</time></trkpt><trkpt lat="44.909522635682315" lon="7.830232134662258"><ele>240.0</ele><time>2026-04-10T11:32:59Z</time></trkpt><trkpt lat="44.90956415923498" lon="7.830105010689678"><ele>240.0</ele><time>2026-04-10T11:33:01Z</time></trkpt><trkpt lat="44.909597627123425" lon="7.830002548954373"><ele>240.0</ele><time>2026-04-10T11:33:03Z</time></trkpt><trkpt lat="44.909626901075214" lon="7.829912295818307"><ele>240.0</ele><time>2026-04-10T11:33:05Z</time></trkpt><trkpt lat="44.90965778585009" lon="7.829816293403659"><ele>240.0</ele><time>2026-04-10T11:33:07Z</time></trkpt><trkpt lat="44.90968446707486" lon="7.829733357345396"><ele>240.0</ele><time>2026-04-10T11:33:09Z</time></trkpt><trkpt lat="44.909727703643505" lon="7.829648419838408"><ele>240.0</ele><time>2026-04-10T11:33:12Z</time></trkpt><trkpt lat="44.90975832701282" lon="7.82952655216791"><ele>240.0</ele><time>2026-04-10T11:33:13Z</time></trkpt><trkpt lat="44.909791556869735" lon="7.829410640852059"><ele>240.0</ele><time>2026-04-10T11:33:15Z</time></trkpt><trkpt lat="44.909820859467686" lon="7.829294470396448"><ele>240.0</ele><time>2026-04-10T11:33:17Z</time></trkpt><trkpt lat="44.90985938014195" lon="7.829177045558618"><ele>240.0</ele><time>2026-04-10T11:33:19Z</time></trkpt><trkpt lat="44.90988430042101" lon="7.829050711617434"><ele>239.83333333333334</ele><time>2026-04-10T11:33:21Z</time></trkpt><trkpt lat="44.909921073285766" lon="7.8289589485429945"><ele>239.66666666666669</ele><time>2026-04-10T11:33:23Z</time></trkpt><trkpt lat="44.909978748309115" lon="7.828870173687006"><ele>239.5</ele><time>2026-04-10T11:33:25Z</time></trkpt><trkpt lat="44.91003583518914" lon="7.82879295976378"><ele>239.33333333333334</ele><time>2026-04-10T11:33:27Z</time></trkpt><trkpt lat="44.910099995496886" lon="7.828740193759082"><ele>239.16666666666669</ele><time>2026-04-10T11:33:29Z</time></trkpt><trkpt lat="44.910165056741334" lon="7.828679368720205"><ele>239.0</ele><time>2026-04-10T11:33:31Z</time></trkpt><trkpt lat="44.91022353741784" lon="7.828635519331685"><ele>239.0</ele><time>2026-04-10T11:33:33Z</time></trkpt><trkpt lat="44.91029050959394" lon="7.82857695696623"><ele>238.99999999999997</ele><time>2026-04-10T11:33:35Z</time></trkpt><trkpt lat="44.9103667926453" lon="7.828513920893925"><ele>238.99999999999997</ele><time>2026-04-10T11:33:37Z</time></trkpt><trkpt lat="44.91045010850931" lon="7.828434385607529"><ele>239.0</ele><time>2026-04-10T11:33:39Z</time></trkpt><trkpt lat="44.91052906756279" lon="7.828366309507515"><ele>239.0</ele><time>2026-04-10T11:33:41Z</time></trkpt><trkpt lat="44.910603806565724" lon="7.82829062316536"><ele>239.16666666666669</ele><time>2026-04-10T11:33:43Z</time></trkpt><trkpt lat="44.910668632033094" lon="7.828260465549338"><ele>239.33333333333334</ele><time>2026-04-10T11:33:46Z</time></trkpt><trkpt lat="44.91073756750072" lon="7.828211673205511"><ele>239.5</ele><time>2026-04-10T11:33:48Z</time></trkpt><trkpt lat="44.91081095311055" lon="7.828155175116758"><ele>239.66666666666669</ele><time>2026-04-10T11:33:50Z</time></trkpt><trkpt lat="44.9108808676625" lon="7.828091286804299"><ele>239.83333333333334</ele><time>2026-04-10T11:33:52Z</time></trkpt><trkpt lat="44.91096577609373" lon="7.828027733924101"><ele>240.0</ele><time>2026-04-10T11:33:54Z</time></trkpt><trkpt lat="44.91103685592878" lon="7.827968821474947"><ele>239.5</ele><time>2026-04-10T11:33:56Z</time></trkpt><trkpt lat="44.911116561084306" lon="7.827923576835418"><ele>239.0</ele><time>2026-04-10T11:33:58Z</time></trkpt><trkpt lat="44.911286625530344" lon="7.827829408355426"><ele>238.5</ele><time>2026-04-10T11:34:00Z</time></trkpt><trkpt lat="44.9113778341362" lon="7.827787670463156"><ele>238.0</ele><time>2026-04-10T11:34:02Z</time></trkpt><trkpt lat="44.911466808040494" lon="7.8277498680493895"><ele>238.0</ele><time>2026-04-10T11:34:04Z</time></trkpt><trkpt lat="44.91155830011842" lon="7.827713329046281"><ele>238.0</ele><time>2026-04-10T11:34:06Z</time></trkpt><trkpt lat="44.91165217065916" lon="7.827698341375249"><ele>238.0</ele><time>2026-04-10T11:34:07.999Z</time></trkpt><trkpt lat="44.91174512554659" lon="7.827669980312353"><ele>238.0</ele><time>2026-04-10T11:34:09.999Z</time></trkpt><trkpt lat="44.91183865358615" lon="7.82766253121706"><ele>238.0</ele><time>2026-04-10T11:34:11.999Z</time></trkpt><trkpt lat="44.911934488578666" lon="7.82765294256236"><ele>238.4</ele><time>2026-04-10T11:34:13.999Z</time></trkpt><trkpt lat="44.91203200562442" lon="7.827665676407627"><ele>238.8</ele><time>2026-04-10T11:34:15.999Z</time></trkpt><trkpt lat="44.912122547696704" lon="7.827677382845534"><ele>239.2</ele><time>2026-04-10T11:34:17.999Z</time></trkpt><trkpt lat="44.912212082128704" lon="7.827718630154631"><ele>239.6</ele><time>2026-04-10T11:34:19.999Z</time></trkpt><trkpt lat="44.91230013706069" lon="7.827770191198363"><ele>240.0</ele><time>2026-04-10T11:34:21.999Z</time></trkpt><trkpt lat="44.91237463465989" lon="7.827826505930812"><ele>240.0</ele><time>2026-04-10T11:34:23.999Z</time></trkpt><trkpt lat="44.91243779207681" lon="7.827887118266258"><ele>240.0</ele><time>2026-04-10T11:34:25.999Z</time></trkpt><trkpt lat="44.9125172336289" lon="7.8279465824801155"><ele>240.0</ele><time>2026-04-10T11:34:27.999Z</time></trkpt><trkpt lat="44.91259445495675" lon="7.827978058710237"><ele>240.0</ele><time>2026-04-10T11:34:29.999Z</time></trkpt><trkpt lat="44.912674953941384" lon="7.828004458279004"><ele>240.0</ele><time>2026-04-10T11:34:31.999Z</time></trkpt><trkpt lat="44.912750233599" lon="7.828037489504817"><ele>240.0</ele><time>2026-04-10T11:34:33.999Z</time></trkpt><trkpt lat="44.912825458912025" lon="7.828081423043586"><ele>239.83333333333334</ele><time>2026-04-10T11:34:35.999Z</time></trkpt><trkpt lat="44.91290056636886" lon="7.8281303511408975"><ele>239.66666666666669</ele><time>2026-04-10T11:34:37.999Z</time></trkpt><trkpt lat="44.912970213130166" lon="7.828187229942106"><ele>239.5</ele><time>2026-04-10T11:34:39.999Z</time></trkpt><trkpt lat="44.91304833352422" lon="7.828216625072061"><ele>239.33333333333334</ele><time>2026-04-10T11:34:42.999Z</time></trkpt><trkpt lat="44.9131247713498" lon="7.828263019087002"><ele>239.16666666666669</ele><time>2026-04-10T11:34:45.999Z</time></trkpt><trkpt lat="44.91321839172983" lon="7.828310234136746"><ele>239.0</ele><time>2026-04-10T11:34:47.999Z</time></trkpt><trkpt lat="44.913314423715164" lon="7.828349423844905"><ele>239.00000000000003</ele><time>2026-04-10T11:34:48.999Z</time></trkpt><trkpt lat="44.9133960188783" lon="7.828393930297191"><ele>239.0</ele><time>2026-04-10T11:34:50.999Z</time></trkpt><trkpt lat="44.91347619815416" lon="7.8284430374217315"><ele>239.0</ele><time>2026-04-10T11:34:52.999Z</time></trkpt><trkpt lat="44.913544365595094" lon="7.828479653343484"><ele>239.0</ele><time>2026-04-10T11:34:54.999Z</time></trkpt><trkpt lat="44.91361173657128" lon="7.828519209247729"><ele>239.00000000000003</ele><time>2026-04-10T11:34:56.999Z</time></trkpt><trkpt lat="44.91368654890143" lon="7.828576988544263"><ele>239.0</ele><time>2026-04-10T11:34:59Z</time></trkpt><trkpt lat="44.91375124207575" lon="7.828627173293934"><ele>239.00000000000003</ele><time>2026-04-10T11:35:01Z</time></trkpt><trkpt lat="44.91381179952871" lon="7.82867513346853"><ele>239.0</ele><time>2026-04-10T11:35:03Z</time></trkpt><trkpt lat="44.913880305103035" lon="7.82874295643852"><ele>239.0</ele><time>2026-04-10T11:35:05Z</time></trkpt><trkpt lat="44.91394468268756" lon="7.828807077068266"><ele>239.0</ele><time>2026-04-10T11:35:07Z</time></trkpt><trkpt lat="44.91399047311401" lon="7.828869005885307"><ele>239.00000000000003</ele><time>2026-04-10T11:35:09Z</time></trkpt><trkpt lat="44.91405395914642" lon="7.828919211851732"><ele>239.0</ele><time>2026-04-10T11:35:11Z</time></trkpt><trkpt lat="44.91413251495325" lon="7.828986197700922"><ele>239.00000000000003</ele><time>2026-04-10T11:35:14Z</time></trkpt><trkpt lat="44.914201345733225" lon="7.829017358668974"><ele>239.0</ele><time>2026-04-10T11:35:16Z</time></trkpt><trkpt lat="44.91427411964262" lon="7.829067192016094"><ele>239.0</ele><time>2026-04-10T11:35:19Z</time></trkpt><trkpt lat="44.914354302331525" lon="7.829119879649369"><ele>239.0</ele><time>2026-04-10T11:35:22Z</time></trkpt><trkpt lat="44.914441780009284" lon="7.829154072602494"><ele>239.00000000000003</ele><time>2026-04-10T11:35:25Z</time></trkpt><trkpt lat="44.914515805510995" lon="7.829162996549683"><ele>239.0</ele><time>2026-04-10T11:35:27Z</time></trkpt><trkpt lat="44.914606392009055" lon="7.829165350025763"><ele>239.16666666666669</ele><time>2026-04-10T11:35:29Z</time></trkpt><trkpt lat="44.91468139391203" lon="7.829183454176447"><ele>239.33333333333334</ele><time>2026-04-10T11:35:31Z</time></trkpt><trkpt lat="44.91473943007191" lon="7.829252995724666"><ele>239.5</ele><time>2026-04-10T11:35:33Z</time></trkpt><trkpt lat="44.91478397619372" lon="7.829361006230245"><ele>239.66666666666669</ele><time>2026-04-10T11:35:35Z</time></trkpt><trkpt lat="44.91479631800264" lon="7.829452715178629"><ele>239.83333333333334</ele><time>2026-04-10T11:35:38Z</time></trkpt><trkpt lat="44.91481273212131" lon="7.829550801182176"><ele>240.0</ele><time>2026-04-10T11:35:40Z</time></trkpt><trkpt lat="44.91487453332293" lon="7.829720073909664"><ele>240.0</ele><time>2026-04-10T11:35:42Z</time></trkpt><trkpt lat="44.914909870061" lon="7.829825022905496"><ele>240.0</ele><time>2026-04-10T11:35:44Z</time></trkpt><trkpt lat="44.914960341912256" lon="7.829907895479677"><ele>240.0</ele><time>2026-04-10T11:35:46Z</time></trkpt><trkpt lat="44.915015095846655" lon="7.829975162113336"><ele>240.0</ele><time>2026-04-10T11:35:48Z</time></trkpt><trkpt lat="44.91507826895238" lon="7.830051038983068"><ele>240.0</ele><time>2026-04-10T11:35:50Z</time></trkpt><trkpt lat="44.91513956754941" lon="7.830127660844715"><ele>240.0</ele><time>2026-04-10T11:35:52Z</time></trkpt><trkpt lat="44.91520155614891" lon="7.830200707154746"><ele>240.33333333333334</ele><time>2026-04-10T11:35:54Z</time></trkpt><trkpt lat="44.915262665614705" lon="7.830276753195298"><ele>240.66666666666669</ele><time>2026-04-10T11:35:56Z</time></trkpt><trkpt lat="44.91532460773789" lon="7.830353705585354"><ele>241.0</ele><time>2026-04-10T11:35:58Z</time></trkpt><trkpt lat="44.91538420781928" lon="7.83043107150949"><ele>241.33333333333334</ele><time>2026-04-10T11:36:00Z</time></trkpt><trkpt lat="44.91545274916567" lon="7.830520218299878"><ele>241.66666666666669</ele><time>2026-04-10T11:36:03Z</time></trkpt><trkpt lat="44.915501042797096" lon="7.8305881953580805"><ele>242.0</ele><time>2026-04-10T11:36:05Z</time></trkpt><trkpt lat="44.915561940560075" lon="7.830662326774801"><ele>242.0</ele><time>2026-04-10T11:36:06Z</time></trkpt><trkpt lat="44.915619893136494" lon="7.830733052517258"><ele>241.99999999999997</ele><time>2026-04-10T11:36:08Z</time></trkpt><trkpt lat="44.91567971799342" lon="7.830801518736031"><ele>242.0</ele><time>2026-04-10T11:36:10Z</time></trkpt><trkpt lat="44.91573952904381" lon="7.830858155677475"><ele>242.0</ele><time>2026-04-10T11:36:12Z</time></trkpt><trkpt lat="44.915799921713436" lon="7.830910850649305"><ele>241.99999999999997</ele><time>2026-04-10T11:36:14Z</time></trkpt><trkpt lat="44.915863049763644" lon="7.830960866646682"><ele>242.0</ele><time>2026-04-10T11:36:16Z</time></trkpt><trkpt lat="44.9159273032386" lon="7.831008409685333"><ele>242.0</ele><time>2026-04-10T11:36:18Z</time></trkpt><trkpt lat="44.91599200403148" lon="7.831046109470191"><ele>242.42857142857142</ele><time>2026-04-10T11:36:20Z</time></trkpt><trkpt lat="44.916056442755355" lon="7.83108091261182"><ele>242.85714285714283</ele><time>2026-04-10T11:36:21.999Z</time></trkpt><trkpt lat="44.916121298279016" lon="7.83111388773841"><ele>243.28571428571428</ele><time>2026-04-10T11:36:23.999Z</time></trkpt><trkpt lat="44.91619814687264" lon="7.831130211221774"><ele>243.71428571428572</ele><time>2026-04-10T11:36:25.999Z</time></trkpt><trkpt lat="44.91626616830091" lon="7.831143298989922"><ele>244.14285714285714</ele><time>2026-04-10T11:36:27.999Z</time></trkpt><trkpt lat="44.91633477610339" lon="7.8311523059940225"><ele>244.57142857142856</ele><time>2026-04-10T11:36:29.999Z</time></trkpt><trkpt lat="44.916405168190764" lon="7.8311580400820135"><ele>245.0</ele><time>2026-04-10T11:36:31.999Z</time></trkpt><trkpt lat="44.916476961891696" lon="7.8311559440426315"><ele>245.0</ele><time>2026-04-10T11:36:33.999Z</time></trkpt><trkpt lat="44.91654054900039" lon="7.831151081995508"><ele>245.0</ele><time>2026-04-10T11:36:35.999Z</time></trkpt><trkpt lat="44.91662718469876" lon="7.831153519729688"><ele>245.0</ele><time>2026-04-10T11:36:37.999Z</time></trkpt><trkpt lat="44.91673008701932" lon="7.831132656404536"><ele>245.0</ele><time>2026-04-10T11:36:39.999Z</time></trkpt><trkpt lat="44.916826653937335" lon="7.8310746054780935"><ele>245.0</ele><time>2026-04-10T11:36:41.999Z</time></trkpt><trkpt lat="44.91691119506355" lon="7.830973136827626"><ele>244.0</ele><time>2026-04-10T11:36:43.999Z</time></trkpt><trkpt lat="44.91695674148365" lon="7.8309111440342765"><ele>243.0</ele><time>2026-04-10T11:36:44.999Z</time></trkpt><trkpt lat="44.91703327856374" lon="7.830793775877412"><ele>242.0</ele><time>2026-04-10T11:36:46.999Z</time></trkpt><trkpt lat="44.917113210489894" lon="7.830695451975242"><ele>241.0</ele><time>2026-04-10T11:36:48.999Z</time></trkpt><trkpt lat="44.91719384465798" lon="7.830594405912201"><ele>240.0</ele><time>2026-04-10T11:36:50.999Z</time></trkpt><trkpt lat="44.91727870612472" lon="7.830496002227038"><ele>240.0</ele><time>2026-04-10T11:36:52.999Z</time></trkpt><trkpt lat="44.91736063546862" lon="7.830403810093986"><ele>240.0</ele><time>2026-04-10T11:36:54.999Z</time></trkpt><trkpt lat="44.91744752003801" lon="7.830319766478654"><ele>240.0</ele><time>2026-04-10T11:36:56.999Z</time></trkpt><trkpt lat="44.91754219785945" lon="7.830237433631302"><ele>240.0</ele><time>2026-04-10T11:36:58.999Z</time></trkpt><trkpt lat="44.91765167732832" lon="7.830188827215129"><ele>240.0</ele><time>2026-04-10T11:37:00.999Z</time></trkpt><trkpt lat="44.9177684782271" lon="7.830206976662835"><ele>239.75</ele><time>2026-04-10T11:37:02.999Z</time></trkpt><trkpt lat="44.91788791047225" lon="7.830224674404108"><ele>239.5</ele><time>2026-04-10T11:37:05Z</time></trkpt><trkpt lat="44.91800390598748" lon="7.8302468852555425"><ele>239.25</ele><time>2026-04-10T11:37:07Z</time></trkpt><trkpt lat="44.918119048659776" lon="7.830274436734811"><ele>239.0</ele><time>2026-04-10T11:37:09Z</time></trkpt><trkpt lat="44.91823015473011" lon="7.830302203356919"><ele>239.0</ele><time>2026-04-10T11:37:11Z</time></trkpt><trkpt lat="44.91834738973232" lon="7.830309466115328"><ele>238.99999999999997</ele><time>2026-04-10T11:37:13Z</time></trkpt><trkpt lat="44.91845612446843" lon="7.830359489379837"><ele>238.99999999999997</ele><time>2026-04-10T11:37:15Z</time></trkpt><trkpt lat="44.918531588680494" lon="7.830397794333912"><ele>239.0</ele><time>2026-04-10T11:37:17Z</time></trkpt><trkpt lat="44.91846027687239" lon="7.8304797400891335"><ele>239.0</ele><time>2026-04-10T11:37:19Z</time></trkpt><trkpt lat="44.91843594433978" lon="7.830575553533441"><ele>239.0</ele><time>2026-04-10T11:37:21Z</time></trkpt><trkpt lat="44.91841144485316" lon="7.8306935673668505"><ele>238.99999999999997</ele><time>2026-04-10T11:37:23Z</time></trkpt><trkpt lat="44.91838873877769" lon="7.830818950668992"><ele>238.99999999999997</ele><time>2026-04-10T11:37:25Z</time></trkpt><trkpt lat="44.91836500446706" lon="7.830947407429898"><ele>239.0</ele><time>2026-04-10T11:37:27Z</time></trkpt><trkpt lat="44.91834306164761" lon="7.8310829623642455"><ele>239.0</ele><time>2026-04-10T11:37:29Z</time></trkpt><trkpt lat="44.918322086692285" lon="7.831216671571625"><ele>238.79999999999998</ele><time>2026-04-10T11:37:31Z</time></trkpt><trkpt lat="44.91829909092548" lon="7.831354650401295"><ele>238.59999999999997</ele><time>2026-04-10T11:37:33Z</time></trkpt><trkpt lat="44.918276470708726" lon="7.831492128632967"><ele>238.4</ele><time>2026-04-10T11:37:35Z</time></trkpt><trkpt lat="44.91825482398093" lon="7.831628161253042"><ele>238.2</ele><time>2026-04-10T11:37:37Z</time></trkpt><trkpt lat="44.91823694147814" lon="7.831760150826767"><ele>238.0</ele><time>2026-04-10T11:37:39Z</time></trkpt><trkpt lat="44.91823054077914" lon="7.831908221764997"><ele>238.0</ele><time>2026-04-10T11:37:41Z</time></trkpt><trkpt lat="44.918237934133266" lon="7.832060040811336"><ele>238.0</ele><time>2026-04-10T11:37:43Z</time></trkpt><trkpt lat="44.91824679799615" lon="7.8321986138728725"><ele>238.0</ele><time>2026-04-10T11:37:45Z</time></trkpt><trkpt lat="44.918257693787496" lon="7.832336588513228"><ele>238.0</ele><time>2026-04-10T11:37:47Z</time></trkpt><trkpt lat="44.918270273855605" lon="7.832483400158145"><ele>238.0</ele><time>2026-04-10T11:37:49Z</time></trkpt><trkpt lat="44.91828198547365" lon="7.832620076825297"><ele>238.0</ele><time>2026-04-10T11:37:51Z</time></trkpt><trkpt lat="44.91829805284043" lon="7.832758916391722"><ele>238.0</ele><time>2026-04-10T11:37:53Z</time></trkpt><trkpt lat="44.91831913883938" lon="7.832888726308912"><ele>238.0</ele><time>2026-04-10T11:37:55Z</time></trkpt><trkpt lat="44.918343670269095" lon="7.833015299813186"><ele>238.0</ele><time>2026-04-10T11:37:57Z</time></trkpt><trkpt lat="44.9183747533108" lon="7.833139578335419"><ele>238.0</ele><time>2026-04-10T11:37:59Z</time></trkpt><trkpt lat="44.918422599285066" lon="7.833248216813302"><ele>238.0</ele><time>2026-04-10T11:38:01Z</time></trkpt><trkpt lat="44.918498673934415" lon="7.833339035562639"><ele>238.0</ele><time>2026-04-10T11:38:03Z</time></trkpt><trkpt lat="44.91854869166924" lon="7.833445207965795"><ele>238.0</ele><time>2026-04-10T11:38:05Z</time></trkpt><trkpt lat="44.91860605199528" lon="7.833544981053471"><ele>238.0</ele><time>2026-04-10T11:38:07Z</time></trkpt><trkpt lat="44.9186588485929" lon="7.833654230480863"><ele>238.0</ele><time>2026-04-10T11:38:09Z</time></trkpt><trkpt lat="44.91871327719625" lon="7.833777380536597"><ele>238.2</ele><time>2026-04-10T11:38:11Z</time></trkpt><trkpt lat="44.91876447668757" lon="7.833905368251867"><ele>238.4</ele><time>2026-04-10T11:38:13Z</time></trkpt><trkpt lat="44.918810152399104" lon="7.834040514911037"><ele>238.59999999999997</ele><time>2026-04-10T11:38:15Z</time></trkpt><trkpt lat="44.91885028852418" lon="7.83417802305274"><ele>238.79999999999998</ele><time>2026-04-10T11:38:17Z</time></trkpt><trkpt lat="44.91888510679616" lon="7.834316905512656"><ele>239.0</ele><time>2026-04-10T11:38:18.999Z</time></trkpt><trkpt lat="44.9189084550841" lon="7.834412527765765"><ele>239.2</ele><time>2026-04-10T11:38:20.999Z</time></trkpt><trkpt lat="44.91893622776943" lon="7.834526270165505"><ele>239.39999999999998</ele><time>2026-04-10T11:38:21.999Z</time></trkpt><trkpt lat="44.91897145613139" lon="7.834670546951799"><ele>239.6</ele><time>2026-04-10T11:38:23.999Z</time></trkpt><trkpt lat="44.91900956094937" lon="7.834815061568814"><ele>239.8</ele><time>2026-04-10T11:38:25.999Z</time></trkpt><trkpt lat="44.919049457305405" lon="7.834958224148914"><ele>240.0</ele><time>2026-04-10T11:38:27.999Z</time></trkpt><trkpt lat="44.91909972394446" lon="7.835098521706015"><ele>240.4</ele><time>2026-04-10T11:38:29.999Z</time></trkpt><trkpt lat="44.91918260026032" lon="7.835198225410453"><ele>240.8</ele><time>2026-04-10T11:38:31.999Z</time></trkpt><trkpt lat="44.91926415416211" lon="7.835285214933017"><ele>241.2</ele><time>2026-04-10T11:38:33.999Z</time></trkpt><trkpt lat="44.91933893351288" lon="7.835381417880894"><ele>241.6</ele><time>2026-04-10T11:38:35.999Z</time></trkpt><trkpt lat="44.919410948543494" lon="7.835498465401814"><ele>242.0</ele><time>2026-04-10T11:38:37.999Z</time></trkpt><trkpt lat="44.9194789165959" lon="7.835618036086337"><ele>241.2</ele><time>2026-04-10T11:38:39.999Z</time></trkpt><trkpt lat="44.91954654956748" lon="7.835743121445635"><ele>240.39999999999998</ele><time>2026-04-10T11:38:41.999Z</time></trkpt><trkpt lat="44.919611003254225" lon="7.835860043785725"><ele>239.60000000000002</ele><time>2026-04-10T11:38:43.999Z</time></trkpt><trkpt lat="44.919668507486136" lon="7.835964030607746"><ele>238.8</ele><time>2026-04-10T11:38:45.999Z</time></trkpt><trkpt lat="44.91974182828524" lon="7.836066508608076"><ele>238.0</ele><time>2026-04-10T11:38:47.999Z</time></trkpt><trkpt lat="44.91980696817398" lon="7.836165064145689"><ele>238.0</ele><time>2026-04-10T11:38:49.999Z</time></trkpt><trkpt lat="44.91987333855911" lon="7.836264022628505"><ele>238.0</ele><time>2026-04-10T11:38:51.999Z</time></trkpt><trkpt lat="44.91989821258304" lon="7.836401485811683"><ele>238.0</ele><time>2026-04-10T11:38:53.999Z</time></trkpt><trkpt lat="44.91991668783055" lon="7.83653339959086"><ele>238.0</ele><time>2026-04-10T11:38:55.999Z</time></trkpt><trkpt lat="44.91993202676646" lon="7.836662174219085"><ele>238.0</ele><time>2026-04-10T11:38:57.999Z</time></trkpt><trkpt lat="44.91994595087021" lon="7.836786179971039"><ele>238.4</ele><time>2026-04-10T11:38:59.999Z</time></trkpt><trkpt lat="44.919959138433605" lon="7.836909259886684"><ele>238.8</ele><time>2026-04-10T11:39:01.999Z</time></trkpt><trkpt lat="44.91997347587333" lon="7.837022727049541"><ele>239.2</ele><time>2026-04-10T11:39:03.999Z</time></trkpt><trkpt lat="44.91998585948359" lon="7.837120731711592"><ele>239.6</ele><time>2026-04-10T11:39:06.999Z</time></trkpt><trkpt lat="44.92008771935085" lon="7.837240161097424"><ele>240.0</ele><time>2026-04-10T11:39:07.999Z</time></trkpt><trkpt lat="44.92016426643654" lon="7.837333383696652"><ele>240.0</ele><time>2026-04-10T11:39:10Z</time></trkpt><trkpt lat="44.92024830619338" lon="7.837408664390451"><ele>240.0</ele><time>2026-04-10T11:39:12Z</time></trkpt><trkpt lat="44.92031847965512" lon="7.8375166388147965"><ele>240.0</ele><time>2026-04-10T11:39:14Z</time></trkpt><trkpt lat="44.920390325455834" lon="7.837627723760004"><ele>240.0</ele><time>2026-04-10T11:39:16Z</time></trkpt><trkpt lat="44.92046101879185" lon="7.8377409429693"><ele>240.0</ele><time>2026-04-10T11:39:18Z</time></trkpt><trkpt lat="44.92050726475325" lon="7.83783751528322"><ele>240.33333333333334</ele><time>2026-04-10T11:39:20Z</time></trkpt><trkpt lat="44.92055455136721" lon="7.837924085676136"><ele>240.66666666666669</ele><time>2026-04-10T11:39:22Z</time></trkpt><trkpt lat="44.92058008728018" lon="7.838030552642847"><ele>241.0</ele><time>2026-04-10T11:39:25Z</time></trkpt><trkpt lat="44.92061435065676" lon="7.838112380870459"><ele>241.33333333333334</ele><time>2026-04-10T11:39:29Z</time></trkpt><trkpt lat="44.920656956889786" lon="7.8382119220504896"><ele>241.66666666666669</ele><time>2026-04-10T11:39:36Z</time></trkpt><trkpt lat="44.92069857693757" lon="7.838303581575055"><ele>242.0</ele><time>2026-04-10T11:39:38Z</time></trkpt><trkpt lat="44.920760478420426" lon="7.838424428529443"><ele>242.00000000000003</ele><time>2026-04-10T11:39:40Z</time></trkpt><trkpt lat="44.92081563475537" lon="7.838574322131757"><ele>242.0</ele><time>2026-04-10T11:39:42Z</time></trkpt><trkpt lat="44.92084506736772" lon="7.8386536838725025"><ele>242.0</ele><time>2026-04-10T11:39:43Z</time></trkpt><trkpt lat="44.92087925154751" lon="7.838735419025591"><ele>242.0</ele><time>2026-04-10T11:39:44Z</time></trkpt><trkpt lat="44.92093002506392" lon="7.838893515538083"><ele>242.00000000000003</ele><time>2026-04-10T11:39:46Z</time></trkpt><trkpt lat="44.920962096940045" lon="7.83897648127004"><ele>242.0</ele><time>2026-04-10T11:39:47Z</time></trkpt><trkpt lat="44.92099311801483" lon="7.839056728655472"><ele>242.0</ele><time>2026-04-10T11:39:48Z</time></trkpt><trkpt lat="44.921051420519916" lon="7.8392105971300685"><ele>242.0</ele><time>2026-04-10T11:39:50Z</time></trkpt><trkpt lat="44.92110450054792" lon="7.839351335605382"><ele>242.0</ele><time>2026-04-10T11:39:52Z</time></trkpt><trkpt lat="44.92114714750799" lon="7.839482413661564"><ele>242.0</ele><time>2026-04-10T11:39:54Z</time></trkpt><trkpt lat="44.921192312292845" lon="7.8396289378109625"><ele>242.0</ele><time>2026-04-10T11:39:56Z</time></trkpt><trkpt lat="44.92123482171667" lon="7.839765791396138"><ele>242.0</ele><time>2026-04-10T11:39:58Z</time></trkpt><trkpt lat="44.92128776423431" lon="7.839895463443159"><ele>242.0</ele><time>2026-04-10T11:40:00Z</time></trkpt><trkpt lat="44.921324573734715" lon="7.840037916472688"><ele>242.0</ele><time>2026-04-10T11:40:02Z</time></trkpt><trkpt lat="44.92137832438619" lon="7.840163399434205"><ele>242.0</ele><time>2026-04-10T11:40:04Z</time></trkpt><trkpt lat="44.9214227783369" lon="7.840275633383723"><ele>242.2</ele><time>2026-04-10T11:40:06Z</time></trkpt><trkpt lat="44.92145538164585" lon="7.840376313345772"><ele>242.39999999999998</ele><time>2026-04-10T11:40:08Z</time></trkpt><trkpt lat="44.92138646279424" lon="7.840433702036724"><ele>242.60000000000002</ele><time>2026-04-10T11:40:10Z</time></trkpt><trkpt lat="44.92131093244927" lon="7.8405179975464625"><ele>242.8</ele><time>2026-04-10T11:40:12Z</time></trkpt><trkpt lat="44.92124553260328" lon="7.840633803306258"><ele>243.0</ele><time>2026-04-10T11:40:14Z</time></trkpt><trkpt lat="44.92115570468457" lon="7.840664606215681"><ele>243.0</ele><time>2026-04-10T11:40:16Z</time></trkpt><trkpt lat="44.92105385906794" lon="7.840678749547962"><ele>243.0</ele><time>2026-04-10T11:40:18Z</time></trkpt><trkpt lat="44.92095985616247" lon="7.840687406882779"><ele>243.0</ele><time>2026-04-10T11:40:20Z</time></trkpt><trkpt lat="44.920872478442256" lon="7.84074274149285"><ele>243.0</ele><time>2026-04-10T11:40:21.999Z</time></trkpt><trkpt lat="44.9207924500876" lon="7.840807113968703"><ele>243.0</ele><time>2026-04-10T11:40:23.999Z</time></trkpt><trkpt lat="44.920719244931895" lon="7.840888806013064"><ele>243.5</ele><time>2026-04-10T11:40:25.999Z</time></trkpt><trkpt lat="44.92065077742508" lon="7.840973916127322"><ele>244.0</ele><time>2026-04-10T11:40:27.999Z</time></trkpt><trkpt lat="44.920594654622754" lon="7.841049967078648"><ele>244.5</ele><time>2026-04-10T11:40:29.999Z</time></trkpt><trkpt lat="44.920618438379634" lon="7.841149508884408"><ele>245.0</ele><time>2026-04-10T11:40:32.999Z</time></trkpt><trkpt lat="44.9206828885219" lon="7.841202478520379"><ele>245.5</ele><time>2026-04-10T11:40:34.999Z</time></trkpt><trkpt lat="44.92074380397261" lon="7.8412860982468775"><ele>246.0</ele><time>2026-04-10T11:40:36.999Z</time></trkpt><trkpt lat="44.92080312204499" lon="7.8413455962904735"><ele>246.0</ele><time>2026-04-10T11:40:38.999Z</time></trkpt><trkpt lat="44.92086434347374" lon="7.841431370684813"><ele>246.0</ele><time>2026-04-10T11:40:40.999Z</time></trkpt><trkpt lat="44.92092370329347" lon="7.841511685982081"><ele>246.0</ele><time>2026-04-10T11:40:42.999Z</time></trkpt><trkpt lat="44.92098823982259" lon="7.841579261454884"><ele>246.0</ele><time>2026-04-10T11:40:45.999Z</time></trkpt><trkpt lat="44.92104369731843" lon="7.841654852525312"><ele>246.0</ele><time>2026-04-10T11:40:48.999Z</time></trkpt><trkpt lat="44.921101144567686" lon="7.841745803505188"><ele>246.0</ele><time>2026-04-10T11:40:50.999Z</time></trkpt><trkpt lat="44.92116491158912" lon="7.8418043870736875"><ele>246.66666666666666</ele><time>2026-04-10T11:40:52.999Z</time></trkpt><trkpt lat="44.92123913753368" lon="7.841861694050391"><ele>247.33333333333331</ele><time>2026-04-10T11:40:55.999Z</time></trkpt><trkpt lat="44.92131033642692" lon="7.841869613703718"><ele>248.0</ele><time>2026-04-10T11:41:00.999Z</time></trkpt><trkpt lat="44.92135170430931" lon="7.841794067045655"><ele>248.66666666666666</ele><time>2026-04-10T11:41:26Z</time></trkpt><trkpt lat="44.92131358188232" lon="7.841911216564615"><ele>249.33333333333331</ele><time>2026-04-10T11:41:32Z</time></trkpt><trkpt lat="44.92126836160104" lon="7.841978471764654"><ele>250.0</ele><time>2026-04-10T11:41:35Z</time></trkpt><trkpt lat="44.92121162821806" lon="7.842069703651943"><ele>250.99999999999997</ele><time>2026-04-10T11:41:38Z</time></trkpt><trkpt lat="44.92114714283063" lon="7.842170740284283"><ele>252.0</ele><time>2026-04-10T11:41:41Z</time></trkpt><trkpt lat="44.92109973788663" lon="7.842276047551"><ele>253.0</ele><time>2026-04-10T11:41:44Z</time></trkpt><trkpt lat="44.92105529340465" lon="7.842351333013594"><ele>254.0</ele><time>2026-04-10T11:41:47Z</time></trkpt><trkpt lat="44.92101488718232" lon="7.84242563123352"><ele>254.99999999999997</ele><time>2026-04-10T11:41:49Z</time></trkpt><trkpt lat="44.92096211157564" lon="7.842496287733345"><ele>256.0</ele><time>2026-04-10T11:41:52Z</time></trkpt><trkpt lat="44.92092648226809" lon="7.842581621717746"><ele>255.83333333333331</ele><time>2026-04-10T11:41:54Z</time></trkpt><trkpt lat="44.920875166815634" lon="7.842681142739581"><ele>255.66666666666666</ele><time>2026-04-10T11:41:57Z</time></trkpt><trkpt lat="44.920823466600034" lon="7.8427615701279265"><ele>255.5</ele><time>2026-04-10T11:42:00Z</time></trkpt><trkpt lat="44.92078448126542" lon="7.84285151925675"><ele>255.33333333333331</ele><time>2026-04-10T11:42:02Z</time></trkpt><trkpt lat="44.92072876498458" lon="7.84294636590741"><ele>255.16666666666666</ele><time>2026-04-10T11:42:05Z</time></trkpt><trkpt lat="44.92067773517285" lon="7.8430197879966705"><ele>255.0</ele><time>2026-04-10T11:42:06Z</time></trkpt><trkpt lat="44.92062379514262" lon="7.843095790309416"><ele>255.0</ele><time>2026-04-10T11:42:09Z</time></trkpt><trkpt lat="44.92057259891347" lon="7.8431805318386205"><ele>255.0</ele><time>2026-04-10T11:42:11Z</time></trkpt><trkpt lat="44.920513957534354" lon="7.84327539395097"><ele>255.0</ele><time>2026-04-10T11:42:13Z</time></trkpt><trkpt lat="44.92047773582336" lon="7.8433561583192155"><ele>255.0</ele><time>2026-04-10T11:42:15Z</time></trkpt><trkpt lat="44.92041993765993" lon="7.843472579148589"><ele>255.0</ele><time>2026-04-10T11:42:18Z</time></trkpt><trkpt lat="44.920371454950846" lon="7.8435793517670005"><ele>255.0</ele><time>2026-04-10T11:42:19.999Z</time></trkpt><trkpt lat="44.92032397599756" lon="7.843667383892312"><ele>255.33333333333334</ele><time>2026-04-10T11:42:21.999Z</time></trkpt><trkpt lat="44.92028387663749" lon="7.843754974044186"><ele>255.66666666666669</ele><time>2026-04-10T11:42:23.999Z</time></trkpt><trkpt lat="44.92025353324483" lon="7.843860122244312"><ele>256.0</ele><time>2026-04-10T11:42:26.999Z</time></trkpt><trkpt lat="44.9202198589557" lon="7.843964125515232"><ele>256.33333333333337</ele><time>2026-04-10T11:42:28.999Z</time></trkpt><trkpt lat="44.92020301279448" lon="7.844091715785042"><ele>256.6666666666667</ele><time>2026-04-10T11:42:31.999Z</time></trkpt><trkpt lat="44.920176848172204" lon="7.844226388692418"><ele>257.0</ele><time>2026-04-10T11:42:33.999Z</time></trkpt><trkpt lat="44.92017291268541" lon="7.844315480130229"><ele>257.0</ele><time>2026-04-10T11:42:35.999Z</time></trkpt><trkpt lat="44.920197409169354" lon="7.8444345361413745"><ele>257.0</ele><time>2026-04-10T11:42:38.999Z</time></trkpt><trkpt lat="44.920271022459424" lon="7.844489320407373"><ele>257.0</ele><time>2026-04-10T11:42:41.999Z</time></trkpt><trkpt lat="44.92033848400355" lon="7.844534789688759"><ele>257.0</ele><time>2026-04-10T11:42:43.999Z</time></trkpt><trkpt lat="44.92040590922141" lon="7.8445978278186566"><ele>257.0</ele><time>2026-04-10T11:42:46.999Z</time></trkpt><trkpt lat="44.92046418492445" lon="7.844654436130885"><ele>257.0</ele><time>2026-04-10T11:42:49.999Z</time></trkpt><trkpt lat="44.92052946826967" lon="7.844709613500104"><ele>257.0</ele><time>2026-04-10T11:42:52.999Z</time></trkpt><trkpt lat="44.92058448084672" lon="7.84475440010544"><ele>257.0</ele><time>2026-04-10T11:42:55.999Z</time></trkpt><trkpt lat="44.920619030066106" lon="7.844829383823917"><ele>257.0</ele><time>2026-04-10T11:42:59.999Z</time></trkpt><trkpt lat="44.92055662081833" lon="7.844797832649782"><ele>257.0</ele><time>2026-04-10T11:43:59Z</time></trkpt><trkpt lat="44.92060436297325" lon="7.8447288482763415"><ele>257.0</ele><time>2026-04-10T11:44:08Z</time></trkpt><trkpt lat="44.920664815954645" lon="7.844671963900411"><ele>257.0</ele><time>2026-04-10T11:44:12Z</time></trkpt><trkpt lat="44.92071615362126" lon="7.844614367845381"><ele>257.0</ele><time>2026-04-10T11:44:18Z</time></trkpt><trkpt lat="44.92077569664048" lon="7.844645900163648"><ele>257.0</ele><time>2026-04-10T11:44:23Z</time></trkpt><trkpt lat="44.920841560606796" lon="7.844653919829048"><ele>257.0</ele><time>2026-04-10T11:44:30.999Z</time></trkpt><trkpt lat="44.92096946220685" lon="7.844533142761041"><ele>257.0</ele><time>2026-04-10T11:44:52.999Z</time></trkpt><trkpt lat="44.92079480828438" lon="7.844611120292045"><ele>257.0</ele><time>2026-04-10T11:44:57.999Z</time></trkpt><trkpt lat="44.92084108512735" lon="7.844520926978162"><ele>257.0</ele><time>2026-04-10T11:45:20.999Z</time></trkpt><trkpt lat="44.92086850554341" lon="7.8444350961307805"><ele>257.0</ele><time>2026-04-10T11:45:28Z</time></trkpt><trkpt lat="44.9207878116557" lon="7.8445839654732765"><ele>257.0</ele><time>2026-04-10T11:45:45.413Z</time></trkpt><trkpt lat="44.92067592253243" lon="7.844579157700763"><ele>257.0</ele><time>2026-04-10T11:47:16.575Z</time></trkpt><trkpt lat="44.92076931821095" lon="7.84445755658707"><ele>257.0</ele><time>2026-04-10T11:48:51.998Z</time></trkpt><trkpt lat="44.92079932084092" lon="7.8445518348344985"><ele>257.0</ele><time>2026-04-10T11:49:26.999Z</time></trkpt><trkpt lat="44.92073272314671" lon="7.844570080352145"><ele>257.0</ele><time>2026-04-10T11:49:27.999Z</time></trkpt><trkpt lat="44.92080599822231" lon="7.844562152857692"><ele>257.0</ele><time>2026-04-10T11:49:48.999Z</time></trkpt><trkpt lat="44.92088971291492" lon="7.8444198647504555"><ele>257.0</ele><time>2026-04-10T11:50:16.532Z</time></trkpt><trkpt lat="44.920805306619656" lon="7.844516763731841"><ele>257.0</ele><time>2026-04-10T11:50:47.647Z</time></trkpt><trkpt lat="44.92071009630106" lon="7.844601111837018"><ele>257.0</ele><time>2026-04-10T11:52:55.313Z</time></trkpt><trkpt lat="44.920638934413326" lon="7.844629578877971"><ele>257.0</ele><time>2026-04-10T11:53:01.57Z</time></trkpt><trkpt lat="44.920693419533166" lon="7.84458129724106"><ele>257.0</ele><time>2026-04-10T11:59:41.002Z</time></trkpt><trkpt lat="44.92078623870971" lon="7.844590386552763"><ele>257.0</ele><time>2026-04-10T11:59:48.017Z</time></trkpt><trkpt lat="44.92084853766709" lon="7.844534743337038"><ele>257.0</ele><time>2026-04-10T11:59:51.001Z</time></trkpt><trkpt lat="44.92084959839279" lon="7.844437503229551"><ele>257.0</ele><time>2026-04-10T11:59:54.001Z</time></trkpt><trkpt lat="44.920805311818214" lon="7.844540342341744"><ele>257.0</ele><time>2026-04-10T12:00:06.774Z</time></trkpt><trkpt lat="44.9206880959552" lon="7.844582926020127"><ele>257.0</ele><time>2026-04-10T12:04:18.573Z</time></trkpt><trkpt lat="44.92077754693255" lon="7.844586173265193"><ele>257.0</ele><time>2026-04-10T12:04:56.999Z</time></trkpt><trkpt lat="44.92072653615754" lon="7.844530750339904"><ele>257.0</ele><time>2026-04-10T12:05:45Z</time></trkpt><trkpt lat="44.92078660804264" lon="7.844583296571084"><ele>257.0</ele><time>2026-04-10T12:05:55Z</time></trkpt><trkpt lat="44.92084944543804" lon="7.844613381299211"><ele>257.0</ele><time>2026-04-10T12:07:03.999Z</time></trkpt><trkpt lat="44.92080901379609" lon="7.844700601917946"><ele>257.0</ele><time>2026-04-10T12:07:07.998Z</time></trkpt><trkpt lat="44.92078371667953" lon="7.844813575497854"><ele>257.0</ele><time>2026-04-10T12:07:11.998Z</time></trkpt><trkpt lat="44.920784537146844" lon="7.844918395635773"><ele>257.0</ele><time>2026-04-10T12:07:14.998Z</time></trkpt><trkpt lat="44.92080379554752" lon="7.844812560749832"><ele>257.0</ele><time>2026-04-10T12:07:57.999Z</time></trkpt><trkpt lat="44.92082942020069" lon="7.844728663173092"><ele>257.0</ele><time>2026-04-10T12:08:00.999Z</time></trkpt><trkpt lat="44.92086550225504" lon="7.8446324207298215"><ele>257.0</ele><time>2026-04-10T12:08:05.999Z</time></trkpt><trkpt lat="44.92087644639412" lon="7.844513412595791"><ele>256.1666666666667</ele><time>2026-04-10T12:12:09Z</time></trkpt><trkpt lat="44.92091939725578" lon="7.844405223785969"><ele>255.33333333333334</ele><time>2026-04-10T12:12:12Z</time></trkpt><trkpt lat="44.92093263484446" lon="7.844312257520401"><ele>254.5</ele><time>2026-04-10T12:12:15Z</time></trkpt><trkpt lat="44.92100904885027" lon="7.844233762018664"><ele>253.66666666666669</ele><time>2026-04-10T12:12:17Z</time></trkpt><trkpt lat="44.92104064910947" lon="7.8441294141391715"><ele>252.83333333333334</ele><time>2026-04-10T12:12:19Z</time></trkpt><trkpt lat="44.921065699641915" lon="7.8440457700520785"><ele>252.0</ele><time>2026-04-10T12:12:21Z</time></trkpt><trkpt lat="44.92113339678804" lon="7.843968725961357"><ele>252.0</ele><time>2026-04-10T12:12:24Z</time></trkpt><trkpt lat="44.92119888368684" lon="7.843926648040647"><ele>252.0</ele><time>2026-04-10T12:12:26Z</time></trkpt><trkpt lat="44.92139259498868" lon="7.84403646390117"><ele>252.0</ele><time>2026-04-10T12:12:35Z</time></trkpt><trkpt lat="44.921469166327256" lon="7.844053173892006"><ele>252.0</ele><time>2026-04-10T12:12:38Z</time></trkpt><trkpt lat="44.9215114755358" lon="7.84398058060031"><ele>252.0</ele><time>2026-04-10T12:12:41Z</time></trkpt><trkpt lat="44.92153894956999" lon="7.843882768008813"><ele>252.0</ele><time>2026-04-10T12:12:45Z</time></trkpt><trkpt lat="44.92160169712662" lon="7.84380622961844"><ele>252.0</ele><time>2026-04-10T12:12:49Z</time></trkpt><trkpt lat="44.92167896008232" lon="7.843795852194897"><ele>252.0</ele><time>2026-04-10T12:12:52Z</time></trkpt><trkpt lat="44.921722732062996" lon="7.843715599040077"><ele>252.0</ele><time>2026-04-10T12:12:54Z</time></trkpt><trkpt lat="44.92176131293772" lon="7.843597815170182"><ele>252.0</ele><time>2026-04-10T12:12:56Z</time></trkpt><trkpt lat="44.92181816265655" lon="7.843469855849004"><ele>252.0</ele><time>2026-04-10T12:12:58Z</time></trkpt><trkpt lat="44.92188404515909" lon="7.843332508457803"><ele>250.39999999999998</ele><time>2026-04-10T12:13:00Z</time></trkpt><trkpt lat="44.92193203114003" lon="7.8432103421017665"><ele>248.79999999999998</ele><time>2026-04-10T12:13:02Z</time></trkpt><trkpt lat="44.921957211181" lon="7.843126796107125"><ele>247.2</ele><time>2026-04-10T12:13:03Z</time></trkpt><trkpt lat="44.921999085457536" lon="7.842993069547081"><ele>245.6</ele><time>2026-04-10T12:13:05Z</time></trkpt><trkpt lat="44.92204241857586" lon="7.842857433499934"><ele>244.0</ele><time>2026-04-10T12:13:07Z</time></trkpt><trkpt lat="44.922090113630254" lon="7.8427203833708035"><ele>245.0</ele><time>2026-04-10T12:13:09Z</time></trkpt><trkpt lat="44.92213652858155" lon="7.842575241281374"><ele>246.0</ele><time>2026-04-10T12:13:11Z</time></trkpt><trkpt lat="44.92218292767405" lon="7.842426223421286"><ele>247.0</ele><time>2026-04-10T12:13:13Z</time></trkpt><trkpt lat="44.92223292947654" lon="7.84227447164691"><ele>248.0</ele><time>2026-04-10T12:13:15Z</time></trkpt><trkpt lat="44.922276462160866" lon="7.842134456763498"><ele>248.00000000000003</ele><time>2026-04-10T12:13:17Z</time></trkpt><trkpt lat="44.92231792539842" lon="7.842016947807076"><ele>248.0</ele><time>2026-04-10T12:13:19Z</time></trkpt><trkpt lat="44.922350065566846" lon="7.841915629510256"><ele>248.0</ele><time>2026-04-10T12:13:21Z</time></trkpt><trkpt lat="44.92237592454652" lon="7.8418233531456485"><ele>248.0</ele><time>2026-04-10T12:13:23Z</time></trkpt><trkpt lat="44.92236792057711" lon="7.841724355088067"><ele>248.00000000000003</ele><time>2026-04-10T12:13:25Z</time></trkpt><trkpt lat="44.92229736430358" lon="7.841642474038897"><ele>248.0</ele><time>2026-04-10T12:13:27Z</time></trkpt><trkpt lat="44.92224781417698" lon="7.841579824952452"><ele>247.8</ele><time>2026-04-10T12:13:29Z</time></trkpt><trkpt lat="44.92218947962977" lon="7.84152611538049"><ele>247.60000000000002</ele><time>2026-04-10T12:13:32Z</time></trkpt><trkpt lat="44.92233151336545" lon="7.841423332214854"><ele>247.39999999999998</ele><time>2026-04-10T12:13:36Z</time></trkpt><trkpt lat="44.92237328272961" lon="7.84131758070272"><ele>247.2</ele><time>2026-04-10T12:13:38Z</time></trkpt><trkpt lat="44.92241742679566" lon="7.841206666952261"><ele>247.0</ele><time>2026-04-10T12:13:40Z</time></trkpt><trkpt lat="44.922455683423294" lon="7.841114070337938"><ele>246.99999999999997</ele><time>2026-04-10T12:13:42Z</time></trkpt><trkpt lat="44.92249591913566" lon="7.8410146581635365"><ele>247.0</ele><time>2026-04-10T12:13:45Z</time></trkpt><trkpt lat="44.922425328347906" lon="7.840892849482345"><ele>247.0</ele><time>2026-04-10T12:13:47Z</time></trkpt><trkpt lat="44.92235034119827" lon="7.840831017642357"><ele>247.0</ele><time>2026-04-10T12:13:49Z</time></trkpt><trkpt lat="44.922289808489225" lon="7.840775694763394"><ele>246.99999999999997</ele><time>2026-04-10T12:13:51Z</time></trkpt><trkpt lat="44.92227181175784" lon="7.840686391263313"><ele>247.0</ele><time>2026-04-10T12:13:55Z</time></trkpt><trkpt lat="44.92232494109552" lon="7.840592524681188"><ele>246.2</ele><time>2026-04-10T12:13:57Z</time></trkpt><trkpt lat="44.922397400410965" lon="7.8405053156834486"><ele>245.39999999999998</ele><time>2026-04-10T12:13:59Z</time></trkpt><trkpt lat="44.92248260056629" lon="7.840407892939445"><ele>244.60000000000002</ele><time>2026-04-10T12:14:01Z</time></trkpt><trkpt lat="44.92256106661194" lon="7.840294356128452"><ele>243.8</ele><time>2026-04-10T12:14:03Z</time></trkpt><trkpt lat="44.9226301267114" lon="7.840171937239215"><ele>243.0</ele><time>2026-04-10T12:14:05Z</time></trkpt><trkpt lat="44.922707244745055" lon="7.840063368756786"><ele>242.25</ele><time>2026-04-10T12:14:07Z</time></trkpt><trkpt lat="44.922790103371554" lon="7.83995282926417"><ele>241.5</ele><time>2026-04-10T12:14:09Z</time></trkpt><trkpt lat="44.92286909987625" lon="7.83983326470143"><ele>240.75</ele><time>2026-04-10T12:14:11Z</time></trkpt><trkpt lat="44.92294498911894" lon="7.8397138405383355"><ele>240.0</ele><time>2026-04-10T12:14:13Z</time></trkpt><trkpt lat="44.92303005338573" lon="7.839607145170453"><ele>240.0</ele><time>2026-04-10T12:14:15Z</time></trkpt><trkpt lat="44.92311579128811" lon="7.839499261279514"><ele>240.0</ele><time>2026-04-10T12:14:17Z</time></trkpt><trkpt lat="44.923201931701726" lon="7.839393982689832"><ele>240.0</ele><time>2026-04-10T12:14:19Z</time></trkpt><trkpt lat="44.92329172068951" lon="7.839296590515964"><ele>240.0</ele><time>2026-04-10T12:14:21Z</time></trkpt><trkpt lat="44.923384738099905" lon="7.839199894486678"><ele>240.0</ele><time>2026-04-10T12:14:23Z</time></trkpt><trkpt lat="44.92348402699008" lon="7.839107399658126"><ele>240.0</ele><time>2026-04-10T12:14:25Z</time></trkpt><trkpt lat="44.92358347582716" lon="7.839022446199927"><ele>240.0</ele><time>2026-04-10T12:14:27Z</time></trkpt><trkpt lat="44.92367408722886" lon="7.838933903982209"><ele>240.0</ele><time>2026-04-10T12:14:29Z</time></trkpt><trkpt lat="44.92376780748141" lon="7.838847785608815"><ele>240.0</ele><time>2026-04-10T12:14:31Z</time></trkpt><trkpt lat="44.92386024367402" lon="7.838768387743143"><ele>240.0</ele><time>2026-04-10T12:14:33Z</time></trkpt><trkpt lat="44.923955486703726" lon="7.838693992027363"><ele>240.0</ele><time>2026-04-10T12:14:35Z</time></trkpt><trkpt lat="44.92405115315219" lon="7.838617302502206"><ele>240.0</ele><time>2026-04-10T12:14:37Z</time></trkpt><trkpt lat="44.92414559499565" lon="7.838535482805564"><ele>240.0</ele><time>2026-04-10T12:14:39Z</time></trkpt><trkpt lat="44.92422300909414" lon="7.838469850433792"><ele>239.6</ele><time>2026-04-10T12:14:41Z</time></trkpt><trkpt lat="44.92430135978568" lon="7.838414197541187"><ele>239.2</ele><time>2026-04-10T12:14:43Z</time></trkpt><trkpt lat="44.92439541445034" lon="7.83838863880445"><ele>238.8</ele><time>2026-04-10T12:14:45Z</time></trkpt><trkpt lat="44.92449739005362" lon="7.8383761392031115"><ele>238.4</ele><time>2026-04-10T12:14:47Z</time></trkpt><trkpt lat="44.92458901992281" lon="7.838309454337672"><ele>238.0</ele><time>2026-04-10T12:14:49Z</time></trkpt><trkpt lat="44.92465351328321" lon="7.838189823624788"><ele>238.0</ele><time>2026-04-10T12:14:51Z</time></trkpt><trkpt lat="44.92469952843093" lon="7.8380627953068105"><ele>238.0</ele><time>2026-04-10T12:14:53Z</time></trkpt><trkpt lat="44.924799313142756" lon="7.83797650722173"><ele>238.0</ele><time>2026-04-10T12:14:55Z</time></trkpt><trkpt lat="44.924894443390606" lon="7.837902249335603"><ele>238.0</ele><time>2026-04-10T12:14:57Z</time></trkpt><trkpt lat="44.92498604617635" lon="7.837818901609494"><ele>238.0</ele><time>2026-04-10T12:14:59Z</time></trkpt><trkpt lat="44.92507841292365" lon="7.837744929731979"><ele>237.99999999999997</ele><time>2026-04-10T12:15:01Z</time></trkpt><trkpt lat="44.92516279295911" lon="7.8376704248082385"><ele>238.0</ele><time>2026-04-10T12:15:03Z</time></trkpt><trkpt lat="44.925229832008704" lon="7.837618590880126"><ele>238.0</ele><time>2026-04-10T12:15:05Z</time></trkpt><trkpt lat="44.925291799559744" lon="7.837549176849071"><ele>238.0</ele><time>2026-04-10T12:15:08Z</time></trkpt><trkpt lat="44.92530090638776" lon="7.837403751513794"><ele>237.99999999999997</ele><time>2026-04-10T12:15:12Z</time></trkpt><trkpt lat="44.92526339047216" lon="7.837317404736979"><ele>238.0</ele><time>2026-04-10T12:15:14Z</time></trkpt><trkpt lat="44.92520152909307" lon="7.8372248170605605"><ele>238.0</ele><time>2026-04-10T12:15:16Z</time></trkpt><trkpt lat="44.92513581864535" lon="7.837123694161995"><ele>238.0</ele><time>2026-04-10T12:15:18Z</time></trkpt><trkpt lat="44.925065431612644" lon="7.837025328295771"><ele>238.0</ele><time>2026-04-10T12:15:20Z</time></trkpt><trkpt lat="44.924984654565854" lon="7.836919878403234"><ele>238.0</ele><time>2026-04-10T12:15:22Z</time></trkpt><trkpt lat="44.92490301619464" lon="7.836803208906954"><ele>238.0</ele><time>2026-04-10T12:15:24Z</time></trkpt><trkpt lat="44.924822844913464" lon="7.836683684539215"><ele>237.4</ele><time>2026-04-10T12:15:26Z</time></trkpt><trkpt lat="44.92473647674438" lon="7.836558544469037"><ele>236.8</ele><time>2026-04-10T12:15:28Z</time></trkpt><trkpt lat="44.92465177234942" lon="7.836431431006956"><ele>236.2</ele><time>2026-04-10T12:15:30Z</time></trkpt><trkpt lat="44.9245861151336" lon="7.836289411902906"><ele>235.6</ele><time>2026-04-10T12:15:32Z</time></trkpt><trkpt lat="44.92455437954732" lon="7.8362125562522635"><ele>235.0</ele><time>2026-04-10T12:15:33Z</time></trkpt><trkpt lat="44.92449993057129" lon="7.836058279159872"><ele>235.0</ele><time>2026-04-10T12:15:35Z</time></trkpt><trkpt lat="44.92446774078476" lon="7.83590559415352"><ele>235.0</ele><time>2026-04-10T12:15:37Z</time></trkpt><trkpt lat="44.92440967728736" lon="7.835790471844698"><ele>235.0</ele><time>2026-04-10T12:15:39Z</time></trkpt><trkpt lat="44.92436970418415" lon="7.835635597451751"><ele>235.0</ele><time>2026-04-10T12:15:41Z</time></trkpt><trkpt lat="44.92434020422442" lon="7.835482060568402"><ele>235.0</ele><time>2026-04-10T12:15:43Z</time></trkpt><trkpt lat="44.924312711539514" lon="7.835327348112392"><ele>235.0</ele><time>2026-04-10T12:15:45Z</time></trkpt><trkpt lat="44.92429413705973" lon="7.835170595680128"><ele>235.0</ele><time>2026-04-10T12:15:47Z</time></trkpt><trkpt lat="44.9242761912995" lon="7.835006653005779"><ele>235.0</ele><time>2026-04-10T12:15:49Z</time></trkpt><trkpt lat="44.92426221754124" lon="7.834845704656182"><ele>235.0</ele><time>2026-04-10T12:15:51Z</time></trkpt><trkpt lat="44.92424575477822" lon="7.834683153205894"><ele>235.0</ele><time>2026-04-10T12:15:53Z</time></trkpt><trkpt lat="44.924243798023646" lon="7.834516508401456"><ele>235.0</ele><time>2026-04-10T12:15:55Z</time></trkpt><trkpt lat="44.92422945840482" lon="7.834355467234704"><ele>235.0</ele><time>2026-04-10T12:15:57Z</time></trkpt><trkpt lat="44.924214968157855" lon="7.834192676089038"><ele>235.0</ele><time>2026-04-10T12:15:59Z</time></trkpt><trkpt lat="44.92420140717002" lon="7.8340270892766695"><ele>235.25</ele><time>2026-04-10T12:16:01Z</time></trkpt><trkpt lat="44.92418855781412" lon="7.833861190945692"><ele>235.5</ele><time>2026-04-10T12:16:03Z</time></trkpt><trkpt lat="44.92416869741745" lon="7.833693736403203"><ele>235.75</ele><time>2026-04-10T12:16:05Z</time></trkpt><trkpt lat="44.92415646116686" lon="7.833539911524139"><ele>236.0</ele><time>2026-04-10T12:16:07Z</time></trkpt><trkpt lat="44.92414187416871" lon="7.833384379678705"><ele>236.0</ele><time>2026-04-10T12:16:09Z</time></trkpt><trkpt lat="44.92413015438025" lon="7.833232055838288"><ele>236.00000000000003</ele><time>2026-04-10T12:16:11Z</time></trkpt><trkpt lat="44.92411930169507" lon="7.833085417395796"><ele>236.00000000000003</ele><time>2026-04-10T12:16:13Z</time></trkpt><trkpt lat="44.92407950078391" lon="7.832927787382683"><ele>236.0</ele><time>2026-04-10T12:16:15Z</time></trkpt><trkpt lat="44.924052460764344" lon="7.832779036506041"><ele>236.0</ele><time>2026-04-10T12:16:17Z</time></trkpt><trkpt lat="44.924014335533556" lon="7.832639213654382"><ele>235.8</ele><time>2026-04-10T12:16:19Z</time></trkpt><trkpt lat="44.92398182515133" lon="7.832493123986178"><ele>235.60000000000002</ele><time>2026-04-10T12:16:21Z</time></trkpt><trkpt lat="44.92395648145205" lon="7.83234471115443"><ele>235.4</ele><time>2026-04-10T12:16:23Z</time></trkpt><trkpt lat="44.923924157467454" lon="7.832205855623663"><ele>235.2</ele><time>2026-04-10T12:16:25Z</time></trkpt><trkpt lat="44.923911106553085" lon="7.832064917811148"><ele>235.0</ele><time>2026-04-10T12:16:27Z</time></trkpt><trkpt lat="44.92390621723198" lon="7.831914190721131"><ele>235.4</ele><time>2026-04-10T12:16:29Z</time></trkpt><trkpt lat="44.92392096677278" lon="7.831762465140901"><ele>235.8</ele><time>2026-04-10T12:16:31Z</time></trkpt><trkpt lat="44.923966668420206" lon="7.831663269047303"><ele>236.2</ele><time>2026-04-10T12:16:33Z</time></trkpt><trkpt lat="44.92402705974721" lon="7.831565009128462"><ele>236.6</ele><time>2026-04-10T12:16:35Z</time></trkpt><trkpt lat="44.92410220441708" lon="7.8315072475736915"><ele>237.0</ele><time>2026-04-10T12:16:37Z</time></trkpt><trkpt lat="44.92398453477982" lon="7.831271573763897"><ele>237.0</ele><time>2026-04-10T12:16:38Z</time></trkpt><trkpt lat="44.92401314547904" lon="7.831119862903679"><ele>237.0</ele><time>2026-04-10T12:16:40Z</time></trkpt><trkpt lat="44.9240478915837" lon="7.83097456723475"><ele>237.0</ele><time>2026-04-10T12:16:42Z</time></trkpt><trkpt lat="44.92407908437548" lon="7.830826565231075"><ele>237.0</ele><time>2026-04-10T12:16:44Z</time></trkpt><trkpt lat="44.92411675249721" lon="7.830671393061642"><ele>237.0</ele><time>2026-04-10T12:16:46Z</time></trkpt><trkpt lat="44.924162442611276" lon="7.830526273479538"><ele>236.8</ele><time>2026-04-10T12:16:48Z</time></trkpt><trkpt lat="44.924215987056584" lon="7.83038412599111"><ele>236.6</ele><time>2026-04-10T12:16:50Z</time></trkpt><trkpt lat="44.92427062954161" lon="7.830243614909539"><ele>236.40000000000003</ele><time>2026-04-10T12:16:52Z</time></trkpt><trkpt lat="44.9243259691213" lon="7.830105694291905"><ele>236.20000000000002</ele><time>2026-04-10T12:16:54Z</time></trkpt><trkpt lat="44.924373140241435" lon="7.829976323449761"><ele>236.0</ele><time>2026-04-10T12:16:56Z</time></trkpt><trkpt lat="44.92443928851887" lon="7.829841150210946"><ele>236.0</ele><time>2026-04-10T12:16:58Z</time></trkpt><trkpt lat="44.92451571049221" lon="7.829712198843657"><ele>236.0</ele><time>2026-04-10T12:17:00Z</time></trkpt><trkpt lat="44.92460031378875" lon="7.829597074890315"><ele>236.0</ele><time>2026-04-10T12:17:02Z</time></trkpt><trkpt lat="44.92468512681011" lon="7.829492061875896"><ele>236.0</ele><time>2026-04-10T12:17:04Z</time></trkpt><trkpt lat="44.9247713452965" lon="7.82938295434908"><ele>235.8</ele><time>2026-04-10T12:17:06Z</time></trkpt><trkpt lat="44.92485457878265" lon="7.829272141529918"><ele>235.60000000000002</ele><time>2026-04-10T12:17:08Z</time></trkpt><trkpt lat="44.92492179858021" lon="7.829153101467624"><ele>235.4</ele><time>2026-04-10T12:17:10Z</time></trkpt><trkpt lat="44.92499025717399" lon="7.829033712040818"><ele>235.2</ele><time>2026-04-10T12:17:12Z</time></trkpt><trkpt lat="44.92505438338739" lon="7.82891044544924"><ele>235.0</ele><time>2026-04-10T12:17:14Z</time></trkpt><trkpt lat="44.92511937856328" lon="7.828781591903962"><ele>234.8</ele><time>2026-04-10T12:17:16Z</time></trkpt><trkpt lat="44.925179752256035" lon="7.828652740292194"><ele>234.6</ele><time>2026-04-10T12:17:18Z</time></trkpt><trkpt lat="44.925250430647395" lon="7.828537443293091"><ele>234.39999999999998</ele><time>2026-04-10T12:17:20Z</time></trkpt><trkpt lat="44.925340909172725" lon="7.828437099538736"><ele>234.2</ele><time>2026-04-10T12:17:22Z</time></trkpt><trkpt lat="44.925430565498765" lon="7.828358008606082"><ele>234.0</ele><time>2026-04-10T12:17:24Z</time></trkpt><trkpt lat="44.92553260142143" lon="7.82827549636315"><ele>234.0</ele><time>2026-04-10T12:17:26Z</time></trkpt><trkpt lat="44.925629544821014" lon="7.828195406876988"><ele>234.0</ele><time>2026-04-10T12:17:28Z</time></trkpt><trkpt lat="44.92573721873562" lon="7.828116994059911"><ele>234.0</ele><time>2026-04-10T12:17:30Z</time></trkpt><trkpt lat="44.9258398549196" lon="7.82804746770214"><ele>234.0</ele><time>2026-04-10T12:17:32Z</time></trkpt><trkpt lat="44.92594665964016" lon="7.827972024522634"><ele>234.0</ele><time>2026-04-10T12:17:34Z</time></trkpt><trkpt lat="44.92604507543964" lon="7.827894148899968"><ele>234.0</ele><time>2026-04-10T12:17:36Z</time></trkpt><trkpt lat="44.926134395409896" lon="7.827783059144625"><ele>234.0</ele><time>2026-04-10T12:17:38Z</time></trkpt><trkpt lat="44.926166925656176" lon="7.827706567819541"><ele>234.0</ele><time>2026-04-10T12:17:39Z</time></trkpt><trkpt lat="44.92620812289102" lon="7.82763778824155"><ele>234.0</ele><time>2026-04-10T12:17:40Z</time></trkpt><trkpt lat="44.926242195306685" lon="7.82756296028992"><ele>234.0</ele><time>2026-04-10T12:17:41Z</time></trkpt><trkpt lat="44.92627527038815" lon="7.8274830924975936"><ele>234.0</ele><time>2026-04-10T12:17:42Z</time></trkpt><trkpt lat="44.92632425571735" lon="7.827322200022691"><ele>234.0</ele><time>2026-04-10T12:17:44Z</time></trkpt><trkpt lat="44.926358992806335" lon="7.827162131421518"><ele>234.0</ele><time>2026-04-10T12:17:46Z</time></trkpt><trkpt lat="44.92637535781869" lon="7.827004275553639"><ele>234.0</ele><time>2026-04-10T12:17:48Z</time></trkpt><trkpt lat="44.92640294386103" lon="7.826844807962104"><ele>234.39999999999998</ele><time>2026-04-10T12:17:50Z</time></trkpt><trkpt lat="44.926428551389854" lon="7.826674144386461"><ele>234.79999999999998</ele><time>2026-04-10T12:17:52Z</time></trkpt><trkpt lat="44.92646074671809" lon="7.826513972333839"><ele>235.20000000000002</ele><time>2026-04-10T12:17:54Z</time></trkpt><trkpt lat="44.9264865547747" lon="7.826427365821529"><ele>235.60000000000002</ele><time>2026-04-10T12:17:55Z</time></trkpt><trkpt lat="44.926536086782804" lon="7.826262664600821"><ele>236.0</ele><time>2026-04-10T12:17:57Z</time></trkpt><trkpt lat="44.92659199776442" lon="7.8261055083427085"><ele>236.0</ele><time>2026-04-10T12:17:59Z</time></trkpt><trkpt lat="44.926631838571446" lon="7.826035606105784"><ele>236.00000000000003</ele><time>2026-04-10T12:18:00Z</time></trkpt><trkpt lat="44.9267143067048" lon="7.825910295768511"><ele>236.00000000000003</ele><time>2026-04-10T12:18:02Z</time></trkpt><trkpt lat="44.92679305052728" lon="7.825789499427217"><ele>236.0</ele><time>2026-04-10T12:18:04Z</time></trkpt><trkpt lat="44.92687567264615" lon="7.825685975169824"><ele>236.0</ele><time>2026-04-10T12:18:06Z</time></trkpt><trkpt lat="44.92695657758264" lon="7.825579038251411"><ele>236.0</ele><time>2026-04-10T12:18:08Z</time></trkpt><trkpt lat="44.92705500098422" lon="7.825477371584092"><ele>236.00000000000003</ele><time>2026-04-10T12:18:10Z</time></trkpt><trkpt lat="44.92710609634186" lon="7.825424438699791"><ele>236.00000000000003</ele><time>2026-04-10T12:18:11Z</time></trkpt><trkpt lat="44.927159373248074" lon="7.825369699020677"><ele>236.0</ele><time>2026-04-10T12:18:12Z</time></trkpt><trkpt lat="44.92724016481269" lon="7.825249024225964"><ele>236.0</ele><time>2026-04-10T12:18:14Z</time></trkpt><trkpt lat="44.92731516912842" lon="7.82511034543879"><ele>235.75</ele><time>2026-04-10T12:18:16Z</time></trkpt><trkpt lat="44.9273814268291" lon="7.824969539194767"><ele>235.5</ele><time>2026-04-10T12:18:18Z</time></trkpt><trkpt lat="44.927462063466926" lon="7.824842117348697"><ele>235.25</ele><time>2026-04-10T12:18:20Z</time></trkpt><trkpt lat="44.92753615360857" lon="7.824714486825864"><ele>235.0</ele><time>2026-04-10T12:18:22Z</time></trkpt><trkpt lat="44.92760440704651" lon="7.824571300929996"><ele>235.0</ele><time>2026-04-10T12:18:24Z</time></trkpt><trkpt lat="44.92765093117626" lon="7.824407734878201"><ele>235.0</ele><time>2026-04-10T12:18:26Z</time></trkpt><trkpt lat="44.927692055316186" lon="7.824250188548256"><ele>235.0</ele><time>2026-04-10T12:18:28Z</time></trkpt><trkpt lat="44.927729488942724" lon="7.824094782273334"><ele>235.0</ele><time>2026-04-10T12:18:30Z</time></trkpt><trkpt lat="44.92774760495826" lon="7.823926390977606"><ele>235.0</ele><time>2026-04-10T12:18:32Z</time></trkpt><trkpt lat="44.92775381630426" lon="7.82375148369803"><ele>235.0</ele><time>2026-04-10T12:18:34Z</time></trkpt><trkpt lat="44.92774941358658" lon="7.823659282969109"><ele>235.0</ele><time>2026-04-10T12:18:35Z</time></trkpt><trkpt lat="44.927755263863794" lon="7.823562505661929"><ele>235.0</ele><time>2026-04-10T12:18:36Z</time></trkpt><trkpt lat="44.92775369704377" lon="7.8234722791067375"><ele>235.0</ele><time>2026-04-10T12:18:37Z</time></trkpt><trkpt lat="44.92774505826891" lon="7.823290406634726"><ele>235.0</ele><time>2026-04-10T12:18:39Z</time></trkpt><trkpt lat="44.92773498258654" lon="7.82320061349584"><ele>235.0</ele><time>2026-04-10T12:18:40Z</time></trkpt><trkpt lat="44.92772860272135" lon="7.823108285189542"><ele>235.0</ele><time>2026-04-10T12:18:41Z</time></trkpt><trkpt lat="44.92772098056442" lon="7.822939317258527"><ele>235.0</ele><time>2026-04-10T12:18:43Z</time></trkpt><trkpt lat="44.92771232278993" lon="7.822768364281239"><ele>235.0</ele><time>2026-04-10T12:18:45Z</time></trkpt><trkpt lat="44.927697337090144" lon="7.822600821544302"><ele>235.0</ele><time>2026-04-10T12:18:47Z</time></trkpt><trkpt lat="44.92768028270911" lon="7.822435177811176"><ele>235.0</ele><time>2026-04-10T12:18:49Z</time></trkpt><trkpt lat="44.92766906961127" lon="7.822269046129521"><ele>235.0</ele><time>2026-04-10T12:18:51Z</time></trkpt><trkpt lat="44.92766158913442" lon="7.822108911833874"><ele>235.0</ele><time>2026-04-10T12:18:53Z</time></trkpt><trkpt lat="44.9276677652374" lon="7.8219538007287275"><ele>234.75</ele><time>2026-04-10T12:18:55Z</time></trkpt><trkpt lat="44.927668897396416" lon="7.821793034051413"><ele>234.5</ele><time>2026-04-10T12:18:57Z</time></trkpt><trkpt lat="44.92765018944581" lon="7.821621278207963"><ele>234.25</ele><time>2026-04-10T12:18:59Z</time></trkpt><trkpt lat="44.92764233145504" lon="7.821464501242662"><ele>234.0</ele><time>2026-04-10T12:19:01Z</time></trkpt><trkpt lat="44.92763423018972" lon="7.821300712013458"><ele>234.0</ele><time>2026-04-10T12:19:03Z</time></trkpt><trkpt lat="44.927636743070636" lon="7.821206701766356"><ele>233.99999999999997</ele><time>2026-04-10T12:19:04Z</time></trkpt><trkpt lat="44.927640368704914" lon="7.82104885754551"><ele>233.99999999999997</ele><time>2026-04-10T12:19:06Z</time></trkpt><trkpt lat="44.92764689791246" lon="7.820882964774637"><ele>234.0</ele><time>2026-04-10T12:19:08Z</time></trkpt><trkpt lat="44.92766400773312" lon="7.820796773410195"><ele>234.0</ele><time>2026-04-10T12:19:09Z</time></trkpt><trkpt lat="44.92768978660623" lon="7.820628691522799"><ele>234.39999999999998</ele><time>2026-04-10T12:19:11Z</time></trkpt><trkpt lat="44.927737405478005" lon="7.820481151006989"><ele>234.79999999999998</ele><time>2026-04-10T12:19:13Z</time></trkpt><trkpt lat="44.9277914391936" lon="7.820332218372283"><ele>235.20000000000002</ele><time>2026-04-10T12:19:15Z</time></trkpt><trkpt lat="44.92782850127156" lon="7.820258154953066"><ele>235.60000000000002</ele><time>2026-04-10T12:19:16Z</time></trkpt><trkpt lat="44.927863950955334" lon="7.8201795189185965"><ele>236.0</ele><time>2026-04-10T12:19:17Z</time></trkpt><trkpt lat="44.927931603469304" lon="7.8200551480247436"><ele>236.25</ele><time>2026-04-10T12:19:19Z</time></trkpt><trkpt lat="44.9279962550341" lon="7.819924674374253"><ele>236.5</ele><time>2026-04-10T12:19:21Z</time></trkpt><trkpt lat="44.92807780472678" lon="7.819798483848765"><ele>236.75</ele><time>2026-04-10T12:19:23Z</time></trkpt><trkpt lat="44.92816267382345" lon="7.819684412654622"><ele>237.0</ele><time>2026-04-10T12:19:25Z</time></trkpt><trkpt lat="44.92824518649432" lon="7.819568824165189"><ele>237.0</ele><time>2026-04-10T12:19:27Z</time></trkpt><trkpt lat="44.92834182700751" lon="7.819476033318181"><ele>237.0</ele><time>2026-04-10T12:19:29Z</time></trkpt><trkpt lat="44.92844831228662" lon="7.819396505273084"><ele>237.0</ele><time>2026-04-10T12:19:31Z</time></trkpt><trkpt lat="44.928546062027294" lon="7.819322624775243"><ele>237.0</ele><time>2026-04-10T12:19:33Z</time></trkpt><trkpt lat="44.928644360054264" lon="7.819249978941438"><ele>236.75</ele><time>2026-04-10T12:19:35Z</time></trkpt><trkpt lat="44.928741649869224" lon="7.819180400394435"><ele>236.5</ele><time>2026-04-10T12:19:37Z</time></trkpt><trkpt lat="44.92884038983488" lon="7.819103460600101"><ele>236.25</ele><time>2026-04-10T12:19:39Z</time></trkpt><trkpt lat="44.9289456106617" lon="7.8190346234053285"><ele>236.0</ele><time>2026-04-10T12:19:41Z</time></trkpt><trkpt lat="44.9290504424535" lon="7.818953193149566"><ele>236.0</ele><time>2026-04-10T12:19:43Z</time></trkpt><trkpt lat="44.92914693079336" lon="7.818852455489375"><ele>236.0</ele><time>2026-04-10T12:19:45Z</time></trkpt><trkpt lat="44.929238311328874" lon="7.818745515926784"><ele>236.0</ele><time>2026-04-10T12:19:47Z</time></trkpt><trkpt lat="44.92933265881015" lon="7.818655091964112"><ele>236.0</ele><time>2026-04-10T12:19:49Z</time></trkpt><trkpt lat="44.92942302800811" lon="7.81854887715977"><ele>236.25</ele><time>2026-04-10T12:19:51Z</time></trkpt><trkpt lat="44.92951586984225" lon="7.8184450391575515"><ele>236.5</ele><time>2026-04-10T12:19:53Z</time></trkpt><trkpt lat="44.92960661435013" lon="7.818344261206747"><ele>236.75</ele><time>2026-04-10T12:19:55Z</time></trkpt><trkpt lat="44.92968664975118" lon="7.818234643569221"><ele>237.0</ele><time>2026-04-10T12:19:57Z</time></trkpt><trkpt lat="44.929744573965216" lon="7.8180961889116665"><ele>237.0</ele><time>2026-04-10T12:19:59Z</time></trkpt><trkpt lat="44.929786589651584" lon="7.817953535198391"><ele>237.0</ele><time>2026-04-10T12:20:01Z</time></trkpt><trkpt lat="44.92983071102625" lon="7.817804432333323"><ele>237.0</ele><time>2026-04-10T12:20:03Z</time></trkpt><trkpt lat="44.92985831556087" lon="7.817639450882542"><ele>237.0</ele><time>2026-04-10T12:20:05Z</time></trkpt><trkpt lat="44.92987572605061" lon="7.81755189179036"><ele>237.0</ele><time>2026-04-10T12:20:06Z</time></trkpt><trkpt lat="44.929901484293765" lon="7.817464448305069"><ele>236.8</ele><time>2026-04-10T12:20:07Z</time></trkpt><trkpt lat="44.92993526812864" lon="7.817381853819752"><ele>236.6</ele><time>2026-04-10T12:20:08Z</time></trkpt><trkpt lat="44.92997245698724" lon="7.817301492303372"><ele>236.40000000000003</ele><time>2026-04-10T12:20:09Z</time></trkpt><trkpt lat="44.93005615536032" lon="7.817173442659051"><ele>236.20000000000002</ele><time>2026-04-10T12:20:11Z</time></trkpt><trkpt lat="44.93014220842596" lon="7.817058739365579"><ele>236.0</ele><time>2026-04-10T12:20:13Z</time></trkpt><trkpt lat="44.93023214758656" lon="7.816962564331584"><ele>235.8</ele><time>2026-04-10T12:20:15Z</time></trkpt><trkpt lat="44.9303057475455" lon="7.816875873857782"><ele>235.60000000000002</ele><time>2026-04-10T12:20:17Z</time></trkpt><trkpt lat="44.93040077444783" lon="7.816811789228837"><ele>235.4</ele><time>2026-04-10T12:20:19Z</time></trkpt><trkpt lat="44.930490243903506" lon="7.816729494736819"><ele>235.2</ele><time>2026-04-10T12:20:21Z</time></trkpt><trkpt lat="44.93058542376096" lon="7.816650787166918"><ele>235.0</ele><time>2026-04-10T12:20:23Z</time></trkpt><trkpt lat="44.93069049889844" lon="7.81657153762206"><ele>234.75</ele><time>2026-04-10T12:20:25Z</time></trkpt><trkpt lat="44.93079472911545" lon="7.816491040480035"><ele>234.5</ele><time>2026-04-10T12:20:27Z</time></trkpt><trkpt lat="44.93089326823742" lon="7.816422386750389"><ele>234.25</ele><time>2026-04-10T12:20:29Z</time></trkpt><trkpt lat="44.930995841674296" lon="7.816370179886175"><ele>234.0</ele><time>2026-04-10T12:20:31Z</time></trkpt><trkpt lat="44.931103404054205" lon="7.816313009331237"><ele>234.0</ele><time>2026-04-10T12:20:33Z</time></trkpt><trkpt lat="44.93121551707395" lon="7.8162612244756025"><ele>233.99999999999997</ele><time>2026-04-10T12:20:35Z</time></trkpt><trkpt lat="44.931314592956426" lon="7.816204307952253"><ele>233.99999999999997</ele><time>2026-04-10T12:20:37Z</time></trkpt><trkpt lat="44.93141240265289" lon="7.816154044524988"><ele>234.0</ele><time>2026-04-10T12:20:39Z</time></trkpt><trkpt lat="44.93149763238444" lon="7.81609793733606"><ele>234.0</ele><time>2026-04-10T12:20:41Z</time></trkpt><trkpt lat="44.931578552811764" lon="7.816032861280661"><ele>234.0</ele><time>2026-04-10T12:20:43Z</time></trkpt><trkpt lat="44.93166524377645" lon="7.815985745626798"><ele>233.99999999999997</ele><time>2026-04-10T12:20:45Z</time></trkpt><trkpt lat="44.93176204651109" lon="7.8159589832804155"><ele>233.99999999999997</ele><time>2026-04-10T12:20:47Z</time></trkpt><trkpt lat="44.931862916822276" lon="7.815959009641896"><ele>234.0</ele><time>2026-04-10T12:20:49Z</time></trkpt><trkpt lat="44.93196441750808" lon="7.815978895086542"><ele>234.0</ele><time>2026-04-10T12:20:51Z</time></trkpt><trkpt lat="44.93206872409188" lon="7.816003213126275"><ele>234.0</ele><time>2026-04-10T12:20:53Z</time></trkpt><trkpt lat="44.9321707994779" lon="7.816026707573193"><ele>233.99999999999997</ele><time>2026-04-10T12:20:55Z</time></trkpt><trkpt lat="44.932273677982565" lon="7.8160459710936685"><ele>233.99999999999997</ele><time>2026-04-10T12:20:57Z</time></trkpt><trkpt lat="44.93236675389056" lon="7.816073042194851"><ele>234.0</ele><time>2026-04-10T12:20:59Z</time></trkpt><trkpt lat="44.93247013755132" lon="7.816095011091874"><ele>234.0</ele><time>2026-04-10T12:21:01Z</time></trkpt><trkpt lat="44.93257056702311" lon="7.816117788757394"><ele>234.0</ele><time>2026-04-10T12:21:03Z</time></trkpt><trkpt lat="44.93267263313871" lon="7.81613199496855"><ele>233.99999999999997</ele><time>2026-04-10T12:21:05Z</time></trkpt><trkpt lat="44.932781806381406" lon="7.816097103039926"><ele>233.99999999999997</ele><time>2026-04-10T12:21:07Z</time></trkpt><trkpt lat="44.93286471732052" lon="7.815989178253001"><ele>234.0</ele><time>2026-04-10T12:21:09Z</time></trkpt><trkpt lat="44.932934071497286" lon="7.815884498493137"><ele>234.0</ele><time>2026-04-10T12:21:11Z</time></trkpt><trkpt lat="44.93301000915261" lon="7.815783773909931"><ele>233.79999999999998</ele><time>2026-04-10T12:21:13Z</time></trkpt><trkpt lat="44.93308498090836" lon="7.815679962763185"><ele>233.59999999999997</ele><time>2026-04-10T12:21:15Z</time></trkpt><trkpt lat="44.93316111997542" lon="7.815565813500579"><ele>233.4</ele><time>2026-04-10T12:21:17Z</time></trkpt><trkpt lat="44.933234436197495" lon="7.815456630625537"><ele>233.2</ele><time>2026-04-10T12:21:19Z</time></trkpt><trkpt lat="44.93328975491556" lon="7.815328486243582"><ele>233.0</ele><time>2026-04-10T12:21:21Z</time></trkpt><trkpt lat="44.93330046786383" lon="7.815182263951191"><ele>233.0</ele><time>2026-04-10T12:21:23Z</time></trkpt><trkpt lat="44.93330220185216" lon="7.815036435312526"><ele>233.0</ele><time>2026-04-10T12:21:25Z</time></trkpt><trkpt lat="44.933339757430716" lon="7.814900008838388"><ele>233.0</ele><time>2026-04-10T12:21:27Z</time></trkpt><trkpt lat="44.93341417950099" lon="7.8147868581930275"><ele>233.0</ele><time>2026-04-10T12:21:29Z</time></trkpt><trkpt lat="44.93349676303109" lon="7.814687014548779"><ele>233.0</ele><time>2026-04-10T12:21:31Z</time></trkpt><trkpt lat="44.9335847591822" lon="7.8145967732233235"><ele>233.4</ele><time>2026-04-10T12:21:33Z</time></trkpt><trkpt lat="44.933667005022784" lon="7.814500696210571"><ele>233.8</ele><time>2026-04-10T12:21:35Z</time></trkpt><trkpt lat="44.93375617530157" lon="7.814410106446879"><ele>234.2</ele><time>2026-04-10T12:21:37Z</time></trkpt><trkpt lat="44.93383957295294" lon="7.8143101579891985"><ele>234.6</ele><time>2026-04-10T12:21:39Z</time></trkpt><trkpt lat="44.93392291913736" lon="7.8142225646197065"><ele>235.0</ele><time>2026-04-10T12:21:41Z</time></trkpt><trkpt lat="44.93400878398693" lon="7.814132104110098"><ele>235.0</ele><time>2026-04-10T12:21:43Z</time></trkpt><trkpt lat="44.93409418627205" lon="7.814038147805631"><ele>235.0</ele><time>2026-04-10T12:21:45Z</time></trkpt><trkpt lat="44.934185899984215" lon="7.813950256216321"><ele>235.0</ele><time>2026-04-10T12:21:47Z</time></trkpt><trkpt lat="44.934275924226625" lon="7.813875942567612"><ele>235.0</ele><time>2026-04-10T12:21:49Z</time></trkpt><trkpt lat="44.934385845733786" lon="7.813843468511693"><ele>235.0</ele><time>2026-04-10T12:21:51Z</time></trkpt><trkpt lat="44.934490223353464" lon="7.8138433796556495"><ele>234.8</ele><time>2026-04-10T12:21:53Z</time></trkpt><trkpt lat="44.934589335204905" lon="7.813844281678313"><ele>234.6</ele><time>2026-04-10T12:21:55Z</time></trkpt><trkpt lat="44.93468642850814" lon="7.813815254062209"><ele>234.39999999999998</ele><time>2026-04-10T12:21:57Z</time></trkpt><trkpt lat="44.93477104733275" lon="7.813779571201091"><ele>234.2</ele><time>2026-04-10T12:21:59Z</time></trkpt><trkpt lat="44.934852002887645" lon="7.813712703577148"><ele>234.0</ele><time>2026-04-10T12:22:01Z</time></trkpt><trkpt lat="44.93493476589222" lon="7.8136165373070545"><ele>234.0</ele><time>2026-04-10T12:22:03Z</time></trkpt><trkpt lat="44.93501555517403" lon="7.813492971174395"><ele>234.0</ele><time>2026-04-10T12:22:05Z</time></trkpt><trkpt lat="44.935101555257944" lon="7.813374205975434"><ele>234.0</ele><time>2026-04-10T12:22:07Z</time></trkpt><trkpt lat="44.93519580527499" lon="7.813265718175285"><ele>234.0</ele><time>2026-04-10T12:22:09Z</time></trkpt><trkpt lat="44.935283925242764" lon="7.8131579569886025"><ele>234.25</ele><time>2026-04-10T12:22:11Z</time></trkpt><trkpt lat="44.9353589601919" lon="7.813042316090983"><ele>234.5</ele><time>2026-04-10T12:22:13Z</time></trkpt><trkpt lat="44.935430529693996" lon="7.812915211179727"><ele>234.75</ele><time>2026-04-10T12:22:15Z</time></trkpt><trkpt lat="44.93549522814447" lon="7.812787636922283"><ele>235.0</ele><time>2026-04-10T12:22:17Z</time></trkpt><trkpt lat="44.935568209683304" lon="7.812665775089283"><ele>234.75</ele><time>2026-04-10T12:22:19Z</time></trkpt><trkpt lat="44.93564466005655" lon="7.8125396127816655"><ele>234.5</ele><time>2026-04-10T12:22:21Z</time></trkpt><trkpt lat="44.9357267376826" lon="7.812424912628471"><ele>234.25</ele><time>2026-04-10T12:22:23Z</time></trkpt><trkpt lat="44.935826203422884" lon="7.81233941025895"><ele>234.0</ele><time>2026-04-10T12:22:25Z</time></trkpt><trkpt lat="44.93593409275221" lon="7.812282231263813"><ele>234.6</ele><time>2026-04-10T12:22:27Z</time></trkpt><trkpt lat="44.936041235335985" lon="7.812241560847509"><ele>235.2</ele><time>2026-04-10T12:22:29Z</time></trkpt><trkpt lat="44.93615224269677" lon="7.812218390578849"><ele>235.79999999999998</ele><time>2026-04-10T12:22:31Z</time></trkpt><trkpt lat="44.93626377288387" lon="7.812195535509556"><ele>236.39999999999998</ele><time>2026-04-10T12:22:33Z</time></trkpt><trkpt lat="44.93637061973768" lon="7.812173349219519"><ele>237.0</ele><time>2026-04-10T12:22:35Z</time></trkpt><trkpt lat="44.936477770101654" lon="7.812159571990863"><ele>237.0</ele><time>2026-04-10T12:22:37Z</time></trkpt><trkpt lat="44.93658133640329" lon="7.8121329044529455"><ele>237.0</ele><time>2026-04-10T12:22:39Z</time></trkpt><trkpt lat="44.93667195801807" lon="7.812052724117231"><ele>237.0</ele><time>2026-04-10T12:22:41Z</time></trkpt><trkpt lat="44.93674724229297" lon="7.811940971665602"><ele>237.0</ele><time>2026-04-10T12:22:43Z</time></trkpt><trkpt lat="44.93683188649432" lon="7.811858097815949"><ele>237.0</ele><time>2026-04-10T12:22:45Z</time></trkpt><trkpt lat="44.93691591375394" lon="7.811771655638921"><ele>236.6</ele><time>2026-04-10T12:22:47Z</time></trkpt><trkpt lat="44.93700449144364" lon="7.8116975136711835"><ele>236.2</ele><time>2026-04-10T12:22:49Z</time></trkpt><trkpt lat="44.937089822647366" lon="7.811621845464931"><ele>235.8</ele><time>2026-04-10T12:22:51Z</time></trkpt><trkpt lat="44.937175037477516" lon="7.811568635258823"><ele>235.4</ele><time>2026-04-10T12:22:53Z</time></trkpt><trkpt lat="44.93726229602613" lon="7.8115878740389055"><ele>235.0</ele><time>2026-04-10T12:22:55Z</time></trkpt><trkpt lat="44.93731197763796" lon="7.811707531890895"><ele>235.0</ele><time>2026-04-10T12:22:57Z</time></trkpt><trkpt lat="44.937341361156975" lon="7.8118518655575535"><ele>235.0</ele><time>2026-04-10T12:22:59Z</time></trkpt><trkpt lat="44.93737727160716" lon="7.811999751932256"><ele>235.0</ele><time>2026-04-10T12:23:01Z</time></trkpt><trkpt lat="44.937423189738865" lon="7.812146580062337"><ele>235.0</ele><time>2026-04-10T12:23:03Z</time></trkpt><trkpt lat="44.93746111398657" lon="7.81228395065654"><ele>235.0</ele><time>2026-04-10T12:23:05Z</time></trkpt><trkpt lat="44.937501342375036" lon="7.812414969090481"><ele>234.8</ele><time>2026-04-10T12:23:07Z</time></trkpt><trkpt lat="44.93759295356248" lon="7.812508097830909"><ele>234.6</ele><time>2026-04-10T12:23:09Z</time></trkpt><trkpt lat="44.937701411175006" lon="7.812513694671703"><ele>234.39999999999998</ele><time>2026-04-10T12:23:11Z</time></trkpt><trkpt lat="44.937796550075845" lon="7.812490895713838"><ele>234.2</ele><time>2026-04-10T12:23:13Z</time></trkpt><trkpt lat="44.93789570735749" lon="7.81247167303404"><ele>234.0</ele><time>2026-04-10T12:23:15Z</time></trkpt><trkpt lat="44.937993298363324" lon="7.812455887552553"><ele>234.0</ele><time>2026-04-10T12:23:17Z</time></trkpt><trkpt lat="44.938093436114514" lon="7.812448072062934"><ele>233.99999999999997</ele><time>2026-04-10T12:23:19Z</time></trkpt><trkpt lat="44.93819157750789" lon="7.812434475240113"><ele>233.99999999999997</ele><time>2026-04-10T12:23:21Z</time></trkpt><trkpt lat="44.93828746653682" lon="7.81242234458764"><ele>234.0</ele><time>2026-04-10T12:23:23Z</time></trkpt><trkpt lat="44.93838326535339" lon="7.812413895332503"><ele>234.0</ele><time>2026-04-10T12:23:25Z</time></trkpt><trkpt lat="44.938477176495724" lon="7.812422717804562"><ele>234.2</ele><time>2026-04-10T12:23:27Z</time></trkpt><trkpt lat="44.93857539429282" lon="7.812385317129183"><ele>234.39999999999998</ele><time>2026-04-10T12:23:29Z</time></trkpt><trkpt lat="44.938667807725835" lon="7.812375596623184"><ele>234.6</ele><time>2026-04-10T12:23:31Z</time></trkpt><trkpt lat="44.93876284130683" lon="7.812361894854058"><ele>234.8</ele><time>2026-04-10T12:23:33Z</time></trkpt><trkpt lat="44.93885164969253" lon="7.812347673759003"><ele>235.0</ele><time>2026-04-10T12:23:35Z</time></trkpt><trkpt lat="44.93894259584369" lon="7.8123348982233445"><ele>234.99999999999997</ele><time>2026-04-10T12:23:37Z</time></trkpt><trkpt lat="44.939030103579036" lon="7.812326638243377"><ele>235.0</ele><time>2026-04-10T12:23:39Z</time></trkpt><trkpt lat="44.939118332921176" lon="7.812295980091096"><ele>235.0</ele><time>2026-04-10T12:23:41Z</time></trkpt><trkpt lat="44.939212080596114" lon="7.812282320990823"><ele>235.0</ele><time>2026-04-10T12:23:43Z</time></trkpt><trkpt lat="44.939298430560406" lon="7.812258228808622"><ele>234.99999999999997</ele><time>2026-04-10T12:23:45Z</time></trkpt><trkpt lat="44.939385619116365" lon="7.812245748311999"><ele>235.0</ele><time>2026-04-10T12:23:47Z</time></trkpt><trkpt lat="44.93947863877969" lon="7.812226664584988"><ele>235.16666666666666</ele><time>2026-04-10T12:23:49Z</time></trkpt><trkpt lat="44.93956296967684" lon="7.812210756099868"><ele>235.33333333333331</ele><time>2026-04-10T12:23:51Z</time></trkpt><trkpt lat="44.93965337366017" lon="7.812200928773273"><ele>235.5</ele><time>2026-04-10T12:23:53Z</time></trkpt><trkpt lat="44.939738081822895" lon="7.81219299323315"><ele>235.66666666666669</ele><time>2026-04-10T12:23:55Z</time></trkpt><trkpt lat="44.939822454659115" lon="7.812184018934785"><ele>235.83333333333334</ele><time>2026-04-10T12:23:57Z</time></trkpt><trkpt lat="44.93990831809843" lon="7.812185595104433"><ele>236.0</ele><time>2026-04-10T12:23:59Z</time></trkpt><trkpt lat="44.93998764639337" lon="7.81218276904467"><ele>236.33333333333334</ele><time>2026-04-10T12:24:01Z</time></trkpt><trkpt lat="44.94007960166694" lon="7.812176574048015"><ele>236.66666666666669</ele><time>2026-04-10T12:24:03Z</time></trkpt><trkpt lat="44.940171994254435" lon="7.812172636921893"><ele>237.0</ele><time>2026-04-10T12:24:05Z</time></trkpt><trkpt lat="44.94026464793019" lon="7.812192847901907"><ele>237.33333333333331</ele><time>2026-04-10T12:24:07Z</time></trkpt><trkpt lat="44.940351880622025" lon="7.81220576099243"><ele>237.66666666666666</ele><time>2026-04-10T12:24:09Z</time></trkpt><trkpt lat="44.94041672201657" lon="7.812264251028301"><ele>238.0</ele><time>2026-04-10T12:24:11Z</time></trkpt><trkpt lat="44.94044195998197" lon="7.81237816254419"><ele>237.99999999999997</ele><time>2026-04-10T12:24:13Z</time></trkpt><trkpt lat="44.940441548852945" lon="7.81250250642694"><ele>238.0</ele><time>2026-04-10T12:24:15Z</time></trkpt><trkpt lat="44.940456736157806" lon="7.8126035043695286"><ele>238.0</ele><time>2026-04-10T12:24:17Z</time></trkpt><trkpt lat="44.94047892459043" lon="7.812705751377738"><ele>238.0</ele><time>2026-04-10T12:24:19Z</time></trkpt><trkpt lat="44.94053650031589" lon="7.812791186211602"><ele>237.99999999999997</ele><time>2026-04-10T12:24:21Z</time></trkpt><trkpt lat="44.940608245339675" lon="7.81286436545856"><ele>238.0</ele><time>2026-04-10T12:24:23Z</time></trkpt><trkpt lat="44.94069322673459" lon="7.81289901460745"><ele>239.0</ele><time>2026-04-10T12:24:25Z</time></trkpt><trkpt lat="44.94077588307834" lon="7.812936487086627"><ele>240.0</ele><time>2026-04-10T12:24:27Z</time></trkpt><trkpt lat="44.94086313228305" lon="7.812975810616195"><ele>241.0</ele><time>2026-04-10T12:24:29Z</time></trkpt><trkpt lat="44.9409529027974" lon="7.813015717891965"><ele>242.0</ele><time>2026-04-10T12:24:31Z</time></trkpt><trkpt lat="44.94104274942291" lon="7.813055658938606"><ele>243.0</ele><time>2026-04-10T12:24:33Z</time></trkpt><trkpt lat="44.941138730056366" lon="7.8130989525930215"><ele>243.0</ele><time>2026-04-10T12:24:35Z</time></trkpt><trkpt lat="44.94122908874633" lon="7.8131419617844085"><ele>243.0</ele><time>2026-04-10T12:24:37Z</time></trkpt><trkpt lat="44.941319080087695" lon="7.813182830216445"><ele>243.0</ele><time>2026-04-10T12:24:39Z</time></trkpt><trkpt lat="44.941404295520414" lon="7.81320964913023"><ele>243.0</ele><time>2026-04-10T12:24:41Z</time></trkpt><trkpt lat="44.941499199072005" lon="7.813230082195855"><ele>243.0</ele><time>2026-04-10T12:24:43Z</time></trkpt><trkpt lat="44.94159954510084" lon="7.81323750576073"><ele>243.0</ele><time>2026-04-10T12:24:45Z</time></trkpt><trkpt lat="44.94169347193777" lon="7.813236332610587"><ele>243.0</ele><time>2026-04-10T12:24:47Z</time></trkpt><trkpt lat="44.941795256217645" lon="7.81324241422244"><ele>243.0</ele><time>2026-04-10T12:24:49Z</time></trkpt><trkpt lat="44.94188724655398" lon="7.81325215608087"><ele>243.0</ele><time>2026-04-10T12:24:51Z</time></trkpt><trkpt lat="44.94198854677653" lon="7.8132629353699015"><ele>243.0</ele><time>2026-04-10T12:24:53Z</time></trkpt><trkpt lat="44.94209011869894" lon="7.813258255714231"><ele>243.2</ele><time>2026-04-10T12:24:55Z</time></trkpt><trkpt lat="44.94218409179539" lon="7.8132841735490715"><ele>243.4</ele><time>2026-04-10T12:24:57Z</time></trkpt><trkpt lat="44.94228255405921" lon="7.813294867540254"><ele>243.59999999999997</ele><time>2026-04-10T12:24:59Z</time></trkpt><trkpt lat="44.94237917860674" lon="7.813285408340714"><ele>243.79999999999998</ele><time>2026-04-10T12:25:01Z</time></trkpt><trkpt lat="44.942469818639736" lon="7.813315657727164"><ele>244.0</ele><time>2026-04-10T12:25:03Z</time></trkpt><trkpt lat="44.94256536611152" lon="7.813325462931555"><ele>244.99999999999997</ele><time>2026-04-10T12:25:05Z</time></trkpt><trkpt lat="44.94265046048179" lon="7.813308601468085"><ele>246.0</ele><time>2026-04-10T12:25:07Z</time></trkpt><trkpt lat="44.942729367298995" lon="7.8132629177089425"><ele>247.0</ele><time>2026-04-10T12:25:09Z</time></trkpt><trkpt lat="44.94279992632242" lon="7.813247095600395"><ele>248.0</ele><time>2026-04-10T12:25:11Z</time></trkpt><trkpt lat="44.942865791322404" lon="7.81328490305461"><ele>248.99999999999997</ele><time>2026-04-10T12:25:13Z</time></trkpt><trkpt lat="44.94294675573631" lon="7.813268819882477"><ele>250.0</ele><time>2026-04-10T12:25:15Z</time></trkpt><trkpt lat="44.94302217433979" lon="7.81329150761442"><ele>250.0</ele><time>2026-04-10T12:25:17Z</time></trkpt><trkpt lat="44.94309215090984" lon="7.8133139445649995"><ele>250.0</ele><time>2026-04-10T12:25:19Z</time></trkpt><trkpt lat="44.943149593965984" lon="7.813360177158721"><ele>250.0</ele><time>2026-04-10T12:25:21Z</time></trkpt><trkpt lat="44.94321586468841" lon="7.813377507460966"><ele>250.0</ele><time>2026-04-10T12:25:23Z</time></trkpt><trkpt lat="44.94328393353934" lon="7.8133953079745"><ele>250.0</ele><time>2026-04-10T12:25:25Z</time></trkpt><trkpt lat="44.94335458787638" lon="7.813413784598652"><ele>250.0</ele><time>2026-04-10T12:25:27Z</time></trkpt><trkpt lat="44.943422572115374" lon="7.813432223163391"><ele>250.0</ele><time>2026-04-10T12:25:29Z</time></trkpt><trkpt lat="44.9435106818287" lon="7.813456779038452"><ele>249.83333333333331</ele><time>2026-04-10T12:25:32Z</time></trkpt><trkpt lat="44.943597529153415" lon="7.813480983032938"><ele>249.66666666666666</ele><time>2026-04-10T12:25:35Z</time></trkpt><trkpt lat="44.94368093135493" lon="7.81348703552988"><ele>249.5</ele><time>2026-04-10T12:25:39Z</time></trkpt><trkpt lat="44.943753406425785" lon="7.8134893335421145"><ele>249.33333333333331</ele><time>2026-04-10T12:25:43Z</time></trkpt><trkpt lat="44.943851961448644" lon="7.813504297690823"><ele>249.16666666666666</ele><time>2026-04-10T12:25:46Z</time></trkpt><trkpt lat="44.94391979148591" lon="7.813561468282998"><ele>249.0</ele><time>2026-04-10T12:25:48Z</time></trkpt><trkpt lat="44.943999709017284" lon="7.813598757915384"><ele>248.66666666666666</ele><time>2026-04-10T12:25:50Z</time></trkpt><trkpt lat="44.944076358563144" lon="7.813622227683374"><ele>248.33333333333331</ele><time>2026-04-10T12:25:52Z</time></trkpt><trkpt lat="44.94415246114523" lon="7.813639675586466"><ele>248.0</ele><time>2026-04-10T12:25:54Z</time></trkpt><trkpt lat="44.9442308893962" lon="7.813657656700029"><ele>247.66666666666666</ele><time>2026-04-10T12:25:56Z</time></trkpt><trkpt lat="44.94431362204051" lon="7.813678405941338"><ele>247.33333333333331</ele><time>2026-04-10T12:25:58Z</time></trkpt><trkpt lat="44.944398170487574" lon="7.813701407112595"><ele>247.0</ele><time>2026-04-10T12:26:00Z</time></trkpt><trkpt lat="44.94447945812776" lon="7.813723629510025"><ele>246.99999999999997</ele><time>2026-04-10T12:26:02Z</time></trkpt><trkpt lat="44.94455776515314" lon="7.813745343778343"><ele>247.0</ele><time>2026-04-10T12:26:04Z</time></trkpt><trkpt lat="44.94464079747005" lon="7.813768368354123"><ele>247.0</ele><time>2026-04-10T12:26:06Z</time></trkpt><trkpt lat="44.94471720110268" lon="7.813789554800671"><ele>247.0</ele><time>2026-04-10T12:26:08Z</time></trkpt><trkpt lat="44.94479448768176" lon="7.813810986076706"><ele>246.99999999999997</ele><time>2026-04-10T12:26:10Z</time></trkpt><trkpt lat="44.94488637538472" lon="7.813836466172363"><ele>247.0</ele><time>2026-04-10T12:26:12Z</time></trkpt><trkpt lat="44.94496176939107" lon="7.813842008002904"><ele>246.99999999999997</ele><time>2026-04-10T12:26:14Z</time></trkpt><trkpt lat="44.945045366288774" lon="7.813859919786627"><ele>247.0</ele><time>2026-04-10T12:26:16Z</time></trkpt><trkpt lat="44.94513089940815" lon="7.8138835513064135"><ele>247.0</ele><time>2026-04-10T12:26:18Z</time></trkpt><trkpt lat="44.94521075342682" lon="7.813905475694417"><ele>247.0</ele><time>2026-04-10T12:26:20Z</time></trkpt><trkpt lat="44.94528984547542" lon="7.8139315223084465"><ele>246.99999999999997</ele><time>2026-04-10T12:26:22Z</time></trkpt><trkpt lat="44.94537802258342" lon="7.813958473188768"><ele>247.0</ele><time>2026-04-10T12:26:24Z</time></trkpt><trkpt lat="44.94547413477542" lon="7.813983781411668"><ele>247.2</ele><time>2026-04-10T12:26:26Z</time></trkpt><trkpt lat="44.94555761711448" lon="7.814007745314519"><ele>247.39999999999998</ele><time>2026-04-10T12:26:28Z</time></trkpt><trkpt lat="44.945649233699655" lon="7.814033703066037"><ele>247.60000000000002</ele><time>2026-04-10T12:26:30Z</time></trkpt><trkpt lat="44.945736124966416" lon="7.814052800209313"><ele>247.8</ele><time>2026-04-10T12:26:32Z</time></trkpt><trkpt lat="44.945827657400095" lon="7.814100979934851"><ele>248.0</ele><time>2026-04-10T12:26:34Z</time></trkpt><trkpt lat="44.945920462924164" lon="7.8141272930990375"><ele>248.60000000000002</ele><time>2026-04-10T12:26:36Z</time></trkpt><trkpt lat="44.94600713470154" lon="7.814151867172157"><ele>249.20000000000002</ele><time>2026-04-10T12:26:38Z</time></trkpt><trkpt lat="44.94610748501682" lon="7.8141573940754885"><ele>249.8</ele><time>2026-04-10T12:26:40Z</time></trkpt><trkpt lat="44.94619549960381" lon="7.814188808151178"><ele>250.4</ele><time>2026-04-10T12:26:42Z</time></trkpt><trkpt lat="44.94629264372935" lon="7.814207723971138"><ele>251.0</ele><time>2026-04-10T12:26:44Z</time></trkpt><trkpt lat="44.9463900851712" lon="7.814238737295924"><ele>251.0</ele><time>2026-04-10T12:26:46Z</time></trkpt><trkpt lat="44.94648596730697" lon="7.814265661338555"><ele>251.00000000000003</ele><time>2026-04-10T12:26:48Z</time></trkpt><trkpt lat="44.946574912842046" lon="7.8143090050367086"><ele>251.00000000000003</ele><time>2026-04-10T12:26:50Z</time></trkpt><trkpt lat="44.946671224973215" lon="7.814335879744329"><ele>251.0</ele><time>2026-04-10T12:26:52Z</time></trkpt><trkpt lat="44.94676207817933" lon="7.814333368732341"><ele>251.0</ele><time>2026-04-10T12:26:54Z</time></trkpt><trkpt lat="44.94682897891273" lon="7.814375041193647"><ele>251.0</ele><time>2026-04-10T12:26:56Z</time></trkpt><trkpt lat="44.94690532644752" lon="7.814422866556977"><ele>251.00000000000003</ele><time>2026-04-10T12:26:59Z</time></trkpt><trkpt lat="44.946955094289116" lon="7.814336010109185"><ele>251.00000000000003</ele><time>2026-04-10T12:27:00Z</time></trkpt><trkpt lat="44.94702320886285" lon="7.814241280924856"><ele>251.0</ele><time>2026-04-10T12:27:02Z</time></trkpt><trkpt lat="44.94709957525183" lon="7.814153005442819"><ele>251.0</ele><time>2026-04-10T12:27:04Z</time></trkpt><trkpt lat="44.94718283074078" lon="7.814062920658843"><ele>251.5</ele><time>2026-04-10T12:27:06Z</time></trkpt><trkpt lat="44.947269267000394" lon="7.813973397041344"><ele>252.0</ele><time>2026-04-10T12:27:08Z</time></trkpt><trkpt lat="44.947356399024414" lon="7.813872700019705"><ele>252.5</ele><time>2026-04-10T12:27:10Z</time></trkpt><trkpt lat="44.9474572692939" lon="7.81376238493881"><ele>253.0</ele><time>2026-04-10T12:27:12Z</time></trkpt><trkpt lat="44.94753060292779" lon="7.813654932804964"><ele>253.0</ele><time>2026-04-10T12:27:14Z</time></trkpt><trkpt lat="44.94760573885485" lon="7.813534458539887"><ele>253.0</ele><time>2026-04-10T12:27:16Z</time></trkpt><trkpt lat="44.94768179232997" lon="7.813411926341808"><ele>253.0</ele><time>2026-04-10T12:27:18Z</time></trkpt><trkpt lat="44.947763885332705" lon="7.813295289341116"><ele>253.0</ele><time>2026-04-10T12:27:20Z</time></trkpt><trkpt lat="44.94784045807236" lon="7.813176100173451"><ele>253.25</ele><time>2026-04-10T12:27:22Z</time></trkpt><trkpt lat="44.9479184083006" lon="7.813055096253551"><ele>253.5</ele><time>2026-04-10T12:27:24Z</time></trkpt><trkpt lat="44.94799274879014" lon="7.812921142566257"><ele>253.75</ele><time>2026-04-10T12:27:26Z</time></trkpt><trkpt lat="44.948067200215206" lon="7.812784823344215"><ele>254.0</ele><time>2026-04-10T12:27:28Z</time></trkpt><trkpt lat="44.94814075411173" lon="7.812642320634586"><ele>254.0</ele><time>2026-04-10T12:27:30Z</time></trkpt><trkpt lat="44.948176029374224" lon="7.812566736281981"><ele>254.0</ele><time>2026-04-10T12:27:31Z</time></trkpt><trkpt lat="44.9482128284054" lon="7.812490662159761"><ele>254.0</ele><time>2026-04-10T12:27:32Z</time></trkpt><trkpt lat="44.94824720568094" lon="7.812415048345465"><ele>254.0</ele><time>2026-04-10T12:27:33Z</time></trkpt><trkpt lat="44.94828041317674" lon="7.812335262728068"><ele>254.0</ele><time>2026-04-10T12:27:34Z</time></trkpt><trkpt lat="44.94830997330616" lon="7.812255458771992"><ele>254.0</ele><time>2026-04-10T12:27:35Z</time></trkpt><trkpt lat="44.94834139403918" lon="7.81217348254344"><ele>254.0</ele><time>2026-04-10T12:27:36Z</time></trkpt><trkpt lat="44.94841274693943" lon="7.812027379000744"><ele>254.0</ele><time>2026-04-10T12:27:38Z</time></trkpt><trkpt lat="44.948452227796416" lon="7.811957923039032"><ele>254.0</ele><time>2026-04-10T12:27:39Z</time></trkpt><trkpt lat="44.94852240592788" lon="7.8118080453076075"><ele>254.0</ele><time>2026-04-10T12:27:41Z</time></trkpt><trkpt lat="44.94855843796501" lon="7.811732431677778"><ele>254.0</ele><time>2026-04-10T12:27:42Z</time></trkpt><trkpt lat="44.948596279110966" lon="7.811660209215645"><ele>254.0</ele><time>2026-04-10T12:27:43Z</time></trkpt><trkpt lat="44.948633957375414" lon="7.811588615946927"><ele>254.0</ele><time>2026-04-10T12:27:44Z</time></trkpt><trkpt lat="44.948673614883376" lon="7.8115194211839585"><ele>254.0</ele><time>2026-04-10T12:27:45Z</time></trkpt><trkpt lat="44.94871416723086" lon="7.811451264009734"><ele>253.75</ele><time>2026-04-10T12:27:46Z</time></trkpt><trkpt lat="44.94879804015226" lon="7.811322225210305"><ele>253.5</ele><time>2026-04-10T12:27:48Z</time></trkpt><trkpt lat="44.948891512238305" lon="7.811207981967735"><ele>253.25</ele><time>2026-04-10T12:27:50Z</time></trkpt><trkpt lat="44.94898252944055" lon="7.811117628846998"><ele>253.0</ele><time>2026-04-10T12:27:52Z</time></trkpt><trkpt lat="44.94908605277693" lon="7.8110446563901865"><ele>252.8</ele><time>2026-04-10T12:27:54Z</time></trkpt><trkpt lat="44.94918273585169" lon="7.810989854398265"><ele>252.60000000000002</ele><time>2026-04-10T12:27:56Z</time></trkpt><trkpt lat="44.9492869016062" lon="7.810936184223512"><ele>252.39999999999998</ele><time>2026-04-10T12:27:58Z</time></trkpt><trkpt lat="44.94939626671406" lon="7.810895345630121"><ele>252.2</ele><time>2026-04-10T12:28:00Z</time></trkpt><trkpt lat="44.949508169063236" lon="7.8108503496727835"><ele>252.0</ele><time>2026-04-10T12:28:02Z</time></trkpt><trkpt lat="44.94962389647611" lon="7.810802249573817"><ele>252.25</ele><time>2026-04-10T12:28:04Z</time></trkpt><trkpt lat="44.94974281636485" lon="7.810752839567523"><ele>252.5</ele><time>2026-04-10T12:28:06Z</time></trkpt><trkpt lat="44.94986074769997" lon="7.8107013925519695"><ele>252.75</ele><time>2026-04-10T12:28:08Z</time></trkpt><trkpt lat="44.94997393408556" lon="7.8106513684642245"><ele>253.0</ele><time>2026-04-10T12:28:10Z</time></trkpt><trkpt lat="44.95008390073394" lon="7.810614558437139"><ele>253.0</ele><time>2026-04-10T12:28:12Z</time></trkpt><trkpt lat="44.95018637223282" lon="7.810598395390177"><ele>253.0</ele><time>2026-04-10T12:28:14Z</time></trkpt><trkpt lat="44.95028370380802" lon="7.810596454509589"><ele>253.0</ele><time>2026-04-10T12:28:16Z</time></trkpt><trkpt lat="44.95036674549819" lon="7.810591862971894"><ele>253.0</ele><time>2026-04-10T12:28:18Z</time></trkpt><trkpt lat="44.95045111892206" lon="7.810565574179238"><ele>253.0</ele><time>2026-04-10T12:28:20Z</time></trkpt><trkpt lat="44.95054615359314" lon="7.81044230441444"><ele>253.0</ele><time>2026-04-10T12:28:22Z</time></trkpt><trkpt lat="44.95061868450508" lon="7.810315716102036"><ele>253.0</ele><time>2026-04-10T12:28:24Z</time></trkpt><trkpt lat="44.950715394813805" lon="7.8102191595788435"><ele>253.0</ele><time>2026-04-10T12:28:26Z</time></trkpt><trkpt lat="44.95075280802169" lon="7.810142063732507"><ele>253.0</ele><time>2026-04-10T12:28:27Z</time></trkpt><trkpt lat="44.95085455857694" lon="7.8100389517383775"><ele>253.0</ele><time>2026-04-10T12:28:29Z</time></trkpt><trkpt lat="44.95093394395042" lon="7.809906014377025"><ele>252.5</ele><time>2026-04-10T12:28:31Z</time></trkpt><trkpt lat="44.95102117136558" lon="7.809795290454425"><ele>252.0</ele><time>2026-04-10T12:28:33Z</time></trkpt><trkpt lat="44.951113159797224" lon="7.809681817634274"><ele>251.5</ele><time>2026-04-10T12:28:35Z</time></trkpt><trkpt lat="44.95120609668802" lon="7.809562662616204"><ele>251.0</ele><time>2026-04-10T12:28:37Z</time></trkpt><trkpt lat="44.951301566395045" lon="7.809440417987984"><ele>251.0</ele><time>2026-04-10T12:28:39Z</time></trkpt><trkpt lat="44.9513701650585" lon="7.809326554279634"><ele>251.0</ele><time>2026-04-10T12:28:41Z</time></trkpt><trkpt lat="44.951453816233716" lon="7.809214802097758"><ele>251.0</ele><time>2026-04-10T12:28:43Z</time></trkpt><trkpt lat="44.95154687969906" lon="7.80910445819453"><ele>251.0</ele><time>2026-04-10T12:28:45Z</time></trkpt><trkpt lat="44.95163093428659" lon="7.8089864642892435"><ele>252.5</ele><time>2026-04-10T12:28:47Z</time></trkpt><trkpt lat="44.9517092048618" lon="7.808868771369678"><ele>254.0</ele><time>2026-04-10T12:28:49Z</time></trkpt><trkpt lat="44.95179154289664" lon="7.80875493129988"><ele>255.5</ele><time>2026-04-10T12:28:51Z</time></trkpt><trkpt lat="44.95187161112651" lon="7.808635253277002"><ele>257.0</ele><time>2026-04-10T12:28:53Z</time></trkpt><trkpt lat="44.95195432872862" lon="7.808515603304777"><ele>257.33333333333337</ele><time>2026-04-10T12:28:55Z</time></trkpt><trkpt lat="44.95199924907736" lon="7.808453060207453"><ele>257.6666666666667</ele><time>2026-04-10T12:28:56Z</time></trkpt><trkpt lat="44.95208411546656" lon="7.80832398834989"><ele>258.0</ele><time>2026-04-10T12:28:58Z</time></trkpt><trkpt lat="44.952127310430235" lon="7.808256862831806"><ele>258.3333333333333</ele><time>2026-04-10T12:28:59Z</time></trkpt><trkpt lat="44.952175016301226" lon="7.808197621503128"><ele>258.66666666666663</ele><time>2026-04-10T12:29:00Z</time></trkpt><trkpt lat="44.95226131451965" lon="7.808063290021948"><ele>259.0</ele><time>2026-04-10T12:29:02Z</time></trkpt><trkpt lat="44.95230646841241" lon="7.8079919332586"><ele>259.0</ele><time>2026-04-10T12:29:03Z</time></trkpt><trkpt lat="44.952349477826964" lon="7.807918535855362"><ele>259.0</ele><time>2026-04-10T12:29:04Z</time></trkpt><trkpt lat="44.952393460732615" lon="7.807845168349265"><ele>259.0</ele><time>2026-04-10T12:29:05Z</time></trkpt><trkpt lat="44.95243826268877" lon="7.807775642351921"><ele>259.0</ele><time>2026-04-10T12:29:06Z</time></trkpt><trkpt lat="44.95248070065053" lon="7.807701551195079"><ele>259.0</ele><time>2026-04-10T12:29:07Z</time></trkpt><trkpt lat="44.95252738453887" lon="7.8076275229704315"><ele>259.0</ele><time>2026-04-10T12:29:08Z</time></trkpt><trkpt lat="44.95257354392972" lon="7.80755281524369"><ele>259.0</ele><time>2026-04-10T12:29:09Z</time></trkpt><trkpt lat="44.952621601606836" lon="7.8074776887930195"><ele>258.42857142857144</ele><time>2026-04-10T12:29:10Z</time></trkpt><trkpt lat="44.95266795969631" lon="7.807402557106732"><ele>257.8571428571429</ele><time>2026-04-10T12:29:11Z</time></trkpt><trkpt lat="44.95271271618388" lon="7.807325627324049"><ele>257.2857142857143</ele><time>2026-04-10T12:29:12Z</time></trkpt><trkpt lat="44.95275873002868" lon="7.807249513894563"><ele>256.7142857142857</ele><time>2026-04-10T12:29:13Z</time></trkpt><trkpt lat="44.952802587921205" lon="7.807172372671662"><ele>256.14285714285717</ele><time>2026-04-10T12:29:14Z</time></trkpt><trkpt lat="44.95284832116675" lon="7.807096391468318"><ele>255.57142857142858</ele><time>2026-04-10T12:29:15Z</time></trkpt><trkpt lat="44.952893666315546" lon="7.807021958863375"><ele>255.0</ele><time>2026-04-10T12:29:16Z</time></trkpt><trkpt lat="44.952940986688226" lon="7.806946589196694"><ele>255.0</ele><time>2026-04-10T12:29:17Z</time></trkpt><trkpt lat="44.95298521380332" lon="7.806865946959156"><ele>255.00000000000003</ele><time>2026-04-10T12:29:18Z</time></trkpt><trkpt lat="44.95303276601084" lon="7.806793071996832"><ele>255.0</ele><time>2026-04-10T12:29:19Z</time></trkpt><trkpt lat="44.95307918083771" lon="7.806717279753268"><ele>255.0</ele><time>2026-04-10T12:29:20Z</time></trkpt><trkpt lat="44.95312426710068" lon="7.806638082542112"><ele>255.00000000000003</ele><time>2026-04-10T12:29:21Z</time></trkpt><trkpt lat="44.953168207584824" lon="7.806562219145648"><ele>255.0</ele><time>2026-04-10T12:29:22Z</time></trkpt><trkpt lat="44.95320855439911" lon="7.8064925070404145"><ele>255.0</ele><time>2026-04-10T12:29:23Z</time></trkpt><trkpt lat="44.95324822549695" lon="7.806423381323464"><ele>255.0</ele><time>2026-04-10T12:29:24Z</time></trkpt><trkpt lat="44.953319420780524" lon="7.806298494675192"><ele>255.0</ele><time>2026-04-10T12:29:26Z</time></trkpt><trkpt lat="44.95336690192445" lon="7.806197125529108"><ele>255.0</ele><time>2026-04-10T12:29:28Z</time></trkpt><trkpt lat="44.95342852808905" lon="7.806087675415989"><ele>255.0</ele><time>2026-04-10T12:29:30Z</time></trkpt><trkpt lat="44.953487888603895" lon="7.80596284646349"><ele>255.0</ele><time>2026-04-10T12:29:32Z</time></trkpt><trkpt lat="44.95355092047463" lon="7.805839555297781"><ele>255.2</ele><time>2026-04-10T12:29:34Z</time></trkpt><trkpt lat="44.953610346457424" lon="7.805702241640786"><ele>255.4</ele><time>2026-04-10T12:29:36Z</time></trkpt><trkpt lat="44.953616159384566" lon="7.805551791184365"><ele>255.60000000000002</ele><time>2026-04-10T12:29:38Z</time></trkpt><trkpt lat="44.95364795780228" lon="7.805405013767382"><ele>255.8</ele><time>2026-04-10T12:29:40Z</time></trkpt><trkpt lat="44.953677510103596" lon="7.805262602191501"><ele>256.0</ele><time>2026-04-10T12:29:42Z</time></trkpt><trkpt lat="44.953689148719896" lon="7.80511365611417"><ele>256.0</ele><time>2026-04-10T12:29:44Z</time></trkpt><trkpt lat="44.9536945792806" lon="7.804968200488411"><ele>256.0</ele><time>2026-04-10T12:29:46Z</time></trkpt><trkpt lat="44.953696360209506" lon="7.804832274539543"><ele>256.0</ele><time>2026-04-10T12:29:48Z</time></trkpt><trkpt lat="44.95369127759833" lon="7.804692794518847"><ele>256.0</ele><time>2026-04-10T12:29:50Z</time></trkpt><trkpt lat="44.95369112286571" lon="7.804575022513302"><ele>256.0</ele><time>2026-04-10T12:29:52Z</time></trkpt><trkpt lat="44.95368297438738" lon="7.804470022358049"><ele>256.0</ele><time>2026-04-10T12:29:54Z</time></trkpt><trkpt lat="44.953690272702325" lon="7.8043558194913345"><ele>256.0</ele><time>2026-04-10T12:29:56Z</time></trkpt><trkpt lat="44.95368973220491" lon="7.8042322920405445"><ele>256.0</ele><time>2026-04-10T12:29:58Z</time></trkpt><trkpt lat="44.95369323006834" lon="7.804094127578926"><ele>256.0</ele><time>2026-04-10T12:30:00Z</time></trkpt><trkpt lat="44.953684227920405" lon="7.803942483351112"><ele>256.0</ele><time>2026-04-10T12:30:02Z</time></trkpt><trkpt lat="44.9537057561416" lon="7.8038025145101395"><ele>255.8</ele><time>2026-04-10T12:30:04Z</time></trkpt><trkpt lat="44.95370585560453" lon="7.803652280070415"><ele>255.60000000000002</ele><time>2026-04-10T12:30:06Z</time></trkpt><trkpt lat="44.9537136137703" lon="7.803505166452888"><ele>255.4</ele><time>2026-04-10T12:30:08Z</time></trkpt><trkpt lat="44.95371711351872" lon="7.803355981919013"><ele>255.2</ele><time>2026-04-10T12:30:10Z</time></trkpt><trkpt lat="44.953747928523846" lon="7.803216391962216"><ele>255.0</ele><time>2026-04-10T12:30:12Z</time></trkpt><trkpt lat="44.95377077387921" lon="7.8030756572479145"><ele>255.0</ele><time>2026-04-10T12:30:14Z</time></trkpt><trkpt lat="44.95380648080161" lon="7.8029532860570585"><ele>255.0</ele><time>2026-04-10T12:30:16Z</time></trkpt><trkpt lat="44.9538447693348" lon="7.802830091215891"><ele>255.0</ele><time>2026-04-10T12:30:18Z</time></trkpt><trkpt lat="44.95388478660318" lon="7.802705239375712"><ele>255.0</ele><time>2026-04-10T12:30:20Z</time></trkpt><trkpt lat="44.95392693902692" lon="7.8025737261459165"><ele>255.0</ele><time>2026-04-10T12:30:22Z</time></trkpt><trkpt lat="44.953968138899505" lon="7.802445184739189"><ele>255.0</ele><time>2026-04-10T12:30:24Z</time></trkpt><trkpt lat="44.9539917353768" lon="7.80231131991442"><ele>255.0</ele><time>2026-04-10T12:30:26Z</time></trkpt><trkpt lat="44.95403855665536" lon="7.80217154816849"><ele>255.0</ele><time>2026-04-10T12:30:28Z</time></trkpt><trkpt lat="44.954096884224484" lon="7.802047249267142"><ele>255.0</ele><time>2026-04-10T12:30:30Z</time></trkpt><trkpt lat="44.95413888530073" lon="7.801905204782134"><ele>255.0</ele><time>2026-04-10T12:30:32Z</time></trkpt><trkpt lat="44.954196250282" lon="7.801768559859954"><ele>255.2</ele><time>2026-04-10T12:30:34Z</time></trkpt><trkpt lat="44.95425584141163" lon="7.80163771654195"><ele>255.4</ele><time>2026-04-10T12:30:36Z</time></trkpt><trkpt lat="44.95431383866656" lon="7.801500383381704"><ele>255.60000000000002</ele><time>2026-04-10T12:30:38Z</time></trkpt><trkpt lat="44.95437727136915" lon="7.801365772130184"><ele>255.8</ele><time>2026-04-10T12:30:40Z</time></trkpt><trkpt lat="44.95444119391229" lon="7.801239104137169"><ele>256.0</ele><time>2026-04-10T12:30:42Z</time></trkpt><trkpt lat="44.954501717133496" lon="7.801101944107508"><ele>255.25</ele><time>2026-04-10T12:30:44Z</time></trkpt><trkpt lat="44.95456695493453" lon="7.800970006422688"><ele>254.5</ele><time>2026-04-10T12:30:46Z</time></trkpt><trkpt lat="44.954629477830544" lon="7.8008368392740275"><ele>253.75</ele><time>2026-04-10T12:30:48Z</time></trkpt><trkpt lat="44.95470359325665" lon="7.800705631189139"><ele>253.0</ele><time>2026-04-10T12:30:50Z</time></trkpt><trkpt lat="44.9547739028092" lon="7.800577099339822"><ele>253.0</ele><time>2026-04-10T12:30:52Z</time></trkpt><trkpt lat="44.95483550313728" lon="7.8004568863227775"><ele>253.0</ele><time>2026-04-10T12:30:54Z</time></trkpt><trkpt lat="44.95489304335086" lon="7.800332814329686"><ele>253.0</ele><time>2026-04-10T12:30:56Z</time></trkpt><trkpt lat="44.95494214726916" lon="7.80020506677439"><ele>253.0</ele><time>2026-04-10T12:30:58Z</time></trkpt><trkpt lat="44.954995374453404" lon="7.800064471513123"><ele>253.0</ele><time>2026-04-10T12:31:00Z</time></trkpt><trkpt lat="44.9550401861696" lon="7.799924746130633"><ele>253.2</ele><time>2026-04-10T12:31:02Z</time></trkpt><trkpt lat="44.95508653265874" lon="7.799782300722593"><ele>253.4</ele><time>2026-04-10T12:31:04Z</time></trkpt><trkpt lat="44.95512867626914" lon="7.799637882806874"><ele>253.59999999999997</ele><time>2026-04-10T12:31:06Z</time></trkpt><trkpt lat="44.955168579926664" lon="7.799494918663488"><ele>253.79999999999998</ele><time>2026-04-10T12:31:08Z</time></trkpt><trkpt lat="44.95520241818092" lon="7.799394518239668"><ele>254.0</ele><time>2026-04-10T12:31:10Z</time></trkpt><trkpt lat="44.955302038036734" lon="7.799449855795174"><ele>254.0</ele><time>2026-04-10T12:31:14Z</time></trkpt><trkpt lat="44.95537710388781" lon="7.799484374717728"><ele>253.99999999999997</ele><time>2026-04-10T12:31:16Z</time></trkpt><trkpt lat="44.95545819474568" lon="7.799541244767044"><ele>253.99999999999997</ele><time>2026-04-10T12:31:18Z</time></trkpt><trkpt lat="44.955546756456265" lon="7.799587458482134"><ele>254.0</ele><time>2026-04-10T12:31:20Z</time></trkpt><trkpt lat="44.95563742274586" lon="7.799647182761602"><ele>254.0</ele><time>2026-04-10T12:31:22Z</time></trkpt><trkpt lat="44.95572878972952" lon="7.799707981056049"><ele>254.0</ele><time>2026-04-10T12:31:24Z</time></trkpt><trkpt lat="44.955820206362915" lon="7.799780466440309"><ele>253.99999999999997</ele><time>2026-04-10T12:31:26Z</time></trkpt><trkpt lat="44.95591397128457" lon="7.79983585477633"><ele>253.99999999999997</ele><time>2026-04-10T12:31:28Z</time></trkpt><trkpt lat="44.956002405741685" lon="7.7999038229459705"><ele>254.0</ele><time>2026-04-10T12:31:30Z</time></trkpt><trkpt lat="44.9560945199939" lon="7.7999712108044434"><ele>254.0</ele><time>2026-04-10T12:31:32Z</time></trkpt><trkpt lat="44.956186197615786" lon="7.800027820639604"><ele>254.0</ele><time>2026-04-10T12:31:34Z</time></trkpt><trkpt lat="44.95626712188762" lon="7.800098210810914"><ele>253.99999999999997</ele><time>2026-04-10T12:31:36Z</time></trkpt><trkpt lat="44.956345617882164" lon="7.8001536792501565"><ele>253.99999999999997</ele><time>2026-04-10T12:31:38Z</time></trkpt><trkpt lat="44.95643974422061" lon="7.800194646324686"><ele>254.0</ele><time>2026-04-10T12:31:40Z</time></trkpt><trkpt lat="44.95652247681617" lon="7.8002504723657"><ele>254.0</ele><time>2026-04-10T12:31:42Z</time></trkpt><trkpt lat="44.95659808985792" lon="7.800325219563587"><ele>254.2</ele><time>2026-04-10T12:31:44Z</time></trkpt><trkpt lat="44.95668636048023" lon="7.8003508050134425"><ele>254.39999999999998</ele><time>2026-04-10T12:31:46Z</time></trkpt><trkpt lat="44.95677506688144" lon="7.800408810337603"><ele>254.6</ele><time>2026-04-10T12:31:48Z</time></trkpt><trkpt lat="44.95687030856054" lon="7.800443575893492"><ele>254.8</ele><time>2026-04-10T12:31:50Z</time></trkpt><trkpt lat="44.95696462002765" lon="7.800452065176471"><ele>255.0</ele><time>2026-04-10T12:31:52Z</time></trkpt><trkpt lat="44.957061218989615" lon="7.800488514518101"><ele>255.2</ele><time>2026-04-10T12:31:54Z</time></trkpt><trkpt lat="44.957153611606266" lon="7.8005333025668815"><ele>255.4</ele><time>2026-04-10T12:31:56Z</time></trkpt><trkpt lat="44.95724753240794" lon="7.800571594631915"><ele>255.60000000000002</ele><time>2026-04-10T12:31:58Z</time></trkpt><trkpt lat="44.95734223969184" lon="7.800601096029911"><ele>255.8</ele><time>2026-04-10T12:32:00Z</time></trkpt><trkpt lat="44.957427968695" lon="7.800637820474353"><ele>256.0</ele><time>2026-04-10T12:32:02Z</time></trkpt><trkpt lat="44.957511180689494" lon="7.800657275743809"><ele>256.8333333333333</ele><time>2026-04-10T12:32:04Z</time></trkpt><trkpt lat="44.95759314998402" lon="7.800689531155031"><ele>257.66666666666663</ele><time>2026-04-10T12:32:06Z</time></trkpt><trkpt lat="44.95767162793791" lon="7.800718286328023"><ele>258.5</ele><time>2026-04-10T12:32:08Z</time></trkpt><trkpt lat="44.9577494976024" lon="7.80073672711942"><ele>259.3333333333333</ele><time>2026-04-10T12:32:10Z</time></trkpt><trkpt lat="44.957826733373324" lon="7.8007748876513805"><ele>260.1666666666667</ele><time>2026-04-10T12:32:12Z</time></trkpt><trkpt lat="44.95790083642103" lon="7.800790851036861"><ele>261.0</ele><time>2026-04-10T12:32:14Z</time></trkpt><trkpt lat="44.957966914774104" lon="7.800812360383568"><ele>261.0</ele><time>2026-04-10T12:32:16Z</time></trkpt><trkpt lat="44.95804365407907" lon="7.80082912797429"><ele>261.0</ele><time>2026-04-10T12:32:18Z</time></trkpt><trkpt lat="44.958115337975144" lon="7.800853397869347"><ele>261.0</ele><time>2026-04-10T12:32:20Z</time></trkpt><trkpt lat="44.958183975356015" lon="7.800898859823128"><ele>261.0</ele><time>2026-04-10T12:32:22Z</time></trkpt><trkpt lat="44.958253952943856" lon="7.80092166129388"><ele>261.0</ele><time>2026-04-10T12:32:24Z</time></trkpt><trkpt lat="44.958322027975974" lon="7.800941452120827"><ele>261.0</ele><time>2026-04-10T12:32:26Z</time></trkpt><trkpt lat="44.95839260733666" lon="7.800959491809379"><ele>261.0</ele><time>2026-04-10T12:32:28Z</time></trkpt><trkpt lat="44.95845941119325" lon="7.800973985226681"><ele>260.8333333333333</ele><time>2026-04-10T12:32:30Z</time></trkpt><trkpt lat="44.958552873642574" lon="7.800994262355277"><ele>260.6666666666667</ele><time>2026-04-10T12:32:33Z</time></trkpt><trkpt lat="44.958629102334605" lon="7.800990053379838"><ele>260.5</ele><time>2026-04-10T12:32:35Z</time></trkpt><trkpt lat="44.95869705154657" lon="7.80100303024966"><ele>260.33333333333337</ele><time>2026-04-10T12:32:37Z</time></trkpt><trkpt lat="44.958763019171414" lon="7.801022363198989"><ele>260.1666666666667</ele><time>2026-04-10T12:32:39Z</time></trkpt><trkpt lat="44.95883402819221" lon="7.801027088138529"><ele>260.0</ele><time>2026-04-10T12:32:41Z</time></trkpt><trkpt lat="44.95891731972493" lon="7.801044709763785"><ele>259.83333333333337</ele><time>2026-04-10T12:32:44Z</time></trkpt><trkpt lat="44.95899049696344" lon="7.801051530199556"><ele>259.6666666666667</ele><time>2026-04-10T12:32:46Z</time></trkpt><trkpt lat="44.95906169300275" lon="7.801056511776193"><ele>259.5</ele><time>2026-04-10T12:32:48Z</time></trkpt><trkpt lat="44.95914335414945" lon="7.801063903922306"><ele>259.3333333333333</ele><time>2026-04-10T12:32:50Z</time></trkpt><trkpt lat="44.95921815541706" lon="7.801071746342444"><ele>259.16666666666663</ele><time>2026-04-10T12:32:52Z</time></trkpt><trkpt lat="44.959298832824885" lon="7.80109740941828"><ele>259.0</ele><time>2026-04-10T12:32:54Z</time></trkpt><trkpt lat="44.95937805039706" lon="7.801103761519439"><ele>259.0</ele><time>2026-04-10T12:32:56Z</time></trkpt><trkpt lat="44.95946038537599" lon="7.801111578632306"><ele>259.0</ele><time>2026-04-10T12:32:58Z</time></trkpt><trkpt lat="44.959550720067746" lon="7.801122696501015"><ele>259.0</ele><time>2026-04-10T12:33:00Z</time></trkpt><trkpt lat="44.95964437656274" lon="7.801142759097733"><ele>259.0</ele><time>2026-04-10T12:33:02Z</time></trkpt><trkpt lat="44.95974738564871" lon="7.801173153947748"><ele>259.0</ele><time>2026-04-10T12:33:04Z</time></trkpt><trkpt lat="44.9598606730639" lon="7.801207624870766"><ele>259.0</ele><time>2026-04-10T12:33:06Z</time></trkpt><trkpt lat="44.95997785062168" lon="7.801243279481089"><ele>259.0</ele><time>2026-04-10T12:33:08Z</time></trkpt><trkpt lat="44.96004137895434" lon="7.801262472592161"><ele>259.0</ele><time>2026-04-10T12:33:09Z</time></trkpt><trkpt lat="44.960112625538684" lon="7.801281249569547"><ele>259.0</ele><time>2026-04-10T12:33:10Z</time></trkpt><trkpt lat="44.960184700647616" lon="7.801300244875002"><ele>259.0</ele><time>2026-04-10T12:33:11Z</time></trkpt><trkpt lat="44.96025418368381" lon="7.801318557050442"><ele>259.0</ele><time>2026-04-10T12:33:12Z</time></trkpt><trkpt lat="44.96032968540253" lon="7.801312624311083"><ele>259.0</ele><time>2026-04-10T12:33:13Z</time></trkpt><trkpt lat="44.96040538644637" lon="7.801323018933334"><ele>259.0</ele><time>2026-04-10T12:33:14Z</time></trkpt><trkpt lat="44.96048169584645" lon="7.801333857068413"><ele>259.0</ele><time>2026-04-10T12:33:15Z</time></trkpt><trkpt lat="44.9605549521033" lon="7.801340985230429"><ele>259.0</ele><time>2026-04-10T12:33:16Z</time></trkpt><trkpt lat="44.960627917834806" lon="7.801361830671366"><ele>259.0</ele><time>2026-04-10T12:33:17Z</time></trkpt><trkpt lat="44.96069984965772" lon="7.801361566600308"><ele>259.0</ele><time>2026-04-10T12:33:18Z</time></trkpt><trkpt lat="44.96077814512332" lon="7.80137723847146"><ele>259.0</ele><time>2026-04-10T12:33:19Z</time></trkpt><trkpt lat="44.96086363515561" lon="7.801363950757107"><ele>259.0</ele><time>2026-04-10T12:33:20Z</time></trkpt><trkpt lat="44.960935041373574" lon="7.801364951551061"><ele>259.0</ele><time>2026-04-10T12:33:21Z</time></trkpt><trkpt lat="44.961005453797576" lon="7.801359890246097"><ele>259.0</ele><time>2026-04-10T12:33:22Z</time></trkpt><trkpt lat="44.961075946601774" lon="7.801366443039185"><ele>259.0</ele><time>2026-04-10T12:33:23Z</time></trkpt><trkpt lat="44.9611484640129" lon="7.801362761070167"><ele>259.0</ele><time>2026-04-10T12:33:24Z</time></trkpt><trkpt lat="44.961222313078366" lon="7.801376645021392"><ele>259.0</ele><time>2026-04-10T12:33:25Z</time></trkpt><trkpt lat="44.96129822190226" lon="7.801397738931793"><ele>258.66666666666663</ele><time>2026-04-10T12:33:26Z</time></trkpt><trkpt lat="44.961368351821754" lon="7.801436142140158"><ele>258.3333333333333</ele><time>2026-04-10T12:33:27Z</time></trkpt><trkpt lat="44.961438945253036" lon="7.801467578843303"><ele>258.0</ele><time>2026-04-10T12:33:28Z</time></trkpt><trkpt lat="44.96151117303194" lon="7.801497853631558"><ele>257.6666666666667</ele><time>2026-04-10T12:33:29Z</time></trkpt><trkpt lat="44.961582481580926" lon="7.801527039309746"><ele>257.33333333333337</ele><time>2026-04-10T12:33:30Z</time></trkpt><trkpt lat="44.96165911464462" lon="7.8015351070842165"><ele>257.0</ele><time>2026-04-10T12:33:31Z</time></trkpt><trkpt lat="44.96172869673151" lon="7.801573305116965"><ele>257.0</ele><time>2026-04-10T12:33:32Z</time></trkpt><trkpt lat="44.96180017260701" lon="7.80160241420275"><ele>257.0</ele><time>2026-04-10T12:33:33Z</time></trkpt><trkpt lat="44.96187037528936" lon="7.801625546668644"><ele>257.0</ele><time>2026-04-10T12:33:34Z</time></trkpt><trkpt lat="44.96193930259265" lon="7.801659889326605"><ele>257.0</ele><time>2026-04-10T12:33:35Z</time></trkpt><trkpt lat="44.962008005781875" lon="7.801683663683498"><ele>257.0</ele><time>2026-04-10T12:33:36Z</time></trkpt><trkpt lat="44.96207756571486" lon="7.80171119252499"><ele>257.0</ele><time>2026-04-10T12:33:37Z</time></trkpt><trkpt lat="44.96214446623359" lon="7.801740990975292"><ele>257.0</ele><time>2026-04-10T12:33:38Z</time></trkpt><trkpt lat="44.96220989526093" lon="7.80177312587202"><ele>257.0</ele><time>2026-04-10T12:33:39Z</time></trkpt><trkpt lat="44.96227307202925" lon="7.8018147131252435"><ele>257.0</ele><time>2026-04-10T12:33:40Z</time></trkpt><trkpt lat="44.96233433903402" lon="7.801862138510018"><ele>257.0</ele><time>2026-04-10T12:33:41Z</time></trkpt><trkpt lat="44.96240211892176" lon="7.80188362202895"><ele>257.0</ele><time>2026-04-10T12:33:42Z</time></trkpt><trkpt lat="44.962462455514085" lon="7.801916556187273"><ele>257.0</ele><time>2026-04-10T12:33:43Z</time></trkpt><trkpt lat="44.96252037237784" lon="7.801962603490541"><ele>257.0</ele><time>2026-04-10T12:33:44Z</time></trkpt><trkpt lat="44.96258123068939" lon="7.8019902389654385"><ele>257.0</ele><time>2026-04-10T12:33:45Z</time></trkpt><trkpt lat="44.96264361297998" lon="7.802028320266258"><ele>257.1428571428571</ele><time>2026-04-10T12:33:46Z</time></trkpt><trkpt lat="44.962708852119476" lon="7.802057640285285"><ele>257.2857142857143</ele><time>2026-04-10T12:33:47Z</time></trkpt><trkpt lat="44.96277506802258" lon="7.8020880611791945"><ele>257.42857142857144</ele><time>2026-04-10T12:33:48Z</time></trkpt><trkpt lat="44.96284122905614" lon="7.8021160369277744"><ele>257.57142857142856</ele><time>2026-04-10T12:33:49Z</time></trkpt><trkpt lat="44.96290841346667" lon="7.802148373383009"><ele>257.7142857142857</ele><time>2026-04-10T12:33:50Z</time></trkpt><trkpt lat="44.96297213085561" lon="7.802186775982969"><ele>257.85714285714283</ele><time>2026-04-10T12:33:51Z</time></trkpt><trkpt lat="44.963036756421786" lon="7.8022072813236925"><ele>258.0</ele><time>2026-04-10T12:33:52Z</time></trkpt><trkpt lat="44.96309556990843" lon="7.802248047454208"><ele>258.0</ele><time>2026-04-10T12:33:53Z</time></trkpt><trkpt lat="44.96315673225509" lon="7.802270927507562"><ele>258.0</ele><time>2026-04-10T12:33:54Z</time></trkpt><trkpt lat="44.963277513440204" lon="7.802334255813452"><ele>258.0</ele><time>2026-04-10T12:33:56Z</time></trkpt><trkpt lat="44.9633407062251" lon="7.802357857569066"><ele>258.0</ele><time>2026-04-10T12:33:57Z</time></trkpt><trkpt lat="44.96339984430926" lon="7.802404400830998"><ele>258.0</ele><time>2026-04-10T12:33:58Z</time></trkpt><trkpt lat="44.96346407464903" lon="7.802432901495934"><ele>258.0</ele><time>2026-04-10T12:33:59Z</time></trkpt><trkpt lat="44.96353499176085" lon="7.802464369170191"><ele>258.2857142857143</ele><time>2026-04-10T12:34:00Z</time></trkpt><trkpt lat="44.963595750865224" lon="7.802491329523487"><ele>258.57142857142856</ele><time>2026-04-10T12:34:01Z</time></trkpt><trkpt lat="44.96366423161814" lon="7.802521163307482"><ele>258.8571428571429</ele><time>2026-04-10T12:34:02Z</time></trkpt><trkpt lat="44.96372787962319" lon="7.8025454101611365"><ele>259.1428571428571</ele><time>2026-04-10T12:34:03Z</time></trkpt><trkpt lat="44.963792913942754" lon="7.802566397298769"><ele>259.42857142857144</ele><time>2026-04-10T12:34:04Z</time></trkpt><trkpt lat="44.9638571873313" lon="7.802586136941773"><ele>259.7142857142857</ele><time>2026-04-10T12:34:05Z</time></trkpt><trkpt lat="44.96392401465395" lon="7.802588256459544"><ele>260.0</ele><time>2026-04-10T12:34:06Z</time></trkpt><trkpt lat="44.96397708199898" lon="7.8026418154593555"><ele>259.0</ele><time>2026-04-10T12:34:07Z</time></trkpt><trkpt lat="44.96410145141964" lon="7.802702685921044"><ele>258.0</ele><time>2026-04-10T12:34:09Z</time></trkpt><trkpt lat="44.96416635970959" lon="7.8027308713725505"><ele>257.0</ele><time>2026-04-10T12:34:10Z</time></trkpt><trkpt lat="44.964229972442496" lon="7.802752069469166"><ele>256.0</ele><time>2026-04-10T12:34:11Z</time></trkpt><trkpt lat="44.96429188483221" lon="7.8027688633605505"><ele>255.00000000000003</ele><time>2026-04-10T12:34:12Z</time></trkpt><trkpt lat="44.96440402158656" lon="7.802767787344551"><ele>254.0</ele><time>2026-04-10T12:34:14Z</time></trkpt><trkpt lat="44.964465178055995" lon="7.8027411791221875"><ele>253.83333333333334</ele><time>2026-04-10T12:34:15Z</time></trkpt><trkpt lat="44.96451321600945" lon="7.802666917870395"><ele>253.66666666666669</ele><time>2026-04-10T12:34:16Z</time></trkpt><trkpt lat="44.96457149899489" lon="7.802620022451134"><ele>253.5</ele><time>2026-04-10T12:34:17Z</time></trkpt><trkpt lat="44.964638178494084" lon="7.802594674537026"><ele>253.33333333333331</ele><time>2026-04-10T12:34:18Z</time></trkpt><trkpt lat="44.964738401726656" lon="7.802496496902558"><ele>253.16666666666666</ele><time>2026-04-10T12:34:20Z</time></trkpt><trkpt lat="44.96479032483049" lon="7.802440028625781"><ele>253.0</ele><time>2026-04-10T12:34:21Z</time></trkpt><trkpt lat="44.96484691756522" lon="7.802395727646776"><ele>253.2</ele><time>2026-04-10T12:34:22Z</time></trkpt><trkpt lat="44.964958087071636" lon="7.802317734489303"><ele>253.4</ele><time>2026-04-10T12:34:24Z</time></trkpt><trkpt lat="44.965020590797955" lon="7.8023043395539515"><ele>253.59999999999997</ele><time>2026-04-10T12:34:25Z</time></trkpt><trkpt lat="44.965139725801244" lon="7.802253557496084"><ele>253.79999999999998</ele><time>2026-04-10T12:34:27Z</time></trkpt><trkpt lat="44.965201242736015" lon="7.8022187723048315"><ele>254.0</ele><time>2026-04-10T12:34:28Z</time></trkpt><trkpt lat="44.96532572541467" lon="7.802218603255597"><ele>254.0</ele><time>2026-04-10T12:34:30Z</time></trkpt><trkpt lat="44.96538882735994" lon="7.802218852199078"><ele>253.99999999999997</ele><time>2026-04-10T12:34:31Z</time></trkpt><trkpt lat="44.96549862031173" lon="7.802231004486719"><ele>253.99999999999997</ele><time>2026-04-10T12:34:33Z</time></trkpt><trkpt lat="44.96560875194636" lon="7.802213905032339"><ele>254.0</ele><time>2026-04-10T12:34:35Z</time></trkpt><trkpt lat="44.965642627428934" lon="7.802127852547734"><ele>254.0</ele><time>2026-04-10T12:34:36Z</time></trkpt><trkpt lat="44.96569353329801" lon="7.801976292631411"><ele>254.25</ele><time>2026-04-10T12:34:38Z</time></trkpt><trkpt lat="44.96569238436054" lon="7.801798360075825"><ele>254.5</ele><time>2026-04-10T12:34:40Z</time></trkpt><trkpt lat="44.9656838503991" lon="7.80162770920565"><ele>254.75</ele><time>2026-04-10T12:34:42Z</time></trkpt><trkpt lat="44.9656993172877" lon="7.8014532556866305"><ele>255.0</ele><time>2026-04-10T12:34:44Z</time></trkpt><trkpt lat="44.96570176503833" lon="7.801289178404366"><ele>255.0</ele><time>2026-04-10T12:34:46Z</time></trkpt><trkpt lat="44.96570427432906" lon="7.8011271090840975"><ele>255.0</ele><time>2026-04-10T12:34:48Z</time></trkpt><trkpt lat="44.96569660908503" lon="7.800959958650429"><ele>255.0</ele><time>2026-04-10T12:34:50Z</time></trkpt><trkpt lat="44.96569870985749" lon="7.800795679169054"><ele>255.0</ele><time>2026-04-10T12:34:52Z</time></trkpt><trkpt lat="44.965711772920606" lon="7.800642791889325"><ele>255.0</ele><time>2026-04-10T12:34:54Z</time></trkpt><trkpt lat="44.96571392244469" lon="7.800476087733409"><ele>255.0</ele><time>2026-04-10T12:34:56Z</time></trkpt><trkpt lat="44.965705383380694" lon="7.800322838505638"><ele>255.0</ele><time>2026-04-10T12:34:58Z</time></trkpt><trkpt lat="44.96570416495644" lon="7.800173836095968"><ele>255.0</ele><time>2026-04-10T12:35:00Z</time></trkpt><trkpt lat="44.96570567787644" lon="7.800022227579866"><ele>255.0</ele><time>2026-04-10T12:35:02Z</time></trkpt><trkpt lat="44.965716445016064" lon="7.799868130945637"><ele>254.8</ele><time>2026-04-10T12:35:04Z</time></trkpt><trkpt lat="44.965706322464925" lon="7.799718723370672"><ele>254.6</ele><time>2026-04-10T12:35:06Z</time></trkpt><trkpt lat="44.96570779459053" lon="7.799628261126305"><ele>254.39999999999998</ele><time>2026-04-10T12:35:07Z</time></trkpt><trkpt lat="44.9657077127537" lon="7.799470436719802"><ele>254.2</ele><time>2026-04-10T12:35:09Z</time></trkpt><trkpt lat="44.96570824855286" lon="7.799317218090925"><ele>254.0</ele><time>2026-04-10T12:35:11Z</time></trkpt><trkpt lat="44.96570591438138" lon="7.799161582209019"><ele>254.0</ele><time>2026-04-10T12:35:13Z</time></trkpt><trkpt lat="44.96570393235968" lon="7.799006996321283"><ele>253.99999999999997</ele><time>2026-04-10T12:35:15Z</time></trkpt><trkpt lat="44.96571463285062" lon="7.79885971947796"><ele>253.99999999999997</ele><time>2026-04-10T12:35:17Z</time></trkpt><trkpt lat="44.96571438479422" lon="7.798751026220464"><ele>254.0</ele><time>2026-04-10T12:35:19Z</time></trkpt><trkpt lat="44.965826814473054" lon="7.798723512691683"><ele>254.0</ele><time>2026-04-10T12:35:24Z</time></trkpt><trkpt lat="44.965891042724316" lon="7.798726891633344"><ele>254.39999999999998</ele><time>2026-04-10T12:35:26Z</time></trkpt><trkpt lat="44.96596165521168" lon="7.7987279503778035"><ele>254.79999999999998</ele><time>2026-04-10T12:35:28Z</time></trkpt><trkpt lat="44.96602740349737" lon="7.798726428514721"><ele>255.20000000000002</ele><time>2026-04-10T12:35:30Z</time></trkpt><trkpt lat="44.966093330861504" lon="7.798732366387375"><ele>255.60000000000002</ele><time>2026-04-10T12:35:35Z</time></trkpt><trkpt lat="44.96604253188066" lon="7.798439344925516"><ele>256.0</ele><time>2026-04-10T12:35:45Z</time></trkpt><trkpt lat="44.9660469651232" lon="7.798308447685593"><ele>256.2</ele><time>2026-04-10T12:35:47Z</time></trkpt><trkpt lat="44.966040426745856" lon="7.7981646838478325"><ele>256.40000000000003</ele><time>2026-04-10T12:35:49Z</time></trkpt><trkpt lat="44.96604575449277" lon="7.7980169484803135"><ele>256.6</ele><time>2026-04-10T12:35:51Z</time></trkpt><trkpt lat="44.966047049884935" lon="7.797848319695309"><ele>256.8</ele><time>2026-04-10T12:35:53Z</time></trkpt><trkpt lat="44.96604689485515" lon="7.79768030730566"><ele>257.0</ele><time>2026-04-10T12:35:55Z</time></trkpt><trkpt lat="44.96605020242835" lon="7.797510410803748"><ele>256.4</ele><time>2026-04-10T12:35:57Z</time></trkpt><trkpt lat="44.96605500958323" lon="7.797339697291733"><ele>255.79999999999998</ele><time>2026-04-10T12:35:59Z</time></trkpt><trkpt lat="44.966053162357134" lon="7.797165824504577"><ele>255.2</ele><time>2026-04-10T12:36:01Z</time></trkpt><trkpt lat="44.96606187474315" lon="7.7969957486271"><ele>254.6</ele><time>2026-04-10T12:36:03Z</time></trkpt><trkpt lat="44.96605991859467" lon="7.7969029789189"><ele>254.0</ele><time>2026-04-10T12:36:04Z</time></trkpt><trkpt lat="44.966062326756585" lon="7.7968067126552265"><ele>253.66666666666669</ele><time>2026-04-10T12:36:05Z</time></trkpt><trkpt lat="44.96606782507447" lon="7.796709424795103"><ele>253.33333333333334</ele><time>2026-04-10T12:36:06Z</time></trkpt><trkpt lat="44.96607162924969" lon="7.796618816119241"><ele>253.0</ele><time>2026-04-10T12:36:07Z</time></trkpt><trkpt lat="44.966068427977405" lon="7.796443214876224"><ele>252.66666666666669</ele><time>2026-04-10T12:36:09Z</time></trkpt><trkpt lat="44.96606970644708" lon="7.7963540754890275"><ele>252.33333333333334</ele><time>2026-04-10T12:36:10Z</time></trkpt><trkpt lat="44.96606789183773" lon="7.796259841325897"><ele>252.0</ele><time>2026-04-10T12:36:11Z</time></trkpt><trkpt lat="44.96606878404165" lon="7.796080100411525"><ele>251.85714285714286</ele><time>2026-04-10T12:36:13Z</time></trkpt><trkpt lat="44.96607274233973" lon="7.795981456727406"><ele>251.71428571428572</ele><time>2026-04-10T12:36:14Z</time></trkpt><trkpt lat="44.96607279020537" lon="7.795880606715628"><ele>251.57142857142856</ele><time>2026-04-10T12:36:15Z</time></trkpt><trkpt lat="44.966073996344264" lon="7.795778141301141"><ele>251.42857142857142</ele><time>2026-04-10T12:36:16Z</time></trkpt><trkpt lat="44.96607523224628" lon="7.79567504549919"><ele>251.28571428571428</ele><time>2026-04-10T12:36:17Z</time></trkpt><trkpt lat="44.9660706993727" lon="7.795572109979897"><ele>251.1428571428571</ele><time>2026-04-10T12:36:18Z</time></trkpt><trkpt lat="44.96606627587887" lon="7.795471249364393"><ele>250.99999999999997</ele><time>2026-04-10T12:36:19Z</time></trkpt><trkpt lat="44.96606138884789" lon="7.795368169405911"><ele>250.99999999999997</ele><time>2026-04-10T12:36:20Z</time></trkpt><trkpt lat="44.9660594036099" lon="7.795266340622694"><ele>251.0</ele><time>2026-04-10T12:36:21Z</time></trkpt><trkpt lat="44.96605863837561" lon="7.795168541789984"><ele>250.99999999999997</ele><time>2026-04-10T12:36:22Z</time></trkpt><trkpt lat="44.96605404699555" lon="7.795068710857883"><ele>250.99999999999997</ele><time>2026-04-10T12:36:23Z</time></trkpt><trkpt lat="44.96605544738003" lon="7.794965816777498"><ele>251.0</ele><time>2026-04-10T12:36:24Z</time></trkpt><trkpt lat="44.966060359134204" lon="7.79486372531458"><ele>250.99999999999997</ele><time>2026-04-10T12:36:25Z</time></trkpt><trkpt lat="44.96606558875952" lon="7.794762108249056"><ele>250.99999999999997</ele><time>2026-04-10T12:36:26Z</time></trkpt><trkpt lat="44.96607414356316" lon="7.79465880366162"><ele>250.1428571428571</ele><time>2026-04-10T12:36:27Z</time></trkpt><trkpt lat="44.96608190727658" lon="7.794555183089104"><ele>249.28571428571428</ele><time>2026-04-10T12:36:28Z</time></trkpt><trkpt lat="44.9660882852584" lon="7.794456223164587"><ele>248.42857142857142</ele><time>2026-04-10T12:36:29Z</time></trkpt><trkpt lat="44.966093396718094" lon="7.794353436503465"><ele>247.57142857142856</ele><time>2026-04-10T12:36:30Z</time></trkpt><trkpt lat="44.9661008069215" lon="7.794251332845897"><ele>246.71428571428572</ele><time>2026-04-10T12:36:31Z</time></trkpt><trkpt lat="44.96611359156329" lon="7.794148054915481"><ele>245.85714285714286</ele><time>2026-04-10T12:36:32Z</time></trkpt><trkpt lat="44.96612159122758" lon="7.794051967713475"><ele>245.0</ele><time>2026-04-10T12:36:33Z</time></trkpt><trkpt lat="44.96614409131813" lon="7.793951426906807"><ele>245.0</ele><time>2026-04-10T12:36:34Z</time></trkpt><trkpt lat="44.966166297845945" lon="7.793853269635348"><ele>245.0</ele><time>2026-04-10T12:36:35Z</time></trkpt><trkpt lat="44.96618559039744" lon="7.793762353326401"><ele>245.0</ele><time>2026-04-10T12:36:36Z</time></trkpt><trkpt lat="44.96620907728752" lon="7.793660351733516"><ele>245.0</ele><time>2026-04-10T12:36:37Z</time></trkpt><trkpt lat="44.96623309489345" lon="7.79357156587934"><ele>245.0</ele><time>2026-04-10T12:36:38Z</time></trkpt><trkpt lat="44.96625413963751" lon="7.793487683510236"><ele>245.0</ele><time>2026-04-10T12:36:39Z</time></trkpt><trkpt lat="44.96627734612751" lon="7.793404501122738"><ele>245.0</ele><time>2026-04-10T12:36:40Z</time></trkpt><trkpt lat="44.96630782422144" lon="7.793324553340248"><ele>244.83333333333334</ele><time>2026-04-10T12:36:41Z</time></trkpt><trkpt lat="44.96632921718254" lon="7.793239001384352"><ele>244.66666666666669</ele><time>2026-04-10T12:36:42Z</time></trkpt><trkpt lat="44.966360453217746" lon="7.793156834424396"><ele>244.5</ele><time>2026-04-10T12:36:43Z</time></trkpt><trkpt lat="44.96641010882669" lon="7.792986729965452"><ele>244.33333333333331</ele><time>2026-04-10T12:36:45Z</time></trkpt><trkpt lat="44.9664232762827" lon="7.792892380650988"><ele>244.16666666666666</ele><time>2026-04-10T12:36:46Z</time></trkpt><trkpt lat="44.96643863495563" lon="7.7927977407779"><ele>244.0</ele><time>2026-04-10T12:36:47Z</time></trkpt><trkpt lat="44.96645052409413" lon="7.792706592313507"><ele>243.99999999999997</ele><time>2026-04-10T12:36:48Z</time></trkpt><trkpt lat="44.96645294832597" lon="7.792608755263829"><ele>244.0</ele><time>2026-04-10T12:36:49Z</time></trkpt><trkpt lat="44.96646883243579" lon="7.792509744327624"><ele>243.99999999999997</ele><time>2026-04-10T12:36:50Z</time></trkpt><trkpt lat="44.96647106290233" lon="7.79241626622997"><ele>243.99999999999997</ele><time>2026-04-10T12:36:51Z</time></trkpt><trkpt lat="44.96647689318646" lon="7.792322782550686"><ele>244.0</ele><time>2026-04-10T12:36:52Z</time></trkpt><trkpt lat="44.966490787447945" lon="7.7922318269856525"><ele>243.99999999999997</ele><time>2026-04-10T12:36:53Z</time></trkpt><trkpt lat="44.96650889779719" lon="7.792137829268714"><ele>243.99999999999997</ele><time>2026-04-10T12:36:54Z</time></trkpt><trkpt lat="44.96653291258836" lon="7.792049475450881"><ele>243.99999999999997</ele><time>2026-04-10T12:36:55Z</time></trkpt><trkpt lat="44.96655956292842" lon="7.791961092852277"><ele>244.0</ele><time>2026-04-10T12:36:56Z</time></trkpt><trkpt lat="44.96658792443692" lon="7.79187263883814"><ele>244.0</ele><time>2026-04-10T12:36:57Z</time></trkpt><trkpt lat="44.966609503237265" lon="7.7917846068346925"><ele>244.0</ele><time>2026-04-10T12:36:58Z</time></trkpt><trkpt lat="44.966634295713106" lon="7.791702588983034"><ele>243.99999999999997</ele><time>2026-04-10T12:36:59Z</time></trkpt><trkpt lat="44.966682368541704" lon="7.791546390176794"><ele>244.0</ele><time>2026-04-10T12:37:01Z</time></trkpt><trkpt lat="44.966722735586934" lon="7.791397148826588"><ele>244.0</ele><time>2026-04-10T12:37:03Z</time></trkpt><trkpt lat="44.96676379457934" lon="7.791257386316359"><ele>243.99999999999997</ele><time>2026-04-10T12:37:05Z</time></trkpt><trkpt lat="44.9668196853805" lon="7.791156985471282"><ele>243.99999999999997</ele><time>2026-04-10T12:37:07Z</time></trkpt><trkpt lat="44.966872343772025" lon="7.791054812146229"><ele>244.0</ele><time>2026-04-10T12:37:09Z</time></trkpt><trkpt lat="44.966953854976246" lon="7.790944220635296"><ele>244.0</ele><time>2026-04-10T12:37:11Z</time></trkpt><trkpt lat="44.96703665213151" lon="7.790827812048813"><ele>244.0</ele><time>2026-04-10T12:37:13Z</time></trkpt><trkpt lat="44.9671161123089" lon="7.7907160949748215"><ele>244.0</ele><time>2026-04-10T12:37:15Z</time></trkpt><trkpt lat="44.96719502052907" lon="7.790605153638719"><ele>244.0</ele><time>2026-04-10T12:37:17Z</time></trkpt><trkpt lat="44.96727531352625" lon="7.790492265674438"><ele>244.0</ele><time>2026-04-10T12:37:19Z</time></trkpt><trkpt lat="44.967351897110454" lon="7.79036707028273"><ele>244.0</ele><time>2026-04-10T12:37:21Z</time></trkpt><trkpt lat="44.967436802267464" lon="7.79025109536185"><ele>244.0</ele><time>2026-04-10T12:37:23Z</time></trkpt><trkpt lat="44.967519391208015" lon="7.790143088137935"><ele>244.0</ele><time>2026-04-10T12:37:25Z</time></trkpt><trkpt lat="44.9675943409004" lon="7.7900248444353055"><ele>244.0</ele><time>2026-04-10T12:37:27Z</time></trkpt><trkpt lat="44.9676747170824" lon="7.789895721449536"><ele>243.25</ele><time>2026-04-10T12:37:29Z</time></trkpt><trkpt lat="44.967761555951995" lon="7.789767574873726"><ele>242.5</ele><time>2026-04-10T12:37:31Z</time></trkpt><trkpt lat="44.96784750980436" lon="7.78963819253112"><ele>241.75</ele><time>2026-04-10T12:37:33Z</time></trkpt><trkpt lat="44.967936704084636" lon="7.789520167620139"><ele>241.0</ele><time>2026-04-10T12:37:35Z</time></trkpt><trkpt lat="44.96801324675868" lon="7.789382109887171"><ele>240.99999999999997</ele><time>2026-04-10T12:37:37Z</time></trkpt><trkpt lat="44.96806504188131" lon="7.789330001823373"><ele>241.0</ele><time>2026-04-10T12:37:38Z</time></trkpt><trkpt lat="44.968150398929126" lon="7.789196874695969"><ele>241.0</ele><time>2026-04-10T12:37:40Z</time></trkpt><trkpt lat="44.968193588824704" lon="7.7891289625451945"><ele>241.0</ele><time>2026-04-10T12:37:41Z</time></trkpt><trkpt lat="44.96822413368013" lon="7.789049642031601"><ele>240.99999999999997</ele><time>2026-04-10T12:37:42Z</time></trkpt><trkpt lat="44.96827062374255" lon="7.788988539888251"><ele>241.0</ele><time>2026-04-10T12:37:43Z</time></trkpt><trkpt lat="44.96835511945465" lon="7.788862583780406"><ele>241.5</ele><time>2026-04-10T12:37:45Z</time></trkpt><trkpt lat="44.96843437352898" lon="7.788727858617445"><ele>242.0</ele><time>2026-04-10T12:37:47Z</time></trkpt><trkpt lat="44.968526877467575" lon="7.788611362650652"><ele>242.5</ele><time>2026-04-10T12:37:49Z</time></trkpt><trkpt lat="44.96860925701857" lon="7.788485586106622"><ele>243.0</ele><time>2026-04-10T12:37:51Z</time></trkpt><trkpt lat="44.968692389772464" lon="7.788358659450606"><ele>243.4</ele><time>2026-04-10T12:37:53Z</time></trkpt><trkpt lat="44.96876607266809" lon="7.78821970524462"><ele>243.8</ele><time>2026-04-10T12:37:55Z</time></trkpt><trkpt lat="44.96884759438029" lon="7.78808738309902"><ele>244.2</ele><time>2026-04-10T12:37:57Z</time></trkpt><trkpt lat="44.9689012500565" lon="7.7880405197895515"><ele>244.6</ele><time>2026-04-10T12:37:58Z</time></trkpt><trkpt lat="44.968966102923936" lon="7.787912085104724"><ele>245.0</ele><time>2026-04-10T12:38:00Z</time></trkpt><trkpt lat="44.96904277612592" lon="7.787810309366526"><ele>245.0</ele><time>2026-04-10T12:38:02Z</time></trkpt><trkpt lat="44.96910911163377" lon="7.7877075743723"><ele>245.0</ele><time>2026-04-10T12:38:04Z</time></trkpt><trkpt lat="44.96917801868335" lon="7.78762731156925"><ele>245.0</ele><time>2026-04-10T12:38:06Z</time></trkpt><trkpt lat="44.96924497079122" lon="7.787522320579846"><ele>245.0</ele><time>2026-04-10T12:38:08Z</time></trkpt><trkpt lat="44.96931529302424" lon="7.78742714573091"><ele>245.0</ele><time>2026-04-10T12:38:10Z</time></trkpt><trkpt lat="44.96938544999318" lon="7.787325720028699"><ele>244.66666666666669</ele><time>2026-04-10T12:38:12Z</time></trkpt><trkpt lat="44.96945332550756" lon="7.78722903016833"><ele>244.33333333333334</ele><time>2026-04-10T12:38:14Z</time></trkpt><trkpt lat="44.969509715385826" lon="7.78711773522025"><ele>244.0</ele><time>2026-04-10T12:38:16Z</time></trkpt><trkpt lat="44.96957405358081" lon="7.787038485044254"><ele>243.66666666666669</ele><time>2026-04-10T12:38:18Z</time></trkpt><trkpt lat="44.969637415918235" lon="7.786976855313965"><ele>243.33333333333334</ele><time>2026-04-10T12:38:20Z</time></trkpt><trkpt lat="44.969683252999914" lon="7.786886720971643"><ele>243.0</ele><time>2026-04-10T12:38:23Z</time></trkpt><trkpt lat="44.969754453341345" lon="7.786856619804672"><ele>243.4</ele><time>2026-04-10T12:38:27Z</time></trkpt><trkpt lat="44.96980828380731" lon="7.786795316850877"><ele>243.8</ele><time>2026-04-10T12:38:29Z</time></trkpt><trkpt lat="44.969871695450834" lon="7.786693095219868"><ele>244.2</ele><time>2026-04-10T12:38:31Z</time></trkpt><trkpt lat="44.96993719264539" lon="7.786606356298298"><ele>244.6</ele><time>2026-04-10T12:38:33Z</time></trkpt><trkpt lat="44.97000822068774" lon="7.786509082725548"><ele>245.0</ele><time>2026-04-10T12:38:35Z</time></trkpt><trkpt lat="44.970079464501076" lon="7.7864096944719945"><ele>245.0</ele><time>2026-04-10T12:38:37Z</time></trkpt><trkpt lat="44.97014807534136" lon="7.786312758627496"><ele>245.0</ele><time>2026-04-10T12:38:39Z</time></trkpt><trkpt lat="44.97021736242003" lon="7.78621063495773"><ele>245.0</ele><time>2026-04-10T12:38:41Z</time></trkpt><trkpt lat="44.970281016842044" lon="7.78610475823574"><ele>245.0</ele><time>2026-04-10T12:38:43Z</time></trkpt><trkpt lat="44.97032816781197" lon="7.785992750609023"><ele>245.0</ele><time>2026-04-10T12:38:45Z</time></trkpt><trkpt lat="44.9703830835676" lon="7.785893308932268"><ele>245.33333333333334</ele><time>2026-04-10T12:38:47Z</time></trkpt><trkpt lat="44.97043793370168" lon="7.785799300098481"><ele>245.66666666666669</ele><time>2026-04-10T12:38:49Z</time></trkpt><trkpt lat="44.970473898207445" lon="7.785701937736679"><ele>246.0</ele><time>2026-04-10T12:38:51Z</time></trkpt><trkpt lat="44.97050189516325" lon="7.785616693882606"><ele>246.33333333333331</ele><time>2026-04-10T12:38:53Z</time></trkpt><trkpt lat="44.97062212154189" lon="7.785649191210629"><ele>246.66666666666666</ele><time>2026-04-10T12:38:54Z</time></trkpt><trkpt lat="44.97071298388563" lon="7.785615942138398"><ele>247.0</ele><time>2026-04-10T12:38:56Z</time></trkpt><trkpt lat="44.97079821550097" lon="7.785563643509789"><ele>247.0</ele><time>2026-04-10T12:38:58Z</time></trkpt><trkpt lat="44.97088953819758" lon="7.785504478762656"><ele>247.0</ele><time>2026-04-10T12:39:00Z</time></trkpt><trkpt lat="44.9709693772052" lon="7.785425915476234"><ele>247.0</ele><time>2026-04-10T12:39:02Z</time></trkpt><trkpt lat="44.971053238867164" lon="7.785345207083204"><ele>247.0</ele><time>2026-04-10T12:39:04Z</time></trkpt><trkpt lat="44.97113930928899" lon="7.7852644775331825"><ele>247.0</ele><time>2026-04-10T12:39:06Z</time></trkpt><trkpt lat="44.97121727904879" lon="7.785181747145192"><ele>246.8</ele><time>2026-04-10T12:39:08Z</time></trkpt><trkpt lat="44.97129967934973" lon="7.785094471309686"><ele>246.6</ele><time>2026-04-10T12:39:10Z</time></trkpt><trkpt lat="44.97137964349847" lon="7.7850134341013995"><ele>246.40000000000003</ele><time>2026-04-10T12:39:12Z</time></trkpt><trkpt lat="44.971460318079274" lon="7.784925323826999"><ele>246.20000000000002</ele><time>2026-04-10T12:39:14Z</time></trkpt><trkpt lat="44.971548876174445" lon="7.784846248672246"><ele>246.0</ele><time>2026-04-10T12:39:16Z</time></trkpt><trkpt lat="44.97163272684186" lon="7.784758410989548"><ele>246.60000000000002</ele><time>2026-04-10T12:39:18Z</time></trkpt><trkpt lat="44.97171507596591" lon="7.784672591761836"><ele>247.20000000000002</ele><time>2026-04-10T12:39:20Z</time></trkpt><trkpt lat="44.97179827940345" lon="7.784580852697968"><ele>247.79999999999998</ele><time>2026-04-10T12:39:22Z</time></trkpt><trkpt lat="44.971878244845" lon="7.7844914976699915"><ele>248.39999999999998</ele><time>2026-04-10T12:39:24Z</time></trkpt><trkpt lat="44.97196239698869" lon="7.784413241140888"><ele>249.0</ele><time>2026-04-10T12:39:26Z</time></trkpt><trkpt lat="44.97204561645464" lon="7.78432128012647"><ele>249.39999999999998</ele><time>2026-04-10T12:39:28Z</time></trkpt><trkpt lat="44.972125991247026" lon="7.784224549466549"><ele>249.79999999999998</ele><time>2026-04-10T12:39:30Z</time></trkpt><trkpt lat="44.97220846665686" lon="7.784129081107988"><ele>250.20000000000002</ele><time>2026-04-10T12:39:32Z</time></trkpt><trkpt lat="44.972281784301536" lon="7.784022496131908"><ele>250.60000000000002</ele><time>2026-04-10T12:39:34Z</time></trkpt><trkpt lat="44.97235233572476" lon="7.783915379426809"><ele>251.0</ele><time>2026-04-10T12:39:36Z</time></trkpt><trkpt lat="44.97242340298348" lon="7.783813001533747"><ele>251.0</ele><time>2026-04-10T12:39:38Z</time></trkpt><trkpt lat="44.972499605917385" lon="7.783714534928543"><ele>251.00000000000003</ele><time>2026-04-10T12:39:40Z</time></trkpt><trkpt lat="44.972578030599884" lon="7.783612877771884"><ele>251.00000000000003</ele><time>2026-04-10T12:39:42Z</time></trkpt><trkpt lat="44.97265214617315" lon="7.783505665208677"><ele>251.0</ele><time>2026-04-10T12:39:44Z</time></trkpt><trkpt lat="44.97273056728011" lon="7.783404141379046"><ele>251.0</ele><time>2026-04-10T12:39:46Z</time></trkpt><trkpt lat="44.9727941301434" lon="7.783319757816314"><ele>251.0</ele><time>2026-04-10T12:39:48Z</time></trkpt><trkpt lat="44.97286437560473" lon="7.783291812146425"><ele>251.0</ele><time>2026-04-10T12:39:51Z</time></trkpt><trkpt lat="44.97298590570974" lon="7.783529401758697"><ele>251.0</ele><time>2026-04-10T12:39:56Z</time></trkpt><trkpt lat="44.97304899859978" lon="7.78363157642567"><ele>251.0</ele><time>2026-04-10T12:39:58Z</time></trkpt><trkpt lat="44.973122011719866" lon="7.783724149750409"><ele>251.0</ele><time>2026-04-10T12:40:00Z</time></trkpt><trkpt lat="44.973227486029195" lon="7.783725445671642"><ele>251.00000000000003</ele><time>2026-04-10T12:40:02Z</time></trkpt><trkpt lat="44.97332822135728" lon="7.78367219042088"><ele>251.00000000000003</ele><time>2026-04-10T12:40:04Z</time></trkpt><trkpt lat="44.973438181584015" lon="7.783655505191076"><ele>251.0</ele><time>2026-04-10T12:40:06Z</time></trkpt><trkpt lat="44.97354538864494" lon="7.783608827708667"><ele>251.0</ele><time>2026-04-10T12:40:08Z</time></trkpt><trkpt lat="44.97365303974712" lon="7.7835661513378085"><ele>251.20000000000002</ele><time>2026-04-10T12:40:10Z</time></trkpt><trkpt lat="44.97374596646326" lon="7.783512302642354"><ele>251.40000000000003</ele><time>2026-04-10T12:40:12Z</time></trkpt><trkpt lat="44.97383912491595" lon="7.783463461143021"><ele>251.6</ele><time>2026-04-10T12:40:14Z</time></trkpt><trkpt lat="44.973930102759994" lon="7.783422540589275"><ele>251.8</ele><time>2026-04-10T12:40:16Z</time></trkpt><trkpt lat="44.97401409530758" lon="7.78337489812671"><ele>252.0</ele><time>2026-04-10T12:40:18Z</time></trkpt><trkpt lat="44.974100146427" lon="7.783333800403502"><ele>252.0</ele><time>2026-04-10T12:40:20Z</time></trkpt><trkpt lat="44.97417945813566" lon="7.783299295830388"><ele>252.0</ele><time>2026-04-10T12:40:22Z</time></trkpt><trkpt lat="44.974249484360826" lon="7.783283507841759"><ele>252.0</ele><time>2026-04-10T12:40:24Z</time></trkpt><trkpt lat="44.9743151409578" lon="7.783313196793141"><ele>252.0</ele><time>2026-04-10T12:40:26Z</time></trkpt><trkpt lat="44.97437385825576" lon="7.783393517411241"><ele>252.0</ele><time>2026-04-10T12:40:28Z</time></trkpt><trkpt lat="44.974445046819255" lon="7.783450375747015"><ele>252.0</ele><time>2026-04-10T12:40:30Z</time></trkpt><trkpt lat="44.97453179120773" lon="7.783485225052078"><ele>252.16666666666666</ele><time>2026-04-10T12:40:32Z</time></trkpt><trkpt lat="44.97456884731101" lon="7.783558148102829"><ele>252.33333333333331</ele><time>2026-04-10T12:40:33Z</time></trkpt><trkpt lat="44.97465574570938" lon="7.783575144908864"><ele>252.5</ele><time>2026-04-10T12:40:35Z</time></trkpt><trkpt lat="44.974748075158196" lon="7.7835932039871905"><ele>252.66666666666666</ele><time>2026-04-10T12:40:37Z</time></trkpt><trkpt lat="44.97484215723336" lon="7.783588875923235"><ele>252.83333333333331</ele><time>2026-04-10T12:40:39Z</time></trkpt><trkpt lat="44.974934445878525" lon="7.783624690466847"><ele>253.0</ele><time>2026-04-10T12:40:41Z</time></trkpt><trkpt lat="44.97502744736964" lon="7.783669830073485"><ele>252.60000000000002</ele><time>2026-04-10T12:40:43Z</time></trkpt><trkpt lat="44.97511328791243" lon="7.783715668433165"><ele>252.20000000000002</ele><time>2026-04-10T12:40:45Z</time></trkpt><trkpt lat="44.97520997597958" lon="7.783755699082037"><ele>251.8</ele><time>2026-04-10T12:40:47Z</time></trkpt><trkpt lat="44.975305396571635" lon="7.783789041904443"><ele>251.4</ele><time>2026-04-10T12:40:49Z</time></trkpt><trkpt lat="44.975403824234796" lon="7.783836741399944"><ele>251.0</ele><time>2026-04-10T12:40:51Z</time></trkpt><trkpt lat="44.975493533431134" lon="7.783890839805675"><ele>251.0</ele><time>2026-04-10T12:40:53Z</time></trkpt><trkpt lat="44.97558955486556" lon="7.7839295203578045"><ele>251.00000000000003</ele><time>2026-04-10T12:40:55Z</time></trkpt><trkpt lat="44.97568569695714" lon="7.783945642120333"><ele>251.00000000000003</ele><time>2026-04-10T12:40:57Z</time></trkpt><trkpt lat="44.975784621768355" lon="7.783940629017671"><ele>251.0</ele><time>2026-04-10T12:40:59Z</time></trkpt><trkpt lat="44.97588186414228" lon="7.783958056887604"><ele>251.0</ele><time>2026-04-10T12:41:01Z</time></trkpt><trkpt lat="44.97597092366849" lon="7.783984633062606"><ele>251.20000000000002</ele><time>2026-04-10T12:41:03Z</time></trkpt><trkpt lat="44.976061709346155" lon="7.7839902879581055"><ele>251.40000000000003</ele><time>2026-04-10T12:41:05Z</time></trkpt><trkpt lat="44.97615447317789" lon="7.784006912394212"><ele>251.6</ele><time>2026-04-10T12:41:07Z</time></trkpt><trkpt lat="44.97624691278336" lon="7.784118105534081"><ele>251.8</ele><time>2026-04-10T12:41:09Z</time></trkpt><trkpt lat="44.97634843473668" lon="7.784155183280425"><ele>252.0</ele><time>2026-04-10T12:41:11Z</time></trkpt><trkpt lat="44.976444784211374" lon="7.784190588484287"><ele>252.0</ele><time>2026-04-10T12:41:13Z</time></trkpt><trkpt lat="44.97653879127893" lon="7.784221181431968"><ele>252.0</ele><time>2026-04-10T12:41:15Z</time></trkpt><trkpt lat="44.976631292366946" lon="7.784209016578855"><ele>252.0</ele><time>2026-04-10T12:41:17Z</time></trkpt><trkpt lat="44.97670150097588" lon="7.784120637556536"><ele>252.0</ele><time>2026-04-10T12:41:19Z</time></trkpt><trkpt lat="44.97677141888105" lon="7.784049492839069"><ele>252.0</ele><time>2026-04-10T12:41:21Z</time></trkpt><trkpt lat="44.97686686192432" lon="7.784007896621562"><ele>252.39999999999998</ele><time>2026-04-10T12:41:23Z</time></trkpt><trkpt lat="44.976971323191165" lon="7.783990042936639"><ele>252.79999999999998</ele><time>2026-04-10T12:41:25Z</time></trkpt><trkpt lat="44.9770778988704" lon="7.783980621005987"><ele>253.2</ele><time>2026-04-10T12:41:27Z</time></trkpt><trkpt lat="44.9771803586999" lon="7.7839567673076315"><ele>253.6</ele><time>2026-04-10T12:41:29Z</time></trkpt><trkpt lat="44.97728175469275" lon="7.783948193400386"><ele>254.0</ele><time>2026-04-10T12:41:31Z</time></trkpt><trkpt lat="44.97738643978996" lon="7.783948228019852"><ele>254.0</ele><time>2026-04-10T12:41:33Z</time></trkpt><trkpt lat="44.977497851727364" lon="7.783945432819924"><ele>253.99999999999997</ele><time>2026-04-10T12:41:35Z</time></trkpt><trkpt lat="44.977605418822144" lon="7.783958816545148"><ele>253.99999999999997</ele><time>2026-04-10T12:41:37Z</time></trkpt><trkpt lat="44.977710501875634" lon="7.783962135288849"><ele>254.0</ele><time>2026-04-10T12:41:39Z</time></trkpt><trkpt lat="44.977812679313615" lon="7.783977713389465"><ele>254.0</ele><time>2026-04-10T12:41:41Z</time></trkpt><trkpt lat="44.97790735569864" lon="7.784055492953833"><ele>254.2</ele><time>2026-04-10T12:41:43Z</time></trkpt><trkpt lat="44.97796096684526" lon="7.784191055352462"><ele>254.39999999999998</ele><time>2026-04-10T12:41:45Z</time></trkpt><trkpt lat="44.977991002948635" lon="7.784338937108049"><ele>254.6</ele><time>2026-04-10T12:41:47Z</time></trkpt><trkpt lat="44.97802324646254" lon="7.784466115786323"><ele>254.8</ele><time>2026-04-10T12:41:49Z</time></trkpt><trkpt lat="44.97810575406291" lon="7.784491723021466"><ele>255.0</ele><time>2026-04-10T12:41:51Z</time></trkpt><trkpt lat="44.978175450684844" lon="7.784720727702708"><ele>254.75</ele><time>2026-04-10T12:41:52Z</time></trkpt><trkpt lat="44.97839068449676" lon="7.784681112090014"><ele>254.5</ele><time>2026-04-10T12:41:57Z</time></trkpt><trkpt lat="44.97848689354676" lon="7.784666492451152"><ele>254.25</ele><time>2026-04-10T12:41:59Z</time></trkpt><trkpt lat="44.97858721705547" lon="7.784656013785291"><ele>254.0</ele><time>2026-04-10T12:42:01Z</time></trkpt><trkpt lat="44.978683398301435" lon="7.784648869870598"><ele>254.0</ele><time>2026-04-10T12:42:03Z</time></trkpt><trkpt lat="44.97878453070783" lon="7.784643062008239"><ele>253.99999999999997</ele><time>2026-04-10T12:42:05Z</time></trkpt><trkpt lat="44.97888571907226" lon="7.784637543396135"><ele>253.99999999999997</ele><time>2026-04-10T12:42:07Z</time></trkpt><trkpt lat="44.97898482449365" lon="7.784633131089468"><ele>254.0</ele><time>2026-04-10T12:42:09Z</time></trkpt><trkpt lat="44.979080393371405" lon="7.784630265795502"><ele>254.0</ele><time>2026-04-10T12:42:11Z</time></trkpt><trkpt lat="44.97917288611184" lon="7.784627492736358"><ele>254.0</ele><time>2026-04-10T12:42:13Z</time></trkpt><trkpt lat="44.97925803148717" lon="7.784624939966361"><ele>254.0</ele><time>2026-04-10T12:42:15Z</time></trkpt><trkpt lat="44.97930026761088" lon="7.784085781465785"><ele>254.0</ele><time>2026-04-10T12:42:18Z</time></trkpt><trkpt lat="44.97931238260683" lon="7.783932317178785"><ele>253.99999999999997</ele><time>2026-04-10T12:42:20Z</time></trkpt><trkpt lat="44.97932565594784" lon="7.7837770883200905"><ele>253.99999999999997</ele><time>2026-04-10T12:42:22Z</time></trkpt><trkpt lat="44.97933790923407" lon="7.78362870495396"><ele>254.0</ele><time>2026-04-10T12:42:24Z</time></trkpt><trkpt lat="44.97934605051104" lon="7.783489921458194"><ele>254.0</ele><time>2026-04-10T12:42:26Z</time></trkpt><trkpt lat="44.979362815123196" lon="7.783343790801048"><ele>254.39999999999998</ele><time>2026-04-10T12:42:28Z</time></trkpt><trkpt lat="44.97937604384964" lon="7.783198731529669"><ele>254.79999999999998</ele><time>2026-04-10T12:42:30Z</time></trkpt><trkpt lat="44.979391831587115" lon="7.783059156100327"><ele>255.20000000000002</ele><time>2026-04-10T12:42:32Z</time></trkpt><trkpt lat="44.979405432531806" lon="7.7829216297295645"><ele>255.60000000000002</ele><time>2026-04-10T12:42:34Z</time></trkpt><trkpt lat="44.97941887109314" lon="7.782798791145394"><ele>256.0</ele><time>2026-04-10T12:42:36Z</time></trkpt><trkpt lat="44.97943218147871" lon="7.782698449575116"><ele>256.2857142857143</ele><time>2026-04-10T12:42:38Z</time></trkpt><trkpt lat="44.979449032284805" lon="7.7826031254828"><ele>256.57142857142856</ele><time>2026-04-10T12:42:41Z</time></trkpt><trkpt lat="44.97947564275516" lon="7.782519804577627"><ele>256.85714285714283</ele><time>2026-04-10T12:42:46Z</time></trkpt><trkpt lat="44.97949837976984" lon="7.782423242900904"><ele>257.1428571428571</ele><time>2026-04-10T12:42:49Z</time></trkpt><trkpt lat="44.97954198729355" lon="7.782327144106234"><ele>257.42857142857144</ele><time>2026-04-10T12:42:52Z</time></trkpt><trkpt lat="44.97960924758232" lon="7.782296204798245"><ele>257.71428571428567</ele><time>2026-04-10T12:42:55Z</time></trkpt><trkpt lat="44.979585007364314" lon="7.78217445033056"><ele>258.0</ele><time>2026-04-10T12:42:59Z</time></trkpt><trkpt lat="44.979641275328206" lon="7.782057953224735"><ele>258.0</ele><time>2026-04-10T12:43:02Z</time></trkpt><trkpt lat="44.97970065053327" lon="7.782024576023184"><ele>258.0</ele><time>2026-04-10T12:43:04Z</time></trkpt><trkpt lat="44.97977686514802" lon="7.782028335254272"><ele>258.0</ele><time>2026-04-10T12:43:06Z</time></trkpt><trkpt lat="44.9798478461379" lon="7.78200452767894"><ele>258.0</ele><time>2026-04-10T12:43:08Z</time></trkpt><trkpt lat="44.97992256238854" lon="7.781982765270514"><ele>258.0</ele><time>2026-04-10T12:43:10Z</time></trkpt><trkpt lat="44.98000655648646" lon="7.781970137134265"><ele>258.0</ele><time>2026-04-10T12:43:12Z</time></trkpt><trkpt lat="44.98008817812102" lon="7.7819507859799275"><ele>258.0</ele><time>2026-04-10T12:43:14Z</time></trkpt><trkpt lat="44.98017410678411" lon="7.781933998031652"><ele>258.0</ele><time>2026-04-10T12:43:16Z</time></trkpt><trkpt lat="44.98025851588451" lon="7.781925132961094"><ele>258.0</ele><time>2026-04-10T12:43:18Z</time></trkpt><trkpt lat="44.980344950620164" lon="7.7819089475735606"><ele>258.0</ele><time>2026-04-10T12:43:20Z</time></trkpt><trkpt lat="44.98043122350229" lon="7.781902380845562"><ele>258.0</ele><time>2026-04-10T12:43:22Z</time></trkpt><trkpt lat="44.98051520077082" lon="7.781892068156528"><ele>258.0</ele><time>2026-04-10T12:43:24Z</time></trkpt><trkpt lat="44.980606407648935" lon="7.7818723920432635"><ele>258.0</ele><time>2026-04-10T12:43:26Z</time></trkpt><trkpt lat="44.980697764419" lon="7.781871382641684"><ele>258.0</ele><time>2026-04-10T12:43:28Z</time></trkpt><trkpt lat="44.98078968977486" lon="7.781867899429352"><ele>258.0</ele><time>2026-04-10T12:43:30Z</time></trkpt><trkpt lat="44.980881927927165" lon="7.781865209017891"><ele>258.0</ele><time>2026-04-10T12:43:32Z</time></trkpt><trkpt lat="44.98097587698041" lon="7.781853822607437"><ele>258.0</ele><time>2026-04-10T12:43:34Z</time></trkpt><trkpt lat="44.9810742461516" lon="7.781849050916745"><ele>257.4</ele><time>2026-04-10T12:43:36Z</time></trkpt><trkpt lat="44.98112855564073" lon="7.781975361409769"><ele>256.8</ele><time>2026-04-10T12:43:37Z</time></trkpt><trkpt lat="44.98122972923811" lon="7.78196782549491"><ele>256.2</ele><time>2026-04-10T12:43:39Z</time></trkpt><trkpt lat="44.98132515056443" lon="7.781960717957683"><ele>255.6</ele><time>2026-04-10T12:43:41Z</time></trkpt><trkpt lat="44.9814132921396" lon="7.7819536150685416"><ele>255.0</ele><time>2026-04-10T12:43:43Z</time></trkpt><trkpt lat="44.98150269587323" lon="7.781946585418983"><ele>255.0</ele><time>2026-04-10T12:43:45Z</time></trkpt><trkpt lat="44.98159312762644" lon="7.78193928168495"><ele>255.0</ele><time>2026-04-10T12:43:47Z</time></trkpt><trkpt lat="44.981683916235674" lon="7.781931894221144"><ele>255.0</ele><time>2026-04-10T12:43:49Z</time></trkpt><trkpt lat="44.98177068603959" lon="7.781924833766957"><ele>255.0</ele><time>2026-04-10T12:43:51Z</time></trkpt><trkpt lat="44.98185860979724" lon="7.7819176794197"><ele>255.0</ele><time>2026-04-10T12:43:53Z</time></trkpt><trkpt lat="44.98195194499452" lon="7.781908901690479"><ele>255.0</ele><time>2026-04-10T12:43:55Z</time></trkpt><trkpt lat="44.98204811640658" lon="7.781893653344807"><ele>255.0</ele><time>2026-04-10T12:43:57Z</time></trkpt><trkpt lat="44.98214362012166" lon="7.78187605838949"><ele>255.0</ele><time>2026-04-10T12:43:59Z</time></trkpt><trkpt lat="44.982226663131875" lon="7.781858716834669"><ele>255.0</ele><time>2026-04-10T12:44:01Z</time></trkpt><trkpt lat="44.98231407990893" lon="7.781839630335206"><ele>255.0</ele><time>2026-04-10T12:44:03Z</time></trkpt><trkpt lat="44.982392789484926" lon="7.781817275788954"><ele>255.0</ele><time>2026-04-10T12:44:05Z</time></trkpt><trkpt lat="44.98248081215775" lon="7.781792039661823"><ele>256.0</ele><time>2026-04-10T12:44:07Z</time></trkpt><trkpt lat="44.98259758195585" lon="7.7817520179539175"><ele>257.0</ele><time>2026-04-10T12:44:09Z</time></trkpt><trkpt lat="44.98269376866583" lon="7.781716700456524"><ele>258.0</ele><time>2026-04-10T12:44:11Z</time></trkpt><trkpt lat="44.98279029031716" lon="7.781677649767391"><ele>259.0</ele><time>2026-04-10T12:44:13Z</time></trkpt><trkpt lat="44.982884078917024" lon="7.78163670157065"><ele>260.0</ele><time>2026-04-10T12:44:15Z</time></trkpt><trkpt lat="44.98297215688336" lon="7.7815970928600455"><ele>260.0</ele><time>2026-04-10T12:44:17Z</time></trkpt><trkpt lat="44.983065110522325" lon="7.781553882884562"><ele>260.0</ele><time>2026-04-10T12:44:19Z</time></trkpt><trkpt lat="44.983158473862524" lon="7.781509872031776"><ele>260.0</ele><time>2026-04-10T12:44:21Z</time></trkpt><trkpt lat="44.98324346299282" lon="7.781469808750944"><ele>260.0</ele><time>2026-04-10T12:44:23Z</time></trkpt><trkpt lat="44.9833306529735" lon="7.781428799510302"><ele>260.0</ele><time>2026-04-10T12:44:25Z</time></trkpt><trkpt lat="44.98342257559436" lon="7.781386421006107"><ele>259.8</ele><time>2026-04-10T12:44:27Z</time></trkpt><trkpt lat="44.98351859056784" lon="7.781342155743529"><ele>259.6</ele><time>2026-04-10T12:44:29Z</time></trkpt><trkpt lat="44.98361521406947" lon="7.781297610032867"><ele>259.4</ele><time>2026-04-10T12:44:31Z</time></trkpt><trkpt lat="44.98371230628075" lon="7.781252848169682"><ele>259.2</ele><time>2026-04-10T12:44:33Z</time></trkpt><trkpt lat="44.983808104214475" lon="7.7812084422384435"><ele>259.0</ele><time>2026-04-10T12:44:35Z</time></trkpt><trkpt lat="44.98389938084013" lon="7.781165944559032"><ele>259.0</ele><time>2026-04-10T12:44:37Z</time></trkpt><trkpt lat="44.983989815290265" lon="7.781123838912531"><ele>259.0</ele><time>2026-04-10T12:44:39Z</time></trkpt><trkpt lat="44.98408096395431" lon="7.781081400792147"><ele>259.0</ele><time>2026-04-10T12:44:41Z</time></trkpt><trkpt lat="44.984184573535956" lon="7.781033160915933"><ele>259.0</ele><time>2026-04-10T12:44:43Z</time></trkpt><trkpt lat="44.98429556992026" lon="7.780981481818675"><ele>259.0</ele><time>2026-04-10T12:44:45Z</time></trkpt><trkpt lat="44.98440718956844" lon="7.780929512504329"><ele>259.2</ele><time>2026-04-10T12:44:47Z</time></trkpt><trkpt lat="44.98452460256316" lon="7.780874845901317"><ele>259.4</ele><time>2026-04-10T12:44:49Z</time></trkpt><trkpt lat="44.984585276985236" lon="7.7808471381381015"><ele>259.6</ele><time>2026-04-10T12:44:50Z</time></trkpt><trkpt lat="44.98464750531996" lon="7.780819317783124"><ele>259.8</ele><time>2026-04-10T12:44:51Z</time></trkpt><trkpt lat="44.98476374100766" lon="7.780767352455809"><ele>260.0</ele><time>2026-04-10T12:44:53Z</time></trkpt><trkpt lat="44.9848748011678" lon="7.780715390452926"><ele>260.0</ele><time>2026-04-10T12:44:55Z</time></trkpt><trkpt lat="44.984988085478214" lon="7.780661537767726"><ele>260.0</ele><time>2026-04-10T12:44:57Z</time></trkpt><trkpt lat="44.98509512711999" lon="7.780610652887076"><ele>260.0</ele><time>2026-04-10T12:44:59Z</time></trkpt><trkpt lat="44.98519639908798" lon="7.7805644109457095"><ele>260.0</ele><time>2026-04-10T12:45:01Z</time></trkpt><trkpt lat="44.98530901932794" lon="7.7805139220620605"><ele>260.0</ele><time>2026-04-10T12:45:03Z</time></trkpt><trkpt lat="44.98540916590938" lon="7.780469025342173"><ele>260.0</ele><time>2026-04-10T12:45:05Z</time></trkpt><trkpt lat="44.985509212199354" lon="7.780427295594397"><ele>260.0</ele><time>2026-04-10T12:45:07Z</time></trkpt><trkpt lat="44.98558578408998" lon="7.780395616840398"><ele>260.0</ele><time>2026-04-10T12:45:09Z</time></trkpt><trkpt lat="44.98568865032179" lon="7.780356292965536"><ele>260.0</ele><time>2026-04-10T12:45:11Z</time></trkpt><trkpt lat="44.98578192664622" lon="7.7803287471207865"><ele>260.0</ele><time>2026-04-10T12:45:13Z</time></trkpt><trkpt lat="44.985890749090764" lon="7.780299249543313"><ele>260.0</ele><time>2026-04-10T12:45:15Z</time></trkpt><trkpt lat="44.985986119652175" lon="7.780274690779423"><ele>260.0</ele><time>2026-04-10T12:45:17Z</time></trkpt><trkpt lat="44.98608208089369" lon="7.780249977930023"><ele>260.0</ele><time>2026-04-10T12:45:19Z</time></trkpt><trkpt lat="44.98618421103706" lon="7.78022367641643"><ele>260.0</ele><time>2026-04-10T12:45:21Z</time></trkpt><trkpt lat="44.98627799855567" lon="7.7801995233650985"><ele>260.2</ele><time>2026-04-10T12:45:23Z</time></trkpt><trkpt lat="44.98638698605983" lon="7.780171304993725"><ele>260.4</ele><time>2026-04-10T12:45:25Z</time></trkpt><trkpt lat="44.98648595123897" lon="7.780145534051038"><ele>260.6</ele><time>2026-04-10T12:45:27Z</time></trkpt><trkpt lat="44.9865677206491" lon="7.780124240948069"><ele>260.8</ele><time>2026-04-10T12:45:29Z</time></trkpt><trkpt lat="44.986644005461514" lon="7.780104375788226"><ele>261.0</ele><time>2026-04-10T12:45:31Z</time></trkpt><trkpt lat="44.98672635427985" lon="7.780073436064391"><ele>261.0</ele><time>2026-04-10T12:45:33Z</time></trkpt><trkpt lat="44.986787775412424" lon="7.78005035625282"><ele>261.0</ele><time>2026-04-10T12:45:35Z</time></trkpt><trkpt lat="44.98682093950916" lon="7.780270472566204"><ele>261.0</ele><time>2026-04-10T12:45:41Z</time></trkpt><trkpt lat="44.98689142124521" lon="7.780332156612353"><ele>261.0</ele><time>2026-04-10T12:45:43Z</time></trkpt><trkpt lat="44.98696359505262" lon="7.780389558563374"><ele>261.0</ele><time>2026-04-10T12:45:45Z</time></trkpt><trkpt lat="44.9870327740798" lon="7.780450422356687"><ele>261.0</ele><time>2026-04-10T12:45:47Z</time></trkpt><trkpt lat="44.987103316940356" lon="7.780514668387402"><ele>261.0</ele><time>2026-04-10T12:45:49Z</time></trkpt><trkpt lat="44.98718185524033" lon="7.780585385755354"><ele>261.0</ele><time>2026-04-10T12:45:51Z</time></trkpt><trkpt lat="44.98725915520091" lon="7.7806532261531425"><ele>261.0</ele><time>2026-04-10T12:45:53Z</time></trkpt><trkpt lat="44.98733671719067" lon="7.7807212964990144"><ele>261.0</ele><time>2026-04-10T12:45:55Z</time></trkpt><trkpt lat="44.98741653493313" lon="7.780791513372083"><ele>261.0</ele><time>2026-04-10T12:45:57Z</time></trkpt><trkpt lat="44.98749739631482" lon="7.780863653620479"><ele>261.0</ele><time>2026-04-10T12:45:59Z</time></trkpt><trkpt lat="44.9875772638927" lon="7.780934907243788"><ele>261.0</ele><time>2026-04-10T12:46:01Z</time></trkpt><trkpt lat="44.98765283299694" lon="7.781002326023591"><ele>261.0</ele><time>2026-04-10T12:46:03Z</time></trkpt><trkpt lat="44.98773122686323" lon="7.781072264880081"><ele>261.0</ele><time>2026-04-10T12:46:05Z</time></trkpt><trkpt lat="44.98781061286418" lon="7.781143088873215"><ele>262.0</ele><time>2026-04-10T12:46:07Z</time></trkpt><trkpt lat="44.987888895519475" lon="7.781212928483822"><ele>263.0</ele><time>2026-04-10T12:46:09Z</time></trkpt><trkpt lat="44.98796942003092" lon="7.78128476819679"><ele>264.0</ele><time>2026-04-10T12:46:11Z</time></trkpt><trkpt lat="44.98804684950904" lon="7.781353846643866"><ele>265.0</ele><time>2026-04-10T12:46:13Z</time></trkpt><trkpt lat="44.98812640341312" lon="7.781424630440494"><ele>266.0</ele><time>2026-04-10T12:46:15Z</time></trkpt><trkpt lat="44.98820352391897" lon="7.781492775601339"><ele>266.0</ele><time>2026-04-10T12:46:17Z</time></trkpt><trkpt lat="44.98828157886966" lon="7.781561746407412"><ele>266.0</ele><time>2026-04-10T12:46:19Z</time></trkpt><trkpt lat="44.98836447748934" lon="7.781631656843965"><ele>266.0</ele><time>2026-04-10T12:46:21Z</time></trkpt><trkpt lat="44.988443990929795" lon="7.781692347643415"><ele>266.0</ele><time>2026-04-10T12:46:23Z</time></trkpt><trkpt lat="44.988534986395706" lon="7.781751813647446"><ele>266.0</ele><time>2026-04-10T12:46:25Z</time></trkpt><trkpt lat="44.98862241700351" lon="7.781803377883931"><ele>266.0</ele><time>2026-04-10T12:46:27Z</time></trkpt><trkpt lat="44.98871506079886" lon="7.781848235850049"><ele>266.0</ele><time>2026-04-10T12:46:29Z</time></trkpt><trkpt lat="44.98880614247001" lon="7.781887270981915"><ele>266.0</ele><time>2026-04-10T12:46:31Z</time></trkpt><trkpt lat="44.988897544318476" lon="7.781925698448136"><ele>266.0</ele><time>2026-04-10T12:46:33Z</time></trkpt><trkpt lat="44.988988136502776" lon="7.781962706416719"><ele>266.0</ele><time>2026-04-10T12:46:35Z</time></trkpt><trkpt lat="44.98907174303082" lon="7.781996860642966"><ele>266.5</ele><time>2026-04-10T12:46:37Z</time></trkpt><trkpt lat="44.98915569196046" lon="7.782031154743417"><ele>267.0</ele><time>2026-04-10T12:46:39Z</time></trkpt><trkpt lat="44.98924209356124" lon="7.782066450787921"><ele>267.5</ele><time>2026-04-10T12:46:41Z</time></trkpt><trkpt lat="44.989326137718635" lon="7.7821007838211855"><ele>268.0</ele><time>2026-04-10T12:46:43Z</time></trkpt><trkpt lat="44.98940772102249" lon="7.782134989697774"><ele>268.5</ele><time>2026-04-10T12:46:45Z</time></trkpt><trkpt lat="44.98948133898597" lon="7.782165896457084"><ele>269.0</ele><time>2026-04-10T12:46:47Z</time></trkpt><trkpt lat="44.98955162050368" lon="7.7821954025297275"><ele>269.0</ele><time>2026-04-10T12:46:49Z</time></trkpt><trkpt lat="44.98962297937024" lon="7.7822252872066695"><ele>269.0</ele><time>2026-04-10T12:46:51Z</time></trkpt><trkpt lat="44.98968674191648" lon="7.782251181739091"><ele>269.0</ele><time>2026-04-10T12:46:53Z</time></trkpt><trkpt lat="44.989748002736754" lon="7.782276060304618"><ele>269.0</ele><time>2026-04-10T12:46:55Z</time></trkpt><trkpt lat="44.98982755867021" lon="7.7823083686326635"><ele>269.0</ele><time>2026-04-10T12:46:58Z</time></trkpt><trkpt lat="44.98990336845376" lon="7.782339155681247"><ele>269.0</ele><time>2026-04-10T12:47:01Z</time></trkpt><trkpt lat="44.989969493225594" lon="7.782367709967812"><ele>269.0</ele><time>2026-04-10T12:47:03Z</time></trkpt><trkpt lat="44.99004293475407" lon="7.782393519307869"><ele>269.0</ele><time>2026-04-10T12:47:05Z</time></trkpt><trkpt lat="44.99010824576904" lon="7.782412401299458"><ele>269.0</ele><time>2026-04-10T12:47:07Z</time></trkpt><trkpt lat="44.99017165280502" lon="7.782429953258713"><ele>269.0</ele><time>2026-04-10T12:47:09Z</time></trkpt><trkpt lat="44.990248234286994" lon="7.782450338126815"><ele>269.0</ele><time>2026-04-10T12:47:11Z</time></trkpt><trkpt lat="44.99031206368359" lon="7.782462808351667"><ele>269.0</ele><time>2026-04-10T12:47:13Z</time></trkpt><trkpt lat="44.990378098804435" lon="7.782475855850502"><ele>269.0</ele><time>2026-04-10T12:47:15Z</time></trkpt><trkpt lat="44.99044602390854" lon="7.782487948560839"><ele>269.0</ele><time>2026-04-10T12:47:17Z</time></trkpt><trkpt lat="44.99051496347413" lon="7.782500223853107"><ele>269.0</ele><time>2026-04-10T12:47:19Z</time></trkpt><trkpt lat="44.990575996971934" lon="7.7824692850624535"><ele>269.0</ele><time>2026-04-10T12:47:22Z</time></trkpt><trkpt lat="44.990613003952085" lon="7.782166555024211"><ele>269.0</ele><time>2026-04-10T12:47:23Z</time></trkpt><trkpt lat="44.99065256798159" lon="7.782302426897662"><ele>269.0</ele><time>2026-04-10T12:47:25Z</time></trkpt><trkpt lat="44.99075727332113" lon="7.782383875517201"><ele>269.0</ele><time>2026-04-10T12:47:27Z</time></trkpt><trkpt lat="44.990805871680074" lon="7.7825470770205305"><ele>269.0</ele><time>2026-04-10T12:47:28Z</time></trkpt><trkpt lat="44.990920924088435" lon="7.782557657587204"><ele>269.0</ele><time>2026-04-10T12:47:30Z</time></trkpt><trkpt lat="44.99098467766169" lon="7.782560091417392"><ele>269.0</ele><time>2026-04-10T12:47:31Z</time></trkpt><trkpt lat="44.99104816886277" lon="7.782561566256081"><ele>269.0</ele><time>2026-04-10T12:47:32Z</time></trkpt><trkpt lat="44.99117943823101" lon="7.782558478905501"><ele>268.83333333333337</ele><time>2026-04-10T12:47:34Z</time></trkpt><trkpt lat="44.99126533438508" lon="7.782551730767295"><ele>268.6666666666667</ele><time>2026-04-10T12:47:35Z</time></trkpt><trkpt lat="44.99133798156046" lon="7.782540822310531"><ele>268.5</ele><time>2026-04-10T12:47:36Z</time></trkpt><trkpt lat="44.991404880648375" lon="7.7825278909099875"><ele>268.3333333333333</ele><time>2026-04-10T12:47:37Z</time></trkpt><trkpt lat="44.991468084419886" lon="7.78251509400787"><ele>268.16666666666663</ele><time>2026-04-10T12:47:38Z</time></trkpt><trkpt lat="44.99158114573898" lon="7.782486989698809"><ele>268.0</ele><time>2026-04-10T12:47:40Z</time></trkpt><trkpt lat="44.991687712961856" lon="7.782458338440945"><ele>267.75</ele><time>2026-04-10T12:47:42Z</time></trkpt><trkpt lat="44.99180100215229" lon="7.782426788787494"><ele>267.5</ele><time>2026-04-10T12:47:44Z</time></trkpt><trkpt lat="44.99191141740893" lon="7.782394131936548"><ele>267.25</ele><time>2026-04-10T12:47:46Z</time></trkpt><trkpt lat="44.99202159003285" lon="7.78236150232697"><ele>267.0</ele><time>2026-04-10T12:47:48Z</time></trkpt><trkpt lat="44.992139907061805" lon="7.782326460607353"><ele>267.0</ele><time>2026-04-10T12:47:50Z</time></trkpt><trkpt lat="44.99225026416805" lon="7.782293776365869"><ele>267.0</ele><time>2026-04-10T12:47:52Z</time></trkpt><trkpt lat="44.992315767028884" lon="7.782274948368185"><ele>267.0</ele><time>2026-04-10T12:47:53Z</time></trkpt><trkpt lat="44.99243462396454" lon="7.782241097871271"><ele>267.0</ele><time>2026-04-10T12:47:55Z</time></trkpt><trkpt lat="44.992549500556166" lon="7.782208380968988"><ele>267.0</ele><time>2026-04-10T12:47:57Z</time></trkpt><trkpt lat="44.992663472614844" lon="7.78217581880799"><ele>267.25</ele><time>2026-04-10T12:47:59Z</time></trkpt><trkpt lat="44.99277207237316" lon="7.782143337014884"><ele>267.5</ele><time>2026-04-10T12:48:01Z</time></trkpt><trkpt lat="44.99288232573222" lon="7.782110360640895"><ele>267.75</ele><time>2026-04-10T12:48:03Z</time></trkpt><trkpt lat="44.99300686801249" lon="7.782073110427322"><ele>268.0</ele><time>2026-04-10T12:48:05Z</time></trkpt><trkpt lat="44.99311679196833" lon="7.782047104999659"><ele>268.0</ele><time>2026-04-10T12:48:07Z</time></trkpt><trkpt lat="44.99318616865476" lon="7.782038210135906"><ele>268.0</ele><time>2026-04-10T12:48:08Z</time></trkpt><trkpt lat="44.99330553302801" lon="7.782035391478368"><ele>268.0</ele><time>2026-04-10T12:48:10Z</time></trkpt><trkpt lat="44.99342783352821" lon="7.782033558516689"><ele>268.0</ele><time>2026-04-10T12:48:12Z</time></trkpt><trkpt lat="44.99353894991192" lon="7.782034468729112"><ele>268.0</ele><time>2026-04-10T12:48:14Z</time></trkpt><trkpt lat="44.99364027361217" lon="7.782042673734068"><ele>268.0</ele><time>2026-04-10T12:48:16Z</time></trkpt><trkpt lat="44.99372973920279" lon="7.782060284020115"><ele>268.0</ele><time>2026-04-10T12:48:18Z</time></trkpt><trkpt lat="44.99380340037901" lon="7.782081633879161"><ele>268.0</ele><time>2026-04-10T12:48:20Z</time></trkpt><trkpt lat="44.993872808811524" lon="7.782104234883077"><ele>268.0</ele><time>2026-04-10T12:48:22Z</time></trkpt><trkpt lat="44.99393979006554" lon="7.7821273197649266"><ele>268.0</ele><time>2026-04-10T12:48:24Z</time></trkpt><trkpt lat="44.99402317135013" lon="7.781927115018712"><ele>268.5</ele><time>2026-04-10T12:48:29Z</time></trkpt><trkpt lat="44.994005691768685" lon="7.781800571062335"><ele>269.0</ele><time>2026-04-10T12:48:32Z</time></trkpt><trkpt lat="44.99399016974826" lon="7.781706226148529"><ele>269.5</ele><time>2026-04-10T12:48:34Z</time></trkpt><trkpt lat="44.99396988684137" lon="7.7815993929595635"><ele>270.0</ele><time>2026-04-10T12:48:36Z</time></trkpt><trkpt lat="44.993936575858825" lon="7.7815138976715135"><ele>270.5</ele><time>2026-04-10T12:48:38Z</time></trkpt><trkpt lat="44.99393564525217" lon="7.781394446747966"><ele>271.0</ele><time>2026-04-10T12:48:41Z</time></trkpt><trkpt lat="44.993898732606354" lon="7.7812708273887905"><ele>271.0</ele><time>2026-04-10T12:48:44Z</time></trkpt><trkpt lat="44.993888645023134" lon="7.781167139982266"><ele>271.0</ele><time>2026-04-10T12:48:47Z</time></trkpt><trkpt lat="44.99387634789894" lon="7.7810666067978165"><ele>271.0</ele><time>2026-04-10T12:48:49Z</time></trkpt><trkpt lat="44.993854733001605" lon="7.78093916982547"><ele>271.0</ele><time>2026-04-10T12:48:52Z</time></trkpt><trkpt lat="44.9938333005066" lon="7.780825110604366"><ele>271.0</ele><time>2026-04-10T12:48:55Z</time></trkpt><trkpt lat="44.99379676507961" lon="7.780720273162253"><ele>271.0</ele><time>2026-04-10T12:48:57Z</time></trkpt><trkpt lat="44.99378849214658" lon="7.7805993976897385"><ele>271.0</ele><time>2026-04-10T12:49:00Z</time></trkpt><trkpt lat="44.99373906956446" lon="7.780502575435951"><ele>271.0</ele><time>2026-04-10T12:49:03Z</time></trkpt><trkpt lat="44.99369750781783" lon="7.7804106588325315"><ele>271.0</ele><time>2026-04-10T12:49:06Z</time></trkpt><trkpt lat="44.99367750806578" lon="7.7802925074655995"><ele>271.0</ele><time>2026-04-10T12:49:09Z</time></trkpt><trkpt lat="44.99366346465041" lon="7.780165737031341"><ele>271.0</ele><time>2026-04-10T12:49:12Z</time></trkpt><trkpt lat="44.99363307937748" lon="7.780064500468119"><ele>271.0</ele><time>2026-04-10T12:49:15Z</time></trkpt><trkpt lat="44.99361370592998" lon="7.7799438275615405"><ele>271.66666666666663</ele><time>2026-04-10T12:49:18Z</time></trkpt><trkpt lat="44.99360797031136" lon="7.77982189660153"><ele>272.3333333333333</ele><time>2026-04-10T12:49:21Z</time></trkpt><trkpt lat="44.99357659183142" lon="7.779679189423337"><ele>273.0</ele><time>2026-04-10T12:49:24Z</time></trkpt><trkpt lat="44.99355793225258" lon="7.779576376134743"><ele>273.6666666666667</ele><time>2026-04-10T12:49:27Z</time></trkpt><trkpt lat="44.99354117630923" lon="7.7794565739562636"><ele>274.33333333333337</ele><time>2026-04-10T12:49:30Z</time></trkpt><trkpt lat="44.99353309180532" lon="7.779338204064475"><ele>275.0</ele><time>2026-04-10T12:49:33Z</time></trkpt><trkpt lat="44.993504980060706" lon="7.779223043274843"><ele>276.0</ele><time>2026-04-10T12:49:36Z</time></trkpt><trkpt lat="44.99350093669009" lon="7.779132865577534"><ele>277.0</ele><time>2026-04-10T12:49:38Z</time></trkpt><trkpt lat="44.99347689357509" lon="7.779048676314176"><ele>278.0</ele><time>2026-04-10T12:49:40Z</time></trkpt><trkpt lat="44.99345147186096" lon="7.778910812799872"><ele>279.0</ele><time>2026-04-10T12:49:43Z</time></trkpt><trkpt lat="44.99343613013419" lon="7.778820262842155"><ele>280.0</ele><time>2026-04-10T12:49:45Z</time></trkpt><trkpt lat="44.99342163132801" lon="7.778731155040529"><ele>281.0</ele><time>2026-04-10T12:49:47Z</time></trkpt><trkpt lat="44.99341450742071" lon="7.778606571264215"><ele>282.0</ele><time>2026-04-10T12:49:49Z</time></trkpt><trkpt lat="44.99338186946578" lon="7.778505714310241"><ele>282.2</ele><time>2026-04-10T12:49:51Z</time></trkpt><trkpt lat="44.9933640956947" lon="7.7783971526304825"><ele>282.4</ele><time>2026-04-10T12:49:53Z</time></trkpt><trkpt lat="44.99335436948467" lon="7.7782666148305655"><ele>282.6</ele><time>2026-04-10T12:49:55Z</time></trkpt><trkpt lat="44.99332027377337" lon="7.778141232955715"><ele>282.8</ele><time>2026-04-10T12:49:57Z</time></trkpt><trkpt lat="44.99329217055822" lon="7.77800272766084"><ele>283.0</ele><time>2026-04-10T12:49:59Z</time></trkpt><trkpt lat="44.99327666783724" lon="7.777857381132992"><ele>282.0</ele><time>2026-04-10T12:50:01Z</time></trkpt><trkpt lat="44.99323552615783" lon="7.777719579580391"><ele>281.0</ele><time>2026-04-10T12:50:03Z</time></trkpt><trkpt lat="44.99321319420876" lon="7.777575109168286"><ele>280.0</ele><time>2026-04-10T12:50:05Z</time></trkpt><trkpt lat="44.99319407242574" lon="7.777432704636849"><ele>279.0</ele><time>2026-04-10T12:50:07Z</time></trkpt><trkpt lat="44.99315697139527" lon="7.7772986636405586"><ele>278.0</ele><time>2026-04-10T12:50:09Z</time></trkpt><trkpt lat="44.99313012236037" lon="7.777167230554612"><ele>278.0</ele><time>2026-04-10T12:50:11Z</time></trkpt><trkpt lat="44.993101685249144" lon="7.777026060927896"><ele>278.0</ele><time>2026-04-10T12:50:13Z</time></trkpt><trkpt lat="44.99308217655854" lon="7.776888759059617"><ele>278.0</ele><time>2026-04-10T12:50:15Z</time></trkpt><trkpt lat="44.993052454147325" lon="7.776763945469887"><ele>278.0</ele><time>2026-04-10T12:50:17Z</time></trkpt><trkpt lat="44.993019173571504" lon="7.7766376937606845"><ele>278.0</ele><time>2026-04-10T12:50:19Z</time></trkpt><trkpt lat="44.992997072617776" lon="7.7765250800672385"><ele>277.8</ele><time>2026-04-10T12:50:21Z</time></trkpt><trkpt lat="44.992971440153724" lon="7.7763807915602365"><ele>277.6</ele><time>2026-04-10T12:50:23Z</time></trkpt><trkpt lat="44.99296195370786" lon="7.776244147289844"><ele>277.4</ele><time>2026-04-10T12:50:25Z</time></trkpt><trkpt lat="44.99292810929098" lon="7.776113138115468"><ele>277.2</ele><time>2026-04-10T12:50:27Z</time></trkpt><trkpt lat="44.992915226534116" lon="7.775977633953369"><ele>277.0</ele><time>2026-04-10T12:50:29Z</time></trkpt><trkpt lat="44.992883062706426" lon="7.775861622174933"><ele>276.6</ele><time>2026-04-10T12:50:31Z</time></trkpt><trkpt lat="44.99285547464654" lon="7.775714609323447"><ele>276.2</ele><time>2026-04-10T12:50:33Z</time></trkpt><trkpt lat="44.99281475255917" lon="7.775574123628314"><ele>275.8</ele><time>2026-04-10T12:50:35Z</time></trkpt><trkpt lat="44.99279145098938" lon="7.775424448269214"><ele>275.4</ele><time>2026-04-10T12:50:37Z</time></trkpt><trkpt lat="44.99277001645142" lon="7.775281253937448"><ele>275.0</ele><time>2026-04-10T12:50:39Z</time></trkpt><trkpt lat="44.99275487643674" lon="7.775116213354169"><ele>274.8</ele><time>2026-04-10T12:50:41Z</time></trkpt><trkpt lat="44.99273032929327" lon="7.774964450263314"><ele>274.6</ele><time>2026-04-10T12:50:43Z</time></trkpt><trkpt lat="44.992705008241224" lon="7.774805860614285"><ele>274.4</ele><time>2026-04-10T12:50:45Z</time></trkpt><trkpt lat="44.992689817410735" lon="7.774692798908868"><ele>274.2</ele><time>2026-04-10T12:50:47Z</time></trkpt><trkpt lat="44.992735910938784" lon="7.774596319409714"><ele>274.0</ele><time>2026-04-10T12:50:51Z</time></trkpt><trkpt lat="44.99281717294584" lon="7.774546616927472"><ele>274.0</ele><time>2026-04-10T12:50:53Z</time></trkpt><trkpt lat="44.99287565952476" lon="7.77450670419869"><ele>274.0</ele><time>2026-04-10T12:50:54Z</time></trkpt><trkpt lat="44.99297143736793" lon="7.7744714243266015"><ele>274.0</ele><time>2026-04-10T12:50:56Z</time></trkpt><trkpt lat="44.99307826947888" lon="7.774422209314534"><ele>274.0</ele><time>2026-04-10T12:50:58Z</time></trkpt><trkpt lat="44.9931703364785" lon="7.774377218467316"><ele>274.0</ele><time>2026-04-10T12:51:00Z</time></trkpt><trkpt lat="44.9932615645804" lon="7.774333350692593"><ele>273.0</ele><time>2026-04-10T12:51:02Z</time></trkpt><trkpt lat="44.99336422613896" lon="7.774287305236386"><ele>272.0</ele><time>2026-04-10T12:51:04Z</time></trkpt><trkpt lat="44.993468358892194" lon="7.774229931644057"><ele>271.0</ele><time>2026-04-10T12:51:06Z</time></trkpt><trkpt lat="44.99357367429619" lon="7.774170740520757"><ele>270.0</ele><time>2026-04-10T12:51:08Z</time></trkpt><trkpt lat="44.99367982470864" lon="7.774110987937974"><ele>269.0</ele><time>2026-04-10T12:51:10Z</time></trkpt><trkpt lat="44.99378379205013" lon="7.774057672324687"><ele>269.0</ele><time>2026-04-10T12:51:11.999Z</time></trkpt><trkpt lat="44.99388122900432" lon="7.774005760551545"><ele>269.0</ele><time>2026-04-10T12:51:13.999Z</time></trkpt><trkpt lat="44.993964220909604" lon="7.773976623315358"><ele>269.0</ele><time>2026-04-10T12:51:15.999Z</time></trkpt><trkpt lat="44.99394273309751" lon="7.773761647710418"><ele>269.0</ele><time>2026-04-10T12:51:17.999Z</time></trkpt><trkpt lat="44.9939354903989" lon="7.773586472322367"><ele>268.8571428571429</ele><time>2026-04-10T12:51:19.999Z</time></trkpt><trkpt lat="44.993926507835376" lon="7.773493780418473"><ele>268.7142857142857</ele><time>2026-04-10T12:51:20.999Z</time></trkpt><trkpt lat="44.99391639372985" lon="7.77340203539053"><ele>268.57142857142856</ele><time>2026-04-10T12:51:21.999Z</time></trkpt><trkpt lat="44.99391214904924" lon="7.773307923899989"><ele>268.42857142857144</ele><time>2026-04-10T12:51:22.999Z</time></trkpt><trkpt lat="44.99390204821096" lon="7.773214192224885"><ele>268.2857142857143</ele><time>2026-04-10T12:51:23.999Z</time></trkpt><trkpt lat="44.99388576804404" lon="7.773119564222979"><ele>268.14285714285717</ele><time>2026-04-10T12:51:24.999Z</time></trkpt><trkpt lat="44.993875643455574" lon="7.773022432130465"><ele>268.0</ele><time>2026-04-10T12:51:25.999Z</time></trkpt><trkpt lat="44.99386279286804" lon="7.7729254450395935"><ele>268.0</ele><time>2026-04-10T12:51:26.999Z</time></trkpt><trkpt lat="44.99385062088007" lon="7.772828907491398"><ele>268.0</ele><time>2026-04-10T12:51:27.999Z</time></trkpt><trkpt lat="44.99383943424542" lon="7.77273438670289"><ele>268.0</ele><time>2026-04-10T12:51:28.999Z</time></trkpt><trkpt lat="44.993829860175914" lon="7.772638475172535"><ele>268.0</ele><time>2026-04-10T12:51:29.999Z</time></trkpt><trkpt lat="44.993820496632424" lon="7.772542634163306"><ele>268.0</ele><time>2026-04-10T12:51:30.999Z</time></trkpt><trkpt lat="44.993811607360996" lon="7.772447368994553"><ele>268.0</ele><time>2026-04-10T12:51:31.999Z</time></trkpt><trkpt lat="44.993802415613736" lon="7.772352167696023"><ele>268.0</ele><time>2026-04-10T12:51:32.999Z</time></trkpt><trkpt lat="44.993797229593" lon="7.772257336264002"><ele>268.0</ele><time>2026-04-10T12:51:33.999Z</time></trkpt><trkpt lat="44.99378769367291" lon="7.772162443049517"><ele>268.0</ele><time>2026-04-10T12:51:34.999Z</time></trkpt><trkpt lat="44.993779614840484" lon="7.772070800754776"><ele>268.0</ele><time>2026-04-10T12:51:36Z</time></trkpt><trkpt lat="44.993775787324736" lon="7.77197946085775"><ele>268.0</ele><time>2026-04-10T12:51:37Z</time></trkpt><trkpt lat="44.99376677037481" lon="7.7718893115927665"><ele>268.0</ele><time>2026-04-10T12:51:38Z</time></trkpt><trkpt lat="44.99375881515264" lon="7.771798751881533"><ele>268.0</ele><time>2026-04-10T12:51:39Z</time></trkpt><trkpt lat="44.993748132725486" lon="7.771627254356281"><ele>268.0</ele><time>2026-04-10T12:51:41Z</time></trkpt><trkpt lat="44.99372679661659" lon="7.771453316099455"><ele>268.0</ele><time>2026-04-10T12:51:43Z</time></trkpt><trkpt lat="44.99371239163334" lon="7.771286299832001"><ele>268.0</ele><time>2026-04-10T12:51:45Z</time></trkpt><trkpt lat="44.99369564725304" lon="7.771128985153176"><ele>268.0</ele><time>2026-04-10T12:51:47Z</time></trkpt><trkpt lat="44.993679370750236" lon="7.7709742890310105"><ele>268.0</ele><time>2026-04-10T12:51:49Z</time></trkpt><trkpt lat="44.993678567255834" lon="7.770816684311308"><ele>268.0</ele><time>2026-04-10T12:51:51Z</time></trkpt><trkpt lat="44.993593999756584" lon="7.770689156759982"><ele>268.0</ele><time>2026-04-10T12:51:53Z</time></trkpt><trkpt lat="44.99348162951532" lon="7.770635901093148"><ele>268.0</ele><time>2026-04-10T12:51:55Z</time></trkpt><trkpt lat="44.99337318612034" lon="7.770586979367684"><ele>268.0</ele><time>2026-04-10T12:51:57Z</time></trkpt><trkpt lat="44.99326017764864" lon="7.770526751459947"><ele>268.0</ele><time>2026-04-10T12:51:59Z</time></trkpt><trkpt lat="44.993147236199945" lon="7.7704762382467125"><ele>268.0</ele><time>2026-04-10T12:52:01Z</time></trkpt><trkpt lat="44.99306952367869" lon="7.770354380411975"><ele>268.0</ele><time>2026-04-10T12:52:03Z</time></trkpt><trkpt lat="44.99302103488823" lon="7.770235225760606"><ele>268.0</ele><time>2026-04-10T12:52:05Z</time></trkpt><trkpt lat="44.993015926994595" lon="7.770069942707716"><ele>268.0</ele><time>2026-04-10T12:52:07Z</time></trkpt><trkpt lat="44.993007126760105" lon="7.769914270612954"><ele>268.6</ele><time>2026-04-10T12:52:09Z</time></trkpt><trkpt lat="44.992972155471946" lon="7.769761252054254"><ele>269.20000000000005</ele><time>2026-04-10T12:52:11Z</time></trkpt><trkpt lat="44.99295667845305" lon="7.769597082510411"><ele>269.8</ele><time>2026-04-10T12:52:13Z</time></trkpt><trkpt lat="44.99294048388757" lon="7.769455606623471"><ele>270.40000000000003</ele><time>2026-04-10T12:52:15Z</time></trkpt><trkpt lat="44.992936479419676" lon="7.769319464433661"><ele>271.0</ele><time>2026-04-10T12:52:17Z</time></trkpt><trkpt lat="44.99294416766553" lon="7.769182862804991"><ele>271.16666666666663</ele><time>2026-04-10T12:52:19Z</time></trkpt><trkpt lat="44.992968194823455" lon="7.769062640134751"><ele>271.3333333333333</ele><time>2026-04-10T12:52:21Z</time></trkpt><trkpt lat="44.99300470410689" lon="7.768942093041702"><ele>271.5</ele><time>2026-04-10T12:52:23Z</time></trkpt><trkpt lat="44.99303977400737" lon="7.768817948780672"><ele>271.6666666666667</ele><time>2026-04-10T12:52:25Z</time></trkpt><trkpt lat="44.993049532110014" lon="7.768699801876521"><ele>271.83333333333337</ele><time>2026-04-10T12:52:27Z</time></trkpt><trkpt lat="44.99307141180357" lon="7.768581788793521"><ele>272.0</ele><time>2026-04-10T12:52:29Z</time></trkpt><trkpt lat="44.99309569862802" lon="7.768475434169938"><ele>271.6666666666667</ele><time>2026-04-10T12:52:31Z</time></trkpt><trkpt lat="44.993108323616156" lon="7.768368431414612"><ele>271.33333333333337</ele><time>2026-04-10T12:52:33Z</time></trkpt><trkpt lat="44.99311693186287" lon="7.7682557624972794"><ele>271.0</ele><time>2026-04-10T12:52:35Z</time></trkpt><trkpt lat="44.99313467192141" lon="7.768136749778553"><ele>270.6666666666667</ele><time>2026-04-10T12:52:37Z</time></trkpt><trkpt lat="44.99315101190178" lon="7.7680257983131655"><ele>270.3333333333333</ele><time>2026-04-10T12:52:39Z</time></trkpt><trkpt lat="44.99316112773967" lon="7.767917864342116"><ele>270.0</ele><time>2026-04-10T12:52:41Z</time></trkpt><trkpt lat="44.99317363872888" lon="7.767799040219255"><ele>269.8333333333333</ele><time>2026-04-10T12:52:43Z</time></trkpt><trkpt lat="44.99319065270878" lon="7.767681343730615"><ele>269.6666666666667</ele><time>2026-04-10T12:52:45Z</time></trkpt><trkpt lat="44.9932113557534" lon="7.767565385638933"><ele>269.5</ele><time>2026-04-10T12:52:47Z</time></trkpt><trkpt lat="44.993231416396775" lon="7.767457612293375"><ele>269.33333333333337</ele><time>2026-04-10T12:52:49Z</time></trkpt><trkpt lat="44.99325256610701" lon="7.7673441457642065"><ele>269.1666666666667</ele><time>2026-04-10T12:52:51Z</time></trkpt><trkpt lat="44.99327716696319" lon="7.76722891372776"><ele>269.0</ele><time>2026-04-10T12:52:53Z</time></trkpt><trkpt lat="44.9932926524268" lon="7.767119864380521"><ele>269.0</ele><time>2026-04-10T12:52:55Z</time></trkpt><trkpt lat="44.99331934153197" lon="7.766999816764695"><ele>269.0</ele><time>2026-04-10T12:52:57Z</time></trkpt><trkpt lat="44.993342075425986" lon="7.76687533143667"><ele>269.0</ele><time>2026-04-10T12:52:59Z</time></trkpt><trkpt lat="44.99335622363148" lon="7.766742188309399"><ele>269.0</ele><time>2026-04-10T12:53:01Z</time></trkpt><trkpt lat="44.993385773914554" lon="7.766599041437141"><ele>269.0</ele><time>2026-04-10T12:53:03Z</time></trkpt><trkpt lat="44.993410006538575" lon="7.766463640255024"><ele>268.8</ele><time>2026-04-10T12:53:05Z</time></trkpt><trkpt lat="44.99343398496248" lon="7.766356821181759"><ele>268.59999999999997</ele><time>2026-04-10T12:53:07Z</time></trkpt><trkpt lat="44.99343476609402" lon="7.766263598397101"><ele>268.4</ele><time>2026-04-10T12:53:09Z</time></trkpt><trkpt lat="44.9933358862852" lon="7.7662341046095875"><ele>268.2</ele><time>2026-04-10T12:53:11Z</time></trkpt><trkpt lat="44.993212762608614" lon="7.7662335344278555"><ele>268.0</ele><time>2026-04-10T12:53:13Z</time></trkpt><trkpt lat="44.99309052721294" lon="7.7662504674087245"><ele>267.8</ele><time>2026-04-10T12:53:15Z</time></trkpt><trkpt lat="44.992963088589" lon="7.766274824082553"><ele>267.6</ele><time>2026-04-10T12:53:16.999Z</time></trkpt><trkpt lat="44.99287418014594" lon="7.766294994327504"><ele>267.4</ele><time>2026-04-10T12:53:18.999Z</time></trkpt><trkpt lat="44.99276616282616" lon="7.7663296053706565"><ele>267.2</ele><time>2026-04-10T12:53:20.999Z</time></trkpt><trkpt lat="44.9926688116384" lon="7.766375144155084"><ele>267.0</ele><time>2026-04-10T12:53:22.999Z</time></trkpt><trkpt lat="44.992587498919036" lon="7.766413555135179"><ele>266.8333333333333</ele><time>2026-04-10T12:53:24.999Z</time></trkpt><trkpt lat="44.9925020040121" lon="7.766444285700326"><ele>266.6666666666667</ele><time>2026-04-10T12:53:26.999Z</time></trkpt><trkpt lat="44.99241023581304" lon="7.766469870679811"><ele>266.5</ele><time>2026-04-10T12:53:28.999Z</time></trkpt><trkpt lat="44.992329860538916" lon="7.766484958494803"><ele>266.33333333333337</ele><time>2026-04-10T12:53:30.999Z</time></trkpt><trkpt lat="44.99223965570794" lon="7.766499265542157"><ele>266.1666666666667</ele><time>2026-04-10T12:53:32.999Z</time></trkpt><trkpt lat="44.99214891426378" lon="7.766500760953972"><ele>266.0</ele><time>2026-04-10T12:53:34.999Z</time></trkpt><trkpt lat="44.992065736506994" lon="7.766487458770744"><ele>266.0</ele><time>2026-04-10T12:53:37Z</time></trkpt><trkpt lat="44.991993841540555" lon="7.76641250923746"><ele>266.0</ele><time>2026-04-10T12:53:40Z</time></trkpt><trkpt lat="44.99198942163756" lon="7.766317018824985"><ele>266.0</ele><time>2026-04-10T12:53:42Z</time></trkpt><trkpt lat="44.9919889688106" lon="7.766199120905909"><ele>266.0</ele><time>2026-04-10T12:53:44Z</time></trkpt><trkpt lat="44.99198245573229" lon="7.766090458078741"><ele>266.0</ele><time>2026-04-10T12:53:46Z</time></trkpt><trkpt lat="44.99199655001982" lon="7.765956318377917"><ele>266.0</ele><time>2026-04-10T12:53:49Z</time></trkpt><trkpt lat="44.992001100802014" lon="7.765865473763118"><ele>266.0</ele><time>2026-04-10T12:53:51Z</time></trkpt><trkpt lat="44.99200412078468" lon="7.765773572496788"><ele>266.0</ele><time>2026-04-10T12:53:53Z</time></trkpt><trkpt lat="44.99200625741347" lon="7.765681185684121"><ele>266.0</ele><time>2026-04-10T12:53:55Z</time></trkpt><trkpt lat="44.992001347058604" lon="7.765585420768621"><ele>266.0</ele><time>2026-04-10T12:53:57Z</time></trkpt><trkpt lat="44.992001214741954" lon="7.7654909291760115"><ele>266.0</ele><time>2026-04-10T12:53:59Z</time></trkpt><trkpt lat="44.99200399663082" lon="7.765392011840633"><ele>266.0</ele><time>2026-04-10T12:54:01Z</time></trkpt><trkpt lat="44.99200588280623" lon="7.765301821659804"><ele>266.0</ele><time>2026-04-10T12:54:03Z</time></trkpt><trkpt lat="44.99200919995236" lon="7.765203155869168"><ele>266.33333333333337</ele><time>2026-04-10T12:54:06Z</time></trkpt><trkpt lat="44.99200709792605" lon="7.765083241171921"><ele>266.6666666666667</ele><time>2026-04-10T12:54:09Z</time></trkpt><trkpt lat="44.99202252498955" lon="7.764956249959463"><ele>267.0</ele><time>2026-04-10T12:54:12Z</time></trkpt><trkpt lat="44.99202973993027" lon="7.764835602941507"><ele>267.3333333333333</ele><time>2026-04-10T12:54:15Z</time></trkpt><trkpt lat="44.992038210319095" lon="7.764717172281775"><ele>267.66666666666663</ele><time>2026-04-10T12:54:18Z</time></trkpt><trkpt lat="44.99204576519737" lon="7.764594992743034"><ele>268.0</ele><time>2026-04-10T12:54:22Z</time></trkpt><trkpt lat="44.992058272078665" lon="7.764503623428347"><ele>268.0</ele><time>2026-04-10T12:54:25Z</time></trkpt><trkpt lat="44.99206428056823" lon="7.764398791907815"><ele>268.0</ele><time>2026-04-10T12:54:28Z</time></trkpt><trkpt lat="44.992077397602316" lon="7.7642924223317165"><ele>268.0</ele><time>2026-04-10T12:54:31Z</time></trkpt><trkpt lat="44.992088636911326" lon="7.7641706979450165"><ele>268.0</ele><time>2026-04-10T12:54:34Z</time></trkpt><trkpt lat="44.99210848045365" lon="7.764054150920208"><ele>268.0</ele><time>2026-04-10T12:54:37Z</time></trkpt><trkpt lat="44.99211695795991" lon="7.763946239201443"><ele>268.0</ele><time>2026-04-10T12:54:40Z</time></trkpt><trkpt lat="44.992134343488665" lon="7.7638339147829125"><ele>268.2857142857143</ele><time>2026-04-10T12:54:43Z</time></trkpt><trkpt lat="44.99214010136368" lon="7.763721280412849"><ele>268.57142857142856</ele><time>2026-04-10T12:54:46Z</time></trkpt><trkpt lat="44.99215175564553" lon="7.763617203037261"><ele>268.85714285714283</ele><time>2026-04-10T12:54:49Z</time></trkpt><trkpt lat="44.992158421015326" lon="7.76352305120707"><ele>269.1428571428571</ele><time>2026-04-10T12:54:52Z</time></trkpt><trkpt lat="44.992166854840285" lon="7.763420805818582"><ele>269.4285714285714</ele><time>2026-04-10T12:54:54Z</time></trkpt><trkpt lat="44.992165960616" lon="7.763330508847987"><ele>269.7142857142857</ele><time>2026-04-10T12:54:58Z</time></trkpt><trkpt lat="44.99217749435737" lon="7.763220177630035"><ele>270.0</ele><time>2026-04-10T12:55:01Z</time></trkpt><trkpt lat="44.99218107901437" lon="7.763127975015622"><ele>270.2857142857143</ele><time>2026-04-10T12:55:04Z</time></trkpt><trkpt lat="44.992191000739275" lon="7.763024379878837"><ele>270.57142857142856</ele><time>2026-04-10T12:55:07Z</time></trkpt><trkpt lat="44.99219812689886" lon="7.762913525047397"><ele>270.85714285714283</ele><time>2026-04-10T12:55:10Z</time></trkpt><trkpt lat="44.99220428392582" lon="7.762813724713251"><ele>271.1428571428571</ele><time>2026-04-10T12:55:13Z</time></trkpt><trkpt lat="44.99220471773321" lon="7.762709712347749"><ele>271.42857142857144</ele><time>2026-04-10T12:55:16Z</time></trkpt><trkpt lat="44.99224486211674" lon="7.762630906329552"><ele>271.71428571428567</ele><time>2026-04-10T12:55:20Z</time></trkpt><trkpt lat="44.9922849828295" lon="7.762559196570189"><ele>272.0</ele><time>2026-04-10T12:55:23Z</time></trkpt><trkpt lat="44.99231267422064" lon="7.762457617227497"><ele>272.6666666666667</ele><time>2026-04-10T12:55:26Z</time></trkpt><trkpt lat="44.99233718280824" lon="7.762339468422709"><ele>273.33333333333337</ele><time>2026-04-10T12:55:29Z</time></trkpt><trkpt lat="44.99235070456668" lon="7.7622147268443555"><ele>274.0</ele><time>2026-04-10T12:55:32Z</time></trkpt><trkpt lat="44.992381239804246" lon="7.762093378244311"><ele>274.6666666666667</ele><time>2026-04-10T12:55:35Z</time></trkpt><trkpt lat="44.99240082262277" lon="7.762007661264175"><ele>275.3333333333333</ele><time>2026-04-10T12:55:37Z</time></trkpt><trkpt lat="44.992423279956654" lon="7.761923298638939"><ele>276.0</ele><time>2026-04-10T12:55:39Z</time></trkpt><trkpt lat="44.99244877056112" lon="7.761805147455266"><ele>276.3333333333333</ele><time>2026-04-10T12:55:42Z</time></trkpt><trkpt lat="44.99247448870837" lon="7.761710475004274"><ele>276.6666666666667</ele><time>2026-04-10T12:55:45Z</time></trkpt><trkpt lat="44.99249887204435" lon="7.76160551139539"><ele>277.0</ele><time>2026-04-10T12:55:48Z</time></trkpt><trkpt lat="44.99251834018004" lon="7.761505348505383"><ele>277.33333333333337</ele><time>2026-04-10T12:55:51Z</time></trkpt><trkpt lat="44.992546026709476" lon="7.761403509951632"><ele>277.6666666666667</ele><time>2026-04-10T12:55:54Z</time></trkpt><trkpt lat="44.99255769701106" lon="7.761307633012922"><ele>278.0</ele><time>2026-04-10T12:55:57Z</time></trkpt><trkpt lat="44.99258431057799" lon="7.761198118637995"><ele>278.1666666666667</ele><time>2026-04-10T12:56:00Z</time></trkpt><trkpt lat="44.992612500477705" lon="7.761093369775683"><ele>278.33333333333337</ele><time>2026-04-10T12:56:03Z</time></trkpt><trkpt lat="44.99263793499591" lon="7.760988555749509"><ele>278.5</ele><time>2026-04-10T12:56:06Z</time></trkpt><trkpt lat="44.9926667127329" lon="7.760882055759472"><ele>278.6666666666667</ele><time>2026-04-10T12:56:09Z</time></trkpt><trkpt lat="44.99269431501879" lon="7.760792934370633"><ele>278.8333333333333</ele><time>2026-04-10T12:56:12Z</time></trkpt><trkpt lat="44.992715642562324" lon="7.760701673626714"><ele>279.0</ele><time>2026-04-10T12:56:15Z</time></trkpt><trkpt lat="44.992733992687455" lon="7.760599343231076"><ele>280.1428571428571</ele><time>2026-04-10T12:56:19Z</time></trkpt><trkpt lat="44.99274286356499" lon="7.760504579276605"><ele>281.2857142857143</ele><time>2026-04-10T12:56:22Z</time></trkpt><trkpt lat="44.99275023454608" lon="7.760404618487457"><ele>282.42857142857144</ele><time>2026-04-10T12:56:25Z</time></trkpt><trkpt lat="44.99276427309696" lon="7.7603121680445115"><ele>283.57142857142856</ele><time>2026-04-10T12:56:28Z</time></trkpt><trkpt lat="44.99279288558875" lon="7.7602296277950735"><ele>284.7142857142857</ele><time>2026-04-10T12:56:31Z</time></trkpt><trkpt lat="44.992817223822456" lon="7.760146198417478"><ele>285.85714285714283</ele><time>2026-04-10T12:56:34Z</time></trkpt><trkpt lat="44.99284466151867" lon="7.760038813903384"><ele>287.0</ele><time>2026-04-10T12:56:38Z</time></trkpt><trkpt lat="44.992866279208485" lon="7.759933870880512"><ele>287.7142857142857</ele><time>2026-04-10T12:56:42Z</time></trkpt><trkpt lat="44.99288987959628" lon="7.759843188169557"><ele>288.42857142857144</ele><time>2026-04-10T12:56:46Z</time></trkpt><trkpt lat="44.99289904779708" lon="7.759737179810856"><ele>289.1428571428571</ele><time>2026-04-10T12:56:51Z</time></trkpt><trkpt lat="44.99292811363377" lon="7.759648229112669"><ele>289.8571428571429</ele><time>2026-04-10T12:56:55Z</time></trkpt><trkpt lat="44.992954086661854" lon="7.759535471878476"><ele>290.57142857142856</ele><time>2026-04-10T12:56:59Z</time></trkpt><trkpt lat="44.99297504545488" lon="7.759449774670825"><ele>291.2857142857143</ele><time>2026-04-10T12:57:02Z</time></trkpt><trkpt lat="44.99299694981511" lon="7.759355259037978"><ele>292.0</ele><time>2026-04-10T12:57:05Z</time></trkpt><trkpt lat="44.99302525782128" lon="7.75925344600374"><ele>292.0</ele><time>2026-04-10T12:57:08Z</time></trkpt><trkpt lat="44.9930442176799" lon="7.759167321139226"><ele>292.0</ele><time>2026-04-10T12:57:11Z</time></trkpt><trkpt lat="44.99293618188102" lon="7.759037738605344"><ele>292.0</ele><time>2026-04-10T12:57:17Z</time></trkpt><trkpt lat="44.99286571594213" lon="7.759055759610653"><ele>292.0</ele><time>2026-04-10T12:57:19Z</time></trkpt><trkpt lat="44.99279093916712" lon="7.759079660349773"><ele>292.0</ele><time>2026-04-10T12:57:21Z</time></trkpt><trkpt lat="44.99271076365479" lon="7.759106228929374"><ele>292.0</ele><time>2026-04-10T12:57:23Z</time></trkpt><trkpt lat="44.99263212801781" lon="7.759134781987252"><ele>292.0</ele><time>2026-04-10T12:57:25Z</time></trkpt><trkpt lat="44.992545062185286" lon="7.759167427175174"><ele>292.0</ele><time>2026-04-10T12:57:27Z</time></trkpt><trkpt lat="44.992464163753574" lon="7.759186453406384"><ele>292.0</ele><time>2026-04-10T12:57:29Z</time></trkpt><trkpt lat="44.99236722783507" lon="7.75919528289661"><ele>292.0</ele><time>2026-04-10T12:57:31Z</time></trkpt><trkpt lat="44.99227196592816" lon="7.759200677903977"><ele>292.0</ele><time>2026-04-10T12:57:33Z</time></trkpt><trkpt lat="44.992190265711365" lon="7.7592061830647205"><ele>292.0</ele><time>2026-04-10T12:57:35Z</time></trkpt><trkpt lat="44.99210633404685" lon="7.759214066737693"><ele>291.5</ele><time>2026-04-10T12:57:37Z</time></trkpt><trkpt lat="44.99202616037995" lon="7.759219076517496"><ele>291.0</ele><time>2026-04-10T12:57:39Z</time></trkpt><trkpt lat="44.991935660200205" lon="7.7592203126129595"><ele>290.5</ele><time>2026-04-10T12:57:41Z</time></trkpt><trkpt lat="44.991858519283944" lon="7.75920244055335"><ele>290.0</ele><time>2026-04-10T12:57:43Z</time></trkpt><trkpt lat="44.99177918963088" lon="7.7591643764103315"><ele>289.5</ele><time>2026-04-10T12:57:45Z</time></trkpt><trkpt lat="44.99169913029806" lon="7.759123243720186"><ele>289.0</ele><time>2026-04-10T12:57:47Z</time></trkpt><trkpt lat="44.99161161770106" lon="7.759070752239625"><ele>288.8333333333333</ele><time>2026-04-10T12:57:49Z</time></trkpt><trkpt lat="44.99152331957095" lon="7.759025548461338"><ele>288.66666666666663</ele><time>2026-04-10T12:57:51Z</time></trkpt><trkpt lat="44.991436431092374" lon="7.758994917848321"><ele>288.5</ele><time>2026-04-10T12:57:53Z</time></trkpt><trkpt lat="44.991354592701356" lon="7.758960537346608"><ele>288.3333333333333</ele><time>2026-04-10T12:57:55Z</time></trkpt><trkpt lat="44.991273946076085" lon="7.75892482890075"><ele>288.1666666666667</ele><time>2026-04-10T12:57:57Z</time></trkpt><trkpt lat="44.99118254977288" lon="7.758884360722249"><ele>288.0</ele><time>2026-04-10T12:57:59Z</time></trkpt><trkpt lat="44.99108317780395" lon="7.758840865599946"><ele>288.0</ele><time>2026-04-10T12:58:01Z</time></trkpt><trkpt lat="44.99097793224603" lon="7.758818619646603"><ele>288.0</ele><time>2026-04-10T12:58:03Z</time></trkpt><trkpt lat="44.99088075133078" lon="7.758773303296541"><ele>288.0</ele><time>2026-04-10T12:58:05Z</time></trkpt><trkpt lat="44.99078704910846" lon="7.7587397549351"><ele>288.0</ele><time>2026-04-10T12:58:07Z</time></trkpt><trkpt lat="44.99068647372064" lon="7.758711539389539"><ele>288.0</ele><time>2026-04-10T12:58:09Z</time></trkpt><trkpt lat="44.990595128586136" lon="7.75866099210191"><ele>288.0</ele><time>2026-04-10T12:58:11Z</time></trkpt><trkpt lat="44.99047944565657" lon="7.758626055281935"><ele>288.0</ele><time>2026-04-10T12:58:13Z</time></trkpt><trkpt lat="44.99041232882336" lon="7.758603647789526"><ele>288.0</ele><time>2026-04-10T12:58:14Z</time></trkpt><trkpt lat="44.99028761788369" lon="7.7585558013185825"><ele>288.0</ele><time>2026-04-10T12:58:16Z</time></trkpt><trkpt lat="44.990211172162795" lon="7.758537133955512"><ele>288.0</ele><time>2026-04-10T12:58:17Z</time></trkpt><trkpt lat="44.99014516847883" lon="7.758521016594946"><ele>288.1666666666667</ele><time>2026-04-10T12:58:18Z</time></trkpt><trkpt lat="44.99008197146875" lon="7.758505584506982"><ele>288.3333333333333</ele><time>2026-04-10T12:58:19Z</time></trkpt><trkpt lat="44.98997383695051" lon="7.758480822677114"><ele>288.5</ele><time>2026-04-10T12:58:21Z</time></trkpt><trkpt lat="44.98989315661458" lon="7.758451901109056"><ele>288.66666666666663</ele><time>2026-04-10T12:58:22Z</time></trkpt><trkpt lat="44.9898276870567" lon="7.758427964559897"><ele>288.8333333333333</ele><time>2026-04-10T12:58:23Z</time></trkpt><trkpt lat="44.98976321675327" lon="7.758403603072684"><ele>289.0</ele><time>2026-04-10T12:58:24Z</time></trkpt><trkpt lat="44.98969387184404" lon="7.75837417641198"><ele>288.66666666666663</ele><time>2026-04-10T12:58:25Z</time></trkpt><trkpt lat="44.9896297640299" lon="7.758344950140644"><ele>288.3333333333333</ele><time>2026-04-10T12:58:26Z</time></trkpt><trkpt lat="44.98951969631735" lon="7.758295054432228"><ele>288.0</ele><time>2026-04-10T12:58:28Z</time></trkpt><trkpt lat="44.989448444677535" lon="7.758252883215319"><ele>287.6666666666667</ele><time>2026-04-10T12:58:29Z</time></trkpt><trkpt lat="44.989384472020916" lon="7.758214132558809"><ele>287.33333333333337</ele><time>2026-04-10T12:58:30Z</time></trkpt><trkpt lat="44.98932141059973" lon="7.758176851542591"><ele>287.0</ele><time>2026-04-10T12:58:31Z</time></trkpt><trkpt lat="44.98926115260037" lon="7.758141228058626"><ele>286.2</ele><time>2026-04-10T12:58:32Z</time></trkpt><trkpt lat="44.989142580493215" lon="7.758074338478263"><ele>285.4</ele><time>2026-04-10T12:58:34Z</time></trkpt><trkpt lat="44.98907888088304" lon="7.758044932805326"><ele>284.6</ele><time>2026-04-10T12:58:35Z</time></trkpt><trkpt lat="44.989015104959115" lon="7.7580353677265546"><ele>283.8</ele><time>2026-04-10T12:58:36Z</time></trkpt><trkpt lat="44.9888907067445" lon="7.758003674984943"><ele>283.0</ele><time>2026-04-10T12:58:38Z</time></trkpt><trkpt lat="44.98882410715014" lon="7.7580002327469115"><ele>283.0</ele><time>2026-04-10T12:58:39Z</time></trkpt><trkpt lat="44.98875971157334" lon="7.7580076726655065"><ele>283.0</ele><time>2026-04-10T12:58:40Z</time></trkpt><trkpt lat="44.98869700960315" lon="7.7579912970062495"><ele>283.0</ele><time>2026-04-10T12:58:41Z</time></trkpt><trkpt lat="44.988573581109904" lon="7.758012753229429"><ele>283.0</ele><time>2026-04-10T12:58:43Z</time></trkpt><trkpt lat="44.98850410034886" lon="7.7580292092015775"><ele>283.0</ele><time>2026-04-10T12:58:44Z</time></trkpt><trkpt lat="44.988438301421674" lon="7.75804861589761"><ele>283.0</ele><time>2026-04-10T12:58:45Z</time></trkpt><trkpt lat="44.988347036047784" lon="7.758076676998711"><ele>282.66666666666663</ele><time>2026-04-10T12:58:47Z</time></trkpt><trkpt lat="44.98826340389381" lon="7.758101194768307"><ele>282.3333333333333</ele><time>2026-04-10T12:58:48Z</time></trkpt><trkpt lat="44.9881889997032" lon="7.758120320078396"><ele>282.0</ele><time>2026-04-10T12:58:49Z</time></trkpt><trkpt lat="44.98812463248653" lon="7.758136865451421"><ele>281.6666666666667</ele><time>2026-04-10T12:58:50Z</time></trkpt><trkpt lat="44.98805781131738" lon="7.758153203716877"><ele>281.33333333333337</ele><time>2026-04-10T12:58:51Z</time></trkpt><trkpt lat="44.987990789444915" lon="7.758169357570382"><ele>281.0</ele><time>2026-04-10T12:58:52Z</time></trkpt><trkpt lat="44.98786878508235" lon="7.758198763514442"><ele>281.0</ele><time>2026-04-10T12:58:54Z</time></trkpt><trkpt lat="44.987753525487044" lon="7.7582389477925355"><ele>281.0</ele><time>2026-04-10T12:58:56Z</time></trkpt><trkpt lat="44.98764044369959" lon="7.758261160201871"><ele>281.0</ele><time>2026-04-10T12:58:58Z</time></trkpt><trkpt lat="44.98754240908643" lon="7.7582832251135825"><ele>281.0</ele><time>2026-04-10T12:59:00Z</time></trkpt><trkpt lat="44.98743206333643" lon="7.758294995758786"><ele>281.0</ele><time>2026-04-10T12:59:02Z</time></trkpt><trkpt lat="44.987314670347935" lon="7.758297242568253"><ele>281.2</ele><time>2026-04-10T12:59:04Z</time></trkpt><trkpt lat="44.98720792223441" lon="7.758293610753382"><ele>281.40000000000003</ele><time>2026-04-10T12:59:06Z</time></trkpt><trkpt lat="44.98710894530888" lon="7.758285421602591"><ele>281.6</ele><time>2026-04-10T12:59:08Z</time></trkpt><trkpt lat="44.98701216802444" lon="7.758264747543"><ele>281.8</ele><time>2026-04-10T12:59:10Z</time></trkpt><trkpt lat="44.98691972759663" lon="7.758229024012133"><ele>282.0</ele><time>2026-04-10T12:59:12Z</time></trkpt><trkpt lat="44.986821969605934" lon="7.7581799799563"><ele>282.0</ele><time>2026-04-10T12:59:14Z</time></trkpt><trkpt lat="44.98672483245783" lon="7.7581287150146805"><ele>282.0</ele><time>2026-04-10T12:59:16Z</time></trkpt><trkpt lat="44.98662931331946" lon="7.758080300138227"><ele>282.0</ele><time>2026-04-10T12:59:18Z</time></trkpt><trkpt lat="44.986540536996245" lon="7.758040321316418"><ele>282.0</ele><time>2026-04-10T12:59:20Z</time></trkpt><trkpt lat="44.986453051811395" lon="7.758020302613086"><ele>282.0</ele><time>2026-04-10T12:59:22Z</time></trkpt><trkpt lat="44.98635765400162" lon="7.757959299053086"><ele>281.2</ele><time>2026-04-10T12:59:24Z</time></trkpt><trkpt lat="44.986252002110255" lon="7.75791654160669"><ele>280.4</ele><time>2026-04-10T12:59:26Z</time></trkpt><trkpt lat="44.98619123137885" lon="7.7578914800019305"><ele>279.6</ele><time>2026-04-10T12:59:27Z</time></trkpt><trkpt lat="44.98607153581756" lon="7.757847243397571"><ele>278.8</ele><time>2026-04-10T12:59:29Z</time></trkpt><trkpt lat="44.98595429465878" lon="7.757809604878427"><ele>278.0</ele><time>2026-04-10T12:59:31Z</time></trkpt><trkpt lat="44.985847721437665" lon="7.757775873831179"><ele>277.2</ele><time>2026-04-10T12:59:33Z</time></trkpt><trkpt lat="44.98573583983932" lon="7.757741319351969"><ele>276.4</ele><time>2026-04-10T12:59:35Z</time></trkpt><trkpt lat="44.9856197022921" lon="7.757716908634438"><ele>275.59999999999997</ele><time>2026-04-10T12:59:37Z</time></trkpt><trkpt lat="44.9855602466367" lon="7.757687087617371"><ele>274.8</ele><time>2026-04-10T12:59:38Z</time></trkpt><trkpt lat="44.985446981429575" lon="7.757652105795712"><ele>274.0</ele><time>2026-04-10T12:59:40Z</time></trkpt><trkpt lat="44.98532163577888" lon="7.757635437747371"><ele>274.0</ele><time>2026-04-10T12:59:42Z</time></trkpt><trkpt lat="44.98520400394996" lon="7.757587252546129"><ele>274.0</ele><time>2026-04-10T12:59:44Z</time></trkpt><trkpt lat="44.98508683921297" lon="7.75753808369376"><ele>274.0</ele><time>2026-04-10T12:59:46Z</time></trkpt><trkpt lat="44.98497607717452" lon="7.757475404563018"><ele>274.0</ele><time>2026-04-10T12:59:48Z</time></trkpt><trkpt lat="44.9848698771775" lon="7.7574529945684025"><ele>274.0</ele><time>2026-04-10T12:59:50Z</time></trkpt><trkpt lat="44.98476370205479" lon="7.757412588571944"><ele>274.0</ele><time>2026-04-10T12:59:52Z</time></trkpt><trkpt lat="44.98465345499028" lon="7.757390672857699"><ele>274.0</ele><time>2026-04-10T12:59:54Z</time></trkpt><trkpt lat="44.984557048699365" lon="7.7573256267107125"><ele>274.0</ele><time>2026-04-10T12:59:56Z</time></trkpt><trkpt lat="44.98444831367467" lon="7.757278380772484"><ele>274.0</ele><time>2026-04-10T12:59:58Z</time></trkpt><trkpt lat="44.984345520316126" lon="7.757229259554108"><ele>274.0</ele><time>2026-04-10T13:00:00Z</time></trkpt><trkpt lat="44.98425278784647" lon="7.7571655301074705"><ele>274.0</ele><time>2026-04-10T13:00:02Z</time></trkpt><trkpt lat="44.98415903893391" lon="7.757086893769457"><ele>274.0</ele><time>2026-04-10T13:00:04Z</time></trkpt><trkpt lat="44.98406017254365" lon="7.75704503922515"><ele>274.0</ele><time>2026-04-10T13:00:06Z</time></trkpt><trkpt lat="44.98396235697301" lon="7.757000237697483"><ele>274.0</ele><time>2026-04-10T13:00:08Z</time></trkpt><trkpt lat="44.98385357803835" lon="7.756967057323054"><ele>273.59999999999997</ele><time>2026-04-10T13:00:10Z</time></trkpt><trkpt lat="44.98373480455861" lon="7.756973266123161"><ele>273.2</ele><time>2026-04-10T13:00:12Z</time></trkpt><trkpt lat="44.98361931845435" lon="7.756981886615805"><ele>272.79999999999995</ele><time>2026-04-10T13:00:14Z</time></trkpt><trkpt lat="44.98352046438491" lon="7.756979254401419"><ele>272.4</ele><time>2026-04-10T13:00:16Z</time></trkpt><trkpt lat="44.98341633548678" lon="7.756970286837858"><ele>272.0</ele><time>2026-04-10T13:00:18Z</time></trkpt><trkpt lat="44.983305410029345" lon="7.756971673397277"><ele>272.0</ele><time>2026-04-10T13:00:20Z</time></trkpt><trkpt lat="44.983234684872244" lon="7.75698528381121"><ele>272.0</ele><time>2026-04-10T13:00:21Z</time></trkpt><trkpt lat="44.983133361435456" lon="7.756973794916275"><ele>272.0</ele><time>2026-04-10T13:00:23Z</time></trkpt><trkpt lat="44.98302081380705" lon="7.756960412377849"><ele>272.0</ele><time>2026-04-10T13:00:25Z</time></trkpt><trkpt lat="44.98293282058106" lon="7.756965478093899"><ele>272.0</ele><time>2026-04-10T13:00:27Z</time></trkpt><trkpt lat="44.982856360639516" lon="7.757007710082387"><ele>272.0</ele><time>2026-04-10T13:00:29Z</time></trkpt><trkpt lat="44.98277029227102" lon="7.7570715898127105"><ele>272.0</ele><time>2026-04-10T13:00:31Z</time></trkpt><trkpt lat="44.98270558914376" lon="7.757125124918631"><ele>272.0</ele><time>2026-04-10T13:00:43Z</time></trkpt><trkpt lat="44.982658994337946" lon="7.757203428715889"><ele>272.0</ele><time>2026-04-10T13:01:32Z</time></trkpt><trkpt lat="44.98260912029557" lon="7.757316043863017"><ele>272.0</ele><time>2026-04-10T13:01:35Z</time></trkpt><trkpt lat="44.982584767366895" lon="7.757437657501404"><ele>272.0</ele><time>2026-04-10T13:01:37Z</time></trkpt><trkpt lat="44.9825628126559" lon="7.757554179749746"><ele>272.0</ele><time>2026-04-10T13:01:39Z</time></trkpt><trkpt lat="44.98256491617121" lon="7.7576727449066345"><ele>272.0</ele><time>2026-04-10T13:01:41Z</time></trkpt><trkpt lat="44.98256009729549" lon="7.757799582357746"><ele>272.0</ele><time>2026-04-10T13:01:43Z</time></trkpt><trkpt lat="44.982547509917026" lon="7.757887279625844"><ele>272.0</ele><time>2026-04-10T13:01:44Z</time></trkpt><trkpt lat="44.98250613457281" lon="7.758043105598872"><ele>272.0</ele><time>2026-04-10T13:01:46Z</time></trkpt><trkpt lat="44.98247976136942" lon="7.7581787722147695"><ele>269.75</ele><time>2026-04-10T13:01:48Z</time></trkpt><trkpt lat="44.98244569684163" lon="7.758329640745257"><ele>267.5</ele><time>2026-04-10T13:01:50Z</time></trkpt><trkpt lat="44.982403624008505" lon="7.758498582843053"><ele>265.25</ele><time>2026-04-10T13:01:52Z</time></trkpt><trkpt lat="44.98236559587366" lon="7.758629405132308"><ele>263.0</ele><time>2026-04-10T13:01:54Z</time></trkpt><trkpt lat="44.98231671525233" lon="7.758790384701384"><ele>261.4</ele><time>2026-04-10T13:01:56Z</time></trkpt><trkpt lat="44.982283440119645" lon="7.7589191495808265"><ele>259.8</ele><time>2026-04-10T13:01:58Z</time></trkpt><trkpt lat="44.9822405304829" lon="7.759045845544258"><ele>258.2</ele><time>2026-04-10T13:02:00Z</time></trkpt><trkpt lat="44.982197670251445" lon="7.7591712710724625"><ele>256.6</ele><time>2026-04-10T13:02:02Z</time></trkpt><trkpt lat="44.982134332983634" lon="7.759280632926627"><ele>255.0</ele><time>2026-04-10T13:02:04Z</time></trkpt><trkpt lat="44.98208152706648" lon="7.759339859495689"><ele>255.0</ele><time>2026-04-10T13:02:05Z</time></trkpt><trkpt lat="44.98197325796064" lon="7.759364934981725"><ele>255.0</ele><time>2026-04-10T13:02:07Z</time></trkpt><trkpt lat="44.98189023367534" lon="7.759318005781084"><ele>255.0</ele><time>2026-04-10T13:02:09Z</time></trkpt><trkpt lat="44.981799475837256" lon="7.75926203265737"><ele>255.0</ele><time>2026-04-10T13:02:11Z</time></trkpt><trkpt lat="44.98170603612748" lon="7.759186972589005"><ele>255.0</ele><time>2026-04-10T13:02:13Z</time></trkpt><trkpt lat="44.98161974409236" lon="7.759100968180035"><ele>254.4</ele><time>2026-04-10T13:02:15Z</time></trkpt><trkpt lat="44.98153089359905" lon="7.758992792586576"><ele>253.8</ele><time>2026-04-10T13:02:17Z</time></trkpt><trkpt lat="44.98144998535922" lon="7.758890660999184"><ele>253.2</ele><time>2026-04-10T13:02:19Z</time></trkpt><trkpt lat="44.981363817251896" lon="7.758797753869106"><ele>252.6</ele><time>2026-04-10T13:02:21Z</time></trkpt><trkpt lat="44.981267968218866" lon="7.758722488528161"><ele>252.0</ele><time>2026-04-10T13:02:23Z</time></trkpt><trkpt lat="44.98117007941233" lon="7.758666695557064"><ele>252.0</ele><time>2026-04-10T13:02:25Z</time></trkpt><trkpt lat="44.98107280567392" lon="7.758613315382531"><ele>252.0</ele><time>2026-04-10T13:02:27Z</time></trkpt><trkpt lat="44.98097770846362" lon="7.758564033036974"><ele>252.0</ele><time>2026-04-10T13:02:29Z</time></trkpt><trkpt lat="44.980910276702616" lon="7.758506107010916"><ele>252.0</ele><time>2026-04-10T13:02:31Z</time></trkpt><trkpt lat="44.98082511718047" lon="7.758399054039042"><ele>252.0</ele><time>2026-04-10T13:02:33Z</time></trkpt><trkpt lat="44.98080907849716" lon="7.758305649282752"><ele>251.66666666666666</ele><time>2026-04-10T13:02:34Z</time></trkpt><trkpt lat="44.980805242879796" lon="7.758215743798483"><ele>251.33333333333331</ele><time>2026-04-10T13:02:35Z</time></trkpt><trkpt lat="44.98078178037973" lon="7.75812671958335"><ele>251.0</ele><time>2026-04-10T13:02:36Z</time></trkpt><trkpt lat="44.980754237542165" lon="7.758041906807587"><ele>250.66666666666666</ele><time>2026-04-10T13:02:37Z</time></trkpt><trkpt lat="44.98073193620173" lon="7.757865325711775"><ele>250.33333333333331</ele><time>2026-04-10T13:02:39Z</time></trkpt><trkpt lat="44.98071813197333" lon="7.757778448483681"><ele>250.0</ele><time>2026-04-10T13:02:40Z</time></trkpt><trkpt lat="44.98069938329382" lon="7.75760770950516"><ele>250.0</ele><time>2026-04-10T13:02:42Z</time></trkpt><trkpt lat="44.98069854738006" lon="7.757439260025026"><ele>250.0</ele><time>2026-04-10T13:02:44Z</time></trkpt><trkpt lat="44.980716206312515" lon="7.757276108117013"><ele>250.0</ele><time>2026-04-10T13:02:46Z</time></trkpt><trkpt lat="44.980730451304694" lon="7.757107501617328"><ele>250.0</ele><time>2026-04-10T13:02:48Z</time></trkpt><trkpt lat="44.98072933218527" lon="7.757016852645994"><ele>250.0</ele><time>2026-04-10T13:02:49Z</time></trkpt><trkpt lat="44.98075531144048" lon="7.756855401734274"><ele>249.5</ele><time>2026-04-10T13:02:51Z</time></trkpt><trkpt lat="44.98077578225676" lon="7.756691427913867"><ele>249.0</ele><time>2026-04-10T13:02:53Z</time></trkpt><trkpt lat="44.980794702701715" lon="7.7565236950106415"><ele>248.5</ele><time>2026-04-10T13:02:55Z</time></trkpt><trkpt lat="44.98081728474348" lon="7.756363168428244"><ele>248.0</ele><time>2026-04-10T13:02:57Z</time></trkpt><trkpt lat="44.98083681361684" lon="7.756205358741496"><ele>248.2</ele><time>2026-04-10T13:02:59Z</time></trkpt><trkpt lat="44.980860637370306" lon="7.756044318268541"><ele>248.4</ele><time>2026-04-10T13:03:01Z</time></trkpt><trkpt lat="44.980879091733065" lon="7.755955913052694"><ele>248.59999999999997</ele><time>2026-04-10T13:03:02Z</time></trkpt><trkpt lat="44.98090706633249" lon="7.755799919139267"><ele>248.79999999999998</ele><time>2026-04-10T13:03:04Z</time></trkpt><trkpt lat="44.980943139591446" lon="7.755659901452648"><ele>249.0</ele><time>2026-04-10T13:03:06Z</time></trkpt><trkpt lat="44.98096798549254" lon="7.755506722666557"><ele>249.0</ele><time>2026-04-10T13:03:08Z</time></trkpt><trkpt lat="44.98098953355365" lon="7.755350375569707"><ele>248.99999999999997</ele><time>2026-04-10T13:03:10Z</time></trkpt><trkpt lat="44.981002498464186" lon="7.755206869739636"><ele>248.99999999999997</ele><time>2026-04-10T13:03:12Z</time></trkpt><trkpt lat="44.98100980122984" lon="7.755058111404953"><ele>249.0</ele><time>2026-04-10T13:03:14Z</time></trkpt><trkpt lat="44.9810147484066" lon="7.754907954133184"><ele>249.0</ele><time>2026-04-10T13:03:16Z</time></trkpt><trkpt lat="44.98101693338954" lon="7.754757163349999"><ele>248.39999999999998</ele><time>2026-04-10T13:03:18Z</time></trkpt><trkpt lat="44.980995415323086" lon="7.754614964766466"><ele>247.79999999999998</ele><time>2026-04-10T13:03:20Z</time></trkpt><trkpt lat="44.98097724388657" lon="7.754467325579063"><ele>247.20000000000002</ele><time>2026-04-10T13:03:22Z</time></trkpt><trkpt lat="44.98094941924997" lon="7.7543348911122925"><ele>246.60000000000002</ele><time>2026-04-10T13:03:24Z</time></trkpt><trkpt lat="44.98094970484316" lon="7.754204129119219"><ele>246.0</ele><time>2026-04-10T13:03:26Z</time></trkpt><trkpt lat="44.981021002904676" lon="7.754147822400838"><ele>245.83333333333334</ele><time>2026-04-10T13:03:28Z</time></trkpt><trkpt lat="44.98107904630568" lon="7.754104651998022"><ele>245.66666666666669</ele><time>2026-04-10T13:03:30Z</time></trkpt><trkpt lat="44.981149044304104" lon="7.754077579756072"><ele>245.5</ele><time>2026-04-10T13:03:32Z</time></trkpt><trkpt lat="44.98124942452751" lon="7.7540829684020505"><ele>245.33333333333334</ele><time>2026-04-10T13:03:34Z</time></trkpt><trkpt lat="44.98132681354313" lon="7.754093216979717"><ele>245.16666666666669</ele><time>2026-04-10T13:03:36Z</time></trkpt><trkpt lat="44.981407069681865" lon="7.754089901487656"><ele>245.0</ele><time>2026-04-10T13:03:38Z</time></trkpt><trkpt lat="44.98149263704558" lon="7.754089625812711"><ele>245.0</ele><time>2026-04-10T13:03:40Z</time></trkpt><trkpt lat="44.98158114056982" lon="7.754088062168413"><ele>245.0</ele><time>2026-04-10T13:03:42Z</time></trkpt><trkpt lat="44.981670152523925" lon="7.75408682166438"><ele>245.0</ele><time>2026-04-10T13:03:44Z</time></trkpt><trkpt lat="44.98176189392895" lon="7.754076145383072"><ele>245.0</ele><time>2026-04-10T13:03:46Z</time></trkpt><trkpt lat="44.98185156654705" lon="7.754052711205451"><ele>245.0</ele><time>2026-04-10T13:03:48Z</time></trkpt><trkpt lat="44.98193926204772" lon="7.7540177118464975"><ele>245.33333333333334</ele><time>2026-04-10T13:03:50Z</time></trkpt><trkpt lat="44.982020396381465" lon="7.753996022758827"><ele>245.66666666666669</ele><time>2026-04-10T13:03:52Z</time></trkpt><trkpt lat="44.98209704555769" lon="7.753944817679727"><ele>246.0</ele><time>2026-04-10T13:03:54Z</time></trkpt><trkpt lat="44.98217716488325" lon="7.753891230648107"><ele>246.33333333333331</ele><time>2026-04-10T13:03:56Z</time></trkpt><trkpt lat="44.98224417928633" lon="7.753806766205393"><ele>246.66666666666666</ele><time>2026-04-10T13:03:58Z</time></trkpt><trkpt lat="44.98229626124057" lon="7.7537086681586"><ele>247.0</ele><time>2026-04-10T13:04:00Z</time></trkpt><trkpt lat="44.98235565935551" lon="7.753612862583653"><ele>247.0</ele><time>2026-04-10T13:04:02Z</time></trkpt><trkpt lat="44.98242911318381" lon="7.75353008697583"><ele>247.0</ele><time>2026-04-10T13:04:04Z</time></trkpt><trkpt lat="44.98249676036442" lon="7.753439479637811"><ele>247.0</ele><time>2026-04-10T13:04:06Z</time></trkpt><trkpt lat="44.98257570484103" lon="7.753364052431443"><ele>247.0</ele><time>2026-04-10T13:04:08Z</time></trkpt><trkpt lat="44.98266786024786" lon="7.753324674079799"><ele>247.0</ele><time>2026-04-10T13:04:10Z</time></trkpt><trkpt lat="44.982763480004415" lon="7.75331884729255"><ele>247.6</ele><time>2026-04-10T13:04:12Z</time></trkpt><trkpt lat="44.9828577319316" lon="7.753343016303243"><ele>248.2</ele><time>2026-04-10T13:04:14Z</time></trkpt><trkpt lat="44.98295082864816" lon="7.753376882001824"><ele>248.8</ele><time>2026-04-10T13:04:16Z</time></trkpt><trkpt lat="44.983046203574844" lon="7.7534051581840835"><ele>249.4</ele><time>2026-04-10T13:04:18Z</time></trkpt><trkpt lat="44.98313182007053" lon="7.753441019252865"><ele>250.0</ele><time>2026-04-10T13:04:20Z</time></trkpt><trkpt lat="44.98322451884901" lon="7.7534733171010295"><ele>250.0</ele><time>2026-04-10T13:04:22Z</time></trkpt><trkpt lat="44.98331511115588" lon="7.753508200093587"><ele>250.0</ele><time>2026-04-10T13:04:24Z</time></trkpt><trkpt lat="44.983396455994495" lon="7.753570929889992"><ele>250.0</ele><time>2026-04-10T13:04:26Z</time></trkpt><trkpt lat="44.983486706267875" lon="7.753602311251663"><ele>250.0</ele><time>2026-04-10T13:04:28Z</time></trkpt><trkpt lat="44.983569116476964" lon="7.753653281627388"><ele>250.0</ele><time>2026-04-10T13:04:30Z</time></trkpt><trkpt lat="44.98366521115947" lon="7.7536859310409545"><ele>250.0</ele><time>2026-04-10T13:04:32Z</time></trkpt><trkpt lat="44.983759101047305" lon="7.753720576102169"><ele>250.0</ele><time>2026-04-10T13:04:34Z</time></trkpt><trkpt lat="44.98385149845937" lon="7.753745732605862"><ele>250.0</ele><time>2026-04-10T13:04:36Z</time></trkpt><trkpt lat="44.98394259350818" lon="7.753747678428124"><ele>250.0</ele><time>2026-04-10T13:04:38Z</time></trkpt><trkpt lat="44.98403719562048" lon="7.753762086976612"><ele>250.0</ele><time>2026-04-10T13:04:40Z</time></trkpt><trkpt lat="44.984132112785936" lon="7.7537699228749135"><ele>250.2</ele><time>2026-04-10T13:04:42Z</time></trkpt><trkpt lat="44.98422420124106" lon="7.753768420556692"><ele>250.4</ele><time>2026-04-10T13:04:44Z</time></trkpt><trkpt lat="44.984320994726744" lon="7.753776162340324"><ele>250.60000000000002</ele><time>2026-04-10T13:04:46Z</time></trkpt><trkpt lat="44.98441920829982" lon="7.7537796610456216"><ele>250.8</ele><time>2026-04-10T13:04:48Z</time></trkpt><trkpt lat="44.9845164693986" lon="7.753785278075032"><ele>251.0</ele><time>2026-04-10T13:04:50Z</time></trkpt><trkpt lat="44.984614620115266" lon="7.753781645294015"><ele>251.0</ele><time>2026-04-10T13:04:52Z</time></trkpt><trkpt lat="44.98471227193863" lon="7.753774748481938"><ele>251.00000000000003</ele><time>2026-04-10T13:04:54Z</time></trkpt><trkpt lat="44.98481516081457" lon="7.753770516611913"><ele>251.00000000000003</ele><time>2026-04-10T13:04:56Z</time></trkpt><trkpt lat="44.9849133707189" lon="7.75377905256431"><ele>251.0</ele><time>2026-04-10T13:04:58Z</time></trkpt><trkpt lat="44.98501782625678" lon="7.753788854191053"><ele>251.0</ele><time>2026-04-10T13:05:00Z</time></trkpt><trkpt lat="44.98511098977417" lon="7.753800393306627"><ele>250.83333333333334</ele><time>2026-04-10T13:05:02Z</time></trkpt><trkpt lat="44.98521060300991" lon="7.753786211677757"><ele>250.66666666666669</ele><time>2026-04-10T13:05:04Z</time></trkpt><trkpt lat="44.985302233700885" lon="7.753791988318054"><ele>250.5</ele><time>2026-04-10T13:05:06Z</time></trkpt><trkpt lat="44.98538223320683" lon="7.753800861165857"><ele>250.33333333333331</ele><time>2026-04-10T13:05:08Z</time></trkpt><trkpt lat="44.98545194171307" lon="7.753816995314158"><ele>250.16666666666666</ele><time>2026-04-10T13:05:10Z</time></trkpt><trkpt lat="44.98553484811755" lon="7.75380855304846"><ele>250.0</ele><time>2026-04-10T13:05:13Z</time></trkpt><trkpt lat="44.985612285282045" lon="7.7538044607829555"><ele>250.0</ele><time>2026-04-10T13:05:18Z</time></trkpt><trkpt lat="44.98560740057105" lon="7.753642560582354"><ele>250.0</ele><time>2026-04-10T13:05:23Z</time></trkpt><trkpt lat="44.98560268886053" lon="7.7535148484165575"><ele>250.0</ele><time>2026-04-10T13:05:26Z</time></trkpt><trkpt lat="44.985615915680505" lon="7.753397460664643"><ele>250.0</ele><time>2026-04-10T13:05:29Z</time></trkpt><trkpt lat="44.985636823432635" lon="7.753282175764867"><ele>250.0</ele><time>2026-04-10T13:05:32Z</time></trkpt><trkpt lat="44.985687217671575" lon="7.753183381845392"><ele>249.83333333333331</ele><time>2026-04-10T13:05:35Z</time></trkpt><trkpt lat="44.98574629273321" lon="7.75309563432872"><ele>249.66666666666666</ele><time>2026-04-10T13:05:38Z</time></trkpt><trkpt lat="44.985775785402176" lon="7.752989623117475"><ele>249.5</ele><time>2026-04-10T13:05:41Z</time></trkpt><trkpt lat="44.9857638295062" lon="7.752889396009217"><ele>249.33333333333331</ele><time>2026-04-10T13:05:43Z</time></trkpt><trkpt lat="44.98579987646285" lon="7.752772863938666"><ele>249.16666666666666</ele><time>2026-04-10T13:05:46Z</time></trkpt><trkpt lat="44.98581755400482" lon="7.7526770640094815"><ele>249.0</ele><time>2026-04-10T13:05:48Z</time></trkpt><trkpt lat="44.98584425056446" lon="7.752579412648733"><ele>250.0</ele><time>2026-04-10T13:05:50Z</time></trkpt><trkpt lat="44.985857629413815" lon="7.752479940240269"><ele>250.99999999999997</ele><time>2026-04-10T13:05:52Z</time></trkpt><trkpt lat="44.98586815127053" lon="7.752387245841827"><ele>252.0</ele><time>2026-04-10T13:05:54Z</time></trkpt><trkpt lat="44.985901049438105" lon="7.752258768045874"><ele>253.0</ele><time>2026-04-10T13:05:57Z</time></trkpt><trkpt lat="44.985929553838815" lon="7.752177569754856"><ele>253.99999999999997</ele><time>2026-04-10T13:05:59Z</time></trkpt><trkpt lat="44.9859534935069" lon="7.752087114313754"><ele>255.0</ele><time>2026-04-10T13:06:01Z</time></trkpt><trkpt lat="44.98598714920636" lon="7.751995098272309"><ele>256.0</ele><time>2026-04-10T13:06:03Z</time></trkpt><trkpt lat="44.986025724203635" lon="7.75190750517178"><ele>256.8333333333333</ele><time>2026-04-10T13:06:05Z</time></trkpt><trkpt lat="44.98606625582972" lon="7.751826226093916"><ele>257.66666666666663</ele><time>2026-04-10T13:06:07Z</time></trkpt><trkpt lat="44.98611417223559" lon="7.75174830126137"><ele>258.5</ele><time>2026-04-10T13:06:09Z</time></trkpt><trkpt lat="44.98615813061214" lon="7.75165327510437"><ele>259.3333333333333</ele><time>2026-04-10T13:06:11Z</time></trkpt><trkpt lat="44.986197967138644" lon="7.751562378036537"><ele>260.1666666666667</ele><time>2026-04-10T13:06:13Z</time></trkpt><trkpt lat="44.98625494158252" lon="7.751486903159514"><ele>261.0</ele><time>2026-04-10T13:06:15Z</time></trkpt><trkpt lat="44.98630414238645" lon="7.751395593916453"><ele>261.0</ele><time>2026-04-10T13:06:17Z</time></trkpt><trkpt lat="44.986359782748906" lon="7.75130373055112"><ele>261.0</ele><time>2026-04-10T13:06:19Z</time></trkpt><trkpt lat="44.986401789500555" lon="7.751226230003388"><ele>261.0</ele><time>2026-04-10T13:06:21Z</time></trkpt><trkpt lat="44.986438834721014" lon="7.751139951159794"><ele>261.0</ele><time>2026-04-10T13:06:24Z</time></trkpt><trkpt lat="44.98648700823777" lon="7.7510459883957505"><ele>261.0</ele><time>2026-04-10T13:06:25Z</time></trkpt><trkpt lat="44.98655254221422" lon="7.7509291234592945"><ele>261.0</ele><time>2026-04-10T13:06:27Z</time></trkpt><trkpt lat="44.98660486444705" lon="7.750822734698095"><ele>261.0</ele><time>2026-04-10T13:06:29Z</time></trkpt><trkpt lat="44.986648871708816" lon="7.750704531352658"><ele>261.0</ele><time>2026-04-10T13:06:31Z</time></trkpt><trkpt lat="44.98669767102156" lon="7.750591240733373"><ele>261.0</ele><time>2026-04-10T13:06:33Z</time></trkpt><trkpt lat="44.98674609999019" lon="7.750468263693411"><ele>261.0</ele><time>2026-04-10T13:06:35Z</time></trkpt><trkpt lat="44.986788941683734" lon="7.750342968189852"><ele>261.0</ele><time>2026-04-10T13:06:37Z</time></trkpt><trkpt lat="44.98683759360095" lon="7.750223333380968"><ele>262.0</ele><time>2026-04-10T13:06:39Z</time></trkpt><trkpt lat="44.986891516709555" lon="7.750101647649228"><ele>263.0</ele><time>2026-04-10T13:06:41Z</time></trkpt><trkpt lat="44.986932930717394" lon="7.7499846073036744"><ele>264.0</ele><time>2026-04-10T13:06:43Z</time></trkpt><trkpt lat="44.98697297627746" lon="7.749865211666668"><ele>265.0</ele><time>2026-04-10T13:06:45Z</time></trkpt><trkpt lat="44.987008056050854" lon="7.749749724096819"><ele>266.0</ele><time>2026-04-10T13:06:47Z</time></trkpt><trkpt lat="44.98706325987207" lon="7.749653011092894"><ele>266.0</ele><time>2026-04-10T13:06:49Z</time></trkpt><trkpt lat="44.98710004276366" lon="7.749555829153482"><ele>266.0</ele><time>2026-04-10T13:06:51Z</time></trkpt><trkpt lat="44.987135174713266" lon="7.74946726836581"><ele>266.0</ele><time>2026-04-10T13:06:53Z</time></trkpt><trkpt lat="44.98715794403442" lon="7.749367111659215"><ele>266.0</ele><time>2026-04-10T13:06:55Z</time></trkpt><trkpt lat="44.98717567004206" lon="7.749264997560843"><ele>266.0</ele><time>2026-04-10T13:06:57Z</time></trkpt><trkpt lat="44.987185078468244" lon="7.74915906734224"><ele>266.0</ele><time>2026-04-10T13:06:59Z</time></trkpt><trkpt lat="44.98717912772791" lon="7.749046872033786"><ele>266.0</ele><time>2026-04-10T13:07:01Z</time></trkpt><trkpt lat="44.98718581522816" lon="7.7489338084806425"><ele>266.0</ele><time>2026-04-10T13:07:03Z</time></trkpt><trkpt lat="44.987182113944804" lon="7.748830869049419"><ele>266.0</ele><time>2026-04-10T13:07:05Z</time></trkpt><trkpt lat="44.987195333556315" lon="7.748729568807576"><ele>266.0</ele><time>2026-04-10T13:07:07Z</time></trkpt><trkpt lat="44.98719658392424" lon="7.748608761674184"><ele>266.0</ele><time>2026-04-10T13:07:09Z</time></trkpt><trkpt lat="44.987197701551565" lon="7.748490651502336"><ele>266.0</ele><time>2026-04-10T13:07:11Z</time></trkpt><trkpt lat="44.98721400700477" lon="7.748398140252816"><ele>266.0</ele><time>2026-04-10T13:07:13Z</time></trkpt><trkpt lat="44.987259016649325" lon="7.748289566426312"><ele>266.0</ele><time>2026-04-10T13:07:16Z</time></trkpt><trkpt lat="44.98729058881416" lon="7.748180611701928"><ele>266.0</ele><time>2026-04-10T13:07:18Z</time></trkpt><trkpt lat="44.98734391598756" lon="7.748082291601738"><ele>266.0</ele><time>2026-04-10T13:07:21Z</time></trkpt><trkpt lat="44.98742218960221" lon="7.748008717949837"><ele>266.0</ele><time>2026-04-10T13:07:24Z</time></trkpt><trkpt lat="44.98748148765035" lon="7.74792654494871"><ele>266.0</ele><time>2026-04-10T13:07:27Z</time></trkpt><trkpt lat="44.987533006189885" lon="7.747854983269666"><ele>266.5</ele><time>2026-04-10T13:07:30Z</time></trkpt><trkpt lat="44.98759790768256" lon="7.747793128174894"><ele>267.0</ele><time>2026-04-10T13:07:33Z</time></trkpt><trkpt lat="44.987647272851206" lon="7.747733647759034"><ele>267.5</ele><time>2026-04-10T13:07:36Z</time></trkpt><trkpt lat="44.98772489526355" lon="7.7477357531817335"><ele>268.0</ele><time>2026-04-10T13:07:40Z</time></trkpt><trkpt lat="44.98778797690644" lon="7.747685979916377"><ele>268.5</ele><time>2026-04-10T13:07:43Z</time></trkpt><trkpt lat="44.98785399179801" lon="7.747674487187634"><ele>269.0</ele><time>2026-04-10T13:07:46Z</time></trkpt><trkpt lat="44.98794604878788" lon="7.747673438589834"><ele>269.0</ele><time>2026-04-10T13:07:49Z</time></trkpt><trkpt lat="44.988021982452274" lon="7.74769474910032"><ele>269.0</ele><time>2026-04-10T13:07:52Z</time></trkpt><trkpt lat="44.98810229005843" lon="7.747705903157337"><ele>269.0</ele><time>2026-04-10T13:07:56Z</time></trkpt><trkpt lat="44.98816773164071" lon="7.747726934903858"><ele>269.0</ele><time>2026-04-10T13:07:59Z</time></trkpt><trkpt lat="44.98824585805284" lon="7.747741088917028"><ele>269.0</ele><time>2026-04-10T13:08:04Z</time></trkpt><trkpt lat="44.9883210205492" lon="7.7477431785187045"><ele>269.0</ele><time>2026-04-10T13:08:07Z</time></trkpt><trkpt lat="44.98839997445841" lon="7.747743457892537"><ele>268.7142857142857</ele><time>2026-04-10T13:08:11Z</time></trkpt><trkpt lat="44.988464670315885" lon="7.7477230534899695"><ele>268.42857142857144</ele><time>2026-04-10T13:08:14Z</time></trkpt><trkpt lat="44.98853389764015" lon="7.747703327113385"><ele>268.14285714285717</ele><time>2026-04-10T13:08:17Z</time></trkpt><trkpt lat="44.98858756739289" lon="7.7476506960354365"><ele>267.8571428571429</ele><time>2026-04-10T13:08:20Z</time></trkpt><trkpt lat="44.98864917579138" lon="7.747600355920483"><ele>267.57142857142856</ele><time>2026-04-10T13:08:23Z</time></trkpt><trkpt lat="44.98872295554847" lon="7.74757355976501"><ele>267.28571428571433</ele><time>2026-04-10T13:08:26Z</time></trkpt><trkpt lat="44.98879643036864" lon="7.747528845976077"><ele>267.0</ele><time>2026-04-10T13:08:29Z</time></trkpt><trkpt lat="44.988871073207754" lon="7.747495050156604"><ele>267.5</ele><time>2026-04-10T13:08:32Z</time></trkpt><trkpt lat="44.988941030661586" lon="7.747454679341567"><ele>268.0</ele><time>2026-04-10T13:08:35Z</time></trkpt><trkpt lat="44.989027927311014" lon="7.747457524068153"><ele>268.5</ele><time>2026-04-10T13:08:38Z</time></trkpt><trkpt lat="44.98909352691113" lon="7.747423469639444"><ele>269.0</ele><time>2026-04-10T13:08:40Z</time></trkpt><trkpt lat="44.98915329201972" lon="7.747371829145411"><ele>269.5</ele><time>2026-04-10T13:08:42Z</time></trkpt><trkpt lat="44.989190398528066" lon="7.747270591306375"><ele>270.0</ele><time>2026-04-10T13:08:44Z</time></trkpt><trkpt lat="44.989252203731304" lon="7.74721375346324"><ele>270.0</ele><time>2026-04-10T13:08:46Z</time></trkpt><trkpt lat="44.98931665812563" lon="7.747163780770247"><ele>270.0</ele><time>2026-04-10T13:08:48Z</time></trkpt><trkpt lat="44.98939403757997" lon="7.74712318028412"><ele>270.0</ele><time>2026-04-10T13:08:50Z</time></trkpt><trkpt lat="44.98946171553541" lon="7.747089164862406"><ele>270.0</ele><time>2026-04-10T13:08:52Z</time></trkpt><trkpt lat="44.98953938855813" lon="7.74702165142188"><ele>270.0</ele><time>2026-04-10T13:08:55Z</time></trkpt><trkpt lat="44.98958984581594" lon="7.746952816817446"><ele>270.0</ele><time>2026-04-10T13:08:57Z</time></trkpt><trkpt lat="44.98963807988793" lon="7.746882845861635"><ele>270.42857142857144</ele><time>2026-04-10T13:08:59Z</time></trkpt><trkpt lat="44.98966992252195" lon="7.746787736161341"><ele>270.85714285714283</ele><time>2026-04-10T13:09:01Z</time></trkpt><trkpt lat="44.989747669916945" lon="7.746700392941659"><ele>271.2857142857143</ele><time>2026-04-10T13:09:04Z</time></trkpt><trkpt lat="44.98978142355063" lon="7.746617886668779"><ele>271.7142857142857</ele><time>2026-04-10T13:09:06Z</time></trkpt><trkpt lat="44.98983205337974" lon="7.746542100263149"><ele>272.1428571428571</ele><time>2026-04-10T13:09:08Z</time></trkpt><trkpt lat="44.98988288796223" lon="7.746487350244217"><ele>272.57142857142856</ele><time>2026-04-10T13:09:10Z</time></trkpt><trkpt lat="44.989935607076525" lon="7.746434978946096"><ele>273.0</ele><time>2026-04-10T13:09:12Z</time></trkpt><trkpt lat="44.99000442446107" lon="7.746371212739798"><ele>273.3333333333333</ele><time>2026-04-10T13:09:15Z</time></trkpt><trkpt lat="44.99008088596424" lon="7.7463070600042"><ele>273.6666666666667</ele><time>2026-04-10T13:09:18Z</time></trkpt><trkpt lat="44.99015593834806" lon="7.746281638927412"><ele>274.0</ele><time>2026-04-10T13:09:21Z</time></trkpt><trkpt lat="44.990238111673605" lon="7.746254980835094"><ele>274.33333333333337</ele><time>2026-04-10T13:09:24Z</time></trkpt><trkpt lat="44.99027949602388" lon="7.746164463205597"><ele>274.6666666666667</ele><time>2026-04-10T13:09:26Z</time></trkpt><trkpt lat="44.990345052648884" lon="7.746124468026647"><ele>275.0</ele><time>2026-04-10T13:09:28Z</time></trkpt><trkpt lat="44.99042732600471" lon="7.7460936491552035"><ele>275.33333333333337</ele><time>2026-04-10T13:09:31Z</time></trkpt><trkpt lat="44.99051162269405" lon="7.746036810555978"><ele>275.6666666666667</ele><time>2026-04-10T13:09:34Z</time></trkpt><trkpt lat="44.9905702709036" lon="7.745992219411246"><ele>276.0</ele><time>2026-04-10T13:09:36Z</time></trkpt><trkpt lat="44.99064924913198" lon="7.7459453534762694"><ele>276.3333333333333</ele><time>2026-04-10T13:09:39Z</time></trkpt><trkpt lat="44.990709752922534" lon="7.745902008794633"><ele>276.66666666666663</ele><time>2026-04-10T13:09:41Z</time></trkpt><trkpt lat="44.99077207483056" lon="7.745863711461203"><ele>277.0</ele><time>2026-04-10T13:09:43Z</time></trkpt><trkpt lat="44.9908643968172" lon="7.7458031852803515"><ele>277.0</ele><time>2026-04-10T13:09:46Z</time></trkpt><trkpt lat="44.990922045871564" lon="7.745759515455815"><ele>277.0</ele><time>2026-04-10T13:09:48Z</time></trkpt><trkpt lat="44.99100614235835" lon="7.745697730461215"><ele>277.0</ele><time>2026-04-10T13:09:51Z</time></trkpt><trkpt lat="44.991078138542456" lon="7.745668318444076"><ele>277.0</ele><time>2026-04-10T13:09:53Z</time></trkpt><trkpt lat="44.991143454137706" lon="7.745598322988524"><ele>277.0</ele><time>2026-04-10T13:09:56Z</time></trkpt><trkpt lat="44.991215381414364" lon="7.745542175718056"><ele>277.0</ele><time>2026-04-10T13:09:59Z</time></trkpt><trkpt lat="44.991293154169846" lon="7.745480869359615"><ele>277.0</ele><time>2026-04-10T13:10:02Z</time></trkpt><trkpt lat="44.99135265616637" lon="7.745433620290335"><ele>277.0</ele><time>2026-04-10T13:10:04Z</time></trkpt><trkpt lat="44.99143209949162" lon="7.745377126797563"><ele>277.0</ele><time>2026-04-10T13:10:07Z</time></trkpt><trkpt lat="44.991493419356" lon="7.7453442071597545"><ele>277.0</ele><time>2026-04-10T13:10:10Z</time></trkpt><trkpt lat="44.99154311832544" lon="7.745283688519938"><ele>277.0</ele><time>2026-04-10T13:10:12Z</time></trkpt><trkpt lat="44.99162480826101" lon="7.7452201368412075"><ele>277.0</ele><time>2026-04-10T13:10:15Z</time></trkpt><trkpt lat="44.99168473907934" lon="7.745178665914061"><ele>277.0</ele><time>2026-04-10T13:10:17Z</time></trkpt><trkpt lat="44.991752331057256" lon="7.745129643746112"><ele>277.42857142857144</ele><time>2026-04-10T13:10:19Z</time></trkpt><trkpt lat="44.991821114023175" lon="7.745083372486305"><ele>277.85714285714283</ele><time>2026-04-10T13:10:21Z</time></trkpt><trkpt lat="44.991885757773346" lon="7.745028325537638"><ele>278.2857142857143</ele><time>2026-04-10T13:10:23Z</time></trkpt><trkpt lat="44.99194820640162" lon="7.744977807907934"><ele>278.7142857142857</ele><time>2026-04-10T13:10:25Z</time></trkpt><trkpt lat="44.9920219558473" lon="7.744928995813653"><ele>279.1428571428571</ele><time>2026-04-10T13:10:27Z</time></trkpt><trkpt lat="44.992088433551366" lon="7.744884599234844"><ele>279.57142857142856</ele><time>2026-04-10T13:10:29Z</time></trkpt><trkpt lat="44.99214710474965" lon="7.744843842944268"><ele>280.0</ele><time>2026-04-10T13:10:31Z</time></trkpt><trkpt lat="44.99221398707841" lon="7.744798056667637"><ele>280.0</ele><time>2026-04-10T13:10:33Z</time></trkpt><trkpt lat="44.99227725631607" lon="7.744757239733675"><ele>280.0</ele><time>2026-04-10T13:10:35Z</time></trkpt><trkpt lat="44.99233001514985" lon="7.744707867339083"><ele>280.0</ele><time>2026-04-10T13:10:37Z</time></trkpt><trkpt lat="44.99236035750151" lon="7.744588033699468"><ele>280.0</ele><time>2026-04-10T13:10:40Z</time></trkpt><trkpt lat="44.99235152381513" lon="7.744450395730638"><ele>280.0</ele><time>2026-04-10T13:10:43Z</time></trkpt><trkpt lat="44.992352292174175" lon="7.744318487773915"><ele>280.0</ele><time>2026-04-10T13:10:46Z</time></trkpt><trkpt lat="44.992337615294666" lon="7.744230040388915"><ele>279.8333333333333</ele><time>2026-04-10T13:10:48Z</time></trkpt><trkpt lat="44.99233612342426" lon="7.744095165293284"><ele>279.66666666666663</ele><time>2026-04-10T13:10:51Z</time></trkpt><trkpt lat="44.99233402353725" lon="7.744002633731676"><ele>279.5</ele><time>2026-04-10T13:10:53Z</time></trkpt><trkpt lat="44.992331153348466" lon="7.7439108358856945"><ele>279.3333333333333</ele><time>2026-04-10T13:10:55Z</time></trkpt><trkpt lat="44.99232859533347" lon="7.743810199661743"><ele>279.1666666666667</ele><time>2026-04-10T13:10:57Z</time></trkpt><trkpt lat="44.99232249915409" lon="7.743676312207298"><ele>279.0</ele><time>2026-04-10T13:11:00Z</time></trkpt><trkpt lat="44.99231639163973" lon="7.743547791099669"><ele>279.5</ele><time>2026-04-10T13:11:03Z</time></trkpt><trkpt lat="44.99231384025475" lon="7.743425196901237"><ele>280.0</ele><time>2026-04-10T13:11:06Z</time></trkpt><trkpt lat="44.99232131135818" lon="7.743320770965705"><ele>280.5</ele><time>2026-04-10T13:11:09Z</time></trkpt><trkpt lat="44.99231917736847" lon="7.743222102078212"><ele>281.0</ele><time>2026-04-10T13:11:46Z</time></trkpt><trkpt lat="44.992310483605955" lon="7.74312439645625"><ele>281.5</ele><time>2026-04-10T13:14:23Z</time></trkpt><trkpt lat="44.992303456695055" lon="7.743016272960402"><ele>282.0</ele><time>2026-04-10T13:14:26Z</time></trkpt><trkpt lat="44.992306050130736" lon="7.74291152502377"><ele>282.0</ele><time>2026-04-10T13:14:29Z</time></trkpt><trkpt lat="44.99232406152302" lon="7.742799214960029"><ele>282.0</ele><time>2026-04-10T13:14:32Z</time></trkpt><trkpt lat="44.99231122395783" lon="7.742697921508989"><ele>282.0</ele><time>2026-04-10T13:14:35Z</time></trkpt><trkpt lat="44.99232370987978" lon="7.742603749339804"><ele>282.0</ele><time>2026-04-10T13:14:38Z</time></trkpt><trkpt lat="44.992352632081314" lon="7.742513424912828"><ele>282.0</ele><time>2026-04-10T13:14:42Z</time></trkpt><trkpt lat="44.99242001482854" lon="7.742536551528239"><ele>282.0</ele><time>2026-04-10T13:14:44Z</time></trkpt><trkpt lat="44.99252009964911" lon="7.74258516384676"><ele>282.2</ele><time>2026-04-10T13:14:47Z</time></trkpt><trkpt lat="44.99261840762883" lon="7.742634792170795"><ele>282.4</ele><time>2026-04-10T13:14:50Z</time></trkpt><trkpt lat="44.992684509515165" lon="7.74266778743197"><ele>282.6</ele><time>2026-04-10T13:14:52Z</time></trkpt><trkpt lat="44.99274715077586" lon="7.742714084644421"><ele>282.8</ele><time>2026-04-10T13:14:54Z</time></trkpt><trkpt lat="44.99284641476715" lon="7.7425840811348605"><ele>283.0</ele><time>2026-04-10T13:14:58Z</time></trkpt><trkpt lat="44.99285709468395" lon="7.742483559233872"><ele>283.0</ele><time>2026-04-10T13:14:59Z</time></trkpt><trkpt lat="44.992871318109934" lon="7.742341606794673"><ele>283.0</ele><time>2026-04-10T13:15:01Z</time></trkpt><trkpt lat="44.992886058921876" lon="7.742181334784468"><ele>283.0</ele><time>2026-04-10T13:15:03Z</time></trkpt><trkpt lat="44.99290338547471" lon="7.7420040616521355"><ele>283.0</ele><time>2026-04-10T13:15:05Z</time></trkpt><trkpt lat="44.992913587227655" lon="7.741914099987736"><ele>283.0</ele><time>2026-04-10T13:15:06Z</time></trkpt><trkpt lat="44.99293709305646" lon="7.7417362890244235"><ele>282.5</ele><time>2026-04-10T13:15:08Z</time></trkpt><trkpt lat="44.992951344297786" lon="7.741648698216885"><ele>282.0</ele><time>2026-04-10T13:15:09Z</time></trkpt><trkpt lat="44.99296597174519" lon="7.741558220674464"><ele>281.5</ele><time>2026-04-10T13:15:10Z</time></trkpt><trkpt lat="44.99299817210226" lon="7.74138343071438"><ele>281.0</ele><time>2026-04-10T13:15:12Z</time></trkpt><trkpt lat="44.993017070301214" lon="7.74129561305557"><ele>280.5</ele><time>2026-04-10T13:15:13Z</time></trkpt><trkpt lat="44.99303798348104" lon="7.741203210633912"><ele>280.0</ele><time>2026-04-10T13:15:14Z</time></trkpt><trkpt lat="44.99306011666924" lon="7.741108684533594"><ele>279.16666666666663</ele><time>2026-04-10T13:15:15Z</time></trkpt><trkpt lat="44.99308314927391" lon="7.741014206126298"><ele>278.3333333333333</ele><time>2026-04-10T13:15:16Z</time></trkpt><trkpt lat="44.99309385185493" lon="7.740906369439772"><ele>277.5</ele><time>2026-04-10T13:15:17Z</time></trkpt><trkpt lat="44.993123986397826" lon="7.740810119329884"><ele>276.6666666666667</ele><time>2026-04-10T13:15:18Z</time></trkpt><trkpt lat="44.99314886761567" lon="7.740706661895801"><ele>275.83333333333337</ele><time>2026-04-10T13:15:19Z</time></trkpt><trkpt lat="44.99317429716243" lon="7.740605606733589"><ele>275.0</ele><time>2026-04-10T13:15:20Z</time></trkpt><trkpt lat="44.993211112883436" lon="7.740500861662174"><ele>275.0</ele><time>2026-04-10T13:15:21Z</time></trkpt><trkpt lat="44.993226520276295" lon="7.7403788310687025"><ele>275.0</ele><time>2026-04-10T13:15:22Z</time></trkpt><trkpt lat="44.9932143528671" lon="7.74024582033447"><ele>275.0</ele><time>2026-04-10T13:15:23Z</time></trkpt><trkpt lat="44.993208597259304" lon="7.740116343532132"><ele>275.0</ele><time>2026-04-10T13:15:24Z</time></trkpt><trkpt lat="44.99318029545281" lon="7.739988860057106"><ele>275.0</ele><time>2026-04-10T13:15:25Z</time></trkpt><trkpt lat="44.99312629807157" lon="7.739870891853593"><ele>274.25</ele><time>2026-04-10T13:15:26Z</time></trkpt><trkpt lat="44.993038098019426" lon="7.739771940554198"><ele>273.5</ele><time>2026-04-10T13:15:27Z</time></trkpt><trkpt lat="44.99295060905803" lon="7.739661699916087"><ele>272.75</ele><time>2026-04-10T13:15:28Z</time></trkpt><trkpt lat="44.992859025404115" lon="7.739574271871911"><ele>272.0</ele><time>2026-04-10T13:15:29Z</time></trkpt><trkpt lat="44.99277996658252" lon="7.73946741718592"><ele>271.5</ele><time>2026-04-10T13:15:30Z</time></trkpt><trkpt lat="44.992698664037164" lon="7.7393681881180285"><ele>271.0</ele><time>2026-04-10T13:15:31Z</time></trkpt><trkpt lat="44.992606326087014" lon="7.739277312424817"><ele>270.5</ele><time>2026-04-10T13:15:32Z</time></trkpt><trkpt lat="44.99250914198634" lon="7.739190620645298"><ele>270.0</ele><time>2026-04-10T13:15:33Z</time></trkpt><trkpt lat="44.99240277218524" lon="7.739121158708684"><ele>270.0</ele><time>2026-04-10T13:15:34Z</time></trkpt><trkpt lat="44.99229419217852" lon="7.739068865153879"><ele>270.0</ele><time>2026-04-10T13:15:35Z</time></trkpt><trkpt lat="44.992199053688886" lon="7.739036443740546"><ele>270.0</ele><time>2026-04-10T13:15:36Z</time></trkpt><trkpt lat="44.99211635351938" lon="7.738985961569156"><ele>270.0</ele><time>2026-04-10T13:15:37Z</time></trkpt><trkpt lat="44.99204841938949" lon="7.738967083732346"><ele>270.0</ele><time>2026-04-10T13:15:38Z</time></trkpt><trkpt lat="44.99192803371652" lon="7.738955151944981"><ele>270.0</ele><time>2026-04-10T13:15:40Z</time></trkpt><trkpt lat="44.99184379753751" lon="7.7389203614268505"><ele>270.0</ele><time>2026-04-10T13:15:42Z</time></trkpt><trkpt lat="44.991879520196456" lon="7.738780433188152"><ele>270.0</ele><time>2026-04-10T13:15:45Z</time></trkpt><trkpt lat="44.99192937035521" lon="7.7386849358433505"><ele>270.0</ele><time>2026-04-10T13:15:48Z</time></trkpt><trkpt lat="44.99200105806899" lon="7.738610006061799"><ele>270.0</ele><time>2026-04-10T13:15:52Z</time></trkpt><trkpt lat="44.99205796220345" lon="7.738515118063567"><ele>269.7142857142857</ele><time>2026-04-10T13:15:55Z</time></trkpt><trkpt lat="44.99212133922874" lon="7.738420909825022"><ele>269.4285714285714</ele><time>2026-04-10T13:15:58Z</time></trkpt><trkpt lat="44.99216276041143" lon="7.73835243178471"><ele>269.1428571428571</ele><time>2026-04-10T13:15:59.999Z</time></trkpt><trkpt lat="44.992221573551404" lon="7.73830280737233"><ele>268.85714285714283</ele><time>2026-04-10T13:16:01.999Z</time></trkpt><trkpt lat="44.9922724877181" lon="7.738236568044431"><ele>268.57142857142856</ele><time>2026-04-10T13:16:03.999Z</time></trkpt><trkpt lat="44.99232316240672" lon="7.738170640242602"><ele>268.2857142857143</ele><time>2026-04-10T13:16:06.999Z</time></trkpt><trkpt lat="44.9923510586404" lon="7.738088981657359"><ele>268.0</ele><time>2026-04-10T13:16:08.999Z</time></trkpt><trkpt lat="44.992391150667345" lon="7.738020267163249"><ele>268.0</ele><time>2026-04-10T13:16:10.999Z</time></trkpt><trkpt lat="44.99243344197503" lon="7.737928529109244"><ele>268.0</ele><time>2026-04-10T13:16:13.999Z</time></trkpt><trkpt lat="44.99248860256226" lon="7.737821649636891"><ele>268.0</ele><time>2026-04-10T13:16:16.999Z</time></trkpt><trkpt lat="44.992549765835875" lon="7.737737643836582"><ele>268.0</ele><time>2026-04-10T13:16:19.999Z</time></trkpt><trkpt lat="44.99262845952226" lon="7.737661512691938"><ele>268.0</ele><time>2026-04-10T13:16:23Z</time></trkpt><trkpt lat="44.99271549234454" lon="7.737584295139066"><ele>269.0</ele><time>2026-04-10T13:16:26Z</time></trkpt><trkpt lat="44.99280007087953" lon="7.737514027387156"><ele>270.0</ele><time>2026-04-10T13:16:29Z</time></trkpt><trkpt lat="44.992876438752766" lon="7.737441594634027"><ele>271.0</ele><time>2026-04-10T13:16:32Z</time></trkpt><trkpt lat="44.99293342032108" lon="7.737394616197928"><ele>272.0</ele><time>2026-04-10T13:16:34Z</time></trkpt><trkpt lat="44.992991472481584" lon="7.737347585042408"><ele>273.0</ele><time>2026-04-10T13:16:36Z</time></trkpt><trkpt lat="44.9930668333635" lon="7.737266520977924"><ele>274.0</ele><time>2026-04-10T13:16:39Z</time></trkpt><trkpt lat="44.993120926164075" lon="7.737209776317609"><ele>274.0</ele><time>2026-04-10T13:16:41Z</time></trkpt><trkpt lat="44.993167221330125" lon="7.737141637611102"><ele>274.0</ele><time>2026-04-10T13:16:43Z</time></trkpt><trkpt lat="44.99322012258384" lon="7.73708301015371"><ele>274.0</ele><time>2026-04-10T13:16:45Z</time></trkpt><trkpt lat="44.993286220371" lon="7.736990531704487"><ele>274.0</ele><time>2026-04-10T13:16:48Z</time></trkpt><trkpt lat="44.993343151451846" lon="7.736894697940647"><ele>274.0</ele><time>2026-04-10T13:16:51Z</time></trkpt><trkpt lat="44.99340238683458" lon="7.736803074083839"><ele>274.0</ele><time>2026-04-10T13:16:54Z</time></trkpt><trkpt lat="44.99346675590621" lon="7.73671545494593"><ele>275.5</ele><time>2026-04-10T13:16:57Z</time></trkpt><trkpt lat="44.99352978284558" lon="7.736631300795032"><ele>277.0</ele><time>2026-04-10T13:17:00Z</time></trkpt><trkpt lat="44.993591446065274" lon="7.736547516385488"><ele>278.5</ele><time>2026-04-10T13:17:03Z</time></trkpt><trkpt lat="44.993656155010925" lon="7.736465396199392"><ele>280.0</ele><time>2026-04-10T13:17:06Z</time></trkpt><trkpt lat="44.99371781224346" lon="7.7364024831631895"><ele>281.5</ele><time>2026-04-10T13:17:09Z</time></trkpt><trkpt lat="44.993778138469494" lon="7.7363417500589255"><ele>283.0</ele><time>2026-04-10T13:17:12Z</time></trkpt><trkpt lat="44.99384265764021" lon="7.736289275140694"><ele>283.0</ele><time>2026-04-10T13:17:15Z</time></trkpt><trkpt lat="44.9939097692413" lon="7.736238937863407"><ele>283.0</ele><time>2026-04-10T13:17:19Z</time></trkpt><trkpt lat="44.993984900892926" lon="7.736200174308501"><ele>283.0</ele><time>2026-04-10T13:17:22Z</time></trkpt><trkpt lat="44.994053065804806" lon="7.73618051095702"><ele>283.0</ele><time>2026-04-10T13:17:25Z</time></trkpt><trkpt lat="44.9941438284508" lon="7.736188998069281"><ele>283.0</ele><time>2026-04-10T13:17:28Z</time></trkpt><trkpt lat="44.99421864294157" lon="7.736202910557543"><ele>283.0</ele><time>2026-04-10T13:17:31Z</time></trkpt><trkpt lat="44.9942856582546" lon="7.73623605959883"><ele>283.8571428571429</ele><time>2026-04-10T13:17:35Z</time></trkpt><trkpt lat="44.994350369802056" lon="7.736264571862999"><ele>284.7142857142857</ele><time>2026-04-10T13:17:38Z</time></trkpt><trkpt lat="44.99441359761972" lon="7.7362264636010885"><ele>285.57142857142856</ele><time>2026-04-10T13:17:42Z</time></trkpt><trkpt lat="44.99446512289432" lon="7.736172219263968"><ele>286.42857142857144</ele><time>2026-04-10T13:17:45Z</time></trkpt><trkpt lat="44.994526155515636" lon="7.73609630410218"><ele>287.2857142857143</ele><time>2026-04-10T13:17:48Z</time></trkpt><trkpt lat="44.9945983775424" lon="7.736012554236424"><ele>288.14285714285717</ele><time>2026-04-10T13:17:50Z</time></trkpt><trkpt lat="44.99465666105241" lon="7.735966564556823"><ele>289.0</ele><time>2026-04-10T13:17:52Z</time></trkpt><trkpt lat="44.99472425477114" lon="7.735894377899846"><ele>289.0</ele><time>2026-04-10T13:17:54Z</time></trkpt><trkpt lat="44.9947951091716" lon="7.735811778681983"><ele>289.0</ele><time>2026-04-10T13:17:56Z</time></trkpt><trkpt lat="44.99486561925841" lon="7.735731664613245"><ele>289.0</ele><time>2026-04-10T13:17:58Z</time></trkpt><trkpt lat="44.994938236851375" lon="7.735648271444067"><ele>289.0</ele><time>2026-04-10T13:18:00Z</time></trkpt><trkpt lat="44.995005555973854" lon="7.735553567224852"><ele>289.0</ele><time>2026-04-10T13:18:02Z</time></trkpt><trkpt lat="44.99507684223525" lon="7.7354481994525655"><ele>287.8</ele><time>2026-04-10T13:18:04Z</time></trkpt><trkpt lat="44.995149335207614" lon="7.735329047947828"><ele>286.59999999999997</ele><time>2026-04-10T13:18:06Z</time></trkpt><trkpt lat="44.99520964347174" lon="7.735287023613691"><ele>285.4</ele><time>2026-04-10T13:18:07Z</time></trkpt><trkpt lat="44.99528633774488" lon="7.735158955762549"><ele>284.2</ele><time>2026-04-10T13:18:09Z</time></trkpt><trkpt lat="44.995365751487284" lon="7.7350263467651725"><ele>283.0</ele><time>2026-04-10T13:18:11Z</time></trkpt><trkpt lat="44.995449119397044" lon="7.734887262969871"><ele>282.6</ele><time>2026-04-10T13:18:13Z</time></trkpt><trkpt lat="44.9955338800583" lon="7.73474680763871"><ele>282.20000000000005</ele><time>2026-04-10T13:18:15Z</time></trkpt><trkpt lat="44.99560988189852" lon="7.734626952273234"><ele>281.8</ele><time>2026-04-10T13:18:17Z</time></trkpt><trkpt lat="44.995671390028704" lon="7.734540734910297"><ele>281.40000000000003</ele><time>2026-04-10T13:18:19Z</time></trkpt><trkpt lat="44.99574918934641" lon="7.734500429366177"><ele>281.0</ele><time>2026-04-10T13:18:21Z</time></trkpt><trkpt lat="44.995844427759565" lon="7.734537725005839"><ele>282.0</ele><time>2026-04-10T13:18:23Z</time></trkpt><trkpt lat="44.99594032933656" lon="7.734597174834491"><ele>283.0</ele><time>2026-04-10T13:18:25Z</time></trkpt><trkpt lat="44.996043771338165" lon="7.734632486641355"><ele>284.0</ele><time>2026-04-10T13:18:27Z</time></trkpt><trkpt lat="44.996141356708776" lon="7.734709256586498"><ele>285.0</ele><time>2026-04-10T13:18:29Z</time></trkpt><trkpt lat="44.996230555609905" lon="7.734732655226472"><ele>286.0</ele><time>2026-04-10T13:18:31Z</time></trkpt><trkpt lat="44.996318094435786" lon="7.734702252378836"><ele>286.0</ele><time>2026-04-10T13:18:33Z</time></trkpt><trkpt lat="44.99636105206648" lon="7.734555165936545"><ele>286.0</ele><time>2026-04-10T13:18:35Z</time></trkpt><trkpt lat="44.99639913740765" lon="7.734425562852741"><ele>286.0</ele><time>2026-04-10T13:18:37Z</time></trkpt><trkpt lat="44.9964515469369" lon="7.734284157920939"><ele>286.0</ele><time>2026-04-10T13:18:39Z</time></trkpt><trkpt lat="44.996511427191685" lon="7.734144302540743"><ele>286.0</ele><time>2026-04-10T13:18:41Z</time></trkpt><trkpt lat="44.996569485495705" lon="7.733989006240391"><ele>285.5</ele><time>2026-04-10T13:18:43Z</time></trkpt><trkpt lat="44.996592664580284" lon="7.733901223889905"><ele>285.0</ele><time>2026-04-10T13:18:44Z</time></trkpt><trkpt lat="44.99661743999202" lon="7.733813435582937"><ele>284.5</ele><time>2026-04-10T13:18:45Z</time></trkpt><trkpt lat="44.996668921263776" lon="7.733729171183193"><ele>284.0</ele><time>2026-04-10T13:18:46Z</time></trkpt><trkpt lat="44.996702585054884" lon="7.733648403478284"><ele>283.5</ele><time>2026-04-10T13:18:47Z</time></trkpt><trkpt lat="44.9967232950136" lon="7.733560175317287"><ele>283.0</ele><time>2026-04-10T13:18:48Z</time></trkpt><trkpt lat="44.99680000538795" lon="7.733415399912454"><ele>283.0</ele><time>2026-04-10T13:18:50Z</time></trkpt><trkpt lat="44.996821177230366" lon="7.733325929669084"><ele>283.0</ele><time>2026-04-10T13:18:51Z</time></trkpt><trkpt lat="44.996856787995064" lon="7.733244692999171"><ele>283.0</ele><time>2026-04-10T13:18:52Z</time></trkpt><trkpt lat="44.996888937749894" lon="7.733164965443698"><ele>283.0</ele><time>2026-04-10T13:18:53Z</time></trkpt><trkpt lat="44.99694874220569" lon="7.733021374599281"><ele>283.0</ele><time>2026-04-10T13:18:55Z</time></trkpt><trkpt lat="44.997031239741965" lon="7.732916202298661"><ele>283.0</ele><time>2026-04-10T13:18:57Z</time></trkpt><trkpt lat="44.997116182593935" lon="7.732854809520136"><ele>283.0</ele><time>2026-04-10T13:18:59Z</time></trkpt><trkpt lat="44.99719938907115" lon="7.732821828684715"><ele>283.0</ele><time>2026-04-10T13:19:01Z</time></trkpt><trkpt lat="44.99727289137364" lon="7.732803108868508"><ele>283.0</ele><time>2026-04-10T13:19:03Z</time></trkpt><trkpt lat="44.997345974822174" lon="7.732770761881666"><ele>283.0</ele><time>2026-04-10T13:19:05Z</time></trkpt><trkpt lat="44.997437865847616" lon="7.7327495086564"><ele>283.0</ele><time>2026-04-10T13:19:08Z</time></trkpt><trkpt lat="44.997528588457726" lon="7.732738919351357"><ele>283.0</ele><time>2026-04-10T13:19:11Z</time></trkpt><trkpt lat="44.997597559076766" lon="7.732738338403648"><ele>283.3333333333333</ele><time>2026-04-10T13:19:13Z</time></trkpt><trkpt lat="44.99767604641199" lon="7.73275115614842"><ele>283.66666666666663</ele><time>2026-04-10T13:19:15Z</time></trkpt><trkpt lat="44.99775614756847" lon="7.732775994256813"><ele>284.0</ele><time>2026-04-10T13:19:17Z</time></trkpt><trkpt lat="44.997827357680656" lon="7.732805948016524"><ele>284.3333333333333</ele><time>2026-04-10T13:19:19Z</time></trkpt><trkpt lat="44.99790629158511" lon="7.732858995107566"><ele>284.6666666666667</ele><time>2026-04-10T13:19:21Z</time></trkpt><trkpt lat="44.99797954174883" lon="7.732913193500172"><ele>285.0</ele><time>2026-04-10T13:19:23Z</time></trkpt><trkpt lat="44.998053006787444" lon="7.732932594703059"><ele>285.0</ele><time>2026-04-10T13:19:25Z</time></trkpt><trkpt lat="44.99812516527774" lon="7.732927320878637"><ele>285.0</ele><time>2026-04-10T13:19:28Z</time></trkpt><trkpt lat="44.99822341772534" lon="7.73288598453487"><ele>285.0</ele><time>2026-04-10T13:19:31Z</time></trkpt><trkpt lat="44.998279894529794" lon="7.732826460935052"><ele>285.0</ele><time>2026-04-10T13:19:33Z</time></trkpt><trkpt lat="44.99847178608519" lon="7.732769545583548"><ele>285.0</ele><time>2026-04-10T13:19:35Z</time></trkpt><trkpt lat="44.998551821576186" lon="7.732701233688136"><ele>285.8333333333333</ele><time>2026-04-10T13:19:37Z</time></trkpt><trkpt lat="44.998632353656404" lon="7.7326615340365645"><ele>286.6666666666667</ele><time>2026-04-10T13:19:39Z</time></trkpt><trkpt lat="44.99867334426737" lon="7.732560317193021"><ele>287.5</ele><time>2026-04-10T13:19:41Z</time></trkpt><trkpt lat="44.99859943583405" lon="7.732476438869622"><ele>288.33333333333337</ele><time>2026-04-10T13:19:43Z</time></trkpt><trkpt lat="44.99857698244005" lon="7.73238785643863"><ele>289.1666666666667</ele><time>2026-04-10T13:19:45Z</time></trkpt><trkpt lat="44.99855088441543" lon="7.732286166499015"><ele>290.0</ele><time>2026-04-10T13:19:47Z</time></trkpt><trkpt lat="44.99851623520934" lon="7.732176521786894"><ele>290.0</ele><time>2026-04-10T13:19:49Z</time></trkpt><trkpt lat="44.99848475772856" lon="7.732072855364564"><ele>290.0</ele><time>2026-04-10T13:19:51Z</time></trkpt><trkpt lat="44.99844351384315" lon="7.731960951995312"><ele>290.0</ele><time>2026-04-10T13:19:53Z</time></trkpt><trkpt lat="44.998426195096634" lon="7.7318390323596295"><ele>290.0</ele><time>2026-04-10T13:19:56Z</time></trkpt><trkpt lat="44.998391805859136" lon="7.731756098234317"><ele>290.0</ele><time>2026-04-10T13:20:01Z</time></trkpt><trkpt lat="44.99837051156331" lon="7.731668212344027"><ele>290.0</ele><time>2026-04-10T13:20:03Z</time></trkpt><trkpt lat="44.99834159144946" lon="7.731584825367012"><ele>289.8571428571429</ele><time>2026-04-10T13:20:06Z</time></trkpt><trkpt lat="44.99832928771407" lon="7.731489108113305"><ele>289.7142857142857</ele><time>2026-04-10T13:20:09Z</time></trkpt><trkpt lat="44.99831199355367" lon="7.731379694800574"><ele>289.57142857142856</ele><time>2026-04-10T13:20:13Z</time></trkpt><trkpt lat="44.99828440014755" lon="7.731262341076879"><ele>289.42857142857144</ele><time>2026-04-10T13:20:18Z</time></trkpt><trkpt lat="44.99824065662253" lon="7.731178325119777"><ele>289.2857142857143</ele><time>2026-04-10T13:20:22Z</time></trkpt><trkpt lat="44.998212571784805" lon="7.731093425554314"><ele>289.14285714285717</ele><time>2026-04-10T13:20:25Z</time></trkpt><trkpt lat="44.99818126375601" lon="7.730999331261355"><ele>289.0</ele><time>2026-04-10T13:20:29Z</time></trkpt><trkpt lat="44.998135746031046" lon="7.730886229580634"><ele>289.8333333333333</ele><time>2026-04-10T13:20:32Z</time></trkpt><trkpt lat="44.99809520850487" lon="7.730785340136537"><ele>290.66666666666663</ele><time>2026-04-10T13:20:35Z</time></trkpt><trkpt lat="44.998111198882455" lon="7.730674586734732"><ele>291.5</ele><time>2026-04-10T13:20:38Z</time></trkpt><trkpt lat="44.99818827856887" lon="7.730660802123056"><ele>292.3333333333333</ele><time>2026-04-10T13:20:40Z</time></trkpt><trkpt lat="44.99826203457159" lon="7.730643073444347"><ele>293.1666666666667</ele><time>2026-04-10T13:20:42Z</time></trkpt><trkpt lat="44.99833580962617" lon="7.730653999251939"><ele>294.0</ele><time>2026-04-10T13:20:44Z</time></trkpt><trkpt lat="44.99843282180578" lon="7.730649192102014"><ele>294.3333333333333</ele><time>2026-04-10T13:20:46Z</time></trkpt><trkpt lat="44.99851750680276" lon="7.730650558664485"><ele>294.6666666666667</ele><time>2026-04-10T13:20:49Z</time></trkpt><trkpt lat="44.998603900403296" lon="7.730654907191704"><ele>295.0</ele><time>2026-04-10T13:20:51Z</time></trkpt><trkpt lat="44.998689252501904" lon="7.7306610824674005"><ele>295.33333333333337</ele><time>2026-04-10T13:20:54Z</time></trkpt><trkpt lat="44.99878547680122" lon="7.730650106062948"><ele>295.6666666666667</ele><time>2026-04-10T13:20:56Z</time></trkpt><trkpt lat="44.99885619807698" lon="7.7306415843653955"><ele>296.0</ele><time>2026-04-10T13:20:57Z</time></trkpt><trkpt lat="44.99893839005103" lon="7.730664748805474"><ele>296.0</ele><time>2026-04-10T13:20:59Z</time></trkpt><trkpt lat="44.99903239022672" lon="7.730629305999987"><ele>296.0</ele><time>2026-04-10T13:21:01Z</time></trkpt><trkpt lat="44.99911653072522" lon="7.730582318812032"><ele>296.0</ele><time>2026-04-10T13:21:03Z</time></trkpt><trkpt lat="44.99919233345331" lon="7.730527174134265"><ele>296.0</ele><time>2026-04-10T13:21:05Z</time></trkpt><trkpt lat="44.99924897379293" lon="7.730481016449186"><ele>296.0</ele><time>2026-04-10T13:21:07Z</time></trkpt><trkpt lat="44.9992670442345" lon="7.730297843062905"><ele>297.1666666666667</ele><time>2026-04-10T13:21:09Z</time></trkpt><trkpt lat="44.999272837214214" lon="7.730203427017783"><ele>298.33333333333337</ele><time>2026-04-10T13:21:11Z</time></trkpt><trkpt lat="44.99928101177833" lon="7.730105447006519"><ele>299.5</ele><time>2026-04-10T13:21:13Z</time></trkpt><trkpt lat="44.999294013216144" lon="7.729974853653751"><ele>300.6666666666667</ele><time>2026-04-10T13:21:15Z</time></trkpt><trkpt lat="44.99930635379823" lon="7.72983398535382"><ele>301.8333333333333</ele><time>2026-04-10T13:21:17Z</time></trkpt><trkpt lat="44.999318663855526" lon="7.729675833135966"><ele>303.0</ele><time>2026-04-10T13:21:19Z</time></trkpt><trkpt lat="44.99932974458587" lon="7.729500791163813"><ele>303.0</ele><time>2026-04-10T13:21:21Z</time></trkpt><trkpt lat="44.99933378033186" lon="7.729405845331433"><ele>303.0</ele><time>2026-04-10T13:21:22Z</time></trkpt><trkpt lat="44.999322278113304" lon="7.729312726161805"><ele>303.0</ele><time>2026-04-10T13:21:23Z</time></trkpt><trkpt lat="44.99932407765526" lon="7.729222379881395"><ele>303.0</ele><time>2026-04-10T13:21:24Z</time></trkpt><trkpt lat="44.99933838965004" lon="7.729118914433374"><ele>303.0</ele><time>2026-04-10T13:21:25Z</time></trkpt><trkpt lat="44.999331250860564" lon="7.729011660965374"><ele>303.0</ele><time>2026-04-10T13:21:26Z</time></trkpt><trkpt lat="44.99930803023846" lon="7.728917078136634"><ele>303.0</ele><time>2026-04-10T13:21:27Z</time></trkpt><trkpt lat="44.99930961295891" lon="7.728812348067799"><ele>303.0</ele><time>2026-04-10T13:21:28Z</time></trkpt><trkpt lat="44.99929665874104" lon="7.728720680171136"><ele>303.0</ele><time>2026-04-10T13:21:29Z</time></trkpt><trkpt lat="44.99926868734992" lon="7.728586063206455"><ele>303.0</ele><time>2026-04-10T13:21:31Z</time></trkpt><trkpt lat="44.99925396409188" lon="7.728458144274199"><ele>303.0</ele><time>2026-04-10T13:21:33Z</time></trkpt><trkpt lat="44.99931765481304" lon="7.728351904180113"><ele>303.0</ele><time>2026-04-10T13:21:35Z</time></trkpt><trkpt lat="44.999336208505426" lon="7.728188699210677"><ele>302.4</ele><time>2026-04-10T13:21:37Z</time></trkpt><trkpt lat="44.99935786462678" lon="7.728091947926212"><ele>301.8</ele><time>2026-04-10T13:21:38Z</time></trkpt><trkpt lat="44.99938319473841" lon="7.727976221327545"><ele>301.2</ele><time>2026-04-10T13:21:39Z</time></trkpt><trkpt lat="44.99942720479201" lon="7.727850914248679"><ele>300.6</ele><time>2026-04-10T13:21:40Z</time></trkpt><trkpt lat="44.99945851824314" lon="7.727713118487328"><ele>300.0</ele><time>2026-04-10T13:21:41Z</time></trkpt><trkpt lat="44.99948841749038" lon="7.7275906609669915"><ele>298.3333333333333</ele><time>2026-04-10T13:21:42Z</time></trkpt><trkpt lat="44.99952058314766" lon="7.727474559723613"><ele>296.6666666666667</ele><time>2026-04-10T13:21:43Z</time></trkpt><trkpt lat="44.99955480033006" lon="7.727370808158626"><ele>295.0</ele><time>2026-04-10T13:21:44Z</time></trkpt><trkpt lat="44.99959206569362" lon="7.727271647478075"><ele>293.33333333333337</ele><time>2026-04-10T13:21:45Z</time></trkpt><trkpt lat="44.999626667359216" lon="7.727188437242451"><ele>291.6666666666667</ele><time>2026-04-10T13:21:46Z</time></trkpt><trkpt lat="44.999643474736835" lon="7.727096603679611"><ele>290.0</ele><time>2026-04-10T13:21:47Z</time></trkpt><trkpt lat="44.99968559505723" lon="7.727008906446805"><ele>290.0</ele><time>2026-04-10T13:21:48Z</time></trkpt><trkpt lat="44.999725675366264" lon="7.726904083005246"><ele>290.0</ele><time>2026-04-10T13:21:49Z</time></trkpt><trkpt lat="44.99975870314571" lon="7.726792418471989"><ele>290.0</ele><time>2026-04-10T13:21:50Z</time></trkpt><trkpt lat="44.99979177441985" lon="7.726673685955673"><ele>290.0</ele><time>2026-04-10T13:21:51Z</time></trkpt><trkpt lat="44.999814873822565" lon="7.726547842738031"><ele>290.0</ele><time>2026-04-10T13:21:52Z</time></trkpt><trkpt lat="44.9998246875838" lon="7.726428471620085"><ele>290.0</ele><time>2026-04-10T13:21:53Z</time></trkpt><trkpt lat="44.99981955750216" lon="7.726293196984133"><ele>287.0</ele><time>2026-04-10T13:21:54Z</time></trkpt><trkpt lat="44.99980440907973" lon="7.726159140465256"><ele>284.0</ele><time>2026-04-10T13:21:55Z</time></trkpt><trkpt lat="44.999781822536626" lon="7.726013921386518"><ele>281.0</ele><time>2026-04-10T13:21:56Z</time></trkpt><trkpt lat="44.99976839999721" lon="7.725854856040772"><ele>278.0</ele><time>2026-04-10T13:21:57Z</time></trkpt><trkpt lat="44.99974145979252" lon="7.72570581301945"><ele>275.0</ele><time>2026-04-10T13:21:58Z</time></trkpt><trkpt lat="44.99971414267165" lon="7.725572162418929"><ele>273.0</ele><time>2026-04-10T13:21:59Z</time></trkpt><trkpt lat="44.99968124560014" lon="7.725437508861255"><ele>271.0</ele><time>2026-04-10T13:22:00Z</time></trkpt><trkpt lat="44.99962176352227" lon="7.7253031724901895"><ele>269.0</ele><time>2026-04-10T13:22:01Z</time></trkpt><trkpt lat="44.99958549248491" lon="7.725162667277061"><ele>267.0</ele><time>2026-04-10T13:22:02Z</time></trkpt><trkpt lat="44.99951444671527" lon="7.725040678455711"><ele>265.0</ele><time>2026-04-10T13:22:03Z</time></trkpt><trkpt lat="44.99945298262993" lon="7.724910742932276"><ele>263.8</ele><time>2026-04-10T13:22:04Z</time></trkpt><trkpt lat="44.99938706831871" lon="7.724785052834516"><ele>262.6</ele><time>2026-04-10T13:22:05Z</time></trkpt><trkpt lat="44.99932684047951" lon="7.72467099750961"><ele>261.4</ele><time>2026-04-10T13:22:06Z</time></trkpt><trkpt lat="44.99928618272619" lon="7.724553481561067"><ele>260.2</ele><time>2026-04-10T13:22:07Z</time></trkpt><trkpt lat="44.99924127713685" lon="7.724440567879398"><ele>259.0</ele><time>2026-04-10T13:22:08Z</time></trkpt><trkpt lat="44.99919877760497" lon="7.72431876896979"><ele>258.4</ele><time>2026-04-10T13:22:09Z</time></trkpt><trkpt lat="44.99916544793961" lon="7.7241910597509875"><ele>257.79999999999995</ele><time>2026-04-10T13:22:10Z</time></trkpt><trkpt lat="44.99912361246878" lon="7.724064878310073"><ele>257.20000000000005</ele><time>2026-04-10T13:22:11Z</time></trkpt><trkpt lat="44.999096418464156" lon="7.723936147449676"><ele>256.6</ele><time>2026-04-10T13:22:12Z</time></trkpt><trkpt lat="44.999087692110756" lon="7.723797640042413"><ele>256.0</ele><time>2026-04-10T13:22:13Z</time></trkpt><trkpt lat="44.9990668026904" lon="7.723671693083488"><ele>255.49999999999997</ele><time>2026-04-10T13:22:14Z</time></trkpt><trkpt lat="44.999050709726575" lon="7.723550699217957"><ele>255.0</ele><time>2026-04-10T13:22:15Z</time></trkpt><trkpt lat="44.99904207003169" lon="7.723436686839708"><ele>254.5</ele><time>2026-04-10T13:22:16Z</time></trkpt><trkpt lat="44.999032006498936" lon="7.723310438823943"><ele>254.0</ele><time>2026-04-10T13:22:17Z</time></trkpt><trkpt lat="44.99903649515359" lon="7.723187170423872"><ele>253.49999999999997</ele><time>2026-04-10T13:22:18Z</time></trkpt><trkpt lat="44.99905846448917" lon="7.723072335616897"><ele>253.0</ele><time>2026-04-10T13:22:19Z</time></trkpt><trkpt lat="44.99908023945632" lon="7.722950617892528"><ele>252.99999999999997</ele><time>2026-04-10T13:22:20Z</time></trkpt><trkpt lat="44.999101579785886" lon="7.72283133028126"><ele>253.0</ele><time>2026-04-10T13:22:21Z</time></trkpt><trkpt lat="44.999125602174615" lon="7.722715380094647"><ele>253.0</ele><time>2026-04-10T13:22:22Z</time></trkpt><trkpt lat="44.99914969483967" lon="7.72260866685747"><ele>253.0</ele><time>2026-04-10T13:22:23Z</time></trkpt><trkpt lat="44.999187515763495" lon="7.722470033259489"><ele>252.99999999999997</ele><time>2026-04-10T13:22:25Z</time></trkpt><trkpt lat="44.99923016275397" lon="7.722377672446541"><ele>253.0</ele><time>2026-04-10T13:23:29Z</time></trkpt><trkpt lat="44.99925623636573" lon="7.722255140725097"><ele>253.2</ele><time>2026-04-10T13:23:32Z</time></trkpt><trkpt lat="44.99922970987522" lon="7.722114758779448"><ele>253.4</ele><time>2026-04-10T13:23:34Z</time></trkpt><trkpt lat="44.99920547549181" lon="7.721973265073314"><ele>253.59999999999997</ele><time>2026-04-10T13:23:36Z</time></trkpt><trkpt lat="44.99918697964893" lon="7.721822688652332"><ele>253.79999999999998</ele><time>2026-04-10T13:23:38Z</time></trkpt><trkpt lat="44.99916636466211" lon="7.721673807124182"><ele>254.0</ele><time>2026-04-10T13:23:40Z</time></trkpt><trkpt lat="44.99914960179893" lon="7.721526449447991"><ele>254.0</ele><time>2026-04-10T13:23:42Z</time></trkpt><trkpt lat="44.99913844184424" lon="7.7213666219581345"><ele>254.0</ele><time>2026-04-10T13:23:44Z</time></trkpt><trkpt lat="44.99911254777229" lon="7.72120973529462"><ele>254.0</ele><time>2026-04-10T13:23:46Z</time></trkpt><trkpt lat="44.999093472699826" lon="7.721050796581937"><ele>254.0</ele><time>2026-04-10T13:23:48Z</time></trkpt><trkpt lat="44.99907370145633" lon="7.72088422033249"><ele>253.66666666666669</ele><time>2026-04-10T13:23:50Z</time></trkpt><trkpt lat="44.99904462624531" lon="7.720710288259404"><ele>253.33333333333334</ele><time>2026-04-10T13:23:52Z</time></trkpt><trkpt lat="44.9990255587333" lon="7.720621738309014"><ele>253.0</ele><time>2026-04-10T13:23:53Z</time></trkpt><trkpt lat="44.999008083625306" lon="7.720532593736302"><ele>252.66666666666669</ele><time>2026-04-10T13:23:54Z</time></trkpt><trkpt lat="44.9989873941677" lon="7.7204402903614975"><ele>252.33333333333334</ele><time>2026-04-10T13:23:55Z</time></trkpt><trkpt lat="44.99896642618641" lon="7.720350628766486"><ele>252.0</ele><time>2026-04-10T13:23:56Z</time></trkpt><trkpt lat="44.998942725337535" lon="7.720259556785649"><ele>252.0</ele><time>2026-04-10T13:23:57Z</time></trkpt><trkpt lat="44.99891441882596" lon="7.7201693584107725"><ele>252.0</ele><time>2026-04-10T13:23:58Z</time></trkpt><trkpt lat="44.998883682251524" lon="7.720076006530968"><ele>252.0</ele><time>2026-04-10T13:23:59Z</time></trkpt><trkpt lat="44.998855875908944" lon="7.719981938305932"><ele>252.0</ele><time>2026-04-10T13:24:00Z</time></trkpt><trkpt lat="44.99881775199326" lon="7.719893460737982"><ele>252.0</ele><time>2026-04-10T13:24:01Z</time></trkpt><trkpt lat="44.99877489955686" lon="7.719813364400773"><ele>252.0</ele><time>2026-04-10T13:24:02Z</time></trkpt><trkpt lat="44.998729978245954" lon="7.71973008101224"><ele>252.0</ele><time>2026-04-10T13:24:03Z</time></trkpt><trkpt lat="44.998686306768256" lon="7.71965123426098"><ele>252.0</ele><time>2026-04-10T13:24:04Z</time></trkpt><trkpt lat="44.998641256757665" lon="7.719571369023029"><ele>252.0</ele><time>2026-04-10T13:24:05Z</time></trkpt><trkpt lat="44.99859643854131" lon="7.719492101067391"><ele>252.0</ele><time>2026-04-10T13:24:06Z</time></trkpt><trkpt lat="44.99854979747852" lon="7.719412155539281"><ele>252.0</ele><time>2026-04-10T13:24:07Z</time></trkpt><trkpt lat="44.99850288159502" lon="7.719333962393885"><ele>252.0</ele><time>2026-04-10T13:24:08Z</time></trkpt><trkpt lat="44.998457910257635" lon="7.719254994062263"><ele>252.0</ele><time>2026-04-10T13:24:09Z</time></trkpt><trkpt lat="44.99841632802388" lon="7.7191718115551735"><ele>252.0</ele><time>2026-04-10T13:24:10Z</time></trkpt><trkpt lat="44.99837351635443" lon="7.719095863082178"><ele>251.85714285714286</ele><time>2026-04-10T13:24:11Z</time></trkpt><trkpt lat="44.99832686045855" lon="7.719017009488021"><ele>251.71428571428572</ele><time>2026-04-10T13:24:12Z</time></trkpt><trkpt lat="44.998283441728226" lon="7.718943631170503"><ele>251.57142857142856</ele><time>2026-04-10T13:24:13Z</time></trkpt><trkpt lat="44.998239900011825" lon="7.718863358091508"><ele>251.42857142857142</ele><time>2026-04-10T13:24:14Z</time></trkpt><trkpt lat="44.998200350306945" lon="7.718785966354138"><ele>251.28571428571428</ele><time>2026-04-10T13:24:15Z</time></trkpt><trkpt lat="44.99815761502592" lon="7.718713365337272"><ele>251.1428571428571</ele><time>2026-04-10T13:24:16Z</time></trkpt><trkpt lat="44.9981135870149" lon="7.7186414281307"><ele>250.99999999999997</ele><time>2026-04-10T13:24:17Z</time></trkpt><trkpt lat="44.99807382132543" lon="7.7185711669096495"><ele>251.8</ele><time>2026-04-10T13:24:18Z</time></trkpt><trkpt lat="44.998034035594536" lon="7.718500040288612"><ele>252.60000000000002</ele><time>2026-04-10T13:24:19Z</time></trkpt><trkpt lat="44.99795995997956" lon="7.71836666729743"><ele>253.4</ele><time>2026-04-10T13:24:21Z</time></trkpt><trkpt lat="44.99789752096911" lon="7.718242856068714"><ele>254.2</ele><time>2026-04-10T13:24:23Z</time></trkpt><trkpt lat="44.99783128617066" lon="7.718136835178092"><ele>255.0</ele><time>2026-04-10T13:24:25Z</time></trkpt><trkpt lat="44.99774608426095" lon="7.718049814156866"><ele>255.0</ele><time>2026-04-10T13:24:27Z</time></trkpt><trkpt lat="44.99763850018783" lon="7.718014034165676"><ele>255.0</ele><time>2026-04-10T13:24:29Z</time></trkpt><trkpt lat="44.99752815695136" lon="7.717997666053717"><ele>255.0</ele><time>2026-04-10T13:24:31Z</time></trkpt><trkpt lat="44.99741569456535" lon="7.717966500236122"><ele>255.0</ele><time>2026-04-10T13:24:33Z</time></trkpt><trkpt lat="44.99730301579142" lon="7.717923052277252"><ele>255.75</ele><time>2026-04-10T13:24:35Z</time></trkpt><trkpt lat="44.99719359576434" lon="7.7178570950029615"><ele>256.5</ele><time>2026-04-10T13:24:37Z</time></trkpt><trkpt lat="44.997087822077056" lon="7.717794525410875"><ele>257.25</ele><time>2026-04-10T13:24:39Z</time></trkpt><trkpt lat="44.99698641396674" lon="7.717718911304672"><ele>258.0</ele><time>2026-04-10T13:24:40.999Z</time></trkpt><trkpt lat="44.996883191440936" lon="7.717629151008315"><ele>258.0</ele><time>2026-04-10T13:24:42.999Z</time></trkpt><trkpt lat="44.99678325492294" lon="7.717524702346274"><ele>258.0</ele><time>2026-04-10T13:24:44.999Z</time></trkpt><trkpt lat="44.9967319148906" lon="7.717465874373156"><ele>258.0</ele><time>2026-04-10T13:24:45.999Z</time></trkpt><trkpt lat="44.996683479480566" lon="7.717405500130592"><ele>258.0</ele><time>2026-04-10T13:24:47Z</time></trkpt><trkpt lat="44.99663664561604" lon="7.7173426248021775"><ele>258.0</ele><time>2026-04-10T13:24:48Z</time></trkpt><trkpt lat="44.99659381644008" lon="7.717270999439925"><ele>258.0</ele><time>2026-04-10T13:24:49Z</time></trkpt><trkpt lat="44.996549676875354" lon="7.717198569768203"><ele>257.1428571428571</ele><time>2026-04-10T13:24:50Z</time></trkpt><trkpt lat="44.996502042460165" lon="7.717129140277972"><ele>256.2857142857143</ele><time>2026-04-10T13:24:51Z</time></trkpt><trkpt lat="44.996452099434585" lon="7.717062962152936"><ele>255.42857142857142</ele><time>2026-04-10T13:24:52Z</time></trkpt><trkpt lat="44.99640600113625" lon="7.716991661663443"><ele>254.57142857142856</ele><time>2026-04-10T13:24:53Z</time></trkpt><trkpt lat="44.996358492458675" lon="7.716920284917236"><ele>253.71428571428572</ele><time>2026-04-10T13:24:54Z</time></trkpt><trkpt lat="44.99630893814593" lon="7.716846117874133"><ele>252.85714285714286</ele><time>2026-04-10T13:24:55Z</time></trkpt><trkpt lat="44.9962626539351" lon="7.716777362615557"><ele>252.0</ele><time>2026-04-10T13:24:56Z</time></trkpt><trkpt lat="44.99621403699463" lon="7.7166998526457"><ele>252.0</ele><time>2026-04-10T13:24:57Z</time></trkpt><trkpt lat="44.99616725075256" lon="7.716615351754427"><ele>252.0</ele><time>2026-04-10T13:24:58Z</time></trkpt><trkpt lat="44.99611991877909" lon="7.716527597804356"><ele>252.0</ele><time>2026-04-10T13:24:59Z</time></trkpt><trkpt lat="44.996075013061755" lon="7.716442534941065"><ele>252.0</ele><time>2026-04-10T13:25:00Z</time></trkpt><trkpt lat="44.996026061678826" lon="7.716355707458696"><ele>252.0</ele><time>2026-04-10T13:25:01Z</time></trkpt><trkpt lat="44.99597715292747" lon="7.716270608232196"><ele>252.0</ele><time>2026-04-10T13:25:02Z</time></trkpt><trkpt lat="44.99592681431924" lon="7.7161819119644965"><ele>252.0</ele><time>2026-04-10T13:25:03Z</time></trkpt><trkpt lat="44.99588245261288" lon="7.716101433957481"><ele>252.0</ele><time>2026-04-10T13:25:04Z</time></trkpt><trkpt lat="44.99584125544437" lon="7.71602850839684"><ele>252.0</ele><time>2026-04-10T13:25:05Z</time></trkpt><trkpt lat="44.99579007847696" lon="7.715911078804028"><ele>252.0</ele><time>2026-04-10T13:25:07Z</time></trkpt><trkpt lat="44.9957688077909" lon="7.715808603940524"><ele>252.0</ele><time>2026-04-10T13:25:09Z</time></trkpt><trkpt lat="44.9957624723734" lon="7.715714606698366"><ele>252.0</ele><time>2026-04-10T13:25:13Z</time></trkpt><trkpt lat="44.995741251701865" lon="7.715600955678582"><ele>251.33333333333334</ele><time>2026-04-10T13:25:46Z</time></trkpt><trkpt lat="44.9957441412228" lon="7.715466976843847"><ele>250.66666666666669</ele><time>2026-04-10T13:25:49Z</time></trkpt><trkpt lat="44.99576190195279" lon="7.715356773367645"><ele>250.0</ele><time>2026-04-10T13:25:51Z</time></trkpt><trkpt lat="44.99578317810972" lon="7.715241443457798"><ele>249.33333333333334</ele><time>2026-04-10T13:25:53Z</time></trkpt><trkpt lat="44.995794401122474" lon="7.71514552347712"><ele>248.66666666666669</ele><time>2026-04-10T13:25:55Z</time></trkpt><trkpt lat="44.99582040247716" lon="7.715057904634308"><ele>248.0</ele><time>2026-04-10T13:25:57Z</time></trkpt><trkpt lat="44.995849382869196" lon="7.714958333641327"><ele>249.00000000000003</ele><time>2026-04-10T13:25:59Z</time></trkpt><trkpt lat="44.995875166640374" lon="7.714862457094385"><ele>250.0</ele><time>2026-04-10T13:26:01Z</time></trkpt><trkpt lat="44.99589457878616" lon="7.714757727548369"><ele>251.0</ele><time>2026-04-10T13:26:04Z</time></trkpt><trkpt lat="44.995925198763686" lon="7.714629976965299"><ele>252.0</ele><time>2026-04-10T13:26:07Z</time></trkpt><trkpt lat="44.99594757292103" lon="7.714539303501713"><ele>253.00000000000003</ele><time>2026-04-10T13:26:09Z</time></trkpt><trkpt lat="44.995977429519584" lon="7.71442133524739"><ele>254.0</ele><time>2026-04-10T13:26:12Z</time></trkpt><trkpt lat="44.99601263546255" lon="7.714320062791464"><ele>254.0</ele><time>2026-04-10T13:26:14Z</time></trkpt><trkpt lat="44.996053452426175" lon="7.714201518282971"><ele>253.99999999999997</ele><time>2026-04-10T13:26:16Z</time></trkpt><trkpt lat="44.99609820168697" lon="7.714077165116415"><ele>253.99999999999997</ele><time>2026-04-10T13:26:18Z</time></trkpt><trkpt lat="44.99614410433283" lon="7.71395187047593"><ele>254.0</ele><time>2026-04-10T13:26:20Z</time></trkpt><trkpt lat="44.99618299134958" lon="7.713823093066979"><ele>254.0</ele><time>2026-04-10T13:26:22Z</time></trkpt><trkpt lat="44.99622945690757" lon="7.713688220722202"><ele>253.6</ele><time>2026-04-10T13:26:24Z</time></trkpt><trkpt lat="44.996265587352084" lon="7.713548860319085"><ele>253.2</ele><time>2026-04-10T13:26:26Z</time></trkpt><trkpt lat="44.99630469478725" lon="7.713412799187664"><ele>252.79999999999998</ele><time>2026-04-10T13:26:28Z</time></trkpt><trkpt lat="44.996340454650856" lon="7.713282423560621"><ele>252.39999999999998</ele><time>2026-04-10T13:26:30Z</time></trkpt><trkpt lat="44.99637210129931" lon="7.713164542927101"><ele>252.0</ele><time>2026-04-10T13:26:32Z</time></trkpt><trkpt lat="44.99640334120305" lon="7.71304428387502"><ele>252.0</ele><time>2026-04-10T13:26:33.999Z</time></trkpt><trkpt lat="44.99643876157316" lon="7.712914659816303"><ele>252.0</ele><time>2026-04-10T13:26:35.999Z</time></trkpt><trkpt lat="44.99648147727379" lon="7.712777193439599"><ele>252.0</ele><time>2026-04-10T13:26:37.999Z</time></trkpt><trkpt lat="44.99652088670663" lon="7.712639841677607"><ele>252.0</ele><time>2026-04-10T13:26:39.999Z</time></trkpt><trkpt lat="44.996556565234606" lon="7.7125026236933385"><ele>252.0</ele><time>2026-04-10T13:26:41.999Z</time></trkpt><trkpt lat="44.99659531797026" lon="7.712373538360433"><ele>252.2</ele><time>2026-04-10T13:26:43.999Z</time></trkpt><trkpt lat="44.99664114002223" lon="7.712247784729927"><ele>252.39999999999998</ele><time>2026-04-10T13:26:45.999Z</time></trkpt><trkpt lat="44.99668484221616" lon="7.712121295746933"><ele>252.60000000000002</ele><time>2026-04-10T13:26:47.999Z</time></trkpt><trkpt lat="44.99673060581085" lon="7.711996721776403"><ele>252.8</ele><time>2026-04-10T13:26:49.999Z</time></trkpt><trkpt lat="44.99677501937438" lon="7.711879941037004"><ele>253.0</ele><time>2026-04-10T13:26:51.999Z</time></trkpt><trkpt lat="44.99682362152711" lon="7.711765942602256"><ele>252.33333333333331</ele><time>2026-04-10T13:26:54Z</time></trkpt><trkpt lat="44.99687739682553" lon="7.7116626626396405"><ele>251.66666666666666</ele><time>2026-04-10T13:26:56Z</time></trkpt><trkpt lat="44.99692480393143" lon="7.711554591877459"><ele>251.0</ele><time>2026-04-10T13:26:58Z</time></trkpt><trkpt lat="44.99697545343334" lon="7.711445361707743"><ele>250.33333333333331</ele><time>2026-04-10T13:27:00Z</time></trkpt><trkpt lat="44.99701905809427" lon="7.711336816251467"><ele>249.66666666666666</ele><time>2026-04-10T13:27:02Z</time></trkpt><trkpt lat="44.99705458745546" lon="7.711243569389316"><ele>249.0</ele><time>2026-04-10T13:27:04Z</time></trkpt><trkpt lat="44.99706052232061" lon="7.7111189990253886"><ele>249.0</ele><time>2026-04-10T13:27:08Z</time></trkpt><trkpt lat="44.99709820169681" lon="7.711017807110958"><ele>248.99999999999997</ele><time>2026-04-10T13:27:10Z</time></trkpt><trkpt lat="44.99713224732676" lon="7.71092119579561"><ele>249.0</ele><time>2026-04-10T13:27:12Z</time></trkpt><trkpt lat="44.99715658739813" lon="7.710836094656572"><ele>249.0</ele><time>2026-04-10T13:27:15Z</time></trkpt><trkpt lat="44.99719279748915" lon="7.710756137509211"><ele>248.99999999999997</ele><time>2026-04-10T13:27:22Z</time></trkpt><trkpt lat="44.99726194574859" lon="7.7107285832861505"><ele>249.0</ele><time>2026-04-10T13:27:26Z</time></trkpt><trkpt lat="44.99725307260311" lon="7.710615443406454"><ele>249.0</ele><time>2026-04-10T13:27:29Z</time></trkpt><trkpt lat="44.99721680536383" lon="7.710527725599453"><ele>249.0</ele><time>2026-04-10T13:27:31Z</time></trkpt><trkpt lat="44.99724002436103" lon="7.7103921969778915"><ele>248.99999999999997</ele><time>2026-04-10T13:27:33Z</time></trkpt><trkpt lat="44.99727524954569" lon="7.710243514224973"><ele>248.99999999999997</ele><time>2026-04-10T13:27:35Z</time></trkpt><trkpt lat="44.997322113727925" lon="7.710080304611519"><ele>249.0</ele><time>2026-04-10T13:27:37Z</time></trkpt><trkpt lat="44.997359553230446" lon="7.710001690801683"><ele>249.0</ele><time>2026-04-10T13:27:38Z</time></trkpt><trkpt lat="44.997397252876866" lon="7.709915509712551"><ele>248.85714285714283</ele><time>2026-04-10T13:27:39Z</time></trkpt><trkpt lat="44.99743410196189" lon="7.709835471361312"><ele>248.7142857142857</ele><time>2026-04-10T13:27:40Z</time></trkpt><trkpt lat="44.99746964368606" lon="7.709743925140098"><ele>248.57142857142856</ele><time>2026-04-10T13:27:41Z</time></trkpt><trkpt lat="44.99750828860756" lon="7.709657027543296"><ele>248.42857142857144</ele><time>2026-04-10T13:27:42Z</time></trkpt><trkpt lat="44.99755076085431" lon="7.709569180817118"><ele>248.2857142857143</ele><time>2026-04-10T13:27:43Z</time></trkpt><trkpt lat="44.99759253839576" lon="7.709480293746378"><ele>248.14285714285717</ele><time>2026-04-10T13:27:44Z</time></trkpt><trkpt lat="44.997632603337024" lon="7.709392081496579"><ele>248.0</ele><time>2026-04-10T13:27:45Z</time></trkpt><trkpt lat="44.99767884806277" lon="7.709306111277204"><ele>247.83333333333334</ele><time>2026-04-10T13:27:46Z</time></trkpt><trkpt lat="44.99771941361755" lon="7.709216667542698"><ele>247.66666666666669</ele><time>2026-04-10T13:27:47Z</time></trkpt><trkpt lat="44.99776033541377" lon="7.709128376392635"><ele>247.5</ele><time>2026-04-10T13:27:48Z</time></trkpt><trkpt lat="44.997801099365745" lon="7.709038997819667"><ele>247.33333333333331</ele><time>2026-04-10T13:27:49Z</time></trkpt><trkpt lat="44.99784498218106" lon="7.708943548362383"><ele>247.16666666666666</ele><time>2026-04-10T13:27:50Z</time></trkpt><trkpt lat="44.99788919464677" lon="7.708855386006986"><ele>247.0</ele><time>2026-04-10T13:27:51Z</time></trkpt><trkpt lat="44.99793275177832" lon="7.708759528502583"><ele>246.99999999999997</ele><time>2026-04-10T13:27:52Z</time></trkpt><trkpt lat="44.997974711707" lon="7.708659336949918"><ele>247.0</ele><time>2026-04-10T13:27:53Z</time></trkpt><trkpt lat="44.99801349686851" lon="7.708558270163175"><ele>247.0</ele><time>2026-04-10T13:27:54Z</time></trkpt><trkpt lat="44.99806131073008" lon="7.708457766480597"><ele>247.0</ele><time>2026-04-10T13:27:55Z</time></trkpt><trkpt lat="44.99810711484983" lon="7.708361292784576"><ele>246.99999999999997</ele><time>2026-04-10T13:27:56Z</time></trkpt><trkpt lat="44.99815339874544" lon="7.708262055641769"><ele>247.0</ele><time>2026-04-10T13:27:57Z</time></trkpt><trkpt lat="44.998193720350734" lon="7.708163684802802"><ele>246.99999999999997</ele><time>2026-04-10T13:27:58Z</time></trkpt><trkpt lat="44.998238408559644" lon="7.7080592819982074"><ele>247.0</ele><time>2026-04-10T13:27:59Z</time></trkpt><trkpt lat="44.998276400632356" lon="7.707958978594618"><ele>247.0</ele><time>2026-04-10T13:28:00Z</time></trkpt><trkpt lat="44.99831585422932" lon="7.707855952293505"><ele>247.0</ele><time>2026-04-10T13:28:01Z</time></trkpt><trkpt lat="44.99836199187275" lon="7.7077503903244535"><ele>246.99999999999997</ele><time>2026-04-10T13:28:02Z</time></trkpt><trkpt lat="44.998405907583425" lon="7.707653468243971"><ele>247.0</ele><time>2026-04-10T13:28:03Z</time></trkpt><trkpt lat="44.99844959195433" lon="7.707551320470066"><ele>246.33333333333331</ele><time>2026-04-10T13:28:04Z</time></trkpt><trkpt lat="44.99848749297867" lon="7.707450291245845"><ele>245.66666666666666</ele><time>2026-04-10T13:28:05Z</time></trkpt><trkpt lat="44.998534233577736" lon="7.707347094666782"><ele>245.0</ele><time>2026-04-10T13:28:06Z</time></trkpt><trkpt lat="44.998573038176964" lon="7.707248098884524"><ele>244.33333333333331</ele><time>2026-04-10T13:28:07Z</time></trkpt><trkpt lat="44.998618234285445" lon="7.707145795091251"><ele>243.66666666666666</ele><time>2026-04-10T13:28:08Z</time></trkpt><trkpt lat="44.998663498927776" lon="7.707045446796555"><ele>243.0</ele><time>2026-04-10T13:28:09Z</time></trkpt><trkpt lat="44.99870309086389" lon="7.706952254124316"><ele>242.0</ele><time>2026-04-10T13:28:10Z</time></trkpt><trkpt lat="44.99874681473907" lon="7.706851616253833"><ele>241.0</ele><time>2026-04-10T13:28:11Z</time></trkpt><trkpt lat="44.99879245588112" lon="7.706753828306352"><ele>240.0</ele><time>2026-04-10T13:28:12Z</time></trkpt><trkpt lat="44.99883890481496" lon="7.706654159428349"><ele>239.0</ele><time>2026-04-10T13:28:13Z</time></trkpt><trkpt lat="44.99888096574071" lon="7.706555685572004"><ele>238.0</ele><time>2026-04-10T13:28:14Z</time></trkpt><trkpt lat="44.99892245907429" lon="7.706457476545861"><ele>237.0</ele><time>2026-04-10T13:28:15Z</time></trkpt><trkpt lat="44.998967041555346" lon="7.706359526654477"><ele>237.0</ele><time>2026-04-10T13:28:16Z</time></trkpt><trkpt lat="44.99900840082677" lon="7.706266603450477"><ele>237.0</ele><time>2026-04-10T13:28:17Z</time></trkpt><trkpt lat="44.999053260263246" lon="7.70616580410179"><ele>237.0</ele><time>2026-04-10T13:28:18Z</time></trkpt><trkpt lat="44.99909539425403" lon="7.706066756150345"><ele>237.0</ele><time>2026-04-10T13:28:19Z</time></trkpt><trkpt lat="44.99913610260107" lon="7.705967711690533"><ele>237.0</ele><time>2026-04-10T13:28:20Z</time></trkpt><trkpt lat="44.99917563548537" lon="7.705867724470971"><ele>237.0</ele><time>2026-04-10T13:28:21Z</time></trkpt><trkpt lat="44.999214777974565" lon="7.705766112165917"><ele>238.0</ele><time>2026-04-10T13:28:22Z</time></trkpt><trkpt lat="44.99925509498681" lon="7.7056675697503705"><ele>239.0</ele><time>2026-04-10T13:28:23Z</time></trkpt><trkpt lat="44.99929444450291" lon="7.705568074790692"><ele>240.0</ele><time>2026-04-10T13:28:24Z</time></trkpt><trkpt lat="44.99933213398769" lon="7.7054677824603255"><ele>241.0</ele><time>2026-04-10T13:28:25Z</time></trkpt><trkpt lat="44.999368007475304" lon="7.705371811456743"><ele>242.0</ele><time>2026-04-10T13:28:26Z</time></trkpt><trkpt lat="44.999392400786626" lon="7.705280732622497"><ele>243.0</ele><time>2026-04-10T13:28:26.999Z</time></trkpt><trkpt lat="44.999425599631934" lon="7.705112226561745"><ele>243.0</ele><time>2026-04-10T13:28:28.999Z</time></trkpt><trkpt lat="44.999461048626394" lon="7.704942342926956"><ele>243.0</ele><time>2026-04-10T13:28:30.999Z</time></trkpt><trkpt lat="44.999475015070296" lon="7.704855503472547"><ele>243.0</ele><time>2026-04-10T13:28:31.999Z</time></trkpt><trkpt lat="44.99949897768098" lon="7.704766445550093"><ele>243.0</ele><time>2026-04-10T13:28:32.999Z</time></trkpt><trkpt lat="44.99952256152011" lon="7.704679341569552"><ele>243.0</ele><time>2026-04-10T13:28:33.999Z</time></trkpt><trkpt lat="44.999536138663345" lon="7.704590974696435"><ele>243.0</ele><time>2026-04-10T13:28:34.999Z</time></trkpt><trkpt lat="44.99955122318718" lon="7.704498994825505"><ele>243.14285714285714</ele><time>2026-04-10T13:28:35.999Z</time></trkpt><trkpt lat="44.999570047362205" lon="7.704411724158016"><ele>243.28571428571428</ele><time>2026-04-10T13:28:36.999Z</time></trkpt><trkpt lat="44.99958983923531" lon="7.704318393972699"><ele>243.42857142857142</ele><time>2026-04-10T13:28:37.999Z</time></trkpt><trkpt lat="44.99961091466232" lon="7.704232171960722"><ele>243.57142857142856</ele><time>2026-04-10T13:28:38.999Z</time></trkpt><trkpt lat="44.999631261250045" lon="7.704145190437669"><ele>243.71428571428572</ele><time>2026-04-10T13:28:39.999Z</time></trkpt><trkpt lat="44.99965316624381" lon="7.704057752050494"><ele>243.85714285714283</ele><time>2026-04-10T13:28:40.999Z</time></trkpt><trkpt lat="44.999678144893394" lon="7.70397152812438"><ele>243.99999999999997</ele><time>2026-04-10T13:28:41.999Z</time></trkpt><trkpt lat="44.99970330730273" lon="7.703882514778051"><ele>243.99999999999997</ele><time>2026-04-10T13:28:42.999Z</time></trkpt><trkpt lat="44.99972709914204" lon="7.703797382273643"><ele>244.0</ele><time>2026-04-10T13:28:43.999Z</time></trkpt><trkpt lat="44.999747562083996" lon="7.703705899887786"><ele>243.99999999999997</ele><time>2026-04-10T13:28:44.999Z</time></trkpt><trkpt lat="44.999769683421334" lon="7.703616492921459"><ele>243.99999999999997</ele><time>2026-04-10T13:28:45.999Z</time></trkpt><trkpt lat="44.99978971678647" lon="7.703524703040027"><ele>244.0</ele><time>2026-04-10T13:28:46.999Z</time></trkpt><trkpt lat="44.999815704459195" lon="7.703435145848192"><ele>243.99999999999997</ele><time>2026-04-10T13:28:47.999Z</time></trkpt><trkpt lat="44.99984416632288" lon="7.703350766614794"><ele>243.99999999999997</ele><time>2026-04-10T13:28:48.999Z</time></trkpt><trkpt lat="44.999869601201425" lon="7.70326638730172"><ele>243.66666666666666</ele><time>2026-04-10T13:28:49.999Z</time></trkpt><trkpt lat="44.99989972192625" lon="7.7031806083535574"><ele>243.33333333333331</ele><time>2026-04-10T13:28:50.999Z</time></trkpt><trkpt lat="44.9999309948755" lon="7.703096556371502"><ele>243.0</ele><time>2026-04-10T13:28:51.999Z</time></trkpt><trkpt lat="44.99995757481934" lon="7.703013553228867"><ele>242.66666666666669</ele><time>2026-04-10T13:28:52.999Z</time></trkpt><trkpt lat="44.99998596073761" lon="7.702933251004276"><ele>242.33333333333334</ele><time>2026-04-10T13:28:53.999Z</time></trkpt><trkpt lat="45.00005215443835" lon="7.702765802748693"><ele>242.0</ele><time>2026-04-10T13:28:55.999Z</time></trkpt><trkpt lat="45.00010316569274" lon="7.7026121297946215"><ele>242.0</ele><time>2026-04-10T13:28:57.999Z</time></trkpt><trkpt lat="45.00017403828173" lon="7.7024643925463225"><ele>242.0</ele><time>2026-04-10T13:29:00Z</time></trkpt><trkpt lat="45.00023928674847" lon="7.70232330457812"><ele>242.0</ele><time>2026-04-10T13:29:02Z</time></trkpt><trkpt lat="45.00030397196424" lon="7.702178057983224"><ele>242.0</ele><time>2026-04-10T13:29:04Z</time></trkpt><trkpt lat="45.000370995726534" lon="7.702033980999925"><ele>242.0</ele><time>2026-04-10T13:29:06Z</time></trkpt><trkpt lat="45.00043680406983" lon="7.70189242076444"><ele>242.0</ele><time>2026-04-10T13:29:08Z</time></trkpt><trkpt lat="45.00049674100362" lon="7.701744061157717"><ele>242.0</ele><time>2026-04-10T13:29:10Z</time></trkpt><trkpt lat="45.00055614100122" lon="7.701597680769457"><ele>242.0</ele><time>2026-04-10T13:29:12Z</time></trkpt><trkpt lat="45.00061661417359" lon="7.701445579063761"><ele>242.0</ele><time>2026-04-10T13:29:14Z</time></trkpt><trkpt lat="45.000677983589476" lon="7.7012982724180485"><ele>242.0</ele><time>2026-04-10T13:29:16Z</time></trkpt><trkpt lat="45.00074183808891" lon="7.701160489868868"><ele>242.0</ele><time>2026-04-10T13:29:18Z</time></trkpt><trkpt lat="45.00080011121068" lon="7.701022988172757"><ele>242.0</ele><time>2026-04-10T13:29:20Z</time></trkpt><trkpt lat="45.00086300801854" lon="7.70088988962796"><ele>242.14285714285714</ele><time>2026-04-10T13:29:22Z</time></trkpt><trkpt lat="45.000924436675" lon="7.7007537987446995"><ele>242.28571428571428</ele><time>2026-04-10T13:29:24Z</time></trkpt><trkpt lat="45.000947684043275" lon="7.700666038050237"><ele>242.42857142857142</ele><time>2026-04-10T13:29:25Z</time></trkpt><trkpt lat="45.000961659682176" lon="7.700574071741873"><ele>242.57142857142856</ele><time>2026-04-10T13:29:26Z</time></trkpt><trkpt lat="45.000981088000536" lon="7.700481251989171"><ele>242.71428571428572</ele><time>2026-04-10T13:29:27Z</time></trkpt><trkpt lat="45.00099596610255" lon="7.700390870643209"><ele>242.85714285714283</ele><time>2026-04-10T13:29:28Z</time></trkpt><trkpt lat="45.00101014714728" lon="7.7002998698294425"><ele>243.0</ele><time>2026-04-10T13:29:29Z</time></trkpt><trkpt lat="45.00102347135558" lon="7.700205456046653"><ele>243.0</ele><time>2026-04-10T13:29:30Z</time></trkpt><trkpt lat="45.00103438706116" lon="7.7001070037474975"><ele>243.0</ele><time>2026-04-10T13:29:31Z</time></trkpt><trkpt lat="45.00104645918449" lon="7.700014008101594"><ele>243.0</ele><time>2026-04-10T13:29:32Z</time></trkpt><trkpt lat="45.0010572894139" lon="7.699915624859807"><ele>243.0</ele><time>2026-04-10T13:29:33Z</time></trkpt><trkpt lat="45.00106958592487" lon="7.699817496898105"><ele>243.0</ele><time>2026-04-10T13:29:34Z</time></trkpt><trkpt lat="45.001079143784054" lon="7.699720209490077"><ele>243.0</ele><time>2026-04-10T13:29:35Z</time></trkpt><trkpt lat="45.00108489425387" lon="7.699625275878424"><ele>243.0</ele><time>2026-04-10T13:29:36Z</time></trkpt><trkpt lat="45.00109653018842" lon="7.699531156812773"><ele>243.0</ele><time>2026-04-10T13:29:37Z</time></trkpt><trkpt lat="45.00110536762972" lon="7.699432998282652"><ele>243.0</ele><time>2026-04-10T13:29:38Z</time></trkpt><trkpt lat="45.00111352818011" lon="7.6993368373829645"><ele>243.0</ele><time>2026-04-10T13:29:39Z</time></trkpt><trkpt lat="45.00112468839757" lon="7.699245383333237"><ele>243.0</ele><time>2026-04-10T13:29:40Z</time></trkpt><trkpt lat="45.00114768171772" lon="7.699076609807384"><ele>243.0</ele><time>2026-04-10T13:29:42Z</time></trkpt><trkpt lat="45.00118124848246" lon="7.698916666209061"><ele>243.0</ele><time>2026-04-10T13:29:44Z</time></trkpt><trkpt lat="45.001216009376" lon="7.698761690890773"><ele>242.2</ele><time>2026-04-10T13:29:46Z</time></trkpt><trkpt lat="45.0012519453975" lon="7.698628082663157"><ele>241.4</ele><time>2026-04-10T13:29:48Z</time></trkpt><trkpt lat="45.00130833499251" lon="7.698525285323933"><ele>240.59999999999997</ele><time>2026-04-10T13:29:50Z</time></trkpt><trkpt lat="45.001398116927675" lon="7.6984667392763555"><ele>239.79999999999998</ele><time>2026-04-10T13:29:52Z</time></trkpt><trkpt lat="45.00149791575005" lon="7.6984495326596605"><ele>239.0</ele><time>2026-04-10T13:29:54Z</time></trkpt><trkpt lat="45.00158316831413" lon="7.698446972597893"><ele>239.33333333333334</ele><time>2026-04-10T13:29:56Z</time></trkpt><trkpt lat="45.0016488024814" lon="7.698426737253761"><ele>239.66666666666669</ele><time>2026-04-10T13:29:58Z</time></trkpt><trkpt lat="45.00171892256047" lon="7.69841150873587"><ele>240.0</ele><time>2026-04-10T13:30:02Z</time></trkpt><trkpt lat="45.00179843990413" lon="7.698380275801176"><ele>240.33333333333331</ele><time>2026-04-10T13:30:08Z</time></trkpt><trkpt lat="45.00189301759715" lon="7.698482988483106"><ele>240.66666666666666</ele><time>2026-04-10T13:30:10Z</time></trkpt><trkpt lat="45.00198826310758" lon="7.698473913557838"><ele>241.0</ele><time>2026-04-10T13:30:12Z</time></trkpt><trkpt lat="45.00208382789283" lon="7.698454144677896"><ele>241.0</ele><time>2026-04-10T13:30:14Z</time></trkpt><trkpt lat="45.00217680307876" lon="7.6983991265397105"><ele>241.00000000000003</ele><time>2026-04-10T13:30:15.999Z</time></trkpt><trkpt lat="45.00226673352994" lon="7.698334880401586"><ele>241.00000000000003</ele><time>2026-04-10T13:30:17.999Z</time></trkpt><trkpt lat="45.0023375696978" lon="7.698234385850187"><ele>241.0</ele><time>2026-04-10T13:30:19.999Z</time></trkpt><trkpt lat="45.00240757828232" lon="7.698131902334183"><ele>241.0</ele><time>2026-04-10T13:30:21.999Z</time></trkpt><trkpt lat="45.00243907015596" lon="7.6979862829305405"><ele>241.0</ele><time>2026-04-10T13:30:23.999Z</time></trkpt><trkpt lat="45.00245371620119" lon="7.697846071006327"><ele>241.00000000000003</ele><time>2026-04-10T13:30:25.999Z</time></trkpt><trkpt lat="45.002466515528496" lon="7.697709059408663"><ele>241.00000000000003</ele><time>2026-04-10T13:30:27.999Z</time></trkpt><trkpt lat="45.00248838104773" lon="7.697576545673295"><ele>241.0</ele><time>2026-04-10T13:30:29.999Z</time></trkpt><trkpt lat="45.002509839326706" lon="7.697450972801653"><ele>241.0</ele><time>2026-04-10T13:30:31.999Z</time></trkpt><trkpt lat="45.002537328550794" lon="7.697327006902794"><ele>242.66666666666666</ele><time>2026-04-10T13:30:33.999Z</time></trkpt><trkpt lat="45.00256912668767" lon="7.697207920414546"><ele>244.33333333333331</ele><time>2026-04-10T13:30:35.999Z</time></trkpt><trkpt lat="45.00260511716015" lon="7.697087375590373"><ele>246.0</ele><time>2026-04-10T13:30:37.999Z</time></trkpt><trkpt lat="45.00264550849661" lon="7.696972938724984"><ele>247.66666666666669</ele><time>2026-04-10T13:30:39.999Z</time></trkpt><trkpt lat="45.002683209253284" lon="7.696858805215545"><ele>249.33333333333334</ele><time>2026-04-10T13:30:41.999Z</time></trkpt><trkpt lat="45.00271319242558" lon="7.696746406132028"><ele>251.0</ele><time>2026-04-10T13:30:43.999Z</time></trkpt><trkpt lat="45.0027446942371" lon="7.696632655283675"><ele>251.00000000000003</ele><time>2026-04-10T13:30:45.999Z</time></trkpt><trkpt lat="45.002796907969476" lon="7.696544158512988"><ele>251.0</ele><time>2026-04-10T13:30:47.999Z</time></trkpt><trkpt lat="45.00283034148558" lon="7.696437863138678"><ele>251.0</ele><time>2026-04-10T13:30:49.999Z</time></trkpt><trkpt lat="45.0028576754161" lon="7.696330539042285"><ele>251.0</ele><time>2026-04-10T13:30:51.999Z</time></trkpt><trkpt lat="45.0028925282257" lon="7.696220251278092"><ele>251.00000000000003</ele><time>2026-04-10T13:30:53.999Z</time></trkpt><trkpt lat="45.002917786842126" lon="7.696121885686081"><ele>251.0</ele><time>2026-04-10T13:30:55.999Z</time></trkpt><trkpt lat="45.00295134339997" lon="7.696013121581176"><ele>250.8</ele><time>2026-04-10T13:30:57.999Z</time></trkpt><trkpt lat="45.00298829874631" lon="7.695885431930335"><ele>250.60000000000002</ele><time>2026-04-10T13:30:59.999Z</time></trkpt><trkpt lat="45.003000853028304" lon="7.695748988439997"><ele>250.4</ele><time>2026-04-10T13:31:01.999Z</time></trkpt><trkpt lat="45.003002365551836" lon="7.695609181150838"><ele>250.2</ele><time>2026-04-10T13:31:03.999Z</time></trkpt><trkpt lat="45.00298924111111" lon="7.695470130659975"><ele>250.0</ele><time>2026-04-10T13:31:06Z</time></trkpt><trkpt lat="45.00297339462064" lon="7.6953292714676165"><ele>249.0</ele><time>2026-04-10T13:31:08Z</time></trkpt><trkpt lat="45.00295391061805" lon="7.695162072846551"><ele>248.0</ele><time>2026-04-10T13:31:10Z</time></trkpt><trkpt lat="45.00293811721284" lon="7.6950247040140365"><ele>247.0</ele><time>2026-04-10T13:31:12Z</time></trkpt><trkpt lat="45.00292263635349" lon="7.6948831120285295"><ele>246.0</ele><time>2026-04-10T13:31:14Z</time></trkpt><trkpt lat="45.00291236918364" lon="7.694744390673469"><ele>245.0</ele><time>2026-04-10T13:31:16Z</time></trkpt><trkpt lat="45.002915146732335" lon="7.6946078219874625"><ele>245.0</ele><time>2026-04-10T13:31:18Z</time></trkpt><trkpt lat="45.00292790349325" lon="7.694471388417196"><ele>245.0</ele><time>2026-04-10T13:31:20Z</time></trkpt><trkpt lat="45.002950733904704" lon="7.694331298993192"><ele>245.0</ele><time>2026-04-10T13:31:22Z</time></trkpt><trkpt lat="45.0029726970219" lon="7.694189187777417"><ele>245.0</ele><time>2026-04-10T13:31:24Z</time></trkpt><trkpt lat="45.00299229516044" lon="7.694048210581259"><ele>245.0</ele><time>2026-04-10T13:31:26Z</time></trkpt><trkpt lat="45.00300632541704" lon="7.693901361975314"><ele>244.6</ele><time>2026-04-10T13:31:28Z</time></trkpt><trkpt lat="45.00302060319891" lon="7.693745516588505"><ele>244.2</ele><time>2026-04-10T13:31:30Z</time></trkpt><trkpt lat="45.003029458947104" lon="7.6936155123886"><ele>243.8</ele><time>2026-04-10T13:31:32Z</time></trkpt><trkpt lat="45.0030481583175" lon="7.693453581624901"><ele>243.4</ele><time>2026-04-10T13:31:34Z</time></trkpt><trkpt lat="45.00306639993346" lon="7.693288545360957"><ele>243.0</ele><time>2026-04-10T13:31:36Z</time></trkpt><trkpt lat="45.00307407265244" lon="7.693145166474314"><ele>243.8</ele><time>2026-04-10T13:31:38Z</time></trkpt><trkpt lat="45.00309198931614" lon="7.6929863802199465"><ele>244.60000000000002</ele><time>2026-04-10T13:31:40Z</time></trkpt><trkpt lat="45.00310901184237" lon="7.692836644669207"><ele>245.39999999999998</ele><time>2026-04-10T13:31:42Z</time></trkpt><trkpt lat="45.00312247539112" lon="7.692682763349444"><ele>246.2</ele><time>2026-04-10T13:31:44Z</time></trkpt><trkpt lat="45.00313120268838" lon="7.6925426683432265"><ele>247.0</ele><time>2026-04-10T13:31:46Z</time></trkpt><trkpt lat="45.00314199909902" lon="7.69240502848318"><ele>247.0</ele><time>2026-04-10T13:31:48Z</time></trkpt><trkpt lat="45.003151029010986" lon="7.692276385513266"><ele>247.0</ele><time>2026-04-10T13:31:50Z</time></trkpt><trkpt lat="45.0031625782752" lon="7.6921512609400455"><ele>247.0</ele><time>2026-04-10T13:31:52Z</time></trkpt><trkpt lat="45.0031720724416" lon="7.692025213794239"><ele>247.0</ele><time>2026-04-10T13:31:54Z</time></trkpt><trkpt lat="45.00318333245652" lon="7.691900857986368"><ele>247.0</ele><time>2026-04-10T13:31:56Z</time></trkpt><trkpt lat="45.00318755969353" lon="7.691771684923821"><ele>247.49999999999997</ele><time>2026-04-10T13:31:58Z</time></trkpt><trkpt lat="45.003194475910504" lon="7.691650371540947"><ele>248.0</ele><time>2026-04-10T13:32:00Z</time></trkpt><trkpt lat="45.00319703972478" lon="7.691524733074353"><ele>248.5</ele><time>2026-04-10T13:32:02Z</time></trkpt><trkpt lat="45.00319778318251" lon="7.691410098936758"><ele>249.0</ele><time>2026-04-10T13:32:04Z</time></trkpt><trkpt lat="45.00319595881529" lon="7.691294836450438"><ele>249.49999999999997</ele><time>2026-04-10T13:32:06Z</time></trkpt><trkpt lat="45.00319367099807" lon="7.691179940384512"><ele>250.0</ele><time>2026-04-10T13:32:08Z</time></trkpt><trkpt lat="45.00318662113844" lon="7.691070517008191"><ele>250.57142857142856</ele><time>2026-04-10T13:32:10Z</time></trkpt><trkpt lat="45.003181462477436" lon="7.690966283991526"><ele>251.14285714285717</ele><time>2026-04-10T13:32:11.999Z</time></trkpt><trkpt lat="45.003173708888674" lon="7.69086561777525"><ele>251.71428571428572</ele><time>2026-04-10T13:32:13.999Z</time></trkpt><trkpt lat="45.003157091574316" lon="7.690758914316716"><ele>252.28571428571428</ele><time>2026-04-10T13:32:15.999Z</time></trkpt><trkpt lat="45.00314418693256" lon="7.690661066192287"><ele>252.85714285714283</ele><time>2026-04-10T13:32:17.999Z</time></trkpt><trkpt lat="45.00312723190979" lon="7.690558274904445"><ele>253.42857142857144</ele><time>2026-04-10T13:32:20.999Z</time></trkpt><trkpt lat="45.00310798235518" lon="7.6904599532945115"><ele>254.0</ele><time>2026-04-10T13:32:22.999Z</time></trkpt><trkpt lat="45.00307716450906" lon="7.690328395744843"><ele>254.85714285714286</ele><time>2026-04-10T13:32:25.999Z</time></trkpt><trkpt lat="45.00304484298592" lon="7.690223294374948"><ele>255.71428571428572</ele><time>2026-04-10T13:32:27.999Z</time></trkpt><trkpt lat="45.00302627492367" lon="7.690132820811857"><ele>256.57142857142856</ele><time>2026-04-10T13:32:29.999Z</time></trkpt><trkpt lat="45.00299682701262" lon="7.690042272347987"><ele>257.42857142857144</ele><time>2026-04-10T13:32:31.999Z</time></trkpt><trkpt lat="45.002973782666615" lon="7.689956535711127"><ele>258.2857142857143</ele><time>2026-04-10T13:32:33.999Z</time></trkpt><trkpt lat="45.0029396950982" lon="7.689873818443626"><ele>259.14285714285717</ele><time>2026-04-10T13:32:35.999Z</time></trkpt><trkpt lat="45.00290998452216" lon="7.68977833500059"><ele>260.0</ele><time>2026-04-10T13:32:38.999Z</time></trkpt><trkpt lat="45.00287957513257" lon="7.68968390510604"><ele>260.0</ele><time>2026-04-10T13:32:40.999Z</time></trkpt><trkpt lat="45.00283401818921" lon="7.689586933830876"><ele>260.0</ele><time>2026-04-10T13:32:43.999Z</time></trkpt><trkpt lat="45.00280609805527" lon="7.689497502576668"><ele>260.0</ele><time>2026-04-10T13:32:46.999Z</time></trkpt><trkpt lat="45.002791513507816" lon="7.6894005976384765"><ele>260.0</ele><time>2026-04-10T13:32:49.999Z</time></trkpt><trkpt lat="45.00273074341463" lon="7.689345646922721"><ele>260.0</ele><time>2026-04-10T13:32:52.999Z</time></trkpt><trkpt lat="45.002670873640874" lon="7.689311624657748"><ele>260.0</ele><time>2026-04-10T13:32:54.999Z</time></trkpt><trkpt lat="45.0025831712554" lon="7.689254487338204"><ele>260.0</ele><time>2026-04-10T13:32:56.999Z</time></trkpt><trkpt lat="45.00248664310201" lon="7.689206551943889"><ele>260.0</ele><time>2026-04-10T13:32:58.999Z</time></trkpt><trkpt lat="45.002395462195636" lon="7.689152949860728"><ele>260.0</ele><time>2026-04-10T13:33:00.999Z</time></trkpt><trkpt lat="45.002290010976864" lon="7.689082404672448"><ele>260.0</ele><time>2026-04-10T13:33:02.999Z</time></trkpt><trkpt lat="45.00223526904997" lon="7.689034050344859"><ele>260.0</ele><time>2026-04-10T13:33:03.999Z</time></trkpt><trkpt lat="45.00217981942664" lon="7.688982993878352"><ele>260.0</ele><time>2026-04-10T13:33:04.999Z</time></trkpt><trkpt lat="45.00211878734471" lon="7.688932433720632"><ele>260.0</ele><time>2026-04-10T13:33:05.999Z</time></trkpt><trkpt lat="45.00205236175443" lon="7.6888847430551115"><ele>260.0</ele><time>2026-04-10T13:33:06.999Z</time></trkpt><trkpt lat="45.00198588781629" lon="7.688837732036392"><ele>260.0</ele><time>2026-04-10T13:33:07.999Z</time></trkpt><trkpt lat="45.00191636433451" lon="7.6887827951026395"><ele>260.0</ele><time>2026-04-10T13:33:08.999Z</time></trkpt><trkpt lat="45.0018450551777" lon="7.6887355894484175"><ele>260.0</ele><time>2026-04-10T13:33:09.999Z</time></trkpt><trkpt lat="45.001781879864915" lon="7.688676410154508"><ele>260.0</ele><time>2026-04-10T13:33:11Z</time></trkpt><trkpt lat="45.00171607592606" lon="7.688627702209585"><ele>257.5714285714286</ele><time>2026-04-10T13:33:12Z</time></trkpt><trkpt lat="45.00165673621197" lon="7.688577928509746"><ele>255.14285714285717</ele><time>2026-04-10T13:33:13Z</time></trkpt><trkpt lat="45.00160492551337" lon="7.688525808469036"><ele>252.71428571428572</ele><time>2026-04-10T13:33:14Z</time></trkpt><trkpt lat="45.00156897247532" lon="7.688449236698879"><ele>250.2857142857143</ele><time>2026-04-10T13:33:15Z</time></trkpt><trkpt lat="45.00155463152409" lon="7.688360633166262"><ele>247.8571428571429</ele><time>2026-04-10T13:33:16Z</time></trkpt><trkpt lat="45.0015633859506" lon="7.688251858967372"><ele>245.42857142857142</ele><time>2026-04-10T13:33:17Z</time></trkpt><trkpt lat="45.00157078218364" lon="7.688160262968432"><ele>243.0</ele><time>2026-04-10T13:33:18Z</time></trkpt><trkpt lat="45.00157325531139" lon="7.687992237383877"><ele>243.0</ele><time>2026-04-10T13:33:20Z</time></trkpt><trkpt lat="45.00157215810325" lon="7.687833375573561"><ele>243.0</ele><time>2026-04-10T13:33:22Z</time></trkpt><trkpt lat="45.0015703944767" lon="7.687691997469965"><ele>243.0</ele><time>2026-04-10T13:33:24Z</time></trkpt><trkpt lat="45.00157306438281" lon="7.687534667352919"><ele>243.0</ele><time>2026-04-10T13:33:26Z</time></trkpt><trkpt lat="45.00161968568107" lon="7.687407333683421"><ele>243.0</ele><time>2026-04-10T13:33:28Z</time></trkpt><trkpt lat="45.00164934476637" lon="7.687265009285047"><ele>248.0</ele><time>2026-04-10T13:33:30Z</time></trkpt><trkpt lat="45.00168167752809" lon="7.68712891592557"><ele>253.0</ele><time>2026-04-10T13:33:32Z</time></trkpt><trkpt lat="45.00169825865286" lon="7.686996004712281"><ele>258.0</ele><time>2026-04-10T13:33:34Z</time></trkpt><trkpt lat="45.001707152151276" lon="7.686862267768519"><ele>263.0</ele><time>2026-04-10T13:33:36Z</time></trkpt><trkpt lat="45.00170642145982" lon="7.6867345534797105"><ele>268.0</ele><time>2026-04-10T13:33:38Z</time></trkpt><trkpt lat="45.00168898559132" lon="7.6865888408166505"><ele>268.0</ele><time>2026-04-10T13:33:41Z</time></trkpt><trkpt lat="45.001711258198284" lon="7.6864840901322875"><ele>268.0</ele><time>2026-04-10T13:33:43Z</time></trkpt><trkpt lat="45.00169064404936" lon="7.686364932253287"><ele>268.0</ele><time>2026-04-10T13:33:46Z</time></trkpt><trkpt lat="45.00166914349124" lon="7.686254960098283"><ele>268.0</ele><time>2026-04-10T13:33:47Z</time></trkpt><trkpt lat="45.001558355274035" lon="7.68625832386749"><ele>268.0</ele><time>2026-04-10T13:33:49Z</time></trkpt><trkpt lat="45.0014741371242" lon="7.686217040328692"><ele>268.0</ele><time>2026-04-10T13:33:52Z</time></trkpt><trkpt lat="45.001417535991" lon="7.686125391159394"><ele>266.6</ele><time>2026-04-10T13:33:54Z</time></trkpt><trkpt lat="45.001372678348574" lon="7.68602716098871"><ele>265.20000000000005</ele><time>2026-04-10T13:33:56Z</time></trkpt><trkpt lat="45.001329525361015" lon="7.685882107220563"><ele>263.8</ele><time>2026-04-10T13:33:58Z</time></trkpt><trkpt lat="45.00126800645399" lon="7.685734535021425"><ele>262.40000000000003</ele><time>2026-04-10T13:34:00Z</time></trkpt><trkpt lat="45.00122260080952" lon="7.685664481502347"><ele>261.0</ele><time>2026-04-10T13:34:01Z</time></trkpt><trkpt lat="45.00120206245939" lon="7.685566496464744"><ele>261.0</ele><time>2026-04-10T13:34:02Z</time></trkpt><trkpt lat="45.00116763374997" lon="7.685472860618815"><ele>261.0</ele><time>2026-04-10T13:34:03Z</time></trkpt><trkpt lat="45.00112491990631" lon="7.685386254732976"><ele>261.0</ele><time>2026-04-10T13:34:04Z</time></trkpt><trkpt lat="45.00108734755539" lon="7.685303527702887"><ele>261.0</ele><time>2026-04-10T13:34:05Z</time></trkpt><trkpt lat="45.00106424031946" lon="7.685158663734967"><ele>261.0</ele><time>2026-04-10T13:34:07Z</time></trkpt><trkpt lat="45.001031063707174" lon="7.685027022910282"><ele>261.0</ele><time>2026-04-10T13:34:09Z</time></trkpt><trkpt lat="45.00098343714425" lon="7.684915675118392"><ele>261.0</ele><time>2026-04-10T13:34:11Z</time></trkpt><trkpt lat="45.00094349691308" lon="7.6848116018660955"><ele>261.0</ele><time>2026-04-10T13:34:13Z</time></trkpt><trkpt lat="45.00088180760321" lon="7.684744053608974"><ele>261.0</ele><time>2026-04-10T13:34:15Z</time></trkpt><trkpt lat="45.00081614010753" lon="7.684651786824115"><ele>261.0</ele><time>2026-04-10T13:34:17Z</time></trkpt><trkpt lat="45.00078077012222" lon="7.684524480965422"><ele>261.0</ele><time>2026-04-10T13:34:18.999Z</time></trkpt><trkpt lat="45.00074759886304" lon="7.684416701171015"><ele>261.0</ele><time>2026-04-10T13:34:20.999Z</time></trkpt><trkpt lat="45.000700884107395" lon="7.684310892860347"><ele>260.0</ele><time>2026-04-10T13:34:22.999Z</time></trkpt><trkpt lat="45.000655117144056" lon="7.684200627310809"><ele>259.0</ele><time>2026-04-10T13:34:24.999Z</time></trkpt><trkpt lat="45.00061749883807" lon="7.684110882235778"><ele>258.0</ele><time>2026-04-10T13:34:27.999Z</time></trkpt><trkpt lat="45.00067253246598" lon="7.684052923766334"><ele>257.0</ele><time>2026-04-10T13:34:28.999Z</time></trkpt><trkpt lat="45.00076612294392" lon="7.68400840395207"><ele>256.0</ele><time>2026-04-10T13:34:30.999Z</time></trkpt><trkpt lat="45.00084693023547" lon="7.683930978474633"><ele>255.0</ele><time>2026-04-10T13:34:32.999Z</time></trkpt><trkpt lat="45.00092721152285" lon="7.6839051799732525"><ele>255.0</ele><time>2026-04-10T13:34:34.999Z</time></trkpt><trkpt lat="45.00099104313297" lon="7.683861928038618"><ele>255.00000000000003</ele><time>2026-04-10T13:34:36.999Z</time></trkpt><trkpt lat="45.00105177905845" lon="7.683826115926655"><ele>255.0</ele><time>2026-04-10T13:34:40.999Z</time></trkpt><trkpt lat="45.00104949660229" lon="7.6837349691799375"><ele>255.0</ele><time>2026-04-10T13:34:45.999Z</time></trkpt><trkpt lat="45.00100769862609" lon="7.683647253466159"><ele>255.00000000000003</ele><time>2026-04-10T13:34:47.999Z</time></trkpt><trkpt lat="45.00095515160552" lon="7.683538643003011"><ele>255.0</ele><time>2026-04-10T13:34:49.999Z</time></trkpt><trkpt lat="45.00091486071914" lon="7.68344404905565"><ele>255.0</ele><time>2026-04-10T13:34:51.999Z</time></trkpt><trkpt lat="45.00089198791245" lon="7.683352780601987"><ele>254.2</ele><time>2026-04-10T13:34:55.999Z</time></trkpt><trkpt lat="45.000841007431546" lon="7.68326746486136"><ele>253.4</ele><time>2026-04-10T13:34:58.999Z</time></trkpt><trkpt lat="45.00078725999742" lon="7.683137954944974"><ele>252.60000000000002</ele><time>2026-04-10T13:35:01.999Z</time></trkpt><trkpt lat="45.00073341343888" lon="7.683036474086253"><ele>251.8</ele><time>2026-04-10T13:35:03.999Z</time></trkpt><trkpt lat="45.000675729846236" lon="7.6829230622587685"><ele>251.0</ele><time>2026-04-10T13:35:05.999Z</time></trkpt><trkpt lat="45.00061989651691" lon="7.682783926975723"><ele>250.20000000000002</ele><time>2026-04-10T13:35:07.999Z</time></trkpt><trkpt lat="45.00056513344604" lon="7.6827261176619634"><ele>249.40000000000003</ele><time>2026-04-10T13:35:08.999Z</time></trkpt><trkpt lat="45.00052087880179" lon="7.682595769387471"><ele>248.6</ele><time>2026-04-10T13:35:10.999Z</time></trkpt><trkpt lat="45.00046105957144" lon="7.682446473958456"><ele>247.8</ele><time>2026-04-10T13:35:12.999Z</time></trkpt><trkpt lat="45.00041138305652" lon="7.682283392579952"><ele>247.0</ele><time>2026-04-10T13:35:14.999Z</time></trkpt><trkpt lat="45.000349414457474" lon="7.682125234822932"><ele>246.99999999999997</ele><time>2026-04-10T13:35:17Z</time></trkpt><trkpt lat="45.00029841729521" lon="7.681967804278451"><ele>247.0</ele><time>2026-04-10T13:35:19Z</time></trkpt><trkpt lat="45.00026717522358" lon="7.681886566904744"><ele>247.0</ele><time>2026-04-10T13:35:20Z</time></trkpt><trkpt lat="45.000213770760574" lon="7.681722089676267"><ele>247.0</ele><time>2026-04-10T13:35:22Z</time></trkpt><trkpt lat="45.00018207966257" lon="7.681643258075844"><ele>246.99999999999997</ele><time>2026-04-10T13:35:23Z</time></trkpt><trkpt lat="45.000152635083566" lon="7.681561884583344"><ele>247.0</ele><time>2026-04-10T13:35:24Z</time></trkpt><trkpt lat="45.000120467707134" lon="7.681481460969695"><ele>245.39999999999998</ele><time>2026-04-10T13:35:25Z</time></trkpt><trkpt lat="45.00007883081686" lon="7.6813263823575815"><ele>243.79999999999998</ele><time>2026-04-10T13:35:27Z</time></trkpt><trkpt lat="45.00003010490051" lon="7.681200432877952"><ele>242.2</ele><time>2026-04-10T13:35:29Z</time></trkpt><trkpt lat="45.00000257337239" lon="7.681053221701214"><ele>240.6</ele><time>2026-04-10T13:35:31Z</time></trkpt><trkpt lat="44.99999704447587" lon="7.6809609632406355"><ele>239.0</ele><time>2026-04-10T13:35:32Z</time></trkpt><trkpt lat="44.99999573568868" lon="7.6808663483126125"><ele>238.16666666666669</ele><time>2026-04-10T13:35:33Z</time></trkpt><trkpt lat="44.99997758732752" lon="7.6807739693715575"><ele>237.33333333333334</ele><time>2026-04-10T13:35:34Z</time></trkpt><trkpt lat="44.99995661884885" lon="7.680687395876512"><ele>236.5</ele><time>2026-04-10T13:35:35Z</time></trkpt><trkpt lat="44.99990315387364" lon="7.6805694533205076"><ele>235.66666666666669</ele><time>2026-04-10T13:35:37Z</time></trkpt><trkpt lat="44.999869356528365" lon="7.680478811371997"><ele>234.83333333333334</ele><time>2026-04-10T13:35:39Z</time></trkpt><trkpt lat="44.99984194963267" lon="7.680384207487727"><ele>234.0</ele><time>2026-04-10T13:35:41Z</time></trkpt><trkpt lat="44.999802957632156" lon="7.68028107753134"><ele>234.0</ele><time>2026-04-10T13:35:43Z</time></trkpt><trkpt lat="44.99980842516502" lon="7.680181837145277"><ele>234.00000000000003</ele><time>2026-04-10T13:35:45Z</time></trkpt><trkpt lat="44.999767526582794" lon="7.680109539397858"><ele>234.0</ele><time>2026-04-10T13:35:50Z</time></trkpt><trkpt lat="44.999698076242176" lon="7.680119588028529"><ele>234.0</ele><time>2026-04-10T13:35:59Z</time></trkpt><trkpt lat="44.99964805583972" lon="7.680187399023763"><ele>234.00000000000003</ele><time>2026-04-10T13:36:01Z</time></trkpt><trkpt lat="44.999582371911295" lon="7.6802318446806215"><ele>234.0</ele><time>2026-04-10T13:36:04Z</time></trkpt><trkpt lat="44.99965956264114" lon="7.680272922827419"><ele>234.0</ele><time>2026-04-10T13:36:08Z</time></trkpt><trkpt lat="44.9997085529658" lon="7.68017689329288"><ele>233.2857142857143</ele><time>2026-04-10T13:36:11Z</time></trkpt><trkpt lat="44.99977102317567" lon="7.6801237665208815"><ele>232.5714285714286</ele><time>2026-04-10T13:36:15Z</time></trkpt><trkpt lat="44.99984621711632" lon="7.680110161612825"><ele>231.85714285714286</ele><time>2026-04-10T13:36:19Z</time></trkpt><trkpt lat="44.99989783728028" lon="7.680179941815964"><ele>231.14285714285717</ele><time>2026-04-10T13:36:22Z</time></trkpt><trkpt lat="44.99995950401763" lon="7.680146531706035"><ele>230.42857142857144</ele><time>2026-04-10T13:36:27.999Z</time></trkpt><trkpt lat="45.00000455946722" lon="7.680052653500629"><ele>229.71428571428572</ele><time>2026-04-10T13:36:31.999Z</time></trkpt><trkpt lat="44.99999594906996" lon="7.67993681944856"><ele>229.0</ele><time>2026-04-10T13:36:39.999Z</time></trkpt><trkpt lat="45.00002165318856" lon="7.679836854049277"><ele>229.0</ele><time>2026-04-10T13:36:43.999Z</time></trkpt><trkpt lat="45.0000975356812" lon="7.679771469232062"><ele>229.0</ele><time>2026-04-10T13:36:46.999Z</time></trkpt><trkpt lat="45.00017428068582" lon="7.679758213721302"><ele>229.0</ele><time>2026-04-10T13:36:48.999Z</time></trkpt><trkpt lat="45.00024723956216" lon="7.679746505980533"><ele>229.0</ele><time>2026-04-10T13:36:50.999Z</time></trkpt><trkpt lat="45.00030885461224" lon="7.679726838166821"><ele>229.0</ele><time>2026-04-10T13:36:53.999Z</time></trkpt><trkpt lat="45.00037317362835" lon="7.6796972270124435"><ele>229.0</ele><time>2026-04-10T13:36:57.999Z</time></trkpt><trkpt lat="45.00038334016516" lon="7.679606564597731"><ele>229.0</ele><time>2026-04-10T13:36:59.999Z</time></trkpt><trkpt lat="45.00042546451909" lon="7.679526539024119"><ele>229.0</ele><time>2026-04-10T13:37:01.999Z</time></trkpt><trkpt lat="45.00047717148674" lon="7.679452748430385"><ele>229.0</ele><time>2026-04-10T13:37:03.999Z</time></trkpt><trkpt lat="45.00052838648882" lon="7.679376563959627"><ele>229.0</ele><time>2026-04-10T13:37:05.999Z</time></trkpt><trkpt lat="45.00057213683944" lon="7.67931091415048"><ele>229.0</ele><time>2026-04-10T13:37:07.999Z</time></trkpt><trkpt lat="45.00061882567012" lon="7.679239872067599"><ele>229.0</ele><time>2026-04-10T13:37:10.999Z</time></trkpt><trkpt lat="45.0006529233882" lon="7.6791535424253965"><ele>229.0</ele><time>2026-04-10T13:37:13.999Z</time></trkpt><trkpt lat="45.00072116892024" lon="7.679068387180714"><ele>229.0</ele><time>2026-04-10T13:37:16.999Z</time></trkpt><trkpt lat="45.00078603533757" lon="7.678972281677955"><ele>228.49999999999997</ele><time>2026-04-10T13:37:19.999Z</time></trkpt><trkpt lat="45.00083041940878" lon="7.678898411773239"><ele>228.0</ele><time>2026-04-10T13:37:21.999Z</time></trkpt><trkpt lat="45.000886034824845" lon="7.6788312480890415"><ele>227.5</ele><time>2026-04-10T13:37:24Z</time></trkpt><trkpt lat="45.00093874791827" lon="7.678757277264714"><ele>227.0</ele><time>2026-04-10T13:37:26Z</time></trkpt><trkpt lat="45.00100032246784" lon="7.678682801349202"><ele>226.49999999999997</ele><time>2026-04-10T13:37:28Z</time></trkpt><trkpt lat="45.00108985243435" lon="7.6785674109215005"><ele>226.0</ele><time>2026-04-10T13:37:31Z</time></trkpt><trkpt lat="45.001150110206304" lon="7.6784881168792625"><ele>224.8</ele><time>2026-04-10T13:37:34Z</time></trkpt><trkpt lat="45.00124162815919" lon="7.678434421771139"><ele>223.60000000000002</ele><time>2026-04-10T13:37:35Z</time></trkpt><trkpt lat="45.00130402865778" lon="7.6783558849017615"><ele>222.4</ele><time>2026-04-10T13:37:37Z</time></trkpt><trkpt lat="45.00136684184968" lon="7.678260382632447"><ele>221.2</ele><time>2026-04-10T13:37:39Z</time></trkpt><trkpt lat="45.00144596390841" lon="7.678173302888983"><ele>220.0</ele><time>2026-04-10T13:37:41Z</time></trkpt><trkpt lat="45.00151796342253" lon="7.678059149539485"><ele>220.0</ele><time>2026-04-10T13:37:43Z</time></trkpt><trkpt lat="45.00153566703437" lon="7.6779494639649375"><ele>220.0</ele><time>2026-04-10T13:37:44Z</time></trkpt><trkpt lat="45.001626680867766" lon="7.677868451150316"><ele>220.0</ele><time>2026-04-10T13:37:46Z</time></trkpt><trkpt lat="45.00167658507752" lon="7.677810469617657"><ele>220.0</ele><time>2026-04-10T13:37:47Z</time></trkpt><trkpt lat="45.001764069295234" lon="7.677699016736405"><ele>220.0</ele><time>2026-04-10T13:37:49Z</time></trkpt><trkpt lat="45.00179985060533" lon="7.677538925276386"><ele>220.2</ele><time>2026-04-10T13:37:51Z</time></trkpt><trkpt lat="45.00191568090148" lon="7.677583113942836"><ele>220.4</ele><time>2026-04-10T13:37:52Z</time></trkpt><trkpt lat="45.001991618542405" lon="7.677490884582957"><ele>220.60000000000002</ele><time>2026-04-10T13:37:54Z</time></trkpt><trkpt lat="45.00200058544054" lon="7.677645697690801"><ele>220.8</ele><time>2026-04-10T13:37:59Z</time></trkpt><trkpt lat="45.00203126867214" lon="7.677750571368134"><ele>221.0</ele><time>2026-04-10T13:38:01Z</time></trkpt><trkpt lat="45.00205706326305" lon="7.67786427068221"><ele>220.0</ele><time>2026-04-10T13:38:03Z</time></trkpt><trkpt lat="45.00208563350646" lon="7.678012491718563"><ele>219.00000000000003</ele><time>2026-04-10T13:38:05Z</time></trkpt><trkpt lat="45.00211862574669" lon="7.678175753948395"><ele>218.00000000000003</ele><time>2026-04-10T13:38:07Z</time></trkpt><trkpt lat="45.00213710654955" lon="7.678309424047889"><ele>217.0</ele><time>2026-04-10T13:38:09Z</time></trkpt><trkpt lat="45.00215864501817" lon="7.678424148943623"><ele>216.0</ele><time>2026-04-10T13:38:11Z</time></trkpt><trkpt lat="45.002170531079116" lon="7.6785134333358425"><ele>216.0</ele><time>2026-04-10T13:38:13Z</time></trkpt><trkpt lat="45.002172944520574" lon="7.678602865484086"><ele>216.0</ele><time>2026-04-10T13:38:15Z</time></trkpt><trkpt lat="45.002180194212876" lon="7.678709412581256"><ele>216.0</ele><time>2026-04-10T13:38:18Z</time></trkpt><trkpt lat="45.00218698232874" lon="7.6788142138677795"><ele>216.0</ele><time>2026-04-10T13:38:22Z</time></trkpt><trkpt lat="45.0021809709633" lon="7.678918376197363"><ele>216.0</ele><time>2026-04-10T13:38:25Z</time></trkpt><trkpt lat="45.00219761303599" lon="7.679066418780442"><ele>216.0</ele><time>2026-04-10T13:38:27Z</time></trkpt><trkpt lat="45.002234473544085" lon="7.679169380623138"><ele>216.0</ele><time>2026-04-10T13:38:29Z</time></trkpt><trkpt lat="45.00229137263412" lon="7.679272819219379"><ele>216.00000000000003</ele><time>2026-04-10T13:38:31Z</time></trkpt><trkpt lat="45.00234567580339" lon="7.679379595922035"><ele>216.00000000000003</ele><time>2026-04-10T13:38:33Z</time></trkpt><trkpt lat="45.00240664830978" lon="7.679476049604573"><ele>216.0</ele><time>2026-04-10T13:38:34.999Z</time></trkpt><trkpt lat="45.00246393908283" lon="7.679568976139934"><ele>216.0</ele><time>2026-04-10T13:38:36.999Z</time></trkpt><trkpt lat="45.00251629901722" lon="7.679675050844708"><ele>215.75</ele><time>2026-04-10T13:38:38.999Z</time></trkpt><trkpt lat="45.00256741210283" lon="7.679786662165184"><ele>215.5</ele><time>2026-04-10T13:38:40.999Z</time></trkpt><trkpt lat="45.00263745603123" lon="7.6798868549798165"><ele>215.25</ele><time>2026-04-10T13:38:42.999Z</time></trkpt><trkpt lat="45.0026803729906" lon="7.679958549000876"><ele>215.0</ele><time>2026-04-10T13:38:44.999Z</time></trkpt><trkpt lat="45.0028297812145" lon="7.680204747481369"><ele>216.4</ele><time>2026-04-10T13:38:48.999Z</time></trkpt><trkpt lat="45.002885608608665" lon="7.680305727573578"><ele>217.8</ele><time>2026-04-10T13:38:50.999Z</time></trkpt><trkpt lat="45.00293962069137" lon="7.680413582171233"><ele>219.2</ele><time>2026-04-10T13:38:52.999Z</time></trkpt><trkpt lat="45.00299141784536" lon="7.6805126731775575"><ele>220.6</ele><time>2026-04-10T13:38:54.999Z</time></trkpt><trkpt lat="45.00306663053969" lon="7.6806187620156905"><ele>222.0</ele><time>2026-04-10T13:38:57.999Z</time></trkpt><trkpt lat="45.003098956449556" lon="7.680718685261691"><ele>222.0</ele><time>2026-04-10T13:38:59.999Z</time></trkpt><trkpt lat="45.00316036728434" lon="7.680817384115679"><ele>222.0</ele><time>2026-04-10T13:39:01.999Z</time></trkpt><trkpt lat="45.00321820473742" lon="7.680912485622364"><ele>222.0</ele><time>2026-04-10T13:39:03.999Z</time></trkpt><trkpt lat="45.00327931551325" lon="7.681002345188826"><ele>222.0</ele><time>2026-04-10T13:39:05.999Z</time></trkpt><trkpt lat="45.00334309336603" lon="7.6810815861376085"><ele>222.0</ele><time>2026-04-10T13:39:07.999Z</time></trkpt><trkpt lat="45.00339003990206" lon="7.681182539541996"><ele>222.0</ele><time>2026-04-10T13:39:09.999Z</time></trkpt><trkpt lat="45.003453408092035" lon="7.681266950469668"><ele>221.66666666666666</ele><time>2026-04-10T13:39:12.999Z</time></trkpt><trkpt lat="45.003516288365624" lon="7.6813557310083125"><ele>221.33333333333331</ele><time>2026-04-10T13:39:14.999Z</time></trkpt><trkpt lat="45.003566669566716" lon="7.681433689498963"><ele>221.0</ele><time>2026-04-10T13:39:16.999Z</time></trkpt><trkpt lat="45.003651454534754" lon="7.681543372528646"><ele>220.66666666666666</ele><time>2026-04-10T13:39:18.999Z</time></trkpt><trkpt lat="45.00371244074867" lon="7.681619972487413"><ele>220.33333333333331</ele><time>2026-04-10T13:39:20.999Z</time></trkpt><trkpt lat="45.00376808804405" lon="7.681687831630239"><ele>220.0</ele><time>2026-04-10T13:39:23.999Z</time></trkpt><trkpt lat="45.00382843390057" lon="7.6817616177289505"><ele>219.99999999999997</ele><time>2026-04-10T13:39:26.999Z</time></trkpt><trkpt lat="45.003874403118026" lon="7.681836015330787"><ele>220.0</ele><time>2026-04-10T13:39:29Z</time></trkpt><trkpt lat="45.003920269240375" lon="7.681912422969582"><ele>220.0</ele><time>2026-04-10T13:39:30Z</time></trkpt><trkpt lat="45.00396778787934" lon="7.681975900509048"><ele>220.0</ele><time>2026-04-10T13:39:31Z</time></trkpt><trkpt lat="45.004043157167985" lon="7.682070252291212"><ele>219.99999999999997</ele><time>2026-04-10T13:39:33Z</time></trkpt><trkpt lat="45.00411379161684" lon="7.682162321110215"><ele>220.0</ele><time>2026-04-10T13:39:36Z</time></trkpt><trkpt lat="45.00417585258417" lon="7.682268225196836"><ele>219.99999999999997</ele><time>2026-04-10T13:39:39Z</time></trkpt><trkpt lat="45.0042472196669" lon="7.682299164820734"><ele>220.0</ele><time>2026-04-10T13:39:41Z</time></trkpt><trkpt lat="45.00430860130654" lon="7.682366989881809"><ele>220.0</ele><time>2026-04-10T13:39:43Z</time></trkpt><trkpt lat="45.004331714561076" lon="7.682485379231499"><ele>220.0</ele><time>2026-04-10T13:39:45Z</time></trkpt><trkpt lat="45.0044102747316" lon="7.6826210661010395"><ele>219.99999999999997</ele><time>2026-04-10T13:39:47Z</time></trkpt><trkpt lat="45.0044612950239" lon="7.682684230484461"><ele>220.0</ele><time>2026-04-10T13:39:48Z</time></trkpt><trkpt lat="45.004525522015705" lon="7.682753690964585"><ele>220.4</ele><time>2026-04-10T13:39:49Z</time></trkpt><trkpt lat="45.00459010625942" lon="7.682825776983153"><ele>220.8</ele><time>2026-04-10T13:39:51Z</time></trkpt><trkpt lat="45.004681094381475" lon="7.682910782972277"><ele>221.2</ele><time>2026-04-10T13:39:53Z</time></trkpt><trkpt lat="45.00475763156337" lon="7.682987342637354"><ele>221.6</ele><time>2026-04-10T13:39:55Z</time></trkpt><trkpt lat="45.00484150430423" lon="7.683073860092744"><ele>222.0</ele><time>2026-04-10T13:39:57Z</time></trkpt><trkpt lat="45.00492898974354" lon="7.683146529130068"><ele>222.2</ele><time>2026-04-10T13:39:59Z</time></trkpt><trkpt lat="45.00500850403315" lon="7.6832097505393095"><ele>222.39999999999998</ele><time>2026-04-10T13:40:01Z</time></trkpt><trkpt lat="45.0050813161468" lon="7.683286990037472"><ele>222.60000000000002</ele><time>2026-04-10T13:40:03Z</time></trkpt><trkpt lat="45.00517082032449" lon="7.683356022715731"><ele>222.8</ele><time>2026-04-10T13:40:05Z</time></trkpt><trkpt lat="45.005259332418696" lon="7.683427205977421"><ele>223.0</ele><time>2026-04-10T13:40:07Z</time></trkpt><trkpt lat="45.005353216533926" lon="7.683496116712282"><ele>223.0</ele><time>2026-04-10T13:40:09Z</time></trkpt><trkpt lat="45.005445366637296" lon="7.683561860395104"><ele>223.0</ele><time>2026-04-10T13:40:11Z</time></trkpt><trkpt lat="45.00554823550127" lon="7.6836238369717975"><ele>223.0</ele><time>2026-04-10T13:40:13Z</time></trkpt><trkpt lat="45.00564475314466" lon="7.683662226659074"><ele>223.0</ele><time>2026-04-10T13:40:15Z</time></trkpt><trkpt lat="45.00575064735772" lon="7.683656175829031"><ele>223.0</ele><time>2026-04-10T13:40:17Z</time></trkpt><trkpt lat="45.005845426643106" lon="7.683666594921932"><ele>222.60000000000002</ele><time>2026-04-10T13:40:19Z</time></trkpt><trkpt lat="45.005939478471426" lon="7.683621516739796"><ele>222.20000000000002</ele><time>2026-04-10T13:40:21Z</time></trkpt><trkpt lat="45.00602600799569" lon="7.683544973775305"><ele>221.8</ele><time>2026-04-10T13:40:23Z</time></trkpt><trkpt lat="45.00611679147551" lon="7.683482501315125"><ele>221.4</ele><time>2026-04-10T13:40:25Z</time></trkpt><trkpt lat="45.006227161399146" lon="7.68346806353447"><ele>221.0</ele><time>2026-04-10T13:40:27Z</time></trkpt><trkpt lat="45.00631304845666" lon="7.683469878160727"><ele>221.0</ele><time>2026-04-10T13:40:30Z</time></trkpt><trkpt lat="45.00637867803793" lon="7.683449358286537"><ele>221.00000000000003</ele><time>2026-04-10T13:40:32Z</time></trkpt><trkpt lat="45.00650096244606" lon="7.683493983522039"><ele>221.00000000000003</ele><time>2026-04-10T13:40:34Z</time></trkpt><trkpt lat="45.00663052265998" lon="7.6834926923970785"><ele>221.0</ele><time>2026-04-10T13:40:36Z</time></trkpt><trkpt lat="45.00671876297154" lon="7.683524044719552"><ele>221.0</ele><time>2026-04-10T13:40:38Z</time></trkpt><trkpt lat="45.006809174708096" lon="7.683547362978016"><ele>220.60000000000002</ele><time>2026-04-10T13:40:40Z</time></trkpt><trkpt lat="45.006899426952614" lon="7.683559204735197"><ele>220.20000000000002</ele><time>2026-04-10T13:40:41.999Z</time></trkpt><trkpt lat="45.00699369103083" lon="7.683575997543282"><ele>219.79999999999998</ele><time>2026-04-10T13:40:43.999Z</time></trkpt><trkpt lat="45.00707747216304" lon="7.6835904463887355"><ele>219.39999999999998</ele><time>2026-04-10T13:40:45.999Z</time></trkpt><trkpt lat="45.00715963390467" lon="7.683567150597287"><ele>219.0</ele><time>2026-04-10T13:40:47.999Z</time></trkpt><trkpt lat="45.00725820901774" lon="7.683512747053988"><ele>219.0</ele><time>2026-04-10T13:40:49.999Z</time></trkpt><trkpt lat="45.00734413256574" lon="7.683465836570662"><ele>218.99999999999997</ele><time>2026-04-10T13:40:51.999Z</time></trkpt><trkpt lat="45.007445028883204" lon="7.683438348598485"><ele>218.99999999999997</ele><time>2026-04-10T13:40:53.999Z</time></trkpt><trkpt lat="45.00754227406695" lon="7.683430689717586"><ele>219.0</ele><time>2026-04-10T13:40:55.999Z</time></trkpt><trkpt lat="45.00763539726842" lon="7.683445450158514"><ele>219.0</ele><time>2026-04-10T13:40:57.999Z</time></trkpt><trkpt lat="45.007730419920684" lon="7.68343659925345"><ele>219.2</ele><time>2026-04-10T13:40:59.999Z</time></trkpt><trkpt lat="45.00781995211811" lon="7.68342129443663"><ele>219.39999999999998</ele><time>2026-04-10T13:41:01.999Z</time></trkpt><trkpt lat="45.007900330844784" lon="7.683346481316405"><ele>219.6</ele><time>2026-04-10T13:41:03.999Z</time></trkpt><trkpt lat="45.00798247614177" lon="7.683286377199052"><ele>219.8</ele><time>2026-04-10T13:41:05.999Z</time></trkpt><trkpt lat="45.00808323335133" lon="7.683242441618374"><ele>220.0</ele><time>2026-04-10T13:41:07.999Z</time></trkpt><trkpt lat="45.008188515858535" lon="7.683187820310658"><ele>220.0</ele><time>2026-04-10T13:41:09.999Z</time></trkpt><trkpt lat="45.00829792382296" lon="7.683128638175897"><ele>220.0</ele><time>2026-04-10T13:41:11.999Z</time></trkpt><trkpt lat="45.00840274823481" lon="7.683048287646023"><ele>220.0</ele><time>2026-04-10T13:41:13.999Z</time></trkpt><trkpt lat="45.00848943129269" lon="7.682927287726336"><ele>220.0</ele><time>2026-04-10T13:41:15.999Z</time></trkpt><trkpt lat="45.00856756528213" lon="7.682828894076025"><ele>219.4</ele><time>2026-04-10T13:41:17.999Z</time></trkpt><trkpt lat="45.008658850522" lon="7.682733712644005"><ele>218.8</ele><time>2026-04-10T13:41:19.999Z</time></trkpt><trkpt lat="45.00873761225099" lon="7.682645811330838"><ele>218.2</ele><time>2026-04-10T13:41:21.999Z</time></trkpt><trkpt lat="45.00882246491808" lon="7.682551643650135"><ele>217.6</ele><time>2026-04-10T13:41:23.999Z</time></trkpt><trkpt lat="45.00889471070585" lon="7.682486096067674"><ele>217.0</ele><time>2026-04-10T13:41:25.999Z</time></trkpt><trkpt lat="45.008962991635606" lon="7.682409447108604"><ele>216.99999999999997</ele><time>2026-04-10T13:41:27.999Z</time></trkpt><trkpt lat="45.00904511639393" lon="7.6823526487508795"><ele>217.0</ele><time>2026-04-10T13:41:29.999Z</time></trkpt><trkpt lat="45.00912114959135" lon="7.6822872885095475"><ele>217.0</ele><time>2026-04-10T13:41:31.999Z</time></trkpt><trkpt lat="45.00919090187905" lon="7.682254237630484"><ele>217.0</ele><time>2026-04-10T13:41:33.999Z</time></trkpt><trkpt lat="45.00927107764717" lon="7.682189134477247"><ele>216.99999999999997</ele><time>2026-04-10T13:41:36Z</time></trkpt><trkpt lat="45.009315747366" lon="7.682125057675694"><ele>217.0</ele><time>2026-04-10T13:41:39Z</time></trkpt><trkpt lat="45.009386980716464" lon="7.682113942082354"><ele>216.66666666666666</ele><time>2026-04-10T13:41:41Z</time></trkpt><trkpt lat="45.00943766628566" lon="7.682053243813512"><ele>216.33333333333331</ele><time>2026-04-10T13:41:43Z</time></trkpt><trkpt lat="45.00969916981002" lon="7.6818695388201235"><ele>216.0</ele><time>2026-04-10T13:41:45Z</time></trkpt><trkpt lat="45.00977645932304" lon="7.681769893612315"><ele>216.8</ele><time>2026-04-10T13:41:47Z</time></trkpt><trkpt lat="45.00985197986283" lon="7.681683991642635"><ele>217.60000000000002</ele><time>2026-04-10T13:41:49Z</time></trkpt><trkpt lat="45.009925841295725" lon="7.681593807010111"><ele>218.4</ele><time>2026-04-10T13:41:51Z</time></trkpt><trkpt lat="45.009992288240184" lon="7.681496693306778"><ele>219.2</ele><time>2026-04-10T13:41:53Z</time></trkpt><trkpt lat="45.01005429457472" lon="7.68138706078783"><ele>220.0</ele><time>2026-04-10T13:41:55Z</time></trkpt><trkpt lat="45.010143711936884" lon="7.681316885626061"><ele>220.16666666666666</ele><time>2026-04-10T13:41:57Z</time></trkpt><trkpt lat="45.010231401095275" lon="7.681245193834076"><ele>220.33333333333331</ele><time>2026-04-10T13:41:59Z</time></trkpt><trkpt lat="45.01031530359143" lon="7.681186364533813"><ele>220.5</ele><time>2026-04-10T13:42:01Z</time></trkpt><trkpt lat="45.010378147154846" lon="7.681141853741152"><ele>220.66666666666669</ele><time>2026-04-10T13:42:03Z</time></trkpt><trkpt lat="45.010407740046034" lon="7.681058812358859"><ele>220.83333333333334</ele><time>2026-04-10T13:42:05Z</time></trkpt><trkpt lat="45.01046812386024" lon="7.681008652401812"><ele>221.0</ele><time>2026-04-10T13:42:09Z</time></trkpt><trkpt lat="45.010536062875104" lon="7.680969570531957"><ele>221.33333333333334</ele><time>2026-04-10T13:42:11Z</time></trkpt><trkpt lat="45.01078252134318" lon="7.6807990572957685"><ele>221.66666666666669</ele><time>2026-04-10T13:42:13Z</time></trkpt><trkpt lat="45.01087066695214" lon="7.680716356103298"><ele>222.0</ele><time>2026-04-10T13:42:15Z</time></trkpt><trkpt lat="45.01095540585441" lon="7.680627314403819"><ele>222.6</ele><time>2026-04-10T13:42:17Z</time></trkpt><trkpt lat="45.011038443961674" lon="7.680534392026036"><ele>223.2</ele><time>2026-04-10T13:42:19Z</time></trkpt><trkpt lat="45.01111700497377" lon="7.6804661880935114"><ele>223.8</ele><time>2026-04-10T13:42:21Z</time></trkpt><trkpt lat="45.01120093343596" lon="7.680412387698905"><ele>224.4</ele><time>2026-04-10T13:42:23Z</time></trkpt><trkpt lat="45.01128720323769" lon="7.680367327540835"><ele>225.0</ele><time>2026-04-10T13:42:25Z</time></trkpt><trkpt lat="45.01134787776136" lon="7.680271163160725"><ele>224.4</ele><time>2026-04-10T13:42:27Z</time></trkpt><trkpt lat="45.01142262859254" lon="7.680190805043514"><ele>223.8</ele><time>2026-04-10T13:42:29Z</time></trkpt><trkpt lat="45.01146133338962" lon="7.680071046708031"><ele>223.2</ele><time>2026-04-10T13:42:31Z</time></trkpt><trkpt lat="45.0115298727137" lon="7.679979689292381"><ele>222.6</ele><time>2026-04-10T13:42:33Z</time></trkpt><trkpt lat="45.01159054731842" lon="7.679877140736604"><ele>222.0</ele><time>2026-04-10T13:42:36Z</time></trkpt><trkpt lat="45.01164946836136" lon="7.679795355806124"><ele>223.0</ele><time>2026-04-10T13:42:38Z</time></trkpt><trkpt lat="45.011709217961254" lon="7.679732183990685"><ele>224.0</ele><time>2026-04-10T13:42:40Z</time></trkpt><trkpt lat="45.01180100498819" lon="7.679653594696073"><ele>225.0</ele><time>2026-04-10T13:42:42Z</time></trkpt><trkpt lat="45.011891390124944" lon="7.6795962629746874"><ele>226.0</ele><time>2026-04-10T13:42:44Z</time></trkpt><trkpt lat="45.01198313728206" lon="7.679539325460075"><ele>227.0</ele><time>2026-04-10T13:42:46Z</time></trkpt><trkpt lat="45.012074129002904" lon="7.679491037237025"><ele>227.00000000000003</ele><time>2026-04-10T13:42:48Z</time></trkpt><trkpt lat="45.012155624446464" lon="7.679439661053059"><ele>227.0</ele><time>2026-04-10T13:42:50Z</time></trkpt><trkpt lat="45.012212549133984" lon="7.67939068699707"><ele>227.0</ele><time>2026-04-10T13:42:52.999Z</time></trkpt><trkpt lat="45.01226059309698" lon="7.679326383756232"><ele>227.0</ele><time>2026-04-10T13:42:54.999Z</time></trkpt><trkpt lat="45.01234498384248" lon="7.679243316801418"><ele>227.00000000000003</ele><time>2026-04-10T13:42:56.999Z</time></trkpt><trkpt lat="45.012431222946255" lon="7.67915510495252"><ele>227.0</ele><time>2026-04-10T13:42:58.999Z</time></trkpt><trkpt lat="45.01251651891906" lon="7.679107977565605"><ele>225.6</ele><time>2026-04-10T13:43:00.999Z</time></trkpt><trkpt lat="45.012603396855084" lon="7.679054232796262"><ele>224.2</ele><time>2026-04-10T13:43:02.999Z</time></trkpt><trkpt lat="45.012687164819745" lon="7.679019189550737"><ele>222.8</ele><time>2026-04-10T13:43:04.999Z</time></trkpt><trkpt lat="45.012774237970135" lon="7.678996049196958"><ele>221.4</ele><time>2026-04-10T13:43:06.999Z</time></trkpt><trkpt lat="45.01286094222407" lon="7.6789700755763715"><ele>220.0</ele><time>2026-04-10T13:43:08.999Z</time></trkpt><trkpt lat="45.01295122002078" lon="7.678921447402611"><ele>220.0</ele><time>2026-04-10T13:43:10.999Z</time></trkpt><trkpt lat="45.013052656128835" lon="7.678888240915896"><ele>220.0</ele><time>2026-04-10T13:43:12.999Z</time></trkpt><trkpt lat="45.013156520399264" lon="7.678838973043965"><ele>220.0</ele><time>2026-04-10T13:43:14.999Z</time></trkpt><trkpt lat="45.01325662922628" lon="7.6787764870936135"><ele>220.0</ele><time>2026-04-10T13:43:16.999Z</time></trkpt><trkpt lat="45.0133392598285" lon="7.678666093914566"><ele>220.0</ele><time>2026-04-10T13:43:18.999Z</time></trkpt><trkpt lat="45.01342392056263" lon="7.67858491453457"><ele>219.6</ele><time>2026-04-10T13:43:20.999Z</time></trkpt><trkpt lat="45.01350749264569" lon="7.678502251939478"><ele>219.2</ele><time>2026-04-10T13:43:22.999Z</time></trkpt><trkpt lat="45.01359575826837" lon="7.678419354958034"><ele>218.8</ele><time>2026-04-10T13:43:24.999Z</time></trkpt><trkpt lat="45.01369155072393" lon="7.678335434498391"><ele>218.4</ele><time>2026-04-10T13:43:26.999Z</time></trkpt><trkpt lat="45.013787413764106" lon="7.678250843089054"><ele>218.0</ele><time>2026-04-10T13:43:28.999Z</time></trkpt><trkpt lat="45.013886392677264" lon="7.678171424001967"><ele>218.0</ele><time>2026-04-10T13:43:30.999Z</time></trkpt><trkpt lat="45.0139866390989" lon="7.678103692339689"><ele>218.0</ele><time>2026-04-10T13:43:32.999Z</time></trkpt><trkpt lat="45.01407966587181" lon="7.678040015712031"><ele>218.0</ele><time>2026-04-10T13:43:34.999Z</time></trkpt><trkpt lat="45.01415774588306" lon="7.677965177127725"><ele>218.0</ele><time>2026-04-10T13:43:36.999Z</time></trkpt><trkpt lat="45.014235687514805" lon="7.677889050680761"><ele>218.0</ele><time>2026-04-10T13:43:38.999Z</time></trkpt><trkpt lat="45.01431735400675" lon="7.677808352754568"><ele>218.8</ele><time>2026-04-10T13:43:41Z</time></trkpt><trkpt lat="45.01439547252438" lon="7.677709801402357"><ele>219.60000000000002</ele><time>2026-04-10T13:43:43Z</time></trkpt><trkpt lat="45.014467596754166" lon="7.6776124465833"><ele>220.39999999999998</ele><time>2026-04-10T13:43:45Z</time></trkpt><trkpt lat="45.01453823063049" lon="7.677529317062841"><ele>221.2</ele><time>2026-04-10T13:43:47Z</time></trkpt><trkpt lat="45.01461448452278" lon="7.677450579713686"><ele>222.0</ele><time>2026-04-10T13:43:49Z</time></trkpt><trkpt lat="45.01469295319884" lon="7.67738583859955"><ele>222.0</ele><time>2026-04-10T13:43:51Z</time></trkpt><trkpt lat="45.014761826353904" lon="7.677285193861662"><ele>222.0</ele><time>2026-04-10T13:43:53Z</time></trkpt><trkpt lat="45.01483189181302" lon="7.677197660118564"><ele>222.0</ele><time>2026-04-10T13:43:55Z</time></trkpt><trkpt lat="45.01491381076278" lon="7.677123372545551"><ele>222.0</ele><time>2026-04-10T13:43:57Z</time></trkpt><trkpt lat="45.01499612559861" lon="7.677038211715734"><ele>222.0</ele><time>2026-04-10T13:43:59Z</time></trkpt><trkpt lat="45.01508001492248" lon="7.676952066454008"><ele>222.39999999999998</ele><time>2026-04-10T13:44:01Z</time></trkpt><trkpt lat="45.01516267821609" lon="7.676860712144656"><ele>222.79999999999998</ele><time>2026-04-10T13:44:03Z</time></trkpt><trkpt lat="45.015231972793764" lon="7.676769705197097"><ele>223.2</ele><time>2026-04-10T13:44:05Z</time></trkpt><trkpt lat="45.01530439185062" lon="7.6766581248557575"><ele>223.6</ele><time>2026-04-10T13:44:07Z</time></trkpt><trkpt lat="45.01535838326208" lon="7.6765602640219095"><ele>224.0</ele><time>2026-04-10T13:44:09Z</time></trkpt><trkpt lat="45.015414467177735" lon="7.676443553661295"><ele>224.0</ele><time>2026-04-10T13:44:11Z</time></trkpt><trkpt lat="45.01549174899572" lon="7.6763570011659406"><ele>223.99999999999997</ele><time>2026-04-10T13:44:13Z</time></trkpt><trkpt lat="45.01559172957787" lon="7.676282330351844"><ele>223.99999999999997</ele><time>2026-04-10T13:44:15Z</time></trkpt><trkpt lat="45.01567200953661" lon="7.676178316503204"><ele>224.0</ele><time>2026-04-10T13:44:17Z</time></trkpt><trkpt lat="45.01574958774628" lon="7.676070952439515"><ele>224.0</ele><time>2026-04-10T13:44:19Z</time></trkpt><trkpt lat="45.015822550165076" lon="7.675970662849059"><ele>223.79999999999998</ele><time>2026-04-10T13:44:21Z</time></trkpt><trkpt lat="45.01589342277989" lon="7.675879511163058"><ele>223.59999999999997</ele><time>2026-04-10T13:44:23Z</time></trkpt><trkpt lat="45.01596380094834" lon="7.675779631756184"><ele>223.4</ele><time>2026-04-10T13:44:25Z</time></trkpt><trkpt lat="45.01604214924075" lon="7.675687956590358"><ele>223.2</ele><time>2026-04-10T13:44:27Z</time></trkpt><trkpt lat="45.01610429782626" lon="7.675588998965607"><ele>223.0</ele><time>2026-04-10T13:44:29Z</time></trkpt><trkpt lat="45.01616625176554" lon="7.675495190590246"><ele>222.99999999999997</ele><time>2026-04-10T13:44:31Z</time></trkpt><trkpt lat="45.01622392833117" lon="7.675405200555566"><ele>223.0</ele><time>2026-04-10T13:44:33Z</time></trkpt><trkpt lat="45.016305649213216" lon="7.675351738074149"><ele>223.0</ele><time>2026-04-10T13:44:35Z</time></trkpt><trkpt lat="45.01636721532867" lon="7.675254539255468"><ele>223.0</ele><time>2026-04-10T13:44:37Z</time></trkpt><trkpt lat="45.016424451924856" lon="7.675164437739621"><ele>222.99999999999997</ele><time>2026-04-10T13:44:39Z</time></trkpt><trkpt lat="45.01651117687269" lon="7.675110317983375"><ele>223.0</ele><time>2026-04-10T13:44:41Z</time></trkpt><trkpt lat="45.01659688722763" lon="7.675072892326014"><ele>222.99999999999997</ele><time>2026-04-10T13:44:43Z</time></trkpt><trkpt lat="45.01664813840022" lon="7.6750048459587354"><ele>223.0</ele><time>2026-04-10T13:44:45Z</time></trkpt><trkpt lat="45.016699744215906" lon="7.6749466673322395"><ele>223.0</ele><time>2026-04-10T13:44:47Z</time></trkpt><trkpt lat="45.01674377599984" lon="7.674875654997156"><ele>223.0</ele><time>2026-04-10T13:44:50Z</time></trkpt><trkpt lat="45.016834801805494" lon="7.674811539428718"><ele>222.99999999999997</ele><time>2026-04-10T13:44:51Z</time></trkpt><trkpt lat="45.01692274967432" lon="7.674741120472664"><ele>223.0</ele><time>2026-04-10T13:44:52.999Z</time></trkpt><trkpt lat="45.01701582849154" lon="7.674670291721486"><ele>222.83333333333331</ele><time>2026-04-10T13:44:55.999Z</time></trkpt><trkpt lat="45.017092543939924" lon="7.674616787211596"><ele>222.66666666666666</ele><time>2026-04-10T13:44:56.999Z</time></trkpt><trkpt lat="45.0171630532676" lon="7.674567951954294"><ele>222.5</ele><time>2026-04-10T13:44:58.999Z</time></trkpt><trkpt lat="45.0172280483171" lon="7.674522587378619"><ele>222.33333333333331</ele><time>2026-04-10T13:45:00.999Z</time></trkpt><trkpt lat="45.01729697308846" lon="7.674464214853279"><ele>222.16666666666666</ele><time>2026-04-10T13:45:02.999Z</time></trkpt><trkpt lat="45.017363108275156" lon="7.674418730998264"><ele>222.0</ele><time>2026-04-10T13:45:04.999Z</time></trkpt><trkpt lat="45.017407208085764" lon="7.674318431617584"><ele>221.66666666666666</ele><time>2026-04-10T13:45:07.999Z</time></trkpt><trkpt lat="45.017421731196116" lon="7.674184607354239"><ele>221.33333333333331</ele><time>2026-04-10T13:45:10.999Z</time></trkpt><trkpt lat="45.01740560710427" lon="7.674020047703669"><ele>221.0</ele><time>2026-04-10T13:45:12.999Z</time></trkpt><trkpt lat="45.017452438180676" lon="7.673954936504148"><ele>220.66666666666666</ele><time>2026-04-10T13:45:14.999Z</time></trkpt><trkpt lat="45.01750114394645" lon="7.673893509239584"><ele>220.33333333333331</ele><time>2026-04-10T13:45:17.999Z</time></trkpt><trkpt lat="45.017538102516276" lon="7.673788508004086"><ele>220.0</ele><time>2026-04-10T13:45:20.999Z</time></trkpt><trkpt lat="45.01754014996304" lon="7.673668162663263"><ele>220.33333333333331</ele><time>2026-04-10T13:45:23.999Z</time></trkpt><trkpt lat="45.01753744572456" lon="7.673545204782871"><ele>220.66666666666666</ele><time>2026-04-10T13:45:26.999Z</time></trkpt><trkpt lat="45.01754618554381" lon="7.673429768211221"><ele>221.0</ele><time>2026-04-10T13:45:30.999Z</time></trkpt><trkpt lat="45.01755873392905" lon="7.673326215154805"><ele>221.33333333333331</ele><time>2026-04-10T13:45:33.999Z</time></trkpt><trkpt lat="45.01757042762413" lon="7.673234601474179"><ele>221.66666666666666</ele><time>2026-04-10T13:45:36.999Z</time></trkpt><trkpt lat="45.01756949936764" lon="7.67313838284034"><ele>222.0</ele><time>2026-04-10T13:45:38.999Z</time></trkpt><trkpt lat="45.01757794616225" lon="7.673014163194219"><ele>222.0</ele><time>2026-04-10T13:45:41.999Z</time></trkpt><trkpt lat="45.01758110791287" lon="7.672880819487253"><ele>222.0</ele><time>2026-04-10T13:45:44.999Z</time></trkpt><trkpt lat="45.01759502514338" lon="7.672756011720058"><ele>222.0</ele><time>2026-04-10T13:45:47Z</time></trkpt><trkpt lat="45.01759536790319" lon="7.672635247787223"><ele>222.0</ele><time>2026-04-10T13:45:49Z</time></trkpt><trkpt lat="45.0177019846604" lon="7.672640896437408"><ele>222.0</ele><time>2026-04-10T13:45:52Z</time></trkpt><trkpt lat="45.017883449944236" lon="7.672662872300534"><ele>222.5</ele><time>2026-04-10T13:45:54Z</time></trkpt><trkpt lat="45.01799721914593" lon="7.67267908525645"><ele>223.0</ele><time>2026-04-10T13:45:56Z</time></trkpt><trkpt lat="45.01811095410376" lon="7.6727002229690635"><ele>223.5</ele><time>2026-04-10T13:45:58Z</time></trkpt><trkpt lat="45.0182215292574" lon="7.6727061806352985"><ele>224.0</ele><time>2026-04-10T13:46:00Z</time></trkpt><trkpt lat="45.01833264421538" lon="7.672710152088772"><ele>224.0</ele><time>2026-04-10T13:46:02Z</time></trkpt><trkpt lat="45.01844484060655" lon="7.672728971899867"><ele>223.99999999999997</ele><time>2026-04-10T13:46:04Z</time></trkpt><trkpt lat="45.018559061955244" lon="7.672752088088178"><ele>223.99999999999997</ele><time>2026-04-10T13:46:06Z</time></trkpt><trkpt lat="45.01866626547513" lon="7.672762347096174"><ele>224.0</ele><time>2026-04-10T13:46:08Z</time></trkpt><trkpt lat="45.01877041507532" lon="7.67276907493186"><ele>224.0</ele><time>2026-04-10T13:46:10Z</time></trkpt><trkpt lat="45.0188715620057" lon="7.67276284312285"><ele>224.0</ele><time>2026-04-10T13:46:12Z</time></trkpt><trkpt lat="45.018989243541114" lon="7.672764977455045"><ele>224.0</ele><time>2026-04-10T13:46:14Z</time></trkpt><trkpt lat="45.019052679370105" lon="7.672767441674526"><ele>224.0</ele><time>2026-04-10T13:46:15Z</time></trkpt><trkpt lat="45.019177910416" lon="7.672542426422655"><ele>224.0</ele><time>2026-04-10T13:46:17Z</time></trkpt><trkpt lat="45.019295571463275" lon="7.672555831992363"><ele>223.25</ele><time>2026-04-10T13:46:19Z</time></trkpt><trkpt lat="45.01941207356947" lon="7.6725707729150665"><ele>222.5</ele><time>2026-04-10T13:46:21Z</time></trkpt><trkpt lat="45.01953638633248" lon="7.672587768321507"><ele>221.75</ele><time>2026-04-10T13:46:23Z</time></trkpt><trkpt lat="45.01965750309016" lon="7.672604888200585"><ele>221.0</ele><time>2026-04-10T13:46:25Z</time></trkpt><trkpt lat="45.01977966352549" lon="7.672622024098019"><ele>221.0</ele><time>2026-04-10T13:46:27Z</time></trkpt><trkpt lat="45.01989969789371" lon="7.672638433137904"><ele>221.00000000000003</ele><time>2026-04-10T13:46:29Z</time></trkpt><trkpt lat="45.020011381326924" lon="7.672653700580904"><ele>221.00000000000003</ele><time>2026-04-10T13:46:31Z</time></trkpt><trkpt lat="45.0201015057751" lon="7.672664968944342"><ele>221.0</ele><time>2026-04-10T13:46:33Z</time></trkpt><trkpt lat="45.020203537012414" lon="7.672676717283594"><ele>221.0</ele><time>2026-04-10T13:46:35Z</time></trkpt><trkpt lat="45.02031507165499" lon="7.6726866943484024"><ele>221.60000000000002</ele><time>2026-04-10T13:46:37Z</time></trkpt><trkpt lat="45.02037886217137" lon="7.672691551285269"><ele>222.20000000000002</ele><time>2026-04-10T13:46:38Z</time></trkpt><trkpt lat="45.02049100447077" lon="7.6726969385489845"><ele>222.79999999999998</ele><time>2026-04-10T13:46:40Z</time></trkpt><trkpt lat="45.02060483824056" lon="7.672698769053171"><ele>223.39999999999998</ele><time>2026-04-10T13:46:42Z</time></trkpt><trkpt lat="45.02067835138532" lon="7.672663869357423"><ele>224.0</ele><time>2026-04-10T13:46:44Z</time></trkpt><trkpt lat="45.020868433927845" lon="7.6729535739092185"><ele>224.0</ele><time>2026-04-10T13:46:47Z</time></trkpt><trkpt lat="45.02098550583696" lon="7.672996713193651"><ele>223.99999999999997</ele><time>2026-04-10T13:46:49Z</time></trkpt><trkpt lat="45.0211139964307" lon="7.673038838724504"><ele>223.99999999999997</ele><time>2026-04-10T13:46:51Z</time></trkpt><trkpt lat="45.02118851425588" lon="7.673062327420693"><ele>224.0</ele><time>2026-04-10T13:46:52Z</time></trkpt><trkpt lat="45.02126361133456" lon="7.673096721356993"><ele>224.0</ele><time>2026-04-10T13:46:53Z</time></trkpt><trkpt lat="45.021403036654846" lon="7.6731242547386325"><ele>224.0</ele><time>2026-04-10T13:46:55Z</time></trkpt><trkpt lat="45.021470388657825" lon="7.673146474457999"><ele>223.99999999999997</ele><time>2026-04-10T13:46:56Z</time></trkpt><trkpt lat="45.02157968007613" lon="7.67316603283562"><ele>223.99999999999997</ele><time>2026-04-10T13:46:58Z</time></trkpt><trkpt lat="45.021696962840515" lon="7.673203268191044"><ele>224.0</ele><time>2026-04-10T13:47:00Z</time></trkpt><trkpt lat="45.02180306019859" lon="7.6732230243203"><ele>224.0</ele><time>2026-04-10T13:47:02Z</time></trkpt><trkpt lat="45.021913160273556" lon="7.673250267757405"><ele>224.0</ele><time>2026-04-10T13:47:04Z</time></trkpt><trkpt lat="45.022021770119935" lon="7.673286184365682"><ele>223.99999999999997</ele><time>2026-04-10T13:47:06Z</time></trkpt><trkpt lat="45.022133825844286" lon="7.673287691918987"><ele>223.99999999999997</ele><time>2026-04-10T13:47:07.999Z</time></trkpt><trkpt lat="45.022245528580164" lon="7.67328972475948"><ele>224.0</ele><time>2026-04-10T13:47:09.999Z</time></trkpt><trkpt lat="45.02234862110125" lon="7.673306254430672"><ele>224.0</ele><time>2026-04-10T13:47:11.999Z</time></trkpt><trkpt lat="45.02245780827086" lon="7.673319431755187"><ele>223.39999999999998</ele><time>2026-04-10T13:47:13.999Z</time></trkpt><trkpt lat="45.02257211642302" lon="7.673329334644831"><ele>222.79999999999998</ele><time>2026-04-10T13:47:15.999Z</time></trkpt><trkpt lat="45.02268889786949" lon="7.673342673328215"><ele>222.20000000000002</ele><time>2026-04-10T13:47:17.999Z</time></trkpt><trkpt lat="45.022800767813386" lon="7.67335526071052"><ele>221.60000000000002</ele><time>2026-04-10T13:47:19.999Z</time></trkpt><trkpt lat="45.022884765687046" lon="7.67335512270732"><ele>221.0</ele><time>2026-04-10T13:47:21.999Z</time></trkpt><trkpt lat="45.02296508842069" lon="7.67336069449782"><ele>221.0</ele><time>2026-04-10T13:47:23.999Z</time></trkpt><trkpt lat="45.02306620955999" lon="7.673355927765388"><ele>221.00000000000003</ele><time>2026-04-10T13:47:25.999Z</time></trkpt><trkpt lat="45.02317463188548" lon="7.673341682922595"><ele>221.00000000000003</ele><time>2026-04-10T13:47:27.999Z</time></trkpt><trkpt lat="45.023285000540035" lon="7.673329460056615"><ele>221.0</ele><time>2026-04-10T13:47:29.999Z</time></trkpt><trkpt lat="45.02339903497368" lon="7.67332618343024"><ele>221.0</ele><time>2026-04-10T13:47:31.999Z</time></trkpt><trkpt lat="45.02351166636765" lon="7.673318789974749"><ele>221.8</ele><time>2026-04-10T13:47:33.999Z</time></trkpt><trkpt lat="45.02362427980925" lon="7.6733072881985365"><ele>222.60000000000002</ele><time>2026-04-10T13:47:35.999Z</time></trkpt><trkpt lat="45.02372510251637" lon="7.673309729223383"><ele>223.4</ele><time>2026-04-10T13:47:37.999Z</time></trkpt><trkpt lat="45.023834812506635" lon="7.673310364933366"><ele>224.2</ele><time>2026-04-10T13:47:39.999Z</time></trkpt><trkpt lat="45.02394825830457" lon="7.673307411465386"><ele>225.0</ele><time>2026-04-10T13:47:41.999Z</time></trkpt><trkpt lat="45.02406300326018" lon="7.673334749183039"><ele>224.75</ele><time>2026-04-10T13:47:43.999Z</time></trkpt><trkpt lat="45.0241781280752" lon="7.673375045312465"><ele>224.5</ele><time>2026-04-10T13:47:45.999Z</time></trkpt><trkpt lat="45.024293861901384" lon="7.67339919319609"><ele>224.25</ele><time>2026-04-10T13:47:47.999Z</time></trkpt><trkpt lat="45.024402348300775" lon="7.6734307158537085"><ele>224.0</ele><time>2026-04-10T13:47:49.999Z</time></trkpt><trkpt lat="45.02452364623907" lon="7.673480998303624"><ele>224.0</ele><time>2026-04-10T13:47:51.999Z</time></trkpt><trkpt lat="45.02467562913711" lon="7.6733540677127685"><ele>224.0</ele><time>2026-04-10T13:47:54Z</time></trkpt><trkpt lat="45.024763108803846" lon="7.673397399085943"><ele>224.0</ele><time>2026-04-10T13:47:56Z</time></trkpt><trkpt lat="45.02486428936434" lon="7.673401571051931"><ele>224.0</ele><time>2026-04-10T13:47:58Z</time></trkpt><trkpt lat="45.024980779850964" lon="7.673612771473597"><ele>223.39999999999998</ele><time>2026-04-10T13:48:00Z</time></trkpt><trkpt lat="45.025095939221735" lon="7.673636427369635"><ele>222.79999999999998</ele><time>2026-04-10T13:48:02Z</time></trkpt><trkpt lat="45.02519671095636" lon="7.67364754797279"><ele>222.20000000000002</ele><time>2026-04-10T13:48:04Z</time></trkpt><trkpt lat="45.0252623952357" lon="7.673546881899773"><ele>221.60000000000002</ele><time>2026-04-10T13:48:06Z</time></trkpt><trkpt lat="45.02525968550681" lon="7.673412149216533"><ele>221.0</ele><time>2026-04-10T13:48:08Z</time></trkpt><trkpt lat="45.02530906211745" lon="7.673336456890499"><ele>221.00000000000003</ele><time>2026-04-10T13:48:10Z</time></trkpt><trkpt lat="45.02538192150651" lon="7.673335948965398"><ele>221.0</ele><time>2026-04-10T13:48:12Z</time></trkpt><trkpt lat="45.025477773467806" lon="7.673345348088216"><ele>221.0</ele><time>2026-04-10T13:48:14Z</time></trkpt><trkpt lat="45.025573010624086" lon="7.673297168976703"><ele>221.0</ele><time>2026-04-10T13:48:16Z</time></trkpt><trkpt lat="45.02565325364108" lon="7.673294389870004"><ele>221.00000000000003</ele><time>2026-04-10T13:48:18Z</time></trkpt><trkpt lat="45.02573898359525" lon="7.673262547165291"><ele>221.0</ele><time>2026-04-10T13:48:20Z</time></trkpt><trkpt lat="45.025839504048804" lon="7.673203402460357"><ele>221.00000000000003</ele><time>2026-04-10T13:48:22Z</time></trkpt><trkpt lat="45.025936971336506" lon="7.67316919363046"><ele>221.0</ele><time>2026-04-10T13:48:25Z</time></trkpt><trkpt lat="45.02600793539576" lon="7.673209220204175"><ele>221.0</ele><time>2026-04-10T13:48:27Z</time></trkpt><trkpt lat="45.026078633581115" lon="7.673277223343244"><ele>221.0</ele><time>2026-04-10T13:48:29Z</time></trkpt><trkpt lat="45.02617536888094" lon="7.673318098165939"><ele>221.00000000000003</ele><time>2026-04-10T13:48:31Z</time></trkpt><trkpt lat="45.02624305666866" lon="7.67332481228046"><ele>221.0</ele><time>2026-04-10T13:48:33Z</time></trkpt><trkpt lat="45.02632706585528" lon="7.673319169227772"><ele>221.0</ele><time>2026-04-10T13:48:35Z</time></trkpt><trkpt lat="45.02641596582215" lon="7.673297780465448"><ele>221.00000000000003</ele><time>2026-04-10T13:48:37Z</time></trkpt><trkpt lat="45.02650162049171" lon="7.673259817437886"><ele>221.00000000000003</ele><time>2026-04-10T13:48:39Z</time></trkpt><trkpt lat="45.02659744081422" lon="7.6732612342599165"><ele>221.0</ele><time>2026-04-10T13:48:41Z</time></trkpt><trkpt lat="45.02668914885844" lon="7.673231345859614"><ele>221.0</ele><time>2026-04-10T13:48:43Z</time></trkpt><trkpt lat="45.02677117959477" lon="7.67320203845623"><ele>221.8</ele><time>2026-04-10T13:48:45Z</time></trkpt><trkpt lat="45.02686791187873" lon="7.673186604083079"><ele>222.60000000000002</ele><time>2026-04-10T13:48:47Z</time></trkpt><trkpt lat="45.02696297379611" lon="7.673176294727047"><ele>223.4</ele><time>2026-04-10T13:48:49Z</time></trkpt><trkpt lat="45.02705754753819" lon="7.6731644016624765"><ele>224.2</ele><time>2026-04-10T13:48:51Z</time></trkpt><trkpt lat="45.027146817736266" lon="7.6731514493599775"><ele>225.0</ele><time>2026-04-10T13:48:53Z</time></trkpt><trkpt lat="45.02722787063147" lon="7.673140855960634"><ele>225.0</ele><time>2026-04-10T13:48:57Z</time></trkpt><trkpt lat="45.02730974000479" lon="7.673067865666018"><ele>225.0</ele><time>2026-04-10T13:49:00Z</time></trkpt><trkpt lat="45.02740169956828" lon="7.673053246153864"><ele>225.0</ele><time>2026-04-10T13:49:02.999Z</time></trkpt><trkpt lat="45.02781358363845" lon="7.6730485176869845"><ele>224.0</ele><time>2026-04-10T13:49:05.999Z</time></trkpt><trkpt lat="45.028073737180925" lon="7.673017762068324"><ele>223.0</ele><time>2026-04-10T13:49:10.999Z</time></trkpt><trkpt lat="45.02815822762895" lon="7.67299078482296"><ele>222.0</ele><time>2026-04-10T13:49:12.999Z</time></trkpt><trkpt lat="45.02826506809575" lon="7.672989716502288"><ele>222.33333333333334</ele><time>2026-04-10T13:49:14.999Z</time></trkpt><trkpt lat="45.02835810450695" lon="7.672974107987707"><ele>222.66666666666669</ele><time>2026-04-10T13:49:16.999Z</time></trkpt><trkpt lat="45.028449431112485" lon="7.672962391942087"><ele>223.0</ele><time>2026-04-10T13:49:18.999Z</time></trkpt><trkpt lat="45.028540735187875" lon="7.672958284244207"><ele>223.33333333333334</ele><time>2026-04-10T13:49:20.999Z</time></trkpt><trkpt lat="45.02860267389601" lon="7.672938486475131"><ele>223.66666666666669</ele><time>2026-04-10T13:49:22.999Z</time></trkpt><trkpt lat="45.028699341170814" lon="7.672942060423256"><ele>224.0</ele><time>2026-04-10T13:49:24.999Z</time></trkpt><trkpt lat="45.0287949891596" lon="7.672958256229217"><ele>224.0</ele><time>2026-04-10T13:49:26.999Z</time></trkpt><trkpt lat="45.02885708054284" lon="7.673013767683989"><ele>223.99999999999997</ele><time>2026-04-10T13:49:27.999Z</time></trkpt><trkpt lat="45.02896043669095" lon="7.673014581557425"><ele>223.99999999999997</ele><time>2026-04-10T13:49:29.999Z</time></trkpt><trkpt lat="45.02903342434272" lon="7.673021775040478"><ele>224.0</ele><time>2026-04-10T13:49:32.999Z</time></trkpt><trkpt lat="45.029117263220314" lon="7.673058353030926"><ele>224.0</ele><time>2026-04-10T13:49:35.999Z</time></trkpt><trkpt lat="45.02925814275929" lon="7.673125766246133"><ele>223.79999999999998</ele><time>2026-04-10T13:49:37.999Z</time></trkpt><trkpt lat="45.02936422193178" lon="7.673175298797604"><ele>223.59999999999997</ele><time>2026-04-10T13:49:39.999Z</time></trkpt><trkpt lat="45.02944447655067" lon="7.673236662644633"><ele>223.4</ele><time>2026-04-10T13:49:41.999Z</time></trkpt><trkpt lat="45.02952463289563" lon="7.673299536928459"><ele>223.2</ele><time>2026-04-10T13:49:43.999Z</time></trkpt><trkpt lat="45.02960668498351" lon="7.673355173901413"><ele>223.0</ele><time>2026-04-10T13:49:45.999Z</time></trkpt><trkpt lat="45.02967673667135" lon="7.673414340140052"><ele>223.0</ele><time>2026-04-10T13:49:47.999Z</time></trkpt><trkpt lat="45.02975762344096" lon="7.673479972244569"><ele>223.0</ele><time>2026-04-10T13:49:49.999Z</time></trkpt><trkpt lat="45.02983397999774" lon="7.67354413145029"><ele>223.0</ele><time>2026-04-10T13:49:51.999Z</time></trkpt><trkpt lat="45.0299247290335" lon="7.673630001897429"><ele>223.0</ele><time>2026-04-10T13:49:53.999Z</time></trkpt><trkpt lat="45.03000840747027" lon="7.673707755630615"><ele>223.0</ele><time>2026-04-10T13:49:55.999Z</time></trkpt><trkpt lat="45.030095915171" lon="7.67378662071404"><ele>222.99999999999997</ele><time>2026-04-10T13:49:57.999Z</time></trkpt><trkpt lat="45.030173021782396" lon="7.673874366944086"><ele>223.0</ele><time>2026-04-10T13:50:00Z</time></trkpt><trkpt lat="45.030248019507084" lon="7.67394285404052"><ele>223.0</ele><time>2026-04-10T13:50:02Z</time></trkpt><trkpt lat="45.03031109527494" lon="7.67401763259759"><ele>223.0</ele><time>2026-04-10T13:50:04Z</time></trkpt><trkpt lat="45.03037458231945" lon="7.674084940581022"><ele>222.99999999999997</ele><time>2026-04-10T13:50:06Z</time></trkpt><trkpt lat="45.0304379028334" lon="7.67416227896093"><ele>223.0</ele><time>2026-04-10T13:50:08Z</time></trkpt><trkpt lat="45.03050887220069" lon="7.674240562648827"><ele>222.99999999999997</ele><time>2026-04-10T13:50:10Z</time></trkpt><trkpt lat="45.03057227614261" lon="7.674319707985136"><ele>223.0</ele><time>2026-04-10T13:50:12Z</time></trkpt><trkpt lat="45.03064261334511" lon="7.674391875501902"><ele>223.0</ele><time>2026-04-10T13:50:14Z</time></trkpt><trkpt lat="45.03070773870076" lon="7.6744567366117575"><ele>223.0</ele><time>2026-04-10T13:50:16Z</time></trkpt><trkpt lat="45.03076606783842" lon="7.674536356546021"><ele>222.99999999999997</ele><time>2026-04-10T13:50:18Z</time></trkpt><trkpt lat="45.03082701845927" lon="7.674628884777868"><ele>223.0</ele><time>2026-04-10T13:50:20Z</time></trkpt><trkpt lat="45.030889885836096" lon="7.674732570005636"><ele>222.8</ele><time>2026-04-10T13:50:22Z</time></trkpt><trkpt lat="45.03095429178255" lon="7.674829361439432"><ele>222.60000000000002</ele><time>2026-04-10T13:50:24Z</time></trkpt><trkpt lat="45.03102341281449" lon="7.674922917560974"><ele>222.39999999999998</ele><time>2026-04-10T13:50:26Z</time></trkpt><trkpt lat="45.03108867712406" lon="7.675034132282959"><ele>222.2</ele><time>2026-04-10T13:50:28Z</time></trkpt><trkpt lat="45.031150917975324" lon="7.675141179530124"><ele>222.0</ele><time>2026-04-10T13:50:30Z</time></trkpt><trkpt lat="45.031212926984814" lon="7.675240285702761"><ele>221.8</ele><time>2026-04-10T13:50:32Z</time></trkpt><trkpt lat="45.0312901932398" lon="7.675330396595278"><ele>221.6</ele><time>2026-04-10T13:50:34Z</time></trkpt><trkpt lat="45.031381795614884" lon="7.675407558007837"><ele>221.40000000000003</ele><time>2026-04-10T13:50:36Z</time></trkpt><trkpt lat="45.0314740260446" lon="7.675490964707647"><ele>221.20000000000002</ele><time>2026-04-10T13:50:38Z</time></trkpt><trkpt lat="45.03156718162914" lon="7.675558806981684"><ele>221.0</ele><time>2026-04-10T13:50:40Z</time></trkpt><trkpt lat="45.031644184084385" lon="7.675635450057261"><ele>221.60000000000002</ele><time>2026-04-10T13:50:42Z</time></trkpt><trkpt lat="45.03172385114014" lon="7.67570430485678"><ele>222.20000000000002</ele><time>2026-04-10T13:50:44Z</time></trkpt><trkpt lat="45.03180944868153" lon="7.675787138760894"><ele>222.79999999999998</ele><time>2026-04-10T13:50:46Z</time></trkpt><trkpt lat="45.031896191450265" lon="7.675915845001822"><ele>223.39999999999998</ele><time>2026-04-10T13:50:48Z</time></trkpt><trkpt lat="45.03196138651513" lon="7.676019130319415"><ele>224.0</ele><time>2026-04-10T13:50:50Z</time></trkpt><trkpt lat="45.03204258393317" lon="7.676150669287132"><ele>224.0</ele><time>2026-04-10T13:50:52Z</time></trkpt><trkpt lat="45.03208360016068" lon="7.676219891388649"><ele>223.99999999999997</ele><time>2026-04-10T13:50:53Z</time></trkpt><trkpt lat="45.03216336622559" lon="7.6763550556645805"><ele>223.99999999999997</ele><time>2026-04-10T13:50:55Z</time></trkpt><trkpt lat="45.03225336013382" lon="7.676464827538554"><ele>224.0</ele><time>2026-04-10T13:50:57Z</time></trkpt><trkpt lat="45.03234232976446" lon="7.676561089278112"><ele>224.0</ele><time>2026-04-10T13:50:59Z</time></trkpt><trkpt lat="45.03241496091216" lon="7.676661721805101"><ele>224.0</ele><time>2026-04-10T13:51:01Z</time></trkpt><trkpt lat="45.032503987103645" lon="7.676736424943424"><ele>223.99999999999997</ele><time>2026-04-10T13:51:02.999Z</time></trkpt><trkpt lat="45.03258248367019" lon="7.6768211324067295"><ele>223.99999999999997</ele><time>2026-04-10T13:51:04.999Z</time></trkpt><trkpt lat="45.03266687997631" lon="7.676917195657311"><ele>224.0</ele><time>2026-04-10T13:51:06.999Z</time></trkpt><trkpt lat="45.03275943120976" lon="7.676999179081718"><ele>224.0</ele><time>2026-04-10T13:51:08.999Z</time></trkpt><trkpt lat="45.03284907632864" lon="7.677088869657878"><ele>224.0</ele><time>2026-04-10T13:51:10.999Z</time></trkpt><trkpt lat="45.03294793383487" lon="7.6771465808679515"><ele>223.99999999999997</ele><time>2026-04-10T13:51:12.999Z</time></trkpt><trkpt lat="45.033044414722596" lon="7.677220664141905"><ele>223.99999999999997</ele><time>2026-04-10T13:51:14.999Z</time></trkpt><trkpt lat="45.03313699365697" lon="7.677298550425503"><ele>224.0</ele><time>2026-04-10T13:51:16.999Z</time></trkpt><trkpt lat="45.033223460165836" lon="7.677369165038704"><ele>224.0</ele><time>2026-04-10T13:51:18.999Z</time></trkpt><trkpt lat="45.03331938285358" lon="7.677403537024387"><ele>224.0</ele><time>2026-04-10T13:51:20.999Z</time></trkpt><trkpt lat="45.03341208864237" lon="7.6774172061847645"><ele>223.99999999999997</ele><time>2026-04-10T13:51:22.999Z</time></trkpt><trkpt lat="45.03351307265288" lon="7.677472008625075"><ele>223.99999999999997</ele><time>2026-04-10T13:51:24.999Z</time></trkpt><trkpt lat="45.033618652355806" lon="7.677517256445171"><ele>224.0</ele><time>2026-04-10T13:51:26.999Z</time></trkpt><trkpt lat="45.033680148448774" lon="7.677536658000864"><ele>224.0</ele><time>2026-04-10T13:51:27.999Z</time></trkpt><trkpt lat="45.03379861819855" lon="7.6775599787788344"><ele>224.0</ele><time>2026-04-10T13:51:29.999Z</time></trkpt><trkpt lat="45.03391032287223" lon="7.677587135654948"><ele>223.99999999999997</ele><time>2026-04-10T13:51:31.999Z</time></trkpt><trkpt lat="45.03401482124014" lon="7.677601529271352"><ele>223.99999999999997</ele><time>2026-04-10T13:51:33.999Z</time></trkpt><trkpt lat="45.034090199508604" lon="7.6776200222746604"><ele>224.0</ele><time>2026-04-10T13:51:34.999Z</time></trkpt><trkpt lat="45.03418456804771" lon="7.677613643576011"><ele>224.0</ele><time>2026-04-10T13:51:36.999Z</time></trkpt><trkpt lat="45.03429023979629" lon="7.677596526098291"><ele>224.6</ele><time>2026-04-10T13:51:38.999Z</time></trkpt><trkpt lat="45.03439413493299" lon="7.6775852173638395"><ele>225.2</ele><time>2026-04-10T13:51:40.999Z</time></trkpt><trkpt lat="45.034512583336074" lon="7.677567778085101"><ele>225.79999999999998</ele><time>2026-04-10T13:51:42.999Z</time></trkpt><trkpt lat="45.03461909838351" lon="7.67755623667795"><ele>226.39999999999998</ele><time>2026-04-10T13:51:44.999Z</time></trkpt><trkpt lat="45.03473059281148" lon="7.6775488449676335"><ele>227.0</ele><time>2026-04-10T13:51:46.999Z</time></trkpt><trkpt lat="45.034853886464454" lon="7.677526148277452"><ele>227.00000000000003</ele><time>2026-04-10T13:51:48.999Z</time></trkpt><trkpt lat="45.03496608531129" lon="7.677475994603725"><ele>227.0</ele><time>2026-04-10T13:51:50.999Z</time></trkpt><trkpt lat="45.03503377620711" lon="7.677462664726578"><ele>227.0</ele><time>2026-04-10T13:51:51.999Z</time></trkpt><trkpt lat="45.035096231142234" lon="7.6774480529850395"><ele>227.0</ele><time>2026-04-10T13:51:52.999Z</time></trkpt><trkpt lat="45.03516322392776" lon="7.6774301730762975"><ele>227.00000000000003</ele><time>2026-04-10T13:51:53.999Z</time></trkpt><trkpt lat="45.03527512022617" lon="7.677384203462348"><ele>227.0</ele><time>2026-04-10T13:51:55.999Z</time></trkpt><trkpt lat="45.03538920081844" lon="7.677324651391741"><ele>226.6</ele><time>2026-04-10T13:51:57.999Z</time></trkpt><trkpt lat="45.03549271675646" lon="7.677260910783133"><ele>226.2</ele><time>2026-04-10T13:51:59.999Z</time></trkpt><trkpt lat="45.035597411947734" lon="7.677195132315786"><ele>225.8</ele><time>2026-04-10T13:52:01.999Z</time></trkpt><trkpt lat="45.03569425195255" lon="7.677137965340712"><ele>225.4</ele><time>2026-04-10T13:52:03.999Z</time></trkpt><trkpt lat="45.0357882936304" lon="7.6770766264215995"><ele>225.0</ele><time>2026-04-10T13:52:06Z</time></trkpt><trkpt lat="45.03587387684922" lon="7.677038482751782"><ele>225.0</ele><time>2026-04-10T13:52:08Z</time></trkpt><trkpt lat="45.0359618743252" lon="7.676990123058959"><ele>225.0</ele><time>2026-04-10T13:52:10Z</time></trkpt><trkpt lat="45.03603380610044" lon="7.6769642724965586"><ele>225.0</ele><time>2026-04-10T13:52:12Z</time></trkpt><trkpt lat="45.03610762880228" lon="7.676943330401077"><ele>225.0</ele><time>2026-04-10T13:52:14Z</time></trkpt><trkpt lat="45.036179510893405" lon="7.676909137727261"><ele>225.0</ele><time>2026-04-10T13:52:16Z</time></trkpt><trkpt lat="45.036260775995196" lon="7.676907020271396"><ele>225.0</ele><time>2026-04-10T13:52:19Z</time></trkpt><trkpt lat="45.03632830061662" lon="7.676912898773733"><ele>225.0</ele><time>2026-04-10T13:53:29.999Z</time></trkpt><trkpt lat="45.036425715794124" lon="7.676890900387267"><ele>225.0</ele><time>2026-04-10T13:53:32.999Z</time></trkpt><trkpt lat="45.03650078003584" lon="7.67688190752328"><ele>225.0</ele><time>2026-04-10T13:53:34.999Z</time></trkpt><trkpt lat="45.03657941921869" lon="7.676872842223472"><ele>225.0</ele><time>2026-04-10T13:53:36.999Z</time></trkpt><trkpt lat="45.03666834955388" lon="7.676849865861912"><ele>225.0</ele><time>2026-04-10T13:53:38.999Z</time></trkpt><trkpt lat="45.03676574456135" lon="7.676833588844337"><ele>225.0</ele><time>2026-04-10T13:53:40.999Z</time></trkpt><trkpt lat="45.036867001580156" lon="7.676816488922689"><ele>225.0</ele><time>2026-04-10T13:53:42.999Z</time></trkpt><trkpt lat="45.036966877376294" lon="7.6768182772325195"><ele>225.0</ele><time>2026-04-10T13:53:44.999Z</time></trkpt><trkpt lat="45.03707239775336" lon="7.67679255901887"><ele>225.0</ele><time>2026-04-10T13:53:46.999Z</time></trkpt><trkpt lat="45.03718062209" lon="7.676785501432689"><ele>225.0</ele><time>2026-04-10T13:53:48.999Z</time></trkpt><trkpt lat="45.037291378987696" lon="7.676766496931449"><ele>225.0</ele><time>2026-04-10T13:53:50.999Z</time></trkpt><trkpt lat="45.037406099638524" lon="7.676752421363802"><ele>224.66666666666666</ele><time>2026-04-10T13:53:52.999Z</time></trkpt><trkpt lat="45.0375301419964" lon="7.676757057174051"><ele>224.33333333333331</ele><time>2026-04-10T13:53:54.999Z</time></trkpt><trkpt lat="45.03759522493088" lon="7.67675821688292"><ele>224.0</ele><time>2026-04-10T13:53:55.999Z</time></trkpt><trkpt lat="45.03766119812123" lon="7.676753704518346"><ele>223.66666666666666</ele><time>2026-04-10T13:53:56.999Z</time></trkpt><trkpt lat="45.03772773143615" lon="7.6767454716104115"><ele>223.33333333333331</ele><time>2026-04-10T13:53:57.999Z</time></trkpt><trkpt lat="45.03779658391264" lon="7.676735412834686"><ele>223.0</ele><time>2026-04-10T13:53:58.999Z</time></trkpt><trkpt lat="45.03793049910018" lon="7.676715829609533"><ele>222.99999999999997</ele><time>2026-04-10T13:54:00.999Z</time></trkpt><trkpt lat="45.03799526985844" lon="7.6767128615670694"><ele>223.0</ele><time>2026-04-10T13:54:01.999Z</time></trkpt><trkpt lat="45.03806070326944" lon="7.676717734313987"><ele>223.0</ele><time>2026-04-10T13:54:02.999Z</time></trkpt><trkpt lat="45.03813069522686" lon="7.676711319724308"><ele>223.0</ele><time>2026-04-10T13:54:03.999Z</time></trkpt><trkpt lat="45.038196061216496" lon="7.676701130284985"><ele>222.99999999999997</ele><time>2026-04-10T13:54:04.999Z</time></trkpt><trkpt lat="45.0382617428591" lon="7.676697121553755"><ele>223.0</ele><time>2026-04-10T13:54:05.999Z</time></trkpt><trkpt lat="45.038387149676744" lon="7.676687239993125"><ele>223.33333333333331</ele><time>2026-04-10T13:54:07.999Z</time></trkpt><trkpt lat="45.03845027795044" lon="7.6766755072131"><ele>223.66666666666666</ele><time>2026-04-10T13:54:08.999Z</time></trkpt><trkpt lat="45.03851357882599" lon="7.676676157667869"><ele>224.0</ele><time>2026-04-10T13:54:09.999Z</time></trkpt><trkpt lat="45.03862366128079" lon="7.676670970846167"><ele>224.33333333333331</ele><time>2026-04-10T13:54:12Z</time></trkpt><trkpt lat="45.038728075066" lon="7.676673653239597"><ele>224.66666666666666</ele><time>2026-04-10T13:54:14Z</time></trkpt><trkpt lat="45.03883425823847" lon="7.676683698942647"><ele>225.0</ele><time>2026-04-10T13:54:16Z</time></trkpt><trkpt lat="45.03893190053452" lon="7.676672386570345"><ele>225.0</ele><time>2026-04-10T13:54:18Z</time></trkpt><trkpt lat="45.03904864654836" lon="7.676682920669607"><ele>225.0</ele><time>2026-04-10T13:54:20Z</time></trkpt><trkpt lat="45.03916261550552" lon="7.676685692407025"><ele>225.0</ele><time>2026-04-10T13:54:22Z</time></trkpt><trkpt lat="45.03927872742342" lon="7.676699683841959"><ele>225.0</ele><time>2026-04-10T13:54:24Z</time></trkpt><trkpt lat="45.03939376051575" lon="7.6767265681828345"><ele>225.5</ele><time>2026-04-10T13:54:26Z</time></trkpt><trkpt lat="45.039517314200786" lon="7.676720560120462"><ele>226.0</ele><time>2026-04-10T13:54:28Z</time></trkpt><trkpt lat="45.03964064904547" lon="7.676751942352245"><ele>226.5</ele><time>2026-04-10T13:54:30Z</time></trkpt><trkpt lat="45.03976126252023" lon="7.676786068233013"><ele>227.0</ele><time>2026-04-10T13:54:32Z</time></trkpt><trkpt lat="45.039876635367456" lon="7.676832704353513"><ele>227.6</ele><time>2026-04-10T13:54:34Z</time></trkpt><trkpt lat="45.03999163295216" lon="7.676871217831739"><ele>228.2</ele><time>2026-04-10T13:54:36Z</time></trkpt><trkpt lat="45.04009452795983" lon="7.676909289396413"><ele>228.8</ele><time>2026-04-10T13:54:38Z</time></trkpt><trkpt lat="45.040200575672124" lon="7.676944665579281"><ele>229.4</ele><time>2026-04-10T13:54:40Z</time></trkpt><trkpt lat="45.04030934598411" lon="7.6769875148733195"><ele>230.0</ele><time>2026-04-10T13:54:42Z</time></trkpt><trkpt lat="45.04041558789441" lon="7.677035300244158"><ele>229.2</ele><time>2026-04-10T13:54:44Z</time></trkpt><trkpt lat="45.04052916998017" lon="7.677079178478687"><ele>228.4</ele><time>2026-04-10T13:54:46Z</time></trkpt><trkpt lat="45.040636348424755" lon="7.677119365030928"><ele>227.60000000000002</ele><time>2026-04-10T13:54:48Z</time></trkpt><trkpt lat="45.04073810065494" lon="7.677169325112284"><ele>226.8</ele><time>2026-04-10T13:54:50Z</time></trkpt><trkpt lat="45.040832575762586" lon="7.677219437885638"><ele>226.0</ele><time>2026-04-10T13:54:52Z</time></trkpt><trkpt lat="45.04092833622727" lon="7.6772644183397265"><ele>226.0</ele><time>2026-04-10T13:54:54Z</time></trkpt><trkpt lat="45.041025081912856" lon="7.677289404068644"><ele>226.00000000000003</ele><time>2026-04-10T13:54:56Z</time></trkpt><trkpt lat="45.041109290007164" lon="7.677350335320094"><ele>226.00000000000003</ele><time>2026-04-10T13:54:58Z</time></trkpt><trkpt lat="45.041208246949886" lon="7.677423356589369"><ele>226.0</ele><time>2026-04-10T13:55:00Z</time></trkpt><trkpt lat="45.04131074322643" lon="7.677498122928907"><ele>226.0</ele><time>2026-04-10T13:55:02Z</time></trkpt><trkpt lat="45.04140729530351" lon="7.6775730535520506"><ele>226.0</ele><time>2026-04-10T13:55:04Z</time></trkpt><trkpt lat="45.04151156770088" lon="7.677623480671257"><ele>226.00000000000003</ele><time>2026-04-10T13:55:06Z</time></trkpt><trkpt lat="45.041609368939326" lon="7.677673565242044"><ele>226.00000000000003</ele><time>2026-04-10T13:55:08Z</time></trkpt><trkpt lat="45.04169817589995" lon="7.6777636959073865"><ele>226.0</ele><time>2026-04-10T13:55:10Z</time></trkpt><trkpt lat="45.04180068322399" lon="7.677838964186375"><ele>226.0</ele><time>2026-04-10T13:55:12Z</time></trkpt><trkpt lat="45.041891045173415" lon="7.67792402633588"><ele>225.60000000000002</ele><time>2026-04-10T13:55:14Z</time></trkpt><trkpt lat="45.04196139584177" lon="7.678007601228843"><ele>225.20000000000002</ele><time>2026-04-10T13:55:16Z</time></trkpt><trkpt lat="45.04202658450493" lon="7.6780771826589875"><ele>224.79999999999998</ele><time>2026-04-10T13:55:18Z</time></trkpt><trkpt lat="45.04209699091363" lon="7.678141438526433"><ele>224.39999999999998</ele><time>2026-04-10T13:55:20Z</time></trkpt><trkpt lat="45.04217400827198" lon="7.6782218516819345"><ele>224.0</ele><time>2026-04-10T13:55:22Z</time></trkpt><trkpt lat="45.04226033717569" lon="7.678309047203819"><ele>224.0</ele><time>2026-04-10T13:55:23.999Z</time></trkpt><trkpt lat="45.04233607286385" lon="7.678399670236523"><ele>223.99999999999997</ele><time>2026-04-10T13:55:25.999Z</time></trkpt><trkpt lat="45.04239804367924" lon="7.678507474507305"><ele>223.99999999999997</ele><time>2026-04-10T13:55:27.999Z</time></trkpt><trkpt lat="45.04244903529826" lon="7.678602065848092"><ele>224.0</ele><time>2026-04-10T13:55:29.999Z</time></trkpt><trkpt lat="45.04250118814677" lon="7.678700734052785"><ele>224.0</ele><time>2026-04-10T13:55:31.999Z</time></trkpt><trkpt lat="45.04254889893745" lon="7.678800895480859"><ele>224.66666666666669</ele><time>2026-04-10T13:55:33.999Z</time></trkpt><trkpt lat="45.042606397697874" lon="7.678894084059331"><ele>225.33333333333334</ele><time>2026-04-10T13:55:35.999Z</time></trkpt><trkpt lat="45.042658512124156" lon="7.679000544370532"><ele>226.0</ele><time>2026-04-10T13:55:37.999Z</time></trkpt><trkpt lat="45.04270537912568" lon="7.67911647152634"><ele>226.66666666666669</ele><time>2026-04-10T13:55:39.999Z</time></trkpt><trkpt lat="45.042763022080145" lon="7.679215034694144"><ele>227.33333333333334</ele><time>2026-04-10T13:55:41.999Z</time></trkpt><trkpt lat="45.04280463259073" lon="7.679319695076137"><ele>228.0</ele><time>2026-04-10T13:55:43.999Z</time></trkpt><trkpt lat="45.042854548924794" lon="7.679406536960385"><ele>227.66666666666666</ele><time>2026-04-10T13:55:45.999Z</time></trkpt><trkpt lat="45.04290613182517" lon="7.67949683885699"><ele>227.33333333333331</ele><time>2026-04-10T13:55:47.999Z</time></trkpt><trkpt lat="45.04294339785977" lon="7.679579707568302"><ele>227.0</ele><time>2026-04-10T13:55:49.999Z</time></trkpt><trkpt lat="45.042993337725306" lon="7.679667627818156"><ele>226.66666666666666</ele><time>2026-04-10T13:55:52.999Z</time></trkpt><trkpt lat="45.04302152526634" lon="7.679769081020878"><ele>226.33333333333331</ele><time>2026-04-10T13:55:54.999Z</time></trkpt><trkpt lat="45.04307168789503" lon="7.679875454152441"><ele>226.0</ele><time>2026-04-10T13:55:56.999Z</time></trkpt><trkpt lat="45.04311878781635" lon="7.679954977119737"><ele>226.0</ele><time>2026-04-10T13:55:59.999Z</time></trkpt><trkpt lat="45.0432169896982" lon="7.680202406254464"><ele>226.0</ele><time>2026-04-10T13:56:01.999Z</time></trkpt><trkpt lat="45.043268954417464" lon="7.680319110859532"><ele>226.0</ele><time>2026-04-10T13:56:03.999Z</time></trkpt><trkpt lat="45.043309817003006" lon="7.680444335583479"><ele>226.0</ele><time>2026-04-10T13:56:05.999Z</time></trkpt><trkpt lat="45.04336634741179" lon="7.680577850350556"><ele>225.8</ele><time>2026-04-10T13:56:07.999Z</time></trkpt><trkpt lat="45.04342877607005" lon="7.680702781392125"><ele>225.60000000000002</ele><time>2026-04-10T13:56:09.999Z</time></trkpt><trkpt lat="45.043481636294565" lon="7.680832660223377"><ele>225.4</ele><time>2026-04-10T13:56:11.999Z</time></trkpt><trkpt lat="45.04353594806761" lon="7.680951637044251"><ele>225.2</ele><time>2026-04-10T13:56:13.999Z</time></trkpt><trkpt lat="45.04359076105272" lon="7.681066961472926"><ele>225.0</ele><time>2026-04-10T13:56:15.999Z</time></trkpt><trkpt lat="45.0436385743926" lon="7.681173402886046"><ele>225.0</ele><time>2026-04-10T13:56:18Z</time></trkpt><trkpt lat="45.043687195411025" lon="7.681295940392228"><ele>225.0</ele><time>2026-04-10T13:56:20Z</time></trkpt><trkpt lat="45.04372587788795" lon="7.681420664405606"><ele>225.0</ele><time>2026-04-10T13:56:22Z</time></trkpt><trkpt lat="45.04377294709556" lon="7.681587004071868"><ele>225.0</ele><time>2026-04-10T13:56:24Z</time></trkpt><trkpt lat="45.04381120729668" lon="7.681736006694244"><ele>225.0</ele><time>2026-04-10T13:56:26Z</time></trkpt><trkpt lat="45.04385335224226" lon="7.681886726659033"><ele>225.6</ele><time>2026-04-10T13:56:28Z</time></trkpt><trkpt lat="45.04388152518662" lon="7.68203128973733"><ele>226.2</ele><time>2026-04-10T13:56:30Z</time></trkpt><trkpt lat="45.04392775934621" lon="7.682166746649268"><ele>226.8</ele><time>2026-04-10T13:56:32Z</time></trkpt><trkpt lat="45.043980687281895" lon="7.682317369808048"><ele>227.4</ele><time>2026-04-10T13:56:34Z</time></trkpt><trkpt lat="45.04403833120171" lon="7.682449280333138"><ele>228.0</ele><time>2026-04-10T13:56:36Z</time></trkpt><trkpt lat="45.04408868320475" lon="7.682578558635387"><ele>227.8</ele><time>2026-04-10T13:56:38Z</time></trkpt><trkpt lat="45.04414203628599" lon="7.682715561755446"><ele>227.60000000000002</ele><time>2026-04-10T13:56:40Z</time></trkpt><trkpt lat="45.04419687641305" lon="7.682850753890067"><ele>227.39999999999998</ele><time>2026-04-10T13:56:42Z</time></trkpt><trkpt lat="45.04425993875244" lon="7.682983023199873"><ele>227.2</ele><time>2026-04-10T13:56:44Z</time></trkpt><trkpt lat="45.04431978769982" lon="7.683120068249238"><ele>227.0</ele><time>2026-04-10T13:56:46Z</time></trkpt><trkpt lat="45.044382356397215" lon="7.6832479783831475"><ele>227.0</ele><time>2026-04-10T13:56:48Z</time></trkpt><trkpt lat="45.04444497321927" lon="7.683370406362175"><ele>227.0</ele><time>2026-04-10T13:56:50Z</time></trkpt><trkpt lat="45.04451298680031" lon="7.683471941634003"><ele>227.0</ele><time>2026-04-10T13:56:52Z</time></trkpt><trkpt lat="45.04458780393886" lon="7.683557701812188"><ele>227.0</ele><time>2026-04-10T13:56:54Z</time></trkpt><trkpt lat="45.044663432568775" lon="7.683644564869496"><ele>227.0</ele><time>2026-04-10T13:56:56Z</time></trkpt><trkpt lat="45.04473907861337" lon="7.683729851028453"><ele>226.83333333333334</ele><time>2026-04-10T13:56:58Z</time></trkpt><trkpt lat="45.04481674774286" lon="7.683808534281335"><ele>226.66666666666669</ele><time>2026-04-10T13:57:00Z</time></trkpt><trkpt lat="45.044889004116406" lon="7.683889669123394"><ele>226.5</ele><time>2026-04-10T13:57:02Z</time></trkpt><trkpt lat="45.04496095135977" lon="7.683964306204514"><ele>226.33333333333331</ele><time>2026-04-10T13:57:04Z</time></trkpt><trkpt lat="45.04502736517078" lon="7.684027220486939"><ele>226.16666666666666</ele><time>2026-04-10T13:57:06Z</time></trkpt><trkpt lat="45.04509475612253" lon="7.684083686116121"><ele>226.0</ele><time>2026-04-10T13:57:08Z</time></trkpt><trkpt lat="45.04516865013318" lon="7.684131181648586"><ele>226.0</ele><time>2026-04-10T13:57:10Z</time></trkpt><trkpt lat="45.04524229266778" lon="7.684143659436373"><ele>226.00000000000003</ele><time>2026-04-10T13:57:13Z</time></trkpt><trkpt lat="45.04535896987195" lon="7.684160304056133"><ele>226.00000000000003</ele><time>2026-04-10T13:57:16Z</time></trkpt><trkpt lat="45.04546206933411" lon="7.684155776503391"><ele>226.0</ele><time>2026-04-10T13:57:18Z</time></trkpt><trkpt lat="45.04555416730676" lon="7.684232518355353"><ele>226.0</ele><time>2026-04-10T13:57:21Z</time></trkpt><trkpt lat="45.04562848827107" lon="7.684282889631893"><ele>225.99999999999997</ele><time>2026-04-10T13:57:24Z</time></trkpt><trkpt lat="45.045683474965976" lon="7.684330988771366"><ele>226.0</ele><time>2026-04-10T13:57:26Z</time></trkpt><trkpt lat="45.04575030921394" lon="7.684370740904611"><ele>226.0</ele><time>2026-04-10T13:57:28Z</time></trkpt><trkpt lat="45.045829254326016" lon="7.684405373770907"><ele>226.0</ele><time>2026-04-10T13:57:29.999Z</time></trkpt><trkpt lat="45.045890489241906" lon="7.684438066046713"><ele>225.99999999999997</ele><time>2026-04-10T13:57:30.999Z</time></trkpt><trkpt lat="45.046003887686666" lon="7.684505603881815"><ele>226.0</ele><time>2026-04-10T13:57:32.999Z</time></trkpt><trkpt lat="45.04608076258497" lon="7.684557905293486"><ele>225.8</ele><time>2026-04-10T13:57:34.999Z</time></trkpt><trkpt lat="45.04617876716299" lon="7.6846122989025"><ele>225.60000000000002</ele><time>2026-04-10T13:57:36.999Z</time></trkpt><trkpt lat="45.04626998299674" lon="7.68468759898496"><ele>225.4</ele><time>2026-04-10T13:57:38.999Z</time></trkpt><trkpt lat="45.04635630735539" lon="7.684733557156"><ele>225.2</ele><time>2026-04-10T13:57:40.999Z</time></trkpt><trkpt lat="45.04644938951149" lon="7.684772454734619"><ele>225.0</ele><time>2026-04-10T13:57:42.999Z</time></trkpt><trkpt lat="45.04654359666612" lon="7.684666168027665"><ele>225.0</ele><time>2026-04-10T13:57:43.999Z</time></trkpt><trkpt lat="45.046624981020415" lon="7.684739569794493"><ele>225.0</ele><time>2026-04-10T13:57:45.999Z</time></trkpt><trkpt lat="45.04669684270925" lon="7.6847974975856275"><ele>225.0</ele><time>2026-04-10T13:57:47.999Z</time></trkpt><trkpt lat="45.0467743789095" lon="7.684843811469468"><ele>225.0</ele><time>2026-04-10T13:57:49.999Z</time></trkpt><trkpt lat="45.046854770971294" lon="7.684880833177405"><ele>225.0</ele><time>2026-04-10T13:57:51.999Z</time></trkpt><trkpt lat="45.04693408294317" lon="7.684895070304277"><ele>225.0</ele><time>2026-04-10T13:57:53.999Z</time></trkpt><trkpt lat="45.04702699374786" lon="7.684912450761087"><ele>225.0</ele><time>2026-04-10T13:57:55.999Z</time></trkpt><trkpt lat="45.047106679489815" lon="7.684918105461315"><ele>225.0</ele><time>2026-04-10T13:57:57.999Z</time></trkpt><trkpt lat="45.04719504882855" lon="7.684906504008102"><ele>225.0</ele><time>2026-04-10T13:57:59.999Z</time></trkpt><trkpt lat="45.04725002430119" lon="7.685061946720272"><ele>225.0</ele><time>2026-04-10T13:58:01.999Z</time></trkpt><trkpt lat="45.047326454508074" lon="7.684878132751696"><ele>225.0</ele><time>2026-04-10T13:58:02.999Z</time></trkpt><trkpt lat="45.04741002803274" lon="7.684852579177068"><ele>225.4</ele><time>2026-04-10T13:58:04.999Z</time></trkpt><trkpt lat="45.04749760673169" lon="7.684820003391834"><ele>225.8</ele><time>2026-04-10T13:58:06.999Z</time></trkpt><trkpt lat="45.04759742518384" lon="7.6847450417222065"><ele>226.2</ele><time>2026-04-10T13:58:09.999Z</time></trkpt><trkpt lat="45.04766238476686" lon="7.6847208236525315"><ele>226.6</ele><time>2026-04-10T13:58:11.999Z</time></trkpt><trkpt lat="45.0477465813245" lon="7.684641516781338"><ele>227.0</ele><time>2026-04-10T13:58:14.999Z</time></trkpt><trkpt lat="45.0478205136854" lon="7.684560963382455"><ele>227.00000000000003</ele><time>2026-04-10T13:58:16.999Z</time></trkpt><trkpt lat="45.04788531068793" lon="7.684517120588255"><ele>227.0</ele><time>2026-04-10T13:58:18.999Z</time></trkpt><trkpt lat="45.047946710119184" lon="7.684444344006655"><ele>227.0</ele><time>2026-04-10T13:58:20.999Z</time></trkpt><trkpt lat="45.04805059697155" lon="7.6843857097515045"><ele>227.0</ele><time>2026-04-10T13:58:23Z</time></trkpt><trkpt lat="45.0481164918254" lon="7.684337211453242"><ele>227.00000000000003</ele><time>2026-04-10T13:58:25Z</time></trkpt><trkpt lat="45.04818577246871" lon="7.684294430850685"><ele>227.0</ele><time>2026-04-10T13:58:27Z</time></trkpt><trkpt lat="45.04825117877205" lon="7.684255403992416"><ele>227.8</ele><time>2026-04-10T13:58:29Z</time></trkpt><trkpt lat="45.04834625480386" lon="7.6841904280012"><ele>228.6</ele><time>2026-04-10T13:58:32Z</time></trkpt><trkpt lat="45.04840739306725" lon="7.68414843926507"><ele>229.40000000000003</ele><time>2026-04-10T13:58:35Z</time></trkpt><trkpt lat="45.048536909001136" lon="7.684117093326246"><ele>230.20000000000002</ele><time>2026-04-10T13:58:38Z</time></trkpt><trkpt lat="45.04863355531025" lon="7.684128667614887"><ele>231.0</ele><time>2026-04-10T13:58:40Z</time></trkpt><trkpt lat="45.048717913677955" lon="7.684126250398668"><ele>231.0</ele><time>2026-04-10T13:58:43Z</time></trkpt><trkpt lat="45.04882238250599" lon="7.68413262136127"><ele>231.00000000000003</ele><time>2026-04-10T13:58:45Z</time></trkpt><trkpt lat="45.0489337056754" lon="7.684199160009908"><ele>231.00000000000003</ele><time>2026-04-10T13:58:47Z</time></trkpt><trkpt lat="45.049001671120756" lon="7.684309603087156"><ele>231.0</ele><time>2026-04-10T13:58:49Z</time></trkpt><trkpt lat="45.04906023841419" lon="7.684375632826251"><ele>231.0</ele><time>2026-04-10T13:58:51Z</time></trkpt><trkpt lat="45.04912574326261" lon="7.684449511365098"><ele>230.8</ele><time>2026-04-10T13:58:52Z</time></trkpt><trkpt lat="45.049239564859164" lon="7.684502993957152"><ele>230.60000000000002</ele><time>2026-04-10T13:58:53Z</time></trkpt><trkpt lat="45.04932350219763" lon="7.684602790884057"><ele>230.4</ele><time>2026-04-10T13:58:55Z</time></trkpt><trkpt lat="45.049399928349686" lon="7.684701933347981"><ele>230.2</ele><time>2026-04-10T13:58:57Z</time></trkpt><trkpt lat="45.04948948899579" lon="7.684800672258195"><ele>230.0</ele><time>2026-04-10T13:58:59Z</time></trkpt><trkpt lat="45.049532630757106" lon="7.684867715547553"><ele>230.0</ele><time>2026-04-10T13:59:00Z</time></trkpt><trkpt lat="45.049581384135465" lon="7.684924487855584"><ele>230.0</ele><time>2026-04-10T13:59:01Z</time></trkpt><trkpt lat="45.049628690593856" lon="7.6849887199821"><ele>230.0</ele><time>2026-04-10T13:59:02Z</time></trkpt><trkpt lat="45.04972148621323" lon="7.685108131764708"><ele>230.0</ele><time>2026-04-10T13:59:04Z</time></trkpt><trkpt lat="45.049825925141576" lon="7.685217520362153"><ele>230.0</ele><time>2026-04-10T13:59:06Z</time></trkpt><trkpt lat="45.04988562382687" lon="7.685257617299545"><ele>228.66666666666669</ele><time>2026-04-10T13:59:07Z</time></trkpt><trkpt lat="45.04994554001873" lon="7.685295394282019"><ele>227.33333333333334</ele><time>2026-04-10T13:59:08Z</time></trkpt><trkpt lat="45.050003353419164" lon="7.685349615789228"><ele>226.0</ele><time>2026-04-10T13:59:09Z</time></trkpt><trkpt lat="45.05006346881662" lon="7.685404553675244"><ele>224.66666666666669</ele><time>2026-04-10T13:59:10Z</time></trkpt><trkpt lat="45.050165174453745" lon="7.68548007022121"><ele>223.33333333333334</ele><time>2026-04-10T13:59:12Z</time></trkpt><trkpt lat="45.050224178339896" lon="7.685524418116085"><ele>222.0</ele><time>2026-04-10T13:59:13Z</time></trkpt><trkpt lat="45.050283926126404" lon="7.685557980456833"><ele>222.0</ele><time>2026-04-10T13:59:14Z</time></trkpt><trkpt lat="45.05035123067351" lon="7.685574175420797"><ele>222.0</ele><time>2026-04-10T13:59:15Z</time></trkpt><trkpt lat="45.05040853968867" lon="7.685620318133044"><ele>222.0</ele><time>2026-04-10T13:59:16Z</time></trkpt><trkpt lat="45.05047367509186" lon="7.685658676882009"><ele>222.0</ele><time>2026-04-10T13:59:17Z</time></trkpt><trkpt lat="45.050539666976846" lon="7.685690870301983"><ele>222.0</ele><time>2026-04-10T13:59:18Z</time></trkpt><trkpt lat="45.05060866784844" lon="7.685706801629652"><ele>222.0</ele><time>2026-04-10T13:59:19Z</time></trkpt><trkpt lat="45.05067724657002" lon="7.685732443378272"><ele>222.0</ele><time>2026-04-10T13:59:20Z</time></trkpt><trkpt lat="45.05077706620202" lon="7.685777631138112"><ele>222.5</ele><time>2026-04-10T13:59:22Z</time></trkpt><trkpt lat="45.05088927850262" lon="7.685841697058481"><ele>223.0</ele><time>2026-04-10T13:59:24Z</time></trkpt><trkpt lat="45.05100969043254" lon="7.685888153529808"><ele>223.5</ele><time>2026-04-10T13:59:26Z</time></trkpt><trkpt lat="45.05107402734027" lon="7.685901895122402"><ele>224.0</ele><time>2026-04-10T13:59:27Z</time></trkpt><trkpt lat="45.05113870309362" lon="7.685921651207119"><ele>224.5</ele><time>2026-04-10T13:59:28Z</time></trkpt><trkpt lat="45.05120241246043" lon="7.685923762602848"><ele>225.0</ele><time>2026-04-10T13:59:29Z</time></trkpt><trkpt lat="45.05132476699873" lon="7.685970598813165"><ele>225.0</ele><time>2026-04-10T13:59:31Z</time></trkpt><trkpt lat="45.05138892272556" lon="7.685983522043411"><ele>225.0</ele><time>2026-04-10T13:59:32Z</time></trkpt><trkpt lat="45.051450557184864" lon="7.686019483831392"><ele>225.0</ele><time>2026-04-10T13:59:33Z</time></trkpt><trkpt lat="45.05151491182249" lon="7.686018702961206"><ele>225.0</ele><time>2026-04-10T13:59:34Z</time></trkpt><trkpt lat="45.05163038372379" lon="7.6860749275077564"><ele>225.0</ele><time>2026-04-10T13:59:36Z</time></trkpt><trkpt lat="45.05169356436141" lon="7.686094099321268"><ele>225.0</ele><time>2026-04-10T13:59:36.999Z</time></trkpt><trkpt lat="45.05179914027535" lon="7.686124001691294"><ele>225.4</ele><time>2026-04-10T13:59:38.999Z</time></trkpt><trkpt lat="45.051903681170025" lon="7.686161818933799"><ele>225.8</ele><time>2026-04-10T13:59:40.999Z</time></trkpt><trkpt lat="45.052005226392964" lon="7.6861868059240575"><ele>226.2</ele><time>2026-04-10T13:59:42.999Z</time></trkpt><trkpt lat="45.05210977432901" lon="7.68621118141865"><ele>226.6</ele><time>2026-04-10T13:59:44.999Z</time></trkpt><trkpt lat="45.05221163855546" lon="7.686262089872624"><ele>227.0</ele><time>2026-04-10T13:59:46.999Z</time></trkpt><trkpt lat="45.05231726718907" lon="7.686300531664892"><ele>227.0</ele><time>2026-04-10T13:59:48.999Z</time></trkpt><trkpt lat="45.05240882402089" lon="7.6863439771296935"><ele>227.0</ele><time>2026-04-10T13:59:50.999Z</time></trkpt><trkpt lat="45.052497713694926" lon="7.686390398786655"><ele>227.0</ele><time>2026-04-10T13:59:52.999Z</time></trkpt><trkpt lat="45.05258857391016" lon="7.686438823811218"><ele>227.0</ele><time>2026-04-10T13:59:54.999Z</time></trkpt><trkpt lat="45.05267783802187" lon="7.686462444642032"><ele>227.0</ele><time>2026-04-10T13:59:56.999Z</time></trkpt><trkpt lat="45.05286312838829" lon="7.686563750050471"><ele>227.39999999999998</ele><time>2026-04-10T14:00:01.999Z</time></trkpt><trkpt lat="45.0529514684286" lon="7.686589963749321"><ele>227.79999999999998</ele><time>2026-04-10T14:00:03.999Z</time></trkpt><trkpt lat="45.053063055889666" lon="7.686637520930149"><ele>228.2</ele><time>2026-04-10T14:00:06.999Z</time></trkpt><trkpt lat="45.053156976442445" lon="7.6866797871418955"><ele>228.6</ele><time>2026-04-10T14:00:08.999Z</time></trkpt><trkpt lat="45.053221336837815" lon="7.686699625082916"><ele>229.0</ele><time>2026-04-10T14:00:10.999Z</time></trkpt><trkpt lat="45.0533127388848" lon="7.686731371857547"><ele>229.16666666666666</ele><time>2026-04-10T14:00:12.999Z</time></trkpt><trkpt lat="45.053380984531394" lon="7.686780297813545"><ele>229.33333333333331</ele><time>2026-04-10T14:00:14.999Z</time></trkpt><trkpt lat="45.053467738732586" lon="7.686821872160603"><ele>229.5</ele><time>2026-04-10T14:00:16.999Z</time></trkpt><trkpt lat="45.0535334795778" lon="7.686852639053512"><ele>229.66666666666669</ele><time>2026-04-10T14:00:17.999Z</time></trkpt><trkpt lat="45.05359742993829" lon="7.6869003392200455"><ele>229.83333333333334</ele><time>2026-04-10T14:00:19.999Z</time></trkpt><trkpt lat="45.05369648232991" lon="7.686942467910762"><ele>230.0</ele><time>2026-04-10T14:00:21.999Z</time></trkpt><trkpt lat="45.05376855103671" lon="7.686980150699951"><ele>229.8</ele><time>2026-04-10T14:00:22.999Z</time></trkpt><trkpt lat="45.05385716138109" lon="7.6870589279627755"><ele>229.6</ele><time>2026-04-10T14:00:24.999Z</time></trkpt><trkpt lat="45.0539524477419" lon="7.68711605777161"><ele>229.39999999999998</ele><time>2026-04-10T14:00:27.999Z</time></trkpt><trkpt lat="45.05404261679793" lon="7.6871779695889035"><ele>229.2</ele><time>2026-04-10T14:00:30Z</time></trkpt><trkpt lat="45.05411406240871" lon="7.687207595841613"><ele>229.0</ele><time>2026-04-10T14:00:32Z</time></trkpt><trkpt lat="45.05418987462482" lon="7.687256540289032"><ele>229.0</ele><time>2026-04-10T14:00:34Z</time></trkpt><trkpt lat="45.05427600736967" lon="7.687325897974351"><ele>228.99999999999997</ele><time>2026-04-10T14:00:36Z</time></trkpt><trkpt lat="45.05437251901607" lon="7.687390465641913"><ele>228.99999999999997</ele><time>2026-04-10T14:00:38Z</time></trkpt><trkpt lat="45.05446213468677" lon="7.687437835756431"><ele>229.0</ele><time>2026-04-10T14:00:40Z</time></trkpt><trkpt lat="45.05455293729549" lon="7.687494648582701"><ele>229.0</ele><time>2026-04-10T14:00:42Z</time></trkpt><trkpt lat="45.05464638912627" lon="7.687567029208939"><ele>229.0</ele><time>2026-04-10T14:00:44Z</time></trkpt><trkpt lat="45.05475420914377" lon="7.687590869232402"><ele>228.99999999999997</ele><time>2026-04-10T14:00:46Z</time></trkpt><trkpt lat="45.054840408515574" lon="7.687653112735339"><ele>228.99999999999997</ele><time>2026-04-10T14:00:48Z</time></trkpt><trkpt lat="45.054924877457644" lon="7.687716840753061"><ele>229.0</ele><time>2026-04-10T14:00:50Z</time></trkpt><trkpt lat="45.05499387652908" lon="7.687791294534379"><ele>229.0</ele><time>2026-04-10T14:00:52Z</time></trkpt><trkpt lat="45.055064929671076" lon="7.687839420487363"><ele>227.39999999999998</ele><time>2026-04-10T14:00:54Z</time></trkpt><trkpt lat="45.05514048579615" lon="7.687891892672264"><ele>225.79999999999998</ele><time>2026-04-10T14:00:56Z</time></trkpt><trkpt lat="45.055214569314984" lon="7.687962357911298"><ele>224.20000000000002</ele><time>2026-04-10T14:00:58Z</time></trkpt><trkpt lat="45.055303439999875" lon="7.688010280987268"><ele>222.60000000000002</ele><time>2026-04-10T14:01:00Z</time></trkpt><trkpt lat="45.05538949564307" lon="7.688076451112923"><ele>221.0</ele><time>2026-04-10T14:01:02Z</time></trkpt><trkpt lat="45.05547549607225" lon="7.688129075951734"><ele>221.0</ele><time>2026-04-10T14:01:04Z</time></trkpt><trkpt lat="45.055562574622506" lon="7.688181977722431"><ele>221.00000000000003</ele><time>2026-04-10T14:01:06Z</time></trkpt><trkpt lat="45.055646868080856" lon="7.688235624168572"><ele>221.00000000000003</ele><time>2026-04-10T14:01:08Z</time></trkpt><trkpt lat="45.05573644958916" lon="7.688275648863592"><ele>221.0</ele><time>2026-04-10T14:01:10Z</time></trkpt><trkpt lat="45.055822002606845" lon="7.688319066788706"><ele>221.0</ele><time>2026-04-10T14:01:12Z</time></trkpt><trkpt lat="45.05590498795431" lon="7.688354756626295"><ele>222.60000000000002</ele><time>2026-04-10T14:01:14Z</time></trkpt><trkpt lat="45.055985412211236" lon="7.688388169619847"><ele>224.20000000000002</ele><time>2026-04-10T14:01:16Z</time></trkpt><trkpt lat="45.05605682224963" lon="7.688406794143427"><ele>225.79999999999998</ele><time>2026-04-10T14:01:19Z</time></trkpt><trkpt lat="45.05620238916141" lon="7.688434584396844"><ele>227.39999999999998</ele><time>2026-04-10T14:01:22Z</time></trkpt><trkpt lat="45.05630551711616" lon="7.688451090898376"><ele>229.0</ele><time>2026-04-10T14:01:24Z</time></trkpt><trkpt lat="45.056339999600254" lon="7.688363139441433"><ele>229.0</ele><time>2026-04-10T14:01:25Z</time></trkpt><trkpt lat="45.056424409705194" lon="7.688344087184889"><ele>229.0</ele><time>2026-04-10T14:01:27Z</time></trkpt><trkpt lat="45.05666383394758" lon="7.688632537183564"><ele>229.0</ele><time>2026-04-10T14:01:34Z</time></trkpt><trkpt lat="45.05671715636902" lon="7.688732241068697"><ele>229.25</ele><time>2026-04-10T14:01:36Z</time></trkpt><trkpt lat="45.05684069872727" lon="7.688990554751853"><ele>229.5</ele><time>2026-04-10T14:01:40.999Z</time></trkpt><trkpt lat="45.05689995865392" lon="7.689052968153749"><ele>229.75</ele><time>2026-04-10T14:01:41.999Z</time></trkpt><trkpt lat="45.05699020317426" lon="7.689141074913706"><ele>230.0</ele><time>2026-04-10T14:01:43.999Z</time></trkpt><trkpt lat="45.057082224597295" lon="7.689231850736662"><ele>230.0</ele><time>2026-04-10T14:01:45.999Z</time></trkpt><trkpt lat="45.0571770855177" lon="7.689291907438726"><ele>230.0</ele><time>2026-04-10T14:01:47.999Z</time></trkpt><trkpt lat="45.05726717758039" lon="7.6893615711829675"><ele>230.0</ele><time>2026-04-10T14:01:49.999Z</time></trkpt><trkpt lat="45.05736322415932" lon="7.689420542247894"><ele>230.0</ele><time>2026-04-10T14:01:51.999Z</time></trkpt><trkpt lat="45.05746237710541" lon="7.689432124966503"><ele>230.0</ele><time>2026-04-10T14:01:53.999Z</time></trkpt><trkpt lat="45.05755599181604" lon="7.689477580554584"><ele>229.4</ele><time>2026-04-10T14:01:55.999Z</time></trkpt><trkpt lat="45.05764988434424" lon="7.6895409984216485"><ele>228.8</ele><time>2026-04-10T14:01:57.999Z</time></trkpt><trkpt lat="45.057744725186254" lon="7.689609231876425"><ele>228.2</ele><time>2026-04-10T14:01:59.999Z</time></trkpt><trkpt lat="45.05782324225094" lon="7.689685854070008"><ele>227.6</ele><time>2026-04-10T14:02:01.999Z</time></trkpt><trkpt lat="45.05789378269287" lon="7.689754472120709"><ele>227.0</ele><time>2026-04-10T14:02:03.999Z</time></trkpt><trkpt lat="45.057965257084945" lon="7.689830486881207"><ele>227.00000000000003</ele><time>2026-04-10T14:02:05.999Z</time></trkpt><trkpt lat="45.05803012050507" lon="7.689907113294801"><ele>227.0</ele><time>2026-04-10T14:02:07.999Z</time></trkpt><trkpt lat="45.05808804275302" lon="7.689996303929869"><ele>227.0</ele><time>2026-04-10T14:02:09.999Z</time></trkpt><trkpt lat="45.05812310913576" lon="7.690099267549415"><ele>227.0</ele><time>2026-04-10T14:02:11.999Z</time></trkpt><trkpt lat="45.05813306893896" lon="7.690218782177434"><ele>227.00000000000003</ele><time>2026-04-10T14:02:13.999Z</time></trkpt><trkpt lat="45.05820758511055" lon="7.690327451042651"><ele>227.0</ele><time>2026-04-10T14:02:15.999Z</time></trkpt><trkpt lat="45.05820523522446" lon="7.690441003087578"><ele>226.71428571428572</ele><time>2026-04-10T14:02:17.999Z</time></trkpt><trkpt lat="45.05820494338924" lon="7.690549067139008"><ele>226.42857142857144</ele><time>2026-04-10T14:02:19.999Z</time></trkpt><trkpt lat="45.058211181748376" lon="7.6906413304999806"><ele>226.14285714285717</ele><time>2026-04-10T14:02:21.999Z</time></trkpt><trkpt lat="45.05823746305952" lon="7.690728864463102"><ele>225.8571428571429</ele><time>2026-04-10T14:02:23.999Z</time></trkpt><trkpt lat="45.05830368344625" lon="7.690798780687866"><ele>225.57142857142858</ele><time>2026-04-10T14:02:26.999Z</time></trkpt><trkpt lat="45.05827744069155" lon="7.6908917845266584"><ele>225.28571428571433</ele><time>2026-04-10T14:02:28.999Z</time></trkpt><trkpt lat="45.0583075497722" lon="7.690973503032361"><ele>225.00000000000003</ele><time>2026-04-10T14:02:31.999Z</time></trkpt><trkpt lat="45.05838148748965" lon="7.691047419173557"><ele>225.0</ele><time>2026-04-10T14:02:37Z</time></trkpt><trkpt lat="45.05845961197245" lon="7.69103478364512"><ele>225.0</ele><time>2026-04-10T14:02:39Z</time></trkpt><trkpt lat="45.05861304914526" lon="7.691021066417126"><ele>225.0</ele><time>2026-04-10T14:02:45Z</time></trkpt><trkpt lat="45.05866910494351" lon="7.691097164125148"><ele>225.0</ele><time>2026-04-10T14:02:48Z</time></trkpt><trkpt lat="45.05870234449658" lon="7.691188856245857"><ele>225.0</ele><time>2026-04-10T14:02:52Z</time></trkpt><trkpt lat="45.058728038139904" lon="7.691292048539551"><ele>224.83333333333334</ele><time>2026-04-10T14:02:55Z</time></trkpt><trkpt lat="45.05877501010368" lon="7.691356846686384"><ele>224.66666666666669</ele><time>2026-04-10T14:02:57Z</time></trkpt><trkpt lat="45.058826865733835" lon="7.691436295925305"><ele>224.5</ele><time>2026-04-10T14:02:59Z</time></trkpt><trkpt lat="45.05889305651805" lon="7.691507639187317"><ele>224.33333333333334</ele><time>2026-04-10T14:03:01Z</time></trkpt><trkpt lat="45.05896702981725" lon="7.691596228908516"><ele>224.16666666666669</ele><time>2026-04-10T14:03:03Z</time></trkpt><trkpt lat="45.059059390374856" lon="7.691678232664655"><ele>224.0</ele><time>2026-04-10T14:03:05Z</time></trkpt><trkpt lat="45.059166240236536" lon="7.691765029341631"><ele>224.00000000000003</ele><time>2026-04-10T14:03:07Z</time></trkpt><trkpt lat="45.05927775587571" lon="7.6918444820123195"><ele>224.0</ele><time>2026-04-10T14:03:09Z</time></trkpt><trkpt lat="45.05933573226411" lon="7.69188199232499"><ele>224.0</ele><time>2026-04-10T14:03:10Z</time></trkpt><trkpt lat="45.05944883308144" lon="7.691968397101179"><ele>224.0</ele><time>2026-04-10T14:03:12Z</time></trkpt><trkpt lat="45.059503950621014" lon="7.69202021595423"><ele>224.00000000000003</ele><time>2026-04-10T14:03:13Z</time></trkpt><trkpt lat="45.0595583887831" lon="7.69207163577201"><ele>224.0</ele><time>2026-04-10T14:03:14Z</time></trkpt><trkpt lat="45.059619017749505" lon="7.692127929467158"><ele>223.50000000000003</ele><time>2026-04-10T14:03:15Z</time></trkpt><trkpt lat="45.05967941542938" lon="7.692183788510049"><ele>223.0</ele><time>2026-04-10T14:03:16Z</time></trkpt><trkpt lat="45.05973421750263" lon="7.6922565266329075"><ele>222.5</ele><time>2026-04-10T14:03:17Z</time></trkpt><trkpt lat="45.059807814386446" lon="7.692302758042017"><ele>222.0</ele><time>2026-04-10T14:03:18Z</time></trkpt><trkpt lat="45.059873983332565" lon="7.692377555356539"><ele>221.50000000000003</ele><time>2026-04-10T14:03:19Z</time></trkpt><trkpt lat="45.05993945385283" lon="7.69245165263688"><ele>221.0</ele><time>2026-04-10T14:03:20Z</time></trkpt><trkpt lat="45.06000504966478" lon="7.692530547408004"><ele>221.00000000000003</ele><time>2026-04-10T14:03:21Z</time></trkpt><trkpt lat="45.060071576975965" lon="7.692598802452068"><ele>221.0</ele><time>2026-04-10T14:03:22Z</time></trkpt><trkpt lat="45.060137161270355" lon="7.692664570804292"><ele>221.0</ele><time>2026-04-10T14:03:23Z</time></trkpt><trkpt lat="45.06020229223159" lon="7.692726390706361"><ele>221.0</ele><time>2026-04-10T14:03:24Z</time></trkpt><trkpt lat="45.06026563771974" lon="7.692784605656955"><ele>221.00000000000003</ele><time>2026-04-10T14:03:25Z</time></trkpt><trkpt lat="45.06033197218004" lon="7.692836558021609"><ele>221.0</ele><time>2026-04-10T14:03:26Z</time></trkpt><trkpt lat="45.06039377444913" lon="7.6928824849726825"><ele>220.66666666666669</ele><time>2026-04-10T14:03:27Z</time></trkpt><trkpt lat="45.06045118279009" lon="7.69293659152948"><ele>220.33333333333334</ele><time>2026-04-10T14:03:28Z</time></trkpt><trkpt lat="45.06050772694111" lon="7.692993574471276"><ele>220.0</ele><time>2026-04-10T14:03:29Z</time></trkpt><trkpt lat="45.06056815035171" lon="7.693038990099455"><ele>219.66666666666669</ele><time>2026-04-10T14:03:30Z</time></trkpt><trkpt lat="45.060625037715" lon="7.693089173282352"><ele>219.33333333333334</ele><time>2026-04-10T14:03:31Z</time></trkpt><trkpt lat="45.060677991780516" lon="7.693141555373347"><ele>219.0</ele><time>2026-04-10T14:03:32Z</time></trkpt><trkpt lat="45.06076790525798" lon="7.693235068435821"><ele>220.2</ele><time>2026-04-10T14:03:34Z</time></trkpt><trkpt lat="45.06085203872289" lon="7.6933194421945394"><ele>221.39999999999998</ele><time>2026-04-10T14:03:36Z</time></trkpt><trkpt lat="45.060926282847156" lon="7.69338268094106"><ele>222.6</ele><time>2026-04-10T14:03:38Z</time></trkpt><trkpt lat="45.06100822970799" lon="7.693459792192611"><ele>223.8</ele><time>2026-04-10T14:03:40Z</time></trkpt><trkpt lat="45.06109135585137" lon="7.693549001820269"><ele>225.0</ele><time>2026-04-10T14:03:42Z</time></trkpt><trkpt lat="45.06118103986374" lon="7.6936224004272"><ele>225.0</ele><time>2026-04-10T14:03:44Z</time></trkpt><trkpt lat="45.06126452727834" lon="7.693713425745636"><ele>225.0</ele><time>2026-04-10T14:03:46Z</time></trkpt><trkpt lat="45.06135051847117" lon="7.693802367206797"><ele>225.0</ele><time>2026-04-10T14:03:48Z</time></trkpt><trkpt lat="45.06143752998274" lon="7.693893653465257"><ele>225.0</ele><time>2026-04-10T14:03:50Z</time></trkpt><trkpt lat="45.06152378683003" lon="7.693970829321094"><ele>225.0</ele><time>2026-04-10T14:03:52Z</time></trkpt><trkpt lat="45.061600422674466" lon="7.694049116473588"><ele>225.0</ele><time>2026-04-10T14:03:53.999Z</time></trkpt><trkpt lat="45.061674018824746" lon="7.694125641795621"><ele>225.0</ele><time>2026-04-10T14:03:55.999Z</time></trkpt><trkpt lat="45.06175451050483" lon="7.694200758120457"><ele>225.0</ele><time>2026-04-10T14:03:57.999Z</time></trkpt><trkpt lat="45.06182690154801" lon="7.694305354629118"><ele>225.0</ele><time>2026-04-10T14:03:59.999Z</time></trkpt><trkpt lat="45.0619083443185" lon="7.694376187415393"><ele>225.0</ele><time>2026-04-10T14:04:01.999Z</time></trkpt><trkpt lat="45.0619899208385" lon="7.694456032185242"><ele>224.4</ele><time>2026-04-10T14:04:03.999Z</time></trkpt><trkpt lat="45.06206937367628" lon="7.694548283612808"><ele>223.8</ele><time>2026-04-10T14:04:05.999Z</time></trkpt><trkpt lat="45.06214416075255" lon="7.69465680037289"><ele>223.2</ele><time>2026-04-10T14:04:07.999Z</time></trkpt><trkpt lat="45.06219864487471" lon="7.694717901742645"><ele>222.6</ele><time>2026-04-10T14:04:09.999Z</time></trkpt><trkpt lat="45.06225838332604" lon="7.694786423333568"><ele>222.0</ele><time>2026-04-10T14:04:11.999Z</time></trkpt><trkpt lat="45.062334382148194" lon="7.694874944878801"><ele>222.0</ele><time>2026-04-10T14:04:13.999Z</time></trkpt><trkpt lat="45.0623843499249" lon="7.694933146154191"><ele>222.0</ele><time>2026-04-10T14:04:15.999Z</time></trkpt><trkpt lat="45.06243658392027" lon="7.694992706348123"><ele>222.0</ele><time>2026-04-10T14:04:16.999Z</time></trkpt><trkpt lat="45.06251406162477" lon="7.695071413391371"><ele>222.0</ele><time>2026-04-10T14:04:18.999Z</time></trkpt><trkpt lat="45.06260952498154" lon="7.695139778254555"><ele>222.0</ele><time>2026-04-10T14:04:20.999Z</time></trkpt><trkpt lat="45.062692870269636" lon="7.69524356633324"><ele>222.0</ele><time>2026-04-10T14:04:22.999Z</time></trkpt><trkpt lat="45.06278083384008" lon="7.695339600105653"><ele>222.25</ele><time>2026-04-10T14:04:24.999Z</time></trkpt><trkpt lat="45.062867696600605" lon="7.695434276267945"><ele>222.5</ele><time>2026-04-10T14:04:26.999Z</time></trkpt><trkpt lat="45.06294107261102" lon="7.695552740832848"><ele>222.75</ele><time>2026-04-10T14:04:28.999Z</time></trkpt><trkpt lat="45.06302605195558" lon="7.695656951892577"><ele>223.0</ele><time>2026-04-10T14:04:30.999Z</time></trkpt><trkpt lat="45.06311801588879" lon="7.695771210063639"><ele>223.0</ele><time>2026-04-10T14:04:32.999Z</time></trkpt><trkpt lat="45.06321158569699" lon="7.6958887618531735"><ele>223.0</ele><time>2026-04-10T14:04:34.999Z</time></trkpt><trkpt lat="45.063303026620225" lon="7.6960037346705965"><ele>223.0</ele><time>2026-04-10T14:04:36.999Z</time></trkpt><trkpt lat="45.063391960442154" lon="7.696115813269211"><ele>223.0</ele><time>2026-04-10T14:04:38.999Z</time></trkpt><trkpt lat="45.063479001620095" lon="7.6962255066740335"><ele>223.49999999999997</ele><time>2026-04-10T14:04:41Z</time></trkpt><trkpt lat="45.063563026041685" lon="7.696330589823018"><ele>224.0</ele><time>2026-04-10T14:04:43Z</time></trkpt><trkpt lat="45.063639261182885" lon="7.696424251864351"><ele>224.5</ele><time>2026-04-10T14:04:45Z</time></trkpt><trkpt lat="45.06369736854563" lon="7.696495641923217"><ele>225.0</ele><time>2026-04-10T14:04:47Z</time></trkpt><trkpt lat="45.06375328769277" lon="7.69656434365459"><ele>225.49999999999997</ele><time>2026-04-10T14:04:50Z</time></trkpt><trkpt lat="45.06380764035077" lon="7.69661012275946"><ele>226.0</ele><time>2026-04-10T14:04:52Z</time></trkpt><trkpt lat="45.06384731124779" lon="7.696681332690238"><ele>225.99999999999997</ele><time>2026-04-10T14:04:54Z</time></trkpt><trkpt lat="45.063872347700176" lon="7.696768265958922"><ele>226.0</ele><time>2026-04-10T14:04:57Z</time></trkpt><trkpt lat="45.063818191474155" lon="7.696852222266165"><ele>226.0</ele><time>2026-04-10T14:05:00Z</time></trkpt><trkpt lat="45.06374859451487" lon="7.696947259597592"><ele>226.0</ele><time>2026-04-10T14:05:03Z</time></trkpt><trkpt lat="45.06370006486864" lon="7.697026762531152"><ele>225.99999999999997</ele><time>2026-04-10T14:05:05Z</time></trkpt><trkpt lat="45.06364964369096" lon="7.697113543147583"><ele>226.0</ele><time>2026-04-10T14:05:07Z</time></trkpt><trkpt lat="45.06359840598503" lon="7.697193127716809"><ele>224.99999999999997</ele><time>2026-04-10T14:05:09Z</time></trkpt><trkpt lat="45.06354949745273" lon="7.697275343051033"><ele>224.0</ele><time>2026-04-10T14:05:11Z</time></trkpt><trkpt lat="45.063491684789135" lon="7.697354433295192"><ele>223.0</ele><time>2026-04-10T14:05:13Z</time></trkpt><trkpt lat="45.06343570842237" lon="7.697442620827121"><ele>222.0</ele><time>2026-04-10T14:05:15Z</time></trkpt><trkpt lat="45.063377490643376" lon="7.697531229737964"><ele>220.99999999999997</ele><time>2026-04-10T14:05:17Z</time></trkpt><trkpt lat="45.063319657295466" lon="7.697631000458957"><ele>220.0</ele><time>2026-04-10T14:05:19Z</time></trkpt><trkpt lat="45.06325998270505" lon="7.697726088352188"><ele>220.33333333333331</ele><time>2026-04-10T14:05:21Z</time></trkpt><trkpt lat="45.06319885799773" lon="7.6978265128256185"><ele>220.66666666666666</ele><time>2026-04-10T14:05:23Z</time></trkpt><trkpt lat="45.06314712752013" lon="7.697923512758652"><ele>221.0</ele><time>2026-04-10T14:05:25Z</time></trkpt><trkpt lat="45.0631010246456" lon="7.697995515761096"><ele>221.33333333333331</ele><time>2026-04-10T14:05:27Z</time></trkpt><trkpt lat="45.06304341821968" lon="7.698066380471607"><ele>221.66666666666666</ele><time>2026-04-10T14:05:31Z</time></trkpt><trkpt lat="45.06299769659886" lon="7.698137341989356"><ele>222.0</ele><time>2026-04-10T14:05:34Z</time></trkpt><trkpt lat="45.06294867214485" lon="7.698210333204883"><ele>222.0</ele><time>2026-04-10T14:05:38Z</time></trkpt><trkpt lat="45.06287112511194" lon="7.698253953196052"><ele>222.0</ele><time>2026-04-10T14:05:42Z</time></trkpt><trkpt lat="45.062800952174165" lon="7.698233893517735"><ele>222.0</ele><time>2026-04-10T14:05:45Z</time></trkpt><trkpt lat="45.06273857784499" lon="7.6981594675310605"><ele>222.0</ele><time>2026-04-10T14:05:49Z</time></trkpt><trkpt lat="45.06271307262468" lon="7.698077971338528"><ele>222.0</ele><time>2026-04-10T14:05:52Z</time></trkpt><trkpt lat="45.06269405728836" lon="7.69818683560747"><ele>222.0</ele><time>2026-04-10T14:08:12.999Z</time></trkpt><trkpt lat="45.06265321780121" lon="7.698255972717653"><ele>222.0</ele><time>2026-04-10T14:08:18.999Z</time></trkpt><trkpt lat="45.06259982953749" lon="7.6983262116248685"><ele>222.0</ele><time>2026-04-10T14:08:20.999Z</time></trkpt><trkpt lat="45.06256084211513" lon="7.698400082858379"><ele>222.0</ele><time>2026-04-10T14:08:22.999Z</time></trkpt><trkpt lat="45.06247647021507" lon="7.6984000535404356"><ele>222.0</ele><time>2026-04-10T14:08:25.999Z</time></trkpt><trkpt lat="45.06242519378843" lon="7.698335387593239"><ele>222.0</ele><time>2026-04-10T14:08:28.999Z</time></trkpt><trkpt lat="45.062391679079525" lon="7.698439882444312"><ele>222.0</ele><time>2026-04-10T14:08:32.999Z</time></trkpt><trkpt lat="45.06233321647462" lon="7.69849463335893"><ele>222.0</ele><time>2026-04-10T14:08:35.999Z</time></trkpt><trkpt lat="45.06243759304781" lon="7.698435494683401"><ele>222.2</ele><time>2026-04-10T14:13:44.999Z</time></trkpt><trkpt lat="45.06227140799841" lon="7.698441664889428"><ele>222.39999999999998</ele><time>2026-04-10T14:13:47.999Z</time></trkpt><trkpt lat="45.06234693138653" lon="7.6983623392321645"><ele>222.60000000000002</ele><time>2026-04-10T14:18:10Z</time></trkpt><trkpt lat="45.0623165732162" lon="7.698498383253037"><ele>222.8</ele><time>2026-04-10T14:18:55Z</time></trkpt><trkpt lat="45.06223397863345" lon="7.69846167888302"><ele>223.0</ele><time>2026-04-10T14:19:13Z</time></trkpt><trkpt lat="45.06246425175569" lon="7.698624188410121"><ele>223.8</ele><time>2026-04-10T14:19:18Z</time></trkpt><trkpt lat="45.06239202577649" lon="7.698612668497026"><ele>224.60000000000002</ele><time>2026-04-10T14:19:20Z</time></trkpt><trkpt lat="45.062253047725534" lon="7.698499832992613"><ele>225.39999999999998</ele><time>2026-04-10T14:19:24.001Z</time></trkpt><trkpt lat="45.06220089218271" lon="7.698424838720962"><ele>226.2</ele><time>2026-04-10T14:19:26.001Z</time></trkpt><trkpt lat="45.06227558115024" lon="7.698473684552669"><ele>227.0</ele><time>2026-04-10T14:23:31Z</time></trkpt><trkpt lat="45.06235898816286" lon="7.698498915840839"><ele>226.0</ele><time>2026-04-10T14:23:32Z</time></trkpt><trkpt lat="45.06256690613607" lon="7.698577911412005"><ele>225.0</ele><time>2026-04-10T14:23:57Z</time></trkpt><trkpt lat="45.0626609930159" lon="7.698583436691712"><ele>224.0</ele><time>2026-04-10T14:24:01Z</time></trkpt><trkpt lat="45.062709248557255" lon="7.69865750711502"><ele>223.0</ele><time>2026-04-10T14:24:03Z</time></trkpt><trkpt lat="45.062758774199054" lon="7.698735543857149"><ele>222.99999999999997</ele><time>2026-04-10T14:24:05Z</time></trkpt><trkpt lat="45.0628107210035" lon="7.698811681755839"><ele>223.0</ele><time>2026-04-10T14:24:07Z</time></trkpt><trkpt lat="45.06290532695556" lon="7.698835892125318"><ele>223.0</ele><time>2026-04-10T14:24:29Z</time></trkpt><trkpt lat="45.06296033542603" lon="7.698791090269355"><ele>223.0</ele><time>2026-04-10T14:24:33Z</time></trkpt><trkpt lat="45.06299859275789" lon="7.698702362090112"><ele>222.99999999999997</ele><time>2026-04-10T14:24:36Z</time></trkpt><trkpt lat="45.06305251432269" lon="7.698627513908229"><ele>223.0</ele><time>2026-04-10T14:24:40Z</time></trkpt><trkpt lat="45.0631346780769" lon="7.698648736912223"><ele>223.0</ele><time>2026-04-10T14:24:44Z</time></trkpt><trkpt lat="45.06318883031062" lon="7.698728883200701"><ele>223.0</ele><time>2026-04-10T14:24:46Z</time></trkpt><trkpt lat="45.06324707755787" lon="7.698816645623988"><ele>223.0</ele><time>2026-04-10T14:24:48Z</time></trkpt><trkpt lat="45.06331185285085" lon="7.6989132740372455"><ele>223.0</ele><time>2026-04-10T14:24:50Z</time></trkpt><trkpt lat="45.06338487737268" lon="7.699009796065034"><ele>223.0</ele><time>2026-04-10T14:24:52Z</time></trkpt><trkpt lat="45.06345644164872" lon="7.699118098933478"><ele>223.2</ele><time>2026-04-10T14:24:54Z</time></trkpt><trkpt lat="45.06352753934403" lon="7.699223213303719"><ele>223.4</ele><time>2026-04-10T14:24:56Z</time></trkpt><trkpt lat="45.06347799260568" lon="7.699404660020982"><ele>223.59999999999997</ele><time>2026-04-10T14:24:57Z</time></trkpt><trkpt lat="45.06354989804683" lon="7.699502388314715"><ele>223.79999999999998</ele><time>2026-04-10T14:24:59Z</time></trkpt><trkpt lat="45.06361915421033" lon="7.699606005847871"><ele>224.0</ele><time>2026-04-10T14:25:01Z</time></trkpt><trkpt lat="45.063692184889284" lon="7.699718150930266"><ele>224.39999999999998</ele><time>2026-04-10T14:25:03Z</time></trkpt><trkpt lat="45.06374202768736" lon="7.699808554284924"><ele>224.79999999999998</ele><time>2026-04-10T14:25:05Z</time></trkpt><trkpt lat="45.063779811801176" lon="7.69988526484046"><ele>225.20000000000002</ele><time>2026-04-10T14:25:08Z</time></trkpt><trkpt lat="45.0638129044563" lon="7.699963029802669"><ele>225.60000000000002</ele><time>2026-04-10T14:25:15Z</time></trkpt><trkpt lat="45.063844872854894" lon="7.700048791503955"><ele>226.0</ele><time>2026-04-10T14:25:22Z</time></trkpt><trkpt lat="45.064116586271055" lon="7.699912674293425"><ele>226.33333333333331</ele><time>2026-04-10T14:25:25Z</time></trkpt><trkpt lat="45.06417502594332" lon="7.6999639845971"><ele>226.66666666666666</ele><time>2026-04-10T14:25:28Z</time></trkpt><trkpt lat="45.06423233419293" lon="7.700046605311466"><ele>227.0</ele><time>2026-04-10T14:25:31Z</time></trkpt><trkpt lat="45.06429492563786" lon="7.700176368172108"><ele>227.33333333333331</ele><time>2026-04-10T14:25:34Z</time></trkpt><trkpt lat="45.064353915831305" lon="7.700255901820034"><ele>227.66666666666666</ele><time>2026-04-10T14:25:36Z</time></trkpt><trkpt lat="45.06442374842065" lon="7.700309756249483"><ele>228.0</ele><time>2026-04-10T14:25:39Z</time></trkpt><trkpt lat="45.0644981040074" lon="7.700324792369111"><ele>228.0</ele><time>2026-04-10T14:25:42.001Z</time></trkpt><trkpt lat="45.06456218245593" lon="7.700368932591286"><ele>228.0</ele><time>2026-04-10T14:25:44.001Z</time></trkpt><trkpt lat="45.06462743083085" lon="7.70041560815352"><ele>228.0</ele><time>2026-04-10T14:25:46.001Z</time></trkpt><trkpt lat="45.06470927206849" lon="7.7004574874640905"><ele>228.0</ele><time>2026-04-10T14:25:48.001Z</time></trkpt><trkpt lat="45.06480947768377" lon="7.700524773427413"><ele>228.0</ele><time>2026-04-10T14:25:50.001Z</time></trkpt><trkpt lat="45.064899757243765" lon="7.7006001148348515"><ele>228.0</ele><time>2026-04-10T14:25:52.001Z</time></trkpt><trkpt lat="45.06496860374391" lon="7.700708308055364"><ele>228.0</ele><time>2026-04-10T14:25:54.001Z</time></trkpt><trkpt lat="45.06503922460793" lon="7.700831089183501"><ele>228.0</ele><time>2026-04-10T14:25:56.001Z</time></trkpt><trkpt lat="45.06510614615235" lon="7.700920184369614"><ele>228.0</ele><time>2026-04-10T14:25:58.001Z</time></trkpt><trkpt lat="45.065166265235625" lon="7.701027427723272"><ele>228.0</ele><time>2026-04-10T14:26:00.001Z</time></trkpt><trkpt lat="45.06523209895274" lon="7.70113557025373"><ele>228.0</ele><time>2026-04-10T14:26:02.001Z</time></trkpt><trkpt lat="45.065305659543505" lon="7.701257020667897"><ele>228.66666666666666</ele><time>2026-04-10T14:26:04.001Z</time></trkpt><trkpt lat="45.06535392314268" lon="7.701322839209428"><ele>229.33333333333331</ele><time>2026-04-10T14:26:05.001Z</time></trkpt><trkpt lat="45.06539974729417" lon="7.701391231273888"><ele>230.0</ele><time>2026-04-10T14:26:06.001Z</time></trkpt><trkpt lat="45.06544668806679" lon="7.701459340505336"><ele>230.66666666666666</ele><time>2026-04-10T14:26:07.001Z</time></trkpt><trkpt lat="45.06549824690686" lon="7.701527983372453"><ele>231.33333333333331</ele><time>2026-04-10T14:26:08.001Z</time></trkpt><trkpt lat="45.06554343284466" lon="7.7016111599788175"><ele>232.0</ele><time>2026-04-10T14:26:09.001Z</time></trkpt><trkpt lat="45.06561114735292" lon="7.701768159573318"><ele>232.00000000000003</ele><time>2026-04-10T14:26:11.001Z</time></trkpt><trkpt lat="45.065647817054966" lon="7.701867510472083"><ele>232.0</ele><time>2026-04-10T14:26:12.001Z</time></trkpt><trkpt lat="45.065690694241695" lon="7.7019555572678"><ele>232.00000000000003</ele><time>2026-04-10T14:26:13.001Z</time></trkpt><trkpt lat="45.065732070199445" lon="7.70204286677528"><ele>232.00000000000003</ele><time>2026-04-10T14:26:14.001Z</time></trkpt><trkpt lat="45.0657691562324" lon="7.7021194918865366"><ele>232.0</ele><time>2026-04-10T14:26:15.001Z</time></trkpt><trkpt lat="45.0657850459177" lon="7.702208457690841"><ele>232.00000000000003</ele><time>2026-04-10T14:26:16.001Z</time></trkpt><trkpt lat="45.065824945020154" lon="7.702283702103022"><ele>232.00000000000003</ele><time>2026-04-10T14:26:17.001Z</time></trkpt><trkpt lat="45.06585504005706" lon="7.7023853639198485"><ele>231.33333333333331</ele><time>2026-04-10T14:26:18Z</time></trkpt><trkpt lat="45.06590189453345" lon="7.70246525960338"><ele>230.66666666666666</ele><time>2026-04-10T14:26:19Z</time></trkpt><trkpt lat="45.06597424856471" lon="7.702608958578591"><ele>230.0</ele><time>2026-04-10T14:26:21Z</time></trkpt><trkpt lat="45.066015028253794" lon="7.702677007107639"><ele>229.33333333333331</ele><time>2026-04-10T14:26:22Z</time></trkpt><trkpt lat="45.06604644602541" lon="7.702754562758879"><ele>228.66666666666666</ele><time>2026-04-10T14:26:23Z</time></trkpt><trkpt lat="45.06610994438495" lon="7.702877353127332"><ele>228.0</ele><time>2026-04-10T14:26:25Z</time></trkpt><trkpt lat="45.06616888978732" lon="7.70302286607202"><ele>228.0</ele><time>2026-04-10T14:26:27Z</time></trkpt><trkpt lat="45.066201395857796" lon="7.703103056403944"><ele>228.0</ele><time>2026-04-10T14:26:28Z</time></trkpt><trkpt lat="45.06622462528315" lon="7.703188938541084"><ele>228.0</ele><time>2026-04-10T14:26:29Z</time></trkpt><trkpt lat="45.06629036332568" lon="7.703321054875039"><ele>228.0</ele><time>2026-04-10T14:26:31Z</time></trkpt><trkpt lat="45.06635211053456" lon="7.703471596893264"><ele>228.0</ele><time>2026-04-10T14:26:33Z</time></trkpt><trkpt lat="45.06643411351982" lon="7.703642311004473"><ele>228.0</ele><time>2026-04-10T14:26:35Z</time></trkpt><trkpt lat="45.0664832225858" lon="7.703795669714017"><ele>228.0</ele><time>2026-04-10T14:26:37Z</time></trkpt><trkpt lat="45.06654213863313" lon="7.70393823732228"><ele>228.0</ele><time>2026-04-10T14:26:39Z</time></trkpt><trkpt lat="45.066582676180104" lon="7.704015627968318"><ele>228.0</ele><time>2026-04-10T14:26:40Z</time></trkpt><trkpt lat="45.06662121505877" lon="7.704120823102395"><ele>228.0</ele><time>2026-04-10T14:26:41Z</time></trkpt><trkpt lat="45.06664623212454" lon="7.704265188672714"><ele>227.60000000000002</ele><time>2026-04-10T14:26:43Z</time></trkpt><trkpt lat="45.066711908717146" lon="7.704406537486944"><ele>227.20000000000002</ele><time>2026-04-10T14:26:45Z</time></trkpt><trkpt lat="45.066775276248286" lon="7.70455898765126"><ele>226.8</ele><time>2026-04-10T14:26:47Z</time></trkpt><trkpt lat="45.06681437349854" lon="7.704718313428174"><ele>226.4</ele><time>2026-04-10T14:26:49Z</time></trkpt><trkpt lat="45.06683790038798" lon="7.70481230751522"><ele>226.0</ele><time>2026-04-10T14:26:50Z</time></trkpt><trkpt lat="45.06687027449343" lon="7.704955271866785"><ele>225.60000000000002</ele><time>2026-04-10T14:26:52Z</time></trkpt><trkpt lat="45.06690451241265" lon="7.705083155574227"><ele>225.20000000000002</ele><time>2026-04-10T14:26:54Z</time></trkpt><trkpt lat="45.066958006569095" lon="7.705207319313165"><ele>224.79999999999998</ele><time>2026-04-10T14:26:56Z</time></trkpt><trkpt lat="45.06699709737565" lon="7.705363270651306"><ele>224.39999999999998</ele><time>2026-04-10T14:26:58Z</time></trkpt><trkpt lat="45.067047294953916" lon="7.705528938281532"><ele>224.0</ele><time>2026-04-10T14:27:00Z</time></trkpt><trkpt lat="45.06708482775176" lon="7.705683182091587"><ele>224.0</ele><time>2026-04-10T14:27:02Z</time></trkpt><trkpt lat="45.067134310185885" lon="7.705842264498921"><ele>224.0</ele><time>2026-04-10T14:27:04Z</time></trkpt><trkpt lat="45.06717570190255" lon="7.705985734376419"><ele>224.0</ele><time>2026-04-10T14:27:06Z</time></trkpt><trkpt lat="45.06719477944258" lon="7.7061378402909035"><ele>224.0</ele><time>2026-04-10T14:27:08Z</time></trkpt><trkpt lat="45.067228235415385" lon="7.706302132170283"><ele>224.2</ele><time>2026-04-10T14:27:10Z</time></trkpt><trkpt lat="45.06725215074065" lon="7.7064507858424065"><ele>224.39999999999998</ele><time>2026-04-10T14:27:12Z</time></trkpt><trkpt lat="45.06728843168661" lon="7.706571199280258"><ele>224.6</ele><time>2026-04-10T14:27:14Z</time></trkpt><trkpt lat="45.067318657136106" lon="7.706714018312461"><ele>224.8</ele><time>2026-04-10T14:27:16Z</time></trkpt><trkpt lat="45.067339552791324" lon="7.7068377357056566"><ele>225.0</ele><time>2026-04-10T14:27:18Z</time></trkpt><trkpt lat="45.06736222716294" lon="7.706952838104912"><ele>225.0</ele><time>2026-04-10T14:27:20Z</time></trkpt><trkpt lat="45.06738995724442" lon="7.707066271621387"><ele>225.0</ele><time>2026-04-10T14:27:22Z</time></trkpt><trkpt lat="45.06741652545648" lon="7.707173714821978"><ele>225.0</ele><time>2026-04-10T14:27:24Z</time></trkpt><trkpt lat="45.0674351320704" lon="7.707276771517517"><ele>225.0</ele><time>2026-04-10T14:27:26Z</time></trkpt><trkpt lat="45.06746910878209" lon="7.707399048012574"><ele>225.0</ele><time>2026-04-10T14:27:29Z</time></trkpt><trkpt lat="45.06750230067409" lon="7.707526188185124"><ele>225.0</ele><time>2026-04-10T14:27:31Z</time></trkpt><trkpt lat="45.067543658792104" lon="7.707685407550163"><ele>224.0</ele><time>2026-04-10T14:27:33Z</time></trkpt><trkpt lat="45.06758569409444" lon="7.7078461388660875"><ele>223.0</ele><time>2026-04-10T14:27:35Z</time></trkpt><trkpt lat="45.06761324666025" lon="7.707937101055489"><ele>222.0</ele><time>2026-04-10T14:27:36Z</time></trkpt><trkpt lat="45.06764941392269" lon="7.708034205291321"><ele>221.0</ele><time>2026-04-10T14:27:37Z</time></trkpt><trkpt lat="45.06767980062261" lon="7.708124341425934"><ele>220.0</ele><time>2026-04-10T14:27:38Z</time></trkpt><trkpt lat="45.06770878979021" lon="7.7082206413714305"><ele>219.0</ele><time>2026-04-10T14:27:39Z</time></trkpt><trkpt lat="45.0677320097828" lon="7.7083145534611575"><ele>219.0</ele><time>2026-04-10T14:27:40Z</time></trkpt><trkpt lat="45.06775453575863" lon="7.708405154311818"><ele>219.0</ele><time>2026-04-10T14:27:41Z</time></trkpt><trkpt lat="45.067779171701005" lon="7.7084987698038345"><ele>219.0</ele><time>2026-04-10T14:27:42Z</time></trkpt><trkpt lat="45.067804317663686" lon="7.708589632839213"><ele>219.0</ele><time>2026-04-10T14:27:43Z</time></trkpt><trkpt lat="45.06782941607185" lon="7.708682347839711"><ele>219.0</ele><time>2026-04-10T14:27:44.022Z</time></trkpt><trkpt lat="45.0678524804443" lon="7.70877279443427"><ele>219.0</ele><time>2026-04-10T14:27:45.016Z</time></trkpt><trkpt lat="45.06787718686691" lon="7.708861505998211"><ele>219.0</ele><time>2026-04-10T14:27:46.017Z</time></trkpt><trkpt lat="45.06790828752005" lon="7.708940959884811"><ele>219.33333333333334</ele><time>2026-04-10T14:27:47Z</time></trkpt><trkpt lat="45.06788659315971" lon="7.709025791503044"><ele>219.66666666666669</ele><time>2026-04-10T14:27:49Z</time></trkpt><trkpt lat="45.06788974100416" lon="7.709139956167218"><ele>220.0</ele><time>2026-04-10T14:27:51.001Z</time></trkpt><trkpt lat="45.06790274895375" lon="7.709253720406824"><ele>220.33333333333334</ele><time>2026-04-10T14:27:53.001Z</time></trkpt><trkpt lat="45.06790739847618" lon="7.709363198372176"><ele>220.66666666666669</ele><time>2026-04-10T14:27:55.001Z</time></trkpt><trkpt lat="45.06793874280208" lon="7.709471663890876"><ele>221.0</ele><time>2026-04-10T14:27:57.001Z</time></trkpt><trkpt lat="45.06797712700229" lon="7.709569739234981"><ele>221.16666666666669</ele><time>2026-04-10T14:27:59.001Z</time></trkpt><trkpt lat="45.0679960479113" lon="7.709707273923979"><ele>221.33333333333334</ele><time>2026-04-10T14:28:01.001Z</time></trkpt><trkpt lat="45.06802842295783" lon="7.709847536997593"><ele>221.5</ele><time>2026-04-10T14:28:03.001Z</time></trkpt><trkpt lat="45.06801480437505" lon="7.709939859793305"><ele>221.66666666666669</ele><time>2026-04-10T14:28:05.001Z</time></trkpt><trkpt lat="45.068015280510025" lon="7.710051732700276"><ele>221.83333333333334</ele><time>2026-04-10T14:28:08.001Z</time></trkpt><trkpt lat="45.068015402564065" lon="7.7101825361955125"><ele>222.0</ele><time>2026-04-10T14:28:10.001Z</time></trkpt><trkpt lat="45.06806325973338" lon="7.710302243372069"><ele>222.33333333333334</ele><time>2026-04-10T14:28:11.001Z</time></trkpt><trkpt lat="45.06809476566027" lon="7.710403408876074"><ele>222.66666666666669</ele><time>2026-04-10T14:28:12.001Z</time></trkpt><trkpt lat="45.0681430897877" lon="7.71056797670246"><ele>223.0</ele><time>2026-04-10T14:28:14.001Z</time></trkpt><trkpt lat="45.0681662369679" lon="7.71065392977659"><ele>223.33333333333334</ele><time>2026-04-10T14:28:15.001Z</time></trkpt><trkpt lat="45.06819562416306" lon="7.710740589995167"><ele>223.66666666666669</ele><time>2026-04-10T14:28:16.001Z</time></trkpt><trkpt lat="45.06821761173496" lon="7.710826860752615"><ele>224.0</ele><time>2026-04-10T14:28:17.001Z</time></trkpt><trkpt lat="45.068256064433335" lon="7.7109786728075385"><ele>223.79999999999998</ele><time>2026-04-10T14:28:19.001Z</time></trkpt><trkpt lat="45.06829607197481" lon="7.711117806146077"><ele>223.59999999999997</ele><time>2026-04-10T14:28:21.001Z</time></trkpt><trkpt lat="45.06833310553528" lon="7.711261001074911"><ele>223.4</ele><time>2026-04-10T14:28:23Z</time></trkpt><trkpt lat="45.06835974218513" lon="7.711405557806793"><ele>223.2</ele><time>2026-04-10T14:28:25Z</time></trkpt><trkpt lat="45.06839887434777" lon="7.711538924241499"><ele>223.0</ele><time>2026-04-10T14:28:27Z</time></trkpt><trkpt lat="45.06842481497427" lon="7.711688577165879"><ele>223.0</ele><time>2026-04-10T14:28:29Z</time></trkpt><trkpt lat="45.068447549509145" lon="7.711815181495947"><ele>223.0</ele><time>2026-04-10T14:28:31Z</time></trkpt><trkpt lat="45.06847777860819" lon="7.71196684107215"><ele>223.0</ele><time>2026-04-10T14:28:33Z</time></trkpt><trkpt lat="45.06849007751398" lon="7.712095734906823"><ele>223.0</ele><time>2026-04-10T14:28:35Z</time></trkpt><trkpt lat="45.06852142265903" lon="7.712236233590608"><ele>223.0</ele><time>2026-04-10T14:28:37Z</time></trkpt><trkpt lat="45.068546611265276" lon="7.71238126055349"><ele>222.8</ele><time>2026-04-10T14:28:39Z</time></trkpt><trkpt lat="45.06856302646195" lon="7.712526770081512"><ele>222.60000000000002</ele><time>2026-04-10T14:28:41Z</time></trkpt><trkpt lat="45.068581923655735" lon="7.712683455586358"><ele>222.39999999999998</ele><time>2026-04-10T14:28:43Z</time></trkpt><trkpt lat="45.06860753414989" lon="7.712825407073454"><ele>222.2</ele><time>2026-04-10T14:28:45Z</time></trkpt><trkpt lat="45.06861713346441" lon="7.712950511410882"><ele>222.0</ele><time>2026-04-10T14:28:47Z</time></trkpt><trkpt lat="45.06863221882108" lon="7.713082002270492"><ele>222.0</ele><time>2026-04-10T14:28:49Z</time></trkpt><trkpt lat="45.06865020964196" lon="7.713209855875384"><ele>222.0</ele><time>2026-04-10T14:28:51Z</time></trkpt><trkpt lat="45.068658363897235" lon="7.713362822181502"><ele>222.0</ele><time>2026-04-10T14:28:53Z</time></trkpt><trkpt lat="45.06867099599687" lon="7.713495139931597"><ele>222.0</ele><time>2026-04-10T14:28:55Z</time></trkpt><trkpt lat="45.068693985524774" lon="7.713638044673239"><ele>222.0</ele><time>2026-04-10T14:28:57Z</time></trkpt><trkpt lat="45.06871524849795" lon="7.713795943337662"><ele>222.0</ele><time>2026-04-10T14:28:59Z</time></trkpt><trkpt lat="45.06873373294271" lon="7.7139334697605015"><ele>222.0</ele><time>2026-04-10T14:29:01Z</time></trkpt><trkpt lat="45.068749122819085" lon="7.71406195009556"><ele>222.0</ele><time>2026-04-10T14:29:03Z</time></trkpt><trkpt lat="45.068758496170794" lon="7.714199598504167"><ele>222.0</ele><time>2026-04-10T14:29:05Z</time></trkpt><trkpt lat="45.06877358723411" lon="7.714349027984208"><ele>222.0</ele><time>2026-04-10T14:29:07Z</time></trkpt><trkpt lat="45.068781716399585" lon="7.714475804839898"><ele>222.2</ele><time>2026-04-10T14:29:10Z</time></trkpt><trkpt lat="45.06879599728359" lon="7.714602555350893"><ele>222.39999999999998</ele><time>2026-04-10T14:29:12Z</time></trkpt><trkpt lat="45.06881531019717" lon="7.714761846963382"><ele>222.60000000000002</ele><time>2026-04-10T14:29:14Z</time></trkpt><trkpt lat="45.06883204602158" lon="7.714865650597246"><ele>222.8</ele><time>2026-04-10T14:29:16Z</time></trkpt><trkpt lat="45.0688279135765" lon="7.715036187341401"><ele>223.0</ele><time>2026-04-10T14:29:18Z</time></trkpt><trkpt lat="45.06887567544682" lon="7.7152087963908125"><ele>223.2</ele><time>2026-04-10T14:29:20Z</time></trkpt><trkpt lat="45.0688909467758" lon="7.715303843796823"><ele>223.4</ele><time>2026-04-10T14:29:21Z</time></trkpt><trkpt lat="45.068917249641274" lon="7.715446351509546"><ele>223.59999999999997</ele><time>2026-04-10T14:29:23Z</time></trkpt><trkpt lat="45.06893161883564" lon="7.715596782440845"><ele>223.79999999999998</ele><time>2026-04-10T14:29:25Z</time></trkpt><trkpt lat="45.06895342629025" lon="7.7157299927858025"><ele>224.0</ele><time>2026-04-10T14:29:27Z</time></trkpt><trkpt lat="45.068974905278196" lon="7.715861296208241"><ele>224.0</ele><time>2026-04-10T14:29:29Z</time></trkpt><trkpt lat="45.068984826504696" lon="7.7160059311291045"><ele>223.99999999999997</ele><time>2026-04-10T14:29:31Z</time></trkpt><trkpt lat="45.06900207991698" lon="7.71613750209653"><ele>223.99999999999997</ele><time>2026-04-10T14:29:33Z</time></trkpt><trkpt lat="45.06901907900993" lon="7.716266098730243"><ele>224.0</ele><time>2026-04-10T14:29:35Z</time></trkpt><trkpt lat="45.06903354012067" lon="7.716404709384733"><ele>224.0</ele><time>2026-04-10T14:29:37Z</time></trkpt><trkpt lat="45.069061004914055" lon="7.716637196318835"><ele>223.6</ele><time>2026-04-10T14:29:40Z</time></trkpt><trkpt lat="45.069077430811475" lon="7.716778981139647"><ele>223.2</ele><time>2026-04-10T14:29:42Z</time></trkpt><trkpt lat="45.06909717063894" lon="7.716918183247975"><ele>222.79999999999998</ele><time>2026-04-10T14:29:44Z</time></trkpt><trkpt lat="45.06911959266727" lon="7.717051612635422"><ele>222.39999999999998</ele><time>2026-04-10T14:29:46Z</time></trkpt><trkpt lat="45.0691366744119" lon="7.717189071366094"><ele>222.0</ele><time>2026-04-10T14:29:48Z</time></trkpt><trkpt lat="45.069157313450816" lon="7.717338717892249"><ele>222.39999999999998</ele><time>2026-04-10T14:29:50Z</time></trkpt><trkpt lat="45.069181654134276" lon="7.717487125597945"><ele>222.79999999999998</ele><time>2026-04-10T14:29:52Z</time></trkpt><trkpt lat="45.06918469427324" lon="7.717617320945927"><ele>223.2</ele><time>2026-04-10T14:29:54Z</time></trkpt><trkpt lat="45.069200165145766" lon="7.717757320746357"><ele>223.6</ele><time>2026-04-10T14:29:56Z</time></trkpt><trkpt lat="45.06922366948578" lon="7.717879642768687"><ele>224.0</ele><time>2026-04-10T14:29:58Z</time></trkpt><trkpt lat="45.069238420729164" lon="7.718012386759864"><ele>224.0</ele><time>2026-04-10T14:30:00Z</time></trkpt><trkpt lat="45.069245766513916" lon="7.718142995417926"><ele>223.99999999999997</ele><time>2026-04-10T14:30:03Z</time></trkpt><trkpt lat="45.06925444802599" lon="7.718258282297983"><ele>223.99999999999997</ele><time>2026-04-10T14:30:05Z</time></trkpt><trkpt lat="45.069276854949784" lon="7.718355892124805"><ele>224.0</ele><time>2026-04-10T14:30:06Z</time></trkpt><trkpt lat="45.069284188441934" lon="7.718498410258824"><ele>224.0</ele><time>2026-04-10T14:30:08Z</time></trkpt><trkpt lat="45.06928111774675" lon="7.718644268838561"><ele>223.6</ele><time>2026-04-10T14:30:10Z</time></trkpt><trkpt lat="45.0693085502274" lon="7.718803169831256"><ele>223.2</ele><time>2026-04-10T14:30:12Z</time></trkpt><trkpt lat="45.06933198361234" lon="7.718956331248498"><ele>222.79999999999998</ele><time>2026-04-10T14:30:14Z</time></trkpt><trkpt lat="45.06935043356726" lon="7.719099440448765"><ele>222.39999999999998</ele><time>2026-04-10T14:30:16Z</time></trkpt><trkpt lat="45.06935925349124" lon="7.7191976628276375"><ele>222.0</ele><time>2026-04-10T14:30:19Z</time></trkpt><trkpt lat="45.06940968640003" lon="7.719398071463408"><ele>222.0</ele><time>2026-04-10T14:30:20Z</time></trkpt><trkpt lat="45.06944582049167" lon="7.719540471714388"><ele>222.0</ele><time>2026-04-10T14:30:22Z</time></trkpt><trkpt lat="45.069453006480614" lon="7.719691567475132"><ele>222.0</ele><time>2026-04-10T14:30:24Z</time></trkpt><trkpt lat="45.06947388248492" lon="7.719838225205817"><ele>222.0</ele><time>2026-04-10T14:30:26Z</time></trkpt><trkpt lat="45.06948048589555" lon="7.719979223507839"><ele>222.0</ele><time>2026-04-10T14:30:28Z</time></trkpt><trkpt lat="45.069491409482175" lon="7.720098506514528"><ele>222.0</ele><time>2026-04-10T14:30:30Z</time></trkpt><trkpt lat="45.06950431474895" lon="7.720215912330931"><ele>222.0</ele><time>2026-04-10T14:30:32Z</time></trkpt><trkpt lat="45.069531461367795" lon="7.720320569521634"><ele>222.0</ele><time>2026-04-10T14:30:34Z</time></trkpt><trkpt lat="45.06951523491884" lon="7.720430864554512"><ele>222.0</ele><time>2026-04-10T14:30:36Z</time></trkpt><trkpt lat="45.069538932715595" lon="7.720515769388241"><ele>222.0</ele><time>2026-04-10T14:30:37Z</time></trkpt><trkpt lat="45.06929750773605" lon="7.720707723451074"><ele>221.75</ele><time>2026-04-10T14:30:39Z</time></trkpt><trkpt lat="45.06933025781743" lon="7.720895929770539"><ele>221.5</ele><time>2026-04-10T14:30:41Z</time></trkpt><trkpt lat="45.06935638653064" lon="7.721046084896797"><ele>221.25</ele><time>2026-04-10T14:30:43Z</time></trkpt><trkpt lat="45.06938245175093" lon="7.7211958752311975"><ele>221.0</ele><time>2026-04-10T14:30:45Z</time></trkpt><trkpt lat="45.06940856035078" lon="7.721345914774443"><ele>220.8</ele><time>2026-04-10T14:30:47Z</time></trkpt><trkpt lat="45.06943543997691" lon="7.721498466806065"><ele>220.60000000000002</ele><time>2026-04-10T14:30:49Z</time></trkpt><trkpt lat="45.06946205433952" lon="7.721649202422757"><ele>220.4</ele><time>2026-04-10T14:30:51Z</time></trkpt><trkpt lat="45.069487579490925" lon="7.721793769230362"><ele>220.2</ele><time>2026-04-10T14:30:53Z</time></trkpt><trkpt lat="45.069514505164555" lon="7.721946267974663"><ele>220.0</ele><time>2026-04-10T14:30:55Z</time></trkpt><trkpt lat="45.0695414621018" lon="7.722098943875072"><ele>220.0</ele><time>2026-04-10T14:30:57Z</time></trkpt><trkpt lat="45.06956307670724" lon="7.722221362385059"><ele>220.0</ele><time>2026-04-10T14:30:59Z</time></trkpt><trkpt lat="45.0695872988395" lon="7.7223585494607665"><ele>220.0</ele><time>2026-04-10T14:31:01Z</time></trkpt><trkpt lat="45.069612545390534" lon="7.722501538167896"><ele>220.0</ele><time>2026-04-10T14:31:03Z</time></trkpt><trkpt lat="45.06963701490366" lon="7.722640125454904"><ele>220.0</ele><time>2026-04-10T14:31:05Z</time></trkpt><trkpt lat="45.069663673656464" lon="7.722789733805523"><ele>220.0</ele><time>2026-04-10T14:31:07Z</time></trkpt><trkpt lat="45.06968846562041" lon="7.722928873097714"><ele>220.0</ele><time>2026-04-10T14:31:09Z</time></trkpt><trkpt lat="45.06971162639239" lon="7.723058857530735"><ele>220.0</ele><time>2026-04-10T14:31:11Z</time></trkpt><trkpt lat="45.06973188227896" lon="7.72318004777218"><ele>220.0</ele><time>2026-04-10T14:31:13Z</time></trkpt><trkpt lat="45.07008391354294" lon="7.723141921804678"><ele>219.75</ele><time>2026-04-10T14:31:14Z</time></trkpt><trkpt lat="45.070114277908715" lon="7.723285572553294"><ele>219.5</ele><time>2026-04-10T14:31:16Z</time></trkpt><trkpt lat="45.06996422877995" lon="7.7234933929493605"><ele>219.25</ele><time>2026-04-10T14:31:18Z</time></trkpt><trkpt lat="45.06998807772928" lon="7.723630719719499"><ele>219.0</ele><time>2026-04-10T14:31:20Z</time></trkpt><trkpt lat="45.070014073072954" lon="7.723779103722232"><ele>219.0</ele><time>2026-04-10T14:31:22Z</time></trkpt><trkpt lat="45.07003737835458" lon="7.723912131533767"><ele>219.0</ele><time>2026-04-10T14:31:24Z</time></trkpt><trkpt lat="45.07005513696271" lon="7.72401349421223"><ele>219.0</ele><time>2026-04-10T14:31:27Z</time></trkpt><trkpt lat="45.07034047600491" lon="7.724112349587627"><ele>219.0</ele><time>2026-04-10T14:31:28Z</time></trkpt><trkpt lat="45.07039519632449" lon="7.724232352025835"><ele>219.0</ele><time>2026-04-10T14:31:30Z</time></trkpt><trkpt lat="45.06998068090587" lon="7.724569869195912"><ele>219.0</ele><time>2026-04-10T14:31:32Z</time></trkpt><trkpt lat="45.07020649841428" lon="7.72457309223337"><ele>219.0</ele><time>2026-04-10T14:31:33Z</time></trkpt><trkpt lat="45.07024492726388" lon="7.72471985250819"><ele>219.0</ele><time>2026-04-10T14:31:35Z</time></trkpt><trkpt lat="45.070321665990036" lon="7.7249881026327705"><ele>219.0</ele><time>2026-04-10T14:31:37Z</time></trkpt><trkpt lat="45.07036634456772" lon="7.725077942000747"><ele>218.99999999999997</ele><time>2026-04-10T14:31:38Z</time></trkpt><trkpt lat="45.070430689219684" lon="7.725191253079094"><ele>218.99999999999997</ele><time>2026-04-10T14:31:40Z</time></trkpt><trkpt lat="45.07049539956504" lon="7.7252997904682585"><ele>219.0</ele><time>2026-04-10T14:31:42Z</time></trkpt><trkpt lat="45.07056425291052" lon="7.725412900001106"><ele>219.0</ele><time>2026-04-10T14:31:44Z</time></trkpt><trkpt lat="45.070622809038866" lon="7.725509093802057"><ele>219.0</ele><time>2026-04-10T14:31:46Z</time></trkpt><trkpt lat="45.07072160234015" lon="7.72566323441347"><ele>219.0</ele><time>2026-04-10T14:31:48Z</time></trkpt><trkpt lat="45.07079325647512" lon="7.725764685086271"><ele>219.0</ele><time>2026-04-10T14:31:50Z</time></trkpt><trkpt lat="45.07087220313414" lon="7.725876462976111"><ele>219.0</ele><time>2026-04-10T14:31:52Z</time></trkpt><trkpt lat="45.0709493796731" lon="7.72598573631939"><ele>220.0</ele><time>2026-04-10T14:31:54Z</time></trkpt><trkpt lat="45.07102095575157" lon="7.726087080031981"><ele>221.0</ele><time>2026-04-10T14:31:56Z</time></trkpt><trkpt lat="45.07135186825497" lon="7.725835459421217"><ele>221.0</ele><time>2026-04-10T14:31:58Z</time></trkpt><trkpt lat="45.07142002959554" lon="7.725944571164951"><ele>221.00000000000003</ele><time>2026-04-10T14:32:00Z</time></trkpt><trkpt lat="45.071485500663535" lon="7.726062969139049"><ele>221.00000000000003</ele><time>2026-04-10T14:32:02Z</time></trkpt><trkpt lat="45.07155254557403" lon="7.726173520016324"><ele>221.0</ele><time>2026-04-10T14:32:04Z</time></trkpt><trkpt lat="45.07162855268621" lon="7.726278606930949"><ele>221.0</ele><time>2026-04-10T14:32:06Z</time></trkpt><trkpt lat="45.07169086990898" lon="7.726401283172019"><ele>221.0</ele><time>2026-04-10T14:32:08Z</time></trkpt><trkpt lat="45.07176642924518" lon="7.726523997025261"><ele>221.00000000000003</ele><time>2026-04-10T14:32:10Z</time></trkpt><trkpt lat="45.07183785306378" lon="7.726653805195347"><ele>221.00000000000003</ele><time>2026-04-10T14:32:12Z</time></trkpt><trkpt lat="45.07190790124943" lon="7.7267726079133086"><ele>221.0</ele><time>2026-04-10T14:32:14Z</time></trkpt><trkpt lat="45.07197871853749" lon="7.726886409018665"><ele>221.0</ele><time>2026-04-10T14:32:16Z</time></trkpt><trkpt lat="45.07204449651022" lon="7.726997318951119"><ele>221.0</ele><time>2026-04-10T14:32:18Z</time></trkpt><trkpt lat="45.07210096270172" lon="7.727096804271952"><ele>221.00000000000003</ele><time>2026-04-10T14:32:20Z</time></trkpt><trkpt lat="45.07216614656557" lon="7.727196624481458"><ele>221.00000000000003</ele><time>2026-04-10T14:32:22Z</time></trkpt><trkpt lat="45.07225116335435" lon="7.727297397744514"><ele>221.0</ele><time>2026-04-10T14:32:24Z</time></trkpt><trkpt lat="45.07233830865626" lon="7.727387285984583"><ele>221.0</ele><time>2026-04-10T14:32:26Z</time></trkpt><trkpt lat="45.07242877081909" lon="7.727482442117968"><ele>221.0</ele><time>2026-04-10T14:32:28Z</time></trkpt><trkpt lat="45.072522958445475" lon="7.727578016269928"><ele>221.00000000000003</ele><time>2026-04-10T14:32:30Z</time></trkpt><trkpt lat="45.07261608608789" lon="7.727668411011546"><ele>221.00000000000003</ele><time>2026-04-10T14:32:32Z</time></trkpt><trkpt lat="45.07272229021612" lon="7.727753990341778"><ele>221.0</ele><time>2026-04-10T14:32:34Z</time></trkpt><trkpt lat="45.0727782387279" lon="7.727797090786968"><ele>221.0</ele><time>2026-04-10T14:32:35Z</time></trkpt><trkpt lat="45.07287484969479" lon="7.727883050508603"><ele>221.16666666666669</ele><time>2026-04-10T14:32:37Z</time></trkpt><trkpt lat="45.072981686946605" lon="7.727968087821666"><ele>221.33333333333334</ele><time>2026-04-10T14:32:39Z</time></trkpt><trkpt lat="45.07303978772455" lon="7.728010332201349"><ele>221.5</ele><time>2026-04-10T14:32:40Z</time></trkpt><trkpt lat="45.07314659913122" lon="7.728079705819017"><ele>221.66666666666669</ele><time>2026-04-10T14:32:42Z</time></trkpt><trkpt lat="45.07320636008699" lon="7.728121128966451"><ele>221.83333333333334</ele><time>2026-04-10T14:32:43Z</time></trkpt><trkpt lat="45.07326199862472" lon="7.728162833242401"><ele>222.0</ele><time>2026-04-10T14:32:44Z</time></trkpt><trkpt lat="45.073314966746594" lon="7.728214822887937"><ele>220.6</ele><time>2026-04-10T14:32:45Z</time></trkpt><trkpt lat="45.073432937189004" lon="7.728279977676087"><ele>219.2</ele><time>2026-04-10T14:32:47Z</time></trkpt><trkpt lat="45.07348794154877" lon="7.7283255827408945"><ele>217.8</ele><time>2026-04-10T14:32:48Z</time></trkpt><trkpt lat="45.07359634256657" lon="7.728381966370548"><ele>216.4</ele><time>2026-04-10T14:32:50Z</time></trkpt><trkpt lat="45.07370523526082" lon="7.728442881441296"><ele>215.0</ele><time>2026-04-10T14:32:52Z</time></trkpt><trkpt lat="45.07381546256543" lon="7.72851576722126"><ele>215.0</ele><time>2026-04-10T14:32:54Z</time></trkpt><trkpt lat="45.07387339068496" lon="7.728556093849771"><ele>215.0</ele><time>2026-04-10T14:32:55Z</time></trkpt><trkpt lat="45.07397798837656" lon="7.728628826886903"><ele>215.0</ele><time>2026-04-10T14:32:57Z</time></trkpt><trkpt lat="45.0740795020309" lon="7.728679216081696"><ele>215.0</ele><time>2026-04-10T14:32:59Z</time></trkpt><trkpt lat="45.07416381036364" lon="7.728730834200503"><ele>215.0</ele><time>2026-04-10T14:33:01Z</time></trkpt><trkpt lat="45.0742561365398" lon="7.728791935085223"><ele>216.2</ele><time>2026-04-10T14:33:03Z</time></trkpt><trkpt lat="45.074360615803336" lon="7.728833542314215"><ele>217.4</ele><time>2026-04-10T14:33:05Z</time></trkpt><trkpt lat="45.07447276887967" lon="7.728864346622374"><ele>218.60000000000002</ele><time>2026-04-10T14:33:07Z</time></trkpt><trkpt lat="45.07458059576076" lon="7.7288855193015324"><ele>219.8</ele><time>2026-04-10T14:33:09Z</time></trkpt><trkpt lat="45.07468898806554" lon="7.728891836910565"><ele>221.0</ele><time>2026-04-10T14:33:11Z</time></trkpt><trkpt lat="45.07480716831424" lon="7.728866746154814"><ele>221.0</ele><time>2026-04-10T14:33:13Z</time></trkpt><trkpt lat="45.07491803467415" lon="7.728853580946463"><ele>221.00000000000003</ele><time>2026-04-10T14:33:15Z</time></trkpt><trkpt lat="45.07502411466003" lon="7.728881575057209"><ele>221.00000000000003</ele><time>2026-04-10T14:33:17Z</time></trkpt><trkpt lat="45.075131598274204" lon="7.7289119743003365"><ele>221.0</ele><time>2026-04-10T14:33:19Z</time></trkpt><trkpt lat="45.07524062075324" lon="7.728916096133126"><ele>221.0</ele><time>2026-04-10T14:33:21Z</time></trkpt><trkpt lat="45.07531164037427" lon="7.728937875901331"><ele>220.50000000000003</ele><time>2026-04-10T14:33:22Z</time></trkpt><trkpt lat="45.0754140182073" lon="7.728908481288349"><ele>220.0</ele><time>2026-04-10T14:33:24Z</time></trkpt><trkpt lat="45.075519548891904" lon="7.7288956554739965"><ele>219.5</ele><time>2026-04-10T14:33:26Z</time></trkpt><trkpt lat="45.07558276421594" lon="7.728942895283261"><ele>219.0</ele><time>2026-04-10T14:33:27Z</time></trkpt><trkpt lat="45.07565520599839" lon="7.728945721499519"><ele>218.50000000000003</ele><time>2026-04-10T14:33:28Z</time></trkpt><trkpt lat="45.07572091007536" lon="7.728908450770328"><ele>218.0</ele><time>2026-04-10T14:33:29Z</time></trkpt><trkpt lat="45.075834465702556" lon="7.728898395967649"><ele>217.8</ele><time>2026-04-10T14:33:31Z</time></trkpt><trkpt lat="45.075949534098086" lon="7.72886815174893"><ele>217.60000000000002</ele><time>2026-04-10T14:33:33Z</time></trkpt><trkpt lat="45.07605957543115" lon="7.728863914641357"><ele>217.39999999999998</ele><time>2026-04-10T14:33:35Z</time></trkpt><trkpt lat="45.07615325827927" lon="7.728841856390975"><ele>217.2</ele><time>2026-04-10T14:33:37Z</time></trkpt><trkpt lat="45.07624701412599" lon="7.728845752809303"><ele>217.0</ele><time>2026-04-10T14:33:39Z</time></trkpt><trkpt lat="45.076341102185324" lon="7.728815828949203"><ele>217.0</ele><time>2026-04-10T14:33:41Z</time></trkpt><trkpt lat="45.07643792283372" lon="7.728810813086466"><ele>217.0</ele><time>2026-04-10T14:33:43Z</time></trkpt><trkpt lat="45.07654081523809" lon="7.7288033100249915"><ele>217.0</ele><time>2026-04-10T14:33:45Z</time></trkpt><trkpt lat="45.076643950085604" lon="7.728773589913554"><ele>217.0</ele><time>2026-04-10T14:33:48Z</time></trkpt><trkpt lat="45.07673012326207" lon="7.728729989867009"><ele>217.0</ele><time>2026-04-10T14:33:51Z</time></trkpt><trkpt lat="45.07679407090037" lon="7.728672611896653"><ele>217.0</ele><time>2026-04-10T14:33:52Z</time></trkpt><trkpt lat="45.07684218197536" lon="7.7286100092048855"><ele>217.0</ele><time>2026-04-10T14:33:53Z</time></trkpt><trkpt lat="45.07693042367" lon="7.728539092695129"><ele>217.0</ele><time>2026-04-10T14:33:55Z</time></trkpt><trkpt lat="45.0770266439164" lon="7.728440587264343"><ele>217.0</ele><time>2026-04-10T14:33:57Z</time></trkpt><trkpt lat="45.07713122184427" lon="7.728329429423514"><ele>217.0</ele><time>2026-04-10T14:33:59Z</time></trkpt><trkpt lat="45.07718044612194" lon="7.7282711005226385"><ele>216.66666666666666</ele><time>2026-04-10T14:34:00Z</time></trkpt><trkpt lat="45.07723669526204" lon="7.728213800636678"><ele>216.33333333333331</ele><time>2026-04-10T14:34:01Z</time></trkpt><trkpt lat="45.077289215615984" lon="7.728153696137872"><ele>216.0</ele><time>2026-04-10T14:34:02Z</time></trkpt><trkpt lat="45.077394227596926" lon="7.728045726990919"><ele>215.66666666666669</ele><time>2026-04-10T14:34:04Z</time></trkpt><trkpt lat="45.07744812743433" lon="7.7279937363184645"><ele>215.33333333333334</ele><time>2026-04-10T14:34:05Z</time></trkpt><trkpt lat="45.07750032464688" lon="7.727934509922464"><ele>215.0</ele><time>2026-04-10T14:34:06Z</time></trkpt><trkpt lat="45.07755013478619" lon="7.727878531850814"><ele>215.0</ele><time>2026-04-10T14:34:07Z</time></trkpt><trkpt lat="45.07764949573717" lon="7.727779088830179"><ele>215.0</ele><time>2026-04-10T14:34:09Z</time></trkpt><trkpt lat="45.07774127285112" lon="7.727681303388631"><ele>215.0</ele><time>2026-04-10T14:34:11Z</time></trkpt><trkpt lat="45.077835612719866" lon="7.727580202196855"><ele>215.0</ele><time>2026-04-10T14:34:13Z</time></trkpt><trkpt lat="45.077929321055976" lon="7.727472463044094"><ele>214.75</ele><time>2026-04-10T14:34:15Z</time></trkpt><trkpt lat="45.07801911880071" lon="7.727367800449239"><ele>214.5</ele><time>2026-04-10T14:34:17Z</time></trkpt><trkpt lat="45.078103768767896" lon="7.727270021656161"><ele>214.25</ele><time>2026-04-10T14:34:19Z</time></trkpt><trkpt lat="45.078193770069376" lon="7.727169465074512"><ele>214.0</ele><time>2026-04-10T14:34:21Z</time></trkpt><trkpt lat="45.078287733555314" lon="7.727068764978812"><ele>214.0</ele><time>2026-04-10T14:34:23Z</time></trkpt><trkpt lat="45.07837445663743" lon="7.7269603592487375"><ele>213.99999999999997</ele><time>2026-04-10T14:34:25Z</time></trkpt><trkpt lat="45.078469078081824" lon="7.726874181473702"><ele>213.99999999999997</ele><time>2026-04-10T14:34:27Z</time></trkpt><trkpt lat="45.07851684954678" lon="7.726816041555935"><ele>214.0</ele><time>2026-04-10T14:34:28Z</time></trkpt><trkpt lat="45.07860657356714" lon="7.726710004482073"><ele>214.0</ele><time>2026-04-10T14:34:30Z</time></trkpt><trkpt lat="45.078696598882" lon="7.726623616694108"><ele>214.2</ele><time>2026-04-10T14:34:32Z</time></trkpt><trkpt lat="45.078789560278004" lon="7.726538828884714"><ele>214.39999999999998</ele><time>2026-04-10T14:34:34Z</time></trkpt><trkpt lat="45.078874843038605" lon="7.726462478061124"><ele>214.6</ele><time>2026-04-10T14:34:36Z</time></trkpt><trkpt lat="45.07896234049706" lon="7.726377651049367"><ele>214.8</ele><time>2026-04-10T14:34:38Z</time></trkpt><trkpt lat="45.07905219165661" lon="7.726306760642837"><ele>215.0</ele><time>2026-04-10T14:34:40Z</time></trkpt><trkpt lat="45.07914400847538" lon="7.726231121611335"><ele>215.0</ele><time>2026-04-10T14:34:42Z</time></trkpt><trkpt lat="45.07923624896323" lon="7.7261441174454"><ele>215.0</ele><time>2026-04-10T14:34:44Z</time></trkpt><trkpt lat="45.079322468500486" lon="7.726074544445091"><ele>215.0</ele><time>2026-04-10T14:34:46Z</time></trkpt><trkpt lat="45.07940927079528" lon="7.725996789550341"><ele>215.0</ele><time>2026-04-10T14:34:48Z</time></trkpt><trkpt lat="45.07949832809077" lon="7.725923432050213"><ele>215.0</ele><time>2026-04-10T14:34:50Z</time></trkpt><trkpt lat="45.07958868152086" lon="7.725852785311565"><ele>215.33333333333334</ele><time>2026-04-10T14:34:52Z</time></trkpt><trkpt lat="45.079677486266654" lon="7.7257773458066135"><ele>215.66666666666669</ele><time>2026-04-10T14:34:54Z</time></trkpt><trkpt lat="45.0797630918189" lon="7.725729117826936"><ele>216.0</ele><time>2026-04-10T14:34:56Z</time></trkpt><trkpt lat="45.07983461774776" lon="7.725652602054131"><ele>216.33333333333331</ele><time>2026-04-10T14:34:58Z</time></trkpt><trkpt lat="45.07990783584458" lon="7.725605978988468"><ele>216.66666666666666</ele><time>2026-04-10T14:35:00Z</time></trkpt><trkpt lat="45.07997825391184" lon="7.725576489972281"><ele>217.0</ele><time>2026-04-10T14:35:02Z</time></trkpt><trkpt lat="45.080024736538235" lon="7.725503072063675"><ele>216.2</ele><time>2026-04-10T14:35:04Z</time></trkpt><trkpt lat="45.080095170328995" lon="7.7254515027782755"><ele>215.39999999999998</ele><time>2026-04-10T14:35:06Z</time></trkpt><trkpt lat="45.080162605333946" lon="7.725360554666049"><ele>214.60000000000002</ele><time>2026-04-10T14:35:08Z</time></trkpt><trkpt lat="45.08025353440741" lon="7.725280491105506"><ele>213.8</ele><time>2026-04-10T14:35:10Z</time></trkpt><trkpt lat="45.08035161219956" lon="7.725238217001062"><ele>213.0</ele><time>2026-04-10T14:35:12Z</time></trkpt><trkpt lat="45.08045377012944" lon="7.7252300927648045"><ele>213.0</ele><time>2026-04-10T14:35:14Z</time></trkpt><trkpt lat="45.08055882897256" lon="7.725233845920429"><ele>213.0</ele><time>2026-04-10T14:35:16Z</time></trkpt><trkpt lat="45.08063851146739" lon="7.725215393246941"><ele>213.0</ele><time>2026-04-10T14:35:18Z</time></trkpt><trkpt lat="45.08070732787753" lon="7.725168496273574"><ele>213.0</ele><time>2026-04-10T14:35:20Z</time></trkpt><trkpt lat="45.08077542412886" lon="7.7251161961458745"><ele>213.0</ele><time>2026-04-10T14:35:22Z</time></trkpt><trkpt lat="45.08084577351475" lon="7.725060652228822"><ele>213.0</ele><time>2026-04-10T14:35:24Z</time></trkpt><trkpt lat="45.08092508015437" lon="7.725008954156581"><ele>212.66666666666666</ele><time>2026-04-10T14:35:26Z</time></trkpt><trkpt lat="45.081001450656785" lon="7.724947123021685"><ele>212.33333333333331</ele><time>2026-04-10T14:35:28Z</time></trkpt><trkpt lat="45.0810810083047" lon="7.72489027121339"><ele>212.0</ele><time>2026-04-10T14:35:30Z</time></trkpt><trkpt lat="45.081159755171846" lon="7.724828712671469"><ele>211.66666666666666</ele><time>2026-04-10T14:35:32Z</time></trkpt><trkpt lat="45.08124013450151" lon="7.7247697544247735"><ele>211.33333333333331</ele><time>2026-04-10T14:35:34Z</time></trkpt><trkpt lat="45.08131476965336" lon="7.724706827433127"><ele>211.0</ele><time>2026-04-10T14:35:36Z</time></trkpt><trkpt lat="45.08138216908996" lon="7.724658708927082"><ele>210.99999999999997</ele><time>2026-04-10T14:35:38Z</time></trkpt><trkpt lat="45.081450824407625" lon="7.724607455407766"><ele>211.0</ele><time>2026-04-10T14:35:40Z</time></trkpt><trkpt lat="45.08151375842348" lon="7.724565811561104"><ele>211.0</ele><time>2026-04-10T14:35:43Z</time></trkpt><trkpt lat="45.08157662391179" lon="7.724537856362629"><ele>211.0</ele><time>2026-04-10T14:35:45Z</time></trkpt><trkpt lat="45.0816760076966" lon="7.724564990442822"><ele>210.99999999999997</ele><time>2026-04-10T14:35:47Z</time></trkpt><trkpt lat="45.08174336618505" lon="7.724586678057105"><ele>211.0</ele><time>2026-04-10T14:35:48Z</time></trkpt><trkpt lat="45.08184247153905" lon="7.724650789759051"><ele>211.28571428571428</ele><time>2026-04-10T14:35:50Z</time></trkpt><trkpt lat="45.08192061331461" lon="7.724721808048316"><ele>211.57142857142858</ele><time>2026-04-10T14:35:52Z</time></trkpt><trkpt lat="45.081975712839856" lon="7.724802962454835"><ele>211.85714285714283</ele><time>2026-04-10T14:35:54Z</time></trkpt><trkpt lat="45.08199255426382" lon="7.724890628752956"><ele>212.14285714285714</ele><time>2026-04-10T14:35:56Z</time></trkpt><trkpt lat="45.081994456145644" lon="7.724981613986008"><ele>212.42857142857142</ele><time>2026-04-10T14:35:59Z</time></trkpt><trkpt lat="45.08193887105789" lon="7.725024974564544"><ele>212.7142857142857</ele><time>2026-04-10T14:36:01Z</time></trkpt><trkpt lat="45.081868036995424" lon="7.7250628453052"><ele>213.0</ele><time>2026-04-10T14:36:03Z</time></trkpt><trkpt lat="45.08181518847289" lon="7.7251429161548435"><ele>213.33333333333334</ele><time>2026-04-10T14:36:05Z</time></trkpt><trkpt lat="45.08175284605531" lon="7.725238197060477"><ele>213.66666666666669</ele><time>2026-04-10T14:36:07Z</time></trkpt><trkpt lat="45.0817356867382" lon="7.725349448365524"><ele>214.0</ele><time>2026-04-10T14:36:09Z</time></trkpt><trkpt lat="45.08171552926857" lon="7.725453097867947"><ele>214.33333333333334</ele><time>2026-04-10T14:36:11Z</time></trkpt><trkpt lat="45.08169547271426" lon="7.725556228375005"><ele>214.66666666666669</ele><time>2026-04-10T14:36:13Z</time></trkpt><trkpt lat="45.08166786179188" lon="7.7257082030707185"><ele>215.0</ele><time>2026-04-10T14:36:16.001Z</time></trkpt><trkpt lat="45.08167445406259" lon="7.725797850717883"><ele>215.00000000000003</ele><time>2026-04-10T14:36:18.001Z</time></trkpt><trkpt lat="45.08165796622058" lon="7.7259034118584475"><ele>215.0</ele><time>2026-04-10T14:36:20.001Z</time></trkpt><trkpt lat="45.08163563705138" lon="7.72600149759864"><ele>215.0</ele><time>2026-04-10T14:36:22Z</time></trkpt><trkpt lat="45.08160842466716" lon="7.726094211559532"><ele>215.0</ele><time>2026-04-10T14:36:24Z</time></trkpt><trkpt lat="45.08158621774179" lon="7.726225596858737"><ele>215.00000000000003</ele><time>2026-04-10T14:36:26Z</time></trkpt><trkpt lat="45.08156161824009" lon="7.726335211234946"><ele>215.0</ele><time>2026-04-10T14:36:28Z</time></trkpt><trkpt lat="45.081547174716036" lon="7.72642276854465"><ele>214.66666666666669</ele><time>2026-04-10T14:36:30Z</time></trkpt><trkpt lat="45.08152973478056" lon="7.726509960480712"><ele>214.33333333333334</ele><time>2026-04-10T14:36:32Z</time></trkpt><trkpt lat="45.081508697089" lon="7.72660320398408"><ele>214.0</ele><time>2026-04-10T14:36:34Z</time></trkpt><trkpt lat="45.08147250336448" lon="7.7266992099870615"><ele>213.66666666666669</ele><time>2026-04-10T14:36:37Z</time></trkpt><trkpt lat="45.08143713615905" lon="7.726862072780802"><ele>213.33333333333334</ele><time>2026-04-10T14:36:39Z</time></trkpt><trkpt lat="45.08142465026407" lon="7.726984707784339"><ele>213.0</ele><time>2026-04-10T14:36:41Z</time></trkpt><trkpt lat="45.08140349749837" lon="7.72710792181183"><ele>213.0</ele><time>2026-04-10T14:36:43Z</time></trkpt><trkpt lat="45.08138600008283" lon="7.727241347788455"><ele>213.0</ele><time>2026-04-10T14:36:45Z</time></trkpt><trkpt lat="45.08136650741169" lon="7.72736774643657"><ele>213.0</ele><time>2026-04-10T14:36:47Z</time></trkpt><trkpt lat="45.08135249844231" lon="7.727494497387264"><ele>213.0</ele><time>2026-04-10T14:36:49Z</time></trkpt><trkpt lat="45.08131870661946" lon="7.72761548308223"><ele>213.0</ele><time>2026-04-10T14:36:51Z</time></trkpt><trkpt lat="45.081307955229214" lon="7.727750687463817"><ele>213.33333333333334</ele><time>2026-04-10T14:36:53Z</time></trkpt><trkpt lat="45.08128628482956" lon="7.727864188332875"><ele>213.66666666666669</ele><time>2026-04-10T14:36:55Z</time></trkpt><trkpt lat="45.08127030861738" lon="7.727988322029651"><ele>214.0</ele><time>2026-04-10T14:36:57Z</time></trkpt><trkpt lat="45.08126626391824" lon="7.7281061876639034"><ele>214.33333333333334</ele><time>2026-04-10T14:36:59Z</time></trkpt><trkpt lat="45.08126749881214" lon="7.7282227790940565"><ele>214.66666666666669</ele><time>2026-04-10T14:37:01Z</time></trkpt><trkpt lat="45.08125376661966" lon="7.728353736876307"><ele>215.0</ele><time>2026-04-10T14:37:03Z</time></trkpt><trkpt lat="45.08122888992748" lon="7.728473385130302"><ele>215.66666666666669</ele><time>2026-04-10T14:37:05Z</time></trkpt><trkpt lat="45.08121139603748" lon="7.728589120181012"><ele>216.33333333333334</ele><time>2026-04-10T14:37:07Z</time></trkpt><trkpt lat="45.08118919120229" lon="7.7286787399178225"><ele>217.0</ele><time>2026-04-10T14:37:09Z</time></trkpt><trkpt lat="45.08115986042006" lon="7.728803259407359"><ele>217.66666666666669</ele><time>2026-04-10T14:37:12Z</time></trkpt><trkpt lat="45.08112703174686" lon="7.72889500940548"><ele>218.33333333333334</ele><time>2026-04-10T14:37:15Z</time></trkpt><trkpt lat="45.081102687047725" lon="7.728982470279767"><ele>219.0</ele><time>2026-04-10T14:37:19Z</time></trkpt><trkpt lat="45.08108948593305" lon="7.729078414031669"><ele>219.0</ele><time>2026-04-10T14:37:29Z</time></trkpt><trkpt lat="45.08104466379516" lon="7.729171969332968"><ele>219.0</ele><time>2026-04-10T14:37:33Z</time></trkpt><trkpt lat="45.081002519700405" lon="7.729280851264575"><ele>219.0</ele><time>2026-04-10T14:37:36Z</time></trkpt><trkpt lat="45.080970392374" lon="7.72940000120015"><ele>219.0</ele><time>2026-04-10T14:37:39Z</time></trkpt><trkpt lat="45.080953607685" lon="7.729496138389192"><ele>219.0</ele><time>2026-04-10T14:37:41Z</time></trkpt><trkpt lat="45.08092673805967" lon="7.72960498971393"><ele>219.0</ele><time>2026-04-10T14:37:43Z</time></trkpt><trkpt lat="45.08089645544764" lon="7.729708067711507"><ele>219.0</ele><time>2026-04-10T14:37:45Z</time></trkpt><trkpt lat="45.080865606996866" lon="7.729813620107598"><ele>219.0</ele><time>2026-04-10T14:37:47Z</time></trkpt><trkpt lat="45.080841672548985" lon="7.729912603634514"><ele>219.0</ele><time>2026-04-10T14:37:49Z</time></trkpt><trkpt lat="45.08080832721947" lon="7.730005871453352"><ele>219.0</ele><time>2026-04-10T14:37:51Z</time></trkpt><trkpt lat="45.08078315749325" lon="7.7301075740112575"><ele>219.0</ele><time>2026-04-10T14:37:53Z</time></trkpt><trkpt lat="45.08075419220053" lon="7.730208128591532"><ele>219.0</ele><time>2026-04-10T14:37:55Z</time></trkpt><trkpt lat="45.080728731541896" lon="7.730301178141302"><ele>219.42857142857144</ele><time>2026-04-10T14:37:57Z</time></trkpt><trkpt lat="45.080706616455984" lon="7.730385496827486"><ele>219.85714285714283</ele><time>2026-04-10T14:37:59Z</time></trkpt><trkpt lat="45.080662002496545" lon="7.730504463403455"><ele>220.28571428571428</ele><time>2026-04-10T14:38:02Z</time></trkpt><trkpt lat="45.08063902864709" lon="7.730604620413783"><ele>220.71428571428572</ele><time>2026-04-10T14:38:04Z</time></trkpt><trkpt lat="45.08060678576949" lon="7.730705561791344"><ele>221.14285714285717</ele><time>2026-04-10T14:38:07Z</time></trkpt><trkpt lat="45.08057432808073" lon="7.730786571990881"><ele>221.57142857142856</ele><time>2026-04-10T14:38:11Z</time></trkpt><trkpt lat="45.08053918440487" lon="7.730870350608624"><ele>222.0</ele><time>2026-04-10T14:38:17Z</time></trkpt><trkpt lat="45.08046871575285" lon="7.730924746230448"><ele>222.0</ele><time>2026-04-10T14:38:21Z</time></trkpt><trkpt lat="45.080395016874846" lon="7.730980569041876"><ele>222.0</ele><time>2026-04-10T14:38:24Z</time></trkpt><trkpt lat="45.08032714170913" lon="7.731029649954978"><ele>222.0</ele><time>2026-04-10T14:38:27Z</time></trkpt><trkpt lat="45.0802458372864" lon="7.731077195866985"><ele>222.0</ele><time>2026-04-10T14:38:30Z</time></trkpt><trkpt lat="45.080185195731225" lon="7.731102325463264"><ele>222.0</ele><time>2026-04-10T14:38:32Z</time></trkpt><trkpt lat="45.08011417275865" lon="7.731149619162647"><ele>222.0</ele><time>2026-04-10T14:38:35Z</time></trkpt><trkpt lat="45.08008182733259" lon="7.731241609499924"><ele>222.66666666666666</ele><time>2026-04-10T14:39:19Z</time></trkpt><trkpt lat="45.08008632399662" lon="7.731379688869971"><ele>223.33333333333331</ele><time>2026-04-10T14:39:22Z</time></trkpt><trkpt lat="45.08010536436031" lon="7.7314967424350876"><ele>224.0</ele><time>2026-04-10T14:39:24Z</time></trkpt><trkpt lat="45.08011087110912" lon="7.731618893492785"><ele>224.66666666666666</ele><time>2026-04-10T14:39:26Z</time></trkpt><trkpt lat="45.08012291945478" lon="7.731743738712245"><ele>225.33333333333331</ele><time>2026-04-10T14:39:28Z</time></trkpt><trkpt lat="45.08014104260997" lon="7.731865049770281"><ele>226.0</ele><time>2026-04-10T14:39:30Z</time></trkpt><trkpt lat="45.08017109947326" lon="7.731983056086958"><ele>225.99999999999997</ele><time>2026-04-10T14:39:32Z</time></trkpt><trkpt lat="45.0801970826362" lon="7.732096682088742"><ele>226.0</ele><time>2026-04-10T14:39:34Z</time></trkpt><trkpt lat="45.08022216235337" lon="7.732210984282104"><ele>226.0</ele><time>2026-04-10T14:39:36Z</time></trkpt><trkpt lat="45.08025089938401" lon="7.732314178640049"><ele>226.0</ele><time>2026-04-10T14:39:38Z</time></trkpt><trkpt lat="45.080282301088" lon="7.732425175547731"><ele>225.99999999999997</ele><time>2026-04-10T14:39:40Z</time></trkpt><trkpt lat="45.080313961208205" lon="7.732536069469582"><ele>226.0</ele><time>2026-04-10T14:39:42Z</time></trkpt><trkpt lat="45.080342317670464" lon="7.732642651268698"><ele>226.42857142857144</ele><time>2026-04-10T14:39:44Z</time></trkpt><trkpt lat="45.080363339887334" lon="7.732748045311553"><ele>226.85714285714283</ele><time>2026-04-10T14:39:46Z</time></trkpt><trkpt lat="45.08039364382692" lon="7.732848708767199"><ele>227.28571428571428</ele><time>2026-04-10T14:39:48Z</time></trkpt><trkpt lat="45.08042632658225" lon="7.732939494716274"><ele>227.71428571428572</ele><time>2026-04-10T14:39:50Z</time></trkpt><trkpt lat="45.080438482884354" lon="7.733036778849199"><ele>228.14285714285717</ele><time>2026-04-10T14:39:52Z</time></trkpt><trkpt lat="45.080391722136504" lon="7.7331243662568445"><ele>228.57142857142856</ele><time>2026-04-10T14:39:56Z</time></trkpt><trkpt lat="45.08032586844954" lon="7.733141744847385"><ele>229.0</ele><time>2026-04-10T14:40:01.999Z</time></trkpt><trkpt lat="45.08024539410006" lon="7.733195046344383"><ele>228.99999999999997</ele><time>2026-04-10T14:40:04.999Z</time></trkpt><trkpt lat="45.08016343477785" lon="7.733246968484483"><ele>229.0</ele><time>2026-04-10T14:40:07.999Z</time></trkpt><trkpt lat="45.080077404015725" lon="7.733300838968752"><ele>229.0</ele><time>2026-04-10T14:40:10.999Z</time></trkpt><trkpt lat="45.080015403749904" lon="7.733333340110687"><ele>229.0</ele><time>2026-04-10T14:40:12.999Z</time></trkpt><trkpt lat="45.07992699084596" lon="7.733340296854945"><ele>228.99999999999997</ele><time>2026-04-10T14:40:15.999Z</time></trkpt><trkpt lat="45.079895522362605" lon="7.73341762591659"><ele>229.0</ele><time>2026-04-10T14:40:17.999Z</time></trkpt><trkpt lat="45.07985204134051" lon="7.7335192458328414"><ele>229.42857142857142</ele><time>2026-04-10T14:40:21.999Z</time></trkpt><trkpt lat="45.07978962647057" lon="7.733597517608224"><ele>229.8571428571429</ele><time>2026-04-10T14:40:24.999Z</time></trkpt><trkpt lat="45.07974820397591" lon="7.733698722380119"><ele>230.2857142857143</ele><time>2026-04-10T14:40:28Z</time></trkpt><trkpt lat="45.07976587102593" lon="7.733789549822644"><ele>230.71428571428572</ele><time>2026-04-10T14:40:30Z</time></trkpt><trkpt lat="45.07976152092746" lon="7.733884123037073"><ele>231.14285714285717</ele><time>2026-04-10T14:40:32Z</time></trkpt><trkpt lat="45.079736333097" lon="7.733979514711672"><ele>231.5714285714286</ele><time>2026-04-10T14:40:34Z</time></trkpt><trkpt lat="45.079716198791616" lon="7.734079117144551"><ele>232.00000000000003</ele><time>2026-04-10T14:40:36Z</time></trkpt><trkpt lat="45.07969237707429" lon="7.7341756367311305"><ele>231.99999999999997</ele><time>2026-04-10T14:40:38Z</time></trkpt><trkpt lat="45.079661832202596" lon="7.734270938825418"><ele>232.0</ele><time>2026-04-10T14:40:40Z</time></trkpt><trkpt lat="45.079636687749556" lon="7.734363583453056"><ele>232.0</ele><time>2026-04-10T14:40:42Z</time></trkpt><trkpt lat="45.079601354801554" lon="7.734450260991537"><ele>232.0</ele><time>2026-04-10T14:40:45Z</time></trkpt><trkpt lat="45.07955607289046" lon="7.7345707537854205"><ele>231.99999999999997</ele><time>2026-04-10T14:40:48Z</time></trkpt><trkpt lat="45.079512319127176" lon="7.734677932721364"><ele>232.0</ele><time>2026-04-10T14:40:51Z</time></trkpt><trkpt lat="45.07947059728133" lon="7.734781401991855"><ele>232.49999999999997</ele><time>2026-04-10T14:40:53Z</time></trkpt><trkpt lat="45.07942559243907" lon="7.734892967385222"><ele>233.0</ele><time>2026-04-10T14:40:56Z</time></trkpt><trkpt lat="45.07938441478991" lon="7.734987096375572"><ele>233.5</ele><time>2026-04-10T14:40:58Z</time></trkpt><trkpt lat="45.07934317486524" lon="7.7350861459665685"><ele>234.0</ele><time>2026-04-10T14:41:00Z</time></trkpt><trkpt lat="45.079297058058074" lon="7.73517096327033"><ele>234.49999999999997</ele><time>2026-04-10T14:41:02Z</time></trkpt><trkpt lat="45.07925349970418" lon="7.735258523029837"><ele>235.0</ele><time>2026-04-10T14:41:04Z</time></trkpt><trkpt lat="45.07921144185404" lon="7.73533002666051"><ele>235.42857142857142</ele><time>2026-04-10T14:41:06Z</time></trkpt><trkpt lat="45.07916183981696" lon="7.735396705742885"><ele>235.85714285714283</ele><time>2026-04-10T14:41:08Z</time></trkpt><trkpt lat="45.07911564122604" lon="7.735471855921662"><ele>236.28571428571428</ele><time>2026-04-10T14:41:10Z</time></trkpt><trkpt lat="45.079068852771634" lon="7.735573354791552"><ele>236.71428571428572</ele><time>2026-04-10T14:41:12Z</time></trkpt><trkpt lat="45.0790284705747" lon="7.735661052447648"><ele>237.14285714285714</ele><time>2026-04-10T14:41:14Z</time></trkpt><trkpt lat="45.07898751847075" lon="7.735752692695836"><ele>237.57142857142856</ele><time>2026-04-10T14:41:16Z</time></trkpt><trkpt lat="45.07895147590762" lon="7.735836121718177"><ele>238.0</ele><time>2026-04-10T14:41:18Z</time></trkpt><trkpt lat="45.07890859462203" lon="7.73591535278804"><ele>238.0</ele><time>2026-04-10T14:41:20Z</time></trkpt><trkpt lat="45.07888280718433" lon="7.736016309547311"><ele>238.0</ele><time>2026-04-10T14:41:22Z</time></trkpt><trkpt lat="45.07885751073048" lon="7.736121163949637"><ele>238.0</ele><time>2026-04-10T14:41:24Z</time></trkpt><trkpt lat="45.078818067407774" lon="7.736200554233572"><ele>238.0</ele><time>2026-04-10T14:41:26Z</time></trkpt><trkpt lat="45.07877373669816" lon="7.736290184390615"><ele>238.0</ele><time>2026-04-10T14:41:28Z</time></trkpt><trkpt lat="45.07873549159334" lon="7.736374325260932"><ele>238.0</ele><time>2026-04-10T14:41:30Z</time></trkpt><trkpt lat="45.07869715432235" lon="7.736460679616215"><ele>238.0</ele><time>2026-04-10T14:41:32Z</time></trkpt><trkpt lat="45.07865917015349" lon="7.736578761814431"><ele>238.0</ele><time>2026-04-10T14:41:35Z</time></trkpt><trkpt lat="45.07861973130974" lon="7.73667561107513"><ele>238.0</ele><time>2026-04-10T14:41:37Z</time></trkpt><trkpt lat="45.078588820545946" lon="7.736775211819391"><ele>238.0</ele><time>2026-04-10T14:41:39Z</time></trkpt><trkpt lat="45.07855277779178" lon="7.736866800253007"><ele>238.0</ele><time>2026-04-10T14:41:41Z</time></trkpt><trkpt lat="45.078512598553296" lon="7.736950202098649"><ele>238.0</ele><time>2026-04-10T14:41:43Z</time></trkpt><trkpt lat="45.07846855639442" lon="7.73703639711248"><ele>238.0</ele><time>2026-04-10T14:41:45Z</time></trkpt><trkpt lat="45.07843051097589" lon="7.737123573443313"><ele>238.0</ele><time>2026-04-10T14:41:47Z</time></trkpt><trkpt lat="45.07838583888615" lon="7.737210124591902"><ele>238.28571428571428</ele><time>2026-04-10T14:41:49Z</time></trkpt><trkpt lat="45.078342136238845" lon="7.73728461414975"><ele>238.57142857142856</ele><time>2026-04-10T14:41:50.999Z</time></trkpt><trkpt lat="45.07828745686694" lon="7.737347364122842"><ele>238.85714285714286</ele><time>2026-04-10T14:41:52.999Z</time></trkpt><trkpt lat="45.07823090374083" lon="7.737403787370341"><ele>239.14285714285714</ele><time>2026-04-10T14:41:54.999Z</time></trkpt><trkpt lat="45.078185925994575" lon="7.737472863311867"><ele>239.42857142857142</ele><time>2026-04-10T14:41:56.999Z</time></trkpt><trkpt lat="45.07812976265621" lon="7.737543068140621"><ele>239.71428571428572</ele><time>2026-04-10T14:41:58.999Z</time></trkpt><trkpt lat="45.07806505645841" lon="7.737631536866047"><ele>240.0</ele><time>2026-04-10T14:42:01.999Z</time></trkpt><trkpt lat="45.078018963837934" lon="7.737700636244594"><ele>240.5</ele><time>2026-04-10T14:42:03.999Z</time></trkpt><trkpt lat="45.07796830430956" lon="7.737777370489333"><ele>241.0</ele><time>2026-04-10T14:42:05.999Z</time></trkpt><trkpt lat="45.07790421641792" lon="7.737827278916243"><ele>241.5</ele><time>2026-04-10T14:42:07.999Z</time></trkpt><trkpt lat="45.07784046091852" lon="7.737884922909655"><ele>242.0</ele><time>2026-04-10T14:42:09.999Z</time></trkpt><trkpt lat="45.077777441375915" lon="7.737951953983882"><ele>242.5</ele><time>2026-04-10T14:42:12.999Z</time></trkpt><trkpt lat="45.07768116793384" lon="7.73805670548897"><ele>243.0</ele><time>2026-04-10T14:42:15.999Z</time></trkpt><trkpt lat="45.077631977474375" lon="7.738119347887968"><ele>243.0</ele><time>2026-04-10T14:42:16.999Z</time></trkpt><trkpt lat="45.07756759165582" lon="7.738185591962373"><ele>243.0</ele><time>2026-04-10T14:42:18.999Z</time></trkpt><trkpt lat="45.07750689113888" lon="7.738256189697408"><ele>243.0</ele><time>2026-04-10T14:42:20.999Z</time></trkpt><trkpt lat="45.077442328259" lon="7.738316804490346"><ele>243.0</ele><time>2026-04-10T14:42:22.999Z</time></trkpt><trkpt lat="45.07737619465972" lon="7.738385057773293"><ele>243.0</ele><time>2026-04-10T14:42:24.999Z</time></trkpt><trkpt lat="45.07731556679184" lon="7.738453521560231"><ele>243.0</ele><time>2026-04-10T14:42:26.999Z</time></trkpt><trkpt lat="45.07725093852093" lon="7.738516382835992"><ele>243.83333333333334</ele><time>2026-04-10T14:42:28.999Z</time></trkpt><trkpt lat="45.07718582765498" lon="7.7385649882786245"><ele>244.66666666666669</ele><time>2026-04-10T14:42:30.999Z</time></trkpt><trkpt lat="45.07711878670339" lon="7.738609140855658"><ele>245.5</ele><time>2026-04-10T14:42:33Z</time></trkpt><trkpt lat="45.077050686032486" lon="7.738646782799724"><ele>246.33333333333334</ele><time>2026-04-10T14:42:35Z</time></trkpt><trkpt lat="45.07696905708552" lon="7.738672442278345"><ele>247.16666666666669</ele><time>2026-04-10T14:42:37Z</time></trkpt><trkpt lat="45.076892898678864" lon="7.738723415584787"><ele>248.0</ele><time>2026-04-10T14:42:39Z</time></trkpt><trkpt lat="45.07682169830343" lon="7.738752881287174"><ele>248.00000000000003</ele><time>2026-04-10T14:42:41Z</time></trkpt><trkpt lat="45.07674161983862" lon="7.738789819744468"><ele>248.0</ele><time>2026-04-10T14:42:43Z</time></trkpt><trkpt lat="45.07666234521672" lon="7.738823794900175"><ele>248.0</ele><time>2026-04-10T14:42:45Z</time></trkpt><trkpt lat="45.076587688790035" lon="7.7388664611104225"><ele>248.0</ele><time>2026-04-10T14:42:47Z</time></trkpt><trkpt lat="45.0765120389779" lon="7.738899617568286"><ele>248.00000000000003</ele><time>2026-04-10T14:42:49Z</time></trkpt><trkpt lat="45.07643841348241" lon="7.738931817759322"><ele>248.0</ele><time>2026-04-10T14:42:51Z</time></trkpt><trkpt lat="45.07636654060443" lon="7.738974188958314"><ele>248.50000000000003</ele><time>2026-04-10T14:42:53Z</time></trkpt><trkpt lat="45.076297236970674" lon="7.739011508549765"><ele>249.0</ele><time>2026-04-10T14:42:55Z</time></trkpt><trkpt lat="45.07623268318933" lon="7.739041419895364"><ele>249.5</ele><time>2026-04-10T14:42:57Z</time></trkpt><trkpt lat="45.07616985244448" lon="7.739086811236237"><ele>250.0</ele><time>2026-04-10T14:42:59Z</time></trkpt><trkpt lat="45.076125861810056" lon="7.739159788414221"><ele>250.50000000000003</ele><time>2026-04-10T14:43:01Z</time></trkpt><trkpt lat="45.07612888579792" lon="7.739272935917942"><ele>251.0</ele><time>2026-04-10T14:43:04Z</time></trkpt><trkpt lat="45.076151205573375" lon="7.739405622036355"><ele>251.00000000000003</ele><time>2026-04-10T14:43:06Z</time></trkpt><trkpt lat="45.076180611880595" lon="7.739503999964421"><ele>251.0</ele><time>2026-04-10T14:43:09Z</time></trkpt><trkpt lat="45.07621195189595" lon="7.739607677118854"><ele>251.0</ele><time>2026-04-10T14:43:11Z</time></trkpt><trkpt lat="45.076248324919916" lon="7.739732062308907"><ele>251.0</ele><time>2026-04-10T14:43:13Z</time></trkpt><trkpt lat="45.07628406095935" lon="7.739822212932294"><ele>251.00000000000003</ele><time>2026-04-10T14:43:15Z</time></trkpt><trkpt lat="45.07630967653202" lon="7.739925029976751"><ele>251.0</ele><time>2026-04-10T14:43:17Z</time></trkpt><trkpt lat="45.07630223937074" lon="7.740029975592724"><ele>251.00000000000003</ele><time>2026-04-10T14:43:19Z</time></trkpt><trkpt lat="45.076286331296195" lon="7.740140307825902"><ele>251.0</ele><time>2026-04-10T14:43:21Z</time></trkpt><trkpt lat="45.07627048350659" lon="7.740245614270057"><ele>251.0</ele><time>2026-04-10T14:43:23Z</time></trkpt><trkpt lat="45.076256384661555" lon="7.7403542597471375"><ele>251.0</ele><time>2026-04-10T14:43:25Z</time></trkpt><trkpt lat="45.076227050518355" lon="7.740480121037425"><ele>251.00000000000003</ele><time>2026-04-10T14:43:27Z</time></trkpt><trkpt lat="45.07621309708519" lon="7.740580999350477"><ele>251.0</ele><time>2026-04-10T14:43:29Z</time></trkpt><trkpt lat="45.07619816826704" lon="7.740677789544521"><ele>251.1428571428571</ele><time>2026-04-10T14:43:31Z</time></trkpt><trkpt lat="45.07616774538063" lon="7.740761020653764"><ele>251.28571428571428</ele><time>2026-04-10T14:43:33Z</time></trkpt><trkpt lat="45.07613396841357" lon="7.740852536599657"><ele>251.42857142857142</ele><time>2026-04-10T14:43:35Z</time></trkpt><trkpt lat="45.0761015717732" lon="7.74093591203672"><ele>251.57142857142856</ele><time>2026-04-10T14:43:37Z</time></trkpt><trkpt lat="45.07606724662917" lon="7.7410159442952935"><ele>251.71428571428572</ele><time>2026-04-10T14:43:39Z</time></trkpt><trkpt lat="45.07601387988254" lon="7.741082781942617"><ele>251.85714285714286</ele><time>2026-04-10T14:43:41Z</time></trkpt><trkpt lat="45.075957663206715" lon="7.74113049731846"><ele>252.0</ele><time>2026-04-10T14:43:43Z</time></trkpt><trkpt lat="45.075885278843884" lon="7.741141719654382"><ele>252.5</ele><time>2026-04-10T14:43:45Z</time></trkpt><trkpt lat="45.07579785598685" lon="7.741162701429828"><ele>253.0</ele><time>2026-04-10T14:43:47.999Z</time></trkpt><trkpt lat="45.075725843100265" lon="7.741165189455951"><ele>253.5</ele><time>2026-04-10T14:43:50.999Z</time></trkpt><trkpt lat="45.07563115149937" lon="7.741166118559302"><ele>254.0</ele><time>2026-04-10T14:43:53.999Z</time></trkpt><trkpt lat="45.07553396761298" lon="7.741174040152818"><ele>254.5</ele><time>2026-04-10T14:43:55.999Z</time></trkpt><trkpt lat="45.07547375417527" lon="7.7412046379713395"><ele>255.0</ele><time>2026-04-10T14:43:57.999Z</time></trkpt><trkpt lat="45.07542007596751" lon="7.741328981326842"><ele>255.0</ele><time>2026-04-10T14:44:01.999Z</time></trkpt><trkpt lat="45.07539058999729" lon="7.74144191338166"><ele>255.0</ele><time>2026-04-10T14:44:04.999Z</time></trkpt><trkpt lat="45.07536949715624" lon="7.741561105697944"><ele>255.0</ele><time>2026-04-10T14:44:07.999Z</time></trkpt><trkpt lat="45.07537116430349" lon="7.741680142311259"><ele>255.0</ele><time>2026-04-10T14:44:09.999Z</time></trkpt><trkpt lat="45.075374587541724" lon="7.741789237150359"><ele>255.0</ele><time>2026-04-10T14:44:11.999Z</time></trkpt><trkpt lat="45.075363503083885" lon="7.741888369536781"><ele>255.0</ele><time>2026-04-10T14:44:13.999Z</time></trkpt><trkpt lat="45.0753482810691" lon="7.74197956051944"><ele>255.33333333333334</ele><time>2026-04-10T14:44:15.999Z</time></trkpt><trkpt lat="45.075312849808405" lon="7.742120688063967"><ele>255.66666666666669</ele><time>2026-04-10T14:44:17.999Z</time></trkpt><trkpt lat="45.07528327996208" lon="7.742238136697838"><ele>256.0</ele><time>2026-04-10T14:44:19.999Z</time></trkpt><trkpt lat="45.075246292166355" lon="7.742354903941076"><ele>256.33333333333337</ele><time>2026-04-10T14:44:21.999Z</time></trkpt><trkpt lat="45.075203173380224" lon="7.742458178516537"><ele>256.6666666666667</ele><time>2026-04-10T14:44:24.999Z</time></trkpt><trkpt lat="45.07516938192039" lon="7.742555418030766"><ele>257.0</ele><time>2026-04-10T14:44:25.999Z</time></trkpt><trkpt lat="45.07514672763931" lon="7.742645095244817"><ele>256.83333333333337</ele><time>2026-04-10T14:44:27.999Z</time></trkpt><trkpt lat="45.075107296209396" lon="7.742758742196769"><ele>256.6666666666667</ele><time>2026-04-10T14:44:29.999Z</time></trkpt><trkpt lat="45.07506287243214" lon="7.742849861279277"><ele>256.5</ele><time>2026-04-10T14:44:31.999Z</time></trkpt><trkpt lat="45.07502344870235" lon="7.742940728900851"><ele>256.3333333333333</ele><time>2026-04-10T14:44:33.999Z</time></trkpt><trkpt lat="45.07498016222018" lon="7.74302636960662"><ele>256.16666666666663</ele><time>2026-04-10T14:44:36.999Z</time></trkpt><trkpt lat="45.074940221919746" lon="7.743105594527484"><ele>256.0</ele><time>2026-04-10T14:44:38Z</time></trkpt><trkpt lat="45.07488890569556" lon="7.743182267680133"><ele>257.1428571428571</ele><time>2026-04-10T14:44:41Z</time></trkpt><trkpt lat="45.074841531614204" lon="7.743256234315698"><ele>258.2857142857143</ele><time>2026-04-10T14:44:42Z</time></trkpt><trkpt lat="45.07479644394029" lon="7.743321085063821"><ele>259.42857142857144</ele><time>2026-04-10T14:44:44Z</time></trkpt><trkpt lat="45.07474444567723" lon="7.743407630094558"><ele>260.57142857142856</ele><time>2026-04-10T14:44:46Z</time></trkpt><trkpt lat="45.074689175107565" lon="7.743491011394453"><ele>261.7142857142857</ele><time>2026-04-10T14:44:48Z</time></trkpt><trkpt lat="45.07463775304816" lon="7.74358218514226"><ele>262.85714285714283</ele><time>2026-04-10T14:44:51Z</time></trkpt><trkpt lat="45.07458645205198" lon="7.7436440178135175"><ele>264.0</ele><time>2026-04-10T14:44:53Z</time></trkpt><trkpt lat="45.074491225472464" lon="7.743780255914905"><ele>264.0</ele><time>2026-04-10T14:44:55Z</time></trkpt><trkpt lat="45.07444022144982" lon="7.743853088994029"><ele>264.0</ele><time>2026-04-10T14:44:57Z</time></trkpt><trkpt lat="45.07437760020797" lon="7.743908108209787"><ele>264.0</ele><time>2026-04-10T14:44:59Z</time></trkpt><trkpt lat="45.07430677663451" lon="7.743945398145545"><ele>264.0</ele><time>2026-04-10T14:45:01Z</time></trkpt><trkpt lat="45.07423649841917" lon="7.743985234091877"><ele>264.0</ele><time>2026-04-10T14:45:03Z</time></trkpt><trkpt lat="45.07416710183984" lon="7.744027571598196"><ele>264.0</ele><time>2026-04-10T14:45:05Z</time></trkpt><trkpt lat="45.0741013238214" lon="7.744080760997733"><ele>264.0</ele><time>2026-04-10T14:45:08Z</time></trkpt><trkpt lat="45.074038614459475" lon="7.744169763419938"><ele>267.85714285714283</ele><time>2026-04-10T14:45:11Z</time></trkpt><trkpt lat="45.073995554404554" lon="7.744248699434333"><ele>271.7142857142857</ele><time>2026-04-10T14:45:13Z</time></trkpt><trkpt lat="45.07395696914668" lon="7.744332867809339"><ele>275.57142857142856</ele><time>2026-04-10T14:45:15Z</time></trkpt><trkpt lat="45.07389892920364" lon="7.744429546615233"><ele>279.42857142857144</ele><time>2026-04-10T14:45:18Z</time></trkpt><trkpt lat="45.07385974194726" lon="7.744527254635777"><ele>283.2857142857143</ele><time>2026-04-10T14:45:20Z</time></trkpt><trkpt lat="45.07381941097359" lon="7.7445957369677565"><ele>287.1428571428571</ele><time>2026-04-10T14:45:22Z</time></trkpt><trkpt lat="45.073794766816455" lon="7.744685058745185"><ele>291.0</ele><time>2026-04-10T14:45:24Z</time></trkpt><trkpt lat="45.073765342733644" lon="7.744804426924105"><ele>291.0</ele><time>2026-04-10T14:45:26Z</time></trkpt><trkpt lat="45.07375784736762" lon="7.744900840734816"><ele>291.0</ele><time>2026-04-10T14:45:28Z</time></trkpt><trkpt lat="45.073762481776235" lon="7.745034313853315"><ele>291.0</ele><time>2026-04-10T14:45:31Z</time></trkpt><trkpt lat="45.07377430570735" lon="7.7451845885658175"><ele>291.0</ele><time>2026-04-10T14:45:34Z</time></trkpt><trkpt lat="45.07380284393698" lon="7.745276656129054"><ele>291.0</ele><time>2026-04-10T14:45:36Z</time></trkpt><trkpt lat="45.073821469847786" lon="7.745380976299627"><ele>291.0</ele><time>2026-04-10T14:45:39Z</time></trkpt><trkpt lat="45.0738273748633" lon="7.745470354435546"><ele>290.1428571428571</ele><time>2026-04-10T14:45:41Z</time></trkpt><trkpt lat="45.0738358213133" lon="7.745558704019017"><ele>289.2857142857143</ele><time>2026-04-10T14:45:43Z</time></trkpt><trkpt lat="45.073827472915845" lon="7.745701531580234"><ele>288.42857142857144</ele><time>2026-04-10T14:45:46Z</time></trkpt><trkpt lat="45.073820385094805" lon="7.745800043832602"><ele>287.57142857142856</ele><time>2026-04-10T14:45:48Z</time></trkpt><trkpt lat="45.073799965834596" lon="7.745889925541963"><ele>286.7142857142857</ele><time>2026-04-10T14:45:50.999Z</time></trkpt><trkpt lat="45.07378973357713" lon="7.745980838429551"><ele>285.85714285714283</ele><time>2026-04-10T14:45:52.999Z</time></trkpt><trkpt lat="45.07379318741539" lon="7.746075132577561"><ele>285.0</ele><time>2026-04-10T14:45:54.999Z</time></trkpt><trkpt lat="45.073822730600476" lon="7.746163256051774"><ele>284.0</ele><time>2026-04-10T14:45:56.999Z</time></trkpt><trkpt lat="45.07387011474177" lon="7.746276909169175"><ele>283.0</ele><time>2026-04-10T14:45:59.999Z</time></trkpt><trkpt lat="45.073896895089554" lon="7.746397184332398"><ele>282.0</ele><time>2026-04-10T14:46:02.999Z</time></trkpt><trkpt lat="45.07391730068373" lon="7.746515304947938"><ele>281.0</ele><time>2026-04-10T14:46:05.999Z</time></trkpt><trkpt lat="45.07391023462915" lon="7.746672405876693"><ele>280.0</ele><time>2026-04-10T14:46:08.999Z</time></trkpt><trkpt lat="45.07387672478832" lon="7.746785212697857"><ele>279.0</ele><time>2026-04-10T14:46:11.999Z</time></trkpt><trkpt lat="45.07383091236109" lon="7.746891436967087"><ele>278.0</ele><time>2026-04-10T14:46:14.999Z</time></trkpt><trkpt lat="45.073783744197726" lon="7.746998286156864"><ele>277.0</ele><time>2026-04-10T14:46:17.999Z</time></trkpt><trkpt lat="45.073734878653596" lon="7.747086612955494"><ele>276.0</ele><time>2026-04-10T14:46:19.999Z</time></trkpt><trkpt lat="45.07367605682413" lon="7.747170594643121"><ele>275.0</ele><time>2026-04-10T14:46:22.999Z</time></trkpt><trkpt lat="45.073613731186285" lon="7.747265370130416"><ele>274.0</ele><time>2026-04-10T14:46:25.999Z</time></trkpt><trkpt lat="45.07356574038777" lon="7.747345767128966"><ele>274.0</ele><time>2026-04-10T14:46:27.999Z</time></trkpt><trkpt lat="45.07350283772873" lon="7.747417674081274"><ele>274.0</ele><time>2026-04-10T14:46:30.999Z</time></trkpt><trkpt lat="45.07343856371951" lon="7.747499468343034"><ele>274.0</ele><time>2026-04-10T14:46:33.999Z</time></trkpt><trkpt lat="45.07337927526167" lon="7.747567172484244"><ele>274.0</ele><time>2026-04-10T14:46:35.999Z</time></trkpt><trkpt lat="45.073304288300115" lon="7.747634589722726"><ele>274.0</ele><time>2026-04-10T14:46:38.999Z</time></trkpt><trkpt lat="45.073227343690135" lon="7.747703238232001"><ele>274.0</ele><time>2026-04-10T14:46:41.999Z</time></trkpt><trkpt lat="45.07316049320982" lon="7.747764784893397"><ele>278.0</ele><time>2026-04-10T14:46:44Z</time></trkpt><trkpt lat="45.073079684308354" lon="7.747835207122458"><ele>282.0</ele><time>2026-04-10T14:46:47Z</time></trkpt><trkpt lat="45.07301996712214" lon="7.747917138229396"><ele>286.0</ele><time>2026-04-10T14:46:51Z</time></trkpt><trkpt lat="45.0729635868562" lon="7.748015643319389"><ele>290.0</ele><time>2026-04-10T14:46:54Z</time></trkpt><trkpt lat="45.07291781076188" lon="7.748163040395257"><ele>294.0</ele><time>2026-04-10T14:46:57Z</time></trkpt><trkpt lat="45.072901777301915" lon="7.748277195510642"><ele>294.0</ele><time>2026-04-10T14:47:00Z</time></trkpt><trkpt lat="45.07288695105885" lon="7.748396615471526"><ele>294.0</ele><time>2026-04-10T14:47:03Z</time></trkpt><trkpt lat="45.07288116819803" lon="7.748501053927637"><ele>294.0</ele><time>2026-04-10T14:47:05Z</time></trkpt><trkpt lat="45.07287999268675" lon="7.74861957191443"><ele>294.0</ele><time>2026-04-10T14:47:08Z</time></trkpt><trkpt lat="45.07286857659785" lon="7.748751065914349"><ele>294.0</ele><time>2026-04-10T14:47:11Z</time></trkpt><trkpt lat="45.072842216944224" lon="7.748870788494209"><ele>294.0</ele><time>2026-04-10T14:47:14Z</time></trkpt><trkpt lat="45.07283008393852" lon="7.748978098256605"><ele>292.3333333333333</ele><time>2026-04-10T14:47:16Z</time></trkpt><trkpt lat="45.07282124203866" lon="7.749096215430812"><ele>290.6666666666667</ele><time>2026-04-10T14:47:18Z</time></trkpt><trkpt lat="45.07281684053106" lon="7.749196344119401"><ele>289.0</ele><time>2026-04-10T14:47:20Z</time></trkpt><trkpt lat="45.07280230015722" lon="7.749298808933629"><ele>287.33333333333337</ele><time>2026-04-10T14:47:23Z</time></trkpt><trkpt lat="45.07279030361839" lon="7.749402201536966"><ele>285.6666666666667</ele><time>2026-04-10T14:47:25Z</time></trkpt><trkpt lat="45.07275557815987" lon="7.7494960004942195"><ele>284.0</ele><time>2026-04-10T14:47:27Z</time></trkpt><trkpt lat="45.07272092019595" lon="7.749599059259228"><ele>283.5</ele><time>2026-04-10T14:47:30Z</time></trkpt><trkpt lat="45.072689412597384" lon="7.7497223347373145"><ele>283.0</ele><time>2026-04-10T14:47:33Z</time></trkpt><trkpt lat="45.07265028903266" lon="7.74981383816745"><ele>282.5</ele><time>2026-04-10T14:47:35Z</time></trkpt><trkpt lat="45.072600924609446" lon="7.749910220339213"><ele>282.0</ele><time>2026-04-10T14:47:38Z</time></trkpt><trkpt lat="45.07255316203917" lon="7.750008643115882"><ele>281.5</ele><time>2026-04-10T14:47:40Z</time></trkpt><trkpt lat="45.072511215897194" lon="7.750079293615612"><ele>281.0</ele><time>2026-04-10T14:47:42Z</time></trkpt><trkpt lat="45.072475523745105" lon="7.7501717907568555"><ele>281.6666666666667</ele><time>2026-04-10T14:47:44Z</time></trkpt><trkpt lat="45.07244421357336" lon="7.750250010312969"><ele>282.33333333333337</ele><time>2026-04-10T14:47:46Z</time></trkpt><trkpt lat="45.072409817217505" lon="7.750327064906758"><ele>283.0</ele><time>2026-04-10T14:47:48Z</time></trkpt><trkpt lat="45.072381051315084" lon="7.750411674203385"><ele>283.6666666666667</ele><time>2026-04-10T14:47:50Z</time></trkpt><trkpt lat="45.07234652349082" lon="7.7505199138001855"><ele>284.3333333333333</ele><time>2026-04-10T14:47:53Z</time></trkpt><trkpt lat="45.07231144968688" lon="7.750650606404179"><ele>285.0</ele><time>2026-04-10T14:47:56Z</time></trkpt><trkpt lat="45.07228089698338" lon="7.750759685894726"><ele>285.6666666666667</ele><time>2026-04-10T14:47:59Z</time></trkpt><trkpt lat="45.07224844597914" lon="7.750855747828521"><ele>286.3333333333333</ele><time>2026-04-10T14:48:00.999Z</time></trkpt><trkpt lat="45.07221673583994" lon="7.750954235354746"><ele>287.0</ele><time>2026-04-10T14:48:02.999Z</time></trkpt><trkpt lat="45.07218445289348" lon="7.751080184822184"><ele>287.66666666666663</ele><time>2026-04-10T14:48:05.999Z</time></trkpt><trkpt lat="45.07215720644128" lon="7.751163386149936"><ele>288.3333333333333</ele><time>2026-04-10T14:48:08.999Z</time></trkpt><trkpt lat="45.07212082825279" lon="7.751276739163728"><ele>289.0</ele><time>2026-04-10T14:48:11.999Z</time></trkpt><trkpt lat="45.07207751529549" lon="7.751389584918203"><ele>289.0</ele><time>2026-04-10T14:48:14.999Z</time></trkpt><trkpt lat="45.07204471237682" lon="7.751505801494979"><ele>289.0</ele><time>2026-04-10T14:48:17.999Z</time></trkpt><trkpt lat="45.072010597358435" lon="7.751600834070377"><ele>289.0</ele><time>2026-04-10T14:48:19.999Z</time></trkpt><trkpt lat="45.071962018847465" lon="7.751706185575613"><ele>289.0</ele><time>2026-04-10T14:48:22.999Z</time></trkpt><trkpt lat="45.07193230528402" lon="7.751815708234191"><ele>289.0</ele><time>2026-04-10T14:48:25.999Z</time></trkpt><trkpt lat="45.07189308131331" lon="7.751906235897577"><ele>289.0</ele><time>2026-04-10T14:48:28.999Z</time></trkpt><trkpt lat="45.07183854714148" lon="7.751985752228633"><ele>289.8333333333333</ele><time>2026-04-10T14:48:31.999Z</time></trkpt><trkpt lat="45.07177092050891" lon="7.752032372153203"><ele>290.66666666666663</ele><time>2026-04-10T14:48:34.999Z</time></trkpt><trkpt lat="45.071700421643214" lon="7.752066006923582"><ele>291.5</ele><time>2026-04-10T14:48:37.999Z</time></trkpt><trkpt lat="45.07162780703327" lon="7.752094147382059"><ele>292.3333333333333</ele><time>2026-04-10T14:48:40.999Z</time></trkpt><trkpt lat="45.07154392333549" lon="7.752124831955327"><ele>293.1666666666667</ele><time>2026-04-10T14:48:43.999Z</time></trkpt><trkpt lat="45.07145659612696" lon="7.752165803743665"><ele>294.0</ele><time>2026-04-10T14:48:46.999Z</time></trkpt><trkpt lat="45.07137075530412" lon="7.752198233342589"><ele>294.42857142857144</ele><time>2026-04-10T14:48:50Z</time></trkpt><trkpt lat="45.07130952331339" lon="7.752223951137912"><ele>294.8571428571429</ele><time>2026-04-10T14:48:52Z</time></trkpt><trkpt lat="45.071221050806884" lon="7.752248638913765"><ele>295.2857142857143</ele><time>2026-04-10T14:48:54Z</time></trkpt><trkpt lat="45.07114435042986" lon="7.75224755143385"><ele>295.7142857142857</ele><time>2026-04-10T14:48:56Z</time></trkpt><trkpt lat="45.071069408769894" lon="7.752248029727026"><ele>296.14285714285717</ele><time>2026-04-10T14:48:58Z</time></trkpt><trkpt lat="45.070996113254594" lon="7.752254151034563"><ele>296.57142857142856</ele><time>2026-04-10T14:49:00Z</time></trkpt><trkpt lat="45.07092635196364" lon="7.7522464682726095"><ele>297.0</ele><time>2026-04-10T14:49:02Z</time></trkpt><trkpt lat="45.0708537164171" lon="7.752232194332522"><ele>297.0</ele><time>2026-04-10T14:49:04Z</time></trkpt><trkpt lat="45.070781585135485" lon="7.752240824912322"><ele>297.0</ele><time>2026-04-10T14:49:06Z</time></trkpt><trkpt lat="45.07071115687254" lon="7.7522353456179"><ele>297.0</ele><time>2026-04-10T14:49:08Z</time></trkpt><trkpt lat="45.07063817665233" lon="7.7522420959748155"><ele>297.0</ele><time>2026-04-10T14:49:10Z</time></trkpt><trkpt lat="45.07057304167268" lon="7.752265947355001"><ele>297.0</ele><time>2026-04-10T14:49:12Z</time></trkpt><trkpt lat="45.07050917095723" lon="7.752294889257305"><ele>297.0</ele><time>2026-04-10T14:49:14Z</time></trkpt><trkpt lat="45.070449081351974" lon="7.752335537015389"><ele>297.0</ele><time>2026-04-10T14:49:16Z</time></trkpt><trkpt lat="45.07039777470157" lon="7.752391825298507"><ele>297.5</ele><time>2026-04-10T14:49:18Z</time></trkpt><trkpt lat="45.070340852336074" lon="7.752466413110846"><ele>298.0</ele><time>2026-04-10T14:49:21Z</time></trkpt><trkpt lat="45.07027180049484" lon="7.752539660470878"><ele>298.5</ele><time>2026-04-10T14:49:24Z</time></trkpt><trkpt lat="45.07022773749301" lon="7.752639915081193"><ele>299.0</ele><time>2026-04-10T14:49:27Z</time></trkpt><trkpt lat="45.07018992884162" lon="7.752715702737797"><ele>299.5</ele><time>2026-04-10T14:49:29Z</time></trkpt><trkpt lat="45.07013569983343" lon="7.752822932641995"><ele>300.0</ele><time>2026-04-10T14:49:32Z</time></trkpt><trkpt lat="45.070082515415024" lon="7.752905309131268"><ele>300.0</ele><time>2026-04-10T14:49:34Z</time></trkpt><trkpt lat="45.07000699873212" lon="7.752978122469246"><ele>300.0</ele><time>2026-04-10T14:49:37Z</time></trkpt><trkpt lat="45.06992396271458" lon="7.753045397043266"><ele>300.0</ele><time>2026-04-10T14:49:40Z</time></trkpt><trkpt lat="45.069846283797865" lon="7.753093124445175"><ele>300.0</ele><time>2026-04-10T14:49:43Z</time></trkpt><trkpt lat="45.06977298247292" lon="7.7531336210243325"><ele>300.0</ele><time>2026-04-10T14:49:45Z</time></trkpt><trkpt lat="45.069689617483895" lon="7.753179090335047"><ele>300.0</ele><time>2026-04-10T14:49:48Z</time></trkpt><trkpt lat="45.06962834954273" lon="7.753211999300967"><ele>300.6</ele><time>2026-04-10T14:49:50Z</time></trkpt><trkpt lat="45.069540321038815" lon="7.753242330579565"><ele>301.2</ele><time>2026-04-10T14:49:53Z</time></trkpt><trkpt lat="45.06946096159789" lon="7.753293568186756"><ele>301.8</ele><time>2026-04-10T14:49:56Z</time></trkpt><trkpt lat="45.069382043341626" lon="7.7533306359449945"><ele>302.4</ele><time>2026-04-10T14:49:59Z</time></trkpt><trkpt lat="45.06927535526146" lon="7.753379661080052"><ele>303.0</ele><time>2026-04-10T14:50:01Z</time></trkpt><trkpt lat="45.0691834037902" lon="7.753418533449107"><ele>303.0</ele><time>2026-04-10T14:50:04Z</time></trkpt><trkpt lat="45.069111080024186" lon="7.75344615962408"><ele>303.0</ele><time>2026-04-10T14:50:06Z</time></trkpt><trkpt lat="45.069044647317305" lon="7.7534808031143925"><ele>303.0</ele><time>2026-04-10T14:50:08Z</time></trkpt><trkpt lat="45.068982950495574" lon="7.753526472102881"><ele>303.0</ele><time>2026-04-10T14:50:10Z</time></trkpt><trkpt lat="45.06893015994965" lon="7.753581464351107"><ele>303.0</ele><time>2026-04-10T14:50:12Z</time></trkpt><trkpt lat="45.06887479771919" lon="7.753635101888747"><ele>303.0</ele><time>2026-04-10T14:50:14Z</time></trkpt><trkpt lat="45.06880861709486" lon="7.753727693476737"><ele>303.0</ele><time>2026-04-10T14:50:18Z</time></trkpt><trkpt lat="45.068756909904295" lon="7.753796683705434"><ele>304.0</ele><time>2026-04-10T14:50:19.999Z</time></trkpt><trkpt lat="45.068710850619155" lon="7.753876838110849"><ele>305.0</ele><time>2026-04-10T14:50:22.999Z</time></trkpt><trkpt lat="45.068676368449914" lon="7.75395746748017"><ele>306.0</ele><time>2026-04-10T14:50:24.999Z</time></trkpt><trkpt lat="45.06864248967105" lon="7.754065756671973"><ele>307.0</ele><time>2026-04-10T14:50:27.999Z</time></trkpt><trkpt lat="45.068619564444724" lon="7.754170492284814"><ele>308.0</ele><time>2026-04-10T14:50:29.999Z</time></trkpt><trkpt lat="45.0686380240167" lon="7.754284721135368"><ele>309.0</ele><time>2026-04-10T14:50:32.999Z</time></trkpt><trkpt lat="45.06869526724549" lon="7.754325554401021"><ele>310.0</ele><time>2026-04-10T14:50:34.999Z</time></trkpt><trkpt lat="45.068741242051736" lon="7.754393926596696"><ele>310.0</ele><time>2026-04-10T14:50:36.999Z</time></trkpt><trkpt lat="45.06873571801114" lon="7.754504956879569"><ele>310.0</ele><time>2026-04-10T14:50:38.999Z</time></trkpt><trkpt lat="45.06871029119414" lon="7.754599266502328"><ele>310.0</ele><time>2026-04-10T14:50:40.999Z</time></trkpt><trkpt lat="45.068689279356455" lon="7.754698456433942"><ele>310.0</ele><time>2026-04-10T14:50:42.999Z</time></trkpt><trkpt lat="45.068673528222" lon="7.754797589782481"><ele>310.0</ele><time>2026-04-10T14:50:44.999Z</time></trkpt><trkpt lat="45.06865906049932" lon="7.754898102683763"><ele>310.0</ele><time>2026-04-10T14:50:47.999Z</time></trkpt><trkpt lat="45.06862765190741" lon="7.755007199817685"><ele>310.0</ele><time>2026-04-10T14:50:50.999Z</time></trkpt><trkpt lat="45.068609809840225" lon="7.7551021182193365"><ele>310.0</ele><time>2026-04-10T14:50:52.999Z</time></trkpt><trkpt lat="45.06860967666898" lon="7.7552178357475015"><ele>310.0</ele><time>2026-04-10T14:50:56Z</time></trkpt><trkpt lat="45.068613236843944" lon="7.755322048485446"><ele>310.0</ele><time>2026-04-10T14:50:59Z</time></trkpt><trkpt lat="45.06863551451294" lon="7.755426436071648"><ele>310.0</ele><time>2026-04-10T14:51:02Z</time></trkpt><trkpt lat="45.06865513165216" lon="7.755517427996168"><ele>310.0</ele><time>2026-04-10T14:51:04Z</time></trkpt><trkpt lat="45.06870156552417" lon="7.755596421608576"><ele>310.0</ele><time>2026-04-10T14:51:06Z</time></trkpt><trkpt lat="45.068738333798606" lon="7.755671497372492"><ele>310.16666666666663</ele><time>2026-04-10T14:51:08Z</time></trkpt><trkpt lat="45.068810823734424" lon="7.75575339101106"><ele>310.3333333333333</ele><time>2026-04-10T14:51:11Z</time></trkpt><trkpt lat="45.06887318916834" lon="7.755846020808611"><ele>310.5</ele><time>2026-04-10T14:51:14Z</time></trkpt><trkpt lat="45.06891697033883" lon="7.755914512344059"><ele>310.6666666666667</ele><time>2026-04-10T14:51:16Z</time></trkpt><trkpt lat="45.06898035176779" lon="7.756003204668825"><ele>310.83333333333337</ele><time>2026-04-10T14:51:19Z</time></trkpt><trkpt lat="45.06901317653351" lon="7.7560962528543795"><ele>311.0</ele><time>2026-04-10T14:51:22Z</time></trkpt><trkpt lat="45.069033440818735" lon="7.7562035553947"><ele>312.0</ele><time>2026-04-10T14:51:25Z</time></trkpt><trkpt lat="45.069057984368456" lon="7.756306453236392"><ele>313.0</ele><time>2026-04-10T14:51:28Z</time></trkpt><trkpt lat="45.06906287096948" lon="7.756441655487032"><ele>314.0</ele><time>2026-04-10T14:51:32Z</time></trkpt><trkpt lat="45.06908023017786" lon="7.756537468848863"><ele>315.0</ele><time>2026-04-10T14:51:35Z</time></trkpt><trkpt lat="45.06909247046127" lon="7.7566285734700395"><ele>316.0</ele><time>2026-04-10T14:51:38Z</time></trkpt><trkpt lat="45.069097862128636" lon="7.756720816008217"><ele>317.0</ele><time>2026-04-10T14:51:41Z</time></trkpt><trkpt lat="45.06912413593699" lon="7.756818337562172"><ele>318.0</ele><time>2026-04-10T14:51:44Z</time></trkpt><trkpt lat="45.069157907691796" lon="7.756913253046041"><ele>320.57142857142856</ele><time>2026-04-10T14:51:47Z</time></trkpt><trkpt lat="45.069212599284185" lon="7.757013275542291"><ele>323.14285714285717</ele><time>2026-04-10T14:51:51Z</time></trkpt><trkpt lat="45.069264132469925" lon="7.757083238943877"><ele>325.7142857142857</ele><time>2026-04-10T14:51:54Z</time></trkpt><trkpt lat="45.06931531890546" lon="7.757138085775493"><ele>328.2857142857143</ele><time>2026-04-10T14:51:57Z</time></trkpt><trkpt lat="45.06935118494725" lon="7.757212912112268"><ele>330.8571428571429</ele><time>2026-04-10T14:52:00Z</time></trkpt><trkpt lat="45.06939364074197" lon="7.7572985483899775"><ele>333.42857142857144</ele><time>2026-04-10T14:52:03Z</time></trkpt><trkpt lat="45.069426562804495" lon="7.757402879092561"><ele>336.0</ele><time>2026-04-10T14:52:06Z</time></trkpt><trkpt lat="45.06945416776717" lon="7.757513742556438"><ele>336.0</ele><time>2026-04-10T14:52:09Z</time></trkpt><trkpt lat="45.06947331428412" lon="7.757614742315021"><ele>336.0</ele><time>2026-04-10T14:52:12Z</time></trkpt><trkpt lat="45.06948665471428" lon="7.757704018676606"><ele>336.0</ele><time>2026-04-10T14:52:14Z</time></trkpt><trkpt lat="45.06951048575856" lon="7.75781064441538"><ele>336.0</ele><time>2026-04-10T14:52:17Z</time></trkpt><trkpt lat="45.06952610196706" lon="7.757909979714645"><ele>336.0</ele><time>2026-04-10T14:52:20Z</time></trkpt><trkpt lat="45.069553672674644" lon="7.758010705133409"><ele>336.0</ele><time>2026-04-10T14:52:23Z</time></trkpt><trkpt lat="45.069579792832215" lon="7.758116224277829"><ele>336.0</ele><time>2026-04-10T14:52:27Z</time></trkpt><trkpt lat="45.06961598671617" lon="7.758206975631915"><ele>338.1666666666667</ele><time>2026-04-10T14:52:29Z</time></trkpt><trkpt lat="45.06965002068611" lon="7.758316740932198"><ele>340.3333333333333</ele><time>2026-04-10T14:52:32Z</time></trkpt><trkpt lat="45.069683615998365" lon="7.758423025647551"><ele>342.5</ele><time>2026-04-10T14:52:35.999Z</time></trkpt><trkpt lat="45.069715469418725" lon="7.758537812870528"><ele>344.66666666666663</ele><time>2026-04-10T14:52:38.999Z</time></trkpt><trkpt lat="45.06974377634766" lon="7.758639317940193"><ele>346.8333333333333</ele><time>2026-04-10T14:52:42.999Z</time></trkpt><trkpt lat="45.069761849418256" lon="7.7587461595910545"><ele>349.0</ele><time>2026-04-10T14:52:45.999Z</time></trkpt><trkpt lat="45.069778391957875" lon="7.758858789671254"><ele>351.57142857142856</ele><time>2026-04-10T14:52:48.999Z</time></trkpt><trkpt lat="45.06980166739267" lon="7.75895520441447"><ele>354.1428571428571</ele><time>2026-04-10T14:52:51.999Z</time></trkpt><trkpt lat="45.06980816177135" lon="7.7590475488260315"><ele>356.71428571428567</ele><time>2026-04-10T14:52:54.999Z</time></trkpt><trkpt lat="45.069813300724114" lon="7.759148813992243"><ele>359.2857142857143</ele><time>2026-04-10T14:52:57.999Z</time></trkpt><trkpt lat="45.0698274981283" lon="7.759261266290306"><ele>361.8571428571429</ele><time>2026-04-10T14:53:00.999Z</time></trkpt><trkpt lat="45.06985331090934" lon="7.759343707725939"><ele>364.4285714285714</ele><time>2026-04-10T14:53:04Z</time></trkpt><trkpt lat="45.0698879180263" lon="7.759431593563112"><ele>367.0</ele><time>2026-04-10T14:53:07Z</time></trkpt><trkpt lat="45.06992578739348" lon="7.759513630390912"><ele>364.0</ele><time>2026-04-10T14:53:09Z</time></trkpt><trkpt lat="45.06998387239956" lon="7.759602302882856"><ele>361.0</ele><time>2026-04-10T14:53:12Z</time></trkpt><trkpt lat="45.07002875154438" lon="7.759686483388149"><ele>358.0</ele><time>2026-04-10T14:53:15Z</time></trkpt><trkpt lat="45.07006864905469" lon="7.759793067084294"><ele>355.0</ele><time>2026-04-10T14:53:19Z</time></trkpt><trkpt lat="45.070101333130125" lon="7.759879895848314"><ele>352.0</ele><time>2026-04-10T14:53:22Z</time></trkpt><trkpt lat="45.07012643601266" lon="7.759964789080243"><ele>349.0</ele><time>2026-04-10T14:53:25Z</time></trkpt><trkpt lat="45.07014786799118" lon="7.760050194746107"><ele>346.0</ele><time>2026-04-10T14:53:28Z</time></trkpt><trkpt lat="45.070165511384324" lon="7.760162424345718"><ele>347.57142857142856</ele><time>2026-04-10T14:53:32Z</time></trkpt><trkpt lat="45.070204585691414" lon="7.760262083498005"><ele>349.14285714285717</ele><time>2026-04-10T14:53:36Z</time></trkpt><trkpt lat="45.07024259685597" lon="7.760365176485773"><ele>350.7142857142857</ele><time>2026-04-10T14:53:39Z</time></trkpt><trkpt lat="45.070271269084195" lon="7.760447315426694"><ele>352.2857142857143</ele><time>2026-04-10T14:53:42Z</time></trkpt><trkpt lat="45.070283743055484" lon="7.760540371717664"><ele>353.8571428571429</ele><time>2026-04-10T14:53:45Z</time></trkpt><trkpt lat="45.07032101552132" lon="7.760621119309408"><ele>355.42857142857144</ele><time>2026-04-10T14:53:48Z</time></trkpt><trkpt lat="45.07033834759456" lon="7.760718010026461"><ele>357.0</ele><time>2026-04-10T14:53:51Z</time></trkpt><trkpt lat="45.070366461677324" lon="7.760802857282725"><ele>357.0</ele><time>2026-04-10T14:53:55Z</time></trkpt><trkpt lat="45.070394248582915" lon="7.76089973762025"><ele>357.0</ele><time>2026-04-10T14:53:59Z</time></trkpt><trkpt lat="45.07041752770214" lon="7.760998064490671"><ele>357.0</ele><time>2026-04-10T14:54:04Z</time></trkpt><trkpt lat="45.07044839285975" lon="7.76108271635681"><ele>357.0</ele><time>2026-04-10T14:54:08Z</time></trkpt><trkpt lat="45.07047318548811" lon="7.761185640309837"><ele>357.0</ele><time>2026-04-10T14:54:11Z</time></trkpt><trkpt lat="45.07051116120272" lon="7.761291013044613"><ele>357.0</ele><time>2026-04-10T14:54:15Z</time></trkpt><trkpt lat="45.070542443658674" lon="7.761376508719037"><ele>357.0</ele><time>2026-04-10T14:54:18Z</time></trkpt><trkpt lat="45.07059031019295" lon="7.761435541211495"><ele>357.0</ele><time>2026-04-10T14:54:21Z</time></trkpt><trkpt lat="45.0706559928982" lon="7.761417700272347"><ele>357.0</ele><time>2026-04-10T14:54:25Z</time></trkpt><trkpt lat="45.070684417699546" lon="7.7613157812641544"><ele>357.0</ele><time>2026-04-10T14:54:30Z</time></trkpt><trkpt lat="45.07070878001993" lon="7.7612225713199985"><ele>357.0</ele><time>2026-04-10T14:54:34Z</time></trkpt><trkpt lat="45.070722586904836" lon="7.761112296465089"><ele>357.0</ele><time>2026-04-10T14:54:38Z</time></trkpt><trkpt lat="45.07074641950736" lon="7.761011180382672"><ele>357.0</ele><time>2026-04-10T14:54:42Z</time></trkpt><trkpt lat="45.070770890370504" lon="7.760905190802796"><ele>357.0</ele><time>2026-04-10T14:54:45.999Z</time></trkpt><trkpt lat="45.070784398567014" lon="7.760802890086859"><ele>357.0</ele><time>2026-04-10T14:54:49.999Z</time></trkpt><trkpt lat="45.070769157257196" lon="7.760697158890239"><ele>357.0</ele><time>2026-04-10T14:54:53.999Z</time></trkpt><trkpt lat="45.07074312119923" lon="7.760604067705429"><ele>357.0</ele><time>2026-04-10T14:54:57.999Z</time></trkpt><trkpt lat="45.07069873331167" lon="7.760536571278599"><ele>357.0</ele><time>2026-04-10T14:55:01.999Z</time></trkpt><trkpt lat="45.070646654393286" lon="7.760469412371789"><ele>357.0</ele><time>2026-04-10T14:55:05.999Z</time></trkpt><trkpt lat="45.07062344521775" lon="7.7603798164492135"><ele>357.0</ele><time>2026-04-10T14:55:09Z</time></trkpt><trkpt lat="45.07067620821303" lon="7.760330463346926"><ele>357.0</ele><time>2026-04-10T14:55:15Z</time></trkpt><trkpt lat="45.07071607229457" lon="7.760419493718362"><ele>357.0</ele><time>2026-04-10T14:55:19Z</time></trkpt><trkpt lat="45.07077414373355" lon="7.760485846290679"><ele>357.0</ele><time>2026-04-10T14:55:24Z</time></trkpt><trkpt lat="45.07082921552303" lon="7.760541667516098"><ele>357.0</ele><time>2026-04-10T14:55:28Z</time></trkpt><trkpt lat="45.07088238679405" lon="7.760597556132196"><ele>357.0</ele><time>2026-04-10T14:55:32Z</time></trkpt><trkpt lat="45.07091998557936" lon="7.760679451232601"><ele>357.0</ele><time>2026-04-10T14:55:36Z</time></trkpt><trkpt lat="45.070945711935025" lon="7.7607717467174915"><ele>357.0</ele><time>2026-04-10T14:55:40Z</time></trkpt><trkpt lat="45.07094275940307" lon="7.7608718981754095"><ele>357.0</ele><time>2026-04-10T14:55:44Z</time></trkpt><trkpt lat="45.07094746556736" lon="7.7609656755020895"><ele>357.14285714285717</ele><time>2026-04-10T14:55:48Z</time></trkpt><trkpt lat="45.07096378119632" lon="7.761062751471951"><ele>357.2857142857143</ele><time>2026-04-10T14:55:52Z</time></trkpt><trkpt lat="45.07098020084132" lon="7.761163752970663"><ele>357.42857142857144</ele><time>2026-04-10T14:55:56Z</time></trkpt><trkpt lat="45.0710062372174" lon="7.761257171423427"><ele>357.57142857142856</ele><time>2026-04-10T14:56:00Z</time></trkpt><trkpt lat="45.071024426857946" lon="7.7613470671991625"><ele>357.7142857142857</ele><time>2026-04-10T14:56:04Z</time></trkpt><trkpt lat="45.07106126022669" lon="7.761447101316602"><ele>357.8571428571429</ele><time>2026-04-10T14:56:09Z</time></trkpt><trkpt lat="45.071118478775055" lon="7.761497871821305"><ele>358.0</ele><time>2026-04-10T14:56:12Z</time></trkpt><trkpt lat="45.07112988402878" lon="7.761589612774283"><ele>358.00000000000006</ele><time>2026-04-10T14:56:16Z</time></trkpt><trkpt lat="45.07117408229869" lon="7.7616704533276115"><ele>358.0</ele><time>2026-04-10T14:56:20Z</time></trkpt><trkpt lat="45.07120451890191" lon="7.761758788056962"><ele>358.0</ele><time>2026-04-10T14:56:24Z</time></trkpt><trkpt lat="45.07123505031169" lon="7.761855113956144"><ele>358.0</ele><time>2026-04-10T14:56:27Z</time></trkpt><trkpt lat="45.071251478873634" lon="7.761957786077237"><ele>358.0</ele><time>2026-04-10T14:56:31Z</time></trkpt><trkpt lat="45.07127439540976" lon="7.7620641293899535"><ele>358.00000000000006</ele><time>2026-04-10T14:56:35Z</time></trkpt><trkpt lat="45.07131114633511" lon="7.762163222439142"><ele>358.0</ele><time>2026-04-10T14:56:39Z</time></trkpt><trkpt lat="45.07135271419295" lon="7.762245648510256"><ele>358.00000000000006</ele><time>2026-04-10T14:56:43Z</time></trkpt><trkpt lat="45.071415491148166" lon="7.762286677854287"><ele>358.0</ele><time>2026-04-10T14:56:47Z</time></trkpt><trkpt lat="45.071463598665034" lon="7.762216562592111"><ele>358.0</ele><time>2026-04-10T14:56:52Z</time></trkpt><trkpt lat="45.07148244531247" lon="7.762129534701605"><ele>358.0</ele><time>2026-04-10T14:56:56Z</time></trkpt><trkpt lat="45.071494414423334" lon="7.762025372985103"><ele>358.0</ele><time>2026-04-10T14:57:00.999Z</time></trkpt><trkpt lat="45.07150493784098" lon="7.761916904411398"><ele>358.00000000000006</ele><time>2026-04-10T14:57:05.999Z</time></trkpt><trkpt lat="45.07151045194366" lon="7.761821647240016"><ele>358.0</ele><time>2026-04-10T14:57:09.999Z</time></trkpt><trkpt lat="45.07150267405903" lon="7.761725859672089"><ele>358.00000000000006</ele><time>2026-04-10T14:57:12.999Z</time></trkpt><trkpt lat="45.071488480003026" lon="7.761609535949627"><ele>358.0</ele><time>2026-04-10T14:57:18Z</time></trkpt><trkpt lat="45.071488478036656" lon="7.761511787387882"><ele>358.0</ele><time>2026-04-10T14:57:22Z</time></trkpt><trkpt lat="45.07150319534515" lon="7.76142046434362"><ele>358.0</ele><time>2026-04-10T14:57:25Z</time></trkpt><trkpt lat="45.07151920554857" lon="7.761323821482931"><ele>358.0</ele><time>2026-04-10T14:57:29Z</time></trkpt><trkpt lat="45.07153034576544" lon="7.761228244214211"><ele>358.00000000000006</ele><time>2026-04-10T14:57:33Z</time></trkpt><trkpt lat="45.07154713964332" lon="7.76111794574601"><ele>358.0</ele><time>2026-04-10T14:57:37Z</time></trkpt><trkpt lat="45.071560475120116" lon="7.7610152692471885"><ele>357.7142857142857</ele><time>2026-04-10T14:57:41Z</time></trkpt><trkpt lat="45.0715780628484" lon="7.760925271050593"><ele>357.42857142857144</ele><time>2026-04-10T14:57:44Z</time></trkpt><trkpt lat="45.07158883633177" lon="7.760831638192653"><ele>357.1428571428571</ele><time>2026-04-10T14:57:48Z</time></trkpt><trkpt lat="45.071604019389156" lon="7.760736997013403"><ele>356.8571428571429</ele><time>2026-04-10T14:57:51Z</time></trkpt><trkpt lat="45.07163584450749" lon="7.760654622704746"><ele>356.57142857142856</ele><time>2026-04-10T14:57:55Z</time></trkpt><trkpt lat="45.07169009469774" lon="7.760572751452342"><ele>356.2857142857143</ele><time>2026-04-10T14:57:59Z</time></trkpt><trkpt lat="45.07176307137733" lon="7.760494679083517"><ele>356.0</ele><time>2026-04-10T14:58:03Z</time></trkpt><trkpt lat="45.071816295405014" lon="7.760436917325175"><ele>361.33333333333337</ele><time>2026-04-10T14:58:07Z</time></trkpt><trkpt lat="45.07186721619379" lon="7.76036465970553"><ele>366.6666666666667</ele><time>2026-04-10T14:58:11Z</time></trkpt><trkpt lat="45.071922389520985" lon="7.760311081352941"><ele>372.0</ele><time>2026-04-10T14:58:14Z</time></trkpt><trkpt lat="45.071982369599645" lon="7.760246940543842"><ele>377.33333333333337</ele><time>2026-04-10T14:58:18Z</time></trkpt><trkpt lat="45.07206517429282" lon="7.760193674706561"><ele>382.6666666666667</ele><time>2026-04-10T14:58:23Z</time></trkpt><trkpt lat="45.07214185451691" lon="7.760194533079744"><ele>388.0</ele><time>2026-04-10T14:58:28Z</time></trkpt><trkpt lat="45.072180882394136" lon="7.760279078075641"><ele>388.0</ele><time>2026-04-10T14:58:33Z</time></trkpt><trkpt lat="45.0721531247213" lon="7.760366579187397"><ele>388.0</ele><time>2026-04-10T14:58:37Z</time></trkpt><trkpt lat="45.072127113620425" lon="7.760469389669405"><ele>388.0</ele><time>2026-04-10T14:58:42Z</time></trkpt><trkpt lat="45.07210190180308" lon="7.760561057798869"><ele>388.0</ele><time>2026-04-10T14:58:46Z</time></trkpt><trkpt lat="45.072081048377015" lon="7.760648419765591"><ele>388.0</ele><time>2026-04-10T14:58:49Z</time></trkpt><trkpt lat="45.0720563113122" lon="7.760742770459128"><ele>388.0</ele><time>2026-04-10T14:58:53Z</time></trkpt><trkpt lat="45.07203090219898" lon="7.760836722398981"><ele>388.0</ele><time>2026-04-10T14:58:57Z</time></trkpt><trkpt lat="45.07200877097577" lon="7.760946921137324"><ele>388.0</ele><time>2026-04-10T14:59:01Z</time></trkpt><trkpt lat="45.07199561301474" lon="7.761046641352524"><ele>388.0</ele><time>2026-04-10T14:59:05Z</time></trkpt><trkpt lat="45.07203052337615" lon="7.761128711656223"><ele>388.0</ele><time>2026-04-10T14:59:09Z</time></trkpt><trkpt lat="45.07207174554238" lon="7.7610425558630665"><ele>388.0</ele><time>2026-04-10T14:59:13Z</time></trkpt><trkpt lat="45.07211050305618" lon="7.7609440067599325"><ele>388.0</ele><time>2026-04-10T14:59:18Z</time></trkpt><trkpt lat="45.07215756730851" lon="7.760865895436125"><ele>388.0</ele><time>2026-04-10T14:59:22Z</time></trkpt><trkpt lat="45.072198045074515" lon="7.760779634970966"><ele>388.0</ele><time>2026-04-10T14:59:26Z</time></trkpt><trkpt lat="45.07224369823366" lon="7.760700189866522"><ele>388.0</ele><time>2026-04-10T14:59:30Z</time></trkpt><trkpt lat="45.07228980214216" lon="7.760616572472843"><ele>388.0</ele><time>2026-04-10T14:59:34Z</time></trkpt><trkpt lat="45.07235031318908" lon="7.760576041814103"><ele>388.0</ele><time>2026-04-10T14:59:38Z</time></trkpt><trkpt lat="45.07235288046389" lon="7.7606813315046566"><ele>388.0</ele><time>2026-04-10T14:59:43Z</time></trkpt><trkpt lat="45.0723109517505" lon="7.760764187598395"><ele>388.0</ele><time>2026-04-10T14:59:48Z</time></trkpt><trkpt lat="45.07230124373102" lon="7.760866722071345"><ele>388.0</ele><time>2026-04-10T14:59:52Z</time></trkpt><trkpt lat="45.072296061712855" lon="7.760964536784209"><ele>388.0</ele><time>2026-04-10T14:59:56Z</time></trkpt><trkpt lat="45.07227414443343" lon="7.761057287596929"><ele>388.0</ele><time>2026-04-10T15:00:00Z</time></trkpt><trkpt lat="45.07224982216182" lon="7.761157803783801"><ele>388.0</ele><time>2026-04-10T15:00:04Z</time></trkpt><trkpt lat="45.07226733713012" lon="7.761260956725311"><ele>388.0</ele><time>2026-04-10T15:00:08Z</time></trkpt><trkpt lat="45.072325878624405" lon="7.76131783208733"><ele>388.0</ele><time>2026-04-10T15:00:12Z</time></trkpt><trkpt lat="45.07239134925746" lon="7.761298653384404"><ele>388.0</ele><time>2026-04-10T15:00:16Z</time></trkpt><trkpt lat="45.07245665283474" lon="7.761251721276186"><ele>388.0</ele><time>2026-04-10T15:00:21Z</time></trkpt><trkpt lat="45.07249392880167" lon="7.76117197042905"><ele>388.0</ele><time>2026-04-10T15:00:24Z</time></trkpt><trkpt lat="45.07250457817747" lon="7.761081063209641"><ele>391.57142857142856</ele><time>2026-04-10T15:00:27Z</time></trkpt><trkpt lat="45.07252261949629" lon="7.76098962254816"><ele>395.14285714285717</ele><time>2026-04-10T15:00:31Z</time></trkpt><trkpt lat="45.07256254941358" lon="7.760910029578381"><ele>398.7142857142857</ele><time>2026-04-10T15:00:35Z</time></trkpt><trkpt lat="45.072606469620546" lon="7.760830737608731"><ele>402.2857142857143</ele><time>2026-04-10T15:00:39Z</time></trkpt><trkpt lat="45.07262145748772" lon="7.760733072790362"><ele>405.8571428571429</ele><time>2026-04-10T15:00:42Z</time></trkpt><trkpt lat="45.07263659960732" lon="7.760642969215006"><ele>409.42857142857144</ele><time>2026-04-10T15:00:44Z</time></trkpt><trkpt lat="45.07264699573578" lon="7.760546953619578"><ele>413.0</ele><time>2026-04-10T15:00:47Z</time></trkpt><trkpt lat="45.07265381576826" lon="7.760443107716079"><ele>412.99999999999994</ele><time>2026-04-10T15:00:50Z</time></trkpt><trkpt lat="45.072662670152624" lon="7.760338279854515"><ele>413.0</ele><time>2026-04-10T15:00:53Z</time></trkpt><trkpt lat="45.072678793684396" lon="7.76024184729305"><ele>413.0</ele><time>2026-04-10T15:00:55.999Z</time></trkpt><trkpt lat="45.07269035463414" lon="7.760134859507145"><ele>413.0</ele><time>2026-04-10T15:00:58.999Z</time></trkpt><trkpt lat="45.07271157998798" lon="7.760028401901644"><ele>412.99999999999994</ele><time>2026-04-10T15:01:01.999Z</time></trkpt><trkpt lat="45.07271913258264" lon="7.759924944209253"><ele>413.0</ele><time>2026-04-10T15:01:04.999Z</time></trkpt><trkpt lat="45.072722899625276" lon="7.759813127953792"><ele>412.49999999999994</ele><time>2026-04-10T15:01:08.999Z</time></trkpt><trkpt lat="45.07273694886556" lon="7.7597235069741215"><ele>412.0</ele><time>2026-04-10T15:01:11.999Z</time></trkpt><trkpt lat="45.072738312877156" lon="7.759609729049477"><ele>411.5</ele><time>2026-04-10T15:01:14.999Z</time></trkpt><trkpt lat="45.072734927218775" lon="7.75948435565358"><ele>411.0</ele><time>2026-04-10T15:01:17.999Z</time></trkpt><trkpt lat="45.07279503470585" lon="7.759397714508636"><ele>410.49999999999994</ele><time>2026-04-10T15:01:20.999Z</time></trkpt><trkpt lat="45.07286925054316" lon="7.759398605223507"><ele>410.0</ele><time>2026-04-10T15:01:23.999Z</time></trkpt><trkpt lat="45.07295942455285" lon="7.759370756341167"><ele>410.0</ele><time>2026-04-10T15:01:26.999Z</time></trkpt><trkpt lat="45.0730392098881" lon="7.759385958058171"><ele>410.0</ele><time>2026-04-10T15:01:28.999Z</time></trkpt><trkpt lat="45.07310591387214" lon="7.759440432319311"><ele>410.0</ele><time>2026-04-10T15:01:30.999Z</time></trkpt><trkpt lat="45.07315397310067" lon="7.759516023295932"><ele>410.0</ele><time>2026-04-10T15:01:32.999Z</time></trkpt><trkpt lat="45.07321468292219" lon="7.759570277501278"><ele>410.0</ele><time>2026-04-10T15:01:34.999Z</time></trkpt><trkpt lat="45.073279155176735" lon="7.759615149378318"><ele>410.0</ele><time>2026-04-10T15:01:37Z</time></trkpt><trkpt lat="45.07334300259327" lon="7.759672793539766"><ele>410.0</ele><time>2026-04-10T15:01:39Z</time></trkpt><trkpt lat="45.0733926281625" lon="7.759765341038072"><ele>411.7142857142857</ele><time>2026-04-10T15:01:42Z</time></trkpt><trkpt lat="45.07342875932358" lon="7.759848267871427"><ele>413.4285714285714</ele><time>2026-04-10T15:01:45Z</time></trkpt><trkpt lat="45.07348192735005" lon="7.7599188189967485"><ele>415.1428571428571</ele><time>2026-04-10T15:01:51Z</time></trkpt><trkpt lat="45.07351464286036" lon="7.760003760841554"><ele>416.8571428571429</ele><time>2026-04-10T15:01:56Z</time></trkpt><trkpt lat="45.07356277952789" lon="7.760063414897735"><ele>418.57142857142856</ele><time>2026-04-10T15:02:01Z</time></trkpt><trkpt lat="45.073603263566746" lon="7.760139001523028"><ele>420.2857142857143</ele><time>2026-04-10T15:02:07Z</time></trkpt><trkpt lat="45.073647708557296" lon="7.760220952393303"><ele>422.0</ele><time>2026-04-10T15:02:12Z</time></trkpt><trkpt lat="45.07369065056136" lon="7.760295448795381"><ele>423.0</ele><time>2026-04-10T15:02:17Z</time></trkpt><trkpt lat="45.07373409947369" lon="7.760375136225717"><ele>424.0</ele><time>2026-04-10T15:02:23Z</time></trkpt><trkpt lat="45.07377181236794" lon="7.760450400367462"><ele>425.0</ele><time>2026-04-10T15:02:28Z</time></trkpt><trkpt lat="45.07382354960616" lon="7.760522700270613"><ele>426.0</ele><time>2026-04-10T15:02:34Z</time></trkpt><trkpt lat="45.07387624913624" lon="7.7605822492037735"><ele>427.0</ele><time>2026-04-10T15:02:48Z</time></trkpt><trkpt lat="45.07393015828103" lon="7.760638488720196"><ele>428.0</ele><time>2026-04-10T15:03:24.999Z</time></trkpt><trkpt lat="45.07398993835523" lon="7.760702597491328"><ele>429.0</ele><time>2026-04-10T15:03:29.999Z</time></trkpt><trkpt lat="45.07404462071817" lon="7.760774944580756"><ele>429.0</ele><time>2026-04-10T15:03:35Z</time></trkpt><trkpt lat="45.074017861272075" lon="7.760869155295334"><ele>429.0</ele><time>2026-04-10T15:03:40Z</time></trkpt><trkpt lat="45.07395730263496" lon="7.7609143410304435"><ele>429.0</ele><time>2026-04-10T15:03:44Z</time></trkpt><trkpt lat="45.0739092212867" lon="7.760974831747132"><ele>429.0</ele><time>2026-04-10T15:03:48Z</time></trkpt><trkpt lat="45.07385275916621" lon="7.761036648986026"><ele>429.0</ele><time>2026-04-10T15:03:52Z</time></trkpt><trkpt lat="45.07379900445673" lon="7.761085786528968"><ele>429.0</ele><time>2026-04-10T15:03:55Z</time></trkpt><trkpt lat="45.07377761394091" lon="7.761172764976862"><ele>429.0</ele><time>2026-04-10T15:03:58Z</time></trkpt><trkpt lat="45.073796702858594" lon="7.7612602449523385"><ele>429.0</ele><time>2026-04-10T15:04:02Z</time></trkpt><trkpt lat="45.07383044866854" lon="7.761335681043887"><ele>429.0</ele><time>2026-04-10T15:04:06Z</time></trkpt><trkpt lat="45.073881965853914" lon="7.761416163826033"><ele>429.0</ele><time>2026-04-10T15:04:11Z</time></trkpt><trkpt lat="45.07392548142865" lon="7.761498759368934"><ele>429.0</ele><time>2026-04-10T15:04:16Z</time></trkpt><trkpt lat="45.07397468290298" lon="7.761555907425205"><ele>429.0</ele><time>2026-04-10T15:04:21Z</time></trkpt><trkpt lat="45.074022036744175" lon="7.76162000445863"><ele>429.0</ele><time>2026-04-10T15:04:26Z</time></trkpt><trkpt lat="45.07409043364229" lon="7.761647756067623"><ele>429.0</ele><time>2026-04-10T15:04:30Z</time></trkpt><trkpt lat="45.0741307554382" lon="7.761733273728758"><ele>431.8571428571429</ele><time>2026-04-10T15:04:36Z</time></trkpt><trkpt lat="45.07416974397807" lon="7.761810430809671"><ele>434.7142857142857</ele><time>2026-04-10T15:04:41Z</time></trkpt><trkpt lat="45.0742237508279" lon="7.761878508234978"><ele>437.57142857142856</ele><time>2026-04-10T15:04:47Z</time></trkpt><trkpt lat="45.07426013138767" lon="7.761951933915931"><ele>440.42857142857144</ele><time>2026-04-10T15:04:52Z</time></trkpt><trkpt lat="45.074292685325794" lon="7.762032333242912"><ele>443.2857142857142</ele><time>2026-04-10T15:04:57Z</time></trkpt><trkpt lat="45.074320704355486" lon="7.762132413380854"><ele>446.1428571428571</ele><time>2026-04-10T15:05:02Z</time></trkpt><trkpt lat="45.07435410667751" lon="7.762234795158632"><ele>449.0</ele><time>2026-04-10T15:05:07Z</time></trkpt><trkpt lat="45.074383862735566" lon="7.762319164308995"><ele>448.99999999999994</ele><time>2026-04-10T15:05:11Z</time></trkpt><trkpt lat="45.074412894274765" lon="7.762417613559592"><ele>449.0</ele><time>2026-04-10T15:05:16Z</time></trkpt><trkpt lat="45.07443220192802" lon="7.762508809232761"><ele>449.0</ele><time>2026-04-10T15:05:20Z</time></trkpt><trkpt lat="45.07445948382989" lon="7.7626468354597"><ele>449.0</ele><time>2026-04-10T15:05:24Z</time></trkpt><trkpt lat="45.07446819062392" lon="7.762767084981647"><ele>448.99999999999994</ele><time>2026-04-10T15:05:27Z</time></trkpt><trkpt lat="45.07447477198214" lon="7.762873730730131"><ele>449.0</ele><time>2026-04-10T15:05:30Z</time></trkpt><trkpt lat="45.07447935225395" lon="7.762963545794825"><ele>448.0</ele><time>2026-04-10T15:05:33Z</time></trkpt><trkpt lat="45.07450604874144" lon="7.7630633074216595"><ele>446.99999999999994</ele><time>2026-04-10T15:05:37Z</time></trkpt><trkpt lat="45.07455640642992" lon="7.7631208101307365"><ele>446.0</ele><time>2026-04-10T15:05:41Z</time></trkpt><trkpt lat="45.07460815773037" lon="7.763195741816484"><ele>445.0</ele><time>2026-04-10T15:05:46Z</time></trkpt><trkpt lat="45.0746602926046" lon="7.763249836356294"><ele>444.0</ele><time>2026-04-10T15:05:51Z</time></trkpt><trkpt lat="45.074727072137044" lon="7.763269532361"><ele>443.0</ele><time>2026-04-10T15:05:56Z</time></trkpt><trkpt lat="45.07479323683169" lon="7.763279408315473"><ele>442.0</ele><time>2026-04-10T15:06:02Z</time></trkpt><trkpt lat="45.07485594846365" lon="7.763313087750932"><ele>442.00000000000006</ele><time>2026-04-10T15:06:38Z</time></trkpt><trkpt lat="45.07484343958132" lon="7.763217209830042"><ele>442.0</ele><time>2026-04-10T15:07:18Z</time></trkpt><trkpt lat="45.07487802168061" lon="7.763119483040114"><ele>442.0</ele><time>2026-04-10T15:07:22Z</time></trkpt><trkpt lat="45.07490976524443" lon="7.763029203720218"><ele>442.0</ele><time>2026-04-10T15:07:26Z</time></trkpt><trkpt lat="45.07495420736941" lon="7.762927706441596"><ele>442.0</ele><time>2026-04-10T15:07:31Z</time></trkpt><trkpt lat="45.074975385548434" lon="7.762835605118963"><ele>442.00000000000006</ele><time>2026-04-10T15:07:35Z</time></trkpt><trkpt lat="45.074996604654935" lon="7.7627344427700775"><ele>442.0</ele><time>2026-04-10T15:07:40Z</time></trkpt><trkpt lat="45.07501100526168" lon="7.762616567352498"><ele>447.0</ele><time>2026-04-10T15:07:45Z</time></trkpt><trkpt lat="45.075022110770384" lon="7.7625139070512965"><ele>452.0</ele><time>2026-04-10T15:07:50Z</time></trkpt><trkpt lat="45.0750476463741" lon="7.7624165438366335"><ele>457.0</ele><time>2026-04-10T15:07:55Z</time></trkpt><trkpt lat="45.07506509874637" lon="7.7623197405468085"><ele>462.0</ele><time>2026-04-10T15:08:00Z</time></trkpt><trkpt lat="45.07509996720503" lon="7.762243407425843"><ele>466.99999999999994</ele><time>2026-04-10T15:08:21Z</time></trkpt><trkpt lat="45.07514568052469" lon="7.762159522843662"><ele>472.0</ele><time>2026-04-10T15:08:25Z</time></trkpt><trkpt lat="45.07517128364062" lon="7.762053483453609"><ele>477.0</ele><time>2026-04-10T15:08:30Z</time></trkpt><trkpt lat="45.075202737417186" lon="7.761955865432554"><ele>477.1428571428571</ele><time>2026-04-10T15:08:35Z</time></trkpt><trkpt lat="45.07523445717437" lon="7.761843677745386"><ele>477.2857142857142</ele><time>2026-04-10T15:08:40Z</time></trkpt><trkpt lat="45.075261630424066" lon="7.7617522806110975"><ele>477.42857142857144</ele><time>2026-04-10T15:08:45Z</time></trkpt><trkpt lat="45.07528483265542" lon="7.761659391321322"><ele>477.57142857142856</ele><time>2026-04-10T15:08:50Z</time></trkpt><trkpt lat="45.07531671416415" lon="7.761567493250925"><ele>477.7142857142857</ele><time>2026-04-10T15:08:55Z</time></trkpt><trkpt lat="45.0753290902175" lon="7.7614751541078215"><ele>477.8571428571429</ele><time>2026-04-10T15:09:00Z</time></trkpt><trkpt lat="45.075364903489245" lon="7.761389291482502"><ele>478.00000000000006</ele><time>2026-04-10T15:09:05Z</time></trkpt><trkpt lat="45.075417807199074" lon="7.761330399948389"><ele>478.00000000000006</ele><time>2026-04-10T15:09:10Z</time></trkpt><trkpt lat="45.07547356356854" lon="7.761284164696232"><ele>478.0</ele><time>2026-04-10T15:09:14Z</time></trkpt><trkpt lat="45.075540242272155" lon="7.761250583445024"><ele>478.00000000000006</ele><time>2026-04-10T15:09:18Z</time></trkpt><trkpt lat="45.075603879283776" lon="7.761260478175636"><ele>478.00000000000006</ele><time>2026-04-10T15:09:22Z</time></trkpt><trkpt lat="45.07567798611238" lon="7.761253307272696"><ele>478.0</ele><time>2026-04-10T15:09:26Z</time></trkpt><trkpt lat="45.075748057699045" lon="7.761267416343672"><ele>478.00000000000006</ele><time>2026-04-10T15:09:30Z</time></trkpt><trkpt lat="45.07581282880711" lon="7.761266128413046"><ele>478.00000000000006</ele><time>2026-04-10T15:09:34Z</time></trkpt><trkpt lat="45.07588040535305" lon="7.761262912780269"><ele>482.50000000000006</ele><time>2026-04-10T15:09:38Z</time></trkpt><trkpt lat="45.07594507353725" lon="7.761252732178878"><ele>487.0</ele><time>2026-04-10T15:09:42Z</time></trkpt><trkpt lat="45.0760123085277" lon="7.761229907932664"><ele>491.5</ele><time>2026-04-10T15:09:44Z</time></trkpt><trkpt lat="45.07609058735823" lon="7.7612318895007935"><ele>496.0</ele><time>2026-04-10T15:09:47Z</time></trkpt><trkpt lat="45.07616707054206" lon="7.761245930303011"><ele>500.50000000000006</ele><time>2026-04-10T15:09:51Z</time></trkpt><trkpt lat="45.076247988468666" lon="7.761236635023231"><ele>505.0</ele><time>2026-04-10T15:09:54Z</time></trkpt><trkpt lat="45.07632214143857" lon="7.761195410810369"><ele>505.00000000000006</ele><time>2026-04-10T15:09:57Z</time></trkpt><trkpt lat="45.076414886774536" lon="7.761179734362461"><ele>505.0</ele><time>2026-04-10T15:10:02Z</time></trkpt><trkpt lat="45.07649570748123" lon="7.761118398573649"><ele>505.0</ele><time>2026-04-10T15:10:06Z</time></trkpt><trkpt lat="45.07654843226953" lon="7.761059004936692"><ele>505.0</ele><time>2026-04-10T15:10:08Z</time></trkpt><trkpt lat="45.07660103227305" lon="7.760990129525327"><ele>505.00000000000006</ele><time>2026-04-10T15:10:10Z</time></trkpt><trkpt lat="45.076635518231875" lon="7.760915040885599"><ele>505.0</ele><time>2026-04-10T15:10:12Z</time></trkpt><trkpt lat="45.07665568648208" lon="7.760805001492636"><ele>504.00000000000006</ele><time>2026-04-10T15:10:15Z</time></trkpt><trkpt lat="45.076651389001874" lon="7.760696526502084"><ele>503.0</ele><time>2026-04-10T15:10:18Z</time></trkpt><trkpt lat="45.0766331500506" lon="7.760573520346981"><ele>502.0</ele><time>2026-04-10T15:10:21Z</time></trkpt><trkpt lat="45.076626987475834" lon="7.760467148752953"><ele>501.0</ele><time>2026-04-10T15:10:24Z</time></trkpt><trkpt lat="45.07663223406458" lon="7.7603502829110145"><ele>500.00000000000006</ele><time>2026-04-10T15:10:27Z</time></trkpt><trkpt lat="45.076657687286726" lon="7.760253095562938"><ele>499.0</ele><time>2026-04-10T15:10:30Z</time></trkpt><trkpt lat="45.076700612093404" lon="7.760182116046114"><ele>497.28571428571433</ele><time>2026-04-10T15:10:33Z</time></trkpt><trkpt lat="45.07677191002139" lon="7.76013973266769"><ele>495.57142857142856</ele><time>2026-04-10T15:10:36Z</time></trkpt><trkpt lat="45.076839825953435" lon="7.760089854140728"><ele>493.8571428571429</ele><time>2026-04-10T15:10:39Z</time></trkpt><trkpt lat="45.076915051290484" lon="7.7600554786779865"><ele>492.14285714285717</ele><time>2026-04-10T15:10:42Z</time></trkpt><trkpt lat="45.07698324149906" lon="7.760063806984696"><ele>490.42857142857144</ele><time>2026-04-10T15:10:44Z</time></trkpt><trkpt lat="45.07705133687984" lon="7.760096882158457"><ele>488.7142857142857</ele><time>2026-04-10T15:10:46Z</time></trkpt><trkpt lat="45.07712333177049" lon="7.760122907440262"><ele>487.0</ele><time>2026-04-10T15:10:48Z</time></trkpt><trkpt lat="45.0771950903851" lon="7.7601686022520715"><ele>487.00000000000006</ele><time>2026-04-10T15:10:50Z</time></trkpt><trkpt lat="45.07726974282361" lon="7.760210946207101"><ele>487.0</ele><time>2026-04-10T15:10:52Z</time></trkpt><trkpt lat="45.07733305532058" lon="7.7602111046407485"><ele>487.0</ele><time>2026-04-10T15:10:54Z</time></trkpt><trkpt lat="45.077389037973404" lon="7.7601632150465685"><ele>487.0</ele><time>2026-04-10T15:10:56Z</time></trkpt><trkpt lat="45.077461658273045" lon="7.760102592049807"><ele>487.00000000000006</ele><time>2026-04-10T15:10:59Z</time></trkpt><trkpt lat="45.07751443803607" lon="7.7600254013462795"><ele>487.0</ele><time>2026-04-10T15:11:02Z</time></trkpt><trkpt lat="45.077583470182525" lon="7.759962360580824"><ele>488.50000000000006</ele><time>2026-04-10T15:11:06Z</time></trkpt><trkpt lat="45.07765853190912" lon="7.7599252048427845"><ele>490.0</ele><time>2026-04-10T15:11:09Z</time></trkpt><trkpt lat="45.07773847597868" lon="7.759913116783259"><ele>491.5</ele><time>2026-04-10T15:11:12Z</time></trkpt><trkpt lat="45.07781283593495" lon="7.759943601469713"><ele>493.0</ele><time>2026-04-10T15:11:15Z</time></trkpt><trkpt lat="45.07788141027072" lon="7.75995956483918"><ele>494.50000000000006</ele><time>2026-04-10T15:11:17Z</time></trkpt><trkpt lat="45.077956977721186" lon="7.7599491024491565"><ele>496.0</ele><time>2026-04-10T15:11:19Z</time></trkpt><trkpt lat="45.07801563524179" lon="7.7598984733992165"><ele>496.0</ele><time>2026-04-10T15:11:21Z</time></trkpt><trkpt lat="45.07805605965925" lon="7.759803465548338"><ele>496.00000000000006</ele><time>2026-04-10T15:11:25Z</time></trkpt><trkpt lat="45.078079334722304" lon="7.7596952517663365"><ele>496.0</ele><time>2026-04-10T15:11:28Z</time></trkpt><trkpt lat="45.07811547959567" lon="7.759615202365125"><ele>496.0</ele><time>2026-04-10T15:11:31Z</time></trkpt><trkpt lat="45.07816330881185" lon="7.759517649140821"><ele>496.00000000000006</ele><time>2026-04-10T15:11:34Z</time></trkpt><trkpt lat="45.078192581284206" lon="7.759436888056014"><ele>496.0</ele><time>2026-04-10T15:11:37Z</time></trkpt><trkpt lat="45.07821943124646" lon="7.759349567608525"><ele>496.0</ele><time>2026-04-10T15:11:40Z</time></trkpt><trkpt lat="45.07826516495455" lon="7.7592508493585495"><ele>496.83333333333337</ele><time>2026-04-10T15:11:44Z</time></trkpt><trkpt lat="45.078298656689185" lon="7.759157861532955"><ele>497.6666666666667</ele><time>2026-04-10T15:11:48Z</time></trkpt><trkpt lat="45.078338757642896" lon="7.759058801068575"><ele>498.5</ele><time>2026-04-10T15:11:52Z</time></trkpt><trkpt lat="45.07838165669513" lon="7.758968713674753"><ele>499.33333333333337</ele><time>2026-04-10T15:11:56Z</time></trkpt><trkpt lat="45.078365406655685" lon="7.759088598465069"><ele>500.1666666666667</ele><time>2026-04-10T15:12:03Z</time></trkpt><trkpt lat="45.07836573000249" lon="7.759194209442955"><ele>501.0</ele><time>2026-04-10T15:12:08Z</time></trkpt><trkpt lat="45.078362316224684" lon="7.759297403633067"><ele>502.7142857142857</ele><time>2026-04-10T15:12:12Z</time></trkpt><trkpt lat="45.07836330261601" lon="7.759393492105594"><ele>504.42857142857144</ele><time>2026-04-10T15:12:16Z</time></trkpt><trkpt lat="45.07836062742552" lon="7.7594883960171614"><ele>506.14285714285717</ele><time>2026-04-10T15:12:20Z</time></trkpt><trkpt lat="45.078362686946505" lon="7.759580069616213"><ele>507.8571428571429</ele><time>2026-04-10T15:12:24Z</time></trkpt><trkpt lat="45.07836535422115" lon="7.759673042395065"><ele>509.57142857142856</ele><time>2026-04-10T15:12:28Z</time></trkpt><trkpt lat="45.07836324255723" lon="7.759779607357055"><ele>511.28571428571433</ele><time>2026-04-10T15:12:33Z</time></trkpt><trkpt lat="45.078361397307255" lon="7.75986935555807"><ele>513.0</ele><time>2026-04-10T15:12:38Z</time></trkpt><trkpt lat="45.07836779618662" lon="7.759967951466249"><ele>513.0000000000001</ele><time>2026-04-10T15:12:42Z</time></trkpt><trkpt lat="45.07836018992488" lon="7.760075331302496"><ele>513.0</ele><time>2026-04-10T15:12:47Z</time></trkpt><trkpt lat="45.07836136614597" lon="7.760181261620837"><ele>513.0</ele><time>2026-04-10T15:12:51Z</time></trkpt><trkpt lat="45.07836071463028" lon="7.760282042506902"><ele>513.0</ele><time>2026-04-10T15:12:55Z</time></trkpt><trkpt lat="45.07835779130562" lon="7.760379431044336"><ele>513.0</ele><time>2026-04-10T15:13:00Z</time></trkpt><trkpt lat="45.07834787829958" lon="7.760489063320019"><ele>513.0000000000001</ele><time>2026-04-10T15:13:05Z</time></trkpt><trkpt lat="45.078315128538954" lon="7.760583787803975"><ele>513.0</ele><time>2026-04-10T15:13:10Z</time></trkpt><trkpt lat="45.07827868901719" lon="7.7606708297402225"><ele>513.1428571428572</ele><time>2026-04-10T15:13:15Z</time></trkpt><trkpt lat="45.07823810819102" lon="7.76076032816162"><ele>513.2857142857143</ele><time>2026-04-10T15:13:20Z</time></trkpt><trkpt lat="45.07820282533391" lon="7.7608468572026466"><ele>513.4285714285714</ele><time>2026-04-10T15:13:24Z</time></trkpt><trkpt lat="45.07816375365529" lon="7.7609284248345745"><ele>513.5714285714287</ele><time>2026-04-10T15:13:29Z</time></trkpt><trkpt lat="45.07812143821122" lon="7.760995635281929"><ele>513.7142857142858</ele><time>2026-04-10T15:13:33Z</time></trkpt><trkpt lat="45.07808163327644" lon="7.761072834275453"><ele>513.8571428571429</ele><time>2026-04-10T15:13:37Z</time></trkpt><trkpt lat="45.07803825570559" lon="7.761142015535402"><ele>514.0</ele><time>2026-04-10T15:13:41Z</time></trkpt><trkpt lat="45.07798769056558" lon="7.761207729641245"><ele>517.2857142857142</ele><time>2026-04-10T15:13:46Z</time></trkpt><trkpt lat="45.077922817611444" lon="7.761274617315175"><ele>520.5714285714286</ele><time>2026-04-10T15:13:51Z</time></trkpt><trkpt lat="45.07786171614396" lon="7.76131373639321"><ele>523.8571428571429</ele><time>2026-04-10T15:13:55Z</time></trkpt><trkpt lat="45.07779588696185" lon="7.7613411052194134"><ele>527.1428571428571</ele><time>2026-04-10T15:13:59Z</time></trkpt><trkpt lat="45.07772789877378" lon="7.761362434409035"><ele>530.4285714285714</ele><time>2026-04-10T15:14:03Z</time></trkpt><trkpt lat="45.07765807964782" lon="7.761389613546997"><ele>533.7142857142857</ele><time>2026-04-10T15:14:07Z</time></trkpt><trkpt lat="45.07759091290751" lon="7.761415328117959"><ele>537.0</ele><time>2026-04-10T15:14:11Z</time></trkpt><trkpt lat="45.077527032550684" lon="7.761442082403424"><ele>536.9999999999999</ele><time>2026-04-10T15:14:15Z</time></trkpt><trkpt lat="45.077461451307734" lon="7.761481840786689"><ele>537.0</ele><time>2026-04-10T15:14:20Z</time></trkpt><trkpt lat="45.07739318773814" lon="7.761520086781192"><ele>537.0</ele><time>2026-04-10T15:14:24Z</time></trkpt><trkpt lat="45.07734277074781" lon="7.761589948222493"><ele>537.0</ele><time>2026-04-10T15:14:28Z</time></trkpt><trkpt lat="45.07729344405905" lon="7.761652484367027"><ele>537.0</ele><time>2026-04-10T15:14:32Z</time></trkpt><trkpt lat="45.07726008712849" lon="7.761734063829229"><ele>536.9999999999999</ele><time>2026-04-10T15:14:36Z</time></trkpt><trkpt lat="45.0772301368084" lon="7.761824339964709"><ele>537.0</ele><time>2026-04-10T15:14:41Z</time></trkpt><trkpt lat="45.0771712500286" lon="7.761894586095701"><ele>537.9999999999999</ele><time>2026-04-10T15:14:46Z</time></trkpt><trkpt lat="45.07710738733338" lon="7.761947835454433"><ele>539.0</ele><time>2026-04-10T15:14:51Z</time></trkpt><trkpt lat="45.07704407442442" lon="7.762002136811773"><ele>540.0</ele><time>2026-04-10T15:14:56Z</time></trkpt><trkpt lat="45.076979842686974" lon="7.762034607795996"><ele>541.0</ele><time>2026-04-10T15:15:01Z</time></trkpt><trkpt lat="45.07690729516832" lon="7.762082904106032"><ele>542.0</ele><time>2026-04-10T15:15:06Z</time></trkpt><trkpt lat="45.076859263143696" lon="7.762145544878121"><ele>542.9999999999999</ele><time>2026-04-10T15:15:11Z</time></trkpt><trkpt lat="45.076810304563296" lon="7.7622352661623575"><ele>544.0</ele><time>2026-04-10T15:15:16Z</time></trkpt><trkpt lat="45.0767562925761" lon="7.76230501955075"><ele>543.9999999999999</ele><time>2026-04-10T15:15:21Z</time></trkpt><trkpt lat="45.07670808376428" lon="7.762398586912244"><ele>544.0</ele><time>2026-04-10T15:15:26Z</time></trkpt><trkpt lat="45.0766729277848" lon="7.762481719958411"><ele>544.0</ele><time>2026-04-10T15:15:31Z</time></trkpt><trkpt lat="45.07663136627535" lon="7.762580016297139"><ele>544.0</ele><time>2026-04-10T15:15:36Z</time></trkpt><trkpt lat="45.07659550833224" lon="7.762669861359973"><ele>544.0</ele><time>2026-04-10T15:15:42Z</time></trkpt><trkpt lat="45.076603676949404" lon="7.762769655547253"><ele>543.9999999999999</ele><time>2026-04-10T15:16:55Z</time></trkpt><trkpt lat="45.07658965372782" lon="7.762858884289024"><ele>544.0</ele><time>2026-04-10T15:16:59Z</time></trkpt><trkpt lat="45.07660078619599" lon="7.76295783862263"><ele>544.7142857142857</ele><time>2026-04-10T15:17:04Z</time></trkpt><trkpt lat="45.07663568514991" lon="7.763034945419272"><ele>545.4285714285714</ele><time>2026-04-10T15:17:08Z</time></trkpt><trkpt lat="45.07668497596239" lon="7.763111455257876"><ele>546.1428571428571</ele><time>2026-04-10T15:17:12Z</time></trkpt><trkpt lat="45.07673685480929" lon="7.7631957324825995"><ele>546.8571428571429</ele><time>2026-04-10T15:17:17Z</time></trkpt><trkpt lat="45.07679423361411" lon="7.763275490919645"><ele>547.5714285714286</ele><time>2026-04-10T15:17:22Z</time></trkpt><trkpt lat="45.07683868850545" lon="7.763341276788021"><ele>548.2857142857142</ele><time>2026-04-10T15:17:26Z</time></trkpt><trkpt lat="45.07688834800994" lon="7.763420021868518"><ele>549.0</ele><time>2026-04-10T15:17:30Z</time></trkpt><trkpt lat="45.0769430406187" lon="7.763499456393801"><ele>548.2857142857142</ele><time>2026-04-10T15:17:35Z</time></trkpt><trkpt lat="45.07698654704782" lon="7.763568763198632"><ele>547.5714285714286</ele><time>2026-04-10T15:17:39Z</time></trkpt><trkpt lat="45.07703536381866" lon="7.763634975694871"><ele>546.8571428571429</ele><time>2026-04-10T15:17:43Z</time></trkpt><trkpt lat="45.07708049269267" lon="7.763699415098152"><ele>546.1428571428571</ele><time>2026-04-10T15:17:47Z</time></trkpt><trkpt lat="45.07713228048255" lon="7.76378242665952"><ele>545.4285714285714</ele><time>2026-04-10T15:17:52Z</time></trkpt><trkpt lat="45.07718438245459" lon="7.763861228729708"><ele>544.7142857142857</ele><time>2026-04-10T15:17:57Z</time></trkpt><trkpt lat="45.07722370361986" lon="7.763931289067276"><ele>544.0</ele><time>2026-04-10T15:18:01Z</time></trkpt><trkpt lat="45.07727023478275" lon="7.763994447081819"><ele>543.9999999999999</ele><time>2026-04-10T15:18:05Z</time></trkpt><trkpt lat="45.07731144268458" lon="7.764062000496575"><ele>544.0</ele><time>2026-04-10T15:18:08.999Z</time></trkpt><trkpt lat="45.07736289804283" lon="7.764136920527072"><ele>544.0</ele><time>2026-04-10T15:18:14Z</time></trkpt><trkpt lat="45.07740910113009" lon="7.764200566296214"><ele>544.0</ele><time>2026-04-10T15:18:18Z</time></trkpt><trkpt lat="45.07745003813385" lon="7.764279325028764"><ele>544.0</ele><time>2026-04-10T15:18:22Z</time></trkpt><trkpt lat="45.077482082172246" lon="7.76435624619712"><ele>543.9999999999999</ele><time>2026-04-10T15:18:26Z</time></trkpt><trkpt lat="45.07751053663624" lon="7.764446557762136"><ele>544.0</ele><time>2026-04-10T15:18:30Z</time></trkpt><trkpt lat="45.07753989463694" lon="7.7645425958781065"><ele>549.3333333333334</ele><time>2026-04-10T15:18:34Z</time></trkpt><trkpt lat="45.07755822179533" lon="7.764663974295471"><ele>554.6666666666667</ele><time>2026-04-10T15:18:39Z</time></trkpt><trkpt lat="45.077555669522994" lon="7.764756511467188"><ele>560.0</ele><time>2026-04-10T15:18:43Z</time></trkpt><trkpt lat="45.077537211375414" lon="7.7648596762891335"><ele>565.3333333333334</ele><time>2026-04-10T15:18:47Z</time></trkpt><trkpt lat="45.0775012211468" lon="7.7649417776288"><ele>570.6666666666666</ele><time>2026-04-10T15:18:51Z</time></trkpt><trkpt lat="45.07746100139315" lon="7.76504203123362"><ele>576.0</ele><time>2026-04-10T15:18:55Z</time></trkpt><trkpt lat="45.077437743244865" lon="7.765140358534587"><ele>573.7142857142858</ele><time>2026-04-10T15:18:59Z</time></trkpt><trkpt lat="45.07740614989485" lon="7.765229847551426"><ele>571.4285714285714</ele><time>2026-04-10T15:19:03Z</time></trkpt><trkpt lat="45.07737201017592" lon="7.765325529642712"><ele>569.1428571428571</ele><time>2026-04-10T15:19:07Z</time></trkpt><trkpt lat="45.077349023976716" lon="7.765412823829784"><ele>566.8571428571429</ele><time>2026-04-10T15:19:11Z</time></trkpt><trkpt lat="45.07732813693325" lon="7.765515805334439"><ele>564.5714285714286</ele><time>2026-04-10T15:19:15Z</time></trkpt><trkpt lat="45.077315740639776" lon="7.76560754340264"><ele>562.2857142857143</ele><time>2026-04-10T15:19:19Z</time></trkpt><trkpt lat="45.07730289991871" lon="7.765706638269936"><ele>560.0</ele><time>2026-04-10T15:19:23Z</time></trkpt><trkpt lat="45.077288259872766" lon="7.765795573493982"><ele>560.0</ele><time>2026-04-10T15:19:27Z</time></trkpt><trkpt lat="45.07726743472872" lon="7.765884093521418"><ele>560.0</ele><time>2026-04-10T15:19:31Z</time></trkpt><trkpt lat="45.07724787779289" lon="7.765975901632726"><ele>560.0</ele><time>2026-04-10T15:19:35Z</time></trkpt><trkpt lat="45.07722055206059" lon="7.766064278473767"><ele>560.0</ele><time>2026-04-10T15:19:39Z</time></trkpt><trkpt lat="45.07719282568887" lon="7.766152877862914"><ele>560.0</ele><time>2026-04-10T15:19:43Z</time></trkpt><trkpt lat="45.0771694632815" lon="7.766246151866781"><ele>560.0</ele><time>2026-04-10T15:19:47Z</time></trkpt><trkpt lat="45.07714034655269" lon="7.766326173230489"><ele>560.0</ele><time>2026-04-10T15:19:51Z</time></trkpt><trkpt lat="45.07711420902451" lon="7.766432021599674"><ele>562.1428571428571</ele><time>2026-04-10T15:19:56Z</time></trkpt><trkpt lat="45.077083670949364" lon="7.766523701648344"><ele>564.2857142857142</ele><time>2026-04-10T15:20:01Z</time></trkpt><trkpt lat="45.07704191673219" lon="7.766618704616374"><ele>566.4285714285714</ele><time>2026-04-10T15:20:05.999Z</time></trkpt><trkpt lat="45.07700454273044" lon="7.766690976777596"><ele>568.5714285714286</ele><time>2026-04-10T15:20:09.999Z</time></trkpt><trkpt lat="45.076950990221356" lon="7.766766100508708"><ele>570.7142857142857</ele><time>2026-04-10T15:20:14.999Z</time></trkpt><trkpt lat="45.07691622668222" lon="7.766840595954031"><ele>572.8571428571429</ele><time>2026-04-10T15:20:18.999Z</time></trkpt><trkpt lat="45.0768864118456" lon="7.766925178336758"><ele>575.0</ele><time>2026-04-10T15:20:23Z</time></trkpt><trkpt lat="45.07686891080155" lon="7.767014058924867"><ele>575.0</ele><time>2026-04-10T15:20:28Z</time></trkpt><trkpt lat="45.07692232346385" lon="7.76707258698232"><ele>575.0</ele><time>2026-04-10T15:20:34Z</time></trkpt><trkpt lat="45.076961602056365" lon="7.76699093233134"><ele>575.0</ele><time>2026-04-10T15:20:37Z</time></trkpt><trkpt lat="45.07699849051509" lon="7.766915457331154"><ele>575.0</ele><time>2026-04-10T15:20:40Z</time></trkpt><trkpt lat="45.0770478886143" lon="7.766844213059856"><ele>575.0</ele><time>2026-04-10T15:20:49Z</time></trkpt><trkpt lat="45.0771067114005" lon="7.766810740764524"><ele>575.0</ele><time>2026-04-10T15:20:56Z</time></trkpt><trkpt lat="45.07717911474032" lon="7.76680440169226"><ele>575.0</ele><time>2026-04-10T15:21:06Z</time></trkpt><trkpt lat="45.07724087040662" lon="7.766775538451161"><ele>575.0</ele><time>2026-04-10T15:21:16Z</time></trkpt><trkpt lat="45.07730003890142" lon="7.766727440289563"><ele>575.0</ele><time>2026-04-10T15:21:25Z</time></trkpt><trkpt lat="45.07736286271421" lon="7.766682760970484"><ele>575.0</ele><time>2026-04-10T15:21:32Z</time></trkpt><trkpt lat="45.077422697781344" lon="7.766643417159827"><ele>575.0</ele><time>2026-04-10T15:21:38Z</time></trkpt><trkpt lat="45.07748170144901" lon="7.766681323118278"><ele>575.0</ele><time>2026-04-10T15:21:55.999Z</time></trkpt><trkpt lat="45.077542732374944" lon="7.766720174506678"><ele>575.0</ele><time>2026-04-10T15:22:14.999Z</time></trkpt><trkpt lat="45.077605646754606" lon="7.76676667555372"><ele>575.0</ele><time>2026-04-10T15:22:22.999Z</time></trkpt><trkpt lat="45.077668955050044" lon="7.766758196013864"><ele>579.2857142857142</ele><time>2026-04-10T15:22:31Z</time></trkpt><trkpt lat="45.077702203176926" lon="7.766846586759652"><ele>583.5714285714286</ele><time>2026-04-10T15:22:39Z</time></trkpt><trkpt lat="45.077758225531795" lon="7.766896414778151"><ele>587.8571428571429</ele><time>2026-04-10T15:22:54Z</time></trkpt><trkpt lat="45.07771484148602" lon="7.766963702800812"><ele>592.1428571428571</ele><time>2026-04-10T15:23:01Z</time></trkpt><trkpt lat="45.077766870552495" lon="7.767035291129579"><ele>596.4285714285714</ele><time>2026-04-10T15:23:09Z</time></trkpt><trkpt lat="45.077775260053016" lon="7.767125617744868"><ele>600.7142857142857</ele><time>2026-04-10T15:23:16Z</time></trkpt><trkpt lat="45.07780179471577" lon="7.767218473332694"><ele>605.0</ele><time>2026-04-10T15:23:25Z</time></trkpt><trkpt lat="45.07777350051644" lon="7.767308771419971"><ele>606.8571428571429</ele><time>2026-04-10T15:23:35Z</time></trkpt><trkpt lat="45.07774195293669" lon="7.767393687742654"><ele>608.7142857142858</ele><time>2026-04-10T15:23:43Z</time></trkpt><trkpt lat="45.077721048189694" lon="7.767479704752545"><ele>610.5714285714287</ele><time>2026-04-10T15:23:49.999Z</time></trkpt><trkpt lat="45.07771071024354" lon="7.76757895581891"><ele>612.4285714285714</ele><time>2026-04-10T15:23:56.999Z</time></trkpt><trkpt lat="45.077663632947925" lon="7.767645413352455"><ele>614.2857142857143</ele><time>2026-04-10T15:24:04.999Z</time></trkpt><trkpt lat="45.07763005586951" lon="7.767724438736654"><ele>616.1428571428572</ele><time>2026-04-10T15:24:11.999Z</time></trkpt><trkpt lat="45.0775921854187" lon="7.767807283391912"><ele>618.0</ele><time>2026-04-10T15:24:18.999Z</time></trkpt><trkpt lat="45.07756707775259" lon="7.767895103773729"><ele>618.8571428571429</ele><time>2026-04-10T15:24:26.999Z</time></trkpt><trkpt lat="45.07763788257936" lon="7.767930542146865"><ele>619.7142857142858</ele><time>2026-04-10T15:24:38Z</time></trkpt><trkpt lat="45.07769180924173" lon="7.767993048967033"><ele>620.5714285714287</ele><time>2026-04-10T15:24:47Z</time></trkpt><trkpt lat="45.077718389687" lon="7.768078955276973"><ele>621.4285714285714</ele><time>2026-04-10T15:24:55Z</time></trkpt><trkpt lat="45.07773176214527" lon="7.768166750451386"><ele>622.2857142857142</ele><time>2026-04-10T15:25:04Z</time></trkpt><trkpt lat="45.077779481886274" lon="7.768102812628144"><ele>623.1428571428572</ele><time>2026-04-10T15:25:28Z</time></trkpt><trkpt lat="45.077808689871894" lon="7.767983991463266"><ele>624.0</ele><time>2026-04-10T15:25:31Z</time></trkpt><trkpt lat="45.07783410001757" lon="7.767889970528172"><ele>624.0</ele><time>2026-04-10T15:25:33Z</time></trkpt><trkpt lat="45.07790095665796" lon="7.767801379152159"><ele>624.0</ele><time>2026-04-10T15:25:35Z</time></trkpt><trkpt lat="45.07794715330535" lon="7.767690531237958"><ele>624.0</ele><time>2026-04-10T15:25:37Z</time></trkpt><trkpt lat="45.0780108417759" lon="7.767560192542416"><ele>624.0</ele><time>2026-04-10T15:25:39Z</time></trkpt><trkpt lat="45.07807373716686" lon="7.76742218523123"><ele>624.0</ele><time>2026-04-10T15:25:41Z</time></trkpt><trkpt lat="45.07814093432338" lon="7.767286737047204"><ele>625.0</ele><time>2026-04-10T15:25:43Z</time></trkpt><trkpt lat="45.07820015111783" lon="7.767152722644747"><ele>626.0</ele><time>2026-04-10T15:25:45Z</time></trkpt><trkpt lat="45.07823554065626" lon="7.7670765884519986"><ele>627.0</ele><time>2026-04-10T15:25:46Z</time></trkpt><trkpt lat="45.07830060843157" lon="7.766945230015343"><ele>628.0</ele><time>2026-04-10T15:25:48Z</time></trkpt><trkpt lat="45.07836189353263" lon="7.766813677412187"><ele>629.0</ele><time>2026-04-10T15:25:50Z</time></trkpt><trkpt lat="45.07843269009455" lon="7.7666870441103795"><ele>629.0</ele><time>2026-04-10T15:25:52Z</time></trkpt><trkpt lat="45.07850089527456" lon="7.766571745557276"><ele>629.0</ele><time>2026-04-10T15:25:54Z</time></trkpt><trkpt lat="45.07856006990457" lon="7.766443111485104"><ele>629.0</ele><time>2026-04-10T15:25:56Z</time></trkpt><trkpt lat="45.078606990339104" lon="7.7663063180949425"><ele>629.0</ele><time>2026-04-10T15:25:58Z</time></trkpt><trkpt lat="45.07864649037351" lon="7.7661662212581435"><ele>629.0</ele><time>2026-04-10T15:26:00Z</time></trkpt><trkpt lat="45.07867588469947" lon="7.766017784766711"><ele>626.0</ele><time>2026-04-10T15:26:02Z</time></trkpt><trkpt lat="45.07868988749995" lon="7.765864099797454"><ele>623.0</ele><time>2026-04-10T15:26:04Z</time></trkpt><trkpt lat="45.078716843189845" lon="7.765711559448193"><ele>620.0</ele><time>2026-04-10T15:26:06Z</time></trkpt><trkpt lat="45.07873124123182" lon="7.7655469501156915"><ele>617.0</ele><time>2026-04-10T15:26:07.999Z</time></trkpt><trkpt lat="45.07883188108238" lon="7.765441808222998"><ele>617.0</ele><time>2026-04-10T15:26:09.999Z</time></trkpt><trkpt lat="45.07890265994313" lon="7.7654420479275466"><ele>617.0</ele><time>2026-04-10T15:26:10.999Z</time></trkpt><trkpt lat="45.079024656330695" lon="7.7654107618525705"><ele>617.0</ele><time>2026-04-10T15:26:12.999Z</time></trkpt><trkpt lat="45.07914311142155" lon="7.765396294943397"><ele>617.0</ele><time>2026-04-10T15:26:14.999Z</time></trkpt><trkpt lat="45.079250235869694" lon="7.76543192530739"><ele>617.0</ele><time>2026-04-10T15:26:16.999Z</time></trkpt><trkpt lat="45.079349188104665" lon="7.7654607682975225"><ele>620.8333333333333</ele><time>2026-04-10T15:26:18.999Z</time></trkpt><trkpt lat="45.079443651936856" lon="7.765482919114459"><ele>624.6666666666666</ele><time>2026-04-10T15:26:20.999Z</time></trkpt><trkpt lat="45.07952993494076" lon="7.765499660654272"><ele>628.5</ele><time>2026-04-10T15:26:22.999Z</time></trkpt><trkpt lat="45.079613598394204" lon="7.765532553537588"><ele>632.3333333333334</ele><time>2026-04-10T15:26:24.999Z</time></trkpt><trkpt lat="45.07969886547957" lon="7.7655161360419696"><ele>636.1666666666667</ele><time>2026-04-10T15:26:26.999Z</time></trkpt><trkpt lat="45.079777646852826" lon="7.765553165516553"><ele>640.0</ele><time>2026-04-10T15:26:29.999Z</time></trkpt><trkpt lat="45.07984004909644" lon="7.7655804108277735"><ele>640.0</ele><time>2026-04-10T15:26:32.999Z</time></trkpt><trkpt lat="45.07992377872976" lon="7.765572594205979"><ele>640.0</ele><time>2026-04-10T15:26:34.999Z</time></trkpt><trkpt lat="45.07998148390947" lon="7.7656173265042545"><ele>640.0</ele><time>2026-04-10T15:26:38Z</time></trkpt><trkpt lat="45.080033311781335" lon="7.765672783006431"><ele>640.0</ele><time>2026-04-10T15:26:40Z</time></trkpt><trkpt lat="45.08010379108368" lon="7.765755982401444"><ele>640.0</ele><time>2026-04-10T15:26:43Z</time></trkpt><trkpt lat="45.0801585365409" lon="7.765810981128103"><ele>640.0</ele><time>2026-04-10T15:26:45Z</time></trkpt><trkpt lat="45.08024227817465" lon="7.765887109542041"><ele>640.3333333333334</ele><time>2026-04-10T15:26:48Z</time></trkpt><trkpt lat="45.08032220647073" lon="7.7659497807726074"><ele>640.6666666666667</ele><time>2026-04-10T15:26:51Z</time></trkpt><trkpt lat="45.08040124457386" lon="7.765994115223972"><ele>641.0</ele><time>2026-04-10T15:26:55Z</time></trkpt><trkpt lat="45.080476028615976" lon="7.76604385283213"><ele>641.3333333333334</ele><time>2026-04-10T15:26:59Z</time></trkpt><trkpt lat="45.08056473693885" lon="7.766098826498982"><ele>641.6666666666666</ele><time>2026-04-10T15:27:02Z</time></trkpt><trkpt lat="45.08063969582899" lon="7.7661534510987735"><ele>642.0</ele><time>2026-04-10T15:27:05Z</time></trkpt><trkpt lat="45.08069916970953" lon="7.766212309485589"><ele>644.5714285714286</ele><time>2026-04-10T15:27:08Z</time></trkpt><trkpt lat="45.08075891378711" lon="7.766277281336782"><ele>647.1428571428571</ele><time>2026-04-10T15:27:11Z</time></trkpt><trkpt lat="45.08083420653377" lon="7.766304352656864"><ele>649.7142857142858</ele><time>2026-04-10T15:27:14Z</time></trkpt><trkpt lat="45.080893562313705" lon="7.7663347548933865"><ele>652.2857142857142</ele><time>2026-04-10T15:27:17Z</time></trkpt><trkpt lat="45.08095936895935" lon="7.766336915916881"><ele>654.8571428571429</ele><time>2026-04-10T15:27:21Z</time></trkpt><trkpt lat="45.081019749580555" lon="7.766304021170814"><ele>657.4285714285714</ele><time>2026-04-10T15:27:25Z</time></trkpt><trkpt lat="45.08108197112974" lon="7.766327109325969"><ele>660.0</ele><time>2026-04-10T15:27:32Z</time></trkpt><trkpt lat="45.081159958773085" lon="7.766296601325456"><ele>660.0000000000001</ele><time>2026-04-10T15:27:43Z</time></trkpt><trkpt lat="45.081212677598494" lon="7.766349739833196"><ele>660.0</ele><time>2026-04-10T15:27:55Z</time></trkpt><trkpt lat="45.08131065791911" lon="7.766366147046018"><ele>660.0</ele><time>2026-04-10T15:28:11Z</time></trkpt><trkpt lat="45.08136876440089" lon="7.766430558896207"><ele>660.0</ele><time>2026-04-10T15:28:32.999Z</time></trkpt><trkpt lat="45.08137421828176" lon="7.766538364393415"><ele>660.0</ele><time>2026-04-10T15:29:00Z</time></trkpt><trkpt lat="45.08130709346241" lon="7.766547742330394"><ele>660.0000000000001</ele><time>2026-04-10T15:29:13Z</time></trkpt><trkpt lat="45.0812707260179" lon="7.766466014466667"><ele>660.0</ele><time>2026-04-10T15:29:33Z</time></trkpt><trkpt lat="45.0812198781296" lon="7.766531788925797"><ele>660.0000000000001</ele><time>2026-04-10T15:30:26Z</time></trkpt><trkpt lat="45.081162540990086" lon="7.766572782351237"><ele>660.0</ele><time>2026-04-10T15:30:33.999Z</time></trkpt><trkpt lat="45.081105911119955" lon="7.766612002448101"><ele>660.0</ele><time>2026-04-10T15:30:41.999Z</time></trkpt><trkpt lat="45.08104877430343" lon="7.766653715495321"><ele>660.0</ele><time>2026-04-10T15:30:49.998Z</time></trkpt><trkpt lat="45.0809890668107" lon="7.76668876328456"><ele>660.0</ele><time>2026-04-10T15:30:57.998Z</time></trkpt><trkpt lat="45.08092402268449" lon="7.766726830599767"><ele>660.0000000000001</ele><time>2026-04-10T15:31:05.999Z</time></trkpt><trkpt lat="45.08085243892086" lon="7.766737732528767"><ele>660.0</ele><time>2026-04-10T15:31:13.999Z</time></trkpt><trkpt lat="45.08077933713081" lon="7.766746424053145"><ele>660.5714285714287</ele><time>2026-04-10T15:31:21.999Z</time></trkpt><trkpt lat="45.080715059778775" lon="7.766752811614705"><ele>661.1428571428571</ele><time>2026-04-10T15:31:28.999Z</time></trkpt><trkpt lat="45.08064456496355" lon="7.766763579863627"><ele>661.7142857142858</ele><time>2026-04-10T15:31:36.999Z</time></trkpt><trkpt lat="45.080581929722605" lon="7.766782347346452"><ele>662.2857142857143</ele><time>2026-04-10T15:31:43.999Z</time></trkpt><trkpt lat="45.08051490971299" lon="7.766786601890299"><ele>662.8571428571429</ele><time>2026-04-10T15:31:50.999Z</time></trkpt><trkpt lat="45.08044810342834" lon="7.7667977107819794"><ele>663.4285714285714</ele><time>2026-04-10T15:31:57.999Z</time></trkpt><trkpt lat="45.08038480479651" lon="7.7668135712716095"><ele>664.0</ele><time>2026-04-10T15:32:04.999Z</time></trkpt><trkpt lat="45.08031852896819" lon="7.766816908081154"><ele>664.0</ele><time>2026-04-10T15:32:12.999Z</time></trkpt><trkpt lat="45.08024881327531" lon="7.7668176426173"><ele>664.0</ele><time>2026-04-10T15:32:20.999Z</time></trkpt><trkpt lat="45.08021801376655" lon="7.766895814701928"><ele>664.0</ele><time>2026-04-10T15:32:31.999Z</time></trkpt><trkpt lat="45.08025687121347" lon="7.766971526444757"><ele>664.0</ele><time>2026-04-10T15:32:37.999Z</time></trkpt><trkpt lat="45.080257721793046" lon="7.767067720202762"><ele>664.0</ele><time>2026-04-10T15:32:46.999Z</time></trkpt><trkpt lat="45.08027019064014" lon="7.767176601980814"><ele>664.0</ele><time>2026-04-10T15:34:27Z</time></trkpt><trkpt lat="45.080323091143384" lon="7.767103191415652"><ele>664.0</ele><time>2026-04-10T15:34:53Z</time></trkpt><trkpt lat="45.0803796215005" lon="7.767023924012016"><ele>665.7142857142857</ele><time>2026-04-10T15:34:56Z</time></trkpt><trkpt lat="45.0804708637184" lon="7.766982354927381"><ele>667.4285714285714</ele><time>2026-04-10T15:34:59Z</time></trkpt><trkpt lat="45.08054289514048" lon="7.766966678529705"><ele>669.1428571428571</ele><time>2026-04-10T15:35:02.001Z</time></trkpt><trkpt lat="45.08061754905994" lon="7.766979388201434"><ele>670.8571428571429</ele><time>2026-04-10T15:35:05.001Z</time></trkpt><trkpt lat="45.08067657179004" lon="7.767011261575921"><ele>672.5714285714286</ele><time>2026-04-10T15:35:08Z</time></trkpt><trkpt lat="45.08075283276012" lon="7.76699607125161"><ele>674.2857142857143</ele><time>2026-04-10T15:35:12Z</time></trkpt><trkpt lat="45.080816012044195" lon="7.767016232153913"><ele>676.0</ele><time>2026-04-10T15:35:15Z</time></trkpt><trkpt lat="45.080883069552215" lon="7.767048456317067"><ele>678.1428571428571</ele><time>2026-04-10T15:35:18Z</time></trkpt><trkpt lat="45.080944134892256" lon="7.767094356139393"><ele>680.2857142857142</ele><time>2026-04-10T15:35:21Z</time></trkpt><trkpt lat="45.080999980616035" lon="7.767154167054916"><ele>682.4285714285713</ele><time>2026-04-10T15:35:24Z</time></trkpt><trkpt lat="45.08102966971326" lon="7.767238752732204"><ele>684.5714285714286</ele><time>2026-04-10T15:35:27Z</time></trkpt><trkpt lat="45.08107400012822" lon="7.767327113179618"><ele>686.7142857142857</ele><time>2026-04-10T15:35:31Z</time></trkpt><trkpt lat="45.08110054489677" lon="7.767413390780055"><ele>688.8571428571428</ele><time>2026-04-10T15:35:34Z</time></trkpt><trkpt lat="45.08112711297705" lon="7.767507195245252"><ele>691.0</ele><time>2026-04-10T15:35:38Z</time></trkpt><trkpt lat="45.081164553758285" lon="7.767585094228729"><ele>691.0</ele><time>2026-04-10T15:38:03Z</time></trkpt><trkpt lat="45.08117681933548" lon="7.767683448426416"><ele>691.0</ele><time>2026-04-10T15:38:15Z</time></trkpt><trkpt lat="45.08121323354711" lon="7.76777765378428"><ele>691.0</ele><time>2026-04-10T15:38:18Z</time></trkpt><trkpt lat="45.0812398662945" lon="7.767897518630936"><ele>691.0</ele><time>2026-04-10T15:38:21Z</time></trkpt><trkpt lat="45.08126434104505" lon="7.767997648061958"><ele>691.0</ele><time>2026-04-10T15:38:24Z</time></trkpt><trkpt lat="45.081297131084256" lon="7.768087133084894"><ele>691.0</ele><time>2026-04-10T15:38:27Z</time></trkpt><trkpt lat="45.08131480961939" lon="7.768180809776992"><ele>689.6666666666667</ele><time>2026-04-10T15:38:30Z</time></trkpt><trkpt lat="45.08133988973704" lon="7.768276345308227"><ele>688.3333333333334</ele><time>2026-04-10T15:38:32Z</time></trkpt><trkpt lat="45.08136561276336" lon="7.768389992500858"><ele>687.0</ele><time>2026-04-10T15:38:34Z</time></trkpt><trkpt lat="45.08138877488546" lon="7.768482222609294"><ele>685.6666666666666</ele><time>2026-04-10T15:38:36Z</time></trkpt><trkpt lat="45.08141395359771" lon="7.768598569859587"><ele>684.3333333333333</ele><time>2026-04-10T15:38:38Z</time></trkpt><trkpt lat="45.081447103186456" lon="7.7687209537052855"><ele>683.0</ele><time>2026-04-10T15:38:40Z</time></trkpt><trkpt lat="45.08148140611398" lon="7.768811827821528"><ele>679.3333333333333</ele><time>2026-04-10T15:38:42Z</time></trkpt><trkpt lat="45.08152799717495" lon="7.768895465267834"><ele>675.6666666666666</ele><time>2026-04-10T15:38:44Z</time></trkpt><trkpt lat="45.081544233645204" lon="7.768991036470001"><ele>672.0</ele><time>2026-04-10T15:38:47Z</time></trkpt><trkpt lat="45.081488895245236" lon="7.769058281945104"><ele>668.3333333333334</ele><time>2026-04-10T15:38:52Z</time></trkpt><trkpt lat="45.08141771266666" lon="7.769035931908569"><ele>664.6666666666667</ele><time>2026-04-10T15:38:54Z</time></trkpt><trkpt lat="45.081318636899525" lon="7.769072963531385"><ele>661.0</ele><time>2026-04-10T15:38:56Z</time></trkpt><trkpt lat="45.081228973464775" lon="7.769098722274865"><ele>661.0</ele><time>2026-04-10T15:38:58Z</time></trkpt><trkpt lat="45.081132238242866" lon="7.769116356427403"><ele>661.0</ele><time>2026-04-10T15:39:00Z</time></trkpt><trkpt lat="45.08105841739064" lon="7.769134814358743"><ele>661.0</ele><time>2026-04-10T15:39:02Z</time></trkpt><trkpt lat="45.080978805841774" lon="7.769152981408596"><ele>661.0</ele><time>2026-04-10T15:39:05Z</time></trkpt><trkpt lat="45.08090145268379" lon="7.769171881685041"><ele>661.0</ele><time>2026-04-10T15:39:07Z</time></trkpt><trkpt lat="45.08083107828817" lon="7.769171943049173"><ele>661.0</ele><time>2026-04-10T15:39:10Z</time></trkpt><trkpt lat="45.08077889263792" lon="7.76911382256054"><ele>657.3333333333334</ele><time>2026-04-10T15:39:13Z</time></trkpt><trkpt lat="45.08073058282088" lon="7.769033451120337"><ele>653.6666666666667</ele><time>2026-04-10T15:39:15.001Z</time></trkpt><trkpt lat="45.0806651573899" lon="7.769021548218628"><ele>650.0</ele><time>2026-04-10T15:39:17.001Z</time></trkpt><trkpt lat="45.08064030463366" lon="7.768934571310499"><ele>646.3333333333334</ele><time>2026-04-10T15:39:21.001Z</time></trkpt><trkpt lat="45.08063092721241" lon="7.7688187860727655"><ele>642.6666666666666</ele><time>2026-04-10T15:39:25.001Z</time></trkpt><trkpt lat="45.08057126856219" lon="7.768720077876816"><ele>639.0</ele><time>2026-04-10T15:39:31Z</time></trkpt><trkpt lat="45.08054150422592" lon="7.768629549285126"><ele>639.0000000000001</ele><time>2026-04-10T15:39:34Z</time></trkpt><trkpt lat="45.08055767936023" lon="7.768536012422844"><ele>639.0</ele><time>2026-04-10T15:39:36Z</time></trkpt><trkpt lat="45.08053759228079" lon="7.768448585636728"><ele>639.0</ele><time>2026-04-10T15:39:40Z</time></trkpt><trkpt lat="45.080519574360835" lon="7.768363068894328"><ele>639.0</ele><time>2026-04-10T15:39:42Z</time></trkpt><trkpt lat="45.08050907525702" lon="7.7682747802165055"><ele>639.0</ele><time>2026-04-10T15:39:44Z</time></trkpt><trkpt lat="45.08047558865458" lon="7.768185297131404"><ele>639.0000000000001</ele><time>2026-04-10T15:39:47Z</time></trkpt><trkpt lat="45.08045939134697" lon="7.768093116772011"><ele>639.0</ele><time>2026-04-10T15:39:51Z</time></trkpt><trkpt lat="45.08041106526845" lon="7.7679502803910045"><ele>642.4285714285714</ele><time>2026-04-10T15:40:44Z</time></trkpt><trkpt lat="45.08040376412626" lon="7.767843598949273"><ele>645.8571428571429</ele><time>2026-04-10T15:40:55Z</time></trkpt><trkpt lat="45.08033899673557" lon="7.767790961131296"><ele>649.2857142857142</ele><time>2026-04-10T15:41:03Z</time></trkpt><trkpt lat="45.08036854696433" lon="7.767697901594084"><ele>652.7142857142858</ele><time>2026-04-10T15:41:13Z</time></trkpt><trkpt lat="45.08032932887641" lon="7.767625434724101"><ele>656.1428571428571</ele><time>2026-04-10T15:41:17Z</time></trkpt><trkpt lat="45.08026394084002" lon="7.767620886783376"><ele>659.5714285714286</ele><time>2026-04-10T15:41:20.001Z</time></trkpt><trkpt lat="45.08019487436723" lon="7.767561424810596"><ele>663.0</ele><time>2026-04-10T15:41:24.001Z</time></trkpt><trkpt lat="45.080124875808195" lon="7.767506786041708"><ele>663.2857142857142</ele><time>2026-04-10T15:41:28.001Z</time></trkpt><trkpt lat="45.08006403474955" lon="7.767458989994732"><ele>663.5714285714286</ele><time>2026-04-10T15:41:32.001Z</time></trkpt><trkpt lat="45.07999684098761" lon="7.767409140161324"><ele>663.8571428571429</ele><time>2026-04-10T15:41:35Z</time></trkpt><trkpt lat="45.07992721630246" lon="7.767428000899808"><ele>664.1428571428571</ele><time>2026-04-10T15:41:38Z</time></trkpt><trkpt lat="45.079865723220685" lon="7.76746951541493"><ele>664.4285714285714</ele><time>2026-04-10T15:41:41Z</time></trkpt><trkpt lat="45.079801598788606" lon="7.767483520356429"><ele>664.7142857142857</ele><time>2026-04-10T15:41:43Z</time></trkpt><trkpt lat="45.07972636004749" lon="7.767506909174264"><ele>665.0</ele><time>2026-04-10T15:41:45Z</time></trkpt><trkpt lat="45.0796479105164" lon="7.767539049768442"><ele>665.0</ele><time>2026-04-10T15:41:47Z</time></trkpt><trkpt lat="45.07957961750393" lon="7.7675940701488475"><ele>665.0</ele><time>2026-04-10T15:41:49Z</time></trkpt><trkpt lat="45.07952458467821" lon="7.767667454436218"><ele>665.0</ele><time>2026-04-10T15:41:51Z</time></trkpt><trkpt lat="45.079447099051926" lon="7.767728742578848"><ele>665.0</ele><time>2026-04-10T15:41:53Z</time></trkpt><trkpt lat="45.079376952141395" lon="7.76778205861923"><ele>665.0</ele><time>2026-04-10T15:41:55Z</time></trkpt><trkpt lat="45.07929426016466" lon="7.7678508660191135"><ele>665.0</ele><time>2026-04-10T15:41:57Z</time></trkpt><trkpt lat="45.079226551396445" lon="7.7679504253907075"><ele>663.8333333333333</ele><time>2026-04-10T15:41:59Z</time></trkpt><trkpt lat="45.07916726292669" lon="7.768008319710709"><ele>662.6666666666666</ele><time>2026-04-10T15:42:01Z</time></trkpt><trkpt lat="45.07908885269661" lon="7.7680843565304585"><ele>661.5</ele><time>2026-04-10T15:42:03Z</time></trkpt><trkpt lat="45.07903003543446" lon="7.768166558995328"><ele>660.3333333333334</ele><time>2026-04-10T15:42:05Z</time></trkpt><trkpt lat="45.0789809443282" lon="7.768256090953124"><ele>659.1666666666667</ele><time>2026-04-10T15:42:07Z</time></trkpt><trkpt lat="45.07892916857941" lon="7.768364450245116"><ele>658.0</ele><time>2026-04-10T15:42:09Z</time></trkpt><trkpt lat="45.07888564096417" lon="7.768451812381888"><ele>655.5</ele><time>2026-04-10T15:42:11Z</time></trkpt><trkpt lat="45.078835143651276" lon="7.768560591051701"><ele>653.0</ele><time>2026-04-10T15:42:13Z</time></trkpt><trkpt lat="45.07878854979555" lon="7.76868235131232"><ele>650.5</ele><time>2026-04-10T15:42:15Z</time></trkpt><trkpt lat="45.078762215670544" lon="7.76879864907712"><ele>648.0</ele><time>2026-04-10T15:42:17Z</time></trkpt><trkpt lat="45.07873996367395" lon="7.768904594391647"><ele>645.5</ele><time>2026-04-10T15:42:19Z</time></trkpt><trkpt lat="45.07868994792669" lon="7.76900230496007"><ele>643.0</ele><time>2026-04-10T15:42:21Z</time></trkpt><trkpt lat="45.078647182577704" lon="7.769136680040679"><ele>643.0</ele><time>2026-04-10T15:42:23Z</time></trkpt><trkpt lat="45.078600286246285" lon="7.769247681616356"><ele>643.0</ele><time>2026-04-10T15:42:25Z</time></trkpt><trkpt lat="45.07857455567146" lon="7.7693743358778695"><ele>643.0</ele><time>2026-04-10T15:42:27Z</time></trkpt><trkpt lat="45.078568313352974" lon="7.769479068865918"><ele>643.0</ele><time>2026-04-10T15:42:30Z</time></trkpt><trkpt lat="45.07853967433124" lon="7.76959144054748"><ele>643.0</ele><time>2026-04-10T15:42:34Z</time></trkpt><trkpt lat="45.07847160658419" lon="7.769647450072988"><ele>643.0</ele><time>2026-04-10T15:42:36Z</time></trkpt><trkpt lat="45.078370133490154" lon="7.769715170883852"><ele>641.0</ele><time>2026-04-10T15:42:38Z</time></trkpt><trkpt lat="45.07832745708005" lon="7.769843178385704"><ele>639.0</ele><time>2026-04-10T15:42:40Z</time></trkpt><trkpt lat="45.07828064235302" lon="7.769973222148116"><ele>637.0</ele><time>2026-04-10T15:42:42Z</time></trkpt><trkpt lat="45.07823952154673" lon="7.77005546282557"><ele>635.0</ele><time>2026-04-10T15:42:43Z</time></trkpt><trkpt lat="45.07821799107666" lon="7.770185312696972"><ele>633.0</ele><time>2026-04-10T15:42:45Z</time></trkpt><trkpt lat="45.07819679914298" lon="7.770286313410377"><ele>631.0</ele><time>2026-04-10T15:42:47Z</time></trkpt><trkpt lat="45.078185896121134" lon="7.770399082058047"><ele>627.1666666666667</ele><time>2026-04-10T15:42:49Z</time></trkpt><trkpt lat="45.07815862536742" lon="7.770499728111301"><ele>623.3333333333334</ele><time>2026-04-10T15:42:51Z</time></trkpt><trkpt lat="45.078122829996495" lon="7.770652095711214"><ele>619.5</ele><time>2026-04-10T15:42:53Z</time></trkpt><trkpt lat="45.07811289494868" lon="7.770752047971722"><ele>615.6666666666666</ele><time>2026-04-10T15:42:56Z</time></trkpt><trkpt lat="45.0781098778994" lon="7.77086222796294"><ele>611.8333333333333</ele><time>2026-04-10T15:43:00Z</time></trkpt><trkpt lat="45.07813205066707" lon="7.770967250178644"><ele>608.0</ele><time>2026-04-10T15:43:02Z</time></trkpt><trkpt lat="45.07814516932844" lon="7.771093399889121"><ele>607.8333333333333</ele><time>2026-04-10T15:43:05Z</time></trkpt><trkpt lat="45.07811947230918" lon="7.771182650992864"><ele>607.6666666666666</ele><time>2026-04-10T15:43:09Z</time></trkpt><trkpt lat="45.0781541902713" lon="7.7712620451539625"><ele>607.5</ele><time>2026-04-10T15:43:25Z</time></trkpt><trkpt lat="45.078193571588365" lon="7.771343286349252"><ele>607.3333333333334</ele><time>2026-04-10T15:43:29Z</time></trkpt><trkpt lat="45.07828578900681" lon="7.771397740428982"><ele>607.1666666666667</ele><time>2026-04-10T15:43:31Z</time></trkpt><trkpt lat="45.078369237964104" lon="7.771488722807127"><ele>607.0</ele><time>2026-04-10T15:43:33Z</time></trkpt><trkpt lat="45.07840728258511" lon="7.771643025331717"><ele>609.0</ele><time>2026-04-10T15:43:35Z</time></trkpt><trkpt lat="45.07840572658846" lon="7.771815825541559"><ele>611.0</ele><time>2026-04-10T15:43:37Z</time></trkpt><trkpt lat="45.07839084545227" lon="7.77198039809306"><ele>613.0</ele><time>2026-04-10T15:43:39Z</time></trkpt><trkpt lat="45.07839150260874" lon="7.772136265841261"><ele>615.0</ele><time>2026-04-10T15:43:41Z</time></trkpt><trkpt lat="45.07839347294409" lon="7.772289846386856"><ele>615.2</ele><time>2026-04-10T15:43:43Z</time></trkpt><trkpt lat="45.07838075247614" lon="7.77244351747116"><ele>615.4</ele><time>2026-04-10T15:43:45Z</time></trkpt><trkpt lat="45.07835377568034" lon="7.772578868560658"><ele>615.6</ele><time>2026-04-10T15:43:47Z</time></trkpt><trkpt lat="45.07832153633255" lon="7.772707564205645"><ele>615.8</ele><time>2026-04-10T15:43:49Z</time></trkpt><trkpt lat="45.078282154880675" lon="7.772836247701976"><ele>616.0</ele><time>2026-04-10T15:43:51Z</time></trkpt><trkpt lat="45.0782449545061" lon="7.772967279416646"><ele>616.5</ele><time>2026-04-10T15:43:53Z</time></trkpt><trkpt lat="45.078188354930866" lon="7.773086257439829"><ele>617.0</ele><time>2026-04-10T15:43:55Z</time></trkpt><trkpt lat="45.078113718657406" lon="7.77317432881282"><ele>617.5</ele><time>2026-04-10T15:43:57Z</time></trkpt><trkpt lat="45.0780225514033" lon="7.77322266982353"><ele>618.0</ele><time>2026-04-10T15:43:59Z</time></trkpt><trkpt lat="45.077952424187075" lon="7.773285909173592"><ele>618.5</ele><time>2026-04-10T15:44:01Z</time></trkpt><trkpt lat="45.07789667162323" lon="7.773337499821414"><ele>619.0</ele><time>2026-04-10T15:44:03Z</time></trkpt><trkpt lat="45.07782917236925" lon="7.773396686673651"><ele>619.0</ele><time>2026-04-10T15:44:06Z</time></trkpt><trkpt lat="45.077767417757414" lon="7.773461882517475"><ele>619.0</ele><time>2026-04-10T15:44:09Z</time></trkpt><trkpt lat="45.07770542162142" lon="7.773543010533881"><ele>619.0</ele><time>2026-04-10T15:44:12Z</time></trkpt><trkpt lat="45.077660051303184" lon="7.77362652993223"><ele>619.0</ele><time>2026-04-10T15:44:16Z</time></trkpt><trkpt lat="45.07761650068753" lon="7.773694500775572"><ele>619.0</ele><time>2026-04-10T15:44:19Z</time></trkpt><trkpt lat="45.07755302122952" lon="7.773761645876109"><ele>619.0</ele><time>2026-04-10T15:44:23Z</time></trkpt><trkpt lat="45.07750468388167" lon="7.773824562633517"><ele>619.0</ele><time>2026-04-10T15:44:27Z</time></trkpt><trkpt lat="45.07743548978732" lon="7.773887520040898"><ele>622.0</ele><time>2026-04-10T15:44:31Z</time></trkpt><trkpt lat="45.07738945938207" lon="7.77396734285763"><ele>625.0</ele><time>2026-04-10T15:44:35Z</time></trkpt><trkpt lat="45.07731040793736" lon="7.7740183221297245"><ele>628.0</ele><time>2026-04-10T15:44:39Z</time></trkpt><trkpt lat="45.07724870687283" lon="7.774083676079858"><ele>631.0</ele><time>2026-04-10T15:44:43Z</time></trkpt><trkpt lat="45.07718468692511" lon="7.774106382016064"><ele>634.0</ele><time>2026-04-10T15:44:46Z</time></trkpt><trkpt lat="45.07710730316344" lon="7.774113162903455"><ele>637.0</ele><time>2026-04-10T15:44:49Z</time></trkpt><trkpt lat="45.07703333690055" lon="7.7741140547811725"><ele>637.0</ele><time>2026-04-10T15:44:53Z</time></trkpt><trkpt lat="45.07696636424215" lon="7.7741033909667"><ele>637.0</ele><time>2026-04-10T15:44:57Z</time></trkpt><trkpt lat="45.07689789613208" lon="7.774107530850542"><ele>637.0</ele><time>2026-04-10T15:45:00Z</time></trkpt><trkpt lat="45.076816812413384" lon="7.77408749019421"><ele>637.0</ele><time>2026-04-10T15:45:04Z</time></trkpt><trkpt lat="45.07675153752866" lon="7.774070748107932"><ele>637.0</ele><time>2026-04-10T15:45:07Z</time></trkpt><trkpt lat="45.076682968374186" lon="7.7740282729376275"><ele>637.0</ele><time>2026-04-10T15:45:10Z</time></trkpt><trkpt lat="45.07661779998177" lon="7.7740540561219"><ele>637.0</ele><time>2026-04-10T15:45:13Z</time></trkpt><trkpt lat="45.076529906885554" lon="7.774066120292439"><ele>638.2857142857143</ele><time>2026-04-10T15:45:17Z</time></trkpt><trkpt lat="45.07646356692709" lon="7.774047217777888"><ele>639.5714285714286</ele><time>2026-04-10T15:45:20Z</time></trkpt><trkpt lat="45.07639862399118" lon="7.774042847013003"><ele>640.8571428571429</ele><time>2026-04-10T15:45:22.999Z</time></trkpt><trkpt lat="45.07632475474592" lon="7.774009710636403"><ele>642.1428571428571</ele><time>2026-04-10T15:45:26.999Z</time></trkpt><trkpt lat="45.07625784145325" lon="7.774022847177308"><ele>643.4285714285714</ele><time>2026-04-10T15:45:29.999Z</time></trkpt><trkpt lat="45.07617896167521" lon="7.774026927907874"><ele>644.7142857142858</ele><time>2026-04-10T15:45:34Z</time></trkpt><trkpt lat="45.07611020692364" lon="7.774017041070941"><ele>646.0</ele><time>2026-04-10T15:45:38Z</time></trkpt><trkpt lat="45.07604672062144" lon="7.773996912614131"><ele>646.0</ele><time>2026-04-10T15:45:41Z</time></trkpt><trkpt lat="45.07595440002753" lon="7.77398314381823"><ele>646.0</ele><time>2026-04-10T15:45:47Z</time></trkpt><trkpt lat="45.07588545468069" lon="7.773963297328479"><ele>646.0</ele><time>2026-04-10T15:45:48Z</time></trkpt><trkpt lat="45.07581243476495" lon="7.773927206799177"><ele>646.0</ele><time>2026-04-10T15:45:53Z</time></trkpt><trkpt lat="45.07573712496784" lon="7.7738951266928575"><ele>646.0</ele><time>2026-04-10T15:45:57Z</time></trkpt><trkpt lat="45.07566230618816" lon="7.773885970429156"><ele>646.0</ele><time>2026-04-10T15:46:00Z</time></trkpt><trkpt lat="45.07557530529581" lon="7.773931112271948"><ele>644.5</ele><time>2026-04-10T15:46:03Z</time></trkpt><trkpt lat="45.07549412038027" lon="7.77398381799698"><ele>643.0</ele><time>2026-04-10T15:46:06Z</time></trkpt><trkpt lat="45.075448143708954" lon="7.774046315215843"><ele>641.5</ele><time>2026-04-10T15:46:08Z</time></trkpt><trkpt lat="45.07541666119543" lon="7.7741427350905825"><ele>640.0</ele><time>2026-04-10T15:46:10Z</time></trkpt><trkpt lat="45.07539797044519" lon="7.77423954240089"><ele>638.5</ele><time>2026-04-10T15:46:12Z</time></trkpt><trkpt lat="45.075384565934876" lon="7.774335601295381"><ele>637.0</ele><time>2026-04-10T15:46:15Z</time></trkpt><trkpt lat="45.07536210495562" lon="7.774457648010427"><ele>637.0</ele><time>2026-04-10T15:46:18Z</time></trkpt><trkpt lat="45.07536609144626" lon="7.774602108022296"><ele>637.0</ele><time>2026-04-10T15:46:20Z</time></trkpt><trkpt lat="45.07536815247573" lon="7.774711318506969"><ele>637.0</ele><time>2026-04-10T15:46:22Z</time></trkpt><trkpt lat="45.07535813030857" lon="7.774817876525394"><ele>637.0</ele><time>2026-04-10T15:46:24Z</time></trkpt><trkpt lat="45.07533831931223" lon="7.774917851331971"><ele>637.0</ele><time>2026-04-10T15:46:26Z</time></trkpt><trkpt lat="45.0753151166103" lon="7.7750186029667425"><ele>637.0</ele><time>2026-04-10T15:46:28Z</time></trkpt><trkpt lat="45.075286705076905" lon="7.775114665876983"><ele>639.3333333333334</ele><time>2026-04-10T15:46:31Z</time></trkpt><trkpt lat="45.07525431450295" lon="7.7752117483191725"><ele>641.6666666666667</ele><time>2026-04-10T15:46:34Z</time></trkpt><trkpt lat="45.075225104038424" lon="7.775310677442214"><ele>644.0</ele><time>2026-04-10T15:46:37Z</time></trkpt><trkpt lat="45.07516586432585" lon="7.775407961508592"><ele>646.3333333333334</ele><time>2026-04-10T15:46:40Z</time></trkpt><trkpt lat="45.075107369395695" lon="7.775492825090544"><ele>648.6666666666666</ele><time>2026-04-10T15:46:42Z</time></trkpt><trkpt lat="45.07505379616489" lon="7.775568696496876"><ele>651.0</ele><time>2026-04-10T15:46:44Z</time></trkpt><trkpt lat="45.07498744112825" lon="7.775674366213256"><ele>648.8333333333334</ele><time>2026-04-10T15:46:47Z</time></trkpt><trkpt lat="45.07492828846186" lon="7.775716831516561"><ele>646.6666666666666</ele><time>2026-04-10T15:46:49Z</time></trkpt><trkpt lat="45.074855491782984" lon="7.775786622408848"><ele>644.5</ele><time>2026-04-10T15:46:52Z</time></trkpt><trkpt lat="45.074791399368145" lon="7.775826322802649"><ele>642.3333333333333</ele><time>2026-04-10T15:46:53.999Z</time></trkpt><trkpt lat="45.07472125015873" lon="7.775875735768466"><ele>640.1666666666666</ele><time>2026-04-10T15:46:56.999Z</time></trkpt><trkpt lat="45.074642955958986" lon="7.775915423774592"><ele>638.0</ele><time>2026-04-10T15:46:59.999Z</time></trkpt><trkpt lat="45.07456976009726" lon="7.775973047365779"><ele>640.5</ele><time>2026-04-10T15:47:02.999Z</time></trkpt><trkpt lat="45.074503957367384" lon="7.776031888290276"><ele>643.0</ele><time>2026-04-10T15:47:05.999Z</time></trkpt><trkpt lat="45.07443405248646" lon="7.776056256828998"><ele>645.5</ele><time>2026-04-10T15:47:07.999Z</time></trkpt><trkpt lat="45.074345078803645" lon="7.776092743929329"><ele>648.0</ele><time>2026-04-10T15:47:10.999Z</time></trkpt><trkpt lat="45.074294873381334" lon="7.776168894281609"><ele>650.5</ele><time>2026-04-10T15:47:13.999Z</time></trkpt><trkpt lat="45.07425576122331" lon="7.776247904480306"><ele>653.0</ele><time>2026-04-10T15:47:15.999Z</time></trkpt><trkpt lat="45.07421835721017" lon="7.776336327058184"><ele>653.0</ele><time>2026-04-10T15:47:18.999Z</time></trkpt><trkpt lat="45.07418133928883" lon="7.776431197075391"><ele>653.0</ele><time>2026-04-10T15:47:21.999Z</time></trkpt><trkpt lat="45.07414488567964" lon="7.7765566387763965"><ele>653.0</ele><time>2026-04-10T15:47:24.999Z</time></trkpt><trkpt lat="45.07412217057071" lon="7.776671245542979"><ele>653.0</ele><time>2026-04-10T15:47:27.999Z</time></trkpt><trkpt lat="45.074113276730465" lon="7.776784498814521"><ele>653.0</ele><time>2026-04-10T15:47:30.999Z</time></trkpt><trkpt lat="45.07409706253583" lon="7.77689191384915"><ele>653.0</ele><time>2026-04-10T15:47:32.999Z</time></trkpt><trkpt lat="45.074078784297434" lon="7.776994840068963"><ele>648.6666666666666</ele><time>2026-04-10T15:47:34.999Z</time></trkpt><trkpt lat="45.07404448287396" lon="7.777113581532857"><ele>644.3333333333333</ele><time>2026-04-10T15:47:36.999Z</time></trkpt><trkpt lat="45.074042670004175" lon="7.777211985134879"><ele>640.0</ele><time>2026-04-10T15:47:39Z</time></trkpt><trkpt lat="45.07402879750525" lon="7.777317065852923"><ele>635.6666666666666</ele><time>2026-04-10T15:47:41Z</time></trkpt><trkpt lat="45.07400985424838" lon="7.777425090001535"><ele>631.3333333333334</ele><time>2026-04-10T15:47:43Z</time></trkpt><trkpt lat="45.07399289674875" lon="7.777533408547528"><ele>627.0</ele><time>2026-04-10T15:47:45Z</time></trkpt><trkpt lat="45.073971847881154" lon="7.777634486317396"><ele>627.6666666666666</ele><time>2026-04-10T15:47:47Z</time></trkpt><trkpt lat="45.07396117500379" lon="7.777747594518062"><ele>628.3333333333334</ele><time>2026-04-10T15:47:49Z</time></trkpt><trkpt lat="45.07395102563474" lon="7.777863032469893"><ele>629.0</ele><time>2026-04-10T15:47:51Z</time></trkpt><trkpt lat="45.07393524195057" lon="7.777967466997299"><ele>629.6666666666667</ele><time>2026-04-10T15:47:53Z</time></trkpt><trkpt lat="45.0739261521353" lon="7.778087069800918"><ele>630.3333333333334</ele><time>2026-04-10T15:47:55Z</time></trkpt><trkpt lat="45.07392683167465" lon="7.77819299511136"><ele>631.0</ele><time>2026-04-10T15:47:57Z</time></trkpt><trkpt lat="45.07393182233229" lon="7.778292500988113"><ele>631.0</ele><time>2026-04-10T15:47:59Z</time></trkpt><trkpt lat="45.07394343878939" lon="7.778416240948924"><ele>631.0</ele><time>2026-04-10T15:48:01Z</time></trkpt><trkpt lat="45.0739776866883" lon="7.778542988465178"><ele>631.0</ele><time>2026-04-10T15:48:03Z</time></trkpt><trkpt lat="45.07400356663782" lon="7.778681609768668"><ele>631.0</ele><time>2026-04-10T15:48:05Z</time></trkpt><trkpt lat="45.07403297827057" lon="7.778820720584102"><ele>631.0</ele><time>2026-04-10T15:48:07Z</time></trkpt><trkpt lat="45.07405846077032" lon="7.778972409424547"><ele>631.0</ele><time>2026-04-10T15:48:09Z</time></trkpt><trkpt lat="45.0740908307092" lon="7.779135483987909"><ele>631.0</ele><time>2026-04-10T15:48:11Z</time></trkpt><trkpt lat="45.07411412692694" lon="7.779294344588778"><ele>631.0</ele><time>2026-04-10T15:48:13Z</time></trkpt><trkpt lat="45.074120010542856" lon="7.779385318319551"><ele>631.0</ele><time>2026-04-10T15:48:14Z</time></trkpt><trkpt lat="45.07411434081421" lon="7.779475003400602"><ele>631.0</ele><time>2026-04-10T15:48:15Z</time></trkpt><trkpt lat="45.07410126892605" lon="7.779562859791354"><ele>631.0</ele><time>2026-04-10T15:48:16Z</time></trkpt><trkpt lat="45.07408663089803" lon="7.779656851230989"><ele>631.4285714285714</ele><time>2026-04-10T15:48:17Z</time></trkpt><trkpt lat="45.07407470813806" lon="7.779752415593233"><ele>631.8571428571428</ele><time>2026-04-10T15:48:18Z</time></trkpt><trkpt lat="45.074060822800014" lon="7.7798467560429945"><ele>632.2857142857142</ele><time>2026-04-10T15:48:19Z</time></trkpt><trkpt lat="45.07404572927379" lon="7.779945745706596"><ele>632.7142857142858</ele><time>2026-04-10T15:48:20Z</time></trkpt><trkpt lat="45.07402981828353" lon="7.780044771030709"><ele>633.1428571428571</ele><time>2026-04-10T15:48:21Z</time></trkpt><trkpt lat="45.07401168016721" lon="7.780148338232188"><ele>633.5714285714286</ele><time>2026-04-10T15:48:22Z</time></trkpt><trkpt lat="45.07399711183592" lon="7.7802488319388114"><ele>634.0</ele><time>2026-04-10T15:48:23Z</time></trkpt><trkpt lat="45.07398037135719" lon="7.78034674756403"><ele>634.6666666666667</ele><time>2026-04-10T15:48:24Z</time></trkpt><trkpt lat="45.07396432795845" lon="7.780451423536384"><ele>635.3333333333334</ele><time>2026-04-10T15:48:25Z</time></trkpt><trkpt lat="45.0739587112716" lon="7.780554256656058"><ele>636.0</ele><time>2026-04-10T15:48:26Z</time></trkpt><trkpt lat="45.07394443322961" lon="7.780664406363799"><ele>636.6666666666666</ele><time>2026-04-10T15:48:27Z</time></trkpt><trkpt lat="45.073923671204604" lon="7.780765790847244"><ele>637.3333333333333</ele><time>2026-04-10T15:48:28Z</time></trkpt><trkpt lat="45.073909695757195" lon="7.780870090718461"><ele>638.0</ele><time>2026-04-10T15:48:29Z</time></trkpt><trkpt lat="45.07389392102844" lon="7.780972233468108"><ele>638.8</ele><time>2026-04-10T15:48:30Z</time></trkpt><trkpt lat="45.073878175459" lon="7.781066184349887"><ele>639.5999999999999</ele><time>2026-04-10T15:48:31Z</time></trkpt><trkpt lat="45.07386224201307" lon="7.781163478883314"><ele>640.4000000000001</ele><time>2026-04-10T15:48:32Z</time></trkpt><trkpt lat="45.07383565573223" lon="7.781346440458582"><ele>641.2</ele><time>2026-04-10T15:48:34Z</time></trkpt><trkpt lat="45.07381520965958" lon="7.781517140932915"><ele>642.0</ele><time>2026-04-10T15:48:36Z</time></trkpt><trkpt lat="45.07378982418215" lon="7.781672148039261"><ele>642.0</ele><time>2026-04-10T15:48:38Z</time></trkpt><trkpt lat="45.073761988407256" lon="7.781805642118224"><ele>642.0</ele><time>2026-04-10T15:48:40Z</time></trkpt><trkpt lat="45.073743628472215" lon="7.781900674787696"><ele>642.0</ele><time>2026-04-10T15:48:43Z</time></trkpt><trkpt lat="45.073817184202596" lon="7.781894290144273"><ele>642.0</ele><time>2026-04-10T15:48:52.999Z</time></trkpt><trkpt lat="45.0738699341277" lon="7.781960442146385"><ele>642.0</ele><time>2026-04-10T15:51:27.999Z</time></trkpt><trkpt lat="45.07390861339047" lon="7.782061114075967"><ele>642.0</ele><time>2026-04-10T15:51:30.999Z</time></trkpt><trkpt lat="45.073947845578346" lon="7.782159301003498"><ele>643.1666666666666</ele><time>2026-04-10T15:51:32.999Z</time></trkpt><trkpt lat="45.07399329922838" lon="7.7822542213816766"><ele>644.3333333333334</ele><time>2026-04-10T15:51:34.999Z</time></trkpt><trkpt lat="45.07402306607864" lon="7.782374480827117"><ele>645.5</ele><time>2026-04-10T15:51:36.999Z</time></trkpt><trkpt lat="45.07403055934281" lon="7.782496723699737"><ele>646.6666666666667</ele><time>2026-04-10T15:51:39.999Z</time></trkpt><trkpt lat="45.07406655808759" lon="7.782613003197864"><ele>647.8333333333334</ele><time>2026-04-10T15:51:41.999Z</time></trkpt><trkpt lat="45.074065831974494" lon="7.782731793400637"><ele>649.0</ele><time>2026-04-10T15:51:43.999Z</time></trkpt><trkpt lat="45.07405342788469" lon="7.782875336651155"><ele>649.8000000000001</ele><time>2026-04-10T15:51:45.999Z</time></trkpt><trkpt lat="45.074051400102626" lon="7.783018214589994"><ele>650.6</ele><time>2026-04-10T15:51:47.999Z</time></trkpt><trkpt lat="45.0740352808513" lon="7.7831560167976885"><ele>651.4</ele><time>2026-04-10T15:51:50Z</time></trkpt><trkpt lat="45.074030125713804" lon="7.7832468774615196"><ele>652.2</ele><time>2026-04-10T15:51:51Z</time></trkpt><trkpt lat="45.07405733288586" lon="7.783410702676925"><ele>653.0</ele><time>2026-04-10T15:51:53Z</time></trkpt><trkpt lat="45.07407225372071" lon="7.783566121585047"><ele>654.2</ele><time>2026-04-10T15:51:55Z</time></trkpt><trkpt lat="45.07409774071752" lon="7.783738974616517"><ele>655.4</ele><time>2026-04-10T15:51:57Z</time></trkpt><trkpt lat="45.0741155384575" lon="7.7838801134301665"><ele>656.6</ele><time>2026-04-10T15:51:59Z</time></trkpt><trkpt lat="45.074137092619694" lon="7.784012942356389"><ele>657.8000000000001</ele><time>2026-04-10T15:52:01Z</time></trkpt><trkpt lat="45.07414738741733" lon="7.784143592870962"><ele>659.0</ele><time>2026-04-10T15:52:03Z</time></trkpt><trkpt lat="45.07413390696242" lon="7.784231464141579"><ele>657.6666666666666</ele><time>2026-04-10T15:52:05Z</time></trkpt><trkpt lat="45.07412405027491" lon="7.784352540505265"><ele>656.3333333333333</ele><time>2026-04-10T15:52:08Z</time></trkpt><trkpt lat="45.07410331350075" lon="7.784452242081274"><ele>655.0</ele><time>2026-04-10T15:52:11Z</time></trkpt><trkpt lat="45.074054877957394" lon="7.784569541871095"><ele>653.6666666666666</ele><time>2026-04-10T15:52:14Z</time></trkpt><trkpt lat="45.07402386988427" lon="7.784665803779588"><ele>652.3333333333334</ele><time>2026-04-10T15:52:16Z</time></trkpt><trkpt lat="45.07396983611838" lon="7.78475119222611"><ele>651.0</ele><time>2026-04-10T15:52:18Z</time></trkpt><trkpt lat="45.073922892818395" lon="7.784839175123526"><ele>651.0</ele><time>2026-04-10T15:52:21Z</time></trkpt><trkpt lat="45.07387229652777" lon="7.784944686952219"><ele>651.0</ele><time>2026-04-10T15:52:24Z</time></trkpt><trkpt lat="45.0738301897939" lon="7.785025766540534"><ele>651.0</ele><time>2026-04-10T15:52:26Z</time></trkpt><trkpt lat="45.07380069185225" lon="7.785123063039994"><ele>651.0</ele><time>2026-04-10T15:52:29Z</time></trkpt><trkpt lat="45.07374306592423" lon="7.785196908908649"><ele>651.0</ele><time>2026-04-10T15:52:31Z</time></trkpt><trkpt lat="45.07370372764609" lon="7.785307827255012"><ele>651.0</ele><time>2026-04-10T15:52:33Z</time></trkpt><trkpt lat="45.073651502407465" lon="7.785383160043253"><ele>647.4</ele><time>2026-04-10T15:52:35Z</time></trkpt><trkpt lat="45.07358922337418" lon="7.785466184348134"><ele>643.8</ele><time>2026-04-10T15:52:37Z</time></trkpt><trkpt lat="45.073538711807885" lon="7.78555073081987"><ele>640.1999999999999</ele><time>2026-04-10T15:52:39Z</time></trkpt><trkpt lat="45.07346670885587" lon="7.785637472017384"><ele>636.5999999999999</ele><time>2026-04-10T15:52:41Z</time></trkpt><trkpt lat="45.073413540849955" lon="7.785762657483132"><ele>633.0</ele><time>2026-04-10T15:52:44Z</time></trkpt><trkpt lat="45.07334337988061" lon="7.785865188123805"><ele>633.0</ele><time>2026-04-10T15:52:46Z</time></trkpt><trkpt lat="45.073276062600016" lon="7.785954453810156"><ele>633.0</ele><time>2026-04-10T15:52:48Z</time></trkpt><trkpt lat="45.07319922744332" lon="7.78602450947738"><ele>633.0</ele><time>2026-04-10T15:52:50Z</time></trkpt><trkpt lat="45.073167306384576" lon="7.786109136355406"><ele>633.0</ele><time>2026-04-10T15:52:52Z</time></trkpt><trkpt lat="45.073148481898954" lon="7.786194811799663"><ele>633.0</ele><time>2026-04-10T15:52:54Z</time></trkpt><trkpt lat="45.073053927357925" lon="7.786275770528284"><ele>633.0</ele><time>2026-04-10T15:52:56Z</time></trkpt><trkpt lat="45.07298220620732" lon="7.7863488210599865"><ele>630.4</ele><time>2026-04-10T15:52:58Z</time></trkpt><trkpt lat="45.072926994792745" lon="7.786432699884679"><ele>627.8</ele><time>2026-04-10T15:53:00Z</time></trkpt><trkpt lat="45.0728465077931" lon="7.786505651093393"><ele>625.2</ele><time>2026-04-10T15:53:02Z</time></trkpt><trkpt lat="45.072749863158236" lon="7.786602654007393"><ele>622.6</ele><time>2026-04-10T15:53:04Z</time></trkpt><trkpt lat="45.07266845024552" lon="7.786680292921344"><ele>620.0</ele><time>2026-04-10T15:53:06Z</time></trkpt><trkpt lat="45.072603649612695" lon="7.786754354841205"><ele>620.0</ele><time>2026-04-10T15:53:08Z</time></trkpt><trkpt lat="45.07252551273945" lon="7.7867673435805616"><ele>620.0</ele><time>2026-04-10T15:53:10Z</time></trkpt><trkpt lat="45.07243596759665" lon="7.786701299952293"><ele>620.0</ele><time>2026-04-10T15:53:12Z</time></trkpt><trkpt lat="45.0723476154925" lon="7.78666596552183"><ele>620.0</ele><time>2026-04-10T15:53:13.999Z</time></trkpt><trkpt lat="45.07226411811196" lon="7.786672737613927"><ele>620.0</ele><time>2026-04-10T15:53:15.999Z</time></trkpt><trkpt lat="45.07215793911762" lon="7.78669079130592"><ele>616.5</ele><time>2026-04-10T15:53:17.999Z</time></trkpt><trkpt lat="45.072098587113395" lon="7.786721765461087"><ele>613.0</ele><time>2026-04-10T15:53:18.999Z</time></trkpt><trkpt lat="45.07204286299211" lon="7.786768552376763"><ele>609.5</ele><time>2026-04-10T15:53:19.999Z</time></trkpt><trkpt lat="45.07197817380145" lon="7.786811105140408"><ele>606.0</ele><time>2026-04-10T15:53:20.999Z</time></trkpt><trkpt lat="45.071885810586174" lon="7.78687831992862"><ele>602.5</ele><time>2026-04-10T15:53:22.999Z</time></trkpt><trkpt lat="45.071818946402345" lon="7.786976990544858"><ele>599.0</ele><time>2026-04-10T15:53:24.999Z</time></trkpt><trkpt lat="45.071771296906576" lon="7.787146695801348"><ele>598.0</ele><time>2026-04-10T15:53:26.999Z</time></trkpt><trkpt lat="45.07179384171953" lon="7.787243203119097"><ele>597.0</ele><time>2026-04-10T15:53:27.999Z</time></trkpt><trkpt lat="45.071838561847365" lon="7.787347491612046"><ele>596.0</ele><time>2026-04-10T15:53:28.999Z</time></trkpt><trkpt lat="45.0718375015062" lon="7.787442899703096"><ele>595.0</ele><time>2026-04-10T15:53:29.999Z</time></trkpt><trkpt lat="45.07180191013281" lon="7.787606229544929"><ele>594.0</ele><time>2026-04-10T15:53:31.999Z</time></trkpt><trkpt lat="45.071692395694384" lon="7.787697732251588"><ele>594.0</ele><time>2026-04-10T15:53:33.999Z</time></trkpt><trkpt lat="45.07163162602039" lon="7.787741499088062"><ele>594.0</ele><time>2026-04-10T15:53:34.999Z</time></trkpt><trkpt lat="45.071558224366626" lon="7.787832342723691"><ele>594.0</ele><time>2026-04-10T15:53:36.999Z</time></trkpt><trkpt lat="45.071493203127886" lon="7.787959495787286"><ele>594.0</ele><time>2026-04-10T15:53:38.999Z</time></trkpt><trkpt lat="45.07143266010552" lon="7.788107640616007"><ele>594.0</ele><time>2026-04-10T15:53:40.999Z</time></trkpt><trkpt lat="45.071400681274504" lon="7.78819001315245"><ele>591.0</ele><time>2026-04-10T15:53:41.999Z</time></trkpt><trkpt lat="45.071381420169196" lon="7.788303498096184"><ele>588.0</ele><time>2026-04-10T15:53:42.999Z</time></trkpt><trkpt lat="45.0713456384886" lon="7.788403148406589"><ele>585.0</ele><time>2026-04-10T15:53:43.999Z</time></trkpt><trkpt lat="45.071313496407654" lon="7.788513086080628"><ele>582.0</ele><time>2026-04-10T15:53:44.999Z</time></trkpt><trkpt lat="45.07127914589088" lon="7.788617874124342"><ele>579.0</ele><time>2026-04-10T15:53:45.999Z</time></trkpt><trkpt lat="45.07122949242481" lon="7.788715435291416"><ele>576.0</ele><time>2026-04-10T15:53:46.999Z</time></trkpt><trkpt lat="45.07119255506764" lon="7.7888054870587204"><ele>576.0</ele><time>2026-04-10T15:53:47.999Z</time></trkpt><trkpt lat="45.071152338158804" lon="7.788896449083028"><ele>576.0</ele><time>2026-04-10T15:53:48.999Z</time></trkpt><trkpt lat="45.07112655740835" lon="7.788991575454113"><ele>576.0</ele><time>2026-04-10T15:53:49.999Z</time></trkpt><trkpt lat="45.071069657670684" lon="7.789066478310602"><ele>576.0</ele><time>2026-04-10T15:53:50.999Z</time></trkpt><trkpt lat="45.07101641978778" lon="7.7892021857745934"><ele>576.0</ele><time>2026-04-10T15:53:52.999Z</time></trkpt><trkpt lat="45.070988286633664" lon="7.789284942268442"><ele>576.0</ele><time>2026-04-10T15:53:53.999Z</time></trkpt><trkpt lat="45.07101122724129" lon="7.789462091205738"><ele>575.5714285714287</ele><time>2026-04-10T15:53:56Z</time></trkpt><trkpt lat="45.0710646266297" lon="7.7895456801798675"><ele>575.1428571428571</ele><time>2026-04-10T15:53:57Z</time></trkpt><trkpt lat="45.07111832809807" lon="7.789619208816426"><ele>574.7142857142858</ele><time>2026-04-10T15:53:58Z</time></trkpt><trkpt lat="45.07116802949101" lon="7.789685101148843"><ele>574.2857142857143</ele><time>2026-04-10T15:53:59Z</time></trkpt><trkpt lat="45.07120739791712" lon="7.789769183749739"><ele>573.8571428571429</ele><time>2026-04-10T15:54:00Z</time></trkpt><trkpt lat="45.07122188118951" lon="7.789881733326584"><ele>573.4285714285714</ele><time>2026-04-10T15:54:01Z</time></trkpt><trkpt lat="45.07123262187874" lon="7.789972904403051"><ele>573.0</ele><time>2026-04-10T15:54:02Z</time></trkpt><trkpt lat="45.07121100170497" lon="7.790093052715456"><ele>573.0</ele><time>2026-04-10T15:54:03Z</time></trkpt><trkpt lat="45.071194580692286" lon="7.790201460053127"><ele>573.0</ele><time>2026-04-10T15:54:04Z</time></trkpt><trkpt lat="45.071177556608426" lon="7.790318208046693"><ele>573.0</ele><time>2026-04-10T15:54:05Z</time></trkpt><trkpt lat="45.07115939884505" lon="7.790436372920155"><ele>573.0</ele><time>2026-04-10T15:54:06Z</time></trkpt><trkpt lat="45.071140420410714" lon="7.790551412570263"><ele>573.0</ele><time>2026-04-10T15:54:07Z</time></trkpt><trkpt lat="45.071120059410546" lon="7.790655864800274"><ele>573.0</ele><time>2026-04-10T15:54:08Z</time></trkpt><trkpt lat="45.071093235381" lon="7.790759841315379"><ele>573.0</ele><time>2026-04-10T15:54:09Z</time></trkpt><trkpt lat="45.07106995388836" lon="7.790873697501088"><ele>573.0</ele><time>2026-04-10T15:54:10Z</time></trkpt><trkpt lat="45.070993584161734" lon="7.790951187708298"><ele>573.0</ele><time>2026-04-10T15:54:11Z</time></trkpt><trkpt lat="45.070928841436434" lon="7.791023265472998"><ele>573.0</ele><time>2026-04-10T15:54:12Z</time></trkpt><trkpt lat="45.07088837704825" lon="7.7911249768139115"><ele>573.0</ele><time>2026-04-10T15:54:13Z</time></trkpt><trkpt lat="45.07085421347123" lon="7.791202742484218"><ele>573.0</ele><time>2026-04-10T15:54:14Z</time></trkpt><trkpt lat="45.07086656492909" lon="7.7912999992271565"><ele>573.1666666666666</ele><time>2026-04-10T15:54:15Z</time></trkpt><trkpt lat="45.07090539669568" lon="7.791398281445136"><ele>573.3333333333334</ele><time>2026-04-10T15:54:16Z</time></trkpt><trkpt lat="45.07097443362049" lon="7.791473772872329"><ele>573.5</ele><time>2026-04-10T15:54:17Z</time></trkpt><trkpt lat="45.07105528525701" lon="7.791513963310167"><ele>573.6666666666667</ele><time>2026-04-10T15:54:18Z</time></trkpt><trkpt lat="45.07115176276521" lon="7.791530898796485"><ele>573.8333333333334</ele><time>2026-04-10T15:54:19Z</time></trkpt><trkpt lat="45.07123813356426" lon="7.791566979829097"><ele>574.0</ele><time>2026-04-10T15:54:20Z</time></trkpt><trkpt lat="45.07133116110125" lon="7.7916029243492915"><ele>574.0</ele><time>2026-04-10T15:54:21Z</time></trkpt><trkpt lat="45.07140988212058" lon="7.791653061164776"><ele>574.0</ele><time>2026-04-10T15:54:22Z</time></trkpt><trkpt lat="45.07148265985267" lon="7.791680523245131"><ele>574.0</ele><time>2026-04-10T15:54:23Z</time></trkpt><trkpt lat="45.07155366594831" lon="7.791687145569652"><ele>574.0</ele><time>2026-04-10T15:54:24Z</time></trkpt><trkpt lat="45.07162576364808" lon="7.791718395355729"><ele>574.0</ele><time>2026-04-10T15:54:25Z</time></trkpt><trkpt lat="45.071702286369394" lon="7.791723281815855"><ele>574.0</ele><time>2026-04-10T15:54:26Z</time></trkpt><trkpt lat="45.07178449902661" lon="7.791698735098863"><ele>572.4</ele><time>2026-04-10T15:54:27Z</time></trkpt><trkpt lat="45.07186242293176" lon="7.791633757230575"><ele>570.8</ele><time>2026-04-10T15:54:28Z</time></trkpt><trkpt lat="45.07193918451519" lon="7.791539419681225"><ele>569.2</ele><time>2026-04-10T15:54:29Z</time></trkpt><trkpt lat="45.0720096062541" lon="7.791437179311984"><ele>567.6</ele><time>2026-04-10T15:54:30Z</time></trkpt><trkpt lat="45.07208437566902" lon="7.791370082979455"><ele>566.0</ele><time>2026-04-10T15:54:31Z</time></trkpt><trkpt lat="45.0721571018984" lon="7.791304760673534"><ele>566.0</ele><time>2026-04-10T15:54:32Z</time></trkpt><trkpt lat="45.07224990848453" lon="7.791251292016712"><ele>566.0</ele><time>2026-04-10T15:54:33Z</time></trkpt><trkpt lat="45.0723358070567" lon="7.791203092543435"><ele>566.0</ele><time>2026-04-10T15:54:34Z</time></trkpt><trkpt lat="45.07242668596751" lon="7.791166390824886"><ele>566.0</ele><time>2026-04-10T15:54:35Z</time></trkpt><trkpt lat="45.072518412665374" lon="7.791140523779639"><ele>566.0</ele><time>2026-04-10T15:54:36Z</time></trkpt><trkpt lat="45.072602381434706" lon="7.791127799353703"><ele>563.8333333333333</ele><time>2026-04-10T15:54:37Z</time></trkpt><trkpt lat="45.072683747261586" lon="7.791120088161213"><ele>561.6666666666666</ele><time>2026-04-10T15:54:38Z</time></trkpt><trkpt lat="45.07276524291141" lon="7.791105568535311"><ele>559.5</ele><time>2026-04-10T15:54:39Z</time></trkpt><trkpt lat="45.0728463422544" lon="7.7910961084785235"><ele>557.3333333333334</ele><time>2026-04-10T15:54:40Z</time></trkpt><trkpt lat="45.07295569149328" lon="7.791090882104115"><ele>555.1666666666667</ele><time>2026-04-10T15:54:42Z</time></trkpt><trkpt lat="45.07301951122764" lon="7.791092948220008"><ele>553.0</ele><time>2026-04-10T15:54:44Z</time></trkpt><trkpt lat="45.07308245476367" lon="7.79110780632091"><ele>553.0</ele><time>2026-04-10T15:54:48Z</time></trkpt><trkpt lat="45.07315203016554" lon="7.791128301584188"><ele>553.0</ele><time>2026-04-10T15:54:51Z</time></trkpt><trkpt lat="45.073235518835084" lon="7.791118846780853"><ele>553.0</ele><time>2026-04-10T15:54:54Z</time></trkpt><trkpt lat="45.07330754132975" lon="7.791089134550942"><ele>553.0</ele><time>2026-04-10T15:54:57Z</time></trkpt><trkpt lat="45.07337042736205" lon="7.791183401942324"><ele>553.0</ele><time>2026-04-10T15:55:00Z</time></trkpt><trkpt lat="45.07339947868323" lon="7.7912904315498785"><ele>553.0</ele><time>2026-04-10T15:55:02Z</time></trkpt><trkpt lat="45.073432362658636" lon="7.791405756141329"><ele>553.0</ele><time>2026-04-10T15:55:04Z</time></trkpt><trkpt lat="45.07345326651925" lon="7.791523487992782"><ele>553.0</ele><time>2026-04-10T15:55:06Z</time></trkpt><trkpt lat="45.07346580420261" lon="7.791663127923068"><ele>553.0</ele><time>2026-04-10T15:55:08Z</time></trkpt><trkpt lat="45.07347868048561" lon="7.791812410969436"><ele>553.0</ele><time>2026-04-10T15:55:10Z</time></trkpt><trkpt lat="45.073488693530955" lon="7.791960117271642"><ele>553.0</ele><time>2026-04-10T15:55:12Z</time></trkpt><trkpt lat="45.07348511684894" lon="7.792108902783032"><ele>552.8</ele><time>2026-04-10T15:55:14Z</time></trkpt><trkpt lat="45.073481426438526" lon="7.792273052286487"><ele>552.5999999999999</ele><time>2026-04-10T15:55:16Z</time></trkpt><trkpt lat="45.073479915478956" lon="7.7924350976848205"><ele>552.4000000000001</ele><time>2026-04-10T15:55:18Z</time></trkpt><trkpt lat="45.073474382378926" lon="7.792529159902086"><ele>552.2</ele><time>2026-04-10T15:55:19Z</time></trkpt><trkpt lat="45.073479252956936" lon="7.792688684093781"><ele>552.0</ele><time>2026-04-10T15:55:21Z</time></trkpt><trkpt lat="45.073477279286635" lon="7.7928602010446095"><ele>552.0</ele><time>2026-04-10T15:55:22.999Z</time></trkpt><trkpt lat="45.07348680874277" lon="7.793033090202922"><ele>552.0</ele><time>2026-04-10T15:55:24.999Z</time></trkpt><trkpt lat="45.07349718657402" lon="7.793210027539729"><ele>552.0</ele><time>2026-04-10T15:55:26.999Z</time></trkpt><trkpt lat="45.0735120912649" lon="7.793378625562812"><ele>552.0</ele><time>2026-04-10T15:55:28.999Z</time></trkpt><trkpt lat="45.07353373165789" lon="7.793535000106349"><ele>553.2</ele><time>2026-04-10T15:55:30.999Z</time></trkpt><trkpt lat="45.07356394266532" lon="7.79367385875321"><ele>554.4000000000001</ele><time>2026-04-10T15:55:32.999Z</time></trkpt><trkpt lat="45.07362674062609" lon="7.793794501605105"><ele>555.5999999999999</ele><time>2026-04-10T15:55:34.999Z</time></trkpt><trkpt lat="45.07367949855036" lon="7.793906871246416"><ele>556.8</ele><time>2026-04-10T15:55:36.999Z</time></trkpt><trkpt lat="45.07373279139528" lon="7.794018592781896"><ele>558.0</ele><time>2026-04-10T15:55:38.999Z</time></trkpt><trkpt lat="45.07378448030123" lon="7.794108797399878"><ele>558.0</ele><time>2026-04-10T15:55:40.999Z</time></trkpt><trkpt lat="45.07383690723139" lon="7.794197564010312"><ele>558.0</ele><time>2026-04-10T15:55:42.999Z</time></trkpt><trkpt lat="45.07389566986227" lon="7.794265493960352"><ele>558.0</ele><time>2026-04-10T15:55:44.999Z</time></trkpt><trkpt lat="45.073951568310314" lon="7.7943491728340915"><ele>558.0</ele><time>2026-04-10T15:55:46.999Z</time></trkpt><trkpt lat="45.074013528791745" lon="7.794422071630433"><ele>558.0</ele><time>2026-04-10T15:55:48.999Z</time></trkpt><trkpt lat="45.074056946670424" lon="7.794503360060388"><ele>558.0</ele><time>2026-04-10T15:55:50.999Z</time></trkpt><trkpt lat="45.074103031040465" lon="7.794570972354903"><ele>559.3333333333334</ele><time>2026-04-10T15:55:52.999Z</time></trkpt><trkpt lat="45.07415016053766" lon="7.794646722153028"><ele>560.6666666666666</ele><time>2026-04-10T15:55:54.999Z</time></trkpt><trkpt lat="45.074192376069426" lon="7.7947386080777035"><ele>562.0</ele><time>2026-04-10T15:55:56.999Z</time></trkpt><trkpt lat="45.07423259674981" lon="7.794818748921082"><ele>563.3333333333333</ele><time>2026-04-10T15:55:58.999Z</time></trkpt><trkpt lat="45.074281411987776" lon="7.794932510762997"><ele>564.6666666666666</ele><time>2026-04-10T15:56:02Z</time></trkpt><trkpt lat="45.07430446333995" lon="7.795042415461923"><ele>566.0</ele><time>2026-04-10T15:56:04Z</time></trkpt><trkpt lat="45.07431953306944" lon="7.795141777890102"><ele>566.1666666666666</ele><time>2026-04-10T15:56:06Z</time></trkpt><trkpt lat="45.0743275992617" lon="7.795260237240344"><ele>566.3333333333333</ele><time>2026-04-10T15:56:08Z</time></trkpt><trkpt lat="45.074331499197925" lon="7.795357840232137"><ele>566.5</ele><time>2026-04-10T15:56:10Z</time></trkpt><trkpt lat="45.074326960145555" lon="7.795485855485443"><ele>566.6666666666666</ele><time>2026-04-10T15:56:12Z</time></trkpt><trkpt lat="45.07432888239767" lon="7.795587603483152"><ele>566.8333333333334</ele><time>2026-04-10T15:56:14Z</time></trkpt><trkpt lat="45.0743292498273" lon="7.795691197553377"><ele>567.0</ele><time>2026-04-10T15:56:16Z</time></trkpt><trkpt lat="45.0743283249861" lon="7.795795444243951"><ele>567.0</ele><time>2026-04-10T15:56:18Z</time></trkpt><trkpt lat="45.07432300228878" lon="7.795898011100185"><ele>567.0</ele><time>2026-04-10T15:56:20Z</time></trkpt><trkpt lat="45.07433506080337" lon="7.795995874283329"><ele>567.0</ele><time>2026-04-10T15:56:22Z</time></trkpt><trkpt lat="45.074346143361296" lon="7.796104771906996"><ele>567.0</ele><time>2026-04-10T15:56:24Z</time></trkpt><trkpt lat="45.074409122164575" lon="7.796186880368571"><ele>567.0</ele><time>2026-04-10T15:56:27Z</time></trkpt><trkpt lat="45.07448087824078" lon="7.7962330026365185"><ele>567.0</ele><time>2026-04-10T15:56:30Z</time></trkpt><trkpt lat="45.07455020659905" lon="7.79629300437675"><ele>566.5</ele><time>2026-04-10T15:56:33Z</time></trkpt><trkpt lat="45.074608662959854" lon="7.796341321594884"><ele>566.0</ele><time>2026-04-10T15:56:35Z</time></trkpt><trkpt lat="45.07468362916356" lon="7.796402106100146"><ele>565.5</ele><time>2026-04-10T15:56:38Z</time></trkpt><trkpt lat="45.07475625265208" lon="7.796455554541803"><ele>565.0</ele><time>2026-04-10T15:56:41Z</time></trkpt><trkpt lat="45.0748368557736" lon="7.796502243009177"><ele>564.5</ele><time>2026-04-10T15:56:44Z</time></trkpt><trkpt lat="45.074896179725954" lon="7.796537304731494"><ele>564.0</ele><time>2026-04-10T15:56:46Z</time></trkpt><trkpt lat="45.07496702534894" lon="7.796587811018208"><ele>564.0</ele><time>2026-04-10T15:56:49Z</time></trkpt><trkpt lat="45.075037262493446" lon="7.796678247656895"><ele>564.0</ele><time>2026-04-10T15:56:52Z</time></trkpt><trkpt lat="45.07510804309341" lon="7.796781682005212"><ele>564.0</ele><time>2026-04-10T15:56:55Z</time></trkpt><trkpt lat="45.075158531796255" lon="7.796874013170925"><ele>564.0</ele><time>2026-04-10T15:56:57Z</time></trkpt><trkpt lat="45.0752044929939" lon="7.7969663881497935"><ele>564.0</ele><time>2026-04-10T15:56:59Z</time></trkpt><trkpt lat="45.075268497479065" lon="7.797067482124421"><ele>565.8333333333334</ele><time>2026-04-10T15:57:01Z</time></trkpt><trkpt lat="45.07532250809541" lon="7.7971709287689235"><ele>567.6666666666666</ele><time>2026-04-10T15:57:03Z</time></trkpt><trkpt lat="45.07538612141385" lon="7.797247678954759"><ele>569.5</ele><time>2026-04-10T15:57:05Z</time></trkpt><trkpt lat="45.07544318890544" lon="7.797339704160918"><ele>571.3333333333333</ele><time>2026-04-10T15:57:07Z</time></trkpt><trkpt lat="45.07551951291857" lon="7.797416360617509"><ele>573.1666666666666</ele><time>2026-04-10T15:57:09Z</time></trkpt><trkpt lat="45.07558488386592" lon="7.797482003150666"><ele>575.0</ele><time>2026-04-10T15:57:11Z</time></trkpt><trkpt lat="45.07566568909833" lon="7.7975401530616475"><ele>575.0</ele><time>2026-04-10T15:57:13Z</time></trkpt><trkpt lat="45.07574292693264" lon="7.7975905975102435"><ele>575.0</ele><time>2026-04-10T15:57:15Z</time></trkpt><trkpt lat="45.07583115543564" lon="7.797633149325687"><ele>575.0</ele><time>2026-04-10T15:57:17Z</time></trkpt><trkpt lat="45.07590946794786" lon="7.797656445280038"><ele>575.0</ele><time>2026-04-10T15:57:19Z</time></trkpt><trkpt lat="45.07599054294021" lon="7.797692406644953"><ele>575.0</ele><time>2026-04-10T15:57:21Z</time></trkpt><trkpt lat="45.07606060358645" lon="7.797716977724348"><ele>575.0</ele><time>2026-04-10T15:57:23Z</time></trkpt><trkpt lat="45.07613086179491" lon="7.797738489752613"><ele>574.6666666666666</ele><time>2026-04-10T15:57:24.999Z</time></trkpt><trkpt lat="45.07619470992885" lon="7.797760602533726"><ele>574.3333333333333</ele><time>2026-04-10T15:57:26.999Z</time></trkpt><trkpt lat="45.076258024836406" lon="7.797785243124175"><ele>574.0</ele><time>2026-04-10T15:57:28.999Z</time></trkpt><trkpt lat="45.07634510868882" lon="7.797830225656881"><ele>573.6666666666666</ele><time>2026-04-10T15:57:31.999Z</time></trkpt><trkpt lat="45.076411433172424" lon="7.797877665836169"><ele>573.3333333333334</ele><time>2026-04-10T15:57:34.999Z</time></trkpt><trkpt lat="45.07646708559815" lon="7.797938835031741"><ele>573.0</ele><time>2026-04-10T15:57:38.999Z</time></trkpt><trkpt lat="45.076529223115" lon="7.798037356629355"><ele>572.1999999999999</ele><time>2026-04-10T15:57:41.999Z</time></trkpt><trkpt lat="45.07661330343586" lon="7.798145104739986"><ele>571.4</ele><time>2026-04-10T15:57:43.999Z</time></trkpt><trkpt lat="45.076716352456906" lon="7.798227971894712"><ele>570.5999999999999</ele><time>2026-04-10T15:57:45.999Z</time></trkpt><trkpt lat="45.07678301550371" lon="7.798251517899148"><ele>569.8</ele><time>2026-04-10T15:57:46.999Z</time></trkpt><trkpt lat="45.076849258619326" lon="7.798264436497625"><ele>569.0</ele><time>2026-04-10T15:57:47.999Z</time></trkpt><trkpt lat="45.076933268513876" lon="7.7982827633943375"><ele>569.0</ele><time>2026-04-10T15:57:48.999Z</time></trkpt><trkpt lat="45.07701819536621" lon="7.798299499210771"><ele>569.0</ele><time>2026-04-10T15:57:49.999Z</time></trkpt><trkpt lat="45.077098944820804" lon="7.798288971493965"><ele>569.0</ele><time>2026-04-10T15:57:50.999Z</time></trkpt><trkpt lat="45.07716897361889" lon="7.79829071343288"><ele>569.0</ele><time>2026-04-10T15:57:51.999Z</time></trkpt><trkpt lat="45.07729160725753" lon="7.798329173993343"><ele>569.0</ele><time>2026-04-10T15:57:53.999Z</time></trkpt><trkpt lat="45.07735601421082" lon="7.798370870478268"><ele>569.0</ele><time>2026-04-10T15:57:54.999Z</time></trkpt><trkpt lat="45.077414356090074" lon="7.79840724169745"><ele>568.8571428571429</ele><time>2026-04-10T15:57:55.999Z</time></trkpt><trkpt lat="45.07746924776908" lon="7.798469360750745"><ele>568.7142857142858</ele><time>2026-04-10T15:57:56.999Z</time></trkpt><trkpt lat="45.07751670595453" lon="7.798533051284882"><ele>568.5714285714286</ele><time>2026-04-10T15:57:57.999Z</time></trkpt><trkpt lat="45.077564614498094" lon="7.798600233001466"><ele>568.4285714285714</ele><time>2026-04-10T15:57:58.999Z</time></trkpt><trkpt lat="45.07761110134163" lon="7.798669119080334"><ele>568.2857142857142</ele><time>2026-04-10T15:57:59.999Z</time></trkpt><trkpt lat="45.07765967465689" lon="7.798734820681488"><ele>568.1428571428571</ele><time>2026-04-10T15:58:00.999Z</time></trkpt><trkpt lat="45.07770176613717" lon="7.798807404795868"><ele>568.0</ele><time>2026-04-10T15:58:01.999Z</time></trkpt><trkpt lat="45.07774818664227" lon="7.798876857842852"><ele>565.1999999999999</ele><time>2026-04-10T15:58:02.999Z</time></trkpt><trkpt lat="45.0777937754092" lon="7.798949402400896"><ele>562.4</ele><time>2026-04-10T15:58:03.999Z</time></trkpt><trkpt lat="45.07784232932529" lon="7.799093657940445"><ele>559.5999999999999</ele><time>2026-04-10T15:58:05.999Z</time></trkpt><trkpt lat="45.0778932789316" lon="7.799226129098696"><ele>556.8</ele><time>2026-04-10T15:58:08Z</time></trkpt><trkpt lat="45.07796375104689" lon="7.799362215670257"><ele>554.0</ele><time>2026-04-10T15:58:10Z</time></trkpt><trkpt lat="45.0779753952803" lon="7.799522050959493"><ele>552.4</ele><time>2026-04-10T15:58:12Z</time></trkpt><trkpt lat="45.07798504838003" lon="7.799616024509372"><ele>550.8</ele><time>2026-04-10T15:58:13Z</time></trkpt><trkpt lat="45.07799593064591" lon="7.7997734209249865"><ele>549.2</ele><time>2026-04-10T15:58:15Z</time></trkpt><trkpt lat="45.07805987565395" lon="7.799899233705353"><ele>547.6</ele><time>2026-04-10T15:58:17Z</time></trkpt><trkpt lat="45.07811107437102" lon="7.800010843459496"><ele>546.0</ele><time>2026-04-10T15:58:19Z</time></trkpt><trkpt lat="45.0781525953026" lon="7.800103260525565"><ele>544.6666666666666</ele><time>2026-04-10T15:58:21Z</time></trkpt><trkpt lat="45.07819215842108" lon="7.800215787373177"><ele>543.3333333333334</ele><time>2026-04-10T15:58:23Z</time></trkpt><trkpt lat="45.07823379096546" lon="7.800304433498499"><ele>542.0</ele><time>2026-04-10T15:58:26Z</time></trkpt><trkpt lat="45.07826955575764" lon="7.800383602424569"><ele>540.6666666666667</ele><time>2026-04-10T15:58:28Z</time></trkpt><trkpt lat="45.07826666410337" lon="7.800485910777035"><ele>539.3333333333334</ele><time>2026-04-10T15:58:30Z</time></trkpt><trkpt lat="45.07826141624814" lon="7.800596114465501"><ele>538.0</ele><time>2026-04-10T15:58:33Z</time></trkpt><trkpt lat="45.078239818718316" lon="7.800701460962776"><ele>538.0</ele><time>2026-04-10T15:58:35Z</time></trkpt><trkpt lat="45.07821875107302" lon="7.800810118248826"><ele>538.0</ele><time>2026-04-10T15:58:36Z</time></trkpt><trkpt lat="45.078215898312095" lon="7.800947472601453"><ele>538.0</ele><time>2026-04-10T15:58:38Z</time></trkpt><trkpt lat="45.078247100898075" lon="7.801103648051382"><ele>538.0</ele><time>2026-04-10T15:58:40Z</time></trkpt><trkpt lat="45.07827518279827" lon="7.801204990012842"><ele>538.0</ele><time>2026-04-10T15:58:42Z</time></trkpt><trkpt lat="45.07827107568495" lon="7.801295742675223"><ele>538.0</ele><time>2026-04-10T15:58:44Z</time></trkpt><trkpt lat="45.07828041221916" lon="7.801409515149262"><ele>542.6</ele><time>2026-04-10T15:58:45Z</time></trkpt><trkpt lat="45.07832519935783" lon="7.801528878428735"><ele>547.1999999999999</ele><time>2026-04-10T15:58:47Z</time></trkpt><trkpt lat="45.07836249229799" lon="7.801660678652517"><ele>551.8</ele><time>2026-04-10T15:58:49Z</time></trkpt><trkpt lat="45.07842417471167" lon="7.801783696959494"><ele>556.4</ele><time>2026-04-10T15:58:51Z</time></trkpt><trkpt lat="45.078471605953794" lon="7.801893345042733"><ele>561.0</ele><time>2026-04-10T15:58:53Z</time></trkpt><trkpt lat="45.07851617944581" lon="7.801985363284534"><ele>561.0</ele><time>2026-04-10T15:58:55Z</time></trkpt><trkpt lat="45.078536974157366" lon="7.802073044846408"><ele>561.0</ele><time>2026-04-10T15:58:57Z</time></trkpt><trkpt lat="45.07857458512006" lon="7.8021968680605385"><ele>561.0</ele><time>2026-04-10T15:59:00Z</time></trkpt><trkpt lat="45.07856783630808" lon="7.802308341814007"><ele>561.0</ele><time>2026-04-10T15:59:03Z</time></trkpt><trkpt lat="45.07852964028978" lon="7.802416177498875"><ele>561.0</ele><time>2026-04-10T15:59:07Z</time></trkpt><trkpt lat="45.07850195334369" lon="7.8025366068413735"><ele>561.0</ele><time>2026-04-10T15:59:11Z</time></trkpt><trkpt lat="45.07845861412125" lon="7.802686557996582"><ele>559.6</ele><time>2026-04-10T15:59:13Z</time></trkpt><trkpt lat="45.07843098093475" lon="7.802769810838017"><ele>558.2</ele><time>2026-04-10T15:59:14Z</time></trkpt><trkpt lat="45.078419434148884" lon="7.802903489698754"><ele>556.8</ele><time>2026-04-10T15:59:16Z</time></trkpt><trkpt lat="45.07839627346857" lon="7.80302235757117"><ele>555.4</ele><time>2026-04-10T15:59:18Z</time></trkpt><trkpt lat="45.07843059246343" lon="7.803171813385702"><ele>554.0</ele><time>2026-04-10T15:59:20Z</time></trkpt><trkpt lat="45.07850872764454" lon="7.8032594253200385"><ele>554.0</ele><time>2026-04-10T15:59:22Z</time></trkpt><trkpt lat="45.078602119931624" lon="7.8033100939691"><ele>554.0</ele><time>2026-04-10T15:59:24Z</time></trkpt><trkpt lat="45.078683278475005" lon="7.803386399807024"><ele>554.0</ele><time>2026-04-10T15:59:26Z</time></trkpt><trkpt lat="45.07871480990335" lon="7.803490646500603"><ele>554.0</ele><time>2026-04-10T15:59:28Z</time></trkpt><trkpt lat="45.07869690823239" lon="7.803597537507331"><ele>554.0</ele><time>2026-04-10T15:59:30Z</time></trkpt><trkpt lat="45.07871404665668" lon="7.803725409369566"><ele>554.0</ele><time>2026-04-10T15:59:32.999Z</time></trkpt><trkpt lat="45.07874452044954" lon="7.80382433013895"><ele>550.8</ele><time>2026-04-10T15:59:35.999Z</time></trkpt><trkpt lat="45.07877274318769" lon="7.80393860051982"><ele>547.5999999999999</ele><time>2026-04-10T15:59:37.999Z</time></trkpt><trkpt lat="45.078810235035185" lon="7.8040719591484375"><ele>544.4</ele><time>2026-04-10T15:59:39.999Z</time></trkpt><trkpt lat="45.07886573557298" lon="7.804210633055837"><ele>541.1999999999999</ele><time>2026-04-10T15:59:41.999Z</time></trkpt><trkpt lat="45.07891341132141" lon="7.8043451665953425"><ele>538.0</ele><time>2026-04-10T15:59:43.999Z</time></trkpt><trkpt lat="45.078939181486966" lon="7.8044894529783795"><ele>538.0</ele><time>2026-04-10T15:59:45.999Z</time></trkpt><trkpt lat="45.07892959544621" lon="7.804641256307897"><ele>538.0</ele><time>2026-04-10T15:59:47.999Z</time></trkpt><trkpt lat="45.078926181189566" lon="7.80479833910977"><ele>538.0</ele><time>2026-04-10T15:59:49.999Z</time></trkpt><trkpt lat="45.07892645982475" lon="7.80497367694039"><ele>538.0</ele><time>2026-04-10T15:59:51.999Z</time></trkpt><trkpt lat="45.07892430694867" lon="7.805127270080297"><ele>539.6666666666667</ele><time>2026-04-10T15:59:53.999Z</time></trkpt><trkpt lat="45.07890271805173" lon="7.805211061683595"><ele>541.3333333333334</ele><time>2026-04-10T15:59:54.999Z</time></trkpt><trkpt lat="45.07884646408505" lon="7.805325387321449"><ele>543.0</ele><time>2026-04-10T15:59:56.999Z</time></trkpt><trkpt lat="45.07877929355197" lon="7.805396287756954"><ele>544.6666666666666</ele><time>2026-04-10T15:59:58.999Z</time></trkpt><trkpt lat="45.0786973193954" lon="7.80540894873042"><ele>546.3333333333333</ele><time>2026-04-10T16:00:00.999Z</time></trkpt><trkpt lat="45.07861080599986" lon="7.805433277491891"><ele>548.0</ele><time>2026-04-10T16:00:03.999Z</time></trkpt><trkpt lat="45.078530951989094" lon="7.805474202937208"><ele>548.0</ele><time>2026-04-10T16:00:05.999Z</time></trkpt><trkpt lat="45.078460028415314" lon="7.805541817397827"><ele>548.0</ele><time>2026-04-10T16:00:07.999Z</time></trkpt><trkpt lat="45.07838973819023" lon="7.805603430402787"><ele>548.0</ele><time>2026-04-10T16:00:09.999Z</time></trkpt><trkpt lat="45.078340511992636" lon="7.805666958438683"><ele>548.0</ele><time>2026-04-10T16:00:11.999Z</time></trkpt><trkpt lat="45.07829976802736" lon="7.805735312388935"><ele>548.0</ele><time>2026-04-10T16:00:14Z</time></trkpt><trkpt lat="45.07824258110892" lon="7.805835061022236"><ele>548.0</ele><time>2026-04-10T16:00:17Z</time></trkpt><trkpt lat="45.07819555285053" lon="7.805907211620156"><ele>545.1666666666666</ele><time>2026-04-10T16:00:19Z</time></trkpt><trkpt lat="45.07816070565189" lon="7.805982590373691"><ele>542.3333333333333</ele><time>2026-04-10T16:00:22Z</time></trkpt><trkpt lat="45.07814109978706" lon="7.806084526714123"><ele>539.5</ele><time>2026-04-10T16:00:25Z</time></trkpt><trkpt lat="45.078151945629244" lon="7.80618644008607"><ele>536.6666666666666</ele><time>2026-04-10T16:00:28Z</time></trkpt><trkpt lat="45.07814586869035" lon="7.806308687888474"><ele>533.8333333333334</ele><time>2026-04-10T16:00:31Z</time></trkpt><trkpt lat="45.07815608426243" lon="7.806431377593928"><ele>531.0</ele><time>2026-04-10T16:00:34Z</time></trkpt><trkpt lat="45.078190272271755" lon="7.806528992502355"><ele>531.0</ele><time>2026-04-10T16:00:37Z</time></trkpt><trkpt lat="45.078234267855635" lon="7.806637921289443"><ele>531.0</ele><time>2026-04-10T16:00:41Z</time></trkpt><trkpt lat="45.0782434926699" lon="7.806752747119745"><ele>531.0</ele><time>2026-04-10T16:00:43Z</time></trkpt><trkpt lat="45.07828740604134" lon="7.806825416438705"><ele>531.0</ele><time>2026-04-10T16:00:44Z</time></trkpt><trkpt lat="45.0783366639806" lon="7.806903510462373"><ele>531.0</ele><time>2026-04-10T16:00:48Z</time></trkpt><trkpt lat="45.078410826221514" lon="7.806975718070663"><ele>531.0</ele><time>2026-04-10T16:00:50Z</time></trkpt><trkpt lat="45.078471700802105" lon="7.80702212258887"><ele>531.1666666666666</ele><time>2026-04-10T16:00:52Z</time></trkpt><trkpt lat="45.078522998392266" lon="7.807130864285178"><ele>531.3333333333334</ele><time>2026-04-10T16:00:54Z</time></trkpt><trkpt lat="45.07857463297994" lon="7.8071845313740695"><ele>531.5</ele><time>2026-04-10T16:00:56Z</time></trkpt><trkpt lat="45.07862896533996" lon="7.807300210954382"><ele>531.6666666666667</ele><time>2026-04-10T16:00:58Z</time></trkpt><trkpt lat="45.07866177374533" lon="7.807422746885579"><ele>531.8333333333334</ele><time>2026-04-10T16:01:00Z</time></trkpt><trkpt lat="45.07870182273956" lon="7.807499647107822"><ele>532.0</ele><time>2026-04-10T16:01:02Z</time></trkpt><trkpt lat="45.07873141864327" lon="7.807602051177488"><ele>529.8333333333334</ele><time>2026-04-10T16:01:04Z</time></trkpt><trkpt lat="45.078759541577035" lon="7.807712338168998"><ele>527.6666666666667</ele><time>2026-04-10T16:01:06Z</time></trkpt><trkpt lat="45.07877545056517" lon="7.807827325034796"><ele>525.5</ele><time>2026-04-10T16:01:08Z</time></trkpt><trkpt lat="45.07878338240007" lon="7.807935984977997"><ele>523.3333333333334</ele><time>2026-04-10T16:01:10Z</time></trkpt><trkpt lat="45.07879838194179" lon="7.808047573372429"><ele>521.1666666666666</ele><time>2026-04-10T16:01:12Z</time></trkpt><trkpt lat="45.07876745252541" lon="7.808149638156722"><ele>519.0</ele><time>2026-04-10T16:01:14Z</time></trkpt><trkpt lat="45.0787185408656" lon="7.808242355691363"><ele>519.0</ele><time>2026-04-10T16:01:17Z</time></trkpt><trkpt lat="45.07872640369647" lon="7.808336746414257"><ele>519.0</ele><time>2026-04-10T16:01:18.999Z</time></trkpt><trkpt lat="45.07873469234997" lon="7.808427619651797"><ele>519.0</ele><time>2026-04-10T16:01:22.999Z</time></trkpt><trkpt lat="45.078733502308786" lon="7.808536493490996"><ele>519.0</ele><time>2026-04-10T16:01:26.999Z</time></trkpt><trkpt lat="45.07873023223904" lon="7.808642527860973"><ele>519.0</ele><time>2026-04-10T16:01:29.999Z</time></trkpt><trkpt lat="45.078725630688815" lon="7.808741094278524"><ele>519.0</ele><time>2026-04-10T16:01:33.999Z</time></trkpt><trkpt lat="45.078731100641555" lon="7.808853048724314"><ele>519.0</ele><time>2026-04-10T16:01:37.999Z</time></trkpt><trkpt lat="45.07870155301114" lon="7.808963780974314"><ele>518.0</ele><time>2026-04-10T16:01:42.999Z</time></trkpt><trkpt lat="45.07867740326483" lon="7.809050369622978"><ele>517.0</ele><time>2026-04-10T16:01:45.999Z</time></trkpt><trkpt lat="45.078640905323546" lon="7.809169641150844"><ele>516.0</ele><time>2026-04-10T16:01:48.999Z</time></trkpt><trkpt lat="45.07859897213348" lon="7.809284578365675"><ele>515.0</ele><time>2026-04-10T16:01:51.999Z</time></trkpt><trkpt lat="45.07856100587614" lon="7.80935613593998"><ele>514.0</ele><time>2026-04-10T16:01:54.999Z</time></trkpt><trkpt lat="45.078520010958464" lon="7.80942814414384"><ele>513.0</ele><time>2026-04-10T16:01:55.999Z</time></trkpt><trkpt lat="45.07848792155689" lon="7.8095289845343405"><ele>513.0000000000001</ele><time>2026-04-10T16:01:57.999Z</time></trkpt><trkpt lat="45.07843805884942" lon="7.809611404123911"><ele>513.0</ele><time>2026-04-10T16:02:00.999Z</time></trkpt><trkpt lat="45.07840104713498" lon="7.809685377792667"><ele>513.0</ele><time>2026-04-10T16:02:03.999Z</time></trkpt><trkpt lat="45.07834758634571" lon="7.809767417018822"><ele>513.0</ele><time>2026-04-10T16:02:07.999Z</time></trkpt><trkpt lat="45.07829726856449" lon="7.809844243541326"><ele>513.0</ele><time>2026-04-10T16:02:10.999Z</time></trkpt><trkpt lat="45.07824854766743" lon="7.809930464673728"><ele>513.0000000000001</ele><time>2026-04-10T16:02:13.999Z</time></trkpt><trkpt lat="45.078233080975764" lon="7.810029780207249"><ele>513.0</ele><time>2026-04-10T16:02:16.999Z</time></trkpt><trkpt lat="45.078210921310486" lon="7.810127885942558"><ele>511.5</ele><time>2026-04-10T16:02:20Z</time></trkpt><trkpt lat="45.078209715180286" lon="7.810272928125109"><ele>510.0</ele><time>2026-04-10T16:02:23Z</time></trkpt><trkpt lat="45.0782545524561" lon="7.810393409074142"><ele>508.5</ele><time>2026-04-10T16:02:25Z</time></trkpt><trkpt lat="45.07829697279803" lon="7.810488238220772"><ele>507.0</ele><time>2026-04-10T16:02:27Z</time></trkpt><trkpt lat="45.078337378148944" lon="7.8105708051403555"><ele>505.5</ele><time>2026-04-10T16:02:30Z</time></trkpt><trkpt lat="45.078389723176066" lon="7.810518533302828"><ele>504.0</ele><time>2026-04-10T16:02:34Z</time></trkpt><trkpt lat="45.0784618254183" lon="7.8104731764427475"><ele>504.0</ele><time>2026-04-10T16:02:39Z</time></trkpt><trkpt lat="45.07852814474891" lon="7.810444881332015"><ele>504.0</ele><time>2026-04-10T16:02:43Z</time></trkpt><trkpt lat="45.07857697342109" lon="7.810381350269173"><ele>504.0</ele><time>2026-04-10T16:02:46Z</time></trkpt><trkpt lat="45.07863882956597" lon="7.810352304016501"><ele>504.0</ele><time>2026-04-10T16:02:50Z</time></trkpt><trkpt lat="45.0787002475485" lon="7.810310357687971"><ele>504.0</ele><time>2026-04-10T16:02:55Z</time></trkpt><trkpt lat="45.078786470427474" lon="7.810303683988462"><ele>504.0</ele><time>2026-04-10T16:03:00Z</time></trkpt><trkpt lat="45.07886090314612" lon="7.810317737085737"><ele>504.0</ele><time>2026-04-10T16:03:04Z</time></trkpt><trkpt lat="45.07892626135959" lon="7.810343879827576"><ele>504.0</ele><time>2026-04-10T16:03:06Z</time></trkpt><trkpt lat="45.07900055585337" lon="7.810369965645254"><ele>504.0</ele><time>2026-04-10T16:03:10Z</time></trkpt><trkpt lat="45.07906715822096" lon="7.810375751169844"><ele>504.0</ele><time>2026-04-10T16:03:15Z</time></trkpt><trkpt lat="45.07913139809896" lon="7.81039714540423"><ele>504.0</ele><time>2026-04-10T16:03:18Z</time></trkpt><trkpt lat="45.07919702529604" lon="7.810409512917142"><ele>504.0</ele><time>2026-04-10T16:03:22Z</time></trkpt><trkpt lat="45.07927783013109" lon="7.810411078139046"><ele>504.0</ele><time>2026-04-10T16:03:26Z</time></trkpt><trkpt lat="45.07935216906296" lon="7.810439975422266"><ele>504.0</ele><time>2026-04-10T16:03:28.999Z</time></trkpt><trkpt lat="45.07941909680312" lon="7.810407029618656"><ele>504.7142857142857</ele><time>2026-04-10T16:03:31.999Z</time></trkpt><trkpt lat="45.079489625913496" lon="7.810438308368274"><ele>505.42857142857144</ele><time>2026-04-10T16:03:35.999Z</time></trkpt><trkpt lat="45.07955902604983" lon="7.81043616710187"><ele>506.1428571428571</ele><time>2026-04-10T16:03:38.999Z</time></trkpt><trkpt lat="45.0796328963702" lon="7.810420949775905"><ele>506.85714285714283</ele><time>2026-04-10T16:03:42.999Z</time></trkpt><trkpt lat="45.07970957753485" lon="7.8103909675740075"><ele>507.57142857142856</ele><time>2026-04-10T16:03:46.999Z</time></trkpt><trkpt lat="45.07977539747011" lon="7.810393385241077"><ele>508.2857142857142</ele><time>2026-04-10T16:03:49.999Z</time></trkpt><trkpt lat="45.07986093021842" lon="7.81040131462259"><ele>508.99999999999994</ele><time>2026-04-10T16:03:53.999Z</time></trkpt><trkpt lat="45.079928447488406" lon="7.810391894745636"><ele>509.3333333333333</ele><time>2026-04-10T16:03:57.999Z</time></trkpt><trkpt lat="45.079993642246464" lon="7.810378631642081"><ele>509.66666666666663</ele><time>2026-04-10T16:04:01.999Z</time></trkpt><trkpt lat="45.08005385978868" lon="7.810343338599909"><ele>510.0</ele><time>2026-04-10T16:04:04.999Z</time></trkpt><trkpt lat="45.080123312996236" lon="7.810285725761277"><ele>510.33333333333337</ele><time>2026-04-10T16:04:07.999Z</time></trkpt><trkpt lat="45.08021547747422" lon="7.810272034122582"><ele>510.6666666666667</ele><time>2026-04-10T16:04:09.999Z</time></trkpt><trkpt lat="45.080301627947684" lon="7.810299986421845"><ele>511.0</ele><time>2026-04-10T16:04:11.999Z</time></trkpt><trkpt lat="45.08037379401336" lon="7.810335177108436"><ele>511.00000000000006</ele><time>2026-04-10T16:04:13.999Z</time></trkpt><trkpt lat="45.080447392782084" lon="7.810414373821019"><ele>511.0</ele><time>2026-04-10T16:04:16.999Z</time></trkpt><trkpt lat="45.080512554044944" lon="7.810447783688363"><ele>511.0</ele><time>2026-04-10T16:04:18.999Z</time></trkpt><trkpt lat="45.08059237739763" lon="7.8105065626510735"><ele>511.0</ele><time>2026-04-10T16:04:20.999Z</time></trkpt><trkpt lat="45.080656985996136" lon="7.81059861441308"><ele>511.00000000000006</ele><time>2026-04-10T16:04:22.999Z</time></trkpt><trkpt lat="45.080727021481195" lon="7.810699149839108"><ele>511.0</ele><time>2026-04-10T16:04:24.999Z</time></trkpt><trkpt lat="45.08080413818035" lon="7.810792784282887"><ele>510.6666666666667</ele><time>2026-04-10T16:04:28Z</time></trkpt><trkpt lat="45.08084058532615" lon="7.810913577083627"><ele>510.33333333333337</ele><time>2026-04-10T16:04:30Z</time></trkpt><trkpt lat="45.08090920782384" lon="7.811005082656057"><ele>510.0</ele><time>2026-04-10T16:04:32Z</time></trkpt><trkpt lat="45.080982711072565" lon="7.811074513069809"><ele>509.66666666666663</ele><time>2026-04-10T16:04:34Z</time></trkpt><trkpt lat="45.08102777982135" lon="7.811156713856931"><ele>509.3333333333333</ele><time>2026-04-10T16:04:37Z</time></trkpt><trkpt lat="45.08108354653807" lon="7.811245989898173"><ele>509.0</ele><time>2026-04-10T16:04:40Z</time></trkpt><trkpt lat="45.081132697944234" lon="7.811336211453422"><ele>506.2</ele><time>2026-04-10T16:04:42Z</time></trkpt><trkpt lat="45.08122638940584" lon="7.811409022530649"><ele>503.4</ele><time>2026-04-10T16:04:44Z</time></trkpt><trkpt lat="45.08127677931578" lon="7.811475275208028"><ele>500.6</ele><time>2026-04-10T16:04:46Z</time></trkpt><trkpt lat="45.081348302937705" lon="7.811561082386327"><ele>497.8</ele><time>2026-04-10T16:04:48Z</time></trkpt><trkpt lat="45.081431648761345" lon="7.811641881593391"><ele>495.0</ele><time>2026-04-10T16:04:50Z</time></trkpt><trkpt lat="45.08151066640349" lon="7.811742004604048"><ele>495.2</ele><time>2026-04-10T16:04:52Z</time></trkpt><trkpt lat="45.081569330566516" lon="7.811856072110718"><ele>495.4</ele><time>2026-04-10T16:04:54Z</time></trkpt><trkpt lat="45.08158966895921" lon="7.811998282228464"><ele>495.6</ele><time>2026-04-10T16:04:56Z</time></trkpt><trkpt lat="45.08158605339325" lon="7.812143016436566"><ele>495.8</ele><time>2026-04-10T16:04:58Z</time></trkpt><trkpt lat="45.081606932816264" lon="7.812253011351912"><ele>496.0</ele><time>2026-04-10T16:05:00Z</time></trkpt><trkpt lat="45.081643369164176" lon="7.812346122383627"><ele>496.0</ele><time>2026-04-10T16:05:02Z</time></trkpt><trkpt lat="45.081662698567214" lon="7.81243334070488"><ele>496.00000000000006</ele><time>2026-04-10T16:05:04Z</time></trkpt><trkpt lat="45.08164185257805" lon="7.81252345753488"><ele>496.0</ele><time>2026-04-10T16:05:06Z</time></trkpt><trkpt lat="45.08163534934136" lon="7.812620377650461"><ele>496.0</ele><time>2026-04-10T16:05:10Z</time></trkpt><trkpt lat="45.08160685473251" lon="7.812726854806431"><ele>496.00000000000006</ele><time>2026-04-10T16:05:13Z</time></trkpt><trkpt lat="45.081578002390515" lon="7.8128135833159496"><ele>496.0</ele><time>2026-04-10T16:05:15Z</time></trkpt><trkpt lat="45.08153086031855" lon="7.812919472680685"><ele>496.0</ele><time>2026-04-10T16:05:18Z</time></trkpt><trkpt lat="45.081502802536356" lon="7.813026867016553"><ele>495.7142857142857</ele><time>2026-04-10T16:05:22Z</time></trkpt><trkpt lat="45.08145279955748" lon="7.813096371514896"><ele>495.42857142857144</ele><time>2026-04-10T16:05:25Z</time></trkpt><trkpt lat="45.08143493298422" lon="7.813188408057706"><ele>495.14285714285717</ele><time>2026-04-10T16:05:28Z</time></trkpt><trkpt lat="45.08143804949742" lon="7.8132981822517555"><ele>494.8571428571429</ele><time>2026-04-10T16:05:32Z</time></trkpt><trkpt lat="45.08142931042933" lon="7.81340197358556"><ele>494.57142857142856</ele><time>2026-04-10T16:05:36.999Z</time></trkpt><trkpt lat="45.081430942707435" lon="7.81349920823342"><ele>494.28571428571433</ele><time>2026-04-10T16:05:41.999Z</time></trkpt><trkpt lat="45.08147094628652" lon="7.8135814797683825"><ele>494.0</ele><time>2026-04-10T16:05:44.999Z</time></trkpt><trkpt lat="45.08151170740764" lon="7.813663560687158"><ele>494.0</ele><time>2026-04-10T16:05:48.999Z</time></trkpt><trkpt lat="45.081511956565365" lon="7.813779797535626"><ele>494.0</ele><time>2026-04-10T16:05:52.999Z</time></trkpt><trkpt lat="45.08153157356314" lon="7.813880657896006"><ele>494.0</ele><time>2026-04-10T16:05:57.999Z</time></trkpt><trkpt lat="45.08152026392826" lon="7.813976619364062"><ele>494.0</ele><time>2026-04-10T16:06:02.999Z</time></trkpt><trkpt lat="45.08151314690327" lon="7.814065795831229"><ele>494.0</ele><time>2026-04-10T16:06:06.999Z</time></trkpt><trkpt lat="45.08148843191998" lon="7.814157148327519"><ele>494.0</ele><time>2026-04-10T16:06:10.999Z</time></trkpt><trkpt lat="45.08147648130364" lon="7.814247120215373"><ele>494.0</ele><time>2026-04-10T16:06:14.999Z</time></trkpt><trkpt lat="45.08146806033461" lon="7.814344171627429"><ele>494.16666666666663</ele><time>2026-04-10T16:06:18.999Z</time></trkpt><trkpt lat="45.08144650233863" lon="7.814437583453529"><ele>494.3333333333333</ele><time>2026-04-10T16:06:23.999Z</time></trkpt><trkpt lat="45.08143673661599" lon="7.814528338858983"><ele>494.5</ele><time>2026-04-10T16:06:27.999Z</time></trkpt><trkpt lat="45.08144210961505" lon="7.814622420009151"><ele>494.66666666666663</ele><time>2026-04-10T16:06:30.999Z</time></trkpt><trkpt lat="45.081468111034866" lon="7.814714139186027"><ele>494.8333333333333</ele><time>2026-04-10T16:06:34Z</time></trkpt><trkpt lat="45.08149066771835" lon="7.814833138131396"><ele>495.0</ele><time>2026-04-10T16:06:37Z</time></trkpt><trkpt lat="45.081506334048015" lon="7.814964884230773"><ele>495.0</ele><time>2026-04-10T16:06:41Z</time></trkpt><trkpt lat="45.08149013978657" lon="7.815060235191543"><ele>495.0</ele><time>2026-04-10T16:06:43Z</time></trkpt><trkpt lat="45.08145739205251" lon="7.8151506722158395"><ele>495.0</ele><time>2026-04-10T16:06:46Z</time></trkpt><trkpt lat="45.08142035989706" lon="7.815281421183768"><ele>495.0</ele><time>2026-04-10T16:06:49Z</time></trkpt><trkpt lat="45.081374917358566" lon="7.815365230753823"><ele>495.0</ele><time>2026-04-10T16:06:53Z</time></trkpt><trkpt lat="45.08133825622411" lon="7.8154488421659165"><ele>495.0</ele><time>2026-04-10T16:06:56Z</time></trkpt><trkpt lat="45.0813229489363" lon="7.815558617928697"><ele>495.8333333333333</ele><time>2026-04-10T16:06:58Z</time></trkpt><trkpt lat="45.08128696343367" lon="7.815648945029149"><ele>496.66666666666663</ele><time>2026-04-10T16:07:03Z</time></trkpt><trkpt lat="45.081250428094016" lon="7.81574017937714"><ele>497.5</ele><time>2026-04-10T16:07:07Z</time></trkpt><trkpt lat="45.08127705255371" lon="7.815858784660639"><ele>498.3333333333333</ele><time>2026-04-10T16:07:10Z</time></trkpt><trkpt lat="45.08130889727448" lon="7.81597119743432"><ele>499.16666666666663</ele><time>2026-04-10T16:07:13Z</time></trkpt><trkpt lat="45.08134493626696" lon="7.816076240151394"><ele>500.0</ele><time>2026-04-10T16:07:15Z</time></trkpt><trkpt lat="45.081381443237206" lon="7.816202343425241"><ele>497.99999999999994</ele><time>2026-04-10T16:07:18Z</time></trkpt><trkpt lat="45.081388558061" lon="7.816317965457359"><ele>496.0</ele><time>2026-04-10T16:07:20Z</time></trkpt><trkpt lat="45.0813970756667" lon="7.816428165520368"><ele>494.0</ele><time>2026-04-10T16:07:22Z</time></trkpt><trkpt lat="45.081400887209455" lon="7.816528256180823"><ele>492.0</ele><time>2026-04-10T16:07:24Z</time></trkpt><trkpt lat="45.08139518936064" lon="7.816626394701442"><ele>489.99999999999994</ele><time>2026-04-10T16:07:27Z</time></trkpt><trkpt lat="45.08139023257656" lon="7.816756704595666"><ele>488.0</ele><time>2026-04-10T16:07:30Z</time></trkpt><trkpt lat="45.081397706249476" lon="7.816856054190565"><ele>487.66666666666663</ele><time>2026-04-10T16:07:32Z</time></trkpt><trkpt lat="45.08138237008919" lon="7.81697222653975"><ele>487.3333333333333</ele><time>2026-04-10T16:07:35Z</time></trkpt><trkpt lat="45.08136125360426" lon="7.817057636333391"><ele>487.0</ele><time>2026-04-10T16:07:37Z</time></trkpt><trkpt lat="45.081316070652264" lon="7.817130261849039"><ele>486.66666666666663</ele><time>2026-04-10T16:07:38.999Z</time></trkpt><trkpt lat="45.08126308075019" lon="7.817212120074708"><ele>486.3333333333333</ele><time>2026-04-10T16:07:41.999Z</time></trkpt><trkpt lat="45.081204940078564" lon="7.817321970340056"><ele>486.0</ele><time>2026-04-10T16:07:44.999Z</time></trkpt><trkpt lat="45.0811412211891" lon="7.8174002709318495"><ele>486.0</ele><time>2026-04-10T16:07:47.999Z</time></trkpt><trkpt lat="45.08105946138584" lon="7.817407541704777"><ele>486.0</ele><time>2026-04-10T16:07:49.999Z</time></trkpt><trkpt lat="45.080998267279455" lon="7.817443560351816"><ele>486.0</ele><time>2026-04-10T16:07:51.999Z</time></trkpt><trkpt lat="45.08093142556025" lon="7.817409829724222"><ele>486.0</ele><time>2026-04-10T16:07:54.999Z</time></trkpt><trkpt lat="45.08086356189611" lon="7.817433550980874"><ele>486.0</ele><time>2026-04-10T16:07:56.999Z</time></trkpt><trkpt lat="45.08078274267957" lon="7.817432175671092"><ele>486.0</ele><time>2026-04-10T16:07:58.999Z</time></trkpt><trkpt lat="45.08069652855456" lon="7.817513004003656"><ele>481.8333333333333</ele><time>2026-04-10T16:08:01.999Z</time></trkpt><trkpt lat="45.08064993867823" lon="7.817589316572601"><ele>477.66666666666663</ele><time>2026-04-10T16:08:03.999Z</time></trkpt><trkpt lat="45.08061593776597" lon="7.817689811562543"><ele>473.5</ele><time>2026-04-10T16:08:05.999Z</time></trkpt><trkpt lat="45.0805955990947" lon="7.817792337424008"><ele>469.3333333333333</ele><time>2026-04-10T16:08:07.999Z</time></trkpt><trkpt lat="45.08057740861874" lon="7.8179186098884275"><ele>465.16666666666663</ele><time>2026-04-10T16:08:09.999Z</time></trkpt><trkpt lat="45.08057140003335" lon="7.818049684679675"><ele>461.0</ele><time>2026-04-10T16:08:11.999Z</time></trkpt><trkpt lat="45.080575838887235" lon="7.8181464434520525"><ele>460.99999999999994</ele><time>2026-04-10T16:08:13.999Z</time></trkpt><trkpt lat="45.08054280630805" lon="7.818257630330196"><ele>461.0</ele><time>2026-04-10T16:08:15.999Z</time></trkpt><trkpt lat="45.0804849126733" lon="7.8183483671498735"><ele>461.0</ele><time>2026-04-10T16:08:17.999Z</time></trkpt><trkpt lat="45.08042709490005" lon="7.8184335327957255"><ele>461.0</ele><time>2026-04-10T16:08:19.999Z</time></trkpt><trkpt lat="45.08038497803868" lon="7.818530851292927"><ele>460.99999999999994</ele><time>2026-04-10T16:08:21.999Z</time></trkpt><trkpt lat="45.08034608121155" lon="7.81863436066437"><ele>461.0</ele><time>2026-04-10T16:08:23.999Z</time></trkpt><trkpt lat="45.080297638069354" lon="7.818745702705261"><ele>462.7142857142857</ele><time>2026-04-10T16:08:25.999Z</time></trkpt><trkpt lat="45.08027717862232" lon="7.818834063261632"><ele>464.42857142857144</ele><time>2026-04-10T16:08:27.999Z</time></trkpt><trkpt lat="45.080254167779245" lon="7.818919976019542"><ele>466.14285714285717</ele><time>2026-04-10T16:08:29.999Z</time></trkpt><trkpt lat="45.08025654561137" lon="7.819016749729769"><ele>467.8571428571429</ele><time>2026-04-10T16:08:31.999Z</time></trkpt><trkpt lat="45.080282035175905" lon="7.819129032237475"><ele>469.57142857142856</ele><time>2026-04-10T16:08:33.999Z</time></trkpt><trkpt lat="45.080320300127624" lon="7.819222051541278"><ele>471.28571428571433</ele><time>2026-04-10T16:08:35.999Z</time></trkpt><trkpt lat="45.080371217875765" lon="7.8193175467304625"><ele>473.0</ele><time>2026-04-10T16:08:38Z</time></trkpt><trkpt lat="45.08040528721511" lon="7.819406965999582"><ele>473.3333333333333</ele><time>2026-04-10T16:08:40Z</time></trkpt><trkpt lat="45.08044541713092" lon="7.81948724776408"><ele>473.66666666666663</ele><time>2026-04-10T16:08:43Z</time></trkpt><trkpt lat="45.080406077853546" lon="7.819566193697684"><ele>474.0</ele><time>2026-04-10T16:08:45Z</time></trkpt><trkpt lat="45.08037587883535" lon="7.819697132329529"><ele>474.33333333333337</ele><time>2026-04-10T16:08:47Z</time></trkpt><trkpt lat="45.080318959677456" lon="7.8197866274452466"><ele>474.6666666666667</ele><time>2026-04-10T16:08:49Z</time></trkpt><trkpt lat="45.08028361173208" lon="7.819917445764051"><ele>475.0</ele><time>2026-04-10T16:08:51Z</time></trkpt><trkpt lat="45.08025773152404" lon="7.82004296504742"><ele>473.83333333333337</ele><time>2026-04-10T16:08:53Z</time></trkpt><trkpt lat="45.080243167748876" lon="7.820183693276767"><ele>472.6666666666667</ele><time>2026-04-10T16:08:55Z</time></trkpt><trkpt lat="45.080228461789154" lon="7.820299923670053"><ele>471.5</ele><time>2026-04-10T16:08:57Z</time></trkpt><trkpt lat="45.08019129219071" lon="7.820391755958997"><ele>470.33333333333337</ele><time>2026-04-10T16:08:59Z</time></trkpt><trkpt lat="45.08017749253861" lon="7.820520960264261"><ele>469.1666666666667</ele><time>2026-04-10T16:09:02Z</time></trkpt><trkpt lat="45.08016503704825" lon="7.8206540548759"><ele>468.0</ele><time>2026-04-10T16:09:05Z</time></trkpt><trkpt lat="45.080145719574986" lon="7.820742646497512"><ele>468.0</ele><time>2026-04-10T16:09:07Z</time></trkpt><trkpt lat="45.080125523635836" lon="7.820831871931149"><ele>468.00000000000006</ele><time>2026-04-10T16:09:09Z</time></trkpt><trkpt lat="45.08009876200659" lon="7.820946283082134"><ele>468.0</ele><time>2026-04-10T16:09:12Z</time></trkpt><trkpt lat="45.08008590865769" lon="7.8210354812576846"><ele>468.0</ele><time>2026-04-10T16:09:14Z</time></trkpt><trkpt lat="45.0800649539953" lon="7.821136782493859"><ele>468.00000000000006</ele><time>2026-04-10T16:09:17Z</time></trkpt><trkpt lat="45.08003697784641" lon="7.821228615591016"><ele>468.0</ele><time>2026-04-10T16:09:20Z</time></trkpt><trkpt lat="45.079994455865176" lon="7.821305491915471"><ele>468.0</ele><time>2026-04-10T16:09:23Z</time></trkpt><trkpt lat="45.0799535867515" lon="7.821397050742126"><ele>467.5</ele><time>2026-04-10T16:09:26Z</time></trkpt><trkpt lat="45.07988818423542" lon="7.821446892500628"><ele>467.0</ele><time>2026-04-10T16:09:29Z</time></trkpt><trkpt lat="45.07982785722951" lon="7.821484834634274"><ele>466.5</ele><time>2026-04-10T16:09:32Z</time></trkpt><trkpt lat="45.07975444343197" lon="7.821513329002828"><ele>466.0</ele><time>2026-04-10T16:09:36Z</time></trkpt><trkpt lat="45.07969076353426" lon="7.821568697556725"><ele>465.5</ele><time>2026-04-10T16:09:40Z</time></trkpt><trkpt lat="45.079612056613094" lon="7.821531589347991"><ele>465.0</ele><time>2026-04-10T16:09:43Z</time></trkpt><trkpt lat="45.079536082736006" lon="7.821592056740114"><ele>465.0</ele><time>2026-04-10T16:09:45Z</time></trkpt><trkpt lat="45.07944019182744" lon="7.821584230109716"><ele>465.0</ele><time>2026-04-10T16:09:47Z</time></trkpt><trkpt lat="45.079354128511184" lon="7.821603534201591"><ele>465.0</ele><time>2026-04-10T16:09:49Z</time></trkpt><trkpt lat="45.07924689304477" lon="7.821621425230065"><ele>465.0</ele><time>2026-04-10T16:09:51Z</time></trkpt><trkpt lat="45.07914661582928" lon="7.821647998199961"><ele>465.0</ele><time>2026-04-10T16:09:52.999Z</time></trkpt><trkpt lat="45.07902354792793" lon="7.8216717856039635"><ele>465.5</ele><time>2026-04-10T16:09:54.999Z</time></trkpt><trkpt lat="45.078907198674635" lon="7.821707035799625"><ele>466.0</ele><time>2026-04-10T16:09:56.999Z</time></trkpt><trkpt lat="45.07882475587891" lon="7.821747044113358"><ele>466.5</ele><time>2026-04-10T16:09:57.999Z</time></trkpt><trkpt lat="45.07875542031471" lon="7.821802642288529"><ele>467.0</ele><time>2026-04-10T16:09:58.999Z</time></trkpt><trkpt lat="45.078696354652855" lon="7.821867898384137"><ele>467.5</ele><time>2026-04-10T16:09:59.999Z</time></trkpt><trkpt lat="45.07864069778943" lon="7.821948457615538"><ele>468.0</ele><time>2026-04-10T16:10:00.999Z</time></trkpt><trkpt lat="45.07861188902349" lon="7.822035266933592"><ele>465.8333333333333</ele><time>2026-04-10T16:10:01.999Z</time></trkpt><trkpt lat="45.0785629433641" lon="7.822110516517134"><ele>463.66666666666663</ele><time>2026-04-10T16:10:02.999Z</time></trkpt><trkpt lat="45.07854198134165" lon="7.822214618631194"><ele>461.5</ele><time>2026-04-10T16:10:03.999Z</time></trkpt><trkpt lat="45.07851106303797" lon="7.82230928484821"><ele>459.3333333333333</ele><time>2026-04-10T16:10:04.999Z</time></trkpt><trkpt lat="45.078487814735965" lon="7.82240988777659"><ele>457.16666666666663</ele><time>2026-04-10T16:10:05.999Z</time></trkpt><trkpt lat="45.07846594835924" lon="7.822505233649737"><ele>455.0</ele><time>2026-04-10T16:10:06.999Z</time></trkpt><trkpt lat="45.07840771694308" lon="7.822636034494137"><ele>452.3333333333333</ele><time>2026-04-10T16:10:08.999Z</time></trkpt><trkpt lat="45.07832068715475" lon="7.822743850994075"><ele>449.66666666666663</ele><time>2026-04-10T16:10:10.999Z</time></trkpt><trkpt lat="45.07825839999989" lon="7.8227732862129855"><ele>447.0</ele><time>2026-04-10T16:10:11.999Z</time></trkpt><trkpt lat="45.078182310149046" lon="7.822781416497107"><ele>444.33333333333337</ele><time>2026-04-10T16:10:12.999Z</time></trkpt><trkpt lat="45.078102372332964" lon="7.8227470917002035"><ele>441.6666666666667</ele><time>2026-04-10T16:10:13.999Z</time></trkpt><trkpt lat="45.078026941755404" lon="7.8227256304412265"><ele>439.0</ele><time>2026-04-10T16:10:14.999Z</time></trkpt><trkpt lat="45.07794663827952" lon="7.822701520582074"><ele>438.00000000000006</ele><time>2026-04-10T16:10:15.999Z</time></trkpt><trkpt lat="45.07786979481764" lon="7.82268431892286"><ele>437.0</ele><time>2026-04-10T16:10:16.999Z</time></trkpt><trkpt lat="45.07779363277504" lon="7.822675130014972"><ele>436.0</ele><time>2026-04-10T16:10:17.999Z</time></trkpt><trkpt lat="45.07767728195047" lon="7.822643634341049"><ele>435.0</ele><time>2026-04-10T16:10:19.999Z</time></trkpt><trkpt lat="45.07760692746629" lon="7.8226148051290165"><ele>434.00000000000006</ele><time>2026-04-10T16:10:20.999Z</time></trkpt><trkpt lat="45.07750706304546" lon="7.822597230979809"><ele>433.0</ele><time>2026-04-10T16:10:22.999Z</time></trkpt><trkpt lat="45.07741647899343" lon="7.822551300807665"><ele>434.50000000000006</ele><time>2026-04-10T16:10:24.999Z</time></trkpt><trkpt lat="45.07736173901534" lon="7.822505108438851"><ele>436.0</ele><time>2026-04-10T16:10:26.999Z</time></trkpt><trkpt lat="45.07729688767661" lon="7.822438771331188"><ele>437.5</ele><time>2026-04-10T16:10:29.999Z</time></trkpt><trkpt lat="45.077245338973405" lon="7.822537322255437"><ele>439.0</ele><time>2026-04-10T16:10:30.999Z</time></trkpt><trkpt lat="45.07717221411934" lon="7.822608861709484"><ele>440.50000000000006</ele><time>2026-04-10T16:10:32.999Z</time></trkpt><trkpt lat="45.07708601370821" lon="7.8226506976165755"><ele>442.0</ele><time>2026-04-10T16:10:34.999Z</time></trkpt><trkpt lat="45.07700330673567" lon="7.822742930425292"><ele>442.0</ele><time>2026-04-10T16:10:36.999Z</time></trkpt><trkpt lat="45.07690586768928" lon="7.822785409922183"><ele>442.00000000000006</ele><time>2026-04-10T16:10:38.999Z</time></trkpt><trkpt lat="45.076833545861966" lon="7.822860992124417"><ele>442.00000000000006</ele><time>2026-04-10T16:10:40.999Z</time></trkpt><trkpt lat="45.07674038177198" lon="7.822920936371737"><ele>442.0</ele><time>2026-04-10T16:10:42.999Z</time></trkpt><trkpt lat="45.076672493283226" lon="7.822967131326043"><ele>442.0</ele><time>2026-04-10T16:10:44Z</time></trkpt><trkpt lat="45.076568677418884" lon="7.823050127057574"><ele>441.20000000000005</ele><time>2026-04-10T16:10:46Z</time></trkpt><trkpt lat="45.07647844531688" lon="7.823130212813174"><ele>440.40000000000003</ele><time>2026-04-10T16:10:48Z</time></trkpt><trkpt lat="45.07638613033227" lon="7.823194545501942"><ele>439.59999999999997</ele><time>2026-04-10T16:10:50Z</time></trkpt><trkpt lat="45.07628374118552" lon="7.823266956675146"><ele>438.79999999999995</ele><time>2026-04-10T16:10:52Z</time></trkpt><trkpt lat="45.07617113314366" lon="7.823305757252386"><ele>438.0</ele><time>2026-04-10T16:10:54Z</time></trkpt><trkpt lat="45.076067695772686" lon="7.823359452940192"><ele>438.0</ele><time>2026-04-10T16:10:56Z</time></trkpt><trkpt lat="45.075958576263" lon="7.823426664468565"><ele>438.0</ele><time>2026-04-10T16:10:58Z</time></trkpt><trkpt lat="45.07584080422821" lon="7.823517686667728"><ele>438.0</ele><time>2026-04-10T16:11:00Z</time></trkpt><trkpt lat="45.07572384477305" lon="7.823640914638516"><ele>438.0</ele><time>2026-04-10T16:11:02Z</time></trkpt><trkpt lat="45.07565990237447" lon="7.823771380463978"><ele>438.0</ele><time>2026-04-10T16:11:04Z</time></trkpt><trkpt lat="45.07560315240821" lon="7.823843370091973"><ele>438.0</ele><time>2026-04-10T16:11:05Z</time></trkpt><trkpt lat="45.075560797692276" lon="7.823926290218532"><ele>438.0</ele><time>2026-04-10T16:11:06Z</time></trkpt><trkpt lat="45.07552192688939" lon="7.824008845121478"><ele>438.0</ele><time>2026-04-10T16:11:07Z</time></trkpt><trkpt lat="45.075483132472854" lon="7.824094656442236"><ele>438.0</ele><time>2026-04-10T16:11:08Z</time></trkpt><trkpt lat="45.07544767861409" lon="7.824172194936578"><ele>438.0</ele><time>2026-04-10T16:11:09Z</time></trkpt><trkpt lat="45.07537846408475" lon="7.824318607676302"><ele>438.0</ele><time>2026-04-10T16:11:11Z</time></trkpt><trkpt lat="45.0753080223932" lon="7.824434250487602"><ele>438.0</ele><time>2026-04-10T16:11:13Z</time></trkpt><trkpt lat="45.07525571054819" lon="7.824503815628902"><ele>438.0</ele><time>2026-04-10T16:11:14Z</time></trkpt><trkpt lat="45.075202944353535" lon="7.8245730902111745"><ele>438.0</ele><time>2026-04-10T16:11:15Z</time></trkpt><trkpt lat="45.07515364958394" lon="7.824637803991402"><ele>438.0</ele><time>2026-04-10T16:11:16Z</time></trkpt><trkpt lat="45.075111771923446" lon="7.8247102043150205"><ele>438.0</ele><time>2026-04-10T16:11:17Z</time></trkpt><trkpt lat="45.07505528302809" lon="7.82476539710383"><ele>438.0</ele><time>2026-04-10T16:11:18Z</time></trkpt><trkpt lat="45.07500092669082" lon="7.824820978310659"><ele>438.0</ele><time>2026-04-10T16:11:19Z</time></trkpt><trkpt lat="45.074897464171826" lon="7.824922068694573"><ele>438.0</ele><time>2026-04-10T16:11:21Z</time></trkpt><trkpt lat="45.07482448827503" lon="7.824952999819179"><ele>438.0</ele><time>2026-04-10T16:11:22Z</time></trkpt><trkpt lat="45.07475665165683" lon="7.824992681097655"><ele>438.0</ele><time>2026-04-10T16:11:23Z</time></trkpt><trkpt lat="45.074690908085955" lon="7.82503255608261"><ele>438.0</ele><time>2026-04-10T16:11:24Z</time></trkpt><trkpt lat="45.07462592661052" lon="7.8250599696311305"><ele>437.6666666666667</ele><time>2026-04-10T16:11:25Z</time></trkpt><trkpt lat="45.074561157986054" lon="7.825092351349073"><ele>437.33333333333337</ele><time>2026-04-10T16:11:26Z</time></trkpt><trkpt lat="45.074495873152664" lon="7.825121105305718"><ele>437.0</ele><time>2026-04-10T16:11:27Z</time></trkpt><trkpt lat="45.07443292819782" lon="7.825146890132688"><ele>436.6666666666667</ele><time>2026-04-10T16:11:28Z</time></trkpt><trkpt lat="45.074314176905254" lon="7.825174340787883"><ele>436.33333333333337</ele><time>2026-04-10T16:11:30Z</time></trkpt><trkpt lat="45.074204186849585" lon="7.825173667506572"><ele>436.0</ele><time>2026-04-10T16:11:32Z</time></trkpt><trkpt lat="45.07408273818481" lon="7.825185525026005"><ele>435.25</ele><time>2026-04-10T16:11:34Z</time></trkpt><trkpt lat="45.0739625441659" lon="7.825189181203234"><ele>434.5</ele><time>2026-04-10T16:11:36Z</time></trkpt><trkpt lat="45.07384616324227" lon="7.825198210399021"><ele>433.75</ele><time>2026-04-10T16:11:38Z</time></trkpt><trkpt lat="45.07372854341283" lon="7.825210791916616"><ele>433.0</ele><time>2026-04-10T16:11:40Z</time></trkpt><trkpt lat="45.07360700980784" lon="7.825222608685839"><ele>433.0</ele><time>2026-04-10T16:11:42Z</time></trkpt><trkpt lat="45.07348878648205" lon="7.825241041130145"><ele>432.99999999999994</ele><time>2026-04-10T16:11:44Z</time></trkpt><trkpt lat="45.073365654586695" lon="7.825238897178668"><ele>432.99999999999994</ele><time>2026-04-10T16:11:46Z</time></trkpt><trkpt lat="45.073240127041814" lon="7.825229914357865"><ele>433.0</ele><time>2026-04-10T16:11:48Z</time></trkpt><trkpt lat="45.07317679964077" lon="7.825230902870902"><ele>433.0</ele><time>2026-04-10T16:11:49Z</time></trkpt><trkpt lat="45.07306009976436" lon="7.825219164091235"><ele>430.83333333333337</ele><time>2026-04-10T16:11:51Z</time></trkpt><trkpt lat="45.072992745471105" lon="7.825215520243661"><ele>428.6666666666667</ele><time>2026-04-10T16:11:51.999Z</time></trkpt><trkpt lat="45.07292927435391" lon="7.825213565814539"><ele>426.5</ele><time>2026-04-10T16:11:52.999Z</time></trkpt><trkpt lat="45.07286566273787" lon="7.825203808528419"><ele>424.33333333333337</ele><time>2026-04-10T16:11:53.999Z</time></trkpt><trkpt lat="45.072741123834774" lon="7.825193576746252"><ele>422.1666666666667</ele><time>2026-04-10T16:11:55.999Z</time></trkpt><trkpt lat="45.07262431683702" lon="7.825183445845082"><ele>420.0</ele><time>2026-04-10T16:11:57.999Z</time></trkpt><trkpt lat="45.07250789345359" lon="7.8251721016731155"><ele>421.3333333333333</ele><time>2026-04-10T16:11:59.999Z</time></trkpt><trkpt lat="45.07240303760165" lon="7.825139697407344"><ele>422.66666666666663</ele><time>2026-04-10T16:12:01.999Z</time></trkpt><trkpt lat="45.072314760716615" lon="7.825073152890017"><ele>424.0</ele><time>2026-04-10T16:12:03.999Z</time></trkpt><trkpt lat="45.07225576675484" lon="7.8250297490781096"><ele>425.3333333333333</ele><time>2026-04-10T16:12:04.999Z</time></trkpt><trkpt lat="45.07219867745388" lon="7.824979106559834"><ele>426.66666666666663</ele><time>2026-04-10T16:12:05.999Z</time></trkpt><trkpt lat="45.072139627755014" lon="7.824929769293414"><ele>428.0</ele><time>2026-04-10T16:12:06.999Z</time></trkpt><trkpt lat="45.07209071364086" lon="7.8248709659731235"><ele>427.99999999999994</ele><time>2026-04-10T16:12:07.999Z</time></trkpt><trkpt lat="45.07202984599199" lon="7.8248207457805"><ele>428.0</ele><time>2026-04-10T16:12:08.999Z</time></trkpt><trkpt lat="45.07198391778377" lon="7.82475309004659"><ele>428.0</ele><time>2026-04-10T16:12:09.999Z</time></trkpt><trkpt lat="45.07188775693455" lon="7.824649033729585"><ele>428.0</ele><time>2026-04-10T16:12:11.999Z</time></trkpt><trkpt lat="45.07183854276368" lon="7.824593442910413"><ele>427.99999999999994</ele><time>2026-04-10T16:12:12.999Z</time></trkpt><trkpt lat="45.0717533032222" lon="7.8244999780564655"><ele>428.0</ele><time>2026-04-10T16:12:14.999Z</time></trkpt><trkpt lat="45.07164295728948" lon="7.824395482849436"><ele>429.59999999999997</ele><time>2026-04-10T16:12:16.999Z</time></trkpt><trkpt lat="45.07154388617984" lon="7.824302551911262"><ele>431.19999999999993</ele><time>2026-04-10T16:12:18.999Z</time></trkpt><trkpt lat="45.07148228032584" lon="7.824272150864766"><ele>432.8</ele><time>2026-04-10T16:12:19.999Z</time></trkpt><trkpt lat="45.07137029366573" lon="7.824253351856578"><ele>434.4</ele><time>2026-04-10T16:12:21.999Z</time></trkpt><trkpt lat="45.07126320047126" lon="7.824273073498793"><ele>436.0</ele><time>2026-04-10T16:12:23.999Z</time></trkpt><trkpt lat="45.07115619846882" lon="7.824289740522197"><ele>436.0</ele><time>2026-04-10T16:12:25.999Z</time></trkpt><trkpt lat="45.071039147809486" lon="7.82429294382783"><ele>436.0</ele><time>2026-04-10T16:12:27.999Z</time></trkpt><trkpt lat="45.070940284172565" lon="7.824248912044394"><ele>436.0</ele><time>2026-04-10T16:12:29.999Z</time></trkpt><trkpt lat="45.07084712490798" lon="7.824161440919864"><ele>436.0</ele><time>2026-04-10T16:12:31.999Z</time></trkpt><trkpt lat="45.070757427846196" lon="7.824093988538816"><ele>436.0</ele><time>2026-04-10T16:12:33.999Z</time></trkpt><trkpt lat="45.07069747639524" lon="7.824059745558877"><ele>435.6</ele><time>2026-04-10T16:12:34.999Z</time></trkpt><trkpt lat="45.070616884686736" lon="7.823968290419576"><ele>435.20000000000005</ele><time>2026-04-10T16:12:36.999Z</time></trkpt><trkpt lat="45.07054381232452" lon="7.8238459243202"><ele>434.79999999999995</ele><time>2026-04-10T16:12:38.999Z</time></trkpt><trkpt lat="45.07046396159902" lon="7.823730945835192"><ele>434.4</ele><time>2026-04-10T16:12:40.999Z</time></trkpt><trkpt lat="45.070381140117625" lon="7.823616622026101"><ele>434.0</ele><time>2026-04-10T16:12:42.999Z</time></trkpt><trkpt lat="45.07029665514425" lon="7.823515414191225"><ele>432.2</ele><time>2026-04-10T16:12:44.999Z</time></trkpt><trkpt lat="45.07019947999272" lon="7.8234349798471365"><ele>430.4</ele><time>2026-04-10T16:12:46.999Z</time></trkpt><trkpt lat="45.07010844088697" lon="7.823372406592353"><ele>428.6</ele><time>2026-04-10T16:12:48.999Z</time></trkpt><trkpt lat="45.07002654738976" lon="7.823327046909158"><ele>426.8</ele><time>2026-04-10T16:12:51Z</time></trkpt><trkpt lat="45.06993323996221" lon="7.82329195802479"><ele>425.0</ele><time>2026-04-10T16:12:53Z</time></trkpt><trkpt lat="45.0698313388503" lon="7.823272839454584"><ele>424.4</ele><time>2026-04-10T16:12:55Z</time></trkpt><trkpt lat="45.06973115944479" lon="7.823243840715727"><ele>423.8</ele><time>2026-04-10T16:12:57Z</time></trkpt><trkpt lat="45.06963031002913" lon="7.823208505123706"><ele>423.20000000000005</ele><time>2026-04-10T16:12:59Z</time></trkpt><trkpt lat="45.0695295834657" lon="7.8231675920594546"><ele>422.6</ele><time>2026-04-10T16:13:01Z</time></trkpt><trkpt lat="45.06946347011749" lon="7.8231477715568385"><ele>422.0</ele><time>2026-04-10T16:13:04Z</time></trkpt><trkpt lat="45.06934319161377" lon="7.823433727033273"><ele>422.0</ele><time>2026-04-10T16:14:24.018Z</time></trkpt><trkpt lat="45.06944647174098" lon="7.823173135222606"><ele>422.0</ele><time>2026-04-10T16:15:03.999Z</time></trkpt><trkpt lat="45.06935463468209" lon="7.823169727913626"><ele>422.0</ele><time>2026-04-10T16:19:02.999Z</time></trkpt><trkpt lat="45.06928047454565" lon="7.823190714675202"><ele>422.0</ele><time>2026-04-10T16:19:04.999Z</time></trkpt><trkpt lat="45.06921701271201" lon="7.823209212179896"><ele>422.0</ele><time>2026-04-10T16:19:06.999Z</time></trkpt><trkpt lat="45.06914580994916" lon="7.823228020942795"><ele>420.0</ele><time>2026-04-10T16:19:08.999Z</time></trkpt><trkpt lat="45.06906891439878" lon="7.823270710070112"><ele>418.0</ele><time>2026-04-10T16:19:10.999Z</time></trkpt><trkpt lat="45.06898649655829" lon="7.823344924438881"><ele>416.0</ele><time>2026-04-10T16:19:12.999Z</time></trkpt><trkpt lat="45.06891187229057" lon="7.823447045377569"><ele>414.0</ele><time>2026-04-10T16:19:14.999Z</time></trkpt><trkpt lat="45.068833167998775" lon="7.823515396479871"><ele>412.0</ele><time>2026-04-10T16:19:16.999Z</time></trkpt><trkpt lat="45.0687442402215" lon="7.823582422441402"><ele>411.2857142857143</ele><time>2026-04-10T16:19:18.999Z</time></trkpt><trkpt lat="45.068679154212546" lon="7.823617406794977"><ele>410.57142857142856</ele><time>2026-04-10T16:19:22Z</time></trkpt><trkpt lat="45.06860951462699" lon="7.8236521331065"><ele>409.8571428571429</ele><time>2026-04-10T16:19:37Z</time></trkpt><trkpt lat="45.068543286638025" lon="7.823669548910826"><ele>409.1428571428571</ele><time>2026-04-10T16:20:06Z</time></trkpt><trkpt lat="45.06846765009451" lon="7.823695116955359"><ele>408.42857142857144</ele><time>2026-04-10T16:20:09Z</time></trkpt><trkpt lat="45.06840570777879" lon="7.823713395443968"><ele>407.7142857142857</ele><time>2026-04-10T16:20:11Z</time></trkpt><trkpt lat="45.06833743280101" lon="7.8237357758495945"><ele>407.0</ele><time>2026-04-10T16:20:13Z</time></trkpt><trkpt lat="45.06826229362912" lon="7.82375704450485"><ele>406.49999999999994</ele><time>2026-04-10T16:20:15Z</time></trkpt><trkpt lat="45.06818185535321" lon="7.823776814637403"><ele>406.0</ele><time>2026-04-10T16:20:17Z</time></trkpt><trkpt lat="45.06809790612104" lon="7.823807956046585"><ele>405.5</ele><time>2026-04-10T16:20:19Z</time></trkpt><trkpt lat="45.0680029475505" lon="7.823848587039657"><ele>405.0</ele><time>2026-04-10T16:20:21Z</time></trkpt><trkpt lat="45.0679129320505" lon="7.8238888596609595"><ele>404.49999999999994</ele><time>2026-04-10T16:20:23Z</time></trkpt><trkpt lat="45.067840335635104" lon="7.823925643588797"><ele>404.0</ele><time>2026-04-10T16:20:25Z</time></trkpt><trkpt lat="45.067772137824456" lon="7.823953061603751"><ele>403.99999999999994</ele><time>2026-04-10T16:20:27Z</time></trkpt><trkpt lat="45.06769739325258" lon="7.823989887789677"><ele>404.0</ele><time>2026-04-10T16:20:29Z</time></trkpt><trkpt lat="45.067614920583345" lon="7.824005620827959"><ele>404.0</ele><time>2026-04-10T16:20:31Z</time></trkpt><trkpt lat="45.06753812889077" lon="7.824020101429265"><ele>404.0</ele><time>2026-04-10T16:20:33Z</time></trkpt><trkpt lat="45.06745208393606" lon="7.824034418497154"><ele>403.99999999999994</ele><time>2026-04-10T16:20:35Z</time></trkpt><trkpt lat="45.06736973535067" lon="7.824034766460719"><ele>404.0</ele><time>2026-04-10T16:20:37Z</time></trkpt><trkpt lat="45.06728835816286" lon="7.8240413381898"><ele>403.0</ele><time>2026-04-10T16:20:39Z</time></trkpt><trkpt lat="45.06720200661142" lon="7.824041765754547"><ele>402.0</ele><time>2026-04-10T16:20:41Z</time></trkpt><trkpt lat="45.06711483576445" lon="7.8240507758893125"><ele>401.0</ele><time>2026-04-10T16:20:43Z</time></trkpt><trkpt lat="45.06702210490763" lon="7.824057055248512"><ele>400.0</ele><time>2026-04-10T16:20:45Z</time></trkpt><trkpt lat="45.06692660215467" lon="7.8240570305750525"><ele>399.0</ele><time>2026-04-10T16:20:47Z</time></trkpt><trkpt lat="45.0668226425094" lon="7.824061744461478"><ele>399.0</ele><time>2026-04-10T16:20:49Z</time></trkpt><trkpt lat="45.06672192208369" lon="7.824066167717108"><ele>399.0</ele><time>2026-04-10T16:20:51Z</time></trkpt><trkpt lat="45.06662163958397" lon="7.824043072852122"><ele>399.0</ele><time>2026-04-10T16:20:53Z</time></trkpt><trkpt lat="45.066514693946885" lon="7.824052567133271"><ele>399.0</ele><time>2026-04-10T16:20:55Z</time></trkpt><trkpt lat="45.066452106921076" lon="7.824080862476398"><ele>399.0</ele><time>2026-04-10T16:20:56Z</time></trkpt><trkpt lat="45.06637515591786" lon="7.824059510998468"><ele>396.6</ele><time>2026-04-10T16:20:57Z</time></trkpt><trkpt lat="45.06628065532404" lon="7.82406440021423"><ele>394.2</ele><time>2026-04-10T16:20:58Z</time></trkpt><trkpt lat="45.06618366872997" lon="7.824091902353201"><ele>391.8</ele><time>2026-04-10T16:20:59Z</time></trkpt><trkpt lat="45.06608521456758" lon="7.82409359545205"><ele>389.40000000000003</ele><time>2026-04-10T16:21:00Z</time></trkpt><trkpt lat="45.06600201557105" lon="7.824099515009595"><ele>387.0</ele><time>2026-04-10T16:21:01Z</time></trkpt><trkpt lat="45.065922073547604" lon="7.824140057962067"><ele>387.0</ele><time>2026-04-10T16:21:02Z</time></trkpt><trkpt lat="45.06584218200818" lon="7.824219837196408"><ele>387.0</ele><time>2026-04-10T16:21:03Z</time></trkpt><trkpt lat="45.06576622477226" lon="7.824319880308208"><ele>387.0</ele><time>2026-04-10T16:21:04Z</time></trkpt><trkpt lat="45.06569956488306" lon="7.824419998011479"><ele>387.0</ele><time>2026-04-10T16:21:05Z</time></trkpt><trkpt lat="45.06563252124792" lon="7.824502170413283"><ele>387.0</ele><time>2026-04-10T16:21:06Z</time></trkpt><trkpt lat="45.06554505859902" lon="7.824573628328684"><ele>384.40000000000003</ele><time>2026-04-10T16:21:07Z</time></trkpt><trkpt lat="45.06543327159992" lon="7.824601965653606"><ele>381.8</ele><time>2026-04-10T16:21:08Z</time></trkpt><trkpt lat="45.06532783865783" lon="7.824629949865538"><ele>379.2</ele><time>2026-04-10T16:21:09Z</time></trkpt><trkpt lat="45.065230237748246" lon="7.824646524137722"><ele>376.6</ele><time>2026-04-10T16:21:10Z</time></trkpt><trkpt lat="45.065143412073" lon="7.824666512877057"><ele>374.0</ele><time>2026-04-10T16:21:11Z</time></trkpt><trkpt lat="45.06505625931323" lon="7.82468422549427"><ele>374.0</ele><time>2026-04-10T16:21:12Z</time></trkpt><trkpt lat="45.06495640356078" lon="7.824708026069634"><ele>374.0</ele><time>2026-04-10T16:21:13Z</time></trkpt><trkpt lat="45.06486503242427" lon="7.824747671830123"><ele>374.0</ele><time>2026-04-10T16:21:14Z</time></trkpt><trkpt lat="45.06479314253392" lon="7.824797458154647"><ele>374.0</ele><time>2026-04-10T16:21:15Z</time></trkpt><trkpt lat="45.06473450970278" lon="7.824856320133134"><ele>374.0</ele><time>2026-04-10T16:21:16Z</time></trkpt><trkpt lat="45.06467459999003" lon="7.824909942440139"><ele>374.0</ele><time>2026-04-10T16:21:17Z</time></trkpt><trkpt lat="45.06458840271418" lon="7.824967656962405"><ele>373.33333333333337</ele><time>2026-04-10T16:21:19Z</time></trkpt><trkpt lat="45.06452098824674" lon="7.825007329922059"><ele>372.6666666666667</ele><time>2026-04-10T16:21:22Z</time></trkpt><trkpt lat="45.064497634048614" lon="7.825126086676817"><ele>372.0</ele><time>2026-04-10T16:21:24Z</time></trkpt><trkpt lat="45.064469955917446" lon="7.825232957774227"><ele>371.3333333333333</ele><time>2026-04-10T16:21:26Z</time></trkpt><trkpt lat="45.06445366587032" lon="7.825363791693166"><ele>370.66666666666663</ele><time>2026-04-10T16:21:28.001Z</time></trkpt><trkpt lat="45.06440492981426" lon="7.82548709553947"><ele>370.0</ele><time>2026-04-10T16:21:30.001Z</time></trkpt><trkpt lat="45.06435487989626" lon="7.825606034548889"><ele>370.0</ele><time>2026-04-10T16:21:32.001Z</time></trkpt><trkpt lat="45.06428136493874" lon="7.825705416090923"><ele>370.0</ele><time>2026-04-10T16:21:34.001Z</time></trkpt><trkpt lat="45.064197062115134" lon="7.825797493495848"><ele>370.0</ele><time>2026-04-10T16:21:36.001Z</time></trkpt><trkpt lat="45.0641152884157" lon="7.825899858120587"><ele>370.0</ele><time>2026-04-10T16:21:38.001Z</time></trkpt><trkpt lat="45.06411739288899" lon="7.825991646790293"><ele>370.0</ele><time>2026-04-10T16:21:39.001Z</time></trkpt><trkpt lat="45.0641396664692" lon="7.826131891545609"><ele>371.16666666666663</ele><time>2026-04-10T16:21:41Z</time></trkpt><trkpt lat="45.06421936294243" lon="7.826185363412407"><ele>372.3333333333333</ele><time>2026-04-10T16:21:42Z</time></trkpt><trkpt lat="45.064265381981805" lon="7.826248386391516"><ele>373.5</ele><time>2026-04-10T16:21:43Z</time></trkpt><trkpt lat="45.06431443103798" lon="7.826320156421908"><ele>374.6666666666667</ele><time>2026-04-10T16:21:44Z</time></trkpt><trkpt lat="45.064373951734595" lon="7.826387781923977"><ele>375.83333333333337</ele><time>2026-04-10T16:21:45Z</time></trkpt><trkpt lat="45.06444536897856" lon="7.826456308123598"><ele>377.0</ele><time>2026-04-10T16:21:46Z</time></trkpt><trkpt lat="45.064530778800076" lon="7.826514380112494"><ele>377.0</ele><time>2026-04-10T16:21:47Z</time></trkpt><trkpt lat="45.064625758463734" lon="7.826563622832402"><ele>377.0</ele><time>2026-04-10T16:21:48Z</time></trkpt><trkpt lat="45.06472862036282" lon="7.826600931477399"><ele>377.0</ele><time>2026-04-10T16:21:49Z</time></trkpt><trkpt lat="45.06484416697113" lon="7.826622251981632"><ele>377.0</ele><time>2026-04-10T16:21:50Z</time></trkpt><trkpt lat="45.06496226425916" lon="7.826633480498993"><ele>377.0</ele><time>2026-04-10T16:21:51Z</time></trkpt><trkpt lat="45.06508568962547" lon="7.826635807604134"><ele>372.75</ele><time>2026-04-10T16:21:52Z</time></trkpt><trkpt lat="45.06521232716681" lon="7.826635830651171"><ele>368.5</ele><time>2026-04-10T16:21:53Z</time></trkpt><trkpt lat="45.065325639362214" lon="7.826610562515317"><ele>364.25</ele><time>2026-04-10T16:21:54Z</time></trkpt><trkpt lat="45.065434599202604" lon="7.826568218610847"><ele>360.0</ele><time>2026-04-10T16:21:55Z</time></trkpt><trkpt lat="45.06553218305675" lon="7.82651052064856"><ele>360.0</ele><time>2026-04-10T16:21:56Z</time></trkpt><trkpt lat="45.06562817702063" lon="7.826480763287172"><ele>360.0</ele><time>2026-04-10T16:21:57Z</time></trkpt><trkpt lat="45.06571040215213" lon="7.826559325886498"><ele>360.0</ele><time>2026-04-10T16:21:58Z</time></trkpt><trkpt lat="45.065782233613014" lon="7.826640514564627"><ele>360.0</ele><time>2026-04-10T16:21:59Z</time></trkpt><trkpt lat="45.06583953870255" lon="7.826757651232981"><ele>360.0</ele><time>2026-04-10T16:22:00Z</time></trkpt><trkpt lat="45.065806559142324" lon="7.826920176868153"><ele>360.5</ele><time>2026-04-10T16:22:01Z</time></trkpt><trkpt lat="45.06574720301403" lon="7.8270621837695025"><ele>361.0</ele><time>2026-04-10T16:22:02Z</time></trkpt><trkpt lat="45.0656450451272" lon="7.827158504769662"><ele>361.5</ele><time>2026-04-10T16:22:03Z</time></trkpt><trkpt lat="45.0655373380585" lon="7.827219984510685"><ele>362.0</ele><time>2026-04-10T16:22:04Z</time></trkpt><trkpt lat="45.06545340999694" lon="7.827301854670598"><ele>362.0</ele><time>2026-04-10T16:22:05Z</time></trkpt><trkpt lat="45.0654000048939" lon="7.827424484394965"><ele>362.0</ele><time>2026-04-10T16:22:06Z</time></trkpt><trkpt lat="45.06538618072575" lon="7.827581527033216"><ele>362.0</ele><time>2026-04-10T16:22:07Z</time></trkpt><trkpt lat="45.065414742468384" lon="7.8277497382610814"><ele>362.0</ele><time>2026-04-10T16:22:08Z</time></trkpt><trkpt lat="45.065473508876366" lon="7.8279067746026145"><ele>363.25</ele><time>2026-04-10T16:22:09Z</time></trkpt><trkpt lat="45.06553457546042" lon="7.828058799354908"><ele>364.5</ele><time>2026-04-10T16:22:10Z</time></trkpt><trkpt lat="45.06559078332714" lon="7.828218532963578"><ele>365.75</ele><time>2026-04-10T16:22:11Z</time></trkpt><trkpt lat="45.06564871302398" lon="7.828385844039806"><ele>367.0</ele><time>2026-04-10T16:22:12Z</time></trkpt><trkpt lat="45.06570835179239" lon="7.828557538550748"><ele>367.75</ele><time>2026-04-10T16:22:13Z</time></trkpt><trkpt lat="45.06577438714602" lon="7.828732783866271"><ele>368.5</ele><time>2026-04-10T16:22:14Z</time></trkpt><trkpt lat="45.06584834793594" lon="7.82890835404288"><ele>369.25</ele><time>2026-04-10T16:22:15Z</time></trkpt><trkpt lat="45.06593669778227" lon="7.829074106649026"><ele>370.0</ele><time>2026-04-10T16:22:16Z</time></trkpt><trkpt lat="45.06602326549057" lon="7.829245986302248"><ele>360.25</ele><time>2026-04-10T16:22:17Z</time></trkpt><trkpt lat="45.06613377658184" lon="7.829385452023435"><ele>350.5</ele><time>2026-04-10T16:22:18Z</time></trkpt><trkpt lat="45.06622556844204" lon="7.829543718092288"><ele>340.75</ele><time>2026-04-10T16:22:19Z</time></trkpt><trkpt lat="45.066313974239925" lon="7.829717204634607"><ele>331.0</ele><time>2026-04-10T16:22:20Z</time></trkpt><trkpt lat="45.06637238446406" lon="7.829926889381209"><ele>327.0</ele><time>2026-04-10T16:22:21Z</time></trkpt><trkpt lat="45.06636162581304" lon="7.830157808521196"><ele>323.0</ele><time>2026-04-10T16:22:22Z</time></trkpt><trkpt lat="45.06636675844822" lon="7.8303850519740115"><ele>319.0</ele><time>2026-04-10T16:22:23Z</time></trkpt><trkpt lat="45.06639070320682" lon="7.830592963108353"><ele>319.0</ele><time>2026-04-10T16:22:24Z</time></trkpt><trkpt lat="45.066424515449384" lon="7.830778167121514"><ele>319.0</ele><time>2026-04-10T16:22:25Z</time></trkpt><trkpt lat="45.06649554662335" lon="7.830933280250781"><ele>319.0</ele><time>2026-04-10T16:22:26Z</time></trkpt><trkpt lat="45.06658468554649" lon="7.831040164775791"><ele>319.0</ele><time>2026-04-10T16:22:27Z</time></trkpt><trkpt lat="45.0666895595515" lon="7.831086203843128"><ele>316.2</ele><time>2026-04-10T16:22:28Z</time></trkpt><trkpt lat="45.066800505545565" lon="7.8310955060313745"><ele>313.4</ele><time>2026-04-10T16:22:29Z</time></trkpt><trkpt lat="45.06690921621082" lon="7.831090594582599"><ele>310.6</ele><time>2026-04-10T16:22:30Z</time></trkpt><trkpt lat="45.067012252648254" lon="7.831114940755773"><ele>307.8</ele><time>2026-04-10T16:22:31Z</time></trkpt><trkpt lat="45.06710076511375" lon="7.831194331458866"><ele>305.0</ele><time>2026-04-10T16:22:32Z</time></trkpt><trkpt lat="45.067181206170055" lon="7.831281157844783"><ele>305.0</ele><time>2026-04-10T16:22:33Z</time></trkpt><trkpt lat="45.067265405516274" lon="7.831366445029812"><ele>305.0</ele><time>2026-04-10T16:22:34Z</time></trkpt><trkpt lat="45.06732194236413" lon="7.831489812398089"><ele>305.0</ele><time>2026-04-10T16:22:35Z</time></trkpt><trkpt lat="45.067372387597146" lon="7.831615456464136"><ele>305.0</ele><time>2026-04-10T16:22:36Z</time></trkpt><trkpt lat="45.06737666866837" lon="7.831757750098709"><ele>305.0</ele><time>2026-04-10T16:22:37Z</time></trkpt><trkpt lat="45.06738867203948" lon="7.831894958194092"><ele>305.6666666666667</ele><time>2026-04-10T16:22:38Z</time></trkpt><trkpt lat="45.067408965945994" lon="7.832029288135951"><ele>306.33333333333337</ele><time>2026-04-10T16:22:39Z</time></trkpt><trkpt lat="45.067415964637206" lon="7.832158410168121"><ele>307.0</ele><time>2026-04-10T16:22:40Z</time></trkpt><trkpt lat="45.067423999160326" lon="7.832285176728389"><ele>307.6666666666667</ele><time>2026-04-10T16:22:41Z</time></trkpt><trkpt lat="45.06742484906415" lon="7.832407018698237"><ele>308.3333333333333</ele><time>2026-04-10T16:22:42Z</time></trkpt><trkpt lat="45.067413819948605" lon="7.832525605687714"><ele>309.0</ele><time>2026-04-10T16:22:43Z</time></trkpt><trkpt lat="45.067367479836584" lon="7.832625747635811"><ele>309.0</ele><time>2026-04-10T16:22:44Z</time></trkpt><trkpt lat="45.06735245812938" lon="7.832734598159338"><ele>309.0</ele><time>2026-04-10T16:22:45Z</time></trkpt><trkpt lat="45.06731858823612" lon="7.832825413186058"><ele>309.0</ele><time>2026-04-10T16:22:46Z</time></trkpt><trkpt lat="45.06728936641826" lon="7.832917393653576"><ele>309.0</ele><time>2026-04-10T16:22:47Z</time></trkpt><trkpt lat="45.06726606559368" lon="7.8330052381556525"><ele>309.0</ele><time>2026-04-10T16:22:48Z</time></trkpt><trkpt lat="45.06723347019667" lon="7.833170156724816"><ele>309.0</ele><time>2026-04-10T16:22:50Z</time></trkpt><trkpt lat="45.067207429329244" lon="7.83331953772473"><ele>309.0</ele><time>2026-04-10T16:22:52Z</time></trkpt><trkpt lat="45.06719354357632" lon="7.833459491143776"><ele>309.0</ele><time>2026-04-10T16:22:54Z</time></trkpt><trkpt lat="45.06718355630086" lon="7.833576573705322"><ele>309.0</ele><time>2026-04-10T16:22:56Z</time></trkpt><trkpt lat="45.0671830252534" lon="7.833676155989095"><ele>309.0</ele><time>2026-04-10T16:22:58Z</time></trkpt><trkpt lat="45.06718264305967" lon="7.833770304740506"><ele>309.0</ele><time>2026-04-10T16:23:00Z</time></trkpt><trkpt lat="45.067179154600346" lon="7.833886784778466"><ele>309.0</ele><time>2026-04-10T16:23:04Z</time></trkpt><trkpt lat="45.06717949950876" lon="7.833996377977745"><ele>309.28571428571433</ele><time>2026-04-10T16:23:07Z</time></trkpt><trkpt lat="45.06717921523959" lon="7.834126099028322"><ele>309.57142857142856</ele><time>2026-04-10T16:23:10Z</time></trkpt><trkpt lat="45.06718459597968" lon="7.834235154112843"><ele>309.8571428571429</ele><time>2026-04-10T16:23:13Z</time></trkpt><trkpt lat="45.06718715159477" lon="7.834337020295072"><ele>310.14285714285717</ele><time>2026-04-10T16:23:16Z</time></trkpt><trkpt lat="45.067187635047674" lon="7.8344333259444365"><ele>310.42857142857144</ele><time>2026-04-10T16:23:19Z</time></trkpt><trkpt lat="45.06719055695057" lon="7.834525001592845"><ele>310.7142857142857</ele><time>2026-04-10T16:23:22Z</time></trkpt><trkpt lat="45.067190500077196" lon="7.834616334674924"><ele>311.0</ele><time>2026-04-10T16:23:24.999Z</time></trkpt><trkpt lat="45.067186386417944" lon="7.83473302718275"><ele>311.57142857142856</ele><time>2026-04-10T16:23:28.999Z</time></trkpt><trkpt lat="45.067181614635906" lon="7.834826781795197"><ele>312.14285714285717</ele><time>2026-04-10T16:23:33.001Z</time></trkpt><trkpt lat="45.06717108582867" lon="7.834915717383766"><ele>312.7142857142857</ele><time>2026-04-10T16:23:37.001Z</time></trkpt><trkpt lat="45.06716000482291" lon="7.83500731437896"><ele>313.2857142857143</ele><time>2026-04-10T16:23:41.001Z</time></trkpt><trkpt lat="45.0671432619173" lon="7.835099538006456"><ele>313.8571428571429</ele><time>2026-04-10T16:23:45Z</time></trkpt><trkpt lat="45.06712225518072" lon="7.835200516928979"><ele>314.42857142857144</ele><time>2026-04-10T16:23:49Z</time></trkpt><trkpt lat="45.06711130540741" lon="7.835303741494466"><ele>315.0</ele><time>2026-04-10T16:23:54Z</time></trkpt><trkpt lat="45.067100188650635" lon="7.835410883826736"><ele>317.0</ele><time>2026-04-10T16:23:59Z</time></trkpt><trkpt lat="45.067084001476154" lon="7.835519488584749"><ele>319.0</ele><time>2026-04-10T16:24:04Z</time></trkpt><trkpt lat="45.067066199564756" lon="7.835609171820066"><ele>321.0</ele><time>2026-04-10T16:24:08Z</time></trkpt><trkpt lat="45.06703363453301" lon="7.835702817357696"><ele>323.0</ele><time>2026-04-10T16:24:11Z</time></trkpt><trkpt lat="45.06696460711999" lon="7.835803648141305"><ele>325.0</ele><time>2026-04-10T16:24:13Z</time></trkpt><trkpt lat="45.066889656788" lon="7.835935542215546"><ele>327.0</ele><time>2026-04-10T16:24:14Z</time></trkpt><trkpt lat="45.06684152498479" lon="7.836007597593768"><ele>327.20000000000005</ele><time>2026-04-10T16:24:15Z</time></trkpt><trkpt lat="45.066787159361596" lon="7.836095209833163"><ele>327.4</ele><time>2026-04-10T16:24:16Z</time></trkpt><trkpt lat="45.066733129943096" lon="7.836174045142738"><ele>327.6</ele><time>2026-04-10T16:24:17Z</time></trkpt><trkpt lat="45.066671782090886" lon="7.836271751986356"><ele>327.79999999999995</ele><time>2026-04-10T16:24:18Z</time></trkpt><trkpt lat="45.066607971338634" lon="7.8363790214597895"><ele>328.0</ele><time>2026-04-10T16:24:19Z</time></trkpt><trkpt lat="45.06653586631876" lon="7.836491894508958"><ele>324.5</ele><time>2026-04-10T16:24:20Z</time></trkpt><trkpt lat="45.066459795864624" lon="7.836607490708841"><ele>321.0</ele><time>2026-04-10T16:24:21Z</time></trkpt><trkpt lat="45.0663887461027" lon="7.836720095370947"><ele>317.5</ele><time>2026-04-10T16:24:22Z</time></trkpt><trkpt lat="45.06632972102343" lon="7.836860555488897"><ele>314.0</ele><time>2026-04-10T16:24:23Z</time></trkpt><trkpt lat="45.066255826826634" lon="7.836995449469111"><ele>314.0</ele><time>2026-04-10T16:24:24Z</time></trkpt><trkpt lat="45.06617791019773" lon="7.837148771180954"><ele>314.0</ele><time>2026-04-10T16:24:25Z</time></trkpt><trkpt lat="45.06610820405449" lon="7.837288810665249"><ele>314.0</ele><time>2026-04-10T16:24:26Z</time></trkpt><trkpt lat="45.06603644969913" lon="7.837431758707887"><ele>314.0</ele><time>2026-04-10T16:24:27Z</time></trkpt><trkpt lat="45.06596222355221" lon="7.8375686232682975"><ele>314.2</ele><time>2026-04-10T16:24:28Z</time></trkpt><trkpt lat="45.06588003081077" lon="7.837682409158946"><ele>314.4</ele><time>2026-04-10T16:24:29Z</time></trkpt><trkpt lat="45.065818949015046" lon="7.837767662696385"><ele>314.6</ele><time>2026-04-10T16:24:30Z</time></trkpt><trkpt lat="45.06576080229113" lon="7.837880367630804"><ele>314.8</ele><time>2026-04-10T16:24:31Z</time></trkpt><trkpt lat="45.065726085869535" lon="7.837987244895356"><ele>315.0</ele><time>2026-04-10T16:24:32Z</time></trkpt><trkpt lat="45.06571221805264" lon="7.838094030843945"><ele>315.0</ele><time>2026-04-10T16:24:33Z</time></trkpt><trkpt lat="45.065684735014926" lon="7.83819741632392"><ele>315.0</ele><time>2026-04-10T16:24:34Z</time></trkpt><trkpt lat="45.06573794804325" lon="7.838289759320644"><ele>315.0</ele><time>2026-04-10T16:24:35Z</time></trkpt><trkpt lat="45.065784966442564" lon="7.838450298695695"><ele>315.0</ele><time>2026-04-10T16:24:37Z</time></trkpt><trkpt lat="45.065828030671625" lon="7.838598395187162"><ele>315.0</ele><time>2026-04-10T16:24:39Z</time></trkpt><trkpt lat="45.06586453510206" lon="7.838742247138389"><ele>315.1666666666667</ele><time>2026-04-10T16:24:41Z</time></trkpt><trkpt lat="45.06590270611549" lon="7.83889386264074"><ele>315.3333333333333</ele><time>2026-04-10T16:24:43Z</time></trkpt><trkpt lat="45.0659422553951" lon="7.839050628668132"><ele>315.5</ele><time>2026-04-10T16:24:45Z</time></trkpt><trkpt lat="45.06595801718586" lon="7.839138906110611"><ele>315.66666666666663</ele><time>2026-04-10T16:24:46Z</time></trkpt><trkpt lat="45.06596171099906" lon="7.8392364466545725"><ele>315.8333333333333</ele><time>2026-04-10T16:24:47Z</time></trkpt><trkpt lat="45.065942725076475" lon="7.839332931384358"><ele>316.0</ele><time>2026-04-10T16:24:48Z</time></trkpt><trkpt lat="45.06588738046111" lon="7.839428103669821"><ele>315.2</ele><time>2026-04-10T16:24:49Z</time></trkpt><trkpt lat="45.065791941707275" lon="7.839448305353642"><ele>314.40000000000003</ele><time>2026-04-10T16:24:50Z</time></trkpt><trkpt lat="45.065720488938275" lon="7.839513925058041"><ele>313.6</ele><time>2026-04-10T16:24:51Z</time></trkpt><trkpt lat="45.06565644025925" lon="7.839600948513277"><ele>312.8</ele><time>2026-04-10T16:24:52Z</time></trkpt><trkpt lat="45.06557676963543" lon="7.839677848679107"><ele>312.0</ele><time>2026-04-10T16:24:53Z</time></trkpt><trkpt lat="45.06549620539613" lon="7.839761702085351"><ele>310.6</ele><time>2026-04-10T16:24:54Z</time></trkpt><trkpt lat="45.06540439365742" lon="7.839850224053884"><ele>309.2</ele><time>2026-04-10T16:24:55Z</time></trkpt><trkpt lat="45.06532046023683" lon="7.839950403804485"><ele>307.8</ele><time>2026-04-10T16:24:56Z</time></trkpt><trkpt lat="45.06525052575188" lon="7.840046835437853"><ele>306.4</ele><time>2026-04-10T16:24:57Z</time></trkpt><trkpt lat="45.06522319833176" lon="7.840183493400388"><ele>305.0</ele><time>2026-04-10T16:24:58Z</time></trkpt><trkpt lat="45.065225795299355" lon="7.840343988099573"><ele>303.75</ele><time>2026-04-10T16:24:59Z</time></trkpt><trkpt lat="45.06523389679805" lon="7.840514038348154"><ele>302.5</ele><time>2026-04-10T16:25:00Z</time></trkpt><trkpt lat="45.06525075873973" lon="7.840672316411195"><ele>301.25</ele><time>2026-04-10T16:25:01Z</time></trkpt><trkpt lat="45.065271523373625" lon="7.840833817038762"><ele>300.0</ele><time>2026-04-10T16:25:02Z</time></trkpt><trkpt lat="45.06529880443005" lon="7.84098100872251"><ele>299.0</ele><time>2026-04-10T16:25:03Z</time></trkpt><trkpt lat="45.06532595346871" lon="7.841121527932698"><ele>298.0</ele><time>2026-04-10T16:25:04Z</time></trkpt><trkpt lat="45.065356436270854" lon="7.84125503021747"><ele>297.0</ele><time>2026-04-10T16:25:05Z</time></trkpt><trkpt lat="45.0653819056665" lon="7.841375791221511"><ele>296.0</ele><time>2026-04-10T16:25:06Z</time></trkpt><trkpt lat="45.06540695132917" lon="7.8414711673795185"><ele>295.0</ele><time>2026-04-10T16:25:07Z</time></trkpt><trkpt lat="45.06545162456255" lon="7.841605886290338"><ele>295.0</ele><time>2026-04-10T16:25:09Z</time></trkpt><trkpt lat="45.06544363415434" lon="7.8416980081423"><ele>295.0</ele><time>2026-04-10T16:25:13.999Z</time></trkpt><trkpt lat="45.06541955109315" lon="7.841803435450373"><ele>295.0</ele><time>2026-04-10T16:25:22.999Z</time></trkpt><trkpt lat="45.065431037416495" lon="7.841899614571239"><ele>295.0</ele><time>2026-04-10T16:25:25.999Z</time></trkpt><trkpt lat="45.06545956338664" lon="7.841980475500377"><ele>295.0</ele><time>2026-04-10T16:25:27.999Z</time></trkpt><trkpt lat="45.065512990699176" lon="7.842068445696827"><ele>295.0</ele><time>2026-04-10T16:25:29.999Z</time></trkpt><trkpt lat="45.06561180457059" lon="7.842079015230128"><ele>294.8</ele><time>2026-04-10T16:25:31.999Z</time></trkpt><trkpt lat="45.0656981322124" lon="7.842009392044076"><ele>294.6</ele><time>2026-04-10T16:25:33.999Z</time></trkpt><trkpt lat="45.065778059688924" lon="7.841912642394732"><ele>294.4</ele><time>2026-04-10T16:25:35.999Z</time></trkpt><trkpt lat="45.06589199431602" lon="7.8418848568910215"><ele>294.2</ele><time>2026-04-10T16:25:37.999Z</time></trkpt><trkpt lat="45.06600450089163" lon="7.841870060011354"><ele>294.0</ele><time>2026-04-10T16:25:40Z</time></trkpt><trkpt lat="45.06612237122561" lon="7.841859605443733"><ele>294.0</ele><time>2026-04-10T16:25:42Z</time></trkpt><trkpt lat="45.06623895659914" lon="7.8418564385596445"><ele>294.0</ele><time>2026-04-10T16:25:44Z</time></trkpt><trkpt lat="45.06635165182249" lon="7.841856791894392"><ele>294.0</ele><time>2026-04-10T16:25:46Z</time></trkpt><trkpt lat="45.06645920953543" lon="7.841844309717951"><ele>294.0</ele><time>2026-04-10T16:25:48Z</time></trkpt><trkpt lat="45.06656209011863" lon="7.84183665983384"><ele>294.0</ele><time>2026-04-10T16:25:50Z</time></trkpt><trkpt lat="45.06666826399464" lon="7.841832534478524"><ele>294.4</ele><time>2026-04-10T16:25:52Z</time></trkpt><trkpt lat="45.06677121738497" lon="7.841824285193064"><ele>294.79999999999995</ele><time>2026-04-10T16:25:54Z</time></trkpt><trkpt lat="45.066872567249405" lon="7.841828112084169"><ele>295.20000000000005</ele><time>2026-04-10T16:25:56Z</time></trkpt><trkpt lat="45.06695768642772" lon="7.841896196360332"><ele>295.6</ele><time>2026-04-10T16:25:58Z</time></trkpt><trkpt lat="45.066977918591235" lon="7.842057889059581"><ele>296.0</ele><time>2026-04-10T16:26:00Z</time></trkpt><trkpt lat="45.06697459050094" lon="7.842215913519691"><ele>296.0</ele><time>2026-04-10T16:26:02Z</time></trkpt><trkpt lat="45.06698328562166" lon="7.842369442326916"><ele>296.0</ele><time>2026-04-10T16:26:04Z</time></trkpt><trkpt lat="45.06697949634007" lon="7.842520754436141"><ele>296.0</ele><time>2026-04-10T16:26:06Z</time></trkpt><trkpt lat="45.066986638430286" lon="7.842660170346376"><ele>296.0</ele><time>2026-04-10T16:26:08Z</time></trkpt><trkpt lat="45.06699479132618" lon="7.84279800319582"><ele>296.0</ele><time>2026-04-10T16:26:10Z</time></trkpt><trkpt lat="45.06700264455273" lon="7.842927340310704"><ele>296.33333333333337</ele><time>2026-04-10T16:26:12Z</time></trkpt><trkpt lat="45.06701061840831" lon="7.843058664094656"><ele>296.6666666666667</ele><time>2026-04-10T16:26:14Z</time></trkpt><trkpt lat="45.06701907803111" lon="7.843183773881237"><ele>297.0</ele><time>2026-04-10T16:26:16Z</time></trkpt><trkpt lat="45.06702702386663" lon="7.843301280020295"><ele>297.3333333333333</ele><time>2026-04-10T16:26:18Z</time></trkpt><trkpt lat="45.067049727542" lon="7.843409026580354"><ele>297.66666666666663</ele><time>2026-04-10T16:26:20Z</time></trkpt><trkpt lat="45.06704134145731" lon="7.843513014093918"><ele>298.0</ele><time>2026-04-10T16:26:22Z</time></trkpt><trkpt lat="45.06704801329689" lon="7.843601698529058"><ele>298.16666666666663</ele><time>2026-04-10T16:26:24Z</time></trkpt><trkpt lat="45.06705722173817" lon="7.843726497107953"><ele>298.3333333333333</ele><time>2026-04-10T16:26:27Z</time></trkpt><trkpt lat="45.067066537731534" lon="7.843840942155664"><ele>298.5</ele><time>2026-04-10T16:26:31Z</time></trkpt><trkpt lat="45.067087941987246" lon="7.84397409319884"><ele>298.6666666666667</ele><time>2026-04-10T16:26:34Z</time></trkpt><trkpt lat="45.06709390415713" lon="7.844071491232678"><ele>298.83333333333337</ele><time>2026-04-10T16:26:37Z</time></trkpt><trkpt lat="45.067100920385094" lon="7.844160086849442"><ele>299.0</ele><time>2026-04-10T16:26:40Z</time></trkpt><trkpt lat="45.06711472173344" lon="7.8442688345591955"><ele>300.42857142857144</ele><time>2026-04-10T16:26:44Z</time></trkpt><trkpt lat="45.067115234795715" lon="7.844362395261963"><ele>301.8571428571429</ele><time>2026-04-10T16:26:47Z</time></trkpt><trkpt lat="45.06712563761477" lon="7.844468841333413"><ele>303.28571428571433</ele><time>2026-04-10T16:26:51Z</time></trkpt><trkpt lat="45.06713813349835" lon="7.844582968447499"><ele>304.7142857142857</ele><time>2026-04-10T16:26:55Z</time></trkpt><trkpt lat="45.067134475983266" lon="7.844672367381357"><ele>306.14285714285717</ele><time>2026-04-10T16:26:59Z</time></trkpt><trkpt lat="45.06710933626015" lon="7.84476655505254"><ele>307.5714285714286</ele><time>2026-04-10T16:27:03Z</time></trkpt><trkpt lat="45.06705732251895" lon="7.844828032095476"><ele>309.0</ele><time>2026-04-10T16:27:06.999Z</time></trkpt><trkpt lat="45.06699989155531" lon="7.844892547210643"><ele>309.00000000000006</ele><time>2026-04-10T16:27:10.999Z</time></trkpt><trkpt lat="45.06694755899715" lon="7.844950752206757"><ele>309.0</ele><time>2026-04-10T16:27:14.999Z</time></trkpt><trkpt lat="45.06688430705173" lon="7.8450009265545795"><ele>309.0</ele><time>2026-04-10T16:27:18.999Z</time></trkpt><trkpt lat="45.06682604526531" lon="7.845058700790255"><ele>309.0</ele><time>2026-04-10T16:27:22.999Z</time></trkpt><trkpt lat="45.06677588736946" lon="7.845118422206425"><ele>309.0</ele><time>2026-04-10T16:27:26.999Z</time></trkpt><trkpt lat="45.06672675057592" lon="7.845191010650529"><ele>309.00000000000006</ele><time>2026-04-10T16:27:30.999Z</time></trkpt><trkpt lat="45.06667112131724" lon="7.845242091648528"><ele>309.0</ele><time>2026-04-10T16:27:34.999Z</time></trkpt><trkpt lat="45.0666054532646" lon="7.845307944769943"><ele>310.8333333333333</ele><time>2026-04-10T16:27:38.999Z</time></trkpt><trkpt lat="45.06654851706932" lon="7.845364576359718"><ele>312.6666666666667</ele><time>2026-04-10T16:27:42.999Z</time></trkpt><trkpt lat="45.066483468248315" lon="7.8454278651074585"><ele>314.5</ele><time>2026-04-10T16:27:47Z</time></trkpt><trkpt lat="45.06642163832822" lon="7.845491225446161"><ele>316.33333333333337</ele><time>2026-04-10T16:27:51Z</time></trkpt><trkpt lat="45.066360467708755" lon="7.84555923729255"><ele>318.1666666666667</ele><time>2026-04-10T16:27:55Z</time></trkpt><trkpt lat="45.06629472302939" lon="7.845618711534252"><ele>320.0</ele><time>2026-04-10T16:27:59Z</time></trkpt><trkpt lat="45.066236490725274" lon="7.845675312887969"><ele>320.0</ele><time>2026-04-10T16:28:03Z</time></trkpt><trkpt lat="45.066174280500555" lon="7.845735816827116"><ele>320.0</ele><time>2026-04-10T16:28:07Z</time></trkpt><trkpt lat="45.066112164527915" lon="7.8457975041698536"><ele>320.0</ele><time>2026-04-10T16:28:11Z</time></trkpt><trkpt lat="45.06604807907967" lon="7.845860862111139"><ele>320.0</ele><time>2026-04-10T16:28:15Z</time></trkpt><trkpt lat="45.06598825331196" lon="7.845919002304387"><ele>320.0</ele><time>2026-04-10T16:28:18Z</time></trkpt><trkpt lat="45.06593309675719" lon="7.845971604850213"><ele>320.0</ele><time>2026-04-10T16:28:21Z</time></trkpt><trkpt lat="45.06586409001696" lon="7.846039126015032"><ele>321.0</ele><time>2026-04-10T16:28:25Z</time></trkpt><trkpt lat="45.065813865630595" lon="7.846097480358079"><ele>322.0</ele><time>2026-04-10T16:28:28Z</time></trkpt><trkpt lat="45.06575863853454" lon="7.846156062931434"><ele>323.0</ele><time>2026-04-10T16:28:32Z</time></trkpt><trkpt lat="45.06569738449349" lon="7.846216129404016"><ele>324.0</ele><time>2026-04-10T16:28:35Z</time></trkpt><trkpt lat="45.06562697828126" lon="7.846282583324739"><ele>325.0</ele><time>2026-04-10T16:28:39Z</time></trkpt><trkpt lat="45.065571855437575" lon="7.846341594111717"><ele>326.0</ele><time>2026-04-10T16:28:43Z</time></trkpt><trkpt lat="45.06550594883556" lon="7.846415357446883"><ele>327.0</ele><time>2026-04-10T16:28:47Z</time></trkpt><trkpt lat="45.06543909746188" lon="7.846479082185328"><ele>327.0</ele><time>2026-04-10T16:28:50Z</time></trkpt><trkpt lat="45.06538265843088" lon="7.846521944241364"><ele>327.0</ele><time>2026-04-10T16:28:53Z</time></trkpt><trkpt lat="45.06532707791926" lon="7.846573740756349"><ele>327.0</ele><time>2026-04-10T16:28:55.999Z</time></trkpt><trkpt lat="45.06527182772766" lon="7.846624436568254"><ele>327.0</ele><time>2026-04-10T16:28:58.999Z</time></trkpt><trkpt lat="45.06522078446674" lon="7.846682762080186"><ele>327.0</ele><time>2026-04-10T16:29:02.999Z</time></trkpt><trkpt lat="45.06516857970911" lon="7.846735333428202"><ele>327.0</ele><time>2026-04-10T16:29:05.999Z</time></trkpt><trkpt lat="45.06509859633091" lon="7.846792152424767"><ele>327.0</ele><time>2026-04-10T16:29:08.999Z</time></trkpt><trkpt lat="45.06503987983115" lon="7.846845656430124"><ele>326.57142857142856</ele><time>2026-04-10T16:29:11.999Z</time></trkpt><trkpt lat="45.064985688913225" lon="7.8468910979056"><ele>326.14285714285717</ele><time>2026-04-10T16:29:14.999Z</time></trkpt><trkpt lat="45.06493228730983" lon="7.846951276077761"><ele>325.7142857142857</ele><time>2026-04-10T16:29:17.999Z</time></trkpt><trkpt lat="45.06487597601492" lon="7.847041969614832"><ele>325.2857142857143</ele><time>2026-04-10T16:29:21.999Z</time></trkpt><trkpt lat="45.06483749482669" lon="7.847118777315821"><ele>324.85714285714283</ele><time>2026-04-10T16:29:24.999Z</time></trkpt><trkpt lat="45.064811142636984" lon="7.847207131288944"><ele>324.42857142857144</ele><time>2026-04-10T16:29:27.999Z</time></trkpt><trkpt lat="45.064787503716204" lon="7.84730007277086"><ele>324.0</ele><time>2026-04-10T16:29:30.999Z</time></trkpt><trkpt lat="45.06477200467476" lon="7.847397697537261"><ele>324.0</ele><time>2026-04-10T16:29:33.999Z</time></trkpt><trkpt lat="45.06475557004653" lon="7.847493953947754"><ele>324.0</ele><time>2026-04-10T16:29:36.999Z</time></trkpt><trkpt lat="45.06473815208285" lon="7.847588106839773"><ele>324.0</ele><time>2026-04-10T16:29:39.999Z</time></trkpt><trkpt lat="45.0647171739225" lon="7.847685487082934"><ele>324.0</ele><time>2026-04-10T16:29:42.999Z</time></trkpt><trkpt lat="45.06469603695327" lon="7.847794544918616"><ele>324.0</ele><time>2026-04-10T16:29:45.999Z</time></trkpt><trkpt lat="45.06467083359181" lon="7.847893819083927"><ele>324.0</ele><time>2026-04-10T16:29:48.999Z</time></trkpt><trkpt lat="45.06463917921086" lon="7.847974473133439"><ele>324.0</ele><time>2026-04-10T16:29:52Z</time></trkpt><trkpt lat="45.064604215904005" lon="7.848060203846365"><ele>326.3333333333333</ele><time>2026-04-10T16:29:55Z</time></trkpt><trkpt lat="45.064565614775994" lon="7.848153621173554"><ele>328.6666666666667</ele><time>2026-04-10T16:29:58Z</time></trkpt><trkpt lat="45.064525767501344" lon="7.848238840705085"><ele>331.0</ele><time>2026-04-10T16:30:01Z</time></trkpt><trkpt lat="45.06448031140731" lon="7.848319329409654"><ele>333.33333333333337</ele><time>2026-04-10T16:30:04Z</time></trkpt><trkpt lat="45.06444284507396" lon="7.84840099931225"><ele>335.6666666666667</ele><time>2026-04-10T16:30:07Z</time></trkpt><trkpt lat="45.06440719771303" lon="7.848491250070808"><ele>338.0</ele><time>2026-04-10T16:30:11Z</time></trkpt><trkpt lat="45.06436487947266" lon="7.848605689599976"><ele>340.1666666666667</ele><time>2026-04-10T16:30:14Z</time></trkpt><trkpt lat="45.0643251911028" lon="7.848688591813081"><ele>342.33333333333337</ele><time>2026-04-10T16:30:17Z</time></trkpt><trkpt lat="45.06429233349683" lon="7.848786738867686"><ele>344.5</ele><time>2026-04-10T16:30:20Z</time></trkpt><trkpt lat="45.06426206898638" lon="7.848883287142217"><ele>346.6666666666667</ele><time>2026-04-10T16:30:23Z</time></trkpt><trkpt lat="45.06425257866662" lon="7.848986523215169"><ele>348.8333333333333</ele><time>2026-04-10T16:30:26Z</time></trkpt><trkpt lat="45.06424067863998" lon="7.849094299838767"><ele>351.0</ele><time>2026-04-10T16:30:30Z</time></trkpt><trkpt lat="45.06422826024799" lon="7.849220356304811"><ele>351.5714285714286</ele><time>2026-04-10T16:30:34Z</time></trkpt><trkpt lat="45.06422635946916" lon="7.849337610340284"><ele>352.14285714285717</ele><time>2026-04-10T16:30:38Z</time></trkpt><trkpt lat="45.06422345004559" lon="7.849435012498139"><ele>352.7142857142857</ele><time>2026-04-10T16:30:41Z</time></trkpt><trkpt lat="45.06424146793591" lon="7.84953944173423"><ele>353.28571428571433</ele><time>2026-04-10T16:30:44Z</time></trkpt><trkpt lat="45.06426696271116" lon="7.8496242948426325"><ele>353.8571428571429</ele><time>2026-04-10T16:30:47Z</time></trkpt><trkpt lat="45.06430644951828" lon="7.849705119759145"><ele>354.42857142857144</ele><time>2026-04-10T16:30:50Z</time></trkpt><trkpt lat="45.064358862964895" lon="7.849766241784419"><ele>355.0</ele><time>2026-04-10T16:30:54Z</time></trkpt><trkpt lat="45.06439860048126" lon="7.84983710539508"><ele>355.0</ele><time>2026-04-10T16:30:58Z</time></trkpt><trkpt lat="45.064330552703616" lon="7.849871639932339"><ele>355.0</ele><time>2026-04-10T16:31:02.999Z</time></trkpt><trkpt lat="45.06426244946577" lon="7.849831417383444"><ele>355.0</ele><time>2026-04-10T16:31:06.999Z</time></trkpt><trkpt lat="45.0641893253312" lon="7.849821505491155"><ele>355.0</ele><time>2026-04-10T16:31:10.999Z</time></trkpt><trkpt lat="45.06411379489365" lon="7.8497928894612805"><ele>355.0</ele><time>2026-04-10T16:31:14.999Z</time></trkpt><trkpt lat="45.06403757671354" lon="7.849747118574124"><ele>355.0</ele><time>2026-04-10T16:31:18.999Z</time></trkpt><trkpt lat="45.06397099250654" lon="7.849728615741566"><ele>355.0</ele><time>2026-04-10T16:31:21.999Z</time></trkpt><trkpt lat="45.06390361126346" lon="7.849704170788486"><ele>356.3333333333333</ele><time>2026-04-10T16:31:24.999Z</time></trkpt><trkpt lat="45.06383331786485" lon="7.849698798407738"><ele>357.66666666666663</ele><time>2026-04-10T16:31:26.999Z</time></trkpt><trkpt lat="45.063768684705124" lon="7.849701147641974"><ele>359.0</ele><time>2026-04-10T16:31:28.999Z</time></trkpt><trkpt lat="45.06367007833631" lon="7.849719984506155"><ele>360.3333333333333</ele><time>2026-04-10T16:31:32.999Z</time></trkpt><trkpt lat="45.063577824811944" lon="7.849751159404593"><ele>361.6666666666667</ele><time>2026-04-10T16:31:36.999Z</time></trkpt><trkpt lat="45.06350899688785" lon="7.849774133385253"><ele>363.0</ele><time>2026-04-10T16:31:39.999Z</time></trkpt><trkpt lat="45.06344112663828" lon="7.8497922489896945"><ele>362.99999999999994</ele><time>2026-04-10T16:31:43.999Z</time></trkpt><trkpt lat="45.06338007399216" lon="7.849825640469142"><ele>363.0</ele><time>2026-04-10T16:31:46.999Z</time></trkpt><trkpt lat="45.06331728791394" lon="7.8498824540738905"><ele>363.0</ele><time>2026-04-10T16:31:50.999Z</time></trkpt><trkpt lat="45.06325834264414" lon="7.849949222856405"><ele>363.0</ele><time>2026-04-10T16:31:54.999Z</time></trkpt><trkpt lat="45.06319826474265" lon="7.850013362260418"><ele>363.0</ele><time>2026-04-10T16:31:59Z</time></trkpt><trkpt lat="45.06314549695507" lon="7.85009080979294"><ele>362.99999999999994</ele><time>2026-04-10T16:32:03Z</time></trkpt><trkpt lat="45.06309485808017" lon="7.850160749180192"><ele>363.0</ele><time>2026-04-10T16:32:07Z</time></trkpt><trkpt lat="45.06305137187908" lon="7.850227152920101"><ele>363.1666666666667</ele><time>2026-04-10T16:32:10Z</time></trkpt><trkpt lat="45.063011975765555" lon="7.85029717408228"><ele>363.3333333333333</ele><time>2026-04-10T16:32:13Z</time></trkpt><trkpt lat="45.0629577747035" lon="7.85035324703643"><ele>363.5</ele><time>2026-04-10T16:32:16Z</time></trkpt><trkpt lat="45.0628816732129" lon="7.850410589812886"><ele>363.66666666666663</ele><time>2026-04-10T16:32:20Z</time></trkpt><trkpt lat="45.062802518776586" lon="7.850497933583086"><ele>363.8333333333333</ele><time>2026-04-10T16:32:23Z</time></trkpt><trkpt lat="45.06274468770815" lon="7.8505717650302556"><ele>364.0</ele><time>2026-04-10T16:32:25Z</time></trkpt><trkpt lat="45.06266923810513" lon="7.850647446601309"><ele>364.0</ele><time>2026-04-10T16:32:27Z</time></trkpt><trkpt lat="45.06260293410111" lon="7.850761678991658"><ele>364.0</ele><time>2026-04-10T16:32:29Z</time></trkpt><trkpt lat="45.062531393120345" lon="7.850876367850665"><ele>364.0</ele><time>2026-04-10T16:32:31Z</time></trkpt><trkpt lat="45.06245908285821" lon="7.85096902754112"><ele>364.0</ele><time>2026-04-10T16:32:33Z</time></trkpt><trkpt lat="45.062404792831934" lon="7.85109141541912"><ele>364.0</ele><time>2026-04-10T16:32:35Z</time></trkpt><trkpt lat="45.062337647091766" lon="7.8511834775334455"><ele>363.79999999999995</ele><time>2026-04-10T16:32:37Z</time></trkpt><trkpt lat="45.06227910176013" lon="7.851266875357429"><ele>363.59999999999997</ele><time>2026-04-10T16:32:39Z</time></trkpt><trkpt lat="45.06221080717734" lon="7.8513477976226325"><ele>363.4</ele><time>2026-04-10T16:32:41Z</time></trkpt><trkpt lat="45.06213912098891" lon="7.851416907269118"><ele>363.2</ele><time>2026-04-10T16:32:43Z</time></trkpt><trkpt lat="45.06206194219857" lon="7.851493588725338"><ele>363.0</ele><time>2026-04-10T16:32:45Z</time></trkpt><trkpt lat="45.06197651438115" lon="7.851578490720054"><ele>363.0</ele><time>2026-04-10T16:32:47Z</time></trkpt><trkpt lat="45.061897975334695" lon="7.851685985584126"><ele>363.0</ele><time>2026-04-10T16:32:49Z</time></trkpt><trkpt lat="45.06180303015251" lon="7.851744625497536"><ele>363.0</ele><time>2026-04-10T16:32:51Z</time></trkpt><trkpt lat="45.061762422246346" lon="7.851815996594331"><ele>363.0</ele><time>2026-04-10T16:32:52Z</time></trkpt><trkpt lat="45.06166459715622" lon="7.8519267810711435"><ele>363.0</ele><time>2026-04-10T16:32:53.999Z</time></trkpt><trkpt lat="45.06161428687439" lon="7.851989990983943"><ele>361.71428571428567</ele><time>2026-04-10T16:32:54.999Z</time></trkpt><trkpt lat="45.061563456619076" lon="7.8520562168458925"><ele>360.42857142857144</ele><time>2026-04-10T16:32:55.999Z</time></trkpt><trkpt lat="45.06150667514" lon="7.852122314951355"><ele>359.1428571428571</ele><time>2026-04-10T16:32:56.999Z</time></trkpt><trkpt lat="45.061464322698264" lon="7.852204547983049"><ele>357.85714285714283</ele><time>2026-04-10T16:32:57.999Z</time></trkpt><trkpt lat="45.06141713135949" lon="7.852286307912857"><ele>356.57142857142856</ele><time>2026-04-10T16:32:58.999Z</time></trkpt><trkpt lat="45.06136433492968" lon="7.852361015810616"><ele>355.2857142857143</ele><time>2026-04-10T16:32:59.999Z</time></trkpt><trkpt lat="45.06131075725329" lon="7.852432394203289"><ele>354.0</ele><time>2026-04-10T16:33:00.999Z</time></trkpt><trkpt lat="45.0612536186927" lon="7.85249978176008"><ele>354.0</ele><time>2026-04-10T16:33:01.999Z</time></trkpt><trkpt lat="45.06118826643412" lon="7.85254469863695"><ele>354.0</ele><time>2026-04-10T16:33:02.999Z</time></trkpt><trkpt lat="45.06112853345463" lon="7.852607583958704"><ele>354.0</ele><time>2026-04-10T16:33:03.999Z</time></trkpt><trkpt lat="45.0610683505157" lon="7.8526709429940915"><ele>354.0</ele><time>2026-04-10T16:33:04.999Z</time></trkpt><trkpt lat="45.061005845786845" lon="7.85273674634157"><ele>354.0</ele><time>2026-04-10T16:33:05.999Z</time></trkpt><trkpt lat="45.0609423765624" lon="7.852804096651996"><ele>354.0</ele><time>2026-04-10T16:33:06.999Z</time></trkpt><trkpt lat="45.060879577261595" lon="7.852870938416026"><ele>353.3333333333333</ele><time>2026-04-10T16:33:07.999Z</time></trkpt><trkpt lat="45.060816646748016" lon="7.852938952714275"><ele>352.6666666666667</ele><time>2026-04-10T16:33:08.999Z</time></trkpt><trkpt lat="45.06075641134938" lon="7.853004709342982"><ele>352.0</ele><time>2026-04-10T16:33:09.999Z</time></trkpt><trkpt lat="45.06069649147821" lon="7.853070121546807"><ele>351.33333333333337</ele><time>2026-04-10T16:33:10.999Z</time></trkpt><trkpt lat="45.06063637529864" lon="7.853135748040803"><ele>350.6666666666667</ele><time>2026-04-10T16:33:11.999Z</time></trkpt><trkpt lat="45.06057680383893" lon="7.853200779896052"><ele>350.0</ele><time>2026-04-10T16:33:12.999Z</time></trkpt><trkpt lat="45.060517666675416" lon="7.853264506814927"><ele>349.8</ele><time>2026-04-10T16:33:13.999Z</time></trkpt><trkpt lat="45.06046253887924" lon="7.853323364658123"><ele>349.6</ele><time>2026-04-10T16:33:14.999Z</time></trkpt><trkpt lat="45.060410194465945" lon="7.853377193669058"><ele>349.4</ele><time>2026-04-10T16:33:15.999Z</time></trkpt><trkpt lat="45.06031223544213" lon="7.853476961309642"><ele>349.2</ele><time>2026-04-10T16:33:17.999Z</time></trkpt><trkpt lat="45.06023849404145" lon="7.8535689398788335"><ele>349.0</ele><time>2026-04-10T16:33:19.999Z</time></trkpt><trkpt lat="45.06012311888542" lon="7.853602170735896"><ele>348.8333333333333</ele><time>2026-04-10T16:33:21.999Z</time></trkpt><trkpt lat="45.060002198751874" lon="7.853656524269261"><ele>348.66666666666663</ele><time>2026-04-10T16:33:23.999Z</time></trkpt><trkpt lat="45.059935132088576" lon="7.853679163609673"><ele>348.5</ele><time>2026-04-10T16:33:24.999Z</time></trkpt><trkpt lat="45.05987309595989" lon="7.853702695058528"><ele>348.3333333333333</ele><time>2026-04-10T16:33:25.999Z</time></trkpt><trkpt lat="45.059804860151516" lon="7.853723390188972"><ele>348.1666666666667</ele><time>2026-04-10T16:33:26.999Z</time></trkpt><trkpt lat="45.05973406634206" lon="7.853752127449349"><ele>348.0</ele><time>2026-04-10T16:33:27.999Z</time></trkpt><trkpt lat="45.059666055099875" lon="7.8537808814694605"><ele>348.0</ele><time>2026-04-10T16:33:28.999Z</time></trkpt><trkpt lat="45.05959656537367" lon="7.853808112778726"><ele>348.0</ele><time>2026-04-10T16:33:29.999Z</time></trkpt><trkpt lat="45.05952840844572" lon="7.853838388163664"><ele>348.0</ele><time>2026-04-10T16:33:30.999Z</time></trkpt><trkpt lat="45.059459782327984" lon="7.853875232285839"><ele>348.0</ele><time>2026-04-10T16:33:31.999Z</time></trkpt><trkpt lat="45.0593936609712" lon="7.8539133000210875"><ele>348.0</ele><time>2026-04-10T16:33:32.999Z</time></trkpt><trkpt lat="45.05930026465064" lon="7.853894944312252"><ele>348.0</ele><time>2026-04-10T16:33:33.999Z</time></trkpt><trkpt lat="45.05924602350035" lon="7.853943836779872"><ele>348.0</ele><time>2026-04-10T16:33:34.999Z</time></trkpt><trkpt lat="45.05918524931211" lon="7.853996239937391"><ele>348.0</ele><time>2026-04-10T16:33:35.999Z</time></trkpt><trkpt lat="45.05912982090442" lon="7.854044033550245"><ele>348.0</ele><time>2026-04-10T16:33:36.999Z</time></trkpt><trkpt lat="45.05902935785604" lon="7.854135779179857"><ele>348.0</ele><time>2026-04-10T16:33:38.999Z</time></trkpt><trkpt lat="45.05893780650432" lon="7.854228342665862"><ele>348.0</ele><time>2026-04-10T16:33:40.999Z</time></trkpt><trkpt lat="45.05885734020244" lon="7.854312970772369"><ele>348.0</ele><time>2026-04-10T16:33:42.999Z</time></trkpt><trkpt lat="45.05877241895336" lon="7.8544081656699785"><ele>346.0</ele><time>2026-04-10T16:33:44.999Z</time></trkpt><trkpt lat="45.05869414274287" lon="7.854503641647101"><ele>344.0</ele><time>2026-04-10T16:33:46.999Z</time></trkpt><trkpt lat="45.05862332603482" lon="7.854615618693244"><ele>342.0</ele><time>2026-04-10T16:33:48.999Z</time></trkpt><trkpt lat="45.058561165127976" lon="7.854748133573053"><ele>340.0</ele><time>2026-04-10T16:33:50.999Z</time></trkpt><trkpt lat="45.05851438620144" lon="7.85489424462373"><ele>338.0</ele><time>2026-04-10T16:33:52.999Z</time></trkpt><trkpt lat="45.058472943962975" lon="7.855045185856532"><ele>338.5</ele><time>2026-04-10T16:33:54.999Z</time></trkpt><trkpt lat="45.05843760565418" lon="7.855203171050525"><ele>339.0</ele><time>2026-04-10T16:33:56.999Z</time></trkpt><trkpt lat="45.058419533046326" lon="7.855372583656258"><ele>339.5</ele><time>2026-04-10T16:33:58.999Z</time></trkpt><trkpt lat="45.05837495075523" lon="7.855523614862001"><ele>340.0</ele><time>2026-04-10T16:34:00.999Z</time></trkpt><trkpt lat="45.0583368361552" lon="7.85566632218977"><ele>338.4</ele><time>2026-04-10T16:34:03Z</time></trkpt><trkpt lat="45.05827091857611" lon="7.8557823304960595"><ele>336.8</ele><time>2026-04-10T16:34:05Z</time></trkpt><trkpt lat="45.05818547106275" lon="7.855874560325932"><ele>335.20000000000005</ele><time>2026-04-10T16:34:07Z</time></trkpt><trkpt lat="45.058087412244674" lon="7.855958923086403"><ele>333.6</ele><time>2026-04-10T16:34:09Z</time></trkpt><trkpt lat="45.057983693589705" lon="7.856029783344351"><ele>332.0</ele><time>2026-04-10T16:34:11Z</time></trkpt><trkpt lat="45.05792534642425" lon="7.856063467900273"><ele>332.0</ele><time>2026-04-10T16:34:12Z</time></trkpt><trkpt lat="45.057813989664325" lon="7.856126150897554"><ele>332.0</ele><time>2026-04-10T16:34:14Z</time></trkpt><trkpt lat="45.0577543806103" lon="7.856159227308098"><ele>332.0</ele><time>2026-04-10T16:34:15Z</time></trkpt><trkpt lat="45.05763976409486" lon="7.856221963094627"><ele>332.0</ele><time>2026-04-10T16:34:17Z</time></trkpt><trkpt lat="45.05757899120437" lon="7.856255122069534"><ele>332.0</ele><time>2026-04-10T16:34:18Z</time></trkpt><trkpt lat="45.057519278398146" lon="7.8562877026301665"><ele>332.0</ele><time>2026-04-10T16:34:19Z</time></trkpt><trkpt lat="45.05740103686271" lon="7.85635500572849"><ele>332.20000000000005</ele><time>2026-04-10T16:34:21Z</time></trkpt><trkpt lat="45.05728412642454" lon="7.856424552883743"><ele>332.4</ele><time>2026-04-10T16:34:23Z</time></trkpt><trkpt lat="45.05717750953021" lon="7.856488335648293"><ele>332.6</ele><time>2026-04-10T16:34:25Z</time></trkpt><trkpt lat="45.05711860539062" lon="7.856522931197424"><ele>332.79999999999995</ele><time>2026-04-10T16:34:26Z</time></trkpt><trkpt lat="45.05700549895357" lon="7.856589360981819"><ele>333.0</ele><time>2026-04-10T16:34:28Z</time></trkpt><trkpt lat="45.056904638320326" lon="7.856651165400743"><ele>333.0</ele><time>2026-04-10T16:34:30Z</time></trkpt><trkpt lat="45.05681650959551" lon="7.856730438052709"><ele>333.0</ele><time>2026-04-10T16:34:32Z</time></trkpt><trkpt lat="45.05671648595661" lon="7.856767507986544"><ele>333.0</ele><time>2026-04-10T16:34:34Z</time></trkpt><trkpt lat="45.05662950864902" lon="7.856821790665633"><ele>333.0</ele><time>2026-04-10T16:34:36Z</time></trkpt><trkpt lat="45.056550130551905" lon="7.856877226825114"><ele>333.0</ele><time>2026-04-10T16:34:38Z</time></trkpt><trkpt lat="45.05646815082517" lon="7.856944048786281"><ele>333.0</ele><time>2026-04-10T16:34:40Z</time></trkpt><trkpt lat="45.05638599306155" lon="7.85702636217952"><ele>333.0</ele><time>2026-04-10T16:34:42Z</time></trkpt><trkpt lat="45.05631821393839" lon="7.857140328017844"><ele>333.0</ele><time>2026-04-10T16:34:44Z</time></trkpt><trkpt lat="45.056235337154156" lon="7.8572130727766405"><ele>333.0</ele><time>2026-04-10T16:34:46Z</time></trkpt><trkpt lat="45.05616578001419" lon="7.8572981550914065"><ele>333.0</ele><time>2026-04-10T16:34:48Z</time></trkpt><trkpt lat="45.056091599217616" lon="7.8573781727492165"><ele>333.0</ele><time>2026-04-10T16:34:50Z</time></trkpt><trkpt lat="45.05600598947339" lon="7.857445551352623"><ele>333.0</ele><time>2026-04-10T16:34:52Z</time></trkpt><trkpt lat="45.055908540274004" lon="7.85751026933702"><ele>333.0</ele><time>2026-04-10T16:34:54Z</time></trkpt><trkpt lat="45.05581304793974" lon="7.857574302428086"><ele>333.0</ele><time>2026-04-10T16:34:56Z</time></trkpt><trkpt lat="45.055715719589145" lon="7.857640531092985"><ele>333.0</ele><time>2026-04-10T16:34:57.999Z</time></trkpt><trkpt lat="45.0556223531212" lon="7.857706213996172"><ele>334.1666666666667</ele><time>2026-04-10T16:34:59.999Z</time></trkpt><trkpt lat="45.05553458926577" lon="7.8577712903815975"><ele>335.3333333333333</ele><time>2026-04-10T16:35:01.999Z</time></trkpt><trkpt lat="45.05545067850689" lon="7.857836156222128"><ele>336.5</ele><time>2026-04-10T16:35:03.999Z</time></trkpt><trkpt lat="45.05537796987216" lon="7.857920732962045"><ele>337.66666666666663</ele><time>2026-04-10T16:35:05.999Z</time></trkpt><trkpt lat="45.055293579492144" lon="7.857961196103448"><ele>338.8333333333333</ele><time>2026-04-10T16:35:07.999Z</time></trkpt><trkpt lat="45.05522509949863" lon="7.857985329434952"><ele>340.0</ele><time>2026-04-10T16:35:09.999Z</time></trkpt><trkpt lat="45.05515846249942" lon="7.8579940421689045"><ele>340.0</ele><time>2026-04-10T16:35:11.999Z</time></trkpt><trkpt lat="45.055064494656904" lon="7.857989291692048"><ele>340.0</ele><time>2026-04-10T16:35:14.999Z</time></trkpt><trkpt lat="45.054995894158424" lon="7.857981280201313"><ele>340.0</ele><time>2026-04-10T16:35:17.999Z</time></trkpt><trkpt lat="45.05492311846705" lon="7.857974802691292"><ele>340.0</ele><time>2026-04-10T16:35:20.999Z</time></trkpt><trkpt lat="45.05484272383648" lon="7.857971649469539"><ele>340.0</ele><time>2026-04-10T16:35:23.999Z</time></trkpt><trkpt lat="45.0547605430892" lon="7.857990910555696"><ele>340.0</ele><time>2026-04-10T16:35:26.999Z</time></trkpt><trkpt lat="45.05468542719541" lon="7.857973875740224"><ele>340.7142857142857</ele><time>2026-04-10T16:35:29.999Z</time></trkpt><trkpt lat="45.05462600051959" lon="7.85803797887144"><ele>341.4285714285714</ele><time>2026-04-10T16:35:32.999Z</time></trkpt><trkpt lat="45.054570397626996" lon="7.8580980725964364"><ele>342.1428571428571</ele><time>2026-04-10T16:35:35.999Z</time></trkpt><trkpt lat="45.05454341166935" lon="7.858202734894011"><ele>342.8571428571429</ele><time>2026-04-10T16:35:38.999Z</time></trkpt><trkpt lat="45.0545364170991" lon="7.858297242744938"><ele>343.57142857142856</ele><time>2026-04-10T16:35:42.999Z</time></trkpt><trkpt lat="45.05452775365296" lon="7.858393288070523"><ele>344.2857142857143</ele><time>2026-04-10T16:35:45.999Z</time></trkpt><trkpt lat="45.05451309197879" lon="7.858511714449252"><ele>345.0</ele><time>2026-04-10T16:35:49.999Z</time></trkpt><trkpt lat="45.054492535686975" lon="7.858596350983396"><ele>345.0</ele><time>2026-04-10T16:35:52.999Z</time></trkpt><trkpt lat="45.0544602607575" lon="7.858674533221606"><ele>345.0</ele><time>2026-04-10T16:35:55.999Z</time></trkpt><trkpt lat="45.05441622123548" lon="7.858739032199174"><ele>345.0</ele><time>2026-04-10T16:35:58.999Z</time></trkpt><trkpt lat="45.05435358934712" lon="7.858783628402774"><ele>345.0</ele><time>2026-04-10T16:36:01.999Z</time></trkpt><trkpt lat="45.05428789569194" lon="7.85880907900699"><ele>345.0</ele><time>2026-04-10T16:36:04.999Z</time></trkpt><trkpt lat="45.054221365957126" lon="7.858820849205636"><ele>345.0</ele><time>2026-04-10T16:36:08Z</time></trkpt><trkpt lat="45.05415542974378" lon="7.858843144127468"><ele>345.0</ele><time>2026-04-10T16:36:11Z</time></trkpt><trkpt lat="45.05409109863967" lon="7.858867908183765"><ele>346.3333333333333</ele><time>2026-04-10T16:36:14Z</time></trkpt><trkpt lat="45.05402471433421" lon="7.858892432549062"><ele>347.6666666666667</ele><time>2026-04-10T16:36:17Z</time></trkpt><trkpt lat="45.053960960704444" lon="7.85891728506445"><ele>349.0</ele><time>2026-04-10T16:36:21Z</time></trkpt><trkpt lat="45.05389759982085" lon="7.858946542266888"><ele>350.33333333333337</ele><time>2026-04-10T16:36:24Z</time></trkpt><trkpt lat="45.053824104600416" lon="7.858995817669245"><ele>351.6666666666667</ele><time>2026-04-10T16:36:28Z</time></trkpt><trkpt lat="45.05372635312774" lon="7.8590835301343285"><ele>353.0</ele><time>2026-04-10T16:36:31Z</time></trkpt><trkpt lat="45.05365086572237" lon="7.85913963705319"><ele>353.0</ele><time>2026-04-10T16:36:33Z</time></trkpt><trkpt lat="45.05357507782004" lon="7.859210452235005"><ele>353.0</ele><time>2026-04-10T16:36:35Z</time></trkpt><trkpt lat="45.053493110274935" lon="7.859287036131996"><ele>353.0</ele><time>2026-04-10T16:36:37Z</time></trkpt><trkpt lat="45.05341214783106" lon="7.859363682748915"><ele>353.0</ele><time>2026-04-10T16:36:39Z</time></trkpt><trkpt lat="45.05334930660695" lon="7.859435020263015"><ele>353.0</ele><time>2026-04-10T16:36:41Z</time></trkpt><trkpt lat="45.053285578651305" lon="7.859507362375392"><ele>353.0</ele><time>2026-04-10T16:36:43Z</time></trkpt><trkpt lat="45.05321602307182" lon="7.859591280725227"><ele>353.0</ele><time>2026-04-10T16:36:45Z</time></trkpt><trkpt lat="45.053147298909096" lon="7.859669795202995"><ele>353.0</ele><time>2026-04-10T16:36:47Z</time></trkpt><trkpt lat="45.05307189898633" lon="7.859722519968576"><ele>353.0</ele><time>2026-04-10T16:36:49Z</time></trkpt><trkpt lat="45.05299283376337" lon="7.859712272215842"><ele>353.0</ele><time>2026-04-10T16:36:51Z</time></trkpt><trkpt lat="45.0529023301535" lon="7.859670634507658"><ele>353.0</ele><time>2026-04-10T16:36:54Z</time></trkpt><trkpt lat="45.052827407422186" lon="7.859647611767026"><ele>353.0</ele><time>2026-04-10T16:36:57Z</time></trkpt><trkpt lat="45.0527547157045" lon="7.859651539007946"><ele>353.0</ele><time>2026-04-10T16:37:00Z</time></trkpt><trkpt lat="45.05268564970116" lon="7.859673536151038"><ele>353.0</ele><time>2026-04-10T16:37:03Z</time></trkpt><trkpt lat="45.05261041188861" lon="7.859713758324156"><ele>353.0</ele><time>2026-04-10T16:37:07Z</time></trkpt><trkpt lat="45.05254917978139" lon="7.85978833476633"><ele>353.0</ele><time>2026-04-10T16:37:10.999Z</time></trkpt><trkpt lat="45.0524799313391" lon="7.859900676880549"><ele>353.0</ele><time>2026-04-10T16:37:14.999Z</time></trkpt><trkpt lat="45.0524391356198" lon="7.859974971471158"><ele>353.0</ele><time>2026-04-10T16:37:16.999Z</time></trkpt><trkpt lat="45.052394403783914" lon="7.860070234775369"><ele>353.83333333333337</ele><time>2026-04-10T16:37:18.999Z</time></trkpt><trkpt lat="45.052350296149946" lon="7.860171989490525"><ele>354.6666666666667</ele><time>2026-04-10T16:37:20.999Z</time></trkpt><trkpt lat="45.052308130432515" lon="7.860285695968847"><ele>355.5</ele><time>2026-04-10T16:37:22.999Z</time></trkpt><trkpt lat="45.05226553581547" lon="7.860400416570808"><ele>356.3333333333333</ele><time>2026-04-10T16:37:24.999Z</time></trkpt><trkpt lat="45.0522324931113" lon="7.860513145131148"><ele>357.16666666666663</ele><time>2026-04-10T16:37:26.999Z</time></trkpt><trkpt lat="45.05220796598387" lon="7.860635436356569"><ele>358.0</ele><time>2026-04-10T16:37:28.999Z</time></trkpt><trkpt lat="45.05219531617713" lon="7.860782176642328"><ele>358.0</ele><time>2026-04-10T16:37:30.999Z</time></trkpt><trkpt lat="45.052180207334025" lon="7.860914155598018"><ele>358.0</ele><time>2026-04-10T16:37:32.999Z</time></trkpt><trkpt lat="45.052153452024676" lon="7.861082877205361"><ele>358.0</ele><time>2026-04-10T16:37:34.999Z</time></trkpt><trkpt lat="45.05209660196792" lon="7.861209659794229"><ele>358.0</ele><time>2026-04-10T16:37:36.999Z</time></trkpt><trkpt lat="45.05203995469705" lon="7.86129850353422"><ele>358.0</ele><time>2026-04-10T16:37:38.999Z</time></trkpt><trkpt lat="45.05198893991442" lon="7.861389016812916"><ele>357.5</ele><time>2026-04-10T16:37:40.999Z</time></trkpt><trkpt lat="45.05193659984624" lon="7.861474629203234"><ele>357.0</ele><time>2026-04-10T16:37:42.999Z</time></trkpt><trkpt lat="45.05188562165461" lon="7.861556638588848"><ele>356.5</ele><time>2026-04-10T16:37:44.999Z</time></trkpt><trkpt lat="45.051828837809325" lon="7.861640944584773"><ele>356.0</ele><time>2026-04-10T16:37:46.999Z</time></trkpt><trkpt lat="45.051754203988686" lon="7.86170387981865"><ele>355.5</ele><time>2026-04-10T16:37:48.999Z</time></trkpt><trkpt lat="45.05168833631147" lon="7.861707294506324"><ele>355.0</ele><time>2026-04-10T16:37:50.999Z</time></trkpt><trkpt lat="45.05162369284212" lon="7.861699453201983"><ele>353.6</ele><time>2026-04-10T16:37:53.999Z</time></trkpt><trkpt lat="45.051521879715665" lon="7.861705344546205"><ele>352.2</ele><time>2026-04-10T16:37:56.999Z</time></trkpt><trkpt lat="45.051417168263086" lon="7.861718753149749"><ele>350.79999999999995</ele><time>2026-04-10T16:37:58.999Z</time></trkpt><trkpt lat="45.05131150473531" lon="7.861716415251718"><ele>349.4</ele><time>2026-04-10T16:38:00.999Z</time></trkpt><trkpt lat="45.05120151545891" lon="7.861696849690821"><ele>348.0</ele><time>2026-04-10T16:38:02.999Z</time></trkpt><trkpt lat="45.05109988025326" lon="7.861667453411305"><ele>348.0</ele><time>2026-04-10T16:38:04.999Z</time></trkpt><trkpt lat="45.050989015862484" lon="7.861635769526711"><ele>348.0</ele><time>2026-04-10T16:38:06.999Z</time></trkpt><trkpt lat="45.0508820750364" lon="7.86159257678505"><ele>348.0</ele><time>2026-04-10T16:38:08.999Z</time></trkpt><trkpt lat="45.05077346315599" lon="7.861546838323657"><ele>348.0</ele><time>2026-04-10T16:38:10.999Z</time></trkpt><trkpt lat="45.050664251011966" lon="7.861489785903578"><ele>346.5</ele><time>2026-04-10T16:38:12.999Z</time></trkpt><trkpt lat="45.05055436857989" lon="7.861423372612712"><ele>345.0</ele><time>2026-04-10T16:38:15Z</time></trkpt><trkpt lat="45.05044879906438" lon="7.861337537773716"><ele>343.5</ele><time>2026-04-10T16:38:17Z</time></trkpt><trkpt lat="45.05034237900236" lon="7.861270219263046"><ele>342.0</ele><time>2026-04-10T16:38:19Z</time></trkpt><trkpt lat="45.05022221945445" lon="7.861227359787924"><ele>342.0</ele><time>2026-04-10T16:38:21Z</time></trkpt><trkpt lat="45.05009354271964" lon="7.861236430705548"><ele>342.0</ele><time>2026-04-10T16:38:23Z</time></trkpt><trkpt lat="45.049980508391926" lon="7.861300491968497"><ele>342.0</ele><time>2026-04-10T16:38:25Z</time></trkpt><trkpt lat="45.0499306132416" lon="7.861354952682916"><ele>342.0</ele><time>2026-04-10T16:38:26Z</time></trkpt><trkpt lat="45.04988111515993" lon="7.861412342939305"><ele>342.0</ele><time>2026-04-10T16:38:27Z</time></trkpt><trkpt lat="45.04982989289397" lon="7.861469419612818"><ele>342.0</ele><time>2026-04-10T16:38:28Z</time></trkpt><trkpt lat="45.04978040703399" lon="7.861528733131155"><ele>342.1666666666667</ele><time>2026-04-10T16:38:29Z</time></trkpt><trkpt lat="45.04972674549239" lon="7.861588249071371"><ele>342.3333333333333</ele><time>2026-04-10T16:38:30Z</time></trkpt><trkpt lat="45.04966990024916" lon="7.861635323854581"><ele>342.5</ele><time>2026-04-10T16:38:31Z</time></trkpt><trkpt lat="45.04960959236497" lon="7.861681092902333"><ele>342.66666666666663</ele><time>2026-04-10T16:38:32Z</time></trkpt><trkpt lat="45.04954926253117" lon="7.8617268649554175"><ele>342.8333333333333</ele><time>2026-04-10T16:38:33Z</time></trkpt><trkpt lat="45.04949304096543" lon="7.861767634608065"><ele>343.0</ele><time>2026-04-10T16:38:34Z</time></trkpt><trkpt lat="45.049389589015426" lon="7.861846689402268"><ele>342.2</ele><time>2026-04-10T16:38:36Z</time></trkpt><trkpt lat="45.04928817470656" lon="7.861933951455554"><ele>341.4</ele><time>2026-04-10T16:38:38Z</time></trkpt><trkpt lat="45.049199154757346" lon="7.8620084805808395"><ele>340.59999999999997</ele><time>2026-04-10T16:38:40Z</time></trkpt><trkpt lat="45.04912174316983" lon="7.8620820407630925"><ele>339.79999999999995</ele><time>2026-04-10T16:38:42Z</time></trkpt><trkpt lat="45.04905354188233" lon="7.862155864457508"><ele>339.0</ele><time>2026-04-10T16:38:44Z</time></trkpt><trkpt lat="45.048989936405405" lon="7.862213309069703"><ele>339.0</ele><time>2026-04-10T16:38:46Z</time></trkpt><trkpt lat="45.04893634859831" lon="7.862278525127918"><ele>339.0</ele><time>2026-04-10T16:38:48Z</time></trkpt><trkpt lat="45.04887295246022" lon="7.862359516921561"><ele>339.0</ele><time>2026-04-10T16:38:50Z</time></trkpt><trkpt lat="45.048786253019486" lon="7.862443639367529"><ele>339.0</ele><time>2026-04-10T16:38:52Z</time></trkpt><trkpt lat="45.04867037588917" lon="7.862509394915488"><ele>339.0</ele><time>2026-04-10T16:38:54Z</time></trkpt><trkpt lat="45.048606135493294" lon="7.862542885005871"><ele>339.0</ele><time>2026-04-10T16:38:55Z</time></trkpt><trkpt lat="45.04853833421876" lon="7.86257284623169"><ele>339.0</ele><time>2026-04-10T16:38:56Z</time></trkpt><trkpt lat="45.048420221594625" lon="7.862624584526254"><ele>339.0</ele><time>2026-04-10T16:38:58Z</time></trkpt><trkpt lat="45.04830261084111" lon="7.862678003872716"><ele>339.0</ele><time>2026-04-10T16:39:00Z</time></trkpt><trkpt lat="45.04824356839225" lon="7.862711057521133"><ele>339.0</ele><time>2026-04-10T16:39:01Z</time></trkpt><trkpt lat="45.04812409537005" lon="7.862765943661464"><ele>338.2857142857143</ele><time>2026-04-10T16:39:03Z</time></trkpt><trkpt lat="45.04806218931965" lon="7.862808504967988"><ele>337.5714285714286</ele><time>2026-04-10T16:39:04Z</time></trkpt><trkpt lat="45.04799811064469" lon="7.862849403133215"><ele>336.8571428571429</ele><time>2026-04-10T16:39:05Z</time></trkpt><trkpt lat="45.047937616752115" lon="7.86288321574927"><ele>336.1428571428571</ele><time>2026-04-10T16:39:06Z</time></trkpt><trkpt lat="45.047879986768194" lon="7.862925330111546"><ele>335.42857142857144</ele><time>2026-04-10T16:39:06.999Z</time></trkpt><trkpt lat="45.04781919860015" lon="7.86295873748624"><ele>334.7142857142857</ele><time>2026-04-10T16:39:07.999Z</time></trkpt><trkpt lat="45.04776190429475" lon="7.862996299272298"><ele>334.0</ele><time>2026-04-10T16:39:08.999Z</time></trkpt><trkpt lat="45.047705174919955" lon="7.863038908808898"><ele>334.0</ele><time>2026-04-10T16:39:09.999Z</time></trkpt><trkpt lat="45.04764710110138" lon="7.863086002677798"><ele>334.0</ele><time>2026-04-10T16:39:10.999Z</time></trkpt><trkpt lat="45.04754948691998" lon="7.863181836620984"><ele>334.0</ele><time>2026-04-10T16:39:12.999Z</time></trkpt><trkpt lat="45.04748585653802" lon="7.863267981223122"><ele>334.0</ele><time>2026-04-10T16:39:14.999Z</time></trkpt><trkpt lat="45.04741800429539" lon="7.8633443562767775"><ele>334.0</ele><time>2026-04-10T16:39:16.999Z</time></trkpt><trkpt lat="45.04736324320865" lon="7.86343041460582"><ele>334.0</ele><time>2026-04-10T16:39:18.999Z</time></trkpt><trkpt lat="45.047309532007816" lon="7.863515422817367"><ele>334.3333333333333</ele><time>2026-04-10T16:39:20.999Z</time></trkpt><trkpt lat="45.047266765949786" lon="7.8636168425754"><ele>334.66666666666663</ele><time>2026-04-10T16:39:22.999Z</time></trkpt><trkpt lat="45.04723171738155" lon="7.863726014375649"><ele>335.0</ele><time>2026-04-10T16:39:24.999Z</time></trkpt><trkpt lat="45.04719907054536" lon="7.863833904995218"><ele>335.3333333333333</ele><time>2026-04-10T16:39:26.999Z</time></trkpt><trkpt lat="45.0471701670652" lon="7.863942236864318"><ele>335.6666666666667</ele><time>2026-04-10T16:39:28.999Z</time></trkpt><trkpt lat="45.04713257552451" lon="7.8640432584158555"><ele>336.0</ele><time>2026-04-10T16:39:30.999Z</time></trkpt><trkpt lat="45.047090573764166" lon="7.8641404319906565"><ele>336.0</ele><time>2026-04-10T16:39:32.999Z</time></trkpt><trkpt lat="45.04705636361206" lon="7.864232837763318"><ele>336.0</ele><time>2026-04-10T16:39:34.999Z</time></trkpt><trkpt lat="45.04702041285948" lon="7.864315048399018"><ele>336.0</ele><time>2026-04-10T16:39:36.999Z</time></trkpt><trkpt lat="45.04697901199624" lon="7.864384393585311"><ele>336.0</ele><time>2026-04-10T16:39:38.999Z</time></trkpt><trkpt lat="45.04693487518983" lon="7.86448172588211"><ele>336.0</ele><time>2026-04-10T16:39:42.999Z</time></trkpt><trkpt lat="45.04689021798223" lon="7.864567792214376"><ele>336.0</ele><time>2026-04-10T16:39:45.999Z</time></trkpt><trkpt lat="45.046841761970214" lon="7.8646480762931965"><ele>336.0</ele><time>2026-04-10T16:39:48.999Z</time></trkpt><trkpt lat="45.046796860421495" lon="7.864746580665581"><ele>336.5</ele><time>2026-04-10T16:39:51.999Z</time></trkpt><trkpt lat="45.04674574889021" lon="7.864826073903047"><ele>337.0</ele><time>2026-04-10T16:39:55.999Z</time></trkpt><trkpt lat="45.046701525163215" lon="7.864913914760647"><ele>337.5</ele><time>2026-04-10T16:39:59.999Z</time></trkpt><trkpt lat="45.046649858762116" lon="7.864999938106516"><ele>338.0</ele><time>2026-04-10T16:40:02.999Z</time></trkpt><trkpt lat="45.046558998169054" lon="7.865126348411618"><ele>338.5</ele><time>2026-04-10T16:40:05.999Z</time></trkpt><trkpt lat="45.04650295924665" lon="7.865205677042191"><ele>339.0</ele><time>2026-04-10T16:40:07.999Z</time></trkpt><trkpt lat="45.04644265096081" lon="7.865275682337352"><ele>339.79999999999995</ele><time>2026-04-10T16:40:09.999Z</time></trkpt><trkpt lat="45.04637789389781" lon="7.8653512035339626"><ele>340.59999999999997</ele><time>2026-04-10T16:40:11.999Z</time></trkpt><trkpt lat="45.04630080278754" lon="7.86541145763556"><ele>341.4</ele><time>2026-04-10T16:40:13.999Z</time></trkpt><trkpt lat="45.0461831209488" lon="7.86552008308186"><ele>342.2</ele><time>2026-04-10T16:40:14.999Z</time></trkpt><trkpt lat="45.04611963886081" lon="7.865638493330033"><ele>343.0</ele><time>2026-04-10T16:40:16.999Z</time></trkpt><trkpt lat="45.04605078232031" lon="7.865733268067992"><ele>343.0</ele><time>2026-04-10T16:40:18.999Z</time></trkpt><trkpt lat="45.04598849777033" lon="7.865824006838855"><ele>343.0</ele><time>2026-04-10T16:40:21Z</time></trkpt><trkpt lat="45.04591720563132" lon="7.865906409807647"><ele>343.0</ele><time>2026-04-10T16:40:23Z</time></trkpt><trkpt lat="45.04585737496971" lon="7.865982158269866"><ele>343.0</ele><time>2026-04-10T16:40:25Z</time></trkpt><trkpt lat="45.04579281449691" lon="7.866033294136986"><ele>343.0</ele><time>2026-04-10T16:40:27Z</time></trkpt><trkpt lat="45.045717268975935" lon="7.866078377864076"><ele>343.0</ele><time>2026-04-10T16:40:30Z</time></trkpt><trkpt lat="45.04564822231832" lon="7.8661078676194895"><ele>343.14285714285717</ele><time>2026-04-10T16:40:33Z</time></trkpt><trkpt lat="45.045583304440285" lon="7.866106521910441"><ele>343.2857142857143</ele><time>2026-04-10T16:40:36Z</time></trkpt><trkpt lat="45.04550471049208" lon="7.866104848689912"><ele>343.42857142857144</ele><time>2026-04-10T16:40:39Z</time></trkpt><trkpt lat="45.04543378741101" lon="7.866088172922544"><ele>343.57142857142856</ele><time>2026-04-10T16:40:42Z</time></trkpt><trkpt lat="45.04537273447103" lon="7.866063646921062"><ele>343.7142857142857</ele><time>2026-04-10T16:40:45Z</time></trkpt><trkpt lat="45.04530760932849" lon="7.866021725370177"><ele>343.8571428571429</ele><time>2026-04-10T16:40:48Z</time></trkpt><trkpt lat="45.04524621706774" lon="7.86596599216159"><ele>344.0</ele><time>2026-04-10T16:40:50Z</time></trkpt><trkpt lat="45.04516214640535" lon="7.865894887268854"><ele>344.0</ele><time>2026-04-10T16:40:52Z</time></trkpt><trkpt lat="45.045079776962226" lon="7.865818918322748"><ele>344.0</ele><time>2026-04-10T16:40:54Z</time></trkpt><trkpt lat="45.045001638831884" lon="7.865752959960348"><ele>344.0</ele><time>2026-04-10T16:40:56Z</time></trkpt><trkpt lat="45.04491135033854" lon="7.865730814160758"><ele>344.0</ele><time>2026-04-10T16:40:58Z</time></trkpt><trkpt lat="45.04478882041986" lon="7.8657782680662365"><ele>344.0</ele><time>2026-04-10T16:41:00Z</time></trkpt><trkpt lat="45.04471419170016" lon="7.865692780524615"><ele>342.0</ele><time>2026-04-10T16:41:01Z</time></trkpt><trkpt lat="45.0446390147274" lon="7.865662953317274"><ele>340.0</ele><time>2026-04-10T16:41:02Z</time></trkpt><trkpt lat="45.04455902730798" lon="7.865632087048137"><ele>338.0</ele><time>2026-04-10T16:41:03Z</time></trkpt><trkpt lat="45.04447968663396" lon="7.865599947549584"><ele>336.0</ele><time>2026-04-10T16:41:04Z</time></trkpt><trkpt lat="45.04440107169495" lon="7.865568102032063"><ele>334.0</ele><time>2026-04-10T16:41:05Z</time></trkpt><trkpt lat="45.04432138096457" lon="7.865535820729694"><ele>332.0</ele><time>2026-04-10T16:41:06Z</time></trkpt><trkpt lat="45.0442441127849" lon="7.865505148666626"><ele>332.0</ele><time>2026-04-10T16:41:07Z</time></trkpt><trkpt lat="45.04416434373945" lon="7.865479729488627"><ele>332.0</ele><time>2026-04-10T16:41:08Z</time></trkpt><trkpt lat="45.04407668398859" lon="7.86547294172277"><ele>332.0</ele><time>2026-04-10T16:41:09Z</time></trkpt><trkpt lat="45.04397619334636" lon="7.865516557332491"><ele>332.0</ele><time>2026-04-10T16:41:10Z</time></trkpt><trkpt lat="45.04388653327588" lon="7.865568228964517"><ele>332.0</ele><time>2026-04-10T16:41:11Z</time></trkpt><trkpt lat="45.0438014761132" lon="7.865661392960939"><ele>330.20000000000005</ele><time>2026-04-10T16:41:12Z</time></trkpt><trkpt lat="45.04372372402241" lon="7.865772447210379"><ele>328.4</ele><time>2026-04-10T16:41:13Z</time></trkpt><trkpt lat="45.04364692602082" lon="7.865874348931489"><ele>326.6</ele><time>2026-04-10T16:41:14Z</time></trkpt><trkpt lat="45.04356473582521" lon="7.865978530041539"><ele>324.79999999999995</ele><time>2026-04-10T16:41:15Z</time></trkpt><trkpt lat="45.043478739526016" lon="7.86607575054983"><ele>323.0</ele><time>2026-04-10T16:41:16Z</time></trkpt><trkpt lat="45.04338801907897" lon="7.8661674092458735"><ele>320.75</ele><time>2026-04-10T16:41:17Z</time></trkpt><trkpt lat="45.04329147386027" lon="7.866253582358834"><ele>318.5</ele><time>2026-04-10T16:41:18Z</time></trkpt><trkpt lat="45.043180002716504" lon="7.866320174634558"><ele>316.25</ele><time>2026-04-10T16:41:19Z</time></trkpt><trkpt lat="45.043065253801785" lon="7.866361922470941"><ele>314.0</ele><time>2026-04-10T16:41:20Z</time></trkpt><trkpt lat="45.0429560164963" lon="7.866404038809919"><ele>314.0</ele><time>2026-04-10T16:41:21Z</time></trkpt><trkpt lat="45.04284923451475" lon="7.866466519013745"><ele>314.0</ele><time>2026-04-10T16:41:22Z</time></trkpt><trkpt lat="45.04275139565134" lon="7.866503382388888"><ele>314.0</ele><time>2026-04-10T16:41:22.999Z</time></trkpt><trkpt lat="45.042662815263775" lon="7.866542505350517"><ele>314.0</ele><time>2026-04-10T16:41:23.999Z</time></trkpt><trkpt lat="45.04258002628945" lon="7.86657382666964"><ele>314.0</ele><time>2026-04-10T16:41:24.999Z</time></trkpt><trkpt lat="45.042492682892366" lon="7.8665430169085635"><ele>312.83333333333337</ele><time>2026-04-10T16:41:25.999Z</time></trkpt><trkpt lat="45.042446782761644" lon="7.866423023488253"><ele>311.6666666666667</ele><time>2026-04-10T16:41:26.999Z</time></trkpt><trkpt lat="45.042379489366795" lon="7.86634317467623"><ele>310.5</ele><time>2026-04-10T16:41:27.999Z</time></trkpt><trkpt lat="45.04231746732519" lon="7.866275476244698"><ele>309.3333333333333</ele><time>2026-04-10T16:41:28.999Z</time></trkpt><trkpt lat="45.042258618153795" lon="7.86621124107101"><ele>308.16666666666663</ele><time>2026-04-10T16:41:29.999Z</time></trkpt><trkpt lat="45.04219467728696" lon="7.866155164453906"><ele>307.0</ele><time>2026-04-10T16:41:30.999Z</time></trkpt><trkpt lat="45.042134974380964" lon="7.866099257685151"><ele>306.99999999999994</ele><time>2026-04-10T16:41:31.999Z</time></trkpt><trkpt lat="45.0420738377239" lon="7.866042008330127"><ele>307.0</ele><time>2026-04-10T16:41:32.999Z</time></trkpt><trkpt lat="45.04201306540274" lon="7.86598510014238"><ele>307.0</ele><time>2026-04-10T16:41:33.999Z</time></trkpt><trkpt lat="45.0419561301448" lon="7.8659272339743325"><ele>307.0</ele><time>2026-04-10T16:41:34.999Z</time></trkpt><trkpt lat="45.04189892773577" lon="7.865869938702892"><ele>307.0</ele><time>2026-04-10T16:41:35.999Z</time></trkpt><trkpt lat="45.04184004924387" lon="7.865815210195707"><ele>306.99999999999994</ele><time>2026-04-10T16:41:36.999Z</time></trkpt><trkpt lat="45.04177390594752" lon="7.865777357804729"><ele>307.0</ele><time>2026-04-10T16:41:37.999Z</time></trkpt><trkpt lat="45.04172031118768" lon="7.86572020417464"><ele>306.6</ele><time>2026-04-10T16:41:38.999Z</time></trkpt><trkpt lat="45.04159985714758" lon="7.865632103308878"><ele>306.2</ele><time>2026-04-10T16:41:40.999Z</time></trkpt><trkpt lat="45.04151770784844" lon="7.865608951980427"><ele>305.8</ele><time>2026-04-10T16:41:41.999Z</time></trkpt><trkpt lat="45.04143249529698" lon="7.865596508323813"><ele>305.4</ele><time>2026-04-10T16:41:42.999Z</time></trkpt><trkpt lat="45.04134360674068" lon="7.865597766308483"><ele>305.0</ele><time>2026-04-10T16:41:43.999Z</time></trkpt><trkpt lat="45.041258248605644" lon="7.865603182982713"><ele>305.0</ele><time>2026-04-10T16:41:44.999Z</time></trkpt><trkpt lat="45.04116903524922" lon="7.865610267385868"><ele>305.0</ele><time>2026-04-10T16:41:45.999Z</time></trkpt><trkpt lat="45.04108401193278" lon="7.865621697947275"><ele>305.0</ele><time>2026-04-10T16:41:46.999Z</time></trkpt><trkpt lat="45.04101099481186" lon="7.865629132533197"><ele>305.0</ele><time>2026-04-10T16:41:47.999Z</time></trkpt><trkpt lat="45.04094229396604" lon="7.865648558455296"><ele>305.0</ele><time>2026-04-10T16:41:48.999Z</time></trkpt><trkpt lat="45.04086491120842" lon="7.865641512710853"><ele>305.0</ele><time>2026-04-10T16:41:49.999Z</time></trkpt><trkpt lat="45.0407753615734" lon="7.86565691398001"><ele>303.6666666666667</ele><time>2026-04-10T16:41:51.999Z</time></trkpt><trkpt lat="45.04068443701607" lon="7.865675098898916"><ele>302.33333333333337</ele><time>2026-04-10T16:41:53.999Z</time></trkpt><trkpt lat="45.04062709132127" lon="7.8657437211111745"><ele>301.0</ele><time>2026-04-10T16:41:54.999Z</time></trkpt><trkpt lat="45.04057357109137" lon="7.865801353558709"><ele>299.6666666666667</ele><time>2026-04-10T16:41:55.999Z</time></trkpt><trkpt lat="45.04051567475869" lon="7.8658580721083675"><ele>298.3333333333333</ele><time>2026-04-10T16:41:56.999Z</time></trkpt><trkpt lat="45.04044811250242" lon="7.865918965928769"><ele>297.0</ele><time>2026-04-10T16:41:57.999Z</time></trkpt><trkpt lat="45.040378423666496" lon="7.865975455799971"><ele>297.0</ele><time>2026-04-10T16:41:58.999Z</time></trkpt><trkpt lat="45.04030562795127" lon="7.866033297762959"><ele>297.0</ele><time>2026-04-10T16:41:59.999Z</time></trkpt><trkpt lat="45.040232120051954" lon="7.866091705711325"><ele>297.0</ele><time>2026-04-10T16:42:00.999Z</time></trkpt><trkpt lat="45.040163860339234" lon="7.866145116136557"><ele>297.0</ele><time>2026-04-10T16:42:01.999Z</time></trkpt><trkpt lat="45.040094039655514" lon="7.86620047445713"><ele>297.0</ele><time>2026-04-10T16:42:02.999Z</time></trkpt><trkpt lat="45.04001441956127" lon="7.866267821999469"><ele>297.0</ele><time>2026-04-10T16:42:03.999Z</time></trkpt><trkpt lat="45.0399447455075" lon="7.866332285626209"><ele>296.5</ele><time>2026-04-10T16:42:04.999Z</time></trkpt><trkpt lat="45.03987536895356" lon="7.86639999172246"><ele>296.0</ele><time>2026-04-10T16:42:05.999Z</time></trkpt><trkpt lat="45.039812110312454" lon="7.866462986969488"><ele>295.5</ele><time>2026-04-10T16:42:06.999Z</time></trkpt><trkpt lat="45.039752109219485" lon="7.866521335671554"><ele>295.0</ele><time>2026-04-10T16:42:07.999Z</time></trkpt><trkpt lat="45.03970075407659" lon="7.866592918125779"><ele>294.5</ele><time>2026-04-10T16:42:08.999Z</time></trkpt><trkpt lat="45.03960224887052" lon="7.866673404972506"><ele>294.0</ele><time>2026-04-10T16:42:10.999Z</time></trkpt><trkpt lat="45.03951215151279" lon="7.8666412201133"><ele>294.0</ele><time>2026-04-10T16:42:12.999Z</time></trkpt><trkpt lat="45.03944193235634" lon="7.866585164231554"><ele>294.0</ele><time>2026-04-10T16:42:14.999Z</time></trkpt><trkpt lat="45.03937502178782" lon="7.866573675785057"><ele>294.0</ele><time>2026-04-10T16:42:16.999Z</time></trkpt><trkpt lat="45.03931263113283" lon="7.866614658408782"><ele>294.0</ele><time>2026-04-10T16:42:18.999Z</time></trkpt><trkpt lat="45.03923611809501" lon="7.866638332811106"><ele>294.0</ele><time>2026-04-10T16:42:21.999Z</time></trkpt><trkpt lat="45.03917277882285" lon="7.866642712470213"><ele>294.0</ele><time>2026-04-10T16:42:24.999Z</time></trkpt><trkpt lat="45.039108163017886" lon="7.8666393519834505"><ele>294.0</ele><time>2026-04-10T16:42:29Z</time></trkpt><trkpt lat="45.03906676767129" lon="7.866722897160906"><ele>294.85714285714283</ele><time>2026-04-10T16:46:11.999Z</time></trkpt><trkpt lat="45.03898615647382" lon="7.8667324061019395"><ele>295.7142857142857</ele><time>2026-04-10T16:46:15.999Z</time></trkpt><trkpt lat="45.03891935525097" lon="7.8667486737064385"><ele>296.57142857142856</ele><time>2026-04-10T16:46:18.999Z</time></trkpt><trkpt lat="45.03884919689634" lon="7.866767884428544"><ele>297.42857142857144</ele><time>2026-04-10T16:46:22.999Z</time></trkpt><trkpt lat="45.038778747742334" lon="7.8667889300532154"><ele>298.2857142857143</ele><time>2026-04-10T16:46:26.999Z</time></trkpt><trkpt lat="45.03870888958033" lon="7.866831156382734"><ele>299.1428571428571</ele><time>2026-04-10T16:46:31.999Z</time></trkpt><trkpt lat="45.03865201189056" lon="7.866873781853717"><ele>300.0</ele><time>2026-04-10T16:46:36.999Z</time></trkpt><trkpt lat="45.03859167973925" lon="7.866952488557252"><ele>300.4285714285714</ele><time>2026-04-10T16:46:42Z</time></trkpt><trkpt lat="45.03852513725602" lon="7.866934641628405"><ele>300.85714285714283</ele><time>2026-04-10T16:46:47Z</time></trkpt><trkpt lat="45.038464910324" lon="7.866880621968434"><ele>301.2857142857143</ele><time>2026-04-10T16:46:52Z</time></trkpt><trkpt lat="45.038402024417664" lon="7.8668381176512705"><ele>301.71428571428567</ele><time>2026-04-10T16:46:57Z</time></trkpt><trkpt lat="45.03834422084013" lon="7.866799543088954"><ele>302.1428571428571</ele><time>2026-04-10T16:47:01Z</time></trkpt><trkpt lat="45.03828274498435" lon="7.866773386223011"><ele>302.57142857142856</ele><time>2026-04-10T16:47:05Z</time></trkpt><trkpt lat="45.03820236592862" lon="7.866739344457074"><ele>303.0</ele><time>2026-04-10T16:47:09Z</time></trkpt><trkpt lat="45.03813249587831" lon="7.866740720930357"><ele>303.0</ele><time>2026-04-10T16:47:12Z</time></trkpt><trkpt lat="45.038050048495116" lon="7.866748157347841"><ele>303.0</ele><time>2026-04-10T16:47:16Z</time></trkpt><trkpt lat="45.037951382659394" lon="7.866733988155293"><ele>303.0</ele><time>2026-04-10T16:47:20Z</time></trkpt><trkpt lat="45.037879241000056" lon="7.866714076914827"><ele>303.0</ele><time>2026-04-10T16:47:22Z</time></trkpt><trkpt lat="45.03778775227486" lon="7.86667568389299"><ele>303.0</ele><time>2026-04-10T16:47:25Z</time></trkpt><trkpt lat="45.03771810735546" lon="7.866655413490666"><ele>303.0</ele><time>2026-04-10T16:47:27Z</time></trkpt><trkpt lat="45.03764336722881" lon="7.866653234146875"><ele>303.0</ele><time>2026-04-10T16:47:29Z</time></trkpt><trkpt lat="45.03756434621029" lon="7.866614885559665"><ele>303.0</ele><time>2026-04-10T16:47:31Z</time></trkpt><trkpt lat="45.03750124912977" lon="7.866636070986728"><ele>303.0</ele><time>2026-04-10T16:47:33Z</time></trkpt><trkpt lat="45.0374338303387" lon="7.8666517915086835"><ele>303.0</ele><time>2026-04-10T16:47:35Z</time></trkpt><trkpt lat="45.037361975240366" lon="7.86667341085102"><ele>303.0</ele><time>2026-04-10T16:47:36.999Z</time></trkpt><trkpt lat="45.03726493237093" lon="7.866663556999326"><ele>303.0</ele><time>2026-04-10T16:47:39.999Z</time></trkpt><trkpt lat="45.03719795015984" lon="7.866704730442485"><ele>300.3333333333333</ele><time>2026-04-10T16:47:41.999Z</time></trkpt><trkpt lat="45.03714462914933" lon="7.866808624648132"><ele>297.6666666666667</ele><time>2026-04-10T16:47:44.999Z</time></trkpt><trkpt lat="45.037130910880926" lon="7.866896070316077"><ele>295.0</ele><time>2026-04-10T16:47:46.999Z</time></trkpt><trkpt lat="45.037154583235754" lon="7.867005207257251"><ele>292.33333333333337</ele><time>2026-04-10T16:47:49.999Z</time></trkpt><trkpt lat="45.037185573219425" lon="7.86711195333437"><ele>289.6666666666667</ele><time>2026-04-10T16:47:52.999Z</time></trkpt><trkpt lat="45.0372204721935" lon="7.867217066857969"><ele>287.0</ele><time>2026-04-10T16:47:55.999Z</time></trkpt><trkpt lat="45.037254079292424" lon="7.8673393392861115"><ele>287.0</ele><time>2026-04-10T16:47:58.999Z</time></trkpt><trkpt lat="45.03728382046833" lon="7.867436395539992"><ele>287.0</ele><time>2026-04-10T16:48:00.999Z</time></trkpt><trkpt lat="45.037303340099676" lon="7.8675418366883045"><ele>287.0</ele><time>2026-04-10T16:48:02.999Z</time></trkpt><trkpt lat="45.03732638935873" lon="7.867642877700947"><ele>287.0</ele><time>2026-04-10T16:48:04.999Z</time></trkpt><trkpt lat="45.03734819124841" lon="7.867746820834933"><ele>287.0</ele><time>2026-04-10T16:48:06.999Z</time></trkpt><trkpt lat="45.03737504186271" lon="7.867848971715547"><ele>287.0</ele><time>2026-04-10T16:48:08.999Z</time></trkpt><trkpt lat="45.0374070197988" lon="7.867937617591226"><ele>286.33333333333337</ele><time>2026-04-10T16:48:10.999Z</time></trkpt><trkpt lat="45.03746811392092" lon="7.868006069220346"><ele>285.6666666666667</ele><time>2026-04-10T16:48:13.999Z</time></trkpt><trkpt lat="45.03752469841521" lon="7.8680586850431125"><ele>285.0</ele><time>2026-04-10T16:48:16.999Z</time></trkpt><trkpt lat="45.037611688742665" lon="7.868069491743387"><ele>284.3333333333333</ele><time>2026-04-10T16:48:19.999Z</time></trkpt><trkpt lat="45.03767245741336" lon="7.868039197293508"><ele>283.66666666666663</ele><time>2026-04-10T16:48:21.999Z</time></trkpt><trkpt lat="45.03759370094967" lon="7.868042635466874"><ele>283.0</ele><time>2026-04-10T16:48:29.999Z</time></trkpt><trkpt lat="45.037513599313556" lon="7.868055162184861"><ele>283.0</ele><time>2026-04-10T16:48:32.999Z</time></trkpt><trkpt lat="45.03743733192043" lon="7.868017025157339"><ele>283.0</ele><time>2026-04-10T16:48:35.999Z</time></trkpt><trkpt lat="45.03745831676171" lon="7.868190553381907"><ele>283.0</ele><time>2026-04-10T16:50:00.999Z</time></trkpt><trkpt lat="45.03751577788793" lon="7.868229994162231"><ele>283.0</ele><time>2026-04-10T16:50:08.999Z</time></trkpt><trkpt lat="45.03758918999968" lon="7.868218615901524"><ele>283.0</ele><time>2026-04-10T16:50:15.999Z</time></trkpt><trkpt lat="45.037528280158675" lon="7.868177846778586"><ele>283.0</ele><time>2026-04-10T16:50:36.999Z</time></trkpt><trkpt lat="45.03750877690383" lon="7.86826782125712"><ele>283.0</ele><time>2026-04-10T16:50:44.999Z</time></trkpt><trkpt lat="45.0374979587176" lon="7.868358906022587"><ele>283.0</ele><time>2026-04-10T16:50:55Z</time></trkpt><trkpt lat="45.03746942876946" lon="7.868444529320754"><ele>283.0</ele><time>2026-04-10T16:51:07Z</time></trkpt><trkpt lat="45.03742566743801" lon="7.868362385197963"><ele>283.0</ele><time>2026-04-10T16:51:17Z</time></trkpt><trkpt lat="45.03738125991231" lon="7.868290533939504"><ele>283.0</ele><time>2026-04-10T16:51:21Z</time></trkpt><trkpt lat="45.03737411920411" lon="7.868379623057922"><ele>283.0</ele><time>2026-04-10T16:51:24Z</time></trkpt><trkpt lat="45.037370436943554" lon="7.868480120891239"><ele>283.0</ele><time>2026-04-10T16:51:26Z</time></trkpt><trkpt lat="45.03736606245665" lon="7.868704634126227"><ele>282.6</ele><time>2026-04-10T16:51:28Z</time></trkpt><trkpt lat="45.03735915837163" lon="7.868819201072333"><ele>282.20000000000005</ele><time>2026-04-10T16:51:30Z</time></trkpt><trkpt lat="45.03734184925702" lon="7.8689330857050415"><ele>281.8</ele><time>2026-04-10T16:51:32Z</time></trkpt><trkpt lat="45.037324955113185" lon="7.869036618698228"><ele>281.40000000000003</ele><time>2026-04-10T16:51:34Z</time></trkpt><trkpt lat="45.037155501962985" lon="7.869194240886869"><ele>281.0</ele><time>2026-04-10T16:51:46.999Z</time></trkpt><trkpt lat="45.037072608474126" lon="7.869266375683498"><ele>281.00000000000006</ele><time>2026-04-10T16:51:49.999Z</time></trkpt><trkpt lat="45.03698335315913" lon="7.869367457465007"><ele>281.0</ele><time>2026-04-10T16:51:51.999Z</time></trkpt><trkpt lat="45.036932032423984" lon="7.869419625965877"><ele>281.0</ele><time>2026-04-10T16:51:52.999Z</time></trkpt><trkpt lat="45.03687784470765" lon="7.8694833035573035"><ele>281.0</ele><time>2026-04-10T16:51:53.999Z</time></trkpt><trkpt lat="45.03681597150592" lon="7.86950143573772"><ele>281.0</ele><time>2026-04-10T16:51:54.999Z</time></trkpt><trkpt lat="45.03675851987874" lon="7.869552668697759"><ele>281.00000000000006</ele><time>2026-04-10T16:51:55.999Z</time></trkpt><trkpt lat="45.036703997342336" lon="7.869603279096777"><ele>281.0</ele><time>2026-04-10T16:51:56.999Z</time></trkpt><trkpt lat="45.03660187551947" lon="7.8697035514480245"><ele>280.40000000000003</ele><time>2026-04-10T16:51:58.999Z</time></trkpt><trkpt lat="45.036551382316624" lon="7.869757410003179"><ele>279.8</ele><time>2026-04-10T16:51:59.999Z</time></trkpt><trkpt lat="45.03646085338299" lon="7.869881344896401"><ele>279.20000000000005</ele><time>2026-04-10T16:52:01.999Z</time></trkpt><trkpt lat="45.03639499059615" lon="7.869983420719935"><ele>278.6</ele><time>2026-04-10T16:52:03.999Z</time></trkpt><trkpt lat="45.036348441881316" lon="7.870060385520567"><ele>278.0</ele><time>2026-04-10T16:52:07.999Z</time></trkpt><trkpt lat="45.036383721425466" lon="7.870188430532775"><ele>279.1428571428571</ele><time>2026-04-10T16:52:10.999Z</time></trkpt><trkpt lat="45.03642512756231" lon="7.870263473760227"><ele>280.2857142857143</ele><time>2026-04-10T16:52:12.999Z</time></trkpt><trkpt lat="45.03644917598439" lon="7.870349236424463"><ele>281.42857142857144</ele><time>2026-04-10T16:52:14.999Z</time></trkpt><trkpt lat="45.036487672727425" lon="7.870420733810612"><ele>282.57142857142856</ele><time>2026-04-10T16:52:16.999Z</time></trkpt><trkpt lat="45.03652636010385" lon="7.870518275687213"><ele>283.7142857142857</ele><time>2026-04-10T16:52:19.999Z</time></trkpt><trkpt lat="45.03656294794931" lon="7.870643996903716"><ele>284.85714285714283</ele><time>2026-04-10T16:52:22.999Z</time></trkpt><trkpt lat="45.03658235789333" lon="7.870732856543962"><ele>286.0</ele><time>2026-04-10T16:52:24.999Z</time></trkpt><trkpt lat="45.03661356446702" lon="7.870853918592166"><ele>286.0</ele><time>2026-04-10T16:52:27.999Z</time></trkpt><trkpt lat="45.036642893172974" lon="7.8709756305946845"><ele>286.0</ele><time>2026-04-10T16:52:30.999Z</time></trkpt><trkpt lat="45.0366667896687" lon="7.871058401912982"><ele>286.0</ele><time>2026-04-10T16:52:32.999Z</time></trkpt><trkpt lat="45.03669071114381" lon="7.871143910263812"><ele>286.0</ele><time>2026-04-10T16:52:34.999Z</time></trkpt><trkpt lat="45.03672823417114" lon="7.871264017505968"><ele>286.0</ele><time>2026-04-10T16:52:37.999Z</time></trkpt><trkpt lat="45.03675595301455" lon="7.871352961198763"><ele>286.0</ele><time>2026-04-10T16:52:39.999Z</time></trkpt><trkpt lat="45.03678292053786" lon="7.871475877659726"><ele>285.99999999999994</ele><time>2026-04-10T16:52:42.999Z</time></trkpt><trkpt lat="45.036809474027976" lon="7.871573859034345"><ele>286.0</ele><time>2026-04-10T16:52:44.999Z</time></trkpt><trkpt lat="45.03682911065011" lon="7.871680648272114"><ele>286.0</ele><time>2026-04-10T16:52:46.999Z</time></trkpt><trkpt lat="45.03685618287535" lon="7.871764004890348"><ele>286.0</ele><time>2026-04-10T16:52:48.999Z</time></trkpt><trkpt lat="45.03687390208962" lon="7.8718622266498945"><ele>286.0</ele><time>2026-04-10T16:52:50.999Z</time></trkpt><trkpt lat="45.03689542729585" lon="7.87195259932438"><ele>285.99999999999994</ele><time>2026-04-10T16:52:52.999Z</time></trkpt><trkpt lat="45.036922268464" lon="7.872037476199183"><ele>286.0</ele><time>2026-04-10T16:52:54.999Z</time></trkpt><trkpt lat="45.03694219678227" lon="7.872129893967517"><ele>286.85714285714283</ele><time>2026-04-10T16:52:57Z</time></trkpt><trkpt lat="45.03696528389067" lon="7.8722150387310865"><ele>287.7142857142857</ele><time>2026-04-10T16:52:59Z</time></trkpt><trkpt lat="45.03698632868241" lon="7.872301988742232"><ele>288.57142857142856</ele><time>2026-04-10T16:53:01Z</time></trkpt><trkpt lat="45.03701487005131" lon="7.872395237345296"><ele>289.42857142857144</ele><time>2026-04-10T16:53:03Z</time></trkpt><trkpt lat="45.03703636448447" lon="7.872496550925013"><ele>290.2857142857143</ele><time>2026-04-10T16:53:05Z</time></trkpt><trkpt lat="45.03705694948682" lon="7.872592143130841"><ele>291.1428571428571</ele><time>2026-04-10T16:53:07Z</time></trkpt><trkpt lat="45.03708493767237" lon="7.872689215294822"><ele>292.0</ele><time>2026-04-10T16:53:09Z</time></trkpt><trkpt lat="45.037110414768165" lon="7.872783933594936"><ele>292.0</ele><time>2026-04-10T16:53:11Z</time></trkpt><trkpt lat="45.03712972654828" lon="7.872904917657564"><ele>292.0</ele><time>2026-04-10T16:53:14Z</time></trkpt><trkpt lat="45.037148124661044" lon="7.873004053788975"><ele>292.0</ele><time>2026-04-10T16:53:16Z</time></trkpt><trkpt lat="45.037159254620406" lon="7.8731135426210175"><ele>292.0</ele><time>2026-04-10T16:53:19Z</time></trkpt><trkpt lat="45.03714297081417" lon="7.8732385033492545"><ele>292.0</ele><time>2026-04-10T16:53:22Z</time></trkpt><trkpt lat="45.037137468276455" lon="7.873337978135354"><ele>292.0</ele><time>2026-04-10T16:53:24Z</time></trkpt><trkpt lat="45.037116898426945" lon="7.873446793430702"><ele>291.0</ele><time>2026-04-10T16:53:25Z</time></trkpt><trkpt lat="45.037094137752824" lon="7.873543673574676"><ele>290.0</ele><time>2026-04-10T16:53:26Z</time></trkpt><trkpt lat="45.03705528553423" lon="7.873667225801743"><ele>289.0</ele><time>2026-04-10T16:53:28Z</time></trkpt><trkpt lat="45.037092740129225" lon="7.873809820760624"><ele>288.0</ele><time>2026-04-10T16:53:30Z</time></trkpt><trkpt lat="45.0371801019666" lon="7.873783808518963"><ele>287.0</ele><time>2026-04-10T16:53:31Z</time></trkpt><trkpt lat="45.037269133466104" lon="7.873753197662911"><ele>287.0</ele><time>2026-04-10T16:53:33Z</time></trkpt><trkpt lat="45.03735238477436" lon="7.873781244773836"><ele>287.0</ele><time>2026-04-10T16:53:35Z</time></trkpt><trkpt lat="45.037439709595745" lon="7.873830336192642"><ele>287.0</ele><time>2026-04-10T16:53:37Z</time></trkpt><trkpt lat="45.03753325684146" lon="7.873881241692853"><ele>287.0</ele><time>2026-04-10T16:53:39Z</time></trkpt><trkpt lat="45.03763061583729" lon="7.8739269521348945"><ele>287.0</ele><time>2026-04-10T16:53:41Z</time></trkpt><trkpt lat="45.037728211280346" lon="7.8739797441940045"><ele>286.8</ele><time>2026-04-10T16:53:43Z</time></trkpt><trkpt lat="45.03782852613823" lon="7.874033506388964"><ele>286.6</ele><time>2026-04-10T16:53:45Z</time></trkpt><trkpt lat="45.037925208674636" lon="7.874092668073395"><ele>286.40000000000003</ele><time>2026-04-10T16:53:47Z</time></trkpt><trkpt lat="45.03802507594303" lon="7.874148356147023"><ele>286.2</ele><time>2026-04-10T16:53:49Z</time></trkpt><trkpt lat="45.03812747912039" lon="7.874202369575271"><ele>286.0</ele><time>2026-04-10T16:53:51Z</time></trkpt><trkpt lat="45.03822433984091" lon="7.874253487824488"><ele>285.40000000000003</ele><time>2026-04-10T16:53:52.999Z</time></trkpt><trkpt lat="45.03831656066938" lon="7.874303094305024"><ele>284.8</ele><time>2026-04-10T16:53:54.999Z</time></trkpt><trkpt lat="45.03840802780168" lon="7.874351729923121"><ele>284.20000000000005</ele><time>2026-04-10T16:53:56.999Z</time></trkpt><trkpt lat="45.03850190698745" lon="7.874399451501699"><ele>283.6</ele><time>2026-04-10T16:53:58.999Z</time></trkpt><trkpt lat="45.03860085458093" lon="7.874446887758486"><ele>283.0</ele><time>2026-04-10T16:54:00.999Z</time></trkpt><trkpt lat="45.03869515457473" lon="7.874511376897099"><ele>283.0</ele><time>2026-04-10T16:54:02.999Z</time></trkpt><trkpt lat="45.038795109371726" lon="7.874553748886062"><ele>283.0</ele><time>2026-04-10T16:54:04.999Z</time></trkpt><trkpt lat="45.038897896239746" lon="7.874605333456526"><ele>283.0</ele><time>2026-04-10T16:54:06.999Z</time></trkpt><trkpt lat="45.039003214928904" lon="7.87466556307883"><ele>283.0</ele><time>2026-04-10T16:54:08.999Z</time></trkpt><trkpt lat="45.03911201557672" lon="7.874719760254543"><ele>283.0</ele><time>2026-04-10T16:54:10.999Z</time></trkpt><trkpt lat="45.0392111239931" lon="7.874781120529417"><ele>283.0</ele><time>2026-04-10T16:54:12.999Z</time></trkpt><trkpt lat="45.039309625909794" lon="7.874828851448417"><ele>283.0</ele><time>2026-04-10T16:54:14.999Z</time></trkpt><trkpt lat="45.039415339244236" lon="7.874886621233667"><ele>283.0</ele><time>2026-04-10T16:54:16.999Z</time></trkpt><trkpt lat="45.03952022402661" lon="7.874935130398206"><ele>283.0</ele><time>2026-04-10T16:54:18.999Z</time></trkpt><trkpt lat="45.039625120725496" lon="7.874996270037784"><ele>283.0</ele><time>2026-04-10T16:54:20.999Z</time></trkpt><trkpt lat="45.03973324836505" lon="7.875056861883103"><ele>283.25</ele><time>2026-04-10T16:54:22.999Z</time></trkpt><trkpt lat="45.03984191221951" lon="7.875119025795135"><ele>283.5</ele><time>2026-04-10T16:54:24.999Z</time></trkpt><trkpt lat="45.0399509166339" lon="7.875179712356158"><ele>283.75</ele><time>2026-04-10T16:54:26.999Z</time></trkpt><trkpt lat="45.04005973644178" lon="7.875235358147489"><ele>284.0</ele><time>2026-04-10T16:54:28.999Z</time></trkpt><trkpt lat="45.04017110613335" lon="7.875292520038522"><ele>283.59999999999997</ele><time>2026-04-10T16:54:30.999Z</time></trkpt><trkpt lat="45.040276436614796" lon="7.875351260769593"><ele>283.2</ele><time>2026-04-10T16:54:32.999Z</time></trkpt><trkpt lat="45.04038422965975" lon="7.875407942293702"><ele>282.79999999999995</ele><time>2026-04-10T16:54:34.999Z</time></trkpt><trkpt lat="45.0404892399418" lon="7.875460088674828"><ele>282.4</ele><time>2026-04-10T16:54:36.999Z</time></trkpt><trkpt lat="45.040590718493426" lon="7.87551937604747"><ele>282.0</ele><time>2026-04-10T16:54:38.999Z</time></trkpt><trkpt lat="45.04069299593891" lon="7.87557078210817"><ele>282.0</ele><time>2026-04-10T16:54:40.999Z</time></trkpt><trkpt lat="45.04078398658181" lon="7.875619644073162"><ele>282.0</ele><time>2026-04-10T16:54:42.999Z</time></trkpt><trkpt lat="45.040872344406885" lon="7.875666660026848"><ele>282.0</ele><time>2026-04-10T16:54:44.999Z</time></trkpt><trkpt lat="45.04095035793591" lon="7.875705613314498"><ele>282.0</ele><time>2026-04-10T16:54:46.999Z</time></trkpt><trkpt lat="45.041023591312715" lon="7.875746374148784"><ele>282.0</ele><time>2026-04-10T16:54:48.999Z</time></trkpt><trkpt lat="45.04108907158099" lon="7.8757873723715575"><ele>282.0</ele><time>2026-04-10T16:54:50.999Z</time></trkpt><trkpt lat="45.04115449549444" lon="7.875815205943111"><ele>282.6666666666667</ele><time>2026-04-10T16:54:52.999Z</time></trkpt><trkpt lat="45.04121307301006" lon="7.8758494751210195"><ele>283.3333333333333</ele><time>2026-04-10T16:54:54.999Z</time></trkpt><trkpt lat="45.04130076596813" lon="7.875890194972468"><ele>284.0</ele><time>2026-04-10T16:54:57.999Z</time></trkpt><trkpt lat="45.041359037889706" lon="7.87592615182309"><ele>284.66666666666663</ele><time>2026-04-10T16:54:59.999Z</time></trkpt><trkpt lat="45.04144169735164" lon="7.875971217423102"><ele>285.3333333333333</ele><time>2026-04-10T16:55:03Z</time></trkpt><trkpt lat="45.04151736497331" lon="7.87601916831154"><ele>286.0</ele><time>2026-04-10T16:55:06Z</time></trkpt><trkpt lat="45.04158532542701" lon="7.87606126538719"><ele>287.99999999999994</ele><time>2026-04-10T16:55:09Z</time></trkpt><trkpt lat="45.0416506148545" lon="7.876112523556621"><ele>290.0</ele><time>2026-04-10T16:55:12Z</time></trkpt><trkpt lat="45.041714019688584" lon="7.87616953359939"><ele>292.0</ele><time>2026-04-10T16:55:15Z</time></trkpt><trkpt lat="45.04176870049385" lon="7.876230137729535"><ele>294.0</ele><time>2026-04-10T16:55:18Z</time></trkpt><trkpt lat="45.04182231701288" lon="7.876294018843338"><ele>296.0</ele><time>2026-04-10T16:55:21Z</time></trkpt><trkpt lat="45.04186673568607" lon="7.8763694989496855"><ele>297.99999999999994</ele><time>2026-04-10T16:55:24Z</time></trkpt><trkpt lat="45.041923425571674" lon="7.876457077095482"><ele>300.0</ele><time>2026-04-10T16:55:29Z</time></trkpt><trkpt lat="45.04196746905963" lon="7.87653056972099"><ele>300.0</ele><time>2026-04-10T16:55:32Z</time></trkpt><trkpt lat="45.04201674557025" lon="7.876612642867036"><ele>300.0</ele><time>2026-04-10T16:55:36Z</time></trkpt><trkpt lat="45.04207071081266" lon="7.876699732683895"><ele>300.0</ele><time>2026-04-10T16:55:41Z</time></trkpt><trkpt lat="45.042117284634855" lon="7.87677876448338"><ele>300.0</ele><time>2026-04-10T16:55:46Z</time></trkpt><trkpt lat="45.042161000745025" lon="7.8768549487204655"><ele>300.0</ele><time>2026-04-10T16:55:50Z</time></trkpt><trkpt lat="45.04220439257978" lon="7.87692609606114"><ele>300.0</ele><time>2026-04-10T16:55:54Z</time></trkpt><trkpt lat="45.04226144843796" lon="7.877012537014999"><ele>300.57142857142856</ele><time>2026-04-10T16:55:58.999Z</time></trkpt><trkpt lat="45.04231990704248" lon="7.8770997404714524"><ele>301.1428571428571</ele><time>2026-04-10T16:56:02.999Z</time></trkpt><trkpt lat="45.04235975995912" lon="7.877172033130764"><ele>301.71428571428567</ele><time>2026-04-10T16:56:05.999Z</time></trkpt><trkpt lat="45.042414162138066" lon="7.87723872945637"><ele>302.2857142857143</ele><time>2026-04-10T16:56:08.999Z</time></trkpt><trkpt lat="45.04246976997573" lon="7.877291608337001"><ele>302.8571428571429</ele><time>2026-04-10T16:56:12.999Z</time></trkpt><trkpt lat="45.04252996383922" lon="7.877331377440242"><ele>303.4285714285714</ele><time>2026-04-10T16:56:15.999Z</time></trkpt><trkpt lat="45.04259253351777" lon="7.877378837898484"><ele>304.0</ele><time>2026-04-10T16:56:19.999Z</time></trkpt><trkpt lat="45.04265351079105" lon="7.877421481960606"><ele>304.2857142857143</ele><time>2026-04-10T16:56:22.999Z</time></trkpt><trkpt lat="45.04271534943379" lon="7.87745087840759"><ele>304.5714285714286</ele><time>2026-04-10T16:56:26.999Z</time></trkpt><trkpt lat="45.042786541596804" lon="7.877468184253543"><ele>304.8571428571429</ele><time>2026-04-10T16:56:29.999Z</time></trkpt><trkpt lat="45.0428500435707" lon="7.877492714991399"><ele>305.1428571428571</ele><time>2026-04-10T16:56:33.999Z</time></trkpt><trkpt lat="45.04291221110446" lon="7.877508817876702"><ele>305.42857142857144</ele><time>2026-04-10T16:56:36.999Z</time></trkpt><trkpt lat="45.042981692129295" lon="7.8775203872723765"><ele>305.7142857142857</ele><time>2026-04-10T16:56:39.999Z</time></trkpt><trkpt lat="45.043065853266235" lon="7.8775478723782415"><ele>306.0</ele><time>2026-04-10T16:56:43.999Z</time></trkpt><trkpt lat="45.04314872217794" lon="7.877560020950761"><ele>306.0</ele><time>2026-04-10T16:56:47.999Z</time></trkpt><trkpt lat="45.043215315802456" lon="7.877567402196236"><ele>306.0</ele><time>2026-04-10T16:56:51.999Z</time></trkpt><trkpt lat="45.04327905175913" lon="7.877581636438895"><ele>306.0</ele><time>2026-04-10T16:56:54.999Z</time></trkpt><trkpt lat="45.04334483743535" lon="7.8775920852360155"><ele>306.0</ele><time>2026-04-10T16:56:57.999Z</time></trkpt><trkpt lat="45.04341592675159" lon="7.877596863946145"><ele>306.0</ele><time>2026-04-10T16:57:01.999Z</time></trkpt><trkpt lat="45.04348281753995" lon="7.877610717777187"><ele>306.0</ele><time>2026-04-10T16:57:04.999Z</time></trkpt><trkpt lat="45.04355051891339" lon="7.877621659191169"><ele>306.0</ele><time>2026-04-10T16:57:09Z</time></trkpt><trkpt lat="45.04363070026152" lon="7.877639575031484"><ele>307.6666666666667</ele><time>2026-04-10T16:57:13Z</time></trkpt><trkpt lat="45.043703548381046" lon="7.877650799528929"><ele>309.3333333333333</ele><time>2026-04-10T16:57:17Z</time></trkpt><trkpt lat="45.04377430133294" lon="7.877667892802456"><ele>311.0</ele><time>2026-04-10T16:57:21Z</time></trkpt><trkpt lat="45.04385713559713" lon="7.877675402892865"><ele>312.66666666666663</ele><time>2026-04-10T16:57:25Z</time></trkpt><trkpt lat="45.04393740562005" lon="7.8776967941051925"><ele>314.3333333333333</ele><time>2026-04-10T16:57:29Z</time></trkpt><trkpt lat="45.04402036946476" lon="7.877696005845639"><ele>316.0</ele><time>2026-04-10T16:57:34Z</time></trkpt><trkpt lat="45.04408835274108" lon="7.877715135789818"><ele>317.66666666666663</ele><time>2026-04-10T16:57:38Z</time></trkpt><trkpt lat="45.044156174076605" lon="7.87772536467793"><ele>319.3333333333333</ele><time>2026-04-10T16:57:41Z</time></trkpt><trkpt lat="45.04423415035676" lon="7.877739555579742"><ele>321.0</ele><time>2026-04-10T16:57:45Z</time></trkpt><trkpt lat="45.04430881904384" lon="7.877744700355479"><ele>322.6666666666667</ele><time>2026-04-10T16:57:49Z</time></trkpt><trkpt lat="45.044381684470224" lon="7.877767570510189"><ele>324.33333333333337</ele><time>2026-04-10T16:57:53Z</time></trkpt><trkpt lat="45.04445817762676" lon="7.87777855880363"><ele>326.0</ele><time>2026-04-10T16:57:57Z</time></trkpt><trkpt lat="45.04453371719428" lon="7.87779532251981"><ele>326.0</ele><time>2026-04-10T16:58:01Z</time></trkpt><trkpt lat="45.044604217359435" lon="7.877808605454884"><ele>326.0</ele><time>2026-04-10T16:58:04.999Z</time></trkpt><trkpt lat="45.04467545112792" lon="7.877823788804246"><ele>326.0</ele><time>2026-04-10T16:58:08.999Z</time></trkpt><trkpt lat="45.04475690537952" lon="7.877851342992651"><ele>326.0</ele><time>2026-04-10T16:58:13.999Z</time></trkpt><trkpt lat="45.04483099080021" lon="7.8778893240669285"><ele>326.0</ele><time>2026-04-10T16:58:18.999Z</time></trkpt><trkpt lat="45.04490052229937" lon="7.877926852535094"><ele>326.0</ele><time>2026-04-10T16:58:22.999Z</time></trkpt><trkpt lat="45.04496093466032" lon="7.87796629004936"><ele>326.0</ele><time>2026-04-10T16:58:26.999Z</time></trkpt><trkpt lat="45.04503549269137" lon="7.8780118275670805"><ele>327.33333333333337</ele><time>2026-04-10T16:58:30.999Z</time></trkpt><trkpt lat="45.0450958242399" lon="7.878053582720917"><ele>328.6666666666667</ele><time>2026-04-10T16:58:33.999Z</time></trkpt><trkpt lat="45.04516096315963" lon="7.878091525790578"><ele>330.0</ele><time>2026-04-10T16:58:37.999Z</time></trkpt><trkpt lat="45.04523499205999" lon="7.878141064194825"><ele>331.3333333333333</ele><time>2026-04-10T16:58:41.999Z</time></trkpt><trkpt lat="45.04530493017473" lon="7.878188119951359"><ele>332.66666666666663</ele><time>2026-04-10T16:58:45.999Z</time></trkpt><trkpt lat="45.04537600755688" lon="7.878239520191321"><ele>334.0</ele><time>2026-04-10T16:58:49.999Z</time></trkpt><trkpt lat="45.04544333722884" lon="7.878297213821368"><ele>334.0</ele><time>2026-04-10T16:58:53.999Z</time></trkpt><trkpt lat="45.04551643242608" lon="7.878349771108892"><ele>334.0</ele><time>2026-04-10T16:58:57.999Z</time></trkpt><trkpt lat="45.045588202101584" lon="7.8783954996092715"><ele>334.0</ele><time>2026-04-10T16:59:01.999Z</time></trkpt><trkpt lat="45.045646871555704" lon="7.878441320053271"><ele>334.0</ele><time>2026-04-10T16:59:04.999Z</time></trkpt><trkpt lat="45.04572159658906" lon="7.878484289109164"><ele>334.0</ele><time>2026-04-10T16:59:08.999Z</time></trkpt><trkpt lat="45.045793161216814" lon="7.878521659439668"><ele>334.0</ele><time>2026-04-10T16:59:12.999Z</time></trkpt><trkpt lat="45.0458662792695" lon="7.87854930502956"><ele>335.85714285714283</ele><time>2026-04-10T16:59:17Z</time></trkpt><trkpt lat="45.04593874493438" lon="7.8785719517221"><ele>337.7142857142857</ele><time>2026-04-10T16:59:20Z</time></trkpt><trkpt lat="45.04600906191086" lon="7.878603171475368"><ele>339.57142857142856</ele><time>2026-04-10T16:59:23Z</time></trkpt><trkpt lat="45.046076628342604" lon="7.878639577691228"><ele>341.42857142857144</ele><time>2026-04-10T16:59:26Z</time></trkpt><trkpt lat="45.046143645818795" lon="7.8786655103857495"><ele>343.2857142857143</ele><time>2026-04-10T16:59:29Z</time></trkpt><trkpt lat="45.04620890766042" lon="7.878681921670388"><ele>345.14285714285717</ele><time>2026-04-10T16:59:32Z</time></trkpt><trkpt lat="45.04628042187977" lon="7.878709395612545"><ele>347.0</ele><time>2026-04-10T16:59:36Z</time></trkpt><trkpt lat="45.04634461957977" lon="7.878722878879978"><ele>347.0</ele><time>2026-04-10T16:59:39Z</time></trkpt><trkpt lat="45.04641137598425" lon="7.878738721818785"><ele>347.0</ele><time>2026-04-10T16:59:42Z</time></trkpt><trkpt lat="45.04647812346457" lon="7.8787586660575295"><ele>347.0</ele><time>2026-04-10T16:59:45Z</time></trkpt><trkpt lat="45.04654531987024" lon="7.878767098834089"><ele>347.0</ele><time>2026-04-10T16:59:48Z</time></trkpt><trkpt lat="45.04662933438884" lon="7.878781055356971"><ele>347.0</ele><time>2026-04-10T16:59:51Z</time></trkpt><trkpt lat="45.04670388399193" lon="7.878803691846777"><ele>347.0</ele><time>2026-04-10T16:59:54Z</time></trkpt><trkpt lat="45.046766946337" lon="7.878854984165825"><ele>347.0</ele><time>2026-04-10T16:59:57Z</time></trkpt><trkpt lat="45.04683214087309" lon="7.878884251343715"><ele>346.83333333333337</ele><time>2026-04-10T17:00:00Z</time></trkpt><trkpt lat="45.04692222640709" lon="7.878885016656062"><ele>346.6666666666667</ele><time>2026-04-10T17:00:03Z</time></trkpt><trkpt lat="45.04702110611373" lon="7.8788776364554325"><ele>346.5</ele><time>2026-04-10T17:00:06Z</time></trkpt><trkpt lat="45.047087064887016" lon="7.878847806656257"><ele>346.3333333333333</ele><time>2026-04-10T17:00:08Z</time></trkpt><trkpt lat="45.047160434228786" lon="7.87883320397282"><ele>346.16666666666663</ele><time>2026-04-10T17:00:09.999Z</time></trkpt><trkpt lat="45.04723599885563" lon="7.87882392422734"><ele>346.0</ele><time>2026-04-10T17:00:11.999Z</time></trkpt><trkpt lat="45.0473215686388" lon="7.878820089078429"><ele>346.0</ele><time>2026-04-10T17:00:13.999Z</time></trkpt><trkpt lat="45.04741215942142" lon="7.878799167586943"><ele>346.0</ele><time>2026-04-10T17:00:15.999Z</time></trkpt><trkpt lat="45.04751212253095" lon="7.878789103313951"><ele>346.0</ele><time>2026-04-10T17:00:17.999Z</time></trkpt><trkpt lat="45.04761771344172" lon="7.878771494132987"><ele>346.0</ele><time>2026-04-10T17:00:19.999Z</time></trkpt><trkpt lat="45.04772258513339" lon="7.878757442164568"><ele>346.0</ele><time>2026-04-10T17:00:21.999Z</time></trkpt><trkpt lat="45.04783446701235" lon="7.8787432768136325"><ele>345.0</ele><time>2026-04-10T17:00:23.999Z</time></trkpt><trkpt lat="45.04794985334207" lon="7.878729287330395"><ele>344.0</ele><time>2026-04-10T17:00:25.999Z</time></trkpt><trkpt lat="45.04806258006994" lon="7.878704501712749"><ele>343.0</ele><time>2026-04-10T17:00:27.999Z</time></trkpt><trkpt lat="45.04817107067455" lon="7.878697411639649"><ele>342.0</ele><time>2026-04-10T17:00:29.999Z</time></trkpt><trkpt lat="45.048273812794626" lon="7.878681315295175"><ele>341.0</ele><time>2026-04-10T17:00:31.999Z</time></trkpt><trkpt lat="45.04837095428125" lon="7.878671029622563"><ele>340.4</ele><time>2026-04-10T17:00:33.999Z</time></trkpt><trkpt lat="45.04845977228311" lon="7.878681587797823"><ele>339.8</ele><time>2026-04-10T17:00:35.999Z</time></trkpt><trkpt lat="45.04854351024998" lon="7.878696133582417"><ele>339.2</ele><time>2026-04-10T17:00:37.999Z</time></trkpt><trkpt lat="45.04863523448451" lon="7.878722870175674"><ele>338.59999999999997</ele><time>2026-04-10T17:00:39.999Z</time></trkpt><trkpt lat="45.04874762416622" lon="7.878751860291421"><ele>338.0</ele><time>2026-04-10T17:00:41.999Z</time></trkpt><trkpt lat="45.04880090996983" lon="7.8789633152196785"><ele>338.0</ele><time>2026-04-10T17:00:43.999Z</time></trkpt><trkpt lat="45.048828707288706" lon="7.879070328956716"><ele>338.0</ele><time>2026-04-10T17:00:44.999Z</time></trkpt><trkpt lat="45.04885456899875" lon="7.8791795874946775"><ele>338.0</ele><time>2026-04-10T17:00:45.999Z</time></trkpt><trkpt lat="45.04888007291656" lon="7.879287334383602"><ele>338.0</ele><time>2026-04-10T17:00:46.999Z</time></trkpt><trkpt lat="45.04890398044725" lon="7.879388337381524"><ele>338.0</ele><time>2026-04-10T17:00:47.999Z</time></trkpt><trkpt lat="45.0489377957891" lon="7.879472210311815"><ele>338.0</ele><time>2026-04-10T17:00:48.999Z</time></trkpt><trkpt lat="45.04895781679996" lon="7.879565134996173"><ele>336.8571428571429</ele><time>2026-04-10T17:00:49.999Z</time></trkpt><trkpt lat="45.04897874116914" lon="7.879649873378867"><ele>335.7142857142857</ele><time>2026-04-10T17:00:50.999Z</time></trkpt><trkpt lat="45.048997839468065" lon="7.87973661916137"><ele>334.57142857142856</ele><time>2026-04-10T17:00:51.999Z</time></trkpt><trkpt lat="45.049006149206164" lon="7.879825036893862"><ele>333.42857142857144</ele><time>2026-04-10T17:00:52.999Z</time></trkpt><trkpt lat="45.04900339783435" lon="7.879918530886974"><ele>332.2857142857143</ele><time>2026-04-10T17:00:53.999Z</time></trkpt><trkpt lat="45.04902584828713" lon="7.880003128580926"><ele>331.14285714285717</ele><time>2026-04-10T17:00:54.999Z</time></trkpt><trkpt lat="45.04895886186092" lon="7.880106266357375"><ele>330.0</ele><time>2026-04-10T17:00:55.999Z</time></trkpt><trkpt lat="45.048948170120205" lon="7.880200469304254"><ele>329.3333333333333</ele><time>2026-04-10T17:00:56.999Z</time></trkpt><trkpt lat="45.0489381065688" lon="7.880295482391258"><ele>328.6666666666667</ele><time>2026-04-10T17:00:57.999Z</time></trkpt><trkpt lat="45.04892750430992" lon="7.880403751860802"><ele>328.0</ele><time>2026-04-10T17:00:58.999Z</time></trkpt><trkpt lat="45.04891172062023" lon="7.880524194484369"><ele>327.33333333333337</ele><time>2026-04-10T17:00:59.999Z</time></trkpt><trkpt lat="45.048893748457516" lon="7.880661507338878"><ele>326.6666666666667</ele><time>2026-04-10T17:01:00.999Z</time></trkpt><trkpt lat="45.04887446459889" lon="7.880808841633786"><ele>326.0</ele><time>2026-04-10T17:01:01.999Z</time></trkpt><trkpt lat="45.04885451676719" lon="7.880961248837818"><ele>324.5</ele><time>2026-04-10T17:01:02.999Z</time></trkpt><trkpt lat="45.04883355427941" lon="7.881121408529782"><ele>323.0</ele><time>2026-04-10T17:01:03.999Z</time></trkpt><trkpt lat="45.04881354185582" lon="7.881286855836264"><ele>321.5</ele><time>2026-04-10T17:01:04.999Z</time></trkpt><trkpt lat="45.04879702556248" lon="7.88145258264916"><ele>320.0</ele><time>2026-04-10T17:01:05.999Z</time></trkpt><trkpt lat="45.04878200074519" lon="7.881620174894902"><ele>319.25</ele><time>2026-04-10T17:01:06.999Z</time></trkpt><trkpt lat="45.04876782224927" lon="7.8817868229843535"><ele>318.5</ele><time>2026-04-10T17:01:07.999Z</time></trkpt><trkpt lat="45.04875418563155" lon="7.881953808014171"><ele>317.75</ele><time>2026-04-10T17:01:08.999Z</time></trkpt><trkpt lat="45.04874040301895" lon="7.882122580660979"><ele>317.0</ele><time>2026-04-10T17:01:09.999Z</time></trkpt><trkpt lat="45.04872808773373" lon="7.8822889810726995"><ele>317.0</ele><time>2026-04-10T17:01:10.999Z</time></trkpt><trkpt lat="45.04871628715754" lon="7.882449259720503"><ele>317.0</ele><time>2026-04-10T17:01:11.999Z</time></trkpt><trkpt lat="45.04870575428534" lon="7.88260616306743"><ele>317.0</ele><time>2026-04-10T17:01:12.999Z</time></trkpt><trkpt lat="45.04869525462198" lon="7.882762909864989"><ele>317.0</ele><time>2026-04-10T17:01:13.999Z</time></trkpt><trkpt lat="45.04868510321614" lon="7.8829144575980195"><ele>317.0</ele><time>2026-04-10T17:01:14.999Z</time></trkpt><trkpt lat="45.04867505957932" lon="7.883065493739366"><ele>317.0</ele><time>2026-04-10T17:01:15.999Z</time></trkpt><trkpt lat="45.04866737115853" lon="7.8832137849299455"><ele>317.0</ele><time>2026-04-10T17:01:16.999Z</time></trkpt><trkpt lat="45.04865985970098" lon="7.883358662866025"><ele>317.0</ele><time>2026-04-10T17:01:17.999Z</time></trkpt><trkpt lat="45.0486528119392" lon="7.883494597267294"><ele>317.0</ele><time>2026-04-10T17:01:18.999Z</time></trkpt><trkpt lat="45.048645866211956" lon="7.88362856366641"><ele>317.0</ele><time>2026-04-10T17:01:20Z</time></trkpt><trkpt lat="45.04863943013121" lon="7.88375270017959"><ele>317.33333333333337</ele><time>2026-04-10T17:01:21Z</time></trkpt><trkpt lat="45.04863269804158" lon="7.8838535892590595"><ele>317.6666666666667</ele><time>2026-04-10T17:01:22Z</time></trkpt><trkpt lat="45.0486208590912" lon="7.883986568904102"><ele>318.0</ele><time>2026-04-10T17:01:24Z</time></trkpt><trkpt lat="45.048600371173016" lon="7.8841016189958655"><ele>318.3333333333333</ele><time>2026-04-10T17:01:27Z</time></trkpt><trkpt lat="45.04858498569549" lon="7.884192303009334"><ele>318.66666666666663</ele><time>2026-04-10T17:01:29Z</time></trkpt><trkpt lat="45.04856333050522" lon="7.884319941269189"><ele>319.0</ele><time>2026-04-10T17:01:31Z</time></trkpt><trkpt lat="45.04865565779486" lon="7.884436541298991"><ele>318.3333333333333</ele><time>2026-04-10T17:01:32Z</time></trkpt><trkpt lat="45.04866289396764" lon="7.8845250993953915"><ele>317.66666666666663</ele><time>2026-04-10T17:01:33Z</time></trkpt><trkpt lat="45.04867460359007" lon="7.884654813319067"><ele>317.0</ele><time>2026-04-10T17:01:35Z</time></trkpt><trkpt lat="45.048683646171845" lon="7.884786896356689"><ele>316.3333333333333</ele><time>2026-04-10T17:01:37Z</time></trkpt><trkpt lat="45.04868508565665" lon="7.884954810600414"><ele>315.6666666666667</ele><time>2026-04-10T17:01:39Z</time></trkpt><trkpt lat="45.04869189276755" lon="7.885044578066613"><ele>315.0</ele><time>2026-04-10T17:01:40Z</time></trkpt><trkpt lat="45.04870197599097" lon="7.88521188963224"><ele>313.75</ele><time>2026-04-10T17:01:42Z</time></trkpt><trkpt lat="45.04870343258947" lon="7.885384718734488"><ele>312.5</ele><time>2026-04-10T17:01:44Z</time></trkpt><trkpt lat="45.04870475599768" lon="7.8855612651063485"><ele>311.25</ele><time>2026-04-10T17:01:46Z</time></trkpt><trkpt lat="45.048709047941934" lon="7.885733411853336"><ele>310.0</ele><time>2026-04-10T17:01:48Z</time></trkpt><trkpt lat="45.0487149710719" lon="7.885887942383373"><ele>308.2</ele><time>2026-04-10T17:01:50Z</time></trkpt><trkpt lat="45.048714951186064" lon="7.886033751338894"><ele>306.4</ele><time>2026-04-10T17:01:52Z</time></trkpt><trkpt lat="45.048714718534775" lon="7.8861466742140705"><ele>304.6</ele><time>2026-04-10T17:01:54Z</time></trkpt><trkpt lat="45.04871972460885" lon="7.886280105423774"><ele>302.8</ele><time>2026-04-10T17:01:56Z</time></trkpt><trkpt lat="45.04871085395024" lon="7.886407022461366"><ele>301.0</ele><time>2026-04-10T17:01:58Z</time></trkpt><trkpt lat="45.048710170729045" lon="7.886533415219856"><ele>301.0</ele><time>2026-04-10T17:02:00Z</time></trkpt><trkpt lat="45.04870736248556" lon="7.886664265454869"><ele>301.0</ele><time>2026-04-10T17:02:02Z</time></trkpt><trkpt lat="45.04870657155011" lon="7.88679095492175"><ele>301.0</ele><time>2026-04-10T17:02:04Z</time></trkpt><trkpt lat="45.04871028770837" lon="7.886905421270705"><ele>301.0</ele><time>2026-04-10T17:02:06Z</time></trkpt><trkpt lat="45.04872633878094" lon="7.8870126938016165"><ele>301.0</ele><time>2026-04-10T17:02:08Z</time></trkpt><trkpt lat="45.04873996449449" lon="7.887118239234835"><ele>301.0</ele><time>2026-04-10T17:02:10Z</time></trkpt><trkpt lat="45.0487257449143" lon="7.887237033633847"><ele>299.40000000000003</ele><time>2026-04-10T17:02:13Z</time></trkpt><trkpt lat="45.04865699749261" lon="7.887268385126427"><ele>297.8</ele><time>2026-04-10T17:02:15Z</time></trkpt><trkpt lat="45.048567728147844" lon="7.8872660865137805"><ele>296.20000000000005</ele><time>2026-04-10T17:02:17Z</time></trkpt><trkpt lat="45.048469714620175" lon="7.887263149522806"><ele>294.6</ele><time>2026-04-10T17:02:19Z</time></trkpt><trkpt lat="45.04837232275811" lon="7.887282187373389"><ele>293.0</ele><time>2026-04-10T17:02:20.999Z</time></trkpt><trkpt lat="45.048270242386636" lon="7.887299629565382"><ele>292.4</ele><time>2026-04-10T17:02:22.999Z</time></trkpt><trkpt lat="45.04816363248277" lon="7.88731807105792"><ele>291.8</ele><time>2026-04-10T17:02:24.999Z</time></trkpt><trkpt lat="45.04805891403579" lon="7.88733604534707"><ele>291.2</ele><time>2026-04-10T17:02:26.999Z</time></trkpt><trkpt lat="45.04795177510988" lon="7.887350950527105"><ele>290.6</ele><time>2026-04-10T17:02:28.999Z</time></trkpt><trkpt lat="45.04784007069821" lon="7.887371433013859"><ele>290.0</ele><time>2026-04-10T17:02:30.999Z</time></trkpt><trkpt lat="45.04773018109553" lon="7.887390029644257"><ele>290.0</ele><time>2026-04-10T17:02:32.999Z</time></trkpt><trkpt lat="45.04762556033595" lon="7.887405175647096"><ele>290.0</ele><time>2026-04-10T17:02:34.999Z</time></trkpt><trkpt lat="45.04751561892206" lon="7.887414767272053"><ele>290.0</ele><time>2026-04-10T17:02:36.999Z</time></trkpt><trkpt lat="45.04740578283154" lon="7.88743387530431"><ele>290.0</ele><time>2026-04-10T17:02:38.999Z</time></trkpt><trkpt lat="45.04729820570807" lon="7.887442741418794"><ele>290.0</ele><time>2026-04-10T17:02:40.999Z</time></trkpt><trkpt lat="45.047190732496716" lon="7.887461727201832"><ele>290.4</ele><time>2026-04-10T17:02:42.999Z</time></trkpt><trkpt lat="45.04707798081834" lon="7.887477400001398"><ele>290.8</ele><time>2026-04-10T17:02:44.999Z</time></trkpt><trkpt lat="45.04696798186425" lon="7.887490233141308"><ele>291.2</ele><time>2026-04-10T17:02:46.999Z</time></trkpt><trkpt lat="45.04685444791713" lon="7.887505870005575"><ele>291.6</ele><time>2026-04-10T17:02:48.999Z</time></trkpt><trkpt lat="45.04674605340389" lon="7.887529647136187"><ele>292.0</ele><time>2026-04-10T17:02:50.999Z</time></trkpt><trkpt lat="45.04663740815616" lon="7.887559952242845"><ele>291.5</ele><time>2026-04-10T17:02:52.999Z</time></trkpt><trkpt lat="45.04652700570853" lon="7.887591812687635"><ele>291.0</ele><time>2026-04-10T17:02:54.999Z</time></trkpt><trkpt lat="45.046415685523904" lon="7.887627232707412"><ele>290.5</ele><time>2026-04-10T17:02:56.999Z</time></trkpt><trkpt lat="45.046300257115504" lon="7.887670247650853"><ele>290.0</ele><time>2026-04-10T17:02:58.999Z</time></trkpt><trkpt lat="45.04618924553993" lon="7.887721943806318"><ele>290.0</ele><time>2026-04-10T17:03:00.999Z</time></trkpt><trkpt lat="45.04607514662885" lon="7.8877645827417195"><ele>290.0</ele><time>2026-04-10T17:03:02.999Z</time></trkpt><trkpt lat="45.04596601371943" lon="7.887811303262943"><ele>290.0</ele><time>2026-04-10T17:03:04.999Z</time></trkpt><trkpt lat="45.04585785660992" lon="7.887849254872131"><ele>290.0</ele><time>2026-04-10T17:03:06.999Z</time></trkpt><trkpt lat="45.04574661751988" lon="7.887896249712229"><ele>290.75</ele><time>2026-04-10T17:03:08.999Z</time></trkpt><trkpt lat="45.04563415981872" lon="7.887938551744663"><ele>291.5</ele><time>2026-04-10T17:03:10.999Z</time></trkpt><trkpt lat="45.045523866966185" lon="7.887981644894475"><ele>292.25</ele><time>2026-04-10T17:03:12.999Z</time></trkpt><trkpt lat="45.045418371195694" lon="7.88802806088907"><ele>293.0</ele><time>2026-04-10T17:03:14.999Z</time></trkpt><trkpt lat="45.0453047811072" lon="7.888067167476373"><ele>293.0</ele><time>2026-04-10T17:03:16.999Z</time></trkpt><trkpt lat="45.04520182299393" lon="7.888109817467593"><ele>293.0</ele><time>2026-04-10T17:03:18.999Z</time></trkpt><trkpt lat="45.045109956455214" lon="7.888142569307152"><ele>293.0</ele><time>2026-04-10T17:03:20.999Z</time></trkpt><trkpt lat="45.04500854124038" lon="7.888182330268099"><ele>293.0</ele><time>2026-04-10T17:03:22.999Z</time></trkpt><trkpt lat="45.044908031870975" lon="7.88821858675163"><ele>293.0</ele><time>2026-04-10T17:03:24.999Z</time></trkpt><trkpt lat="45.044803895903364" lon="7.888261165359957"><ele>293.4</ele><time>2026-04-10T17:03:27Z</time></trkpt><trkpt lat="45.044695730036366" lon="7.888303507039512"><ele>293.8</ele><time>2026-04-10T17:03:29Z</time></trkpt><trkpt lat="45.04459451622031" lon="7.888349386341109"><ele>294.2</ele><time>2026-04-10T17:03:31Z</time></trkpt><trkpt lat="45.04450015117238" lon="7.888388339350334"><ele>294.6</ele><time>2026-04-10T17:03:33Z</time></trkpt><trkpt lat="45.04440516431852" lon="7.888424640702269"><ele>295.0</ele><time>2026-04-10T17:03:35Z</time></trkpt><trkpt lat="45.044317915870415" lon="7.888464340575418"><ele>293.3333333333333</ele><time>2026-04-10T17:03:37Z</time></trkpt><trkpt lat="45.044232546412836" lon="7.888494302155948"><ele>291.66666666666663</ele><time>2026-04-10T17:03:39Z</time></trkpt><trkpt lat="45.04415469428832" lon="7.888529559536066"><ele>290.0</ele><time>2026-04-10T17:03:41Z</time></trkpt><trkpt lat="45.04413511109977" lon="7.888636013882563"><ele>288.3333333333333</ele><time>2026-04-10T17:03:44Z</time></trkpt><trkpt lat="45.04414941483164" lon="7.888730828015731"><ele>286.6666666666667</ele><time>2026-04-10T17:03:48Z</time></trkpt><trkpt lat="45.04418096704444" lon="7.88881790674671"><ele>285.0</ele><time>2026-04-10T17:03:50Z</time></trkpt><trkpt lat="45.04420442587507" lon="7.888941442234321"><ele>285.0</ele><time>2026-04-10T17:03:53Z</time></trkpt><trkpt lat="45.044228335145064" lon="7.889035163054677"><ele>285.0</ele><time>2026-04-10T17:03:55Z</time></trkpt><trkpt lat="45.044255401029716" lon="7.889129733861334"><ele>285.0</ele><time>2026-04-10T17:03:57Z</time></trkpt><trkpt lat="45.04427598283446" lon="7.889230827618399"><ele>285.0</ele><time>2026-04-10T17:03:59Z</time></trkpt><trkpt lat="45.044305448102136" lon="7.88933639845463"><ele>285.0</ele><time>2026-04-10T17:04:01Z</time></trkpt><trkpt lat="45.04433180910998" lon="7.889439026188259"><ele>285.0</ele><time>2026-04-10T17:04:03Z</time></trkpt><trkpt lat="45.04435483874569" lon="7.889536817097347"><ele>285.0</ele><time>2026-04-10T17:04:05Z</time></trkpt><trkpt lat="45.04438115328852" lon="7.889621264256452"><ele>285.0</ele><time>2026-04-10T17:04:07Z</time></trkpt><trkpt lat="45.04440443620454" lon="7.889725316636611"><ele>285.0</ele><time>2026-04-10T17:04:09Z</time></trkpt><trkpt lat="45.04443169235622" lon="7.889830755277494"><ele>285.0</ele><time>2026-04-10T17:04:11Z</time></trkpt><trkpt lat="45.04445945186796" lon="7.889935639501465"><ele>285.0</ele><time>2026-04-10T17:04:13Z</time></trkpt><trkpt lat="45.04448194185467" lon="7.8900445725109725"><ele>285.0</ele><time>2026-04-10T17:04:15Z</time></trkpt><trkpt lat="45.04451292768061" lon="7.890149603843516"><ele>285.0</ele><time>2026-04-10T17:04:17Z</time></trkpt><trkpt lat="45.04453911122369" lon="7.890259581887303"><ele>285.0</ele><time>2026-04-10T17:04:19Z</time></trkpt><trkpt lat="45.04456712913682" lon="7.890369994291182"><ele>285.0</ele><time>2026-04-10T17:04:20.999Z</time></trkpt><trkpt lat="45.04459585040328" lon="7.8904774509840845"><ele>285.0</ele><time>2026-04-10T17:04:22.999Z</time></trkpt><trkpt lat="45.04462429708122" lon="7.890582236412927"><ele>285.0</ele><time>2026-04-10T17:04:24.999Z</time></trkpt><trkpt lat="45.04464726484407" lon="7.890691522870102"><ele>285.0</ele><time>2026-04-10T17:04:26.999Z</time></trkpt><trkpt lat="45.04467540372447" lon="7.890797333441949"><ele>285.0</ele><time>2026-04-10T17:04:28.999Z</time></trkpt><trkpt lat="45.04470108322996" lon="7.89089990175554"><ele>285.0</ele><time>2026-04-10T17:04:30.999Z</time></trkpt><trkpt lat="45.04472643548451" lon="7.891001736772916"><ele>285.0</ele><time>2026-04-10T17:04:32.999Z</time></trkpt><trkpt lat="45.04475548298674" lon="7.891112381470158"><ele>285.0</ele><time>2026-04-10T17:04:34.999Z</time></trkpt><trkpt lat="45.04477765045753" lon="7.891208240643321"><ele>285.0</ele><time>2026-04-10T17:04:36.999Z</time></trkpt><trkpt lat="45.04480438391318" lon="7.89131650794825"><ele>285.0</ele><time>2026-04-10T17:04:38.999Z</time></trkpt><trkpt lat="45.04483201665008" lon="7.891422435161192"><ele>285.0</ele><time>2026-04-10T17:04:40.999Z</time></trkpt><trkpt lat="45.04484969524892" lon="7.891532978721911"><ele>285.0</ele><time>2026-04-10T17:04:42.999Z</time></trkpt><trkpt lat="45.044879804644374" lon="7.8916401513090655"><ele>285.0</ele><time>2026-04-10T17:04:44.999Z</time></trkpt><trkpt lat="45.04490666640455" lon="7.891752635557457"><ele>285.0</ele><time>2026-04-10T17:04:46.999Z</time></trkpt><trkpt lat="45.04493499482341" lon="7.891862412784479"><ele>285.0</ele><time>2026-04-10T17:04:48.999Z</time></trkpt><trkpt lat="45.04496008122741" lon="7.891963665284213"><ele>285.0</ele><time>2026-04-10T17:04:50.999Z</time></trkpt><trkpt lat="45.04498448991862" lon="7.892054387152464"><ele>285.0</ele><time>2026-04-10T17:04:53.999Z</time></trkpt><trkpt lat="45.04501218555699" lon="7.892166278202566"><ele>285.3333333333333</ele><time>2026-04-10T17:04:55.999Z</time></trkpt><trkpt lat="45.045037586642835" lon="7.892282636000134"><ele>285.6666666666667</ele><time>2026-04-10T17:04:56.999Z</time></trkpt><trkpt lat="45.045066697328785" lon="7.892389665312397"><ele>286.0</ele><time>2026-04-10T17:04:58.999Z</time></trkpt><trkpt lat="45.045093922712674" lon="7.8924916203222475"><ele>286.33333333333337</ele><time>2026-04-10T17:05:00.999Z</time></trkpt><trkpt lat="45.0451205669384" lon="7.892591182831143"><ele>286.6666666666667</ele><time>2026-04-10T17:05:02.999Z</time></trkpt><trkpt lat="45.04514534186421" lon="7.892693884237141"><ele>287.0</ele><time>2026-04-10T17:05:04.999Z</time></trkpt><trkpt lat="45.04516942334264" lon="7.8927855588987645"><ele>287.42857142857144</ele><time>2026-04-10T17:05:06.999Z</time></trkpt><trkpt lat="45.04519895294142" lon="7.892882641338571"><ele>287.8571428571429</ele><time>2026-04-10T17:05:08.999Z</time></trkpt><trkpt lat="45.04523026719786" lon="7.893005952316788"><ele>288.2857142857143</ele><time>2026-04-10T17:05:11.999Z</time></trkpt><trkpt lat="45.0452627864186" lon="7.893084944282674"><ele>288.7142857142857</ele><time>2026-04-10T17:05:13.999Z</time></trkpt><trkpt lat="45.04528635571638" lon="7.893174899951738"><ele>289.14285714285717</ele><time>2026-04-10T17:05:15.999Z</time></trkpt><trkpt lat="45.04520716773794" lon="7.893210765673766"><ele>289.57142857142856</ele><time>2026-04-10T17:05:17.999Z</time></trkpt><trkpt lat="45.04514338048166" lon="7.893196816566164"><ele>290.0</ele><time>2026-04-10T17:05:18.999Z</time></trkpt><trkpt lat="45.04507606263473" lon="7.893205763402642"><ele>290.0</ele><time>2026-04-10T17:05:19.999Z</time></trkpt><trkpt lat="45.04500929760745" lon="7.893212981780297"><ele>290.0</ele><time>2026-04-10T17:05:20.999Z</time></trkpt><trkpt lat="45.044937743609935" lon="7.893136614322673"><ele>290.0</ele><time>2026-04-10T17:05:21.999Z</time></trkpt><trkpt lat="45.04486081713307" lon="7.893138362866905"><ele>290.0</ele><time>2026-04-10T17:05:22.999Z</time></trkpt><trkpt lat="45.04477569956225" lon="7.893174535087021"><ele>290.0</ele><time>2026-04-10T17:05:23.999Z</time></trkpt><trkpt lat="45.04470374981391" lon="7.893226443371635"><ele>290.0</ele><time>2026-04-10T17:05:24.999Z</time></trkpt><trkpt lat="45.04463981673019" lon="7.893300512992471"><ele>289.2857142857143</ele><time>2026-04-10T17:05:25.999Z</time></trkpt><trkpt lat="45.044583799458735" lon="7.893368550667198"><ele>288.5714285714286</ele><time>2026-04-10T17:05:26.999Z</time></trkpt><trkpt lat="45.04453070538848" lon="7.893431623220922"><ele>287.8571428571429</ele><time>2026-04-10T17:05:27.999Z</time></trkpt><trkpt lat="45.04447209865609" lon="7.89349520054073"><ele>287.14285714285717</ele><time>2026-04-10T17:05:28.999Z</time></trkpt><trkpt lat="45.044414573800694" lon="7.893557603054078"><ele>286.42857142857144</ele><time>2026-04-10T17:05:29.999Z</time></trkpt><trkpt lat="45.044361047024054" lon="7.893636121127573"><ele>285.7142857142857</ele><time>2026-04-10T17:05:30.999Z</time></trkpt><trkpt lat="45.044314671486966" lon="7.893718541378647"><ele>285.0</ele><time>2026-04-10T17:05:32Z</time></trkpt><trkpt lat="45.04427543474902" lon="7.89380422399621"><ele>285.0</ele><time>2026-04-10T17:05:33Z</time></trkpt><trkpt lat="45.04423967213852" lon="7.893896078067461"><ele>285.0</ele><time>2026-04-10T17:05:34Z</time></trkpt><trkpt lat="45.044207879219236" lon="7.89397762844547"><ele>285.0</ele><time>2026-04-10T17:05:35Z</time></trkpt><trkpt lat="45.0441780157742" lon="7.894066804983666"><ele>285.0</ele><time>2026-04-10T17:05:36Z</time></trkpt><trkpt lat="45.04415112771679" lon="7.894152406541783"><ele>285.0</ele><time>2026-04-10T17:05:37Z</time></trkpt><trkpt lat="45.04412486385701" lon="7.89423613864633"><ele>285.0</ele><time>2026-04-10T17:05:38Z</time></trkpt><trkpt lat="45.044099971773775" lon="7.894318165940754"><ele>285.0</ele><time>2026-04-10T17:05:39Z</time></trkpt><trkpt lat="45.044056128277155" lon="7.894472598477526"><ele>284.8</ele><time>2026-04-10T17:05:41Z</time></trkpt><trkpt lat="45.044033989379834" lon="7.894556486551576"><ele>284.6</ele><time>2026-04-10T17:05:42Z</time></trkpt><trkpt lat="45.04399448351472" lon="7.89471452383738"><ele>284.4</ele><time>2026-04-10T17:05:44Z</time></trkpt><trkpt lat="45.04396150770779" lon="7.894875836807707"><ele>284.2</ele><time>2026-04-10T17:05:46Z</time></trkpt><trkpt lat="45.04393272986599" lon="7.895026450509413"><ele>284.0</ele><time>2026-04-10T17:05:48Z</time></trkpt><trkpt lat="45.043904452656314" lon="7.895180981610178"><ele>284.8</ele><time>2026-04-10T17:05:50Z</time></trkpt><trkpt lat="45.043877050998454" lon="7.895330727384071"><ele>285.59999999999997</ele><time>2026-04-10T17:05:52Z</time></trkpt><trkpt lat="45.04384876569436" lon="7.895475284266441"><ele>286.4</ele><time>2026-04-10T17:05:54Z</time></trkpt><trkpt lat="45.04381429454524" lon="7.895602742386032"><ele>287.2</ele><time>2026-04-10T17:05:56Z</time></trkpt><trkpt lat="45.043759896966456" lon="7.895741917245109"><ele>288.0</ele><time>2026-04-10T17:05:58Z</time></trkpt><trkpt lat="45.04368606387096" lon="7.8958519885639555"><ele>290.2</ele><time>2026-04-10T17:06:00Z</time></trkpt><trkpt lat="45.043606614904185" lon="7.895953985446521"><ele>292.4</ele><time>2026-04-10T17:06:02Z</time></trkpt><trkpt lat="45.043526986895145" lon="7.896044597822172"><ele>294.59999999999997</ele><time>2026-04-10T17:06:04Z</time></trkpt><trkpt lat="45.043445761797365" lon="7.896128811369231"><ele>296.8</ele><time>2026-04-10T17:06:06Z</time></trkpt><trkpt lat="45.043364801892395" lon="7.896207340383915"><ele>299.0</ele><time>2026-04-10T17:06:08Z</time></trkpt><trkpt lat="45.04327423888821" lon="7.896291247549668"><ele>299.59999999999997</ele><time>2026-04-10T17:06:11Z</time></trkpt><trkpt lat="45.043203581964605" lon="7.896351239452177"><ele>300.2</ele><time>2026-04-10T17:06:13Z</time></trkpt><trkpt lat="45.043113787106265" lon="7.8964202260769225"><ele>300.79999999999995</ele><time>2026-04-10T17:06:16Z</time></trkpt><trkpt lat="45.043040788569115" lon="7.896483505330007"><ele>301.4</ele><time>2026-04-10T17:06:18Z</time></trkpt><trkpt lat="45.043006512378746" lon="7.896597517191191"><ele>302.0</ele><time>2026-04-10T17:06:20Z</time></trkpt><trkpt lat="45.04295091207268" lon="7.896701877263517"><ele>302.42857142857144</ele><time>2026-04-10T17:06:23Z</time></trkpt><trkpt lat="45.04289940702276" lon="7.896789090044645"><ele>302.8571428571429</ele><time>2026-04-10T17:06:26Z</time></trkpt><trkpt lat="45.04286781360567" lon="7.896876157656125"><ele>303.28571428571433</ele><time>2026-04-10T17:06:28.999Z</time></trkpt><trkpt lat="45.0428481015378" lon="7.896970305405739"><ele>303.7142857142857</ele><time>2026-04-10T17:06:31.999Z</time></trkpt><trkpt lat="45.042816085033905" lon="7.897064660755152"><ele>304.1428571428571</ele><time>2026-04-10T17:06:35.999Z</time></trkpt><trkpt lat="45.04277819306725" lon="7.897156959318298"><ele>304.5714285714286</ele><time>2026-04-10T17:06:39.999Z</time></trkpt><trkpt lat="45.042743358872045" lon="7.897234036767509"><ele>305.0</ele><time>2026-04-10T17:06:42.999Z</time></trkpt><trkpt lat="45.042696115896696" lon="7.897316067880083"><ele>305.0</ele><time>2026-04-10T17:06:45.999Z</time></trkpt><trkpt lat="45.04264827498953" lon="7.897374804084875"><ele>305.0</ele><time>2026-04-10T17:06:48.999Z</time></trkpt><trkpt lat="45.042581084841" lon="7.897450708045737"><ele>305.0</ele><time>2026-04-10T17:06:52.999Z</time></trkpt><trkpt lat="45.04251567409319" lon="7.897509662773021"><ele>305.0</ele><time>2026-04-10T17:06:56.999Z</time></trkpt><trkpt lat="45.04244931786724" lon="7.897552770639822"><ele>305.0</ele><time>2026-04-10T17:07:00.999Z</time></trkpt><trkpt lat="45.042387760879734" lon="7.8975969736176665"><ele>305.0</ele><time>2026-04-10T17:07:03.999Z</time></trkpt><trkpt lat="45.04232720386838" lon="7.897668385205716"><ele>305.0</ele><time>2026-04-10T17:07:07.999Z</time></trkpt><trkpt lat="45.04225887527498" lon="7.897732564001823"><ele>304.0</ele><time>2026-04-10T17:07:10.999Z</time></trkpt><trkpt lat="45.04216702944559" lon="7.897823826682648"><ele>303.0</ele><time>2026-04-10T17:07:12.999Z</time></trkpt><trkpt lat="45.04210333234409" lon="7.897895096501111"><ele>302.0</ele><time>2026-04-10T17:07:14.999Z</time></trkpt><trkpt lat="45.04203704754166" lon="7.897971454303477"><ele>301.0</ele><time>2026-04-10T17:07:16.999Z</time></trkpt><trkpt lat="45.04198458907007" lon="7.898072851600859"><ele>300.0</ele><time>2026-04-10T17:07:18.999Z</time></trkpt><trkpt lat="45.041930046943065" lon="7.8981745218957595"><ele>300.0</ele><time>2026-04-10T17:07:20.999Z</time></trkpt><trkpt lat="45.04187137385492" lon="7.898279758852379"><ele>300.0</ele><time>2026-04-10T17:07:22.999Z</time></trkpt><trkpt lat="45.04181599899754" lon="7.898401507996243"><ele>300.0</ele><time>2026-04-10T17:07:24.999Z</time></trkpt><trkpt lat="45.04175130033545" lon="7.898530296658159"><ele>300.0</ele><time>2026-04-10T17:07:26.999Z</time></trkpt><trkpt lat="45.04172820106903" lon="7.898688937362007"><ele>300.0</ele><time>2026-04-10T17:07:28.999Z</time></trkpt><trkpt lat="45.04170968661565" lon="7.898845348945556"><ele>299.8</ele><time>2026-04-10T17:07:30.999Z</time></trkpt><trkpt lat="45.04169408451777" lon="7.89899865517216"><ele>299.6</ele><time>2026-04-10T17:07:32.999Z</time></trkpt><trkpt lat="45.04168192512987" lon="7.899149988462397"><ele>299.4</ele><time>2026-04-10T17:07:34.999Z</time></trkpt><trkpt lat="45.041672849174674" lon="7.899296231939577"><ele>299.2</ele><time>2026-04-10T17:07:36.999Z</time></trkpt><trkpt lat="45.041667447164606" lon="7.899417040808762"><ele>299.0</ele><time>2026-04-10T17:07:39Z</time></trkpt><trkpt lat="45.04185507810294" lon="7.899463184633805"><ele>299.59999999999997</ele><time>2026-04-10T17:07:41Z</time></trkpt><trkpt lat="45.041950155091605" lon="7.899462453740627"><ele>300.2</ele><time>2026-04-10T17:07:43Z</time></trkpt><trkpt lat="45.04204838219161" lon="7.899458904016401"><ele>300.79999999999995</ele><time>2026-04-10T17:07:45Z</time></trkpt><trkpt lat="45.04214240145117" lon="7.899451636753973"><ele>301.4</ele><time>2026-04-10T17:07:47Z</time></trkpt><trkpt lat="45.04223790114396" lon="7.899457326490851"><ele>302.0</ele><time>2026-04-10T17:07:49Z</time></trkpt><trkpt lat="45.042317962315764" lon="7.899497108998891"><ele>302.00000000000006</ele><time>2026-04-10T17:07:51Z</time></trkpt><trkpt lat="45.04236090478954" lon="7.89958690639433"><ele>302.0</ele><time>2026-04-10T17:07:53Z</time></trkpt><trkpt lat="45.04241507262547" lon="7.899637754347641"><ele>302.0</ele><time>2026-04-10T17:07:55Z</time></trkpt><trkpt lat="45.042436846439095" lon="7.8997268618583645"><ele>302.0</ele><time>2026-04-10T17:07:57Z</time></trkpt><trkpt lat="45.0424704754318" lon="7.899807241796913"><ele>302.0</ele><time>2026-04-10T17:07:59Z</time></trkpt><trkpt lat="45.04250702901788" lon="7.899889442828552"><ele>302.00000000000006</ele><time>2026-04-10T17:08:01Z</time></trkpt><trkpt lat="45.04253823431779" lon="7.899973584843318"><ele>302.0</ele><time>2026-04-10T17:08:03Z</time></trkpt><trkpt lat="45.04256393953879" lon="7.9000617918133615"><ele>303.14285714285717</ele><time>2026-04-10T17:08:05Z</time></trkpt><trkpt lat="45.04259759053231" lon="7.900141572633333"><ele>304.2857142857143</ele><time>2026-04-10T17:08:07Z</time></trkpt><trkpt lat="45.04263410439084" lon="7.900219489238779"><ele>305.42857142857144</ele><time>2026-04-10T17:08:09Z</time></trkpt><trkpt lat="45.042679548704044" lon="7.900293744610776"><ele>306.57142857142856</ele><time>2026-04-10T17:08:12Z</time></trkpt><trkpt lat="45.042737639349866" lon="7.900384736249666"><ele>307.7142857142857</ele><time>2026-04-10T17:08:16Z</time></trkpt><trkpt lat="45.04278813432486" lon="7.900459898764665"><ele>308.8571428571429</ele><time>2026-04-10T17:08:18Z</time></trkpt><trkpt lat="45.04284946405113" lon="7.9005408259985055"><ele>310.0</ele><time>2026-04-10T17:08:21Z</time></trkpt><trkpt lat="45.04291113055838" lon="7.900617060877529"><ele>310.0</ele><time>2026-04-10T17:08:24Z</time></trkpt><trkpt lat="45.04297220313477" lon="7.900676583868718"><ele>310.0</ele><time>2026-04-10T17:08:27Z</time></trkpt><trkpt lat="45.04302467710579" lon="7.900735581656705"><ele>310.0</ele><time>2026-04-10T17:08:30Z</time></trkpt><trkpt lat="45.04310875279148" lon="7.900809145730567"><ele>310.0</ele><time>2026-04-10T17:08:33.999Z</time></trkpt><trkpt lat="45.04316485905859" lon="7.900860025868862"><ele>310.0</ele><time>2026-04-10T17:08:36.999Z</time></trkpt><trkpt lat="45.04323001309491" lon="7.900910651852846"><ele>310.0</ele><time>2026-04-10T17:08:39.999Z</time></trkpt><trkpt lat="45.04328862150181" lon="7.900949283276595"><ele>310.0</ele><time>2026-04-10T17:08:43.999Z</time></trkpt><trkpt lat="45.04335708356292" lon="7.901006903546262"><ele>311.3333333333333</ele><time>2026-04-10T17:08:47.999Z</time></trkpt><trkpt lat="45.04343699053271" lon="7.901049500370347"><ele>312.66666666666663</ele><time>2026-04-10T17:08:51.999Z</time></trkpt><trkpt lat="45.043501285568745" lon="7.90109796455038"><ele>314.0</ele><time>2026-04-10T17:08:54.999Z</time></trkpt><trkpt lat="45.0435692964809" lon="7.901132079379784"><ele>315.3333333333333</ele><time>2026-04-10T17:08:58.999Z</time></trkpt><trkpt lat="45.0436416831033" lon="7.901161136471084"><ele>316.6666666666667</ele><time>2026-04-10T17:09:02.999Z</time></trkpt><trkpt lat="45.043708352753235" lon="7.901187049568304"><ele>318.0</ele><time>2026-04-10T17:09:06.999Z</time></trkpt><trkpt lat="45.04378962899237" lon="7.901190827490719"><ele>318.0</ele><time>2026-04-10T17:09:10.999Z</time></trkpt><trkpt lat="45.043863189753395" lon="7.901230497671222"><ele>318.0</ele><time>2026-04-10T17:09:14.999Z</time></trkpt><trkpt lat="45.043921266425954" lon="7.901283257597481"><ele>318.0</ele><time>2026-04-10T17:09:17.999Z</time></trkpt><trkpt lat="45.043987587750024" lon="7.901337435382925"><ele>318.0</ele><time>2026-04-10T17:09:21.999Z</time></trkpt><trkpt lat="45.04403860229825" lon="7.901394779896653"><ele>318.0</ele><time>2026-04-10T17:09:24.999Z</time></trkpt><trkpt lat="45.04407827481802" lon="7.9014659242894565"><ele>318.0</ele><time>2026-04-10T17:09:27.999Z</time></trkpt><trkpt lat="45.04411907272049" lon="7.901540497267552"><ele>318.0</ele><time>2026-04-10T17:09:30.999Z</time></trkpt><trkpt lat="45.04415380851219" lon="7.901616290970443"><ele>318.4285714285714</ele><time>2026-04-10T17:09:33.999Z</time></trkpt><trkpt lat="45.044188363560316" lon="7.90169359305344"><ele>318.8571428571429</ele><time>2026-04-10T17:09:36.999Z</time></trkpt><trkpt lat="45.04422094284322" lon="7.901771703669811"><ele>319.2857142857143</ele><time>2026-04-10T17:09:39.999Z</time></trkpt><trkpt lat="45.04424894998972" lon="7.901875227935379"><ele>319.71428571428567</ele><time>2026-04-10T17:09:44Z</time></trkpt><trkpt lat="45.04428155013939" lon="7.901983338595927"><ele>320.1428571428571</ele><time>2026-04-10T17:09:48Z</time></trkpt><trkpt lat="45.044310048964064" lon="7.902089947915591"><ele>320.57142857142856</ele><time>2026-04-10T17:09:52Z</time></trkpt><trkpt lat="45.04427655072509" lon="7.902180675783244"><ele>321.0</ele><time>2026-04-10T17:09:56Z</time></trkpt><trkpt lat="45.04421090400143" lon="7.902196732007168"><ele>321.1666666666667</ele><time>2026-04-10T17:10:00Z</time></trkpt><trkpt lat="45.04414627022637" lon="7.902217540953984"><ele>321.3333333333333</ele><time>2026-04-10T17:10:04Z</time></trkpt><trkpt lat="45.04407524046375" lon="7.902244392026869"><ele>321.5</ele><time>2026-04-10T17:10:08Z</time></trkpt><trkpt lat="45.043991679907094" lon="7.90226051286855"><ele>321.66666666666663</ele><time>2026-04-10T17:10:12Z</time></trkpt><trkpt lat="45.04392175526703" lon="7.902275815496941"><ele>321.8333333333333</ele><time>2026-04-10T17:10:15Z</time></trkpt><trkpt lat="45.04381977386627" lon="7.902342349532302"><ele>322.0</ele><time>2026-04-10T17:10:19Z</time></trkpt><trkpt lat="45.04375793606141" lon="7.902371221492406"><ele>322.0</ele><time>2026-04-10T17:10:20Z</time></trkpt><trkpt lat="45.04367173068041" lon="7.902469608270146"><ele>322.0</ele><time>2026-04-10T17:10:22Z</time></trkpt><trkpt lat="45.0436454014654" lon="7.902555265003613"><ele>322.0</ele><time>2026-04-10T17:10:23Z</time></trkpt><trkpt lat="45.0436284827933" lon="7.902645117316511"><ele>322.0</ele><time>2026-04-10T17:10:24Z</time></trkpt><trkpt lat="45.04360127428597" lon="7.902742094427775"><ele>322.0</ele><time>2026-04-10T17:10:25Z</time></trkpt><trkpt lat="45.04357061567965" lon="7.902823101249324"><ele>322.0</ele><time>2026-04-10T17:10:26Z</time></trkpt><trkpt lat="45.04348203901595" lon="7.902898999895046"><ele>322.16666666666663</ele><time>2026-04-10T17:10:28Z</time></trkpt><trkpt lat="45.04340812406653" lon="7.902898554522577"><ele>322.3333333333333</ele><time>2026-04-10T17:10:29Z</time></trkpt><trkpt lat="45.04333756178908" lon="7.902879894242075"><ele>322.5</ele><time>2026-04-10T17:10:30Z</time></trkpt><trkpt lat="45.04327214580731" lon="7.902870073460514"><ele>322.6666666666667</ele><time>2026-04-10T17:10:31Z</time></trkpt><trkpt lat="45.04318408936685" lon="7.902856798306536"><ele>322.83333333333337</ele><time>2026-04-10T17:10:33Z</time></trkpt><trkpt lat="45.04312362633791" lon="7.902890865080602"><ele>323.0</ele><time>2026-04-10T17:10:35Z</time></trkpt><trkpt lat="45.04312549211576" lon="7.903053312931341"><ele>321.79999999999995</ele><time>2026-04-10T17:10:37Z</time></trkpt><trkpt lat="45.043052258593896" lon="7.903146957978727"><ele>320.59999999999997</ele><time>2026-04-10T17:10:38Z</time></trkpt><trkpt lat="45.04307243265724" lon="7.903283927398957"><ele>319.4</ele><time>2026-04-10T17:10:39.999Z</time></trkpt><trkpt lat="45.043008989848644" lon="7.9033463396583015"><ele>318.2</ele><time>2026-04-10T17:10:41.999Z</time></trkpt><trkpt lat="45.04290180616585" lon="7.903333514936478"><ele>317.0</ele><time>2026-04-10T17:10:43.999Z</time></trkpt><trkpt lat="45.04278370339824" lon="7.9033315398880095"><ele>317.0</ele><time>2026-04-10T17:10:45.999Z</time></trkpt><trkpt lat="45.04271903807325" lon="7.903332849242266"><ele>317.0</ele><time>2026-04-10T17:10:46.999Z</time></trkpt><trkpt lat="45.042655950222695" lon="7.903333431463839"><ele>317.0</ele><time>2026-04-10T17:10:47.999Z</time></trkpt><trkpt lat="45.04253907969485" lon="7.903334510071146"><ele>317.0</ele><time>2026-04-10T17:10:49.999Z</time></trkpt><trkpt lat="45.042437385170395" lon="7.903321980121026"><ele>317.0</ele><time>2026-04-10T17:10:51.999Z</time></trkpt><trkpt lat="45.04234287615603" lon="7.903307136921196"><ele>317.0</ele><time>2026-04-10T17:10:53.999Z</time></trkpt><trkpt lat="45.042265413560976" lon="7.9033155706287115"><ele>316.6</ele><time>2026-04-10T17:10:55.999Z</time></trkpt><trkpt lat="45.04219299871482" lon="7.903297419582526"><ele>316.2</ele><time>2026-04-10T17:10:57.999Z</time></trkpt><trkpt lat="45.042106243938726" lon="7.903279934718895"><ele>315.8</ele><time>2026-04-10T17:10:59.999Z</time></trkpt><trkpt lat="45.04199884532712" lon="7.903251513672216"><ele>315.4</ele><time>2026-04-10T17:11:01.999Z</time></trkpt><trkpt lat="45.041880004269835" lon="7.903214407004872"><ele>315.0</ele><time>2026-04-10T17:11:03.999Z</time></trkpt><trkpt lat="45.041815723025074" lon="7.903212761478967"><ele>315.0</ele><time>2026-04-10T17:11:04.999Z</time></trkpt><trkpt lat="45.041694395731334" lon="7.903221487398633"><ele>315.0</ele><time>2026-04-10T17:11:06.999Z</time></trkpt><trkpt lat="45.041583810652654" lon="7.903234749834618"><ele>315.0</ele><time>2026-04-10T17:11:08.999Z</time></trkpt><trkpt lat="45.04146946513378" lon="7.903251251773528"><ele>315.0</ele><time>2026-04-10T17:11:10.999Z</time></trkpt><trkpt lat="45.04136358911983" lon="7.9032707241329545"><ele>314.6</ele><time>2026-04-10T17:11:12.999Z</time></trkpt><trkpt lat="45.04126631892094" lon="7.903288613791028"><ele>314.2</ele><time>2026-04-10T17:11:14.999Z</time></trkpt><trkpt lat="45.04119113533414" lon="7.90330244134866"><ele>313.8</ele><time>2026-04-10T17:11:16.999Z</time></trkpt><trkpt lat="45.041116675688905" lon="7.903316135691571"><ele>313.4</ele><time>2026-04-10T17:11:18.999Z</time></trkpt><trkpt lat="45.04102330400124" lon="7.903335762703663"><ele>313.0</ele><time>2026-04-10T17:11:20.999Z</time></trkpt><trkpt lat="45.04089765254963" lon="7.9033650217140385"><ele>313.0</ele><time>2026-04-10T17:11:22.999Z</time></trkpt><trkpt lat="45.04082822867055" lon="7.90340631336684"><ele>313.0</ele><time>2026-04-10T17:11:23.999Z</time></trkpt><trkpt lat="45.04074783724352" lon="7.903427786264757"><ele>313.0</ele><time>2026-04-10T17:11:24.999Z</time></trkpt><trkpt lat="45.04066373300363" lon="7.903452084036886"><ele>313.0</ele><time>2026-04-10T17:11:25.999Z</time></trkpt><trkpt lat="45.04057634099817" lon="7.9034725433254644"><ele>313.0</ele><time>2026-04-10T17:11:26.999Z</time></trkpt><trkpt lat="45.040484335212085" lon="7.903487468276055"><ele>313.0</ele><time>2026-04-10T17:11:27.999Z</time></trkpt><trkpt lat="45.04038455312222" lon="7.903510327472657"><ele>311.6</ele><time>2026-04-10T17:11:28.999Z</time></trkpt><trkpt lat="45.040280091095404" lon="7.9035386522594075"><ele>310.20000000000005</ele><time>2026-04-10T17:11:29.999Z</time></trkpt><trkpt lat="45.040180173681584" lon="7.9035753076441955"><ele>308.8</ele><time>2026-04-10T17:11:30.999Z</time></trkpt><trkpt lat="45.040076152410805" lon="7.903607407629409"><ele>307.40000000000003</ele><time>2026-04-10T17:11:31.999Z</time></trkpt><trkpt lat="45.039974396370184" lon="7.9036405307107485"><ele>306.0</ele><time>2026-04-10T17:11:32.999Z</time></trkpt><trkpt lat="45.03988243785558" lon="7.903664837602178"><ele>304.5</ele><time>2026-04-10T17:11:33.999Z</time></trkpt><trkpt lat="45.03978165081834" lon="7.903694509460626"><ele>303.0</ele><time>2026-04-10T17:11:34.999Z</time></trkpt><trkpt lat="45.03969036993971" lon="7.903716051636546"><ele>301.5</ele><time>2026-04-10T17:11:35.999Z</time></trkpt><trkpt lat="45.03961079892184" lon="7.9037381560124444"><ele>300.0</ele><time>2026-04-10T17:11:36.999Z</time></trkpt><trkpt lat="45.039538274220774" lon="7.903757249804067"><ele>298.5</ele><time>2026-04-10T17:11:37.999Z</time></trkpt><trkpt lat="45.039463894103825" lon="7.903775376216768"><ele>297.0</ele><time>2026-04-10T17:11:38.999Z</time></trkpt><trkpt lat="45.03939334730491" lon="7.9037991606409586"><ele>297.0</ele><time>2026-04-10T17:11:39.999Z</time></trkpt><trkpt lat="45.03931682078724" lon="7.903822406391319"><ele>297.0</ele><time>2026-04-10T17:11:40.999Z</time></trkpt><trkpt lat="45.0392385097788" lon="7.903844716389335"><ele>297.0</ele><time>2026-04-10T17:11:41.999Z</time></trkpt><trkpt lat="45.03916034328589" lon="7.903868454713124"><ele>297.0</ele><time>2026-04-10T17:11:42.999Z</time></trkpt><trkpt lat="45.03908039141114" lon="7.903893756218245"><ele>297.0</ele><time>2026-04-10T17:11:43.999Z</time></trkpt><trkpt lat="45.038998206966895" lon="7.903914153506801"><ele>297.0</ele><time>2026-04-10T17:11:44.999Z</time></trkpt><trkpt lat="45.03891402761532" lon="7.903938149095113"><ele>297.0</ele><time>2026-04-10T17:11:45.999Z</time></trkpt><trkpt lat="45.038830643921706" lon="7.9039711442553315"><ele>297.0</ele><time>2026-04-10T17:11:46.999Z</time></trkpt><trkpt lat="45.03874772215502" lon="7.904002923794814"><ele>297.0</ele><time>2026-04-10T17:11:47.999Z</time></trkpt><trkpt lat="45.038663721758624" lon="7.9040286236385935"><ele>297.0</ele><time>2026-04-10T17:11:48.999Z</time></trkpt><trkpt lat="45.03857811540539" lon="7.904045777398534"><ele>297.0</ele><time>2026-04-10T17:11:50Z</time></trkpt><trkpt lat="45.03849138842318" lon="7.904072189420233"><ele>297.0</ele><time>2026-04-10T17:11:51Z</time></trkpt><trkpt lat="45.03840597472752" lon="7.904102868199618"><ele>297.0</ele><time>2026-04-10T17:11:52Z</time></trkpt><trkpt lat="45.03832683105592" lon="7.904126188992248"><ele>297.0</ele><time>2026-04-10T17:11:53Z</time></trkpt><trkpt lat="45.03825625868912" lon="7.904149649724291"><ele>297.0</ele><time>2026-04-10T17:11:54Z</time></trkpt><trkpt lat="45.03818843781016" lon="7.904164375568346"><ele>297.0</ele><time>2026-04-10T17:11:55Z</time></trkpt><trkpt lat="45.0381047114118" lon="7.904184779022273"><ele>297.0</ele><time>2026-04-10T17:11:57Z</time></trkpt><trkpt lat="45.038037525026425" lon="7.904224433757085"><ele>297.0</ele><time>2026-04-10T17:12:06Z</time></trkpt><trkpt lat="45.03796432820879" lon="7.904257101988025"><ele>296.4</ele><time>2026-04-10T17:12:09Z</time></trkpt><trkpt lat="45.037892724950446" lon="7.9043191268750395"><ele>295.79999999999995</ele><time>2026-04-10T17:12:11Z</time></trkpt><trkpt lat="45.03780471837404" lon="7.9043965054830085"><ele>295.2</ele><time>2026-04-10T17:12:13Z</time></trkpt><trkpt lat="45.03771689087328" lon="7.904476045168986"><ele>294.59999999999997</ele><time>2026-04-10T17:12:15Z</time></trkpt><trkpt lat="45.03763883508679" lon="7.904571027607662"><ele>294.0</ele><time>2026-04-10T17:12:17Z</time></trkpt><trkpt lat="45.037547217127916" lon="7.904622056072975"><ele>294.0</ele><time>2026-04-10T17:12:19Z</time></trkpt><trkpt lat="45.03747365343138" lon="7.904674676134408"><ele>294.0</ele><time>2026-04-10T17:12:21Z</time></trkpt><trkpt lat="45.037395387753655" lon="7.90474018712441"><ele>294.0</ele><time>2026-04-10T17:12:23Z</time></trkpt><trkpt lat="45.03730192085738" lon="7.904753782844231"><ele>294.0</ele><time>2026-04-10T17:12:25Z</time></trkpt><trkpt lat="45.03720866740886" lon="7.904777521083998"><ele>294.0</ele><time>2026-04-10T17:12:27Z</time></trkpt><trkpt lat="45.03710907963788" lon="7.904746275137372"><ele>294.0</ele><time>2026-04-10T17:12:29Z</time></trkpt><trkpt lat="45.037004831745605" lon="7.904720946352395"><ele>294.0</ele><time>2026-04-10T17:12:31Z</time></trkpt><trkpt lat="45.03689921622832" lon="7.904687586524136"><ele>294.0</ele><time>2026-04-10T17:12:33Z</time></trkpt><trkpt lat="45.036785870783184" lon="7.904666787330746"><ele>294.0</ele><time>2026-04-10T17:12:35Z</time></trkpt><trkpt lat="45.0366879313364" lon="7.90460529784358"><ele>294.0</ele><time>2026-04-10T17:12:37Z</time></trkpt><trkpt lat="45.036584438258" lon="7.90458736566258"><ele>294.5</ele><time>2026-04-10T17:12:39Z</time></trkpt><trkpt lat="45.03647822337289" lon="7.904550745412901"><ele>295.0</ele><time>2026-04-10T17:12:41Z</time></trkpt><trkpt lat="45.036362221361834" lon="7.904531076493448"><ele>295.5</ele><time>2026-04-10T17:12:43Z</time></trkpt><trkpt lat="45.0362420529332" lon="7.904520442906866"><ele>296.0</ele><time>2026-04-10T17:12:45Z</time></trkpt><trkpt lat="45.03611910757066" lon="7.9045307196615315"><ele>296.0</ele><time>2026-04-10T17:12:46.999Z</time></trkpt><trkpt lat="45.036055949425" lon="7.904537007829409"><ele>296.0</ele><time>2026-04-10T17:12:47.999Z</time></trkpt><trkpt lat="45.03594023011344" lon="7.9045464292988505"><ele>296.0</ele><time>2026-04-10T17:12:49.999Z</time></trkpt><trkpt lat="45.03581931782965" lon="7.904559409938163"><ele>296.0</ele><time>2026-04-10T17:12:51.999Z</time></trkpt><trkpt lat="45.03575628408744" lon="7.904562484205688"><ele>296.0</ele><time>2026-04-10T17:12:52.999Z</time></trkpt><trkpt lat="45.03563731834483" lon="7.904565897668534"><ele>295.5</ele><time>2026-04-10T17:12:54.999Z</time></trkpt><trkpt lat="45.03557254656763" lon="7.904555949037133"><ele>295.0</ele><time>2026-04-10T17:12:55.999Z</time></trkpt><trkpt lat="45.035446832807594" lon="7.904519700510819"><ele>294.5</ele><time>2026-04-10T17:12:57.999Z</time></trkpt><trkpt lat="45.035385386202165" lon="7.904489488886141"><ele>294.0</ele><time>2026-04-10T17:12:58.999Z</time></trkpt><trkpt lat="45.03533504886585" lon="7.904431835551923"><ele>293.5</ele><time>2026-04-10T17:12:59.999Z</time></trkpt><trkpt lat="45.035267841395" lon="7.904409659132143"><ele>293.0</ele><time>2026-04-10T17:13:00.999Z</time></trkpt><trkpt lat="45.035213098345565" lon="7.904360108363545"><ele>292.99999999999994</ele><time>2026-04-10T17:13:01.999Z</time></trkpt><trkpt lat="45.03515627386478" lon="7.904314474362766"><ele>293.0</ele><time>2026-04-10T17:13:02.999Z</time></trkpt><trkpt lat="45.03510092665943" lon="7.904267798209948"><ele>293.0</ele><time>2026-04-10T17:13:03.999Z</time></trkpt><trkpt lat="45.03504453971385" lon="7.904219266980612"><ele>293.0</ele><time>2026-04-10T17:13:04.999Z</time></trkpt><trkpt lat="45.03498928447193" lon="7.904170176330582"><ele>293.0</ele><time>2026-04-10T17:13:05.999Z</time></trkpt><trkpt lat="45.034930338846145" lon="7.904126775142192"><ele>292.99999999999994</ele><time>2026-04-10T17:13:06.999Z</time></trkpt><trkpt lat="45.03488152776293" lon="7.904064006567508"><ele>293.0</ele><time>2026-04-10T17:13:07.999Z</time></trkpt><trkpt lat="45.034817344430316" lon="7.90404144040701"><ele>292.6</ele><time>2026-04-10T17:13:08.999Z</time></trkpt><trkpt lat="45.034769000166335" lon="7.903981657519931"><ele>292.20000000000005</ele><time>2026-04-10T17:13:09.999Z</time></trkpt><trkpt lat="45.03465101841937" lon="7.903918665095513"><ele>291.8</ele><time>2026-04-10T17:13:11.999Z</time></trkpt><trkpt lat="45.03454160489985" lon="7.903855022802525"><ele>291.40000000000003</ele><time>2026-04-10T17:13:13.999Z</time></trkpt><trkpt lat="45.03442685837891" lon="7.903803712179386"><ele>291.0</ele><time>2026-04-10T17:13:15.999Z</time></trkpt><trkpt lat="45.03437051765857" lon="7.9037570599527305"><ele>291.0</ele><time>2026-04-10T17:13:16.999Z</time></trkpt><trkpt lat="45.03425658229515" lon="7.903721999908455"><ele>291.0</ele><time>2026-04-10T17:13:18.999Z</time></trkpt><trkpt lat="45.034145879625065" lon="7.903701243310933"><ele>291.0</ele><time>2026-04-10T17:13:20.999Z</time></trkpt><trkpt lat="45.03403268524056" lon="7.903689874961133"><ele>291.0</ele><time>2026-04-10T17:13:22.999Z</time></trkpt><trkpt lat="45.03392131331883" lon="7.903690753705654"><ele>292.0</ele><time>2026-04-10T17:13:24.999Z</time></trkpt><trkpt lat="45.03380807541248" lon="7.903708631012063"><ele>293.0</ele><time>2026-04-10T17:13:26.999Z</time></trkpt><trkpt lat="45.033704849223064" lon="7.903763378253716"><ele>294.0</ele><time>2026-04-10T17:13:28.999Z</time></trkpt><trkpt lat="45.033615590408495" lon="7.903824424896911"><ele>295.0</ele><time>2026-04-10T17:13:30.999Z</time></trkpt><trkpt lat="45.033530314304386" lon="7.903890382719836"><ele>296.0</ele><time>2026-04-10T17:13:32.999Z</time></trkpt><trkpt lat="45.03344713052604" lon="7.903952501829406"><ele>296.0</ele><time>2026-04-10T17:13:34.999Z</time></trkpt><trkpt lat="45.033386525413945" lon="7.903998482302287"><ele>296.0</ele><time>2026-04-10T17:13:36.999Z</time></trkpt><trkpt lat="45.03330882696032" lon="7.904098485939055"><ele>296.0</ele><time>2026-04-10T17:13:38.999Z</time></trkpt><trkpt lat="45.03324025266157" lon="7.904145658287702"><ele>296.0</ele><time>2026-04-10T17:13:41.999Z</time></trkpt><trkpt lat="45.033170006710336" lon="7.904240903903759"><ele>296.0</ele><time>2026-04-10T17:13:42.999Z</time></trkpt><trkpt lat="45.03310448707167" lon="7.9043042291327446"><ele>296.0</ele><time>2026-04-10T17:13:44.999Z</time></trkpt><trkpt lat="45.03303346687812" lon="7.904358789388676"><ele>297.5</ele><time>2026-04-10T17:13:46.999Z</time></trkpt><trkpt lat="45.032981343330135" lon="7.904451999079556"><ele>299.0</ele><time>2026-04-10T17:13:48.999Z</time></trkpt><trkpt lat="45.032919960323895" lon="7.90451761805902"><ele>300.5</ele><time>2026-04-10T17:13:50.999Z</time></trkpt><trkpt lat="45.03285715649979" lon="7.904583083592416"><ele>302.0</ele><time>2026-04-10T17:13:52.999Z</time></trkpt><trkpt lat="45.03280581832075" lon="7.9046476201821525"><ele>303.5</ele><time>2026-04-10T17:13:54.999Z</time></trkpt><trkpt lat="45.03273641100939" lon="7.9047224836807075"><ele>305.0</ele><time>2026-04-10T17:13:57Z</time></trkpt><trkpt lat="45.032691221634956" lon="7.904798709964645"><ele>305.0</ele><time>2026-04-10T17:13:59Z</time></trkpt><trkpt lat="45.03263509543222" lon="7.904861637054594"><ele>305.0</ele><time>2026-04-10T17:14:01Z</time></trkpt><trkpt lat="45.03257883254113" lon="7.904927968813215"><ele>305.0</ele><time>2026-04-10T17:14:03Z</time></trkpt><trkpt lat="45.032529052655285" lon="7.9050078369764964"><ele>305.0</ele><time>2026-04-10T17:14:05Z</time></trkpt><trkpt lat="45.03248761308814" lon="7.905084615899665"><ele>305.0</ele><time>2026-04-10T17:14:07Z</time></trkpt><trkpt lat="45.032452685277995" lon="7.905159793188789"><ele>305.0</ele><time>2026-04-10T17:14:09Z</time></trkpt><trkpt lat="45.03241881586328" lon="7.905243657165451"><ele>305.0</ele><time>2026-04-10T17:14:11Z</time></trkpt><trkpt lat="45.03238705881288" lon="7.905324133492789"><ele>305.5714285714286</ele><time>2026-04-10T17:14:13Z</time></trkpt><trkpt lat="45.03233523921913" lon="7.905400055806827"><ele>306.1428571428571</ele><time>2026-04-10T17:14:17Z</time></trkpt><trkpt lat="45.032285182376405" lon="7.905473785040959"><ele>306.7142857142857</ele><time>2026-04-10T17:14:20Z</time></trkpt><trkpt lat="45.0322301316213" lon="7.905540363384557"><ele>307.28571428571433</ele><time>2026-04-10T17:14:23Z</time></trkpt><trkpt lat="45.032175856584466" lon="7.905606170945397"><ele>307.8571428571429</ele><time>2026-04-10T17:14:26Z</time></trkpt><trkpt lat="45.0321079069954" lon="7.905670476019544"><ele>308.42857142857144</ele><time>2026-04-10T17:14:30Z</time></trkpt><trkpt lat="45.032047529844384" lon="7.90572501973207"><ele>309.0</ele><time>2026-04-10T17:14:33Z</time></trkpt><trkpt lat="45.031981841745434" lon="7.905767061803724"><ele>309.00000000000006</ele><time>2026-04-10T17:14:36Z</time></trkpt><trkpt lat="45.031909493774485" lon="7.905802388005306"><ele>309.0</ele><time>2026-04-10T17:14:39Z</time></trkpt><trkpt lat="45.031849900443774" lon="7.90583285740943"><ele>309.0</ele><time>2026-04-10T17:14:42Z</time></trkpt><trkpt lat="45.031783890936644" lon="7.905851463434457"><ele>309.0</ele><time>2026-04-10T17:14:45Z</time></trkpt><trkpt lat="45.031712257818924" lon="7.905864370609872"><ele>309.0</ele><time>2026-04-10T17:14:47.999Z</time></trkpt><trkpt lat="45.0316323270796" lon="7.905871672281542"><ele>309.00000000000006</ele><time>2026-04-10T17:14:49.999Z</time></trkpt><trkpt lat="45.03155282046169" lon="7.9058702394061715"><ele>309.0</ele><time>2026-04-10T17:14:52.999Z</time></trkpt><trkpt lat="45.03147355159589" lon="7.905860018003258"><ele>308.6666666666667</ele><time>2026-04-10T17:14:55.999Z</time></trkpt><trkpt lat="45.03139520553289" lon="7.905850063568685"><ele>308.3333333333333</ele><time>2026-04-10T17:14:58.999Z</time></trkpt><trkpt lat="45.0313181829171" lon="7.905827355991937"><ele>308.0</ele><time>2026-04-10T17:15:01.999Z</time></trkpt><trkpt lat="45.03123625922368" lon="7.905792046006143"><ele>307.66666666666663</ele><time>2026-04-10T17:15:05.999Z</time></trkpt><trkpt lat="45.03115331133089" lon="7.905770057802628"><ele>307.3333333333333</ele><time>2026-04-10T17:15:08.999Z</time></trkpt><trkpt lat="45.03108062235977" lon="7.905748031413457"><ele>307.0</ele><time>2026-04-10T17:15:11.999Z</time></trkpt><trkpt lat="45.03101074246785" lon="7.905721462294966"><ele>307.0</ele><time>2026-04-10T17:15:14.999Z</time></trkpt><trkpt lat="45.03094040625451" lon="7.905703080448682"><ele>307.0</ele><time>2026-04-10T17:15:16.999Z</time></trkpt><trkpt lat="45.03084020136772" lon="7.905674694159961"><ele>307.0</ele><time>2026-04-10T17:15:18.999Z</time></trkpt><trkpt lat="45.03074395485609" lon="7.905637579645834"><ele>307.0</ele><time>2026-04-10T17:15:20.999Z</time></trkpt><trkpt lat="45.030631939973944" lon="7.905616873846179"><ele>307.0</ele><time>2026-04-10T17:15:22.999Z</time></trkpt><trkpt lat="45.030511149253776" lon="7.905590278122357"><ele>307.2</ele><time>2026-04-10T17:15:24.999Z</time></trkpt><trkpt lat="45.03039056181009" lon="7.905563346600552"><ele>307.4</ele><time>2026-04-10T17:15:26.999Z</time></trkpt><trkpt lat="45.03027289744636" lon="7.905540303877108"><ele>307.6</ele><time>2026-04-10T17:15:28.999Z</time></trkpt><trkpt lat="45.03021236846205" lon="7.905504667080198"><ele>307.8</ele><time>2026-04-10T17:15:29.999Z</time></trkpt><trkpt lat="45.03010022043295" lon="7.905478281755938"><ele>308.0</ele><time>2026-04-10T17:15:31.999Z</time></trkpt><trkpt lat="45.03000685202105" lon="7.905455242798703"><ele>307.0</ele><time>2026-04-10T17:15:33.999Z</time></trkpt><trkpt lat="45.02994407435782" lon="7.905439752261901"><ele>306.0</ele><time>2026-04-10T17:15:35.999Z</time></trkpt><trkpt lat="45.029909307277734" lon="7.905609162929012"><ele>305.0</ele><time>2026-04-10T17:15:36.999Z</time></trkpt><trkpt lat="45.0298875844961" lon="7.905718434546397"><ele>304.0</ele><time>2026-04-10T17:15:38.999Z</time></trkpt><trkpt lat="45.0298632017244" lon="7.90584293091975"><ele>303.0</ele><time>2026-04-10T17:15:40.999Z</time></trkpt><trkpt lat="45.02982223965292" lon="7.90600802520387"><ele>302.0</ele><time>2026-04-10T17:15:42.999Z</time></trkpt><trkpt lat="45.029796565424256" lon="7.9061001476971775"><ele>301.0</ele><time>2026-04-10T17:15:43.999Z</time></trkpt><trkpt lat="45.02976882393477" lon="7.906182480608526"><ele>300.0</ele><time>2026-04-10T17:15:44.999Z</time></trkpt><trkpt lat="45.02972842944273" lon="7.906338480498122"><ele>299.0</ele><time>2026-04-10T17:15:46.999Z</time></trkpt><trkpt lat="45.02968424403964" lon="7.906510461924706"><ele>298.0</ele><time>2026-04-10T17:15:48.999Z</time></trkpt><trkpt lat="45.02966028863565" lon="7.906608088649156"><ele>298.0</ele><time>2026-04-10T17:15:49.999Z</time></trkpt><trkpt lat="45.02963560990827" lon="7.906708996126345"><ele>298.0</ele><time>2026-04-10T17:15:50.999Z</time></trkpt><trkpt lat="45.02960969046569" lon="7.906811632096292"><ele>298.0</ele><time>2026-04-10T17:15:51.999Z</time></trkpt><trkpt lat="45.02956214354688" lon="7.906898596141957"><ele>298.0</ele><time>2026-04-10T17:15:52.999Z</time></trkpt><trkpt lat="45.02952199835607" lon="7.906994392306441"><ele>298.0</ele><time>2026-04-10T17:15:53.999Z</time></trkpt><trkpt lat="45.02947768249041" lon="7.907080804584228"><ele>298.0</ele><time>2026-04-10T17:15:54.999Z</time></trkpt><trkpt lat="45.02942891365491" lon="7.907157886891438"><ele>297.8</ele><time>2026-04-10T17:15:55.999Z</time></trkpt><trkpt lat="45.02936952120678" lon="7.907219657782284"><ele>297.6</ele><time>2026-04-10T17:15:56.999Z</time></trkpt><trkpt lat="45.0292594485462" lon="7.9072926008390985"><ele>297.4</ele><time>2026-04-10T17:15:58.999Z</time></trkpt><trkpt lat="45.02916385182787" lon="7.907334896014721"><ele>297.2</ele><time>2026-04-10T17:16:00.999Z</time></trkpt><trkpt lat="45.029070071935934" lon="7.907361461660699"><ele>297.0</ele><time>2026-04-10T17:16:03Z</time></trkpt><trkpt lat="45.02896155883682" lon="7.907369518379883"><ele>296.4</ele><time>2026-04-10T17:16:05Z</time></trkpt><trkpt lat="45.02884177957852" lon="7.907360887693808"><ele>295.79999999999995</ele><time>2026-04-10T17:16:07Z</time></trkpt><trkpt lat="45.02877609719345" lon="7.907364950296589"><ele>295.2</ele><time>2026-04-10T17:16:08Z</time></trkpt><trkpt lat="45.028645695024565" lon="7.907394561199281"><ele>294.59999999999997</ele><time>2026-04-10T17:16:10Z</time></trkpt><trkpt lat="45.028581967624675" lon="7.907420716479027"><ele>294.0</ele><time>2026-04-10T17:16:11Z</time></trkpt><trkpt lat="45.028466310489605" lon="7.907474935270456"><ele>294.0</ele><time>2026-04-10T17:16:13Z</time></trkpt><trkpt lat="45.02835928939342" lon="7.907520074978483"><ele>294.0</ele><time>2026-04-10T17:16:15Z</time></trkpt><trkpt lat="45.02824789796783" lon="7.907566172480788"><ele>294.0</ele><time>2026-04-10T17:16:17Z</time></trkpt><trkpt lat="45.028139627779524" lon="7.90761296603853"><ele>294.0</ele><time>2026-04-10T17:16:19Z</time></trkpt><trkpt lat="45.02802795646326" lon="7.907658313870823"><ele>293.59999999999997</ele><time>2026-04-10T17:16:21Z</time></trkpt><trkpt lat="45.027919988299125" lon="7.907677441414993"><ele>293.2</ele><time>2026-04-10T17:16:23Z</time></trkpt><trkpt lat="45.02780382579642" lon="7.907675005970569"><ele>292.79999999999995</ele><time>2026-04-10T17:16:25Z</time></trkpt><trkpt lat="45.027680450896" lon="7.907666205070599"><ele>292.4</ele><time>2026-04-10T17:16:27Z</time></trkpt><trkpt lat="45.02761711637185" lon="7.907661085143879"><ele>292.0</ele><time>2026-04-10T17:16:28Z</time></trkpt><trkpt lat="45.02755188295782" lon="7.907654707159621"><ele>292.0</ele><time>2026-04-10T17:16:29Z</time></trkpt><trkpt lat="45.02748791120615" lon="7.90764845253011"><ele>292.0</ele><time>2026-04-10T17:16:30Z</time></trkpt><trkpt lat="45.02736438664826" lon="7.9076375227475095"><ele>292.0</ele><time>2026-04-10T17:16:32Z</time></trkpt><trkpt lat="45.02730059453514" lon="7.907632542301581"><ele>292.0</ele><time>2026-04-10T17:16:33Z</time></trkpt><trkpt lat="45.027235893938204" lon="7.907627490921669"><ele>292.0</ele><time>2026-04-10T17:16:34Z</time></trkpt><trkpt lat="45.0271109140423" lon="7.907617733357003"><ele>292.0</ele><time>2026-04-10T17:16:36Z</time></trkpt><trkpt lat="45.02699164178827" lon="7.907607075250395"><ele>291.8333333333333</ele><time>2026-04-10T17:16:38Z</time></trkpt><trkpt lat="45.026928453373394" lon="7.90760140446383"><ele>291.66666666666663</ele><time>2026-04-10T17:16:39Z</time></trkpt><trkpt lat="45.026864931947536" lon="7.907596107363567"><ele>291.5</ele><time>2026-04-10T17:16:40Z</time></trkpt><trkpt lat="45.02674319299048" lon="7.907583722903971"><ele>291.3333333333333</ele><time>2026-04-10T17:16:42Z</time></trkpt><trkpt lat="45.02668033801103" lon="7.90757334825998"><ele>291.1666666666667</ele><time>2026-04-10T17:16:43Z</time></trkpt><trkpt lat="45.026563748408904" lon="7.907544499006204"><ele>291.0</ele><time>2026-04-10T17:16:45Z</time></trkpt><trkpt lat="45.02649929764418" lon="7.907523849099866"><ele>290.6</ele><time>2026-04-10T17:16:46Z</time></trkpt><trkpt lat="45.02642924048938" lon="7.907498308196087"><ele>290.20000000000005</ele><time>2026-04-10T17:16:47Z</time></trkpt><trkpt lat="45.02630836694403" lon="7.907451308925859"><ele>289.79999999999995</ele><time>2026-04-10T17:16:49Z</time></trkpt><trkpt lat="45.02618742287893" lon="7.907400839629806"><ele>289.4</ele><time>2026-04-10T17:16:51Z</time></trkpt><trkpt lat="45.026124250576565" lon="7.907374478174107"><ele>289.0</ele><time>2026-04-10T17:16:52Z</time></trkpt><trkpt lat="45.0260605766918" lon="7.907347907418417"><ele>289.0</ele><time>2026-04-10T17:16:53Z</time></trkpt><trkpt lat="45.025996902203325" lon="7.9073209775184905"><ele>289.0</ele><time>2026-04-10T17:16:54Z</time></trkpt><trkpt lat="45.025936501376776" lon="7.9072946267755535"><ele>289.0</ele><time>2026-04-10T17:16:54.999Z</time></trkpt><trkpt lat="45.025865688332914" lon="7.907263735593622"><ele>289.0</ele><time>2026-04-10T17:16:55.999Z</time></trkpt><trkpt lat="45.025803375675935" lon="7.907236550823264"><ele>289.0</ele><time>2026-04-10T17:16:56.999Z</time></trkpt><trkpt lat="45.025738341845944" lon="7.9072081789335895"><ele>289.0</ele><time>2026-04-10T17:16:57.999Z</time></trkpt><trkpt lat="45.025674434696825" lon="7.907180298558969"><ele>289.0</ele><time>2026-04-10T17:16:58.999Z</time></trkpt><trkpt lat="45.02561032993521" lon="7.907152331978135"><ele>288.57142857142856</ele><time>2026-04-10T17:16:59.999Z</time></trkpt><trkpt lat="45.025543500515866" lon="7.907123499935233"><ele>288.1428571428571</ele><time>2026-04-10T17:17:00.999Z</time></trkpt><trkpt lat="45.02547845787226" lon="7.907096337738346"><ele>287.71428571428567</ele><time>2026-04-10T17:17:01.999Z</time></trkpt><trkpt lat="45.02541228156257" lon="7.907068702109354"><ele>287.2857142857143</ele><time>2026-04-10T17:17:02.999Z</time></trkpt><trkpt lat="45.0253502789755" lon="7.907042809446616"><ele>286.85714285714283</ele><time>2026-04-10T17:17:03.999Z</time></trkpt><trkpt lat="45.02528405780398" lon="7.9070151550982155"><ele>286.4285714285714</ele><time>2026-04-10T17:17:04.999Z</time></trkpt><trkpt lat="45.025220230368255" lon="7.906988500379432"><ele>286.0</ele><time>2026-04-10T17:17:05.999Z</time></trkpt><trkpt lat="45.02515677015994" lon="7.906962775784384"><ele>286.0</ele><time>2026-04-10T17:17:06.999Z</time></trkpt><trkpt lat="45.02504041498794" lon="7.906918440668932"><ele>286.0</ele><time>2026-04-10T17:17:08.999Z</time></trkpt><trkpt lat="45.02492811880591" lon="7.906880638150931"><ele>286.0</ele><time>2026-04-10T17:17:10.999Z</time></trkpt><trkpt lat="45.024815466560995" lon="7.906847494019752"><ele>286.0</ele><time>2026-04-10T17:17:12.999Z</time></trkpt><trkpt lat="45.024695239484494" lon="7.906817514477329"><ele>285.8333333333333</ele><time>2026-04-10T17:17:14.999Z</time></trkpt><trkpt lat="45.02463263808206" lon="7.906802821369828"><ele>285.66666666666663</ele><time>2026-04-10T17:17:15.999Z</time></trkpt><trkpt lat="45.02456977747239" lon="7.906788490729196"><ele>285.5</ele><time>2026-04-10T17:17:16.999Z</time></trkpt><trkpt lat="45.0244473241903" lon="7.9067630746914785"><ele>285.3333333333333</ele><time>2026-04-10T17:17:18.999Z</time></trkpt><trkpt lat="45.0243226009789" lon="7.906737187503482"><ele>285.1666666666667</ele><time>2026-04-10T17:17:20.999Z</time></trkpt><trkpt lat="45.02425605039069" lon="7.906723374458691"><ele>285.0</ele><time>2026-04-10T17:17:21.999Z</time></trkpt><trkpt lat="45.02413844177503" lon="7.9066997966018775"><ele>285.0</ele><time>2026-04-10T17:17:23.999Z</time></trkpt><trkpt lat="45.02407448450704" lon="7.906687650523022"><ele>285.0</ele><time>2026-04-10T17:17:24.999Z</time></trkpt><trkpt lat="45.023955421263295" lon="7.9066655306438145"><ele>285.0</ele><time>2026-04-10T17:17:26.999Z</time></trkpt><trkpt lat="45.023836735011535" lon="7.906644078015677"><ele>285.0</ele><time>2026-04-10T17:17:28.999Z</time></trkpt><trkpt lat="45.02371843766481" lon="7.9066226956793635"><ele>285.0</ele><time>2026-04-10T17:17:30.999Z</time></trkpt><trkpt lat="45.023601959755005" lon="7.90660164221942"><ele>285.0</ele><time>2026-04-10T17:17:32.999Z</time></trkpt><trkpt lat="45.02350036356974" lon="7.906583278637291"><ele>285.0</ele><time>2026-04-10T17:17:34.999Z</time></trkpt><trkpt lat="45.02339077322455" lon="7.906562118101237"><ele>285.0</ele><time>2026-04-10T17:17:36.999Z</time></trkpt><trkpt lat="45.02328537472932" lon="7.906541625278196"><ele>285.0</ele><time>2026-04-10T17:17:38.999Z</time></trkpt><trkpt lat="45.02318070782119" lon="7.90652127469861"><ele>285.0</ele><time>2026-04-10T17:17:40.999Z</time></trkpt><trkpt lat="45.02307382376399" lon="7.906500493026115"><ele>285.0</ele><time>2026-04-10T17:17:42.999Z</time></trkpt><trkpt lat="45.022960165062514" lon="7.906478410706686"><ele>285.0</ele><time>2026-04-10T17:17:44.999Z</time></trkpt><trkpt lat="45.02284438023724" lon="7.9064559202985825"><ele>285.0</ele><time>2026-04-10T17:17:46.999Z</time></trkpt><trkpt lat="45.022720720340814" lon="7.9064319002141605"><ele>285.0</ele><time>2026-04-10T17:17:48.999Z</time></trkpt><trkpt lat="45.022600662196076" lon="7.906408579734044"><ele>284.6</ele><time>2026-04-10T17:17:50.999Z</time></trkpt><trkpt lat="45.022474830610186" lon="7.906384912908873"><ele>284.2</ele><time>2026-04-10T17:17:52.999Z</time></trkpt><trkpt lat="45.02236276951639" lon="7.906364285948874"><ele>283.8</ele><time>2026-04-10T17:17:54.999Z</time></trkpt><trkpt lat="45.02225508635831" lon="7.906344464823151"><ele>283.4</ele><time>2026-04-10T17:17:56.999Z</time></trkpt><trkpt lat="45.022162551131316" lon="7.906328090012518"><ele>283.0</ele><time>2026-04-10T17:17:58.999Z</time></trkpt><trkpt lat="45.02210684980423" lon="7.906540575641313"><ele>283.0</ele><time>2026-04-10T17:18:02.999Z</time></trkpt><trkpt lat="45.022095956806204" lon="7.90668526038502"><ele>283.0</ele><time>2026-04-10T17:18:04.999Z</time></trkpt><trkpt lat="45.022077200941894" lon="7.906861070653023"><ele>283.0</ele><time>2026-04-10T17:18:06.999Z</time></trkpt><trkpt lat="45.022069897795525" lon="7.906955961170629"><ele>283.0</ele><time>2026-04-10T17:18:08Z</time></trkpt><trkpt lat="45.022059954654765" lon="7.90705048270413"><ele>283.0</ele><time>2026-04-10T17:18:09Z</time></trkpt><trkpt lat="45.022051844688626" lon="7.90714448614749"><ele>283.0</ele><time>2026-04-10T17:18:10Z</time></trkpt><trkpt lat="45.02204183019483" lon="7.9072416064330335"><ele>282.57142857142856</ele><time>2026-04-10T17:18:11Z</time></trkpt><trkpt lat="45.02203328160311" lon="7.907339778902156"><ele>282.14285714285717</ele><time>2026-04-10T17:18:12Z</time></trkpt><trkpt lat="45.02202419562741" lon="7.90744059139057"><ele>281.7142857142857</ele><time>2026-04-10T17:18:13Z</time></trkpt><trkpt lat="45.022012770033" lon="7.907539595035918"><ele>281.2857142857143</ele><time>2026-04-10T17:18:14Z</time></trkpt><trkpt lat="45.02200268292216" lon="7.907635383727099"><ele>280.8571428571429</ele><time>2026-04-10T17:18:15Z</time></trkpt><trkpt lat="45.02199508311085" lon="7.907732766196925"><ele>280.42857142857144</ele><time>2026-04-10T17:18:16Z</time></trkpt><trkpt lat="45.021989008782036" lon="7.90783388729618"><ele>280.0</ele><time>2026-04-10T17:18:17Z</time></trkpt><trkpt lat="45.02198130939059" lon="7.9079347077308935"><ele>279.85714285714283</ele><time>2026-04-10T17:18:18Z</time></trkpt><trkpt lat="45.0219747256846" lon="7.90803399905879"><ele>279.7142857142857</ele><time>2026-04-10T17:18:19Z</time></trkpt><trkpt lat="45.02195102995137" lon="7.908134322556901"><ele>279.57142857142856</ele><time>2026-04-10T17:18:20Z</time></trkpt><trkpt lat="45.02195669462727" lon="7.908229733133796"><ele>279.42857142857144</ele><time>2026-04-10T17:18:21Z</time></trkpt><trkpt lat="45.021930572211716" lon="7.908323987987618"><ele>279.2857142857143</ele><time>2026-04-10T17:18:22Z</time></trkpt><trkpt lat="45.021937019248284" lon="7.908419720379346"><ele>279.1428571428571</ele><time>2026-04-10T17:18:23Z</time></trkpt><trkpt lat="45.02191055523035" lon="7.90850956709352"><ele>279.0</ele><time>2026-04-10T17:18:24Z</time></trkpt><trkpt lat="45.02190075182826" lon="7.908600455254703"><ele>278.8333333333333</ele><time>2026-04-10T17:18:25Z</time></trkpt><trkpt lat="45.021891253993395" lon="7.908692560628882"><ele>278.6666666666667</ele><time>2026-04-10T17:18:26Z</time></trkpt><trkpt lat="45.02188342856227" lon="7.908785096531911"><ele>278.5</ele><time>2026-04-10T17:18:27Z</time></trkpt><trkpt lat="45.02187661273056" lon="7.908877591352427"><ele>278.33333333333337</ele><time>2026-04-10T17:18:28Z</time></trkpt><trkpt lat="45.02187002103756" lon="7.908967044439229"><ele>278.1666666666667</ele><time>2026-04-10T17:18:29Z</time></trkpt><trkpt lat="45.02184807267122" lon="7.90913226641012"><ele>278.0</ele><time>2026-04-10T17:18:31Z</time></trkpt><trkpt lat="45.02181606534158" lon="7.909281973412097"><ele>278.0</ele><time>2026-04-10T17:18:33Z</time></trkpt><trkpt lat="45.02177518133925" lon="7.909438339121341"><ele>278.0</ele><time>2026-04-10T17:18:35Z</time></trkpt><trkpt lat="45.02173449454064" lon="7.909586738798933"><ele>278.0</ele><time>2026-04-10T17:18:37Z</time></trkpt><trkpt lat="45.02169419989498" lon="7.909732492967159"><ele>278.0</ele><time>2026-04-10T17:18:39Z</time></trkpt><trkpt lat="45.02165212281219" lon="7.909880027694459"><ele>277.8</ele><time>2026-04-10T17:18:41Z</time></trkpt><trkpt lat="45.02160875626651" lon="7.910032084014361"><ele>277.6</ele><time>2026-04-10T17:18:43Z</time></trkpt><trkpt lat="45.021569527775156" lon="7.91016783304309"><ele>277.4</ele><time>2026-04-10T17:18:45Z</time></trkpt><trkpt lat="45.02152762395181" lon="7.910303028125321"><ele>277.2</ele><time>2026-04-10T17:18:47Z</time></trkpt><trkpt lat="45.021486052681354" lon="7.910437671287274"><ele>277.0</ele><time>2026-04-10T17:18:49Z</time></trkpt><trkpt lat="45.02144621059769" lon="7.910577134452742"><ele>277.0</ele><time>2026-04-10T17:18:51Z</time></trkpt><trkpt lat="45.021421565421925" lon="7.910724974821931"><ele>277.0</ele><time>2026-04-10T17:18:53Z</time></trkpt><trkpt lat="45.02143410115315" lon="7.910862961814703"><ele>277.0</ele><time>2026-04-10T17:18:55Z</time></trkpt><trkpt lat="45.021452797619446" lon="7.910986801634984"><ele>277.0</ele><time>2026-04-10T17:18:57Z</time></trkpt><trkpt lat="45.021461380662615" lon="7.911121660495399"><ele>277.0</ele><time>2026-04-10T17:18:59Z</time></trkpt><trkpt lat="45.021461593507354" lon="7.911259477955043"><ele>277.0</ele><time>2026-04-10T17:19:00.999Z</time></trkpt><trkpt lat="45.02145679383717" lon="7.911397325246216"><ele>277.0</ele><time>2026-04-10T17:19:02.999Z</time></trkpt><trkpt lat="45.02145775255339" lon="7.911543268239487"><ele>277.0</ele><time>2026-04-10T17:19:04.999Z</time></trkpt><trkpt lat="45.02145218913486" lon="7.91168380709611"><ele>277.0</ele><time>2026-04-10T17:19:06.999Z</time></trkpt><trkpt lat="45.02146685198267" lon="7.911824473920345"><ele>277.0</ele><time>2026-04-10T17:19:08.999Z</time></trkpt><trkpt lat="45.02145235389128" lon="7.911966131494726"><ele>278.0</ele><time>2026-04-10T17:19:10.999Z</time></trkpt><trkpt lat="45.02145235389121" lon="7.912109853609928"><ele>279.0</ele><time>2026-04-10T17:19:12.999Z</time></trkpt><trkpt lat="45.021437814459524" lon="7.912305790285137"><ele>280.0</ele><time>2026-04-10T17:19:15.999Z</time></trkpt><trkpt lat="45.02142247132786" lon="7.912445933807159"><ele>281.0</ele><time>2026-04-10T17:19:17.999Z</time></trkpt><trkpt lat="45.02139626950521" lon="7.9125690260885575"><ele>282.0</ele><time>2026-04-10T17:19:19.999Z</time></trkpt><trkpt lat="45.02135183342483" lon="7.912665069447293"><ele>282.0</ele><time>2026-04-10T17:19:21.999Z</time></trkpt><trkpt lat="45.02132248876146" lon="7.912789779719501"><ele>282.0</ele><time>2026-04-10T17:19:23.999Z</time></trkpt><trkpt lat="45.0213076818381" lon="7.912925078914842"><ele>282.0</ele><time>2026-04-10T17:19:25.999Z</time></trkpt><trkpt lat="45.02131559005674" lon="7.913063831474638"><ele>282.0</ele><time>2026-04-10T17:19:27.999Z</time></trkpt><trkpt lat="45.0212946157855" lon="7.913196114318548"><ele>282.0</ele><time>2026-04-10T17:19:29.999Z</time></trkpt><trkpt lat="45.021296157409175" lon="7.913320263428258"><ele>282.0</ele><time>2026-04-10T17:19:31.999Z</time></trkpt><trkpt lat="45.02127178044046" lon="7.913445249933228"><ele>282.0</ele><time>2026-04-10T17:19:33.999Z</time></trkpt><trkpt lat="45.021246971683574" lon="7.913563975541493"><ele>282.0</ele><time>2026-04-10T17:19:35.999Z</time></trkpt><trkpt lat="45.02120790517635" lon="7.913677738006649"><ele>282.0</ele><time>2026-04-10T17:19:37.999Z</time></trkpt><trkpt lat="45.0211657461115" lon="7.9137912676189535"><ele>282.0</ele><time>2026-04-10T17:19:39.999Z</time></trkpt><trkpt lat="45.02112842248576" lon="7.913904190686612"><ele>282.0</ele><time>2026-04-10T17:19:41.999Z</time></trkpt><trkpt lat="45.021102600422886" lon="7.914026357851062"><ele>282.0</ele><time>2026-04-10T17:19:43.999Z</time></trkpt><trkpt lat="45.02108783897711" lon="7.914159052410237"><ele>282.0</ele><time>2026-04-10T17:19:45.999Z</time></trkpt><trkpt lat="45.021085807349735" lon="7.914290940061435"><ele>282.0</ele><time>2026-04-10T17:19:47.999Z</time></trkpt><trkpt lat="45.02106992156248" lon="7.914404386009289"><ele>282.0</ele><time>2026-04-10T17:19:49.999Z</time></trkpt><trkpt lat="45.02107715717505" lon="7.914517070668792"><ele>282.0</ele><time>2026-04-10T17:19:51.999Z</time></trkpt><trkpt lat="45.021091286184195" lon="7.914614041715248"><ele>282.0</ele><time>2026-04-10T17:19:53.999Z</time></trkpt><trkpt lat="45.021084188646846" lon="7.914736543291496"><ele>282.0</ele><time>2026-04-10T17:19:56.999Z</time></trkpt><trkpt lat="45.021075724666176" lon="7.914873087372736"><ele>282.0</ele><time>2026-04-10T17:19:59.999Z</time></trkpt><trkpt lat="45.02107957983989" lon="7.914978855311996"><ele>282.0</ele><time>2026-04-10T17:20:01.999Z</time></trkpt><trkpt lat="45.02109045480536" lon="7.915098337083234"><ele>282.0</ele><time>2026-04-10T17:20:03.999Z</time></trkpt><trkpt lat="45.02108831011521" lon="7.915202662619609"><ele>282.0</ele><time>2026-04-10T17:20:05.999Z</time></trkpt><trkpt lat="45.02109329770914" lon="7.915316896816832"><ele>282.0</ele><time>2026-04-10T17:20:07.999Z</time></trkpt><trkpt lat="45.02109230041189" lon="7.91542871722138"><ele>282.0</ele><time>2026-04-10T17:20:10.999Z</time></trkpt><trkpt lat="45.02109714150218" lon="7.915606841942751"><ele>282.0</ele><time>2026-04-10T17:20:12.999Z</time></trkpt><trkpt lat="45.021096413527516" lon="7.91572084690401"><ele>282.0</ele><time>2026-04-10T17:20:15Z</time></trkpt><trkpt lat="45.021096511824425" lon="7.915837291183643"><ele>282.0</ele><time>2026-04-10T17:20:17Z</time></trkpt><trkpt lat="45.021100886641904" lon="7.9159543267686665"><ele>282.0</ele><time>2026-04-10T17:20:19Z</time></trkpt><trkpt lat="45.02110232269153" lon="7.916065985365796"><ele>283.1666666666667</ele><time>2026-04-10T17:20:21Z</time></trkpt><trkpt lat="45.02110557202879" lon="7.916175983189106"><ele>284.3333333333333</ele><time>2026-04-10T17:20:23Z</time></trkpt><trkpt lat="45.02110891967967" lon="7.9162784413311735"><ele>285.5</ele><time>2026-04-10T17:20:25Z</time></trkpt><trkpt lat="45.02111152040074" lon="7.916379257579748"><ele>286.66666666666663</ele><time>2026-04-10T17:20:27Z</time></trkpt><trkpt lat="45.02110436834813" lon="7.916508826256518"><ele>287.8333333333333</ele><time>2026-04-10T17:20:30Z</time></trkpt><trkpt lat="45.02109509113334" lon="7.91661993923146"><ele>289.0</ele><time>2026-04-10T17:20:33Z</time></trkpt><trkpt lat="45.02106510309354" lon="7.91671851454878"><ele>288.7142857142857</ele><time>2026-04-10T17:20:37Z</time></trkpt><trkpt lat="45.02103068248143" lon="7.916814417826693"><ele>288.42857142857144</ele><time>2026-04-10T17:20:40Z</time></trkpt><trkpt lat="45.0210057059568" lon="7.916914461183925"><ele>288.1428571428571</ele><time>2026-04-10T17:20:43Z</time></trkpt><trkpt lat="45.02098597589715" lon="7.917025543428269"><ele>287.8571428571429</ele><time>2026-04-10T17:20:47Z</time></trkpt><trkpt lat="45.02097557361983" lon="7.917130811247467"><ele>287.57142857142856</ele><time>2026-04-10T17:20:50Z</time></trkpt><trkpt lat="45.02097323975658" lon="7.917237544434569"><ele>287.2857142857143</ele><time>2026-04-10T17:20:54Z</time></trkpt><trkpt lat="45.020912138652" lon="7.917265998308005"><ele>287.0</ele><time>2026-04-10T17:20:58Z</time></trkpt><trkpt lat="45.020840528804214" lon="7.917285319665545"><ele>287.0</ele><time>2026-04-10T17:21:00Z</time></trkpt><trkpt lat="45.02075768382345" lon="7.917332878575724"><ele>287.0</ele><time>2026-04-10T17:21:03Z</time></trkpt><trkpt lat="45.020682229765164" lon="7.917400364916795"><ele>287.0</ele><time>2026-04-10T17:21:05.999Z</time></trkpt><trkpt lat="45.020620761651294" lon="7.917437443837743"><ele>287.0</ele><time>2026-04-10T17:21:38.999Z</time></trkpt><trkpt lat="45.020551769246545" lon="7.917501912730012"><ele>287.0</ele><time>2026-04-10T17:21:40.999Z</time></trkpt><trkpt lat="45.02052304002356" lon="7.917620083465702"><ele>287.0</ele><time>2026-04-10T17:21:42.999Z</time></trkpt><trkpt lat="45.020512639623306" lon="7.91776473774113"><ele>287.0</ele><time>2026-04-10T17:21:44.999Z</time></trkpt><trkpt lat="45.02051180384052" lon="7.91792042775562"><ele>287.0</ele><time>2026-04-10T17:21:46.999Z</time></trkpt><trkpt lat="45.02050127131676" lon="7.918090495195742"><ele>287.0</ele><time>2026-04-10T17:21:48.999Z</time></trkpt><trkpt lat="45.02049555725103" lon="7.918182440471759"><ele>287.0</ele><time>2026-04-10T17:21:49.999Z</time></trkpt><trkpt lat="45.02047460579308" lon="7.918349983441267"><ele>287.0</ele><time>2026-04-10T17:21:51.999Z</time></trkpt><trkpt lat="45.02046166250868" lon="7.918440114690182"><ele>286.0</ele><time>2026-04-10T17:21:52.999Z</time></trkpt><trkpt lat="45.02045557137898" lon="7.9185294049941986"><ele>285.0</ele><time>2026-04-10T17:21:53.999Z</time></trkpt><trkpt lat="45.02044485183096" lon="7.918699486067594"><ele>284.0</ele><time>2026-04-10T17:21:55.999Z</time></trkpt><trkpt lat="45.020434365628134" lon="7.918866804761139"><ele>283.0</ele><time>2026-04-10T17:21:57.999Z</time></trkpt><trkpt lat="45.020421520692246" lon="7.919042582900839"><ele>282.0</ele><time>2026-04-10T17:21:59.999Z</time></trkpt><trkpt lat="45.02040824200839" lon="7.919206959635477"><ele>282.4</ele><time>2026-04-10T17:22:01.999Z</time></trkpt><trkpt lat="45.02039603406916" lon="7.919362168953502"><ele>282.79999999999995</ele><time>2026-04-10T17:22:03.999Z</time></trkpt><trkpt lat="45.020369093782364" lon="7.919514402639219"><ele>283.2</ele><time>2026-04-10T17:22:05.999Z</time></trkpt><trkpt lat="45.02037559331702" lon="7.919676685864464"><ele>283.59999999999997</ele><time>2026-04-10T17:22:07.999Z</time></trkpt><trkpt lat="45.02035084640467" lon="7.91983092952361"><ele>284.0</ele><time>2026-04-10T17:22:09.999Z</time></trkpt><trkpt lat="45.020345807584604" lon="7.919920735594867"><ele>284.0</ele><time>2026-04-10T17:22:10.999Z</time></trkpt><trkpt lat="45.02033604472599" lon="7.920072320359674"><ele>284.0</ele><time>2026-04-10T17:22:12.999Z</time></trkpt><trkpt lat="45.02032943071976" lon="7.920224624328716"><ele>284.0</ele><time>2026-04-10T17:22:14.999Z</time></trkpt><trkpt lat="45.020349051246654" lon="7.920359353151901"><ele>284.0</ele><time>2026-04-10T17:22:16.999Z</time></trkpt><trkpt lat="45.02035597008937" lon="7.92047596994303"><ele>284.0</ele><time>2026-04-10T17:22:18.999Z</time></trkpt><trkpt lat="45.02036077704438" lon="7.920581351003726"><ele>284.0</ele><time>2026-04-10T17:22:21Z</time></trkpt><trkpt lat="45.020365626926306" lon="7.920684140329735"><ele>284.0</ele><time>2026-04-10T17:22:23Z</time></trkpt><trkpt lat="45.0203680024633" lon="7.920780097884804"><ele>284.0</ele><time>2026-04-10T17:22:25Z</time></trkpt><trkpt lat="45.0203660567755" lon="7.920906459337065"><ele>284.0</ele><time>2026-04-10T17:22:28Z</time></trkpt><trkpt lat="45.02036502868917" lon="7.921032848969409"><ele>284.0</ele><time>2026-04-10T17:22:31Z</time></trkpt><trkpt lat="45.02036816151175" lon="7.921128310359217"><ele>284.0</ele><time>2026-04-10T17:22:34Z</time></trkpt><trkpt lat="45.02036386269876" lon="7.921234493382083"><ele>284.85714285714283</ele><time>2026-04-10T17:22:37Z</time></trkpt><trkpt lat="45.020359273512724" lon="7.921323411462017"><ele>285.71428571428567</ele><time>2026-04-10T17:22:40Z</time></trkpt><trkpt lat="45.02036355099511" lon="7.92141550611096"><ele>286.57142857142856</ele><time>2026-04-10T17:22:43Z</time></trkpt><trkpt lat="45.02036164820897" lon="7.921527863694113"><ele>287.42857142857144</ele><time>2026-04-10T17:22:46Z</time></trkpt><trkpt lat="45.02036099398674" lon="7.921637506378438"><ele>288.28571428571433</ele><time>2026-04-10T17:22:49Z</time></trkpt><trkpt lat="45.020360261544475" lon="7.921736009395743"><ele>289.14285714285717</ele><time>2026-04-10T17:22:52Z</time></trkpt><trkpt lat="45.02035592952263" lon="7.921838511131845"><ele>290.0</ele><time>2026-04-10T17:22:55Z</time></trkpt><trkpt lat="45.02034983573356" lon="7.9219401738011745"><ele>290.1666666666667</ele><time>2026-04-10T17:22:58Z</time></trkpt><trkpt lat="45.020341170870964" lon="7.922035906401624"><ele>290.33333333333337</ele><time>2026-04-10T17:23:01Z</time></trkpt><trkpt lat="45.02032876528755" lon="7.922133446529202"><ele>290.5</ele><time>2026-04-10T17:23:04Z</time></trkpt><trkpt lat="45.020307902210305" lon="7.92224074193913"><ele>290.6666666666667</ele><time>2026-04-10T17:23:07Z</time></trkpt><trkpt lat="45.02028212594278" lon="7.922357248502077"><ele>290.8333333333333</ele><time>2026-04-10T17:23:09.999Z</time></trkpt><trkpt lat="45.02026598973036" lon="7.9224570403745975"><ele>291.0</ele><time>2026-04-10T17:23:12.999Z</time></trkpt><trkpt lat="45.020246078295145" lon="7.922570282747261"><ele>291.0</ele><time>2026-04-10T17:23:15.999Z</time></trkpt><trkpt lat="45.02022989054827" lon="7.922678216022102"><ele>291.0</ele><time>2026-04-10T17:23:17.999Z</time></trkpt><trkpt lat="45.02021209049919" lon="7.922776788003618"><ele>291.0</ele><time>2026-04-10T17:23:19.999Z</time></trkpt><trkpt lat="45.02020383529389" lon="7.922879387396958"><ele>291.0</ele><time>2026-04-10T17:23:21.999Z</time></trkpt><trkpt lat="45.020201628736125" lon="7.922971278055676"><ele>291.0</ele><time>2026-04-10T17:23:23.999Z</time></trkpt><trkpt lat="45.020191573979325" lon="7.923092347343686"><ele>291.0</ele><time>2026-04-10T17:23:26.999Z</time></trkpt><trkpt lat="45.02019035892329" lon="7.9231927331761485"><ele>291.0</ele><time>2026-04-10T17:24:10.999Z</time></trkpt><trkpt lat="45.02019010987268" lon="7.923314092352254"><ele>290.85714285714283</ele><time>2026-04-10T17:24:13.999Z</time></trkpt><trkpt lat="45.020191806944254" lon="7.923439015338133"><ele>290.71428571428567</ele><time>2026-04-10T17:24:16.999Z</time></trkpt><trkpt lat="45.0201947406896" lon="7.923536580705512"><ele>290.57142857142856</ele><time>2026-04-10T17:24:18.999Z</time></trkpt><trkpt lat="45.02019494121472" lon="7.923632728270082"><ele>290.42857142857144</ele><time>2026-04-10T17:24:20.999Z</time></trkpt><trkpt lat="45.020196752055405" lon="7.923731754207565"><ele>290.28571428571433</ele><time>2026-04-10T17:24:22.999Z</time></trkpt><trkpt lat="45.02020304620983" lon="7.923828916050893"><ele>290.14285714285717</ele><time>2026-04-10T17:24:24.999Z</time></trkpt><trkpt lat="45.020210402675715" lon="7.923930800423746"><ele>290.0</ele><time>2026-04-10T17:24:26.999Z</time></trkpt><trkpt lat="45.020206597942384" lon="7.9240242497154405"><ele>290.0</ele><time>2026-04-10T17:24:28.999Z</time></trkpt><trkpt lat="45.020230458086644" lon="7.924136491052343"><ele>290.0</ele><time>2026-04-10T17:24:31Z</time></trkpt><trkpt lat="45.02026541401677" lon="7.924268716778389"><ele>290.0</ele><time>2026-04-10T17:24:33Z</time></trkpt><trkpt lat="45.02029471432803" lon="7.9243980247359405"><ele>290.0</ele><time>2026-04-10T17:24:35Z</time></trkpt><trkpt lat="45.020325533417015" lon="7.924527355031182"><ele>290.0</ele><time>2026-04-10T17:24:37Z</time></trkpt><trkpt lat="45.020331888066" lon="7.92466699673906"><ele>289.6</ele><time>2026-04-10T17:24:39Z</time></trkpt><trkpt lat="45.02032175912682" lon="7.924811232430765"><ele>289.2</ele><time>2026-04-10T17:24:41Z</time></trkpt><trkpt lat="45.02031320402956" lon="7.9249446998383855"><ele>288.8</ele><time>2026-04-10T17:24:43Z</time></trkpt><trkpt lat="45.02030643652859" lon="7.925089634730902"><ele>288.4</ele><time>2026-04-10T17:24:45Z</time></trkpt><trkpt lat="45.0202902617259" lon="7.925221337242644"><ele>288.0</ele><time>2026-04-10T17:24:47Z</time></trkpt><trkpt lat="45.02028442499945" lon="7.925361392807332"><ele>287.8</ele><time>2026-04-10T17:24:49Z</time></trkpt><trkpt lat="45.02026657805867" lon="7.92550635960159"><ele>287.6</ele><time>2026-04-10T17:24:51Z</time></trkpt><trkpt lat="45.02025294607007" lon="7.9256647353578344"><ele>287.4</ele><time>2026-04-10T17:24:53Z</time></trkpt><trkpt lat="45.020219469874675" lon="7.9258168614231455"><ele>287.2</ele><time>2026-04-10T17:24:55Z</time></trkpt><trkpt lat="45.020180223347076" lon="7.925956638071079"><ele>287.0</ele><time>2026-04-10T17:24:57Z</time></trkpt><trkpt lat="45.02013416009498" lon="7.9260946452724514"><ele>286.8</ele><time>2026-04-10T17:24:59Z</time></trkpt><trkpt lat="45.02008811262265" lon="7.92625681216244"><ele>286.6</ele><time>2026-04-10T17:25:01Z</time></trkpt><trkpt lat="45.020053865842" lon="7.926403356709328"><ele>286.40000000000003</ele><time>2026-04-10T17:25:02.999Z</time></trkpt><trkpt lat="45.02002773234141" lon="7.926550655714075"><ele>286.2</ele><time>2026-04-10T17:25:04.999Z</time></trkpt><trkpt lat="45.02000372533441" lon="7.926692739806513"><ele>286.0</ele><time>2026-04-10T17:25:06.999Z</time></trkpt><trkpt lat="45.019982863598685" lon="7.926834066715902"><ele>285.6</ele><time>2026-04-10T17:25:08.999Z</time></trkpt><trkpt lat="45.019959992252765" lon="7.926986627418256"><ele>285.20000000000005</ele><time>2026-04-10T17:25:10.999Z</time></trkpt><trkpt lat="45.019944981144896" lon="7.927143112667359"><ele>284.79999999999995</ele><time>2026-04-10T17:25:12.999Z</time></trkpt><trkpt lat="45.01993148621243" lon="7.9272886294358775"><ele>284.4</ele><time>2026-04-10T17:25:14.999Z</time></trkpt><trkpt lat="45.01991872209269" lon="7.927430659617043"><ele>284.0</ele><time>2026-04-10T17:25:16.999Z</time></trkpt><trkpt lat="45.01991051899386" lon="7.927589669107483"><ele>283.59999999999997</ele><time>2026-04-10T17:25:18.999Z</time></trkpt><trkpt lat="45.019902791214164" lon="7.92774508174134"><ele>283.2</ele><time>2026-04-10T17:25:20.999Z</time></trkpt><trkpt lat="45.01990204814041" lon="7.927887025173008"><ele>282.79999999999995</ele><time>2026-04-10T17:25:22.999Z</time></trkpt><trkpt lat="45.01989414058929" lon="7.928034211488782"><ele>282.4</ele><time>2026-04-10T17:25:24.999Z</time></trkpt><trkpt lat="45.0198896954116" lon="7.92817760609689"><ele>282.0</ele><time>2026-04-10T17:25:26.999Z</time></trkpt><trkpt lat="45.01988844212395" lon="7.928310566412114"><ele>282.2</ele><time>2026-04-10T17:25:28.999Z</time></trkpt><trkpt lat="45.01988233089147" lon="7.9284540787142515"><ele>282.4</ele><time>2026-04-10T17:25:30.999Z</time></trkpt><trkpt lat="45.019879335388474" lon="7.928616366398154"><ele>282.6</ele><time>2026-04-10T17:25:32.999Z</time></trkpt><trkpt lat="45.01987635749264" lon="7.928769728309995"><ele>282.8</ele><time>2026-04-10T17:25:34.999Z</time></trkpt><trkpt lat="45.01988825502622" lon="7.928920281443978"><ele>283.0</ele><time>2026-04-10T17:25:36.999Z</time></trkpt><trkpt lat="45.01990943761767" lon="7.9290744769874175"><ele>283.0</ele><time>2026-04-10T17:25:38.999Z</time></trkpt><trkpt lat="45.019939198368604" lon="7.929233516956601"><ele>283.0</ele><time>2026-04-10T17:25:40.999Z</time></trkpt><trkpt lat="45.01997536700541" lon="7.929400503967725"><ele>283.0</ele><time>2026-04-10T17:25:42.999Z</time></trkpt><trkpt lat="45.020012829779084" lon="7.929554428611318"><ele>283.0</ele><time>2026-04-10T17:25:44.999Z</time></trkpt><trkpt lat="45.020044571723304" lon="7.929695784046666"><ele>283.2</ele><time>2026-04-10T17:25:46.999Z</time></trkpt><trkpt lat="45.020082497434835" lon="7.929828813493297"><ele>283.4</ele><time>2026-04-10T17:25:48.999Z</time></trkpt><trkpt lat="45.02012038986173" lon="7.929971412708561"><ele>283.59999999999997</ele><time>2026-04-10T17:25:50.999Z</time></trkpt><trkpt lat="45.020145824802704" lon="7.930119490515877"><ele>283.8</ele><time>2026-04-10T17:25:52.999Z</time></trkpt><trkpt lat="45.02015975075609" lon="7.930279455077405"><ele>284.0</ele><time>2026-04-10T17:25:54.999Z</time></trkpt><trkpt lat="45.02016627624602" lon="7.93037282131097"><ele>284.0</ele><time>2026-04-10T17:25:55.999Z</time></trkpt><trkpt lat="45.0201520923344" lon="7.930526835554436"><ele>284.0</ele><time>2026-04-10T17:25:57.999Z</time></trkpt><trkpt lat="45.020165122202144" lon="7.9306667090251395"><ele>284.0</ele><time>2026-04-10T17:25:59.999Z</time></trkpt><trkpt lat="45.020165721014344" lon="7.930811994313017"><ele>284.0</ele><time>2026-04-10T17:26:01.999Z</time></trkpt><trkpt lat="45.020145919939765" lon="7.930968247487756"><ele>284.0</ele><time>2026-04-10T17:26:03.999Z</time></trkpt><trkpt lat="45.02015440208446" lon="7.931125759159345"><ele>283.75</ele><time>2026-04-10T17:26:05.999Z</time></trkpt><trkpt lat="45.020145768795" lon="7.931286314867613"><ele>283.5</ele><time>2026-04-10T17:26:07.999Z</time></trkpt><trkpt lat="45.02013404781996" lon="7.931443074044855"><ele>283.25</ele><time>2026-04-10T17:26:09.999Z</time></trkpt><trkpt lat="45.020117442886225" lon="7.931598735768755"><ele>283.0</ele><time>2026-04-10T17:26:11.999Z</time></trkpt><trkpt lat="45.020105583362415" lon="7.931762208205815"><ele>283.4</ele><time>2026-04-10T17:26:13.999Z</time></trkpt><trkpt lat="45.02007817275898" lon="7.931898094369634"><ele>283.8</ele><time>2026-04-10T17:26:15.999Z</time></trkpt><trkpt lat="45.020061179110954" lon="7.932032780087167"><ele>284.2</ele><time>2026-04-10T17:26:17.999Z</time></trkpt><trkpt lat="45.02004723362032" lon="7.9321708908152955"><ele>284.6</ele><time>2026-04-10T17:26:19.999Z</time></trkpt><trkpt lat="45.02003479959787" lon="7.932313699967302"><ele>285.0</ele><time>2026-04-10T17:26:21.999Z</time></trkpt><trkpt lat="45.02002439444479" lon="7.932451164570173"><ele>285.2</ele><time>2026-04-10T17:26:23.999Z</time></trkpt><trkpt lat="45.02001582913243" lon="7.93258578054535"><ele>285.4</ele><time>2026-04-10T17:26:25.999Z</time></trkpt><trkpt lat="45.020008224664124" lon="7.932720893272994"><ele>285.6</ele><time>2026-04-10T17:26:27.999Z</time></trkpt><trkpt lat="45.02000133809621" lon="7.932843250703031"><ele>285.8</ele><time>2026-04-10T17:26:29.999Z</time></trkpt><trkpt lat="45.01999316691018" lon="7.93296633209313"><ele>286.0</ele><time>2026-04-10T17:26:32Z</time></trkpt><trkpt lat="45.019983395565625" lon="7.933085450795329"><ele>286.0</ele><time>2026-04-10T17:26:34Z</time></trkpt><trkpt lat="45.01997445893145" lon="7.933194393902662"><ele>286.0</ele><time>2026-04-10T17:26:36Z</time></trkpt><trkpt lat="45.0199656631763" lon="7.933301619589427"><ele>286.0</ele><time>2026-04-10T17:26:38Z</time></trkpt><trkpt lat="45.019957621342826" lon="7.93341122762079"><ele>286.0</ele><time>2026-04-10T17:26:40Z</time></trkpt><trkpt lat="45.0199755178932" lon="7.933520103653641"><ele>286.0</ele><time>2026-04-10T17:26:42Z</time></trkpt><trkpt lat="45.01996945129749" lon="7.933619694217959"><ele>286.0</ele><time>2026-04-10T17:26:44Z</time></trkpt><trkpt lat="45.019966458230705" lon="7.933716981852685"><ele>286.1428571428571</ele><time>2026-04-10T17:26:46Z</time></trkpt><trkpt lat="45.01995792954171" lon="7.933807609344771"><ele>286.2857142857143</ele><time>2026-04-10T17:26:48Z</time></trkpt><trkpt lat="45.0199524047522" lon="7.933905332840994"><ele>286.42857142857144</ele><time>2026-04-10T17:26:50Z</time></trkpt><trkpt lat="45.019946905745805" lon="7.934005011463574"><ele>286.57142857142856</ele><time>2026-04-10T17:26:52Z</time></trkpt><trkpt lat="45.01994608870145" lon="7.934102255586054"><ele>286.7142857142857</ele><time>2026-04-10T17:26:54Z</time></trkpt><trkpt lat="45.01994350624926" lon="7.934211170998327"><ele>286.85714285714283</ele><time>2026-04-10T17:26:56Z</time></trkpt><trkpt lat="45.0199312335594" lon="7.93432843926006"><ele>287.0</ele><time>2026-04-10T17:26:58Z</time></trkpt><trkpt lat="45.01992091569562" lon="7.93445551891767"><ele>286.6</ele><time>2026-04-10T17:27:00Z</time></trkpt><trkpt lat="45.019904742775665" lon="7.9345887129392185"><ele>286.2</ele><time>2026-04-10T17:27:02Z</time></trkpt><trkpt lat="45.019886646275296" lon="7.934718227093822"><ele>285.8</ele><time>2026-04-10T17:27:04Z</time></trkpt><trkpt lat="45.01986060492127" lon="7.934841077892249"><ele>285.4</ele><time>2026-04-10T17:27:06Z</time></trkpt><trkpt lat="45.019819775587166" lon="7.934955488558789"><ele>285.0</ele><time>2026-04-10T17:27:08Z</time></trkpt><trkpt lat="45.019775019574745" lon="7.935066476742816"><ele>284.8</ele><time>2026-04-10T17:27:10Z</time></trkpt><trkpt lat="45.01971968730124" lon="7.935133343976593"><ele>284.6</ele><time>2026-04-10T17:27:12Z</time></trkpt><trkpt lat="45.01970644228673" lon="7.935246637972625"><ele>284.4</ele><time>2026-04-10T17:27:14Z</time></trkpt><trkpt lat="45.01975387106068" lon="7.935360623784318"><ele>284.2</ele><time>2026-04-10T17:27:16Z</time></trkpt><trkpt lat="45.01977429602311" lon="7.935488680826747"><ele>284.0</ele><time>2026-04-10T17:27:18Z</time></trkpt><trkpt lat="45.01976137427245" lon="7.935644602911802"><ele>284.0</ele><time>2026-04-10T17:27:20Z</time></trkpt><trkpt lat="45.01970429256315" lon="7.935813797488292"><ele>284.0</ele><time>2026-04-10T17:27:22Z</time></trkpt><trkpt lat="45.01969489413489" lon="7.935903312960025"><ele>284.0</ele><time>2026-04-10T17:27:23Z</time></trkpt><trkpt lat="45.01968630697862" lon="7.935995162923619"><ele>284.0</ele><time>2026-04-10T17:27:24Z</time></trkpt><trkpt lat="45.01967739140571" lon="7.9360905256710765"><ele>284.0</ele><time>2026-04-10T17:27:25Z</time></trkpt><trkpt lat="45.01966908241296" lon="7.9361831124950655"><ele>284.0</ele><time>2026-04-10T17:27:26Z</time></trkpt><trkpt lat="45.01966061711719" lon="7.936281710924688"><ele>284.0</ele><time>2026-04-10T17:27:27Z</time></trkpt><trkpt lat="45.01965243718299" lon="7.936380808634631"><ele>284.0</ele><time>2026-04-10T17:27:28Z</time></trkpt><trkpt lat="45.01964555653473" lon="7.9364783006149775"><ele>284.0</ele><time>2026-04-10T17:27:29Z</time></trkpt><trkpt lat="45.019638937301686" lon="7.9365720886823645"><ele>284.0</ele><time>2026-04-10T17:27:29.999Z</time></trkpt><trkpt lat="45.01963530453256" lon="7.936666206720337"><ele>284.0</ele><time>2026-04-10T17:27:30.999Z</time></trkpt><trkpt lat="45.01963123926186" lon="7.936763225943475"><ele>284.0</ele><time>2026-04-10T17:27:31.999Z</time></trkpt><trkpt lat="45.019625593234444" lon="7.936857580050184"><ele>284.0</ele><time>2026-04-10T17:27:32.999Z</time></trkpt><trkpt lat="45.01961827085026" lon="7.936949628332357"><ele>284.0</ele><time>2026-04-10T17:27:33.999Z</time></trkpt><trkpt lat="45.01960985576232" lon="7.937042029101698"><ele>284.0</ele><time>2026-04-10T17:27:34.999Z</time></trkpt><trkpt lat="45.01958905114682" lon="7.937219045948756"><ele>284.0</ele><time>2026-04-10T17:27:36.999Z</time></trkpt><trkpt lat="45.019576280907685" lon="7.937309784930117"><ele>284.0</ele><time>2026-04-10T17:27:37.999Z</time></trkpt><trkpt lat="45.01956337203005" lon="7.937401509023513"><ele>284.0</ele><time>2026-04-10T17:27:38.999Z</time></trkpt><trkpt lat="45.01953929447878" lon="7.93757672586263"><ele>284.5</ele><time>2026-04-10T17:27:40.999Z</time></trkpt><trkpt lat="45.01951812750717" lon="7.937749711846932"><ele>285.0</ele><time>2026-04-10T17:27:42.999Z</time></trkpt><trkpt lat="45.01949764191807" lon="7.9379220887773565"><ele>285.5</ele><time>2026-04-10T17:27:44.999Z</time></trkpt><trkpt lat="45.01947817724616" lon="7.938086435138944"><ele>286.0</ele><time>2026-04-10T17:27:46.999Z</time></trkpt><trkpt lat="45.01946121715467" lon="7.938249013533037"><ele>286.25</ele><time>2026-04-10T17:27:48.999Z</time></trkpt><trkpt lat="45.019445003470935" lon="7.938414600640695"><ele>286.5</ele><time>2026-04-10T17:27:50.999Z</time></trkpt><trkpt lat="45.019432368837776" lon="7.938574318899636"><ele>286.75</ele><time>2026-04-10T17:27:52.999Z</time></trkpt><trkpt lat="45.01942602729927" lon="7.9387430794029274"><ele>287.0</ele><time>2026-04-10T17:27:54.999Z</time></trkpt><trkpt lat="45.019424453909465" lon="7.9389064391164"><ele>287.0</ele><time>2026-04-10T17:27:56.999Z</time></trkpt><trkpt lat="45.01942671064152" lon="7.939078805750638"><ele>287.0</ele><time>2026-04-10T17:27:58.999Z</time></trkpt><trkpt lat="45.01943047622177" lon="7.939238359716062"><ele>287.0</ele><time>2026-04-10T17:28:00.999Z</time></trkpt><trkpt lat="45.01943436305335" lon="7.939403051265223"><ele>287.0</ele><time>2026-04-10T17:28:02.999Z</time></trkpt><trkpt lat="45.01943848765711" lon="7.939564498552994"><ele>287.0</ele><time>2026-04-10T17:28:04.999Z</time></trkpt><trkpt lat="45.019445093545855" lon="7.939709053843025"><ele>287.0</ele><time>2026-04-10T17:28:06.999Z</time></trkpt><trkpt lat="45.019454455854095" lon="7.939849111507052"><ele>287.0</ele><time>2026-04-10T17:28:08.999Z</time></trkpt><trkpt lat="45.0194656012421" lon="7.940004691997829"><ele>287.0</ele><time>2026-04-10T17:28:10.999Z</time></trkpt><trkpt lat="45.01947633938518" lon="7.940154587719493"><ele>287.0</ele><time>2026-04-10T17:28:12.999Z</time></trkpt><trkpt lat="45.019485340248" lon="7.940301735067445"><ele>287.0</ele><time>2026-04-10T17:28:14.999Z</time></trkpt><trkpt lat="45.019494210107105" lon="7.94044743678681"><ele>287.0</ele><time>2026-04-10T17:28:16.999Z</time></trkpt><trkpt lat="45.01950178757328" lon="7.94061143218307"><ele>287.0</ele><time>2026-04-10T17:28:18.999Z</time></trkpt><trkpt lat="45.01950405391067" lon="7.94078097611632"><ele>287.0</ele><time>2026-04-10T17:28:20.999Z</time></trkpt><trkpt lat="45.01950140839924" lon="7.940960607563594"><ele>286.5</ele><time>2026-04-10T17:28:22.999Z</time></trkpt><trkpt lat="45.01949678229436" lon="7.941072981804868"><ele>286.0</ele><time>2026-04-10T17:28:23.999Z</time></trkpt><trkpt lat="45.01948552091632" lon="7.9412442305842985"><ele>285.5</ele><time>2026-04-10T17:28:25.999Z</time></trkpt><trkpt lat="45.01947881221514" lon="7.941343725225705"><ele>285.0</ele><time>2026-04-10T17:28:26.999Z</time></trkpt><trkpt lat="45.019470945612305" lon="7.941445086177298"><ele>284.5</ele><time>2026-04-10T17:28:27.999Z</time></trkpt><trkpt lat="45.0194632259831" lon="7.941541928934858"><ele>284.0</ele><time>2026-04-10T17:28:28.999Z</time></trkpt><trkpt lat="45.0194547834716" lon="7.941642129110146"><ele>284.0</ele><time>2026-04-10T17:28:29.999Z</time></trkpt><trkpt lat="45.0194454561928" lon="7.941740731760262"><ele>284.0</ele><time>2026-04-10T17:28:30.999Z</time></trkpt><trkpt lat="45.0194360913444" lon="7.941836337131549"><ele>284.0</ele><time>2026-04-10T17:28:31.999Z</time></trkpt><trkpt lat="45.01942542717223" lon="7.941935802589428"><ele>284.0</ele><time>2026-04-10T17:28:32.999Z</time></trkpt><trkpt lat="45.01941513360519" lon="7.942031811380952"><ele>284.0</ele><time>2026-04-10T17:28:33.999Z</time></trkpt><trkpt lat="45.01940358027858" lon="7.942131472546814"><ele>284.0</ele><time>2026-04-10T17:28:34.999Z</time></trkpt><trkpt lat="45.01939191664031" lon="7.942229380454357"><ele>284.0</ele><time>2026-04-10T17:28:35.999Z</time></trkpt><trkpt lat="45.01938072390559" lon="7.9423233354713965"><ele>284.0</ele><time>2026-04-10T17:28:36.999Z</time></trkpt><trkpt lat="45.01936862582939" lon="7.942418317841472"><ele>284.0</ele><time>2026-04-10T17:28:38Z</time></trkpt><trkpt lat="45.01935615872322" lon="7.9425135307592605"><ele>284.0</ele><time>2026-04-10T17:28:39Z</time></trkpt><trkpt lat="45.019341920503756" lon="7.94260668626524"><ele>284.0</ele><time>2026-04-10T17:28:40Z</time></trkpt><trkpt lat="45.01932756048742" lon="7.942697336642014"><ele>284.0</ele><time>2026-04-10T17:28:41Z</time></trkpt><trkpt lat="45.019313477847916" lon="7.94278623620372"><ele>284.0</ele><time>2026-04-10T17:28:42Z</time></trkpt><trkpt lat="45.01929680624038" lon="7.942879933831217"><ele>284.0</ele><time>2026-04-10T17:28:43Z</time></trkpt><trkpt lat="45.01926490111709" lon="7.943051036862469"><ele>284.0</ele><time>2026-04-10T17:28:45Z</time></trkpt><trkpt lat="45.01922960996997" lon="7.943215011740704"><ele>284.0</ele><time>2026-04-10T17:28:47Z</time></trkpt><trkpt lat="45.0191928771883" lon="7.943378481324529"><ele>284.0</ele><time>2026-04-10T17:28:49Z</time></trkpt><trkpt lat="45.01915540022525" lon="7.943543293012836"><ele>284.0</ele><time>2026-04-10T17:28:51Z</time></trkpt><trkpt lat="45.0191351183974" lon="7.94363066860049"><ele>284.0</ele><time>2026-04-10T17:28:52Z</time></trkpt><trkpt lat="45.01911465931582" lon="7.943718807803398"><ele>284.0</ele><time>2026-04-10T17:28:53Z</time></trkpt><trkpt lat="45.019086262275145" lon="7.9438969757165045"><ele>284.0</ele><time>2026-04-10T17:28:55Z</time></trkpt><trkpt lat="45.01908366371673" lon="7.943993455616167"><ele>284.0</ele><time>2026-04-10T17:28:56Z</time></trkpt><trkpt lat="45.0190974636768" lon="7.9440922318666845"><ele>284.0</ele><time>2026-04-10T17:28:57Z</time></trkpt><trkpt lat="45.019124068790916" lon="7.944181808130089"><ele>284.0</ele><time>2026-04-10T17:28:58Z</time></trkpt><trkpt lat="45.01915633155178" lon="7.944268436013968"><ele>284.0</ele><time>2026-04-10T17:28:59Z</time></trkpt><trkpt lat="45.01919821740925" lon="7.94434048137062"><ele>283.59999999999997</ele><time>2026-04-10T17:29:00Z</time></trkpt><trkpt lat="45.01927692736891" lon="7.944480560541851"><ele>283.2</ele><time>2026-04-10T17:29:02Z</time></trkpt><trkpt lat="45.01935553915426" lon="7.944612849293678"><ele>282.79999999999995</ele><time>2026-04-10T17:29:04Z</time></trkpt><trkpt lat="45.019431561093874" lon="7.94474763019633"><ele>282.4</ele><time>2026-04-10T17:29:06Z</time></trkpt><trkpt lat="45.019470996365186" lon="7.944819640971462"><ele>282.0</ele><time>2026-04-10T17:29:07Z</time></trkpt><trkpt lat="45.01954476224661" lon="7.94496014148651"><ele>281.75</ele><time>2026-04-10T17:29:09Z</time></trkpt><trkpt lat="45.0196165643179" lon="7.945099756697183"><ele>281.5</ele><time>2026-04-10T17:29:11Z</time></trkpt><trkpt lat="45.01968910985366" lon="7.945240103147135"><ele>281.25</ele><time>2026-04-10T17:29:13Z</time></trkpt><trkpt lat="45.019756964178384" lon="7.945382470961197"><ele>281.0</ele><time>2026-04-10T17:29:15Z</time></trkpt><trkpt lat="45.019822365276134" lon="7.94552550031933"><ele>281.0</ele><time>2026-04-10T17:29:17Z</time></trkpt><trkpt lat="45.019883545090146" lon="7.945659297908101"><ele>281.0</ele><time>2026-04-10T17:29:19Z</time></trkpt><trkpt lat="45.01994547996672" lon="7.945793859347971"><ele>281.0</ele><time>2026-04-10T17:29:21Z</time></trkpt><trkpt lat="45.02000452441349" lon="7.945920751009301"><ele>281.0</ele><time>2026-04-10T17:29:23Z</time></trkpt><trkpt lat="45.0200599196855" lon="7.946039800277962"><ele>281.0</ele><time>2026-04-10T17:29:25Z</time></trkpt><trkpt lat="45.020109012323715" lon="7.946145304631828"><ele>282.2</ele><time>2026-04-10T17:29:27Z</time></trkpt><trkpt lat="45.020159384725126" lon="7.946235208653587"><ele>283.40000000000003</ele><time>2026-04-10T17:29:29Z</time></trkpt><trkpt lat="45.0202058197604" lon="7.94634628079995"><ele>284.6</ele><time>2026-04-10T17:29:31Z</time></trkpt><trkpt lat="45.020264887807" lon="7.946461564440032"><ele>285.8</ele><time>2026-04-10T17:29:33Z</time></trkpt><trkpt lat="45.02033325869507" lon="7.946550443033014"><ele>287.0</ele><time>2026-04-10T17:29:35Z</time></trkpt><trkpt lat="45.02040265503434" lon="7.946640515531242"><ele>287.4</ele><time>2026-04-10T17:29:37Z</time></trkpt><trkpt lat="45.02046853557448" lon="7.946738533478391"><ele>287.79999999999995</ele><time>2026-04-10T17:29:38.999Z</time></trkpt><trkpt lat="45.020512811313885" lon="7.946813711329203"><ele>288.2</ele><time>2026-04-10T17:29:41.999Z</time></trkpt><trkpt lat="45.02056389687409" lon="7.946912093198189"><ele>288.59999999999997</ele><time>2026-04-10T17:29:44.999Z</time></trkpt><trkpt lat="45.02063268851952" lon="7.947011791027572"><ele>289.0</ele><time>2026-04-10T17:29:46.999Z</time></trkpt><trkpt lat="45.02072160846534" lon="7.9471393605849805"><ele>289.0</ele><time>2026-04-10T17:29:48.999Z</time></trkpt><trkpt lat="45.02079193447345" lon="7.947240254245251"><ele>289.0</ele><time>2026-04-10T17:29:50.999Z</time></trkpt><trkpt lat="45.02085896617054" lon="7.94730427730325"><ele>289.0</ele><time>2026-04-10T17:29:52.999Z</time></trkpt><trkpt lat="45.020900414606146" lon="7.947379568689497"><ele>289.0</ele><time>2026-04-10T17:29:54.999Z</time></trkpt><trkpt lat="45.02096514696858" lon="7.947449857376722"><ele>289.0</ele><time>2026-04-10T17:29:56.999Z</time></trkpt><trkpt lat="45.02101979930438" lon="7.947543772306604"><ele>289.0</ele><time>2026-04-10T17:29:58.999Z</time></trkpt><trkpt lat="45.02108888323663" lon="7.947625943437697"><ele>289.2</ele><time>2026-04-10T17:30:00.999Z</time></trkpt><trkpt lat="45.021150203458866" lon="7.947723686832025"><ele>289.4</ele><time>2026-04-10T17:30:02.999Z</time></trkpt><trkpt lat="45.02120754662075" lon="7.947824840921513"><ele>289.6</ele><time>2026-04-10T17:30:04.999Z</time></trkpt><trkpt lat="45.02126174911805" lon="7.947907667948379"><ele>289.8</ele><time>2026-04-10T17:30:06.999Z</time></trkpt><trkpt lat="45.021329739049285" lon="7.9479983637127924"><ele>290.0</ele><time>2026-04-10T17:30:08.999Z</time></trkpt><trkpt lat="45.02141501091113" lon="7.948077432434421"><ele>290.0</ele><time>2026-04-10T17:30:10.999Z</time></trkpt><trkpt lat="45.02150019552173" lon="7.948166298929165"><ele>290.0</ele><time>2026-04-10T17:30:12.999Z</time></trkpt><trkpt lat="45.02157587791507" lon="7.948255012861502"><ele>290.0</ele><time>2026-04-10T17:30:14.999Z</time></trkpt><trkpt lat="45.02162954869648" lon="7.948339632416886"><ele>290.0</ele><time>2026-04-10T17:30:16.999Z</time></trkpt><trkpt lat="45.0216561369298" lon="7.9484271831315"><ele>290.0</ele><time>2026-04-10T17:30:20.999Z</time></trkpt><trkpt lat="45.021703423473745" lon="7.948528179894904"><ele>290.0</ele><time>2026-04-10T17:30:23.999Z</time></trkpt><trkpt lat="45.02171066889073" lon="7.948642741008765"><ele>289.8</ele><time>2026-04-10T17:30:25.999Z</time></trkpt><trkpt lat="45.021715077483066" lon="7.948768698357303"><ele>289.6</ele><time>2026-04-10T17:30:27.999Z</time></trkpt><trkpt lat="45.02168094758532" lon="7.9488940813137114"><ele>289.4</ele><time>2026-04-10T17:30:29.999Z</time></trkpt><trkpt lat="45.02164860518396" lon="7.949031456509238"><ele>289.2</ele><time>2026-04-10T17:30:31.999Z</time></trkpt><trkpt lat="45.02161323978702" lon="7.949167077907013"><ele>289.0</ele><time>2026-04-10T17:30:33.999Z</time></trkpt><trkpt lat="45.02158035565831" lon="7.949291845941131"><ele>289.4</ele><time>2026-04-10T17:30:35.999Z</time></trkpt><trkpt lat="45.02154750472852" lon="7.9494145309113255"><ele>289.79999999999995</ele><time>2026-04-10T17:30:37.999Z</time></trkpt><trkpt lat="45.021515062806046" lon="7.94953568843771"><ele>290.20000000000005</ele><time>2026-04-10T17:30:39.999Z</time></trkpt><trkpt lat="45.02150986107952" lon="7.949688487109774"><ele>290.6</ele><time>2026-04-10T17:30:41.999Z</time></trkpt><trkpt lat="45.02144755417304" lon="7.9498052256460765"><ele>291.0</ele><time>2026-04-10T17:30:44Z</time></trkpt><trkpt lat="45.02141847234444" lon="7.949922044681939"><ele>291.0</ele><time>2026-04-10T17:30:46Z</time></trkpt><trkpt lat="45.02139112847564" lon="7.950031882499137"><ele>291.0</ele><time>2026-04-10T17:30:48Z</time></trkpt><trkpt lat="45.02137002337293" lon="7.950119259817977"><ele>291.0</ele><time>2026-04-10T17:30:50Z</time></trkpt><trkpt lat="45.021346713479154" lon="7.950216951848973"><ele>291.0</ele><time>2026-04-10T17:30:54Z</time></trkpt><trkpt lat="45.0214641545749" lon="7.950289661647179"><ele>291.0</ele><time>2026-04-10T17:30:58Z</time></trkpt><trkpt lat="45.021538901868695" lon="7.950340755394687"><ele>291.0</ele><time>2026-04-10T17:31:01Z</time></trkpt><trkpt lat="45.02160017767361" lon="7.950380209546468"><ele>291.7142857142857</ele><time>2026-04-10T17:31:03Z</time></trkpt><trkpt lat="45.02166829452597" lon="7.950411183791768"><ele>292.4285714285714</ele><time>2026-04-10T17:31:05Z</time></trkpt><trkpt lat="45.02173563735222" lon="7.950446373293131"><ele>293.1428571428571</ele><time>2026-04-10T17:31:07Z</time></trkpt><trkpt lat="45.02180314606383" lon="7.95050060520515"><ele>293.85714285714283</ele><time>2026-04-10T17:31:09Z</time></trkpt><trkpt lat="45.02187229145136" lon="7.950536593899339"><ele>294.57142857142856</ele><time>2026-04-10T17:31:11Z</time></trkpt><trkpt lat="45.021938699347494" lon="7.950582743141291"><ele>295.2857142857143</ele><time>2026-04-10T17:31:13Z</time></trkpt><trkpt lat="45.02199768256945" lon="7.950614764404124"><ele>296.0</ele><time>2026-04-10T17:31:15Z</time></trkpt><trkpt lat="45.02205619618202" lon="7.950657195441441"><ele>296.0</ele><time>2026-04-10T17:31:17Z</time></trkpt><trkpt lat="45.022116333298406" lon="7.950703465462692"><ele>296.0</ele><time>2026-04-10T17:31:19Z</time></trkpt><trkpt lat="45.022169456786386" lon="7.950758020127308"><ele>296.0</ele><time>2026-04-10T17:31:21Z</time></trkpt><trkpt lat="45.02221767824862" lon="7.9508158844686525"><ele>296.0</ele><time>2026-04-10T17:31:23Z</time></trkpt><trkpt lat="45.02228578032271" lon="7.95080842812377"><ele>296.0</ele><time>2026-04-10T17:31:25Z</time></trkpt><trkpt lat="45.0223375272551" lon="7.950734953796366"><ele>296.0</ele><time>2026-04-10T17:31:27Z</time></trkpt><trkpt lat="45.02237319960481" lon="7.9506506690214875"><ele>296.0</ele><time>2026-04-10T17:31:29Z</time></trkpt><trkpt lat="45.02238765382218" lon="7.950513542812288"><ele>296.0</ele><time>2026-04-10T17:31:33Z</time></trkpt><trkpt lat="45.02241042364635" lon="7.950402774725367"><ele>296.0</ele><time>2026-04-10T17:31:35Z</time></trkpt><trkpt lat="45.02244833707838" lon="7.950321403999087"><ele>296.0</ele><time>2026-04-10T17:31:37Z</time></trkpt><trkpt lat="45.022488243280364" lon="7.950204320732664"><ele>296.0</ele><time>2026-04-10T17:31:40Z</time></trkpt><trkpt lat="45.02253031768792" lon="7.950108751254645"><ele>296.0</ele><time>2026-04-10T17:31:42Z</time></trkpt><trkpt lat="45.022544424969325" lon="7.949995083286801"><ele>296.0</ele><time>2026-04-10T17:31:44Z</time></trkpt><trkpt lat="45.02257109138452" lon="7.949901251222606"><ele>296.2857142857143</ele><time>2026-04-10T17:31:46Z</time></trkpt><trkpt lat="45.02260043531988" lon="7.949808793625674"><ele>296.57142857142856</ele><time>2026-04-10T17:31:47.999Z</time></trkpt><trkpt lat="45.02263718645787" lon="7.94968810983906"><ele>296.85714285714283</ele><time>2026-04-10T17:31:50.999Z</time></trkpt><trkpt lat="45.02264885268658" lon="7.9495917123643975"><ele>297.1428571428571</ele><time>2026-04-10T17:31:52.999Z</time></trkpt><trkpt lat="45.02266560262061" lon="7.9495054698369865"><ele>297.4285714285714</ele><time>2026-04-10T17:31:54.999Z</time></trkpt><trkpt lat="45.022686891057994" lon="7.94941784419447"><ele>297.7142857142857</ele><time>2026-04-10T17:31:56.999Z</time></trkpt><trkpt lat="45.022706768491624" lon="7.949328131622337"><ele>298.0</ele><time>2026-04-10T17:31:58.999Z</time></trkpt><trkpt lat="45.02273204293904" lon="7.949239647592894"><ele>297.42857142857144</ele><time>2026-04-10T17:32:00.999Z</time></trkpt><trkpt lat="45.02275686865942" lon="7.9491478719595285"><ele>296.85714285714283</ele><time>2026-04-10T17:32:02.999Z</time></trkpt><trkpt lat="45.022781513592825" lon="7.94905013666502"><ele>296.2857142857143</ele><time>2026-04-10T17:32:04.999Z</time></trkpt><trkpt lat="45.022804514591066" lon="7.948964702301729"><ele>295.7142857142857</ele><time>2026-04-10T17:32:06.999Z</time></trkpt><trkpt lat="45.02281416826364" lon="7.948870540115381"><ele>295.1428571428571</ele><time>2026-04-10T17:37:44Z</time></trkpt><trkpt lat="45.02285457655553" lon="7.948801743503636"><ele>294.57142857142856</ele><time>2026-04-10T17:37:47Z</time></trkpt><trkpt lat="45.02291955212628" lon="7.948786468451805"><ele>294.0</ele><time>2026-04-10T17:37:49Z</time></trkpt><trkpt lat="45.02301498323004" lon="7.948780208014279"><ele>294.0</ele><time>2026-04-10T17:37:52Z</time></trkpt><trkpt lat="45.02308263770992" lon="7.948774871919242"><ele>294.0</ele><time>2026-04-10T17:37:54Z</time></trkpt><trkpt lat="45.023151624481166" lon="7.948768225430943"><ele>294.0</ele><time>2026-04-10T17:37:56Z</time></trkpt><trkpt lat="45.02325584150049" lon="7.94877111924331"><ele>294.0</ele><time>2026-04-10T17:37:58.999Z</time></trkpt><trkpt lat="45.02333038409119" lon="7.948770820542931"><ele>294.0</ele><time>2026-04-10T17:38:00.999Z</time></trkpt><trkpt lat="45.0234082015365" lon="7.948757956877876"><ele>294.0</ele><time>2026-04-10T17:38:02.999Z</time></trkpt><trkpt lat="45.0234791984385" lon="7.9487588575631305"><ele>294.1666666666667</ele><time>2026-04-10T17:38:04.999Z</time></trkpt><trkpt lat="45.02355569217543" lon="7.948749774953208"><ele>294.3333333333333</ele><time>2026-04-10T17:38:06.999Z</time></trkpt><trkpt lat="45.02363239201251" lon="7.948743174378403"><ele>294.5</ele><time>2026-04-10T17:38:08.999Z</time></trkpt><trkpt lat="45.023712876696" lon="7.948734738023487"><ele>294.66666666666663</ele><time>2026-04-10T17:38:10.999Z</time></trkpt><trkpt lat="45.02378719877027" lon="7.948716550925693"><ele>294.8333333333333</ele><time>2026-04-10T17:38:12.999Z</time></trkpt><trkpt lat="45.02385243983449" lon="7.948697616000184"><ele>295.0</ele><time>2026-04-10T17:38:14.999Z</time></trkpt><trkpt lat="45.0239237412827" lon="7.948652448794518"><ele>295.0</ele><time>2026-04-10T17:38:16.999Z</time></trkpt><trkpt lat="45.023998409933164" lon="7.948627128437446"><ele>295.0</ele><time>2026-04-10T17:38:18.999Z</time></trkpt><trkpt lat="45.02406830128719" lon="7.948598204049571"><ele>295.0</ele><time>2026-04-10T17:38:20.999Z</time></trkpt><trkpt lat="45.02414667118156" lon="7.9485473360193355"><ele>295.0</ele><time>2026-04-10T17:38:22.999Z</time></trkpt><trkpt lat="45.02422295603583" lon="7.948496526299749"><ele>295.0</ele><time>2026-04-10T17:38:24.999Z</time></trkpt><trkpt lat="45.02429682302711" lon="7.94843532977315"><ele>295.0</ele><time>2026-04-10T17:38:26.999Z</time></trkpt><trkpt lat="45.02436237008459" lon="7.94834871320191"><ele>294.8</ele><time>2026-04-10T17:38:28.999Z</time></trkpt><trkpt lat="45.02443369361469" lon="7.948269063260549"><ele>294.6</ele><time>2026-04-10T17:38:30.999Z</time></trkpt><trkpt lat="45.024507978493006" lon="7.94818460973133"><ele>294.4</ele><time>2026-04-10T17:38:32.999Z</time></trkpt><trkpt lat="45.024578158611554" lon="7.948097065149226"><ele>294.2</ele><time>2026-04-10T17:38:34.999Z</time></trkpt><trkpt lat="45.024646693285845" lon="7.948021186194724"><ele>294.0</ele><time>2026-04-10T17:38:36.999Z</time></trkpt><trkpt lat="45.02471865565938" lon="7.947930012967736"><ele>294.0</ele><time>2026-04-10T17:38:38.999Z</time></trkpt><trkpt lat="45.02478826460384" lon="7.947860161309759"><ele>294.0</ele><time>2026-04-10T17:38:40.999Z</time></trkpt><trkpt lat="45.02485225866885" lon="7.947795754194348"><ele>294.0</ele><time>2026-04-10T17:38:42.999Z</time></trkpt><trkpt lat="45.02492484413074" lon="7.94772339566375"><ele>294.0</ele><time>2026-04-10T17:38:44.999Z</time></trkpt><trkpt lat="45.02498781029291" lon="7.947643910002927"><ele>294.0</ele><time>2026-04-10T17:38:46.999Z</time></trkpt><trkpt lat="45.025059794307765" lon="7.947571134430297"><ele>294.0</ele><time>2026-04-10T17:38:48.999Z</time></trkpt><trkpt lat="45.02513141104408" lon="7.947491882921771"><ele>294.0</ele><time>2026-04-10T17:38:50.999Z</time></trkpt><trkpt lat="45.025191166723374" lon="7.947417625380637"><ele>294.0</ele><time>2026-04-10T17:38:52.999Z</time></trkpt><trkpt lat="45.025263492312405" lon="7.9473373213708305"><ele>294.0</ele><time>2026-04-10T17:38:54.999Z</time></trkpt><trkpt lat="45.02533552634907" lon="7.947255020410642"><ele>294.0</ele><time>2026-04-10T17:38:56.999Z</time></trkpt><trkpt lat="45.02540097666799" lon="7.947171177780046"><ele>294.0</ele><time>2026-04-10T17:38:58.999Z</time></trkpt><trkpt lat="45.02547780980608" lon="7.947092758496422"><ele>294.0</ele><time>2026-04-10T17:39:00.999Z</time></trkpt><trkpt lat="45.02555872540736" lon="7.9469830766515726"><ele>294.0</ele><time>2026-04-10T17:39:02.999Z</time></trkpt><trkpt lat="45.02561819203054" lon="7.9469080320415495"><ele>294.0</ele><time>2026-04-10T17:39:04.999Z</time></trkpt><trkpt lat="45.02569384005361" lon="7.94684137827633"><ele>294.0</ele><time>2026-04-10T17:39:06.999Z</time></trkpt><trkpt lat="45.02576614468137" lon="7.946749625587691"><ele>294.0</ele><time>2026-04-10T17:39:09Z</time></trkpt><trkpt lat="45.02584723618012" lon="7.946651250148452"><ele>294.0</ele><time>2026-04-10T17:39:11Z</time></trkpt><trkpt lat="45.02592847671786" lon="7.9465525700559185"><ele>293.25</ele><time>2026-04-10T17:39:13Z</time></trkpt><trkpt lat="45.02601690975018" lon="7.9464629153958235"><ele>292.5</ele><time>2026-04-10T17:39:15Z</time></trkpt><trkpt lat="45.02611084828779" lon="7.946372123839679"><ele>291.75</ele><time>2026-04-10T17:39:17Z</time></trkpt><trkpt lat="45.02619254381529" lon="7.946265967086973"><ele>291.0</ele><time>2026-04-10T17:39:19Z</time></trkpt><trkpt lat="45.026286104067445" lon="7.946153174129974"><ele>291.0</ele><time>2026-04-10T17:39:21Z</time></trkpt><trkpt lat="45.02633487893936" lon="7.946094825231463"><ele>291.0</ele><time>2026-04-10T17:39:22Z</time></trkpt><trkpt lat="45.0264347179444" lon="7.945981831907106"><ele>291.0</ele><time>2026-04-10T17:39:24Z</time></trkpt><trkpt lat="45.02648702009192" lon="7.945930833518425"><ele>291.0</ele><time>2026-04-10T17:39:25Z</time></trkpt><trkpt lat="45.02654025966171" lon="7.9458762556406"><ele>291.0</ele><time>2026-04-10T17:39:26Z</time></trkpt><trkpt lat="45.026592358809495" lon="7.945812706541017"><ele>291.0</ele><time>2026-04-10T17:39:27Z</time></trkpt><trkpt lat="45.02664361232062" lon="7.945753575993613"><ele>290.7142857142857</ele><time>2026-04-10T17:39:28Z</time></trkpt><trkpt lat="45.026699026632905" lon="7.94569244399418"><ele>290.4285714285714</ele><time>2026-04-10T17:39:29Z</time></trkpt><trkpt lat="45.02675200197939" lon="7.945633603258715"><ele>290.1428571428571</ele><time>2026-04-10T17:39:30Z</time></trkpt><trkpt lat="45.026800433667766" lon="7.94556939235049"><ele>289.85714285714283</ele><time>2026-04-10T17:39:31Z</time></trkpt><trkpt lat="45.026857203850064" lon="7.945514864230756"><ele>289.57142857142856</ele><time>2026-04-10T17:39:32Z</time></trkpt><trkpt lat="45.02691188997589" lon="7.945453325898105"><ele>289.2857142857143</ele><time>2026-04-10T17:39:33Z</time></trkpt><trkpt lat="45.02696552517963" lon="7.945394893874875"><ele>289.0</ele><time>2026-04-10T17:39:34Z</time></trkpt><trkpt lat="45.02701634630817" lon="7.945339953323513"><ele>289.0</ele><time>2026-04-10T17:39:35Z</time></trkpt><trkpt lat="45.027067058789314" lon="7.945282914098862"><ele>289.0</ele><time>2026-04-10T17:39:36Z</time></trkpt><trkpt lat="45.027119040201306" lon="7.945226818739951"><ele>289.0</ele><time>2026-04-10T17:39:37Z</time></trkpt><trkpt lat="45.027170688575914" lon="7.9451706213168976"><ele>289.0</ele><time>2026-04-10T17:39:38Z</time></trkpt><trkpt lat="45.0272227149377" lon="7.945109251739181"><ele>289.0</ele><time>2026-04-10T17:39:39Z</time></trkpt><trkpt lat="45.02726884616296" lon="7.945045736139887"><ele>289.0</ele><time>2026-04-10T17:39:40Z</time></trkpt><trkpt lat="45.027318786212376" lon="7.944990366758432"><ele>289.0</ele><time>2026-04-10T17:39:41Z</time></trkpt><trkpt lat="45.02736958339391" lon="7.944937626280159"><ele>289.0</ele><time>2026-04-10T17:39:42Z</time></trkpt><trkpt lat="45.02746245273832" lon="7.944828969093682"><ele>289.0</ele><time>2026-04-10T17:39:44Z</time></trkpt><trkpt lat="45.02755163292841" lon="7.94473828200711"><ele>289.0</ele><time>2026-04-10T17:39:46Z</time></trkpt><trkpt lat="45.02763938290308" lon="7.94468243582564"><ele>289.0</ele><time>2026-04-10T17:39:48Z</time></trkpt><trkpt lat="45.027696745980734" lon="7.9446044800275795"><ele>289.0</ele><time>2026-04-10T17:39:50Z</time></trkpt><trkpt lat="45.027750816574084" lon="7.944542660385117"><ele>289.2</ele><time>2026-04-10T17:39:51.999Z</time></trkpt><trkpt lat="45.02780000535965" lon="7.944486422160507"><ele>289.4</ele><time>2026-04-10T17:39:53.999Z</time></trkpt><trkpt lat="45.02786204601653" lon="7.9444154902251825"><ele>289.6</ele><time>2026-04-10T17:39:55.999Z</time></trkpt><trkpt lat="45.02791574579248" lon="7.944354094531751"><ele>289.8</ele><time>2026-04-10T17:39:57.999Z</time></trkpt><trkpt lat="45.02797543115126" lon="7.944285855431172"><ele>290.0</ele><time>2026-04-10T17:39:59.999Z</time></trkpt><trkpt lat="45.028243321915255" lon="7.944666743067139"><ele>290.1666666666667</ele><time>2026-04-10T17:40:00.999Z</time></trkpt><trkpt lat="45.02832530993172" lon="7.9446595724275095"><ele>290.33333333333337</ele><time>2026-04-10T17:40:02.999Z</time></trkpt><trkpt lat="45.02839788910555" lon="7.944651825384355"><ele>290.5</ele><time>2026-04-10T17:40:04.999Z</time></trkpt><trkpt lat="45.02846713428561" lon="7.94465675006327"><ele>290.6666666666667</ele><time>2026-04-10T17:40:06.999Z</time></trkpt><trkpt lat="45.02855949786933" lon="7.944641258672923"><ele>290.8333333333333</ele><time>2026-04-10T17:40:09.999Z</time></trkpt><trkpt lat="45.0286395295165" lon="7.944639468970347"><ele>291.0</ele><time>2026-04-10T17:40:12.999Z</time></trkpt><trkpt lat="45.028722362971976" lon="7.944630935002232"><ele>291.0</ele><time>2026-04-10T17:40:15.999Z</time></trkpt><trkpt lat="45.028805458547836" lon="7.944609447288785"><ele>291.0</ele><time>2026-04-10T17:40:18.999Z</time></trkpt><trkpt lat="45.02887144170065" lon="7.944585542177938"><ele>291.0</ele><time>2026-04-10T17:40:21.999Z</time></trkpt><trkpt lat="45.028952942204896" lon="7.944562959385164"><ele>291.0</ele><time>2026-04-10T17:40:24.999Z</time></trkpt><trkpt lat="45.02903602010502" lon="7.944537832276565"><ele>291.0</ele><time>2026-04-10T17:40:26.999Z</time></trkpt><trkpt lat="45.029122882389814" lon="7.944501187520635"><ele>291.0</ele><time>2026-04-10T17:40:28.999Z</time></trkpt><trkpt lat="45.0292061331871" lon="7.9444921090319705"><ele>291.2857142857143</ele><time>2026-04-10T17:40:30.999Z</time></trkpt><trkpt lat="45.02928917660963" lon="7.944498044155186"><ele>291.57142857142856</ele><time>2026-04-10T17:40:32.999Z</time></trkpt><trkpt lat="45.02936931002056" lon="7.944486415534266"><ele>291.85714285714283</ele><time>2026-04-10T17:40:34.999Z</time></trkpt><trkpt lat="45.02944776373393" lon="7.944470155731813"><ele>292.1428571428571</ele><time>2026-04-10T17:40:36.999Z</time></trkpt><trkpt lat="45.02952187101812" lon="7.944455568549297"><ele>292.42857142857144</ele><time>2026-04-10T17:40:38.999Z</time></trkpt><trkpt lat="45.02958699628823" lon="7.944447306002608"><ele>292.71428571428567</ele><time>2026-04-10T17:40:40.999Z</time></trkpt><trkpt lat="45.0296517331273" lon="7.944444744556611"><ele>293.0</ele><time>2026-04-10T17:40:42.999Z</time></trkpt><trkpt lat="45.02971551427332" lon="7.944442912300108"><ele>293.0</ele><time>2026-04-10T17:40:44.999Z</time></trkpt><trkpt lat="45.029789440006624" lon="7.944444397443757"><ele>293.0</ele><time>2026-04-10T17:40:47.999Z</time></trkpt><trkpt lat="45.02986391596275" lon="7.944447911045553"><ele>293.0</ele><time>2026-04-10T17:40:50.999Z</time></trkpt><trkpt lat="45.02994497104863" lon="7.944455146244678"><ele>293.0</ele><time>2026-04-10T17:40:52.999Z</time></trkpt><trkpt lat="45.03001515834326" lon="7.944467083546797"><ele>293.0</ele><time>2026-04-10T17:40:54.999Z</time></trkpt><trkpt lat="45.03010380273726" lon="7.944477465398307"><ele>293.0</ele><time>2026-04-10T17:40:57.999Z</time></trkpt><trkpt lat="45.03017461494551" lon="7.94450096781301"><ele>293.99999999999994</ele><time>2026-04-10T17:41:00.999Z</time></trkpt><trkpt lat="45.030239460076594" lon="7.9445138330616105"><ele>295.0</ele><time>2026-04-10T17:41:03.999Z</time></trkpt><trkpt lat="45.030301314491105" lon="7.944532208283465"><ele>296.0</ele><time>2026-04-10T17:41:05.999Z</time></trkpt><trkpt lat="45.030378438353175" lon="7.944550951559355"><ele>297.0</ele><time>2026-04-10T17:41:08.999Z</time></trkpt><trkpt lat="45.03044910460626" lon="7.9445623011781175"><ele>298.0</ele><time>2026-04-10T17:41:11.999Z</time></trkpt><trkpt lat="45.030522435868924" lon="7.944572763676756"><ele>298.99999999999994</ele><time>2026-04-10T17:41:16Z</time></trkpt><trkpt lat="45.03059244327339" lon="7.944587414045719"><ele>300.0</ele><time>2026-04-10T17:41:19Z</time></trkpt><trkpt lat="45.03066536503141" lon="7.944589306715051"><ele>299.99999999999994</ele><time>2026-04-10T17:41:23Z</time></trkpt><trkpt lat="45.030729398752" lon="7.944595509041119"><ele>300.0</ele><time>2026-04-10T17:41:26Z</time></trkpt><trkpt lat="45.03079297562666" lon="7.944602232874006"><ele>300.0</ele><time>2026-04-10T17:41:29Z</time></trkpt><trkpt lat="45.03086440023254" lon="7.944613161991677"><ele>300.0</ele><time>2026-04-10T17:41:32Z</time></trkpt><trkpt lat="45.03094419804533" lon="7.944634481900486"><ele>300.0</ele><time>2026-04-10T17:41:35Z</time></trkpt><trkpt lat="45.03101354443452" lon="7.944643169498601"><ele>299.99999999999994</ele><time>2026-04-10T17:41:38Z</time></trkpt><trkpt lat="45.03107759932756" lon="7.944658278926611"><ele>300.0</ele><time>2026-04-10T17:41:40Z</time></trkpt><trkpt lat="45.0311399858581" lon="7.94467098837222"><ele>301.0</ele><time>2026-04-10T17:41:43Z</time></trkpt><trkpt lat="45.0312190468266" lon="7.944690634302551"><ele>302.0</ele><time>2026-04-10T17:41:46Z</time></trkpt><trkpt lat="45.03129329359594" lon="7.9447061140642585"><ele>303.0</ele><time>2026-04-10T17:41:48Z</time></trkpt><trkpt lat="45.03136490417023" lon="7.944726024205427"><ele>304.0</ele><time>2026-04-10T17:41:51Z</time></trkpt><trkpt lat="45.031448580033484" lon="7.94473197732049"><ele>305.0</ele><time>2026-04-10T17:41:54Z</time></trkpt><trkpt lat="45.03152764256025" lon="7.944752606321637"><ele>306.0</ele><time>2026-04-10T17:41:57Z</time></trkpt><trkpt lat="45.03161152419226" lon="7.944780831781332"><ele>306.6666666666667</ele><time>2026-04-10T17:42:00Z</time></trkpt><trkpt lat="45.03167241893219" lon="7.944805751082694"><ele>307.3333333333333</ele><time>2026-04-10T17:42:02Z</time></trkpt><trkpt lat="45.03174378863846" lon="7.944835993702849"><ele>308.0</ele><time>2026-04-10T17:42:04Z</time></trkpt><trkpt lat="45.031815407633026" lon="7.9448636496138265"><ele>308.66666666666663</ele><time>2026-04-10T17:42:05.999Z</time></trkpt><trkpt lat="45.031892901326735" lon="7.944895684490509"><ele>309.3333333333333</ele><time>2026-04-10T17:42:07.999Z</time></trkpt><trkpt lat="45.031989065218816" lon="7.944941514118078"><ele>310.0</ele><time>2026-04-10T17:42:09.999Z</time></trkpt><trkpt lat="45.03209225103062" lon="7.9449590561288055"><ele>310.0</ele><time>2026-04-10T17:42:11.999Z</time></trkpt><trkpt lat="45.03219953421178" lon="7.944971402008397"><ele>310.0</ele><time>2026-04-10T17:42:13.999Z</time></trkpt><trkpt lat="45.03230946273901" lon="7.944977419477447"><ele>310.0</ele><time>2026-04-10T17:42:15.999Z</time></trkpt><trkpt lat="45.0324092250259" lon="7.944991105210694"><ele>310.0</ele><time>2026-04-10T17:42:17.999Z</time></trkpt><trkpt lat="45.032496130414216" lon="7.945007687665336"><ele>310.0</ele><time>2026-04-10T17:42:19.999Z</time></trkpt><trkpt lat="45.03260915905106" lon="7.945030384509014"><ele>310.0</ele><time>2026-04-10T17:42:22.999Z</time></trkpt><trkpt lat="45.032698693188" lon="7.945045337232314"><ele>310.0</ele><time>2026-04-10T17:42:24.999Z</time></trkpt><trkpt lat="45.03276284541779" lon="7.945058599185775"><ele>310.0</ele><time>2026-04-10T17:42:25.999Z</time></trkpt><trkpt lat="45.03282549216712" lon="7.945087867887863"><ele>310.0</ele><time>2026-04-10T17:42:27.999Z</time></trkpt><trkpt lat="45.03291286114284" lon="7.945122152991095"><ele>310.0</ele><time>2026-04-10T17:42:30.999Z</time></trkpt><trkpt lat="45.032993228112126" lon="7.94518252294556"><ele>310.0</ele><time>2026-04-10T17:42:33.999Z</time></trkpt><trkpt lat="45.033048265612265" lon="7.945238063404781"><ele>310.16666666666663</ele><time>2026-04-10T17:42:35.999Z</time></trkpt><trkpt lat="45.033114711845876" lon="7.945297082170488"><ele>310.3333333333333</ele><time>2026-04-10T17:42:37.999Z</time></trkpt><trkpt lat="45.03316491679744" lon="7.945362120700326"><ele>310.5</ele><time>2026-04-10T17:42:39.999Z</time></trkpt><trkpt lat="45.033223679209875" lon="7.945416565114303"><ele>310.6666666666667</ele><time>2026-04-10T17:42:41.999Z</time></trkpt><trkpt lat="45.03328674162325" lon="7.945469351107871"><ele>310.83333333333337</ele><time>2026-04-10T17:42:43.999Z</time></trkpt><trkpt lat="45.03336257182144" lon="7.945520374901933"><ele>311.0</ele><time>2026-04-10T17:42:45.999Z</time></trkpt><trkpt lat="45.03344962410149" lon="7.945542313716504"><ele>311.0</ele><time>2026-04-10T17:42:47.999Z</time></trkpt><trkpt lat="45.03352802346949" lon="7.945552288284622"><ele>311.0</ele><time>2026-04-10T17:42:49.999Z</time></trkpt><trkpt lat="45.03360945212365" lon="7.945543801247202"><ele>311.0</ele><time>2026-04-10T17:42:51.999Z</time></trkpt><trkpt lat="45.03369430401028" lon="7.9455343415172495"><ele>311.0</ele><time>2026-04-10T17:42:53.999Z</time></trkpt><trkpt lat="45.03378042825647" lon="7.945522257485707"><ele>311.0</ele><time>2026-04-10T17:42:55.999Z</time></trkpt><trkpt lat="45.033867191214824" lon="7.945494294641003"><ele>311.0</ele><time>2026-04-10T17:42:57.999Z</time></trkpt><trkpt lat="45.03395195426938" lon="7.945476885723596"><ele>311.0</ele><time>2026-04-10T17:42:59.999Z</time></trkpt><trkpt lat="45.034028340614746" lon="7.945465101917997"><ele>311.0</ele><time>2026-04-10T17:43:01.999Z</time></trkpt><trkpt lat="45.034104927741545" lon="7.945455712051281"><ele>311.0</ele><time>2026-04-10T17:43:03.999Z</time></trkpt><trkpt lat="45.034189011182725" lon="7.945437846652354"><ele>311.0</ele><time>2026-04-10T17:43:05.999Z</time></trkpt><trkpt lat="45.03427145784251" lon="7.945427335708114"><ele>311.0</ele><time>2026-04-10T17:43:07.999Z</time></trkpt><trkpt lat="45.03435097437" lon="7.945406684884831"><ele>311.0</ele><time>2026-04-10T17:43:09.999Z</time></trkpt><trkpt lat="45.03442694811282" lon="7.9453927485410345"><ele>310.33333333333337</ele><time>2026-04-10T17:43:11.999Z</time></trkpt><trkpt lat="45.03449954512296" lon="7.945384137383202"><ele>309.6666666666667</ele><time>2026-04-10T17:43:13.999Z</time></trkpt><trkpt lat="45.03457192940913" lon="7.945379136223069"><ele>309.0</ele><time>2026-04-10T17:43:15.999Z</time></trkpt><trkpt lat="45.03463801715275" lon="7.94536876072499"><ele>308.3333333333333</ele><time>2026-04-10T17:43:17.999Z</time></trkpt><trkpt lat="45.03472398909374" lon="7.945348566601055"><ele>307.66666666666663</ele><time>2026-04-10T17:43:21Z</time></trkpt><trkpt lat="45.03480764971036" lon="7.945333508255563"><ele>307.0</ele><time>2026-04-10T17:43:24Z</time></trkpt><trkpt lat="45.03487538367807" lon="7.9453194907330715"><ele>307.0</ele><time>2026-04-10T17:43:26Z</time></trkpt><trkpt lat="45.034948621758595" lon="7.945308138671696"><ele>307.0</ele><time>2026-04-10T17:43:28Z</time></trkpt><trkpt lat="45.035032501345206" lon="7.945297222980546"><ele>307.0</ele><time>2026-04-10T17:43:30Z</time></trkpt><trkpt lat="45.03513169701295" lon="7.945288234834864"><ele>307.0</ele><time>2026-04-10T17:43:32Z</time></trkpt><trkpt lat="45.035239933609596" lon="7.9453119973343815"><ele>307.0</ele><time>2026-04-10T17:43:34Z</time></trkpt><trkpt lat="45.03530043733518" lon="7.94534612577838"><ele>307.0</ele><time>2026-04-10T17:43:35Z</time></trkpt><trkpt lat="45.03540209936549" lon="7.9454340045904095"><ele>307.75</ele><time>2026-04-10T17:43:37Z</time></trkpt><trkpt lat="45.03549111040703" lon="7.945541940719578"><ele>308.5</ele><time>2026-04-10T17:43:39Z</time></trkpt><trkpt lat="45.03558131793569" lon="7.945654067351049"><ele>309.25</ele><time>2026-04-10T17:43:41Z</time></trkpt><trkpt lat="45.03567744113678" lon="7.945756613974854"><ele>310.0</ele><time>2026-04-10T17:43:43Z</time></trkpt><trkpt lat="45.03576714326923" lon="7.9458738541593394"><ele>309.8</ele><time>2026-04-10T17:43:45Z</time></trkpt><trkpt lat="45.03584859021318" lon="7.945988489001239"><ele>309.6</ele><time>2026-04-10T17:43:47Z</time></trkpt><trkpt lat="45.03592804448254" lon="7.946100129718724"><ele>309.4</ele><time>2026-04-10T17:43:49Z</time></trkpt><trkpt lat="45.035971408760474" lon="7.946165801394747"><ele>309.2</ele><time>2026-04-10T17:43:50Z</time></trkpt><trkpt lat="45.036055115617586" lon="7.946291173495092"><ele>309.0</ele><time>2026-04-10T17:43:52Z</time></trkpt><trkpt lat="45.0361534184385" lon="7.946397953961993"><ele>309.0</ele><time>2026-04-10T17:43:54Z</time></trkpt><trkpt lat="45.03624626775252" lon="7.946489387496798"><ele>309.0</ele><time>2026-04-10T17:43:56Z</time></trkpt><trkpt lat="45.036325825767804" lon="7.94654599667872"><ele>309.0</ele><time>2026-04-10T17:43:58Z</time></trkpt><trkpt lat="45.03637952853767" lon="7.946649354699749"><ele>309.0</ele><time>2026-04-10T17:44:00Z</time></trkpt><trkpt lat="45.036437201269294" lon="7.946721077115564"><ele>309.0</ele><time>2026-04-10T17:44:02Z</time></trkpt><trkpt lat="45.036497874068765" lon="7.9467881137560035"><ele>309.0</ele><time>2026-04-10T17:44:04Z</time></trkpt><trkpt lat="45.03657821414873" lon="7.946815199811119"><ele>309.0</ele><time>2026-04-10T17:44:06Z</time></trkpt><trkpt lat="45.03665692482797" lon="7.946825594438957"><ele>309.0</ele><time>2026-04-10T17:44:08Z</time></trkpt><trkpt lat="45.0367341887515" lon="7.946845615757806"><ele>309.0</ele><time>2026-04-10T17:44:10Z</time></trkpt><trkpt lat="45.03681015158136" lon="7.946852892761274"><ele>309.0</ele><time>2026-04-10T17:44:11.999Z</time></trkpt><trkpt lat="45.03688361030536" lon="7.946863688916195"><ele>309.0</ele><time>2026-04-10T17:44:13.999Z</time></trkpt><trkpt lat="45.03696032109487" lon="7.946856179847844"><ele>309.0</ele><time>2026-04-10T17:44:15.999Z</time></trkpt><trkpt lat="45.03703388960358" lon="7.946865711289175"><ele>309.00000000000006</ele><time>2026-04-10T17:44:17.999Z</time></trkpt><trkpt lat="45.037108620638065" lon="7.946861436470082"><ele>309.0</ele><time>2026-04-10T17:44:19.999Z</time></trkpt><trkpt lat="45.037182294124285" lon="7.946866743977673"><ele>309.0</ele><time>2026-04-10T17:44:21.999Z</time></trkpt><trkpt lat="45.03725415167241" lon="7.946855755257291"><ele>309.0</ele><time>2026-04-10T17:44:23.999Z</time></trkpt><trkpt lat="45.03732839288739" lon="7.94685286776699"><ele>309.0</ele><time>2026-04-10T17:44:25.999Z</time></trkpt><trkpt lat="45.037392913160566" lon="7.946835310026539"><ele>309.00000000000006</ele><time>2026-04-10T17:44:27.999Z</time></trkpt><trkpt lat="45.037457251890245" lon="7.946815412658101"><ele>309.0</ele><time>2026-04-10T17:44:29.999Z</time></trkpt><trkpt lat="45.0375179999829" lon="7.946786213953674"><ele>309.1666666666667</ele><time>2026-04-10T17:44:31.999Z</time></trkpt><trkpt lat="45.03757914428751" lon="7.946755452381173"><ele>309.3333333333333</ele><time>2026-04-10T17:44:33.999Z</time></trkpt><trkpt lat="45.03763996052821" lon="7.946719439970031"><ele>309.5</ele><time>2026-04-10T17:44:35.999Z</time></trkpt><trkpt lat="45.03770359622715" lon="7.946680084463503"><ele>309.66666666666663</ele><time>2026-04-10T17:44:37.999Z</time></trkpt><trkpt lat="45.03777696664421" lon="7.946620004758192"><ele>309.8333333333333</ele><time>2026-04-10T17:44:40.999Z</time></trkpt><trkpt lat="45.03783495211234" lon="7.946528958955769"><ele>310.0</ele><time>2026-04-10T17:44:43.999Z</time></trkpt><trkpt lat="45.03786829678771" lon="7.946429331859113"><ele>311.14285714285717</ele><time>2026-04-10T17:44:46.999Z</time></trkpt><trkpt lat="45.03788409758921" lon="7.946329617316302"><ele>312.2857142857143</ele><time>2026-04-10T17:44:49.999Z</time></trkpt><trkpt lat="45.03789091882039" lon="7.946239146665027"><ele>313.42857142857144</ele><time>2026-04-10T17:44:52.999Z</time></trkpt><trkpt lat="45.0379018759365" lon="7.946119075279161"><ele>314.57142857142856</ele><time>2026-04-10T17:44:57.999Z</time></trkpt><trkpt lat="45.037907688934865" lon="7.94602059232528"><ele>315.7142857142857</ele><time>2026-04-10T17:45:01.999Z</time></trkpt><trkpt lat="45.03792987744607" lon="7.94592485406609"><ele>316.85714285714283</ele><time>2026-04-10T17:45:05.999Z</time></trkpt><trkpt lat="45.03800141713801" lon="7.9459741901440655"><ele>318.0</ele><time>2026-04-10T17:45:09.999Z</time></trkpt><trkpt lat="45.038072573664486" lon="7.9460075859786725"><ele>318.0</ele><time>2026-04-10T17:45:13.999Z</time></trkpt><trkpt lat="45.038153899693256" lon="7.946023822711772"><ele>318.0</ele><time>2026-04-10T17:45:17.999Z</time></trkpt><trkpt lat="45.03822163185722" lon="7.946047602790971"><ele>318.0</ele><time>2026-04-10T17:45:20.999Z</time></trkpt><trkpt lat="45.038288745481694" lon="7.9460612790264795"><ele>318.0</ele><time>2026-04-10T17:45:23.999Z</time></trkpt><trkpt lat="45.038352709420444" lon="7.9460519187350735"><ele>318.0</ele><time>2026-04-10T17:45:27Z</time></trkpt><trkpt lat="45.03840557730947" lon="7.945952449089536"><ele>318.0</ele><time>2026-04-10T17:45:30Z</time></trkpt><trkpt lat="45.03842376323806" lon="7.945857567756809"><ele>318.0</ele><time>2026-04-10T17:45:32Z</time></trkpt><trkpt lat="45.03843098924147" lon="7.945768142205489"><ele>319.8333333333333</ele><time>2026-04-10T17:45:34Z</time></trkpt><trkpt lat="45.038477104575286" lon="7.945665245837503"><ele>321.6666666666667</ele><time>2026-04-10T17:45:37Z</time></trkpt><trkpt lat="45.03855635176689" lon="7.945608510268932"><ele>323.5</ele><time>2026-04-10T17:45:40Z</time></trkpt><trkpt lat="45.03862207949291" lon="7.945576957168043"><ele>325.33333333333337</ele><time>2026-04-10T17:45:42Z</time></trkpt><trkpt lat="45.038704717655506" lon="7.94554877716647"><ele>327.1666666666667</ele><time>2026-04-10T17:45:44Z</time></trkpt><trkpt lat="45.0387953976658" lon="7.945531451843711"><ele>329.0</ele><time>2026-04-10T17:45:46Z</time></trkpt><trkpt lat="45.038896658851996" lon="7.945591052768593"><ele>329.0</ele><time>2026-04-10T17:45:48Z</time></trkpt><trkpt lat="45.0390032348943" lon="7.945654057934342"><ele>329.0</ele><time>2026-04-10T17:45:50Z</time></trkpt><trkpt lat="45.039097186161534" lon="7.945718041383944"><ele>329.0</ele><time>2026-04-10T17:45:52Z</time></trkpt><trkpt lat="45.03918110614226" lon="7.945689190626167"><ele>329.0</ele><time>2026-04-10T17:45:54Z</time></trkpt><trkpt lat="45.03923751332774" lon="7.94555082243623"><ele>329.0</ele><time>2026-04-10T17:45:56Z</time></trkpt><trkpt lat="45.03922419796374" lon="7.945400980885694"><ele>328.0</ele><time>2026-04-10T17:45:58Z</time></trkpt><trkpt lat="45.03924093285338" lon="7.945273640048603"><ele>327.0</ele><time>2026-04-10T17:46:00Z</time></trkpt><trkpt lat="45.03927470579008" lon="7.945188192801603"><ele>326.0</ele><time>2026-04-10T17:46:02Z</time></trkpt><trkpt lat="45.03932223241381" lon="7.945063303640664"><ele>325.0</ele><time>2026-04-10T17:46:04Z</time></trkpt><trkpt lat="45.03929513304005" lon="7.944975252870263"><ele>324.0</ele><time>2026-04-10T17:46:05Z</time></trkpt><trkpt lat="45.03928726611284" lon="7.944802552065997"><ele>323.6666666666667</ele><time>2026-04-10T17:46:07Z</time></trkpt><trkpt lat="45.03928075735962" lon="7.944702376750262"><ele>323.3333333333333</ele><time>2026-04-10T17:46:08Z</time></trkpt><trkpt lat="45.03929446553379" lon="7.944608676168557"><ele>323.0</ele><time>2026-04-10T17:46:09Z</time></trkpt><trkpt lat="45.03929379455635" lon="7.9445134343593455"><ele>322.66666666666663</ele><time>2026-04-10T17:46:10Z</time></trkpt><trkpt lat="45.039293245987466" lon="7.944350705930403"><ele>322.3333333333333</ele><time>2026-04-10T17:46:12Z</time></trkpt><trkpt lat="45.03929324598652" lon="7.944209840141915"><ele>322.0</ele><time>2026-04-10T17:46:14Z</time></trkpt><trkpt lat="45.03937347460073" lon="7.944197374218855"><ele>322.0</ele><time>2026-04-10T17:46:18Z</time></trkpt><trkpt lat="45.03944894329488" lon="7.94426310902566"><ele>322.0</ele><time>2026-04-10T17:46:20Z</time></trkpt><trkpt lat="45.03954282263274" lon="7.944322435084515"><ele>322.0</ele><time>2026-04-10T17:46:22Z</time></trkpt><trkpt lat="45.039651341335436" lon="7.944401809050323"><ele>322.0</ele><time>2026-04-10T17:46:23.999Z</time></trkpt><trkpt lat="45.03971013911146" lon="7.944450577465146"><ele>322.0</ele><time>2026-04-10T17:46:24.999Z</time></trkpt><trkpt lat="45.03977311555658" lon="7.944504119709226"><ele>322.0</ele><time>2026-04-10T17:46:25.999Z</time></trkpt><trkpt lat="45.039835500403996" lon="7.944563278967031"><ele>322.0</ele><time>2026-04-10T17:46:26.999Z</time></trkpt><trkpt lat="45.03988989326766" lon="7.944644112373576"><ele>322.0</ele><time>2026-04-10T17:46:27.999Z</time></trkpt><trkpt lat="45.03992248913732" lon="7.944755704984013"><ele>322.0</ele><time>2026-04-10T17:46:28.999Z</time></trkpt><trkpt lat="45.03993886444425" lon="7.944885742111514"><ele>322.0</ele><time>2026-04-10T17:46:29.999Z</time></trkpt><trkpt lat="45.03993500178741" lon="7.945021770097451"><ele>322.0</ele><time>2026-04-10T17:46:30.999Z</time></trkpt><trkpt lat="45.03991950862949" lon="7.9451607021559365"><ele>322.40000000000003</ele><time>2026-04-10T17:46:31.999Z</time></trkpt><trkpt lat="45.03990652566135" lon="7.945303798961636"><ele>322.8</ele><time>2026-04-10T17:46:32.999Z</time></trkpt><trkpt lat="45.039899737387344" lon="7.94544104947112"><ele>323.2</ele><time>2026-04-10T17:46:33.999Z</time></trkpt><trkpt lat="45.03990136643824" lon="7.945568345773615"><ele>323.6</ele><time>2026-04-10T17:46:34.999Z</time></trkpt><trkpt lat="45.039916516672854" lon="7.945696141000688"><ele>324.0</ele><time>2026-04-10T17:46:35.999Z</time></trkpt><trkpt lat="45.03994742643793" lon="7.94582836262416"><ele>321.4</ele><time>2026-04-10T17:46:36.999Z</time></trkpt><trkpt lat="45.03999059735081" lon="7.945957978417515"><ele>318.79999999999995</ele><time>2026-04-10T17:46:37.999Z</time></trkpt><trkpt lat="45.040015980003" lon="7.946091604720574"><ele>316.20000000000005</ele><time>2026-04-10T17:46:38.999Z</time></trkpt><trkpt lat="45.03999394768323" lon="7.946227578932936"><ele>313.6</ele><time>2026-04-10T17:46:39.999Z</time></trkpt><trkpt lat="45.03994518756522" lon="7.946343117328022"><ele>311.0</ele><time>2026-04-10T17:46:40.999Z</time></trkpt><trkpt lat="45.03986128977172" lon="7.946436019562969"><ele>311.0</ele><time>2026-04-10T17:46:41.999Z</time></trkpt><trkpt lat="45.03975433943174" lon="7.9464469491667185"><ele>311.0</ele><time>2026-04-10T17:46:42.999Z</time></trkpt><trkpt lat="45.03965204008417" lon="7.946483910323087"><ele>311.0</ele><time>2026-04-10T17:46:43.999Z</time></trkpt><trkpt lat="45.03954581875188" lon="7.946492119864169"><ele>311.0</ele><time>2026-04-10T17:46:44.999Z</time></trkpt><trkpt lat="45.039451650413454" lon="7.946547253523136"><ele>311.0</ele><time>2026-04-10T17:46:45.999Z</time></trkpt><trkpt lat="45.03937346555797" lon="7.946645855286441"><ele>307.6</ele><time>2026-04-10T17:46:46.999Z</time></trkpt><trkpt lat="45.03931755263379" lon="7.946768750893292"><ele>304.20000000000005</ele><time>2026-04-10T17:46:47.999Z</time></trkpt><trkpt lat="45.03928838904065" lon="7.946913264092337"><ele>300.79999999999995</ele><time>2026-04-10T17:46:48.999Z</time></trkpt><trkpt lat="45.03927181886576" lon="7.947059547714041"><ele>297.4</ele><time>2026-04-10T17:46:49.999Z</time></trkpt><trkpt lat="45.03925436527915" lon="7.94720270885718"><ele>294.0</ele><time>2026-04-10T17:46:50.999Z</time></trkpt><trkpt lat="45.03924296137474" lon="7.947345779622154"><ele>294.0</ele><time>2026-04-10T17:46:51.999Z</time></trkpt><trkpt lat="45.039236872110024" lon="7.947485219657091"><ele>294.0</ele><time>2026-04-10T17:46:52.999Z</time></trkpt><trkpt lat="45.039231797181245" lon="7.947622802529407"><ele>294.0</ele><time>2026-04-10T17:46:53.999Z</time></trkpt><trkpt lat="45.03921286593214" lon="7.94775820448027"><ele>294.0</ele><time>2026-04-10T17:46:54.999Z</time></trkpt><trkpt lat="45.03918054140694" lon="7.947891546483685"><ele>294.0</ele><time>2026-04-10T17:46:55.999Z</time></trkpt><trkpt lat="45.03912230881417" lon="7.94801598273631"><ele>289.75</ele><time>2026-04-10T17:46:56.999Z</time></trkpt><trkpt lat="45.039090584030134" lon="7.948159124674989"><ele>285.5</ele><time>2026-04-10T17:46:57.999Z</time></trkpt><trkpt lat="45.03908133985123" lon="7.948326990681466"><ele>281.25</ele><time>2026-04-10T17:46:58.999Z</time></trkpt><trkpt lat="45.039086800361076" lon="7.94850192490474"><ele>277.0</ele><time>2026-04-10T17:46:59.999Z</time></trkpt><trkpt lat="45.03911186599607" lon="7.948680191687918"><ele>275.0</ele><time>2026-04-10T17:47:00.999Z</time></trkpt><trkpt lat="45.03914829432617" lon="7.948864045897224"><ele>273.0</ele><time>2026-04-10T17:47:01.999Z</time></trkpt><trkpt lat="45.03918521145691" lon="7.9490442267782"><ele>271.0</ele><time>2026-04-10T17:47:02.999Z</time></trkpt><trkpt lat="45.039211150922306" lon="7.949225329033043"><ele>269.0</ele><time>2026-04-10T17:47:03.999Z</time></trkpt><trkpt lat="45.039233702651494" lon="7.9494112927865475"><ele>268.25</ele><time>2026-04-10T17:47:04.999Z</time></trkpt><trkpt lat="45.03925864950336" lon="7.9496005159142005"><ele>267.5</ele><time>2026-04-10T17:47:05.999Z</time></trkpt><trkpt lat="45.039288323560115" lon="7.949779887524647"><ele>266.75</ele><time>2026-04-10T17:47:06.999Z</time></trkpt><trkpt lat="45.03930755508399" lon="7.949956553234734"><ele>266.0</ele><time>2026-04-10T17:47:07.999Z</time></trkpt><trkpt lat="45.039293147331726" lon="7.950142769630581"><ele>265.75</ele><time>2026-04-10T17:47:08.999Z</time></trkpt><trkpt lat="45.03926890692747" lon="7.950322236072983"><ele>265.5</ele><time>2026-04-10T17:47:09.999Z</time></trkpt><trkpt lat="45.03922741961205" lon="7.950518151116842"><ele>265.25</ele><time>2026-04-10T17:47:10.999Z</time></trkpt><trkpt lat="45.039141707022544" lon="7.950682072279064"><ele>265.0</ele><time>2026-04-10T17:47:11.999Z</time></trkpt><trkpt lat="45.039076049551596" lon="7.950862809848956"><ele>262.25</ele><time>2026-04-10T17:47:12.999Z</time></trkpt><trkpt lat="45.038990577871616" lon="7.95103476647401"><ele>259.5</ele><time>2026-04-10T17:47:13.999Z</time></trkpt><trkpt lat="45.03891593976611" lon="7.951213673348101"><ele>256.75</ele><time>2026-04-10T17:47:14.999Z</time></trkpt><trkpt lat="45.03883817157207" lon="7.951397111182969"><ele>254.0</ele><time>2026-04-10T17:47:15.999Z</time></trkpt><trkpt lat="45.03876298789164" lon="7.951576437743732"><ele>252.5</ele><time>2026-04-10T17:47:16.999Z</time></trkpt><trkpt lat="45.03869231358526" lon="7.9517598586840865"><ele>251.0</ele><time>2026-04-10T17:47:17.999Z</time></trkpt><trkpt lat="45.038628445997034" lon="7.951948875089353"><ele>249.5</ele><time>2026-04-10T17:47:18.999Z</time></trkpt><trkpt lat="45.03858653038292" lon="7.952149150989755"><ele>248.0</ele><time>2026-04-10T17:47:19.999Z</time></trkpt><trkpt lat="45.03856107012929" lon="7.9523526644606655"><ele>247.0</ele><time>2026-04-10T17:47:20.999Z</time></trkpt><trkpt lat="45.03855623007337" lon="7.952566858993948"><ele>246.0</ele><time>2026-04-10T17:47:21.999Z</time></trkpt><trkpt lat="45.0385745542613" lon="7.952778170684938"><ele>245.0</ele><time>2026-04-10T17:47:22.999Z</time></trkpt><trkpt lat="45.03861575448773" lon="7.952977497091733"><ele>244.0</ele><time>2026-04-10T17:47:23.999Z</time></trkpt><trkpt lat="45.03867081269804" lon="7.953162246304015"><ele>244.0</ele><time>2026-04-10T17:47:24.999Z</time></trkpt><trkpt lat="45.03871982947986" lon="7.953344735699245"><ele>244.0</ele><time>2026-04-10T17:47:25.999Z</time></trkpt><trkpt lat="45.038761850310486" lon="7.953515932044342"><ele>244.0</ele><time>2026-04-10T17:47:26.999Z</time></trkpt><trkpt lat="45.038801198422384" lon="7.953682535101819"><ele>244.0</ele><time>2026-04-10T17:47:27.999Z</time></trkpt><trkpt lat="45.03883640898485" lon="7.953836180574253"><ele>243.83333333333331</ele><time>2026-04-10T17:47:28.999Z</time></trkpt><trkpt lat="45.03886677741215" lon="7.953968787409687"><ele>243.66666666666666</ele><time>2026-04-10T17:47:29.999Z</time></trkpt><trkpt lat="45.03889489259649" lon="7.95407927644956"><ele>243.5</ele><time>2026-04-10T17:47:30.999Z</time></trkpt><trkpt lat="45.03891842984638" lon="7.954174209158513"><ele>243.33333333333331</ele><time>2026-04-10T17:47:32Z</time></trkpt><trkpt lat="45.03891687017174" lon="7.954285506383625"><ele>243.16666666666666</ele><time>2026-04-10T17:47:34Z</time></trkpt><trkpt lat="45.03881537472694" lon="7.954358096412987"><ele>243.0</ele><time>2026-04-10T17:47:37Z</time></trkpt><trkpt lat="45.03874385739483" lon="7.954463305160356"><ele>242.8</ele><time>2026-04-10T17:47:39Z</time></trkpt><trkpt lat="45.03866155523954" lon="7.954571133838468"><ele>242.60000000000002</ele><time>2026-04-10T17:47:41Z</time></trkpt><trkpt lat="45.03857857265448" lon="7.954681002735647"><ele>242.39999999999998</ele><time>2026-04-10T17:47:43Z</time></trkpt><trkpt lat="45.03849731785237" lon="7.954789536279711"><ele>242.2</ele><time>2026-04-10T17:47:45Z</time></trkpt><trkpt lat="45.038425473759936" lon="7.954905902986306"><ele>242.0</ele><time>2026-04-10T17:47:47Z</time></trkpt><trkpt lat="45.038343643389204" lon="7.955018188240736"><ele>242.0</ele><time>2026-04-10T17:47:49Z</time></trkpt><trkpt lat="45.03826007964906" lon="7.955133582344915"><ele>242.0</ele><time>2026-04-10T17:47:51Z</time></trkpt><trkpt lat="45.03817369924257" lon="7.955254348496276"><ele>242.0</ele><time>2026-04-10T17:47:53Z</time></trkpt><trkpt lat="45.03809560144364" lon="7.955379927949937"><ele>242.0</ele><time>2026-04-10T17:47:55Z</time></trkpt><trkpt lat="45.03805319125054" lon="7.955449985495522"><ele>242.0</ele><time>2026-04-10T17:47:56Z</time></trkpt><trkpt lat="45.03798511707128" lon="7.955582805618289"><ele>242.0</ele><time>2026-04-10T17:47:58Z</time></trkpt><trkpt lat="45.037923816520546" lon="7.955737038121596"><ele>242.0</ele><time>2026-04-10T17:48:00Z</time></trkpt><trkpt lat="45.03787106709683" lon="7.955885091595287"><ele>242.0</ele><time>2026-04-10T17:48:02Z</time></trkpt><trkpt lat="45.03782954810093" lon="7.956040793695404"><ele>242.0</ele><time>2026-04-10T17:48:04Z</time></trkpt><trkpt lat="45.037784056951665" lon="7.956191876954656"><ele>242.39999999999998</ele><time>2026-04-10T17:48:06Z</time></trkpt><trkpt lat="45.03772118300027" lon="7.956324331460933"><ele>242.79999999999998</ele><time>2026-04-10T17:48:08Z</time></trkpt><trkpt lat="45.03766723056792" lon="7.956461004445538"><ele>243.2</ele><time>2026-04-10T17:48:10Z</time></trkpt><trkpt lat="45.03761131472213" lon="7.956584646766646"><ele>243.6</ele><time>2026-04-10T17:48:12Z</time></trkpt><trkpt lat="45.03751668806023" lon="7.9566728834412785"><ele>244.0</ele><time>2026-04-10T17:48:14Z</time></trkpt><trkpt lat="45.037438347301006" lon="7.956746176851604"><ele>244.16666666666666</ele><time>2026-04-10T17:48:16Z</time></trkpt><trkpt lat="45.03736301249324" lon="7.956804093731209"><ele>244.33333333333331</ele><time>2026-04-10T17:48:18Z</time></trkpt><trkpt lat="45.03731078699718" lon="7.956856950969295"><ele>244.5</ele><time>2026-04-10T17:48:21Z</time></trkpt><trkpt lat="45.037224699696836" lon="7.956872756569317"><ele>244.66666666666669</ele><time>2026-04-10T17:48:26.999Z</time></trkpt><trkpt lat="45.037168273627316" lon="7.956917648416924"><ele>244.83333333333334</ele><time>2026-04-10T17:48:28.999Z</time></trkpt><trkpt lat="45.037096305489726" lon="7.9569712046124765"><ele>245.0</ele><time>2026-04-10T17:48:30.999Z</time></trkpt><trkpt lat="45.0370285345729" lon="7.957047177199413"><ele>245.0</ele><time>2026-04-10T17:48:32.999Z</time></trkpt><trkpt lat="45.03697548185659" lon="7.957132105271982"><ele>245.0</ele><time>2026-04-10T17:48:34.999Z</time></trkpt><trkpt lat="45.03689618041516" lon="7.957192198817451"><ele>245.0</ele><time>2026-04-10T17:48:36.999Z</time></trkpt><trkpt lat="45.03681042812061" lon="7.957251182436535"><ele>245.0</ele><time>2026-04-10T17:48:38.999Z</time></trkpt><trkpt lat="45.036722670402376" lon="7.957302195885666"><ele>245.0</ele><time>2026-04-10T17:48:40.999Z</time></trkpt><trkpt lat="45.036637048220676" lon="7.957362795427892"><ele>244.2</ele><time>2026-04-10T17:48:42.999Z</time></trkpt><trkpt lat="45.03654770922244" lon="7.957423329028788"><ele>243.4</ele><time>2026-04-10T17:48:44.999Z</time></trkpt><trkpt lat="45.03645794796175" lon="7.957484185508406"><ele>242.60000000000002</ele><time>2026-04-10T17:48:46.999Z</time></trkpt><trkpt lat="45.036371089949284" lon="7.957537251882839"><ele>241.8</ele><time>2026-04-10T17:48:48.999Z</time></trkpt><trkpt lat="45.036275752838435" lon="7.957584927510962"><ele>241.0</ele><time>2026-04-10T17:48:50.999Z</time></trkpt><trkpt lat="45.03619182710539" lon="7.957646437002079"><ele>244.0</ele><time>2026-04-10T17:48:52.999Z</time></trkpt><trkpt lat="45.03611162939836" lon="7.957707222973952"><ele>247.00000000000003</ele><time>2026-04-10T17:48:54.999Z</time></trkpt><trkpt lat="45.036030016305276" lon="7.957777555795941"><ele>250.00000000000003</ele><time>2026-04-10T17:48:56.999Z</time></trkpt><trkpt lat="45.03595231468972" lon="7.957849349541427"><ele>253.0</ele><time>2026-04-10T17:48:58.999Z</time></trkpt><trkpt lat="45.03587883853447" lon="7.957911915107044"><ele>256.0</ele><time>2026-04-10T17:49:00.999Z</time></trkpt><trkpt lat="45.0358073374369" lon="7.957976197149381"><ele>254.0</ele><time>2026-04-10T17:49:02.999Z</time></trkpt><trkpt lat="45.03574647655384" lon="7.95804099315599"><ele>251.99999999999997</ele><time>2026-04-10T17:49:04.999Z</time></trkpt><trkpt lat="45.03567963489631" lon="7.958087577300682"><ele>250.0</ele><time>2026-04-10T17:49:06.999Z</time></trkpt><trkpt lat="45.035618631323096" lon="7.958135922168345"><ele>248.0</ele><time>2026-04-10T17:49:08.999Z</time></trkpt><trkpt lat="45.035552564292416" lon="7.958172796478946"><ele>245.99999999999997</ele><time>2026-04-10T17:49:11.999Z</time></trkpt><trkpt lat="45.03549214387804" lon="7.958217831288106"><ele>244.0</ele><time>2026-04-10T17:49:13.999Z</time></trkpt><trkpt lat="45.03542450968226" lon="7.958281259394329"><ele>242.0</ele><time>2026-04-10T17:49:14.999Z</time></trkpt><trkpt lat="45.03537330312852" lon="7.95833830173519"><ele>241.83333333333334</ele><time>2026-04-10T17:49:15.999Z</time></trkpt><trkpt lat="45.035321824115655" lon="7.958440120605816"><ele>241.66666666666669</ele><time>2026-04-10T17:49:17.999Z</time></trkpt><trkpt lat="45.03527508668955" lon="7.958544266502413"><ele>241.5</ele><time>2026-04-10T17:49:19.999Z</time></trkpt><trkpt lat="45.035225000251266" lon="7.958645519232928"><ele>241.33333333333331</ele><time>2026-04-10T17:49:21.999Z</time></trkpt><trkpt lat="45.03517482898902" lon="7.958747667158882"><ele>241.16666666666666</ele><time>2026-04-10T17:49:23.999Z</time></trkpt><trkpt lat="45.03513366954597" lon="7.95885941878279"><ele>241.0</ele><time>2026-04-10T17:49:25.999Z</time></trkpt><trkpt lat="45.03509566391309" lon="7.958934072739831"><ele>241.0</ele><time>2026-04-10T17:49:27.999Z</time></trkpt><trkpt lat="45.03503681489024" lon="7.959023811553953"><ele>241.00000000000003</ele><time>2026-04-10T17:49:30.999Z</time></trkpt><trkpt lat="45.034974526209574" lon="7.959113963577288"><ele>241.00000000000003</ele><time>2026-04-10T17:49:32.999Z</time></trkpt><trkpt lat="45.034919686904416" lon="7.959189803706743"><ele>241.0</ele><time>2026-04-10T17:49:34.999Z</time></trkpt><trkpt lat="45.03485292170882" lon="7.95929143965034"><ele>241.0</ele><time>2026-04-10T17:49:36.999Z</time></trkpt><trkpt lat="45.03478626102409" lon="7.959424894902483"><ele>240.20000000000002</ele><time>2026-04-10T17:49:40Z</time></trkpt><trkpt lat="45.03474056238777" lon="7.959551624584027"><ele>239.40000000000003</ele><time>2026-04-10T17:49:42Z</time></trkpt><trkpt lat="45.034699782378624" lon="7.9596471147395995"><ele>238.6</ele><time>2026-04-10T17:49:43Z</time></trkpt><trkpt lat="45.034654438980056" lon="7.959786394000566"><ele>237.8</ele><time>2026-04-10T17:49:45Z</time></trkpt><trkpt lat="45.0346221100052" lon="7.959925666415711"><ele>237.0</ele><time>2026-04-10T17:49:47Z</time></trkpt><trkpt lat="45.03460651331363" lon="7.96007669549129"><ele>236.8</ele><time>2026-04-10T17:49:49Z</time></trkpt><trkpt lat="45.03460584077645" lon="7.960213513532965"><ele>236.6</ele><time>2026-04-10T17:49:51Z</time></trkpt><trkpt lat="45.034587278937735" lon="7.960353427438359"><ele>236.40000000000003</ele><time>2026-04-10T17:49:53Z</time></trkpt><trkpt lat="45.03457339768468" lon="7.960510645969727"><ele>236.20000000000002</ele><time>2026-04-10T17:49:55Z</time></trkpt><trkpt lat="45.03455355986142" lon="7.960625137914627"><ele>236.0</ele><time>2026-04-10T17:49:57Z</time></trkpt><trkpt lat="45.034597954491765" lon="7.960772731498086"><ele>235.0</ele><time>2026-04-10T17:49:59Z</time></trkpt><trkpt lat="45.034655250139444" lon="7.960908634819474"><ele>234.00000000000003</ele><time>2026-04-10T17:50:01Z</time></trkpt><trkpt lat="45.03471576029338" lon="7.961026601308012"><ele>233.00000000000003</ele><time>2026-04-10T17:50:03Z</time></trkpt><trkpt lat="45.03477018470001" lon="7.961141713710678"><ele>232.0</ele><time>2026-04-10T17:50:05Z</time></trkpt><trkpt lat="45.03483438828625" lon="7.961247478943473"><ele>231.0</ele><time>2026-04-10T17:50:07Z</time></trkpt><trkpt lat="45.03489933110604" lon="7.961346579366987"><ele>231.4</ele><time>2026-04-10T17:50:09Z</time></trkpt><trkpt lat="45.03497652230738" lon="7.961429153035739"><ele>231.8</ele><time>2026-04-10T17:50:11Z</time></trkpt><trkpt lat="45.03503930419995" lon="7.961529591668739"><ele>232.20000000000002</ele><time>2026-04-10T17:50:13Z</time></trkpt><trkpt lat="45.0350967326358" lon="7.9616347832505845"><ele>232.60000000000002</ele><time>2026-04-10T17:50:15Z</time></trkpt><trkpt lat="45.035152767182616" lon="7.96174466039008"><ele>233.0</ele><time>2026-04-10T17:50:17Z</time></trkpt><trkpt lat="45.035204859376975" lon="7.9618518088047505"><ele>233.0</ele><time>2026-04-10T17:50:19Z</time></trkpt><trkpt lat="45.035243827098974" lon="7.961952006423366"><ele>233.0</ele><time>2026-04-10T17:50:21Z</time></trkpt><trkpt lat="45.035280900617686" lon="7.962029472237022"><ele>233.0</ele><time>2026-04-10T17:50:24Z</time></trkpt><trkpt lat="45.03534712713927" lon="7.9621742227535535"><ele>233.0</ele><time>2026-04-10T17:50:25Z</time></trkpt><trkpt lat="45.03542292403661" lon="7.962323755722121"><ele>233.0</ele><time>2026-04-10T17:50:27Z</time></trkpt><trkpt lat="45.03548263474888" lon="7.962446512032702"><ele>232.8</ele><time>2026-04-10T17:50:29Z</time></trkpt><trkpt lat="45.035561658292245" lon="7.96256302187957"><ele>232.60000000000002</ele><time>2026-04-10T17:50:31Z</time></trkpt><trkpt lat="45.035613418713496" lon="7.962677597684715"><ele>232.39999999999998</ele><time>2026-04-10T17:50:33Z</time></trkpt><trkpt lat="45.03567279824544" lon="7.962752777823672"><ele>232.2</ele><time>2026-04-10T17:50:35Z</time></trkpt><trkpt lat="45.03576375446773" lon="7.96280974412454"><ele>232.0</ele><time>2026-04-10T17:50:36.999Z</time></trkpt><trkpt lat="45.03585706572436" lon="7.962786490363801"><ele>232.0</ele><time>2026-04-10T17:50:38.999Z</time></trkpt><trkpt lat="45.03594937615208" lon="7.962772122395603"><ele>232.0</ele><time>2026-04-10T17:50:40.999Z</time></trkpt><trkpt lat="45.03604573791507" lon="7.962766634161864"><ele>232.0</ele><time>2026-04-10T17:50:42.999Z</time></trkpt><trkpt lat="45.03613496465607" lon="7.96276006814773"><ele>232.0</ele><time>2026-04-10T17:50:44.999Z</time></trkpt><trkpt lat="45.03621596245972" lon="7.96275509843434"><ele>232.0</ele><time>2026-04-10T17:50:46.999Z</time></trkpt><trkpt lat="45.03630785790479" lon="7.96274260335738"><ele>232.0</ele><time>2026-04-10T17:50:48.999Z</time></trkpt><trkpt lat="45.036398007709124" lon="7.962759357666102"><ele>232.0</ele><time>2026-04-10T17:50:50.999Z</time></trkpt><trkpt lat="45.036503040244796" lon="7.962743999283619"><ele>232.0</ele><time>2026-04-10T17:50:52.999Z</time></trkpt><trkpt lat="45.03660150178427" lon="7.962718889238068"><ele>232.0</ele><time>2026-04-10T17:50:54.999Z</time></trkpt><trkpt lat="45.036703568582574" lon="7.962667895615013"><ele>232.0</ele><time>2026-04-10T17:50:56.999Z</time></trkpt><trkpt lat="45.03680395155001" lon="7.962612294647788"><ele>231.8</ele><time>2026-04-10T17:50:58.999Z</time></trkpt><trkpt lat="45.03690305213984" lon="7.962547383782226"><ele>231.6</ele><time>2026-04-10T17:51:00.999Z</time></trkpt><trkpt lat="45.0370038729882" lon="7.9624863112521265"><ele>231.40000000000003</ele><time>2026-04-10T17:51:02.999Z</time></trkpt><trkpt lat="45.03708736741753" lon="7.962426980747478"><ele>231.20000000000002</ele><time>2026-04-10T17:51:04.999Z</time></trkpt><trkpt lat="45.03717114291867" lon="7.962372865674052"><ele>231.0</ele><time>2026-04-10T17:51:06.999Z</time></trkpt><trkpt lat="45.03725403398098" lon="7.962339903000309"><ele>232.20000000000002</ele><time>2026-04-10T17:51:08.999Z</time></trkpt><trkpt lat="45.03734048461758" lon="7.962285853873568"><ele>233.40000000000003</ele><time>2026-04-10T17:51:10.999Z</time></trkpt><trkpt lat="45.03741935569247" lon="7.96223726420372"><ele>234.6</ele><time>2026-04-10T17:51:12.999Z</time></trkpt><trkpt lat="45.03751152914631" lon="7.962175405549155"><ele>235.8</ele><time>2026-04-10T17:51:14.999Z</time></trkpt><trkpt lat="45.03760231945091" lon="7.962109674823769"><ele>237.0</ele><time>2026-04-10T17:51:16.999Z</time></trkpt><trkpt lat="45.0376911622563" lon="7.962035904330079"><ele>237.0</ele><time>2026-04-10T17:51:18.999Z</time></trkpt><trkpt lat="45.037768060475564" lon="7.9619590632696395"><ele>237.0</ele><time>2026-04-10T17:51:20.999Z</time></trkpt><trkpt lat="45.037848349899164" lon="7.96187287291375"><ele>237.0</ele><time>2026-04-10T17:51:22.999Z</time></trkpt><trkpt lat="45.037913478819874" lon="7.961801541386887"><ele>237.0</ele><time>2026-04-10T17:51:24.999Z</time></trkpt><trkpt lat="45.03797245132106" lon="7.96170817158785"><ele>237.0</ele><time>2026-04-10T17:51:26.999Z</time></trkpt><trkpt lat="45.03803777762483" lon="7.961638725347399"><ele>237.0</ele><time>2026-04-10T17:51:28.999Z</time></trkpt><trkpt lat="45.03810170159948" lon="7.961572820375265"><ele>237.16666666666666</ele><time>2026-04-10T17:51:30.999Z</time></trkpt><trkpt lat="45.03816954176432" lon="7.961509414519557"><ele>237.33333333333331</ele><time>2026-04-10T17:51:32.999Z</time></trkpt><trkpt lat="45.038240059729965" lon="7.961470751321179"><ele>237.5</ele><time>2026-04-10T17:51:34.999Z</time></trkpt><trkpt lat="45.038302598461044" lon="7.961436961261209"><ele>237.66666666666666</ele><time>2026-04-10T17:51:36.999Z</time></trkpt><trkpt lat="45.03839122988268" lon="7.961419257858093"><ele>237.83333333333331</ele><time>2026-04-10T17:51:40.999Z</time></trkpt><trkpt lat="45.03845471047248" lon="7.961398321735816"><ele>238.0</ele><time>2026-04-10T17:51:44Z</time></trkpt><trkpt lat="45.03853303797836" lon="7.961390036767121"><ele>237.99999999999997</ele><time>2026-04-10T17:51:48Z</time></trkpt><trkpt lat="45.03859257153792" lon="7.961451641888417"><ele>238.0</ele><time>2026-04-10T17:51:52Z</time></trkpt><trkpt lat="45.03860325961579" lon="7.96154143013527"><ele>238.0</ele><time>2026-04-10T17:51:54Z</time></trkpt><trkpt lat="45.03861096435229" lon="7.961680029789431"><ele>238.0</ele><time>2026-04-10T17:51:56Z</time></trkpt><trkpt lat="45.03861963731332" lon="7.9618065496454085"><ele>237.99999999999997</ele><time>2026-04-10T17:51:58Z</time></trkpt><trkpt lat="45.038630939434555" lon="7.961944603481415"><ele>238.0</ele><time>2026-04-10T17:52:00Z</time></trkpt><trkpt lat="45.03863700927275" lon="7.962093848913518"><ele>237.8</ele><time>2026-04-10T17:52:02Z</time></trkpt><trkpt lat="45.0386408345505" lon="7.962243293736528"><ele>237.60000000000002</ele><time>2026-04-10T17:52:04Z</time></trkpt><trkpt lat="45.038649498915156" lon="7.962394775773919"><ele>237.39999999999998</ele><time>2026-04-10T17:52:06Z</time></trkpt><trkpt lat="45.03865404117318" lon="7.962562259356974"><ele>237.2</ele><time>2026-04-10T17:52:08Z</time></trkpt><trkpt lat="45.03866316200789" lon="7.962727379308219"><ele>237.0</ele><time>2026-04-10T17:52:10Z</time></trkpt><trkpt lat="45.03866333650325" lon="7.962817205278069"><ele>236.83333333333334</ele><time>2026-04-10T17:52:11Z</time></trkpt><trkpt lat="45.038666698829175" lon="7.962906401946852"><ele>236.66666666666669</ele><time>2026-04-10T17:52:12Z</time></trkpt><trkpt lat="45.038666312563585" lon="7.962996583848882"><ele>236.5</ele><time>2026-04-10T17:52:13Z</time></trkpt><trkpt lat="45.03866974919358" lon="7.963085781650056"><ele>236.33333333333334</ele><time>2026-04-10T17:52:14Z</time></trkpt><trkpt lat="45.03867934828475" lon="7.963254987056622"><ele>236.16666666666669</ele><time>2026-04-10T17:52:16Z</time></trkpt><trkpt lat="45.038682653666974" lon="7.963345270774092"><ele>236.0</ele><time>2026-04-10T17:52:17Z</time></trkpt><trkpt lat="45.038692233213105" lon="7.963517379612483"><ele>235.75</ele><time>2026-04-10T17:52:19Z</time></trkpt><trkpt lat="45.0386980659403" lon="7.963689651840945"><ele>235.5</ele><time>2026-04-10T17:52:21Z</time></trkpt><trkpt lat="45.038713580158806" lon="7.963858940358724"><ele>235.25</ele><time>2026-04-10T17:52:23Z</time></trkpt><trkpt lat="45.03873820825024" lon="7.964025583645876"><ele>235.0</ele><time>2026-04-10T17:52:25Z</time></trkpt><trkpt lat="45.03879092328259" lon="7.9641747261089515"><ele>235.2</ele><time>2026-04-10T17:52:27Z</time></trkpt><trkpt lat="45.038867603300865" lon="7.964308655503937"><ele>235.4</ele><time>2026-04-10T17:52:29Z</time></trkpt><trkpt lat="45.038956670847725" lon="7.964411236973103"><ele>235.60000000000002</ele><time>2026-04-10T17:52:31Z</time></trkpt><trkpt lat="45.03905312683174" lon="7.964489536818309"><ele>235.8</ele><time>2026-04-10T17:52:33Z</time></trkpt><trkpt lat="45.03913376989763" lon="7.964570092474466"><ele>236.0</ele><time>2026-04-10T17:52:35Z</time></trkpt><trkpt lat="45.039206056545105" lon="7.964660948692454"><ele>236.20000000000002</ele><time>2026-04-10T17:52:37Z</time></trkpt><trkpt lat="45.03928204710254" lon="7.964741124494872"><ele>236.40000000000003</ele><time>2026-04-10T17:52:38.999Z</time></trkpt><trkpt lat="45.03936830275631" lon="7.964823734887334"><ele>236.6</ele><time>2026-04-10T17:52:40.999Z</time></trkpt><trkpt lat="45.03945097278484" lon="7.96491333257915"><ele>236.8</ele><time>2026-04-10T17:52:42.999Z</time></trkpt><trkpt lat="45.039527595493944" lon="7.965017232033855"><ele>237.0</ele><time>2026-04-10T17:52:44.999Z</time></trkpt><trkpt lat="45.03960710553339" lon="7.965124451825951"><ele>237.2</ele><time>2026-04-10T17:52:46.999Z</time></trkpt><trkpt lat="45.03968725079308" lon="7.965238812779485"><ele>237.39999999999998</ele><time>2026-04-10T17:52:48.999Z</time></trkpt><trkpt lat="45.03976658637124" lon="7.965343981208361"><ele>237.60000000000002</ele><time>2026-04-10T17:52:50.999Z</time></trkpt><trkpt lat="45.03984364342525" lon="7.965451089723083"><ele>237.8</ele><time>2026-04-10T17:52:52.999Z</time></trkpt><trkpt lat="45.03992053102102" lon="7.965546172646054"><ele>238.0</ele><time>2026-04-10T17:52:54.999Z</time></trkpt><trkpt lat="45.039980528539395" lon="7.965650433988714"><ele>237.99999999999997</ele><time>2026-04-10T17:52:56.999Z</time></trkpt><trkpt lat="45.03996137826186" lon="7.9657765598218475"><ele>238.0</ele><time>2026-04-10T17:52:58.999Z</time></trkpt><trkpt lat="45.039878055674905" lon="7.965834902597504"><ele>238.0</ele><time>2026-04-10T17:53:00.999Z</time></trkpt><trkpt lat="45.039797628109426" lon="7.965881795891649"><ele>238.0</ele><time>2026-04-10T17:53:02.999Z</time></trkpt><trkpt lat="45.039719716111435" lon="7.9659227743722925"><ele>237.99999999999997</ele><time>2026-04-10T17:53:04.999Z</time></trkpt><trkpt lat="45.039640376072256" lon="7.965961694123263"><ele>238.0</ele><time>2026-04-10T17:53:06.999Z</time></trkpt><trkpt lat="45.039577895789265" lon="7.965985131049761"><ele>238.0</ele><time>2026-04-10T17:53:08.999Z</time></trkpt><trkpt lat="45.03950854834592" lon="7.9659655146065145"><ele>238.0</ele><time>2026-04-10T17:53:12.999Z</time></trkpt><trkpt lat="45.03957018762159" lon="7.965936661235056"><ele>238.0</ele><time>2026-04-10T17:53:16.999Z</time></trkpt><trkpt lat="45.03961475534508" lon="7.9660328971866585"><ele>238.0</ele><time>2026-04-10T17:53:19.999Z</time></trkpt><trkpt lat="45.039673473986355" lon="7.96608108873087"><ele>238.0</ele><time>2026-04-10T17:53:21.999Z</time></trkpt><trkpt lat="45.039716854487246" lon="7.966161639006011"><ele>238.0</ele><time>2026-04-10T17:53:23.999Z</time></trkpt><trkpt lat="45.0397108035483" lon="7.966265568897481"><ele>238.0</ele><time>2026-04-10T17:53:25.999Z</time></trkpt><trkpt lat="45.039672622493384" lon="7.966355824280039"><ele>237.99999999999997</ele><time>2026-04-10T17:53:27.999Z</time></trkpt><trkpt lat="45.0396220737139" lon="7.966439604677065"><ele>238.0</ele><time>2026-04-10T17:53:29.999Z</time></trkpt><trkpt lat="45.039565097648456" lon="7.966523016276514"><ele>238.0</ele><time>2026-04-10T17:53:31.999Z</time></trkpt><trkpt lat="45.03954941523727" lon="7.966633818072336"><ele>238.0</ele><time>2026-04-10T17:53:33.999Z</time></trkpt><trkpt lat="45.03953764478754" lon="7.96675811060378"><ele>237.99999999999997</ele><time>2026-04-10T17:53:35.999Z</time></trkpt><trkpt lat="45.03954260184266" lon="7.9668944344709125"><ele>238.0</ele><time>2026-04-10T17:53:37.999Z</time></trkpt><trkpt lat="45.03956453616088" lon="7.967025600730476"><ele>238.2</ele><time>2026-04-10T17:53:39.999Z</time></trkpt><trkpt lat="45.03958421303321" lon="7.967159003323646"><ele>238.4</ele><time>2026-04-10T17:53:41.999Z</time></trkpt><trkpt lat="45.039603553747625" lon="7.967288004437839"><ele>238.59999999999997</ele><time>2026-04-10T17:53:43.999Z</time></trkpt><trkpt lat="45.039622322916756" lon="7.967419340557311"><ele>238.79999999999998</ele><time>2026-04-10T17:53:45.999Z</time></trkpt><trkpt lat="45.03964534675098" lon="7.967552597309147"><ele>239.0</ele><time>2026-04-10T17:53:47.999Z</time></trkpt><trkpt lat="45.03966479672257" lon="7.967672411709796"><ele>239.33333333333334</ele><time>2026-04-10T17:53:50Z</time></trkpt><trkpt lat="45.03968441358446" lon="7.9677928599229135"><ele>239.66666666666669</ele><time>2026-04-10T17:53:52Z</time></trkpt><trkpt lat="45.0397112379083" lon="7.967913134601336"><ele>240.0</ele><time>2026-04-10T17:53:54Z</time></trkpt><trkpt lat="45.03974046379613" lon="7.968030125628508"><ele>240.33333333333331</ele><time>2026-04-10T17:53:56Z</time></trkpt><trkpt lat="45.03976447622102" lon="7.96814173105099"><ele>240.66666666666666</ele><time>2026-04-10T17:53:58Z</time></trkpt><trkpt lat="45.039775898656465" lon="7.968257624127415"><ele>241.0</ele><time>2026-04-10T17:54:00Z</time></trkpt><trkpt lat="45.039802112457906" lon="7.968366180942159"><ele>241.66666666666666</ele><time>2026-04-10T17:54:02Z</time></trkpt><trkpt lat="45.0398279096087" lon="7.968475362247774"><ele>242.33333333333331</ele><time>2026-04-10T17:54:04Z</time></trkpt><trkpt lat="45.039849757260065" lon="7.9685824244352"><ele>243.0</ele><time>2026-04-10T17:54:06Z</time></trkpt><trkpt lat="45.03987123081504" lon="7.968688148606048"><ele>243.66666666666669</ele><time>2026-04-10T17:54:08Z</time></trkpt><trkpt lat="45.03989020328581" lon="7.968784669105826"><ele>244.33333333333334</ele><time>2026-04-10T17:54:10Z</time></trkpt><trkpt lat="45.03990493935649" lon="7.968887755969906"><ele>245.0</ele><time>2026-04-10T17:54:12Z</time></trkpt><trkpt lat="45.039934206196364" lon="7.969018253699687"><ele>245.00000000000003</ele><time>2026-04-10T17:54:15Z</time></trkpt><trkpt lat="45.03994904768914" lon="7.969110452065627"><ele>245.0</ele><time>2026-04-10T17:54:17Z</time></trkpt><trkpt lat="45.039962601820356" lon="7.969197482098095"><ele>245.0</ele><time>2026-04-10T17:54:19Z</time></trkpt><trkpt lat="45.039984505048444" lon="7.969323437833528"><ele>245.0</ele><time>2026-04-10T17:54:22Z</time></trkpt><trkpt lat="45.040008613466455" lon="7.969444574078918"><ele>245.00000000000003</ele><time>2026-04-10T17:54:25Z</time></trkpt><trkpt lat="45.04003075769314" lon="7.969564264128277"><ele>245.0</ele><time>2026-04-10T17:54:28Z</time></trkpt><trkpt lat="45.04004861617858" lon="7.969685313591528"><ele>245.42857142857144</ele><time>2026-04-10T17:54:31Z</time></trkpt><trkpt lat="45.04006550009226" lon="7.969777732403089"><ele>245.85714285714286</ele><time>2026-04-10T17:54:33Z</time></trkpt><trkpt lat="45.04009299130004" lon="7.969907308482724"><ele>246.28571428571428</ele><time>2026-04-10T17:54:36Z</time></trkpt><trkpt lat="45.04011761888204" lon="7.970031302738997"><ele>246.71428571428572</ele><time>2026-04-10T17:54:39Z</time></trkpt><trkpt lat="45.04013398240712" lon="7.970119052655003"><ele>247.14285714285717</ele><time>2026-04-10T17:54:41Z</time></trkpt><trkpt lat="45.04015020607223" lon="7.970207479483249"><ele>247.57142857142858</ele><time>2026-04-10T17:54:43Z</time></trkpt><trkpt lat="45.040165384943165" lon="7.9702978329457626"><ele>248.0</ele><time>2026-04-10T17:54:45Z</time></trkpt><trkpt lat="45.040180873561155" lon="7.970388680288502"><ele>250.0</ele><time>2026-04-10T17:54:46.999Z</time></trkpt><trkpt lat="45.040199311914606" lon="7.9704770234822675"><ele>252.00000000000003</ele><time>2026-04-10T17:54:48.999Z</time></trkpt><trkpt lat="45.04021414330495" lon="7.9705663509028"><ele>254.0</ele><time>2026-04-10T17:54:50.999Z</time></trkpt><trkpt lat="45.040232528372144" lon="7.970656987158587"><ele>256.0</ele><time>2026-04-10T17:54:52.999Z</time></trkpt><trkpt lat="45.04024693195945" lon="7.9707442358331555"><ele>258.0</ele><time>2026-04-10T17:54:54.999Z</time></trkpt><trkpt lat="45.040264098579925" lon="7.970831691372761"><ele>260.0</ele><time>2026-04-10T17:54:56.999Z</time></trkpt><trkpt lat="45.04028194116533" lon="7.970959099661719"><ele>262.0</ele><time>2026-04-10T17:54:59.999Z</time></trkpt><trkpt lat="45.04030023342186" lon="7.971088857489519"><ele>261.16666666666663</ele><time>2026-04-10T17:55:02.999Z</time></trkpt><trkpt lat="45.040322417017485" lon="7.97121786599027"><ele>260.3333333333333</ele><time>2026-04-10T17:55:05.999Z</time></trkpt><trkpt lat="45.0403429125863" lon="7.971345306080769"><ele>259.5</ele><time>2026-04-10T17:55:08.999Z</time></trkpt><trkpt lat="45.04035358493796" lon="7.971475497952481"><ele>258.6666666666667</ele><time>2026-04-10T17:55:11.999Z</time></trkpt><trkpt lat="45.04036249458777" lon="7.971579184695167"><ele>257.83333333333337</ele><time>2026-04-10T17:55:13.999Z</time></trkpt><trkpt lat="45.04037541264535" lon="7.971681711703365"><ele>257.0</ele><time>2026-04-10T17:55:15.999Z</time></trkpt><trkpt lat="45.04038791753329" lon="7.971786014366111"><ele>257.0</ele><time>2026-04-10T17:55:17.999Z</time></trkpt><trkpt lat="45.04039992772285" lon="7.971905248638728"><ele>257.0</ele><time>2026-04-10T17:55:20.999Z</time></trkpt><trkpt lat="45.04039523504261" lon="7.97200546133319"><ele>257.0</ele><time>2026-04-10T17:55:22.999Z</time></trkpt><trkpt lat="45.04042461922509" lon="7.972105508590354"><ele>257.0</ele><time>2026-04-10T17:55:24.999Z</time></trkpt><trkpt lat="45.04043950903091" lon="7.972207440177308"><ele>257.0</ele><time>2026-04-10T17:55:26.999Z</time></trkpt><trkpt lat="45.040450654633894" lon="7.97231795827917"><ele>257.0</ele><time>2026-04-10T17:55:28.999Z</time></trkpt><trkpt lat="45.04046891122746" lon="7.972424661141237"><ele>256.1666666666667</ele><time>2026-04-10T17:55:30.999Z</time></trkpt><trkpt lat="45.040479953752616" lon="7.972536354052362"><ele>255.33333333333334</ele><time>2026-04-10T17:55:32.999Z</time></trkpt><trkpt lat="45.0404969457814" lon="7.972644789017642"><ele>254.5</ele><time>2026-04-10T17:55:34.999Z</time></trkpt><trkpt lat="45.040511809543055" lon="7.9727587072311055"><ele>253.66666666666669</ele><time>2026-04-10T17:55:36.999Z</time></trkpt><trkpt lat="45.04052169355179" lon="7.972879017611531"><ele>252.83333333333334</ele><time>2026-04-10T17:55:38.999Z</time></trkpt><trkpt lat="45.04053885586287" lon="7.972995466620815"><ele>252.0</ele><time>2026-04-10T17:55:40.999Z</time></trkpt><trkpt lat="45.040554587479754" lon="7.973110677719497"><ele>252.0</ele><time>2026-04-10T17:55:42.999Z</time></trkpt><trkpt lat="45.04056820937036" lon="7.973225357801597"><ele>252.0</ele><time>2026-04-10T17:55:44.999Z</time></trkpt><trkpt lat="45.040580644878276" lon="7.973334659227789"><ele>252.0</ele><time>2026-04-10T17:55:46.999Z</time></trkpt><trkpt lat="45.040592038278206" lon="7.973445491359409"><ele>252.0</ele><time>2026-04-10T17:55:48.999Z</time></trkpt><trkpt lat="45.040606050769114" lon="7.973553845903057"><ele>252.0</ele><time>2026-04-10T17:55:50.999Z</time></trkpt><trkpt lat="45.04061516432018" lon="7.973665496694588"><ele>252.0</ele><time>2026-04-10T17:55:52.999Z</time></trkpt><trkpt lat="45.0406298191284" lon="7.973771327473215"><ele>254.33333333333334</ele><time>2026-04-10T17:55:54.999Z</time></trkpt><trkpt lat="45.040647448821474" lon="7.973873469405706"><ele>256.6666666666667</ele><time>2026-04-10T17:55:57Z</time></trkpt><trkpt lat="45.04066450256038" lon="7.973983866999933"><ele>259.0</ele><time>2026-04-10T17:55:59Z</time></trkpt><trkpt lat="45.04067668078215" lon="7.974095604432942"><ele>261.33333333333337</ele><time>2026-04-10T17:56:01Z</time></trkpt><trkpt lat="45.04068954654909" lon="7.974198963023404"><ele>263.6666666666667</ele><time>2026-04-10T17:56:03Z</time></trkpt><trkpt lat="45.04070058693589" lon="7.974307400694661"><ele>266.0</ele><time>2026-04-10T17:56:05Z</time></trkpt><trkpt lat="45.040717665862466" lon="7.974410496143435"><ele>268.85714285714283</ele><time>2026-04-10T17:56:07Z</time></trkpt><trkpt lat="45.04073184945767" lon="7.9745144837306245"><ele>271.7142857142857</ele><time>2026-04-10T17:56:09Z</time></trkpt><trkpt lat="45.040744191966375" lon="7.974617613987541"><ele>274.57142857142856</ele><time>2026-04-10T17:56:11Z</time></trkpt><trkpt lat="45.04075781541726" lon="7.9747187032797155"><ele>277.42857142857144</ele><time>2026-04-10T17:56:13Z</time></trkpt><trkpt lat="45.04077091068908" lon="7.974824229684108"><ele>280.2857142857143</ele><time>2026-04-10T17:56:15Z</time></trkpt><trkpt lat="45.040780802749154" lon="7.974930638621884"><ele>283.1428571428571</ele><time>2026-04-10T17:56:17Z</time></trkpt><trkpt lat="45.040797903038516" lon="7.975027416377065"><ele>286.0</ele><time>2026-04-10T17:56:19Z</time></trkpt><trkpt lat="45.04081941474211" lon="7.975124352361399"><ele>287.0</ele><time>2026-04-10T17:56:21.023Z</time></trkpt><trkpt lat="45.04084074927676" lon="7.9752182920410615"><ele>288.0</ele><time>2026-04-10T17:56:23.031Z</time></trkpt><trkpt lat="45.04086150017001" lon="7.975319071821782"><ele>289.0</ele><time>2026-04-10T17:56:25.019Z</time></trkpt><trkpt lat="45.04088786443862" lon="7.975419148996918"><ele>290.0</ele><time>2026-04-10T17:56:27.022Z</time></trkpt><trkpt lat="45.04107403370806" lon="7.97611337761593"><ele>288.0</ele><time>2026-04-10T17:56:36Z</time></trkpt><trkpt lat="45.04101419696904" lon="7.976208429287659"><ele>286.0</ele><time>2026-04-10T17:56:37Z</time></trkpt><trkpt lat="45.04097031272903" lon="7.976297917825088"><ele>284.0</ele><time>2026-04-10T17:56:38Z</time></trkpt><trkpt lat="45.04096273938694" lon="7.97638969029889"><ele>282.0</ele><time>2026-04-10T17:56:39Z</time></trkpt><trkpt lat="45.04097662584906" lon="7.976560318548427"><ele>280.0</ele><time>2026-04-10T17:56:41Z</time></trkpt><trkpt lat="45.04098262228237" lon="7.976655689855361"><ele>278.0</ele><time>2026-04-10T17:56:42Z</time></trkpt><trkpt lat="45.041004972604306" lon="7.976837582278249"><ele>274.83333333333337</ele><time>2026-04-10T17:56:44Z</time></trkpt><trkpt lat="45.04101334241945" lon="7.976936552230689"><ele>271.6666666666667</ele><time>2026-04-10T17:56:45Z</time></trkpt><trkpt lat="45.04102901902663" lon="7.977036767441291"><ele>268.5</ele><time>2026-04-10T17:56:46Z</time></trkpt><trkpt lat="45.04104426745381" lon="7.9771414126387485"><ele>265.3333333333333</ele><time>2026-04-10T17:56:47Z</time></trkpt><trkpt lat="45.0410564497749" lon="7.977251181591299"><ele>262.16666666666663</ele><time>2026-04-10T17:56:48Z</time></trkpt><trkpt lat="45.04106567272337" lon="7.977360195187759"><ele>259.0</ele><time>2026-04-10T17:56:49Z</time></trkpt><trkpt lat="45.04107849390796" lon="7.977469303778573"><ele>257.8333333333333</ele><time>2026-04-10T17:56:49.999Z</time></trkpt><trkpt lat="45.041095180310904" lon="7.977583716581044"><ele>256.66666666666663</ele><time>2026-04-10T17:56:50.999Z</time></trkpt><trkpt lat="45.041113840841405" lon="7.977696829695627"><ele>255.5</ele><time>2026-04-10T17:56:51.999Z</time></trkpt><trkpt lat="45.041126621021974" lon="7.977810879037011"><ele>254.33333333333331</ele><time>2026-04-10T17:56:52.999Z</time></trkpt><trkpt lat="45.041138439592004" lon="7.9779227354741575"><ele>253.16666666666666</ele><time>2026-04-10T17:56:53.999Z</time></trkpt><trkpt lat="45.041147063143626" lon="7.978031515864216"><ele>252.0</ele><time>2026-04-10T17:56:54.999Z</time></trkpt><trkpt lat="45.04115403642611" lon="7.978128180673289"><ele>252.0</ele><time>2026-04-10T17:56:55.999Z</time></trkpt><trkpt lat="45.041132252626944" lon="7.978302025923262"><ele>252.0</ele><time>2026-04-10T17:56:57.999Z</time></trkpt><trkpt lat="45.041066373992805" lon="7.9784493679405335"><ele>252.0</ele><time>2026-04-10T17:56:59.999Z</time></trkpt><trkpt lat="45.0410228705651" lon="7.978598306759927"><ele>252.0</ele><time>2026-04-10T17:57:01.999Z</time></trkpt><trkpt lat="45.04103891835074" lon="7.978754447404586"><ele>253.5</ele><time>2026-04-10T17:57:03.999Z</time></trkpt><trkpt lat="45.04111417688344" lon="7.978862884644936"><ele>255.0</ele><time>2026-04-10T17:57:05.999Z</time></trkpt><trkpt lat="45.04119366958554" lon="7.978944061672263"><ele>256.5</ele><time>2026-04-10T17:57:07.999Z</time></trkpt><trkpt lat="45.04123810680229" lon="7.9790531232097095"><ele>258.0</ele><time>2026-04-10T17:57:09.999Z</time></trkpt><trkpt lat="45.04126849453636" lon="7.9791493989090885"><ele>259.5</ele><time>2026-04-10T17:57:11.999Z</time></trkpt><trkpt lat="45.04127643017018" lon="7.979242592048111"><ele>261.0</ele><time>2026-04-10T17:57:13.999Z</time></trkpt><trkpt lat="45.041273641663985" lon="7.979339467227189"><ele>262.57142857142856</ele><time>2026-04-10T17:57:15.999Z</time></trkpt><trkpt lat="45.04124498489649" lon="7.979420231670025"><ele>264.1428571428571</ele><time>2026-04-10T17:57:17.999Z</time></trkpt><trkpt lat="45.04122139391404" lon="7.979524093828245"><ele>265.71428571428567</ele><time>2026-04-10T17:57:21.999Z</time></trkpt><trkpt lat="45.041204440306224" lon="7.979636357550881"><ele>267.2857142857143</ele><time>2026-04-10T17:57:26.999Z</time></trkpt><trkpt lat="45.041217208714336" lon="7.979732778351055"><ele>268.85714285714283</ele><time>2026-04-10T17:57:30.999Z</time></trkpt><trkpt lat="45.0411844575203" lon="7.979811687968473"><ele>270.4285714285714</ele><time>2026-04-10T17:57:35.999Z</time></trkpt><trkpt lat="45.04119153502753" lon="7.979942738902171"><ele>272.0</ele><time>2026-04-10T18:01:52.999Z</time></trkpt><trkpt lat="45.0412146696897" lon="7.980051600810666"><ele>273.85714285714283</ele><time>2026-04-10T18:01:56.999Z</time></trkpt><trkpt lat="45.04123382949149" lon="7.980151741049328"><ele>275.7142857142857</ele><time>2026-04-10T18:02:00.999Z</time></trkpt><trkpt lat="45.04125826287228" lon="7.980254355919902"><ele>277.57142857142856</ele><time>2026-04-10T18:02:04.999Z</time></trkpt><trkpt lat="45.04124868251716" lon="7.980366696601869"><ele>279.42857142857144</ele><time>2026-04-10T18:02:08.999Z</time></trkpt><trkpt lat="45.04128361641758" lon="7.980445536515068"><ele>281.2857142857143</ele><time>2026-04-10T18:02:11.999Z</time></trkpt><trkpt lat="45.041312793285336" lon="7.9805527714963835"><ele>283.1428571428571</ele><time>2026-04-10T18:02:16Z</time></trkpt><trkpt lat="45.04130637575043" lon="7.980643085335072"><ele>285.0</ele><time>2026-04-10T18:02:19Z</time></trkpt><trkpt lat="45.04132890997201" lon="7.980748748445408"><ele>286.42857142857144</ele><time>2026-04-10T18:02:23Z</time></trkpt><trkpt lat="45.041343362209425" lon="7.980854458165661"><ele>287.8571428571429</ele><time>2026-04-10T18:02:27Z</time></trkpt><trkpt lat="45.04136547803933" lon="7.98094141289536"><ele>289.28571428571433</ele><time>2026-04-10T18:02:31Z</time></trkpt><trkpt lat="45.04139588886743" lon="7.981041832904553"><ele>290.7142857142857</ele><time>2026-04-10T18:02:36Z</time></trkpt><trkpt lat="45.04143050507342" lon="7.98113520210278"><ele>292.14285714285717</ele><time>2026-04-10T18:02:40Z</time></trkpt><trkpt lat="45.04146688057519" lon="7.981220271366136"><ele>293.5714285714286</ele><time>2026-04-10T18:02:45Z</time></trkpt><trkpt lat="45.0415056967641" lon="7.981319706063142"><ele>295.0</ele><time>2026-04-10T18:02:50Z</time></trkpt><trkpt lat="45.04153624575035" lon="7.981399402377428"><ele>295.00000000000006</ele><time>2026-04-10T18:02:54Z</time></trkpt><trkpt lat="45.04154509973076" lon="7.981489512576319"><ele>295.0</ele><time>2026-04-10T18:02:58Z</time></trkpt><trkpt lat="45.041555559529776" lon="7.981581592324658"><ele>295.0</ele><time>2026-04-10T18:03:02Z</time></trkpt><trkpt lat="45.04156664010784" lon="7.981670220770572"><ele>295.0</ele><time>2026-04-10T18:03:06Z</time></trkpt><trkpt lat="45.041567259834665" lon="7.9817782517013125"><ele>295.0</ele><time>2026-04-10T18:03:10Z</time></trkpt><trkpt lat="45.04156133198824" lon="7.9818686911639025"><ele>295.00000000000006</ele><time>2026-04-10T18:03:13.999Z</time></trkpt><trkpt lat="45.041547409244814" lon="7.981965979109274"><ele>295.0</ele><time>2026-04-10T18:03:17.999Z</time></trkpt><trkpt lat="45.04152804616083" lon="7.982052882161893"><ele>295.14285714285717</ele><time>2026-04-10T18:03:21.999Z</time></trkpt><trkpt lat="45.04150554883768" lon="7.982152254846691"><ele>295.2857142857143</ele><time>2026-04-10T18:03:26.999Z</time></trkpt><trkpt lat="45.04147819710253" lon="7.982261684439873"><ele>295.42857142857144</ele><time>2026-04-10T18:03:31.999Z</time></trkpt><trkpt lat="45.04144509544981" lon="7.98235663050767"><ele>295.57142857142856</ele><time>2026-04-10T18:03:36.999Z</time></trkpt><trkpt lat="45.04142101845763" lon="7.982439965367949"><ele>295.7142857142857</ele><time>2026-04-10T18:03:40.999Z</time></trkpt><trkpt lat="45.04137102300898" lon="7.982498548773211"><ele>295.8571428571429</ele><time>2026-04-10T18:03:44.999Z</time></trkpt><trkpt lat="45.04133870717375" lon="7.982598071030099"><ele>296.0</ele><time>2026-04-10T18:03:48.999Z</time></trkpt><trkpt lat="45.04129532076463" lon="7.982678147958267"><ele>295.57142857142856</ele><time>2026-04-10T18:03:51.999Z</time></trkpt><trkpt lat="45.04125531700141" lon="7.982755845060421"><ele>295.1428571428571</ele><time>2026-04-10T18:03:55.999Z</time></trkpt><trkpt lat="45.041196176959126" lon="7.9828120651185435"><ele>294.71428571428567</ele><time>2026-04-10T18:03:58.999Z</time></trkpt><trkpt lat="45.04112183215875" lon="7.982872491568666"><ele>294.2857142857143</ele><time>2026-04-10T18:04:01.999Z</time></trkpt><trkpt lat="45.04106979890632" lon="7.9829456156862255"><ele>293.85714285714283</ele><time>2026-04-10T18:04:04.999Z</time></trkpt><trkpt lat="45.04100412699429" lon="7.9829968514691245"><ele>293.4285714285714</ele><time>2026-04-10T18:04:07.999Z</time></trkpt><trkpt lat="45.0409480302262" lon="7.983056714711975"><ele>293.0</ele><time>2026-04-10T18:04:10.999Z</time></trkpt><trkpt lat="45.04088426528016" lon="7.983071841360712"><ele>292.99999999999994</ele><time>2026-04-10T18:04:13.999Z</time></trkpt><trkpt lat="45.04081992797968" lon="7.98311096684578"><ele>293.0</ele><time>2026-04-10T18:04:16.999Z</time></trkpt><trkpt lat="45.04076056626308" lon="7.983142976509459"><ele>293.0</ele><time>2026-04-10T18:04:20Z</time></trkpt><trkpt lat="45.040695966028004" lon="7.98315640835836"><ele>293.0</ele><time>2026-04-10T18:04:23Z</time></trkpt><trkpt lat="45.040620267230715" lon="7.9831733525376585"><ele>293.0</ele><time>2026-04-10T18:04:26Z</time></trkpt><trkpt lat="45.04054085745186" lon="7.983219112725547"><ele>292.99999999999994</ele><time>2026-04-10T18:04:30Z</time></trkpt><trkpt lat="45.0404731028119" lon="7.983272580692644"><ele>293.0</ele><time>2026-04-10T18:04:33Z</time></trkpt><trkpt lat="45.04041340041062" lon="7.983307241236444"><ele>293.33333333333337</ele><time>2026-04-10T18:04:36Z</time></trkpt><trkpt lat="45.0403385918015" lon="7.983322654983357"><ele>293.6666666666667</ele><time>2026-04-10T18:04:39Z</time></trkpt><trkpt lat="45.04027104225414" lon="7.983391875246537"><ele>294.0</ele><time>2026-04-10T18:04:43Z</time></trkpt><trkpt lat="45.04020506452838" lon="7.98344429554916"><ele>294.3333333333333</ele><time>2026-04-10T18:04:46Z</time></trkpt><trkpt lat="45.04012979733467" lon="7.983500800739224"><ele>294.66666666666663</ele><time>2026-04-10T18:04:49Z</time></trkpt><trkpt lat="45.040047499737035" lon="7.983555035018899"><ele>295.0</ele><time>2026-04-10T18:04:52Z</time></trkpt><trkpt lat="45.03999012293773" lon="7.983595010479578"><ele>295.0</ele><time>2026-04-10T18:04:54Z</time></trkpt><trkpt lat="45.03993528602395" lon="7.983649805265055"><ele>295.0</ele><time>2026-04-10T18:04:56Z</time></trkpt><trkpt lat="45.039865073501275" lon="7.98370480690725"><ele>295.0</ele><time>2026-04-10T18:04:58Z</time></trkpt><trkpt lat="45.0397945276161" lon="7.983765655955729"><ele>295.0</ele><time>2026-04-10T18:05:00Z</time></trkpt><trkpt lat="45.03972502197635" lon="7.9838289048847395"><ele>295.0</ele><time>2026-04-10T18:05:02Z</time></trkpt><trkpt lat="45.03964874645325" lon="7.983899760261452"><ele>295.0</ele><time>2026-04-10T18:05:04Z</time></trkpt><trkpt lat="45.039564279848356" lon="7.983964535024429"><ele>295.0</ele><time>2026-04-10T18:05:05.999Z</time></trkpt><trkpt lat="45.03948334379216" lon="7.984030834608786"><ele>295.0</ele><time>2026-04-10T18:05:07.999Z</time></trkpt><trkpt lat="45.03940853378995" lon="7.98409734319054"><ele>295.0</ele><time>2026-04-10T18:05:09.999Z</time></trkpt><trkpt lat="45.03932670929157" lon="7.984161552906876"><ele>295.0</ele><time>2026-04-10T18:05:11.999Z</time></trkpt><trkpt lat="45.03924044420671" lon="7.984226075920501"><ele>295.0</ele><time>2026-04-10T18:05:13.999Z</time></trkpt><trkpt lat="45.039161236923675" lon="7.9842926821663065"><ele>293.8</ele><time>2026-04-10T18:05:15.999Z</time></trkpt><trkpt lat="45.039078832244506" lon="7.98435114252128"><ele>292.6</ele><time>2026-04-10T18:05:17.999Z</time></trkpt><trkpt lat="45.03899478255509" lon="7.984401281088783"><ele>291.4</ele><time>2026-04-10T18:05:19.999Z</time></trkpt><trkpt lat="45.038907401044476" lon="7.984462631795835"><ele>290.2</ele><time>2026-04-10T18:05:21.999Z</time></trkpt><trkpt lat="45.038808532099786" lon="7.984524135041094"><ele>289.0</ele><time>2026-04-10T18:05:23.999Z</time></trkpt><trkpt lat="45.03871145877969" lon="7.984597271963497"><ele>289.0</ele><time>2026-04-10T18:05:25.999Z</time></trkpt><trkpt lat="45.03860634729661" lon="7.984680990758139"><ele>289.0</ele><time>2026-04-10T18:05:27.999Z</time></trkpt><trkpt lat="45.038554507587946" lon="7.984732105885588"><ele>289.0</ele><time>2026-04-10T18:05:28.999Z</time></trkpt><trkpt lat="45.03849690834658" lon="7.984793898363838"><ele>289.0</ele><time>2026-04-10T18:05:29.999Z</time></trkpt><trkpt lat="45.03843859895687" lon="7.984855694327696"><ele>289.0</ele><time>2026-04-10T18:05:30.999Z</time></trkpt><trkpt lat="45.03838045816578" lon="7.984917230272528"><ele>289.0</ele><time>2026-04-10T18:05:31.999Z</time></trkpt><trkpt lat="45.03831787599454" lon="7.984984278301203"><ele>290.3333333333333</ele><time>2026-04-10T18:05:32.999Z</time></trkpt><trkpt lat="45.038250816879405" lon="7.9850437914637675"><ele>291.66666666666663</ele><time>2026-04-10T18:05:33.999Z</time></trkpt><trkpt lat="45.03817588643278" lon="7.985083790947885"><ele>293.0</ele><time>2026-04-10T18:05:34.999Z</time></trkpt><trkpt lat="45.03809129448339" lon="7.985106805143029"><ele>294.3333333333333</ele><time>2026-04-10T18:05:35.999Z</time></trkpt><trkpt lat="45.03800548737379" lon="7.9851100497164476"><ele>295.6666666666667</ele><time>2026-04-10T18:05:36.999Z</time></trkpt><trkpt lat="45.03792418397741" lon="7.985103451354813"><ele>297.0</ele><time>2026-04-10T18:05:37.999Z</time></trkpt><trkpt lat="45.03784780280069" lon="7.9850949577155825"><ele>297.0</ele><time>2026-04-10T18:05:38.999Z</time></trkpt><trkpt lat="45.037775383929514" lon="7.985090789391967"><ele>297.0</ele><time>2026-04-10T18:05:39.999Z</time></trkpt><trkpt lat="45.0377028323974" lon="7.985096545611118"><ele>297.0</ele><time>2026-04-10T18:05:40.999Z</time></trkpt><trkpt lat="45.03762743899652" lon="7.985105756359374"><ele>297.0</ele><time>2026-04-10T18:05:41.999Z</time></trkpt><trkpt lat="45.03756183906286" lon="7.9851379853211215"><ele>297.0</ele><time>2026-04-10T18:05:42.999Z</time></trkpt><trkpt lat="45.037493664460364" lon="7.985180346369973"><ele>297.0</ele><time>2026-04-10T18:05:43.999Z</time></trkpt><trkpt lat="45.037428561728525" lon="7.985220858734424"><ele>297.0</ele><time>2026-04-10T18:05:44.999Z</time></trkpt><trkpt lat="45.03736960009538" lon="7.985270222312202"><ele>296.2857142857143</ele><time>2026-04-10T18:05:45.999Z</time></trkpt><trkpt lat="45.03730702018369" lon="7.985316290824051"><ele>295.5714285714286</ele><time>2026-04-10T18:05:46.999Z</time></trkpt><trkpt lat="45.03724733222087" lon="7.985393566123652"><ele>294.8571428571429</ele><time>2026-04-10T18:05:47.999Z</time></trkpt><trkpt lat="45.037199178170106" lon="7.985469947066943"><ele>294.14285714285717</ele><time>2026-04-10T18:05:48.999Z</time></trkpt><trkpt lat="45.037150515723496" lon="7.985539855349299"><ele>293.42857142857144</ele><time>2026-04-10T18:05:49.999Z</time></trkpt><trkpt lat="45.03709500799655" lon="7.985597668282427"><ele>292.7142857142857</ele><time>2026-04-10T18:05:50.999Z</time></trkpt><trkpt lat="45.03702628461611" lon="7.985647314945931"><ele>292.0</ele><time>2026-04-10T18:05:51.999Z</time></trkpt><trkpt lat="45.03695637952689" lon="7.9856850478598735"><ele>292.0</ele><time>2026-04-10T18:05:52.999Z</time></trkpt><trkpt lat="45.03688561901054" lon="7.985702519226401"><ele>292.0</ele><time>2026-04-10T18:05:53.999Z</time></trkpt><trkpt lat="45.03681026781259" lon="7.985698102620823"><ele>292.0</ele><time>2026-04-10T18:05:54.999Z</time></trkpt><trkpt lat="45.03673764024677" lon="7.985693170829137"><ele>292.0</ele><time>2026-04-10T18:05:55.999Z</time></trkpt><trkpt lat="45.036662226081724" lon="7.985694741731762"><ele>292.0</ele><time>2026-04-10T18:05:56.999Z</time></trkpt><trkpt lat="45.036591210278054" lon="7.985700429045511"><ele>292.0</ele><time>2026-04-10T18:05:57.999Z</time></trkpt><trkpt lat="45.03652413566674" lon="7.985704393821003"><ele>292.0</ele><time>2026-04-10T18:05:58.999Z</time></trkpt><trkpt lat="45.03645292108837" lon="7.985707420667324"><ele>291.1428571428571</ele><time>2026-04-10T18:05:59.999Z</time></trkpt><trkpt lat="45.03638175294729" lon="7.985711385229513"><ele>290.2857142857143</ele><time>2026-04-10T18:06:00.999Z</time></trkpt><trkpt lat="45.036313843869685" lon="7.9857147392536065"><ele>289.42857142857144</ele><time>2026-04-10T18:06:01.999Z</time></trkpt><trkpt lat="45.03624094665387" lon="7.985717270179018"><ele>288.57142857142856</ele><time>2026-04-10T18:06:02.999Z</time></trkpt><trkpt lat="45.036171876592256" lon="7.98571773979569"><ele>287.7142857142857</ele><time>2026-04-10T18:06:03.999Z</time></trkpt><trkpt lat="45.0361066746348" lon="7.98570906390586"><ele>286.85714285714283</ele><time>2026-04-10T18:06:04.999Z</time></trkpt><trkpt lat="45.036042554071805" lon="7.985694629743657"><ele>286.0</ele><time>2026-04-10T18:06:05.999Z</time></trkpt><trkpt lat="45.035924231331684" lon="7.985636677713821"><ele>285.99999999999994</ele><time>2026-04-10T18:06:07.999Z</time></trkpt><trkpt lat="45.03586712411327" lon="7.985588557118543"><ele>286.0</ele><time>2026-04-10T18:06:08.999Z</time></trkpt><trkpt lat="45.03581153645241" lon="7.985536910309891"><ele>286.0</ele><time>2026-04-10T18:06:09.999Z</time></trkpt><trkpt lat="45.03575727631928" lon="7.985479102558251"><ele>286.0</ele><time>2026-04-10T18:06:10.999Z</time></trkpt><trkpt lat="45.03570446723983" lon="7.985410267413667"><ele>286.0</ele><time>2026-04-10T18:06:11.999Z</time></trkpt><trkpt lat="45.03565716267897" lon="7.985331421691961"><ele>285.99999999999994</ele><time>2026-04-10T18:06:12.999Z</time></trkpt><trkpt lat="45.03561874071874" lon="7.985244388597497"><ele>286.0</ele><time>2026-04-10T18:06:13.999Z</time></trkpt><trkpt lat="45.03558074617162" lon="7.985158301736412"><ele>285.16666666666663</ele><time>2026-04-10T18:06:14.999Z</time></trkpt><trkpt lat="45.03552946068318" lon="7.985080258147498"><ele>284.3333333333333</ele><time>2026-04-10T18:06:15.999Z</time></trkpt><trkpt lat="45.03546591471132" lon="7.9850201102397405"><ele>283.5</ele><time>2026-04-10T18:06:16.999Z</time></trkpt><trkpt lat="45.03539099046209" lon="7.984991248541313"><ele>282.6666666666667</ele><time>2026-04-10T18:06:17.999Z</time></trkpt><trkpt lat="45.03531696226771" lon="7.984969198359238"><ele>281.83333333333337</ele><time>2026-04-10T18:06:18.999Z</time></trkpt><trkpt lat="45.0352417351582" lon="7.984938764908156"><ele>281.0</ele><time>2026-04-10T18:06:19.999Z</time></trkpt><trkpt lat="45.03516705533019" lon="7.984908625907586"><ele>281.00000000000006</ele><time>2026-04-10T18:06:20.999Z</time></trkpt><trkpt lat="45.03509413711463" lon="7.9848784301043345"><ele>281.0</ele><time>2026-04-10T18:06:21.999Z</time></trkpt><trkpt lat="45.03502197649234" lon="7.984849521137915"><ele>281.0</ele><time>2026-04-10T18:06:22.999Z</time></trkpt><trkpt lat="45.03494852560115" lon="7.98482203262732"><ele>281.0</ele><time>2026-04-10T18:06:23.999Z</time></trkpt><trkpt lat="45.03487542623577" lon="7.984802317749677"><ele>281.0</ele><time>2026-04-10T18:06:24.999Z</time></trkpt><trkpt lat="45.03480167303847" lon="7.984798082853862"><ele>281.00000000000006</ele><time>2026-04-10T18:06:26Z</time></trkpt><trkpt lat="45.03473000258649" lon="7.984808183767867"><ele>281.0</ele><time>2026-04-10T18:06:27Z</time></trkpt><trkpt lat="45.03465922698333" lon="7.984834375942002"><ele>281.1666666666667</ele><time>2026-04-10T18:06:28Z</time></trkpt><trkpt lat="45.03459240082691" lon="7.984865577946791"><ele>281.33333333333337</ele><time>2026-04-10T18:06:29Z</time></trkpt><trkpt lat="45.034529116993134" lon="7.984904085400026"><ele>281.5</ele><time>2026-04-10T18:06:30Z</time></trkpt><trkpt lat="45.03446490195111" lon="7.984944480284124"><ele>281.6666666666667</ele><time>2026-04-10T18:06:31Z</time></trkpt><trkpt lat="45.034404049698495" lon="7.984984002726001"><ele>281.8333333333333</ele><time>2026-04-10T18:06:32Z</time></trkpt><trkpt lat="45.03429590425113" lon="7.985062024517393"><ele>282.0</ele><time>2026-04-10T18:06:34Z</time></trkpt><trkpt lat="45.034179828252576" lon="7.985114467504997"><ele>280.4</ele><time>2026-04-10T18:06:36Z</time></trkpt><trkpt lat="45.03405686153709" lon="7.985144295223874"><ele>278.79999999999995</ele><time>2026-04-10T18:06:38Z</time></trkpt><trkpt lat="45.03391889960591" lon="7.985150975383857"><ele>277.2</ele><time>2026-04-10T18:06:40Z</time></trkpt><trkpt lat="45.03383964693424" lon="7.9851393682519545"><ele>275.59999999999997</ele><time>2026-04-10T18:06:41Z</time></trkpt><trkpt lat="45.03375838777118" lon="7.985122822071275"><ele>274.0</ele><time>2026-04-10T18:06:42Z</time></trkpt><trkpt lat="45.03367750741619" lon="7.985095978570832"><ele>274.0</ele><time>2026-04-10T18:06:43Z</time></trkpt><trkpt lat="45.03359519233393" lon="7.985056524558159"><ele>274.0</ele><time>2026-04-10T18:06:44Z</time></trkpt><trkpt lat="45.033512617153065" lon="7.985014630483868"><ele>274.0</ele><time>2026-04-10T18:06:45Z</time></trkpt><trkpt lat="45.033434718942644" lon="7.9849681676634985"><ele>274.0</ele><time>2026-04-10T18:06:46Z</time></trkpt><trkpt lat="45.03336034388778" lon="7.984903937290342"><ele>274.0</ele><time>2026-04-10T18:06:47Z</time></trkpt><trkpt lat="45.033286482064746" lon="7.984835020161836"><ele>274.0</ele><time>2026-04-10T18:06:48Z</time></trkpt><trkpt lat="45.033214299766485" lon="7.984768101227175"><ele>273.66666666666663</ele><time>2026-04-10T18:06:49Z</time></trkpt><trkpt lat="45.03314287313962" lon="7.984700234843705"><ele>273.3333333333333</ele><time>2026-04-10T18:06:50Z</time></trkpt><trkpt lat="45.03306979911774" lon="7.984637670377055"><ele>273.0</ele><time>2026-04-10T18:06:51Z</time></trkpt><trkpt lat="45.03299633343706" lon="7.984572434084015"><ele>272.6666666666667</ele><time>2026-04-10T18:06:52Z</time></trkpt><trkpt lat="45.032919079828034" lon="7.98451847372082"><ele>272.33333333333337</ele><time>2026-04-10T18:06:53Z</time></trkpt><trkpt lat="45.03284544593215" lon="7.984465962760683"><ele>272.0</ele><time>2026-04-10T18:06:54Z</time></trkpt><trkpt lat="45.032747224354395" lon="7.984473915907215"><ele>272.0</ele><time>2026-04-10T18:06:55Z</time></trkpt><trkpt lat="45.0326514685926" lon="7.984480542498266"><ele>272.0</ele><time>2026-04-10T18:06:56Z</time></trkpt><trkpt lat="45.032557186438254" lon="7.984491390208469"><ele>272.0</ele><time>2026-04-10T18:06:57Z</time></trkpt><trkpt lat="45.03246615525667" lon="7.984502471079155"><ele>272.0</ele><time>2026-04-10T18:06:58Z</time></trkpt><trkpt lat="45.03237556930303" lon="7.984518218497584"><ele>272.0</ele><time>2026-04-10T18:06:59Z</time></trkpt><trkpt lat="45.03228609389401" lon="7.9845398966162655"><ele>272.0</ele><time>2026-04-10T18:07:00Z</time></trkpt><trkpt lat="45.03219851265682" lon="7.984567390120829"><ele>272.0</ele><time>2026-04-10T18:07:01Z</time></trkpt><trkpt lat="45.03211564580788" lon="7.984604757124796"><ele>272.0</ele><time>2026-04-10T18:07:02Z</time></trkpt><trkpt lat="45.032037576675016" lon="7.9846553589658775"><ele>272.0</ele><time>2026-04-10T18:07:03Z</time></trkpt><trkpt lat="45.03195743958964" lon="7.984693120964831"><ele>272.0</ele><time>2026-04-10T18:07:04Z</time></trkpt><trkpt lat="45.03189620379333" lon="7.984778807352607"><ele>272.0</ele><time>2026-04-10T18:07:05Z</time></trkpt><trkpt lat="45.03183066502824" lon="7.9848479539201485"><ele>272.0</ele><time>2026-04-10T18:07:06Z</time></trkpt><trkpt lat="45.03176895264768" lon="7.984914814486404"><ele>272.0</ele><time>2026-04-10T18:07:07Z</time></trkpt><trkpt lat="45.03170262873831" lon="7.984980978006778"><ele>272.0</ele><time>2026-04-10T18:07:08Z</time></trkpt><trkpt lat="45.031627503184346" lon="7.985047952630059"><ele>272.0</ele><time>2026-04-10T18:07:09Z</time></trkpt><trkpt lat="45.031548715402884" lon="7.985115356796828"><ele>272.0</ele><time>2026-04-10T18:07:10Z</time></trkpt><trkpt lat="45.03147024406211" lon="7.985187205910111"><ele>272.0</ele><time>2026-04-10T18:07:11Z</time></trkpt><trkpt lat="45.031386831591526" lon="7.985264367959096"><ele>271.8</ele><time>2026-04-10T18:07:12Z</time></trkpt><trkpt lat="45.031302204092356" lon="7.985337734798216"><ele>271.6</ele><time>2026-04-10T18:07:13Z</time></trkpt><trkpt lat="45.031222137469875" lon="7.985413195587257"><ele>271.40000000000003</ele><time>2026-04-10T18:07:14Z</time></trkpt><trkpt lat="45.031140073433605" lon="7.985485067177654"><ele>271.2</ele><time>2026-04-10T18:07:15Z</time></trkpt><trkpt lat="45.03105707565008" lon="7.985549534971046"><ele>271.0</ele><time>2026-04-10T18:07:16Z</time></trkpt><trkpt lat="45.03098088103222" lon="7.985625555307567"><ele>271.0</ele><time>2026-04-10T18:07:17Z</time></trkpt><trkpt lat="45.030917455323284" lon="7.985696011574963"><ele>271.0</ele><time>2026-04-10T18:07:18Z</time></trkpt><trkpt lat="45.03086449191471" lon="7.985765716247235"><ele>271.0</ele><time>2026-04-10T18:07:19Z</time></trkpt><trkpt lat="45.03081767449481" lon="7.985836232064083"><ele>271.0</ele><time>2026-04-10T18:07:19.999Z</time></trkpt><trkpt lat="45.030726015888455" lon="7.985956468285339"><ele>271.0</ele><time>2026-04-10T18:07:21.999Z</time></trkpt><trkpt lat="45.030674473410095" lon="7.98606611756374"><ele>271.0</ele><time>2026-04-10T18:07:23.999Z</time></trkpt><trkpt lat="45.03062016790287" lon="7.9861590204081"><ele>271.5</ele><time>2026-04-10T18:07:25.999Z</time></trkpt><trkpt lat="45.0305681994754" lon="7.986238292742111"><ele>272.0</ele><time>2026-04-10T18:07:27.999Z</time></trkpt><trkpt lat="45.030517956587026" lon="7.9863162366626055"><ele>272.5</ele><time>2026-04-10T18:07:29.999Z</time></trkpt><trkpt lat="45.030459972299724" lon="7.9863872125934"><ele>273.0</ele><time>2026-04-10T18:07:31.999Z</time></trkpt><trkpt lat="45.03039240185672" lon="7.986455043730107"><ele>273.5</ele><time>2026-04-10T18:07:33.999Z</time></trkpt><trkpt lat="45.030319029491054" lon="7.986512740071218"><ele>274.0</ele><time>2026-04-10T18:07:35.999Z</time></trkpt><trkpt lat="45.03023774586743" lon="7.98656346530568"><ele>274.0</ele><time>2026-04-10T18:07:37.999Z</time></trkpt><trkpt lat="45.030152912217666" lon="7.986615471206598"><ele>274.0</ele><time>2026-04-10T18:07:39.999Z</time></trkpt><trkpt lat="45.03005882745696" lon="7.986653468574448"><ele>274.0</ele><time>2026-04-10T18:07:41.999Z</time></trkpt><trkpt lat="45.02996319604175" lon="7.986722332336337"><ele>274.0</ele><time>2026-04-10T18:07:43.999Z</time></trkpt><trkpt lat="45.02983811910831" lon="7.986771731323974"><ele>274.0</ele><time>2026-04-10T18:07:45.999Z</time></trkpt><trkpt lat="45.0297406816966" lon="7.986855367054723"><ele>273.0</ele><time>2026-04-10T18:07:47.999Z</time></trkpt><trkpt lat="45.02965323910689" lon="7.986940770955522"><ele>272.0</ele><time>2026-04-10T18:07:49.999Z</time></trkpt><trkpt lat="45.02954341264337" lon="7.987002015512853"><ele>271.0</ele><time>2026-04-10T18:07:51.999Z</time></trkpt><trkpt lat="45.02943540597704" lon="7.987073777598907"><ele>270.0</ele><time>2026-04-10T18:07:53.999Z</time></trkpt><trkpt lat="45.029318616057736" lon="7.987117804433282"><ele>270.0</ele><time>2026-04-10T18:07:55.999Z</time></trkpt><trkpt lat="45.0292000283487" lon="7.987164032747417"><ele>270.0</ele><time>2026-04-10T18:07:57.999Z</time></trkpt><trkpt lat="45.02908593825267" lon="7.987195738299912"><ele>270.0</ele><time>2026-04-10T18:07:59.999Z</time></trkpt><trkpt lat="45.02896792637836" lon="7.9872234855902855"><ele>270.0</ele><time>2026-04-10T18:08:01.999Z</time></trkpt><trkpt lat="45.028854707057654" lon="7.9872454008425215"><ele>270.25</ele><time>2026-04-10T18:08:03.999Z</time></trkpt><trkpt lat="45.02874434365284" lon="7.987259074306377"><ele>270.5</ele><time>2026-04-10T18:08:05.999Z</time></trkpt><trkpt lat="45.028626671815815" lon="7.987270206564149"><ele>270.75</ele><time>2026-04-10T18:08:07.999Z</time></trkpt><trkpt lat="45.02851222140334" lon="7.987276368463163"><ele>271.0</ele><time>2026-04-10T18:08:09.999Z</time></trkpt><trkpt lat="45.028388940367975" lon="7.987274381552212"><ele>271.0</ele><time>2026-04-10T18:08:11.999Z</time></trkpt><trkpt lat="45.028325759649256" lon="7.987273162094745"><ele>271.0</ele><time>2026-04-10T18:08:12.999Z</time></trkpt><trkpt lat="45.02820576363895" lon="7.987238066480458"><ele>271.0</ele><time>2026-04-10T18:08:14.999Z</time></trkpt><trkpt lat="45.02808422739134" lon="7.987185740057561"><ele>271.0</ele><time>2026-04-10T18:08:16.999Z</time></trkpt><trkpt lat="45.02802032840454" lon="7.9871561331400756"><ele>271.0</ele><time>2026-04-10T18:08:17.999Z</time></trkpt><trkpt lat="45.027958063505" lon="7.987119706415937"><ele>271.0</ele><time>2026-04-10T18:08:18.999Z</time></trkpt><trkpt lat="45.027894444525614" lon="7.98708986436924"><ele>270.1428571428571</ele><time>2026-04-10T18:08:19.999Z</time></trkpt><trkpt lat="45.02782933434822" lon="7.9870588495056"><ele>269.2857142857143</ele><time>2026-04-10T18:08:20.999Z</time></trkpt><trkpt lat="45.027762951302854" lon="7.987038430948469"><ele>268.42857142857144</ele><time>2026-04-10T18:08:21.999Z</time></trkpt><trkpt lat="45.02769580214538" lon="7.987014385079238"><ele>267.57142857142856</ele><time>2026-04-10T18:08:22.999Z</time></trkpt><trkpt lat="45.02762966363794" lon="7.986981060085177"><ele>266.7142857142857</ele><time>2026-04-10T18:08:23.999Z</time></trkpt><trkpt lat="45.027562553261355" lon="7.986958673866261"><ele>265.85714285714283</ele><time>2026-04-10T18:08:24.999Z</time></trkpt><trkpt lat="45.027497141422" lon="7.986937110040695"><ele>265.0</ele><time>2026-04-10T18:08:25.999Z</time></trkpt><trkpt lat="45.02742930269868" lon="7.986914519736327"><ele>264.99999999999994</ele><time>2026-04-10T18:08:26.999Z</time></trkpt><trkpt lat="45.027360084197305" lon="7.986897256573044"><ele>265.0</ele><time>2026-04-10T18:08:27.999Z</time></trkpt><trkpt lat="45.02729640900857" lon="7.986857458419774"><ele>265.0</ele><time>2026-04-10T18:08:28.999Z</time></trkpt><trkpt lat="45.02722529144308" lon="7.98686594925266"><ele>265.0</ele><time>2026-04-10T18:08:29.999Z</time></trkpt><trkpt lat="45.02716114828801" lon="7.986859907632448"><ele>265.0</ele><time>2026-04-10T18:08:30.999Z</time></trkpt><trkpt lat="45.027092659898074" lon="7.986845174693922"><ele>264.99999999999994</ele><time>2026-04-10T18:08:32Z</time></trkpt><trkpt lat="45.02703089534301" lon="7.986880337733996"><ele>265.0</ele><time>2026-04-10T18:08:33Z</time></trkpt><trkpt lat="45.026911057904925" lon="7.9869187390202105"><ele>265.0</ele><time>2026-04-10T18:08:35Z</time></trkpt><trkpt lat="45.02684901649803" lon="7.986941037909637"><ele>265.0</ele><time>2026-04-10T18:08:36Z</time></trkpt><trkpt lat="45.02674564031502" lon="7.986996385227848"><ele>265.0</ele><time>2026-04-10T18:08:38Z</time></trkpt><trkpt lat="45.02664513561503" lon="7.987060387589339"><ele>265.0</ele><time>2026-04-10T18:08:40Z</time></trkpt><trkpt lat="45.026543694852464" lon="7.987104951179517"><ele>265.0</ele><time>2026-04-10T18:08:42Z</time></trkpt><trkpt lat="45.02644150323945" lon="7.987172637132682"><ele>266.4</ele><time>2026-04-10T18:08:44Z</time></trkpt><trkpt lat="45.02633999743247" lon="7.987232152497559"><ele>267.8</ele><time>2026-04-10T18:08:46Z</time></trkpt><trkpt lat="45.026232247810334" lon="7.987272040463032"><ele>269.2</ele><time>2026-04-10T18:08:48Z</time></trkpt><trkpt lat="45.02612737106405" lon="7.98734266900223"><ele>270.6</ele><time>2026-04-10T18:08:50Z</time></trkpt><trkpt lat="45.02608055778327" lon="7.987404115108047"><ele>272.0</ele><time>2026-04-10T18:08:51Z</time></trkpt><trkpt lat="45.025975748615686" lon="7.9874722318940865"><ele>270.25</ele><time>2026-04-10T18:08:53Z</time></trkpt><trkpt lat="45.02588005359642" lon="7.987569211575949"><ele>268.5</ele><time>2026-04-10T18:08:55Z</time></trkpt><trkpt lat="45.02578760529271" lon="7.9876832388376044"><ele>266.75</ele><time>2026-04-10T18:08:57Z</time></trkpt><trkpt lat="45.0257012852622" lon="7.987809914184591"><ele>265.0</ele><time>2026-04-10T18:08:59Z</time></trkpt><trkpt lat="45.02563086016504" lon="7.987937096310946"><ele>266.0</ele><time>2026-04-10T18:09:01Z</time></trkpt><trkpt lat="45.02556978347165" lon="7.988064315492579"><ele>267.0</ele><time>2026-04-10T18:09:03Z</time></trkpt><trkpt lat="45.025512171050764" lon="7.988181684488424"><ele>268.0</ele><time>2026-04-10T18:09:05Z</time></trkpt><trkpt lat="45.0254562207457" lon="7.988292551762873"><ele>269.0</ele><time>2026-04-10T18:09:07Z</time></trkpt><trkpt lat="45.025420696180106" lon="7.988424933988052"><ele>270.0</ele><time>2026-04-10T18:09:09Z</time></trkpt><trkpt lat="45.02535654152288" lon="7.988514452662774"><ele>270.0</ele><time>2026-04-10T18:09:11Z</time></trkpt><trkpt lat="45.02529834335495" lon="7.98859735342133"><ele>270.0</ele><time>2026-04-10T18:09:13Z</time></trkpt><trkpt lat="45.02523540970065" lon="7.988678022897105"><ele>270.0</ele><time>2026-04-10T18:09:15Z</time></trkpt><trkpt lat="45.025166951220925" lon="7.988756063773085"><ele>270.0</ele><time>2026-04-10T18:09:17Z</time></trkpt><trkpt lat="45.02508547701329" lon="7.988840426240468"><ele>270.0</ele><time>2026-04-10T18:09:19Z</time></trkpt><trkpt lat="45.02499176763732" lon="7.988907568448185"><ele>269.2</ele><time>2026-04-10T18:09:21Z</time></trkpt><trkpt lat="45.02489482146334" lon="7.9889794779910295"><ele>268.4</ele><time>2026-04-10T18:09:23Z</time></trkpt><trkpt lat="45.02478961844275" lon="7.989055171844628"><ele>267.6</ele><time>2026-04-10T18:09:25Z</time></trkpt><trkpt lat="45.024674870380956" lon="7.989132839339248"><ele>266.8</ele><time>2026-04-10T18:09:26.999Z</time></trkpt><trkpt lat="45.02461281229359" lon="7.989167785877184"><ele>266.0</ele><time>2026-04-10T18:09:27.999Z</time></trkpt><trkpt lat="45.024549119753914" lon="7.989199427130528"><ele>266.0</ele><time>2026-04-10T18:09:28.999Z</time></trkpt><trkpt lat="45.024475312973905" lon="7.989217716751681"><ele>266.0</ele><time>2026-04-10T18:09:29.999Z</time></trkpt><trkpt lat="45.024393312380155" lon="7.989219727594319"><ele>266.0</ele><time>2026-04-10T18:09:30.999Z</time></trkpt><trkpt lat="45.02431223827427" lon="7.989163850737784"><ele>266.0</ele><time>2026-04-10T18:09:31.999Z</time></trkpt><trkpt lat="45.02424314951561" lon="7.989090887765398"><ele>266.0</ele><time>2026-04-10T18:09:32.999Z</time></trkpt><trkpt lat="45.024171876091046" lon="7.989010927349847"><ele>266.0</ele><time>2026-04-10T18:09:33.999Z</time></trkpt><trkpt lat="45.02409918813923" lon="7.988930251013405"><ele>262.8</ele><time>2026-04-10T18:09:34.999Z</time></trkpt><trkpt lat="45.02402344382873" lon="7.988851853045291"><ele>259.6</ele><time>2026-04-10T18:09:35.999Z</time></trkpt><trkpt lat="45.02394089599628" lon="7.988777224635061"><ele>256.4</ele><time>2026-04-10T18:09:36.999Z</time></trkpt><trkpt lat="45.023854916285615" lon="7.988712843481169"><ele>253.2</ele><time>2026-04-10T18:09:37.999Z</time></trkpt><trkpt lat="45.023759412191914" lon="7.988673608587647"><ele>250.0</ele><time>2026-04-10T18:09:38.999Z</time></trkpt><trkpt lat="45.02367457370126" lon="7.9886239053641415"><ele>250.0</ele><time>2026-04-10T18:09:39.999Z</time></trkpt><trkpt lat="45.023592345206566" lon="7.9885529515034674"><ele>250.0</ele><time>2026-04-10T18:09:40.999Z</time></trkpt><trkpt lat="45.023502222981826" lon="7.988503378547804"><ele>250.0</ele><time>2026-04-10T18:09:41.999Z</time></trkpt><trkpt lat="45.023411588068015" lon="7.988453523588436"><ele>250.0</ele><time>2026-04-10T18:09:42.999Z</time></trkpt><trkpt lat="45.02332101401483" lon="7.988403702096865"><ele>250.0</ele><time>2026-04-10T18:09:43.999Z</time></trkpt><trkpt lat="45.02322628842857" lon="7.988371045617248"><ele>251.8</ele><time>2026-04-10T18:09:44.999Z</time></trkpt><trkpt lat="45.0231375867307" lon="7.98832132309811"><ele>253.6</ele><time>2026-04-10T18:09:45.999Z</time></trkpt><trkpt lat="45.02305172331844" lon="7.988270448669229"><ele>255.39999999999998</ele><time>2026-04-10T18:09:46.999Z</time></trkpt><trkpt lat="45.022966533252124" lon="7.988212031966432"><ele>257.2</ele><time>2026-04-10T18:09:47.999Z</time></trkpt><trkpt lat="45.02288598296061" lon="7.9881639617709945"><ele>259.0</ele><time>2026-04-10T18:09:48.999Z</time></trkpt><trkpt lat="45.02280737985717" lon="7.988111619758314"><ele>259.0</ele><time>2026-04-10T18:09:49.999Z</time></trkpt><trkpt lat="45.02273704871795" lon="7.988061671386008"><ele>259.0</ele><time>2026-04-10T18:09:50.999Z</time></trkpt><trkpt lat="45.02267150760578" lon="7.9880157400413845"><ele>259.0</ele><time>2026-04-10T18:09:51.999Z</time></trkpt><trkpt lat="45.02260971807997" lon="7.987969148766549"><ele>259.0</ele><time>2026-04-10T18:09:52.999Z</time></trkpt><trkpt lat="45.02250477268457" lon="7.987909542370363"><ele>259.0</ele><time>2026-04-10T18:09:54.999Z</time></trkpt><trkpt lat="45.022407526169886" lon="7.987856504572389"><ele>259.0</ele><time>2026-04-10T18:09:56.999Z</time></trkpt><trkpt lat="45.02231876477263" lon="7.987807438261584"><ele>260.16666666666663</ele><time>2026-04-10T18:09:58.999Z</time></trkpt><trkpt lat="45.022235937383186" lon="7.987770299475985"><ele>261.3333333333333</ele><time>2026-04-10T18:10:00.999Z</time></trkpt><trkpt lat="45.02216017359281" lon="7.9877553143072175"><ele>262.5</ele><time>2026-04-10T18:10:02.999Z</time></trkpt><trkpt lat="45.02208421320304" lon="7.987765494825239"><ele>263.6666666666667</ele><time>2026-04-10T18:10:04.999Z</time></trkpt><trkpt lat="45.022004959507065" lon="7.987763392928685"><ele>264.83333333333337</ele><time>2026-04-10T18:10:06.999Z</time></trkpt><trkpt lat="45.02192585894118" lon="7.987796702590942"><ele>266.0</ele><time>2026-04-10T18:10:08.999Z</time></trkpt><trkpt lat="45.02184822135834" lon="7.987831851653339"><ele>266.0</ele><time>2026-04-10T18:10:10.999Z</time></trkpt><trkpt lat="45.02177551848105" lon="7.9878862291873425"><ele>266.0</ele><time>2026-04-10T18:10:12.999Z</time></trkpt><trkpt lat="45.02168665212303" lon="7.9879292987362644"><ele>266.0</ele><time>2026-04-10T18:10:14.999Z</time></trkpt><trkpt lat="45.02159008251713" lon="7.9879492783347645"><ele>266.0</ele><time>2026-04-10T18:10:16.999Z</time></trkpt><trkpt lat="45.021493835226345" lon="7.988012172202995"><ele>266.0</ele><time>2026-04-10T18:10:18.999Z</time></trkpt><trkpt lat="45.021395110224496" lon="7.98802881187562"><ele>267.33333333333337</ele><time>2026-04-10T18:10:20.999Z</time></trkpt><trkpt lat="45.0213105724455" lon="7.98807814316514"><ele>268.6666666666667</ele><time>2026-04-10T18:10:22.999Z</time></trkpt><trkpt lat="45.02122532411386" lon="7.988100783499121"><ele>270.0</ele><time>2026-04-10T18:10:24.999Z</time></trkpt><trkpt lat="45.02115069361826" lon="7.988127769180926"><ele>271.3333333333333</ele><time>2026-04-10T18:10:26.999Z</time></trkpt><trkpt lat="45.0210805701401" lon="7.988122207746826"><ele>272.66666666666663</ele><time>2026-04-10T18:10:28.999Z</time></trkpt><trkpt lat="45.020991656337834" lon="7.988149649572058"><ele>274.0</ele><time>2026-04-10T18:10:31.999Z</time></trkpt><trkpt lat="45.02090783004505" lon="7.988117353311617"><ele>274.00000000000006</ele><time>2026-04-10T18:10:34.999Z</time></trkpt><trkpt lat="45.020826262224396" lon="7.988084568421619"><ele>274.0</ele><time>2026-04-10T18:10:38Z</time></trkpt><trkpt lat="45.02076512173987" lon="7.988058750112197"><ele>274.0</ele><time>2026-04-10T18:10:40Z</time></trkpt><trkpt lat="45.020702080327794" lon="7.9880388634521475"><ele>274.0</ele><time>2026-04-10T18:10:42Z</time></trkpt><trkpt lat="45.02063653441326" lon="7.987999019789153"><ele>274.0</ele><time>2026-04-10T18:10:44Z</time></trkpt><trkpt lat="45.02055936475939" lon="7.987983605009509"><ele>274.00000000000006</ele><time>2026-04-10T18:10:46Z</time></trkpt><trkpt lat="45.020482060438106" lon="7.987951033812675"><ele>274.0</ele><time>2026-04-10T18:10:48Z</time></trkpt><trkpt lat="45.02040487422088" lon="7.987920774360358"><ele>274.0</ele><time>2026-04-10T18:10:50Z</time></trkpt><trkpt lat="45.02033817575711" lon="7.987889493816563"><ele>274.0</ele><time>2026-04-10T18:10:52Z</time></trkpt><trkpt lat="45.02027062434867" lon="7.987846403515867"><ele>274.0</ele><time>2026-04-10T18:10:54Z</time></trkpt><trkpt lat="45.02019767067085" lon="7.987806836063253"><ele>274.0</ele><time>2026-04-10T18:10:56Z</time></trkpt><trkpt lat="45.02012017622773" lon="7.98776976727945"><ele>274.0</ele><time>2026-04-10T18:10:58Z</time></trkpt><trkpt lat="45.02004789816843" lon="7.987735766026452"><ele>274.0</ele><time>2026-04-10T18:11:00Z</time></trkpt><trkpt lat="45.01995786835842" lon="7.98768582171669"><ele>274.0</ele><time>2026-04-10T18:11:02Z</time></trkpt><trkpt lat="45.01986978830416" lon="7.987651675935784"><ele>274.0</ele><time>2026-04-10T18:11:04Z</time></trkpt><trkpt lat="45.019771158734315" lon="7.987642265621096"><ele>274.0</ele><time>2026-04-10T18:11:06Z</time></trkpt><trkpt lat="45.01967029164208" lon="7.987657195453738"><ele>274.0</ele><time>2026-04-10T18:11:08Z</time></trkpt><trkpt lat="45.01955630128139" lon="7.987685174135548"><ele>274.0</ele><time>2026-04-10T18:11:10Z</time></trkpt><trkpt lat="45.019480659193235" lon="7.987701628489207"><ele>274.0</ele><time>2026-04-10T18:11:12Z</time></trkpt><trkpt lat="45.01940293283038" lon="7.987727018099571"><ele>274.0</ele><time>2026-04-10T18:11:14Z</time></trkpt><trkpt lat="45.0193125381324" lon="7.987809421626508"><ele>274.0</ele><time>2026-04-10T18:11:16Z</time></trkpt><trkpt lat="45.01921213190938" lon="7.987887606223911"><ele>274.0</ele><time>2026-04-10T18:11:18Z</time></trkpt><trkpt lat="45.019117825440155" lon="7.987988959516045"><ele>274.0</ele><time>2026-04-10T18:11:20Z</time></trkpt><trkpt lat="45.019067494101705" lon="7.988043112685538"><ele>274.25</ele><time>2026-04-10T18:11:21Z</time></trkpt><trkpt lat="45.01898862649919" lon="7.988154449588232"><ele>274.5</ele><time>2026-04-10T18:11:23Z</time></trkpt><trkpt lat="45.01891041244664" lon="7.9882777337983235"><ele>274.75</ele><time>2026-04-10T18:11:25Z</time></trkpt><trkpt lat="45.01883782526004" lon="7.988386687415014"><ele>275.0</ele><time>2026-04-10T18:11:27Z</time></trkpt><trkpt lat="45.01879378225405" lon="7.98854050549016"><ele>275.0</ele><time>2026-04-10T18:11:29Z</time></trkpt><trkpt lat="45.01872961214263" lon="7.9886719793483385"><ele>275.0</ele><time>2026-04-10T18:11:31Z</time></trkpt><trkpt lat="45.01868194390812" lon="7.988809105200274"><ele>275.0</ele><time>2026-04-10T18:11:33Z</time></trkpt><trkpt lat="45.01863577226956" lon="7.988941925863937"><ele>275.0</ele><time>2026-04-10T18:11:35Z</time></trkpt><trkpt lat="45.01860268298992" lon="7.989084318136919"><ele>275.0</ele><time>2026-04-10T18:11:36.999Z</time></trkpt><trkpt lat="45.01854307733453" lon="7.989208579256125"><ele>274.0</ele><time>2026-04-10T18:11:38.999Z</time></trkpt><trkpt lat="45.018498272297585" lon="7.989334700297978"><ele>273.0</ele><time>2026-04-10T18:11:40.999Z</time></trkpt><trkpt lat="45.01845243770257" lon="7.989464232379624"><ele>272.0</ele><time>2026-04-10T18:11:42.999Z</time></trkpt><trkpt lat="45.018408978828816" lon="7.989587050480839"><ele>271.0</ele><time>2026-04-10T18:11:44.999Z</time></trkpt><trkpt lat="45.01836086049267" lon="7.98972303660333"><ele>270.0</ele><time>2026-04-10T18:11:46.999Z</time></trkpt><trkpt lat="45.01831094157706" lon="7.989864111243487"><ele>268.5</ele><time>2026-04-10T18:11:48.999Z</time></trkpt><trkpt lat="45.01826317211634" lon="7.989999111405592"><ele>267.0</ele><time>2026-04-10T18:11:50.999Z</time></trkpt><trkpt lat="45.01821132768414" lon="7.990145627784374"><ele>265.5</ele><time>2026-04-10T18:11:52.999Z</time></trkpt><trkpt lat="45.018171976244346" lon="7.990304446259552"><ele>264.0</ele><time>2026-04-10T18:11:54.999Z</time></trkpt><trkpt lat="45.018115699449275" lon="7.990461081971128"><ele>264.0</ele><time>2026-04-10T18:11:56.999Z</time></trkpt><trkpt lat="45.01804270013441" lon="7.9905995549260735"><ele>264.0</ele><time>2026-04-10T18:11:58.999Z</time></trkpt><trkpt lat="45.017994420469705" lon="7.99075638757521"><ele>264.0</ele><time>2026-04-10T18:12:00.999Z</time></trkpt><trkpt lat="45.01792964934401" lon="7.990899616140952"><ele>264.0</ele><time>2026-04-10T18:12:02.999Z</time></trkpt><trkpt lat="45.01789657696628" lon="7.990977404361363"><ele>264.0</ele><time>2026-04-10T18:12:03.999Z</time></trkpt><trkpt lat="45.01786023967995" lon="7.991054919693959"><ele>264.5</ele><time>2026-04-10T18:12:04.999Z</time></trkpt><trkpt lat="45.017780932845675" lon="7.991187796856302"><ele>265.0</ele><time>2026-04-10T18:12:06.999Z</time></trkpt><trkpt lat="45.01771103794668" lon="7.991321597407289"><ele>265.5</ele><time>2026-04-10T18:12:08.999Z</time></trkpt><trkpt lat="45.01763394505535" lon="7.991450559803551"><ele>266.0</ele><time>2026-04-10T18:12:10.999Z</time></trkpt><trkpt lat="45.01754990210403" lon="7.991558257494488"><ele>265.40000000000003</ele><time>2026-04-10T18:12:12.999Z</time></trkpt><trkpt lat="45.01746246964313" lon="7.991659541435694"><ele>264.8</ele><time>2026-04-10T18:12:14.999Z</time></trkpt><trkpt lat="45.017371341340954" lon="7.991755941795082"><ele>264.20000000000005</ele><time>2026-04-10T18:12:16.999Z</time></trkpt><trkpt lat="45.01728085402986" lon="7.991846223113726"><ele>263.6</ele><time>2026-04-10T18:12:18.999Z</time></trkpt><trkpt lat="45.017192709357" lon="7.991929443775943"><ele>263.0</ele><time>2026-04-10T18:12:20.999Z</time></trkpt><trkpt lat="45.01711331737376" lon="7.992002440054009"><ele>264.1666666666667</ele><time>2026-04-10T18:12:22.999Z</time></trkpt><trkpt lat="45.01704401854055" lon="7.99208203395221"><ele>265.33333333333337</ele><time>2026-04-10T18:12:24.999Z</time></trkpt><trkpt lat="45.01697289867531" lon="7.992139362358559"><ele>266.5</ele><time>2026-04-10T18:12:26.999Z</time></trkpt><trkpt lat="45.01691878567694" lon="7.992193015365804"><ele>267.6666666666667</ele><time>2026-04-10T18:12:28.999Z</time></trkpt><trkpt lat="45.016856460271136" lon="7.99223745830166"><ele>268.8333333333333</ele><time>2026-04-10T18:12:30.999Z</time></trkpt><trkpt lat="45.01677787584442" lon="7.992291248199422"><ele>270.0</ele><time>2026-04-10T18:12:32.999Z</time></trkpt><trkpt lat="45.01670145133468" lon="7.992355691844356"><ele>270.0</ele><time>2026-04-10T18:12:34.999Z</time></trkpt><trkpt lat="45.01661587206979" lon="7.992417111544171"><ele>270.0</ele><time>2026-04-10T18:12:36.999Z</time></trkpt><trkpt lat="45.01652562798043" lon="7.992475987599529"><ele>270.0</ele><time>2026-04-10T18:12:38.999Z</time></trkpt><trkpt lat="45.016439929592295" lon="7.9925360197518"><ele>270.0</ele><time>2026-04-10T18:12:40.999Z</time></trkpt><trkpt lat="45.01635547593949" lon="7.992589710375906"><ele>270.0</ele><time>2026-04-10T18:12:42.999Z</time></trkpt><trkpt lat="45.01628562347527" lon="7.992627084693952"><ele>270.0</ele><time>2026-04-10T18:12:45Z</time></trkpt><trkpt lat="45.01622263059213" lon="7.992643909499684"><ele>270.0</ele><time>2026-04-10T18:12:47Z</time></trkpt><trkpt lat="45.016160609263714" lon="7.992669967675929"><ele>270.0</ele><time>2026-04-10T18:12:50Z</time></trkpt><trkpt lat="45.0160909168169" lon="7.992706067146407"><ele>270.0</ele><time>2026-04-10T18:12:55Z</time></trkpt><trkpt lat="45.01615210628935" lon="7.992683145605699"><ele>270.0</ele><time>2026-04-10T18:12:59Z</time></trkpt><trkpt lat="45.0161842746882" lon="7.992781082138832"><ele>270.0</ele><time>2026-04-10T18:13:03Z</time></trkpt><trkpt lat="45.01616931078042" lon="7.9928775059779475"><ele>270.0</ele><time>2026-04-10T18:13:06Z</time></trkpt><trkpt lat="45.01613746993122" lon="7.992979715162"><ele>270.0</ele><time>2026-04-10T18:13:10Z</time></trkpt><trkpt lat="45.01611456453763" lon="7.993066498207357"><ele>270.0</ele><time>2026-04-10T18:13:13Z</time></trkpt><trkpt lat="45.01606392882345" lon="7.993161229493173"><ele>270.0</ele><time>2026-04-10T18:13:17Z</time></trkpt><trkpt lat="45.016019666872864" lon="7.99324412805898"><ele>270.0</ele><time>2026-04-10T18:13:20Z</time></trkpt><trkpt lat="45.01596961360304" lon="7.993323032044405"><ele>270.0</ele><time>2026-04-10T18:13:23Z</time></trkpt><trkpt lat="45.01591465365252" lon="7.993367547450341"><ele>270.0</ele><time>2026-04-10T18:13:39Z</time></trkpt><trkpt lat="45.01587400527543" lon="7.993440846381044"><ele>270.0</ele><time>2026-04-10T18:13:45.999Z</time></trkpt><trkpt lat="45.01584512574942" lon="7.993556094543345"><ele>269.5</ele><time>2026-04-10T18:13:48.999Z</time></trkpt><trkpt lat="45.0157899600663" lon="7.99365094071791"><ele>269.0</ele><time>2026-04-10T18:13:51.999Z</time></trkpt><trkpt lat="45.01574306737478" lon="7.993738967953035"><ele>268.5</ele><time>2026-04-10T18:13:54.999Z</time></trkpt><trkpt lat="45.01568135451004" lon="7.993842942947041"><ele>268.0</ele><time>2026-04-10T18:13:57.999Z</time></trkpt><trkpt lat="45.01563674795322" lon="7.993925266561026"><ele>267.5</ele><time>2026-04-10T18:13:59.999Z</time></trkpt><trkpt lat="45.015583162461816" lon="7.994001806779167"><ele>267.0</ele><time>2026-04-10T18:14:01.999Z</time></trkpt><trkpt lat="45.01553785664149" lon="7.994081187373974"><ele>267.8333333333333</ele><time>2026-04-10T18:14:03.999Z</time></trkpt><trkpt lat="45.0154927670515" lon="7.994177199823114"><ele>268.6666666666667</ele><time>2026-04-10T18:14:05.999Z</time></trkpt><trkpt lat="45.01543171213325" lon="7.994271933680689"><ele>269.5</ele><time>2026-04-10T18:14:07.999Z</time></trkpt><trkpt lat="45.01538544408611" lon="7.994356763561045"><ele>270.33333333333337</ele><time>2026-04-10T18:14:09.999Z</time></trkpt><trkpt lat="45.01533839627233" lon="7.9944366696960785"><ele>271.1666666666667</ele><time>2026-04-10T18:14:12.999Z</time></trkpt><trkpt lat="45.015380241852945" lon="7.994507756258547"><ele>272.0</ele><time>2026-04-10T18:14:18.999Z</time></trkpt><trkpt lat="45.015308185514755" lon="7.994513500361336"><ele>271.99999999999994</ele><time>2026-04-10T18:14:32.999Z</time></trkpt><trkpt lat="45.01528017243792" lon="7.994606127488255"><ele>272.0</ele><time>2026-04-10T18:14:35.999Z</time></trkpt><trkpt lat="45.015266621328166" lon="7.994704193639566"><ele>272.0</ele><time>2026-04-10T18:14:38.999Z</time></trkpt><trkpt lat="45.01523984292574" lon="7.994786152718368"><ele>272.0</ele><time>2026-04-10T18:15:11Z</time></trkpt><trkpt lat="45.015264784322824" lon="7.994882042430407"><ele>272.0</ele><time>2026-04-10T18:15:23Z</time></trkpt><trkpt lat="45.01529504049144" lon="7.994786849281514"><ele>271.99999999999994</ele><time>2026-04-10T18:15:55.999Z</time></trkpt><trkpt lat="45.01523199383938" lon="7.994781271793676"><ele>272.0</ele><time>2026-04-10T18:20:25.999Z</time></trkpt><trkpt lat="45.015222812455235" lon="7.994876450343366"><ele>272.0</ele><time>2026-04-10T18:20:31.999Z</time></trkpt><trkpt lat="45.015289528734755" lon="7.994949307893282"><ele>272.0</ele><time>2026-04-10T18:20:47.999Z</time></trkpt><trkpt lat="45.01535557744541" lon="7.99494777122216"><ele>272.0</ele><time>2026-04-10T18:21:03.999Z</time></trkpt><trkpt lat="45.01541562115416" lon="7.994894680988957"><ele>272.0</ele><time>2026-04-10T18:21:04.999Z</time></trkpt><trkpt lat="45.015341948674354" lon="7.9949245833938125"><ele>272.0</ele><time>2026-04-10T18:21:14Z</time></trkpt><trkpt lat="45.01530570291544" lon="7.994809792466054"><ele>272.0</ele><time>2026-04-10T18:21:29Z</time></trkpt></trkseg><trkseg><trkpt lat="45.015283949551325" lon="7.994579502686489"><ele>271.99999999999994</ele><time>2026-04-11T07:11:31Z</time></trkpt><trkpt lat="45.01532030937632" lon="7.994488552914461"><ele>272.0</ele><time>2026-04-11T07:11:35Z</time></trkpt><trkpt lat="45.015351804694134" lon="7.994404679720914"><ele>272.0</ele><time>2026-04-11T07:11:39Z</time></trkpt><trkpt lat="45.01529748862947" lon="7.994482114276522"><ele>272.0</ele><time>2026-04-11T07:12:24.999Z</time></trkpt><trkpt lat="45.01526281226175" lon="7.9945612299449955"><ele>272.0</ele><time>2026-04-11T07:12:29.999Z</time></trkpt><trkpt lat="45.015267418549385" lon="7.994650885358683"><ele>271.99999999999994</ele><time>2026-04-11T07:12:34.999Z</time></trkpt><trkpt lat="45.01528563409283" lon="7.994741802455265"><ele>272.0</ele><time>2026-04-11T07:12:40.999Z</time></trkpt><trkpt lat="45.01528831286127" lon="7.9946448705447635"><ele>272.0</ele><time>2026-04-11T07:13:19Z</time></trkpt><trkpt lat="45.015303799337936" lon="7.994527485881385"><ele>272.0</ele><time>2026-04-11T07:13:22Z</time></trkpt><trkpt lat="45.01531673964163" lon="7.9944067224903606"><ele>272.0</ele><time>2026-04-11T07:13:25Z</time></trkpt><trkpt lat="45.01528905388162" lon="7.994315540660383"><ele>272.0</ele><time>2026-04-11T07:13:27Z</time></trkpt><trkpt lat="45.01525180316491" lon="7.99420487369909"><ele>272.0</ele><time>2026-04-11T07:13:29Z</time></trkpt><trkpt lat="45.01521517139398" lon="7.994087571195388"><ele>272.0</ele><time>2026-04-11T07:13:31Z</time></trkpt><trkpt lat="45.015176856560316" lon="7.993968302917663"><ele>271.1666666666667</ele><time>2026-04-11T07:13:33Z</time></trkpt><trkpt lat="45.015131102688834" lon="7.993851297609213"><ele>270.33333333333337</ele><time>2026-04-11T07:13:35Z</time></trkpt><trkpt lat="45.01509080900069" lon="7.993741314827006"><ele>269.5</ele><time>2026-04-11T07:13:37Z</time></trkpt><trkpt lat="45.01505649836403" lon="7.993638633336921"><ele>268.6666666666667</ele><time>2026-04-11T07:13:39Z</time></trkpt><trkpt lat="45.01502141674382" lon="7.993547635537629"><ele>267.8333333333333</ele><time>2026-04-11T07:13:41Z</time></trkpt><trkpt lat="45.014984953153274" lon="7.993433307429895"><ele>267.0</ele><time>2026-04-11T07:13:43Z</time></trkpt><trkpt lat="45.014947327129775" lon="7.993316095905616"><ele>266.0</ele><time>2026-04-11T07:13:45Z</time></trkpt><trkpt lat="45.01490507975314" lon="7.993207779914835"><ele>265.0</ele><time>2026-04-11T07:13:47Z</time></trkpt><trkpt lat="45.014871904198195" lon="7.993098895077844"><ele>264.0</ele><time>2026-04-11T07:13:49Z</time></trkpt><trkpt lat="45.0148419136039" lon="7.992999208773969"><ele>263.0</ele><time>2026-04-11T07:13:51Z</time></trkpt><trkpt lat="45.0148121185365" lon="7.992912969602322"><ele>262.0</ele><time>2026-04-11T07:13:53Z</time></trkpt><trkpt lat="45.01477241985073" lon="7.992808323314956"><ele>261.0</ele><time>2026-04-11T07:13:56Z</time></trkpt><trkpt lat="45.014744240342594" lon="7.992722799330572"><ele>261.0</ele><time>2026-04-11T07:14:00Z</time></trkpt><trkpt lat="45.0147185101807" lon="7.992631532854548"><ele>261.0</ele><time>2026-04-11T07:14:04Z</time></trkpt><trkpt lat="45.014662309425916" lon="7.992544277292482"><ele>261.0</ele><time>2026-04-11T07:14:09Z</time></trkpt><trkpt lat="45.01458727969188" lon="7.99250230127386"><ele>261.0</ele><time>2026-04-11T07:14:11.999Z</time></trkpt><trkpt lat="45.014487452238605" lon="7.992479208383968"><ele>261.0</ele><time>2026-04-11T07:14:13.999Z</time></trkpt><trkpt lat="45.014414015283634" lon="7.992450957652532"><ele>261.0</ele><time>2026-04-11T07:14:15.999Z</time></trkpt><trkpt lat="45.01433324159943" lon="7.9924162485641626"><ele>261.2</ele><time>2026-04-11T07:14:17.999Z</time></trkpt><trkpt lat="45.014246012972045" lon="7.992373521754384"><ele>261.40000000000003</ele><time>2026-04-11T07:14:19.999Z</time></trkpt><trkpt lat="45.01413784133269" lon="7.992347674616072"><ele>261.6</ele><time>2026-04-11T07:14:21.999Z</time></trkpt><trkpt lat="45.01403499349148" lon="7.992309972411147"><ele>261.8</ele><time>2026-04-11T07:14:23.999Z</time></trkpt><trkpt lat="45.013926663186375" lon="7.9922809850049825"><ele>262.0</ele><time>2026-04-11T07:14:25.999Z</time></trkpt><trkpt lat="45.01381708267643" lon="7.992243760557049"><ele>262.0</ele><time>2026-04-11T07:14:27.999Z</time></trkpt><trkpt lat="45.01369967884721" lon="7.992205368985692"><ele>262.0</ele><time>2026-04-11T07:14:29.999Z</time></trkpt><trkpt lat="45.013579856393285" lon="7.9921563282191475"><ele>262.0</ele><time>2026-04-11T07:14:31.999Z</time></trkpt><trkpt lat="45.01352128456462" lon="7.9921229870340635"><ele>262.0</ele><time>2026-04-11T07:14:32.999Z</time></trkpt><trkpt lat="45.01346056343267" lon="7.992080882701326"><ele>262.0</ele><time>2026-04-11T07:14:33.999Z</time></trkpt><trkpt lat="45.01340155105298" lon="7.992032002698123"><ele>262.0</ele><time>2026-04-11T07:14:34.999Z</time></trkpt><trkpt lat="45.01334004782903" lon="7.991977810374051"><ele>262.3333333333333</ele><time>2026-04-11T07:14:35.999Z</time></trkpt><trkpt lat="45.01328067757354" lon="7.991917531762067"><ele>262.66666666666663</ele><time>2026-04-11T07:14:36.999Z</time></trkpt><trkpt lat="45.01322242843536" lon="7.991849495832992"><ele>263.0</ele><time>2026-04-11T07:14:37.999Z</time></trkpt><trkpt lat="45.01316771435225" lon="7.991771101974791"><ele>263.3333333333333</ele><time>2026-04-11T07:14:38.999Z</time></trkpt><trkpt lat="45.013112299402856" lon="7.991684808001199"><ele>263.6666666666667</ele><time>2026-04-11T07:14:39.999Z</time></trkpt><trkpt lat="45.01307378970429" lon="7.991579090443183"><ele>264.0</ele><time>2026-04-11T07:14:40.999Z</time></trkpt><trkpt lat="45.01302358952862" lon="7.991477646332827"><ele>264.0</ele><time>2026-04-11T07:14:41.999Z</time></trkpt><trkpt lat="45.012963243183464" lon="7.991382807181554"><ele>264.0</ele><time>2026-04-11T07:14:42.999Z</time></trkpt><trkpt lat="45.0129116440079" lon="7.991276256128459"><ele>264.0</ele><time>2026-04-11T07:14:43.999Z</time></trkpt><trkpt lat="45.012862674572425" lon="7.991168051294646"><ele>264.0</ele><time>2026-04-11T07:14:44.999Z</time></trkpt><trkpt lat="45.01281561519684" lon="7.991055764944053"><ele>264.0</ele><time>2026-04-11T07:14:45.999Z</time></trkpt><trkpt lat="45.012764814744514" lon="7.990944155409304"><ele>262.8</ele><time>2026-04-11T07:14:46.999Z</time></trkpt><trkpt lat="45.01271196748979" lon="7.990830301935793"><ele>261.59999999999997</ele><time>2026-04-11T07:14:47.999Z</time></trkpt><trkpt lat="45.01265309206664" lon="7.990722432629359"><ele>260.4</ele><time>2026-04-11T07:14:48.999Z</time></trkpt><trkpt lat="45.01258740610908" lon="7.990615635833327"><ele>259.2</ele><time>2026-04-11T07:14:49.999Z</time></trkpt><trkpt lat="45.012513944211875" lon="7.990516229818556"><ele>258.0</ele><time>2026-04-11T07:14:50.999Z</time></trkpt><trkpt lat="45.01243197536141" lon="7.990431342693436"><ele>257.6</ele><time>2026-04-11T07:14:51.999Z</time></trkpt><trkpt lat="45.012341870812925" lon="7.990361365801949"><ele>257.20000000000005</ele><time>2026-04-11T07:14:52.999Z</time></trkpt><trkpt lat="45.01224615905603" lon="7.990304084681735"><ele>256.8</ele><time>2026-04-11T07:14:53.999Z</time></trkpt><trkpt lat="45.01214390645459" lon="7.990266872031405"><ele>256.40000000000003</ele><time>2026-04-11T07:14:54.999Z</time></trkpt><trkpt lat="45.01204596222877" lon="7.990203061670988"><ele>256.0</ele><time>2026-04-11T07:14:55.999Z</time></trkpt><trkpt lat="45.01194317584335" lon="7.990162783062787"><ele>256.0</ele><time>2026-04-11T07:14:56.999Z</time></trkpt><trkpt lat="45.01183720116449" lon="7.990124225081001"><ele>256.0</ele><time>2026-04-11T07:14:57.999Z</time></trkpt><trkpt lat="45.01173208761062" lon="7.990110388159486"><ele>256.0</ele><time>2026-04-11T07:14:58.999Z</time></trkpt><trkpt lat="45.011636699717236" lon="7.990073932525207"><ele>256.0</ele><time>2026-04-11T07:14:59.999Z</time></trkpt><trkpt lat="45.01154110026199" lon="7.990042778721722"><ele>256.0</ele><time>2026-04-11T07:15:00.999Z</time></trkpt><trkpt lat="45.01145026905915" lon="7.9900240584577045"><ele>255.33333333333331</ele><time>2026-04-11T07:15:01.999Z</time></trkpt><trkpt lat="45.01137272506461" lon="7.990018275187162"><ele>254.66666666666666</ele><time>2026-04-11T07:15:02.999Z</time></trkpt><trkpt lat="45.01126594708175" lon="7.990015986720245"><ele>254.0</ele><time>2026-04-11T07:15:04.999Z</time></trkpt><trkpt lat="45.011186655942055" lon="7.990001598666924"><ele>253.33333333333331</ele><time>2026-04-11T07:15:07.999Z</time></trkpt><trkpt lat="45.01109504627005" lon="7.989995850210347"><ele>252.66666666666666</ele><time>2026-04-11T07:15:10.999Z</time></trkpt><trkpt lat="45.011017370001504" lon="7.989983441227544"><ele>252.0</ele><time>2026-04-11T07:15:14Z</time></trkpt><trkpt lat="45.01092896040335" lon="7.989974716909881"><ele>251.2</ele><time>2026-04-11T07:16:03Z</time></trkpt><trkpt lat="45.010837383037114" lon="7.989969836291914"><ele>250.39999999999998</ele><time>2026-04-11T07:16:05Z</time></trkpt><trkpt lat="45.01070787790792" lon="7.989952822502789"><ele>249.60000000000002</ele><time>2026-04-11T07:16:07Z</time></trkpt><trkpt lat="45.01063410497219" lon="7.98994026573866"><ele>248.8</ele><time>2026-04-11T07:16:08Z</time></trkpt><trkpt lat="45.01055530228039" lon="7.989934069034029"><ele>248.0</ele><time>2026-04-11T07:16:09Z</time></trkpt><trkpt lat="45.010474725286265" lon="7.989922570019214"><ele>247.50000000000003</ele><time>2026-04-11T07:16:10Z</time></trkpt><trkpt lat="45.01039482706168" lon="7.989909885951232"><ele>247.0</ele><time>2026-04-11T07:16:11Z</time></trkpt><trkpt lat="45.01031741699311" lon="7.989891033215849"><ele>246.5</ele><time>2026-04-11T07:16:12Z</time></trkpt><trkpt lat="45.010240128187924" lon="7.989870046713227"><ele>246.0</ele><time>2026-04-11T07:16:13Z</time></trkpt><trkpt lat="45.01015879352665" lon="7.9898479059235905"><ele>245.50000000000003</ele><time>2026-04-11T07:16:14Z</time></trkpt><trkpt lat="45.01007206616495" lon="7.9898346672388705"><ele>245.0</ele><time>2026-04-11T07:16:15Z</time></trkpt><trkpt lat="45.00999844923687" lon="7.9898166533491946"><ele>246.16666666666669</ele><time>2026-04-11T07:16:16Z</time></trkpt><trkpt lat="45.00993424979857" lon="7.989801563821785"><ele>247.33333333333334</ele><time>2026-04-11T07:16:17Z</time></trkpt><trkpt lat="45.00982893530498" lon="7.989764087742402"><ele>248.5</ele><time>2026-04-11T07:16:18.999Z</time></trkpt><trkpt lat="45.00978186162035" lon="7.989645968544103"><ele>249.66666666666669</ele><time>2026-04-11T07:16:20.999Z</time></trkpt><trkpt lat="45.00979200183638" lon="7.98955738349248"><ele>250.83333333333334</ele><time>2026-04-11T07:16:21.999Z</time></trkpt><trkpt lat="45.00983963736074" lon="7.989478340597922"><ele>252.0</ele><time>2026-04-11T07:16:22.999Z</time></trkpt><trkpt lat="45.009916101752644" lon="7.989445926012558"><ele>252.0</ele><time>2026-04-11T07:16:23.999Z</time></trkpt><trkpt lat="45.009983511003675" lon="7.989413651956809"><ele>252.0</ele><time>2026-04-11T07:16:24.999Z</time></trkpt><trkpt lat="45.010089698595465" lon="7.989346801062033"><ele>252.0</ele><time>2026-04-11T07:16:26.999Z</time></trkpt><trkpt lat="45.01015484896733" lon="7.989299509442527"><ele>252.0</ele><time>2026-04-11T07:16:27.999Z</time></trkpt><trkpt lat="45.01022448963664" lon="7.989247581725713"><ele>252.0</ele><time>2026-04-11T07:16:28.999Z</time></trkpt><trkpt lat="45.01028739398048" lon="7.9891551600428965"><ele>252.0</ele><time>2026-04-11T07:16:29.999Z</time></trkpt><trkpt lat="45.010322611785256" lon="7.989028602989133"><ele>247.6</ele><time>2026-04-11T07:16:30.999Z</time></trkpt><trkpt lat="45.01033883400426" lon="7.988878882419074"><ele>243.2</ele><time>2026-04-11T07:16:31.999Z</time></trkpt><trkpt lat="45.01035124664466" lon="7.9887276165716505"><ele>238.8</ele><time>2026-04-11T07:16:32.999Z</time></trkpt><trkpt lat="45.010371625911645" lon="7.988575136200402"><ele>234.4</ele><time>2026-04-11T07:16:33.999Z</time></trkpt><trkpt lat="45.01038363625524" lon="7.988415571309003"><ele>230.0</ele><time>2026-04-11T07:16:34.999Z</time></trkpt><trkpt lat="45.010401637877884" lon="7.988251213194574"><ele>228.25</ele><time>2026-04-11T07:16:35.999Z</time></trkpt><trkpt lat="45.0104253297932" lon="7.9880910296837175"><ele>226.5</ele><time>2026-04-11T07:16:36.999Z</time></trkpt><trkpt lat="45.010447373155884" lon="7.987932563708605"><ele>224.75</ele><time>2026-04-11T07:16:37.999Z</time></trkpt><trkpt lat="45.01046384705036" lon="7.987773462574432"><ele>223.0</ele><time>2026-04-11T07:16:38.999Z</time></trkpt><trkpt lat="45.01047728655366" lon="7.987612990361908"><ele>222.0</ele><time>2026-04-11T07:16:39.999Z</time></trkpt><trkpt lat="45.01050882036544" lon="7.987465894477184"><ele>221.0</ele><time>2026-04-11T07:16:40.999Z</time></trkpt><trkpt lat="45.0105255880622" lon="7.987326207553217"><ele>220.0</ele><time>2026-04-11T07:16:41.999Z</time></trkpt><trkpt lat="45.010524734802594" lon="7.987195282259251"><ele>219.0</ele><time>2026-04-11T07:16:42.999Z</time></trkpt><trkpt lat="45.01054006894203" lon="7.987080134477346"><ele>218.0</ele><time>2026-04-11T07:16:43.999Z</time></trkpt><trkpt lat="45.01056639956061" lon="7.986985105394509"><ele>218.0</ele><time>2026-04-11T07:16:44.999Z</time></trkpt><trkpt lat="45.01058213119516" lon="7.986850911688036"><ele>218.0</ele><time>2026-04-11T07:16:46.999Z</time></trkpt><trkpt lat="45.01059534952713" lon="7.986732217278881"><ele>218.0</ele><time>2026-04-11T07:16:49.999Z</time></trkpt><trkpt lat="45.010606348866794" lon="7.986633448347501"><ele>218.0</ele><time>2026-04-11T07:16:53.999Z</time></trkpt><trkpt lat="45.0104760388016" lon="7.9865440317996175"><ele>218.0</ele><time>2026-04-11T07:17:39Z</time></trkpt><trkpt lat="45.010479244339024" lon="7.986434268688693"><ele>217.4</ele><time>2026-04-11T07:18:30Z</time></trkpt><trkpt lat="45.010394523029845" lon="7.986343511352745"><ele>216.8</ele><time>2026-04-11T07:18:32.999Z</time></trkpt><trkpt lat="45.01030116365682" lon="7.98631131318985"><ele>216.2</ele><time>2026-04-11T07:18:34.999Z</time></trkpt><trkpt lat="45.010188381934704" lon="7.986300228129502"><ele>215.6</ele><time>2026-04-11T07:18:36.999Z</time></trkpt><trkpt lat="45.01006423965249" lon="7.986279531233531"><ele>215.0</ele><time>2026-04-11T07:18:38.999Z</time></trkpt><trkpt lat="45.00994867309808" lon="7.986242517347205"><ele>217.5</ele><time>2026-04-11T07:18:40.999Z</time></trkpt><trkpt lat="45.009838439608316" lon="7.986196962897707"><ele>220.0</ele><time>2026-04-11T07:18:42.999Z</time></trkpt><trkpt lat="45.00973442270391" lon="7.986151673907771"><ele>222.5</ele><time>2026-04-11T07:18:44.999Z</time></trkpt><trkpt lat="45.00962589126209" lon="7.986099000446083"><ele>225.0</ele><time>2026-04-11T07:18:46.999Z</time></trkpt><trkpt lat="45.00951295585676" lon="7.986048003402181"><ele>225.0</ele><time>2026-04-11T07:18:48.999Z</time></trkpt><trkpt lat="45.00939914244041" lon="7.98600173217233"><ele>225.0</ele><time>2026-04-11T07:18:50.999Z</time></trkpt><trkpt lat="45.00927791847811" lon="7.9859670116892305"><ele>225.0</ele><time>2026-04-11T07:18:52.999Z</time></trkpt><trkpt lat="45.009153129886435" lon="7.98594426552643"><ele>225.0</ele><time>2026-04-11T07:18:54.999Z</time></trkpt><trkpt lat="45.00902654045283" lon="7.9859372026921704"><ele>225.28571428571433</ele><time>2026-04-11T07:18:56.999Z</time></trkpt><trkpt lat="45.00895914206005" lon="7.985948298472977"><ele>225.57142857142858</ele><time>2026-04-11T07:18:57.999Z</time></trkpt><trkpt lat="45.00889365289774" lon="7.985959789036837"><ele>225.8571428571429</ele><time>2026-04-11T07:18:58.999Z</time></trkpt><trkpt lat="45.00882446090961" lon="7.985968003492121"><ele>226.14285714285717</ele><time>2026-04-11T07:18:59.999Z</time></trkpt><trkpt lat="45.00876084282858" lon="7.985982039423685"><ele>226.42857142857144</ele><time>2026-04-11T07:19:00.999Z</time></trkpt><trkpt lat="45.00869753060861" lon="7.985998180638089"><ele>226.71428571428572</ele><time>2026-04-11T07:19:01.999Z</time></trkpt><trkpt lat="45.00863134507317" lon="7.986014909605112"><ele>227.0</ele><time>2026-04-11T07:19:02.999Z</time></trkpt><trkpt lat="45.008565146711796" lon="7.986026525408628"><ele>227.00000000000003</ele><time>2026-04-11T07:19:03.999Z</time></trkpt><trkpt lat="45.00849961452467" lon="7.986037224217787"><ele>227.0</ele><time>2026-04-11T07:19:04.999Z</time></trkpt><trkpt lat="45.00843439619768" lon="7.986055711101782"><ele>227.0</ele><time>2026-04-11T07:19:05.999Z</time></trkpt><trkpt lat="45.00837157109565" lon="7.986072011807391"><ele>227.0</ele><time>2026-04-11T07:19:06.999Z</time></trkpt><trkpt lat="45.00830475930109" lon="7.98609083761247"><ele>227.00000000000003</ele><time>2026-04-11T07:19:07.999Z</time></trkpt><trkpt lat="45.00824166114819" lon="7.986109952063657"><ele>227.0</ele><time>2026-04-11T07:19:08.999Z</time></trkpt><trkpt lat="45.008114423358336" lon="7.9861365703358125"><ele>226.50000000000003</ele><time>2026-04-11T07:19:10.999Z</time></trkpt><trkpt lat="45.008046999377434" lon="7.986152865282577"><ele>226.0</ele><time>2026-04-11T07:19:11.999Z</time></trkpt><trkpt lat="45.00797689985417" lon="7.986171495944059"><ele>225.5</ele><time>2026-04-11T07:19:12.999Z</time></trkpt><trkpt lat="45.00784743136679" lon="7.986197548998756"><ele>225.0</ele><time>2026-04-11T07:19:14.999Z</time></trkpt><trkpt lat="45.00777705329003" lon="7.986211781398294"><ele>224.50000000000003</ele><time>2026-04-11T07:19:15.999Z</time></trkpt><trkpt lat="45.00770640089805" lon="7.986226256404999"><ele>224.0</ele><time>2026-04-11T07:19:16.999Z</time></trkpt><trkpt lat="45.00764011820368" lon="7.9862325518103106"><ele>224.00000000000003</ele><time>2026-04-11T07:19:17.999Z</time></trkpt><trkpt lat="45.00756903133192" lon="7.986242613040086"><ele>224.0</ele><time>2026-04-11T07:19:18.999Z</time></trkpt><trkpt lat="45.00749904349265" lon="7.986252469948488"><ele>224.0</ele><time>2026-04-11T07:19:19.999Z</time></trkpt><trkpt lat="45.007431310182064" lon="7.98626372913509"><ele>224.0</ele><time>2026-04-11T07:19:20.999Z</time></trkpt><trkpt lat="45.007358340985036" lon="7.986273838219387"><ele>224.00000000000003</ele><time>2026-04-11T07:19:21.999Z</time></trkpt><trkpt lat="45.00722661532967" lon="7.986291943519308"><ele>224.0</ele><time>2026-04-11T07:19:23.999Z</time></trkpt><trkpt lat="45.0071576336408" lon="7.986302197759222"><ele>223.83333333333334</ele><time>2026-04-11T07:19:25Z</time></trkpt><trkpt lat="45.007083560363526" lon="7.986311155646746"><ele>223.66666666666669</ele><time>2026-04-11T07:19:26Z</time></trkpt><trkpt lat="45.00701338281397" lon="7.9863184888259084"><ele>223.5</ele><time>2026-04-11T07:19:27Z</time></trkpt><trkpt lat="45.00694476323668" lon="7.986328759649333"><ele>223.33333333333331</ele><time>2026-04-11T07:19:28Z</time></trkpt><trkpt lat="45.00687606944753" lon="7.986334280823721"><ele>223.16666666666666</ele><time>2026-04-11T07:19:29Z</time></trkpt><trkpt lat="45.0068094202497" lon="7.986343208303103"><ele>223.0</ele><time>2026-04-11T07:19:30Z</time></trkpt><trkpt lat="45.006682519385905" lon="7.986366494669079"><ele>222.57142857142856</ele><time>2026-04-11T07:19:32Z</time></trkpt><trkpt lat="45.0066169854249" lon="7.986378759332692"><ele>222.14285714285714</ele><time>2026-04-11T07:19:33Z</time></trkpt><trkpt lat="45.00655438076696" lon="7.986399318214693"><ele>221.71428571428572</ele><time>2026-04-11T07:19:34Z</time></trkpt><trkpt lat="45.006491301611106" lon="7.986421275604909"><ele>221.28571428571428</ele><time>2026-04-11T07:19:35Z</time></trkpt><trkpt lat="45.006424211521555" lon="7.986440092721362"><ele>220.85714285714286</ele><time>2026-04-11T07:19:36Z</time></trkpt><trkpt lat="45.00635589906236" lon="7.986463125878432"><ele>220.42857142857142</ele><time>2026-04-11T07:19:37Z</time></trkpt><trkpt lat="45.00629295961819" lon="7.986486880468828"><ele>220.0</ele><time>2026-04-11T07:19:38Z</time></trkpt><trkpt lat="45.0062262802103" lon="7.986514736412244"><ele>219.99999999999997</ele><time>2026-04-11T07:19:39Z</time></trkpt><trkpt lat="45.00616186306786" lon="7.986538961205578"><ele>220.0</ele><time>2026-04-11T07:19:40Z</time></trkpt><trkpt lat="45.00609766438212" lon="7.986565488182272"><ele>220.0</ele><time>2026-04-11T07:19:41Z</time></trkpt><trkpt lat="45.00603769107563" lon="7.986595302317637"><ele>220.0</ele><time>2026-04-11T07:19:42Z</time></trkpt><trkpt lat="45.00597397165647" lon="7.986637472095717"><ele>219.99999999999997</ele><time>2026-04-11T07:19:43Z</time></trkpt><trkpt lat="45.00586184344319" lon="7.98671874759722"><ele>220.0</ele><time>2026-04-11T07:19:45Z</time></trkpt><trkpt lat="45.005807062899855" lon="7.986766160043568"><ele>219.6</ele><time>2026-04-11T07:19:46Z</time></trkpt><trkpt lat="45.005705359373565" lon="7.9868672847108915"><ele>219.2</ele><time>2026-04-11T07:19:48Z</time></trkpt><trkpt lat="45.005652342191475" lon="7.986922083941696"><ele>218.8</ele><time>2026-04-11T07:19:49Z</time></trkpt><trkpt lat="45.005598831696275" lon="7.986971684039457"><ele>218.4</ele><time>2026-04-11T07:19:50Z</time></trkpt><trkpt lat="45.00549432048813" lon="7.987071050775082"><ele>218.0</ele><time>2026-04-11T07:19:52Z</time></trkpt><trkpt lat="45.005387522561605" lon="7.987162081479014"><ele>218.00000000000003</ele><time>2026-04-11T07:19:54Z</time></trkpt><trkpt lat="45.00532943607594" lon="7.987206395592466"><ele>218.0</ele><time>2026-04-11T07:19:55Z</time></trkpt><trkpt lat="45.00522522100069" lon="7.987285813612374"><ele>218.0</ele><time>2026-04-11T07:19:57Z</time></trkpt><trkpt lat="45.00516763541596" lon="7.987326298945452"><ele>218.0</ele><time>2026-04-11T07:19:58Z</time></trkpt><trkpt lat="45.00510718475051" lon="7.987366537833003"><ele>218.00000000000003</ele><time>2026-04-11T07:19:59Z</time></trkpt><trkpt lat="45.005000959344905" lon="7.98744899749523"><ele>218.0</ele><time>2026-04-11T07:20:01Z</time></trkpt><trkpt lat="45.00494500481795" lon="7.987496879964177"><ele>216.50000000000003</ele><time>2026-04-11T07:20:02Z</time></trkpt><trkpt lat="45.00484362731824" lon="7.987605662020525"><ele>215.0</ele><time>2026-04-11T07:20:04Z</time></trkpt><trkpt lat="45.00479763972715" lon="7.987673084106366"><ele>213.5</ele><time>2026-04-11T07:20:05Z</time></trkpt><trkpt lat="45.004756165259884" lon="7.987744227749515"><ele>212.0</ele><time>2026-04-11T07:20:06Z</time></trkpt><trkpt lat="45.004717197649526" lon="7.987821931383135"><ele>210.50000000000003</ele><time>2026-04-11T07:20:07Z</time></trkpt><trkpt lat="45.004682122318656" lon="7.98790346880798"><ele>209.0</ele><time>2026-04-11T07:20:08Z</time></trkpt><trkpt lat="45.0046445408889" lon="7.987985110628865"><ele>209.0</ele><time>2026-04-11T07:20:09Z</time></trkpt><trkpt lat="45.004607969979936" lon="7.988063760803461"><ele>209.0</ele><time>2026-04-11T07:20:10Z</time></trkpt><trkpt lat="45.004570920685964" lon="7.988148271340877"><ele>209.0</ele><time>2026-04-11T07:20:11Z</time></trkpt><trkpt lat="45.00453709283345" lon="7.988229978263812"><ele>209.0</ele><time>2026-04-11T07:20:12Z</time></trkpt><trkpt lat="45.004499850591465" lon="7.988314075991359"><ele>209.0</ele><time>2026-04-11T07:20:13Z</time></trkpt><trkpt lat="45.004467826255436" lon="7.988398048653137"><ele>209.0</ele><time>2026-04-11T07:20:14Z</time></trkpt><trkpt lat="45.00443215595226" lon="7.98847819076458"><ele>209.0</ele><time>2026-04-11T07:20:15Z</time></trkpt><trkpt lat="45.00439322037016" lon="7.988557993608794"><ele>210.00000000000003</ele><time>2026-04-11T07:20:16Z</time></trkpt><trkpt lat="45.00435259706524" lon="7.988638852577966"><ele>211.0</ele><time>2026-04-11T07:20:17Z</time></trkpt><trkpt lat="45.00431484504988" lon="7.988722126811635"><ele>212.0</ele><time>2026-04-11T07:20:18Z</time></trkpt><trkpt lat="45.004254034333144" lon="7.988885365940306"><ele>213.0</ele><time>2026-04-11T07:20:19.999Z</time></trkpt><trkpt lat="45.00421600671087" lon="7.988966569540358"><ele>214.00000000000003</ele><time>2026-04-11T07:20:20.999Z</time></trkpt><trkpt lat="45.00418127180541" lon="7.989044120418422"><ele>215.0</ele><time>2026-04-11T07:20:21.999Z</time></trkpt><trkpt lat="45.004121967687425" lon="7.989191187208354"><ele>215.00000000000003</ele><time>2026-04-11T07:20:23.999Z</time></trkpt><trkpt lat="45.00406526352033" lon="7.989319524392001"><ele>215.0</ele><time>2026-04-11T07:20:25.999Z</time></trkpt><trkpt lat="45.004012344313615" lon="7.989440792963772"><ele>215.0</ele><time>2026-04-11T07:20:27.999Z</time></trkpt><trkpt lat="45.00396973201715" lon="7.989535329639394"><ele>215.0</ele><time>2026-04-11T07:20:29.999Z</time></trkpt><trkpt lat="45.00393011155832" lon="7.989635813635644"><ele>215.00000000000003</ele><time>2026-04-11T07:20:31.999Z</time></trkpt><trkpt lat="45.00389473838272" lon="7.989724030742313"><ele>215.0</ele><time>2026-04-11T07:20:33.999Z</time></trkpt><trkpt lat="45.00385962522491" lon="7.989812664739128"><ele>215.0</ele><time>2026-04-11T07:20:35.999Z</time></trkpt><trkpt lat="45.00382985698032" lon="7.98991096374393"><ele>215.0</ele><time>2026-04-11T07:20:37.999Z</time></trkpt><trkpt lat="45.003792027381415" lon="7.989990669488779"><ele>215.0</ele><time>2026-04-11T07:20:39.999Z</time></trkpt><trkpt lat="45.00376027003958" lon="7.99007943093711"><ele>215.0</ele><time>2026-04-11T07:20:41.999Z</time></trkpt><trkpt lat="45.00373196936181" lon="7.990167675797226"><ele>215.0</ele><time>2026-04-11T07:20:43.999Z</time></trkpt><trkpt lat="45.00370357831569" lon="7.990256558860527"><ele>215.0</ele><time>2026-04-11T07:20:45.999Z</time></trkpt><trkpt lat="45.0036792459481" lon="7.990348443797386"><ele>215.0</ele><time>2026-04-11T07:20:47.999Z</time></trkpt><trkpt lat="45.0036730417825" lon="7.9904440394558405"><ele>216.00000000000003</ele><time>2026-04-11T07:20:49.999Z</time></trkpt><trkpt lat="45.00366478146537" lon="7.990541993613659"><ele>217.0</ele><time>2026-04-11T07:20:51.999Z</time></trkpt><trkpt lat="45.00365919099789" lon="7.9906858871015425"><ele>218.0</ele><time>2026-04-11T07:20:54.999Z</time></trkpt><trkpt lat="45.00365530072847" lon="7.990807306371731"><ele>219.0</ele><time>2026-04-11T07:20:57.999Z</time></trkpt><trkpt lat="45.003654354423695" lon="7.990909524917155"><ele>220.00000000000003</ele><time>2026-04-11T07:21:00.999Z</time></trkpt><trkpt lat="45.00364039024498" lon="7.991026610977148"><ele>221.0</ele><time>2026-04-11T07:21:03.999Z</time></trkpt><trkpt lat="45.00364219834579" lon="7.991146167165864"><ele>221.33333333333334</ele><time>2026-04-11T07:21:06.999Z</time></trkpt><trkpt lat="45.003641828108535" lon="7.991272955194417"><ele>221.66666666666669</ele><time>2026-04-11T07:21:09.999Z</time></trkpt><trkpt lat="45.00363883986951" lon="7.99139689761599"><ele>222.0</ele><time>2026-04-11T07:21:12.999Z</time></trkpt><trkpt lat="45.00363740843952" lon="7.991504571199886"><ele>222.33333333333331</ele><time>2026-04-11T07:21:15.999Z</time></trkpt><trkpt lat="45.0036404801639" lon="7.991593830693119"><ele>222.66666666666666</ele><time>2026-04-11T07:21:17.999Z</time></trkpt><trkpt lat="45.00364817070379" lon="7.991705816053826"><ele>223.0</ele><time>2026-04-11T07:21:20.999Z</time></trkpt><trkpt lat="45.00366465882812" lon="7.991807148449071"><ele>222.99999999999997</ele><time>2026-04-11T07:21:23.999Z</time></trkpt><trkpt lat="45.00368944343859" lon="7.991917022720938"><ele>223.0</ele><time>2026-04-11T07:21:26.999Z</time></trkpt><trkpt lat="45.0037422813538" lon="7.9920048957780585"><ele>223.0</ele><time>2026-04-11T07:21:29.999Z</time></trkpt><trkpt lat="45.00380387102293" lon="7.992068555126103"><ele>223.0</ele><time>2026-04-11T07:21:33Z</time></trkpt><trkpt lat="45.00388336548836" lon="7.992112014211473"><ele>222.99999999999997</ele><time>2026-04-11T07:21:36Z</time></trkpt><trkpt lat="45.00395880434801" lon="7.992158382322909"><ele>223.0</ele><time>2026-04-11T07:21:39Z</time></trkpt><trkpt lat="45.00403094814586" lon="7.992194890095248"><ele>222.99999999999997</ele><time>2026-04-11T07:21:42Z</time></trkpt><trkpt lat="45.00410628551958" lon="7.992246239223532"><ele>223.0</ele><time>2026-04-11T07:21:45Z</time></trkpt><trkpt lat="45.00417469931978" lon="7.992315234575597"><ele>223.0</ele><time>2026-04-11T07:21:48Z</time></trkpt><trkpt lat="45.004188497366876" lon="7.992414858802497"><ele>223.0</ele><time>2026-04-11T07:21:51Z</time></trkpt><trkpt lat="45.0041946587131" lon="7.9925146303329235"><ele>222.99999999999997</ele><time>2026-04-11T07:21:54Z</time></trkpt><trkpt lat="45.00416911472819" lon="7.992645494161795"><ele>223.0</ele><time>2026-04-11T07:21:58Z</time></trkpt><trkpt lat="45.00416284841987" lon="7.99276102815408"><ele>224.99999999999997</ele><time>2026-04-11T07:22:01Z</time></trkpt><trkpt lat="45.00418333061109" lon="7.992888969070239"><ele>227.0</ele><time>2026-04-11T07:22:04Z</time></trkpt><trkpt lat="45.0042167816848" lon="7.992969073875392"><ele>229.0</ele><time>2026-04-11T07:22:06Z</time></trkpt><trkpt lat="45.004264215418445" lon="7.993080109923243"><ele>231.0</ele><time>2026-04-11T07:22:09Z</time></trkpt><trkpt lat="45.004320624225535" lon="7.993174754301026"><ele>232.99999999999997</ele><time>2026-04-11T07:22:12Z</time></trkpt><trkpt lat="45.004375817723684" lon="7.993265697407166"><ele>235.0</ele><time>2026-04-11T07:22:15Z</time></trkpt><trkpt lat="45.004419776499354" lon="7.993354887607561"><ele>235.83333333333331</ele><time>2026-04-11T07:22:18Z</time></trkpt><trkpt lat="45.004454933363085" lon="7.993435792549191"><ele>236.66666666666666</ele><time>2026-04-11T07:22:21Z</time></trkpt><trkpt lat="45.00449111173628" lon="7.993540133542176"><ele>237.5</ele><time>2026-04-11T07:22:24Z</time></trkpt><trkpt lat="45.004508082813004" lon="7.993656724844504"><ele>238.33333333333331</ele><time>2026-04-11T07:22:27Z</time></trkpt><trkpt lat="45.00451461889842" lon="7.993761477737279"><ele>239.16666666666666</ele><time>2026-04-11T07:22:29.999Z</time></trkpt><trkpt lat="45.00450282754397" lon="7.993868013431716"><ele>240.0</ele><time>2026-04-11T07:22:32.999Z</time></trkpt><trkpt lat="45.00450077224663" lon="7.993985345959389"><ele>240.0</ele><time>2026-04-11T07:22:35.999Z</time></trkpt><trkpt lat="45.004488076554395" lon="7.99410622071112"><ele>240.0</ele><time>2026-04-11T07:22:38.999Z</time></trkpt><trkpt lat="45.00448181809852" lon="7.994215683364083"><ele>240.0</ele><time>2026-04-11T07:22:41.999Z</time></trkpt><trkpt lat="45.004481038013076" lon="7.994336918045542"><ele>240.0</ele><time>2026-04-11T07:22:44.999Z</time></trkpt><trkpt lat="45.004474475315895" lon="7.994451276945363"><ele>240.0</ele><time>2026-04-11T07:22:47.999Z</time></trkpt><trkpt lat="45.004480902984774" lon="7.994573937687104"><ele>240.0</ele><time>2026-04-11T07:22:50.999Z</time></trkpt><trkpt lat="45.00447592454584" lon="7.994662892787184"><ele>241.16666666666666</ele><time>2026-04-11T07:22:52.999Z</time></trkpt><trkpt lat="45.00448114951242" lon="7.994756055270354"><ele>242.33333333333331</ele><time>2026-04-11T07:22:54.999Z</time></trkpt><trkpt lat="45.004472543102175" lon="7.994877799371542"><ele>243.5</ele><time>2026-04-11T07:22:57.999Z</time></trkpt><trkpt lat="45.004473927464986" lon="7.995001287297336"><ele>244.66666666666666</ele><time>2026-04-11T07:23:00.999Z</time></trkpt><trkpt lat="45.00446681663758" lon="7.995099659664803"><ele>245.83333333333331</ele><time>2026-04-11T07:23:02.999Z</time></trkpt><trkpt lat="45.004463928227224" lon="7.995223798128352"><ele>247.0</ele><time>2026-04-11T07:23:05.999Z</time></trkpt><trkpt lat="45.00443208181024" lon="7.995305760554505"><ele>247.33333333333331</ele><time>2026-04-11T07:23:07.999Z</time></trkpt><trkpt lat="45.00435529916251" lon="7.995392484731051"><ele>247.66666666666666</ele><time>2026-04-11T07:23:10.999Z</time></trkpt><trkpt lat="45.004296564758846" lon="7.995427355720875"><ele>248.0</ele><time>2026-04-11T07:23:12.999Z</time></trkpt><trkpt lat="45.0042254332031" lon="7.995450568116341"><ele>248.33333333333331</ele><time>2026-04-11T07:23:15.999Z</time></trkpt><trkpt lat="45.00415010492749" lon="7.995451641831857"><ele>248.66666666666666</ele><time>2026-04-11T07:23:18.999Z</time></trkpt><trkpt lat="45.004073784642706" lon="7.995456616148577"><ele>249.0</ele><time>2026-04-11T07:23:21.999Z</time></trkpt><trkpt lat="45.00400273512222" lon="7.99546907259021"><ele>249.0</ele><time>2026-04-11T07:23:23.999Z</time></trkpt><trkpt lat="45.003923620805615" lon="7.995478343797093"><ele>249.0</ele><time>2026-04-11T07:23:25.999Z</time></trkpt><trkpt lat="45.003849872194756" lon="7.9954949203916135"><ele>249.0</ele><time>2026-04-11T07:23:27.999Z</time></trkpt><trkpt lat="45.003786309429934" lon="7.995515902818462"><ele>249.0</ele><time>2026-04-11T07:23:29.999Z</time></trkpt><trkpt lat="45.00371785899108" lon="7.995557692865914"><ele>249.0</ele><time>2026-04-11T07:23:31.999Z</time></trkpt><trkpt lat="45.0036520859879" lon="7.995621670167324"><ele>249.0</ele><time>2026-04-11T07:23:33.999Z</time></trkpt><trkpt lat="45.00359449729121" lon="7.995701932543525"><ele>249.0</ele><time>2026-04-11T07:23:35.999Z</time></trkpt><trkpt lat="45.00354293664888" lon="7.995778777261297"><ele>248.99999999999997</ele><time>2026-04-11T07:23:38Z</time></trkpt><trkpt lat="45.003494495031866" lon="7.9958689136824415"><ele>249.0</ele><time>2026-04-11T07:23:40Z</time></trkpt><trkpt lat="45.0034529480622" lon="7.995957059408022"><ele>249.0</ele><time>2026-04-11T07:23:42Z</time></trkpt><trkpt lat="45.00340567378886" lon="7.996034324289238"><ele>248.99999999999997</ele><time>2026-04-11T07:23:44Z</time></trkpt><trkpt lat="45.003366083093944" lon="7.9961131520888475"><ele>249.0</ele><time>2026-04-11T07:23:46Z</time></trkpt><trkpt lat="45.003323514880016" lon="7.996192338207501"><ele>249.0</ele><time>2026-04-11T07:23:48Z</time></trkpt><trkpt lat="45.00328623509053" lon="7.996272005566231"><ele>249.83333333333334</ele><time>2026-04-11T07:23:50Z</time></trkpt><trkpt lat="45.00323570642432" lon="7.996343711641051"><ele>250.66666666666669</ele><time>2026-04-11T07:23:52Z</time></trkpt><trkpt lat="45.003204245053084" lon="7.996428041523055"><ele>251.5</ele><time>2026-04-11T07:23:54Z</time></trkpt><trkpt lat="45.00316633229713" lon="7.996505361849889"><ele>252.33333333333334</ele><time>2026-04-11T07:23:56Z</time></trkpt><trkpt lat="45.0031402967852" lon="7.996591799243682"><ele>253.16666666666669</ele><time>2026-04-11T07:23:58Z</time></trkpt><trkpt lat="45.00315907497025" lon="7.996713272733172"><ele>254.0</ele><time>2026-04-11T07:24:01Z</time></trkpt><trkpt lat="45.00321874546273" lon="7.996815476058434"><ele>254.0</ele><time>2026-04-11T07:24:04Z</time></trkpt><trkpt lat="45.00327434905685" lon="7.996870007236547"><ele>254.0</ele><time>2026-04-11T07:24:06Z</time></trkpt><trkpt lat="45.00333519595982" lon="7.996907869346599"><ele>254.0</ele><time>2026-04-11T07:24:08Z</time></trkpt><trkpt lat="45.003401597542265" lon="7.99695491235954"><ele>254.0</ele><time>2026-04-11T07:24:10Z</time></trkpt><trkpt lat="45.00346229939043" lon="7.996995795785241"><ele>254.0</ele><time>2026-04-11T07:24:12Z</time></trkpt><trkpt lat="45.003520418452815" lon="7.997050891709029"><ele>254.0</ele><time>2026-04-11T07:24:14Z</time></trkpt><trkpt lat="45.00357769142778" lon="7.997114378270732"><ele>254.0</ele><time>2026-04-11T07:24:16Z</time></trkpt><trkpt lat="45.003630022048085" lon="7.997182189749963"><ele>253.33333333333334</ele><time>2026-04-11T07:24:18Z</time></trkpt><trkpt lat="45.00368293610956" lon="7.997254380174461"><ele>252.66666666666669</ele><time>2026-04-11T07:24:20Z</time></trkpt><trkpt lat="45.00372885668187" lon="7.997331392850008"><ele>252.0</ele><time>2026-04-11T07:24:22Z</time></trkpt><trkpt lat="45.003800383086954" lon="7.997425135357923"><ele>251.33333333333331</ele><time>2026-04-11T07:24:25Z</time></trkpt><trkpt lat="45.00385097280832" lon="7.997496545738523"><ele>250.66666666666666</ele><time>2026-04-11T07:24:27Z</time></trkpt><trkpt lat="45.00390803556401" lon="7.997561699217131"><ele>250.0</ele><time>2026-04-11T07:24:29Z</time></trkpt><trkpt lat="45.003950303652154" lon="7.997641695515724"><ele>250.49999999999997</ele><time>2026-04-11T07:24:31Z</time></trkpt><trkpt lat="45.0040101365695" lon="7.9977089534928005"><ele>251.0</ele><time>2026-04-11T07:24:33Z</time></trkpt><trkpt lat="45.004064914598864" lon="7.997782972410959"><ele>251.5</ele><time>2026-04-11T07:24:35Z</time></trkpt><trkpt lat="45.00411265387832" lon="7.997913986448263"><ele>252.0</ele><time>2026-04-11T07:24:37Z</time></trkpt><trkpt lat="45.004154493053186" lon="7.998072780242903"><ele>252.49999999999997</ele><time>2026-04-11T07:24:38.999Z</time></trkpt><trkpt lat="45.004162305716676" lon="7.9981615231873535"><ele>253.0</ele><time>2026-04-11T07:24:39.999Z</time></trkpt><trkpt lat="45.004166987536124" lon="7.998267943777923"><ele>250.66666666666666</ele><time>2026-04-11T07:24:40.999Z</time></trkpt><trkpt lat="45.00415717771156" lon="7.998369810086767"><ele>248.33333333333331</ele><time>2026-04-11T07:24:41.999Z</time></trkpt><trkpt lat="45.00413616576672" lon="7.998486680264377"><ele>246.0</ele><time>2026-04-11T07:24:42.999Z</time></trkpt><trkpt lat="45.004112306007706" lon="7.998600913354838"><ele>243.66666666666669</ele><time>2026-04-11T07:24:43.999Z</time></trkpt><trkpt lat="45.00407671696733" lon="7.998714070981486"><ele>241.33333333333334</ele><time>2026-04-11T07:24:44.999Z</time></trkpt><trkpt lat="45.00405061765015" lon="7.998831653953292"><ele>239.0</ele><time>2026-04-11T07:24:45.999Z</time></trkpt><trkpt lat="45.004020405211" lon="7.998952283892899"><ele>239.00000000000003</ele><time>2026-04-11T07:24:46.999Z</time></trkpt><trkpt lat="45.00399905541845" lon="7.999073851781095"><ele>239.0</ele><time>2026-04-11T07:24:47.999Z</time></trkpt><trkpt lat="45.00397044178688" lon="7.999187661424004"><ele>239.0</ele><time>2026-04-11T07:24:48.999Z</time></trkpt><trkpt lat="45.00393525324875" lon="7.999302394583931"><ele>239.0</ele><time>2026-04-11T07:24:49.999Z</time></trkpt><trkpt lat="45.00389905903295" lon="7.999416025280933"><ele>239.00000000000003</ele><time>2026-04-11T07:24:50.999Z</time></trkpt><trkpt lat="45.00386697519447" lon="7.999529061859821"><ele>239.0</ele><time>2026-04-11T07:24:51.999Z</time></trkpt><trkpt lat="45.003836300070695" lon="7.999654059282"><ele>239.2</ele><time>2026-04-11T07:24:52.999Z</time></trkpt><trkpt lat="45.00380614874364" lon="7.999780706176649"><ele>239.39999999999998</ele><time>2026-04-11T07:24:53.999Z</time></trkpt><trkpt lat="45.003768973763535" lon="7.999907055232573"><ele>239.6</ele><time>2026-04-11T07:24:54.999Z</time></trkpt><trkpt lat="45.003726203558" lon="8.00003617124093"><ele>239.8</ele><time>2026-04-11T07:24:55.999Z</time></trkpt><trkpt lat="45.00368847979327" lon="8.000159996824701"><ele>240.0</ele><time>2026-04-11T07:24:56.999Z</time></trkpt><trkpt lat="45.00363929426076" lon="8.00028397267539"><ele>240.0</ele><time>2026-04-11T07:24:57.999Z</time></trkpt><trkpt lat="45.00359360237165" lon="8.000404501316067"><ele>240.0</ele><time>2026-04-11T07:24:58.999Z</time></trkpt><trkpt lat="45.00353178543803" lon="8.000531546487698"><ele>240.0</ele><time>2026-04-11T07:24:59.999Z</time></trkpt><trkpt lat="45.00347168091673" lon="8.000651578661449"><ele>240.0</ele><time>2026-04-11T07:25:00.999Z</time></trkpt><trkpt lat="45.00340251904583" lon="8.000768432377656"><ele>240.0</ele><time>2026-04-11T07:25:01.999Z</time></trkpt><trkpt lat="45.003337679202716" lon="8.000863643940598"><ele>237.16666666666666</ele><time>2026-04-11T07:25:02.999Z</time></trkpt><trkpt lat="45.00328145949137" lon="8.000948240862517"><ele>234.33333333333331</ele><time>2026-04-11T07:25:03.999Z</time></trkpt><trkpt lat="45.00322199465323" lon="8.001013551935834"><ele>231.5</ele><time>2026-04-11T07:25:04.999Z</time></trkpt><trkpt lat="45.00309938198065" lon="8.001095761833469"><ele>228.66666666666666</ele><time>2026-04-11T07:25:06.999Z</time></trkpt><trkpt lat="45.00302837026767" lon="8.001068747693111"><ele>225.83333333333331</ele><time>2026-04-11T07:25:07.999Z</time></trkpt><trkpt lat="45.00297262544882" lon="8.001011924479373"><ele>223.0</ele><time>2026-04-11T07:25:08.999Z</time></trkpt><trkpt lat="45.00295160025069" lon="8.000907140574206"><ele>222.4</ele><time>2026-04-11T07:25:09.999Z</time></trkpt><trkpt lat="45.002982763029635" lon="8.000776899592779"><ele>221.8</ele><time>2026-04-11T07:25:10.999Z</time></trkpt><trkpt lat="45.003057492460094" lon="8.000687750218056"><ele>221.2</ele><time>2026-04-11T07:25:11.999Z</time></trkpt><trkpt lat="45.00309981447643" lon="8.000576174478983"><ele>220.6</ele><time>2026-04-11T07:25:12.999Z</time></trkpt><trkpt lat="45.0031413495615" lon="8.000476462598368"><ele>220.0</ele><time>2026-04-11T07:25:13.999Z</time></trkpt><trkpt lat="45.003163345775405" lon="8.00036000001455"><ele>220.0</ele><time>2026-04-11T07:25:14.999Z</time></trkpt><trkpt lat="45.003153018705916" lon="8.000235072838317"><ele>220.0</ele><time>2026-04-11T07:25:15.999Z</time></trkpt><trkpt lat="45.00310948746949" lon="8.000109046799768"><ele>220.0</ele><time>2026-04-11T07:25:16.999Z</time></trkpt><trkpt lat="45.0030350958547" lon="8.000007797827182"><ele>220.0</ele><time>2026-04-11T07:25:17.999Z</time></trkpt><trkpt lat="45.00291850009555" lon="7.999940755980039"><ele>220.0</ele><time>2026-04-11T07:25:18.999Z</time></trkpt><trkpt lat="45.00280498138916" lon="7.999918785478457"><ele>220.0</ele><time>2026-04-11T07:25:19.999Z</time></trkpt><trkpt lat="45.00268130440597" lon="7.999948933592048"><ele>220.0</ele><time>2026-04-11T07:25:20.999Z</time></trkpt><trkpt lat="45.00255983762286" lon="8.000018414686513"><ele>220.0</ele><time>2026-04-11T07:25:21.999Z</time></trkpt><trkpt lat="45.00245923106983" lon="8.000126819293538"><ele>220.0</ele><time>2026-04-11T07:25:22.999Z</time></trkpt><trkpt lat="45.002374809822086" lon="8.000299475335531"><ele>218.5</ele><time>2026-04-11T07:25:23.999Z</time></trkpt><trkpt lat="45.00231351147756" lon="8.000486047617361"><ele>217.0</ele><time>2026-04-11T07:25:24.999Z</time></trkpt><trkpt lat="45.0022446339067" lon="8.000646022147684"><ele>215.5</ele><time>2026-04-11T07:25:25.999Z</time></trkpt><trkpt lat="45.002164909046144" lon="8.000791491872665"><ele>214.0</ele><time>2026-04-11T07:25:26.999Z</time></trkpt><trkpt lat="45.00209082740159" lon="8.000927400495035"><ele>214.0</ele><time>2026-04-11T07:25:27.999Z</time></trkpt><trkpt lat="45.00203000799275" lon="8.001049632554915"><ele>213.99999999999997</ele><time>2026-04-11T07:25:28.999Z</time></trkpt><trkpt lat="45.00197344257856" lon="8.001176096241569"><ele>213.99999999999997</ele><time>2026-04-11T07:25:29.999Z</time></trkpt><trkpt lat="45.001946354185016" lon="8.001324742617317"><ele>214.0</ele><time>2026-04-11T07:25:30.999Z</time></trkpt><trkpt lat="45.00194222926989" lon="8.00148975634496"><ele>214.0</ele><time>2026-04-11T07:25:31.999Z</time></trkpt><trkpt lat="45.001995175854766" lon="8.00165505204968"><ele>212.75</ele><time>2026-04-11T07:25:32.999Z</time></trkpt><trkpt lat="45.002031256731726" lon="8.001834190937497"><ele>211.5</ele><time>2026-04-11T07:25:33.999Z</time></trkpt><trkpt lat="45.00208325274005" lon="8.002007574800533"><ele>210.25</ele><time>2026-04-11T07:25:34.999Z</time></trkpt><trkpt lat="45.002123061633455" lon="8.002185746785491"><ele>209.0</ele><time>2026-04-11T07:25:35.999Z</time></trkpt><trkpt lat="45.00216483864692" lon="8.002357918807915"><ele>210.25</ele><time>2026-04-11T07:25:36.999Z</time></trkpt><trkpt lat="45.00220680181397" lon="8.002531786297002"><ele>211.5</ele><time>2026-04-11T07:25:37.999Z</time></trkpt><trkpt lat="45.00224225582475" lon="8.002706475886175"><ele>212.75</ele><time>2026-04-11T07:25:38.999Z</time></trkpt><trkpt lat="45.002284665658905" lon="8.002879675183028"><ele>214.0</ele><time>2026-04-11T07:25:39.999Z</time></trkpt><trkpt lat="45.0023280976426" lon="8.003049208457433"><ele>214.0</ele><time>2026-04-11T07:25:40.999Z</time></trkpt><trkpt lat="45.0023702462253" lon="8.003217126408831"><ele>214.0</ele><time>2026-04-11T07:25:41.999Z</time></trkpt><trkpt lat="45.002412461269834" lon="8.003379935000527"><ele>214.0</ele><time>2026-04-11T07:25:43Z</time></trkpt><trkpt lat="45.00245388653138" lon="8.003539705716806"><ele>214.0</ele><time>2026-04-11T07:25:44Z</time></trkpt><trkpt lat="45.00249221614587" lon="8.003696627697568"><ele>212.39999999999998</ele><time>2026-04-11T07:25:45Z</time></trkpt><trkpt lat="45.002530260915776" lon="8.003846142342084"><ele>210.79999999999998</ele><time>2026-04-11T07:25:46Z</time></trkpt><trkpt lat="45.00256956605708" lon="8.003994981109296"><ele>209.2</ele><time>2026-04-11T07:25:47Z</time></trkpt><trkpt lat="45.00261133658007" lon="8.004145109816315"><ele>207.60000000000002</ele><time>2026-04-11T07:25:48Z</time></trkpt><trkpt lat="45.00264820851862" lon="8.004292203305466"><ele>206.0</ele><time>2026-04-11T07:25:49Z</time></trkpt><trkpt lat="45.00268242499014" lon="8.00442725668046"><ele>204.8</ele><time>2026-04-11T07:25:50Z</time></trkpt><trkpt lat="45.00271297849616" lon="8.004552344261864"><ele>203.60000000000002</ele><time>2026-04-11T07:25:51Z</time></trkpt><trkpt lat="45.002750370322794" lon="8.004682615244455"><ele>202.4</ele><time>2026-04-11T07:25:52Z</time></trkpt><trkpt lat="45.00278160311616" lon="8.00481017595309"><ele>201.2</ele><time>2026-04-11T07:25:53Z</time></trkpt><trkpt lat="45.002813384164" lon="8.004939488564007"><ele>200.0</ele><time>2026-04-11T07:25:54Z</time></trkpt><trkpt lat="45.002843100508414" lon="8.005067249213583"><ele>198.8</ele><time>2026-04-11T07:25:55Z</time></trkpt><trkpt lat="45.002876233515025" lon="8.005195624675533"><ele>197.6</ele><time>2026-04-11T07:25:56Z</time></trkpt><trkpt lat="45.00291032499258" lon="8.005319945990959"><ele>196.39999999999998</ele><time>2026-04-11T07:25:57Z</time></trkpt><trkpt lat="45.00294145777277" lon="8.005440502466673"><ele>195.2</ele><time>2026-04-11T07:25:58Z</time></trkpt><trkpt lat="45.00297294394491" lon="8.005558662138835"><ele>194.0</ele><time>2026-04-11T07:25:59Z</time></trkpt><trkpt lat="45.003002025893124" lon="8.00567326113253"><ele>194.00000000000003</ele><time>2026-04-11T07:26:00Z</time></trkpt><trkpt lat="45.003027741115204" lon="8.0057806028495"><ele>194.0</ele><time>2026-04-11T07:26:01Z</time></trkpt><trkpt lat="45.00305316874908" lon="8.005884991505381"><ele>194.0</ele><time>2026-04-11T07:26:02Z</time></trkpt><trkpt lat="45.00307010002794" lon="8.005990086664685"><ele>194.0</ele><time>2026-04-11T07:26:03Z</time></trkpt><trkpt lat="45.00306721996343" lon="8.006093259243391"><ele>194.00000000000003</ele><time>2026-04-11T07:26:04Z</time></trkpt><trkpt lat="45.003050173325654" lon="8.006193826826841"><ele>194.0</ele><time>2026-04-11T07:26:05Z</time></trkpt><trkpt lat="45.00301567857621" lon="8.006285672321338"><ele>193.83333333333334</ele><time>2026-04-11T07:26:06Z</time></trkpt><trkpt lat="45.002961170074784" lon="8.006360712264907"><ele>193.66666666666669</ele><time>2026-04-11T07:26:07Z</time></trkpt><trkpt lat="45.00289558830324" lon="8.006418460008959"><ele>193.5</ele><time>2026-04-11T07:26:08Z</time></trkpt><trkpt lat="45.0028222228332" lon="8.00646222194902"><ele>193.33333333333331</ele><time>2026-04-11T07:26:09Z</time></trkpt><trkpt lat="45.002750373607306" lon="8.006511523722732"><ele>193.16666666666666</ele><time>2026-04-11T07:26:10Z</time></trkpt><trkpt lat="45.002682884513945" lon="8.006564717610727"><ele>193.0</ele><time>2026-04-11T07:26:11Z</time></trkpt><trkpt lat="45.00260951930374" lon="8.006617358967496"><ele>192.99999999999997</ele><time>2026-04-11T07:26:12Z</time></trkpt><trkpt lat="45.002533862705484" lon="8.006671238950366"><ele>193.0</ele><time>2026-04-11T07:26:13Z</time></trkpt><trkpt lat="45.00246142385602" lon="8.006725973909244"><ele>193.0</ele><time>2026-04-11T07:26:14Z</time></trkpt><trkpt lat="45.00239219039573" lon="8.006780836809169"><ele>193.0</ele><time>2026-04-11T07:26:15Z</time></trkpt><trkpt lat="45.00232001207857" lon="8.00683919539344"><ele>192.99999999999997</ele><time>2026-04-11T07:26:16Z</time></trkpt><trkpt lat="45.002245733798446" lon="8.0068916851674"><ele>193.0</ele><time>2026-04-11T07:26:17Z</time></trkpt><trkpt lat="45.00217493697638" lon="8.006942440202744"><ele>192.99999999999997</ele><time>2026-04-11T07:26:18Z</time></trkpt><trkpt lat="45.0021048902298" lon="8.006996977096035"><ele>193.0</ele><time>2026-04-11T07:26:19Z</time></trkpt><trkpt lat="45.00203567656984" lon="8.007051111651418"><ele>193.0</ele><time>2026-04-11T07:26:20Z</time></trkpt><trkpt lat="45.00196493019835" lon="8.007103740420439"><ele>193.0</ele><time>2026-04-11T07:26:21Z</time></trkpt><trkpt lat="45.00189529347475" lon="8.007153671310341"><ele>192.99999999999997</ele><time>2026-04-11T07:26:22Z</time></trkpt><trkpt lat="45.00182789640369" lon="8.007206547328567"><ele>193.0</ele><time>2026-04-11T07:26:23Z</time></trkpt><trkpt lat="45.00175924205081" lon="8.007261179162647"><ele>193.00000000000003</ele><time>2026-04-11T07:26:24Z</time></trkpt><trkpt lat="45.001692395853055" lon="8.007322777794284"><ele>193.0</ele><time>2026-04-11T07:26:25Z</time></trkpt><trkpt lat="45.001630450734176" lon="8.007379732867397"><ele>193.0</ele><time>2026-04-11T07:26:26Z</time></trkpt><trkpt lat="45.00156882596013" lon="8.007437938137976"><ele>193.0</ele><time>2026-04-11T07:26:27Z</time></trkpt><trkpt lat="45.00150785881905" lon="8.007497423555979"><ele>193.0</ele><time>2026-04-11T07:26:28Z</time></trkpt><trkpt lat="45.00144683866672" lon="8.007554059296188"><ele>193.00000000000003</ele><time>2026-04-11T07:26:29Z</time></trkpt><trkpt lat="45.00138669203988" lon="8.007610248277723"><ele>193.0</ele><time>2026-04-11T07:26:30Z</time></trkpt><trkpt lat="45.00132628335025" lon="8.00766879989293"><ele>193.85714285714286</ele><time>2026-04-11T07:26:31Z</time></trkpt><trkpt lat="45.00126522420309" lon="8.007725580742788"><ele>194.71428571428572</ele><time>2026-04-11T07:26:32Z</time></trkpt><trkpt lat="45.001207403450934" lon="8.00778439086737"><ele>195.57142857142856</ele><time>2026-04-11T07:26:33Z</time></trkpt><trkpt lat="45.001149727573335" lon="8.00784252790262"><ele>196.42857142857144</ele><time>2026-04-11T07:26:34Z</time></trkpt><trkpt lat="45.001091539072554" lon="8.007899631174077"><ele>197.28571428571428</ele><time>2026-04-11T07:26:35Z</time></trkpt><trkpt lat="45.00103170411925" lon="8.007951820437409"><ele>198.14285714285714</ele><time>2026-04-11T07:26:36Z</time></trkpt><trkpt lat="45.000972397989045" lon="8.008002364523813"><ele>199.0</ele><time>2026-04-11T07:26:37Z</time></trkpt><trkpt lat="45.000907742239974" lon="8.008055844831333"><ele>198.99999999999997</ele><time>2026-04-11T07:26:38Z</time></trkpt><trkpt lat="45.000848995497726" lon="8.008103778374274"><ele>199.0</ele><time>2026-04-11T07:26:39Z</time></trkpt><trkpt lat="45.00078202367384" lon="8.00814549516061"><ele>199.0</ele><time>2026-04-11T07:26:39.999Z</time></trkpt><trkpt lat="45.00071620427976" lon="8.008175934329214"><ele>199.0</ele><time>2026-04-11T07:26:40.999Z</time></trkpt><trkpt lat="45.00064958428285" lon="8.00820322578502"><ele>199.0</ele><time>2026-04-11T07:26:41.999Z</time></trkpt><trkpt lat="45.00057911398655" lon="8.00821109171417"><ele>198.99999999999997</ele><time>2026-04-11T07:26:42.999Z</time></trkpt><trkpt lat="45.0005147250624" lon="8.008208062695365"><ele>199.0</ele><time>2026-04-11T07:26:43.999Z</time></trkpt><trkpt lat="45.00040313718953" lon="8.008199915956308"><ele>198.49999999999997</ele><time>2026-04-11T07:26:45.999Z</time></trkpt><trkpt lat="45.000309970645475" lon="8.008175717322775"><ele>198.0</ele><time>2026-04-11T07:26:47.999Z</time></trkpt><trkpt lat="45.00023649422751" lon="8.008156835824932"><ele>197.5</ele><time>2026-04-11T07:26:49.999Z</time></trkpt><trkpt lat="45.00016805104731" lon="8.00818156623527"><ele>197.0</ele><time>2026-04-11T07:26:51.999Z</time></trkpt><trkpt lat="45.00011302101999" lon="8.008296859681325"><ele>196.49999999999997</ele><time>2026-04-11T07:26:53.999Z</time></trkpt><trkpt lat="45.00004545016139" lon="8.008411148667784"><ele>196.0</ele><time>2026-04-11T07:26:55.999Z</time></trkpt><trkpt lat="44.999953944750445" lon="8.008505164080477"><ele>195.99999999999997</ele><time>2026-04-11T07:26:57.999Z</time></trkpt><trkpt lat="44.99987244679356" lon="8.008635390716549"><ele>196.0</ele><time>2026-04-11T07:26:59.999Z</time></trkpt><trkpt lat="44.99983232868601" lon="8.008705214670387"><ele>196.0</ele><time>2026-04-11T07:27:00.999Z</time></trkpt><trkpt lat="44.999807357851054" lon="8.00878953630558"><ele>196.0</ele><time>2026-04-11T07:27:01.999Z</time></trkpt><trkpt lat="44.99976562243985" lon="8.008859714389683"><ele>195.99999999999997</ele><time>2026-04-11T07:27:02.999Z</time></trkpt><trkpt lat="44.999685983364074" lon="8.008998267134723"><ele>196.0</ele><time>2026-04-11T07:27:04.999Z</time></trkpt><trkpt lat="44.999647605833424" lon="8.009072375363218"><ele>196.4</ele><time>2026-04-11T07:27:05.999Z</time></trkpt><trkpt lat="44.9995710252881" lon="8.009211636749384"><ele>196.8</ele><time>2026-04-11T07:27:07.999Z</time></trkpt><trkpt lat="44.999500670860854" lon="8.00935477674415"><ele>197.20000000000002</ele><time>2026-04-11T07:27:09.999Z</time></trkpt><trkpt lat="44.999442072173146" lon="8.00950802726757"><ele>197.60000000000002</ele><time>2026-04-11T07:27:11.999Z</time></trkpt><trkpt lat="44.99940140568594" lon="8.009581012692212"><ele>198.0</ele><time>2026-04-11T07:27:12.999Z</time></trkpt><trkpt lat="44.9993447340596" lon="8.009734530889627"><ele>198.0</ele><time>2026-04-11T07:27:14.999Z</time></trkpt><trkpt lat="44.999288076292736" lon="8.009888012250672"><ele>198.0</ele><time>2026-04-11T07:27:16.999Z</time></trkpt><trkpt lat="44.99923365006426" lon="8.010039839224527"><ele>198.0</ele><time>2026-04-11T07:27:18.999Z</time></trkpt><trkpt lat="44.99918635915899" lon="8.010194541180741"><ele>198.0</ele><time>2026-04-11T07:27:20.999Z</time></trkpt><trkpt lat="44.99916568084753" lon="8.01036724105389"><ele>198.4</ele><time>2026-04-11T07:27:22.999Z</time></trkpt><trkpt lat="44.99913954150099" lon="8.01044843846179"><ele>198.8</ele><time>2026-04-11T07:27:23.999Z</time></trkpt><trkpt lat="44.999148814513376" lon="8.01061856578962"><ele>199.2</ele><time>2026-04-11T07:27:25.999Z</time></trkpt><trkpt lat="44.99916121008597" lon="8.01077583986606"><ele>199.6</ele><time>2026-04-11T07:27:27.999Z</time></trkpt><trkpt lat="44.99917882471728" lon="8.010937494004763"><ele>200.0</ele><time>2026-04-11T07:27:29.999Z</time></trkpt><trkpt lat="44.99918932736385" lon="8.01110322544834"><ele>200.0</ele><time>2026-04-11T07:27:31.999Z</time></trkpt><trkpt lat="44.99921438020678" lon="8.011256932110957"><ele>200.0</ele><time>2026-04-11T07:27:33.999Z</time></trkpt><trkpt lat="44.99923964008156" lon="8.011410583594847"><ele>200.0</ele><time>2026-04-11T07:27:35.999Z</time></trkpt><trkpt lat="44.999269954289225" lon="8.011561576744933"><ele>200.0</ele><time>2026-04-11T07:27:37.999Z</time></trkpt><trkpt lat="44.99926665003059" lon="8.011714088074791"><ele>200.0</ele><time>2026-04-11T07:27:39.999Z</time></trkpt><trkpt lat="44.99927337461729" lon="8.011863101316841"><ele>201.2</ele><time>2026-04-11T07:27:41.999Z</time></trkpt><trkpt lat="44.99927777248264" lon="8.012012648808165"><ele>202.4</ele><time>2026-04-11T07:27:43.999Z</time></trkpt><trkpt lat="44.99929561743328" lon="8.012159623200644"><ele>203.60000000000002</ele><time>2026-04-11T07:27:45.999Z</time></trkpt><trkpt lat="44.99928248261268" lon="8.012310802313724"><ele>204.8</ele><time>2026-04-11T07:27:47.999Z</time></trkpt><trkpt lat="44.99929743032276" lon="8.012415974070072"><ele>206.0</ele><time>2026-04-11T07:27:50Z</time></trkpt><trkpt lat="44.99930016540722" lon="8.012552323873"><ele>208.4</ele><time>2026-04-11T07:27:52Z</time></trkpt><trkpt lat="44.99929834418809" lon="8.012684665380718"><ele>210.8</ele><time>2026-04-11T07:27:54Z</time></trkpt><trkpt lat="44.99929631150908" lon="8.012826503715283"><ele>213.20000000000002</ele><time>2026-04-11T07:27:56Z</time></trkpt><trkpt lat="44.99929731981122" lon="8.012996860096228"><ele>215.60000000000002</ele><time>2026-04-11T07:27:58Z</time></trkpt><trkpt lat="44.99929210605226" lon="8.013131865478945"><ele>218.0</ele><time>2026-04-11T07:28:00Z</time></trkpt><trkpt lat="44.99929991559266" lon="8.013254031171346"><ele>218.50000000000003</ele><time>2026-04-11T07:28:02Z</time></trkpt><trkpt lat="44.999313766392206" lon="8.013408246137471"><ele>219.0</ele><time>2026-04-11T07:28:04Z</time></trkpt><trkpt lat="44.99930560702534" lon="8.013539205533558"><ele>219.5</ele><time>2026-04-11T07:28:06Z</time></trkpt><trkpt lat="44.99929173553734" lon="8.01365721329847"><ele>220.0</ele><time>2026-04-11T07:28:08Z</time></trkpt><trkpt lat="44.99924618684178" lon="8.013734838504616"><ele>220.50000000000003</ele><time>2026-04-11T07:28:10Z</time></trkpt><trkpt lat="44.99918126228742" lon="8.013806855743116"><ele>221.0</ele><time>2026-04-11T07:28:13Z</time></trkpt><trkpt lat="44.999140353084435" lon="8.01389432729722"><ele>218.33333333333334</ele><time>2026-04-11T07:28:16Z</time></trkpt><trkpt lat="44.99907265967494" lon="8.013966253292221"><ele>215.66666666666669</ele><time>2026-04-11T07:28:55.999Z</time></trkpt><trkpt lat="44.99905113729095" lon="8.014061895898513"><ele>213.0</ele><time>2026-04-11T07:28:57.999Z</time></trkpt><trkpt lat="44.99902305958723" lon="8.014188405375311"><ele>210.33333333333331</ele><time>2026-04-11T07:28:59.999Z</time></trkpt><trkpt lat="44.998983595408035" lon="8.014339936231256"><ele>207.66666666666666</ele><time>2026-04-11T07:29:01.999Z</time></trkpt><trkpt lat="44.99892958229447" lon="8.014406813869302"><ele>205.0</ele><time>2026-04-11T07:29:02.999Z</time></trkpt><trkpt lat="44.998905717992606" lon="8.014495092533306"><ele>205.0</ele><time>2026-04-11T07:29:03.999Z</time></trkpt><trkpt lat="44.99888279039456" lon="8.014586295377283"><ele>205.0</ele><time>2026-04-11T07:29:04.999Z</time></trkpt><trkpt lat="44.99886162658264" lon="8.014678337459948"><ele>205.0</ele><time>2026-04-11T07:29:05.999Z</time></trkpt><trkpt lat="44.998839556916806" lon="8.014773728766349"><ele>205.0</ele><time>2026-04-11T07:29:06.999Z</time></trkpt><trkpt lat="44.99881698921861" lon="8.014875308060901"><ele>205.0</ele><time>2026-04-11T07:29:07.999Z</time></trkpt><trkpt lat="44.998796323479645" lon="8.014972336641355"><ele>205.0</ele><time>2026-04-11T07:29:08.999Z</time></trkpt><trkpt lat="44.99877643736244" lon="8.015065704901573"><ele>205.0</ele><time>2026-04-11T07:29:09.999Z</time></trkpt><trkpt lat="44.99875573226127" lon="8.015166534138409"><ele>204.16666666666666</ele><time>2026-04-11T07:29:10.999Z</time></trkpt><trkpt lat="44.9987414000279" lon="8.015280248121437"><ele>203.33333333333331</ele><time>2026-04-11T07:29:11.999Z</time></trkpt><trkpt lat="44.99871803460689" lon="8.015372195389089"><ele>202.5</ele><time>2026-04-11T07:29:12.999Z</time></trkpt><trkpt lat="44.99870788674254" lon="8.015489980597522"><ele>201.66666666666669</ele><time>2026-04-11T07:29:13.999Z</time></trkpt><trkpt lat="44.99869826495333" lon="8.015598287430649"><ele>200.83333333333334</ele><time>2026-04-11T07:29:14.999Z</time></trkpt><trkpt lat="44.998685010729176" lon="8.015702160147221"><ele>200.0</ele><time>2026-04-11T07:29:15.999Z</time></trkpt><trkpt lat="44.99867566673518" lon="8.015806337375347"><ele>198.85714285714286</ele><time>2026-04-11T07:29:16.999Z</time></trkpt><trkpt lat="44.99866670663241" lon="8.015907116686382"><ele>197.71428571428572</ele><time>2026-04-11T07:29:17.999Z</time></trkpt><trkpt lat="44.99865983899913" lon="8.016006960629944"><ele>196.57142857142856</ele><time>2026-04-11T07:29:18.999Z</time></trkpt><trkpt lat="44.99865669098263" lon="8.016107415786372"><ele>195.42857142857144</ele><time>2026-04-11T07:29:19.999Z</time></trkpt><trkpt lat="44.99865610902531" lon="8.016204455864376"><ele>194.28571428571428</ele><time>2026-04-11T07:29:20.999Z</time></trkpt><trkpt lat="44.998655726690274" lon="8.016302694088544"><ele>193.14285714285714</ele><time>2026-04-11T07:29:21.999Z</time></trkpt><trkpt lat="44.99865681822285" lon="8.016395204531463"><ele>192.0</ele><time>2026-04-11T07:29:22.999Z</time></trkpt><trkpt lat="44.99863771733874" lon="8.01648594942995"><ele>191.99999999999997</ele><time>2026-04-11T07:29:23.999Z</time></trkpt><trkpt lat="44.99863504142081" lon="8.016579137148481"><ele>192.0</ele><time>2026-04-11T07:29:24.999Z</time></trkpt><trkpt lat="44.99863233898348" lon="8.016673248466176"><ele>192.0</ele><time>2026-04-11T07:29:25.999Z</time></trkpt><trkpt lat="44.99862966138032" lon="8.016766494519617"><ele>192.0</ele><time>2026-04-11T07:29:26.999Z</time></trkpt><trkpt lat="44.9986269623898" lon="8.016860485730774"><ele>192.0</ele><time>2026-04-11T07:29:27.999Z</time></trkpt><trkpt lat="44.99863910165508" lon="8.016956336016682"><ele>191.99999999999997</ele><time>2026-04-11T07:29:28.999Z</time></trkpt><trkpt lat="44.99863536263336" lon="8.01705467147227"><ele>192.0</ele><time>2026-04-11T07:29:29.999Z</time></trkpt><trkpt lat="44.99861454896025" lon="8.01723112494222"><ele>191.25</ele><time>2026-04-11T07:29:31.999Z</time></trkpt><trkpt lat="44.99861785166049" lon="8.017384690053264"><ele>190.5</ele><time>2026-04-11T07:29:33.999Z</time></trkpt><trkpt lat="44.99861804292852" lon="8.017535838819516"><ele>189.75</ele><time>2026-04-11T07:29:35.999Z</time></trkpt><trkpt lat="44.99861059068709" lon="8.017701398503824"><ele>189.0</ele><time>2026-04-11T07:29:37.999Z</time></trkpt><trkpt lat="44.99860107814272" lon="8.017873488405016"><ele>188.5</ele><time>2026-04-11T07:29:39.999Z</time></trkpt><trkpt lat="44.998591178355625" lon="8.018034948142475"><ele>188.0</ele><time>2026-04-11T07:29:41.999Z</time></trkpt><trkpt lat="44.998578962776214" lon="8.018195267953438"><ele>187.5</ele><time>2026-04-11T07:29:43.999Z</time></trkpt><trkpt lat="44.99856435179737" lon="8.018362318015384"><ele>187.0</ele><time>2026-04-11T07:29:45.999Z</time></trkpt><trkpt lat="44.998543230719676" lon="8.01852346134997"><ele>187.0</ele><time>2026-04-11T07:29:47.999Z</time></trkpt><trkpt lat="44.998518769249785" lon="8.018684733478276"><ele>187.0</ele><time>2026-04-11T07:29:49.999Z</time></trkpt><trkpt lat="44.99849292398289" lon="8.01884981924581"><ele>187.0</ele><time>2026-04-11T07:29:51.999Z</time></trkpt><trkpt lat="44.99847936388591" lon="8.019007243581845"><ele>187.0</ele><time>2026-04-11T07:29:53.999Z</time></trkpt><trkpt lat="44.998474471130876" lon="8.019169415739603"><ele>187.0</ele><time>2026-04-11T07:29:56Z</time></trkpt><trkpt lat="44.9984842164896" lon="8.019330268929885"><ele>187.0</ele><time>2026-04-11T07:29:58Z</time></trkpt><trkpt lat="44.99850196977848" lon="8.019476997227391"><ele>187.0</ele><time>2026-04-11T07:30:00Z</time></trkpt><trkpt lat="44.99852255825443" lon="8.019602359257709"><ele>187.0</ele><time>2026-04-11T07:30:02Z</time></trkpt><trkpt lat="44.9985436257588" lon="8.019740957593363"><ele>187.0</ele><time>2026-04-11T07:30:04Z</time></trkpt><trkpt lat="44.9985473601149" lon="8.019887646781088"><ele>187.0</ele><time>2026-04-11T07:30:06Z</time></trkpt><trkpt lat="44.998549453711874" lon="8.02003482210083"><ele>187.0</ele><time>2026-04-11T07:30:08Z</time></trkpt><trkpt lat="44.998544109167334" lon="8.020179967544925"><ele>187.0</ele><time>2026-04-11T07:30:10Z</time></trkpt><trkpt lat="44.998526496642704" lon="8.020314360283395"><ele>187.0</ele><time>2026-04-11T07:30:12Z</time></trkpt><trkpt lat="44.998507981405744" lon="8.02044659579212"><ele>187.0</ele><time>2026-04-11T07:30:14Z</time></trkpt><trkpt lat="44.99848800853467" lon="8.020568076179252"><ele>187.0</ele><time>2026-04-11T07:30:16Z</time></trkpt><trkpt lat="44.99846101714314" lon="8.020690742415136"><ele>187.0</ele><time>2026-04-11T07:30:18Z</time></trkpt><trkpt lat="44.99844106015669" lon="8.020809810891885"><ele>187.0</ele><time>2026-04-11T07:30:20Z</time></trkpt><trkpt lat="44.99841940749766" lon="8.020918914393407"><ele>187.0</ele><time>2026-04-11T07:30:22Z</time></trkpt><trkpt lat="44.99839821354925" lon="8.021032517284628"><ele>187.0</ele><time>2026-04-11T07:30:24Z</time></trkpt><trkpt lat="44.99833412977138" lon="8.021109588189471"><ele>187.0</ele><time>2026-04-11T07:30:27Z</time></trkpt><trkpt lat="44.998263064861945" lon="8.021056328138796"><ele>187.0</ele><time>2026-04-11T07:30:29Z</time></trkpt><trkpt lat="44.99817169214223" lon="8.021033906349345"><ele>187.0</ele><time>2026-04-11T07:30:31Z</time></trkpt><trkpt lat="44.9980886987067" lon="8.021018456228076"><ele>187.0</ele><time>2026-04-11T07:30:33Z</time></trkpt><trkpt lat="44.99797169545805" lon="8.021005396168722"><ele>187.0</ele><time>2026-04-11T07:30:35Z</time></trkpt><trkpt lat="44.997852257138945" lon="8.020992968439955"><ele>187.0</ele><time>2026-04-11T07:30:37Z</time></trkpt><trkpt lat="44.99774921188705" lon="8.020979533110008"><ele>187.0</ele><time>2026-04-11T07:30:39Z</time></trkpt><trkpt lat="44.99763939876847" lon="8.020976077484725"><ele>187.0</ele><time>2026-04-11T07:30:41Z</time></trkpt><trkpt lat="44.99752742353762" lon="8.020977554971708"><ele>187.0</ele><time>2026-04-11T07:30:43Z</time></trkpt><trkpt lat="44.99741489038646" lon="8.020985157175577"><ele>187.0</ele><time>2026-04-11T07:30:45Z</time></trkpt><trkpt lat="44.99730229875854" lon="8.020986793488957"><ele>187.0</ele><time>2026-04-11T07:30:47Z</time></trkpt><trkpt lat="44.99718713485943" lon="8.020994743460523"><ele>188.75</ele><time>2026-04-11T07:30:49Z</time></trkpt><trkpt lat="44.99707191009889" lon="8.021005221105677"><ele>190.5</ele><time>2026-04-11T07:30:51Z</time></trkpt><trkpt lat="44.9969510279333" lon="8.02100813639145"><ele>192.25</ele><time>2026-04-11T07:30:52.999Z</time></trkpt><trkpt lat="44.99683763558183" lon="8.021018619310402"><ele>194.0</ele><time>2026-04-11T07:30:54.999Z</time></trkpt><trkpt lat="44.996716590495446" lon="8.021027620783261"><ele>193.2</ele><time>2026-04-11T07:30:56.999Z</time></trkpt><trkpt lat="44.996592736953694" lon="8.021029165512399"><ele>192.39999999999998</ele><time>2026-04-11T07:30:58.999Z</time></trkpt><trkpt lat="44.996477148156366" lon="8.021037809107122"><ele>191.6</ele><time>2026-04-11T07:31:00.999Z</time></trkpt><trkpt lat="44.99641227791782" lon="8.021043710150702"><ele>190.8</ele><time>2026-04-11T07:31:01.999Z</time></trkpt><trkpt lat="44.99634843003682" lon="8.02104837296855"><ele>190.0</ele><time>2026-04-11T07:31:02.999Z</time></trkpt><trkpt lat="44.99622915859335" lon="8.021054359673668"><ele>190.0</ele><time>2026-04-11T07:31:04.999Z</time></trkpt><trkpt lat="44.99610104523663" lon="8.021056945050224"><ele>190.0</ele><time>2026-04-11T07:31:06.999Z</time></trkpt><trkpt lat="44.99597634026251" lon="8.021065257915033"><ele>190.0</ele><time>2026-04-11T07:31:08.999Z</time></trkpt><trkpt lat="44.9959134151072" lon="8.02106989528896"><ele>190.0</ele><time>2026-04-11T07:31:09.999Z</time></trkpt><trkpt lat="44.99579016581458" lon="8.021080277243499"><ele>190.0</ele><time>2026-04-11T07:31:11.999Z</time></trkpt><trkpt lat="44.995726059672926" lon="8.021081434908327"><ele>190.0</ele><time>2026-04-11T07:31:12.999Z</time></trkpt><trkpt lat="44.99565803287094" lon="8.021086483889661"><ele>190.0</ele><time>2026-04-11T07:31:13.999Z</time></trkpt><trkpt lat="44.99559495072248" lon="8.021087772488006"><ele>190.0</ele><time>2026-04-11T07:31:14.999Z</time></trkpt><trkpt lat="44.99547765838306" lon="8.021093779312709"><ele>190.0</ele><time>2026-04-11T07:31:16.999Z</time></trkpt><trkpt lat="44.995359143995216" lon="8.021099404959255"><ele>190.0</ele><time>2026-04-11T07:31:18.999Z</time></trkpt><trkpt lat="44.995239381876715" lon="8.021104550928873"><ele>190.0</ele><time>2026-04-11T07:31:20.999Z</time></trkpt><trkpt lat="44.99512948422831" lon="8.021093705596975"><ele>190.0</ele><time>2026-04-11T07:31:22.999Z</time></trkpt><trkpt lat="44.995032567573595" lon="8.021096516049052"><ele>190.0</ele><time>2026-04-11T07:31:24.999Z</time></trkpt><trkpt lat="44.99496543021859" lon="8.021244234330544"><ele>190.0</ele><time>2026-04-11T07:31:27.999Z</time></trkpt><trkpt lat="44.99492587545129" lon="8.021364076767338"><ele>190.0</ele><time>2026-04-11T07:31:29.999Z</time></trkpt><trkpt lat="44.994877646889734" lon="8.02147792429146"><ele>189.83333333333334</ele><time>2026-04-11T07:31:31.999Z</time></trkpt><trkpt lat="44.99483010845758" lon="8.021581998143851"><ele>189.66666666666669</ele><time>2026-04-11T07:31:33.999Z</time></trkpt><trkpt lat="44.99480672726454" lon="8.021702254442241"><ele>189.5</ele><time>2026-04-11T07:31:35.999Z</time></trkpt><trkpt lat="44.99475606764491" lon="8.021813271809386"><ele>189.33333333333334</ele><time>2026-04-11T07:31:37.999Z</time></trkpt><trkpt lat="44.994715816894235" lon="8.021927713585407"><ele>189.16666666666666</ele><time>2026-04-11T07:31:39.999Z</time></trkpt><trkpt lat="44.99467719011975" lon="8.022041290845612"><ele>189.0</ele><time>2026-04-11T07:31:41.999Z</time></trkpt><trkpt lat="44.99463646011041" lon="8.022159778974906"><ele>189.0</ele><time>2026-04-11T07:31:43.999Z</time></trkpt><trkpt lat="44.99459261489996" lon="8.02227548547028"><ele>189.0</ele><time>2026-04-11T07:31:45.999Z</time></trkpt><trkpt lat="44.99454829429127" lon="8.022383889847799"><ele>189.0</ele><time>2026-04-11T07:31:47.999Z</time></trkpt><trkpt lat="44.994507959225096" lon="8.022491002551234"><ele>189.0</ele><time>2026-04-11T07:31:49.999Z</time></trkpt><trkpt lat="44.994474215648694" lon="8.022606616160552"><ele>189.0</ele><time>2026-04-11T07:31:51.999Z</time></trkpt><trkpt lat="44.99443733292805" lon="8.022714882893025"><ele>189.0</ele><time>2026-04-11T07:31:53.999Z</time></trkpt><trkpt lat="44.994403470304896" lon="8.022824266485076"><ele>190.33333333333334</ele><time>2026-04-11T07:31:55.999Z</time></trkpt><trkpt lat="44.99435978032721" lon="8.022922125025602"><ele>191.66666666666669</ele><time>2026-04-11T07:31:57.999Z</time></trkpt><trkpt lat="44.99433356748832" lon="8.02303268102258"><ele>193.0</ele><time>2026-04-11T07:31:59.999Z</time></trkpt><trkpt lat="44.99430433681709" lon="8.023146626506836"><ele>194.33333333333334</ele><time>2026-04-11T07:32:02Z</time></trkpt><trkpt lat="44.99427617611486" lon="8.023258985738556"><ele>195.66666666666669</ele><time>2026-04-11T07:32:04Z</time></trkpt><trkpt lat="44.99423826032414" lon="8.023361543844343"><ele>197.0</ele><time>2026-04-11T07:32:06Z</time></trkpt><trkpt lat="44.994208739737715" lon="8.02347006990251"><ele>196.50000000000003</ele><time>2026-04-11T07:32:08Z</time></trkpt><trkpt lat="44.99416993767633" lon="8.023585316661588"><ele>196.0</ele><time>2026-04-11T07:32:10Z</time></trkpt><trkpt lat="44.99413789598766" lon="8.023696206028541"><ele>195.5</ele><time>2026-04-11T07:32:12Z</time></trkpt><trkpt lat="44.99411247438282" lon="8.023806176353629"><ele>195.0</ele><time>2026-04-11T07:32:14Z</time></trkpt><trkpt lat="44.99407585593887" lon="8.023921851581653"><ele>194.50000000000003</ele><time>2026-04-11T07:32:16Z</time></trkpt><trkpt lat="44.99405019750315" lon="8.024035968186434"><ele>194.0</ele><time>2026-04-11T07:32:18Z</time></trkpt><trkpt lat="44.994035765599236" lon="8.024168931641876"><ele>194.00000000000003</ele><time>2026-04-11T07:32:20Z</time></trkpt><trkpt lat="44.994014292115196" lon="8.024289785692043"><ele>194.0</ele><time>2026-04-11T07:32:22Z</time></trkpt><trkpt lat="44.99399258132338" lon="8.024400506684175"><ele>194.0</ele><time>2026-04-11T07:32:24Z</time></trkpt><trkpt lat="44.99398270375464" lon="8.024524655168191"><ele>194.0</ele><time>2026-04-11T07:32:26Z</time></trkpt><trkpt lat="44.99396800589787" lon="8.024647870088016"><ele>194.00000000000003</ele><time>2026-04-11T07:32:28Z</time></trkpt><trkpt lat="44.993956825491146" lon="8.024773393199464"><ele>194.0</ele><time>2026-04-11T07:32:30Z</time></trkpt><trkpt lat="44.99394827546516" lon="8.024905623332057"><ele>193.66666666666669</ele><time>2026-04-11T07:32:32Z</time></trkpt><trkpt lat="44.99395729410215" lon="8.025027712462405"><ele>193.33333333333334</ele><time>2026-04-11T07:32:34Z</time></trkpt><trkpt lat="44.993969782964975" lon="8.025148093157958"><ele>193.0</ele><time>2026-04-11T07:32:36Z</time></trkpt><trkpt lat="44.99397849126222" lon="8.025263600090241"><ele>192.66666666666669</ele><time>2026-04-11T07:32:38Z</time></trkpt><trkpt lat="44.99401506782864" lon="8.02537559285036"><ele>192.33333333333334</ele><time>2026-04-11T07:32:40Z</time></trkpt><trkpt lat="44.9940430059964" lon="8.025491207092973"><ele>192.0</ele><time>2026-04-11T07:32:42Z</time></trkpt><trkpt lat="44.994066628155245" lon="8.025598371839463"><ele>192.0</ele><time>2026-04-11T07:32:44Z</time></trkpt><trkpt lat="44.994101438995344" lon="8.025707126037535"><ele>192.0</ele><time>2026-04-11T07:32:46Z</time></trkpt><trkpt lat="44.994142068909056" lon="8.025815264664542"><ele>192.0</ele><time>2026-04-11T07:32:48Z</time></trkpt><trkpt lat="44.99418258470235" lon="8.025918623185012"><ele>192.0</ele><time>2026-04-11T07:32:50Z</time></trkpt><trkpt lat="44.99422522065969" lon="8.026017928508393"><ele>192.0</ele><time>2026-04-11T07:32:52Z</time></trkpt><trkpt lat="44.99427379080899" lon="8.026166218173643"><ele>194.8</ele><time>2026-04-11T07:32:56Z</time></trkpt><trkpt lat="44.99429549753854" lon="8.02626410991107"><ele>197.6</ele><time>2026-04-11T07:32:58.999Z</time></trkpt><trkpt lat="44.99430758323218" lon="8.02641446740864"><ele>200.4</ele><time>2026-04-11T07:33:01.999Z</time></trkpt><trkpt lat="44.99432006267497" lon="8.026543984762503"><ele>203.20000000000002</ele><time>2026-04-11T07:33:03.999Z</time></trkpt><trkpt lat="44.99431495924458" lon="8.026678568580987"><ele>206.0</ele><time>2026-04-11T07:33:06.999Z</time></trkpt><trkpt lat="44.99429864095694" lon="8.026800218720638"><ele>206.0</ele><time>2026-04-11T07:33:09.999Z</time></trkpt><trkpt lat="44.994321747974475" lon="8.0269152214072"><ele>206.0</ele><time>2026-04-11T07:33:11.999Z</time></trkpt><trkpt lat="44.99433828349384" lon="8.027017515430995"><ele>206.0</ele><time>2026-04-11T07:33:13.999Z</time></trkpt><trkpt lat="44.994361982375445" lon="8.027129584577477"><ele>206.0</ele><time>2026-04-11T07:33:15.999Z</time></trkpt><trkpt lat="44.994404185200274" lon="8.027261656541125"><ele>206.0</ele><time>2026-04-11T07:33:17.999Z</time></trkpt><trkpt lat="44.994510813337314" lon="8.027510251285566"><ele>205.66666666666669</ele><time>2026-04-11T07:33:19.999Z</time></trkpt><trkpt lat="44.99454654389609" lon="8.027616909189085"><ele>205.33333333333334</ele><time>2026-04-11T07:33:21.999Z</time></trkpt><trkpt lat="44.994579018221124" lon="8.027723875714576"><ele>205.0</ele><time>2026-04-11T07:33:23.999Z</time></trkpt><trkpt lat="44.99460783811345" lon="8.027835009057616"><ele>204.66666666666669</ele><time>2026-04-11T07:33:25.999Z</time></trkpt><trkpt lat="44.994640047536606" lon="8.027943228291242"><ele>204.33333333333334</ele><time>2026-04-11T07:33:27.999Z</time></trkpt><trkpt lat="44.99467363517851" lon="8.028053195120453"><ele>204.0</ele><time>2026-04-11T07:33:29.999Z</time></trkpt><trkpt lat="44.99470207506516" lon="8.028164605139533"><ele>204.0</ele><time>2026-04-11T07:33:31.999Z</time></trkpt><trkpt lat="44.994732058216016" lon="8.028273510063244"><ele>204.0</ele><time>2026-04-11T07:33:33.999Z</time></trkpt><trkpt lat="44.99476037066798" lon="8.028375157006687"><ele>204.0</ele><time>2026-04-11T07:33:35.999Z</time></trkpt><trkpt lat="44.99478983787696" lon="8.02847942264476"><ele>204.0</ele><time>2026-04-11T07:33:37.999Z</time></trkpt><trkpt lat="44.99479450525588" lon="8.028584828315743"><ele>204.0</ele><time>2026-04-11T07:33:39.999Z</time></trkpt><trkpt lat="44.99481882499382" lon="8.02868904249755"><ele>204.0</ele><time>2026-04-11T07:33:41.999Z</time></trkpt><trkpt lat="44.994835860640045" lon="8.028786571874221"><ele>203.57142857142858</ele><time>2026-04-11T07:33:43.999Z</time></trkpt><trkpt lat="44.9948570915253" lon="8.028890905363008"><ele>203.14285714285717</ele><time>2026-04-11T07:33:45.999Z</time></trkpt><trkpt lat="44.99487718687807" lon="8.02899659942988"><ele>202.71428571428572</ele><time>2026-04-11T07:33:47.999Z</time></trkpt><trkpt lat="44.99489599704946" lon="8.029099111982559"><ele>202.28571428571428</ele><time>2026-04-11T07:33:49.999Z</time></trkpt><trkpt lat="44.99490825148714" lon="8.02920096114954"><ele>201.85714285714286</ele><time>2026-04-11T07:33:51.999Z</time></trkpt><trkpt lat="44.99492464548612" lon="8.029302086875024"><ele>201.42857142857142</ele><time>2026-04-11T07:33:53.999Z</time></trkpt><trkpt lat="44.9949414609786" lon="8.029402474723064"><ele>201.0</ele><time>2026-04-11T07:33:55.999Z</time></trkpt><trkpt lat="44.99495849205534" lon="8.029507034858902"><ele>201.0</ele><time>2026-04-11T07:33:57.999Z</time></trkpt><trkpt lat="44.99497884047049" lon="8.029608862024483"><ele>201.0</ele><time>2026-04-11T07:33:59.999Z</time></trkpt><trkpt lat="44.99499740861873" lon="8.029712910465125"><ele>201.0</ele><time>2026-04-11T07:34:01.999Z</time></trkpt><trkpt lat="44.995016066532074" lon="8.029818654832676"><ele>201.0</ele><time>2026-04-11T07:34:03.999Z</time></trkpt><trkpt lat="44.99504242621195" lon="8.029923405136769"><ele>201.0</ele><time>2026-04-11T07:34:05.999Z</time></trkpt><trkpt lat="44.99508296877831" lon="8.030002502833744"><ele>201.0</ele><time>2026-04-11T07:34:08Z</time></trkpt><trkpt lat="44.99516765592027" lon="8.030073043180225"><ele>201.0</ele><time>2026-04-11T07:34:11Z</time></trkpt><trkpt lat="44.99524235461955" lon="8.030114785948717"><ele>201.0</ele><time>2026-04-11T07:34:13Z</time></trkpt><trkpt lat="44.9953114425269" lon="8.030141290740227"><ele>201.0</ele><time>2026-04-11T07:34:15Z</time></trkpt><trkpt lat="44.99537998932649" lon="8.030174613585602"><ele>201.0</ele><time>2026-04-11T07:34:17Z</time></trkpt><trkpt lat="44.995456385799194" lon="8.030211809299052"><ele>201.0</ele><time>2026-04-11T07:34:19Z</time></trkpt><trkpt lat="44.995525902638704" lon="8.030242599189167"><ele>201.0</ele><time>2026-04-11T07:34:21Z</time></trkpt><trkpt lat="44.995592044932074" lon="8.030272724926386"><ele>201.0</ele><time>2026-04-11T07:34:24Z</time></trkpt><trkpt lat="44.99569903387094" lon="8.030320384275209"><ele>201.0</ele><time>2026-04-11T07:34:27Z</time></trkpt><trkpt lat="44.99577728368824" lon="8.0303355132743"><ele>201.0</ele><time>2026-04-11T07:34:30Z</time></trkpt><trkpt lat="44.99588104253748" lon="8.030347945918392"><ele>201.0</ele><time>2026-04-11T07:34:33Z</time></trkpt><trkpt lat="44.995985961653055" lon="8.030376599420347"><ele>201.0</ele><time>2026-04-11T07:34:35Z</time></trkpt><trkpt lat="44.99607661724174" lon="8.030390458126348"><ele>201.0</ele><time>2026-04-11T07:34:37Z</time></trkpt><trkpt lat="44.99618675936866" lon="8.030430476565595"><ele>201.83333333333334</ele><time>2026-04-11T07:34:41Z</time></trkpt><trkpt lat="44.996287790933806" lon="8.030421232936739"><ele>202.66666666666669</ele><time>2026-04-11T07:34:43Z</time></trkpt><trkpt lat="44.99636577095491" lon="8.030416116993575"><ele>203.5</ele><time>2026-04-11T07:34:45Z</time></trkpt><trkpt lat="44.99643941571931" lon="8.030419446023405"><ele>204.33333333333334</ele><time>2026-04-11T07:34:47Z</time></trkpt><trkpt lat="44.9965054269231" lon="8.030424645689287"><ele>205.16666666666669</ele><time>2026-04-11T07:34:49Z</time></trkpt><trkpt lat="44.99657265213955" lon="8.030462818790175"><ele>206.0</ele><time>2026-04-11T07:34:52Z</time></trkpt><trkpt lat="44.99659693111677" lon="8.030563446133494"><ele>205.99999999999997</ele><time>2026-04-11T07:34:56Z</time></trkpt><trkpt lat="44.99659474088159" lon="8.030686863132386"><ele>206.0</ele><time>2026-04-11T07:34:58.999Z</time></trkpt><trkpt lat="44.99659557501289" lon="8.030811022748807"><ele>206.0</ele><time>2026-04-11T07:35:01.999Z</time></trkpt><trkpt lat="44.99660239351491" lon="8.03090686216514"><ele>206.0</ele><time>2026-04-11T07:35:03.999Z</time></trkpt><trkpt lat="44.99660813504615" lon="8.031002114055898"><ele>206.0</ele><time>2026-04-11T07:35:05.999Z</time></trkpt><trkpt lat="44.996611018887165" lon="8.031096820922306"><ele>205.99999999999997</ele><time>2026-04-11T07:35:07.999Z</time></trkpt><trkpt lat="44.99661531684505" lon="8.031190328125728"><ele>206.0</ele><time>2026-04-11T07:35:09.999Z</time></trkpt><trkpt lat="44.99662293427169" lon="8.031324034298596"><ele>206.42857142857142</ele><time>2026-04-11T07:35:12.999Z</time></trkpt><trkpt lat="44.99661879786344" lon="8.031413622228037"><ele>206.85714285714286</ele><time>2026-04-11T07:35:15.999Z</time></trkpt><trkpt lat="44.9966250493892" lon="8.031525411414584"><ele>207.28571428571428</ele><time>2026-04-11T07:35:17.999Z</time></trkpt><trkpt lat="44.99663452339343" lon="8.031629004702593"><ele>207.71428571428572</ele><time>2026-04-11T07:35:20.999Z</time></trkpt><trkpt lat="44.996637457788495" lon="8.031739227651824"><ele>208.14285714285714</ele><time>2026-04-11T07:35:24.999Z</time></trkpt><trkpt lat="44.99663987693046" lon="8.031839770555285"><ele>208.57142857142856</ele><time>2026-04-11T07:35:27.999Z</time></trkpt><trkpt lat="44.996652814836494" lon="8.031938303083091"><ele>209.0</ele><time>2026-04-11T07:35:30.999Z</time></trkpt><trkpt lat="44.99665674936555" lon="8.03202729492022"><ele>210.28571428571428</ele><time>2026-04-11T07:35:32.999Z</time></trkpt><trkpt lat="44.99666756694868" lon="8.032137147525177"><ele>211.57142857142856</ele><time>2026-04-11T07:35:35.999Z</time></trkpt><trkpt lat="44.99667968390304" lon="8.032239526235896"><ele>212.85714285714286</ele><time>2026-04-11T07:35:38.999Z</time></trkpt><trkpt lat="44.99669594726153" lon="8.032331003088824"><ele>214.14285714285714</ele><time>2026-04-11T07:35:41.999Z</time></trkpt><trkpt lat="44.99671562710303" lon="8.032426209813954"><ele>215.42857142857144</ele><time>2026-04-11T07:35:44.999Z</time></trkpt><trkpt lat="44.996744862626215" lon="8.03251406893282"><ele>216.71428571428572</ele><time>2026-04-11T07:35:47.999Z</time></trkpt><trkpt lat="44.99678761845339" lon="8.032620174657445"><ele>218.0</ele><time>2026-04-11T07:35:51.999Z</time></trkpt><trkpt lat="44.99683065711454" lon="8.032700089131541"><ele>221.57142857142858</ele><time>2026-04-11T07:35:54.999Z</time></trkpt><trkpt lat="44.996874586952316" lon="8.032767807617715"><ele>225.14285714285717</ele><time>2026-04-11T07:35:57.999Z</time></trkpt><trkpt lat="44.99691742895381" lon="8.032838546435217"><ele>228.71428571428572</ele><time>2026-04-11T07:36:00.999Z</time></trkpt><trkpt lat="44.99696327810576" lon="8.032907597530205"><ele>232.28571428571428</ele><time>2026-04-11T07:36:03.999Z</time></trkpt><trkpt lat="44.99701187245781" lon="8.032964304298243"><ele>235.85714285714286</ele><time>2026-04-11T07:36:06.999Z</time></trkpt><trkpt lat="44.997057454862215" lon="8.033028725135484"><ele>239.42857142857142</ele><time>2026-04-11T07:36:09.999Z</time></trkpt><trkpt lat="44.997105761375266" lon="8.033092584484162"><ele>243.0</ele><time>2026-04-11T07:36:13Z</time></trkpt><trkpt lat="44.99715378431062" lon="8.033150978160304"><ele>243.0</ele><time>2026-04-11T07:36:16Z</time></trkpt><trkpt lat="44.997200021603994" lon="8.033211839548814"><ele>243.0</ele><time>2026-04-11T07:36:19Z</time></trkpt><trkpt lat="44.99724714772907" lon="8.033274261746556"><ele>243.0</ele><time>2026-04-11T07:36:22Z</time></trkpt><trkpt lat="44.99729760141075" lon="8.033328378770184"><ele>243.0</ele><time>2026-04-11T07:36:25Z</time></trkpt><trkpt lat="44.99734834753128" lon="8.033384364750336"><ele>243.0</ele><time>2026-04-11T07:36:28Z</time></trkpt><trkpt lat="44.99741017600599" lon="8.033456185127102"><ele>243.0</ele><time>2026-04-11T07:36:32Z</time></trkpt><trkpt lat="44.9974543631485" lon="8.033520152556388"><ele>243.0</ele><time>2026-04-11T07:36:35Z</time></trkpt><trkpt lat="44.99752074799152" lon="8.033592082190488"><ele>245.66666666666666</ele><time>2026-04-11T07:36:39Z</time></trkpt><trkpt lat="44.99758338627221" lon="8.033663906336093"><ele>248.33333333333331</ele><time>2026-04-11T07:36:43Z</time></trkpt><trkpt lat="44.99764967752525" lon="8.033731852135414"><ele>251.0</ele><time>2026-04-11T07:36:47Z</time></trkpt><trkpt lat="44.99771440353188" lon="8.033804390521249"><ele>253.66666666666666</ele><time>2026-04-11T07:36:51Z</time></trkpt><trkpt lat="44.99777033008788" lon="8.033879978448546"><ele>256.3333333333333</ele><time>2026-04-11T07:36:55Z</time></trkpt><trkpt lat="44.997784900146605" lon="8.033975460642647"><ele>259.0</ele><time>2026-04-11T07:36:59Z</time></trkpt><trkpt lat="44.9977259609155" lon="8.034058009842667"><ele>259.0</ele><time>2026-04-11T07:37:03Z</time></trkpt><trkpt lat="44.99764689460918" lon="8.034066544249097"><ele>259.0</ele><time>2026-04-11T07:37:07Z</time></trkpt><trkpt lat="44.997576564840344" lon="8.03407997116775"><ele>259.0</ele><time>2026-04-11T07:37:10.999Z</time></trkpt><trkpt lat="44.99750090689339" lon="8.034114790100153"><ele>259.0</ele><time>2026-04-11T07:37:14.999Z</time></trkpt><trkpt lat="44.99747126353435" lon="8.03420600287463"><ele>259.0</ele><time>2026-04-11T07:37:18.999Z</time></trkpt><trkpt lat="44.9974579860047" lon="8.034295853543902"><ele>259.0</ele><time>2026-04-11T07:37:22.999Z</time></trkpt><trkpt lat="44.997494526434366" lon="8.034371682704851"><ele>259.0</ele><time>2026-04-11T07:37:26.999Z</time></trkpt><trkpt lat="44.99754613163376" lon="8.034443593891066"><ele>258.5</ele><time>2026-04-11T07:37:30.999Z</time></trkpt><trkpt lat="44.99760319674702" lon="8.034515815689177"><ele>258.0</ele><time>2026-04-11T07:37:34.999Z</time></trkpt><trkpt lat="44.997677934851865" lon="8.03456742020752"><ele>257.5</ele><time>2026-04-11T07:37:38.999Z</time></trkpt><trkpt lat="44.997745591967444" lon="8.034629286625455"><ele>257.0</ele><time>2026-04-11T07:37:42.999Z</time></trkpt><trkpt lat="44.997801749848996" lon="8.034693976893895"><ele>256.5</ele><time>2026-04-11T07:37:46.999Z</time></trkpt><trkpt lat="44.997857665581705" lon="8.034760602349706"><ele>256.0</ele><time>2026-04-11T07:37:50.999Z</time></trkpt><trkpt lat="44.99788359537625" lon="8.034843878178702"><ele>256.0</ele><time>2026-04-11T07:37:54.999Z</time></trkpt><trkpt lat="44.99785536110616" lon="8.034926141384746"><ele>255.99999999999997</ele><time>2026-04-11T07:37:59.999Z</time></trkpt><trkpt lat="44.99779837355628" lon="8.03487692678608"><ele>256.0</ele><time>2026-04-11T07:38:04.999Z</time></trkpt><trkpt lat="44.997737945429016" lon="8.034821184906201"><ele>256.0</ele><time>2026-04-11T07:38:08.999Z</time></trkpt><trkpt lat="44.99767827837813" lon="8.034767462392924"><ele>255.99999999999997</ele><time>2026-04-11T07:38:13.999Z</time></trkpt><trkpt lat="44.99760958021652" lon="8.034726447954155"><ele>256.0</ele><time>2026-04-11T07:38:17.999Z</time></trkpt><trkpt lat="44.99753984815932" lon="8.034675241850945"><ele>256.0</ele><time>2026-04-11T07:38:22Z</time></trkpt><trkpt lat="44.99747204090774" lon="8.03461886615981"><ele>254.0</ele><time>2026-04-11T07:38:26Z</time></trkpt><trkpt lat="44.99740010644953" lon="8.034559131631962"><ele>251.99999999999997</ele><time>2026-04-11T07:38:31Z</time></trkpt><trkpt lat="44.99733952014158" lon="8.03451443112685"><ele>250.0</ele><time>2026-04-11T07:38:35Z</time></trkpt><trkpt lat="44.99727675341121" lon="8.034469350341547"><ele>248.0</ele><time>2026-04-11T07:38:39Z</time></trkpt><trkpt lat="44.99721965440894" lon="8.034423230016243"><ele>245.99999999999997</ele><time>2026-04-11T07:38:43Z</time></trkpt><trkpt lat="44.99715753033407" lon="8.034380377162826"><ele>244.0</ele><time>2026-04-11T07:38:47Z</time></trkpt><trkpt lat="44.99708440495457" lon="8.034328545404074"><ele>242.0</ele><time>2026-04-11T07:38:51Z</time></trkpt><trkpt lat="44.99701046964596" lon="8.034298166370524"><ele>242.0</ele><time>2026-04-11T07:38:55Z</time></trkpt><trkpt lat="44.99693541815208" lon="8.03430774484801"><ele>241.99999999999997</ele><time>2026-04-11T07:38:59Z</time></trkpt><trkpt lat="44.99687001605667" lon="8.034305724500298"><ele>242.0</ele><time>2026-04-11T07:39:03Z</time></trkpt><trkpt lat="44.99681037299554" lon="8.034337445290488"><ele>242.0</ele><time>2026-04-11T07:39:07Z</time></trkpt><trkpt lat="44.99674361534487" lon="8.034358654449141"><ele>241.99999999999997</ele><time>2026-04-11T07:39:10Z</time></trkpt><trkpt lat="44.99668383004921" lon="8.034407923375662"><ele>242.0</ele><time>2026-04-11T07:39:13.999Z</time></trkpt><trkpt lat="44.99662236706594" lon="8.034483927315842"><ele>242.0</ele><time>2026-04-11T07:39:17.999Z</time></trkpt><trkpt lat="44.996577837063576" lon="8.034572133372112"><ele>244.00000000000003</ele><time>2026-04-11T07:39:21.999Z</time></trkpt><trkpt lat="44.99653795955111" lon="8.034676272966975"><ele>246.0</ele><time>2026-04-11T07:39:26.999Z</time></trkpt><trkpt lat="44.996489972959814" lon="8.034779379351576"><ele>248.0</ele><time>2026-04-11T07:39:30.999Z</time></trkpt><trkpt lat="44.9964564834746" lon="8.034860316294752"><ele>250.0</ele><time>2026-04-11T07:39:33.999Z</time></trkpt><trkpt lat="44.996432055515925" lon="8.034945133552023"><ele>252.00000000000003</ele><time>2026-04-11T07:39:36.999Z</time></trkpt><trkpt lat="44.99639459573947" lon="8.035032817127512"><ele>254.0</ele><time>2026-04-11T07:39:39.999Z</time></trkpt><trkpt lat="44.99635424338971" lon="8.035133082978938"><ele>255.66666666666669</ele><time>2026-04-11T07:39:42.999Z</time></trkpt><trkpt lat="44.99629764051818" lon="8.035249339878474"><ele>257.33333333333337</ele><time>2026-04-11T07:39:44.999Z</time></trkpt><trkpt lat="44.99625756553965" lon="8.035339308582438"><ele>259.0</ele><time>2026-04-11T07:39:46.999Z</time></trkpt><trkpt lat="44.99622588425824" lon="8.035440060805609"><ele>260.6666666666667</ele><time>2026-04-11T07:39:48.999Z</time></trkpt><trkpt lat="44.99617866615569" lon="8.035529206413521"><ele>262.3333333333333</ele><time>2026-04-11T07:39:50.999Z</time></trkpt><trkpt lat="44.99613522302905" lon="8.035626660742787"><ele>264.0</ele><time>2026-04-11T07:39:52.999Z</time></trkpt><trkpt lat="44.996086687983365" lon="8.035711192791108"><ele>264.0</ele><time>2026-04-11T07:39:54.999Z</time></trkpt><trkpt lat="44.99602886364694" lon="8.035799796984687"><ele>264.0</ele><time>2026-04-11T07:39:56.999Z</time></trkpt><trkpt lat="44.99596996037604" lon="8.035875448738857"><ele>264.0</ele><time>2026-04-11T07:39:58.999Z</time></trkpt><trkpt lat="44.99591827105794" lon="8.035936121796809"><ele>264.0</ele><time>2026-04-11T07:40:00.999Z</time></trkpt><trkpt lat="44.995881991821626" lon="8.036017425276158"><ele>264.0</ele><time>2026-04-11T07:40:03.999Z</time></trkpt><trkpt lat="44.99585585368575" lon="8.036116362026355"><ele>264.0</ele><time>2026-04-11T07:41:35.999Z</time></trkpt><trkpt lat="44.995811560041496" lon="8.036201999200351"><ele>263.3333333333333</ele><time>2026-04-11T07:41:38.999Z</time></trkpt><trkpt lat="44.995760829238506" lon="8.036302007916742"><ele>262.6666666666667</ele><time>2026-04-11T07:41:41.999Z</time></trkpt><trkpt lat="44.995698507437865" lon="8.036384826250034"><ele>262.0</ele><time>2026-04-11T07:41:44.999Z</time></trkpt><trkpt lat="44.99562484778464" lon="8.036468930020806"><ele>261.33333333333337</ele><time>2026-04-11T07:41:47.999Z</time></trkpt><trkpt lat="44.995566549737816" lon="8.036510650742299"><ele>260.6666666666667</ele><time>2026-04-11T07:41:49.999Z</time></trkpt><trkpt lat="44.99549830153444" lon="8.036560991598705"><ele>260.0</ele><time>2026-04-11T07:41:52.999Z</time></trkpt><trkpt lat="44.99543327255713" lon="8.036582649670788"><ele>259.4</ele><time>2026-04-11T07:41:55.999Z</time></trkpt><trkpt lat="44.99537095556446" lon="8.03663628393597"><ele>258.8</ele><time>2026-04-11T07:41:58.999Z</time></trkpt><trkpt lat="44.995282145286666" lon="8.036696921736706"><ele>258.2</ele><time>2026-04-11T07:42:01.999Z</time></trkpt><trkpt lat="44.995168757722865" lon="8.03676218609316"><ele>257.6</ele><time>2026-04-11T07:42:03.999Z</time></trkpt><trkpt lat="44.99507770341707" lon="8.036797403764126"><ele>257.0</ele><time>2026-04-11T07:42:05.999Z</time></trkpt><trkpt lat="44.99499101554855" lon="8.036858174592297"><ele>257.0</ele><time>2026-04-11T07:42:07.999Z</time></trkpt><trkpt lat="44.99490814226525" lon="8.036884103861695"><ele>257.0</ele><time>2026-04-11T07:42:09.999Z</time></trkpt><trkpt lat="44.99484338646968" lon="8.036917282024737"><ele>257.0</ele><time>2026-04-11T07:42:11.999Z</time></trkpt><trkpt lat="44.994730498738875" lon="8.036955136900383"><ele>257.0</ele><time>2026-04-11T07:42:13.999Z</time></trkpt><trkpt lat="44.99465997003814" lon="8.036968374227929"><ele>257.0</ele><time>2026-04-11T07:42:15.999Z</time></trkpt><trkpt lat="44.99458091869726" lon="8.036995557686572"><ele>257.0</ele><time>2026-04-11T07:42:17.999Z</time></trkpt><trkpt lat="44.994498889630435" lon="8.037047035709799"><ele>257.0</ele><time>2026-04-11T07:42:19.999Z</time></trkpt><trkpt lat="44.9944183775593" lon="8.037097898736253"><ele>257.0</ele><time>2026-04-11T07:42:21.999Z</time></trkpt><trkpt lat="44.99436197042054" lon="8.037182947025249"><ele>257.0</ele><time>2026-04-11T07:42:23.999Z</time></trkpt><trkpt lat="44.994317335773175" lon="8.037255801139896"><ele>257.0</ele><time>2026-04-11T07:42:25.999Z</time></trkpt><trkpt lat="44.994264317204745" lon="8.037329474526787"><ele>257.0</ele><time>2026-04-11T07:42:27.999Z</time></trkpt><trkpt lat="44.994190052082104" lon="8.037418356753848"><ele>257.0</ele><time>2026-04-11T07:42:31Z</time></trkpt><trkpt lat="44.99412275766887" lon="8.037452268682792"><ele>256.6</ele><time>2026-04-11T07:42:33Z</time></trkpt><trkpt lat="44.994053900180624" lon="8.03745573101653"><ele>256.2</ele><time>2026-04-11T07:42:34Z</time></trkpt><trkpt lat="44.99394531638542" lon="8.037462678433007"><ele>255.8</ele><time>2026-04-11T07:42:36Z</time></trkpt><trkpt lat="44.993843889247714" lon="8.037507940265302"><ele>255.4</ele><time>2026-04-11T07:42:38Z</time></trkpt><trkpt lat="44.993763831930515" lon="8.037581767756581"><ele>255.0</ele><time>2026-04-11T07:42:40Z</time></trkpt><trkpt lat="44.993690342098986" lon="8.037656576727896"><ele>255.0</ele><time>2026-04-11T07:42:42Z</time></trkpt><trkpt lat="44.993622164615964" lon="8.037748416897827"><ele>255.0</ele><time>2026-04-11T07:42:44Z</time></trkpt><trkpt lat="44.993569412224346" lon="8.03785299206211"><ele>255.0</ele><time>2026-04-11T07:42:46Z</time></trkpt><trkpt lat="44.993537171473" lon="8.03795674691919"><ele>255.0</ele><time>2026-04-11T07:42:48Z</time></trkpt><trkpt lat="44.99350374844764" lon="8.038046251696437"><ele>255.0</ele><time>2026-04-11T07:42:50Z</time></trkpt><trkpt lat="44.99349050864778" lon="8.03816812381843"><ele>255.0</ele><time>2026-04-11T07:42:52Z</time></trkpt><trkpt lat="44.9934855233149" lon="8.038280570544906"><ele>252.83333333333334</ele><time>2026-04-11T07:42:54Z</time></trkpt><trkpt lat="44.993479059736806" lon="8.038396877446374"><ele>250.66666666666669</ele><time>2026-04-11T07:42:56Z</time></trkpt><trkpt lat="44.99348022295954" lon="8.03850464667339"><ele>248.5</ele><time>2026-04-11T07:42:58Z</time></trkpt><trkpt lat="44.99348064570743" lon="8.03859915684565"><ele>246.33333333333334</ele><time>2026-04-11T07:43:00Z</time></trkpt><trkpt lat="44.99348071992073" lon="8.038697207685262"><ele>244.16666666666669</ele><time>2026-04-11T07:43:02Z</time></trkpt><trkpt lat="44.99345964641567" lon="8.038816742709932"><ele>242.0</ele><time>2026-04-11T07:43:05Z</time></trkpt><trkpt lat="44.99344751856837" lon="8.038921364770331"><ele>242.00000000000003</ele><time>2026-04-11T07:43:07Z</time></trkpt><trkpt lat="44.99341706193308" lon="8.039008098133053"><ele>242.0</ele><time>2026-04-11T07:43:09Z</time></trkpt><trkpt lat="44.993390551405135" lon="8.039102609042807"><ele>242.0</ele><time>2026-04-11T07:43:11Z</time></trkpt><trkpt lat="44.993346447053334" lon="8.039207430382056"><ele>242.0</ele><time>2026-04-11T07:43:13Z</time></trkpt><trkpt lat="44.993294240178244" lon="8.039319091717408"><ele>242.00000000000003</ele><time>2026-04-11T07:43:15Z</time></trkpt><trkpt lat="44.99323804823987" lon="8.039411570786095"><ele>242.0</ele><time>2026-04-11T07:43:17Z</time></trkpt><trkpt lat="44.993181225492435" lon="8.039478599136293"><ele>243.39999999999998</ele><time>2026-04-11T07:43:19Z</time></trkpt><trkpt lat="44.9931267047022" lon="8.039550240088687"><ele>244.79999999999998</ele><time>2026-04-11T07:43:21.999Z</time></trkpt><trkpt lat="44.99307434625848" lon="8.039628021988005"><ele>246.2</ele><time>2026-04-11T07:43:23.999Z</time></trkpt><trkpt lat="44.993055561171424" lon="8.03975512972096"><ele>247.6</ele><time>2026-04-11T07:43:25.999Z</time></trkpt><trkpt lat="44.99301100336176" lon="8.039901097337914"><ele>249.0</ele><time>2026-04-11T07:43:27.999Z</time></trkpt><trkpt lat="44.993005181582156" lon="8.040069399695483"><ele>249.0</ele><time>2026-04-11T07:43:29.999Z</time></trkpt><trkpt lat="44.99296976118107" lon="8.040203582007985"><ele>248.99999999999997</ele><time>2026-04-11T07:43:31.999Z</time></trkpt><trkpt lat="44.99296320755212" lon="8.040326778896695"><ele>248.99999999999997</ele><time>2026-04-11T07:43:33.999Z</time></trkpt><trkpt lat="44.99291638445602" lon="8.040464886998393"><ele>249.0</ele><time>2026-04-11T07:43:35.999Z</time></trkpt><trkpt lat="44.99287060596" lon="8.040588338001553"><ele>249.0</ele><time>2026-04-11T07:43:37.999Z</time></trkpt><trkpt lat="44.99281806674907" lon="8.040699623840139"><ele>246.2</ele><time>2026-04-11T07:43:39.999Z</time></trkpt><trkpt lat="44.99279243287032" lon="8.040841998931924"><ele>243.39999999999998</ele><time>2026-04-11T07:43:41.999Z</time></trkpt><trkpt lat="44.992762923812734" lon="8.040966430551926"><ele>240.6</ele><time>2026-04-11T07:43:43.999Z</time></trkpt><trkpt lat="44.99271727512518" lon="8.041082542429491"><ele>237.8</ele><time>2026-04-11T07:43:45.999Z</time></trkpt><trkpt lat="44.99267476076996" lon="8.04120187788611"><ele>235.0</ele><time>2026-04-11T07:43:47.999Z</time></trkpt><trkpt lat="44.992633531472194" lon="8.041329107513649"><ele>235.0</ele><time>2026-04-11T07:43:49.999Z</time></trkpt><trkpt lat="44.99257835131348" lon="8.041456169713433"><ele>235.0</ele><time>2026-04-11T07:43:51.999Z</time></trkpt><trkpt lat="44.99251417257531" lon="8.041569741997616"><ele>235.0</ele><time>2026-04-11T07:43:53.999Z</time></trkpt><trkpt lat="44.99244915209821" lon="8.041673600849665"><ele>235.0</ele><time>2026-04-11T07:43:55.999Z</time></trkpt><trkpt lat="44.992384532304364" lon="8.041761948973441"><ele>235.0</ele><time>2026-04-11T07:43:57.999Z</time></trkpt><trkpt lat="44.99231267528461" lon="8.041819962297447"><ele>236.66666666666666</ele><time>2026-04-11T07:43:59.999Z</time></trkpt><trkpt lat="44.99223172005516" lon="8.041864916422764"><ele>238.33333333333331</ele><time>2026-04-11T07:44:01.999Z</time></trkpt><trkpt lat="44.99214578891299" lon="8.0419342290688"><ele>240.0</ele><time>2026-04-11T07:44:03.999Z</time></trkpt><trkpt lat="44.992097085091714" lon="8.042028160718342"><ele>241.66666666666669</ele><time>2026-04-11T07:44:05.999Z</time></trkpt><trkpt lat="44.992058105467514" lon="8.042128132779425"><ele>243.33333333333334</ele><time>2026-04-11T07:44:07.999Z</time></trkpt><trkpt lat="44.992013434778656" lon="8.04223799000601"><ele>245.0</ele><time>2026-04-11T07:44:09.999Z</time></trkpt><trkpt lat="44.991960641639814" lon="8.042331585368418"><ele>245.0</ele><time>2026-04-11T07:44:11.999Z</time></trkpt><trkpt lat="44.99190670480897" lon="8.042445393431725"><ele>245.0</ele><time>2026-04-11T07:44:13.999Z</time></trkpt><trkpt lat="44.9918556349814" lon="8.0425722767207"><ele>245.0</ele><time>2026-04-11T07:44:15.999Z</time></trkpt><trkpt lat="44.99180065565804" lon="8.042682282758873"><ele>245.0</ele><time>2026-04-11T07:44:18.999Z</time></trkpt><trkpt lat="44.99172775348316" lon="8.042785344962395"><ele>245.0</ele><time>2026-04-11T07:44:20.999Z</time></trkpt><trkpt lat="44.99167571571815" lon="8.042894826219504"><ele>245.0</ele><time>2026-04-11T07:44:22.999Z</time></trkpt><trkpt lat="44.99165003696893" lon="8.042993915318231"><ele>245.0</ele><time>2026-04-11T07:44:24.999Z</time></trkpt><trkpt lat="44.99161875072029" lon="8.043098398645315"><ele>245.0</ele><time>2026-04-11T07:44:26.999Z</time></trkpt><trkpt lat="44.99158177804197" lon="8.04318417623646"><ele>245.0</ele><time>2026-04-11T07:44:28.999Z</time></trkpt><trkpt lat="44.991550624246635" lon="8.043273199522526"><ele>245.0</ele><time>2026-04-11T07:44:30.999Z</time></trkpt><trkpt lat="44.99150523920943" lon="8.043357472319057"><ele>245.0</ele><time>2026-04-11T07:44:32.999Z</time></trkpt><trkpt lat="44.991476225916486" lon="8.043440761283215"><ele>245.0</ele><time>2026-04-11T07:44:34.999Z</time></trkpt><trkpt lat="44.99143353546732" lon="8.043517060880214"><ele>244.57142857142856</ele><time>2026-04-11T07:44:37Z</time></trkpt><trkpt lat="44.99139071620665" lon="8.043591100741814"><ele>244.14285714285714</ele><time>2026-04-11T07:44:39Z</time></trkpt><trkpt lat="44.991330274953796" lon="8.043677399042684"><ele>243.71428571428572</ele><time>2026-04-11T07:44:42Z</time></trkpt><trkpt lat="44.99126102452737" lon="8.043731976791962"><ele>243.28571428571428</ele><time>2026-04-11T07:44:46Z</time></trkpt><trkpt lat="44.99120259265064" lon="8.043777028955432"><ele>242.85714285714283</ele><time>2026-04-11T07:44:49Z</time></trkpt><trkpt lat="44.99114383404148" lon="8.043832540345615"><ele>242.42857142857142</ele><time>2026-04-11T07:44:52Z</time></trkpt><trkpt lat="44.991078863505294" lon="8.04387379540949"><ele>242.0</ele><time>2026-04-11T07:44:55Z</time></trkpt><trkpt lat="44.991011066809264" lon="8.043915531579877"><ele>242.00000000000003</ele><time>2026-04-11T07:44:59Z</time></trkpt><trkpt lat="44.99092891444873" lon="8.043966540986442"><ele>242.0</ele><time>2026-04-11T07:45:02Z</time></trkpt><trkpt lat="44.99085489118902" lon="8.043982257116417"><ele>242.0</ele><time>2026-04-11T07:45:05Z</time></trkpt><trkpt lat="44.99077619020309" lon="8.044025971832276"><ele>242.0</ele><time>2026-04-11T07:45:09Z</time></trkpt><trkpt lat="44.990711919655" lon="8.044068999368408"><ele>242.00000000000003</ele><time>2026-04-11T07:45:12Z</time></trkpt><trkpt lat="44.990649365559904" lon="8.04412220081829"><ele>242.0</ele><time>2026-04-11T07:45:15Z</time></trkpt><trkpt lat="44.99058481271997" lon="8.044188503120102"><ele>243.00000000000003</ele><time>2026-04-11T07:45:19Z</time></trkpt><trkpt lat="44.99053144716159" lon="8.044262435981622"><ele>244.0</ele><time>2026-04-11T07:45:21Z</time></trkpt><trkpt lat="44.99048472450651" lon="8.044375917771319"><ele>245.0</ele><time>2026-04-11T07:45:23Z</time></trkpt><trkpt lat="44.990456357631295" lon="8.044495271158505"><ele>246.0</ele><time>2026-04-11T07:45:25Z</time></trkpt><trkpt lat="44.99044369979127" lon="8.044621671022135"><ele>247.00000000000003</ele><time>2026-04-11T07:45:27Z</time></trkpt><trkpt lat="44.9904376808773" lon="8.044764306470135"><ele>248.0</ele><time>2026-04-11T07:45:28.999Z</time></trkpt><trkpt lat="44.99041618781109" lon="8.044920096435465"><ele>246.83333333333334</ele><time>2026-04-11T07:45:30.999Z</time></trkpt><trkpt lat="44.99034291390805" lon="8.045077370569814"><ele>245.66666666666669</ele><time>2026-04-11T07:45:32.999Z</time></trkpt><trkpt lat="44.99027328348967" lon="8.04512714309654"><ele>244.5</ele><time>2026-04-11T07:45:33.999Z</time></trkpt><trkpt lat="44.99020989407103" lon="8.04517896123952"><ele>243.33333333333331</ele><time>2026-04-11T07:45:34.999Z</time></trkpt><trkpt lat="44.99014607079865" lon="8.045233805311055"><ele>242.16666666666666</ele><time>2026-04-11T07:45:35.999Z</time></trkpt><trkpt lat="44.99006423603775" lon="8.045271949820085"><ele>241.0</ele><time>2026-04-11T07:45:36.999Z</time></trkpt><trkpt lat="44.98999892938591" lon="8.045315796442308"><ele>240.99999999999997</ele><time>2026-04-11T07:45:37.999Z</time></trkpt><trkpt lat="44.98995761634111" lon="8.045434962716804"><ele>241.0</ele><time>2026-04-11T07:45:38.999Z</time></trkpt><trkpt lat="44.98990658469625" lon="8.045516656122407"><ele>241.0</ele><time>2026-04-11T07:45:39.999Z</time></trkpt><trkpt lat="44.989853748128425" lon="8.045598065129676"><ele>241.0</ele><time>2026-04-11T07:45:40.999Z</time></trkpt><trkpt lat="44.98979902696899" lon="8.045676863277862"><ele>240.99999999999997</ele><time>2026-04-11T07:45:41.999Z</time></trkpt><trkpt lat="44.98974336943631" lon="8.045745840036664"><ele>241.0</ele><time>2026-04-11T07:45:42.999Z</time></trkpt><trkpt lat="44.98969257978697" lon="8.04581376883264"><ele>239.8</ele><time>2026-04-11T07:45:43.999Z</time></trkpt><trkpt lat="44.989641482830955" lon="8.045871451669221"><ele>238.60000000000002</ele><time>2026-04-11T07:45:44.999Z</time></trkpt><trkpt lat="44.98959026062572" lon="8.045932229390461"><ele>237.4</ele><time>2026-04-11T07:45:45.999Z</time></trkpt><trkpt lat="44.98949854703687" lon="8.046046752959521"><ele>236.2</ele><time>2026-04-11T07:45:47.999Z</time></trkpt><trkpt lat="44.98941672006857" lon="8.046160293160197"><ele>235.0</ele><time>2026-04-11T07:45:49.999Z</time></trkpt><trkpt lat="44.98933302233036" lon="8.046272347327905"><ele>234.99999999999997</ele><time>2026-04-11T07:45:51.999Z</time></trkpt><trkpt lat="44.98925458034986" lon="8.04638334601526"><ele>235.0</ele><time>2026-04-11T07:45:53.999Z</time></trkpt><trkpt lat="44.98918819698287" lon="8.046485806697719"><ele>235.0</ele><time>2026-04-11T07:45:55.999Z</time></trkpt><trkpt lat="44.98914354500076" lon="8.046570071258229"><ele>235.0</ele><time>2026-04-11T07:45:57.999Z</time></trkpt><trkpt lat="44.9890965216824" lon="8.046636360825941"><ele>234.99999999999997</ele><time>2026-04-11T07:45:59.999Z</time></trkpt><trkpt lat="44.989056776060615" lon="8.046724043420001"><ele>235.0</ele><time>2026-04-11T07:46:01.999Z</time></trkpt><trkpt lat="44.989033144784926" lon="8.046826704031021"><ele>236.0</ele><time>2026-04-11T07:46:03.999Z</time></trkpt><trkpt lat="44.988972773398935" lon="8.046937353608753"><ele>237.0</ele><time>2026-04-11T07:46:05.999Z</time></trkpt><trkpt lat="44.988904417359876" lon="8.047023507882786"><ele>238.0</ele><time>2026-04-11T07:46:07.999Z</time></trkpt><trkpt lat="44.98880040763221" lon="8.047081428673145"><ele>239.0</ele><time>2026-04-11T07:46:09.999Z</time></trkpt><trkpt lat="44.98868692251565" lon="8.047138352248467"><ele>240.0</ele><time>2026-04-11T07:46:11.999Z</time></trkpt><trkpt lat="44.98862148457979" lon="8.047173056781885"><ele>240.0</ele><time>2026-04-11T07:46:12.999Z</time></trkpt><trkpt lat="44.98851358809248" lon="8.047228084379674"><ele>240.0</ele><time>2026-04-11T07:46:14.999Z</time></trkpt><trkpt lat="44.988459562040916" lon="8.047283812557518"><ele>240.0</ele><time>2026-04-11T07:46:15.999Z</time></trkpt><trkpt lat="44.98840077706747" lon="8.047338079638026"><ele>240.0</ele><time>2026-04-11T07:46:16.999Z</time></trkpt><trkpt lat="44.98833684327342" lon="8.047388429354042"><ele>240.0</ele><time>2026-04-11T07:46:17.999Z</time></trkpt><trkpt lat="44.98827675337484" lon="8.04743621427916"><ele>240.0</ele><time>2026-04-11T07:46:18.999Z</time></trkpt><trkpt lat="44.988166356564385" lon="8.04748843754721"><ele>239.57142857142858</ele><time>2026-04-11T07:46:20.999Z</time></trkpt><trkpt lat="44.98809569773138" lon="8.04752778186538"><ele>239.1428571428571</ele><time>2026-04-11T07:46:21.999Z</time></trkpt><trkpt lat="44.98802813276268" lon="8.047567312056238"><ele>238.7142857142857</ele><time>2026-04-11T07:46:22.999Z</time></trkpt><trkpt lat="44.987970297517215" lon="8.047604538350297"><ele>238.28571428571428</ele><time>2026-04-11T07:46:23.999Z</time></trkpt><trkpt lat="44.98790468226212" lon="8.047652539989272"><ele>237.85714285714283</ele><time>2026-04-11T07:46:24.999Z</time></trkpt><trkpt lat="44.98783651869793" lon="8.047698395032159"><ele>237.4285714285714</ele><time>2026-04-11T07:46:25.999Z</time></trkpt><trkpt lat="44.987764268357274" lon="8.047754820490999"><ele>236.99999999999997</ele><time>2026-04-11T07:46:26.999Z</time></trkpt><trkpt lat="44.98768552251529" lon="8.047816905643394"><ele>237.0</ele><time>2026-04-11T07:46:27.999Z</time></trkpt><trkpt lat="44.98760696745489" lon="8.047876821872771"><ele>237.0</ele><time>2026-04-11T07:46:28.999Z</time></trkpt><trkpt lat="44.98752883771501" lon="8.04793257399147"><ele>237.0</ele><time>2026-04-11T07:46:29.999Z</time></trkpt><trkpt lat="44.98744746795555" lon="8.047981845599494"><ele>237.0</ele><time>2026-04-11T07:46:30.999Z</time></trkpt><trkpt lat="44.98736866907285" lon="8.048031905975721"><ele>237.0</ele><time>2026-04-11T07:46:31.999Z</time></trkpt><trkpt lat="44.98729084126109" lon="8.048081967004178"><ele>237.0</ele><time>2026-04-11T07:46:32.999Z</time></trkpt><trkpt lat="44.987221991276826" lon="8.048111723169995"><ele>237.0</ele><time>2026-04-11T07:46:33.999Z</time></trkpt><trkpt lat="44.987152545418404" lon="8.0481569458541"><ele>237.0</ele><time>2026-04-11T07:46:34.999Z</time></trkpt><trkpt lat="44.98709323310529" lon="8.048223104380053"><ele>237.0</ele><time>2026-04-11T07:46:35.999Z</time></trkpt><trkpt lat="44.98702948434011" lon="8.048266081881279"><ele>237.0</ele><time>2026-04-11T07:46:36.999Z</time></trkpt><trkpt lat="44.98696303519365" lon="8.048317350448263"><ele>237.0</ele><time>2026-04-11T07:46:37.999Z</time></trkpt><trkpt lat="44.98689358513754" lon="8.048370757086706"><ele>237.0</ele><time>2026-04-11T07:46:38.999Z</time></trkpt><trkpt lat="44.98682889827309" lon="8.048431339819887"><ele>237.0</ele><time>2026-04-11T07:46:39.999Z</time></trkpt><trkpt lat="44.9867617033162" lon="8.048498249167034"><ele>237.0</ele><time>2026-04-11T07:46:40.999Z</time></trkpt><trkpt lat="44.98669446684994" lon="8.048565894723065"><ele>237.0</ele><time>2026-04-11T07:46:41.999Z</time></trkpt><trkpt lat="44.986610397085684" lon="8.048621610533578"><ele>237.0</ele><time>2026-04-11T07:46:43Z</time></trkpt><trkpt lat="44.98653440258515" lon="8.04869832651364"><ele>237.0</ele><time>2026-04-11T07:46:44Z</time></trkpt><trkpt lat="44.986461508080225" lon="8.048796528428602"><ele>234.8</ele><time>2026-04-11T07:46:45Z</time></trkpt><trkpt lat="44.98637134486765" lon="8.04886676972351"><ele>232.6</ele><time>2026-04-11T07:46:46Z</time></trkpt><trkpt lat="44.986289236062795" lon="8.048955135973156"><ele>230.40000000000003</ele><time>2026-04-11T07:46:47Z</time></trkpt><trkpt lat="44.9862105967469" lon="8.049058911756756"><ele>228.20000000000002</ele><time>2026-04-11T07:46:48Z</time></trkpt><trkpt lat="44.986145100171704" lon="8.049186289216095"><ele>226.0</ele><time>2026-04-11T07:46:49Z</time></trkpt><trkpt lat="44.986057819039125" lon="8.049278698600993"><ele>226.0</ele><time>2026-04-11T07:46:50Z</time></trkpt><trkpt lat="44.98599020853829" lon="8.04940116403307"><ele>226.00000000000003</ele><time>2026-04-11T07:46:51Z</time></trkpt><trkpt lat="44.98590058187928" lon="8.049494093076174"><ele>226.00000000000003</ele><time>2026-04-11T07:46:52Z</time></trkpt><trkpt lat="44.98582070666603" lon="8.049602496970294"><ele>226.0</ele><time>2026-04-11T07:46:53Z</time></trkpt><trkpt lat="44.985748111079126" lon="8.049698082313284"><ele>226.0</ele><time>2026-04-11T07:46:54Z</time></trkpt><trkpt lat="44.98567127591754" lon="8.049791570646796"><ele>223.4</ele><time>2026-04-11T07:46:55Z</time></trkpt><trkpt lat="44.98559471641763" lon="8.049883768728009"><ele>220.8</ele><time>2026-04-11T07:46:56Z</time></trkpt><trkpt lat="44.98552183914358" lon="8.04997157512377"><ele>218.20000000000002</ele><time>2026-04-11T07:46:57Z</time></trkpt><trkpt lat="44.985446796560005" lon="8.050061991091093"><ele>215.60000000000002</ele><time>2026-04-11T07:46:58Z</time></trkpt><trkpt lat="44.985379645825546" lon="8.050144844482181"><ele>213.0</ele><time>2026-04-11T07:46:59Z</time></trkpt><trkpt lat="44.98531286194574" lon="8.050227901944035"><ele>213.0</ele><time>2026-04-11T07:47:00Z</time></trkpt><trkpt lat="44.98525753683216" lon="8.050335868038282"><ele>213.0</ele><time>2026-04-11T07:47:01Z</time></trkpt><trkpt lat="44.98520212384007" lon="8.050431003436907"><ele>213.0</ele><time>2026-04-11T07:47:02Z</time></trkpt><trkpt lat="44.985154259555856" lon="8.050522679912794"><ele>213.0</ele><time>2026-04-11T07:47:03Z</time></trkpt><trkpt lat="44.985095870875476" lon="8.05061158527084"><ele>213.0</ele><time>2026-04-11T07:47:04Z</time></trkpt><trkpt lat="44.98506038205632" lon="8.050712073199989"><ele>213.0</ele><time>2026-04-11T07:47:05Z</time></trkpt><trkpt lat="44.98503261669745" lon="8.050804967985037"><ele>213.2</ele><time>2026-04-11T07:47:06Z</time></trkpt><trkpt lat="44.9850047050298" lon="8.05090100084153"><ele>213.4</ele><time>2026-04-11T07:47:07Z</time></trkpt><trkpt lat="44.98495896429006" lon="8.051058376227088"><ele>213.59999999999997</ele><time>2026-04-11T07:47:09Z</time></trkpt><trkpt lat="44.984927151348145" lon="8.051226697332366"><ele>213.79999999999998</ele><time>2026-04-11T07:47:11Z</time></trkpt><trkpt lat="44.98487861747165" lon="8.051369218654898"><ele>214.0</ele><time>2026-04-11T07:47:13Z</time></trkpt><trkpt lat="44.984841624075266" lon="8.051509976204871"><ele>216.6</ele><time>2026-04-11T07:47:15Z</time></trkpt><trkpt lat="44.98480063015405" lon="8.051639769836077"><ele>219.2</ele><time>2026-04-11T07:47:17Z</time></trkpt><trkpt lat="44.98475867509886" lon="8.051758998084601"><ele>221.79999999999998</ele><time>2026-04-11T07:47:19Z</time></trkpt><trkpt lat="44.98471865318924" lon="8.05187207255442"><ele>224.39999999999998</ele><time>2026-04-11T07:47:21Z</time></trkpt><trkpt lat="44.98468242222525" lon="8.051987892921561"><ele>227.0</ele><time>2026-04-11T07:47:23Z</time></trkpt><trkpt lat="44.984650207647704" lon="8.05209572462104"><ele>227.00000000000003</ele><time>2026-04-11T07:47:25Z</time></trkpt><trkpt lat="44.98462074222257" lon="8.05219416359233"><ele>227.0</ele><time>2026-04-11T07:47:27Z</time></trkpt><trkpt lat="44.984591484087254" lon="8.052283789758151"><ele>227.0</ele><time>2026-04-11T07:47:29Z</time></trkpt><trkpt lat="44.984578178605794" lon="8.05238838659599"><ele>227.0</ele><time>2026-04-11T07:47:31Z</time></trkpt><trkpt lat="44.984573077382045" lon="8.052521387412135"><ele>227.00000000000003</ele><time>2026-04-11T07:47:33Z</time></trkpt><trkpt lat="44.984563200421945" lon="8.052611145767585"><ele>227.0</ele><time>2026-04-11T07:47:34Z</time></trkpt><trkpt lat="44.98454767116849" lon="8.052715152851697"><ele>228.00000000000003</ele><time>2026-04-11T07:47:35Z</time></trkpt><trkpt lat="44.984524057030846" lon="8.052821177375582"><ele>229.0</ele><time>2026-04-11T07:47:36Z</time></trkpt><trkpt lat="44.984510109982814" lon="8.052937860188184"><ele>230.0</ele><time>2026-04-11T07:47:36.999Z</time></trkpt><trkpt lat="44.98449209893877" lon="8.053060705620172"><ele>231.0</ele><time>2026-04-11T07:47:37.999Z</time></trkpt><trkpt lat="44.98447071562995" lon="8.053187145905904"><ele>232.00000000000003</ele><time>2026-04-11T07:47:38.999Z</time></trkpt><trkpt lat="44.98445165681082" lon="8.053311616923981"><ele>233.0</ele><time>2026-04-11T07:47:39.999Z</time></trkpt><trkpt lat="44.98442805544411" lon="8.05342453209246"><ele>231.42857142857144</ele><time>2026-04-11T07:47:40.999Z</time></trkpt><trkpt lat="44.9843828237263" lon="8.053522565039962"><ele>229.85714285714283</ele><time>2026-04-11T07:47:41.999Z</time></trkpt><trkpt lat="44.9843392909437" lon="8.053608549947912"><ele>228.28571428571428</ele><time>2026-04-11T07:47:42.999Z</time></trkpt><trkpt lat="44.984304706077666" lon="8.053697971131971"><ele>226.71428571428572</ele><time>2026-04-11T07:47:43.999Z</time></trkpt><trkpt lat="44.984250537712796" lon="8.053760781518983"><ele>225.14285714285717</ele><time>2026-04-11T07:47:44.999Z</time></trkpt><trkpt lat="44.98419508813374" lon="8.053807862777024"><ele>223.57142857142856</ele><time>2026-04-11T07:47:45.999Z</time></trkpt><trkpt lat="44.984135018981206" lon="8.053840768241333"><ele>222.0</ele><time>2026-04-11T07:47:46.999Z</time></trkpt><trkpt lat="44.98406314562079" lon="8.053847811637585"><ele>222.0</ele><time>2026-04-11T07:47:47.999Z</time></trkpt><trkpt lat="44.98400061462323" lon="8.053858642793173"><ele>222.0</ele><time>2026-04-11T07:47:48.999Z</time></trkpt><trkpt lat="44.983939765878944" lon="8.053884542493797"><ele>222.0</ele><time>2026-04-11T07:47:49.999Z</time></trkpt><trkpt lat="44.98384763297497" lon="8.053850940552495"><ele>222.0</ele><time>2026-04-11T07:47:51.999Z</time></trkpt><trkpt lat="44.98374816658258" lon="8.053841976003383"><ele>222.0</ele><time>2026-04-11T07:47:53.999Z</time></trkpt><trkpt lat="44.98367291001607" lon="8.053986237775987"><ele>222.0</ele><time>2026-04-11T07:47:56.999Z</time></trkpt><trkpt lat="44.98363880202037" lon="8.054162180290879"><ele>220.66666666666666</ele><time>2026-04-11T07:47:58.999Z</time></trkpt><trkpt lat="44.98362919529672" lon="8.054272170053569"><ele>219.33333333333331</ele><time>2026-04-11T07:47:59.999Z</time></trkpt><trkpt lat="44.983603954243165" lon="8.05437720372948"><ele>218.0</ele><time>2026-04-11T07:48:00.999Z</time></trkpt><trkpt lat="44.983611456356286" lon="8.054488292255387"><ele>216.66666666666666</ele><time>2026-04-11T07:48:01.999Z</time></trkpt><trkpt lat="44.98361319835766" lon="8.05459555556557"><ele>215.33333333333331</ele><time>2026-04-11T07:48:02.999Z</time></trkpt><trkpt lat="44.98361042428542" lon="8.054714432836342"><ele>214.0</ele><time>2026-04-11T07:48:03.999Z</time></trkpt><trkpt lat="44.98365586154235" lon="8.05482733291066"><ele>214.0</ele><time>2026-04-11T07:48:04.999Z</time></trkpt><trkpt lat="44.98368779574532" lon="8.05494952876961"><ele>213.99999999999997</ele><time>2026-04-11T07:48:05.999Z</time></trkpt><trkpt lat="44.98374169989116" lon="8.055082440032923"><ele>213.99999999999997</ele><time>2026-04-11T07:48:06.999Z</time></trkpt><trkpt lat="44.983805966510715" lon="8.055228813257372"><ele>214.0</ele><time>2026-04-11T07:48:07.999Z</time></trkpt><trkpt lat="44.98387384936241" lon="8.055378930851793"><ele>214.0</ele><time>2026-04-11T07:48:08.999Z</time></trkpt><trkpt lat="44.98394219599348" lon="8.05553333819108"><ele>211.79999999999998</ele><time>2026-04-11T07:48:09.999Z</time></trkpt><trkpt lat="44.98399825439284" lon="8.055675918099604"><ele>209.59999999999997</ele><time>2026-04-11T07:48:10.999Z</time></trkpt><trkpt lat="44.98403957441878" lon="8.055805613440736"><ele>207.4</ele><time>2026-04-11T07:48:11.999Z</time></trkpt><trkpt lat="44.98409327485146" lon="8.05593953171641"><ele>205.2</ele><time>2026-04-11T07:48:12.999Z</time></trkpt><trkpt lat="44.98413112936633" lon="8.05606228403661"><ele>203.0</ele><time>2026-04-11T07:48:13.999Z</time></trkpt><trkpt lat="44.984169382033" lon="8.056206879339236"><ele>200.83333333333334</ele><time>2026-04-11T07:48:14.999Z</time></trkpt><trkpt lat="44.9842119955651" lon="8.05635749292865"><ele>198.66666666666669</ele><time>2026-04-11T07:48:15.999Z</time></trkpt><trkpt lat="44.98423481340651" lon="8.056484669909556"><ele>196.5</ele><time>2026-04-11T07:48:16.999Z</time></trkpt><trkpt lat="44.98425725893602" lon="8.056595059134867"><ele>194.33333333333334</ele><time>2026-04-11T07:48:17.999Z</time></trkpt><trkpt lat="44.9842767902499" lon="8.056684983750417"><ele>192.16666666666669</ele><time>2026-04-11T07:48:18.999Z</time></trkpt><trkpt lat="44.984297939883845" lon="8.05680772740916"><ele>190.0</ele><time>2026-04-11T07:48:20.999Z</time></trkpt><trkpt lat="44.984322708650666" lon="8.056914976324059"><ele>187.66666666666669</ele><time>2026-04-11T07:48:23.999Z</time></trkpt><trkpt lat="44.984696455015154" lon="8.05683713216905"><ele>185.33333333333334</ele><time>2026-04-11T07:48:45.999Z</time></trkpt><trkpt lat="44.98476007172015" lon="8.056799615139473"><ele>183.0</ele><time>2026-04-11T07:48:47.999Z</time></trkpt><trkpt lat="44.984834954528814" lon="8.056768993671794"><ele>183.0</ele><time>2026-04-11T07:48:50Z</time></trkpt><trkpt lat="44.984910805955494" lon="8.05673786661365"><ele>183.0</ele><time>2026-04-11T07:48:52Z</time></trkpt><trkpt lat="44.98498817421987" lon="8.056708011025318"><ele>183.0</ele><time>2026-04-11T07:48:54Z</time></trkpt><trkpt lat="44.98507215238033" lon="8.05667427982767"><ele>183.0</ele><time>2026-04-11T07:48:56Z</time></trkpt><trkpt lat="44.98515695296299" lon="8.056640223686632"><ele>183.0</ele><time>2026-04-11T07:48:58Z</time></trkpt><trkpt lat="44.985244406130505" lon="8.056601396140113"><ele>183.0</ele><time>2026-04-11T07:49:00Z</time></trkpt><trkpt lat="44.98533386161972" lon="8.056559962840923"><ele>183.2</ele><time>2026-04-11T07:49:02Z</time></trkpt><trkpt lat="44.985425267030564" lon="8.05652020899988"><ele>183.4</ele><time>2026-04-11T07:49:04Z</time></trkpt><trkpt lat="44.98551966507123" lon="8.056494297502653"><ele>183.6</ele><time>2026-04-11T07:49:06Z</time></trkpt><trkpt lat="44.985618814081946" lon="8.0564660342533"><ele>183.79999999999998</ele><time>2026-04-11T07:49:08Z</time></trkpt><trkpt lat="44.98572000973965" lon="8.05645495245615"><ele>184.0</ele><time>2026-04-11T07:49:10Z</time></trkpt><trkpt lat="44.98582024719261" lon="8.056454405489145"><ele>184.0</ele><time>2026-04-11T07:49:12Z</time></trkpt><trkpt lat="44.98591608328501" lon="8.056473825532912"><ele>184.0</ele><time>2026-04-11T07:49:14Z</time></trkpt><trkpt lat="44.98600921700156" lon="8.056505785637508"><ele>184.0</ele><time>2026-04-11T07:49:16Z</time></trkpt><trkpt lat="44.98609837252547" lon="8.05655341202873"><ele>184.0</ele><time>2026-04-11T07:49:18Z</time></trkpt><trkpt lat="44.986178357613845" lon="8.056608087551584"><ele>184.0</ele><time>2026-04-11T07:49:20Z</time></trkpt><trkpt lat="44.98625094298616" lon="8.056676103180267"><ele>184.0</ele><time>2026-04-11T07:49:22Z</time></trkpt><trkpt lat="44.98631975664852" lon="8.056757413972798"><ele>184.0</ele><time>2026-04-11T07:49:24Z</time></trkpt><trkpt lat="44.98639201963936" lon="8.056853244834537"><ele>184.0</ele><time>2026-04-11T07:49:26Z</time></trkpt><trkpt lat="44.986463021445616" lon="8.056961379543456"><ele>184.0</ele><time>2026-04-11T07:49:28Z</time></trkpt><trkpt lat="44.986535525049035" lon="8.05707391386409"><ele>184.0</ele><time>2026-04-11T07:49:30Z</time></trkpt><trkpt lat="44.98661012075786" lon="8.057192630347126"><ele>187.0</ele><time>2026-04-11T07:49:32Z</time></trkpt><trkpt lat="44.98668664286435" lon="8.05730672235373"><ele>190.0</ele><time>2026-04-11T07:49:34Z</time></trkpt><trkpt lat="44.986763280192335" lon="8.057432358989649"><ele>193.0</ele><time>2026-04-11T07:49:36Z</time></trkpt><trkpt lat="44.98684111054756" lon="8.057553731085871"><ele>196.0</ele><time>2026-04-11T07:49:38Z</time></trkpt><trkpt lat="44.986917835358256" lon="8.0576749695175"><ele>196.0</ele><time>2026-04-11T07:49:40Z</time></trkpt><trkpt lat="44.98699604871105" lon="8.057799409098163"><ele>196.0</ele><time>2026-04-11T07:49:41.999Z</time></trkpt><trkpt lat="44.987070775469434" lon="8.057917884662197"><ele>196.0</ele><time>2026-04-11T07:49:43.999Z</time></trkpt><trkpt lat="44.98714866953188" lon="8.058035977053423"><ele>196.0</ele><time>2026-04-11T07:49:45.999Z</time></trkpt><trkpt lat="44.98722063531704" lon="8.058156706872463"><ele>196.0</ele><time>2026-04-11T07:49:47.999Z</time></trkpt><trkpt lat="44.98729367033886" lon="8.058272450664"><ele>196.0</ele><time>2026-04-11T07:49:49.999Z</time></trkpt><trkpt lat="44.98736762445385" lon="8.058384973693633"><ele>196.0</ele><time>2026-04-11T07:49:51.999Z</time></trkpt><trkpt lat="44.9874368869818" lon="8.058497965722442"><ele>196.0</ele><time>2026-04-11T07:49:53.999Z</time></trkpt><trkpt lat="44.98751145701746" lon="8.05861027768179"><ele>196.0</ele><time>2026-04-11T07:49:55.999Z</time></trkpt><trkpt lat="44.98758274236456" lon="8.058722564209361"><ele>196.4</ele><time>2026-04-11T07:49:57.999Z</time></trkpt><trkpt lat="44.9876576708615" lon="8.058834189969751"><ele>196.8</ele><time>2026-04-11T07:49:59.999Z</time></trkpt><trkpt lat="44.9877271977668" lon="8.058950010717632"><ele>197.20000000000002</ele><time>2026-04-11T07:50:01.999Z</time></trkpt><trkpt lat="44.98777073842102" lon="8.059033122150282"><ele>197.60000000000002</ele><time>2026-04-11T07:50:03.999Z</time></trkpt><trkpt lat="44.98782494040056" lon="8.05912020543213"><ele>198.0</ele><time>2026-04-11T07:50:04.999Z</time></trkpt><trkpt lat="44.98789969914067" lon="8.059227807456358"><ele>195.2</ele><time>2026-04-11T07:50:06.999Z</time></trkpt><trkpt lat="44.98796655218682" lon="8.05933287154295"><ele>192.4</ele><time>2026-04-11T07:50:08.999Z</time></trkpt><trkpt lat="44.98804192994149" lon="8.059449787400423"><ele>189.6</ele><time>2026-04-11T07:50:10.999Z</time></trkpt><trkpt lat="44.98811693501686" lon="8.059584211073796"><ele>186.79999999999998</ele><time>2026-04-11T07:50:13.999Z</time></trkpt><trkpt lat="44.98819881436849" lon="8.059698377461071"><ele>184.0</ele><time>2026-04-11T07:50:14.999Z</time></trkpt><trkpt lat="44.98826585622691" lon="8.059818140012881"><ele>184.0</ele><time>2026-04-11T07:50:16.999Z</time></trkpt><trkpt lat="44.988317623068724" lon="8.059871802033713"><ele>184.0</ele><time>2026-04-11T07:50:17.999Z</time></trkpt><trkpt lat="44.98838965120009" lon="8.059988299497832"><ele>184.0</ele><time>2026-04-11T07:50:19.999Z</time></trkpt><trkpt lat="44.988457250566405" lon="8.06011146027848"><ele>184.0</ele><time>2026-04-11T07:50:21.999Z</time></trkpt><trkpt lat="44.98853207009927" lon="8.060231907679837"><ele>184.0</ele><time>2026-04-11T07:50:23.999Z</time></trkpt><trkpt lat="44.98860535075773" lon="8.060353230748433"><ele>184.2</ele><time>2026-04-11T07:50:25.999Z</time></trkpt><trkpt lat="44.98868111628977" lon="8.060469425812041"><ele>184.39999999999998</ele><time>2026-04-11T07:50:27.999Z</time></trkpt><trkpt lat="44.988751334458605" lon="8.060582919391866"><ele>184.6</ele><time>2026-04-11T07:50:29.999Z</time></trkpt><trkpt lat="44.98883117891662" lon="8.060698599572646"><ele>184.8</ele><time>2026-04-11T07:50:31.999Z</time></trkpt><trkpt lat="44.98890079876108" lon="8.060813795549079"><ele>185.0</ele><time>2026-04-11T07:50:33.999Z</time></trkpt><trkpt lat="44.9889851058637" lon="8.060921352143074"><ele>185.0</ele><time>2026-04-11T07:50:35.999Z</time></trkpt><trkpt lat="44.98906905735669" lon="8.06102270094023"><ele>185.0</ele><time>2026-04-11T07:50:37.999Z</time></trkpt><trkpt lat="44.989166169857725" lon="8.061107318566725"><ele>185.0</ele><time>2026-04-11T07:50:39.999Z</time></trkpt><trkpt lat="44.98926122401756" lon="8.0611781739819"><ele>185.0</ele><time>2026-04-11T07:50:41.999Z</time></trkpt><trkpt lat="44.98934954738887" lon="8.061239615819577"><ele>185.0</ele><time>2026-04-11T07:50:43.999Z</time></trkpt><trkpt lat="44.98946709743563" lon="8.06128714980868"><ele>185.6</ele><time>2026-04-11T07:50:45.999Z</time></trkpt><trkpt lat="44.989559933571584" lon="8.061316830189002"><ele>186.2</ele><time>2026-04-11T07:50:47.999Z</time></trkpt><trkpt lat="44.98967414525814" lon="8.061323436485262"><ele>186.8</ele><time>2026-04-11T07:50:49.999Z</time></trkpt><trkpt lat="44.989746885063745" lon="8.06131690225643"><ele>187.4</ele><time>2026-04-11T07:50:51.999Z</time></trkpt><trkpt lat="44.989816510591055" lon="8.061309582531697"><ele>188.0</ele><time>2026-04-11T07:50:52.999Z</time></trkpt><trkpt lat="44.98993753209533" lon="8.061300023262856"><ele>187.60000000000002</ele><time>2026-04-11T07:50:55Z</time></trkpt><trkpt lat="44.99004553832005" lon="8.06128141962527"><ele>187.20000000000002</ele><time>2026-04-11T07:50:57Z</time></trkpt><trkpt lat="44.99011023197079" lon="8.061267529231515"><ele>186.8</ele><time>2026-04-11T07:50:58Z</time></trkpt><trkpt lat="44.990226957113336" lon="8.061250386970553"><ele>186.4</ele><time>2026-04-11T07:51:00Z</time></trkpt><trkpt lat="44.99033322437792" lon="8.061239656174287"><ele>186.0</ele><time>2026-04-11T07:51:02Z</time></trkpt><trkpt lat="44.99045560001898" lon="8.061222192166328"><ele>186.0</ele><time>2026-04-11T07:51:04Z</time></trkpt><trkpt lat="44.99057509970861" lon="8.061201667959915"><ele>186.0</ele><time>2026-04-11T07:51:06Z</time></trkpt><trkpt lat="44.99068750988384" lon="8.061177568969487"><ele>186.0</ele><time>2026-04-11T07:51:08Z</time></trkpt><trkpt lat="44.990798279672894" lon="8.061162952870957"><ele>186.0</ele><time>2026-04-11T07:51:10Z</time></trkpt><trkpt lat="44.990911235154314" lon="8.061142991570497"><ele>187.20000000000002</ele><time>2026-04-11T07:51:12Z</time></trkpt><trkpt lat="44.99102287851471" lon="8.061124685709602"><ele>188.4</ele><time>2026-04-11T07:51:14Z</time></trkpt><trkpt lat="44.991134901686245" lon="8.061103462871232"><ele>189.6</ele><time>2026-04-11T07:51:16Z</time></trkpt><trkpt lat="44.991244896644766" lon="8.061084415682485"><ele>190.8</ele><time>2026-04-11T07:51:18Z</time></trkpt><trkpt lat="44.99135233735851" lon="8.061066634398788"><ele>192.0</ele><time>2026-04-11T07:51:20Z</time></trkpt><trkpt lat="44.99145982104589" lon="8.06104689953543"><ele>192.0</ele><time>2026-04-11T07:51:22Z</time></trkpt><trkpt lat="44.9915726541466" lon="8.061026968289667"><ele>192.0</ele><time>2026-04-11T07:51:24Z</time></trkpt><trkpt lat="44.99167795896687" lon="8.06100919118634"><ele>192.0</ele><time>2026-04-11T07:51:26Z</time></trkpt><trkpt lat="44.991785937138914" lon="8.060992596663622"><ele>192.0</ele><time>2026-04-11T07:51:28Z</time></trkpt><trkpt lat="44.99188999026445" lon="8.060979194557468"><ele>192.0</ele><time>2026-04-11T07:51:30Z</time></trkpt><trkpt lat="44.991964203824494" lon="8.06097158826696"><ele>190.83333333333334</ele><time>2026-04-11T07:51:32Z</time></trkpt><trkpt lat="44.99204334172317" lon="8.060962273774448"><ele>189.66666666666666</ele><time>2026-04-11T07:51:34Z</time></trkpt><trkpt lat="44.992136044542434" lon="8.060954240794112"><ele>188.5</ele><time>2026-04-11T07:51:36Z</time></trkpt><trkpt lat="44.99223315178" lon="8.06094163951234"><ele>187.33333333333331</ele><time>2026-04-11T07:51:38Z</time></trkpt><trkpt lat="44.9923303545401" lon="8.060921202936592"><ele>186.16666666666666</ele><time>2026-04-11T07:51:40Z</time></trkpt><trkpt lat="44.99241065340167" lon="8.060914459239791"><ele>185.0</ele><time>2026-04-11T07:51:42Z</time></trkpt><trkpt lat="44.992590394488346" lon="8.060869273357172"><ele>185.0</ele><time>2026-04-11T07:51:43Z</time></trkpt><trkpt lat="44.992700040125044" lon="8.060842329935587"><ele>185.0</ele><time>2026-04-11T07:51:45Z</time></trkpt><trkpt lat="44.99280539062501" lon="8.060829240942082"><ele>185.0</ele><time>2026-04-11T07:51:46.999Z</time></trkpt><trkpt lat="44.99291117879299" lon="8.060812676037381"><ele>185.0</ele><time>2026-04-11T07:51:48.999Z</time></trkpt><trkpt lat="44.99302034002469" lon="8.060789613924827"><ele>185.0</ele><time>2026-04-11T07:51:50.999Z</time></trkpt><trkpt lat="44.99312774866401" lon="8.060778989692835"><ele>186.0</ele><time>2026-04-11T07:51:52.999Z</time></trkpt><trkpt lat="44.99324205880138" lon="8.060756479080746"><ele>187.0</ele><time>2026-04-11T07:51:54.999Z</time></trkpt><trkpt lat="44.99335241774433" lon="8.060738630637749"><ele>188.0</ele><time>2026-04-11T07:51:56.999Z</time></trkpt><trkpt lat="44.99346624640465" lon="8.060715008757741"><ele>189.0</ele><time>2026-04-11T07:51:58.999Z</time></trkpt><trkpt lat="44.99358012813456" lon="8.06070062886564"><ele>189.0</ele><time>2026-04-11T07:52:00.999Z</time></trkpt><trkpt lat="44.99367562097538" lon="8.060678901565382"><ele>189.0</ele><time>2026-04-11T07:52:02.999Z</time></trkpt><trkpt lat="44.993787936266806" lon="8.060662584847648"><ele>189.0</ele><time>2026-04-11T07:52:04.999Z</time></trkpt><trkpt lat="44.99389939958776" lon="8.060652383442747"><ele>189.0</ele><time>2026-04-11T07:52:06.999Z</time></trkpt><trkpt lat="44.994016441041474" lon="8.06062765837398"><ele>189.0</ele><time>2026-04-11T07:52:08.999Z</time></trkpt><trkpt lat="44.99413226291466" lon="8.060612008482245"><ele>189.79999999999998</ele><time>2026-04-11T07:52:10.999Z</time></trkpt><trkpt lat="44.99424451925337" lon="8.060590605496625"><ele>190.6</ele><time>2026-04-11T07:52:12.999Z</time></trkpt><trkpt lat="44.994355222768164" lon="8.060572865463605"><ele>191.4</ele><time>2026-04-11T07:52:14.999Z</time></trkpt><trkpt lat="44.994459158070704" lon="8.060556215836533"><ele>192.2</ele><time>2026-04-11T07:52:16.999Z</time></trkpt><trkpt lat="44.994570022982856" lon="8.060539837056988"><ele>193.0</ele><time>2026-04-11T07:52:18.999Z</time></trkpt><trkpt lat="44.99467616187577" lon="8.06052608504843"><ele>193.0</ele><time>2026-04-11T07:52:20.999Z</time></trkpt><trkpt lat="44.99478842270594" lon="8.060506034975859"><ele>193.0</ele><time>2026-04-11T07:52:22.999Z</time></trkpt><trkpt lat="44.99489415506096" lon="8.060485758028745"><ele>193.0</ele><time>2026-04-11T07:52:24.999Z</time></trkpt><trkpt lat="44.99500463666748" lon="8.060465575164578"><ele>193.0</ele><time>2026-04-11T07:52:26.999Z</time></trkpt><trkpt lat="44.995107873910186" lon="8.060450189824422"><ele>193.0</ele><time>2026-04-11T07:52:28.999Z</time></trkpt><trkpt lat="44.99517374756025" lon="8.060441825324288"><ele>192.49999999999997</ele><time>2026-04-11T07:52:30.999Z</time></trkpt><trkpt lat="44.9952508924511" lon="8.060427446042262"><ele>192.0</ele><time>2026-04-11T07:52:32.999Z</time></trkpt><trkpt lat="44.99533733653673" lon="8.060418587945716"><ele>191.5</ele><time>2026-04-11T07:52:34.999Z</time></trkpt><trkpt lat="44.99542895073996" lon="8.06040004470102"><ele>191.0</ele><time>2026-04-11T07:52:36.999Z</time></trkpt><trkpt lat="44.99550909816288" lon="8.06038662821024"><ele>190.5</ele><time>2026-04-11T07:52:38.999Z</time></trkpt><trkpt lat="44.995593516613106" lon="8.06039848823583"><ele>190.0</ele><time>2026-04-11T07:52:40.999Z</time></trkpt><trkpt lat="44.99566814145531" lon="8.060379041736066"><ele>190.0</ele><time>2026-04-11T07:52:42.999Z</time></trkpt><trkpt lat="44.995951769123096" lon="8.060344598528834"><ele>190.0</ele><time>2026-04-11T07:52:44.999Z</time></trkpt><trkpt lat="44.99601324559246" lon="8.06031467903662"><ele>190.0</ele><time>2026-04-11T07:52:45.999Z</time></trkpt><trkpt lat="44.996121513951444" lon="8.06029906817602"><ele>190.0</ele><time>2026-04-11T07:52:47.999Z</time></trkpt><trkpt lat="44.99623426389067" lon="8.06026690267919"><ele>190.0</ele><time>2026-04-11T07:52:49.999Z</time></trkpt><trkpt lat="44.99633705985088" lon="8.060256123223937"><ele>190.0</ele><time>2026-04-11T07:52:51.999Z</time></trkpt><trkpt lat="44.99644787949535" lon="8.060230742850017"><ele>190.0</ele><time>2026-04-11T07:52:53.999Z</time></trkpt><trkpt lat="44.996553881110735" lon="8.060208813687396"><ele>190.0</ele><time>2026-04-11T07:52:55.999Z</time></trkpt><trkpt lat="44.996664910334594" lon="8.06018587193983"><ele>190.0</ele><time>2026-04-11T07:52:57.999Z</time></trkpt><trkpt lat="44.99677140815959" lon="8.060166859883017"><ele>190.0</ele><time>2026-04-11T07:52:59.999Z</time></trkpt><trkpt lat="44.99687634731831" lon="8.060151165710641"><ele>190.0</ele><time>2026-04-11T07:53:02Z</time></trkpt><trkpt lat="44.99698233053895" lon="8.06013468013648"><ele>190.0</ele><time>2026-04-11T07:53:04Z</time></trkpt><trkpt lat="44.99707332683666" lon="8.06011227013153"><ele>190.0</ele><time>2026-04-11T07:53:06Z</time></trkpt><trkpt lat="44.99718167487226" lon="8.060099153126608"><ele>190.0</ele><time>2026-04-11T07:53:08Z</time></trkpt><trkpt lat="44.99728024730466" lon="8.060082072123475"><ele>190.0</ele><time>2026-04-11T07:53:10Z</time></trkpt><trkpt lat="44.99738812506369" lon="8.0600639429258"><ele>190.0</ele><time>2026-04-11T07:53:12Z</time></trkpt><trkpt lat="44.99749572290415" lon="8.060043273357353"><ele>190.0</ele><time>2026-04-11T07:53:14Z</time></trkpt><trkpt lat="44.99761030960837" lon="8.060026915516776"><ele>190.0</ele><time>2026-04-11T07:53:16Z</time></trkpt><trkpt lat="44.997719561592156" lon="8.06001048900131"><ele>190.2</ele><time>2026-04-11T07:53:18Z</time></trkpt><trkpt lat="44.99782898530845" lon="8.060006680742534"><ele>190.4</ele><time>2026-04-11T07:53:20Z</time></trkpt><trkpt lat="44.997929074288564" lon="8.05997922633759"><ele>190.60000000000002</ele><time>2026-04-11T07:53:22Z</time></trkpt><trkpt lat="44.998034446993614" lon="8.05996422629812"><ele>190.8</ele><time>2026-04-11T07:53:24Z</time></trkpt><trkpt lat="44.998128981132695" lon="8.059951867872806"><ele>191.0</ele><time>2026-04-11T07:53:26Z</time></trkpt><trkpt lat="44.998235142681764" lon="8.05993279433762"><ele>192.4</ele><time>2026-04-11T07:53:28Z</time></trkpt><trkpt lat="44.9983375358783" lon="8.059919905226511"><ele>193.8</ele><time>2026-04-11T07:53:30Z</time></trkpt><trkpt lat="44.99843519521336" lon="8.05989878865974"><ele>195.20000000000002</ele><time>2026-04-11T07:53:32Z</time></trkpt><trkpt lat="44.99852220494764" lon="8.059875595928615"><ele>196.60000000000002</ele><time>2026-04-11T07:53:34Z</time></trkpt><trkpt lat="44.99862677784786" lon="8.059863599796616"><ele>198.0</ele><time>2026-04-11T07:53:36Z</time></trkpt><trkpt lat="44.998732101917085" lon="8.059847750295486"><ele>198.0</ele><time>2026-04-11T07:53:38Z</time></trkpt><trkpt lat="44.998840009814295" lon="8.059824953034514"><ele>198.0</ele><time>2026-04-11T07:53:40Z</time></trkpt><trkpt lat="44.99894940957102" lon="8.059809562426684"><ele>198.0</ele><time>2026-04-11T07:53:42Z</time></trkpt><trkpt lat="44.99905530839024" lon="8.0597997083799"><ele>198.0</ele><time>2026-04-11T07:53:44Z</time></trkpt><trkpt lat="44.999165419849646" lon="8.059777808723922"><ele>198.0</ele><time>2026-04-11T07:53:46Z</time></trkpt><trkpt lat="44.99927995180773" lon="8.05975526560826"><ele>199.2</ele><time>2026-04-11T07:53:48Z</time></trkpt><trkpt lat="44.99938876481259" lon="8.059748101518121"><ele>200.4</ele><time>2026-04-11T07:53:50Z</time></trkpt><trkpt lat="44.99949453090023" lon="8.059732502633771"><ele>201.6</ele><time>2026-04-11T07:53:52Z</time></trkpt><trkpt lat="44.999598010374484" lon="8.059710721831268"><ele>202.79999999999998</ele><time>2026-04-11T07:53:53.999Z</time></trkpt><trkpt lat="44.999709116815744" lon="8.059694422283524"><ele>204.0</ele><time>2026-04-11T07:53:55.999Z</time></trkpt><trkpt lat="44.99982307195473" lon="8.059672959630579"><ele>204.0</ele><time>2026-04-11T07:53:57.999Z</time></trkpt><trkpt lat="44.99992475589575" lon="8.059639422251784"><ele>204.0</ele><time>2026-04-11T07:53:59.999Z</time></trkpt><trkpt lat="45.00002813142379" lon="8.059650194918644"><ele>204.0</ele><time>2026-04-11T07:54:01.999Z</time></trkpt><trkpt lat="45.000143920911" lon="8.059638164400951"><ele>204.0</ele><time>2026-04-11T07:54:03.999Z</time></trkpt><trkpt lat="45.00024966075644" lon="8.059630838427793"><ele>204.0</ele><time>2026-04-11T07:54:05.999Z</time></trkpt><trkpt lat="45.000346251722505" lon="8.059621833205005"><ele>204.0</ele><time>2026-04-11T07:54:07.999Z</time></trkpt><trkpt lat="45.000461609606276" lon="8.059635027390348"><ele>204.0</ele><time>2026-04-11T07:54:09.999Z</time></trkpt><trkpt lat="45.00052538632546" lon="8.059646596090591"><ele>204.0</ele><time>2026-04-11T07:54:10.999Z</time></trkpt><trkpt lat="45.00059178597097" lon="8.059667710196337"><ele>204.0</ele><time>2026-04-11T07:54:11.999Z</time></trkpt><trkpt lat="45.000663943851755" lon="8.059661971741841"><ele>204.0</ele><time>2026-04-11T07:54:12.999Z</time></trkpt><trkpt lat="45.000730675378854" lon="8.059663466677224"><ele>204.0</ele><time>2026-04-11T07:54:13.999Z</time></trkpt><trkpt lat="45.00079573143036" lon="8.059684150007067"><ele>202.0</ele><time>2026-04-11T07:54:14.999Z</time></trkpt><trkpt lat="45.00091405671817" lon="8.059727531629509"><ele>200.0</ele><time>2026-04-11T07:54:16.999Z</time></trkpt><trkpt lat="45.00102541224211" lon="8.059751405504711"><ele>198.0</ele><time>2026-04-11T07:54:18.999Z</time></trkpt><trkpt lat="45.00112993284159" lon="8.059799938225101"><ele>196.0</ele><time>2026-04-11T07:54:20.999Z</time></trkpt><trkpt lat="45.00123640541438" lon="8.05986027730211"><ele>196.0</ele><time>2026-04-11T07:54:22.999Z</time></trkpt><trkpt lat="45.00134995171768" lon="8.059917304268437"><ele>196.0</ele><time>2026-04-11T07:54:24.999Z</time></trkpt><trkpt lat="45.00146170822076" lon="8.059971889611374"><ele>196.0</ele><time>2026-04-11T07:54:26.999Z</time></trkpt><trkpt lat="45.001571892070054" lon="8.06002869736138"><ele>196.0</ele><time>2026-04-11T07:54:28.999Z</time></trkpt><trkpt lat="45.00167908928547" lon="8.060082211693064"><ele>195.60000000000002</ele><time>2026-04-11T07:54:30.999Z</time></trkpt><trkpt lat="45.00178498909465" lon="8.060136407384874"><ele>195.2</ele><time>2026-04-11T07:54:32.999Z</time></trkpt><trkpt lat="45.00188817945977" lon="8.060190336111628"><ele>194.8</ele><time>2026-04-11T07:54:34.999Z</time></trkpt><trkpt lat="45.00199419715789" lon="8.060242203060305"><ele>194.39999999999998</ele><time>2026-04-11T07:54:36.999Z</time></trkpt><trkpt lat="45.002100634930166" lon="8.060300842131598"><ele>194.0</ele><time>2026-04-11T07:54:38.999Z</time></trkpt><trkpt lat="45.00220743532551" lon="8.060360259429244"><ele>194.0</ele><time>2026-04-11T07:54:40.999Z</time></trkpt><trkpt lat="45.002317859316946" lon="8.060420219282307"><ele>194.0</ele><time>2026-04-11T07:54:42.999Z</time></trkpt><trkpt lat="45.00242271387515" lon="8.060475083809338"><ele>194.0</ele><time>2026-04-11T07:54:44.999Z</time></trkpt><trkpt lat="45.00252299017181" lon="8.060529136771683"><ele>194.0</ele><time>2026-04-11T07:54:46.999Z</time></trkpt><trkpt lat="45.002626988071256" lon="8.060583654589472"><ele>194.0</ele><time>2026-04-11T07:54:48.999Z</time></trkpt><trkpt lat="45.002729558569165" lon="8.060636464488752"><ele>194.75</ele><time>2026-04-11T07:54:50.999Z</time></trkpt><trkpt lat="45.002837873512746" lon="8.060696943586587"><ele>195.5</ele><time>2026-04-11T07:54:52.999Z</time></trkpt><trkpt lat="45.002945285944605" lon="8.06075720279841"><ele>196.25</ele><time>2026-04-11T07:54:54.999Z</time></trkpt><trkpt lat="45.00304883362374" lon="8.060815608795881"><ele>197.0</ele><time>2026-04-11T07:54:56.999Z</time></trkpt><trkpt lat="45.003163579509426" lon="8.060871232927163"><ele>197.0</ele><time>2026-04-11T07:54:58.999Z</time></trkpt><trkpt lat="45.00326804332766" lon="8.060921678568675"><ele>197.0</ele><time>2026-04-11T07:55:00.999Z</time></trkpt><trkpt lat="45.003367358244375" lon="8.06097592413161"><ele>197.0</ele><time>2026-04-11T07:55:02.999Z</time></trkpt><trkpt lat="45.00347839826972" lon="8.061027674232653"><ele>197.0</ele><time>2026-04-11T07:55:04.999Z</time></trkpt><trkpt lat="45.003585564975324" lon="8.06107774681342"><ele>197.0</ele><time>2026-04-11T07:55:07Z</time></trkpt><trkpt lat="45.00369083866135" lon="8.061132960702928"><ele>197.25</ele><time>2026-04-11T07:55:09Z</time></trkpt><trkpt lat="45.003800906849015" lon="8.061187323272453"><ele>197.5</ele><time>2026-04-11T07:55:11Z</time></trkpt><trkpt lat="45.00390314658957" lon="8.061232305154268"><ele>197.75</ele><time>2026-04-11T07:55:13Z</time></trkpt><trkpt lat="45.004019214429306" lon="8.061273206731826"><ele>198.0</ele><time>2026-04-11T07:55:15Z</time></trkpt><trkpt lat="45.0041296344332" lon="8.061313104101698"><ele>198.0</ele><time>2026-04-11T07:55:17Z</time></trkpt><trkpt lat="45.00423767612804" lon="8.061347484775217"><ele>198.0</ele><time>2026-04-11T07:55:19Z</time></trkpt><trkpt lat="45.00434595815742" lon="8.061379031475456"><ele>198.0</ele><time>2026-04-11T07:55:21Z</time></trkpt><trkpt lat="45.00445416966428" lon="8.061403067275409"><ele>198.0</ele><time>2026-04-11T07:55:23Z</time></trkpt><trkpt lat="45.00455454689898" lon="8.061409436583508"><ele>198.0</ele><time>2026-04-11T07:55:25Z</time></trkpt><trkpt lat="45.004610469507995" lon="8.061464194906604"><ele>198.0</ele><time>2026-04-11T07:55:27Z</time></trkpt><trkpt lat="45.004563308065364" lon="8.061610462600516"><ele>198.0</ele><time>2026-04-11T07:55:29Z</time></trkpt><trkpt lat="45.0045448708384" lon="8.061728150561606"><ele>198.0</ele><time>2026-04-11T07:55:31Z</time></trkpt><trkpt lat="45.00452744276934" lon="8.061850462810332"><ele>198.0</ele><time>2026-04-11T07:55:33Z</time></trkpt><trkpt lat="45.00450810009743" lon="8.061989908241431"><ele>198.0</ele><time>2026-04-11T07:55:35Z</time></trkpt><trkpt lat="45.004487852121905" lon="8.062136275476341"><ele>197.2</ele><time>2026-04-11T07:55:37Z</time></trkpt><trkpt lat="45.004482678390744" lon="8.06230247889898"><ele>196.4</ele><time>2026-04-11T07:55:39Z</time></trkpt><trkpt lat="45.004464577465484" lon="8.062475196559138"><ele>195.6</ele><time>2026-04-11T07:55:41Z</time></trkpt><trkpt lat="45.004441156898665" lon="8.062558711797795"><ele>194.79999999999998</ele><time>2026-04-11T07:55:42Z</time></trkpt><trkpt lat="45.00443271694765" lon="8.062730615816529"><ele>194.0</ele><time>2026-04-11T07:55:44Z</time></trkpt><trkpt lat="45.00443254609723" lon="8.062900586481433"><ele>193.79999999999998</ele><time>2026-04-11T07:55:46Z</time></trkpt><trkpt lat="45.00444084506956" lon="8.063058171727516"><ele>193.6</ele><time>2026-04-11T07:55:48Z</time></trkpt><trkpt lat="45.004456092593784" lon="8.063221714988833"><ele>193.4</ele><time>2026-04-11T07:55:50Z</time></trkpt><trkpt lat="45.00446981092195" lon="8.063378446727743"><ele>193.2</ele><time>2026-04-11T07:55:52Z</time></trkpt><trkpt lat="45.004483089976624" lon="8.063530159955693"><ele>193.0</ele><time>2026-04-11T07:55:54Z</time></trkpt><trkpt lat="45.004495915265686" lon="8.063676688953581"><ele>192.99999999999997</ele><time>2026-04-11T07:55:56Z</time></trkpt><trkpt lat="45.0045077096316" lon="8.063811439601555"><ele>193.0</ele><time>2026-04-11T07:55:58Z</time></trkpt><trkpt lat="45.00451746238745" lon="8.063930428527012"><ele>193.0</ele><time>2026-04-11T07:56:00Z</time></trkpt><trkpt lat="45.00452586009882" lon="8.064029082580708"><ele>193.0</ele><time>2026-04-11T07:56:01.999Z</time></trkpt><trkpt lat="45.00457811516851" lon="8.0640796945698"><ele>192.99999999999997</ele><time>2026-04-11T07:57:53Z</time></trkpt><trkpt lat="45.00464243667857" lon="8.063993727218463"><ele>193.0</ele><time>2026-04-11T07:57:56Z</time></trkpt><trkpt lat="45.00466922309658" lon="8.063910857333747"><ele>192.99999999999997</ele><time>2026-04-11T07:57:58Z</time></trkpt><trkpt lat="45.0047023831906" lon="8.063808015601245"><ele>193.0</ele><time>2026-04-11T07:58:00Z</time></trkpt><trkpt lat="45.004743166518686" lon="8.063707828834046"><ele>193.0</ele><time>2026-04-11T07:58:02Z</time></trkpt><trkpt lat="45.00479037881787" lon="8.063614954993687"><ele>193.0</ele><time>2026-04-11T07:58:03.999Z</time></trkpt><trkpt lat="45.00484903317" lon="8.06353473469911"><ele>192.99999999999997</ele><time>2026-04-11T07:58:05.999Z</time></trkpt><trkpt lat="45.00491396841638" lon="8.063471447177015"><ele>193.0</ele><time>2026-04-11T07:58:07.999Z</time></trkpt><trkpt lat="45.004980312374734" lon="8.063426159352712"><ele>193.16666666666666</ele><time>2026-04-11T07:58:09.999Z</time></trkpt><trkpt lat="45.00504678489596" lon="8.06339116842479"><ele>193.33333333333331</ele><time>2026-04-11T07:58:11.999Z</time></trkpt><trkpt lat="45.00512608524518" lon="8.063361694522401"><ele>193.5</ele><time>2026-04-11T07:58:13.999Z</time></trkpt><trkpt lat="45.005211029775204" lon="8.063342726838577"><ele>193.66666666666669</ele><time>2026-04-11T07:58:15.999Z</time></trkpt><trkpt lat="45.005297559624964" lon="8.063394845215539"><ele>193.83333333333334</ele><time>2026-04-11T07:58:17.999Z</time></trkpt><trkpt lat="45.00536766714731" lon="8.063398267887239"><ele>194.0</ele><time>2026-04-11T07:58:19.999Z</time></trkpt><trkpt lat="45.00543019844926" lon="8.063433979192887"><ele>194.00000000000003</ele><time>2026-04-11T07:58:21.999Z</time></trkpt><trkpt lat="45.0054894170538" lon="8.063473687841867"><ele>194.0</ele><time>2026-04-11T07:58:23.999Z</time></trkpt><trkpt lat="45.00555847605237" lon="8.06349695712831"><ele>194.0</ele><time>2026-04-11T07:58:25.999Z</time></trkpt><trkpt lat="45.005641778167934" lon="8.063507734282657"><ele>194.0</ele><time>2026-04-11T07:58:27.999Z</time></trkpt><trkpt lat="45.005709093293184" lon="8.063503323301946"><ele>194.00000000000003</ele><time>2026-04-11T07:58:29.999Z</time></trkpt><trkpt lat="45.00577480980049" lon="8.063499070984413"><ele>194.0</ele><time>2026-04-11T07:58:31.999Z</time></trkpt><trkpt lat="45.005880234203026" lon="8.063473817174032"><ele>194.6</ele><time>2026-04-11T07:58:35.999Z</time></trkpt><trkpt lat="45.00597098640032" lon="8.063457251862788"><ele>195.2</ele><time>2026-04-11T07:58:37.999Z</time></trkpt><trkpt lat="45.00606902867595" lon="8.063447578856293"><ele>195.79999999999998</ele><time>2026-04-11T07:58:39.999Z</time></trkpt><trkpt lat="45.00615107293188" lon="8.063445374065118"><ele>196.39999999999998</ele><time>2026-04-11T07:58:42.999Z</time></trkpt><trkpt lat="45.00626412273815" lon="8.063456125999254"><ele>197.0</ele><time>2026-04-11T07:58:43.999Z</time></trkpt><trkpt lat="45.00635022478105" lon="8.063464415293378"><ele>197.00000000000003</ele><time>2026-04-11T07:58:45.999Z</time></trkpt><trkpt lat="45.006435202633426" lon="8.063493577599289"><ele>197.0</ele><time>2026-04-11T07:58:47.999Z</time></trkpt><trkpt lat="45.006501418400525" lon="8.063518141633239"><ele>197.0</ele><time>2026-04-11T07:58:49.999Z</time></trkpt><trkpt lat="45.006573881482865" lon="8.063553842535054"><ele>197.0</ele><time>2026-04-11T07:58:51.999Z</time></trkpt><trkpt lat="45.006645653731304" lon="8.0635775525605"><ele>197.00000000000003</ele><time>2026-04-11T07:58:53.999Z</time></trkpt><trkpt lat="45.00672678786948" lon="8.063615802481266"><ele>197.0</ele><time>2026-04-11T07:58:55.999Z</time></trkpt><trkpt lat="45.006800972189374" lon="8.063626421439013"><ele>197.00000000000003</ele><time>2026-04-11T07:58:57.999Z</time></trkpt><trkpt lat="45.006882870909145" lon="8.063650178794658"><ele>197.0</ele><time>2026-04-11T07:58:59.999Z</time></trkpt><trkpt lat="45.00696350368982" lon="8.063671560732756"><ele>197.0</ele><time>2026-04-11T07:59:01.999Z</time></trkpt><trkpt lat="45.00702834220192" lon="8.063698782337493"><ele>197.0</ele><time>2026-04-11T07:59:03.999Z</time></trkpt><trkpt lat="45.00709433017722" lon="8.06371463722535"><ele>197.00000000000003</ele><time>2026-04-11T07:59:04.999Z</time></trkpt><trkpt lat="45.00717624681555" lon="8.063747374993202"><ele>197.0</ele><time>2026-04-11T07:59:06.999Z</time></trkpt><trkpt lat="45.00725151392981" lon="8.063782211837374"><ele>197.00000000000003</ele><time>2026-04-11T07:59:08.999Z</time></trkpt><trkpt lat="45.00733180320383" lon="8.063812582075625"><ele>197.0</ele><time>2026-04-11T07:59:10.999Z</time></trkpt><trkpt lat="45.00740536916555" lon="8.063838666404928"><ele>197.0</ele><time>2026-04-11T07:59:12.999Z</time></trkpt><trkpt lat="45.00747414225888" lon="8.063872763946883"><ele>197.0</ele><time>2026-04-11T07:59:14.999Z</time></trkpt><trkpt lat="45.007548281361544" lon="8.06390680760944"><ele>197.00000000000003</ele><time>2026-04-11T07:59:16.999Z</time></trkpt><trkpt lat="45.0076341282054" lon="8.063927150102073"><ele>197.0</ele><time>2026-04-11T07:59:19Z</time></trkpt><trkpt lat="45.00771627637309" lon="8.063959732760903"><ele>196.00000000000003</ele><time>2026-04-11T07:59:21Z</time></trkpt><trkpt lat="45.00780381048061" lon="8.063992092884016"><ele>195.0</ele><time>2026-04-11T07:59:25Z</time></trkpt><trkpt lat="45.00788955454381" lon="8.063974448876838"><ele>194.0</ele><time>2026-04-11T07:59:27Z</time></trkpt><trkpt lat="45.007956362292724" lon="8.063947548105343"><ele>193.0</ele><time>2026-04-11T07:59:28Z</time></trkpt><trkpt lat="45.008024889560836" lon="8.063921079125207"><ele>192.0</ele><time>2026-04-11T07:59:30Z</time></trkpt><trkpt lat="45.008093283338056" lon="8.063936405749137"><ele>191.0</ele><time>2026-04-11T07:59:32Z</time></trkpt><trkpt lat="45.00817415496627" lon="8.063959050412324"><ele>191.0</ele><time>2026-04-11T07:59:36Z</time></trkpt><trkpt lat="45.00825105364681" lon="8.063970757288958"><ele>191.0</ele><time>2026-04-11T07:59:39Z</time></trkpt><trkpt lat="45.008334501995535" lon="8.063990246502119"><ele>191.0</ele><time>2026-04-11T07:59:42Z</time></trkpt><trkpt lat="45.008413387401305" lon="8.064011430964628"><ele>191.0</ele><time>2026-04-11T07:59:44Z</time></trkpt><trkpt lat="45.0084956651104" lon="8.064034051686573"><ele>191.0</ele><time>2026-04-11T07:59:46Z</time></trkpt><trkpt lat="45.00857287946722" lon="8.064052238692982"><ele>191.0</ele><time>2026-04-11T07:59:48Z</time></trkpt><trkpt lat="45.00864430548715" lon="8.06407093891483"><ele>191.0</ele><time>2026-04-11T07:59:50Z</time></trkpt><trkpt lat="45.00872344638301" lon="8.064090801951497"><ele>191.0</ele><time>2026-04-11T07:59:52Z</time></trkpt><trkpt lat="45.00879427780386" lon="8.064107293553047"><ele>191.0</ele><time>2026-04-11T07:59:54Z</time></trkpt><trkpt lat="45.00886212581129" lon="8.064127763487607"><ele>191.0</ele><time>2026-04-11T07:59:56Z</time></trkpt><trkpt lat="45.00892366005968" lon="8.064156112223824"><ele>191.0</ele><time>2026-04-11T07:59:58Z</time></trkpt><trkpt lat="45.00901309794876" lon="8.064199731364054"><ele>191.0</ele><time>2026-04-11T08:00:01Z</time></trkpt><trkpt lat="45.0090818194017" lon="8.064214135904757"><ele>191.0</ele><time>2026-04-11T08:00:03Z</time></trkpt><trkpt lat="45.00914917380362" lon="8.064217340451068"><ele>191.0</ele><time>2026-04-11T08:00:05Z</time></trkpt><trkpt lat="45.00921604185489" lon="8.064255094909695"><ele>191.0</ele><time>2026-04-11T08:00:07Z</time></trkpt><trkpt lat="45.00929174168072" lon="8.064269264360085"><ele>191.0</ele><time>2026-04-11T08:00:08.999Z</time></trkpt><trkpt lat="45.00936720907052" lon="8.064274200051848"><ele>191.0</ele><time>2026-04-11T08:00:10.999Z</time></trkpt><trkpt lat="45.00944657372152" lon="8.064284119320966"><ele>191.0</ele><time>2026-04-11T08:00:12.999Z</time></trkpt><trkpt lat="45.009523052272975" lon="8.064293541561637"><ele>191.0</ele><time>2026-04-11T08:00:14.999Z</time></trkpt><trkpt lat="45.009605336136964" lon="8.064306045440208"><ele>191.33333333333331</ele><time>2026-04-11T08:00:16.999Z</time></trkpt><trkpt lat="45.00968846555342" lon="8.064329090346325"><ele>191.66666666666666</ele><time>2026-04-11T08:00:18.999Z</time></trkpt><trkpt lat="45.00976050238904" lon="8.064331493847902"><ele>192.0</ele><time>2026-04-11T08:00:20.999Z</time></trkpt><trkpt lat="45.0098387219559" lon="8.064346574909374"><ele>192.33333333333331</ele><time>2026-04-11T08:00:22.999Z</time></trkpt><trkpt lat="45.00991967562733" lon="8.064367471889948"><ele>192.66666666666666</ele><time>2026-04-11T08:00:24.999Z</time></trkpt><trkpt lat="45.01001020172038" lon="8.064395041806462"><ele>193.0</ele><time>2026-04-11T08:00:27.999Z</time></trkpt><trkpt lat="45.01007258099633" lon="8.064411719984077"><ele>193.16666666666666</ele><time>2026-04-11T08:00:28.999Z</time></trkpt><trkpt lat="45.01014176046215" lon="8.06443306896398"><ele>193.33333333333331</ele><time>2026-04-11T08:00:30.999Z</time></trkpt><trkpt lat="45.01021912772137" lon="8.064457086270473"><ele>193.5</ele><time>2026-04-11T08:00:33.999Z</time></trkpt><trkpt lat="45.01029401689097" lon="8.06448802953812"><ele>193.66666666666669</ele><time>2026-04-11T08:00:35.999Z</time></trkpt><trkpt lat="45.01042671543957" lon="8.064535671685826"><ele>193.83333333333334</ele><time>2026-04-11T08:00:38.999Z</time></trkpt><trkpt lat="45.010503624432175" lon="8.064565369618993"><ele>194.0</ele><time>2026-04-11T08:00:40.999Z</time></trkpt><trkpt lat="45.01057486105762" lon="8.064589545136105"><ele>194.00000000000003</ele><time>2026-04-11T08:00:42.999Z</time></trkpt><trkpt lat="45.01064121443176" lon="8.064615143687147"><ele>194.0</ele><time>2026-04-11T08:00:44.999Z</time></trkpt><trkpt lat="45.010718128751115" lon="8.064645301518652"><ele>194.0</ele><time>2026-04-11T08:00:46.999Z</time></trkpt><trkpt lat="45.01079134447847" lon="8.064676598387829"><ele>194.0</ele><time>2026-04-11T08:00:48.999Z</time></trkpt><trkpt lat="45.01087285682492" lon="8.064707561765227"><ele>194.00000000000003</ele><time>2026-04-11T08:00:50.999Z</time></trkpt><trkpt lat="45.01095212047093" lon="8.064735111036498"><ele>194.0</ele><time>2026-04-11T08:00:52.999Z</time></trkpt><trkpt lat="45.011032355746856" lon="8.064761712580221"><ele>194.2</ele><time>2026-04-11T08:00:54.999Z</time></trkpt><trkpt lat="45.01110420502999" lon="8.06478492172752"><ele>194.39999999999998</ele><time>2026-04-11T08:00:57.999Z</time></trkpt><trkpt lat="45.01122948259723" lon="8.064828153729417"><ele>194.6</ele><time>2026-04-11T08:00:59.999Z</time></trkpt><trkpt lat="45.01130845409477" lon="8.064850036705023"><ele>194.8</ele><time>2026-04-11T08:01:01.999Z</time></trkpt><trkpt lat="45.011397130782875" lon="8.064874546608472"><ele>195.0</ele><time>2026-04-11T08:01:03.999Z</time></trkpt><trkpt lat="45.0114794551334" lon="8.064901842737076"><ele>195.0</ele><time>2026-04-11T08:01:05.999Z</time></trkpt><trkpt lat="45.011557709130486" lon="8.064928343670012"><ele>195.0</ele><time>2026-04-11T08:01:07.999Z</time></trkpt><trkpt lat="45.011637629494544" lon="8.064951440486189"><ele>195.0</ele><time>2026-04-11T08:01:09.999Z</time></trkpt><trkpt lat="45.011713756678255" lon="8.064973042687965"><ele>195.0</ele><time>2026-04-11T08:01:12.999Z</time></trkpt><trkpt lat="45.011821567064054" lon="8.065010411415772"><ele>195.0</ele><time>2026-04-11T08:01:14.999Z</time></trkpt><trkpt lat="45.01188585080013" lon="8.065032630063486"><ele>195.0</ele><time>2026-04-11T08:01:16.999Z</time></trkpt><trkpt lat="45.011947954675655" lon="8.06505594127778"><ele>195.0</ele><time>2026-04-11T08:01:18.999Z</time></trkpt><trkpt lat="45.01202112096458" lon="8.065087157140225"><ele>195.0</ele><time>2026-04-11T08:01:20.999Z</time></trkpt><trkpt lat="45.01210599595849" lon="8.065113272697706"><ele>195.0</ele><time>2026-04-11T08:01:22.999Z</time></trkpt><trkpt lat="45.01219449268292" lon="8.065153983478131"><ele>195.0</ele><time>2026-04-11T08:01:25Z</time></trkpt><trkpt lat="45.01228591940981" lon="8.065209753447535"><ele>195.0</ele><time>2026-04-11T08:01:27Z</time></trkpt><trkpt lat="45.01237157298643" lon="8.065264265216726"><ele>195.0</ele><time>2026-04-11T08:01:29Z</time></trkpt><trkpt lat="45.01245654229103" lon="8.065325552266453"><ele>195.0</ele><time>2026-04-11T08:01:31Z</time></trkpt><trkpt lat="45.012515185742984" lon="8.065367960321817"><ele>195.0</ele><time>2026-04-11T08:01:34Z</time></trkpt><trkpt lat="45.0126313953964" lon="8.065450313563804"><ele>195.0</ele><time>2026-04-11T08:01:35Z</time></trkpt><trkpt lat="45.01271766220571" lon="8.065508639491151"><ele>195.0</ele><time>2026-04-11T08:01:37Z</time></trkpt><trkpt lat="45.01279506226635" lon="8.065619028011454"><ele>195.33333333333334</ele><time>2026-04-11T08:01:39Z</time></trkpt><trkpt lat="45.012859782936644" lon="8.065666790902453"><ele>195.66666666666669</ele><time>2026-04-11T08:01:41Z</time></trkpt><trkpt lat="45.01293539905397" lon="8.065722207794948"><ele>196.0</ele><time>2026-04-11T08:01:43Z</time></trkpt><trkpt lat="45.01301756081919" lon="8.065760292298163"><ele>196.33333333333334</ele><time>2026-04-11T08:01:45Z</time></trkpt><trkpt lat="45.013087341398965" lon="8.06583258188351"><ele>196.66666666666669</ele><time>2026-04-11T08:01:47Z</time></trkpt><trkpt lat="45.01317959268769" lon="8.065894452545049"><ele>197.0</ele><time>2026-04-11T08:01:49Z</time></trkpt><trkpt lat="45.013267179586336" lon="8.065950313587646"><ele>197.50000000000003</ele><time>2026-04-11T08:01:51Z</time></trkpt><trkpt lat="45.01335433481823" lon="8.066004147420042"><ele>198.0</ele><time>2026-04-11T08:01:53Z</time></trkpt><trkpt lat="45.01342242204924" lon="8.066044910421692"><ele>198.5</ele><time>2026-04-11T08:01:55Z</time></trkpt><trkpt lat="45.013481956995925" lon="8.066079468451926"><ele>199.0</ele><time>2026-04-11T08:01:56Z</time></trkpt><trkpt lat="45.01356501747598" lon="8.066128954641908"><ele>199.50000000000003</ele><time>2026-04-11T08:01:58Z</time></trkpt><trkpt lat="45.013641581713415" lon="8.066176839350431"><ele>200.0</ele><time>2026-04-11T08:02:00Z</time></trkpt><trkpt lat="45.01372242734411" lon="8.066229872516665"><ele>200.0</ele><time>2026-04-11T08:02:02Z</time></trkpt><trkpt lat="45.01380356596809" lon="8.066280267548686"><ele>200.0</ele><time>2026-04-11T08:02:04Z</time></trkpt><trkpt lat="45.01389971560396" lon="8.066287337921523"><ele>200.0</ele><time>2026-04-11T08:02:06Z</time></trkpt><trkpt lat="45.01398613464737" lon="8.0663379179751"><ele>200.0</ele><time>2026-04-11T08:02:08Z</time></trkpt><trkpt lat="45.01406755617458" lon="8.066387423938409"><ele>200.0</ele><time>2026-04-11T08:02:10Z</time></trkpt><trkpt lat="45.01415329048913" lon="8.066431997221654"><ele>199.6</ele><time>2026-04-11T08:02:12Z</time></trkpt><trkpt lat="45.01423743031006" lon="8.066476364902128"><ele>199.2</ele><time>2026-04-11T08:02:14Z</time></trkpt><trkpt lat="45.014324107078075" lon="8.066518360522323"><ele>198.8</ele><time>2026-04-11T08:02:16Z</time></trkpt><trkpt lat="45.0144044864127" lon="8.066540143567071"><ele>198.4</ele><time>2026-04-11T08:02:18Z</time></trkpt><trkpt lat="45.01450190192875" lon="8.06658570656744"><ele>198.0</ele><time>2026-04-11T08:02:20Z</time></trkpt><trkpt lat="45.01459335896661" lon="8.066612725380073"><ele>198.0</ele><time>2026-04-11T08:02:22Z</time></trkpt><trkpt lat="45.014683537816175" lon="8.066633271873506"><ele>198.0</ele><time>2026-04-11T08:02:24Z</time></trkpt><trkpt lat="45.014769042343886" lon="8.066671468954384"><ele>198.0</ele><time>2026-04-11T08:02:25.999Z</time></trkpt><trkpt lat="45.0148651604598" lon="8.066701765009562"><ele>198.0</ele><time>2026-04-11T08:02:27.999Z</time></trkpt><trkpt lat="45.014962623031174" lon="8.066736176958985"><ele>198.0</ele><time>2026-04-11T08:02:29.999Z</time></trkpt><trkpt lat="45.015058978605694" lon="8.066762012466368"><ele>197.8</ele><time>2026-04-11T08:02:31.999Z</time></trkpt><trkpt lat="45.01514750745266" lon="8.066808767294534"><ele>197.60000000000002</ele><time>2026-04-11T08:02:33.999Z</time></trkpt><trkpt lat="45.01524168607571" lon="8.066833354073895"><ele>197.39999999999998</ele><time>2026-04-11T08:02:35.999Z</time></trkpt><trkpt lat="45.015336254691846" lon="8.066882429873278"><ele>197.2</ele><time>2026-04-11T08:02:37.999Z</time></trkpt><trkpt lat="45.015431764238045" lon="8.066898528765705"><ele>197.0</ele><time>2026-04-11T08:02:39.999Z</time></trkpt><trkpt lat="45.0155210073064" lon="8.066930477807757"><ele>197.00000000000003</ele><time>2026-04-11T08:02:41.999Z</time></trkpt><trkpt lat="45.01561684819034" lon="8.066968729195677"><ele>197.0</ele><time>2026-04-11T08:02:43.999Z</time></trkpt><trkpt lat="45.01561023354409" lon="8.067075946317507"><ele>197.0</ele><time>2026-04-11T08:02:48.999Z</time></trkpt><trkpt lat="45.015611204340246" lon="8.067170456561058"><ele>197.0</ele><time>2026-04-11T08:02:50.999Z</time></trkpt><trkpt lat="45.015605169022464" lon="8.067280206588487"><ele>197.00000000000003</ele><time>2026-04-11T08:02:52.999Z</time></trkpt><trkpt lat="45.01559903886422" lon="8.067393212671723"><ele>197.0</ele><time>2026-04-11T08:02:54.999Z</time></trkpt><trkpt lat="45.01559528706959" lon="8.067490519965398"><ele>197.14285714285714</ele><time>2026-04-11T08:02:56.999Z</time></trkpt><trkpt lat="45.01559211840696" lon="8.067582920240207"><ele>197.28571428571428</ele><time>2026-04-11T08:02:58.999Z</time></trkpt><trkpt lat="45.01558767467755" lon="8.067685659986793"><ele>197.42857142857144</ele><time>2026-04-11T08:03:00.999Z</time></trkpt><trkpt lat="45.01558577237279" lon="8.067786126313827"><ele>197.57142857142856</ele><time>2026-04-11T08:03:02.999Z</time></trkpt><trkpt lat="45.01557821826216" lon="8.067885368465916"><ele>197.7142857142857</ele><time>2026-04-11T08:03:04.999Z</time></trkpt><trkpt lat="45.01557502205894" lon="8.06798452158971"><ele>197.85714285714286</ele><time>2026-04-11T08:03:06.999Z</time></trkpt><trkpt lat="45.015571054418686" lon="8.068090270469131"><ele>198.0</ele><time>2026-04-11T08:03:08.999Z</time></trkpt><trkpt lat="45.01556506132471" lon="8.068196584948119"><ele>198.16666666666666</ele><time>2026-04-11T08:03:10.999Z</time></trkpt><trkpt lat="45.01556393784573" lon="8.068301147251441"><ele>198.33333333333331</ele><time>2026-04-11T08:03:12.999Z</time></trkpt><trkpt lat="45.01555994596912" lon="8.068410364947875"><ele>198.5</ele><time>2026-04-11T08:03:14.999Z</time></trkpt><trkpt lat="45.015557821168194" lon="8.068517279812882"><ele>198.66666666666666</ele><time>2026-04-11T08:03:16.999Z</time></trkpt><trkpt lat="45.01555468381975" lon="8.068626565212345"><ele>198.83333333333331</ele><time>2026-04-11T08:03:18.999Z</time></trkpt><trkpt lat="45.015551154488456" lon="8.068735230329837"><ele>199.0</ele><time>2026-04-11T08:03:20.999Z</time></trkpt><trkpt lat="45.0155484220342" lon="8.068848111739946"><ele>198.99999999999997</ele><time>2026-04-11T08:03:22.999Z</time></trkpt><trkpt lat="45.01554574235661" lon="8.068956621820346"><ele>199.0</ele><time>2026-04-11T08:03:24.999Z</time></trkpt><trkpt lat="45.01554836675356" lon="8.069064961980496"><ele>199.0</ele><time>2026-04-11T08:03:26.999Z</time></trkpt><trkpt lat="45.0155511721492" lon="8.069174015176221"><ele>199.0</ele><time>2026-04-11T08:03:28.999Z</time></trkpt><trkpt lat="45.01555818212784" lon="8.069283806168512"><ele>198.99999999999997</ele><time>2026-04-11T08:03:31Z</time></trkpt><trkpt lat="45.015565363559325" lon="8.069395470138224"><ele>199.0</ele><time>2026-04-11T08:03:33Z</time></trkpt><trkpt lat="45.01556784865048" lon="8.069510869063297"><ele>198.99999999999997</ele><time>2026-04-11T08:03:35Z</time></trkpt><trkpt lat="45.01557786134278" lon="8.069611758038864"><ele>199.0</ele><time>2026-04-11T08:03:37Z</time></trkpt><trkpt lat="45.01558001798224" lon="8.06972613479266"><ele>199.0</ele><time>2026-04-11T08:03:39Z</time></trkpt><trkpt lat="45.015590638971624" lon="8.069831649546485"><ele>199.0</ele><time>2026-04-11T08:03:42Z</time></trkpt><trkpt lat="45.01559808430321" lon="8.069940763485508"><ele>198.99999999999997</ele><time>2026-04-11T08:03:43Z</time></trkpt><trkpt lat="45.015607208887836" lon="8.07004027890156"><ele>199.0</ele><time>2026-04-11T08:03:45Z</time></trkpt><trkpt lat="45.01561572547831" lon="8.070147312287908"><ele>198.99999999999997</ele><time>2026-04-11T08:03:47Z</time></trkpt><trkpt lat="45.01563011003734" lon="8.070253554930513"><ele>199.0</ele><time>2026-04-11T08:03:49Z</time></trkpt><trkpt lat="45.01564985082589" lon="8.070360799585785"><ele>199.0</ele><time>2026-04-11T08:03:51Z</time></trkpt><trkpt lat="45.01567406013487" lon="8.07047588501962"><ele>199.0</ele><time>2026-04-11T08:03:53Z</time></trkpt><trkpt lat="45.01569815998788" lon="8.07058359969346"><ele>198.99999999999997</ele><time>2026-04-11T08:03:55Z</time></trkpt><trkpt lat="45.01573099280871" lon="8.070716326483595"><ele>199.0</ele><time>2026-04-11T08:03:57Z</time></trkpt><trkpt lat="45.01575880832178" lon="8.07080984483381"><ele>199.33333333333331</ele><time>2026-04-11T08:03:59Z</time></trkpt><trkpt lat="45.01578556131633" lon="8.070912232320921"><ele>199.66666666666666</ele><time>2026-04-11T08:04:01Z</time></trkpt><trkpt lat="45.01581187576871" lon="8.071063689934324"><ele>200.0</ele><time>2026-04-11T08:04:04Z</time></trkpt><trkpt lat="45.01581856260084" lon="8.071168549558662"><ele>200.33333333333331</ele><time>2026-04-11T08:04:06Z</time></trkpt><trkpt lat="45.015814784521176" lon="8.071271435730345"><ele>200.66666666666666</ele><time>2026-04-11T08:04:09Z</time></trkpt><trkpt lat="45.01580057599588" lon="8.071421323031961"><ele>201.0</ele><time>2026-04-11T08:04:12Z</time></trkpt><trkpt lat="45.01579112783132" lon="8.071520574916509"><ele>201.0</ele><time>2026-04-11T08:04:15Z</time></trkpt><trkpt lat="45.01577296825879" lon="8.071621080640439"><ele>201.0</ele><time>2026-04-11T08:04:17Z</time></trkpt><trkpt lat="45.01574652886251" lon="8.071714884947824"><ele>201.0</ele><time>2026-04-11T08:04:20Z</time></trkpt><trkpt lat="45.01571636095186" lon="8.071820155956985"><ele>201.0</ele><time>2026-04-11T08:04:22Z</time></trkpt><trkpt lat="45.015690145902816" lon="8.07194259153384"><ele>201.0</ele><time>2026-04-11T08:04:25Z</time></trkpt><trkpt lat="45.01566660122007" lon="8.072074992709705"><ele>201.0</ele><time>2026-04-11T08:04:27.999Z</time></trkpt><trkpt lat="45.01563102751028" lon="8.072206036626497"><ele>201.0</ele><time>2026-04-11T08:04:30.999Z</time></trkpt><trkpt lat="45.015587284523164" lon="8.072360102690414"><ele>201.0</ele><time>2026-04-11T08:04:33.999Z</time></trkpt><trkpt lat="45.015553486558886" lon="8.072454030819268"><ele>201.0</ele><time>2026-04-11T08:04:35.999Z</time></trkpt><trkpt lat="45.015518340714756" lon="8.072546023823183"><ele>201.0</ele><time>2026-04-11T08:04:37.999Z</time></trkpt><trkpt lat="45.01548627303597" lon="8.072629228875389"><ele>201.0</ele><time>2026-04-11T08:04:39.999Z</time></trkpt><trkpt lat="45.01544979456815" lon="8.072709025333303"><ele>201.0</ele><time>2026-04-11T08:04:42.999Z</time></trkpt><trkpt lat="45.015411253588404" lon="8.072797924357168"><ele>201.14285714285714</ele><time>2026-04-11T08:04:44.999Z</time></trkpt><trkpt lat="45.01536800695169" lon="8.07288082702246"><ele>201.2857142857143</ele><time>2026-04-11T08:04:46.999Z</time></trkpt><trkpt lat="45.01532532885506" lon="8.072964199219772"><ele>201.42857142857144</ele><time>2026-04-11T08:04:48.999Z</time></trkpt><trkpt lat="45.015286074284305" lon="8.073039621090118"><ele>201.57142857142856</ele><time>2026-04-11T08:04:50.999Z</time></trkpt><trkpt lat="45.01525039425247" lon="8.073123862461022"><ele>201.71428571428572</ele><time>2026-04-11T08:04:52.999Z</time></trkpt><trkpt lat="45.01521863846818" lon="8.073210427132258"><ele>201.85714285714286</ele><time>2026-04-11T08:04:54.999Z</time></trkpt><trkpt lat="45.015176712342054" lon="8.073283853549379"><ele>202.0</ele><time>2026-04-11T08:04:56.999Z</time></trkpt><trkpt lat="45.01513396336553" lon="8.073360904289999"><ele>201.99999999999997</ele><time>2026-04-11T08:04:58.999Z</time></trkpt><trkpt lat="45.015076768098155" lon="8.073464681974654"><ele>202.0</ele><time>2026-04-11T08:05:01.999Z</time></trkpt><trkpt lat="45.01503546407234" lon="8.073571476092791"><ele>202.0</ele><time>2026-04-11T08:05:04.999Z</time></trkpt><trkpt lat="45.014996035541785" lon="8.073648586898905"><ele>202.0</ele><time>2026-04-11T08:05:06.999Z</time></trkpt><trkpt lat="45.01494947257938" lon="8.073765922570097"><ele>201.99999999999997</ele><time>2026-04-11T08:05:09.999Z</time></trkpt><trkpt lat="45.014916503954844" lon="8.073847016570475"><ele>202.0</ele><time>2026-04-11T08:05:11.999Z</time></trkpt><trkpt lat="45.01487235590145" lon="8.073968979585752"><ele>202.33333333333331</ele><time>2026-04-11T08:05:14.999Z</time></trkpt><trkpt lat="45.0148376665553" lon="8.074045600444794"><ele>202.66666666666666</ele><time>2026-04-11T08:05:16.999Z</time></trkpt><trkpt lat="45.01480592611395" lon="8.074132788837245"><ele>203.0</ele><time>2026-04-11T08:05:19.999Z</time></trkpt><trkpt lat="45.01477136963736" lon="8.074222493566577"><ele>203.33333333333331</ele><time>2026-04-11T08:05:21.999Z</time></trkpt><trkpt lat="45.01472769993199" lon="8.074331147488891"><ele>203.66666666666666</ele><time>2026-04-11T08:05:24.999Z</time></trkpt><trkpt lat="45.01468585805607" lon="8.074432294313954"><ele>204.0</ele><time>2026-04-11T08:05:27.999Z</time></trkpt><trkpt lat="45.01464728008694" lon="8.074535428475231"><ele>204.16666666666666</ele><time>2026-04-11T08:05:30.999Z</time></trkpt><trkpt lat="45.0146107771603" lon="8.074638081751813"><ele>204.33333333333331</ele><time>2026-04-11T08:05:33.999Z</time></trkpt><trkpt lat="45.01458052294283" lon="8.07472055246666"><ele>204.5</ele><time>2026-04-11T08:05:35.999Z</time></trkpt><trkpt lat="45.01454459087258" lon="8.074835760019399"><ele>204.66666666666666</ele><time>2026-04-11T08:05:39Z</time></trkpt><trkpt lat="45.01450270463481" lon="8.074947442263987"><ele>204.83333333333331</ele><time>2026-04-11T08:05:41Z</time></trkpt><trkpt lat="45.01445972787395" lon="8.075068955204957"><ele>205.0</ele><time>2026-04-11T08:05:44Z</time></trkpt><trkpt lat="45.014426049470345" lon="8.075154771686186"><ele>205.14285714285714</ele><time>2026-04-11T08:05:46Z</time></trkpt><trkpt lat="45.014398173876025" lon="8.075260139112451"><ele>205.28571428571428</ele><time>2026-04-11T08:05:48Z</time></trkpt><trkpt lat="45.01434829788628" lon="8.0753809042364"><ele>205.42857142857142</ele><time>2026-04-11T08:05:51Z</time></trkpt><trkpt lat="45.01431955165045" lon="8.075464402454934"><ele>205.57142857142856</ele><time>2026-04-11T08:05:53Z</time></trkpt><trkpt lat="45.01429613787464" lon="8.075547513447352"><ele>205.71428571428572</ele><time>2026-04-11T08:05:55Z</time></trkpt><trkpt lat="45.014266216706716" lon="8.075631639064083"><ele>205.85714285714283</ele><time>2026-04-11T08:05:57Z</time></trkpt><trkpt lat="45.01423684110168" lon="8.075712648080218"><ele>206.0</ele><time>2026-04-11T08:05:59Z</time></trkpt><trkpt lat="45.01421248820836" lon="8.075799189515148"><ele>206.00000000000003</ele><time>2026-04-11T08:06:01Z</time></trkpt><trkpt lat="45.01417321775506" lon="8.075919666709572"><ele>206.0</ele><time>2026-04-11T08:06:04Z</time></trkpt><trkpt lat="45.01414042403175" lon="8.0760347632597"><ele>206.0</ele><time>2026-04-11T08:06:07Z</time></trkpt><trkpt lat="45.014114903883346" lon="8.076119272379964"><ele>206.0</ele><time>2026-04-11T08:06:09Z</time></trkpt><trkpt lat="45.01408517897512" lon="8.07624416358737"><ele>206.00000000000003</ele><time>2026-04-11T08:06:12Z</time></trkpt><trkpt lat="45.014064325370214" lon="8.076333255838799"><ele>206.0</ele><time>2026-04-11T08:06:14Z</time></trkpt><trkpt lat="45.01405188607872" lon="8.076449796651685"><ele>205.99999999999997</ele><time>2026-04-11T08:06:17Z</time></trkpt><trkpt lat="45.01403627940879" lon="8.0765456483687"><ele>206.0</ele><time>2026-04-11T08:06:19Z</time></trkpt><trkpt lat="45.01402788133852" lon="8.076639380769286"><ele>206.0</ele><time>2026-04-11T08:06:21Z</time></trkpt><trkpt lat="45.01402780891493" lon="8.076732433488981"><ele>206.0</ele><time>2026-04-11T08:06:23Z</time></trkpt><trkpt lat="45.01403107128398" lon="8.076853917375981"><ele>206.0</ele><time>2026-04-11T08:06:26Z</time></trkpt><trkpt lat="45.0140302020512" lon="8.07694341977307"><ele>205.99999999999997</ele><time>2026-04-11T08:06:28Z</time></trkpt><trkpt lat="45.01403879761089" lon="8.077066967869518"><ele>206.0</ele><time>2026-04-11T08:06:31Z</time></trkpt><trkpt lat="45.014048451541456" lon="8.077191247292342"><ele>206.33333333333334</ele><time>2026-04-11T08:06:34Z</time></trkpt><trkpt lat="45.01405023005749" lon="8.077317462662899"><ele>206.66666666666669</ele><time>2026-04-11T08:06:37Z</time></trkpt><trkpt lat="45.01402050180695" lon="8.077431013268088"><ele>207.0</ele><time>2026-04-11T08:06:40.999Z</time></trkpt><trkpt lat="45.01397499222643" lon="8.077518081477345"><ele>207.33333333333331</ele><time>2026-04-11T08:06:43.999Z</time></trkpt><trkpt lat="45.01392971729254" lon="8.077583765832607"><ele>207.66666666666666</ele><time>2026-04-11T08:06:46.999Z</time></trkpt><trkpt lat="45.01387514782803" lon="8.07764700085755"><ele>208.0</ele><time>2026-04-11T08:06:49.999Z</time></trkpt><trkpt lat="45.01382928303646" lon="8.07771230212123"><ele>207.99999999999997</ele><time>2026-04-11T08:06:51.999Z</time></trkpt><trkpt lat="45.01377121759718" lon="8.07778268175859"><ele>208.0</ele><time>2026-04-11T08:06:54.999Z</time></trkpt><trkpt lat="45.01371733696185" lon="8.077845654302118"><ele>208.0</ele><time>2026-04-11T08:06:57.999Z</time></trkpt><trkpt lat="45.01365703910609" lon="8.077915508073358"><ele>208.0</ele><time>2026-04-11T08:07:01.999Z</time></trkpt><trkpt lat="45.01360693152528" lon="8.077980896261106"><ele>207.99999999999997</ele><time>2026-04-11T08:07:04.999Z</time></trkpt><trkpt lat="45.01353793608676" lon="8.07807463265069"><ele>208.0</ele><time>2026-04-11T08:07:07.999Z</time></trkpt><trkpt lat="45.01347447495216" lon="8.078157829206276"><ele>207.99999999999997</ele><time>2026-04-11T08:07:10.999Z</time></trkpt><trkpt lat="45.01342827138469" lon="8.078220821270934"><ele>208.0</ele><time>2026-04-11T08:07:12.999Z</time></trkpt><trkpt lat="45.01338194002439" lon="8.078281551905686"><ele>208.0</ele><time>2026-04-11T08:07:14.999Z</time></trkpt><trkpt lat="45.01331777988038" lon="8.078364846318593"><ele>208.0</ele><time>2026-04-11T08:07:17.999Z</time></trkpt><trkpt lat="45.013264919730254" lon="8.078438739998411"><ele>207.99999999999997</ele><time>2026-04-11T08:07:20.999Z</time></trkpt><trkpt lat="45.01320032167984" lon="8.078525093731507"><ele>208.0</ele><time>2026-04-11T08:07:23.999Z</time></trkpt><trkpt lat="45.01313250221011" lon="8.078614097424698"><ele>208.66666666666666</ele><time>2026-04-11T08:07:26.999Z</time></trkpt><trkpt lat="45.01308602074629" lon="8.078674533217987"><ele>209.33333333333331</ele><time>2026-04-11T08:07:28.999Z</time></trkpt><trkpt lat="45.013016114663756" lon="8.078763183622847"><ele>210.0</ele><time>2026-04-11T08:07:31.999Z</time></trkpt><trkpt lat="45.012964523096336" lon="8.07882524593933"><ele>210.66666666666669</ele><time>2026-04-11T08:07:33.999Z</time></trkpt><trkpt lat="45.012878802719335" lon="8.078938131000053"><ele>211.33333333333334</ele><time>2026-04-11T08:07:37.999Z</time></trkpt><trkpt lat="45.012823321392176" lon="8.07899428462035"><ele>212.0</ele><time>2026-04-11T08:07:39.999Z</time></trkpt><trkpt lat="45.0127691593893" lon="8.079049767340454"><ele>212.00000000000003</ele><time>2026-04-11T08:07:41.999Z</time></trkpt><trkpt lat="45.01271378999195" lon="8.079100200239221"><ele>212.0</ele><time>2026-04-11T08:07:44Z</time></trkpt><trkpt lat="45.01264582870816" lon="8.079163756065139"><ele>212.0</ele><time>2026-04-11T08:07:47Z</time></trkpt><trkpt lat="45.01258014487666" lon="8.079217264297071"><ele>212.0</ele><time>2026-04-11T08:07:50Z</time></trkpt><trkpt lat="45.012515417954994" lon="8.079272434747041"><ele>212.00000000000003</ele><time>2026-04-11T08:07:53Z</time></trkpt><trkpt lat="45.01243687970938" lon="8.07932155166045"><ele>212.0</ele><time>2026-04-11T08:07:56Z</time></trkpt><trkpt lat="45.01236849977689" lon="8.07937198080039"><ele>212.66666666666669</ele><time>2026-04-11T08:07:59Z</time></trkpt><trkpt lat="45.012298436247775" lon="8.079442633921555"><ele>213.33333333333334</ele><time>2026-04-11T08:08:03Z</time></trkpt><trkpt lat="45.012217860051614" lon="8.079508006400724"><ele>214.0</ele><time>2026-04-11T08:08:06Z</time></trkpt><trkpt lat="45.012153919194795" lon="8.079577947165104"><ele>214.66666666666669</ele><time>2026-04-11T08:08:10Z</time></trkpt><trkpt lat="45.01208797051658" lon="8.079640548374483"><ele>215.33333333333334</ele><time>2026-04-11T08:08:13Z</time></trkpt><trkpt lat="45.01202644258903" lon="8.079712710661914"><ele>216.0</ele><time>2026-04-11T08:08:15Z</time></trkpt><trkpt lat="45.01197351926705" lon="8.079773098347385"><ele>216.0</ele><time>2026-04-11T08:08:18Z</time></trkpt><trkpt lat="45.01191319726111" lon="8.079830928176403"><ele>216.0</ele><time>2026-04-11T08:08:21Z</time></trkpt><trkpt lat="45.011857317635396" lon="8.079894812236168"><ele>216.0</ele><time>2026-04-11T08:08:24Z</time></trkpt><trkpt lat="45.01179130726751" lon="8.07994933571092"><ele>216.0</ele><time>2026-04-11T08:08:27Z</time></trkpt><trkpt lat="45.01172821051674" lon="8.080005570757235"><ele>216.0</ele><time>2026-04-11T08:08:30Z</time></trkpt><trkpt lat="45.01166968222249" lon="8.080071898387986"><ele>216.0</ele><time>2026-04-11T08:08:34Z</time></trkpt><trkpt lat="45.01161638752344" lon="8.080130284602209"><ele>216.0</ele><time>2026-04-11T08:08:36.999Z</time></trkpt><trkpt lat="45.01154284575402" lon="8.080195021903156"><ele>216.71428571428572</ele><time>2026-04-11T08:08:39.999Z</time></trkpt><trkpt lat="45.011484748379516" lon="8.080243763709335"><ele>217.42857142857142</ele><time>2026-04-11T08:08:42.999Z</time></trkpt><trkpt lat="45.01142222333039" lon="8.080303692449098"><ele>218.14285714285717</ele><time>2026-04-11T08:08:45.999Z</time></trkpt><trkpt lat="45.0113613573182" lon="8.080350416944231"><ele>218.85714285714286</ele><time>2026-04-11T08:08:48.999Z</time></trkpt><trkpt lat="45.01130245947426" lon="8.08039500327246"><ele>219.57142857142858</ele><time>2026-04-11T08:08:51.999Z</time></trkpt><trkpt lat="45.011244627786965" lon="8.080447670746784"><ele>220.2857142857143</ele><time>2026-04-11T08:08:54.999Z</time></trkpt><trkpt lat="45.011181306145026" lon="8.080495781187532"><ele>221.0</ele><time>2026-04-11T08:08:57.999Z</time></trkpt><trkpt lat="45.011133330597" lon="8.080555963573318"><ele>221.00000000000003</ele><time>2026-04-11T08:09:01.999Z</time></trkpt><trkpt lat="45.01108430110339" lon="8.080615895983378"><ele>221.0</ele><time>2026-04-11T08:09:04.999Z</time></trkpt><trkpt lat="45.01102202489787" lon="8.080695935119232"><ele>221.0</ele><time>2026-04-11T08:09:07.999Z</time></trkpt><trkpt lat="45.01098320526696" lon="8.080768661867449"><ele>221.0</ele><time>2026-04-11T08:09:10.999Z</time></trkpt><trkpt lat="45.010947456044484" lon="8.080855371014817"><ele>221.0</ele><time>2026-04-11T08:09:14.999Z</time></trkpt><trkpt lat="45.010905967183085" lon="8.080965065621085"><ele>221.00000000000003</ele><time>2026-04-11T08:09:18.999Z</time></trkpt><trkpt lat="45.01086880098827" lon="8.081043301396333"><ele>221.0</ele><time>2026-04-11T08:09:22.999Z</time></trkpt><trkpt lat="45.01082998307973" lon="8.081122060294062"><ele>221.8571428571429</ele><time>2026-04-11T08:09:26.999Z</time></trkpt><trkpt lat="45.01080224856097" lon="8.081225286838658"><ele>222.71428571428572</ele><time>2026-04-11T08:09:29.999Z</time></trkpt><trkpt lat="45.010764093364" lon="8.081318707550269"><ele>223.57142857142858</ele><time>2026-04-11T08:09:33.999Z</time></trkpt><trkpt lat="45.010731130408786" lon="8.081411061708812"><ele>224.42857142857144</ele><time>2026-04-11T08:09:36.999Z</time></trkpt><trkpt lat="45.01070123624816" lon="8.081493049156428"><ele>225.2857142857143</ele><time>2026-04-11T08:09:39.999Z</time></trkpt><trkpt lat="45.01066428934944" lon="8.081586725222648"><ele>226.14285714285717</ele><time>2026-04-11T08:09:43.999Z</time></trkpt><trkpt lat="45.01063029065586" lon="8.081669016290673"><ele>227.0</ele><time>2026-04-11T08:09:47.999Z</time></trkpt><trkpt lat="45.01058991477126" lon="8.081749402281764"><ele>228.2857142857143</ele><time>2026-04-11T08:09:52Z</time></trkpt><trkpt lat="45.010551669833696" lon="8.081845430540508"><ele>229.5714285714286</ele><time>2026-04-11T08:09:56Z</time></trkpt><trkpt lat="45.01049961381615" lon="8.081934193652874"><ele>230.85714285714286</ele><time>2026-04-11T08:10:01Z</time></trkpt><trkpt lat="45.010452258138486" lon="8.082002417770012"><ele>232.14285714285717</ele><time>2026-04-11T08:10:05Z</time></trkpt><trkpt lat="45.010398661833946" lon="8.082082627164198"><ele>233.42857142857144</ele><time>2026-04-11T08:10:09Z</time></trkpt><trkpt lat="45.0103521383729" lon="8.082149529817215"><ele>234.71428571428572</ele><time>2026-04-11T08:10:13Z</time></trkpt><trkpt lat="45.010309747465065" lon="8.082225032214234"><ele>236.0</ele><time>2026-04-11T08:10:16Z</time></trkpt><trkpt lat="45.01024640893709" lon="8.082280675005903"><ele>236.00000000000003</ele><time>2026-04-11T08:10:21Z</time></trkpt><trkpt lat="45.010188633647324" lon="8.082344863563852"><ele>236.0</ele><time>2026-04-11T08:10:25Z</time></trkpt><trkpt lat="45.010126426912144" lon="8.082398085209633"><ele>236.0</ele><time>2026-04-11T08:10:30Z</time></trkpt><trkpt lat="45.01007954003207" lon="8.082460994182895"><ele>236.0</ele><time>2026-04-11T08:10:34Z</time></trkpt><trkpt lat="45.01003593597309" lon="8.08254264079312"><ele>236.00000000000003</ele><time>2026-04-11T08:10:38Z</time></trkpt><trkpt lat="45.00997969236214" lon="8.082619380678178"><ele>236.0</ele><time>2026-04-11T08:10:42Z</time></trkpt><trkpt lat="45.009923268408286" lon="8.082720274449064"><ele>236.14285714285714</ele><time>2026-04-11T08:10:46.999Z</time></trkpt><trkpt lat="45.0098845268691" lon="8.082790537215041"><ele>236.28571428571428</ele><time>2026-04-11T08:10:50.999Z</time></trkpt><trkpt lat="45.00984044340119" lon="8.082868888904864"><ele>236.42857142857142</ele><time>2026-04-11T08:10:53.999Z</time></trkpt><trkpt lat="45.00979245390845" lon="8.082953486749998"><ele>236.57142857142856</ele><time>2026-04-11T08:10:57.999Z</time></trkpt><trkpt lat="45.009745455368204" lon="8.08303762641746"><ele>236.71428571428572</ele><time>2026-04-11T08:11:01.999Z</time></trkpt><trkpt lat="45.00970134088163" lon="8.083106629079543"><ele>236.85714285714283</ele><time>2026-04-11T08:11:05.999Z</time></trkpt><trkpt lat="45.009662513284475" lon="8.08317950291784"><ele>236.99999999999997</ele><time>2026-04-11T08:11:08.999Z</time></trkpt><trkpt lat="45.00962206386552" lon="8.083278206600362"><ele>237.85714285714283</ele><time>2026-04-11T08:11:13.999Z</time></trkpt><trkpt lat="45.009605749298586" lon="8.083365671746026"><ele>238.71428571428572</ele><time>2026-04-11T08:11:17.999Z</time></trkpt><trkpt lat="45.009601330620114" lon="8.083462210364566"><ele>239.57142857142856</ele><time>2026-04-11T08:11:21.999Z</time></trkpt><trkpt lat="45.00960761893222" lon="8.083567116505817"><ele>240.42857142857142</ele><time>2026-04-11T08:11:25.999Z</time></trkpt><trkpt lat="45.00961677717344" lon="8.083665299422858"><ele>241.28571428571428</ele><time>2026-04-11T08:11:29.999Z</time></trkpt><trkpt lat="45.009615435147566" lon="8.083766598373684"><ele>242.14285714285714</ele><time>2026-04-11T08:11:33.999Z</time></trkpt><trkpt lat="45.00960698404142" lon="8.083864212984212"><ele>243.0</ele><time>2026-04-11T08:11:37.999Z</time></trkpt><trkpt lat="45.009587727212896" lon="8.083950820638393"><ele>243.0</ele><time>2026-04-11T08:11:41.999Z</time></trkpt><trkpt lat="45.009568802018016" lon="8.084041249356401"><ele>243.0</ele><time>2026-04-11T08:11:45.999Z</time></trkpt><trkpt lat="45.009551021453056" lon="8.08412909784596"><ele>243.0</ele><time>2026-04-11T08:11:49.999Z</time></trkpt><trkpt lat="45.009528726177095" lon="8.084218126515552"><ele>243.0</ele><time>2026-04-11T08:11:53.999Z</time></trkpt><trkpt lat="45.009507335376355" lon="8.084316882133411"><ele>243.0</ele><time>2026-04-11T08:11:59Z</time></trkpt><trkpt lat="45.00947414480601" lon="8.084398683962322"><ele>243.0</ele><time>2026-04-11T08:12:04Z</time></trkpt><trkpt lat="45.00945494920959" lon="8.084503483705266"><ele>243.0</ele><time>2026-04-11T08:12:10Z</time></trkpt><trkpt lat="45.00943271718677" lon="8.084597028403147"><ele>244.42857142857142</ele><time>2026-04-11T08:12:15Z</time></trkpt><trkpt lat="45.009391086867666" lon="8.08469214567998"><ele>245.8571428571429</ele><time>2026-04-11T08:12:21Z</time></trkpt><trkpt lat="45.009358544383254" lon="8.084778838300972"><ele>247.2857142857143</ele><time>2026-04-11T08:12:26Z</time></trkpt><trkpt lat="45.009318329616086" lon="8.084862213706913"><ele>248.71428571428572</ele><time>2026-04-11T08:12:31Z</time></trkpt><trkpt lat="45.009289964521834" lon="8.084954560128654"><ele>250.14285714285717</ele><time>2026-04-11T08:12:36Z</time></trkpt><trkpt lat="45.00929704774336" lon="8.085057235172833"><ele>251.5714285714286</ele><time>2026-04-11T08:12:41Z</time></trkpt><trkpt lat="45.00932731953433" lon="8.085158719609595"><ele>253.00000000000003</ele><time>2026-04-11T08:12:46Z</time></trkpt><trkpt lat="45.009353964655595" lon="8.085247317357561"><ele>255.5714285714286</ele><time>2026-04-11T08:12:50.999Z</time></trkpt><trkpt lat="45.00941310424481" lon="8.085278406447282"><ele>258.14285714285717</ele><time>2026-04-11T08:12:55.999Z</time></trkpt><trkpt lat="45.009435008914856" lon="8.085393070391325"><ele>260.7142857142857</ele><time>2026-04-11T08:12:59.999Z</time></trkpt><trkpt lat="45.00945654678618" lon="8.085483644950875"><ele>263.28571428571433</ele><time>2026-04-11T08:13:02.999Z</time></trkpt><trkpt lat="45.00949042622196" lon="8.08559169162172"><ele>265.8571428571429</ele><time>2026-04-11T08:13:05.999Z</time></trkpt><trkpt lat="45.009511249120074" lon="8.085702459043393"><ele>268.42857142857144</ele><time>2026-04-11T08:13:08.999Z</time></trkpt><trkpt lat="45.00954508551649" lon="8.085787521970918"><ele>271.0</ele><time>2026-04-11T08:13:11.999Z</time></trkpt><trkpt lat="45.00959010829034" lon="8.085898709157192"><ele>272.8333333333333</ele><time>2026-04-11T08:13:14.999Z</time></trkpt><trkpt lat="45.00963047108196" lon="8.086014226705878"><ele>274.66666666666663</ele><time>2026-04-11T08:13:17.999Z</time></trkpt><trkpt lat="45.0096680282682" lon="8.086100198996418"><ele>276.5</ele><time>2026-04-11T08:13:20.999Z</time></trkpt><trkpt lat="45.00972821944367" lon="8.086149065554155"><ele>278.3333333333333</ele><time>2026-04-11T08:13:23.999Z</time></trkpt><trkpt lat="45.00980873087112" lon="8.0862074437314"><ele>280.1666666666667</ele><time>2026-04-11T08:13:26.999Z</time></trkpt><trkpt lat="45.00987913092969" lon="8.086260456323286"><ele>282.0</ele><time>2026-04-11T08:13:28.999Z</time></trkpt><trkpt lat="45.00999038975544" lon="8.086277374743624"><ele>280.5</ele><time>2026-04-11T08:13:30.999Z</time></trkpt><trkpt lat="45.01005467922954" lon="8.086275127294076"><ele>279.0</ele><time>2026-04-11T08:13:31.999Z</time></trkpt><trkpt lat="45.010119789024806" lon="8.08627296456934"><ele>277.5</ele><time>2026-04-11T08:13:32.999Z</time></trkpt><trkpt lat="45.01023174010151" lon="8.086264932260512"><ele>276.0</ele><time>2026-04-11T08:13:34.999Z</time></trkpt><trkpt lat="45.010328589692676" lon="8.086241156685293"><ele>274.5</ele><time>2026-04-11T08:13:36.999Z</time></trkpt><trkpt lat="45.01042841680562" lon="8.086232371793736"><ele>273.0</ele><time>2026-04-11T08:13:38.999Z</time></trkpt><trkpt lat="45.010503041309896" lon="8.08622580476516"><ele>273.0</ele><time>2026-04-11T08:13:40.999Z</time></trkpt><trkpt lat="45.0105371950954" lon="8.086496938413607"><ele>273.0</ele><time>2026-04-11T08:13:47.999Z</time></trkpt><trkpt lat="45.01048143614753" lon="8.086564179076616"><ele>273.0</ele><time>2026-04-11T08:13:49.999Z</time></trkpt><trkpt lat="45.01043121525064" lon="8.086640840330615"><ele>273.0</ele><time>2026-04-11T08:13:51.999Z</time></trkpt><trkpt lat="45.01037276933602" lon="8.086711645249984"><ele>273.0</ele><time>2026-04-11T08:13:54.999Z</time></trkpt><trkpt lat="45.01030257290691" lon="8.086717758779919"><ele>272.1666666666667</ele><time>2026-04-11T08:13:57.999Z</time></trkpt><trkpt lat="45.0102211494119" lon="8.086674011143945"><ele>271.3333333333333</ele><time>2026-04-11T08:14:01Z</time></trkpt><trkpt lat="45.01013523013377" lon="8.08665421775902"><ele>270.5</ele><time>2026-04-11T08:14:04Z</time></trkpt><trkpt lat="45.010051283510364" lon="8.086644238341936"><ele>269.66666666666663</ele><time>2026-04-11T08:14:07Z</time></trkpt><trkpt lat="45.009966707673925" lon="8.086638594867717"><ele>268.8333333333333</ele><time>2026-04-11T08:14:10Z</time></trkpt><trkpt lat="45.009870582717554" lon="8.086641233163158"><ele>268.0</ele><time>2026-04-11T08:14:14Z</time></trkpt><trkpt lat="45.00980452632649" lon="8.086650477294652"><ele>268.0</ele><time>2026-04-11T08:14:17Z</time></trkpt><trkpt lat="45.009737742117345" lon="8.086672404657872"><ele>268.0</ele><time>2026-04-11T08:14:20Z</time></trkpt><trkpt lat="45.00965910010062" lon="8.086708089774422"><ele>268.0</ele><time>2026-04-11T08:14:23Z</time></trkpt><trkpt lat="45.009580323957756" lon="8.086747083949414"><ele>268.0</ele><time>2026-04-11T08:14:26Z</time></trkpt><trkpt lat="45.009475403174704" lon="8.086819717743948"><ele>268.0</ele><time>2026-04-11T08:14:29Z</time></trkpt><trkpt lat="45.009413720365195" lon="8.086856575525726"><ele>268.0</ele><time>2026-04-11T08:14:31Z</time></trkpt><trkpt lat="45.00935471555996" lon="8.086899676731894"><ele>268.0</ele><time>2026-04-11T08:14:33Z</time></trkpt><trkpt lat="45.00928788521075" lon="8.086953033366946"><ele>268.0</ele><time>2026-04-11T08:14:35Z</time></trkpt><trkpt lat="45.009221108451655" lon="8.087020474184607"><ele>268.0</ele><time>2026-04-11T08:14:37Z</time></trkpt><trkpt lat="45.00914013618018" lon="8.087091483327765"><ele>268.0</ele><time>2026-04-11T08:14:39Z</time></trkpt><trkpt lat="45.009063333163446" lon="8.087163684235913"><ele>268.0</ele><time>2026-04-11T08:14:41Z</time></trkpt><trkpt lat="45.00896194972352" lon="8.087266489153228"><ele>269.8</ele><time>2026-04-11T08:14:43Z</time></trkpt><trkpt lat="45.00886948037238" lon="8.087340060980607"><ele>271.6</ele><time>2026-04-11T08:14:45Z</time></trkpt><trkpt lat="45.008775154896355" lon="8.087433509117528"><ele>273.4</ele><time>2026-04-11T08:14:47Z</time></trkpt><trkpt lat="45.008688563999286" lon="8.087548595531874"><ele>275.2</ele><time>2026-04-11T08:14:49Z</time></trkpt><trkpt lat="45.0086416399354" lon="8.087612539351445"><ele>277.0</ele><time>2026-04-11T08:14:50Z</time></trkpt><trkpt lat="45.00854658239426" lon="8.087714935827083"><ele>277.0</ele><time>2026-04-11T08:14:51.999Z</time></trkpt><trkpt lat="45.00847389618357" lon="8.087812212077464"><ele>277.0</ele><time>2026-04-11T08:14:53.999Z</time></trkpt><trkpt lat="45.008405834468114" lon="8.087873347903244"><ele>277.0</ele><time>2026-04-11T08:14:55.999Z</time></trkpt><trkpt lat="45.00833774247247" lon="8.087937719712214"><ele>277.0</ele><time>2026-04-11T08:14:57.999Z</time></trkpt><trkpt lat="45.0082675274442" lon="8.087983060530885"><ele>277.0</ele><time>2026-04-11T08:14:59.999Z</time></trkpt><trkpt lat="45.00819137257304" lon="8.08802242824465"><ele>277.0</ele><time>2026-04-11T08:15:01.999Z</time></trkpt><trkpt lat="45.00811889602672" lon="8.08806310932956"><ele>278.1428571428571</ele><time>2026-04-11T08:15:03.999Z</time></trkpt><trkpt lat="45.0080515426704" lon="8.0880853945732"><ele>279.2857142857143</ele><time>2026-04-11T08:15:06.999Z</time></trkpt><trkpt lat="45.00798559923022" lon="8.088124866902533"><ele>280.42857142857144</ele><time>2026-04-11T08:15:09.999Z</time></trkpt><trkpt lat="45.00791174561874" lon="8.088120610185019"><ele>281.57142857142856</ele><time>2026-04-11T08:15:12.999Z</time></trkpt><trkpt lat="45.007827280511265" lon="8.088124437868018"><ele>282.7142857142857</ele><time>2026-04-11T08:15:14.999Z</time></trkpt><trkpt lat="45.00775210749821" lon="8.088126800418046"><ele>283.85714285714283</ele><time>2026-04-11T08:15:16.999Z</time></trkpt><trkpt lat="45.007685894565725" lon="8.088118521354597"><ele>285.0</ele><time>2026-04-11T08:15:18.999Z</time></trkpt><trkpt lat="45.007619783005474" lon="8.088115222699578"><ele>285.0</ele><time>2026-04-11T08:15:20.999Z</time></trkpt><trkpt lat="45.007555858569035" lon="8.088111787401676"><ele>285.0</ele><time>2026-04-11T08:15:22.999Z</time></trkpt><trkpt lat="45.00746383960219" lon="8.088116693444755"><ele>285.0</ele><time>2026-04-11T08:15:25.999Z</time></trkpt><trkpt lat="45.00736483890742" lon="8.088142568597885"><ele>285.0</ele><time>2026-04-11T08:15:29.999Z</time></trkpt><trkpt lat="45.00728998821803" lon="8.088166836418962"><ele>285.0</ele><time>2026-04-11T08:15:31.999Z</time></trkpt><trkpt lat="45.00722656775455" lon="8.088183672755523"><ele>285.0</ele><time>2026-04-11T08:15:33.999Z</time></trkpt><trkpt lat="45.00713583601217" lon="8.088227544732135"><ele>283.85714285714283</ele><time>2026-04-11T08:15:36.999Z</time></trkpt><trkpt lat="45.00706514374871" lon="8.08825644857208"><ele>282.7142857142857</ele><time>2026-04-11T08:15:38.999Z</time></trkpt><trkpt lat="45.007005539159934" lon="8.088286505011318"><ele>281.57142857142856</ele><time>2026-04-11T08:15:40.999Z</time></trkpt><trkpt lat="45.00694250163087" lon="8.08832403920458"><ele>280.42857142857144</ele><time>2026-04-11T08:15:42.999Z</time></trkpt><trkpt lat="45.00686752629136" lon="8.088371602460898"><ele>279.2857142857143</ele><time>2026-04-11T08:15:44.999Z</time></trkpt><trkpt lat="45.00680955835019" lon="8.088413899472181"><ele>278.1428571428571</ele><time>2026-04-11T08:15:46.999Z</time></trkpt><trkpt lat="45.00674714686395" lon="8.088461061419814"><ele>277.0</ele><time>2026-04-11T08:15:48.999Z</time></trkpt><trkpt lat="45.00665956499326" lon="8.088531099127279"><ele>277.0</ele><time>2026-04-11T08:15:51.999Z</time></trkpt><trkpt lat="45.00659271581614" lon="8.088578930018818"><ele>277.0</ele><time>2026-04-11T08:15:53.999Z</time></trkpt><trkpt lat="45.00651618757628" lon="8.088619089446285"><ele>277.0</ele><time>2026-04-11T08:15:55.999Z</time></trkpt><trkpt lat="45.00645495967915" lon="8.088655340014471"><ele>277.0</ele><time>2026-04-11T08:15:57.999Z</time></trkpt><trkpt lat="45.00639150747036" lon="8.088693149525513"><ele>277.0</ele><time>2026-04-11T08:15:59.999Z</time></trkpt><trkpt lat="45.00633388509743" lon="8.088749562431836"><ele>277.0</ele><time>2026-04-11T08:16:01.999Z</time></trkpt><trkpt lat="45.00628809470363" lon="8.0888166147732"><ele>277.0</ele><time>2026-04-11T08:16:03.999Z</time></trkpt><trkpt lat="45.00623197837551" lon="8.088859681177647"><ele>277.0</ele><time>2026-04-11T08:16:07Z</time></trkpt><trkpt lat="45.006146912089086" lon="8.0888447944015"><ele>277.0</ele><time>2026-04-11T08:16:10Z</time></trkpt><trkpt lat="45.00607124933947" lon="8.08878413501991"><ele>277.0</ele><time>2026-04-11T08:16:12Z</time></trkpt><trkpt lat="45.00600788116979" lon="8.088698539000392"><ele>277.0</ele><time>2026-04-11T08:16:16Z</time></trkpt><trkpt lat="45.005939616854086" lon="8.088634299617032"><ele>277.0</ele><time>2026-04-11T08:16:20Z</time></trkpt><trkpt lat="45.005872841961654" lon="8.088584660574517"><ele>277.0</ele><time>2026-04-11T08:16:24Z</time></trkpt><trkpt lat="45.00580699740818" lon="8.088540887639054"><ele>276.16666666666663</ele><time>2026-04-11T08:16:28Z</time></trkpt><trkpt lat="45.00576242278982" lon="8.088477409812679"><ele>275.3333333333333</ele><time>2026-04-11T08:16:31Z</time></trkpt><trkpt lat="45.00571228815076" lon="8.088414978508075"><ele>274.5</ele><time>2026-04-11T08:16:34Z</time></trkpt><trkpt lat="45.00563876511327" lon="8.088342149370984"><ele>273.6666666666667</ele><time>2026-04-11T08:16:37Z</time></trkpt><trkpt lat="45.005572145479896" lon="8.088284415061903"><ele>272.83333333333337</ele><time>2026-04-11T08:16:39Z</time></trkpt><trkpt lat="45.005522837573096" lon="8.088221390144815"><ele>272.0</ele><time>2026-04-11T08:16:41Z</time></trkpt><trkpt lat="45.00542798615848" lon="8.088184779422916"><ele>272.0</ele><time>2026-04-11T08:16:44Z</time></trkpt><trkpt lat="45.00536471945033" lon="8.088158298005787"><ele>272.0</ele><time>2026-04-11T08:16:46Z</time></trkpt><trkpt lat="45.0052745194289" lon="8.088131836527998"><ele>272.0</ele><time>2026-04-11T08:16:49Z</time></trkpt><trkpt lat="45.005190923474856" lon="8.088083580155244"><ele>272.0</ele><time>2026-04-11T08:16:52Z</time></trkpt><trkpt lat="45.00511508780515" lon="8.088033327506098"><ele>272.0</ele><time>2026-04-11T08:16:55Z</time></trkpt><trkpt lat="45.0050407271136" lon="8.087967154218754"><ele>272.0</ele><time>2026-04-11T08:16:58Z</time></trkpt><trkpt lat="45.00496986707232" lon="8.087901911312587"><ele>273.0</ele><time>2026-04-11T08:17:00.999Z</time></trkpt><trkpt lat="45.00491091221661" lon="8.087813637171841"><ele>274.0</ele><time>2026-04-11T08:17:03.999Z</time></trkpt><trkpt lat="45.004842472198234" lon="8.087731931247818"><ele>275.0</ele><time>2026-04-11T08:17:06.999Z</time></trkpt><trkpt lat="45.00478871426627" lon="8.087634405678987"><ele>276.0</ele><time>2026-04-11T08:17:09.999Z</time></trkpt><trkpt lat="45.00474046057022" lon="8.08753285300949"><ele>277.0</ele><time>2026-04-11T08:17:12.999Z</time></trkpt><trkpt lat="45.00469858200306" lon="8.087425051631167"><ele>278.0</ele><time>2026-04-11T08:17:15.999Z</time></trkpt><trkpt lat="45.00465715638246" lon="8.087324850789486"><ele>278.0</ele><time>2026-04-11T08:17:18.999Z</time></trkpt><trkpt lat="45.004598292949865" lon="8.087234885239786"><ele>278.0</ele><time>2026-04-11T08:17:21.999Z</time></trkpt><trkpt lat="45.004523752252354" lon="8.08716685321205"><ele>278.0</ele><time>2026-04-11T08:17:24.999Z</time></trkpt><trkpt lat="45.004438376695504" lon="8.087133134426992"><ele>278.0</ele><time>2026-04-11T08:17:27.999Z</time></trkpt><trkpt lat="45.00435095713575" lon="8.087120951992688"><ele>278.0</ele><time>2026-04-11T08:17:30.999Z</time></trkpt><trkpt lat="45.00426493108101" lon="8.08712292727452"><ele>278.0</ele><time>2026-04-11T08:17:33.999Z</time></trkpt><trkpt lat="45.0041862629583" lon="8.087122132124003"><ele>279.83333333333337</ele><time>2026-04-11T08:17:36.999Z</time></trkpt><trkpt lat="45.004105046665295" lon="8.087108942113835"><ele>281.6666666666667</ele><time>2026-04-11T08:17:39.999Z</time></trkpt><trkpt lat="45.00402577784726" lon="8.087063073782513"><ele>283.5</ele><time>2026-04-11T08:17:42.999Z</time></trkpt><trkpt lat="45.003956435408384" lon="8.087022691948503"><ele>285.3333333333333</ele><time>2026-04-11T08:17:45.999Z</time></trkpt><trkpt lat="45.003870780597595" lon="8.086993450099577"><ele>287.16666666666663</ele><time>2026-04-11T08:17:48.999Z</time></trkpt><trkpt lat="45.003790107616105" lon="8.086980896707548"><ele>289.0</ele><time>2026-04-11T08:17:51.999Z</time></trkpt><trkpt lat="45.003713611012515" lon="8.08698838515741"><ele>289.0</ele><time>2026-04-11T08:17:54.999Z</time></trkpt><trkpt lat="45.00363963178613" lon="8.087016347998409"><ele>289.0</ele><time>2026-04-11T08:17:57.999Z</time></trkpt><trkpt lat="45.003577744531995" lon="8.087049431770113"><ele>289.0</ele><time>2026-04-11T08:18:00.999Z</time></trkpt><trkpt lat="45.00351287409477" lon="8.087093449754041"><ele>289.0</ele><time>2026-04-11T08:18:03.999Z</time></trkpt><trkpt lat="45.003446623653254" lon="8.087146157772695"><ele>289.0</ele><time>2026-04-11T08:18:06.999Z</time></trkpt><trkpt lat="45.00339651197403" lon="8.087211101804735"><ele>289.0</ele><time>2026-04-11T08:18:09.999Z</time></trkpt><trkpt lat="45.00334116059441" lon="8.087274676575376"><ele>289.0</ele><time>2026-04-11T08:18:13Z</time></trkpt><trkpt lat="45.00329236614425" lon="8.08735606995462"><ele>288.8333333333333</ele><time>2026-04-11T08:18:17Z</time></trkpt><trkpt lat="45.00327785611385" lon="8.087466846539048"><ele>288.66666666666663</ele><time>2026-04-11T08:18:22Z</time></trkpt><trkpt lat="45.003308827526624" lon="8.087561993782217"><ele>288.5</ele><time>2026-04-11T08:18:25Z</time></trkpt><trkpt lat="45.003370092279916" lon="8.087678620470609"><ele>288.3333333333333</ele><time>2026-04-11T08:18:29Z</time></trkpt><trkpt lat="45.003408752550065" lon="8.087767460143784"><ele>288.1666666666667</ele><time>2026-04-11T08:18:32Z</time></trkpt><trkpt lat="45.003453354806545" lon="8.087855849454238"><ele>288.0</ele><time>2026-04-11T08:18:35Z</time></trkpt><trkpt lat="45.003499364720234" lon="8.08793361265058"><ele>288.0</ele><time>2026-04-11T08:18:38Z</time></trkpt><trkpt lat="45.003544935348444" lon="8.088017997533015"><ele>288.0</ele><time>2026-04-11T08:18:41Z</time></trkpt><trkpt lat="45.00358587002893" lon="8.08810267683939"><ele>288.0</ele><time>2026-04-11T08:18:44Z</time></trkpt><trkpt lat="45.00362204767897" lon="8.08819731580551"><ele>288.0</ele><time>2026-04-11T08:18:47Z</time></trkpt><trkpt lat="45.003653626978156" lon="8.088294768926795"><ele>288.0</ele><time>2026-04-11T08:18:51Z</time></trkpt><trkpt lat="45.00367833391039" lon="8.088388295061234"><ele>288.0</ele><time>2026-04-11T08:18:54Z</time></trkpt><trkpt lat="45.003700808471606" lon="8.088530666589932"><ele>287.5</ele><time>2026-04-11T08:18:57Z</time></trkpt><trkpt lat="45.003696350212934" lon="8.088644287441259"><ele>287.0</ele><time>2026-04-11T08:19:00Z</time></trkpt><trkpt lat="45.003673368431535" lon="8.088754118794396"><ele>286.5</ele><time>2026-04-11T08:19:03Z</time></trkpt><trkpt lat="45.00362641805562" lon="8.088846386158435"><ele>286.0</ele><time>2026-04-11T08:19:06Z</time></trkpt><trkpt lat="45.00356163622586" lon="8.088926468117222"><ele>285.5</ele><time>2026-04-11T08:19:08.999Z</time></trkpt><trkpt lat="45.00351512673149" lon="8.088989777415083"><ele>285.0</ele><time>2026-04-11T08:19:11.999Z</time></trkpt><trkpt lat="45.00345755945603" lon="8.089029817954255"><ele>285.0</ele><time>2026-04-11T08:19:13.999Z</time></trkpt><trkpt lat="45.003380502461994" lon="8.089085912864151"><ele>285.0</ele><time>2026-04-11T08:19:16.999Z</time></trkpt><trkpt lat="45.00330890995391" lon="8.089131932158027"><ele>285.0</ele><time>2026-04-11T08:19:19.999Z</time></trkpt><trkpt lat="45.00324142001921" lon="8.08918100286114"><ele>285.0</ele><time>2026-04-11T08:19:22.999Z</time></trkpt><trkpt lat="45.00317631657722" lon="8.089238421110863"><ele>285.0</ele><time>2026-04-11T08:19:25.999Z</time></trkpt><trkpt lat="45.003118138934816" lon="8.08929585721344"><ele>285.0</ele><time>2026-04-11T08:19:28.999Z</time></trkpt><trkpt lat="45.00306165877787" lon="8.089364871704436"><ele>285.0</ele><time>2026-04-11T08:19:31.999Z</time></trkpt><trkpt lat="45.00301850549436" lon="8.08943003286414"><ele>285.0</ele><time>2026-04-11T08:19:34.999Z</time></trkpt><trkpt lat="45.002965357894624" lon="8.089542825869257"><ele>285.0</ele><time>2026-04-11T08:19:37.999Z</time></trkpt><trkpt lat="45.002939855748714" lon="8.08964956544124"><ele>285.0</ele><time>2026-04-11T08:19:40.999Z</time></trkpt><trkpt lat="45.00293480857182" lon="8.08976051986267"><ele>285.0</ele><time>2026-04-11T08:19:43.999Z</time></trkpt><trkpt lat="45.00294486062659" lon="8.089869419900403"><ele>285.0</ele><time>2026-04-11T08:19:46.999Z</time></trkpt><trkpt lat="45.00296588217372" lon="8.089988618213173"><ele>285.0</ele><time>2026-04-11T08:19:49.999Z</time></trkpt><trkpt lat="45.00299284101174" lon="8.09012211437492"><ele>285.0</ele><time>2026-04-11T08:19:52.999Z</time></trkpt><trkpt lat="45.0030083927114" lon="8.09021311401946"><ele>285.0</ele><time>2026-04-11T08:19:54.999Z</time></trkpt><trkpt lat="45.00301677172851" lon="8.090308103241716"><ele>285.0</ele><time>2026-04-11T08:19:56.999Z</time></trkpt><trkpt lat="45.00301430351671" lon="8.090418681614695"><ele>285.0</ele><time>2026-04-11T08:19:58.999Z</time></trkpt><trkpt lat="45.00300290075064" lon="8.090522169783013"><ele>285.0</ele><time>2026-04-11T08:20:00.999Z</time></trkpt><trkpt lat="45.00297646235553" lon="8.090628417143643"><ele>285.0</ele><time>2026-04-11T08:20:02.999Z</time></trkpt><trkpt lat="45.002938674638386" lon="8.090738220073701"><ele>285.0</ele><time>2026-04-11T08:20:04.999Z</time></trkpt><trkpt lat="45.002895070319575" lon="8.090846901524532"><ele>285.0</ele><time>2026-04-11T08:20:06.999Z</time></trkpt><trkpt lat="45.00283703031318" lon="8.090953275472746"><ele>285.0</ele><time>2026-04-11T08:20:08.999Z</time></trkpt><trkpt lat="45.00277288255272" lon="8.091061867846705"><ele>285.0</ele><time>2026-04-11T08:20:10.999Z</time></trkpt><trkpt lat="45.00270201147454" lon="8.09117816402406"><ele>284.6</ele><time>2026-04-11T08:20:12.999Z</time></trkpt><trkpt lat="45.00262888685854" lon="8.091287536990372"><ele>284.2</ele><time>2026-04-11T08:20:14.999Z</time></trkpt><trkpt lat="45.00254097749781" lon="8.091380667049773"><ele>283.8</ele><time>2026-04-11T08:20:16.999Z</time></trkpt><trkpt lat="45.00244267715138" lon="8.091450267313707"><ele>283.4</ele><time>2026-04-11T08:20:19Z</time></trkpt><trkpt lat="45.002331190688366" lon="8.09149703778298"><ele>283.0</ele><time>2026-04-11T08:20:21Z</time></trkpt><trkpt lat="45.00221347502654" lon="8.09151459774839"><ele>280.4</ele><time>2026-04-11T08:20:23Z</time></trkpt><trkpt lat="45.00209305580947" lon="8.091523012953967"><ele>277.8</ele><time>2026-04-11T08:20:25Z</time></trkpt><trkpt lat="45.00197497315414" lon="8.091530400024785"><ele>275.2</ele><time>2026-04-11T08:20:27Z</time></trkpt><trkpt lat="45.001909638400896" lon="8.091533338970017"><ele>272.6</ele><time>2026-04-11T08:20:28Z</time></trkpt><trkpt lat="45.00178546135854" lon="8.09154178687884"><ele>270.0</ele><time>2026-04-11T08:20:30Z</time></trkpt><trkpt lat="45.001660619721754" lon="8.091554587441259"><ele>269.0</ele><time>2026-04-11T08:20:32Z</time></trkpt><trkpt lat="45.00153341757829" lon="8.091561964342782"><ele>268.0</ele><time>2026-04-11T08:20:34Z</time></trkpt><trkpt lat="45.001467515110804" lon="8.091570514777896"><ele>267.0</ele><time>2026-04-11T08:20:35Z</time></trkpt><trkpt lat="45.0014022636432" lon="8.091579432848311"><ele>266.0</ele><time>2026-04-11T08:20:36Z</time></trkpt><trkpt lat="45.00127722065302" lon="8.091615460744919"><ele>265.0</ele><time>2026-04-11T08:20:38Z</time></trkpt><trkpt lat="45.001214415356685" lon="8.091645167376312"><ele>269.0</ele><time>2026-04-11T08:20:39Z</time></trkpt><trkpt lat="45.0010973925451" lon="8.091709468492807"><ele>273.0</ele><time>2026-04-11T08:20:41Z</time></trkpt><trkpt lat="45.001036575858244" lon="8.091739934316562"><ele>277.0</ele><time>2026-04-11T08:20:42Z</time></trkpt><trkpt lat="45.00097403361518" lon="8.091781659880942"><ele>281.0</ele><time>2026-04-11T08:20:43Z</time></trkpt><trkpt lat="45.00091431794123" lon="8.091816974070507"><ele>285.0</ele><time>2026-04-11T08:20:44Z</time></trkpt><trkpt lat="45.000852350488074" lon="8.091847478336822"><ele>289.0</ele><time>2026-04-11T08:20:45Z</time></trkpt><trkpt lat="45.000789101976174" lon="8.091885356591892"><ele>289.14285714285717</ele><time>2026-04-11T08:20:46Z</time></trkpt><trkpt lat="45.00072260099742" lon="8.09191721321205"><ele>289.2857142857143</ele><time>2026-04-11T08:20:47Z</time></trkpt><trkpt lat="45.0006594798259" lon="8.091952408791528"><ele>289.42857142857144</ele><time>2026-04-11T08:20:48Z</time></trkpt><trkpt lat="45.00059760568222" lon="8.09198976992425"><ele>289.57142857142856</ele><time>2026-04-11T08:20:49Z</time></trkpt><trkpt lat="45.00053380533422" lon="8.092028152617456"><ele>289.7142857142857</ele><time>2026-04-11T08:20:50Z</time></trkpt><trkpt lat="45.00047021051128" lon="8.092061753328872"><ele>289.8571428571429</ele><time>2026-04-11T08:20:51Z</time></trkpt><trkpt lat="45.00040745671968" lon="8.092093233793943"><ele>290.0</ele><time>2026-04-11T08:20:52Z</time></trkpt><trkpt lat="45.0003446128025" lon="8.092129181010643"><ele>290.0</ele><time>2026-04-11T08:20:53Z</time></trkpt><trkpt lat="45.00028497789026" lon="8.092170827981267"><ele>290.0</ele><time>2026-04-11T08:20:54Z</time></trkpt><trkpt lat="45.00022749213226" lon="8.09221261884016"><ele>290.0</ele><time>2026-04-11T08:20:55Z</time></trkpt><trkpt lat="45.00017354917422" lon="8.092259944320398"><ele>290.0</ele><time>2026-04-11T08:20:56Z</time></trkpt><trkpt lat="45.00008683455605" lon="8.092375056774737"><ele>290.0</ele><time>2026-04-11T08:20:58Z</time></trkpt><trkpt lat="45.00000785560455" lon="8.092491985129115"><ele>290.0</ele><time>2026-04-11T08:21:00Z</time></trkpt><trkpt lat="44.99992944056145" lon="8.092601009240077"><ele>290.0</ele><time>2026-04-11T08:21:02Z</time></trkpt><trkpt lat="44.99986560138747" lon="8.092699036426286"><ele>290.0</ele><time>2026-04-11T08:21:04Z</time></trkpt><trkpt lat="44.99979405107403" lon="8.092782118986573"><ele>290.0</ele><time>2026-04-11T08:21:06Z</time></trkpt><trkpt lat="44.9996992101192" lon="8.092837242855843"><ele>290.0</ele><time>2026-04-11T08:21:08Z</time></trkpt><trkpt lat="44.99958469963968" lon="8.092837002880215"><ele>290.0</ele><time>2026-04-11T08:21:10Z</time></trkpt><trkpt lat="44.9994869479856" lon="8.09279839215903"><ele>290.0</ele><time>2026-04-11T08:21:12Z</time></trkpt><trkpt lat="44.99939587614626" lon="8.09278050182435"><ele>290.0</ele><time>2026-04-11T08:21:14Z</time></trkpt><trkpt lat="44.99931494172951" lon="8.092765989376897"><ele>290.0</ele><time>2026-04-11T08:21:16Z</time></trkpt><trkpt lat="44.99923929650436" lon="8.092745230704827"><ele>290.0</ele><time>2026-04-11T08:21:17.999Z</time></trkpt><trkpt lat="44.999173221783664" lon="8.092728004634825"><ele>290.0</ele><time>2026-04-11T08:21:19.999Z</time></trkpt><trkpt lat="44.999108134176645" lon="8.092716130785421"><ele>290.0</ele><time>2026-04-11T08:21:21.999Z</time></trkpt><trkpt lat="44.999045525121204" lon="8.092705921304589"><ele>290.0</ele><time>2026-04-11T08:21:23.999Z</time></trkpt><trkpt lat="44.99895173790471" lon="8.09270079724225"><ele>290.83333333333337</ele><time>2026-04-11T08:21:26.999Z</time></trkpt><trkpt lat="44.998888536197974" lon="8.092688117505693"><ele>291.6666666666667</ele><time>2026-04-11T08:21:28.999Z</time></trkpt><trkpt lat="44.99879789699712" lon="8.092701941811159"><ele>292.5</ele><time>2026-04-11T08:21:31.999Z</time></trkpt><trkpt lat="44.99873730697714" lon="8.092726433803806"><ele>293.3333333333333</ele><time>2026-04-11T08:21:33.999Z</time></trkpt><trkpt lat="44.99865356185724" lon="8.092789684087272"><ele>294.16666666666663</ele><time>2026-04-11T08:21:36.999Z</time></trkpt><trkpt lat="44.998597271763785" lon="8.092847510374728"><ele>295.0</ele><time>2026-04-11T08:21:38.999Z</time></trkpt><trkpt lat="44.99851342848301" lon="8.092959507404858"><ele>295.00000000000006</ele><time>2026-04-11T08:21:42.999Z</time></trkpt><trkpt lat="44.99846295657915" lon="8.093020778120025"><ele>295.0</ele><time>2026-04-11T08:21:44.999Z</time></trkpt><trkpt lat="44.99839345560787" lon="8.093100478468974"><ele>295.0</ele><time>2026-04-11T08:21:47.999Z</time></trkpt><trkpt lat="44.998337704766676" lon="8.093143023540142"><ele>295.0</ele><time>2026-04-11T08:21:49.999Z</time></trkpt><trkpt lat="44.99827534722046" lon="8.093167444805463"><ele>295.0</ele><time>2026-04-11T08:21:51.999Z</time></trkpt><trkpt lat="44.998204934110284" lon="8.093173770733417"><ele>295.00000000000006</ele><time>2026-04-11T08:21:53.999Z</time></trkpt><trkpt lat="44.99811480137174" lon="8.093144348006167"><ele>295.0</ele><time>2026-04-11T08:21:56.999Z</time></trkpt><trkpt lat="44.998045621848064" lon="8.093075886379939"><ele>295.8333333333333</ele><time>2026-04-11T08:22:00.999Z</time></trkpt><trkpt lat="44.99797185858156" lon="8.09298628314833"><ele>296.66666666666663</ele><time>2026-04-11T08:22:03.999Z</time></trkpt><trkpt lat="44.99790220233995" lon="8.092924070201976"><ele>297.5</ele><time>2026-04-11T08:22:06.999Z</time></trkpt><trkpt lat="44.99783021363085" lon="8.092856653143247"><ele>298.3333333333333</ele><time>2026-04-11T08:22:09.999Z</time></trkpt><trkpt lat="44.997769826160635" lon="8.092776608559914"><ele>299.1666666666667</ele><time>2026-04-11T08:22:12.999Z</time></trkpt><trkpt lat="44.997706016330724" lon="8.092712282636409"><ele>300.0</ele><time>2026-04-11T08:22:15.999Z</time></trkpt><trkpt lat="44.997651806576094" lon="8.092657189606062"><ele>300.0</ele><time>2026-04-11T08:22:18.999Z</time></trkpt><trkpt lat="44.997584220069854" lon="8.09258443416073"><ele>300.0</ele><time>2026-04-11T08:22:21.999Z</time></trkpt><trkpt lat="44.99751827787861" lon="8.092520308548687"><ele>300.0</ele><time>2026-04-11T08:22:25Z</time></trkpt><trkpt lat="44.99745542023105" lon="8.092457895567959"><ele>300.0</ele><time>2026-04-11T08:22:28Z</time></trkpt><trkpt lat="44.997389907235345" lon="8.092392072540493"><ele>300.0</ele><time>2026-04-11T08:22:31Z</time></trkpt><trkpt lat="44.997319636037574" lon="8.09231555122925"><ele>300.0</ele><time>2026-04-11T08:22:35Z</time></trkpt><trkpt lat="44.99727240803253" lon="8.09225463101102"><ele>299.57142857142856</ele><time>2026-04-11T08:22:38Z</time></trkpt><trkpt lat="44.997210615395474" lon="8.092166650092281"><ele>299.1428571428571</ele><time>2026-04-11T08:22:41Z</time></trkpt><trkpt lat="44.99714579774909" lon="8.092105065555208"><ele>298.7142857142857</ele><time>2026-04-11T08:22:45Z</time></trkpt><trkpt lat="44.99709436360121" lon="8.092041743108611"><ele>298.2857142857143</ele><time>2026-04-11T08:22:47Z</time></trkpt><trkpt lat="44.99705344486986" lon="8.091963606951605"><ele>297.8571428571429</ele><time>2026-04-11T08:22:50Z</time></trkpt><trkpt lat="44.997010833203355" lon="8.091881536611414"><ele>297.42857142857144</ele><time>2026-04-11T08:22:53Z</time></trkpt><trkpt lat="44.99697193665371" lon="8.091796147676162"><ele>297.0</ele><time>2026-04-11T08:22:56Z</time></trkpt><trkpt lat="44.996927180324654" lon="8.091704335000008"><ele>297.0</ele><time>2026-04-11T08:22:59Z</time></trkpt><trkpt lat="44.99688549203086" lon="8.091603893242922"><ele>297.0</ele><time>2026-04-11T08:23:01Z</time></trkpt><trkpt lat="44.996840739071246" lon="8.091483812957836"><ele>297.0</ele><time>2026-04-11T08:23:04Z</time></trkpt><trkpt lat="44.9968042552515" lon="8.091407820121951"><ele>297.0</ele><time>2026-04-11T08:23:06Z</time></trkpt><trkpt lat="44.99676121355822" lon="8.091328878596853"><ele>297.0</ele><time>2026-04-11T08:23:08Z</time></trkpt><trkpt lat="44.99670840939812" lon="8.09122155481128"><ele>297.0</ele><time>2026-04-11T08:23:11Z</time></trkpt><trkpt lat="44.99666349576676" lon="8.09114216433061"><ele>297.14285714285717</ele><time>2026-04-11T08:23:13Z</time></trkpt><trkpt lat="44.99662225816731" lon="8.091069839130947"><ele>297.28571428571433</ele><time>2026-04-11T08:23:15Z</time></trkpt><trkpt lat="44.996570395474514" lon="8.091013018546642"><ele>297.42857142857144</ele><time>2026-04-11T08:23:16.999Z</time></trkpt><trkpt lat="44.99651043554847" lon="8.090954833499385"><ele>297.57142857142856</ele><time>2026-04-11T08:23:18.999Z</time></trkpt><trkpt lat="44.99644532332552" lon="8.090915000335874"><ele>297.71428571428567</ele><time>2026-04-11T08:23:20.999Z</time></trkpt><trkpt lat="44.99637302041508" lon="8.090893812852155"><ele>297.85714285714283</ele><time>2026-04-11T08:23:22.999Z</time></trkpt><trkpt lat="44.99630244276127" lon="8.090887564772826"><ele>298.0</ele><time>2026-04-11T08:23:24.999Z</time></trkpt><trkpt lat="44.996221321871296" lon="8.090884885926442"><ele>298.0</ele><time>2026-04-11T08:23:26.999Z</time></trkpt><trkpt lat="44.996154517799674" lon="8.090898125980917"><ele>298.0</ele><time>2026-04-11T08:23:28.999Z</time></trkpt><trkpt lat="44.99608291801725" lon="8.090919538281932"><ele>298.0</ele><time>2026-04-11T08:23:30.999Z</time></trkpt><trkpt lat="44.996007386004614" lon="8.090935185610281"><ele>298.0</ele><time>2026-04-11T08:23:32.999Z</time></trkpt><trkpt lat="44.99592751344332" lon="8.09095539979514"><ele>298.0</ele><time>2026-04-11T08:23:34.999Z</time></trkpt><trkpt lat="44.99584688957215" lon="8.09097917555906"><ele>298.0</ele><time>2026-04-11T08:23:36.999Z</time></trkpt><trkpt lat="44.99576907039017" lon="8.090994715467485"><ele>298.0</ele><time>2026-04-11T08:23:38.999Z</time></trkpt><trkpt lat="44.995695812852745" lon="8.091009973066361"><ele>298.0</ele><time>2026-04-11T08:23:40.999Z</time></trkpt><trkpt lat="44.99562250889088" lon="8.091024900411265"><ele>298.0</ele><time>2026-04-11T08:23:42.999Z</time></trkpt><trkpt lat="44.995542359617744" lon="8.091035230602536"><ele>298.0</ele><time>2026-04-11T08:23:44.999Z</time></trkpt><trkpt lat="44.99546152801934" lon="8.091038660207778"><ele>298.0</ele><time>2026-04-11T08:23:46.999Z</time></trkpt><trkpt lat="44.995385671223865" lon="8.091047068189235"><ele>298.0</ele><time>2026-04-11T08:23:48.999Z</time></trkpt><trkpt lat="44.995307139238506" lon="8.09104387491785"><ele>298.0</ele><time>2026-04-11T08:23:50.999Z</time></trkpt><trkpt lat="44.9952268932318" lon="8.091034460033692"><ele>298.0</ele><time>2026-04-11T08:23:52.999Z</time></trkpt><trkpt lat="44.995145900718306" lon="8.0910080017326"><ele>298.0</ele><time>2026-04-11T08:23:54.999Z</time></trkpt><trkpt lat="44.99505978234738" lon="8.090988586851097"><ele>298.0</ele><time>2026-04-11T08:23:56.999Z</time></trkpt><trkpt lat="44.99498763054969" lon="8.090956301268614"><ele>298.0</ele><time>2026-04-11T08:23:58.999Z</time></trkpt><trkpt lat="44.994909304804544" lon="8.090932549983215"><ele>298.0</ele><time>2026-04-11T08:24:00.999Z</time></trkpt><trkpt lat="44.994830565039855" lon="8.090905472892738"><ele>298.8333333333333</ele><time>2026-04-11T08:24:02.999Z</time></trkpt><trkpt lat="44.99474810448043" lon="8.09088009754966"><ele>299.66666666666663</ele><time>2026-04-11T08:24:04.999Z</time></trkpt><trkpt lat="44.99467426666728" lon="8.090858017437606"><ele>300.5</ele><time>2026-04-11T08:24:06.999Z</time></trkpt><trkpt lat="44.994598377336814" lon="8.090842994316395"><ele>301.3333333333333</ele><time>2026-04-11T08:24:08.999Z</time></trkpt><trkpt lat="44.994509909739946" lon="8.090832778429688"><ele>302.1666666666667</ele><time>2026-04-11T08:24:10.999Z</time></trkpt><trkpt lat="44.99443028636675" lon="8.090830746442125"><ele>303.0</ele><time>2026-04-11T08:24:12.999Z</time></trkpt><trkpt lat="44.99434691702034" lon="8.090829793648387"><ele>303.0</ele><time>2026-04-11T08:24:14.999Z</time></trkpt><trkpt lat="44.994262839315" lon="8.090836360933956"><ele>303.0</ele><time>2026-04-11T08:24:16.999Z</time></trkpt><trkpt lat="44.99417196903909" lon="8.090848174937735"><ele>303.0</ele><time>2026-04-11T08:24:18.999Z</time></trkpt><trkpt lat="44.99407242429501" lon="8.090851289813534"><ele>303.0</ele><time>2026-04-11T08:24:20.999Z</time></trkpt><trkpt lat="44.993977120331834" lon="8.090870977779884"><ele>303.0</ele><time>2026-04-11T08:24:22.999Z</time></trkpt><trkpt lat="44.993873775210034" lon="8.090874734925796"><ele>303.2</ele><time>2026-04-11T08:24:24.999Z</time></trkpt><trkpt lat="44.993762223120086" lon="8.090873175004658"><ele>303.4</ele><time>2026-04-11T08:24:26.999Z</time></trkpt><trkpt lat="44.99365664851442" lon="8.09089647577432"><ele>303.59999999999997</ele><time>2026-04-11T08:24:28.999Z</time></trkpt><trkpt lat="44.993535835387846" lon="8.090886020022136"><ele>303.8</ele><time>2026-04-11T08:24:31Z</time></trkpt><trkpt lat="44.99343566285983" lon="8.090901176568766"><ele>304.0</ele><time>2026-04-11T08:24:33Z</time></trkpt><trkpt lat="44.993372513024596" lon="8.090905485510618"><ele>303.0</ele><time>2026-04-11T08:24:34Z</time></trkpt><trkpt lat="44.99330653468561" lon="8.090926557641458"><ele>302.0</ele><time>2026-04-11T08:24:35Z</time></trkpt><trkpt lat="44.993182816390586" lon="8.090925475905808"><ele>301.0</ele><time>2026-04-11T08:24:37Z</time></trkpt><trkpt lat="44.99311447422023" lon="8.090926908518727"><ele>300.0</ele><time>2026-04-11T08:24:38Z</time></trkpt><trkpt lat="44.992988436295754" lon="8.090933382597228"><ele>299.0</ele><time>2026-04-11T08:24:40Z</time></trkpt><trkpt lat="44.99291364067067" lon="8.090921153910235"><ele>299.0</ele><time>2026-04-11T08:24:41Z</time></trkpt><trkpt lat="44.99279020207586" lon="8.090943032437076"><ele>299.0</ele><time>2026-04-11T08:24:43Z</time></trkpt><trkpt lat="44.992724337808454" lon="8.090965144596348"><ele>299.0</ele><time>2026-04-11T08:24:44Z</time></trkpt><trkpt lat="44.99265048231045" lon="8.090952449491756"><ele>299.0</ele><time>2026-04-11T08:24:45Z</time></trkpt><trkpt lat="44.99257368295327" lon="8.090958807732076"><ele>299.0</ele><time>2026-04-11T08:24:46Z</time></trkpt><trkpt lat="44.99250623965048" lon="8.090959436600269"><ele>299.0</ele><time>2026-04-11T08:24:47Z</time></trkpt><trkpt lat="44.9923820818134" lon="8.090976227978373"><ele>298.5</ele><time>2026-04-11T08:24:49Z</time></trkpt><trkpt lat="44.99231692244636" lon="8.090973269483161"><ele>298.0</ele><time>2026-04-11T08:24:50Z</time></trkpt><trkpt lat="44.99219488462428" lon="8.09098979947245"><ele>297.5</ele><time>2026-04-11T08:24:52Z</time></trkpt><trkpt lat="44.99212759686992" lon="8.090984273671678"><ele>297.0</ele><time>2026-04-11T08:24:53Z</time></trkpt><trkpt lat="44.992061436608175" lon="8.090992085490548"><ele>296.5</ele><time>2026-04-11T08:24:54Z</time></trkpt><trkpt lat="44.991935299193344" lon="8.09099817052388"><ele>296.0</ele><time>2026-04-11T08:24:56Z</time></trkpt><trkpt lat="44.99184143673592" lon="8.091005671652427"><ele>296.0</ele><time>2026-04-11T08:24:58Z</time></trkpt><trkpt lat="44.99172311659022" lon="8.09099632206544"><ele>296.0</ele><time>2026-04-11T08:25:00Z</time></trkpt><trkpt lat="44.99163743971695" lon="8.090972687535206"><ele>296.0</ele><time>2026-04-11T08:25:02Z</time></trkpt><trkpt lat="44.99154781218202" lon="8.090942175777215"><ele>296.0</ele><time>2026-04-11T08:25:04Z</time></trkpt><trkpt lat="44.99145316653534" lon="8.090886267851632"><ele>296.0</ele><time>2026-04-11T08:25:06Z</time></trkpt><trkpt lat="44.99137217803689" lon="8.090824119201239"><ele>293.6666666666667</ele><time>2026-04-11T08:25:08Z</time></trkpt><trkpt lat="44.991300417278005" lon="8.09075332232103"><ele>291.33333333333337</ele><time>2026-04-11T08:25:10Z</time></trkpt><trkpt lat="44.99122976260158" lon="8.090691138259944"><ele>289.0</ele><time>2026-04-11T08:25:12Z</time></trkpt><trkpt lat="44.99116291932945" lon="8.09061732246336"><ele>286.6666666666667</ele><time>2026-04-11T08:25:14Z</time></trkpt><trkpt lat="44.99110040158932" lon="8.09056041346862"><ele>284.3333333333333</ele><time>2026-04-11T08:25:16Z</time></trkpt><trkpt lat="44.99104343134986" lon="8.090490294895105"><ele>282.0</ele><time>2026-04-11T08:25:18Z</time></trkpt><trkpt lat="44.99098221929495" lon="8.090428762844768"><ele>282.0</ele><time>2026-04-11T08:25:20Z</time></trkpt><trkpt lat="44.99090609080379" lon="8.090387907947724"><ele>282.0</ele><time>2026-04-11T08:25:22Z</time></trkpt><trkpt lat="44.99084177858074" lon="8.090397669965324"><ele>282.0</ele><time>2026-04-11T08:25:24Z</time></trkpt><trkpt lat="44.990775780497245" lon="8.09042991792514"><ele>282.0</ele><time>2026-04-11T08:25:25.999Z</time></trkpt><trkpt lat="44.990716358432856" lon="8.090476228480986"><ele>282.0</ele><time>2026-04-11T08:25:27.999Z</time></trkpt><trkpt lat="44.99064397282628" lon="8.09054237577815"><ele>282.0</ele><time>2026-04-11T08:25:29.999Z</time></trkpt><trkpt lat="44.99057294009028" lon="8.09061329799058"><ele>284.6</ele><time>2026-04-11T08:25:31.999Z</time></trkpt><trkpt lat="44.990492581954165" lon="8.090691201433179"><ele>287.2</ele><time>2026-04-11T08:25:33.999Z</time></trkpt><trkpt lat="44.990405762936" lon="8.090763700041443"><ele>289.8</ele><time>2026-04-11T08:25:35.999Z</time></trkpt><trkpt lat="44.99031855764032" lon="8.090814047123699"><ele>292.4</ele><time>2026-04-11T08:25:37.999Z</time></trkpt><trkpt lat="44.9902407523169" lon="8.09088449581882"><ele>295.0</ele><time>2026-04-11T08:25:39.999Z</time></trkpt><trkpt lat="44.99016187411947" lon="8.090970204481783"><ele>294.8</ele><time>2026-04-11T08:25:41.999Z</time></trkpt><trkpt lat="44.990066714888336" lon="8.091025051682335"><ele>294.6</ele><time>2026-04-11T08:25:43.999Z</time></trkpt><trkpt lat="44.989976425896195" lon="8.091063664625263"><ele>294.4</ele><time>2026-04-11T08:25:45.999Z</time></trkpt><trkpt lat="44.98986650107804" lon="8.091105677628972"><ele>294.2</ele><time>2026-04-11T08:25:47.999Z</time></trkpt><trkpt lat="44.98977187764595" lon="8.091189628647442"><ele>294.0</ele><time>2026-04-11T08:25:49.999Z</time></trkpt><trkpt lat="44.989677606083916" lon="8.091233014849456"><ele>294.0</ele><time>2026-04-11T08:25:51.999Z</time></trkpt><trkpt lat="44.989565812802304" lon="8.091254571542787"><ele>294.0</ele><time>2026-04-11T08:25:53.999Z</time></trkpt><trkpt lat="44.989454677095054" lon="8.091215135839409"><ele>294.0</ele><time>2026-04-11T08:25:55.999Z</time></trkpt><trkpt lat="44.98934817674176" lon="8.09117525300639"><ele>294.0</ele><time>2026-04-11T08:25:57.999Z</time></trkpt><trkpt lat="44.989254576607856" lon="8.091145221223963"><ele>294.0</ele><time>2026-04-11T08:25:59.999Z</time></trkpt><trkpt lat="44.98917657429138" lon="8.091109878651736"><ele>293.59999999999997</ele><time>2026-04-11T08:26:01.999Z</time></trkpt><trkpt lat="44.989087349743684" lon="8.09107736679895"><ele>293.2</ele><time>2026-04-11T08:26:03.999Z</time></trkpt><trkpt lat="44.98899698597859" lon="8.091060837398116"><ele>292.79999999999995</ele><time>2026-04-11T08:26:05.999Z</time></trkpt><trkpt lat="44.98890619633012" lon="8.091021352006564"><ele>292.4</ele><time>2026-04-11T08:26:07.999Z</time></trkpt><trkpt lat="44.98881730451316" lon="8.090992316729706"><ele>292.0</ele><time>2026-04-11T08:26:09.999Z</time></trkpt><trkpt lat="44.98872291458694" lon="8.090964904540312"><ele>292.0</ele><time>2026-04-11T08:26:11.999Z</time></trkpt><trkpt lat="44.98862544205686" lon="8.090939126189168"><ele>292.0</ele><time>2026-04-11T08:26:13.999Z</time></trkpt><trkpt lat="44.9885372378939" lon="8.09090622169203"><ele>292.0</ele><time>2026-04-11T08:26:15.999Z</time></trkpt><trkpt lat="44.98845271860064" lon="8.090885690107644"><ele>292.0</ele><time>2026-04-11T08:26:17.999Z</time></trkpt><trkpt lat="44.98837086307559" lon="8.09085827827946"><ele>292.0</ele><time>2026-04-11T08:26:19.999Z</time></trkpt><trkpt lat="44.988287322526546" lon="8.090834042448583"><ele>292.0</ele><time>2026-04-11T08:26:21.999Z</time></trkpt><trkpt lat="44.98820358621569" lon="8.090821292648021"><ele>293.0</ele><time>2026-04-11T08:26:23.999Z</time></trkpt><trkpt lat="44.98811417285645" lon="8.090801492595022"><ele>294.0</ele><time>2026-04-11T08:26:25.999Z</time></trkpt><trkpt lat="44.98800607758073" lon="8.090779123515784"><ele>295.0</ele><time>2026-04-11T08:26:27.999Z</time></trkpt><trkpt lat="44.98788233523798" lon="8.090750222901638"><ele>296.0</ele><time>2026-04-11T08:26:29.999Z</time></trkpt><trkpt lat="44.987816024187445" lon="8.09073027335848"><ele>297.0</ele><time>2026-04-11T08:26:30.999Z</time></trkpt><trkpt lat="44.98774998944261" lon="8.090701548616199"><ele>296.14285714285717</ele><time>2026-04-11T08:26:31.999Z</time></trkpt><trkpt lat="44.98768154942752" lon="8.090671417531283"><ele>295.28571428571433</ele><time>2026-04-11T08:26:32.999Z</time></trkpt><trkpt lat="44.98761773715717" lon="8.090629543533925"><ele>294.42857142857144</ele><time>2026-04-11T08:26:33.999Z</time></trkpt><trkpt lat="44.98755380606903" lon="8.09058274350928"><ele>293.57142857142856</ele><time>2026-04-11T08:26:34.999Z</time></trkpt><trkpt lat="44.98748705287321" lon="8.090546612931245"><ele>292.71428571428567</ele><time>2026-04-11T08:26:35.999Z</time></trkpt><trkpt lat="44.98742670063135" lon="8.09049386382928"><ele>291.85714285714283</ele><time>2026-04-11T08:26:37Z</time></trkpt><trkpt lat="44.98736041421181" lon="8.09043850545279"><ele>291.0</ele><time>2026-04-11T08:26:38Z</time></trkpt><trkpt lat="44.987297698812355" lon="8.090381761774427"><ele>291.0</ele><time>2026-04-11T08:26:39Z</time></trkpt><trkpt lat="44.98723669407743" lon="8.090313577269836"><ele>291.0</ele><time>2026-04-11T08:26:40Z</time></trkpt><trkpt lat="44.98717944039189" lon="8.090235275583373"><ele>291.0</ele><time>2026-04-11T08:26:41Z</time></trkpt><trkpt lat="44.98713668997382" lon="8.090139848841638"><ele>291.0</ele><time>2026-04-11T08:26:42Z</time></trkpt><trkpt lat="44.9870771049352" lon="8.090065829512728"><ele>291.0</ele><time>2026-04-11T08:26:43Z</time></trkpt><trkpt lat="44.98702897938401" lon="8.089975480775431"><ele>291.0</ele><time>2026-04-11T08:26:44Z</time></trkpt><trkpt lat="44.98699125730606" lon="8.089879271929457"><ele>289.57142857142856</ele><time>2026-04-11T08:26:45Z</time></trkpt><trkpt lat="44.986948170766055" lon="8.089789809281957"><ele>288.1428571428571</ele><time>2026-04-11T08:26:46Z</time></trkpt><trkpt lat="44.98690464273217" lon="8.089703893543218"><ele>286.7142857142857</ele><time>2026-04-11T08:26:47Z</time></trkpt><trkpt lat="44.98685220100396" lon="8.089636486711422"><ele>285.2857142857143</ele><time>2026-04-11T08:26:48Z</time></trkpt><trkpt lat="44.986821816260544" lon="8.089542896646083"><ele>283.8571428571429</ele><time>2026-04-11T08:26:49Z</time></trkpt><trkpt lat="44.986771205625864" lon="8.089462364818086"><ele>282.42857142857144</ele><time>2026-04-11T08:26:50Z</time></trkpt><trkpt lat="44.986719816314796" lon="8.0893836789351"><ele>281.0</ele><time>2026-04-11T08:26:51Z</time></trkpt><trkpt lat="44.98666951191547" lon="8.08930965637942"><ele>281.00000000000006</ele><time>2026-04-11T08:26:52Z</time></trkpt><trkpt lat="44.98661566822859" lon="8.089256629477264"><ele>281.0</ele><time>2026-04-11T08:26:53Z</time></trkpt><trkpt lat="44.9865477743389" lon="8.089216124932786"><ele>281.0</ele><time>2026-04-11T08:26:54Z</time></trkpt><trkpt lat="44.98647574436097" lon="8.089183152035645"><ele>281.0</ele><time>2026-04-11T08:26:55Z</time></trkpt><trkpt lat="44.98640983702365" lon="8.089154554030053"><ele>281.0</ele><time>2026-04-11T08:26:56Z</time></trkpt><trkpt lat="44.9863355119908" lon="8.08913841700736"><ele>281.00000000000006</ele><time>2026-04-11T08:26:57Z</time></trkpt><trkpt lat="44.98625852217742" lon="8.089130531858578"><ele>281.0</ele><time>2026-04-11T08:26:58Z</time></trkpt><trkpt lat="44.98617926372668" lon="8.089127075759816"><ele>281.0</ele><time>2026-04-11T08:26:59Z</time></trkpt><trkpt lat="44.986102757917536" lon="8.089118635984512"><ele>281.0</ele><time>2026-04-11T08:27:00Z</time></trkpt><trkpt lat="44.986032425790796" lon="8.089109920662636"><ele>281.0</ele><time>2026-04-11T08:27:01Z</time></trkpt><trkpt lat="44.98594880152618" lon="8.089107427873765"><ele>281.0</ele><time>2026-04-11T08:27:02Z</time></trkpt><trkpt lat="44.98587803763946" lon="8.089086872762984"><ele>281.0</ele><time>2026-04-11T08:27:03Z</time></trkpt><trkpt lat="44.98580572332288" lon="8.08905693255119"><ele>281.0</ele><time>2026-04-11T08:27:04Z</time></trkpt><trkpt lat="44.98573766974861" lon="8.08901471709186"><ele>282.1666666666667</ele><time>2026-04-11T08:27:05Z</time></trkpt><trkpt lat="44.985674240965" lon="8.088975062885508"><ele>283.33333333333337</ele><time>2026-04-11T08:27:06Z</time></trkpt><trkpt lat="44.98559998648186" lon="8.088923168181697"><ele>284.5</ele><time>2026-04-11T08:27:07Z</time></trkpt><trkpt lat="44.98552737204976" lon="8.088861148616234"><ele>285.6666666666667</ele><time>2026-04-11T08:27:08Z</time></trkpt><trkpt lat="44.985460819797126" lon="8.0887977180842"><ele>286.8333333333333</ele><time>2026-04-11T08:27:09Z</time></trkpt><trkpt lat="44.9853940754591" lon="8.088740391382862"><ele>288.0</ele><time>2026-04-11T08:27:10Z</time></trkpt><trkpt lat="44.98532310416314" lon="8.088677454808245"><ele>288.0</ele><time>2026-04-11T08:27:11Z</time></trkpt><trkpt lat="44.98524075505351" lon="8.088609229088625"><ele>288.0</ele><time>2026-04-11T08:27:12Z</time></trkpt><trkpt lat="44.985170709445846" lon="8.088539032608402"><ele>288.0</ele><time>2026-04-11T08:27:13Z</time></trkpt><trkpt lat="44.985097364474996" lon="8.088470010025098"><ele>288.0</ele><time>2026-04-11T08:27:14Z</time></trkpt><trkpt lat="44.98502253133436" lon="8.088391687706853"><ele>288.0</ele><time>2026-04-11T08:27:15Z</time></trkpt><trkpt lat="44.98494849759246" lon="8.088312038854676"><ele>286.0</ele><time>2026-04-11T08:27:16Z</time></trkpt><trkpt lat="44.98487692860788" lon="8.088230390397827"><ele>284.0</ele><time>2026-04-11T08:27:17Z</time></trkpt><trkpt lat="44.98480549468469" lon="8.088141131922795"><ele>282.0</ele><time>2026-04-11T08:27:18Z</time></trkpt><trkpt lat="44.98473840548015" lon="8.088050885806481"><ele>280.0</ele><time>2026-04-11T08:27:19Z</time></trkpt><trkpt lat="44.98466864844748" lon="8.08797435373532"><ele>278.0</ele><time>2026-04-11T08:27:20Z</time></trkpt><trkpt lat="44.984600662501244" lon="8.08790145317739"><ele>278.0</ele><time>2026-04-11T08:27:21Z</time></trkpt><trkpt lat="44.984526082561544" lon="8.087838352499466"><ele>278.0</ele><time>2026-04-11T08:27:22Z</time></trkpt><trkpt lat="44.98445159435828" lon="8.0877748889535"><ele>278.0</ele><time>2026-04-11T08:27:23Z</time></trkpt><trkpt lat="44.98436887143511" lon="8.087725132449773"><ele>278.0</ele><time>2026-04-11T08:27:24Z</time></trkpt><trkpt lat="44.984277247740906" lon="8.08770160493513"><ele>278.0</ele><time>2026-04-11T08:27:25Z</time></trkpt><trkpt lat="44.98418223224987" lon="8.087687561831"><ele>275.33333333333337</ele><time>2026-04-11T08:27:26Z</time></trkpt><trkpt lat="44.98409247213002" lon="8.087684284218925"><ele>272.6666666666667</ele><time>2026-04-11T08:27:27Z</time></trkpt><trkpt lat="44.98400098365154" lon="8.087690179042305"><ele>270.0</ele><time>2026-04-11T08:27:28Z</time></trkpt><trkpt lat="44.983917142166646" lon="8.087704283874237"><ele>267.3333333333333</ele><time>2026-04-11T08:27:29Z</time></trkpt><trkpt lat="44.98383402254164" lon="8.087721670449634"><ele>264.66666666666663</ele><time>2026-04-11T08:27:30Z</time></trkpt><trkpt lat="44.983752963931565" lon="8.087741691779213"><ele>262.0</ele><time>2026-04-11T08:27:30.999Z</time></trkpt><trkpt lat="44.983680729295884" lon="8.087763866332523"><ele>262.0</ele><time>2026-04-11T08:27:31.999Z</time></trkpt><trkpt lat="44.98361461118324" lon="8.087782271355149"><ele>262.0</ele><time>2026-04-11T08:27:32.999Z</time></trkpt><trkpt lat="44.98354941970534" lon="8.087803936505027"><ele>262.0</ele><time>2026-04-11T08:27:33.999Z</time></trkpt><trkpt lat="44.98348752902944" lon="8.087821413271453"><ele>262.0</ele><time>2026-04-11T08:27:34.999Z</time></trkpt><trkpt lat="44.9833798475442" lon="8.087852562873763"><ele>262.0</ele><time>2026-04-11T08:27:36.999Z</time></trkpt><trkpt lat="44.983278472114705" lon="8.087877042676697"><ele>262.0</ele><time>2026-04-11T08:27:38.999Z</time></trkpt><trkpt lat="44.98317803567789" lon="8.087900891206033"><ele>263.0</ele><time>2026-04-11T08:27:40.999Z</time></trkpt><trkpt lat="44.98308059278384" lon="8.087913314749747"><ele>264.0</ele><time>2026-04-11T08:27:42.999Z</time></trkpt><trkpt lat="44.982992977433064" lon="8.087923357515079"><ele>265.0</ele><time>2026-04-11T08:27:44.999Z</time></trkpt><trkpt lat="44.982905308419" lon="8.087919365930572"><ele>266.0</ele><time>2026-04-11T08:27:46.999Z</time></trkpt><trkpt lat="44.98281873974383" lon="8.087906570609963"><ele>267.0</ele><time>2026-04-11T08:27:48.999Z</time></trkpt><trkpt lat="44.982738096372124" lon="8.087876659498061"><ele>268.0</ele><time>2026-04-11T08:27:50.999Z</time></trkpt><trkpt lat="44.98266028856242" lon="8.087851511524024"><ele>268.0</ele><time>2026-04-11T08:27:52.999Z</time></trkpt><trkpt lat="44.98258531673158" lon="8.087825209261851"><ele>268.0</ele><time>2026-04-11T08:27:54.999Z</time></trkpt><trkpt lat="44.982515459834055" lon="8.087788332033549"><ele>268.0</ele><time>2026-04-11T08:27:56.999Z</time></trkpt><trkpt lat="44.98245115839134" lon="8.087733189424256"><ele>268.0</ele><time>2026-04-11T08:27:58.999Z</time></trkpt><trkpt lat="44.98238605705177" lon="8.087679625021137"><ele>268.0</ele><time>2026-04-11T08:28:00.999Z</time></trkpt><trkpt lat="44.98231105633681" lon="8.087636669026304"><ele>268.0</ele><time>2026-04-11T08:28:02.999Z</time></trkpt><trkpt lat="44.982238359655604" lon="8.087603544443427"><ele>268.66666666666663</ele><time>2026-04-11T08:28:04.999Z</time></trkpt><trkpt lat="44.98216671559874" lon="8.0875865914364"><ele>269.3333333333333</ele><time>2026-04-11T08:28:06.999Z</time></trkpt><trkpt lat="44.98209609600362" lon="8.087547906131434"><ele>270.0</ele><time>2026-04-11T08:28:08.999Z</time></trkpt><trkpt lat="44.982028662394164" lon="8.087507053631926"><ele>270.6666666666667</ele><time>2026-04-11T08:28:11.999Z</time></trkpt><trkpt lat="44.98194342676874" lon="8.087476623001262"><ele>271.33333333333337</ele><time>2026-04-11T08:28:14.999Z</time></trkpt><trkpt lat="44.98185098751907" lon="8.087443287894876"><ele>272.0</ele><time>2026-04-11T08:28:17.999Z</time></trkpt><trkpt lat="44.9817819896773" lon="8.087417112471336"><ele>268.8</ele><time>2026-04-11T08:28:18.999Z</time></trkpt><trkpt lat="44.98167620013447" lon="8.08737719623135"><ele>265.6</ele><time>2026-04-11T08:28:20.999Z</time></trkpt><trkpt lat="44.98158943366764" lon="8.087340296091776"><ele>262.40000000000003</ele><time>2026-04-11T08:28:22.999Z</time></trkpt><trkpt lat="44.98150984805661" lon="8.087311177089694"><ele>259.2</ele><time>2026-04-11T08:28:24.999Z</time></trkpt><trkpt lat="44.981426268899334" lon="8.087277365816073"><ele>256.0</ele><time>2026-04-11T08:28:26.999Z</time></trkpt><trkpt lat="44.98134075904041" lon="8.087240236879019"><ele>255.99999999999997</ele><time>2026-04-11T08:28:28.999Z</time></trkpt><trkpt lat="44.98125978379753" lon="8.087210452909916"><ele>256.0</ele><time>2026-04-11T08:28:30.999Z</time></trkpt><trkpt lat="44.98117447357994" lon="8.08718157042279"><ele>256.0</ele><time>2026-04-11T08:28:32.999Z</time></trkpt><trkpt lat="44.98111176546477" lon="8.087155910798675"><ele>256.0</ele><time>2026-04-11T08:28:35.999Z</time></trkpt><trkpt lat="44.981007555248084" lon="8.087116260819327"><ele>255.99999999999997</ele><time>2026-04-11T08:28:37.999Z</time></trkpt><trkpt lat="44.98093057304914" lon="8.087107702458106"><ele>256.0</ele><time>2026-04-11T08:28:39.999Z</time></trkpt><trkpt lat="44.98085773012065" lon="8.087053968824886"><ele>258.3333333333333</ele><time>2026-04-11T08:28:41.999Z</time></trkpt><trkpt lat="44.98080079394054" lon="8.08696990293045"><ele>260.66666666666663</ele><time>2026-04-11T08:28:44Z</time></trkpt><trkpt lat="44.98074289191133" lon="8.08690360039526"><ele>263.0</ele><time>2026-04-11T08:28:46Z</time></trkpt><trkpt lat="44.980695250407884" lon="8.086818673097216"><ele>265.3333333333333</ele><time>2026-04-11T08:28:48Z</time></trkpt><trkpt lat="44.98065382250744" lon="8.08674967884236"><ele>267.6666666666667</ele><time>2026-04-11T08:28:51Z</time></trkpt><trkpt lat="44.98060023005686" lon="8.086631356391445"><ele>270.0</ele><time>2026-04-11T08:28:53Z</time></trkpt><trkpt lat="44.98058429714721" lon="8.08652857410474"><ele>270.0</ele><time>2026-04-11T08:28:55Z</time></trkpt><trkpt lat="44.98057714962158" lon="8.08642233729142"><ele>270.0</ele><time>2026-04-11T08:28:58Z</time></trkpt><trkpt lat="44.9805647553168" lon="8.086291565789864"><ele>270.0</ele><time>2026-04-11T08:29:01Z</time></trkpt><trkpt lat="44.9805620789065" lon="8.086194662591057"><ele>270.0</ele><time>2026-04-11T08:29:03Z</time></trkpt><trkpt lat="44.98055185408817" lon="8.08607599198145"><ele>270.0</ele><time>2026-04-11T08:29:05Z</time></trkpt><trkpt lat="44.98056972358634" lon="8.085890873899526"><ele>270.0</ele><time>2026-04-11T08:29:07Z</time></trkpt><trkpt lat="44.98056831492905" lon="8.085797789129142"><ele>270.0</ele><time>2026-04-11T08:29:08Z</time></trkpt><trkpt lat="44.98057787687402" lon="8.085701080602858"><ele>270.0</ele><time>2026-04-11T08:29:09Z</time></trkpt><trkpt lat="44.9805919604631" lon="8.085599649252673"><ele>270.0</ele><time>2026-04-11T08:29:10Z</time></trkpt><trkpt lat="44.98059945318666" lon="8.085500630004821"><ele>270.0</ele><time>2026-04-11T08:29:11Z</time></trkpt><trkpt lat="44.98060110483969" lon="8.085407021945556"><ele>270.0</ele><time>2026-04-11T08:29:12Z</time></trkpt><trkpt lat="44.98059625673652" lon="8.08530423045719"><ele>270.0</ele><time>2026-04-11T08:29:13Z</time></trkpt><trkpt lat="44.98058008003653" lon="8.085209746566456"><ele>269.42857142857144</ele><time>2026-04-11T08:29:14Z</time></trkpt><trkpt lat="44.98056612268442" lon="8.085118844328148"><ele>268.85714285714283</ele><time>2026-04-11T08:29:15Z</time></trkpt><trkpt lat="44.98055152522954" lon="8.08502892849901"><ele>268.2857142857143</ele><time>2026-04-11T08:29:16Z</time></trkpt><trkpt lat="44.9805322079458" lon="8.084935296557438"><ele>267.7142857142857</ele><time>2026-04-11T08:29:17Z</time></trkpt><trkpt lat="44.980509007136206" lon="8.0848501342931"><ele>267.1428571428571</ele><time>2026-04-11T08:29:18Z</time></trkpt><trkpt lat="44.98048092026102" lon="8.084768834550287"><ele>266.57142857142856</ele><time>2026-04-11T08:29:19Z</time></trkpt><trkpt lat="44.98044538447071" lon="8.084693908860514"><ele>266.0</ele><time>2026-04-11T08:29:20Z</time></trkpt><trkpt lat="44.98037342339137" lon="8.084567072691012"><ele>266.0</ele><time>2026-04-11T08:29:22Z</time></trkpt><trkpt lat="44.980308845594465" lon="8.084457913356236"><ele>266.0</ele><time>2026-04-11T08:29:24Z</time></trkpt><trkpt lat="44.98024773670074" lon="8.084357585520152"><ele>266.0</ele><time>2026-04-11T08:29:26Z</time></trkpt><trkpt lat="44.980188438009506" lon="8.084273210827739"><ele>266.0</ele><time>2026-04-11T08:29:28Z</time></trkpt><trkpt lat="44.98013079963134" lon="8.084180750626857"><ele>266.0</ele><time>2026-04-11T08:29:30Z</time></trkpt><trkpt lat="44.980071954110215" lon="8.084089796137356"><ele>267.0</ele><time>2026-04-11T08:29:32Z</time></trkpt><trkpt lat="44.980019478095656" lon="8.083981656912329"><ele>268.0</ele><time>2026-04-11T08:29:34Z</time></trkpt><trkpt lat="44.9799632768322" lon="8.083872775653882"><ele>269.0</ele><time>2026-04-11T08:29:36Z</time></trkpt><trkpt lat="44.97989835460375" lon="8.08376910904786"><ele>270.0</ele><time>2026-04-11T08:29:37.999Z</time></trkpt><trkpt lat="44.979831634620055" lon="8.08366120590712"><ele>271.0</ele><time>2026-04-11T08:29:39.999Z</time></trkpt><trkpt lat="44.979752539919645" lon="8.083552466300398"><ele>271.8</ele><time>2026-04-11T08:29:41.999Z</time></trkpt><trkpt lat="44.979672749334924" lon="8.083450137795287"><ele>272.6</ele><time>2026-04-11T08:29:43.999Z</time></trkpt><trkpt lat="44.97959165358191" lon="8.083357882316283"><ele>273.4</ele><time>2026-04-11T08:29:45.999Z</time></trkpt><trkpt lat="44.97951037837339" lon="8.083273684284466"><ele>274.2</ele><time>2026-04-11T08:29:47.999Z</time></trkpt><trkpt lat="44.979425663831584" lon="8.08320890569253"><ele>275.0</ele><time>2026-04-11T08:29:49.999Z</time></trkpt><trkpt lat="44.979338590380486" lon="8.083150021694975"><ele>273.6666666666667</ele><time>2026-04-11T08:29:51.999Z</time></trkpt><trkpt lat="44.97927155493544" lon="8.083097846652075"><ele>272.33333333333337</ele><time>2026-04-11T08:29:53.999Z</time></trkpt><trkpt lat="44.97921089396577" lon="8.083035855668358"><ele>271.0</ele><time>2026-04-11T08:29:55.999Z</time></trkpt><trkpt lat="44.979125233513756" lon="8.082963833751979"><ele>269.6666666666667</ele><time>2026-04-11T08:29:57.999Z</time></trkpt><trkpt lat="44.97903172237788" lon="8.08287324697173"><ele>268.3333333333333</ele><time>2026-04-11T08:29:59.999Z</time></trkpt><trkpt lat="44.97897489970512" lon="8.082829300778304"><ele>267.0</ele><time>2026-04-11T08:30:00.999Z</time></trkpt><trkpt lat="44.97892140413063" lon="8.08277489368784"><ele>267.0</ele><time>2026-04-11T08:30:01.999Z</time></trkpt><trkpt lat="44.978864367245656" lon="8.082727817311726"><ele>267.0</ele><time>2026-04-11T08:30:02.999Z</time></trkpt><trkpt lat="44.97880570517918" lon="8.082681098999393"><ele>267.0</ele><time>2026-04-11T08:30:03.999Z</time></trkpt><trkpt lat="44.978748193561785" lon="8.082615690878152"><ele>267.0</ele><time>2026-04-11T08:30:04.999Z</time></trkpt><trkpt lat="44.978683101047444" lon="8.082557231840497"><ele>267.0</ele><time>2026-04-11T08:30:05.999Z</time></trkpt><trkpt lat="44.97861766858314" lon="8.082488208054466"><ele>267.0</ele><time>2026-04-11T08:30:06.999Z</time></trkpt><trkpt lat="44.97854522230072" lon="8.082415496421678"><ele>265.3333333333333</ele><time>2026-04-11T08:30:07.999Z</time></trkpt><trkpt lat="44.97848013334758" lon="8.082352491214332"><ele>263.6666666666667</ele><time>2026-04-11T08:30:08.999Z</time></trkpt><trkpt lat="44.978415754896496" lon="8.0822874849003"><ele>262.0</ele><time>2026-04-11T08:30:09.999Z</time></trkpt><trkpt lat="44.97834217946666" lon="8.082230875338812"><ele>260.33333333333337</ele><time>2026-04-11T08:30:10.999Z</time></trkpt><trkpt lat="44.97827372954003" lon="8.082177884829903"><ele>258.6666666666667</ele><time>2026-04-11T08:30:11.999Z</time></trkpt><trkpt lat="44.97820878452274" lon="8.082122966337746"><ele>257.0</ele><time>2026-04-11T08:30:12.999Z</time></trkpt><trkpt lat="44.978145914649126" lon="8.082069257670792"><ele>257.0</ele><time>2026-04-11T08:30:13.999Z</time></trkpt><trkpt lat="44.97808880734532" lon="8.08201400228398"><ele>257.0</ele><time>2026-04-11T08:30:14.999Z</time></trkpt><trkpt lat="44.978035771700995" lon="8.081966047953818"><ele>257.0</ele><time>2026-04-11T08:30:15.999Z</time></trkpt><trkpt lat="44.97798169475451" lon="8.081915038337998"><ele>257.0</ele><time>2026-04-11T08:30:16.999Z</time></trkpt><trkpt lat="44.977877924056386" lon="8.081826935873753"><ele>257.0</ele><time>2026-04-11T08:30:18.999Z</time></trkpt><trkpt lat="44.977786885208126" lon="8.081731280234568"><ele>257.0</ele><time>2026-04-11T08:30:20.999Z</time></trkpt><trkpt lat="44.977699382965014" lon="8.081660147499184"><ele>258.0</ele><time>2026-04-11T08:30:22.999Z</time></trkpt><trkpt lat="44.97761936134298" lon="8.081596852091703"><ele>259.0</ele><time>2026-04-11T08:30:24.999Z</time></trkpt><trkpt lat="44.977546427131344" lon="8.081539162729008"><ele>260.0</ele><time>2026-04-11T08:30:26.999Z</time></trkpt><trkpt lat="44.97746254558443" lon="8.081472664530654"><ele>261.0</ele><time>2026-04-11T08:30:29.999Z</time></trkpt><trkpt lat="44.977407853639306" lon="8.081428324034217"><ele>262.0</ele><time>2026-04-11T08:30:31.999Z</time></trkpt><trkpt lat="44.977324314626614" lon="8.081386159662397"><ele>263.0</ele><time>2026-04-11T08:30:34.999Z</time></trkpt><trkpt lat="44.97725811969789" lon="8.08131723407264"><ele>263.0</ele><time>2026-04-11T08:30:37.999Z</time></trkpt><trkpt lat="44.977173986181555" lon="8.081280663412667"><ele>263.0</ele><time>2026-04-11T08:30:40.999Z</time></trkpt><trkpt lat="44.97707602361105" lon="8.0812723193484"><ele>263.0</ele><time>2026-04-11T08:30:43.999Z</time></trkpt><trkpt lat="44.9769979630976" lon="8.08131443161668"><ele>263.0</ele><time>2026-04-11T08:30:47.999Z</time></trkpt><trkpt lat="44.97694418350536" lon="8.08136409365416"><ele>263.0</ele><time>2026-04-11T08:30:50Z</time></trkpt><trkpt lat="44.97687717465396" lon="8.081413837041055"><ele>263.0</ele><time>2026-04-11T08:30:52Z</time></trkpt><trkpt lat="44.97680467427578" lon="8.081470162231112"><ele>263.0</ele><time>2026-04-11T08:30:54Z</time></trkpt><trkpt lat="44.97672348684243" lon="8.081534976929145"><ele>263.0</ele><time>2026-04-11T08:30:56Z</time></trkpt><trkpt lat="44.97662942445544" lon="8.081626760916402"><ele>263.0</ele><time>2026-04-11T08:30:58Z</time></trkpt><trkpt lat="44.976532443264084" lon="8.08170818681244"><ele>263.0</ele><time>2026-04-11T08:31:00Z</time></trkpt><trkpt lat="44.97643094883877" lon="8.081826109712523"><ele>264.2857142857143</ele><time>2026-04-11T08:31:02Z</time></trkpt><trkpt lat="44.97637239446786" lon="8.081879124808646"><ele>265.57142857142856</ele><time>2026-04-11T08:31:03Z</time></trkpt><trkpt lat="44.97630947352647" lon="8.081926578483678"><ele>266.85714285714283</ele><time>2026-04-11T08:31:04Z</time></trkpt><trkpt lat="44.97624606685467" lon="8.08196994876081"><ele>268.1428571428571</ele><time>2026-04-11T08:31:05Z</time></trkpt><trkpt lat="44.97618665883252" lon="8.082002118098758"><ele>269.42857142857144</ele><time>2026-04-11T08:31:06Z</time></trkpt><trkpt lat="44.976121658320245" lon="8.082030648139623"><ele>270.71428571428567</ele><time>2026-04-11T08:31:07Z</time></trkpt><trkpt lat="44.976055183148105" lon="8.082040716414085"><ele>272.0</ele><time>2026-04-11T08:31:08Z</time></trkpt><trkpt lat="44.97599054155499" lon="8.08205442836334"><ele>272.0</ele><time>2026-04-11T08:31:09Z</time></trkpt><trkpt lat="44.97588063716874" lon="8.082058921382583"><ele>272.0</ele><time>2026-04-11T08:31:11Z</time></trkpt><trkpt lat="44.97578296485091" lon="8.0820661657278"><ele>272.0</ele><time>2026-04-11T08:31:13Z</time></trkpt><trkpt lat="44.97570924873455" lon="8.08206994421179"><ele>272.0</ele><time>2026-04-11T08:31:15Z</time></trkpt><trkpt lat="44.97564423693768" lon="8.08207327656052"><ele>272.0</ele><time>2026-04-11T08:31:17Z</time></trkpt><trkpt lat="44.975578572775994" lon="8.082076642346635"><ele>272.0</ele><time>2026-04-11T08:31:19Z</time></trkpt><trkpt lat="44.975500677998355" lon="8.0820806627643"><ele>270.0</ele><time>2026-04-11T08:31:21Z</time></trkpt><trkpt lat="44.97541681573542" lon="8.082054303017562"><ele>268.0</ele><time>2026-04-11T08:31:23Z</time></trkpt><trkpt lat="44.97533186438208" lon="8.082032668361892"><ele>266.0</ele><time>2026-04-11T08:31:25Z</time></trkpt><trkpt lat="44.97524580535523" lon="8.082008264995025"><ele>264.0</ele><time>2026-04-11T08:31:27Z</time></trkpt><trkpt lat="44.9751635173364" lon="8.081988628913399"><ele>262.0</ele><time>2026-04-11T08:31:29Z</time></trkpt><trkpt lat="44.97508710923964" lon="8.081966847056504"><ele>260.0</ele><time>2026-04-11T08:31:31Z</time></trkpt><trkpt lat="44.97501932262079" lon="8.081943337633255"><ele>260.0</ele><time>2026-04-11T08:31:33Z</time></trkpt><trkpt lat="44.974920564856305" lon="8.08190560590665"><ele>260.0</ele><time>2026-04-11T08:31:36Z</time></trkpt><trkpt lat="44.97483496041587" lon="8.081881519994704"><ele>260.0</ele><time>2026-04-11T08:31:38Z</time></trkpt><trkpt lat="44.97476197218407" lon="8.081841760075045"><ele>260.0</ele><time>2026-04-11T08:31:40Z</time></trkpt><trkpt lat="44.97466656116806" lon="8.081762654771413"><ele>260.0</ele><time>2026-04-11T08:31:42Z</time></trkpt><trkpt lat="44.97459699181533" lon="8.081686840289526"><ele>257.0</ele><time>2026-04-11T08:31:44Z</time></trkpt><trkpt lat="44.9745388860649" lon="8.081589704071478"><ele>254.0</ele><time>2026-04-11T08:31:45.999Z</time></trkpt><trkpt lat="44.9744887037906" lon="8.081491885934225"><ele>251.0</ele><time>2026-04-11T08:31:47.999Z</time></trkpt><trkpt lat="44.97441905306677" lon="8.0814196463553"><ele>248.0</ele><time>2026-04-11T08:31:49.999Z</time></trkpt><trkpt lat="44.97434928832285" lon="8.08139512649134"><ele>245.00000000000003</ele><time>2026-04-11T08:31:51.999Z</time></trkpt><trkpt lat="44.9742919627585" lon="8.081433064724452"><ele>242.0</ele><time>2026-04-11T08:31:53.999Z</time></trkpt><trkpt lat="44.97422824453397" lon="8.081521566793432"><ele>244.83333333333334</ele><time>2026-04-11T08:31:56.999Z</time></trkpt><trkpt lat="44.97418475823072" lon="8.081607904710262"><ele>247.66666666666669</ele><time>2026-04-11T08:31:58.999Z</time></trkpt><trkpt lat="44.97414775137484" lon="8.081695313222347"><ele>250.5</ele><time>2026-04-11T08:32:00.999Z</time></trkpt><trkpt lat="44.974094639776816" lon="8.081773607741868"><ele>253.33333333333331</ele><time>2026-04-11T08:32:02.999Z</time></trkpt><trkpt lat="44.97403575384696" lon="8.081852065125766"><ele>256.16666666666663</ele><time>2026-04-11T08:32:04.999Z</time></trkpt><trkpt lat="44.97397252325102" lon="8.081926512453"><ele>259.0</ele><time>2026-04-11T08:32:06.999Z</time></trkpt><trkpt lat="44.97391029284103" lon="8.081990275604099"><ele>259.0</ele><time>2026-04-11T08:32:08.999Z</time></trkpt><trkpt lat="44.9738535024551" lon="8.082046692225953"><ele>259.0</ele><time>2026-04-11T08:32:10.999Z</time></trkpt><trkpt lat="44.973771849291005" lon="8.082092435595788"><ele>259.0</ele><time>2026-04-11T08:32:12.999Z</time></trkpt><trkpt lat="44.97369230654457" lon="8.082105826774887"><ele>259.0</ele><time>2026-04-11T08:32:14.999Z</time></trkpt><trkpt lat="44.97361856655816" lon="8.082091594588094"><ele>259.0</ele><time>2026-04-11T08:32:16.999Z</time></trkpt><trkpt lat="44.97353710285881" lon="8.082099549775046"><ele>259.0</ele><time>2026-04-11T08:32:18.999Z</time></trkpt><trkpt lat="44.973464957445906" lon="8.082103735618075"><ele>259.0</ele><time>2026-04-11T08:32:20.999Z</time></trkpt><trkpt lat="44.97338784434203" lon="8.082107983173618"><ele>259.0</ele><time>2026-04-11T08:32:22.999Z</time></trkpt><trkpt lat="44.97329745712101" lon="8.082128600127147"><ele>259.0</ele><time>2026-04-11T08:32:24.999Z</time></trkpt><trkpt lat="44.973201685873" lon="8.082152223304405"><ele>259.0</ele><time>2026-04-11T08:32:26.999Z</time></trkpt><trkpt lat="44.97313237221279" lon="8.082182972933982"><ele>259.0</ele><time>2026-04-11T08:32:28.999Z</time></trkpt><trkpt lat="44.97305362645588" lon="8.082210935905405"><ele>259.0</ele><time>2026-04-11T08:32:31.999Z</time></trkpt><trkpt lat="44.97296271655716" lon="8.082215974032325"><ele>258.0</ele><time>2026-04-11T08:32:34.999Z</time></trkpt><trkpt lat="44.97289296446177" lon="8.082205568387211"><ele>257.0</ele><time>2026-04-11T08:32:36.999Z</time></trkpt><trkpt lat="44.97283302344998" lon="8.0821617826212"><ele>256.0</ele><time>2026-04-11T08:32:38.999Z</time></trkpt><trkpt lat="44.972773918301655" lon="8.082129243746648"><ele>255.0</ele><time>2026-04-11T08:32:40.999Z</time></trkpt><trkpt lat="44.97270979095225" lon="8.082099010636773"><ele>254.0</ele><time>2026-04-11T08:32:42.999Z</time></trkpt><trkpt lat="44.97264266399273" lon="8.0820803703417"><ele>253.0</ele><time>2026-04-11T08:32:44.999Z</time></trkpt><trkpt lat="44.972578784636156" lon="8.082074027228524"><ele>252.0</ele><time>2026-04-11T08:32:46.999Z</time></trkpt><trkpt lat="44.97251299494481" lon="8.082065916339383"><ele>252.0</ele><time>2026-04-11T08:32:48.999Z</time></trkpt><trkpt lat="44.97242388773773" lon="8.082055961254792"><ele>252.0</ele><time>2026-04-11T08:32:51.999Z</time></trkpt><trkpt lat="44.97236030665774" lon="8.082050896169807"><ele>252.0</ele><time>2026-04-11T08:32:53.999Z</time></trkpt><trkpt lat="44.972288629130034" lon="8.082053428914936"><ele>252.0</ele><time>2026-04-11T08:32:56Z</time></trkpt><trkpt lat="44.97222268380684" lon="8.082130946319914"><ele>252.0</ele><time>2026-04-11T08:32:59Z</time></trkpt><trkpt lat="44.97215816696297" lon="8.08219545183219"><ele>252.0</ele><time>2026-04-11T08:33:02Z</time></trkpt><trkpt lat="44.97209688007275" lon="8.08224374581547"><ele>252.0</ele><time>2026-04-11T08:33:06Z</time></trkpt><trkpt lat="44.97203880625837" lon="8.082279855622549"><ele>252.0</ele><time>2026-04-11T08:33:08Z</time></trkpt><trkpt lat="44.97197062483197" lon="8.082316208383745"><ele>252.0</ele><time>2026-04-11T08:33:12Z</time></trkpt><trkpt lat="44.97188456545086" lon="8.082329627546619"><ele>252.0</ele><time>2026-04-11T08:33:16Z</time></trkpt><trkpt lat="44.9717910913275" lon="8.082346733463876"><ele>252.0</ele><time>2026-04-11T08:33:19Z</time></trkpt><trkpt lat="44.971723762115474" lon="8.082353939723133"><ele>252.0</ele><time>2026-04-11T08:33:21Z</time></trkpt><trkpt lat="44.971658728022476" lon="8.082355693459377"><ele>251.66666666666666</ele><time>2026-04-11T08:33:23Z</time></trkpt><trkpt lat="44.97158314430664" lon="8.08237147159206"><ele>251.33333333333331</ele><time>2026-04-11T08:33:26Z</time></trkpt><trkpt lat="44.971508168354106" lon="8.082380870076724"><ele>251.0</ele><time>2026-04-11T08:33:28Z</time></trkpt><trkpt lat="44.97143687636343" lon="8.082389661585797"><ele>250.66666666666666</ele><time>2026-04-11T08:33:30Z</time></trkpt><trkpt lat="44.97135213873355" lon="8.082401653531024"><ele>250.33333333333331</ele><time>2026-04-11T08:33:32Z</time></trkpt><trkpt lat="44.97128041796632" lon="8.082404925162603"><ele>250.0</ele><time>2026-04-11T08:33:34Z</time></trkpt><trkpt lat="44.97120282697943" lon="8.082399842338233"><ele>249.99999999999997</ele><time>2026-04-11T08:33:36Z</time></trkpt><trkpt lat="44.97111823249293" lon="8.0823932077894"><ele>250.0</ele><time>2026-04-11T08:33:40Z</time></trkpt><trkpt lat="44.97101011762782" lon="8.082396647630098"><ele>250.0</ele><time>2026-04-11T08:33:42Z</time></trkpt><trkpt lat="44.970925954192616" lon="8.082394558399914"><ele>250.0</ele><time>2026-04-11T08:33:44Z</time></trkpt><trkpt lat="44.9708380374846" lon="8.082399638689768"><ele>249.99999999999997</ele><time>2026-04-11T08:33:46Z</time></trkpt><trkpt lat="44.97075707278009" lon="8.082397705779611"><ele>250.0</ele><time>2026-04-11T08:33:48Z</time></trkpt><trkpt lat="44.9706750154859" lon="8.082384708879745"><ele>249.33333333333331</ele><time>2026-04-11T08:33:50Z</time></trkpt><trkpt lat="44.97060027115325" lon="8.082375143944128"><ele>248.66666666666666</ele><time>2026-04-11T08:33:51.999Z</time></trkpt><trkpt lat="44.970534275230264" lon="8.082378216048903"><ele>248.0</ele><time>2026-04-11T08:33:53.999Z</time></trkpt><trkpt lat="44.97046610776515" lon="8.082378344558487"><ele>247.33333333333331</ele><time>2026-04-11T08:33:55.999Z</time></trkpt><trkpt lat="44.970400284492555" lon="8.08237580159012"><ele>246.66666666666666</ele><time>2026-04-11T08:33:57.999Z</time></trkpt><trkpt lat="44.970315953470426" lon="8.082361502266009"><ele>246.0</ele><time>2026-04-11T08:34:00.999Z</time></trkpt><trkpt lat="44.970225233490915" lon="8.08233439142024"><ele>246.0</ele><time>2026-04-11T08:34:04.999Z</time></trkpt><trkpt lat="44.970150244319186" lon="8.082364634518145"><ele>246.0</ele><time>2026-04-11T08:34:06.999Z</time></trkpt><trkpt lat="44.97006912906942" lon="8.082382169598679"><ele>246.0</ele><time>2026-04-11T08:34:08.999Z</time></trkpt><trkpt lat="44.970002205351506" lon="8.082380595732973"><ele>246.0</ele><time>2026-04-11T08:34:10.999Z</time></trkpt><trkpt lat="44.96991520004482" lon="8.082412380078114"><ele>246.0</ele><time>2026-04-11T08:34:12.999Z</time></trkpt><trkpt lat="44.969837327374144" lon="8.082455115987566"><ele>246.0</ele><time>2026-04-11T08:34:14.999Z</time></trkpt><trkpt lat="44.969756532598936" lon="8.08249376903781"><ele>246.8</ele><time>2026-04-11T08:34:16.999Z</time></trkpt><trkpt lat="44.96968005947819" lon="8.082558700700636"><ele>247.60000000000002</ele><time>2026-04-11T08:34:18.999Z</time></trkpt><trkpt lat="44.96959363266272" lon="8.082626482549463"><ele>248.4</ele><time>2026-04-11T08:34:20.999Z</time></trkpt><trkpt lat="44.96950115092311" lon="8.082682498883823"><ele>249.2</ele><time>2026-04-11T08:34:22.999Z</time></trkpt><trkpt lat="44.96941859262525" lon="8.082722506100607"><ele>250.0</ele><time>2026-04-11T08:34:24.999Z</time></trkpt><trkpt lat="44.96934520390228" lon="8.082762080662217"><ele>250.0</ele><time>2026-04-11T08:34:26.999Z</time></trkpt><trkpt lat="44.9692663301924" lon="8.082792893456709"><ele>250.0</ele><time>2026-04-11T08:34:28.999Z</time></trkpt><trkpt lat="44.969185826931906" lon="8.082825726040944"><ele>250.0</ele><time>2026-04-11T08:34:30.999Z</time></trkpt><trkpt lat="44.969121923471796" lon="8.082868018678122"><ele>250.0</ele><time>2026-04-11T08:34:32.999Z</time></trkpt><trkpt lat="44.96906105926835" lon="8.08291866141438"><ele>250.0</ele><time>2026-04-11T08:34:34.999Z</time></trkpt><trkpt lat="44.96899085388212" lon="8.082957339410205"><ele>250.0</ele><time>2026-04-11T08:34:36.999Z</time></trkpt><trkpt lat="44.96892856419713" lon="8.082989061061744"><ele>250.0</ele><time>2026-04-11T08:34:38.999Z</time></trkpt><trkpt lat="44.96884058298257" lon="8.083024603592968"><ele>249.42857142857142</ele><time>2026-04-11T08:34:40.999Z</time></trkpt><trkpt lat="44.96876209997896" lon="8.083056251608634"><ele>248.8571428571429</ele><time>2026-04-11T08:34:42.999Z</time></trkpt><trkpt lat="44.96868426286018" lon="8.083074622541293"><ele>248.2857142857143</ele><time>2026-04-11T08:34:44.999Z</time></trkpt><trkpt lat="44.968611637280354" lon="8.08307862540078"><ele>247.71428571428572</ele><time>2026-04-11T08:34:46.999Z</time></trkpt><trkpt lat="44.96854803051583" lon="8.08306333558386"><ele>247.14285714285717</ele><time>2026-04-11T08:34:48.999Z</time></trkpt><trkpt lat="44.96848244983333" lon="8.083064898742666"><ele>246.5714285714286</ele><time>2026-04-11T08:34:50.999Z</time></trkpt><trkpt lat="44.968417110095096" lon="8.083049959880167"><ele>246.00000000000003</ele><time>2026-04-11T08:34:52.999Z</time></trkpt><trkpt lat="44.96832952612659" lon="8.083041070826816"><ele>245.5</ele><time>2026-04-11T08:34:55.999Z</time></trkpt><trkpt lat="44.96826374581612" lon="8.083033312897756"><ele>245.0</ele><time>2026-04-11T08:34:57.999Z</time></trkpt><trkpt lat="44.96818228254102" lon="8.083035527135735"><ele>244.5</ele><time>2026-04-11T08:35:01Z</time></trkpt><trkpt lat="44.968105952956435" lon="8.083043963222389"><ele>244.0</ele><time>2026-04-11T08:36:23.999Z</time></trkpt><trkpt lat="44.96803175443211" lon="8.08308601867197"><ele>243.5</ele><time>2026-04-11T08:36:27.999Z</time></trkpt><trkpt lat="44.96795855517904" lon="8.083125194353638"><ele>243.0</ele><time>2026-04-11T08:36:31.999Z</time></trkpt><trkpt lat="44.96788370367562" lon="8.083159900375367"><ele>243.0</ele><time>2026-04-11T08:36:35.999Z</time></trkpt><trkpt lat="44.96780421441029" lon="8.083192936381343"><ele>243.0</ele><time>2026-04-11T08:36:38.999Z</time></trkpt><trkpt lat="44.9677215325357" lon="8.083224116474971"><ele>243.0</ele><time>2026-04-11T08:36:41.999Z</time></trkpt><trkpt lat="44.967644670245065" lon="8.083276287546163"><ele>243.0</ele><time>2026-04-11T08:36:44.999Z</time></trkpt><trkpt lat="44.96756565660322" lon="8.083330682644023"><ele>243.0</ele><time>2026-04-11T08:36:47.999Z</time></trkpt><trkpt lat="44.967477712779555" lon="8.083391271036984"><ele>243.0</ele><time>2026-04-11T08:36:50.999Z</time></trkpt><trkpt lat="44.96741551991822" lon="8.083440660434025"><ele>243.71428571428572</ele><time>2026-04-11T08:36:52.999Z</time></trkpt><trkpt lat="44.96733998502091" lon="8.083513887667229"><ele>244.42857142857144</ele><time>2026-04-11T08:36:55.999Z</time></trkpt><trkpt lat="44.96728892445319" lon="8.083566989653017"><ele>245.14285714285717</ele><time>2026-04-11T08:36:57.999Z</time></trkpt><trkpt lat="44.967233151257005" lon="8.083616970200072"><ele>245.85714285714286</ele><time>2026-04-11T08:36:59.999Z</time></trkpt><trkpt lat="44.967170218855024" lon="8.083672389496538"><ele>246.5714285714286</ele><time>2026-04-11T08:37:01.999Z</time></trkpt><trkpt lat="44.96711796975136" lon="8.083741212115225"><ele>247.2857142857143</ele><time>2026-04-11T08:37:03.999Z</time></trkpt><trkpt lat="44.96706563883538" lon="8.083805892850076"><ele>248.0</ele><time>2026-04-11T08:37:05.999Z</time></trkpt><trkpt lat="44.96698790751757" lon="8.083882296783992"><ele>248.00000000000003</ele><time>2026-04-11T08:37:09Z</time></trkpt><trkpt lat="44.966926499251485" lon="8.083943952048214"><ele>248.0</ele><time>2026-04-11T08:37:11Z</time></trkpt><trkpt lat="44.96685729238856" lon="8.084000912673805"><ele>248.0</ele><time>2026-04-11T08:37:13Z</time></trkpt><trkpt lat="44.966786848768265" lon="8.084061684949717"><ele>248.0</ele><time>2026-04-11T08:37:15Z</time></trkpt><trkpt lat="44.96671656586114" lon="8.084113115447986"><ele>248.00000000000003</ele><time>2026-04-11T08:37:17Z</time></trkpt><trkpt lat="44.96664119244283" lon="8.08415313841108"><ele>248.0</ele><time>2026-04-11T08:37:19Z</time></trkpt><trkpt lat="44.96656147414153" lon="8.084186410687597"><ele>247.16666666666669</ele><time>2026-04-11T08:37:21Z</time></trkpt><trkpt lat="44.96646608376265" lon="8.084217369666536"><ele>246.33333333333334</ele><time>2026-04-11T08:37:23Z</time></trkpt><trkpt lat="44.9663800016539" lon="8.084245138865708"><ele>245.5</ele><time>2026-04-11T08:37:25Z</time></trkpt><trkpt lat="44.96629488991654" lon="8.084266708054477"><ele>244.66666666666669</ele><time>2026-04-11T08:37:27Z</time></trkpt><trkpt lat="44.96621954073037" lon="8.084280981532064"><ele>243.83333333333334</ele><time>2026-04-11T08:37:29Z</time></trkpt><trkpt lat="44.966147388229224" lon="8.08428763721311"><ele>243.0</ele><time>2026-04-11T08:37:31Z</time></trkpt><trkpt lat="44.96606398343977" lon="8.084327599811987"><ele>243.0</ele><time>2026-04-11T08:37:33Z</time></trkpt><trkpt lat="44.965986729992416" lon="8.08436384827252"><ele>243.0</ele><time>2026-04-11T08:37:35Z</time></trkpt><trkpt lat="44.965898985231966" lon="8.084407317644448"><ele>243.0</ele><time>2026-04-11T08:37:37Z</time></trkpt><trkpt lat="44.96582196086054" lon="8.084438949993674"><ele>243.0</ele><time>2026-04-11T08:37:39Z</time></trkpt><trkpt lat="44.96573570639996" lon="8.0844751330966"><ele>243.0</ele><time>2026-04-11T08:37:41Z</time></trkpt><trkpt lat="44.96563131797771" lon="8.084479553864812"><ele>243.0</ele><time>2026-04-11T08:37:43Z</time></trkpt><trkpt lat="44.96552193293889" lon="8.084488288405735"><ele>243.60000000000002</ele><time>2026-04-11T08:37:45Z</time></trkpt><trkpt lat="44.96540447290563" lon="8.084465725976168"><ele>244.20000000000002</ele><time>2026-04-11T08:37:47Z</time></trkpt><trkpt lat="44.96531600805669" lon="8.084417351786302"><ele>244.8</ele><time>2026-04-11T08:37:49Z</time></trkpt><trkpt lat="44.96522332545959" lon="8.084368066633564"><ele>245.4</ele><time>2026-04-11T08:37:51Z</time></trkpt><trkpt lat="44.96512502917591" lon="8.0843435992705"><ele>246.0</ele><time>2026-04-11T08:37:53Z</time></trkpt><trkpt lat="44.96503941422941" lon="8.084349159682937"><ele>245.4</ele><time>2026-04-11T08:37:55Z</time></trkpt><trkpt lat="44.96495032417397" lon="8.084368120807184"><ele>244.8</ele><time>2026-04-11T08:37:57Z</time></trkpt><trkpt lat="44.96486279109895" lon="8.084422684128256"><ele>244.20000000000002</ele><time>2026-04-11T08:38:00Z</time></trkpt><trkpt lat="44.964775242707475" lon="8.084481685534708"><ele>243.60000000000002</ele><time>2026-04-11T08:38:02Z</time></trkpt><trkpt lat="44.96469892841915" lon="8.084565741594796"><ele>243.0</ele><time>2026-04-11T08:38:04Z</time></trkpt><trkpt lat="44.96463755371508" lon="8.084661582706396"><ele>243.0</ele><time>2026-04-11T08:38:06Z</time></trkpt><trkpt lat="44.96456674795988" lon="8.084751852970378"><ele>243.0</ele><time>2026-04-11T08:38:08Z</time></trkpt><trkpt lat="44.964524337229584" lon="8.0848521527589"><ele>243.0</ele><time>2026-04-11T08:38:10.999Z</time></trkpt><trkpt lat="44.96445323779917" lon="8.084943904047782"><ele>243.0</ele><time>2026-04-11T08:38:11.999Z</time></trkpt><trkpt lat="44.96435494598818" lon="8.085028148256463"><ele>243.0</ele><time>2026-04-11T08:38:13.999Z</time></trkpt><trkpt lat="44.96425531046628" lon="8.08510894996299"><ele>242.60000000000002</ele><time>2026-04-11T08:38:15.999Z</time></trkpt><trkpt lat="44.96415081208768" lon="8.08514591609928"><ele>242.20000000000002</ele><time>2026-04-11T08:38:17.999Z</time></trkpt><trkpt lat="44.96404803152358" lon="8.085155616140613"><ele>241.8</ele><time>2026-04-11T08:38:19.999Z</time></trkpt><trkpt lat="44.96394472826487" lon="8.085160376241356"><ele>241.4</ele><time>2026-04-11T08:38:21.999Z</time></trkpt><trkpt lat="44.963845240507325" lon="8.08514221921009"><ele>241.0</ele><time>2026-04-11T08:38:23.999Z</time></trkpt><trkpt lat="44.96375748720177" lon="8.085108292042628"><ele>240.99999999999997</ele><time>2026-04-11T08:38:25.999Z</time></trkpt><trkpt lat="44.96367275249717" lon="8.085067514190126"><ele>241.0</ele><time>2026-04-11T08:38:27.999Z</time></trkpt><trkpt lat="44.96359735888525" lon="8.084999180042205"><ele>241.0</ele><time>2026-04-11T08:38:29.999Z</time></trkpt><trkpt lat="44.96353085929502" lon="8.084934540072076"><ele>241.0</ele><time>2026-04-11T08:38:31.999Z</time></trkpt><trkpt lat="44.96345626793378" lon="8.084860566361726"><ele>240.99999999999997</ele><time>2026-04-11T08:38:33.999Z</time></trkpt><trkpt lat="44.96337795551984" lon="8.084788126748993"><ele>241.0</ele><time>2026-04-11T08:38:35.999Z</time></trkpt><trkpt lat="44.963299201544885" lon="8.08471720819325"><ele>241.0</ele><time>2026-04-11T08:38:37.999Z</time></trkpt><trkpt lat="44.96322004369104" lon="8.08465924931853"><ele>241.00000000000003</ele><time>2026-04-11T08:38:39.999Z</time></trkpt><trkpt lat="44.96314629295228" lon="8.084576328837285"><ele>241.00000000000003</ele><time>2026-04-11T08:38:41.999Z</time></trkpt><trkpt lat="44.96307871777662" lon="8.08448847864029"><ele>241.0</ele><time>2026-04-11T08:38:43.999Z</time></trkpt><trkpt lat="44.963006700793294" lon="8.084389209004526"><ele>241.0</ele><time>2026-04-11T08:38:45.999Z</time></trkpt><trkpt lat="44.962942343278506" lon="8.084303242976231"><ele>241.0</ele><time>2026-04-11T08:38:47.999Z</time></trkpt><trkpt lat="44.962870970297224" lon="8.084192998290135"><ele>241.00000000000003</ele><time>2026-04-11T08:38:49.999Z</time></trkpt><trkpt lat="44.962844376312894" lon="8.08411191246315"><ele>241.00000000000003</ele><time>2026-04-11T08:38:50.999Z</time></trkpt><trkpt lat="44.96279636849359" lon="8.083974520878149"><ele>241.0</ele><time>2026-04-11T08:38:52.999Z</time></trkpt><trkpt lat="44.96275541002594" lon="8.083834835283058"><ele>241.0</ele><time>2026-04-11T08:38:54.999Z</time></trkpt><trkpt lat="44.96270036997087" lon="8.083705537613508"><ele>239.60000000000002</ele><time>2026-04-11T08:38:56.999Z</time></trkpt><trkpt lat="44.96261084153298" lon="8.083616793195262"><ele>238.20000000000002</ele><time>2026-04-11T08:38:58.999Z</time></trkpt><trkpt lat="44.962527927099806" lon="8.083600603014995"><ele>236.79999999999998</ele><time>2026-04-11T08:39:00.999Z</time></trkpt><trkpt lat="44.96243341082916" lon="8.083600119806125"><ele>235.39999999999998</ele><time>2026-04-11T08:39:03.999Z</time></trkpt><trkpt lat="44.96235677970653" lon="8.083572506751931"><ele>234.0</ele><time>2026-04-11T08:39:05.999Z</time></trkpt><trkpt lat="44.96225656603097" lon="8.083550251303217"><ele>233.39999999999998</ele><time>2026-04-11T08:39:07.999Z</time></trkpt><trkpt lat="44.962150765436355" lon="8.08350407033267"><ele>232.79999999999998</ele><time>2026-04-11T08:39:09.999Z</time></trkpt><trkpt lat="44.96206677723217" lon="8.083460381223073"><ele>232.20000000000002</ele><time>2026-04-11T08:39:11.999Z</time></trkpt><trkpt lat="44.9619897926593" lon="8.083415450254362"><ele>231.60000000000002</ele><time>2026-04-11T08:39:14Z</time></trkpt><trkpt lat="44.96190860981627" lon="8.083352180674794"><ele>231.0</ele><time>2026-04-11T08:39:16Z</time></trkpt><trkpt lat="44.96182222245694" lon="8.083273051383761"><ele>230.60000000000002</ele><time>2026-04-11T08:39:18Z</time></trkpt><trkpt lat="44.96173962493195" lon="8.083192923712945"><ele>230.20000000000002</ele><time>2026-04-11T08:39:20Z</time></trkpt><trkpt lat="44.96165960773422" lon="8.083130551664876"><ele>229.79999999999998</ele><time>2026-04-11T08:39:22Z</time></trkpt><trkpt lat="44.96159444442883" lon="8.083066011449281"><ele>229.39999999999998</ele><time>2026-04-11T08:39:24Z</time></trkpt><trkpt lat="44.96152383959918" lon="8.082979769587011"><ele>229.0</ele><time>2026-04-11T08:39:26Z</time></trkpt><trkpt lat="44.9614606395565" lon="8.082886145868395"><ele>228.99999999999997</ele><time>2026-04-11T08:39:29Z</time></trkpt><trkpt lat="44.96142079198533" lon="8.082789110176174"><ele>229.0</ele><time>2026-04-11T08:39:31Z</time></trkpt><trkpt lat="44.9613977791138" lon="8.08269828046894"><ele>229.0</ele><time>2026-04-11T08:39:33Z</time></trkpt><trkpt lat="44.961414556614606" lon="8.082601218099452"><ele>229.0</ele><time>2026-04-11T08:39:35Z</time></trkpt><trkpt lat="44.96145348958747" lon="8.082491483266171"><ele>228.99999999999997</ele><time>2026-04-11T08:39:37Z</time></trkpt><trkpt lat="44.961478026896394" lon="8.08237223640865"><ele>229.0</ele><time>2026-04-11T08:39:39Z</time></trkpt><trkpt lat="44.96146586615651" lon="8.082248659652722"><ele>228.71428571428572</ele><time>2026-04-11T08:39:41Z</time></trkpt><trkpt lat="44.96143868596048" lon="8.082155438914192"><ele>228.42857142857144</ele><time>2026-04-11T08:39:43Z</time></trkpt><trkpt lat="44.96140238801384" lon="8.082061100363973"><ele>228.14285714285717</ele><time>2026-04-11T08:39:46Z</time></trkpt><trkpt lat="44.96135661593695" lon="8.08195630999338"><ele>227.85714285714286</ele><time>2026-04-11T08:39:49Z</time></trkpt><trkpt lat="44.961310757582595" lon="8.081877283301006"><ele>227.5714285714286</ele><time>2026-04-11T08:39:51Z</time></trkpt><trkpt lat="44.961245247060845" lon="8.08182337682241"><ele>227.2857142857143</ele><time>2026-04-11T08:39:53Z</time></trkpt><trkpt lat="44.9611859273611" lon="8.081783762686076"><ele>227.0</ele><time>2026-04-11T08:39:55Z</time></trkpt><trkpt lat="44.96111965685709" lon="8.081730906115283"><ele>227.00000000000003</ele><time>2026-04-11T08:39:57Z</time></trkpt><trkpt lat="44.9610535097823" lon="8.081694256859947"><ele>227.0</ele><time>2026-04-11T08:39:59Z</time></trkpt><trkpt lat="44.9609838899065" lon="8.081646551951952"><ele>227.0</ele><time>2026-04-11T08:40:01Z</time></trkpt><trkpt lat="44.96092363444049" lon="8.081600666615667"><ele>227.0</ele><time>2026-04-11T08:40:03Z</time></trkpt><trkpt lat="44.96084368884977" lon="8.081598567036684"><ele>227.00000000000003</ele><time>2026-04-11T08:40:06Z</time></trkpt><trkpt lat="44.9608338402597" lon="8.081692278991591"><ele>227.0</ele><time>2026-04-11T08:40:08Z</time></trkpt><trkpt lat="44.96086612219206" lon="8.081820957556992"><ele>227.00000000000003</ele><time>2026-04-11T08:40:10Z</time></trkpt><trkpt lat="44.96091430799555" lon="8.081923212603856"><ele>227.0</ele><time>2026-04-11T08:40:11.999Z</time></trkpt><trkpt lat="44.96094681552662" lon="8.082013173527013"><ele>227.0</ele><time>2026-04-11T08:40:13.999Z</time></trkpt><trkpt lat="44.96097542737513" lon="8.08213912325173"><ele>227.0</ele><time>2026-04-11T08:40:16.999Z</time></trkpt><trkpt lat="44.960985793894636" lon="8.08225321211814"><ele>227.00000000000003</ele><time>2026-04-11T08:40:18.999Z</time></trkpt><trkpt lat="44.96098929102362" lon="8.082365247652234"><ele>227.0</ele><time>2026-04-11T08:40:20.999Z</time></trkpt><trkpt lat="44.96098133705627" lon="8.082505694045201"><ele>227.2857142857143</ele><time>2026-04-11T08:40:23.999Z</time></trkpt><trkpt lat="44.96096955209391" lon="8.082607276896818"><ele>227.5714285714286</ele><time>2026-04-11T08:40:25.999Z</time></trkpt><trkpt lat="44.960910490319556" lon="8.082675670208307"><ele>227.85714285714286</ele><time>2026-04-11T08:40:28.999Z</time></trkpt><trkpt lat="44.96083169208301" lon="8.082648829272337"><ele>228.14285714285717</ele><time>2026-04-11T08:40:31.999Z</time></trkpt><trkpt lat="44.96077235747331" lon="8.08261284972414"><ele>228.42857142857144</ele><time>2026-04-11T08:40:35.999Z</time></trkpt><trkpt lat="44.96076291113937" lon="8.082716759839935"><ele>228.71428571428572</ele><time>2026-04-11T08:40:38.999Z</time></trkpt><trkpt lat="44.960798212784375" lon="8.082800010310871"><ele>229.0</ele><time>2026-04-11T08:40:40.999Z</time></trkpt><trkpt lat="44.96082783846514" lon="8.08289324566332"><ele>228.99999999999997</ele><time>2026-04-11T08:40:42.999Z</time></trkpt><trkpt lat="44.96086942973001" lon="8.082994766629778"><ele>229.0</ele><time>2026-04-11T08:40:44.999Z</time></trkpt><trkpt lat="44.96091540293389" lon="8.083095905893977"><ele>229.0</ele><time>2026-04-11T08:40:46.999Z</time></trkpt><trkpt lat="44.96096129209005" lon="8.083206010866032"><ele>229.0</ele><time>2026-04-11T08:40:48.999Z</time></trkpt><trkpt lat="44.96101944308891" lon="8.083307824506868"><ele>228.99999999999997</ele><time>2026-04-11T08:40:50.999Z</time></trkpt><trkpt lat="44.96107935051658" lon="8.083402651649875"><ele>229.0</ele><time>2026-04-11T08:40:52.999Z</time></trkpt><trkpt lat="44.96113609306396" lon="8.083496046562983"><ele>227.83333333333331</ele><time>2026-04-11T08:40:54.999Z</time></trkpt><trkpt lat="44.96119570925282" lon="8.083584383791345"><ele>226.66666666666666</ele><time>2026-04-11T08:40:56.999Z</time></trkpt><trkpt lat="44.96125046703093" lon="8.083688013753742"><ele>225.5</ele><time>2026-04-11T08:40:58.999Z</time></trkpt><trkpt lat="44.961310966772636" lon="8.083759071241072"><ele>224.33333333333331</ele><time>2026-04-11T08:41:00.999Z</time></trkpt><trkpt lat="44.96136557997005" lon="8.08383540498392"><ele>223.16666666666666</ele><time>2026-04-11T08:41:02.999Z</time></trkpt><trkpt lat="44.96142373408288" lon="8.083904801472649"><ele>222.0</ele><time>2026-04-11T08:41:04.999Z</time></trkpt><trkpt lat="44.961476922682586" lon="8.083971808516658"><ele>222.0</ele><time>2026-04-11T08:41:06.999Z</time></trkpt><trkpt lat="44.96152851161696" lon="8.084035570390421"><ele>222.0</ele><time>2026-04-11T08:41:08.999Z</time></trkpt><trkpt lat="44.96158061657886" lon="8.084099823477619"><ele>222.0</ele><time>2026-04-11T08:41:10.999Z</time></trkpt><trkpt lat="44.961630370875454" lon="8.084164824032374"><ele>222.0</ele><time>2026-04-11T08:41:12.999Z</time></trkpt><trkpt lat="44.96168806638343" lon="8.084227124349127"><ele>222.0</ele><time>2026-04-11T08:41:15.999Z</time></trkpt><trkpt lat="44.961742897724065" lon="8.084300532462203"><ele>222.0</ele><time>2026-04-11T08:41:19Z</time></trkpt><trkpt lat="44.9617838893041" lon="8.08438156430416"><ele>222.0</ele><time>2026-04-11T08:41:22Z</time></trkpt><trkpt lat="44.96183118438327" lon="8.084451056979994"><ele>222.66666666666666</ele><time>2026-04-11T08:41:26Z</time></trkpt><trkpt lat="44.961899707994924" lon="8.084506394965512"><ele>223.33333333333331</ele><time>2026-04-11T08:42:09Z</time></trkpt><trkpt lat="44.961961342800564" lon="8.084580231051273"><ele>224.0</ele><time>2026-04-11T08:42:12Z</time></trkpt><trkpt lat="44.962018781535264" lon="8.084674307575229"><ele>224.66666666666666</ele><time>2026-04-11T08:42:14.999Z</time></trkpt><trkpt lat="44.96208214604017" lon="8.084765705390357"><ele>225.33333333333331</ele><time>2026-04-11T08:42:17.999Z</time></trkpt><trkpt lat="44.96214220617197" lon="8.084857012047104"><ele>226.0</ele><time>2026-04-11T08:42:20.999Z</time></trkpt><trkpt lat="44.96220389576376" lon="8.084955373603204"><ele>224.57142857142858</ele><time>2026-04-11T08:42:23.999Z</time></trkpt><trkpt lat="44.96224775702085" lon="8.085021589327866"><ele>223.14285714285714</ele><time>2026-04-11T08:42:25.999Z</time></trkpt><trkpt lat="44.962284902637315" lon="8.085097333112854"><ele>221.71428571428572</ele><time>2026-04-11T08:42:27.999Z</time></trkpt><trkpt lat="44.96233048914059" lon="8.085158757380599"><ele>220.28571428571428</ele><time>2026-04-11T08:42:29.999Z</time></trkpt><trkpt lat="44.96237084693903" lon="8.085236019155177"><ele>218.85714285714283</ele><time>2026-04-11T08:42:31.999Z</time></trkpt><trkpt lat="44.96241473685679" lon="8.085311358144194"><ele>217.42857142857142</ele><time>2026-04-11T08:42:33.999Z</time></trkpt><trkpt lat="44.96245017065024" lon="8.085391085551064"><ele>216.0</ele><time>2026-04-11T08:42:35.999Z</time></trkpt><trkpt lat="44.962484730455174" lon="8.085472979820082"><ele>216.0</ele><time>2026-04-11T08:42:37.999Z</time></trkpt><trkpt lat="44.96251635861571" lon="8.085557193044307"><ele>216.0</ele><time>2026-04-11T08:42:39.999Z</time></trkpt><trkpt lat="44.96253199225863" lon="8.085652504408406"><ele>216.0</ele><time>2026-04-11T08:42:41.999Z</time></trkpt><trkpt lat="44.96254565035811" lon="8.085775790056584"><ele>216.0</ele><time>2026-04-11T08:42:44.999Z</time></trkpt><trkpt lat="44.96252944241578" lon="8.085891844802832"><ele>216.0</ele><time>2026-04-11T08:42:47.999Z</time></trkpt><trkpt lat="44.962512573534525" lon="8.086001314647703"><ele>216.0</ele><time>2026-04-11T08:42:50.999Z</time></trkpt><trkpt lat="44.96248157007417" lon="8.086104434679731"><ele>216.14285714285714</ele><time>2026-04-11T08:42:53.999Z</time></trkpt><trkpt lat="44.96246636553428" lon="8.086213918116199"><ele>216.28571428571428</ele><time>2026-04-11T08:42:56.999Z</time></trkpt><trkpt lat="44.962446493794445" lon="8.086316422268977"><ele>216.42857142857144</ele><time>2026-04-11T08:42:59.999Z</time></trkpt><trkpt lat="44.96242500446937" lon="8.08641434892875"><ele>216.57142857142856</ele><time>2026-04-11T08:43:02.999Z</time></trkpt><trkpt lat="44.96241995793018" lon="8.086513726425922"><ele>216.71428571428572</ele><time>2026-04-11T08:43:05.999Z</time></trkpt><trkpt lat="44.96240087873388" lon="8.08661245122875"><ele>216.85714285714286</ele><time>2026-04-11T08:43:08.999Z</time></trkpt><trkpt lat="44.962381593341796" lon="8.08670927028253"><ele>217.0</ele><time>2026-04-11T08:43:11.999Z</time></trkpt><trkpt lat="44.96236719362757" lon="8.086800436339752"><ele>218.57142857142856</ele><time>2026-04-11T08:43:14.999Z</time></trkpt><trkpt lat="44.96235014077193" lon="8.086920467270657"><ele>220.14285714285714</ele><time>2026-04-11T08:43:18.999Z</time></trkpt><trkpt lat="44.96233617981761" lon="8.087008747030051"><ele>221.71428571428572</ele><time>2026-04-11T08:43:21.999Z</time></trkpt><trkpt lat="44.96232131343833" lon="8.087101253528711"><ele>223.28571428571428</ele><time>2026-04-11T08:43:26Z</time></trkpt><trkpt lat="44.96230807999474" lon="8.087200751069993"><ele>224.85714285714283</ele><time>2026-04-11T08:43:30Z</time></trkpt><trkpt lat="44.96228975719436" lon="8.087322482437925"><ele>226.42857142857142</ele><time>2026-04-11T08:43:34Z</time></trkpt><trkpt lat="44.96227499061959" lon="8.08741667984083"><ele>228.0</ele><time>2026-04-11T08:43:37Z</time></trkpt><trkpt lat="44.962271458650186" lon="8.087512060605148"><ele>229.42857142857142</ele><time>2026-04-11T08:43:41Z</time></trkpt><trkpt lat="44.96226192356708" lon="8.087614891844362"><ele>230.85714285714283</ele><time>2026-04-11T08:43:45Z</time></trkpt><trkpt lat="44.96225435251121" lon="8.087710797520536"><ele>232.28571428571428</ele><time>2026-04-11T08:43:49Z</time></trkpt><trkpt lat="44.962237872206366" lon="8.087813699534069"><ele>233.71428571428572</ele><time>2026-04-11T08:43:53Z</time></trkpt><trkpt lat="44.96222090877909" lon="8.087914832769858"><ele>235.14285714285714</ele><time>2026-04-11T08:43:57Z</time></trkpt><trkpt lat="44.96221407357839" lon="8.088013457033176"><ele>236.57142857142856</ele><time>2026-04-11T08:44:01Z</time></trkpt><trkpt lat="44.96220518502206" lon="8.088107799900781"><ele>238.0</ele><time>2026-04-11T08:44:05Z</time></trkpt><trkpt lat="44.962190265501484" lon="8.088202612632092"><ele>238.66666666666666</ele><time>2026-04-11T08:44:09Z</time></trkpt><trkpt lat="44.96219453347869" lon="8.088306083848817"><ele>239.33333333333331</ele><time>2026-04-11T08:44:13Z</time></trkpt><trkpt lat="44.96221436410654" lon="8.088404943223212"><ele>240.0</ele><time>2026-04-11T08:44:17Z</time></trkpt><trkpt lat="44.962236897905186" lon="8.088517717723304"><ele>240.66666666666669</ele><time>2026-04-11T08:44:18.999Z</time></trkpt><trkpt lat="44.96227577780838" lon="8.088631511986542"><ele>241.33333333333334</ele><time>2026-04-11T08:44:20.999Z</time></trkpt><trkpt lat="44.96232435986417" lon="8.088758477613643"><ele>242.0</ele><time>2026-04-11T08:44:22.999Z</time></trkpt><trkpt lat="44.96239463898948" lon="8.088904915592265"><ele>242.0</ele><time>2026-04-11T08:44:24.999Z</time></trkpt><trkpt lat="44.96242450951482" lon="8.088991259945827"><ele>241.99999999999997</ele><time>2026-04-11T08:44:25.999Z</time></trkpt><trkpt lat="44.962422633033505" lon="8.089091529933148"><ele>242.0</ele><time>2026-04-11T08:44:26.999Z</time></trkpt><trkpt lat="44.962455313288274" lon="8.089180067433045"><ele>242.0</ele><time>2026-04-11T08:44:27.999Z</time></trkpt><trkpt lat="44.96245512950555" lon="8.08929197762798"><ele>241.99999999999997</ele><time>2026-04-11T08:44:28.999Z</time></trkpt><trkpt lat="44.96243959639647" lon="8.089400037595139"><ele>242.0</ele><time>2026-04-11T08:44:29.999Z</time></trkpt><trkpt lat="44.96240867526081" lon="8.089508398830937"><ele>242.0</ele><time>2026-04-11T08:44:30.999Z</time></trkpt><trkpt lat="44.962367261514984" lon="8.089615618751427"><ele>240.16666666666669</ele><time>2026-04-11T08:44:31.999Z</time></trkpt><trkpt lat="44.96232496907494" lon="8.089722947771188"><ele>238.33333333333334</ele><time>2026-04-11T08:44:32.999Z</time></trkpt><trkpt lat="44.96228716910841" lon="8.089833082253886"><ele>236.5</ele><time>2026-04-11T08:44:33.999Z</time></trkpt><trkpt lat="44.9622564982634" lon="8.08994014032608"><ele>234.66666666666669</ele><time>2026-04-11T08:44:34.999Z</time></trkpt><trkpt lat="44.96223176429566" lon="8.090061623835627"><ele>232.83333333333334</ele><time>2026-04-11T08:44:35.999Z</time></trkpt><trkpt lat="44.96222103569563" lon="8.090192018446409"><ele>231.0</ele><time>2026-04-11T08:44:36.999Z</time></trkpt><trkpt lat="44.962233074509975" lon="8.090320306459786"><ele>228.60000000000002</ele><time>2026-04-11T08:44:37.999Z</time></trkpt><trkpt lat="44.96226028549725" lon="8.090464994215697"><ele>226.20000000000002</ele><time>2026-04-11T08:44:38.999Z</time></trkpt><trkpt lat="44.962312618499205" lon="8.090587478483668"><ele>223.79999999999998</ele><time>2026-04-11T08:44:39.999Z</time></trkpt><trkpt lat="44.96236500758332" lon="8.090697432395816"><ele>221.39999999999998</ele><time>2026-04-11T08:44:40.999Z</time></trkpt><trkpt lat="44.96240029857396" lon="8.090810053267344"><ele>219.0</ele><time>2026-04-11T08:44:41.999Z</time></trkpt><trkpt lat="44.9624480768596" lon="8.090909081005309"><ele>218.33333333333334</ele><time>2026-04-11T08:44:42.999Z</time></trkpt><trkpt lat="44.96250114614274" lon="8.091003222709098"><ele>217.66666666666669</ele><time>2026-04-11T08:44:43.999Z</time></trkpt><trkpt lat="44.962567190658525" lon="8.09107150661668"><ele>217.0</ele><time>2026-04-11T08:44:44.999Z</time></trkpt><trkpt lat="44.962609513581754" lon="8.09116644233124"><ele>216.33333333333334</ele><time>2026-04-11T08:44:45.999Z</time></trkpt><trkpt lat="44.96265665745155" lon="8.091251127701831"><ele>215.66666666666669</ele><time>2026-04-11T08:44:46.999Z</time></trkpt><trkpt lat="44.96269757002434" lon="8.09133361597503"><ele>215.0</ele><time>2026-04-11T08:44:47.999Z</time></trkpt><trkpt lat="44.962739503118165" lon="8.091408399000356"><ele>215.0</ele><time>2026-04-11T08:44:48.999Z</time></trkpt><trkpt lat="44.96280246192222" lon="8.091499170687097"><ele>215.0</ele><time>2026-04-11T08:44:50.999Z</time></trkpt><trkpt lat="44.96262239237457" lon="8.091787904729786"><ele>215.0</ele><time>2026-04-11T08:44:55.999Z</time></trkpt><trkpt lat="44.96257256487928" lon="8.091857712407558"><ele>215.0</ele><time>2026-04-11T08:44:56.999Z</time></trkpt><trkpt lat="44.96248323893142" lon="8.091981795030666"><ele>214.75</ele><time>2026-04-11T08:44:58.999Z</time></trkpt><trkpt lat="44.962394382671725" lon="8.092106650531955"><ele>214.5</ele><time>2026-04-11T08:45:00.999Z</time></trkpt><trkpt lat="44.96230619571178" lon="8.092231387313145"><ele>214.25</ele><time>2026-04-11T08:45:02.999Z</time></trkpt><trkpt lat="44.96223433258367" lon="8.092351904886016"><ele>214.0</ele><time>2026-04-11T08:45:04.999Z</time></trkpt><trkpt lat="44.962159120395874" lon="8.092476410755653"><ele>214.0</ele><time>2026-04-11T08:45:06.999Z</time></trkpt><trkpt lat="44.96208087095481" lon="8.092595062952327"><ele>213.99999999999997</ele><time>2026-04-11T08:45:08.999Z</time></trkpt><trkpt lat="44.96200623136769" lon="8.09271225897881"><ele>213.99999999999997</ele><time>2026-04-11T08:45:10.999Z</time></trkpt><trkpt lat="44.9619345115143" lon="8.092828609430919"><ele>214.0</ele><time>2026-04-11T08:45:12.999Z</time></trkpt><trkpt lat="44.96186179347145" lon="8.092941634314402"><ele>214.0</ele><time>2026-04-11T08:45:14.999Z</time></trkpt><trkpt lat="44.96178632407276" lon="8.0930553642976"><ele>214.0</ele><time>2026-04-11T08:45:16.999Z</time></trkpt><trkpt lat="44.96171087463918" lon="8.093173159070691"><ele>213.99999999999997</ele><time>2026-04-11T08:45:18.999Z</time></trkpt><trkpt lat="44.96162850090632" lon="8.093277167153339"><ele>213.99999999999997</ele><time>2026-04-11T08:45:20.999Z</time></trkpt><trkpt lat="44.96154763718649" lon="8.093375018897776"><ele>214.0</ele><time>2026-04-11T08:45:22.999Z</time></trkpt><trkpt lat="44.96146867593572" lon="8.093470834892107"><ele>214.0</ele><time>2026-04-11T08:45:24.999Z</time></trkpt><trkpt lat="44.9613888646568" lon="8.09356975167376"><ele>212.79999999999998</ele><time>2026-04-11T08:45:26.999Z</time></trkpt><trkpt lat="44.96131231542981" lon="8.093666809709367"><ele>211.59999999999997</ele><time>2026-04-11T08:45:28.999Z</time></trkpt><trkpt lat="44.96123696209738" lon="8.093767262255925"><ele>210.4</ele><time>2026-04-11T08:45:31Z</time></trkpt><trkpt lat="44.961160093150504" lon="8.093878809405142"><ele>209.2</ele><time>2026-04-11T08:45:33Z</time></trkpt><trkpt lat="44.96108992199428" lon="8.09399216655418"><ele>208.0</ele><time>2026-04-11T08:45:35Z</time></trkpt><trkpt lat="44.96102382119058" lon="8.094106520208806"><ele>208.8</ele><time>2026-04-11T08:45:37Z</time></trkpt><trkpt lat="44.96098799974913" lon="8.0941889536734"><ele>209.60000000000002</ele><time>2026-04-11T08:45:38Z</time></trkpt><trkpt lat="44.96092307807022" lon="8.094295561600072"><ele>210.39999999999998</ele><time>2026-04-11T08:45:40Z</time></trkpt><trkpt lat="44.960858918135266" lon="8.0944150922283"><ele>211.2</ele><time>2026-04-11T08:45:42Z</time></trkpt><trkpt lat="44.960780298653084" lon="8.094530491743102"><ele>212.0</ele><time>2026-04-11T08:45:44Z</time></trkpt><trkpt lat="44.960696866006735" lon="8.094632589570484"><ele>212.0</ele><time>2026-04-11T08:45:46Z</time></trkpt><trkpt lat="44.960614942777596" lon="8.094730222467398"><ele>212.0</ele><time>2026-04-11T08:45:48Z</time></trkpt><trkpt lat="44.96055798866933" lon="8.094835278478696"><ele>212.0</ele><time>2026-04-11T08:45:50Z</time></trkpt><trkpt lat="44.96049998276664" lon="8.094955573784993"><ele>212.0</ele><time>2026-04-11T08:45:52Z</time></trkpt><trkpt lat="44.96044904232332" lon="8.095081682513626"><ele>212.0</ele><time>2026-04-11T08:45:54Z</time></trkpt><trkpt lat="44.96039924550546" lon="8.095231031664877"><ele>212.0</ele><time>2026-04-11T08:45:56Z</time></trkpt><trkpt lat="44.96035099530356" lon="8.095371630251691"><ele>212.0</ele><time>2026-04-11T08:45:58Z</time></trkpt><trkpt lat="44.9603015563564" lon="8.09550978304746"><ele>212.0</ele><time>2026-04-11T08:46:00Z</time></trkpt><trkpt lat="44.96024610835042" lon="8.095645988483739"><ele>212.0</ele><time>2026-04-11T08:46:02Z</time></trkpt><trkpt lat="44.960188051005154" lon="8.09578065953527"><ele>212.0</ele><time>2026-04-11T08:46:04Z</time></trkpt><trkpt lat="44.960132473791184" lon="8.09590929396015"><ele>211.5</ele><time>2026-04-11T08:46:06Z</time></trkpt><trkpt lat="44.960070194554966" lon="8.096033768806729"><ele>211.0</ele><time>2026-04-11T08:46:08Z</time></trkpt><trkpt lat="44.96000840720372" lon="8.096177232081889"><ele>210.5</ele><time>2026-04-11T08:46:10Z</time></trkpt><trkpt lat="44.959943218095866" lon="8.096307222837751"><ele>210.0</ele><time>2026-04-11T08:46:12Z</time></trkpt><trkpt lat="44.959868664638776" lon="8.096436996211997"><ele>210.0</ele><time>2026-04-11T08:46:14Z</time></trkpt><trkpt lat="44.95979377299073" lon="8.096558344220899"><ele>210.0</ele><time>2026-04-11T08:46:16Z</time></trkpt><trkpt lat="44.95971550173681" lon="8.09667124102081"><ele>210.0</ele><time>2026-04-11T08:46:18Z</time></trkpt><trkpt lat="44.9596649099313" lon="8.096734986740849"><ele>210.0</ele><time>2026-04-11T08:46:19Z</time></trkpt><trkpt lat="44.95957861948992" lon="8.096842745228827"><ele>210.0</ele><time>2026-04-11T08:46:21Z</time></trkpt><trkpt lat="44.959491767504325" lon="8.096958941054272"><ele>210.25</ele><time>2026-04-11T08:46:23Z</time></trkpt><trkpt lat="44.959414836504486" lon="8.097080767034305"><ele>210.5</ele><time>2026-04-11T08:46:25Z</time></trkpt><trkpt lat="44.95933233773166" lon="8.097200646142367"><ele>210.75</ele><time>2026-04-11T08:46:27Z</time></trkpt><trkpt lat="44.959262833033435" lon="8.09730549661988"><ele>211.0</ele><time>2026-04-11T08:46:29Z</time></trkpt><trkpt lat="44.95920179504005" lon="8.09744252995097"><ele>210.75</ele><time>2026-04-11T08:46:31Z</time></trkpt><trkpt lat="44.95913378093389" lon="8.097572469076782"><ele>210.5</ele><time>2026-04-11T08:46:33Z</time></trkpt><trkpt lat="44.95906719257734" lon="8.097707754804327"><ele>210.25</ele><time>2026-04-11T08:46:34.999Z</time></trkpt><trkpt lat="44.95899557330687" lon="8.097841859423799"><ele>210.0</ele><time>2026-04-11T08:46:36.999Z</time></trkpt><trkpt lat="44.958922368774786" lon="8.097976288800805"><ele>210.0</ele><time>2026-04-11T08:46:38.999Z</time></trkpt><trkpt lat="44.958847853767885" lon="8.098092911476408"><ele>210.0</ele><time>2026-04-11T08:46:40.999Z</time></trkpt><trkpt lat="44.95878469095297" lon="8.098208598542552"><ele>210.0</ele><time>2026-04-11T08:46:42.999Z</time></trkpt><trkpt lat="44.95872634003566" lon="8.098328223329586"><ele>210.0</ele><time>2026-04-11T08:46:44.999Z</time></trkpt><trkpt lat="44.95867000934901" lon="8.09843940409925"><ele>210.0</ele><time>2026-04-11T08:46:46.999Z</time></trkpt><trkpt lat="44.958613020564904" lon="8.098562547865656"><ele>210.16666666666666</ele><time>2026-04-11T08:46:48.999Z</time></trkpt><trkpt lat="44.95855736251857" lon="8.098682225920175"><ele>210.33333333333331</ele><time>2026-04-11T08:46:50.999Z</time></trkpt><trkpt lat="44.958520537751625" lon="8.098786330889123"><ele>210.5</ele><time>2026-04-11T08:46:52.999Z</time></trkpt><trkpt lat="44.95847940488935" lon="8.098893756076272"><ele>210.66666666666666</ele><time>2026-04-11T08:46:54.999Z</time></trkpt><trkpt lat="44.95845690589638" lon="8.099003623922858"><ele>210.83333333333331</ele><time>2026-04-11T08:46:56.999Z</time></trkpt><trkpt lat="44.958423068702224" lon="8.099116090782092"><ele>211.0</ele><time>2026-04-11T08:46:58.999Z</time></trkpt><trkpt lat="44.95839291976226" lon="8.099236339317176"><ele>209.8</ele><time>2026-04-11T08:47:00.999Z</time></trkpt><trkpt lat="44.95836360205725" lon="8.099359755965445"><ele>208.60000000000002</ele><time>2026-04-11T08:47:02.999Z</time></trkpt><trkpt lat="44.958336679770326" lon="8.0995045004711"><ele>207.4</ele><time>2026-04-11T08:47:04.999Z</time></trkpt><trkpt lat="44.95830708446248" lon="8.09964316525295"><ele>206.2</ele><time>2026-04-11T08:47:06.999Z</time></trkpt><trkpt lat="44.958271258906954" lon="8.099763266984558"><ele>205.0</ele><time>2026-04-11T08:47:09.999Z</time></trkpt><trkpt lat="44.95823749101829" lon="8.099873558950675"><ele>205.33333333333331</ele><time>2026-04-11T08:47:10.999Z</time></trkpt><trkpt lat="44.95819809461022" lon="8.09998501074594"><ele>205.66666666666666</ele><time>2026-04-11T08:47:12.999Z</time></trkpt><trkpt lat="44.958164834815555" lon="8.10009830236346"><ele>206.0</ele><time>2026-04-11T08:47:14.999Z</time></trkpt><trkpt lat="44.958130790090564" lon="8.100206523628705"><ele>206.33333333333331</ele><time>2026-04-11T08:47:16.999Z</time></trkpt><trkpt lat="44.95810966561948" lon="8.100330439071266"><ele>206.66666666666666</ele><time>2026-04-11T08:47:18.999Z</time></trkpt><trkpt lat="44.95809627334811" lon="8.100451881550137"><ele>207.0</ele><time>2026-04-11T08:47:20.999Z</time></trkpt><trkpt lat="44.95810114521613" lon="8.100578968526287"><ele>207.0</ele><time>2026-04-11T08:47:22.999Z</time></trkpt><trkpt lat="44.958104141679016" lon="8.100705625105949"><ele>207.0</ele><time>2026-04-11T08:47:24.999Z</time></trkpt><trkpt lat="44.958108730578765" lon="8.100847487994145"><ele>207.0</ele><time>2026-04-11T08:47:26.999Z</time></trkpt><trkpt lat="44.958097812465894" lon="8.100993057541515"><ele>207.0</ele><time>2026-04-11T08:47:28.999Z</time></trkpt><trkpt lat="44.95807575199243" lon="8.101132651717792"><ele>207.0</ele><time>2026-04-11T08:47:30.999Z</time></trkpt><trkpt lat="44.95804449980484" lon="8.101268664586016"><ele>207.39999999999998</ele><time>2026-04-11T08:47:32.999Z</time></trkpt><trkpt lat="44.958008076323814" lon="8.101394339364319"><ele>207.79999999999998</ele><time>2026-04-11T08:47:34.999Z</time></trkpt><trkpt lat="44.95797846039824" lon="8.101512920008194"><ele>208.2</ele><time>2026-04-11T08:47:37Z</time></trkpt><trkpt lat="44.957968136520684" lon="8.101653296016398"><ele>208.6</ele><time>2026-04-11T08:47:39Z</time></trkpt><trkpt lat="44.957975973664496" lon="8.101777292223463"><ele>209.0</ele><time>2026-04-11T08:47:41Z</time></trkpt><trkpt lat="44.957958515801515" lon="8.101893629521317"><ele>209.0</ele><time>2026-04-11T08:47:43Z</time></trkpt><trkpt lat="44.95791636350472" lon="8.102024370706113"><ele>209.0</ele><time>2026-04-11T08:47:45Z</time></trkpt><trkpt lat="44.95787547479579" lon="8.102146920414327"><ele>209.0</ele><time>2026-04-11T08:47:47Z</time></trkpt><trkpt lat="44.957843088160004" lon="8.102267277102424"><ele>209.0</ele><time>2026-04-11T08:47:49Z</time></trkpt><trkpt lat="44.95780779935823" lon="8.102378893889396"><ele>209.0</ele><time>2026-04-11T08:47:51Z</time></trkpt><trkpt lat="44.95776979203054" lon="8.102490121617118"><ele>208.16666666666669</ele><time>2026-04-11T08:47:53Z</time></trkpt><trkpt lat="44.95773100848364" lon="8.102616385700179"><ele>207.33333333333334</ele><time>2026-04-11T08:47:55Z</time></trkpt><trkpt lat="44.9576919527327" lon="8.102734780096329"><ele>206.5</ele><time>2026-04-11T08:47:57Z</time></trkpt><trkpt lat="44.957652989872955" lon="8.102848258529766"><ele>205.66666666666669</ele><time>2026-04-11T08:47:59Z</time></trkpt><trkpt lat="44.9576146679066" lon="8.102950648899643"><ele>204.83333333333334</ele><time>2026-04-11T08:48:01Z</time></trkpt><trkpt lat="44.95758895485445" lon="8.1030519493375"><ele>204.0</ele><time>2026-04-11T08:48:03Z</time></trkpt><trkpt lat="44.95755512127346" lon="8.103147472735042"><ele>203.83333333333334</ele><time>2026-04-11T08:48:05Z</time></trkpt><trkpt lat="44.95752418962086" lon="8.10326534969456"><ele>203.66666666666669</ele><time>2026-04-11T08:48:07Z</time></trkpt><trkpt lat="44.957490636606664" lon="8.10336996845269"><ele>203.5</ele><time>2026-04-11T08:48:09Z</time></trkpt><trkpt lat="44.95744580562984" lon="8.103445829918677"><ele>203.33333333333334</ele><time>2026-04-11T08:48:11Z</time></trkpt><trkpt lat="44.95738311931855" lon="8.103550385321347"><ele>203.16666666666669</ele><time>2026-04-11T08:48:13Z</time></trkpt><trkpt lat="44.95731882439784" lon="8.103636843487157"><ele>203.0</ele><time>2026-04-11T08:48:15Z</time></trkpt><trkpt lat="44.957267078402374" lon="8.103696610478996"><ele>203.0</ele><time>2026-04-11T08:48:18Z</time></trkpt><trkpt lat="44.95720465655013" lon="8.103749483057717"><ele>203.0</ele><time>2026-04-11T08:48:20Z</time></trkpt><trkpt lat="44.95713474902658" lon="8.103847170336048"><ele>203.0</ele><time>2026-04-11T08:48:22Z</time></trkpt><trkpt lat="44.95698407739639" lon="8.10398234424909"><ele>203.0</ele><time>2026-04-11T08:48:24Z</time></trkpt><trkpt lat="44.95692022186509" lon="8.104082298357278"><ele>203.0</ele><time>2026-04-11T08:48:26Z</time></trkpt><trkpt lat="44.95683511003615" lon="8.104170171265174"><ele>202.4</ele><time>2026-04-11T08:48:28Z</time></trkpt><trkpt lat="44.95679824953709" lon="8.104248780616675"><ele>201.8</ele><time>2026-04-11T08:48:29Z</time></trkpt><trkpt lat="44.956719178678355" lon="8.10431158323759"><ele>201.2</ele><time>2026-04-11T08:48:31Z</time></trkpt><trkpt lat="44.956648147532206" lon="8.104412373855826"><ele>200.6</ele><time>2026-04-11T08:48:33Z</time></trkpt><trkpt lat="44.95656203597836" lon="8.104500999386437"><ele>200.0</ele><time>2026-04-11T08:48:34.999Z</time></trkpt><trkpt lat="44.956492311713376" lon="8.104602967081343"><ele>200.0</ele><time>2026-04-11T08:48:36.999Z</time></trkpt><trkpt lat="44.956411287176316" lon="8.104701131973439"><ele>200.0</ele><time>2026-04-11T08:48:38.999Z</time></trkpt><trkpt lat="44.95633709618392" lon="8.104806452317593"><ele>200.0</ele><time>2026-04-11T08:48:40.999Z</time></trkpt><trkpt lat="44.95625895890366" lon="8.104911753166617"><ele>200.0</ele><time>2026-04-11T08:48:42.999Z</time></trkpt><trkpt lat="44.956194310530215" lon="8.105024656855715"><ele>200.0</ele><time>2026-04-11T08:48:44.999Z</time></trkpt><trkpt lat="44.95613020795694" lon="8.10513320799456"><ele>200.66666666666669</ele><time>2026-04-11T08:48:46.999Z</time></trkpt><trkpt lat="44.95607634734302" lon="8.105243768947478"><ele>201.33333333333334</ele><time>2026-04-11T08:48:48.999Z</time></trkpt><trkpt lat="44.956029103600635" lon="8.105368896886894"><ele>202.0</ele><time>2026-04-11T08:48:50.999Z</time></trkpt><trkpt lat="44.95598551276132" lon="8.105481485415906"><ele>202.66666666666669</ele><time>2026-04-11T08:48:52.999Z</time></trkpt><trkpt lat="44.9559599455961" lon="8.105587518927367"><ele>203.33333333333334</ele><time>2026-04-11T08:48:54.999Z</time></trkpt><trkpt lat="44.95593133932992" lon="8.10569051764253"><ele>204.0</ele><time>2026-04-11T08:48:56.999Z</time></trkpt><trkpt lat="44.955900213900904" lon="8.10578675796925"><ele>204.33333333333334</ele><time>2026-04-11T08:48:58.999Z</time></trkpt><trkpt lat="44.955878065632554" lon="8.10589895071993"><ele>204.66666666666669</ele><time>2026-04-11T08:49:00.999Z</time></trkpt><trkpt lat="44.955877588267455" lon="8.106010658561617"><ele>205.0</ele><time>2026-04-11T08:49:02.999Z</time></trkpt><trkpt lat="44.955857212055655" lon="8.106127988194052"><ele>205.33333333333334</ele><time>2026-04-11T08:49:04.999Z</time></trkpt><trkpt lat="44.95584442566465" lon="8.106247297304254"><ele>205.66666666666669</ele><time>2026-04-11T08:49:06.999Z</time></trkpt><trkpt lat="44.95583312425036" lon="8.106365032148215"><ele>206.0</ele><time>2026-04-11T08:49:08.999Z</time></trkpt><trkpt lat="44.95582209897935" lon="8.106476952904243"><ele>205.66666666666669</ele><time>2026-04-11T08:49:10.999Z</time></trkpt><trkpt lat="44.95582048344519" lon="8.106594387125288"><ele>205.33333333333334</ele><time>2026-04-11T08:49:12.999Z</time></trkpt><trkpt lat="44.95582884833422" lon="8.106706257809218"><ele>205.0</ele><time>2026-04-11T08:49:14.999Z</time></trkpt><trkpt lat="44.955856276863955" lon="8.10681189357319"><ele>204.66666666666669</ele><time>2026-04-11T08:49:16.999Z</time></trkpt><trkpt lat="44.95590108233163" lon="8.106893943695093"><ele>204.33333333333334</ele><time>2026-04-11T08:49:18.999Z</time></trkpt><trkpt lat="44.955966516800416" lon="8.106988851314558"><ele>204.0</ele><time>2026-04-11T08:49:21.999Z</time></trkpt><trkpt lat="44.95601115798467" lon="8.107064134889027"><ele>204.0</ele><time>2026-04-11T08:49:24.999Z</time></trkpt><trkpt lat="44.95603198013757" lon="8.107149487704415"><ele>204.0</ele><time>2026-04-11T08:49:27.999Z</time></trkpt><trkpt lat="44.955997016968105" lon="8.107228673261355"><ele>204.0</ele><time>2026-04-11T08:49:30.999Z</time></trkpt><trkpt lat="44.95594654271087" lon="8.107301359632087"><ele>204.0</ele><time>2026-04-11T08:49:33.999Z</time></trkpt><trkpt lat="44.95587752102767" lon="8.10736341862804"><ele>204.0</ele><time>2026-04-11T08:49:36.999Z</time></trkpt><trkpt lat="44.9557979007752" lon="8.107428739275566"><ele>204.0</ele><time>2026-04-11T08:49:39.999Z</time></trkpt><trkpt lat="44.955743510255516" lon="8.107474675043886"><ele>204.0</ele><time>2026-04-11T08:49:40.999Z</time></trkpt><trkpt lat="44.95563836301504" lon="8.107531800163281"><ele>203.66666666666666</ele><time>2026-04-11T08:49:43Z</time></trkpt><trkpt lat="44.955587091930056" lon="8.107600985738614"><ele>203.33333333333331</ele><time>2026-04-11T08:49:45Z</time></trkpt><trkpt lat="44.955510297201926" lon="8.107666553655454"><ele>203.0</ele><time>2026-04-11T08:49:48Z</time></trkpt><trkpt lat="44.955448102728454" lon="8.10772867944133"><ele>202.66666666666666</ele><time>2026-04-11T08:49:51Z</time></trkpt><trkpt lat="44.955372709941834" lon="8.107755218766554"><ele>202.33333333333331</ele><time>2026-04-11T08:49:53Z</time></trkpt><trkpt lat="44.95528104984075" lon="8.107813702626345"><ele>202.0</ele><time>2026-04-11T08:49:56Z</time></trkpt><trkpt lat="44.95519346851529" lon="8.107870682052143"><ele>202.0</ele><time>2026-04-11T08:49:58Z</time></trkpt><trkpt lat="44.95510586163152" lon="8.107930801747683"><ele>202.0</ele><time>2026-04-11T08:50:00Z</time></trkpt><trkpt lat="44.95504067581775" lon="8.107967826273855"><ele>202.0</ele><time>2026-04-11T08:50:02Z</time></trkpt><trkpt lat="44.95476307465414" lon="8.108107122541151"><ele>201.2</ele><time>2026-04-11T08:50:04Z</time></trkpt><trkpt lat="44.954651824753455" lon="8.10818914514547"><ele>200.39999999999998</ele><time>2026-04-11T08:50:06Z</time></trkpt><trkpt lat="44.95459394365953" lon="8.108233938423961"><ele>199.60000000000002</ele><time>2026-04-11T08:50:07Z</time></trkpt><trkpt lat="44.95453090555102" lon="8.108268455341369"><ele>198.8</ele><time>2026-04-11T08:50:08Z</time></trkpt><trkpt lat="44.95441677639038" lon="8.108333938579948"><ele>198.0</ele><time>2026-04-11T08:50:10Z</time></trkpt><trkpt lat="44.954317412791546" lon="8.10838390212271"><ele>198.2</ele><time>2026-04-11T08:50:12Z</time></trkpt><trkpt lat="44.95422797365494" lon="8.10845863000197"><ele>198.4</ele><time>2026-04-11T08:50:14Z</time></trkpt><trkpt lat="44.95415443508876" lon="8.108550115751187"><ele>198.6</ele><time>2026-04-11T08:50:16Z</time></trkpt><trkpt lat="44.95407990590377" lon="8.108642087654989"><ele>198.79999999999998</ele><time>2026-04-11T08:50:18Z</time></trkpt><trkpt lat="44.95402512912048" lon="8.10874620802546"><ele>199.0</ele><time>2026-04-11T08:50:20Z</time></trkpt><trkpt lat="44.953980807611444" lon="8.108878145305955"><ele>198.99999999999997</ele><time>2026-04-11T08:50:22Z</time></trkpt><trkpt lat="44.95392767378735" lon="8.108976917349379"><ele>199.0</ele><time>2026-04-11T08:50:24Z</time></trkpt><trkpt lat="44.953832250244226" lon="8.108996557603419"><ele>199.0</ele><time>2026-04-11T08:50:26Z</time></trkpt><trkpt lat="44.95373114883164" lon="8.109070132946227"><ele>199.0</ele><time>2026-04-11T08:50:28Z</time></trkpt><trkpt lat="44.9536732199537" lon="8.109135455214208"><ele>198.99999999999997</ele><time>2026-04-11T08:50:29Z</time></trkpt><trkpt lat="44.95361030510658" lon="8.109159937707867"><ele>199.0</ele><time>2026-04-11T08:50:30Z</time></trkpt><trkpt lat="44.953506196073114" lon="8.109237654660372"><ele>198.79999999999998</ele><time>2026-04-11T08:50:32Z</time></trkpt><trkpt lat="44.95344607645256" lon="8.10928211566012"><ele>198.6</ele><time>2026-04-11T08:50:33Z</time></trkpt><trkpt lat="44.953388562922" lon="8.10932331349292"><ele>198.4</ele><time>2026-04-11T08:50:34Z</time></trkpt><trkpt lat="44.95327718793484" lon="8.109403093124465"><ele>198.2</ele><time>2026-04-11T08:50:36Z</time></trkpt><trkpt lat="44.953169711355365" lon="8.109479249489521"><ele>198.0</ele><time>2026-04-11T08:50:38Z</time></trkpt><trkpt lat="44.95306270129213" lon="8.109554872104987"><ele>198.0</ele><time>2026-04-11T08:50:40Z</time></trkpt><trkpt lat="44.95296277694061" lon="8.109653569425657"><ele>198.0</ele><time>2026-04-11T08:50:42Z</time></trkpt><trkpt lat="44.95289812643557" lon="8.109673475275544"><ele>198.0</ele><time>2026-04-11T08:50:43Z</time></trkpt><trkpt lat="44.95279405984955" lon="8.109758307736103"><ele>198.0</ele><time>2026-04-11T08:50:45Z</time></trkpt><trkpt lat="44.952727037032" lon="8.109763131621206"><ele>198.0</ele><time>2026-04-11T08:50:46Z</time></trkpt><trkpt lat="44.9526123512749" lon="8.109783592090675"><ele>197.2</ele><time>2026-04-11T08:50:48Z</time></trkpt><trkpt lat="44.95249997831876" lon="8.109795330456981"><ele>196.4</ele><time>2026-04-11T08:50:49.999Z</time></trkpt><trkpt lat="44.95238146802558" lon="8.109819138723537"><ele>195.6</ele><time>2026-04-11T08:50:51.999Z</time></trkpt><trkpt lat="44.95231311477526" lon="8.10983596544577"><ele>194.79999999999998</ele><time>2026-04-11T08:50:52.999Z</time></trkpt><trkpt lat="44.95220341799686" lon="8.10988472072809"><ele>194.0</ele><time>2026-04-11T08:50:54.999Z</time></trkpt><trkpt lat="44.952086928966786" lon="8.109911665791547"><ele>194.6</ele><time>2026-04-11T08:50:56.999Z</time></trkpt><trkpt lat="44.952031143309696" lon="8.109955935846779"><ele>195.2</ele><time>2026-04-11T08:50:57.999Z</time></trkpt><trkpt lat="44.95197064290946" lon="8.10998715166006"><ele>195.79999999999998</ele><time>2026-04-11T08:50:58.999Z</time></trkpt><trkpt lat="44.951866070932326" lon="8.110067359440585"><ele>196.39999999999998</ele><time>2026-04-11T08:51:00.999Z</time></trkpt><trkpt lat="44.95178422871159" lon="8.11015352891188"><ele>197.0</ele><time>2026-04-11T08:51:02.999Z</time></trkpt><trkpt lat="44.95169236833484" lon="8.110220944071136"><ele>197.0</ele><time>2026-04-11T08:51:04.999Z</time></trkpt><trkpt lat="44.95161929138954" lon="8.110322086804011"><ele>197.0</ele><time>2026-04-11T08:51:06.999Z</time></trkpt><trkpt lat="44.9515278951886" lon="8.110387065144046"><ele>197.0</ele><time>2026-04-11T08:51:08.999Z</time></trkpt><trkpt lat="44.951436453220886" lon="8.110478146158027"><ele>197.0</ele><time>2026-04-11T08:51:10.999Z</time></trkpt><trkpt lat="44.951335519431666" lon="8.11059048211608"><ele>197.0</ele><time>2026-04-11T08:51:12.999Z</time></trkpt><trkpt lat="44.95123387020655" lon="8.110695161638366"><ele>196.6</ele><time>2026-04-11T08:51:14.999Z</time></trkpt><trkpt lat="44.95112760249769" lon="8.110790585576796"><ele>196.2</ele><time>2026-04-11T08:51:16.999Z</time></trkpt><trkpt lat="44.95102920017851" lon="8.110886176021163"><ele>195.8</ele><time>2026-04-11T08:51:18.999Z</time></trkpt><trkpt lat="44.95093954362685" lon="8.110971356599995"><ele>195.4</ele><time>2026-04-11T08:51:20.999Z</time></trkpt><trkpt lat="44.95086766000748" lon="8.11104298325915"><ele>195.0</ele><time>2026-04-11T08:51:22.999Z</time></trkpt><trkpt lat="44.95080882085284" lon="8.111087606046219"><ele>195.0</ele><time>2026-04-11T08:51:24.999Z</time></trkpt><trkpt lat="44.95082263048097" lon="8.111216535374272"><ele>195.0</ele><time>2026-04-11T08:51:26.999Z</time></trkpt><trkpt lat="44.950876172508174" lon="8.111315568679746"><ele>195.0</ele><time>2026-04-11T08:51:28.999Z</time></trkpt><trkpt lat="44.950934759469824" lon="8.111413969114194"><ele>195.0</ele><time>2026-04-11T08:51:30.999Z</time></trkpt><trkpt lat="44.95098406604287" lon="8.111496355337561"><ele>195.0</ele><time>2026-04-11T08:51:32.999Z</time></trkpt><trkpt lat="44.95105209013516" lon="8.111559790546783"><ele>195.0</ele><time>2026-04-11T08:51:34.999Z</time></trkpt><trkpt lat="44.951105390455766" lon="8.11164402714053"><ele>196.85714285714286</ele><time>2026-04-11T08:51:36.999Z</time></trkpt><trkpt lat="44.95114958692958" lon="8.111722273403249"><ele>198.71428571428572</ele><time>2026-04-11T08:51:38.999Z</time></trkpt><trkpt lat="44.95119550152159" lon="8.111803817009099"><ele>200.57142857142856</ele><time>2026-04-11T08:51:40.999Z</time></trkpt><trkpt lat="44.951237898389735" lon="8.111887443455823"><ele>202.42857142857144</ele><time>2026-04-11T08:51:42.999Z</time></trkpt><trkpt lat="44.95128323806975" lon="8.111970959411025"><ele>204.2857142857143</ele><time>2026-04-11T08:51:44.999Z</time></trkpt><trkpt lat="44.951320891234076" lon="8.112048337355668"><ele>206.14285714285714</ele><time>2026-04-11T08:51:46.999Z</time></trkpt><trkpt lat="44.95136348897271" lon="8.112126784509815"><ele>208.0</ele><time>2026-04-11T08:51:49Z</time></trkpt><trkpt lat="44.951396811581375" lon="8.11220935478731"><ele>208.0</ele><time>2026-04-11T08:51:51Z</time></trkpt><trkpt lat="44.95142998872211" lon="8.112285748485416"><ele>208.0</ele><time>2026-04-11T08:51:53Z</time></trkpt><trkpt lat="44.95146800747648" lon="8.112358471967449"><ele>208.0</ele><time>2026-04-11T08:51:55Z</time></trkpt><trkpt lat="44.951496168458895" lon="8.112438322429066"><ele>208.0</ele><time>2026-04-11T08:51:57Z</time></trkpt><trkpt lat="44.951535492443554" lon="8.11250862759596"><ele>208.0</ele><time>2026-04-11T08:51:59Z</time></trkpt><trkpt lat="44.95156910706269" lon="8.112602420226287"><ele>208.0</ele><time>2026-04-11T08:52:01Z</time></trkpt><trkpt lat="44.95160883218693" lon="8.112674251598259"><ele>208.0</ele><time>2026-04-11T08:52:03Z</time></trkpt><trkpt lat="44.95164853708352" lon="8.112757184255864"><ele>206.99999999999997</ele><time>2026-04-11T08:52:05Z</time></trkpt><trkpt lat="44.951684316221524" lon="8.11283808736542"><ele>206.0</ele><time>2026-04-11T08:52:07Z</time></trkpt><trkpt lat="44.951731501867265" lon="8.112933929712122"><ele>205.0</ele><time>2026-04-11T08:52:09Z</time></trkpt><trkpt lat="44.95177383387332" lon="8.11301976971764"><ele>204.0</ele><time>2026-04-11T08:52:11Z</time></trkpt><trkpt lat="44.951819963091175" lon="8.113115050245625"><ele>202.99999999999997</ele><time>2026-04-11T08:52:13Z</time></trkpt><trkpt lat="44.951866596750236" lon="8.113212559664145"><ele>202.0</ele><time>2026-04-11T08:52:15Z</time></trkpt><trkpt lat="44.95191529359182" lon="8.113309561517344"><ele>204.33333333333331</ele><time>2026-04-11T08:52:17Z</time></trkpt><trkpt lat="44.95196846358726" lon="8.113408848892448"><ele>206.66666666666666</ele><time>2026-04-11T08:52:19Z</time></trkpt><trkpt lat="44.95202446325456" lon="8.113503397670016"><ele>209.0</ele><time>2026-04-11T08:52:21Z</time></trkpt><trkpt lat="44.95207794047343" lon="8.11358141212842"><ele>211.33333333333331</ele><time>2026-04-11T08:52:23Z</time></trkpt><trkpt lat="44.9521316899269" lon="8.113669249642744"><ele>213.66666666666666</ele><time>2026-04-11T08:52:25Z</time></trkpt><trkpt lat="44.95219510126868" lon="8.113758665153304"><ele>216.0</ele><time>2026-04-11T08:52:27Z</time></trkpt><trkpt lat="44.95225668075284" lon="8.11384130274307"><ele>216.0</ele><time>2026-04-11T08:52:29Z</time></trkpt><trkpt lat="44.952309265990735" lon="8.113914660616754"><ele>216.0</ele><time>2026-04-11T08:52:31Z</time></trkpt><trkpt lat="44.95236336447548" lon="8.11398953861454"><ele>216.0</ele><time>2026-04-11T08:52:33Z</time></trkpt><trkpt lat="44.95240809296709" lon="8.114074755046563"><ele>216.0</ele><time>2026-04-11T08:52:35Z</time></trkpt><trkpt lat="44.95245672068712" lon="8.114172675590048"><ele>216.0</ele><time>2026-04-11T08:52:37Z</time></trkpt><trkpt lat="44.95249440661793" lon="8.114273307986117"><ele>216.0</ele><time>2026-04-11T08:52:39Z</time></trkpt><trkpt lat="44.952532728453946" lon="8.114372528401958"><ele>216.83333333333334</ele><time>2026-04-11T08:52:41Z</time></trkpt><trkpt lat="44.95256852033935" lon="8.114470747469774"><ele>217.66666666666669</ele><time>2026-04-11T08:52:43Z</time></trkpt><trkpt lat="44.952606627420344" lon="8.114567136993978"><ele>218.5</ele><time>2026-04-11T08:52:45Z</time></trkpt><trkpt lat="44.95263873529589" lon="8.11466035984344"><ele>219.33333333333334</ele><time>2026-04-11T08:52:46.999Z</time></trkpt><trkpt lat="44.95267530896088" lon="8.1147618358324"><ele>220.16666666666669</ele><time>2026-04-11T08:52:48.999Z</time></trkpt><trkpt lat="44.95270916405064" lon="8.114861745567284"><ele>221.0</ele><time>2026-04-11T08:52:50.999Z</time></trkpt><trkpt lat="44.95274111989244" lon="8.114961314713772"><ele>219.16666666666669</ele><time>2026-04-11T08:52:52.999Z</time></trkpt><trkpt lat="44.95277252893955" lon="8.115059581691863"><ele>217.33333333333334</ele><time>2026-04-11T08:52:54.999Z</time></trkpt><trkpt lat="44.952793645494" lon="8.115167929609466"><ele>215.5</ele><time>2026-04-11T08:52:56.999Z</time></trkpt><trkpt lat="44.952817296318784" lon="8.115261689775735"><ele>213.66666666666669</ele><time>2026-04-11T08:52:58.999Z</time></trkpt><trkpt lat="44.9528270819039" lon="8.115356847339836"><ele>211.83333333333334</ele><time>2026-04-11T08:53:01.999Z</time></trkpt><trkpt lat="44.95282899516333" lon="8.115475341973697"><ele>210.0</ele><time>2026-04-11T08:53:03.999Z</time></trkpt><trkpt lat="44.95282105077186" lon="8.11558313677888"><ele>210.0</ele><time>2026-04-11T08:53:06.999Z</time></trkpt><trkpt lat="44.95280992175244" lon="8.115723062774448"><ele>210.0</ele><time>2026-04-11T08:53:09.999Z</time></trkpt><trkpt lat="44.95280749929634" lon="8.11583119058637"><ele>210.0</ele><time>2026-04-11T08:53:12.999Z</time></trkpt><trkpt lat="44.95280562406631" lon="8.115944491029628"><ele>210.0</ele><time>2026-04-11T08:53:14.999Z</time></trkpt><trkpt lat="44.95282357524281" lon="8.116067539915699"><ele>210.0</ele><time>2026-04-11T08:53:17.999Z</time></trkpt><trkpt lat="44.95284035326735" lon="8.11617740173735"><ele>210.0</ele><time>2026-04-11T08:53:20.999Z</time></trkpt><trkpt lat="44.95284652969013" lon="8.116280194825054"><ele>209.83333333333334</ele><time>2026-04-11T08:53:22.999Z</time></trkpt><trkpt lat="44.95285673828437" lon="8.116370386381107"><ele>209.66666666666669</ele><time>2026-04-11T08:53:24.999Z</time></trkpt><trkpt lat="44.95287594501827" lon="8.11647899969893"><ele>209.5</ele><time>2026-04-11T08:53:27.999Z</time></trkpt><trkpt lat="44.952874602616426" lon="8.116584791070506"><ele>209.33333333333334</ele><time>2026-04-11T08:53:29.999Z</time></trkpt><trkpt lat="44.95286997590377" lon="8.116695562325715"><ele>209.16666666666669</ele><time>2026-04-11T08:53:31.999Z</time></trkpt><trkpt lat="44.952841132170725" lon="8.11683208530286"><ele>209.0</ele><time>2026-04-11T08:53:33.999Z</time></trkpt><trkpt lat="44.95283762961262" lon="8.116958584660628"><ele>211.50000000000003</ele><time>2026-04-11T08:53:35.999Z</time></trkpt><trkpt lat="44.95282799261243" lon="8.117069258848103"><ele>214.0</ele><time>2026-04-11T08:53:37.999Z</time></trkpt><trkpt lat="44.952818082489024" lon="8.117166972787405"><ele>216.5</ele><time>2026-04-11T08:53:39.999Z</time></trkpt><trkpt lat="44.95280825936526" lon="8.117258438860501"><ele>219.0</ele><time>2026-04-11T08:53:41.999Z</time></trkpt><trkpt lat="44.9528014764744" lon="8.117380073312171"><ele>221.50000000000003</ele><time>2026-04-11T08:53:44.999Z</time></trkpt><trkpt lat="44.952790474556735" lon="8.11749960058584"><ele>224.0</ele><time>2026-04-11T08:53:47.999Z</time></trkpt><trkpt lat="44.95278376156577" lon="8.117608849361945"><ele>224.66666666666669</ele><time>2026-04-11T08:53:50.999Z</time></trkpt><trkpt lat="44.952801230316865" lon="8.117716832213455"><ele>225.33333333333334</ele><time>2026-04-11T08:53:53.999Z</time></trkpt><trkpt lat="44.952813997462286" lon="8.117815901811106"><ele>226.0</ele><time>2026-04-11T08:53:57Z</time></trkpt><trkpt lat="44.9528312317688" lon="8.117924870194916"><ele>226.66666666666669</ele><time>2026-04-11T08:54:01Z</time></trkpt><trkpt lat="44.95285126323707" lon="8.1180169215348"><ele>227.33333333333334</ele><time>2026-04-11T08:54:04Z</time></trkpt><trkpt lat="44.95289402787781" lon="8.118134888493843"><ele>228.0</ele><time>2026-04-11T08:54:08Z</time></trkpt><trkpt lat="44.952929353234765" lon="8.118225290409926"><ele>228.66666666666666</ele><time>2026-04-11T08:54:11Z</time></trkpt><trkpt lat="44.952953722875286" lon="8.118314643240376"><ele>229.33333333333331</ele><time>2026-04-11T08:54:14Z</time></trkpt><trkpt lat="44.9530090559224" lon="8.118418312168783"><ele>230.0</ele><time>2026-04-11T08:54:18Z</time></trkpt><trkpt lat="44.95305142977279" lon="8.118520464239172"><ele>230.66666666666666</ele><time>2026-04-11T08:54:21Z</time></trkpt><trkpt lat="44.953083683824836" lon="8.118601780890812"><ele>231.33333333333331</ele><time>2026-04-11T08:54:23Z</time></trkpt><trkpt lat="44.953121561293116" lon="8.118696384646087"><ele>232.0</ele><time>2026-04-11T08:54:26Z</time></trkpt><trkpt lat="44.95317444201124" lon="8.118790405223363"><ele>231.99999999999997</ele><time>2026-04-11T08:54:29Z</time></trkpt><trkpt lat="44.953206502723035" lon="8.118881583123605"><ele>232.0</ele><time>2026-04-11T08:54:32Z</time></trkpt><trkpt lat="44.953249264036636" lon="8.118968487019206"><ele>232.0</ele><time>2026-04-11T08:54:35Z</time></trkpt><trkpt lat="44.95328114170627" lon="8.119050895663277"><ele>232.0</ele><time>2026-04-11T08:54:38Z</time></trkpt><trkpt lat="44.953330991708455" lon="8.119136163338933"><ele>231.99999999999997</ele><time>2026-04-11T08:54:41Z</time></trkpt><trkpt lat="44.95339220345927" lon="8.119233447898056"><ele>232.0</ele><time>2026-04-11T08:54:45Z</time></trkpt><trkpt lat="44.953449185250946" lon="8.119316878067963"><ele>231.33333333333331</ele><time>2026-04-11T08:54:48Z</time></trkpt><trkpt lat="44.95351538430137" lon="8.119363210049285"><ele>230.66666666666666</ele><time>2026-04-11T08:54:50.999Z</time></trkpt><trkpt lat="44.95358009776166" lon="8.119394665964712"><ele>230.0</ele><time>2026-04-11T08:54:53.999Z</time></trkpt><trkpt lat="44.95366073512757" lon="8.119410021145717"><ele>229.33333333333331</ele><time>2026-04-11T08:54:56.999Z</time></trkpt><trkpt lat="44.95375093958441" lon="8.119413964249775"><ele>228.66666666666666</ele><time>2026-04-11T08:54:59.999Z</time></trkpt><trkpt lat="44.95382176174254" lon="8.119407971427902"><ele>228.0</ele><time>2026-04-11T08:55:02.999Z</time></trkpt><trkpt lat="44.953806123019554" lon="8.119520372025711"><ele>228.0</ele><time>2026-04-11T08:55:05.999Z</time></trkpt><trkpt lat="44.95374712184195" lon="8.119556945449462"><ele>228.0</ele><time>2026-04-11T08:55:07.999Z</time></trkpt><trkpt lat="44.95369354047681" lon="8.119604654181709"><ele>228.0</ele><time>2026-04-11T08:55:09.999Z</time></trkpt><trkpt lat="44.95364395432573" lon="8.11966865201211"><ele>228.0</ele><time>2026-04-11T08:55:11.999Z</time></trkpt><trkpt lat="44.953580301530366" lon="8.119741623928986"><ele>228.0</ele><time>2026-04-11T08:55:14.999Z</time></trkpt><trkpt lat="44.953507367994554" lon="8.119789972866894"><ele>228.0</ele><time>2026-04-11T08:55:16.999Z</time></trkpt><trkpt lat="44.95342545313281" lon="8.119849657150338"><ele>228.0</ele><time>2026-04-11T08:55:19.999Z</time></trkpt><trkpt lat="44.95334048876608" lon="8.119850700515164"><ele>228.0</ele><time>2026-04-11T08:55:22.999Z</time></trkpt><trkpt lat="44.95325621660235" lon="8.119858603853627"><ele>228.0</ele><time>2026-04-11T08:55:25.999Z</time></trkpt><trkpt lat="44.95317732069219" lon="8.1198676835657"><ele>228.0</ele><time>2026-04-11T08:55:29.999Z</time></trkpt><trkpt lat="44.95310976942267" lon="8.11985737674656"><ele>228.0</ele><time>2026-04-11T08:55:32.999Z</time></trkpt><trkpt lat="44.953023599455896" lon="8.119806094153228"><ele>228.0</ele><time>2026-04-11T08:55:36.999Z</time></trkpt><trkpt lat="44.952958816025046" lon="8.119778037710715"><ele>228.0</ele><time>2026-04-11T08:55:38.999Z</time></trkpt><trkpt lat="44.952898040071474" lon="8.11971948301076"><ele>228.0</ele><time>2026-04-11T08:55:42.999Z</time></trkpt><trkpt lat="44.95283235636543" lon="8.11966129726631"><ele>228.0</ele><time>2026-04-11T08:55:45.999Z</time></trkpt><trkpt lat="44.952771518899056" lon="8.119595750695412"><ele>228.0</ele><time>2026-04-11T08:55:49.999Z</time></trkpt><trkpt lat="44.95270823677297" lon="8.119539518313848"><ele>228.0</ele><time>2026-04-11T08:55:53.999Z</time></trkpt><trkpt lat="44.952632972031985" lon="8.119483791391612"><ele>228.0</ele><time>2026-04-11T08:55:57.999Z</time></trkpt><trkpt lat="44.952550597584434" lon="8.119465939808059"><ele>228.7142857142857</ele><time>2026-04-11T08:55:59.999Z</time></trkpt><trkpt lat="44.95246737413718" lon="8.119459759385155"><ele>229.4285714285714</ele><time>2026-04-11T08:56:03Z</time></trkpt><trkpt lat="44.95239130654197" lon="8.119509393986371"><ele>230.14285714285714</ele><time>2026-04-11T08:56:07Z</time></trkpt><trkpt lat="44.95233326483948" lon="8.119570342759248"><ele>230.85714285714283</ele><time>2026-04-11T08:56:18Z</time></trkpt><trkpt lat="44.952298214286756" lon="8.119650241727493"><ele>231.57142857142856</ele><time>2026-04-11T08:56:32Z</time></trkpt><trkpt lat="44.9522780272423" lon="8.1197460666704"><ele>232.28571428571428</ele><time>2026-04-11T08:56:36Z</time></trkpt><trkpt lat="44.95227017815577" lon="8.119835223901292"><ele>233.0</ele><time>2026-04-11T08:56:40Z</time></trkpt><trkpt lat="44.952254257245755" lon="8.119934486507656"><ele>234.28571428571428</ele><time>2026-04-11T08:56:44Z</time></trkpt><trkpt lat="44.952243209970426" lon="8.120027720343963"><ele>235.57142857142856</ele><time>2026-04-11T08:56:48Z</time></trkpt><trkpt lat="44.95223570338855" lon="8.120132948410202"><ele>236.85714285714283</ele><time>2026-04-11T08:56:53Z</time></trkpt><trkpt lat="44.9522331400827" lon="8.120228065538333"><ele>238.14285714285714</ele><time>2026-04-11T08:56:56.999Z</time></trkpt><trkpt lat="44.952241264976486" lon="8.120318636441345"><ele>239.4285714285714</ele><time>2026-04-11T08:57:00.999Z</time></trkpt><trkpt lat="44.95223022342903" lon="8.12043808612557"><ele>240.7142857142857</ele><time>2026-04-11T08:57:04.999Z</time></trkpt><trkpt lat="44.95221606211023" lon="8.12053471304542"><ele>242.0</ele><time>2026-04-11T08:57:08.999Z</time></trkpt><trkpt lat="44.95219756389206" lon="8.120634570275133"><ele>241.00000000000003</ele><time>2026-04-11T08:57:11.999Z</time></trkpt><trkpt lat="44.95217701666428" lon="8.120767034083205"><ele>240.0</ele><time>2026-04-11T08:57:15.999Z</time></trkpt><trkpt lat="44.952151529831355" lon="8.120861867942034"><ele>239.0</ele><time>2026-04-11T08:57:18.999Z</time></trkpt><trkpt lat="44.9521317042581" lon="8.120966511681788"><ele>238.0</ele><time>2026-04-11T08:57:22.999Z</time></trkpt><trkpt lat="44.95209648360584" lon="8.121059074159083"><ele>237.00000000000003</ele><time>2026-04-11T08:57:25.999Z</time></trkpt><trkpt lat="44.95205566831317" lon="8.121148989825882"><ele>236.0</ele><time>2026-04-11T08:57:29.999Z</time></trkpt><trkpt lat="44.95201052345326" lon="8.121241804833808"><ele>236.00000000000003</ele><time>2026-04-11T08:57:34.999Z</time></trkpt><trkpt lat="44.95197218699847" lon="8.121314845829152"><ele>236.0</ele><time>2026-04-11T08:57:37.999Z</time></trkpt><trkpt lat="44.95193106808301" lon="8.121384640326589"><ele>236.0</ele><time>2026-04-11T08:57:41.999Z</time></trkpt><trkpt lat="44.95188837443907" lon="8.121467720830452"><ele>236.0</ele><time>2026-04-11T08:57:44.999Z</time></trkpt><trkpt lat="44.95181049874648" lon="8.121582475243192"><ele>236.00000000000003</ele><time>2026-04-11T08:57:47.999Z</time></trkpt><trkpt lat="44.951744902196246" lon="8.121674785296209"><ele>236.0</ele><time>2026-04-11T08:57:50.999Z</time></trkpt><trkpt lat="44.951688225241895" lon="8.121748686143864"><ele>237.4</ele><time>2026-04-11T08:57:51.999Z</time></trkpt><trkpt lat="44.95160777729834" lon="8.121834291624523"><ele>238.8</ele><time>2026-04-11T08:57:53.999Z</time></trkpt><trkpt lat="44.95152046088712" lon="8.121878265822335"><ele>240.20000000000002</ele><time>2026-04-11T08:57:55.999Z</time></trkpt><trkpt lat="44.95143260250579" lon="8.121881466429102"><ele>241.60000000000002</ele><time>2026-04-11T08:57:57.999Z</time></trkpt><trkpt lat="44.951335953997095" lon="8.121890410592863"><ele>243.0</ele><time>2026-04-11T08:57:59.999Z</time></trkpt><trkpt lat="44.951248882257985" lon="8.121893503762614"><ele>243.0</ele><time>2026-04-11T08:58:01.999Z</time></trkpt><trkpt lat="44.95118548713664" lon="8.12188421849828"><ele>243.0</ele><time>2026-04-11T08:58:03.999Z</time></trkpt><trkpt lat="44.9511078531173" lon="8.121854951364273"><ele>243.0</ele><time>2026-04-11T08:58:05.999Z</time></trkpt><trkpt lat="44.951041273910256" lon="8.121783945095036"><ele>243.0</ele><time>2026-04-11T08:58:08Z</time></trkpt><trkpt lat="44.9510124654666" lon="8.121671615003773"><ele>243.0</ele><time>2026-04-11T08:58:10Z</time></trkpt><trkpt lat="44.950963476522375" lon="8.121603852510024"><ele>243.0</ele><time>2026-04-11T08:58:12Z</time></trkpt><trkpt lat="44.95088346833529" lon="8.121568840058659"><ele>244.83333333333334</ele><time>2026-04-11T08:58:15Z</time></trkpt><trkpt lat="44.9508249403524" lon="8.12148700711264"><ele>246.66666666666669</ele><time>2026-04-11T08:58:18Z</time></trkpt><trkpt lat="44.95081603103225" lon="8.121352793388851"><ele>248.5</ele><time>2026-04-11T08:58:20Z</time></trkpt><trkpt lat="44.95073897554995" lon="8.121230231106267"><ele>250.33333333333334</ele><time>2026-04-11T08:58:26Z</time></trkpt><trkpt lat="44.95072495658549" lon="8.121140641622182"><ele>252.16666666666669</ele><time>2026-04-11T08:58:28Z</time></trkpt><trkpt lat="44.95073342288841" lon="8.121023327856106"><ele>254.0</ele><time>2026-04-11T08:58:31Z</time></trkpt><trkpt lat="44.95074423010435" lon="8.120934209792837"><ele>254.00000000000003</ele><time>2026-04-11T08:58:34Z</time></trkpt><trkpt lat="44.95077182253201" lon="8.12082289989603"><ele>254.0</ele><time>2026-04-11T08:58:37Z</time></trkpt><trkpt lat="44.95077834905053" lon="8.120710414498319"><ele>254.0</ele><time>2026-04-11T08:58:40Z</time></trkpt><trkpt lat="44.95074571161291" lon="8.120624830205655"><ele>254.0</ele><time>2026-04-11T08:58:43Z</time></trkpt><trkpt lat="44.950700600768265" lon="8.12053146276505"><ele>254.00000000000003</ele><time>2026-04-11T08:58:46Z</time></trkpt><trkpt lat="44.95063789924661" lon="8.12045937142665"><ele>254.0</ele><time>2026-04-11T08:58:49Z</time></trkpt><trkpt lat="44.950580655551285" lon="8.120412319486478"><ele>252.16666666666669</ele><time>2026-04-11T08:58:51Z</time></trkpt><trkpt lat="44.95051684015796" lon="8.12036447068554"><ele>250.33333333333334</ele><time>2026-04-11T08:58:54Z</time></trkpt><trkpt lat="44.950439514798816" lon="8.120338134311659"><ele>248.5</ele><time>2026-04-11T08:58:57Z</time></trkpt><trkpt lat="44.950375547326516" lon="8.120333978472848"><ele>246.66666666666669</ele><time>2026-04-11T08:58:59Z</time></trkpt><trkpt lat="44.95028607773543" lon="8.120319335016546"><ele>244.83333333333334</ele><time>2026-04-11T08:59:02Z</time></trkpt><trkpt lat="44.95023476882785" lon="8.120262009370016"><ele>243.0</ele><time>2026-04-11T08:59:05.999Z</time></trkpt><trkpt lat="44.95019228228539" lon="8.12016329869102"><ele>243.0</ele><time>2026-04-11T08:59:08.999Z</time></trkpt><trkpt lat="44.95013873593893" lon="8.120077822043475"><ele>243.0</ele><time>2026-04-11T08:59:11.999Z</time></trkpt><trkpt lat="44.95009562906881" lon="8.119983774005807"><ele>243.0</ele><time>2026-04-11T08:59:14.999Z</time></trkpt><trkpt lat="44.95005600819735" lon="8.119897389277899"><ele>243.0</ele><time>2026-04-11T08:59:17.999Z</time></trkpt><trkpt lat="44.94997213331867" lon="8.119933967794942"><ele>243.0</ele><time>2026-04-11T08:59:20.999Z</time></trkpt><trkpt lat="44.9499473570519" lon="8.120026821760215"><ele>243.0</ele><time>2026-04-11T08:59:23.999Z</time></trkpt><trkpt lat="44.94992955621163" lon="8.120117630921255"><ele>245.0</ele><time>2026-04-11T08:59:26.999Z</time></trkpt><trkpt lat="44.949920064632536" lon="8.120220305487278"><ele>247.0</ele><time>2026-04-11T08:59:29.999Z</time></trkpt><trkpt lat="44.94991889627412" lon="8.120316868771477"><ele>249.0</ele><time>2026-04-11T08:59:32.999Z</time></trkpt><trkpt lat="44.94990861650061" lon="8.120408654899064"><ele>251.0</ele><time>2026-04-11T08:59:36.999Z</time></trkpt><trkpt lat="44.949895887204235" lon="8.120502335272057"><ele>253.0</ele><time>2026-04-11T08:59:40.999Z</time></trkpt><trkpt lat="44.94986809635964" lon="8.120588901383302"><ele>255.0</ele><time>2026-04-11T08:59:44.999Z</time></trkpt><trkpt lat="44.949821756201395" lon="8.120666495698117"><ele>257.0</ele><time>2026-04-11T08:59:48.999Z</time></trkpt><trkpt lat="44.94976513396253" lon="8.120746662038671"><ele>258.5</ele><time>2026-04-11T08:59:51.999Z</time></trkpt><trkpt lat="44.94968487855354" lon="8.120855387045822"><ele>260.0</ele><time>2026-04-11T08:59:53.999Z</time></trkpt><trkpt lat="44.949616832883116" lon="8.120944605096534"><ele>261.5</ele><time>2026-04-11T08:59:55.999Z</time></trkpt><trkpt lat="44.9495511981258" lon="8.121015029553089"><ele>263.0</ele><time>2026-04-11T08:59:57.999Z</time></trkpt><trkpt lat="44.9494937216319" lon="8.121085031723744"><ele>264.5</ele><time>2026-04-11T08:59:59.999Z</time></trkpt><trkpt lat="44.94944143095656" lon="8.121155979514867"><ele>266.0</ele><time>2026-04-11T09:00:01.999Z</time></trkpt><trkpt lat="44.949382163840845" lon="8.121228263726522"><ele>266.0</ele><time>2026-04-11T09:00:03.999Z</time></trkpt><trkpt lat="44.949324562671684" lon="8.121306053065815"><ele>266.0</ele><time>2026-04-11T09:00:05.999Z</time></trkpt><trkpt lat="44.94925485664479" lon="8.121393200563348"><ele>266.0</ele><time>2026-04-11T09:00:08.999Z</time></trkpt><trkpt lat="44.94920376625386" lon="8.121454828614077"><ele>266.0</ele><time>2026-04-11T09:00:11.999Z</time></trkpt><trkpt lat="44.9491488037487" lon="8.121528147807636"><ele>266.0</ele><time>2026-04-11T09:00:15Z</time></trkpt><trkpt lat="44.949072253354196" lon="8.121605456486602"><ele>266.0</ele><time>2026-04-11T09:00:17Z</time></trkpt><trkpt lat="44.94900349869555" lon="8.121646351275341"><ele>265.40000000000003</ele><time>2026-04-11T09:00:18Z</time></trkpt><trkpt lat="44.94889567059966" lon="8.121707111446884"><ele>264.8</ele><time>2026-04-11T09:00:20Z</time></trkpt><trkpt lat="44.94880472173337" lon="8.121762854724324"><ele>264.20000000000005</ele><time>2026-04-11T09:00:22Z</time></trkpt><trkpt lat="44.94873172315062" lon="8.12183110952609"><ele>263.6</ele><time>2026-04-11T09:00:24Z</time></trkpt><trkpt lat="44.948642169233715" lon="8.121888615416585"><ele>263.0</ele><time>2026-04-11T09:00:26Z</time></trkpt><trkpt lat="44.94853867600776" lon="8.121969700494727"><ele>263.0</ele><time>2026-04-11T09:00:28Z</time></trkpt><trkpt lat="44.94844122113293" lon="8.122068972385575"><ele>263.0</ele><time>2026-04-11T09:00:30Z</time></trkpt><trkpt lat="44.94835250529242" lon="8.122165375402286"><ele>263.0</ele><time>2026-04-11T09:00:32Z</time></trkpt><trkpt lat="44.948269625525874" lon="8.12224725944116"><ele>263.0</ele><time>2026-04-11T09:00:34Z</time></trkpt><trkpt lat="44.9481841548954" lon="8.12232117574865"><ele>263.0</ele><time>2026-04-11T09:00:36Z</time></trkpt><trkpt lat="44.94810469173826" lon="8.122405083295218"><ele>262.4</ele><time>2026-04-11T09:00:38Z</time></trkpt><trkpt lat="44.94802383957854" lon="8.122452719679758"><ele>261.8</ele><time>2026-04-11T09:00:40Z</time></trkpt><trkpt lat="44.94792345400263" lon="8.122479608158432"><ele>261.2</ele><time>2026-04-11T09:00:42Z</time></trkpt><trkpt lat="44.94784279590113" lon="8.122472673955011"><ele>260.6</ele><time>2026-04-11T09:00:44Z</time></trkpt><trkpt lat="44.94774036828277" lon="8.12247656537393"><ele>260.0</ele><time>2026-04-11T09:00:46Z</time></trkpt><trkpt lat="44.947636727921434" lon="8.122461368346668"><ele>260.0</ele><time>2026-04-11T09:00:48Z</time></trkpt><trkpt lat="44.9475594628938" lon="8.122496640108679"><ele>260.0</ele><time>2026-04-11T09:00:50Z</time></trkpt><trkpt lat="44.947474116405466" lon="8.122503624222672"><ele>260.0</ele><time>2026-04-11T09:00:52Z</time></trkpt><trkpt lat="44.94740004724307" lon="8.122550632631045"><ele>260.0</ele><time>2026-04-11T09:00:54Z</time></trkpt><trkpt lat="44.94733028189648" lon="8.122574858294453"><ele>260.0</ele><time>2026-04-11T09:00:56Z</time></trkpt><trkpt lat="44.94726801878217" lon="8.122618871163619"><ele>260.0</ele><time>2026-04-11T09:00:58Z</time></trkpt><trkpt lat="44.94718399178649" lon="8.122647822461083"><ele>259.2</ele><time>2026-04-11T09:01:00Z</time></trkpt><trkpt lat="44.94707672806006" lon="8.12265691103381"><ele>258.4</ele><time>2026-04-11T09:01:02Z</time></trkpt><trkpt lat="44.94696828398168" lon="8.122648957173427"><ele>257.6</ele><time>2026-04-11T09:01:04Z</time></trkpt><trkpt lat="44.94683993729379" lon="8.122619799815906"><ele>256.8</ele><time>2026-04-11T09:01:07Z</time></trkpt><trkpt lat="44.94675961146292" lon="8.122604467891613"><ele>256.0</ele><time>2026-04-11T09:01:08Z</time></trkpt><trkpt lat="44.94666588375799" lon="8.122593820030351"><ele>255.4</ele><time>2026-04-11T09:01:10Z</time></trkpt><trkpt lat="44.946592629528574" lon="8.122586110678878"><ele>254.8</ele><time>2026-04-11T09:01:11Z</time></trkpt><trkpt lat="44.946487640422625" lon="8.12258897162869"><ele>254.20000000000002</ele><time>2026-04-11T09:01:12.999Z</time></trkpt><trkpt lat="44.9463615620623" lon="8.12256029310912"><ele>253.60000000000002</ele><time>2026-04-11T09:01:14.999Z</time></trkpt><trkpt lat="44.946294081992704" lon="8.122512585770718"><ele>253.0</ele><time>2026-04-11T09:01:16.999Z</time></trkpt><trkpt lat="44.9462298461628" lon="8.12257538918178"><ele>252.99999999999997</ele><time>2026-04-11T09:01:18.999Z</time></trkpt><trkpt lat="44.946166309539315" lon="8.122623827552916"><ele>253.0</ele><time>2026-04-11T09:01:20.999Z</time></trkpt><trkpt lat="44.946100607187724" lon="8.12268639797446"><ele>253.0</ele><time>2026-04-11T09:01:22.999Z</time></trkpt><trkpt lat="44.94604067676723" lon="8.1227760258935"><ele>253.0</ele><time>2026-04-11T09:01:24.999Z</time></trkpt><trkpt lat="44.94603176106893" lon="8.122904168588185"><ele>252.99999999999997</ele><time>2026-04-11T09:01:26.999Z</time></trkpt><trkpt lat="44.9460307562182" lon="8.123022675464536"><ele>253.0</ele><time>2026-04-11T09:01:28.999Z</time></trkpt><trkpt lat="44.94599311128525" lon="8.123139801796716"><ele>253.0</ele><time>2026-04-11T09:01:30.999Z</time></trkpt><trkpt lat="44.945950918000264" lon="8.123266338777478"><ele>253.0</ele><time>2026-04-11T09:01:32.999Z</time></trkpt><trkpt lat="44.945880248758336" lon="8.12336607399682"><ele>253.0</ele><time>2026-04-11T09:01:34.999Z</time></trkpt><trkpt lat="44.94581240568868" lon="8.123457567035004"><ele>253.0</ele><time>2026-04-11T09:01:36.999Z</time></trkpt><trkpt lat="44.945743701835724" lon="8.123538777008374"><ele>253.0</ele><time>2026-04-11T09:01:38.999Z</time></trkpt><trkpt lat="44.94568849323193" lon="8.123633454229788"><ele>252.99999999999997</ele><time>2026-04-11T09:01:40.999Z</time></trkpt><trkpt lat="44.94560624604596" lon="8.123665069542554"><ele>253.0</ele><time>2026-04-11T09:01:42.999Z</time></trkpt><trkpt lat="44.94553843969976" lon="8.123722004814171"><ele>253.0</ele><time>2026-04-11T09:01:44.999Z</time></trkpt><trkpt lat="44.945470847173205" lon="8.123725184297038"><ele>253.0</ele><time>2026-04-11T09:01:46.999Z</time></trkpt><trkpt lat="44.94538899391525" lon="8.123684649673933"><ele>252.99999999999997</ele><time>2026-04-11T09:01:48.999Z</time></trkpt><trkpt lat="44.94532948903953" lon="8.12364706357206"><ele>253.0</ele><time>2026-04-11T09:01:50.999Z</time></trkpt><trkpt lat="44.94527016109538" lon="8.12359553308013"><ele>252.99999999999997</ele><time>2026-04-11T09:01:52.999Z</time></trkpt><trkpt lat="44.94517343771601" lon="8.123589808463548"><ele>253.0</ele><time>2026-04-11T09:01:55.999Z</time></trkpt><trkpt lat="44.94510071286967" lon="8.123605497176593"><ele>253.0</ele><time>2026-04-11T09:01:57.999Z</time></trkpt><trkpt lat="44.9450103613684" lon="8.123631268128372"><ele>253.0</ele><time>2026-04-11T09:01:59.999Z</time></trkpt><trkpt lat="44.94492182753372" lon="8.123683657598674"><ele>252.99999999999997</ele><time>2026-04-11T09:02:01.999Z</time></trkpt><trkpt lat="44.94484600211791" lon="8.123740412093342"><ele>253.0</ele><time>2026-04-11T09:02:03.999Z</time></trkpt><trkpt lat="44.94478184653865" lon="8.123779127207264"><ele>252.33333333333331</ele><time>2026-04-11T09:02:05.999Z</time></trkpt><trkpt lat="44.94471458459433" lon="8.123824858881076"><ele>251.66666666666666</ele><time>2026-04-11T09:02:07.999Z</time></trkpt><trkpt lat="44.944636795189524" lon="8.123851608257924"><ele>251.0</ele><time>2026-04-11T09:02:09.999Z</time></trkpt><trkpt lat="44.94455075049019" lon="8.123864820507341"><ele>250.33333333333331</ele><time>2026-04-11T09:02:11.999Z</time></trkpt><trkpt lat="44.94448518041447" lon="8.123876804863484"><ele>249.66666666666666</ele><time>2026-04-11T09:02:13.999Z</time></trkpt><trkpt lat="44.94440579204433" lon="8.123888113673964"><ele>249.0</ele><time>2026-04-11T09:02:15.999Z</time></trkpt><trkpt lat="44.944330327913086" lon="8.12389581204471"><ele>249.0</ele><time>2026-04-11T09:02:17.999Z</time></trkpt><trkpt lat="44.944258664392756" lon="8.123901485445414"><ele>249.0</ele><time>2026-04-11T09:02:20Z</time></trkpt><trkpt lat="44.94418767571797" lon="8.123911878964162"><ele>249.0</ele><time>2026-04-11T09:02:22Z</time></trkpt><trkpt lat="44.94409998063449" lon="8.12392539889583"><ele>249.0</ele><time>2026-04-11T09:02:25Z</time></trkpt><trkpt lat="44.94401513615707" lon="8.123956611161288"><ele>249.0</ele><time>2026-04-11T09:02:28Z</time></trkpt><trkpt lat="44.94395117102926" lon="8.123951323565263"><ele>249.0</ele><time>2026-04-11T09:02:31Z</time></trkpt><trkpt lat="44.943872857511785" lon="8.123974146251262"><ele>249.14285714285714</ele><time>2026-04-11T09:02:34Z</time></trkpt><trkpt lat="44.94380418158201" lon="8.124002617791085"><ele>249.28571428571428</ele><time>2026-04-11T09:02:37Z</time></trkpt><trkpt lat="44.94372535028608" lon="8.124024888395002"><ele>249.42857142857142</ele><time>2026-04-11T09:02:40Z</time></trkpt><trkpt lat="44.943650547458766" lon="8.124069172314602"><ele>249.57142857142856</ele><time>2026-04-11T09:02:44Z</time></trkpt><trkpt lat="44.94358979099017" lon="8.124123225553777"><ele>249.71428571428572</ele><time>2026-04-11T09:02:49Z</time></trkpt><trkpt lat="44.94352650146021" lon="8.124143896037692"><ele>249.85714285714283</ele><time>2026-04-11T09:02:53Z</time></trkpt><trkpt lat="44.94345599929432" lon="8.124189475266848"><ele>250.0</ele><time>2026-04-11T09:02:58Z</time></trkpt><trkpt lat="44.943377756127326" lon="8.124262964249931"><ele>250.71428571428572</ele><time>2026-04-11T09:03:03Z</time></trkpt><trkpt lat="44.94332114588507" lon="8.12430244885478"><ele>251.42857142857144</ele><time>2026-04-11T09:03:06Z</time></trkpt><trkpt lat="44.943264755506576" lon="8.124358078708307"><ele>252.14285714285717</ele><time>2026-04-11T09:03:08Z</time></trkpt><trkpt lat="44.943190286361755" lon="8.124420140803814"><ele>252.85714285714286</ele><time>2026-04-11T09:03:10Z</time></trkpt><trkpt lat="44.94311546124358" lon="8.124475566457368"><ele>253.5714285714286</ele><time>2026-04-11T09:03:12Z</time></trkpt><trkpt lat="44.94305938390088" lon="8.124522805222728"><ele>254.2857142857143</ele><time>2026-04-11T09:03:13.999Z</time></trkpt><trkpt lat="44.942987412127785" lon="8.124548337616924"><ele>255.0</ele><time>2026-04-11T09:03:15.999Z</time></trkpt><trkpt lat="44.942905951453334" lon="8.124596917418474"><ele>255.0</ele><time>2026-04-11T09:03:18.999Z</time></trkpt><trkpt lat="44.942842715298696" lon="8.124636364242273"><ele>255.0</ele><time>2026-04-11T09:03:20.999Z</time></trkpt><trkpt lat="44.942774207326984" lon="8.124697340788488"><ele>255.0</ele><time>2026-04-11T09:03:22.999Z</time></trkpt><trkpt lat="44.94271389095695" lon="8.124763565227214"><ele>255.0</ele><time>2026-04-11T09:03:24.999Z</time></trkpt><trkpt lat="44.94265417663099" lon="8.12484314115812"><ele>255.0</ele><time>2026-04-11T09:03:26.999Z</time></trkpt><trkpt lat="44.94259150808767" lon="8.124942037183306"><ele>255.0</ele><time>2026-04-11T09:03:28.999Z</time></trkpt><trkpt lat="44.942543987853064" lon="8.125033246254167"><ele>254.5</ele><time>2026-04-11T09:03:30.999Z</time></trkpt><trkpt lat="44.94248382114346" lon="8.12512013781724"><ele>254.0</ele><time>2026-04-11T09:03:32.999Z</time></trkpt><trkpt lat="44.94241204080799" lon="8.12522540946533"><ele>253.5</ele><time>2026-04-11T09:03:34.999Z</time></trkpt><trkpt lat="44.942311016090336" lon="8.12531586750925"><ele>253.0</ele><time>2026-04-11T09:03:36.999Z</time></trkpt><trkpt lat="44.94225890593458" lon="8.125367894079995"><ele>252.5</ele><time>2026-04-11T09:03:37.999Z</time></trkpt><trkpt lat="44.942205789149114" lon="8.125416499592571"><ele>252.0</ele><time>2026-04-11T09:03:38.999Z</time></trkpt><trkpt lat="44.942155692014175" lon="8.125488892723007"><ele>252.0</ele><time>2026-04-11T09:03:39.999Z</time></trkpt><trkpt lat="44.94208740008896" lon="8.125523042772393"><ele>252.0</ele><time>2026-04-11T09:03:40.999Z</time></trkpt><trkpt lat="44.94202468464492" lon="8.125577365660913"><ele>252.0</ele><time>2026-04-11T09:03:41.999Z</time></trkpt><trkpt lat="44.94197432506413" lon="8.125645772122146"><ele>252.0</ele><time>2026-04-11T09:03:42.999Z</time></trkpt><trkpt lat="44.941908600086464" lon="8.125693752793907"><ele>252.0</ele><time>2026-04-11T09:03:43.999Z</time></trkpt><trkpt lat="44.941835284272805" lon="8.12571809178265"><ele>252.0</ele><time>2026-04-11T09:03:44.999Z</time></trkpt><trkpt lat="44.9417682952899" lon="8.12576055801483"><ele>252.0</ele><time>2026-04-11T09:03:45.999Z</time></trkpt><trkpt lat="44.9416942342988" lon="8.125804419988818"><ele>252.16666666666666</ele><time>2026-04-11T09:03:46.999Z</time></trkpt><trkpt lat="44.941619298297404" lon="8.125834579027368"><ele>252.33333333333331</ele><time>2026-04-11T09:03:47.999Z</time></trkpt><trkpt lat="44.94153838246444" lon="8.125864778169534"><ele>252.5</ele><time>2026-04-11T09:03:48.999Z</time></trkpt><trkpt lat="44.941471041010004" lon="8.125911049985223"><ele>252.66666666666666</ele><time>2026-04-11T09:03:49.999Z</time></trkpt><trkpt lat="44.94140231324026" lon="8.125941963527355"><ele>252.83333333333331</ele><time>2026-04-11T09:03:50.999Z</time></trkpt><trkpt lat="44.94133098064507" lon="8.125971239599899"><ele>253.0</ele><time>2026-04-11T09:03:51.999Z</time></trkpt><trkpt lat="44.94126242997733" lon="8.125991080030976"><ele>253.0</ele><time>2026-04-11T09:03:52.999Z</time></trkpt><trkpt lat="44.94119771901124" lon="8.126015324656233"><ele>253.0</ele><time>2026-04-11T09:03:53.999Z</time></trkpt><trkpt lat="44.9410914053504" lon="8.126086884416162"><ele>253.0</ele><time>2026-04-11T09:03:55.999Z</time></trkpt><trkpt lat="44.94098222563031" lon="8.126135323621615"><ele>253.0</ele><time>2026-04-11T09:03:57.999Z</time></trkpt><trkpt lat="44.940881307669244" lon="8.126164057235659"><ele>253.0</ele><time>2026-04-11T09:03:59.999Z</time></trkpt><trkpt lat="44.940794689517524" lon="8.126198202730807"><ele>253.16666666666666</ele><time>2026-04-11T09:04:01.999Z</time></trkpt><trkpt lat="44.9407224288813" lon="8.126245052900405"><ele>253.33333333333331</ele><time>2026-04-11T09:04:03.999Z</time></trkpt><trkpt lat="44.94063113074992" lon="8.126296076271169"><ele>253.5</ele><time>2026-04-11T09:04:05.999Z</time></trkpt><trkpt lat="44.94056687954207" lon="8.126344597266717"><ele>253.66666666666669</ele><time>2026-04-11T09:04:07.999Z</time></trkpt><trkpt lat="44.940501898654816" lon="8.126424271791688"><ele>253.83333333333334</ele><time>2026-04-11T09:04:09.999Z</time></trkpt><trkpt lat="44.94042160723687" lon="8.126507163144346"><ele>254.0</ele><time>2026-04-11T09:04:11.999Z</time></trkpt><trkpt lat="44.94034737402338" lon="8.126627515055537"><ele>252.79999999999998</ele><time>2026-04-11T09:04:13.999Z</time></trkpt><trkpt lat="44.94030243588468" lon="8.126795834840282"><ele>251.59999999999997</ele><time>2026-04-11T09:04:15.999Z</time></trkpt><trkpt lat="44.94028097471961" lon="8.126881819437452"><ele>250.4</ele><time>2026-04-11T09:04:16.999Z</time></trkpt><trkpt lat="44.94022366920465" lon="8.127030529550005"><ele>249.2</ele><time>2026-04-11T09:04:18.999Z</time></trkpt><trkpt lat="44.94018936719054" lon="8.127182917973325"><ele>248.0</ele><time>2026-04-11T09:04:20.999Z</time></trkpt><trkpt lat="44.94013349492538" lon="8.12731093585168"><ele>248.8</ele><time>2026-04-11T09:04:22.999Z</time></trkpt><trkpt lat="44.94009446929857" lon="8.12742652698322"><ele>249.60000000000002</ele><time>2026-04-11T09:04:25Z</time></trkpt><trkpt lat="44.94007365931284" lon="8.127532891490608"><ele>250.39999999999998</ele><time>2026-04-11T09:04:28Z</time></trkpt><trkpt lat="44.94000891426353" lon="8.127638402436965"><ele>251.2</ele><time>2026-04-11T09:04:31Z</time></trkpt><trkpt lat="44.93997088342341" lon="8.127759073935245"><ele>252.0</ele><time>2026-04-11T09:04:34Z</time></trkpt><trkpt lat="44.93990736813603" lon="8.127847424891495"><ele>252.0</ele><time>2026-04-11T09:04:37Z</time></trkpt><trkpt lat="44.93985607274516" lon="8.127915365297675"><ele>252.0</ele><time>2026-04-11T09:04:39Z</time></trkpt><trkpt lat="44.939805695588674" lon="8.127981365228027"><ele>252.0</ele><time>2026-04-11T09:04:41Z</time></trkpt><trkpt lat="44.939742860732636" lon="8.128052664359197"><ele>252.0</ele><time>2026-04-11T09:04:45Z</time></trkpt><trkpt lat="44.93967447178322" lon="8.128127142816767"><ele>252.0</ele><time>2026-04-11T09:04:48Z</time></trkpt><trkpt lat="44.93961303795124" lon="8.128206721347722"><ele>252.0</ele><time>2026-04-11T09:04:50Z</time></trkpt><trkpt lat="44.93956782627199" lon="8.12829438224719"><ele>252.16666666666666</ele><time>2026-04-11T09:04:52Z</time></trkpt><trkpt lat="44.93951756027109" lon="8.12836765383652"><ele>252.33333333333331</ele><time>2026-04-11T09:04:54Z</time></trkpt><trkpt lat="44.939464465802125" lon="8.128502770764307"><ele>252.5</ele><time>2026-04-11T09:04:56Z</time></trkpt><trkpt lat="44.93943560252129" lon="8.128610299871687"><ele>252.66666666666666</ele><time>2026-04-11T09:04:58Z</time></trkpt><trkpt lat="44.93939949076195" lon="8.128711753895011"><ele>252.83333333333331</ele><time>2026-04-11T09:05:01Z</time></trkpt><trkpt lat="44.93935555631752" lon="8.128779361340193"><ele>253.0</ele><time>2026-04-11T09:05:03Z</time></trkpt><trkpt lat="44.93928277685353" lon="8.128851645428725"><ele>252.60000000000002</ele><time>2026-04-11T09:05:05Z</time></trkpt><trkpt lat="44.93921410388089" lon="8.12893107429459"><ele>252.20000000000002</ele><time>2026-04-11T09:05:07Z</time></trkpt><trkpt lat="44.93913108099384" lon="8.129007628218408"><ele>251.8</ele><time>2026-04-11T09:05:09Z</time></trkpt><trkpt lat="44.93904161087943" lon="8.129086492948995"><ele>251.4</ele><time>2026-04-11T09:05:11Z</time></trkpt><trkpt lat="44.93895448886237" lon="8.12914612934258"><ele>251.0</ele><time>2026-04-11T09:05:13Z</time></trkpt><trkpt lat="44.93887300086549" lon="8.129235560468187"><ele>251.0</ele><time>2026-04-11T09:05:15Z</time></trkpt><trkpt lat="44.93879138983376" lon="8.129323046921918"><ele>251.00000000000003</ele><time>2026-04-11T09:05:17Z</time></trkpt><trkpt lat="44.93870672715877" lon="8.12941627418928"><ele>251.00000000000003</ele><time>2026-04-11T09:05:18.999Z</time></trkpt><trkpt lat="44.93863426250521" lon="8.129507383313602"><ele>251.0</ele><time>2026-04-11T09:05:20.999Z</time></trkpt><trkpt lat="44.9385740192816" lon="8.12959356045724"><ele>251.0</ele><time>2026-04-11T09:05:22.999Z</time></trkpt><trkpt lat="44.93852080459397" lon="8.129701069075775"><ele>251.00000000000003</ele><time>2026-04-11T09:05:24.999Z</time></trkpt><trkpt lat="44.93848306420775" lon="8.129813200208542"><ele>251.0</ele><time>2026-04-11T09:05:26.999Z</time></trkpt><trkpt lat="44.938448047360765" lon="8.129926156407091"><ele>251.0</ele><time>2026-04-11T09:05:28.999Z</time></trkpt><trkpt lat="44.93841397364014" lon="8.130041383256165"><ele>251.0</ele><time>2026-04-11T09:05:30.999Z</time></trkpt><trkpt lat="44.93838138222256" lon="8.130151913681562"><ele>251.00000000000003</ele><time>2026-04-11T09:05:32.999Z</time></trkpt><trkpt lat="44.938348830642504" lon="8.13026241773085"><ele>251.0</ele><time>2026-04-11T09:05:34.999Z</time></trkpt><trkpt lat="44.93831911816503" lon="8.13036328377622"><ele>251.33333333333334</ele><time>2026-04-11T09:05:36.999Z</time></trkpt><trkpt lat="44.93829091868134" lon="8.130453166210089"><ele>251.66666666666669</ele><time>2026-04-11T09:05:38.999Z</time></trkpt><trkpt lat="44.93827318926933" lon="8.130547951535743"><ele>252.0</ele><time>2026-04-11T09:05:40.999Z</time></trkpt><trkpt lat="44.93823168576929" lon="8.130615957320085"><ele>252.33333333333331</ele><time>2026-04-11T09:05:42.999Z</time></trkpt><trkpt lat="44.938158662333656" lon="8.1307291866443"><ele>252.66666666666666</ele><time>2026-04-11T09:05:45.999Z</time></trkpt><trkpt lat="44.93809644355309" lon="8.13075119733671"><ele>253.0</ele><time>2026-04-11T09:05:47.999Z</time></trkpt><trkpt lat="44.9380383738969" lon="8.13085295167558"><ele>253.16666666666666</ele><time>2026-04-11T09:05:50.999Z</time></trkpt><trkpt lat="44.93799326339224" lon="8.130932442378997"><ele>253.33333333333331</ele><time>2026-04-11T09:05:52.999Z</time></trkpt><trkpt lat="44.93795926838247" lon="8.131028762979108"><ele>253.5</ele><time>2026-04-11T09:05:54.999Z</time></trkpt><trkpt lat="44.93791932078424" lon="8.13113376141919"><ele>253.66666666666669</ele><time>2026-04-11T09:05:56.999Z</time></trkpt><trkpt lat="44.93789059622836" lon="8.131252102425885"><ele>253.83333333333334</ele><time>2026-04-11T09:05:58.999Z</time></trkpt><trkpt lat="44.9378614980862" lon="8.131372443580528"><ele>254.0</ele><time>2026-04-11T09:06:00.999Z</time></trkpt><trkpt lat="44.937844735671895" lon="8.131496074071418"><ele>252.50000000000003</ele><time>2026-04-11T09:06:02.999Z</time></trkpt><trkpt lat="44.93781901324925" lon="8.131605791609257"><ele>251.0</ele><time>2026-04-11T09:06:04.999Z</time></trkpt><trkpt lat="44.93779391274316" lon="8.131715139589666"><ele>249.5</ele><time>2026-04-11T09:06:06.999Z</time></trkpt><trkpt lat="44.93776744970925" lon="8.131809326976258"><ele>248.0</ele><time>2026-04-11T09:06:08.999Z</time></trkpt><trkpt lat="44.93774581237888" lon="8.131908571975961"><ele>246.50000000000003</ele><time>2026-04-11T09:06:10.999Z</time></trkpt><trkpt lat="44.937713576000725" lon="8.13200302022753"><ele>245.0</ele><time>2026-04-11T09:06:13.999Z</time></trkpt><trkpt lat="44.93767567693576" lon="8.132084752693753"><ele>245.00000000000003</ele><time>2026-04-11T09:06:16.999Z</time></trkpt><trkpt lat="44.93764766805699" lon="8.13220829002119"><ele>245.0</ele><time>2026-04-11T09:06:17.999Z</time></trkpt><trkpt lat="44.93758511763818" lon="8.132353471858806"><ele>245.0</ele><time>2026-04-11T09:06:19.999Z</time></trkpt><trkpt lat="44.93753189037658" lon="8.132414272452976"><ele>245.0</ele><time>2026-04-11T09:06:20.999Z</time></trkpt><trkpt lat="44.937492047047044" lon="8.132484596857367"><ele>245.00000000000003</ele><time>2026-04-11T09:06:21.999Z</time></trkpt><trkpt lat="44.93744971124206" lon="8.132555565022034"><ele>245.0</ele><time>2026-04-11T09:06:22.999Z</time></trkpt><trkpt lat="44.937409478160355" lon="8.1326285323308"><ele>244.8</ele><time>2026-04-11T09:06:23.999Z</time></trkpt><trkpt lat="44.93738715892752" lon="8.132717811314444"><ele>244.6</ele><time>2026-04-11T09:06:24.999Z</time></trkpt><trkpt lat="44.937358110149255" lon="8.132798294951854"><ele>244.39999999999998</ele><time>2026-04-11T09:06:25.999Z</time></trkpt><trkpt lat="44.93733905751646" lon="8.13297866306567"><ele>244.2</ele><time>2026-04-11T09:06:27.999Z</time></trkpt><trkpt lat="44.93731377962176" lon="8.133136373654947"><ele>244.0</ele><time>2026-04-11T09:06:29.999Z</time></trkpt><trkpt lat="44.937274069641596" lon="8.13327205750823"><ele>242.2</ele><time>2026-04-11T09:06:32Z</time></trkpt><trkpt lat="44.93720476522557" lon="8.133389402954695"><ele>240.39999999999998</ele><time>2026-04-11T09:06:34Z</time></trkpt><trkpt lat="44.937092747169096" lon="8.133470669729556"><ele>238.6</ele><time>2026-04-11T09:06:36Z</time></trkpt><trkpt lat="44.936996866923835" lon="8.133567823640943"><ele>236.8</ele><time>2026-04-11T09:06:38Z</time></trkpt><trkpt lat="44.93693673300408" lon="8.133610331593653"><ele>235.0</ele><time>2026-04-11T09:06:39Z</time></trkpt><trkpt lat="44.93688985018129" lon="8.133670922551056"><ele>234.99999999999997</ele><time>2026-04-11T09:06:40Z</time></trkpt><trkpt lat="44.93683191184782" lon="8.133721124864277"><ele>235.0</ele><time>2026-04-11T09:06:41Z</time></trkpt><trkpt lat="44.936772223351376" lon="8.133763498101976"><ele>235.0</ele><time>2026-04-11T09:06:42Z</time></trkpt><trkpt lat="44.93671676367706" lon="8.133805848031102"><ele>235.0</ele><time>2026-04-11T09:06:43Z</time></trkpt><trkpt lat="44.93665272151184" lon="8.133823446316077"><ele>234.99999999999997</ele><time>2026-04-11T09:06:44Z</time></trkpt><trkpt lat="44.93655094859459" lon="8.133896884792525"><ele>235.0</ele><time>2026-04-11T09:06:46Z</time></trkpt><trkpt lat="44.93642958331573" lon="8.133941124337596"><ele>234.42857142857142</ele><time>2026-04-11T09:06:48Z</time></trkpt><trkpt lat="44.93636500947387" lon="8.133961415638288"><ele>233.85714285714283</ele><time>2026-04-11T09:06:49Z</time></trkpt><trkpt lat="44.93629376891419" lon="8.133984671542338"><ele>233.28571428571428</ele><time>2026-04-11T09:06:50Z</time></trkpt><trkpt lat="44.936221261400895" lon="8.134017241879715"><ele>232.71428571428572</ele><time>2026-04-11T09:06:51Z</time></trkpt><trkpt lat="44.93614781937218" lon="8.134061366038372"><ele>232.14285714285714</ele><time>2026-04-11T09:06:52Z</time></trkpt><trkpt lat="44.93608093039881" lon="8.13410765266464"><ele>231.57142857142856</ele><time>2026-04-11T09:06:53Z</time></trkpt><trkpt lat="44.93602011349232" lon="8.134160517929029"><ele>231.0</ele><time>2026-04-11T09:06:54Z</time></trkpt><trkpt lat="44.93595249413161" lon="8.134185593429724"><ele>230.83333333333334</ele><time>2026-04-11T09:06:55Z</time></trkpt><trkpt lat="44.93590101075502" lon="8.134245714084692"><ele>230.66666666666669</ele><time>2026-04-11T09:06:56Z</time></trkpt><trkpt lat="44.93581351690231" lon="8.134279336856109"><ele>230.5</ele><time>2026-04-11T09:06:58Z</time></trkpt><trkpt lat="44.935742795126316" lon="8.13433511690015"><ele>230.33333333333334</ele><time>2026-04-11T09:07:00Z</time></trkpt><trkpt lat="44.935674923355954" lon="8.134361043796778"><ele>230.16666666666669</ele><time>2026-04-11T09:07:02Z</time></trkpt><trkpt lat="44.93560283438019" lon="8.134373876123641"><ele>230.0</ele><time>2026-04-11T09:07:04Z</time></trkpt><trkpt lat="44.93552935510697" lon="8.134403972213425"><ele>230.00000000000003</ele><time>2026-04-11T09:07:06Z</time></trkpt><trkpt lat="44.93545651748906" lon="8.13443269671109"><ele>230.0</ele><time>2026-04-11T09:07:08Z</time></trkpt><trkpt lat="44.93539607516524" lon="8.13447399310418"><ele>230.0</ele><time>2026-04-11T09:07:10Z</time></trkpt><trkpt lat="44.935314779520716" lon="8.134478586383159"><ele>230.0</ele><time>2026-04-11T09:07:12Z</time></trkpt><trkpt lat="44.93524143399515" lon="8.134515723402236"><ele>230.00000000000003</ele><time>2026-04-11T09:07:14Z</time></trkpt><trkpt lat="44.93516310129796" lon="8.134508408130085"><ele>230.0</ele><time>2026-04-11T09:07:16Z</time></trkpt><trkpt lat="44.9350910940499" lon="8.134478886050559"><ele>230.50000000000003</ele><time>2026-04-11T09:07:18Z</time></trkpt><trkpt lat="44.935020061085886" lon="8.134441081897057"><ele>231.0</ele><time>2026-04-11T09:07:20Z</time></trkpt><trkpt lat="44.93494506003818" lon="8.134391874589078"><ele>231.5</ele><time>2026-04-11T09:07:22Z</time></trkpt><trkpt lat="44.93488912211801" lon="8.134334902100404"><ele>232.0</ele><time>2026-04-11T09:07:24Z</time></trkpt><trkpt lat="44.93480962283915" lon="8.134308598533208"><ele>232.50000000000003</ele><time>2026-04-11T09:07:25.999Z</time></trkpt><trkpt lat="44.934723227027185" lon="8.134301618110307"><ele>233.0</ele><time>2026-04-11T09:07:27.999Z</time></trkpt><trkpt lat="44.93463980794791" lon="8.13432623504121"><ele>233.00000000000003</ele><time>2026-04-11T09:07:29.999Z</time></trkpt><trkpt lat="44.93457228898879" lon="8.134414112498511"><ele>233.0</ele><time>2026-04-11T09:07:32.999Z</time></trkpt><trkpt lat="44.93450107295563" lon="8.134487880568335"><ele>233.0</ele><time>2026-04-11T09:07:35.999Z</time></trkpt><trkpt lat="44.93443877315633" lon="8.134561161466516"><ele>233.0</ele><time>2026-04-11T09:07:38.999Z</time></trkpt><trkpt lat="44.93437487063197" lon="8.134624814705305"><ele>233.00000000000003</ele><time>2026-04-11T09:07:41.999Z</time></trkpt><trkpt lat="44.93432264082958" lon="8.134700001890762"><ele>233.0</ele><time>2026-04-11T09:07:44.999Z</time></trkpt><trkpt lat="44.934268297884614" lon="8.134759159424942"><ele>233.0</ele><time>2026-04-11T09:07:47.999Z</time></trkpt><trkpt lat="44.934222563457965" lon="8.134832633932662"><ele>233.0</ele><time>2026-04-11T09:07:50.999Z</time></trkpt><trkpt lat="44.93417479036547" lon="8.134891435169953"><ele>233.0</ele><time>2026-04-11T09:07:52.999Z</time></trkpt><trkpt lat="44.934127895155655" lon="8.134958256640974"><ele>233.0</ele><time>2026-04-11T09:07:54.999Z</time></trkpt><trkpt lat="44.93408135817067" lon="8.135038327930458"><ele>233.0</ele><time>2026-04-11T09:07:56.999Z</time></trkpt><trkpt lat="44.93402975581492" lon="8.135107541802205"><ele>233.0</ele><time>2026-04-11T09:07:58.999Z</time></trkpt><trkpt lat="44.933966264321654" lon="8.135196717929787"><ele>233.0</ele><time>2026-04-11T09:08:00.999Z</time></trkpt><trkpt lat="44.93392274422149" lon="8.135300519431143"><ele>232.60000000000002</ele><time>2026-04-11T09:08:02.999Z</time></trkpt><trkpt lat="44.93390210284652" lon="8.135435548577203"><ele>232.20000000000002</ele><time>2026-04-11T09:08:04.999Z</time></trkpt><trkpt lat="44.933889896473524" lon="8.13556795046534"><ele>231.8</ele><time>2026-04-11T09:08:06.999Z</time></trkpt><trkpt lat="44.93386916717105" lon="8.13569254244979"><ele>231.4</ele><time>2026-04-11T09:08:08.999Z</time></trkpt><trkpt lat="44.93382316901596" lon="8.135807648404867"><ele>231.0</ele><time>2026-04-11T09:08:10.999Z</time></trkpt><trkpt lat="44.9337919510904" lon="8.135923278900671"><ele>231.0</ele><time>2026-04-11T09:08:12.999Z</time></trkpt><trkpt lat="44.933772957218025" lon="8.136046494163953"><ele>231.00000000000003</ele><time>2026-04-11T09:08:14.999Z</time></trkpt><trkpt lat="44.93376266495987" lon="8.136179342278025"><ele>231.00000000000003</ele><time>2026-04-11T09:08:16.999Z</time></trkpt><trkpt lat="44.93375466064601" lon="8.136329551639376"><ele>231.0</ele><time>2026-04-11T09:08:18.999Z</time></trkpt><trkpt lat="44.93379101135368" lon="8.136476917387194"><ele>231.0</ele><time>2026-04-11T09:08:20.999Z</time></trkpt><trkpt lat="44.93384318105781" lon="8.136632077340632"><ele>230.8</ele><time>2026-04-11T09:08:22.999Z</time></trkpt><trkpt lat="44.93390746089441" lon="8.136765230134257"><ele>230.60000000000002</ele><time>2026-04-11T09:08:24.999Z</time></trkpt><trkpt lat="44.9339413588949" lon="8.136904247876247"><ele>230.4</ele><time>2026-04-11T09:08:26.999Z</time></trkpt><trkpt lat="44.933946483732356" lon="8.137063042073729"><ele>230.2</ele><time>2026-04-11T09:08:28.999Z</time></trkpt><trkpt lat="44.9339684126299" lon="8.13722182120652"><ele>230.0</ele><time>2026-04-11T09:08:30.999Z</time></trkpt><trkpt lat="44.9340426386235" lon="8.13736069368084"><ele>230.5</ele><time>2026-04-11T09:08:32.999Z</time></trkpt><trkpt lat="44.9341461581541" lon="8.137463620219382"><ele>231.0</ele><time>2026-04-11T09:08:34.999Z</time></trkpt><trkpt lat="44.93424550364092" lon="8.137567918701604"><ele>231.5</ele><time>2026-04-11T09:08:37Z</time></trkpt><trkpt lat="44.93433921328531" lon="8.137675493267405"><ele>232.0</ele><time>2026-04-11T09:08:39Z</time></trkpt><trkpt lat="44.934407236244" lon="8.137787087961305"><ele>229.99999999999997</ele><time>2026-04-11T09:08:41Z</time></trkpt><trkpt lat="44.93443716468537" lon="8.13792339367145"><ele>228.0</ele><time>2026-04-11T09:08:43Z</time></trkpt><trkpt lat="44.93443771588425" lon="8.138086828835695"><ele>226.0</ele><time>2026-04-11T09:08:45Z</time></trkpt><trkpt lat="44.934435188475554" lon="8.138188133238653"><ele>224.0</ele><time>2026-04-11T09:08:46Z</time></trkpt><trkpt lat="44.93443253605626" lon="8.138294448401277"><ele>221.99999999999997</ele><time>2026-04-11T09:08:47Z</time></trkpt><trkpt lat="44.93443136328095" lon="8.138407290304237"><ele>220.0</ele><time>2026-04-11T09:08:48Z</time></trkpt><trkpt lat="44.93443593669811" lon="8.138519750777725"><ele>220.0</ele><time>2026-04-11T09:08:49Z</time></trkpt><trkpt lat="44.93444971393214" lon="8.138633987644187"><ele>220.0</ele><time>2026-04-11T09:08:50Z</time></trkpt><trkpt lat="44.93446672512925" lon="8.138739231843164"><ele>220.0</ele><time>2026-04-11T09:08:51Z</time></trkpt><trkpt lat="44.934481090233" lon="8.138834712476735"><ele>220.0</ele><time>2026-04-11T09:08:52Z</time></trkpt><trkpt lat="44.93450521193634" lon="8.139007847673657"><ele>220.0</ele><time>2026-04-11T09:08:54Z</time></trkpt><trkpt lat="44.93452554126561" lon="8.13915058103186"><ele>220.66666666666666</ele><time>2026-04-11T09:08:56Z</time></trkpt><trkpt lat="44.93454522868955" lon="8.139280379752"><ele>221.33333333333331</ele><time>2026-04-11T09:08:58Z</time></trkpt><trkpt lat="44.934561607479694" lon="8.13939248325765"><ele>222.0</ele><time>2026-04-11T09:09:00Z</time></trkpt><trkpt lat="44.934572479397545" lon="8.139480733690473"><ele>222.66666666666669</ele><time>2026-04-11T09:09:02Z</time></trkpt><trkpt lat="44.93458459201422" lon="8.139592583668714"><ele>223.33333333333334</ele><time>2026-04-11T09:09:05Z</time></trkpt><trkpt lat="44.93459523992048" lon="8.139705157778604"><ele>224.0</ele><time>2026-04-11T09:09:08Z</time></trkpt><trkpt lat="44.93460240307664" lon="8.139822268007093"><ele>224.16666666666669</ele><time>2026-04-11T09:09:11Z</time></trkpt><trkpt lat="44.934602214060924" lon="8.139938387216398"><ele>224.33333333333334</ele><time>2026-04-11T09:09:14Z</time></trkpt><trkpt lat="44.934590842654245" lon="8.140059684743994"><ele>224.5</ele><time>2026-04-11T09:09:17Z</time></trkpt><trkpt lat="44.934607738880565" lon="8.140145911675244"><ele>224.66666666666669</ele><time>2026-04-11T09:09:19Z</time></trkpt><trkpt lat="44.934573135294045" lon="8.140261574353714"><ele>224.83333333333334</ele><time>2026-04-11T09:09:22Z</time></trkpt><trkpt lat="44.934527022308714" lon="8.140406880841626"><ele>225.0</ele><time>2026-04-11T09:09:26Z</time></trkpt><trkpt lat="44.93448967381951" lon="8.140515503258412"><ele>225.0</ele><time>2026-04-11T09:09:28Z</time></trkpt><trkpt lat="44.934430345947156" lon="8.140619057516766"><ele>225.0</ele><time>2026-04-11T09:09:30Z</time></trkpt><trkpt lat="44.93436348188729" lon="8.14075284280084"><ele>225.0</ele><time>2026-04-11T09:09:32Z</time></trkpt><trkpt lat="44.9342971302676" lon="8.1407986186782"><ele>225.0</ele><time>2026-04-11T09:09:33Z</time></trkpt><trkpt lat="44.934247798109574" lon="8.140876013617783"><ele>225.0</ele><time>2026-04-11T09:09:34Z</time></trkpt><trkpt lat="44.93419505632761" lon="8.140949424107497"><ele>225.0</ele><time>2026-04-11T09:09:35Z</time></trkpt><trkpt lat="44.934137436429545" lon="8.141023164223359"><ele>225.5</ele><time>2026-04-11T09:09:36Z</time></trkpt><trkpt lat="44.93407171879118" lon="8.141097358108231"><ele>226.0</ele><time>2026-04-11T09:09:37Z</time></trkpt><trkpt lat="44.934003979375866" lon="8.14117096095992"><ele>226.5</ele><time>2026-04-11T09:09:37.999Z</time></trkpt><trkpt lat="44.93393514688757" lon="8.141244545592503"><ele>227.0</ele><time>2026-04-11T09:09:38.999Z</time></trkpt><trkpt lat="44.93385970335252" lon="8.14135202009094"><ele>227.5</ele><time>2026-04-11T09:09:39.999Z</time></trkpt><trkpt lat="44.93380615505944" lon="8.141415919096321"><ele>228.0</ele><time>2026-04-11T09:09:40.999Z</time></trkpt><trkpt lat="44.933735068245916" lon="8.141472502008416"><ele>227.0</ele><time>2026-04-11T09:09:41.999Z</time></trkpt><trkpt lat="44.93367326351468" lon="8.14155051815982"><ele>225.99999999999997</ele><time>2026-04-11T09:09:42.999Z</time></trkpt><trkpt lat="44.93361787980881" lon="8.141625067472118"><ele>225.0</ele><time>2026-04-11T09:09:43.999Z</time></trkpt><trkpt lat="44.93356092098858" lon="8.141701736949637"><ele>224.0</ele><time>2026-04-11T09:09:44.999Z</time></trkpt><trkpt lat="44.93351371506022" lon="8.141765278546659"><ele>223.0</ele><time>2026-04-11T09:09:45.999Z</time></trkpt><trkpt lat="44.933463238431486" lon="8.141833222660821"><ele>222.0</ele><time>2026-04-11T09:09:46.999Z</time></trkpt><trkpt lat="44.933412759707906" lon="8.141901169659677"><ele>221.0</ele><time>2026-04-11T09:09:47.999Z</time></trkpt><trkpt lat="44.933378785909525" lon="8.142003064656963"><ele>221.00000000000003</ele><time>2026-04-11T09:09:48.999Z</time></trkpt><trkpt lat="44.93333157449913" lon="8.142090389958708"><ele>221.0</ele><time>2026-04-11T09:09:49.999Z</time></trkpt><trkpt lat="44.93330349010232" lon="8.142210544752057"><ele>221.0</ele><time>2026-04-11T09:09:50.999Z</time></trkpt><trkpt lat="44.933274085972364" lon="8.142318875776867"><ele>221.0</ele><time>2026-04-11T09:09:51.999Z</time></trkpt><trkpt lat="44.933242708052525" lon="8.142427199256202"><ele>221.00000000000003</ele><time>2026-04-11T09:09:52.999Z</time></trkpt><trkpt lat="44.933211027908115" lon="8.142529858765917"><ele>221.0</ele><time>2026-04-11T09:09:53.999Z</time></trkpt><trkpt lat="44.93317201781047" lon="8.142632245277373"><ele>220.33333333333334</ele><time>2026-04-11T09:09:54.999Z</time></trkpt><trkpt lat="44.933130738331855" lon="8.142725062535689"><ele>219.66666666666669</ele><time>2026-04-11T09:09:55.999Z</time></trkpt><trkpt lat="44.93307884859546" lon="8.142808324407566"><ele>219.0</ele><time>2026-04-11T09:09:56.999Z</time></trkpt><trkpt lat="44.9330241784327" lon="8.142890345851185"><ele>218.33333333333331</ele><time>2026-04-11T09:09:57.999Z</time></trkpt><trkpt lat="44.932968582253075" lon="8.142972410108841"><ele>217.66666666666666</ele><time>2026-04-11T09:09:58.999Z</time></trkpt><trkpt lat="44.93292805483779" lon="8.143071346519973"><ele>217.0</ele><time>2026-04-11T09:09:59.999Z</time></trkpt><trkpt lat="44.93288642617389" lon="8.143177315201063"><ele>216.57142857142858</ele><time>2026-04-11T09:10:00.999Z</time></trkpt><trkpt lat="44.932863065854924" lon="8.143290313267828"><ele>216.14285714285714</ele><time>2026-04-11T09:10:01.999Z</time></trkpt><trkpt lat="44.93283092900776" lon="8.143394281716198"><ele>215.71428571428572</ele><time>2026-04-11T09:10:02.999Z</time></trkpt><trkpt lat="44.93281303538057" lon="8.143497753577346"><ele>215.28571428571428</ele><time>2026-04-11T09:10:03.999Z</time></trkpt><trkpt lat="44.932790609452375" lon="8.1435915867059"><ele>214.85714285714286</ele><time>2026-04-11T09:10:04.999Z</time></trkpt><trkpt lat="44.93276316757414" lon="8.143675078909725"><ele>214.42857142857144</ele><time>2026-04-11T09:10:05.999Z</time></trkpt><trkpt lat="44.93272840321228" lon="8.143750705715666"><ele>214.0</ele><time>2026-04-11T09:10:06.999Z</time></trkpt><trkpt lat="44.93268802117573" lon="8.143828397205437"><ele>214.00000000000003</ele><time>2026-04-11T09:10:07.999Z</time></trkpt><trkpt lat="44.932640813030346" lon="8.143899823028109"><ele>214.0</ele><time>2026-04-11T09:10:08.999Z</time></trkpt><trkpt lat="44.93258547841755" lon="8.143971887735301"><ele>214.0</ele><time>2026-04-11T09:10:09.999Z</time></trkpt><trkpt lat="44.93252904892995" lon="8.14403686540991"><ele>214.0</ele><time>2026-04-11T09:10:10.999Z</time></trkpt><trkpt lat="44.932472976344705" lon="8.144092856728864"><ele>214.0</ele><time>2026-04-11T09:10:11.999Z</time></trkpt><trkpt lat="44.93241629716221" lon="8.1441453245404"><ele>214.00000000000003</ele><time>2026-04-11T09:10:12.999Z</time></trkpt><trkpt lat="44.93236125227444" lon="8.14419817414739"><ele>214.0</ele><time>2026-04-11T09:10:13.999Z</time></trkpt><trkpt lat="44.93226225133799" lon="8.1442935860372"><ele>214.39999999999998</ele><time>2026-04-11T09:10:15.999Z</time></trkpt><trkpt lat="44.93217786607115" lon="8.14437625678585"><ele>214.79999999999998</ele><time>2026-04-11T09:10:17.999Z</time></trkpt><trkpt lat="44.93209953501348" lon="8.144465589176912"><ele>215.20000000000002</ele><time>2026-04-11T09:10:19.999Z</time></trkpt><trkpt lat="44.9320317594297" lon="8.144556817889745"><ele>215.60000000000002</ele><time>2026-04-11T09:10:21.999Z</time></trkpt><trkpt lat="44.93198087923614" lon="8.144661310575712"><ele>216.0</ele><time>2026-04-11T09:10:23.999Z</time></trkpt><trkpt lat="44.93194632160816" lon="8.144774322676014"><ele>216.0</ele><time>2026-04-11T09:10:25.999Z</time></trkpt><trkpt lat="44.93192586870727" lon="8.144863301830386"><ele>216.0</ele><time>2026-04-11T09:10:27.999Z</time></trkpt><trkpt lat="44.931906969751715" lon="8.144975123788262"><ele>216.0</ele><time>2026-04-11T09:10:29.999Z</time></trkpt><trkpt lat="44.93191541140039" lon="8.145087466409878"><ele>216.0</ele><time>2026-04-11T09:10:31.999Z</time></trkpt><trkpt lat="44.93190805810333" lon="8.145202939215443"><ele>216.0</ele><time>2026-04-11T09:10:33.999Z</time></trkpt><trkpt lat="44.931874615918105" lon="8.145333901068577"><ele>216.0</ele><time>2026-04-11T09:10:35.999Z</time></trkpt><trkpt lat="44.93186144542922" lon="8.145466887645053"><ele>215.0</ele><time>2026-04-11T09:10:37.999Z</time></trkpt><trkpt lat="44.93183496781141" lon="8.145628845635134"><ele>214.0</ele><time>2026-04-11T09:10:39.999Z</time></trkpt><trkpt lat="44.93180974657731" lon="8.14571627898217"><ele>213.0</ele><time>2026-04-11T09:10:40.999Z</time></trkpt><trkpt lat="44.931810247656074" lon="8.14580709034553"><ele>212.0</ele><time>2026-04-11T09:10:41.999Z</time></trkpt><trkpt lat="44.93182063395661" lon="8.145973599005005"><ele>211.0</ele><time>2026-04-11T09:10:44Z</time></trkpt><trkpt lat="44.93183118596242" lon="8.14606943156415"><ele>210.0</ele><time>2026-04-11T09:10:45Z</time></trkpt><trkpt lat="44.93184259927194" lon="8.1461603035079"><ele>210.0</ele><time>2026-04-11T09:10:46Z</time></trkpt><trkpt lat="44.93185502359012" lon="8.146251408102389"><ele>210.0</ele><time>2026-04-11T09:10:47Z</time></trkpt><trkpt lat="44.931869098596785" lon="8.146346873392565"><ele>210.0</ele><time>2026-04-11T09:10:48Z</time></trkpt><trkpt lat="44.93188367302254" lon="8.146445726040803"><ele>210.0</ele><time>2026-04-11T09:10:49Z</time></trkpt><trkpt lat="44.931898257327695" lon="8.146546829130953"><ele>210.0</ele><time>2026-04-11T09:10:50Z</time></trkpt><trkpt lat="44.93191030741638" lon="8.146639538820958"><ele>210.0</ele><time>2026-04-11T09:10:51Z</time></trkpt><trkpt lat="44.93192257914321" lon="8.146733953759997"><ele>210.0</ele><time>2026-04-11T09:10:52Z</time></trkpt><trkpt lat="44.931933587774296" lon="8.146827347372572"><ele>208.5</ele><time>2026-04-11T09:10:53Z</time></trkpt><trkpt lat="44.931943305005284" lon="8.146926178248323"><ele>207.0</ele><time>2026-04-11T09:10:54Z</time></trkpt><trkpt lat="44.93195043822694" lon="8.147028595909727"><ele>205.5</ele><time>2026-04-11T09:10:55Z</time></trkpt><trkpt lat="44.93195491798686" lon="8.147136726693528"><ele>204.0</ele><time>2026-04-11T09:10:56Z</time></trkpt><trkpt lat="44.93195275364162" lon="8.147229117842903"><ele>202.5</ele><time>2026-04-11T09:10:57Z</time></trkpt><trkpt lat="44.931943532254024" lon="8.147335798558084"><ele>201.0</ele><time>2026-04-11T09:10:58Z</time></trkpt><trkpt lat="44.931917030006446" lon="8.147485361213468"><ele>201.66666666666666</ele><time>2026-04-11T09:11:00Z</time></trkpt><trkpt lat="44.93188356244815" lon="8.147599819477326"><ele>202.33333333333331</ele><time>2026-04-11T09:11:02Z</time></trkpt><trkpt lat="44.931846719924486" lon="8.147691545540328"><ele>203.0</ele><time>2026-04-11T09:11:04Z</time></trkpt><trkpt lat="44.93180603619311" lon="8.14777376444466"><ele>203.66666666666666</ele><time>2026-04-11T09:11:06Z</time></trkpt><trkpt lat="44.93175632966538" lon="8.147871957708539"><ele>204.33333333333331</ele><time>2026-04-11T09:11:08Z</time></trkpt><trkpt lat="44.93173087563024" lon="8.147968711852288"><ele>205.0</ele><time>2026-04-11T09:11:10Z</time></trkpt><trkpt lat="44.93169044857549" lon="8.14805753123816"><ele>204.99999999999997</ele><time>2026-04-11T09:11:12Z</time></trkpt><trkpt lat="44.93164837549028" lon="8.148141496538946"><ele>205.0</ele><time>2026-04-11T09:11:14Z</time></trkpt><trkpt lat="44.93160173656969" lon="8.148232859538949"><ele>205.0</ele><time>2026-04-11T09:11:16Z</time></trkpt><trkpt lat="44.93155231339658" lon="8.148307463278263"><ele>205.0</ele><time>2026-04-11T09:11:18Z</time></trkpt><trkpt lat="44.93150198474066" lon="8.148396961475028"><ele>204.99999999999997</ele><time>2026-04-11T09:11:20Z</time></trkpt><trkpt lat="44.93144353786419" lon="8.148481450401613"><ele>205.0</ele><time>2026-04-11T09:11:22Z</time></trkpt><trkpt lat="44.93138297344025" lon="8.148561809989465"><ele>204.0</ele><time>2026-04-11T09:11:24Z</time></trkpt><trkpt lat="44.931317918623705" lon="8.148659520248488"><ele>203.0</ele><time>2026-04-11T09:11:26Z</time></trkpt><trkpt lat="44.931253937852226" lon="8.148774317075022"><ele>202.0</ele><time>2026-04-11T09:11:28Z</time></trkpt><trkpt lat="44.93119402246495" lon="8.148915038819052"><ele>201.0</ele><time>2026-04-11T09:11:30Z</time></trkpt><trkpt lat="44.931140416972454" lon="8.149068589191247"><ele>200.0</ele><time>2026-04-11T09:11:32Z</time></trkpt><trkpt lat="44.931106105860216" lon="8.149219969620797"><ele>200.0</ele><time>2026-04-11T09:11:34Z</time></trkpt><trkpt lat="44.931080675348156" lon="8.149360649682679"><ele>200.0</ele><time>2026-04-11T09:11:36Z</time></trkpt><trkpt lat="44.9310657262154" lon="8.149470681145385"><ele>200.0</ele><time>2026-04-11T09:11:38Z</time></trkpt><trkpt lat="44.931049946208944" lon="8.149593211490282"><ele>200.0</ele><time>2026-04-11T09:11:40Z</time></trkpt><trkpt lat="44.93103238383756" lon="8.1497349319384"><ele>200.0</ele><time>2026-04-11T09:11:42Z</time></trkpt><trkpt lat="44.93101509118808" lon="8.149882591211986"><ele>196.75</ele><time>2026-04-11T09:11:44Z</time></trkpt><trkpt lat="44.93099670234854" lon="8.15003961086103"><ele>193.5</ele><time>2026-04-11T09:11:45.999Z</time></trkpt><trkpt lat="44.930988432194" lon="8.150210182657796"><ele>190.25</ele><time>2026-04-11T09:11:47.999Z</time></trkpt><trkpt lat="44.93098186470912" lon="8.15037063674112"><ele>187.0</ele><time>2026-04-11T09:11:49.999Z</time></trkpt><trkpt lat="44.93096856668361" lon="8.150515488510615"><ele>187.0</ele><time>2026-04-11T09:11:51.999Z</time></trkpt><trkpt lat="44.93094090037855" lon="8.150669410718216"><ele>187.0</ele><time>2026-04-11T09:11:53.999Z</time></trkpt><trkpt lat="44.930912523830486" lon="8.15080788466297"><ele>187.0</ele><time>2026-04-11T09:11:55.999Z</time></trkpt><trkpt lat="44.93088192976715" lon="8.150931083926295"><ele>187.0</ele><time>2026-04-11T09:11:57.999Z</time></trkpt><trkpt lat="44.93087139913474" lon="8.151059952299889"><ele>187.0</ele><time>2026-04-11T09:11:59.999Z</time></trkpt><trkpt lat="44.93084666878565" lon="8.151190686574429"><ele>192.0</ele><time>2026-04-11T09:12:01.999Z</time></trkpt><trkpt lat="44.930832353893436" lon="8.151321261597879"><ele>197.0</ele><time>2026-04-11T09:12:03.999Z</time></trkpt><trkpt lat="44.93081881744555" lon="8.151446909425506"><ele>202.0</ele><time>2026-04-11T09:12:05.999Z</time></trkpt><trkpt lat="44.930810450346804" lon="8.151575603778445"><ele>207.0</ele><time>2026-04-11T09:12:07.999Z</time></trkpt><trkpt lat="44.93079977615994" lon="8.151699178124183"><ele>212.0</ele><time>2026-04-11T09:12:09.999Z</time></trkpt><trkpt lat="44.93078884019203" lon="8.151830488956314"><ele>212.2857142857143</ele><time>2026-04-11T09:12:11.999Z</time></trkpt><trkpt lat="44.9307913737317" lon="8.151921377918574"><ele>212.57142857142856</ele><time>2026-04-11T09:12:13.999Z</time></trkpt><trkpt lat="44.93079693871612" lon="8.152027569895239"><ele>212.85714285714286</ele><time>2026-04-11T09:12:15.999Z</time></trkpt><trkpt lat="44.930811093400564" lon="8.15211603619023"><ele>213.14285714285717</ele><time>2026-04-11T09:12:17.999Z</time></trkpt><trkpt lat="44.93083120849402" lon="8.152201244058336"><ele>213.42857142857144</ele><time>2026-04-11T09:12:19.999Z</time></trkpt><trkpt lat="44.93087362731287" lon="8.152322636262548"><ele>213.71428571428572</ele><time>2026-04-11T09:12:22.999Z</time></trkpt><trkpt lat="44.930913936030905" lon="8.15239593509466"><ele>214.0</ele><time>2026-04-11T09:12:24.999Z</time></trkpt><trkpt lat="44.93097629915263" lon="8.152490495749916"><ele>213.42857142857144</ele><time>2026-04-11T09:12:27.999Z</time></trkpt><trkpt lat="44.93102749274279" lon="8.152561474427783"><ele>212.85714285714286</ele><time>2026-04-11T09:12:29.999Z</time></trkpt><trkpt lat="44.93107277132934" lon="8.152626007506232"><ele>212.28571428571428</ele><time>2026-04-11T09:12:31.999Z</time></trkpt><trkpt lat="44.931121924369855" lon="8.152703764259504"><ele>211.71428571428572</ele><time>2026-04-11T09:12:33.999Z</time></trkpt><trkpt lat="44.93117138632997" lon="8.152768997749158"><ele>211.14285714285714</ele><time>2026-04-11T09:12:37.999Z</time></trkpt><trkpt lat="44.9311866127182" lon="8.15287252035987"><ele>210.57142857142858</ele><time>2026-04-11T09:12:39.999Z</time></trkpt><trkpt lat="44.93118908283282" lon="8.152964853327505"><ele>210.0</ele><time>2026-04-11T09:12:41.999Z</time></trkpt><trkpt lat="44.93117160142922" lon="8.153066018939725"><ele>209.4</ele><time>2026-04-11T09:12:43.999Z</time></trkpt><trkpt lat="44.931145635388035" lon="8.153316771470017"><ele>208.8</ele><time>2026-04-11T09:12:45.999Z</time></trkpt><trkpt lat="44.931127676792165" lon="8.153426430035019"><ele>208.2</ele><time>2026-04-11T09:12:47.999Z</time></trkpt><trkpt lat="44.93110748330474" lon="8.153528520681407"><ele>207.6</ele><time>2026-04-11T09:12:50Z</time></trkpt><trkpt lat="44.931092847886354" lon="8.15363264036932"><ele>207.0</ele><time>2026-04-11T09:12:52Z</time></trkpt><trkpt lat="44.931074091868936" lon="8.153745438303769"><ele>207.0</ele><time>2026-04-11T09:12:54Z</time></trkpt><trkpt lat="44.9310492017974" lon="8.153862519056416"><ele>207.0</ele><time>2026-04-11T09:12:56Z</time></trkpt><trkpt lat="44.93102424822839" lon="8.153987809509406"><ele>207.0</ele><time>2026-04-11T09:12:58Z</time></trkpt><trkpt lat="44.93097922884262" lon="8.154118714533617"><ele>207.0</ele><time>2026-04-11T09:13:00Z</time></trkpt><trkpt lat="44.93096143979477" lon="8.15420673214845"><ele>207.0</ele><time>2026-04-11T09:13:01Z</time></trkpt><trkpt lat="44.93092130566166" lon="8.154362795419305"><ele>207.0</ele><time>2026-04-11T09:13:03Z</time></trkpt><trkpt lat="44.93089442210967" lon="8.154444020558788"><ele>207.0</ele><time>2026-04-11T09:13:04Z</time></trkpt><trkpt lat="44.93085938533413" lon="8.15452545108166"><ele>207.0</ele><time>2026-04-11T09:13:05Z</time></trkpt><trkpt lat="44.930828396400464" lon="8.154613221943025"><ele>207.0</ele><time>2026-04-11T09:13:06Z</time></trkpt><trkpt lat="44.9307934217799" lon="8.154690764071205"><ele>207.0</ele><time>2026-04-11T09:13:07Z</time></trkpt><trkpt lat="44.930755861323235" lon="8.154762383585883"><ele>207.0</ele><time>2026-04-11T09:13:08Z</time></trkpt><trkpt lat="44.93069521393659" lon="8.154913672329231"><ele>207.57142857142858</ele><time>2026-04-11T09:13:10Z</time></trkpt><trkpt lat="44.93065402179815" lon="8.154988574466389"><ele>208.14285714285714</ele><time>2026-04-11T09:13:11Z</time></trkpt><trkpt lat="44.93061522060386" lon="8.155070777635212"><ele>208.71428571428572</ele><time>2026-04-11T09:13:12Z</time></trkpt><trkpt lat="44.930567759204884" lon="8.15515012949482"><ele>209.28571428571428</ele><time>2026-04-11T09:13:13Z</time></trkpt><trkpt lat="44.930547997968944" lon="8.155266052814204"><ele>209.85714285714286</ele><time>2026-04-11T09:13:14Z</time></trkpt><trkpt lat="44.93052112372621" lon="8.155368728536239"><ele>210.42857142857144</ele><time>2026-04-11T09:13:15Z</time></trkpt><trkpt lat="44.93049612125858" lon="8.155463202565008"><ele>211.0</ele><time>2026-04-11T09:13:16Z</time></trkpt><trkpt lat="44.93045781941272" lon="8.155540642195948"><ele>211.0</ele><time>2026-04-11T09:13:17Z</time></trkpt><trkpt lat="44.93044793424311" lon="8.155636737567079"><ele>211.0</ele><time>2026-04-11T09:13:18Z</time></trkpt><trkpt lat="44.930426995553134" lon="8.155724687040829"><ele>211.0</ele><time>2026-04-11T09:13:19Z</time></trkpt><trkpt lat="44.930389011647115" lon="8.155883593531973"><ele>211.0</ele><time>2026-04-11T09:13:21Z</time></trkpt><trkpt lat="44.930375333503804" lon="8.156051607652778"><ele>211.0</ele><time>2026-04-11T09:13:23Z</time></trkpt><trkpt lat="44.93040350470624" lon="8.15621250542144"><ele>210.0</ele><time>2026-04-11T09:13:25Z</time></trkpt><trkpt lat="44.93042059655097" lon="8.156354762042202"><ele>209.0</ele><time>2026-04-11T09:13:27Z</time></trkpt><trkpt lat="44.93044794847019" lon="8.15647664383131"><ele>208.0</ele><time>2026-04-11T09:13:29Z</time></trkpt><trkpt lat="44.93049107073012" lon="8.156599110919956"><ele>207.0</ele><time>2026-04-11T09:13:31Z</time></trkpt><trkpt lat="44.93051590374006" lon="8.156733254609847"><ele>206.0</ele><time>2026-04-11T09:13:33Z</time></trkpt><trkpt lat="44.93052394297385" lon="8.156876053806911"><ele>206.0</ele><time>2026-04-11T09:13:35Z</time></trkpt><trkpt lat="44.93049997406023" lon="8.157029040235797"><ele>206.0</ele><time>2026-04-11T09:13:37Z</time></trkpt><trkpt lat="44.93047724717759" lon="8.157179784207905"><ele>206.0</ele><time>2026-04-11T09:13:39Z</time></trkpt><trkpt lat="44.93041660436619" lon="8.157329709161043"><ele>206.0</ele><time>2026-04-11T09:13:41Z</time></trkpt><trkpt lat="44.9303617136093" lon="8.15738195345623"><ele>206.0</ele><time>2026-04-11T09:13:42Z</time></trkpt><trkpt lat="44.930276248624466" lon="8.157504345752127"><ele>206.00000000000003</ele><time>2026-04-11T09:13:43.999Z</time></trkpt><trkpt lat="44.930235788011565" lon="8.157587956312868"><ele>206.0</ele><time>2026-04-11T09:13:44.999Z</time></trkpt><trkpt lat="44.930182220260136" lon="8.157649095031397"><ele>206.0</ele><time>2026-04-11T09:13:45.999Z</time></trkpt><trkpt lat="44.93010973464358" lon="8.157765124627097"><ele>206.0</ele><time>2026-04-11T09:13:47.999Z</time></trkpt><trkpt lat="44.93002624921786" lon="8.157890619326247"><ele>206.00000000000003</ele><time>2026-04-11T09:13:49.999Z</time></trkpt><trkpt lat="44.92997535429504" lon="8.157945817159522"><ele>206.0</ele><time>2026-04-11T09:13:50.999Z</time></trkpt><trkpt lat="44.92987242996388" lon="8.158046574638334"><ele>205.8</ele><time>2026-04-11T09:13:52.999Z</time></trkpt><trkpt lat="44.92977655222784" lon="8.158151026589973"><ele>205.60000000000002</ele><time>2026-04-11T09:13:54.999Z</time></trkpt><trkpt lat="44.92969088865034" lon="8.158242443580555"><ele>205.4</ele><time>2026-04-11T09:13:56.999Z</time></trkpt><trkpt lat="44.929617933811116" lon="8.15832148972604"><ele>205.2</ele><time>2026-04-11T09:13:58.999Z</time></trkpt><trkpt lat="44.929542170918495" lon="8.158408216697639"><ele>205.0</ele><time>2026-04-11T09:14:00.999Z</time></trkpt><trkpt lat="44.92946964568395" lon="8.158496227091236"><ele>205.0</ele><time>2026-04-11T09:14:02.999Z</time></trkpt><trkpt lat="44.92936364825126" lon="8.158560520375504"><ele>205.0</ele><time>2026-04-11T09:14:04.999Z</time></trkpt><trkpt lat="44.92930623335417" lon="8.158597161698372"><ele>205.0</ele><time>2026-04-11T09:14:05.999Z</time></trkpt><trkpt lat="44.92919929910811" lon="8.158661702597163"><ele>205.0</ele><time>2026-04-11T09:14:07.999Z</time></trkpt><trkpt lat="44.92910161454025" lon="8.158741470788932"><ele>205.0</ele><time>2026-04-11T09:14:09.999Z</time></trkpt><trkpt lat="44.92901898751171" lon="8.158830427840321"><ele>205.0</ele><time>2026-04-11T09:14:11.999Z</time></trkpt><trkpt lat="44.928950158807204" lon="8.158936624202347"><ele>205.0</ele><time>2026-04-11T09:14:13.999Z</time></trkpt><trkpt lat="44.9288991611609" lon="8.15904692392957"><ele>205.0</ele><time>2026-04-11T09:14:15.999Z</time></trkpt><trkpt lat="44.92885448366714" lon="8.159159100706333"><ele>205.0</ele><time>2026-04-11T09:14:17.999Z</time></trkpt><trkpt lat="44.92880616980062" lon="8.1592632964346"><ele>205.0</ele><time>2026-04-11T09:14:19.999Z</time></trkpt><trkpt lat="44.928757877487165" lon="8.159378035639595"><ele>204.4</ele><time>2026-04-11T09:14:21.999Z</time></trkpt><trkpt lat="44.928703207398485" lon="8.15947928437093"><ele>203.8</ele><time>2026-04-11T09:14:23.999Z</time></trkpt><trkpt lat="44.92863674583526" lon="8.159582899947745"><ele>203.2</ele><time>2026-04-11T09:14:25.999Z</time></trkpt><trkpt lat="44.92858442155553" lon="8.159705527460769"><ele>202.6</ele><time>2026-04-11T09:14:27.999Z</time></trkpt><trkpt lat="44.928516544725596" lon="8.159825540915023"><ele>202.0</ele><time>2026-04-11T09:14:29.999Z</time></trkpt><trkpt lat="44.92844534727399" lon="8.159942610958804"><ele>202.99999999999997</ele><time>2026-04-11T09:14:31.999Z</time></trkpt><trkpt lat="44.92840753564493" lon="8.160014140101856"><ele>204.0</ele><time>2026-04-11T09:14:32.999Z</time></trkpt><trkpt lat="44.92832511568083" lon="8.160135797124438"><ele>205.0</ele><time>2026-04-11T09:14:34.999Z</time></trkpt><trkpt lat="44.92827282572848" lon="8.16018595626524"><ele>206.0</ele><time>2026-04-11T09:14:35.999Z</time></trkpt><trkpt lat="44.92815362556127" lon="8.160177054895264"><ele>206.99999999999997</ele><time>2026-04-11T09:14:37.999Z</time></trkpt><trkpt lat="44.92808634712919" lon="8.160172770458695"><ele>208.0</ele><time>2026-04-11T09:14:38.999Z</time></trkpt><trkpt lat="44.92799508756464" lon="8.160135309881161"><ele>207.99999999999997</ele><time>2026-04-11T09:14:40.999Z</time></trkpt><trkpt lat="44.92791835420664" lon="8.160131855072745"><ele>208.0</ele><time>2026-04-11T09:14:57Z</time></trkpt><trkpt lat="44.92784045067804" lon="8.160171385709177"><ele>208.0</ele><time>2026-04-11T09:15:00Z</time></trkpt><trkpt lat="44.927789113546275" lon="8.160244626784817"><ele>208.0</ele><time>2026-04-11T09:15:02Z</time></trkpt><trkpt lat="44.92774681880432" lon="8.160352089633509"><ele>207.99999999999997</ele><time>2026-04-11T09:15:04Z</time></trkpt><trkpt lat="44.92771638780304" lon="8.160472844378619"><ele>208.0</ele><time>2026-04-11T09:15:06Z</time></trkpt><trkpt lat="44.92767809372738" lon="8.160595531523722"><ele>207.2</ele><time>2026-04-11T09:15:08Z</time></trkpt><trkpt lat="44.9276342481454" lon="8.160702471227932"><ele>206.4</ele><time>2026-04-11T09:15:10Z</time></trkpt><trkpt lat="44.927577365680754" lon="8.160815485348985"><ele>205.6</ele><time>2026-04-11T09:15:12Z</time></trkpt><trkpt lat="44.92749206827424" lon="8.160905209118445"><ele>204.79999999999998</ele><time>2026-04-11T09:15:14Z</time></trkpt><trkpt lat="44.92740636622816" lon="8.160979650209308"><ele>204.0</ele><time>2026-04-11T09:15:16Z</time></trkpt><trkpt lat="44.92733035488395" lon="8.161083896186387"><ele>204.0</ele><time>2026-04-11T09:15:18Z</time></trkpt><trkpt lat="44.92727496917853" lon="8.161234860270966"><ele>204.0</ele><time>2026-04-11T09:15:20Z</time></trkpt><trkpt lat="44.92726498612308" lon="8.16139518309938"><ele>204.0</ele><time>2026-04-11T09:15:22Z</time></trkpt><trkpt lat="44.92727102377866" lon="8.161486551114292"><ele>204.0</ele><time>2026-04-11T09:15:23Z</time></trkpt><trkpt lat="44.92727805201588" lon="8.16157620720359"><ele>204.0</ele><time>2026-04-11T09:15:24Z</time></trkpt><trkpt lat="44.92728991723869" lon="8.161668857202978"><ele>204.0</ele><time>2026-04-11T09:15:25Z</time></trkpt><trkpt lat="44.927283827974385" lon="8.161768667499963"><ele>204.0</ele><time>2026-04-11T09:15:26Z</time></trkpt><trkpt lat="44.92729433299091" lon="8.161873053005568"><ele>204.0</ele><time>2026-04-11T09:15:27Z</time></trkpt><trkpt lat="44.92730327011798" lon="8.16198002193589"><ele>204.0</ele><time>2026-04-11T09:15:28Z</time></trkpt><trkpt lat="44.92731132355725" lon="8.162082093404425"><ele>204.0</ele><time>2026-04-11T09:15:29Z</time></trkpt><trkpt lat="44.92731947225469" lon="8.162191457663265"><ele>204.0</ele><time>2026-04-11T09:15:30Z</time></trkpt><trkpt lat="44.92732422135657" lon="8.162294618792622"><ele>204.0</ele><time>2026-04-11T09:15:31Z</time></trkpt><trkpt lat="44.927329515000764" lon="8.16240287713725"><ele>202.0</ele><time>2026-04-11T09:15:32Z</time></trkpt><trkpt lat="44.92733505417305" lon="8.162516156736984"><ele>200.0</ele><time>2026-04-11T09:15:33Z</time></trkpt><trkpt lat="44.92734018297557" lon="8.162621045020972"><ele>198.0</ele><time>2026-04-11T09:15:34Z</time></trkpt><trkpt lat="44.92736356144914" lon="8.162734878324136"><ele>196.0</ele><time>2026-04-11T09:15:35Z</time></trkpt><trkpt lat="44.927363471099376" lon="8.16290735004997"><ele>194.0</ele><time>2026-04-11T09:15:37Z</time></trkpt><trkpt lat="44.927357638190124" lon="8.162998329995707"><ele>192.0</ele><time>2026-04-11T09:15:38Z</time></trkpt><trkpt lat="44.927335402744006" lon="8.163084741606527"><ele>192.0</ele><time>2026-04-11T09:15:39Z</time></trkpt><trkpt lat="44.927291240179045" lon="8.163158937914318"><ele>192.0</ele><time>2026-04-11T09:15:40Z</time></trkpt><trkpt lat="44.92722760301371" lon="8.163216924340663"><ele>192.0</ele><time>2026-04-11T09:15:41Z</time></trkpt><trkpt lat="44.92715309134185" lon="8.163252385886478"><ele>192.0</ele><time>2026-04-11T09:15:42Z</time></trkpt><trkpt lat="44.927069128325805" lon="8.163226425533702"><ele>192.0</ele><time>2026-04-11T09:15:43Z</time></trkpt><trkpt lat="44.92698593724506" lon="8.163237090863857"><ele>192.0</ele><time>2026-04-11T09:15:44Z</time></trkpt><trkpt lat="44.92692111147621" lon="8.163278626414073"><ele>189.6</ele><time>2026-04-11T09:15:45Z</time></trkpt><trkpt lat="44.92679591458167" lon="8.163347441231117"><ele>187.2</ele><time>2026-04-11T09:15:47Z</time></trkpt><trkpt lat="44.92673132118591" lon="8.16341322538469"><ele>184.8</ele><time>2026-04-11T09:15:48Z</time></trkpt><trkpt lat="44.92666928390793" lon="8.163487647890943"><ele>182.4</ele><time>2026-04-11T09:15:49Z</time></trkpt><trkpt lat="44.92661150529916" lon="8.163568737481862"><ele>180.0</ele><time>2026-04-11T09:15:50Z</time></trkpt><trkpt lat="44.92655279830942" lon="8.163656207727616"><ele>180.0</ele><time>2026-04-11T09:15:51Z</time></trkpt><trkpt lat="44.92649333996138" lon="8.163741511510556"><ele>180.0</ele><time>2026-04-11T09:15:52Z</time></trkpt><trkpt lat="44.92641047799206" lon="8.163796993157186"><ele>180.0</ele><time>2026-04-11T09:15:52.999Z</time></trkpt><trkpt lat="44.926343911544606" lon="8.163875912779256"><ele>180.0</ele><time>2026-04-11T09:15:53.999Z</time></trkpt><trkpt lat="44.92626498926506" lon="8.163934026881693"><ele>180.0</ele><time>2026-04-11T09:15:54.999Z</time></trkpt><trkpt lat="44.92618228692866" lon="8.163998167392375"><ele>180.0</ele><time>2026-04-11T09:15:55.999Z</time></trkpt><trkpt lat="44.926111692781994" lon="8.16405583867322"><ele>178.83333333333334</ele><time>2026-04-11T09:15:56.999Z</time></trkpt><trkpt lat="44.92604070020366" lon="8.164119177300417"><ele>177.66666666666666</ele><time>2026-04-11T09:15:57.999Z</time></trkpt><trkpt lat="44.925965447459824" lon="8.164184121370253"><ele>176.5</ele><time>2026-04-11T09:15:58.999Z</time></trkpt><trkpt lat="44.92589478216565" lon="8.164246280908335"><ele>175.33333333333331</ele><time>2026-04-11T09:15:59.999Z</time></trkpt><trkpt lat="44.92582035359857" lon="8.164300611002675"><ele>174.16666666666666</ele><time>2026-04-11T09:16:00.999Z</time></trkpt><trkpt lat="44.92575217249896" lon="8.164359106430739"><ele>173.0</ele><time>2026-04-11T09:16:01.999Z</time></trkpt><trkpt lat="44.925673727911615" lon="8.164413624787766"><ele>173.0</ele><time>2026-04-11T09:16:02.999Z</time></trkpt><trkpt lat="44.925601491955184" lon="8.164464164565794"><ele>173.0</ele><time>2026-04-11T09:16:03.999Z</time></trkpt><trkpt lat="44.92553599021218" lon="8.16451976811676"><ele>173.0</ele><time>2026-04-11T09:16:04.999Z</time></trkpt><trkpt lat="44.92545323097298" lon="8.16458237057697"><ele>173.0</ele><time>2026-04-11T09:16:05.999Z</time></trkpt><trkpt lat="44.92538269332474" lon="8.16464376924557"><ele>173.0</ele><time>2026-04-11T09:16:06.999Z</time></trkpt><trkpt lat="44.925311728880914" lon="8.164698218040549"><ele>173.0</ele><time>2026-04-11T09:16:07.999Z</time></trkpt><trkpt lat="44.92524517066591" lon="8.164760996754897"><ele>173.0</ele><time>2026-04-11T09:16:08.999Z</time></trkpt><trkpt lat="44.92518019032042" lon="8.164825975220438"><ele>173.0</ele><time>2026-04-11T09:16:09.999Z</time></trkpt><trkpt lat="44.92511836549169" lon="8.164887796113264"><ele>173.0</ele><time>2026-04-11T09:16:10.999Z</time></trkpt><trkpt lat="44.925075346552916" lon="8.164960059183333"><ele>173.0</ele><time>2026-04-11T09:16:11.999Z</time></trkpt><trkpt lat="44.925047292317046" lon="8.16506102319538"><ele>173.0</ele><time>2026-04-11T09:16:12.999Z</time></trkpt><trkpt lat="44.92502026732224" lon="8.165162498800493"><ele>173.0</ele><time>2026-04-11T09:16:13.999Z</time></trkpt><trkpt lat="44.925041729689745" lon="8.165265493463055"><ele>171.66666666666666</ele><time>2026-04-11T09:16:14.999Z</time></trkpt><trkpt lat="44.9251029362183" lon="8.16534586659216"><ele>170.33333333333331</ele><time>2026-04-11T09:16:15.999Z</time></trkpt><trkpt lat="44.92518561339096" lon="8.165378780891013"><ele>169.0</ele><time>2026-04-11T09:16:16.999Z</time></trkpt><trkpt lat="44.92531993369363" lon="8.165333468453568"><ele>167.66666666666666</ele><time>2026-04-11T09:16:18.999Z</time></trkpt><trkpt lat="44.92537717870018" lon="8.165274647985273"><ele>166.33333333333334</ele><time>2026-04-11T09:16:19.999Z</time></trkpt><trkpt lat="44.92542942772323" lon="8.16521180229703"><ele>165.0</ele><time>2026-04-11T09:16:20.999Z</time></trkpt><trkpt lat="44.925485659720856" lon="8.165159015950437"><ele>165.00000000000003</ele><time>2026-04-11T09:16:21.999Z</time></trkpt><trkpt lat="44.925540741101614" lon="8.165095956377566"><ele>165.0</ele><time>2026-04-11T09:16:22.999Z</time></trkpt><trkpt lat="44.92560142669102" lon="8.1650486359769"><ele>165.0</ele><time>2026-04-11T09:16:23.999Z</time></trkpt><trkpt lat="44.925670559100524" lon="8.16500696776681"><ele>165.0</ele><time>2026-04-11T09:16:24.999Z</time></trkpt><trkpt lat="44.9257450528111" lon="8.164982272565446"><ele>165.0</ele><time>2026-04-11T09:16:25.999Z</time></trkpt><trkpt lat="44.92582287036337" lon="8.164971084336033"><ele>165.00000000000003</ele><time>2026-04-11T09:16:26.999Z</time></trkpt><trkpt lat="44.92590081036774" lon="8.164971033210412"><ele>165.0</ele><time>2026-04-11T09:16:27.999Z</time></trkpt><trkpt lat="44.92597349746269" lon="8.164988480566436"><ele>164.85714285714286</ele><time>2026-04-11T09:16:28.999Z</time></trkpt><trkpt lat="44.9260462493297" lon="8.16500647747621"><ele>164.71428571428572</ele><time>2026-04-11T09:16:29.999Z</time></trkpt><trkpt lat="44.92611140618822" lon="8.165030575085952"><ele>164.57142857142856</ele><time>2026-04-11T09:16:30.999Z</time></trkpt><trkpt lat="44.926183942715895" lon="8.165064758657039"><ele>164.42857142857144</ele><time>2026-04-11T09:16:31.999Z</time></trkpt><trkpt lat="44.926261103767246" lon="8.165111812215613"><ele>164.28571428571428</ele><time>2026-04-11T09:16:32.999Z</time></trkpt><trkpt lat="44.9263269122973" lon="8.165160734568078"><ele>164.14285714285714</ele><time>2026-04-11T09:16:33.999Z</time></trkpt><trkpt lat="44.92638084942718" lon="8.165209113243588"><ele>164.0</ele><time>2026-04-11T09:16:34.999Z</time></trkpt><trkpt lat="44.92642949435065" lon="8.16526884006018"><ele>163.99999999999997</ele><time>2026-04-11T09:16:35.999Z</time></trkpt><trkpt lat="44.92648011868466" lon="8.165355477799425"><ele>164.0</ele><time>2026-04-11T09:16:36.999Z</time></trkpt><trkpt lat="44.92652486549016" lon="8.165452709151134"><ele>164.0</ele><time>2026-04-11T09:16:37.999Z</time></trkpt><trkpt lat="44.926547452911116" lon="8.165553718740455"><ele>164.0</ele><time>2026-04-11T09:16:38.999Z</time></trkpt><trkpt lat="44.926563470527476" lon="8.165655945231604"><ele>164.0</ele><time>2026-04-11T09:16:39.999Z</time></trkpt><trkpt lat="44.926557953297504" lon="8.165754649159002"><ele>163.99999999999997</ele><time>2026-04-11T09:16:40.999Z</time></trkpt><trkpt lat="44.92654238823488" lon="8.165846207216212"><ele>164.0</ele><time>2026-04-11T09:16:41.999Z</time></trkpt><trkpt lat="44.92652872018075" lon="8.165944145199"><ele>162.42857142857142</ele><time>2026-04-11T09:16:42.999Z</time></trkpt><trkpt lat="44.92652076733858" lon="8.166042748229644"><ele>160.85714285714286</ele><time>2026-04-11T09:16:43.999Z</time></trkpt><trkpt lat="44.92649568847667" lon="8.166135111404692"><ele>159.28571428571428</ele><time>2026-04-11T09:16:44.999Z</time></trkpt><trkpt lat="44.926476449222164" lon="8.166229430578516"><ele>157.71428571428572</ele><time>2026-04-11T09:16:45.999Z</time></trkpt><trkpt lat="44.92645017789893" lon="8.166329317058235"><ele>156.14285714285714</ele><time>2026-04-11T09:16:46.999Z</time></trkpt><trkpt lat="44.92642556794141" lon="8.166425395782785"><ele>154.57142857142856</ele><time>2026-04-11T09:16:47.999Z</time></trkpt><trkpt lat="44.926400019273885" lon="8.166519762723803"><ele>153.0</ele><time>2026-04-11T09:16:48.999Z</time></trkpt><trkpt lat="44.92635779052371" lon="8.166606497896751"><ele>151.83333333333334</ele><time>2026-04-11T09:16:49.999Z</time></trkpt><trkpt lat="44.926327117459564" lon="8.16670179303911"><ele>150.66666666666666</ele><time>2026-04-11T09:16:50.999Z</time></trkpt><trkpt lat="44.92630787310662" lon="8.166807818278105"><ele>149.5</ele><time>2026-04-11T09:16:51.999Z</time></trkpt><trkpt lat="44.92626964400531" lon="8.166906795114473"><ele>148.33333333333331</ele><time>2026-04-11T09:16:52.999Z</time></trkpt><trkpt lat="44.926234417336815" lon="8.167010215357775"><ele>147.16666666666666</ele><time>2026-04-11T09:16:53.999Z</time></trkpt><trkpt lat="44.9262056180597" lon="8.167112363908045"><ele>146.0</ele><time>2026-04-11T09:16:54.999Z</time></trkpt><trkpt lat="44.92618545803401" lon="8.167217129838676"><ele>146.0</ele><time>2026-04-11T09:16:55.999Z</time></trkpt><trkpt lat="44.92617837427048" lon="8.167323682454182"><ele>146.0</ele><time>2026-04-11T09:16:56.999Z</time></trkpt><trkpt lat="44.92618190697203" lon="8.167435892401953"><ele>146.0</ele><time>2026-04-11T09:16:57.999Z</time></trkpt><trkpt lat="44.92619532263564" lon="8.167550786521375"><ele>146.0</ele><time>2026-04-11T09:16:58.999Z</time></trkpt><trkpt lat="44.926201512998674" lon="8.167671170613083"><ele>146.0</ele><time>2026-04-11T09:16:59.999Z</time></trkpt><trkpt lat="44.92622773307926" lon="8.167785331711952"><ele>146.0</ele><time>2026-04-11T09:17:01Z</time></trkpt><trkpt lat="44.92625412296945" lon="8.167894875762146"><ele>145.33333333333331</ele><time>2026-04-11T09:17:02Z</time></trkpt><trkpt lat="44.926279220160254" lon="8.167991801453942"><ele>144.66666666666666</ele><time>2026-04-11T09:17:03Z</time></trkpt><trkpt lat="44.92630645635573" lon="8.168095307373365"><ele>144.0</ele><time>2026-04-11T09:17:04Z</time></trkpt><trkpt lat="44.92632881284802" lon="8.16818295027655"><ele>143.33333333333334</ele><time>2026-04-11T09:17:05Z</time></trkpt><trkpt lat="44.92635986392563" lon="8.16833070583324"><ele>142.66666666666669</ele><time>2026-04-11T09:17:07Z</time></trkpt><trkpt lat="44.92637296451911" lon="8.168425304508853"><ele>142.0</ele><time>2026-04-11T09:17:09Z</time></trkpt><trkpt lat="44.92630408491178" lon="8.168496032257323"><ele>141.85714285714286</ele><time>2026-04-11T09:17:12Z</time></trkpt><trkpt lat="44.92638488561951" lon="8.168494930200632"><ele>141.7142857142857</ele><time>2026-04-11T09:17:47Z</time></trkpt><trkpt lat="44.92645101611516" lon="8.16844083535324"><ele>141.57142857142856</ele><time>2026-04-11T09:17:49Z</time></trkpt><trkpt lat="44.92651334994161" lon="8.168393821312081"><ele>141.42857142857142</ele><time>2026-04-11T09:17:51Z</time></trkpt><trkpt lat="44.92657066856991" lon="8.168341987483576"><ele>141.28571428571428</ele><time>2026-04-11T09:17:53Z</time></trkpt><trkpt lat="44.926633559688085" lon="8.168292530210167"><ele>141.14285714285714</ele><time>2026-04-11T09:17:55Z</time></trkpt><trkpt lat="44.926701670518995" lon="8.168238682782517"><ele>141.0</ele><time>2026-04-11T09:17:56.999Z</time></trkpt><trkpt lat="44.926771123216696" lon="8.168181495800296"><ele>141.0</ele><time>2026-04-11T09:17:58.999Z</time></trkpt><trkpt lat="44.92684669901242" lon="8.168121772032995"><ele>141.0</ele><time>2026-04-11T09:18:00.999Z</time></trkpt><trkpt lat="44.92692070127838" lon="8.168055721101751"><ele>141.0</ele><time>2026-04-11T09:18:02.999Z</time></trkpt><trkpt lat="44.92700442386624" lon="8.167988386992374"><ele>141.0</ele><time>2026-04-11T09:18:04.999Z</time></trkpt><trkpt lat="44.92707472822018" lon="8.167922286015452"><ele>141.0</ele><time>2026-04-11T09:18:06.999Z</time></trkpt><trkpt lat="44.92715649466413" lon="8.167846978429012"><ele>141.0</ele><time>2026-04-11T09:18:08.999Z</time></trkpt><trkpt lat="44.927238286539044" lon="8.16778162215738"><ele>141.0</ele><time>2026-04-11T09:18:10.999Z</time></trkpt><trkpt lat="44.92732017659739" lon="8.167708322604119"><ele>141.0</ele><time>2026-04-11T09:18:12.999Z</time></trkpt><trkpt lat="44.927398793280595" lon="8.167636345076634"><ele>141.0</ele><time>2026-04-11T09:18:14.999Z</time></trkpt><trkpt lat="44.92748406452137" lon="8.167562023248097"><ele>141.0</ele><time>2026-04-11T09:18:16.999Z</time></trkpt><trkpt lat="44.92756749896468" lon="8.167485702023548"><ele>140.6</ele><time>2026-04-11T09:18:18.999Z</time></trkpt><trkpt lat="44.92765107492803" lon="8.167416100138315"><ele>140.2</ele><time>2026-04-11T09:18:20.999Z</time></trkpt><trkpt lat="44.92773053228814" lon="8.167388459277703"><ele>139.8</ele><time>2026-04-11T09:18:22.999Z</time></trkpt><trkpt lat="44.92775514689309" lon="8.167535629446107"><ele>139.4</ele><time>2026-04-11T09:18:24.999Z</time></trkpt><trkpt lat="44.92782105944104" lon="8.167663467061967"><ele>139.0</ele><time>2026-04-11T09:18:26.999Z</time></trkpt><trkpt lat="44.92788642877274" lon="8.167780978065116"><ele>139.0</ele><time>2026-04-11T09:18:28.999Z</time></trkpt><trkpt lat="44.92794285599374" lon="8.167882659427082"><ele>139.0</ele><time>2026-04-11T09:18:30.999Z</time></trkpt><trkpt lat="44.92801908072445" lon="8.168012334183631"><ele>139.0</ele><time>2026-04-11T09:18:32.999Z</time></trkpt><trkpt lat="44.928098447880075" lon="8.168149289593847"><ele>139.0</ele><time>2026-04-11T09:18:34.999Z</time></trkpt><trkpt lat="44.92813915208156" lon="8.168219528461394"><ele>139.0</ele><time>2026-04-11T09:18:35.999Z</time></trkpt><trkpt lat="44.92821523282264" lon="8.168350809209514"><ele>138.6</ele><time>2026-04-11T09:18:37.999Z</time></trkpt><trkpt lat="44.92828182703665" lon="8.16846455301179"><ele>138.2</ele><time>2026-04-11T09:18:39.999Z</time></trkpt><trkpt lat="44.928360388449796" lon="8.168568687655833"><ele>137.79999999999998</ele><time>2026-04-11T09:18:41.999Z</time></trkpt><trkpt lat="44.928428483500085" lon="8.168689139062954"><ele>137.4</ele><time>2026-04-11T09:18:43.999Z</time></trkpt><trkpt lat="44.92848737146651" lon="8.16882968186987"><ele>137.0</ele><time>2026-04-11T09:18:45.999Z</time></trkpt><trkpt lat="44.92856085781466" lon="8.168957065426287"><ele>137.0</ele><time>2026-04-11T09:18:47.999Z</time></trkpt><trkpt lat="44.92863377526133" lon="8.169083462816095"><ele>137.0</ele><time>2026-04-11T09:18:49.999Z</time></trkpt><trkpt lat="44.928703220933976" lon="8.169203842126688"><ele>137.0</ele><time>2026-04-11T09:18:51.999Z</time></trkpt><trkpt lat="44.92876713834145" lon="8.16931559096765"><ele>137.0</ele><time>2026-04-11T09:18:53.999Z</time></trkpt><trkpt lat="44.92882156943221" lon="8.169416468213043"><ele>137.0</ele><time>2026-04-11T09:18:55.999Z</time></trkpt><trkpt lat="44.928877633055116" lon="8.16952983821052"><ele>137.0</ele><time>2026-04-11T09:18:57.999Z</time></trkpt><trkpt lat="44.92893973665701" lon="8.169646788854251"><ele>137.0</ele><time>2026-04-11T09:18:59.999Z</time></trkpt><trkpt lat="44.92899896417499" lon="8.169753142343161"><ele>137.0</ele><time>2026-04-11T09:19:01.999Z</time></trkpt><trkpt lat="44.92906426813586" lon="8.169870620373326"><ele>137.0</ele><time>2026-04-11T09:19:03.999Z</time></trkpt><trkpt lat="44.92912067380824" lon="8.169977622875683"><ele>137.0</ele><time>2026-04-11T09:19:05.999Z</time></trkpt><trkpt lat="44.92914315863627" lon="8.170088394070834"><ele>136.4</ele><time>2026-04-11T09:19:08Z</time></trkpt><trkpt lat="44.929079257229795" lon="8.170227003922927"><ele>135.79999999999998</ele><time>2026-04-11T09:19:10Z</time></trkpt><trkpt lat="44.92903105516135" lon="8.170356912129504"><ele>135.2</ele><time>2026-04-11T09:19:12Z</time></trkpt><trkpt lat="44.92896962865227" lon="8.170475660161474"><ele>134.6</ele><time>2026-04-11T09:19:14Z</time></trkpt><trkpt lat="44.928917494547676" lon="8.170612492316796"><ele>134.0</ele><time>2026-04-11T09:19:16Z</time></trkpt><trkpt lat="44.92887076723288" lon="8.170735375840659"><ele>134.0</ele><time>2026-04-11T09:19:18Z</time></trkpt><trkpt lat="44.92882833204269" lon="8.170875069591027"><ele>134.0</ele><time>2026-04-11T09:19:20Z</time></trkpt><trkpt lat="44.928780026352385" lon="8.171003472439057"><ele>134.0</ele><time>2026-04-11T09:19:22Z</time></trkpt><trkpt lat="44.92872759865107" lon="8.171140701335098"><ele>134.0</ele><time>2026-04-11T09:19:24Z</time></trkpt><trkpt lat="44.92867225651465" lon="8.171273372663725"><ele>134.0</ele><time>2026-04-11T09:19:26Z</time></trkpt><trkpt lat="44.92862251513566" lon="8.171412608791314"><ele>134.0</ele><time>2026-04-11T09:19:28Z</time></trkpt><trkpt lat="44.928573631819745" lon="8.171540909165023"><ele>134.0</ele><time>2026-04-11T09:19:30Z</time></trkpt><trkpt lat="44.928528044286416" lon="8.17167080666379"><ele>134.0</ele><time>2026-04-11T09:19:32Z</time></trkpt><trkpt lat="44.92848361997418" lon="8.171794846172778"><ele>134.0</ele><time>2026-04-11T09:19:34Z</time></trkpt><trkpt lat="44.92843652641582" lon="8.171916858036246"><ele>134.0</ele><time>2026-04-11T09:19:36Z</time></trkpt><trkpt lat="44.92838819863141" lon="8.172050161846668"><ele>134.0</ele><time>2026-04-11T09:19:38Z</time></trkpt><trkpt lat="44.92834147508539" lon="8.172179832538529"><ele>134.0</ele><time>2026-04-11T09:19:40Z</time></trkpt><trkpt lat="44.92828951723423" lon="8.172305465604657"><ele>134.0</ele><time>2026-04-11T09:19:42Z</time></trkpt><trkpt lat="44.928242798582225" lon="8.172430409230541"><ele>134.0</ele><time>2026-04-11T09:19:44Z</time></trkpt><trkpt lat="44.92819446098647" lon="8.17255426309869"><ele>134.0</ele><time>2026-04-11T09:19:46Z</time></trkpt><trkpt lat="44.928145768836934" lon="8.172668733013095"><ele>134.6</ele><time>2026-04-11T09:19:48Z</time></trkpt><trkpt lat="44.92809224173033" lon="8.172790422749532"><ele>135.2</ele><time>2026-04-11T09:19:50Z</time></trkpt><trkpt lat="44.9280258534075" lon="8.172894024042856"><ele>135.79999999999998</ele><time>2026-04-11T09:19:52Z</time></trkpt><trkpt lat="44.92796796827893" lon="8.172996742361036"><ele>136.4</ele><time>2026-04-11T09:19:54Z</time></trkpt><trkpt lat="44.927908425668335" lon="8.173101249813095"><ele>137.0</ele><time>2026-04-11T09:19:56Z</time></trkpt><trkpt lat="44.927813607476324" lon="8.17317326692984"><ele>137.0</ele><time>2026-04-11T09:19:58Z</time></trkpt><trkpt lat="44.92769957934687" lon="8.173184655360354"><ele>137.0</ele><time>2026-04-11T09:20:00Z</time></trkpt><trkpt lat="44.92759183913778" lon="8.173145641247261"><ele>137.0</ele><time>2026-04-11T09:20:02Z</time></trkpt><trkpt lat="44.92749720906832" lon="8.173085150563647"><ele>137.0</ele><time>2026-04-11T09:20:03.999Z</time></trkpt><trkpt lat="44.92741240039644" lon="8.172989579622524"><ele>137.0</ele><time>2026-04-11T09:20:05.999Z</time></trkpt><trkpt lat="44.92732669603625" lon="8.172893699053734"><ele>136.5</ele><time>2026-04-11T09:20:07.999Z</time></trkpt><trkpt lat="44.92721657087754" lon="8.172853304214058"><ele>136.0</ele><time>2026-04-11T09:20:09.999Z</time></trkpt><trkpt lat="44.92709790067232" lon="8.172901833607355"><ele>135.5</ele><time>2026-04-11T09:20:11.999Z</time></trkpt><trkpt lat="44.92699943852107" lon="8.17302718015431"><ele>135.0</ele><time>2026-04-11T09:20:13.999Z</time></trkpt><trkpt lat="44.92691275953355" lon="8.173155005878375"><ele>135.0</ele><time>2026-04-11T09:20:15.999Z</time></trkpt><trkpt lat="44.926829642395816" lon="8.17328462188668"><ele>135.0</ele><time>2026-04-11T09:20:17.999Z</time></trkpt><trkpt lat="44.92674862107561" lon="8.173416463198738"><ele>135.0</ele><time>2026-04-11T09:20:19.999Z</time></trkpt><trkpt lat="44.92666492360632" lon="8.173546924816353"><ele>135.0</ele><time>2026-04-11T09:20:21.999Z</time></trkpt><trkpt lat="44.92658852198118" lon="8.173670087709883"><ele>135.0</ele><time>2026-04-11T09:20:23.999Z</time></trkpt><trkpt lat="44.92650543223491" lon="8.173779892514903"><ele>135.0</ele><time>2026-04-11T09:20:25.999Z</time></trkpt><trkpt lat="44.9264334651233" lon="8.173889989153173"><ele>135.0</ele><time>2026-04-11T09:20:27.999Z</time></trkpt><trkpt lat="44.92635997658468" lon="8.173993340252798"><ele>135.0</ele><time>2026-04-11T09:20:29.999Z</time></trkpt><trkpt lat="44.92627152432634" lon="8.174092995184633"><ele>135.0</ele><time>2026-04-11T09:20:31.999Z</time></trkpt><trkpt lat="44.92618382048712" lon="8.174196698904334"><ele>135.25</ele><time>2026-04-11T09:20:33.999Z</time></trkpt><trkpt lat="44.926083920687475" lon="8.174266290418577"><ele>135.5</ele><time>2026-04-11T09:20:35.999Z</time></trkpt><trkpt lat="44.92597245588954" lon="8.174339472655694"><ele>135.75</ele><time>2026-04-11T09:20:37.999Z</time></trkpt><trkpt lat="44.92586699701284" lon="8.174427346637014"><ele>136.0</ele><time>2026-04-11T09:20:39.999Z</time></trkpt><trkpt lat="44.925766285287395" lon="8.174512365071596"><ele>135.5</ele><time>2026-04-11T09:20:41.999Z</time></trkpt><trkpt lat="44.92567652425052" lon="8.174624660757706"><ele>135.0</ele><time>2026-04-11T09:20:43.999Z</time></trkpt><trkpt lat="44.92560784310158" lon="8.174741751467993"><ele>134.5</ele><time>2026-04-11T09:20:45.999Z</time></trkpt><trkpt lat="44.92553668358035" lon="8.174870265627808"><ele>134.0</ele><time>2026-04-11T09:20:47.999Z</time></trkpt><trkpt lat="44.92547973773479" lon="8.175007362997762"><ele>134.0</ele><time>2026-04-11T09:20:49.999Z</time></trkpt><trkpt lat="44.92541718284297" lon="8.175143985940025"><ele>134.0</ele><time>2026-04-11T09:20:51.999Z</time></trkpt><trkpt lat="44.92541552538541" lon="8.175234966527078"><ele>134.0</ele><time>2026-04-11T09:20:52.999Z</time></trkpt><trkpt lat="44.925381996161576" lon="8.175382144466381"><ele>134.0</ele><time>2026-04-11T09:20:54.999Z</time></trkpt><trkpt lat="44.925339350367416" lon="8.175517752266853"><ele>134.0</ele><time>2026-04-11T09:20:56.999Z</time></trkpt><trkpt lat="44.92534306873693" lon="8.175665722156698"><ele>134.2</ele><time>2026-04-11T09:20:58.999Z</time></trkpt><trkpt lat="44.925319516666384" lon="8.175803896339342"><ele>134.4</ele><time>2026-04-11T09:21:00.999Z</time></trkpt><trkpt lat="44.92528602057025" lon="8.175957196231993"><ele>134.6</ele><time>2026-04-11T09:21:02.999Z</time></trkpt><trkpt lat="44.925251073694426" lon="8.176113561245367"><ele>134.8</ele><time>2026-04-11T09:21:04.999Z</time></trkpt><trkpt lat="44.92521332783878" lon="8.17626483214615"><ele>135.0</ele><time>2026-04-11T09:21:06.999Z</time></trkpt><trkpt lat="44.92515684148522" lon="8.17639658429769"><ele>135.0</ele><time>2026-04-11T09:21:08.999Z</time></trkpt><trkpt lat="44.925092026913575" lon="8.17650891596112"><ele>135.0</ele><time>2026-04-11T09:21:10.999Z</time></trkpt><trkpt lat="44.92502879893679" lon="8.176629483209037"><ele>135.0</ele><time>2026-04-11T09:21:13Z</time></trkpt><trkpt lat="44.92496215212305" lon="8.17675688478841"><ele>135.0</ele><time>2026-04-11T09:21:15Z</time></trkpt><trkpt lat="44.92489187964913" lon="8.176877910698956"><ele>135.0</ele><time>2026-04-11T09:21:17Z</time></trkpt><trkpt lat="44.92480980005496" lon="8.176985992426884"><ele>134.8</ele><time>2026-04-11T09:21:19Z</time></trkpt><trkpt lat="44.92472248963277" lon="8.177098259726009"><ele>134.6</ele><time>2026-04-11T09:21:21Z</time></trkpt><trkpt lat="44.92464051256417" lon="8.177208801190345"><ele>134.4</ele><time>2026-04-11T09:21:23Z</time></trkpt><trkpt lat="44.92454134246529" lon="8.177316851132227"><ele>134.2</ele><time>2026-04-11T09:21:25Z</time></trkpt><trkpt lat="44.92449130356809" lon="8.177371760704359"><ele>134.0</ele><time>2026-04-11T09:21:26Z</time></trkpt><trkpt lat="44.92440021938623" lon="8.17747831236947"><ele>134.0</ele><time>2026-04-11T09:21:28Z</time></trkpt><trkpt lat="44.92430588425922" lon="8.177583335376424"><ele>134.0</ele><time>2026-04-11T09:21:30Z</time></trkpt><trkpt lat="44.92421398924736" lon="8.177695886673952"><ele>134.0</ele><time>2026-04-11T09:21:32Z</time></trkpt><trkpt lat="44.9241651572389" lon="8.177754024979215"><ele>134.0</ele><time>2026-04-11T09:21:33Z</time></trkpt><trkpt lat="44.924069930552285" lon="8.17785690888617"><ele>134.0</ele><time>2026-04-11T09:21:35Z</time></trkpt><trkpt lat="44.92397822599931" lon="8.17796582058215"><ele>134.0</ele><time>2026-04-11T09:21:37Z</time></trkpt><trkpt lat="44.92388990537068" lon="8.17807609015468"><ele>134.0</ele><time>2026-04-11T09:21:39Z</time></trkpt><trkpt lat="44.92379095602" lon="8.178176909314056"><ele>134.0</ele><time>2026-04-11T09:21:41Z</time></trkpt><trkpt lat="44.92373814307728" lon="8.178225826953454"><ele>134.0</ele><time>2026-04-11T09:21:42Z</time></trkpt><trkpt lat="44.92362908566502" lon="8.17831159770516"><ele>134.0</ele><time>2026-04-11T09:21:44Z</time></trkpt><trkpt lat="44.923515219439125" lon="8.178370994563046"><ele>134.0</ele><time>2026-04-11T09:21:46Z</time></trkpt><trkpt lat="44.923398995272564" lon="8.178431756316897"><ele>134.0</ele><time>2026-04-11T09:21:48Z</time></trkpt><trkpt lat="44.92328647004873" lon="8.178488999250039"><ele>134.0</ele><time>2026-04-11T09:21:50Z</time></trkpt><trkpt lat="44.92318065460913" lon="8.178545568959377"><ele>134.0</ele><time>2026-04-11T09:21:52Z</time></trkpt><trkpt lat="44.92306881443757" lon="8.178603179076143"><ele>134.0</ele><time>2026-04-11T09:21:54Z</time></trkpt><trkpt lat="44.922961698485814" lon="8.178659650694673"><ele>134.0</ele><time>2026-04-11T09:21:56Z</time></trkpt><trkpt lat="44.922858000300465" lon="8.178718462091348"><ele>134.0</ele><time>2026-04-11T09:21:58Z</time></trkpt><trkpt lat="44.92275016567347" lon="8.178764183332367"><ele>134.0</ele><time>2026-04-11T09:22:00Z</time></trkpt><trkpt lat="44.92263948500985" lon="8.178801149878563"><ele>133.0</ele><time>2026-04-11T09:22:02Z</time></trkpt><trkpt lat="44.92252473727961" lon="8.17883463726907"><ele>132.0</ele><time>2026-04-11T09:22:04Z</time></trkpt><trkpt lat="44.92240846738816" lon="8.178875641408746"><ele>131.0</ele><time>2026-04-11T09:22:06Z</time></trkpt><trkpt lat="44.92230364612413" lon="8.17890860585712"><ele>130.0</ele><time>2026-04-11T09:22:08Z</time></trkpt><trkpt lat="44.92218813370041" lon="8.178956876589117"><ele>130.0</ele><time>2026-04-11T09:22:09.999Z</time></trkpt><trkpt lat="44.92208035575377" lon="8.179016809437393"><ele>130.0</ele><time>2026-04-11T09:22:11.999Z</time></trkpt><trkpt lat="44.92196858042595" lon="8.17908223846462"><ele>130.0</ele><time>2026-04-11T09:22:13.999Z</time></trkpt><trkpt lat="44.92185383701348" lon="8.17914964750017"><ele>130.0</ele><time>2026-04-11T09:22:15.999Z</time></trkpt><trkpt lat="44.92173451197134" lon="8.179201256602443"><ele>130.25</ele><time>2026-04-11T09:22:17.999Z</time></trkpt><trkpt lat="44.92162006444598" lon="8.179245196637934"><ele>130.5</ele><time>2026-04-11T09:22:19.999Z</time></trkpt><trkpt lat="44.92149445900312" lon="8.179290831417205"><ele>130.75</ele><time>2026-04-11T09:22:21.999Z</time></trkpt><trkpt lat="44.921376422211864" lon="8.179336121915096"><ele>131.0</ele><time>2026-04-11T09:22:23.999Z</time></trkpt><trkpt lat="44.92126161857663" lon="8.179401427947628"><ele>131.0</ele><time>2026-04-11T09:22:25.999Z</time></trkpt><trkpt lat="44.92114840281476" lon="8.17943531572775"><ele>131.0</ele><time>2026-04-11T09:22:27.999Z</time></trkpt><trkpt lat="44.92105307407367" lon="8.17947765791784"><ele>131.0</ele><time>2026-04-11T09:22:29.999Z</time></trkpt><trkpt lat="44.92095444186461" lon="8.179544888072153"><ele>131.0</ele><time>2026-04-11T09:22:31.999Z</time></trkpt><trkpt lat="44.92085050049371" lon="8.179588891047112"><ele>131.0</ele><time>2026-04-11T09:22:33.999Z</time></trkpt><trkpt lat="44.92074210248281" lon="8.179637948615602"><ele>130.5</ele><time>2026-04-11T09:22:35.999Z</time></trkpt><trkpt lat="44.92062358046324" lon="8.179682172820115"><ele>130.0</ele><time>2026-04-11T09:22:37.999Z</time></trkpt><trkpt lat="44.920505504281806" lon="8.179728113305233"><ele>129.5</ele><time>2026-04-11T09:22:39.999Z</time></trkpt><trkpt lat="44.92039709006936" lon="8.17977641491314"><ele>129.0</ele><time>2026-04-11T09:22:41.999Z</time></trkpt><trkpt lat="44.92027703661777" lon="8.179827846929923"><ele>129.5</ele><time>2026-04-11T09:22:43.999Z</time></trkpt><trkpt lat="44.920157465173354" lon="8.179882326362822"><ele>130.0</ele><time>2026-04-11T09:22:45.999Z</time></trkpt><trkpt lat="44.9200388412309" lon="8.179930242471857"><ele>130.5</ele><time>2026-04-11T09:22:47.999Z</time></trkpt><trkpt lat="44.919935393226005" lon="8.179979982256455"><ele>131.0</ele><time>2026-04-11T09:22:49.999Z</time></trkpt><trkpt lat="44.91982091283274" lon="8.18001839300506"><ele>131.25</ele><time>2026-04-11T09:22:51.999Z</time></trkpt><trkpt lat="44.91971223127021" lon="8.180080353285875"><ele>131.5</ele><time>2026-04-11T09:22:53.999Z</time></trkpt><trkpt lat="44.919601846092306" lon="8.180134414461135"><ele>131.75</ele><time>2026-04-11T09:22:55.999Z</time></trkpt><trkpt lat="44.91949243506583" lon="8.180196801229773"><ele>132.0</ele><time>2026-04-11T09:22:57.999Z</time></trkpt><trkpt lat="44.91938282403681" lon="8.180253129306411"><ele>132.0</ele><time>2026-04-11T09:22:59.999Z</time></trkpt><trkpt lat="44.91928426551947" lon="8.180306821070936"><ele>132.0</ele><time>2026-04-11T09:23:01.999Z</time></trkpt><trkpt lat="44.91917602934947" lon="8.1803663678781"><ele>132.0</ele><time>2026-04-11T09:23:03.999Z</time></trkpt><trkpt lat="44.91905854437719" lon="8.18043271442926"><ele>132.0</ele><time>2026-04-11T09:23:05.999Z</time></trkpt><trkpt lat="44.91894967943095" lon="8.180492353342405"><ele>132.0</ele><time>2026-04-11T09:23:07.999Z</time></trkpt><trkpt lat="44.918839412418606" lon="8.180551593107795"><ele>132.0</ele><time>2026-04-11T09:23:09.999Z</time></trkpt><trkpt lat="44.918727000513535" lon="8.180607161424732"><ele>132.0</ele><time>2026-04-11T09:23:11.999Z</time></trkpt><trkpt lat="44.91862629745869" lon="8.180664880683558"><ele>132.0</ele><time>2026-04-11T09:23:13.999Z</time></trkpt><trkpt lat="44.91851548410982" lon="8.180723553584407"><ele>132.0</ele><time>2026-04-11T09:23:15.999Z</time></trkpt><trkpt lat="44.91840784974854" lon="8.180783509321374"><ele>132.0</ele><time>2026-04-11T09:23:17.999Z</time></trkpt><trkpt lat="44.91830494113561" lon="8.18083418156792"><ele>132.0</ele><time>2026-04-11T09:23:20Z</time></trkpt><trkpt lat="44.91819480671719" lon="8.180889718019746"><ele>132.0</ele><time>2026-04-11T09:23:22Z</time></trkpt><trkpt lat="44.91808844303213" lon="8.18095013931478"><ele>131.75</ele><time>2026-04-11T09:23:24Z</time></trkpt><trkpt lat="44.917989228097774" lon="8.181004313393222"><ele>131.5</ele><time>2026-04-11T09:23:26Z</time></trkpt><trkpt lat="44.91787890440907" lon="8.181069755400578"><ele>131.25</ele><time>2026-04-11T09:23:28Z</time></trkpt><trkpt lat="44.917770718517325" lon="8.181129867402186"><ele>131.0</ele><time>2026-04-11T09:23:30Z</time></trkpt><trkpt lat="44.91765981854582" lon="8.181199414840384"><ele>131.0</ele><time>2026-04-11T09:23:32Z</time></trkpt><trkpt lat="44.91755786398595" lon="8.181258423780386"><ele>131.0</ele><time>2026-04-11T09:23:34Z</time></trkpt><trkpt lat="44.917493124371276" lon="8.181295310453432"><ele>131.0</ele><time>2026-04-11T09:23:35Z</time></trkpt><trkpt lat="44.91740017754983" lon="8.181361668927222"><ele>131.0</ele><time>2026-04-11T09:23:37Z</time></trkpt><trkpt lat="44.91729312495812" lon="8.181429748283604"><ele>131.0</ele><time>2026-04-11T09:23:39Z</time></trkpt><trkpt lat="44.91718339232988" lon="8.181488942159747"><ele>130.75</ele><time>2026-04-11T09:23:41Z</time></trkpt><trkpt lat="44.91706791169708" lon="8.181543929224496"><ele>130.5</ele><time>2026-04-11T09:23:43Z</time></trkpt><trkpt lat="44.916955358463184" lon="8.18160523639494"><ele>130.25</ele><time>2026-04-11T09:23:45Z</time></trkpt><trkpt lat="44.91684136895921" lon="8.181662715515104"><ele>130.0</ele><time>2026-04-11T09:23:47Z</time></trkpt><trkpt lat="44.91672409109368" lon="8.181721865639286"><ele>130.0</ele><time>2026-04-11T09:23:49Z</time></trkpt><trkpt lat="44.916611892049445" lon="8.181783125310442"><ele>130.0</ele><time>2026-04-11T09:23:51Z</time></trkpt><trkpt lat="44.916551283470206" lon="8.181815151873689"><ele>130.0</ele><time>2026-04-11T09:23:52Z</time></trkpt><trkpt lat="44.916439986475005" lon="8.18185892109352"><ele>130.0</ele><time>2026-04-11T09:23:54Z</time></trkpt><trkpt lat="44.91632456420929" lon="8.181914387552029"><ele>130.0</ele><time>2026-04-11T09:23:56Z</time></trkpt><trkpt lat="44.91622039263827" lon="8.181963027015476"><ele>130.0</ele><time>2026-04-11T09:23:58Z</time></trkpt><trkpt lat="44.91610151040421" lon="8.182017180648204"><ele>130.0</ele><time>2026-04-11T09:24:00Z</time></trkpt><trkpt lat="44.91598258454246" lon="8.18206379109036"><ele>130.0</ele><time>2026-04-11T09:24:02Z</time></trkpt><trkpt lat="44.91592093932832" lon="8.182088772195765"><ele>130.0</ele><time>2026-04-11T09:24:03Z</time></trkpt><trkpt lat="44.915859000151976" lon="8.182110920833592"><ele>130.0</ele><time>2026-04-11T09:24:04Z</time></trkpt><trkpt lat="44.915792063727125" lon="8.182140838023908"><ele>130.0</ele><time>2026-04-11T09:24:05Z</time></trkpt><trkpt lat="44.915729834876196" lon="8.182167189117967"><ele>129.83333333333334</ele><time>2026-04-11T09:24:06Z</time></trkpt><trkpt lat="44.915669379590135" lon="8.182194867550674"><ele>129.66666666666669</ele><time>2026-04-11T09:24:07Z</time></trkpt><trkpt lat="44.91560587053983" lon="8.182217233499262"><ele>129.5</ele><time>2026-04-11T09:24:08Z</time></trkpt><trkpt lat="44.91554382260412" lon="8.182236197329743"><ele>129.33333333333334</ele><time>2026-04-11T09:24:08.999Z</time></trkpt><trkpt lat="44.915481439147285" lon="8.182254433289865"><ele>129.16666666666666</ele><time>2026-04-11T09:24:09.999Z</time></trkpt><trkpt lat="44.91535741208905" lon="8.18228989002966"><ele>129.0</ele><time>2026-04-11T09:24:11.999Z</time></trkpt><trkpt lat="44.91523959192873" lon="8.182317218433832"><ele>129.0</ele><time>2026-04-11T09:24:13.999Z</time></trkpt><trkpt lat="44.9151173421935" lon="8.18233955512628"><ele>129.0</ele><time>2026-04-11T09:24:15.999Z</time></trkpt><trkpt lat="44.915037557543364" lon="8.182346553705157"><ele>129.0</ele><time>2026-04-11T09:24:16.999Z</time></trkpt><trkpt lat="44.91492776957457" lon="8.18236832225952"><ele>129.0</ele><time>2026-04-11T09:24:18.999Z</time></trkpt><trkpt lat="44.914864181060565" lon="8.18237575719436"><ele>129.0</ele><time>2026-04-11T09:24:19.999Z</time></trkpt><trkpt lat="44.91473904091934" lon="8.18238181896524"><ele>129.33333333333334</ele><time>2026-04-11T09:24:21.999Z</time></trkpt><trkpt lat="44.914668566913406" lon="8.182387580230776"><ele>129.66666666666666</ele><time>2026-04-11T09:24:22.999Z</time></trkpt><trkpt lat="44.914548854064115" lon="8.182391072487931"><ele>130.0</ele><time>2026-04-11T09:24:24.999Z</time></trkpt><trkpt lat="44.914484301453854" lon="8.182392144096477"><ele>130.33333333333331</ele><time>2026-04-11T09:24:25.999Z</time></trkpt><trkpt lat="44.91442069389924" lon="8.182383006937783"><ele>130.66666666666666</ele><time>2026-04-11T09:24:26.999Z</time></trkpt><trkpt lat="44.914356670617494" lon="8.182372273377673"><ele>131.0</ele><time>2026-04-11T09:24:27.999Z</time></trkpt><trkpt lat="44.914238409012256" lon="8.182353707829233"><ele>130.4</ele><time>2026-04-11T09:24:29.999Z</time></trkpt><trkpt lat="44.91417588477665" lon="8.182343089424231"><ele>129.8</ele><time>2026-04-11T09:24:30.999Z</time></trkpt><trkpt lat="44.91406035919728" lon="8.182321310536919"><ele>129.20000000000002</ele><time>2026-04-11T09:24:32.999Z</time></trkpt><trkpt lat="44.9139961499529" lon="8.18231004747758"><ele>128.6</ele><time>2026-04-11T09:24:33.999Z</time></trkpt><trkpt lat="44.91387522783266" lon="8.182275699114227"><ele>128.0</ele><time>2026-04-11T09:24:35.999Z</time></trkpt><trkpt lat="44.91375702746348" lon="8.182249654191539"><ele>128.0</ele><time>2026-04-11T09:24:37.999Z</time></trkpt><trkpt lat="44.913633156584744" lon="8.18221412942843"><ele>128.0</ele><time>2026-04-11T09:24:39.999Z</time></trkpt><trkpt lat="44.91351066638302" lon="8.182177262198623"><ele>128.0</ele><time>2026-04-11T09:24:41.999Z</time></trkpt><trkpt lat="44.91345038277591" lon="8.182149140520101"><ele>128.0</ele><time>2026-04-11T09:24:42.999Z</time></trkpt><trkpt lat="44.91333094969949" lon="8.182126569773489"><ele>128.0</ele><time>2026-04-11T09:24:44.999Z</time></trkpt><trkpt lat="44.913217977453954" lon="8.182103573572038"><ele>128.25</ele><time>2026-04-11T09:24:46.999Z</time></trkpt><trkpt lat="44.913104765252186" lon="8.182072659655862"><ele>128.5</ele><time>2026-04-11T09:24:48.999Z</time></trkpt><trkpt lat="44.91299486776177" lon="8.18203586677944"><ele>128.75</ele><time>2026-04-11T09:24:50.999Z</time></trkpt><trkpt lat="44.912888384560766" lon="8.182006747948476"><ele>129.0</ele><time>2026-04-11T09:24:52.999Z</time></trkpt><trkpt lat="44.912772430937345" lon="8.181973064501852"><ele>129.0</ele><time>2026-04-11T09:24:54.999Z</time></trkpt><trkpt lat="44.91265316036439" lon="8.181936213001691"><ele>129.0</ele><time>2026-04-11T09:24:56.999Z</time></trkpt><trkpt lat="44.91253780024359" lon="8.18190013920261"><ele>129.0</ele><time>2026-04-11T09:24:58.999Z</time></trkpt><trkpt lat="44.9124261297065" lon="8.18187099107672"><ele>129.0</ele><time>2026-04-11T09:25:00.999Z</time></trkpt><trkpt lat="44.91231584236418" lon="8.181846539799938"><ele>129.0</ele><time>2026-04-11T09:25:02.999Z</time></trkpt><trkpt lat="44.91219844023641" lon="8.18183329056327"><ele>129.0</ele><time>2026-04-11T09:25:04.999Z</time></trkpt><trkpt lat="44.91208418923043" lon="8.181829423886901"><ele>129.0</ele><time>2026-04-11T09:25:06.999Z</time></trkpt><trkpt lat="44.91196295690402" lon="8.181830340150388"><ele>129.0</ele><time>2026-04-11T09:25:08.999Z</time></trkpt><trkpt lat="44.91185034528115" lon="8.181846257441252"><ele>129.6</ele><time>2026-04-11T09:25:10.999Z</time></trkpt><trkpt lat="44.91172744355638" lon="8.181868106370484"><ele>130.2</ele><time>2026-04-11T09:25:12.999Z</time></trkpt><trkpt lat="44.91166038677655" lon="8.181875237278845"><ele>130.79999999999998</ele><time>2026-04-11T09:25:13.999Z</time></trkpt><trkpt lat="44.91153869286755" lon="8.181934085970822"><ele>131.4</ele><time>2026-04-11T09:25:15.999Z</time></trkpt><trkpt lat="44.91143486589124" lon="8.181974255088491"><ele>132.0</ele><time>2026-04-11T09:25:17.999Z</time></trkpt><trkpt lat="44.91137236641159" lon="8.18199443663401"><ele>132.0</ele><time>2026-04-11T09:25:18.999Z</time></trkpt><trkpt lat="44.91126607390878" lon="8.18204905418724"><ele>132.0</ele><time>2026-04-11T09:25:20.999Z</time></trkpt><trkpt lat="44.911168067431824" lon="8.182122595740303"><ele>132.0</ele><time>2026-04-11T09:25:22.999Z</time></trkpt><trkpt lat="44.91106829939435" lon="8.182189005042199"><ele>132.0</ele><time>2026-04-11T09:25:25Z</time></trkpt><trkpt lat="44.910977184387306" lon="8.18226766600509"><ele>132.0</ele><time>2026-04-11T09:25:27Z</time></trkpt><trkpt lat="44.910879948387574" lon="8.182337738710231"><ele>131.79999999999998</ele><time>2026-04-11T09:25:29Z</time></trkpt><trkpt lat="44.91077869202553" lon="8.182396691981614"><ele>131.6</ele><time>2026-04-11T09:25:31Z</time></trkpt><trkpt lat="44.91067956402897" lon="8.182446313877781"><ele>131.39999999999998</ele><time>2026-04-11T09:25:33Z</time></trkpt><trkpt lat="44.91057769675145" lon="8.182501176099592"><ele>131.2</ele><time>2026-04-11T09:25:35Z</time></trkpt><trkpt lat="44.91048412757292" lon="8.182552804318949"><ele>131.0</ele><time>2026-04-11T09:25:37Z</time></trkpt><trkpt lat="44.910389825884764" lon="8.182599528185206"><ele>131.0</ele><time>2026-04-11T09:25:39Z</time></trkpt><trkpt lat="44.91029629822012" lon="8.182646579275456"><ele>131.0</ele><time>2026-04-11T09:25:41Z</time></trkpt><trkpt lat="44.91019885056282" lon="8.182686245946716"><ele>131.0</ele><time>2026-04-11T09:25:43Z</time></trkpt><trkpt lat="44.910096755060685" lon="8.182728337012964"><ele>131.0</ele><time>2026-04-11T09:25:45Z</time></trkpt><trkpt lat="44.910004325386765" lon="8.182763005464277"><ele>131.0</ele><time>2026-04-11T09:25:47Z</time></trkpt><trkpt lat="44.90990313447456" lon="8.182801906972578"><ele>130.8</ele><time>2026-04-11T09:25:49Z</time></trkpt><trkpt lat="44.909795223020474" lon="8.182827102771745"><ele>130.6</ele><time>2026-04-11T09:25:51Z</time></trkpt><trkpt lat="44.90968918934069" lon="8.18286403059389"><ele>130.4</ele><time>2026-04-11T09:25:53Z</time></trkpt><trkpt lat="44.90958536106712" lon="8.18291267046312"><ele>130.2</ele><time>2026-04-11T09:25:55Z</time></trkpt><trkpt lat="44.90947845012693" lon="8.18295772702218"><ele>130.0</ele><time>2026-04-11T09:25:57Z</time></trkpt><trkpt lat="44.90936916890546" lon="8.183006410412615"><ele>130.0</ele><time>2026-04-11T09:25:59Z</time></trkpt><trkpt lat="44.90926913524363" lon="8.183047944795918"><ele>130.0</ele><time>2026-04-11T09:26:01Z</time></trkpt><trkpt lat="44.909174580538625" lon="8.183091570148045"><ele>130.0</ele><time>2026-04-11T09:26:03Z</time></trkpt><trkpt lat="44.909109273309674" lon="8.183134655940734"><ele>130.0</ele><time>2026-04-11T09:26:05Z</time></trkpt><trkpt lat="44.90903048270213" lon="8.18315806424294"><ele>130.0</ele><time>2026-04-11T09:26:07Z</time></trkpt><trkpt lat="44.90896331388326" lon="8.183185340106933"><ele>130.0</ele><time>2026-04-11T09:26:09Z</time></trkpt><trkpt lat="44.908895922105565" lon="8.183184359808772"><ele>129.85714285714286</ele><time>2026-04-11T09:26:11Z</time></trkpt><trkpt lat="44.908832579283136" lon="8.18319733051107"><ele>129.71428571428572</ele><time>2026-04-11T09:26:13Z</time></trkpt><trkpt lat="44.90880221825573" lon="8.183280780214021"><ele>129.57142857142856</ele><time>2026-04-11T09:26:15Z</time></trkpt><trkpt lat="44.90879135654028" lon="8.183369708907204"><ele>129.42857142857144</ele><time>2026-04-11T09:26:17Z</time></trkpt><trkpt lat="44.90885405459866" lon="8.183417187133248"><ele>129.28571428571428</ele><time>2026-04-11T09:26:18Z</time></trkpt><trkpt lat="44.90888620498207" lon="8.183500308613933"><ele>129.14285714285714</ele><time>2026-04-11T09:26:19.999Z</time></trkpt><trkpt lat="44.908915593750976" lon="8.18358942937359"><ele>129.0</ele><time>2026-04-11T09:26:21.999Z</time></trkpt><trkpt lat="44.90895515892464" lon="8.183672834603064"><ele>129.0</ele><time>2026-04-11T09:26:23.999Z</time></trkpt><trkpt lat="44.90899294310069" lon="8.183757483215906"><ele>129.0</ele><time>2026-04-11T09:26:25.999Z</time></trkpt><trkpt lat="44.90902403570059" lon="8.183836226690843"><ele>129.0</ele><time>2026-04-11T09:26:27.999Z</time></trkpt><trkpt lat="44.9089579928656" lon="8.183749818277597"><ele>129.0</ele><time>2026-04-11T09:26:41.999Z</time></trkpt><trkpt lat="44.90895939162247" lon="8.183860672212056"><ele>129.0</ele><time>2026-04-11T09:26:44.999Z</time></trkpt><trkpt lat="44.90901032046885" lon="8.183949340275493"><ele>129.0</ele><time>2026-04-11T09:26:48.999Z</time></trkpt><trkpt lat="44.90903905075302" lon="8.184034292968736"><ele>129.28571428571428</ele><time>2026-04-11T09:26:50.999Z</time></trkpt><trkpt lat="44.90906545288312" lon="8.184117861019056"><ele>129.57142857142856</ele><time>2026-04-11T09:26:52.999Z</time></trkpt><trkpt lat="44.909093542739434" lon="8.184197461565242"><ele>129.85714285714286</ele><time>2026-04-11T09:26:54.999Z</time></trkpt><trkpt lat="44.90912760958404" lon="8.18428144567712"><ele>130.14285714285714</ele><time>2026-04-11T09:26:56.999Z</time></trkpt><trkpt lat="44.90916051766478" lon="8.184375307522238"><ele>130.42857142857144</ele><time>2026-04-11T09:26:58.999Z</time></trkpt><trkpt lat="44.909194193686055" lon="8.184470239016832"><ele>130.71428571428572</ele><time>2026-04-11T09:27:00.999Z</time></trkpt><trkpt lat="44.909229522352355" lon="8.18456766224542"><ele>131.0</ele><time>2026-04-11T09:27:02.999Z</time></trkpt><trkpt lat="44.90927046398681" lon="8.184655255464026"><ele>131.0</ele><time>2026-04-11T09:27:04.999Z</time></trkpt><trkpt lat="44.90922943460489" lon="8.184741344044072"><ele>131.0</ele><time>2026-04-11T09:27:07.999Z</time></trkpt><trkpt lat="44.909170274299534" lon="8.184775634514052"><ele>131.0</ele><time>2026-04-11T09:27:09.999Z</time></trkpt><trkpt lat="44.90911513838268" lon="8.184834693713983"><ele>131.0</ele><time>2026-04-11T09:27:11.999Z</time></trkpt><trkpt lat="44.90907828707773" lon="8.18493351176749"><ele>131.0</ele><time>2026-04-11T09:27:14.999Z</time></trkpt><trkpt lat="44.90904548921154" lon="8.185018248244992"><ele>131.0</ele><time>2026-04-11T09:27:17.999Z</time></trkpt><trkpt lat="44.90899734799364" lon="8.185079134191446"><ele>131.0</ele><time>2026-04-11T09:27:19.999Z</time></trkpt><trkpt lat="44.908931752119365" lon="8.185141047506322"><ele>131.66666666666666</ele><time>2026-04-11T09:27:21.999Z</time></trkpt><trkpt lat="44.90887428083353" lon="8.185200923084594"><ele>132.33333333333331</ele><time>2026-04-11T09:27:23.999Z</time></trkpt><trkpt lat="44.908813800985435" lon="8.18527558954949"><ele>133.0</ele><time>2026-04-11T09:27:25.999Z</time></trkpt><trkpt lat="44.908743819139914" lon="8.185346693720502"><ele>133.66666666666666</ele><time>2026-04-11T09:27:27.999Z</time></trkpt><trkpt lat="44.90869194944733" lon="8.185424349879971"><ele>134.33333333333334</ele><time>2026-04-11T09:27:29.999Z</time></trkpt><trkpt lat="44.90863187897664" lon="8.185496397491484"><ele>135.0</ele><time>2026-04-11T09:27:32Z</time></trkpt><trkpt lat="44.908574434721096" lon="8.185549229041191"><ele>135.0</ele><time>2026-04-11T09:27:35Z</time></trkpt><trkpt lat="44.90852987999814" lon="8.185632354685898"><ele>135.0</ele><time>2026-04-11T09:27:38Z</time></trkpt><trkpt lat="44.90845844520626" lon="8.185718167264193"><ele>135.0</ele><time>2026-04-11T09:27:40Z</time></trkpt><trkpt lat="44.90849976841519" lon="8.185811055375117"><ele>135.0</ele><time>2026-04-11T09:27:42Z</time></trkpt><trkpt lat="44.90856810151097" lon="8.18587206250988"><ele>135.0</ele><time>2026-04-11T09:27:45Z</time></trkpt><trkpt lat="44.90856912934989" lon="8.185980776876388"><ele>135.0</ele><time>2026-04-11T09:27:47Z</time></trkpt><trkpt lat="44.90852478118337" lon="8.186075143192276"><ele>134.85714285714286</ele><time>2026-04-11T09:27:49Z</time></trkpt><trkpt lat="44.90846412649795" lon="8.186151397463162"><ele>134.7142857142857</ele><time>2026-04-11T09:27:51Z</time></trkpt><trkpt lat="44.90841791809142" lon="8.186213842192036"><ele>134.57142857142856</ele><time>2026-04-11T09:27:53Z</time></trkpt><trkpt lat="44.90835951949496" lon="8.186248325481357"><ele>134.42857142857142</ele><time>2026-04-11T09:27:56Z</time></trkpt><trkpt lat="44.908286708647296" lon="8.186290900743366"><ele>134.28571428571428</ele><time>2026-04-11T09:27:59Z</time></trkpt><trkpt lat="44.9082694602121" lon="8.186380052956343"><ele>134.14285714285714</ele><time>2026-04-11T09:28:01Z</time></trkpt><trkpt lat="44.90824262425911" lon="8.186473285036682"><ele>134.0</ele><time>2026-04-11T09:28:03Z</time></trkpt><trkpt lat="44.908212793214254" lon="8.186572545146111"><ele>134.33333333333331</ele><time>2026-04-11T09:28:05Z</time></trkpt><trkpt lat="44.90818899136225" lon="8.186688108277924"><ele>134.66666666666666</ele><time>2026-04-11T09:28:07Z</time></trkpt><trkpt lat="44.90816023956546" lon="8.186784206203052"><ele>135.0</ele><time>2026-04-11T09:28:09Z</time></trkpt><trkpt lat="44.90815600072133" lon="8.186885866406287"><ele>135.33333333333334</ele><time>2026-04-11T09:28:11Z</time></trkpt><trkpt lat="44.90817689837253" lon="8.186992760445152"><ele>135.66666666666669</ele><time>2026-04-11T09:28:13Z</time></trkpt><trkpt lat="44.9082026000798" lon="8.18710841667981"><ele>136.0</ele><time>2026-04-11T09:28:15Z</time></trkpt><trkpt lat="44.9082248871224" lon="8.187233164911179"><ele>135.6</ele><time>2026-04-11T09:28:17Z</time></trkpt><trkpt lat="44.90824320271041" lon="8.18737363704176"><ele>135.2</ele><time>2026-04-11T09:28:19Z</time></trkpt><trkpt lat="44.908272597981195" lon="8.187502041578552"><ele>134.8</ele><time>2026-04-11T09:28:21Z</time></trkpt><trkpt lat="44.908296904427" lon="8.187625403019846"><ele>134.4</ele><time>2026-04-11T09:28:23Z</time></trkpt><trkpt lat="44.90830957436038" lon="8.187737661088525"><ele>134.0</ele><time>2026-04-11T09:28:24.999Z</time></trkpt><trkpt lat="44.90831142538438" lon="8.18786155465853"><ele>134.0</ele><time>2026-04-11T09:28:26.999Z</time></trkpt><trkpt lat="44.90830497302726" lon="8.187980375352604"><ele>134.0</ele><time>2026-04-11T09:28:28.999Z</time></trkpt><trkpt lat="44.908308270305746" lon="8.188108600967901"><ele>134.0</ele><time>2026-04-11T09:28:30.999Z</time></trkpt><trkpt lat="44.908306519641435" lon="8.188224922205222"><ele>134.0</ele><time>2026-04-11T09:28:32.999Z</time></trkpt><trkpt lat="44.908296981484966" lon="8.188338839587667"><ele>134.0</ele><time>2026-04-11T09:28:34.999Z</time></trkpt><trkpt lat="44.90824978396983" lon="8.188442798563077"><ele>134.0</ele><time>2026-04-11T09:28:36.999Z</time></trkpt><trkpt lat="44.90815933138623" lon="8.188475190725923"><ele>133.5</ele><time>2026-04-11T09:28:38.999Z</time></trkpt><trkpt lat="44.908077294399085" lon="8.188507201308257"><ele>133.0</ele><time>2026-04-11T09:28:40.999Z</time></trkpt><trkpt lat="44.90800666624751" lon="8.18854122545943"><ele>132.5</ele><time>2026-04-11T09:28:42.999Z</time></trkpt><trkpt lat="44.907935668942194" lon="8.188573771080147"><ele>132.0</ele><time>2026-04-11T09:28:44.999Z</time></trkpt><trkpt lat="44.907849127250756" lon="8.188620581323935"><ele>131.5</ele><time>2026-04-11T09:28:46.999Z</time></trkpt><trkpt lat="44.90776827372988" lon="8.188658515672572"><ele>131.0</ele><time>2026-04-11T09:28:48.999Z</time></trkpt><trkpt lat="44.90770054919669" lon="8.18873213645104"><ele>131.0</ele><time>2026-04-11T09:28:50.999Z</time></trkpt><trkpt lat="44.9076397992582" lon="8.188799782251776"><ele>131.0</ele><time>2026-04-11T09:28:52.999Z</time></trkpt><trkpt lat="44.907576177554816" lon="8.188860193138618"><ele>131.0</ele><time>2026-04-11T09:28:54.999Z</time></trkpt><trkpt lat="44.907508500152915" lon="8.188897909426698"><ele>131.0</ele><time>2026-04-11T09:28:58.999Z</time></trkpt><trkpt lat="44.907436367995885" lon="8.188864107732146"><ele>131.0</ele><time>2026-04-11T09:29:02.999Z</time></trkpt><trkpt lat="44.907361712019984" lon="8.188884640682117"><ele>131.0</ele><time>2026-04-11T09:29:05.999Z</time></trkpt><trkpt lat="44.90729601775092" lon="8.188928229919968"><ele>131.14285714285714</ele><time>2026-04-11T09:30:06Z</time></trkpt><trkpt lat="44.90723640834739" lon="8.18896584628351"><ele>131.2857142857143</ele><time>2026-04-11T09:30:13Z</time></trkpt><trkpt lat="44.907285152989886" lon="8.18887317855787"><ele>131.42857142857144</ele><time>2026-04-11T09:45:12Z</time></trkpt><trkpt lat="44.90724444846666" lon="8.188952120699897"><ele>131.57142857142858</ele><time>2026-04-11T09:45:40Z</time></trkpt><trkpt lat="44.907202371889674" lon="8.189049400457336"><ele>131.71428571428572</ele><time>2026-04-11T09:45:55Z</time></trkpt><trkpt lat="44.9072419877789" lon="8.188972883814053"><ele>131.85714285714286</ele><time>2026-04-11T09:48:02Z</time></trkpt><trkpt lat="44.90732360723478" lon="8.188943246372418"><ele>132.0</ele><time>2026-04-11T09:55:15Z</time></trkpt><trkpt lat="44.907385839249486" lon="8.189034096093597"><ele>132.0</ele><time>2026-04-11T09:55:30Z</time></trkpt><trkpt lat="44.90739894689598" lon="8.189136157105793"><ele>132.0</ele><time>2026-04-11T09:55:33Z</time></trkpt><trkpt lat="44.90743199236264" lon="8.189258353564446"><ele>132.0</ele><time>2026-04-11T09:55:35Z</time></trkpt><trkpt lat="44.90745053788608" lon="8.189362879014736"><ele>132.0</ele><time>2026-04-11T09:55:37Z</time></trkpt><trkpt lat="44.907463105235045" lon="8.189469571135136"><ele>132.0</ele><time>2026-04-11T09:55:39Z</time></trkpt><trkpt lat="44.90748118778512" lon="8.189580141894663"><ele>132.0</ele><time>2026-04-11T09:55:40.999Z</time></trkpt><trkpt lat="44.907487034546975" lon="8.189696634010714"><ele>132.0</ele><time>2026-04-11T09:55:42.999Z</time></trkpt><trkpt lat="44.90749033988919" lon="8.189830517240402"><ele>132.0</ele><time>2026-04-11T09:55:44.999Z</time></trkpt><trkpt lat="44.90748845126368" lon="8.189961989571751"><ele>132.0</ele><time>2026-04-11T09:55:46.999Z</time></trkpt><trkpt lat="44.907480534550444" lon="8.190080069934698"><ele>132.0</ele><time>2026-04-11T09:55:48.999Z</time></trkpt><trkpt lat="44.90746540136194" lon="8.190200169080164"><ele>132.0</ele><time>2026-04-11T09:55:50.999Z</time></trkpt><trkpt lat="44.90744804705366" lon="8.190309564397971"><ele>132.0</ele><time>2026-04-11T09:55:52.999Z</time></trkpt><trkpt lat="44.90743218846484" lon="8.190419415256606"><ele>132.0</ele><time>2026-04-11T09:55:54.999Z</time></trkpt><trkpt lat="44.90740571926874" lon="8.190541209719855"><ele>132.0</ele><time>2026-04-11T09:55:56.999Z</time></trkpt><trkpt lat="44.907366710661115" lon="8.190637500184824"><ele>132.0</ele><time>2026-04-11T09:55:58.999Z</time></trkpt><trkpt lat="44.9072930172565" lon="8.190691267105281"><ele>132.0</ele><time>2026-04-11T09:56:00.999Z</time></trkpt><trkpt lat="44.90722324509189" lon="8.190743177649638"><ele>132.0</ele><time>2026-04-11T09:56:02.999Z</time></trkpt><trkpt lat="44.907176525336915" lon="8.190842506296065"><ele>132.0</ele><time>2026-04-11T09:56:04.999Z</time></trkpt><trkpt lat="44.90711927310922" lon="8.190891335198382"><ele>131.83333333333334</ele><time>2026-04-11T09:56:07.999Z</time></trkpt><trkpt lat="44.907158801908366" lon="8.191000140662018"><ele>131.66666666666666</ele><time>2026-04-11T09:56:12.999Z</time></trkpt><trkpt lat="44.90722166036138" lon="8.19105329681152"><ele>131.5</ele><time>2026-04-11T09:56:14.999Z</time></trkpt><trkpt lat="44.90722604728629" lon="8.191153185156361"><ele>131.33333333333331</ele><time>2026-04-11T09:56:16.999Z</time></trkpt><trkpt lat="44.90719925542441" lon="8.191239882947334"><ele>131.16666666666666</ele><time>2026-04-11T09:56:18.999Z</time></trkpt><trkpt lat="44.90714986255711" lon="8.19135831502083"><ele>131.0</ele><time>2026-04-11T09:56:21.999Z</time></trkpt><trkpt lat="44.90710542853829" lon="8.191455521421341"><ele>130.6</ele><time>2026-04-11T09:56:23.999Z</time></trkpt><trkpt lat="44.90706180730838" lon="8.191564725284449"><ele>130.2</ele><time>2026-04-11T09:56:25.999Z</time></trkpt><trkpt lat="44.907008210114114" lon="8.191668894913127"><ele>129.8</ele><time>2026-04-11T09:56:27.999Z</time></trkpt><trkpt lat="44.90695499669528" lon="8.191790968173802"><ele>129.4</ele><time>2026-04-11T09:56:29.999Z</time></trkpt><trkpt lat="44.90691147240467" lon="8.191918175101334"><ele>129.0</ele><time>2026-04-11T09:56:31.999Z</time></trkpt><trkpt lat="44.906855101254365" lon="8.19202978123624"><ele>129.0</ele><time>2026-04-11T09:56:33.999Z</time></trkpt><trkpt lat="44.906799507436226" lon="8.192141845212523"><ele>129.0</ele><time>2026-04-11T09:56:35.999Z</time></trkpt><trkpt lat="44.90674175838053" lon="8.19225572347221"><ele>129.0</ele><time>2026-04-11T09:56:37.999Z</time></trkpt><trkpt lat="44.90669706173964" lon="8.192368884132943"><ele>129.0</ele><time>2026-04-11T09:56:39.999Z</time></trkpt><trkpt lat="44.90663617541544" lon="8.192479964757435"><ele>129.0</ele><time>2026-04-11T09:56:41.999Z</time></trkpt><trkpt lat="44.90658427932177" lon="8.192604222588763"><ele>129.4</ele><time>2026-04-11T09:56:43.999Z</time></trkpt><trkpt lat="44.906565402295215" lon="8.192771129043832"><ele>129.8</ele><time>2026-04-11T09:56:45.999Z</time></trkpt><trkpt lat="44.90651303496081" lon="8.192889898479564"><ele>130.2</ele><time>2026-04-11T09:56:47.999Z</time></trkpt><trkpt lat="44.90646053580861" lon="8.193009166498484"><ele>130.6</ele><time>2026-04-11T09:56:49.999Z</time></trkpt><trkpt lat="44.90640928529193" lon="8.193125597570289"><ele>131.0</ele><time>2026-04-11T09:56:51.999Z</time></trkpt><trkpt lat="44.90635640430127" lon="8.193245862378994"><ele>131.66666666666666</ele><time>2026-04-11T09:56:53.999Z</time></trkpt><trkpt lat="44.90630533136196" lon="8.19336308092077"><ele>132.33333333333331</ele><time>2026-04-11T09:56:56Z</time></trkpt><trkpt lat="44.90624575149542" lon="8.193459238243328"><ele>133.0</ele><time>2026-04-11T09:56:58Z</time></trkpt><trkpt lat="44.906205620774486" lon="8.19356320088705"><ele>133.66666666666666</ele><time>2026-04-11T09:57:00Z</time></trkpt><trkpt lat="44.90616686022236" lon="8.193669274610068"><ele>134.33333333333334</ele><time>2026-04-11T09:57:02Z</time></trkpt><trkpt lat="44.906116517991904" lon="8.193765555951655"><ele>135.0</ele><time>2026-04-11T09:57:04Z</time></trkpt><trkpt lat="44.9060902023244" lon="8.193881293179185"><ele>135.0</ele><time>2026-04-11T09:57:07Z</time></trkpt><trkpt lat="44.90603146948177" lon="8.1939885385642"><ele>135.0</ele><time>2026-04-11T09:57:11Z</time></trkpt><trkpt lat="44.905988344368836" lon="8.194068614531746"><ele>135.0</ele><time>2026-04-11T09:57:13Z</time></trkpt><trkpt lat="44.905951259792225" lon="8.194148648405529"><ele>135.0</ele><time>2026-04-11T09:57:14Z</time></trkpt><trkpt lat="44.90590304671743" lon="8.194249922449957"><ele>135.0</ele><time>2026-04-11T09:57:16Z</time></trkpt><trkpt lat="44.90585264109082" lon="8.19437296664038"><ele>135.0</ele><time>2026-04-11T09:57:18Z</time></trkpt><trkpt lat="44.90581325747834" lon="8.194466608234393"><ele>135.83333333333334</ele><time>2026-04-11T09:57:20Z</time></trkpt><trkpt lat="44.905769364274" lon="8.194555040982795"><ele>136.66666666666666</ele><time>2026-04-11T09:57:22Z</time></trkpt><trkpt lat="44.90572859712158" lon="8.194644542248916"><ele>137.5</ele><time>2026-04-11T09:57:24Z</time></trkpt><trkpt lat="44.905691968149426" lon="8.194735836438156"><ele>138.33333333333331</ele><time>2026-04-11T09:57:26Z</time></trkpt><trkpt lat="44.90565643131436" lon="8.194829552988443"><ele>139.16666666666666</ele><time>2026-04-11T09:57:28Z</time></trkpt><trkpt lat="44.90560525658725" lon="8.194912683755346"><ele>140.0</ele><time>2026-04-11T09:57:30Z</time></trkpt><trkpt lat="44.90556429015313" lon="8.195005384469686"><ele>140.5</ele><time>2026-04-11T09:57:32Z</time></trkpt><trkpt lat="44.90553516043112" lon="8.195102874360304"><ele>141.0</ele><time>2026-04-11T09:57:34Z</time></trkpt><trkpt lat="44.90549145616431" lon="8.195201760804999"><ele>141.5</ele><time>2026-04-11T09:57:36Z</time></trkpt><trkpt lat="44.90545259465938" lon="8.195286383565191"><ele>142.0</ele><time>2026-04-11T09:57:38Z</time></trkpt><trkpt lat="44.90541316496982" lon="8.195378044382506"><ele>142.5</ele><time>2026-04-11T09:57:40Z</time></trkpt><trkpt lat="44.90537465125012" lon="8.195466648469951"><ele>143.0</ele><time>2026-04-11T09:57:42Z</time></trkpt><trkpt lat="44.90533736840733" lon="8.195566413287759"><ele>143.0</ele><time>2026-04-11T09:57:45Z</time></trkpt><trkpt lat="44.90530621124298" lon="8.195648578417373"><ele>143.0</ele><time>2026-04-11T09:57:47Z</time></trkpt><trkpt lat="44.90525819738365" lon="8.195760918620339"><ele>143.0</ele><time>2026-04-11T09:57:48.999Z</time></trkpt><trkpt lat="44.90522543056633" lon="8.19584539484379"><ele>143.0</ele><time>2026-04-11T09:57:50.999Z</time></trkpt><trkpt lat="44.90519328800606" lon="8.195928248464343"><ele>143.0</ele><time>2026-04-11T09:57:52.999Z</time></trkpt><trkpt lat="44.90514845493536" lon="8.19604305302631"><ele>143.0</ele><time>2026-04-11T09:57:55.999Z</time></trkpt><trkpt lat="44.905115950459404" lon="8.196130008198917"><ele>143.42857142857142</ele><time>2026-04-11T09:57:57.999Z</time></trkpt><trkpt lat="44.90509038939765" lon="8.196216397616203"><ele>143.85714285714286</ele><time>2026-04-11T09:57:59.999Z</time></trkpt><trkpt lat="44.90506164069879" lon="8.196310917704311"><ele>144.28571428571428</ele><time>2026-04-11T09:58:02.999Z</time></trkpt><trkpt lat="44.90500895413074" lon="8.196377034184488"><ele>144.71428571428572</ele><time>2026-04-11T09:58:04.999Z</time></trkpt><trkpt lat="44.904956728808486" lon="8.196462442893527"><ele>145.14285714285714</ele><time>2026-04-11T09:58:07.999Z</time></trkpt><trkpt lat="44.90494502422987" lon="8.196568435161044"><ele>145.57142857142856</ele><time>2026-04-11T09:58:09.999Z</time></trkpt><trkpt lat="44.9049489880883" lon="8.196680367896668"><ele>146.0</ele><time>2026-04-11T09:58:12.999Z</time></trkpt><trkpt lat="44.904921175500256" lon="8.196773886505614"><ele>146.0</ele><time>2026-04-11T09:58:14.999Z</time></trkpt><trkpt lat="44.904898809344076" lon="8.196873416176283"><ele>146.0</ele><time>2026-04-11T09:58:16.999Z</time></trkpt><trkpt lat="44.9048787225988" lon="8.196976158387727"><ele>146.0</ele><time>2026-04-11T09:58:19.999Z</time></trkpt><trkpt lat="44.90485298355565" lon="8.197089637840955"><ele>146.0</ele><time>2026-04-11T09:58:22.999Z</time></trkpt><trkpt lat="44.904814859008816" lon="8.197226697974324"><ele>146.0</ele><time>2026-04-11T09:58:25.999Z</time></trkpt><trkpt lat="44.90478257597246" lon="8.197347193192222"><ele>146.0</ele><time>2026-04-11T09:58:28.999Z</time></trkpt><trkpt lat="44.90475523853837" lon="8.197444591016428"><ele>146.16666666666666</ele><time>2026-04-11T09:58:31.999Z</time></trkpt><trkpt lat="44.90472634826424" lon="8.197556018684441"><ele>146.33333333333331</ele><time>2026-04-11T09:58:34.999Z</time></trkpt><trkpt lat="44.904695107338746" lon="8.197650670007173"><ele>146.5</ele><time>2026-04-11T09:58:36.999Z</time></trkpt><trkpt lat="44.90466400680835" lon="8.197749643843467"><ele>146.66666666666666</ele><time>2026-04-11T09:58:39.999Z</time></trkpt><trkpt lat="44.90463619509972" lon="8.19784478836539"><ele>146.83333333333334</ele><time>2026-04-11T09:58:41.999Z</time></trkpt><trkpt lat="44.904608338504055" lon="8.197944570961534"><ele>147.0</ele><time>2026-04-11T09:58:44.999Z</time></trkpt><trkpt lat="44.90457507661574" lon="8.198068535414807"><ele>147.66666666666666</ele><time>2026-04-11T09:58:46.999Z</time></trkpt><trkpt lat="44.90454184319878" lon="8.198195376517376"><ele>148.33333333333334</ele><time>2026-04-11T09:58:49.999Z</time></trkpt><trkpt lat="44.90449617717507" lon="8.198290274797502"><ele>149.0</ele><time>2026-04-11T09:58:52.999Z</time></trkpt><trkpt lat="44.904459091561705" lon="8.19836480180139"><ele>149.66666666666669</ele><time>2026-04-11T09:58:53.999Z</time></trkpt><trkpt lat="44.90442357464849" lon="8.198448537866964"><ele>150.33333333333334</ele><time>2026-04-11T09:58:55.999Z</time></trkpt><trkpt lat="44.90436643294042" lon="8.198528218358867"><ele>151.0</ele><time>2026-04-11T09:58:57.999Z</time></trkpt><trkpt lat="44.90429980393456" lon="8.1986190786798"><ele>150.8</ele><time>2026-04-11T09:59:01Z</time></trkpt><trkpt lat="44.90424432665449" lon="8.198734054459258"><ele>150.6</ele><time>2026-04-11T09:59:02Z</time></trkpt><trkpt lat="44.904174647499545" lon="8.19883329508442"><ele>150.4</ele><time>2026-04-11T09:59:04Z</time></trkpt><trkpt lat="44.90409234053507" lon="8.198906830365715"><ele>150.2</ele><time>2026-04-11T09:59:06Z</time></trkpt><trkpt lat="44.9040207484565" lon="8.198974197901183"><ele>150.0</ele><time>2026-04-11T09:59:08Z</time></trkpt><trkpt lat="44.90394597484232" lon="8.19900309693789"><ele>150.0</ele><time>2026-04-11T09:59:10Z</time></trkpt><trkpt lat="44.903851715382274" lon="8.199040746861206"><ele>150.0</ele><time>2026-04-11T09:59:16Z</time></trkpt><trkpt lat="44.903796899429736" lon="8.199102215136381"><ele>150.0</ele><time>2026-04-11T09:59:18Z</time></trkpt><trkpt lat="44.90376641081309" lon="8.199191081657286"><ele>150.0</ele><time>2026-04-11T09:59:19Z</time></trkpt><trkpt lat="44.90369017106066" lon="8.199264149681358"><ele>150.0</ele><time>2026-04-11T09:59:21Z</time></trkpt><trkpt lat="44.90362809423132" lon="8.199292439986767"><ele>150.0</ele><time>2026-04-11T09:59:22Z</time></trkpt><trkpt lat="44.90352224466277" lon="8.199378540790784"><ele>150.0</ele><time>2026-04-11T09:59:24Z</time></trkpt><trkpt lat="44.90346419638808" lon="8.199421599702392"><ele>150.0</ele><time>2026-04-11T09:59:25Z</time></trkpt><trkpt lat="44.90339623219173" lon="8.199469048797399"><ele>150.0</ele><time>2026-04-11T09:59:26Z</time></trkpt><trkpt lat="44.903315436872404" lon="8.199503166116441"><ele>150.0</ele><time>2026-04-11T09:59:27Z</time></trkpt><trkpt lat="44.903235255618796" lon="8.199547260433018"><ele>150.0</ele><time>2026-04-11T09:59:28Z</time></trkpt><trkpt lat="44.90314722249038" lon="8.199597907546028"><ele>150.0</ele><time>2026-04-11T09:59:29Z</time></trkpt><trkpt lat="44.90305932083099" lon="8.199652373037708"><ele>150.0</ele><time>2026-04-11T09:59:30Z</time></trkpt><trkpt lat="44.902972086688266" lon="8.199697303365316"><ele>150.0</ele><time>2026-04-11T09:59:31Z</time></trkpt><trkpt lat="44.90289216051954" lon="8.199738743399529"><ele>150.0</ele><time>2026-04-11T09:59:32Z</time></trkpt><trkpt lat="44.90283318341517" lon="8.199776249600186"><ele>150.0</ele><time>2026-04-11T09:59:33Z</time></trkpt><trkpt lat="44.90270513211779" lon="8.199829682488819"><ele>150.0</ele><time>2026-04-11T09:59:35Z</time></trkpt><trkpt lat="44.90262222435988" lon="8.199861668484319"><ele>148.2</ele><time>2026-04-11T09:59:36Z</time></trkpt><trkpt lat="44.902532322670815" lon="8.199885395578699"><ele>146.4</ele><time>2026-04-11T09:59:37Z</time></trkpt><trkpt lat="44.90243597844717" lon="8.199905793726083"><ele>144.6</ele><time>2026-04-11T09:59:38Z</time></trkpt><trkpt lat="44.902344066704785" lon="8.199927009884972"><ele>142.8</ele><time>2026-04-11T09:59:39Z</time></trkpt><trkpt lat="44.90224139053332" lon="8.199958621585322"><ele>141.0</ele><time>2026-04-11T09:59:40Z</time></trkpt><trkpt lat="44.90215436210714" lon="8.19997489593022"><ele>141.0</ele><time>2026-04-11T09:59:41Z</time></trkpt><trkpt lat="44.90207222390756" lon="8.199994706221316"><ele>141.0</ele><time>2026-04-11T09:59:42Z</time></trkpt><trkpt lat="44.90199317914643" lon="8.200018992894366"><ele>141.0</ele><time>2026-04-11T09:59:43Z</time></trkpt><trkpt lat="44.901913819330545" lon="8.200041112543108"><ele>141.0</ele><time>2026-04-11T09:59:44Z</time></trkpt><trkpt lat="44.901838904556264" lon="8.200050468582761"><ele>141.0</ele><time>2026-04-11T09:59:45Z</time></trkpt><trkpt lat="44.90172379582754" lon="8.200037279688075"><ele>141.0</ele><time>2026-04-11T09:59:47Z</time></trkpt><trkpt lat="44.901643853001154" lon="8.199995843026255"><ele>140.5</ele><time>2026-04-11T09:59:49Z</time></trkpt><trkpt lat="44.90160963475063" lon="8.19988899858361"><ele>140.0</ele><time>2026-04-11T09:59:51Z</time></trkpt><trkpt lat="44.90159881430769" lon="8.199779041654168"><ele>139.5</ele><time>2026-04-11T09:59:53Z</time></trkpt><trkpt lat="44.90157568343388" lon="8.199683308732444"><ele>139.0</ele><time>2026-04-11T09:59:55Z</time></trkpt><trkpt lat="44.901551806141896" lon="8.199569526088792"><ele>138.5</ele><time>2026-04-11T09:59:57Z</time></trkpt><trkpt lat="44.90153428564134" lon="8.199444678208675"><ele>138.0</ele><time>2026-04-11T09:59:59Z</time></trkpt><trkpt lat="44.9014977983413" lon="8.199330714625804"><ele>138.0</ele><time>2026-04-11T10:00:00.999Z</time></trkpt><trkpt lat="44.90147567539562" lon="8.199230578086102"><ele>138.0</ele><time>2026-04-11T10:00:02.999Z</time></trkpt><trkpt lat="44.901443945132925" lon="8.199128621144505"><ele>138.0</ele><time>2026-04-11T10:00:04.999Z</time></trkpt><trkpt lat="44.901423678753275" lon="8.19903959218551"><ele>138.0</ele><time>2026-04-11T10:00:07.999Z</time></trkpt><trkpt lat="44.90135079989641" lon="8.199100991836579"><ele>138.0</ele><time>2026-04-11T10:00:14.999Z</time></trkpt><trkpt lat="44.901248016564324" lon="8.19916007688205"><ele>138.0</ele><time>2026-04-11T10:00:17.999Z</time></trkpt><trkpt lat="44.901172001902125" lon="8.199173923306025"><ele>138.0</ele><time>2026-04-11T10:00:19.999Z</time></trkpt><trkpt lat="44.90108177251494" lon="8.19916400062113"><ele>138.0</ele><time>2026-04-11T10:00:21.999Z</time></trkpt><trkpt lat="44.901011205666" lon="8.1991941823384"><ele>138.0</ele><time>2026-04-11T10:00:23.999Z</time></trkpt><trkpt lat="44.90094230824478" lon="8.199224581176335"><ele>138.0</ele><time>2026-04-11T10:00:25.999Z</time></trkpt><trkpt lat="44.90086528229158" lon="8.199223239730097"><ele>138.0</ele><time>2026-04-11T10:00:28.999Z</time></trkpt><trkpt lat="44.90079536913462" lon="8.199242377832434"><ele>138.0</ele><time>2026-04-11T10:00:32.999Z</time></trkpt><trkpt lat="44.90071261514552" lon="8.199289968823209"><ele>138.0</ele><time>2026-04-11T10:00:35.999Z</time></trkpt><trkpt lat="44.900641848918326" lon="8.199321159901908"><ele>138.0</ele><time>2026-04-11T10:00:38.999Z</time></trkpt><trkpt lat="44.900563546261644" lon="8.199341761807641"><ele>138.0</ele><time>2026-04-11T10:00:41.999Z</time></trkpt><trkpt lat="44.90049934729012" lon="8.199346600785889"><ele>138.0</ele><time>2026-04-11T10:00:43.999Z</time></trkpt><trkpt lat="44.90042043055531" lon="8.199358173821393"><ele>138.0</ele><time>2026-04-11T10:00:45.999Z</time></trkpt><trkpt lat="44.900360350676955" lon="8.199399406619321"><ele>138.0</ele><time>2026-04-11T10:00:47.999Z</time></trkpt><trkpt lat="44.90030052409774" lon="8.199434962279177"><ele>138.0</ele><time>2026-04-11T10:00:49.999Z</time></trkpt><trkpt lat="44.90023215532986" lon="8.199460741199816"><ele>138.0</ele><time>2026-04-11T10:00:51.999Z</time></trkpt><trkpt lat="44.900160609764264" lon="8.199491974069401"><ele>138.0</ele><time>2026-04-11T10:00:53.999Z</time></trkpt><trkpt lat="44.900073814066204" lon="8.199521402318963"><ele>138.0</ele><time>2026-04-11T10:00:56.999Z</time></trkpt><trkpt lat="44.9000452447044" lon="8.199616832668584"><ele>138.0</ele><time>2026-04-11T10:01:00.999Z</time></trkpt><trkpt lat="44.900056370573004" lon="8.199752782025277"><ele>138.0</ele><time>2026-04-11T10:01:03.999Z</time></trkpt><trkpt lat="44.9000718974994" lon="8.19985541444885"><ele>138.0</ele><time>2026-04-11T10:01:05.999Z</time></trkpt><trkpt lat="44.90006700006265" lon="8.199966803862168"><ele>138.0</ele><time>2026-04-11T10:01:08Z</time></trkpt><trkpt lat="44.90007368911223" lon="8.200077681181753"><ele>138.0</ele><time>2026-04-11T10:01:10Z</time></trkpt><trkpt lat="44.90008458119643" lon="8.200172871807178"><ele>138.0</ele><time>2026-04-11T10:01:12Z</time></trkpt><trkpt lat="44.900100536167976" lon="8.200295215681379"><ele>138.0</ele><time>2026-04-11T10:01:15Z</time></trkpt><trkpt lat="44.900124555113514" lon="8.200402706682638"><ele>138.0</ele><time>2026-04-11T10:01:18Z</time></trkpt><trkpt lat="44.90012317808366" lon="8.200510438755355"><ele>138.0</ele><time>2026-04-11T10:01:20Z</time></trkpt><trkpt lat="44.90013548843469" lon="8.200604090097224"><ele>138.28571428571428</ele><time>2026-04-11T10:01:22Z</time></trkpt><trkpt lat="44.90015827181598" lon="8.200690388774078"><ele>138.57142857142858</ele><time>2026-04-11T10:01:24Z</time></trkpt><trkpt lat="44.900178910860895" lon="8.200806880868676"><ele>138.85714285714286</ele><time>2026-04-11T10:01:27Z</time></trkpt><trkpt lat="44.90020582119732" lon="8.200906365380863"><ele>139.14285714285714</ele><time>2026-04-11T10:01:29Z</time></trkpt><trkpt lat="44.90021661849937" lon="8.200996001924537"><ele>139.42857142857144</ele><time>2026-04-11T10:01:31Z</time></trkpt><trkpt lat="44.900242997446405" lon="8.201084652563543"><ele>139.71428571428572</ele><time>2026-04-11T10:01:33Z</time></trkpt><trkpt lat="44.90026052965518" lon="8.201184064417175"><ele>140.0</ele><time>2026-04-11T10:01:35Z</time></trkpt><trkpt lat="44.900281058356185" lon="8.201285622934217"><ele>140.0</ele><time>2026-04-11T10:01:37Z</time></trkpt><trkpt lat="44.90029505346299" lon="8.201376846026571"><ele>140.0</ele><time>2026-04-11T10:01:39Z</time></trkpt><trkpt lat="44.90031153880276" lon="8.201478783461244"><ele>140.0</ele><time>2026-04-11T10:01:43Z</time></trkpt><trkpt lat="44.90031650262799" lon="8.201595102700866"><ele>140.0</ele><time>2026-04-11T10:01:51Z</time></trkpt><trkpt lat="44.90032783807009" lon="8.201718660053464"><ele>140.0</ele><time>2026-04-11T10:01:54Z</time></trkpt><trkpt lat="44.90033780748377" lon="8.201838257350861"><ele>140.0</ele><time>2026-04-11T10:01:57Z</time></trkpt><trkpt lat="44.90035359388241" lon="8.201965674666903"><ele>139.33333333333331</ele><time>2026-04-11T10:02:00Z</time></trkpt><trkpt lat="44.9003683874549" lon="8.202061259671687"><ele>138.66666666666666</ele><time>2026-04-11T10:02:02Z</time></trkpt><trkpt lat="44.90039888483394" lon="8.202159345093195"><ele>138.0</ele><time>2026-04-11T10:02:04Z</time></trkpt><trkpt lat="44.90043113009911" lon="8.202260970375375"><ele>137.33333333333334</ele><time>2026-04-11T10:02:06Z</time></trkpt><trkpt lat="44.900462303987" lon="8.202370889595594"><ele>136.66666666666669</ele><time>2026-04-11T10:02:08Z</time></trkpt><trkpt lat="44.90050281481587" lon="8.202483417861032"><ele>136.0</ele><time>2026-04-11T10:02:10Z</time></trkpt><trkpt lat="44.900548797699855" lon="8.202580269261116"><ele>135.57142857142856</ele><time>2026-04-11T10:02:12Z</time></trkpt><trkpt lat="44.90057381786479" lon="8.202686133565525"><ele>135.14285714285714</ele><time>2026-04-11T10:02:14Z</time></trkpt><trkpt lat="44.90061165572052" lon="8.202775198550817"><ele>134.71428571428572</ele><time>2026-04-11T10:02:16Z</time></trkpt><trkpt lat="44.90060601283356" lon="8.202872599108332"><ele>134.28571428571428</ele><time>2026-04-11T10:02:18Z</time></trkpt><trkpt lat="44.90060686205672" lon="8.202966554288048"><ele>133.85714285714286</ele><time>2026-04-11T10:02:19.999Z</time></trkpt><trkpt lat="44.90061342899883" lon="8.203086818562635"><ele>133.42857142857142</ele><time>2026-04-11T10:02:22.999Z</time></trkpt><trkpt lat="44.90063233710348" lon="8.203172209396095"><ele>133.0</ele><time>2026-04-11T10:02:24.999Z</time></trkpt><trkpt lat="44.90070227285359" lon="8.20322586312097"><ele>132.85714285714286</ele><time>2026-04-11T10:02:27.999Z</time></trkpt><trkpt lat="44.90075549519932" lon="8.20328624693956"><ele>132.71428571428572</ele><time>2026-04-11T10:02:30.999Z</time></trkpt><trkpt lat="44.9008056055616" lon="8.203353994249209"><ele>132.57142857142856</ele><time>2026-04-11T10:02:33.999Z</time></trkpt><trkpt lat="44.90083203942223" lon="8.203443326856902"><ele>132.42857142857144</ele><time>2026-04-11T10:02:39.999Z</time></trkpt><trkpt lat="44.90087481309637" lon="8.203368001765533"><ele>132.28571428571428</ele><time>2026-04-11T10:02:45.999Z</time></trkpt><trkpt lat="44.900864656465366" lon="8.203461692574944"><ele>132.14285714285714</ele><time>2026-04-11T10:02:53.999Z</time></trkpt><trkpt lat="44.90087209079147" lon="8.203565216287153"><ele>132.0</ele><time>2026-04-11T10:02:56.999Z</time></trkpt><trkpt lat="44.90089747335923" lon="8.203694040923224"><ele>132.0</ele><time>2026-04-11T10:02:59.999Z</time></trkpt><trkpt lat="44.90090572519488" lon="8.203785078398607"><ele>132.0</ele><time>2026-04-11T10:03:01.999Z</time></trkpt><trkpt lat="44.900924797745574" lon="8.203871255825273"><ele>132.0</ele><time>2026-04-11T10:03:03.999Z</time></trkpt><trkpt lat="44.90097294881417" lon="8.203976507258668"><ele>132.0</ele><time>2026-04-11T10:03:06.999Z</time></trkpt><trkpt lat="44.90097141302839" lon="8.204073015936716"><ele>132.0</ele><time>2026-04-11T10:03:09.999Z</time></trkpt><trkpt lat="44.900958022260966" lon="8.204202552042549"><ele>132.0</ele><time>2026-04-11T10:03:13Z</time></trkpt><trkpt lat="44.90089687203515" lon="8.204251418188267"><ele>132.0</ele><time>2026-04-11T10:03:16Z</time></trkpt><trkpt lat="44.90082846617622" lon="8.204295056361628"><ele>132.14285714285714</ele><time>2026-04-11T10:03:18Z</time></trkpt><trkpt lat="44.90075839133022" lon="8.20432617266822"><ele>132.28571428571428</ele><time>2026-04-11T10:03:20Z</time></trkpt><trkpt lat="44.90068505767381" lon="8.20436333731959"><ele>132.42857142857144</ele><time>2026-04-11T10:03:24Z</time></trkpt><trkpt lat="44.900633200066515" lon="8.204416559703212"><ele>132.57142857142856</ele><time>2026-04-11T10:03:27Z</time></trkpt><trkpt lat="44.90059772484685" lon="8.20452830244817"><ele>132.71428571428572</ele><time>2026-04-11T10:04:03Z</time></trkpt><trkpt lat="44.900526542909674" lon="8.20451394873021"><ele>132.85714285714286</ele><time>2026-04-11T10:04:09Z</time></trkpt><trkpt lat="44.900456741989764" lon="8.204517869340963"><ele>133.0</ele><time>2026-04-11T10:04:12.999Z</time></trkpt><trkpt lat="44.90037558644172" lon="8.204526335486541"><ele>133.0</ele><time>2026-04-11T10:04:15.999Z</time></trkpt><trkpt lat="44.90030740135243" lon="8.204548905136294"><ele>133.0</ele><time>2026-04-11T10:04:18.999Z</time></trkpt><trkpt lat="44.90022644609042" lon="8.204566685238564"><ele>133.0</ele><time>2026-04-11T10:04:28.999Z</time></trkpt><trkpt lat="44.90017540979078" lon="8.204649822235329"><ele>133.0</ele><time>2026-04-11T10:04:31.999Z</time></trkpt><trkpt lat="44.90009900238709" lon="8.20458223360606"><ele>133.0</ele><time>2026-04-11T10:04:34.999Z</time></trkpt><trkpt lat="44.90003472960226" lon="8.204572791339412"><ele>133.0</ele><time>2026-04-11T10:04:36.999Z</time></trkpt><trkpt lat="44.899989010915455" lon="8.204502118462594"><ele>132.83333333333334</ele><time>2026-04-11T10:04:40.999Z</time></trkpt><trkpt lat="44.89997951719204" lon="8.204402757797675"><ele>132.66666666666669</ele><time>2026-04-11T10:04:44.999Z</time></trkpt><trkpt lat="44.899970548420534" lon="8.204312946407677"><ele>132.5</ele><time>2026-04-11T10:04:47.999Z</time></trkpt><trkpt lat="44.8999860298829" lon="8.204190600188587"><ele>132.33333333333334</ele><time>2026-04-11T10:04:51.999Z</time></trkpt><trkpt lat="44.899975077420194" lon="8.204092315621777"><ele>132.16666666666666</ele><time>2026-04-11T10:04:55.999Z</time></trkpt><trkpt lat="44.899976759992995" lon="8.20396742048857"><ele>132.0</ele><time>2026-04-11T10:04:58.999Z</time></trkpt><trkpt lat="44.89996853768521" lon="8.203860967885845"><ele>132.28571428571428</ele><time>2026-04-11T10:05:01.999Z</time></trkpt><trkpt lat="44.89994220451113" lon="8.203766933679514"><ele>132.57142857142858</ele><time>2026-04-11T10:05:04.999Z</time></trkpt><trkpt lat="44.899937867339" lon="8.203658226000861"><ele>132.85714285714286</ele><time>2026-04-11T10:05:07.999Z</time></trkpt><trkpt lat="44.899899784587895" lon="8.203552094975818"><ele>133.14285714285714</ele><time>2026-04-11T10:05:10.999Z</time></trkpt><trkpt lat="44.89987555299866" lon="8.20346537464764"><ele>133.42857142857142</ele><time>2026-04-11T10:05:13.999Z</time></trkpt><trkpt lat="44.89981936486576" lon="8.203396673612342"><ele>133.71428571428572</ele><time>2026-04-11T10:05:15.999Z</time></trkpt><trkpt lat="44.89982093880265" lon="8.2033013295964"><ele>134.0</ele><time>2026-04-11T10:05:20.999Z</time></trkpt><trkpt lat="44.89980246757044" lon="8.203192111391667"><ele>133.8</ele><time>2026-04-11T10:05:24.999Z</time></trkpt><trkpt lat="44.899845419292895" lon="8.20305740429951"><ele>133.60000000000002</ele><time>2026-04-11T10:05:27.999Z</time></trkpt><trkpt lat="44.89986724974277" lon="8.202933491636944"><ele>133.4</ele><time>2026-04-11T10:05:30.999Z</time></trkpt><trkpt lat="44.899868411005826" lon="8.202818765255039"><ele>133.20000000000002</ele><time>2026-04-11T10:05:34.999Z</time></trkpt><trkpt lat="44.899874361515344" lon="8.202687057150776"><ele>133.0</ele><time>2026-04-11T10:05:37.999Z</time></trkpt><trkpt lat="44.89986975614651" lon="8.202553957524325"><ele>133.0</ele><time>2026-04-11T10:05:40.999Z</time></trkpt><trkpt lat="44.89980685264611" lon="8.202494943489762"><ele>133.0</ele><time>2026-04-11T10:05:43.999Z</time></trkpt><trkpt lat="44.899797110037994" lon="8.202404984215837"><ele>133.0</ele><time>2026-04-11T10:05:45.999Z</time></trkpt><trkpt lat="44.89977672754717" lon="8.202312359128646"><ele>133.0</ele><time>2026-04-11T10:05:47.999Z</time></trkpt><trkpt lat="44.8997331571709" lon="8.202230846314489"><ele>133.0</ele><time>2026-04-11T10:05:49.999Z</time></trkpt><trkpt lat="44.899690115776" lon="8.202146066916319"><ele>133.0</ele><time>2026-04-11T10:05:51.999Z</time></trkpt><trkpt lat="44.89966652867165" lon="8.20205394146248"><ele>133.0</ele><time>2026-04-11T10:05:53.999Z</time></trkpt><trkpt lat="44.89963654333175" lon="8.201923463422869"><ele>133.5</ele><time>2026-04-11T10:05:56.999Z</time></trkpt><trkpt lat="44.89961803502433" lon="8.201815208329979"><ele>134.0</ele><time>2026-04-11T10:05:59.999Z</time></trkpt><trkpt lat="44.89959004064953" lon="8.201705295630239"><ele>134.5</ele><time>2026-04-11T10:06:02.999Z</time></trkpt><trkpt lat="44.89956283234008" lon="8.20159306313134"><ele>135.0</ele><time>2026-04-11T10:06:05.999Z</time></trkpt><trkpt lat="44.899563144533445" lon="8.20149532344422"><ele>135.5</ele><time>2026-04-11T10:06:06.999Z</time></trkpt><trkpt lat="44.89954081202841" lon="8.201396411825321"><ele>136.0</ele><time>2026-04-11T10:06:09.999Z</time></trkpt><trkpt lat="44.89950847818503" lon="8.201284717745299"><ele>136.5</ele><time>2026-04-11T10:06:12.999Z</time></trkpt><trkpt lat="44.89948162151627" lon="8.201202713022612"><ele>137.0</ele><time>2026-04-11T10:06:14.999Z</time></trkpt><trkpt lat="44.89946341208099" lon="8.201105218217757"><ele>137.5</ele><time>2026-04-11T10:06:16.999Z</time></trkpt><trkpt lat="44.89942780906594" lon="8.200998951389295"><ele>138.0</ele><time>2026-04-11T10:06:19.999Z</time></trkpt><trkpt lat="44.899402010466765" lon="8.200873388272436"><ele>138.5</ele><time>2026-04-11T10:06:22.999Z</time></trkpt><trkpt lat="44.89937716449139" lon="8.200752134864931"><ele>139.0</ele><time>2026-04-11T10:06:25.999Z</time></trkpt><trkpt lat="44.89937982850606" lon="8.20065054210289"><ele>139.0</ele><time>2026-04-11T10:06:29.999Z</time></trkpt><trkpt lat="44.89941402826764" lon="8.200566930327327"><ele>139.0</ele><time>2026-04-11T10:06:31.999Z</time></trkpt><trkpt lat="44.89937120614531" lon="8.20045971587662"><ele>139.0</ele><time>2026-04-11T10:06:33.999Z</time></trkpt><trkpt lat="44.899354855178096" lon="8.200341865599128"><ele>139.0</ele><time>2026-04-11T10:06:36.999Z</time></trkpt><trkpt lat="44.89937635889008" lon="8.200218779387221"><ele>139.0</ele><time>2026-04-11T10:06:39.999Z</time></trkpt><trkpt lat="44.899370096050895" lon="8.200116056554505"><ele>139.0</ele><time>2026-04-11T10:06:41.999Z</time></trkpt><trkpt lat="44.89936037612968" lon="8.20002607996481"><ele>139.0</ele><time>2026-04-11T10:06:43.999Z</time></trkpt><trkpt lat="44.89933936211667" lon="8.19990478474015"><ele>139.0</ele><time>2026-04-11T10:06:45.999Z</time></trkpt><trkpt lat="44.899325779719554" lon="8.199763745212529"><ele>139.0</ele><time>2026-04-11T10:06:48.999Z</time></trkpt><trkpt lat="44.89930662822939" lon="8.19967447612842"><ele>139.0</ele><time>2026-04-11T10:06:50.999Z</time></trkpt><trkpt lat="44.899312419183644" lon="8.199572402853944"><ele>139.0</ele><time>2026-04-11T10:06:52.999Z</time></trkpt><trkpt lat="44.89931154090729" lon="8.199468784417725"><ele>139.0</ele><time>2026-04-11T10:06:55.999Z</time></trkpt><trkpt lat="44.89924159479049" lon="8.199491666295724"><ele>139.16666666666669</ele><time>2026-04-11T10:06:58.999Z</time></trkpt><trkpt lat="44.8991659896636" lon="8.199572563959071"><ele>139.33333333333334</ele><time>2026-04-11T10:07:01.999Z</time></trkpt><trkpt lat="44.89909669277534" lon="8.199643741467124"><ele>139.5</ele><time>2026-04-11T10:07:03.999Z</time></trkpt><trkpt lat="44.899028309355245" lon="8.1997355612915"><ele>139.66666666666666</ele><time>2026-04-11T10:07:06.999Z</time></trkpt><trkpt lat="44.89896449793076" lon="8.199801169126983"><ele>139.83333333333331</ele><time>2026-04-11T10:07:08.999Z</time></trkpt><trkpt lat="44.89889652132907" lon="8.199852538321835"><ele>140.0</ele><time>2026-04-11T10:07:10.999Z</time></trkpt><trkpt lat="44.89881602786838" lon="8.199888394030955"><ele>140.0</ele><time>2026-04-11T10:07:12.999Z</time></trkpt><trkpt lat="44.89873092807946" lon="8.199971383796532"><ele>140.0</ele><time>2026-04-11T10:07:14.999Z</time></trkpt><trkpt lat="44.898655671471715" lon="8.199994262894705"><ele>140.0</ele><time>2026-04-11T10:07:16.999Z</time></trkpt><trkpt lat="44.89855348132418" lon="8.200031842930409"><ele>140.0</ele><time>2026-04-11T10:07:18.999Z</time></trkpt><trkpt lat="44.8985327741851" lon="8.200145124697936"><ele>140.0</ele><time>2026-04-11T10:07:22.999Z</time></trkpt><trkpt lat="44.89855651315628" lon="8.20022772411692"><ele>140.0</ele><time>2026-04-11T10:07:25Z</time></trkpt><trkpt lat="44.898583236543395" lon="8.20035609247457"><ele>140.0</ele><time>2026-04-11T10:07:28Z</time></trkpt><trkpt lat="44.89859016840664" lon="8.200498050898865"><ele>140.0</ele><time>2026-04-11T10:07:30Z</time></trkpt><trkpt lat="44.8986037401424" lon="8.20060427213029"><ele>140.0</ele><time>2026-04-11T10:07:33Z</time></trkpt><trkpt lat="44.89861987640849" lon="8.200696631500309"><ele>140.0</ele><time>2026-04-11T10:07:35Z</time></trkpt><trkpt lat="44.89864217780082" lon="8.20079705144374"><ele>140.0</ele><time>2026-04-11T10:07:37Z</time></trkpt><trkpt lat="44.89867072946411" lon="8.200886124662087"><ele>140.0</ele><time>2026-04-11T10:07:40Z</time></trkpt><trkpt lat="44.8986985093524" lon="8.200991888395164"><ele>139.6</ele><time>2026-04-11T10:07:43Z</time></trkpt><trkpt lat="44.89870306892583" lon="8.201120207935126"><ele>139.2</ele><time>2026-04-11T10:07:45Z</time></trkpt><trkpt lat="44.898710480087075" lon="8.201258548608536"><ele>138.8</ele><time>2026-04-11T10:07:47Z</time></trkpt><trkpt lat="44.89873996582799" lon="8.201407615312615"><ele>138.4</ele><time>2026-04-11T10:07:50Z</time></trkpt><trkpt lat="44.898766532444625" lon="8.201499293941241"><ele>138.0</ele><time>2026-04-11T10:07:52Z</time></trkpt><trkpt lat="44.89880156980992" lon="8.201627767120131"><ele>137.5</ele><time>2026-04-11T10:07:54Z</time></trkpt><trkpt lat="44.89882123699259" lon="8.201728906230553"><ele>137.0</ele><time>2026-04-11T10:07:56Z</time></trkpt><trkpt lat="44.89884667877304" lon="8.201829748812777"><ele>136.5</ele><time>2026-04-11T10:07:59Z</time></trkpt><trkpt lat="44.898900705591274" lon="8.201915234624002"><ele>136.0</ele><time>2026-04-11T10:08:04Z</time></trkpt><trkpt lat="44.89885939088803" lon="8.201999260774686"><ele>135.5</ele><time>2026-04-11T10:08:07Z</time></trkpt><trkpt lat="44.89883178846344" lon="8.202101112930915"><ele>135.0</ele><time>2026-04-11T10:08:12Z</time></trkpt><trkpt lat="44.89874849171203" lon="8.202121742543088"><ele>135.0</ele><time>2026-04-11T10:08:16Z</time></trkpt><trkpt lat="44.898690588490986" lon="8.202171634082418"><ele>135.0</ele><time>2026-04-11T10:08:23Z</time></trkpt><trkpt lat="44.89862063026627" lon="8.202197143697418"><ele>135.0</ele><time>2026-04-11T10:08:26Z</time></trkpt><trkpt lat="44.89853533106569" lon="8.20223090855852"><ele>135.0</ele><time>2026-04-11T10:08:28Z</time></trkpt><trkpt lat="44.89842903031496" lon="8.202239854257407"><ele>135.0</ele><time>2026-04-11T10:08:30Z</time></trkpt><trkpt lat="44.898333510029794" lon="8.202279863690974"><ele>135.0</ele><time>2026-04-11T10:08:33Z</time></trkpt><trkpt lat="44.898256343139956" lon="8.202309018634175"><ele>134.66666666666666</ele><time>2026-04-11T10:08:37Z</time></trkpt><trkpt lat="44.89818424277904" lon="8.20232770873744"><ele>134.33333333333334</ele><time>2026-04-11T10:08:40Z</time></trkpt><trkpt lat="44.89809426208835" lon="8.202377996288744"><ele>134.0</ele><time>2026-04-11T10:08:44Z</time></trkpt><trkpt lat="44.89801461372025" lon="8.202404726444437"><ele>133.66666666666669</ele><time>2026-04-11T10:08:47Z</time></trkpt><trkpt lat="44.897923787606054" lon="8.20245959430293"><ele>133.33333333333334</ele><time>2026-04-11T10:08:50Z</time></trkpt><trkpt lat="44.89784199076955" lon="8.202472582904159"><ele>133.0</ele><time>2026-04-11T10:08:52Z</time></trkpt><trkpt lat="44.89785763339623" lon="8.202575023982023"><ele>132.66666666666669</ele><time>2026-04-11T10:08:53Z</time></trkpt><trkpt lat="44.89779231283367" lon="8.20258648443181"><ele>132.33333333333334</ele><time>2026-04-11T10:08:55Z</time></trkpt><trkpt lat="44.89768877838957" lon="8.202569266332256"><ele>132.0</ele><time>2026-04-11T10:08:57Z</time></trkpt><trkpt lat="44.8975863483153" lon="8.202558005329058"><ele>131.66666666666666</ele><time>2026-04-11T10:08:59Z</time></trkpt><trkpt lat="44.89751591100336" lon="8.202584544103923"><ele>131.33333333333331</ele><time>2026-04-11T10:09:00Z</time></trkpt><trkpt lat="44.89745819366851" lon="8.202651711425894"><ele>131.0</ele><time>2026-04-11T10:09:03Z</time></trkpt><trkpt lat="44.8974621501764" lon="8.202754721650024"><ele>131.0</ele><time>2026-04-11T10:09:06.999Z</time></trkpt><trkpt lat="44.897479758559626" lon="8.202865914978654"><ele>131.0</ele><time>2026-04-11T10:09:09.999Z</time></trkpt><trkpt lat="44.89753107383618" lon="8.202972848277827"><ele>131.0</ele><time>2026-04-11T10:09:12.999Z</time></trkpt><trkpt lat="44.89756392354773" lon="8.203056551629745"><ele>131.0</ele><time>2026-04-11T10:09:14.999Z</time></trkpt><trkpt lat="44.89761310122713" lon="8.203130575076472"><ele>131.0</ele><time>2026-04-11T10:09:16.999Z</time></trkpt><trkpt lat="44.897656407712546" lon="8.203206714316686"><ele>131.0</ele><time>2026-04-11T10:09:18.999Z</time></trkpt><trkpt lat="44.89770861574807" lon="8.203285494996699"><ele>131.0</ele><time>2026-04-11T10:09:20.999Z</time></trkpt><trkpt lat="44.897769663389006" lon="8.20335429713816"><ele>131.0</ele><time>2026-04-11T10:09:22.999Z</time></trkpt><trkpt lat="44.89784268677919" lon="8.2034030475055"><ele>131.0</ele><time>2026-04-11T10:09:24.999Z</time></trkpt><trkpt lat="44.89791525121698" lon="8.203447751986984"><ele>131.0</ele><time>2026-04-11T10:09:26.999Z</time></trkpt><trkpt lat="44.89798342207543" lon="8.203496893381768"><ele>131.0</ele><time>2026-04-11T10:09:28.999Z</time></trkpt><trkpt lat="44.898049172238984" lon="8.203549484363329"><ele>131.0</ele><time>2026-04-11T10:09:31Z</time></trkpt><trkpt lat="44.89811383334213" lon="8.203615183857016"><ele>131.0</ele><time>2026-04-11T10:09:33Z</time></trkpt><trkpt lat="44.89818591531051" lon="8.20367372355849"><ele>131.0</ele><time>2026-04-11T10:09:35Z</time></trkpt><trkpt lat="44.898247204008634" lon="8.203726216287595"><ele>131.0</ele><time>2026-04-11T10:09:37Z</time></trkpt><trkpt lat="44.898380330797686" lon="8.20379320519647"><ele>131.0</ele><time>2026-04-11T10:09:42Z</time></trkpt><trkpt lat="44.89839066081159" lon="8.203892537442734"><ele>131.0</ele><time>2026-04-11T10:09:45Z</time></trkpt><trkpt lat="44.898351688684734" lon="8.203983847927779"><ele>131.0</ele><time>2026-04-11T10:09:48Z</time></trkpt><trkpt lat="44.89829221015781" lon="8.204066045995125"><ele>130.66666666666666</ele><time>2026-04-11T10:09:51Z</time></trkpt><trkpt lat="44.89824969585279" lon="8.2041372527029"><ele>130.33333333333331</ele><time>2026-04-11T10:09:53Z</time></trkpt><trkpt lat="44.898181820889704" lon="8.2041755788559"><ele>130.0</ele><time>2026-04-11T10:09:55Z</time></trkpt><trkpt lat="44.89814102703489" lon="8.204288478322713"><ele>129.66666666666666</ele><time>2026-04-11T10:10:00Z</time></trkpt><trkpt lat="44.89808583008274" lon="8.20434758511926"><ele>129.33333333333334</ele><time>2026-04-11T10:10:04Z</time></trkpt><trkpt lat="44.898030507212425" lon="8.204396366171718"><ele>129.0</ele><time>2026-04-11T10:10:10Z</time></trkpt><trkpt lat="44.8979801992041" lon="8.204497695919574"><ele>128.99999999999997</ele><time>2026-04-11T10:10:14Z</time></trkpt><trkpt lat="44.89793870785969" lon="8.204567516631975"><ele>129.0</ele><time>2026-04-11T10:10:16Z</time></trkpt><trkpt lat="44.897919585284846" lon="8.204670597491443"><ele>129.0</ele><time>2026-04-11T10:10:18Z</time></trkpt><trkpt lat="44.89788920724697" lon="8.204775721308035"><ele>129.0</ele><time>2026-04-11T10:10:21Z</time></trkpt><trkpt lat="44.897894067934466" lon="8.204882443649785"><ele>129.0</ele><time>2026-04-11T10:10:24Z</time></trkpt><trkpt lat="44.897961111751655" lon="8.204897708533794"><ele>128.99999999999997</ele><time>2026-04-11T10:10:28Z</time></trkpt><trkpt lat="44.8980179058387" lon="8.204857415888128"><ele>129.0</ele><time>2026-04-11T10:10:33Z</time></trkpt><trkpt lat="44.89807506442715" lon="8.204816655093408"><ele>129.0</ele><time>2026-04-11T10:10:36Z</time></trkpt><trkpt lat="44.89815607280592" lon="8.20476609721285"><ele>129.0</ele><time>2026-04-11T10:10:39Z</time></trkpt><trkpt lat="44.8982246925053" lon="8.204714651628853"><ele>129.0</ele><time>2026-04-11T10:10:42Z</time></trkpt><trkpt lat="44.89829853062014" lon="8.204658048329048"><ele>129.0</ele><time>2026-04-11T10:10:45Z</time></trkpt><trkpt lat="44.89834837489947" lon="8.20455583168377"><ele>129.0</ele><time>2026-04-11T10:10:48Z</time></trkpt><trkpt lat="44.89840726338761" lon="8.204524053090546"><ele>129.0</ele><time>2026-04-11T10:10:50Z</time></trkpt><trkpt lat="44.89848092840612" lon="8.204475819568811"><ele>129.0</ele><time>2026-04-11T10:10:54Z</time></trkpt><trkpt lat="44.89854072586542" lon="8.204427507125008"><ele>129.0</ele><time>2026-04-11T10:10:58Z</time></trkpt><trkpt lat="44.89857153543851" lon="8.204542930487898"><ele>129.0</ele><time>2026-04-11T10:11:13Z</time></trkpt><trkpt lat="44.898594825186265" lon="8.20465464374859"><ele>129.0</ele><time>2026-04-11T10:11:18Z</time></trkpt><trkpt lat="44.898594580848496" lon="8.204770144149077"><ele>129.0</ele><time>2026-04-11T10:11:21Z</time></trkpt><trkpt lat="44.898635197769856" lon="8.204843065463013"><ele>129.0</ele><time>2026-04-11T10:11:23.999Z</time></trkpt><trkpt lat="44.89865261176296" lon="8.204964792656924"><ele>129.0</ele><time>2026-04-11T10:11:26.999Z</time></trkpt><trkpt lat="44.89866241043142" lon="8.205075014793975"><ele>129.0</ele><time>2026-04-11T10:11:29.999Z</time></trkpt><trkpt lat="44.89866741618999" lon="8.205177057370255"><ele>129.0</ele><time>2026-04-11T10:11:31.999Z</time></trkpt><trkpt lat="44.8986685917665" lon="8.205277896585002"><ele>129.0</ele><time>2026-04-11T10:11:34.999Z</time></trkpt><trkpt lat="44.89867434602553" lon="8.205380327346845"><ele>129.0</ele><time>2026-04-11T10:11:39Z</time></trkpt><trkpt lat="44.898590097808" lon="8.205435710861233"><ele>129.0</ele><time>2026-04-11T10:11:42Z</time></trkpt><trkpt lat="44.89852555577412" lon="8.205453612493146"><ele>129.0</ele><time>2026-04-11T10:11:46Z</time></trkpt><trkpt lat="44.89848145844623" lon="8.205545956181389"><ele>129.0</ele><time>2026-04-11T10:11:50Z</time></trkpt><trkpt lat="44.89851804928076" lon="8.205628057745223"><ele>129.0</ele><time>2026-04-11T10:11:54Z</time></trkpt><trkpt lat="44.89854450859655" lon="8.205737978457291"><ele>129.0</ele><time>2026-04-11T10:11:57Z</time></trkpt><trkpt lat="44.89854571714415" lon="8.205844435388967"><ele>129.0</ele><time>2026-04-11T10:12:00Z</time></trkpt><trkpt lat="44.89850698806299" lon="8.205918774442802"><ele>129.0</ele><time>2026-04-11T10:12:05Z</time></trkpt><trkpt lat="44.898428582371054" lon="8.205956270948269"><ele>128.16666666666666</ele><time>2026-04-11T10:12:08Z</time></trkpt><trkpt lat="44.89836556199674" lon="8.206068176662784"><ele>127.33333333333334</ele><time>2026-04-11T10:12:11Z</time></trkpt><trkpt lat="44.898295749039725" lon="8.206143485257574"><ele>126.5</ele><time>2026-04-11T10:12:13Z</time></trkpt><trkpt lat="44.89823237683161" lon="8.206226302153851"><ele>125.66666666666667</ele><time>2026-04-11T10:12:15Z</time></trkpt><trkpt lat="44.89814982783918" lon="8.206293060625901"><ele>124.83333333333334</ele><time>2026-04-11T10:12:17Z</time></trkpt><trkpt lat="44.898094146050276" lon="8.206347285473486"><ele>124.0</ele><time>2026-04-11T10:12:19Z</time></trkpt><trkpt lat="44.89807223186898" lon="8.206430862165533"><ele>123.80000000000001</ele><time>2026-04-11T10:12:25Z</time></trkpt><trkpt lat="44.89811741353796" lon="8.206535454901168"><ele>123.60000000000001</ele><time>2026-04-11T10:12:28Z</time></trkpt><trkpt lat="44.89815740356205" lon="8.206644554658938"><ele>123.4</ele><time>2026-04-11T10:12:30Z</time></trkpt><trkpt lat="44.89821769803361" lon="8.206748249498297"><ele>123.2</ele><time>2026-04-11T10:12:32Z</time></trkpt><trkpt lat="44.89826728342385" lon="8.206862123858471"><ele>123.0</ele><time>2026-04-11T10:12:34Z</time></trkpt><trkpt lat="44.89834116871267" lon="8.206946201648902"><ele>123.0</ele><time>2026-04-11T10:12:36Z</time></trkpt><trkpt lat="44.89839953657647" lon="8.207039093412538"><ele>123.0</ele><time>2026-04-11T10:12:39Z</time></trkpt><trkpt lat="44.89846171761519" lon="8.207082647950928"><ele>123.0</ele><time>2026-04-11T10:12:41Z</time></trkpt><trkpt lat="44.89850119429033" lon="8.207157089551693"><ele>123.0</ele><time>2026-04-11T10:12:43Z</time></trkpt><trkpt lat="44.89851683451845" lon="8.20727859429224"><ele>123.0</ele><time>2026-04-11T10:12:45Z</time></trkpt><trkpt lat="44.898565851991144" lon="8.207368846526354"><ele>123.0</ele><time>2026-04-11T10:12:47Z</time></trkpt><trkpt lat="44.89860486032609" lon="8.207451730048854"><ele>123.0</ele><time>2026-04-11T10:12:50Z</time></trkpt><trkpt lat="44.89863690443659" lon="8.207532813616066"><ele>123.0</ele><time>2026-04-11T10:12:52Z</time></trkpt><trkpt lat="44.89865136952159" lon="8.207619596021432"><ele>123.0</ele><time>2026-04-11T10:12:54Z</time></trkpt><trkpt lat="44.8986099068512" lon="8.207730891400576"><ele>123.0</ele><time>2026-04-11T10:12:57Z</time></trkpt><trkpt lat="44.89856021136641" lon="8.207831497092878"><ele>123.0</ele><time>2026-04-11T10:13:00Z</time></trkpt><trkpt lat="44.89848940427562" lon="8.207870304533582"><ele>123.0</ele><time>2026-04-11T10:13:03.999Z</time></trkpt><trkpt lat="44.89841652205344" lon="8.207863076559242"><ele>122.66666666666667</ele><time>2026-04-11T10:13:08.999Z</time></trkpt><trkpt lat="44.898368969943704" lon="8.207778295021356"><ele>122.33333333333334</ele><time>2026-04-11T10:13:10.999Z</time></trkpt><trkpt lat="44.898314181844455" lon="8.207700140270498"><ele>122.0</ele><time>2026-04-11T10:13:13.999Z</time></trkpt><trkpt lat="44.898278859709244" lon="8.207606406498591"><ele>121.66666666666667</ele><time>2026-04-11T10:13:16.999Z</time></trkpt><trkpt lat="44.89824196107243" lon="8.207506891278785"><ele>121.33333333333334</ele><time>2026-04-11T10:13:19.999Z</time></trkpt><trkpt lat="44.898178903553024" lon="8.207412729423275"><ele>121.0</ele><time>2026-04-11T10:13:23.999Z</time></trkpt><trkpt lat="44.89812589078965" lon="8.20736083834346"><ele>121.4</ele><time>2026-04-11T10:13:26.999Z</time></trkpt><trkpt lat="44.89805482893525" lon="8.207260467498624"><ele>121.8</ele><time>2026-04-11T10:13:29.999Z</time></trkpt><trkpt lat="44.89798819187889" lon="8.20715784162738"><ele>122.20000000000002</ele><time>2026-04-11T10:13:31.999Z</time></trkpt><trkpt lat="44.89791600778167" lon="8.207032184240388"><ele>122.60000000000001</ele><time>2026-04-11T10:13:33.999Z</time></trkpt><trkpt lat="44.897843148727205" lon="8.206939176229685"><ele>123.0</ele><time>2026-04-11T10:13:35.999Z</time></trkpt><trkpt lat="44.89776649177242" lon="8.206895468933226"><ele>123.0</ele><time>2026-04-11T10:13:37.999Z</time></trkpt><trkpt lat="44.89768252117882" lon="8.206859483935151"><ele>123.0</ele><time>2026-04-11T10:13:39.999Z</time></trkpt><trkpt lat="44.89757938809878" lon="8.206877094610437"><ele>123.0</ele><time>2026-04-11T10:13:41.999Z</time></trkpt><trkpt lat="44.89749960155108" lon="8.206910062115135"><ele>123.0</ele><time>2026-04-11T10:13:44Z</time></trkpt><trkpt lat="44.89742492094874" lon="8.20690725094107"><ele>123.0</ele><time>2026-04-11T10:13:45Z</time></trkpt><trkpt lat="44.89736357870288" lon="8.206954413090871"><ele>123.0</ele><time>2026-04-11T10:13:46Z</time></trkpt><trkpt lat="44.89730772329115" lon="8.206995803087372"><ele>122.66666666666667</ele><time>2026-04-11T10:13:47Z</time></trkpt><trkpt lat="44.897252049429284" lon="8.20703845679694"><ele>122.33333333333334</ele><time>2026-04-11T10:13:48Z</time></trkpt><trkpt lat="44.89715085331573" lon="8.207080949973228"><ele>122.0</ele><time>2026-04-11T10:13:50Z</time></trkpt><trkpt lat="44.89708364717924" lon="8.207105581452325"><ele>121.66666666666667</ele><time>2026-04-11T10:13:51Z</time></trkpt><trkpt lat="44.896986215517266" lon="8.20714248473915"><ele>121.33333333333334</ele><time>2026-04-11T10:13:53Z</time></trkpt><trkpt lat="44.89691350702002" lon="8.207205967785775"><ele>121.0</ele><time>2026-04-11T10:13:55Z</time></trkpt><trkpt lat="44.89682311617769" lon="8.207262456555426"><ele>121.0</ele><time>2026-04-11T10:13:56Z</time></trkpt><trkpt lat="44.89676261075188" lon="8.207300018502009"><ele>121.0</ele><time>2026-04-11T10:13:57Z</time></trkpt><trkpt lat="44.89667807979856" lon="8.207332502769562"><ele>121.0</ele><time>2026-04-11T10:13:59Z</time></trkpt><trkpt lat="44.89652849517226" lon="8.20741461129479"><ele>121.0</ele><time>2026-04-11T10:14:01Z</time></trkpt><trkpt lat="44.89647191370442" lon="8.207463894371722"><ele>121.0</ele><time>2026-04-11T10:14:02Z</time></trkpt><trkpt lat="44.89638904191631" lon="8.207517486744727"><ele>121.0</ele><time>2026-04-11T10:14:04Z</time></trkpt><trkpt lat="44.89631677226257" lon="8.207593686958798"><ele>121.0</ele><time>2026-04-11T10:14:06Z</time></trkpt><trkpt lat="44.89628828986648" lon="8.20771444740665"><ele>121.0</ele><time>2026-04-11T10:14:08Z</time></trkpt><trkpt lat="44.89631294808229" lon="8.207860502991865"><ele>121.0</ele><time>2026-04-11T10:14:10Z</time></trkpt><trkpt lat="44.89633754094836" lon="8.207987127971604"><ele>121.0</ele><time>2026-04-11T10:14:12Z</time></trkpt><trkpt lat="44.896352001262215" lon="8.208113737155834"><ele>120.19999999999999</ele><time>2026-04-11T10:14:14Z</time></trkpt><trkpt lat="44.896352460332196" lon="8.208230578970616"><ele>119.39999999999999</ele><time>2026-04-11T10:14:16Z</time></trkpt><trkpt lat="44.89634553486579" lon="8.208368623876687"><ele>118.6</ele><time>2026-04-11T10:14:18Z</time></trkpt><trkpt lat="44.8963503576289" lon="8.208515076634065"><ele>117.8</ele><time>2026-04-11T10:14:20Z</time></trkpt><trkpt lat="44.89636886902881" lon="8.208660522334036"><ele>117.0</ele><time>2026-04-11T10:14:22Z</time></trkpt><trkpt lat="44.896380573757895" lon="8.208793222495359"><ele>117.0</ele><time>2026-04-11T10:14:24Z</time></trkpt><trkpt lat="44.89640275358885" lon="8.208927980089983"><ele>117.0</ele><time>2026-04-11T10:14:26Z</time></trkpt><trkpt lat="44.896420348828755" lon="8.209053181580703"><ele>117.0</ele><time>2026-04-11T10:14:28Z</time></trkpt><trkpt lat="44.896431381381845" lon="8.209168716973213"><ele>117.0</ele><time>2026-04-11T10:14:30Z</time></trkpt><trkpt lat="44.89641085352286" lon="8.209281986627813"><ele>117.0</ele><time>2026-04-11T10:14:32Z</time></trkpt><trkpt lat="44.8963490132771" lon="8.209356163029641"><ele>117.0</ele><time>2026-04-11T10:14:34Z</time></trkpt><trkpt lat="44.89626900038618" lon="8.209398081012097"><ele>117.0</ele><time>2026-04-11T10:14:36Z</time></trkpt><trkpt lat="44.896192883437166" lon="8.209417204100033"><ele>117.0</ele><time>2026-04-11T10:14:38Z</time></trkpt><trkpt lat="44.896113368162844" lon="8.209446122032633"><ele>117.0</ele><time>2026-04-11T10:14:40Z</time></trkpt><trkpt lat="44.89604370760059" lon="8.209466558175382"><ele>117.0</ele><time>2026-04-11T10:14:42Z</time></trkpt><trkpt lat="44.895969761226674" lon="8.209489627752259"><ele>117.0</ele><time>2026-04-11T10:14:44Z</time></trkpt><trkpt lat="44.89589251405932" lon="8.209516222306446"><ele>117.0</ele><time>2026-04-11T10:14:46Z</time></trkpt><trkpt lat="44.89581504470979" lon="8.209534777937062"><ele>117.5</ele><time>2026-04-11T10:14:48Z</time></trkpt><trkpt lat="44.8957482184549" lon="8.209552258675782"><ele>118.0</ele><time>2026-04-11T10:14:50Z</time></trkpt><trkpt lat="44.89567198214953" lon="8.20956832233959"><ele>118.5</ele><time>2026-04-11T10:14:52Z</time></trkpt><trkpt lat="44.89559610974993" lon="8.209581602874149"><ele>119.0</ele><time>2026-04-11T10:14:54Z</time></trkpt><trkpt lat="44.89552627289454" lon="8.209595044018606"><ele>119.5</ele><time>2026-04-11T10:14:56Z</time></trkpt><trkpt lat="44.89544534206606" lon="8.209615431244426"><ele>120.0</ele><time>2026-04-11T10:14:57.999Z</time></trkpt><trkpt lat="44.89536390315583" lon="8.209632794641072"><ele>120.0</ele><time>2026-04-11T10:14:59.999Z</time></trkpt><trkpt lat="44.89528693101876" lon="8.209646711376598"><ele>120.0</ele><time>2026-04-11T10:15:01.999Z</time></trkpt><trkpt lat="44.89518310390291" lon="8.209667937041369"><ele>120.0</ele><time>2026-04-11T10:15:03.999Z</time></trkpt><trkpt lat="44.89508080041607" lon="8.209692877032449"><ele>120.0</ele><time>2026-04-11T10:15:05.999Z</time></trkpt><trkpt lat="44.89497074800749" lon="8.209721203179999"><ele>120.0</ele><time>2026-04-11T10:15:07.999Z</time></trkpt><trkpt lat="44.89490340710593" lon="8.20973699689821"><ele>119.71428571428572</ele><time>2026-04-11T10:15:08.999Z</time></trkpt><trkpt lat="44.894838361187055" lon="8.209753810500706"><ele>119.42857142857142</ele><time>2026-04-11T10:15:09.999Z</time></trkpt><trkpt lat="44.89477354095058" lon="8.209763432665452"><ele>119.14285714285714</ele><time>2026-04-11T10:15:10.999Z</time></trkpt><trkpt lat="44.89469834016377" lon="8.209778662576792"><ele>118.85714285714286</ele><time>2026-04-11T10:15:11.999Z</time></trkpt><trkpt lat="44.894630568882036" lon="8.209803909711614"><ele>118.57142857142858</ele><time>2026-04-11T10:15:12.999Z</time></trkpt><trkpt lat="44.8945568860631" lon="8.209819138951332"><ele>118.28571428571428</ele><time>2026-04-11T10:15:13.999Z</time></trkpt><trkpt lat="44.89447945667209" lon="8.209845730130533"><ele>118.0</ele><time>2026-04-11T10:15:14.999Z</time></trkpt><trkpt lat="44.89440538588498" lon="8.209858092196988"><ele>118.0</ele><time>2026-04-11T10:15:15.999Z</time></trkpt><trkpt lat="44.89433753081191" lon="8.209883095174492"><ele>118.0</ele><time>2026-04-11T10:15:16.999Z</time></trkpt><trkpt lat="44.8942642272797" lon="8.209905385804014"><ele>118.0</ele><time>2026-04-11T10:15:17.999Z</time></trkpt><trkpt lat="44.89418852274798" lon="8.209928309915057"><ele>118.0</ele><time>2026-04-11T10:15:18.999Z</time></trkpt><trkpt lat="44.894110970407674" lon="8.209947330089138"><ele>118.0</ele><time>2026-04-11T10:15:19.999Z</time></trkpt><trkpt lat="44.89403348737266" lon="8.20996503935839"><ele>118.0</ele><time>2026-04-11T10:15:20.999Z</time></trkpt><trkpt lat="44.893973045888124" lon="8.20999580878132"><ele>118.0</ele><time>2026-04-11T10:15:21.999Z</time></trkpt><trkpt lat="44.893880753542746" lon="8.210035917205417"><ele>118.16666666666667</ele><time>2026-04-11T10:15:23.999Z</time></trkpt><trkpt lat="44.89381754901286" lon="8.210063590844467"><ele>118.33333333333334</ele><time>2026-04-11T10:15:24.999Z</time></trkpt><trkpt lat="44.89375282713903" lon="8.210066338752712"><ele>118.5</ele><time>2026-04-11T10:15:25.999Z</time></trkpt><trkpt lat="44.893685998051545" lon="8.210094849964687"><ele>118.66666666666666</ele><time>2026-04-11T10:15:26.999Z</time></trkpt><trkpt lat="44.89356463157724" lon="8.210101594543147"><ele>118.83333333333333</ele><time>2026-04-11T10:15:28.999Z</time></trkpt><trkpt lat="44.89349576226362" lon="8.210118036758185"><ele>119.0</ele><time>2026-04-11T10:15:29.999Z</time></trkpt><trkpt lat="44.893412892083866" lon="8.210137356773945"><ele>119.16666666666666</ele><time>2026-04-11T10:15:31.999Z</time></trkpt><trkpt lat="44.89333742444587" lon="8.210155168461547"><ele>119.33333333333333</ele><time>2026-04-11T10:15:32.999Z</time></trkpt><trkpt lat="44.893267634356015" lon="8.210171639777194"><ele>119.5</ele><time>2026-04-11T10:15:33.999Z</time></trkpt><trkpt lat="44.89315094422553" lon="8.21020023365115"><ele>119.66666666666666</ele><time>2026-04-11T10:15:35.999Z</time></trkpt><trkpt lat="44.89308209337425" lon="8.21021683651035"><ele>119.83333333333333</ele><time>2026-04-11T10:15:36.999Z</time></trkpt><trkpt lat="44.89301999629716" lon="8.210231810731237"><ele>120.0</ele><time>2026-04-11T10:15:37.999Z</time></trkpt><trkpt lat="44.89294033395119" lon="8.210251206794393"><ele>120.0</ele><time>2026-04-11T10:15:39.999Z</time></trkpt><trkpt lat="44.89283339781802" lon="8.210277521180966"><ele>120.0</ele><time>2026-04-11T10:15:41.999Z</time></trkpt><trkpt lat="44.892758691231286" lon="8.210295904650854"><ele>120.0</ele><time>2026-04-11T10:15:43.999Z</time></trkpt><trkpt lat="44.892676178552676" lon="8.2103162089999"><ele>120.0</ele><time>2026-04-11T10:15:46.999Z</time></trkpt><trkpt lat="44.89259443368355" lon="8.210352090361441"><ele>120.0</ele><time>2026-04-11T10:15:50Z</time></trkpt><trkpt lat="44.892527083321994" lon="8.210369735760885"><ele>120.0</ele><time>2026-04-11T10:15:52Z</time></trkpt><trkpt lat="44.8924643344381" lon="8.210377060367712"><ele>119.8</ele><time>2026-04-11T10:15:54Z</time></trkpt><trkpt lat="44.89237643617624" lon="8.21036395523677"><ele>119.6</ele><time>2026-04-11T10:15:58Z</time></trkpt><trkpt lat="44.89227864849029" lon="8.210292989663335"><ele>119.4</ele><time>2026-04-11T10:16:01Z</time></trkpt><trkpt lat="44.89218808861426" lon="8.210305428873513"><ele>119.2</ele><time>2026-04-11T10:16:03Z</time></trkpt><trkpt lat="44.89209744391177" lon="8.210401882871716"><ele>119.0</ele><time>2026-04-11T10:16:05Z</time></trkpt><trkpt lat="44.891998690072064" lon="8.210473969534517"><ele>119.0</ele><time>2026-04-11T10:16:07Z</time></trkpt><trkpt lat="44.89193477082282" lon="8.21048056119372"><ele>119.0</ele><time>2026-04-11T10:16:08Z</time></trkpt><trkpt lat="44.89182497068745" lon="8.210510171395166"><ele>119.0</ele><time>2026-04-11T10:16:10Z</time></trkpt><trkpt lat="44.891711418655476" lon="8.210538365690294"><ele>119.0</ele><time>2026-04-11T10:16:12Z</time></trkpt><trkpt lat="44.89158987126199" lon="8.210560656298151"><ele>119.0</ele><time>2026-04-11T10:16:14Z</time></trkpt><trkpt lat="44.89149177499171" lon="8.21057945644852"><ele>118.99999999999999</ele><time>2026-04-11T10:16:16Z</time></trkpt><trkpt lat="44.89137882066417" lon="8.210583889108303"><ele>119.0</ele><time>2026-04-11T10:16:18Z</time></trkpt><trkpt lat="44.891308078717394" lon="8.210604055085305"><ele>119.0</ele><time>2026-04-11T10:16:19Z</time></trkpt><trkpt lat="44.89124208663587" lon="8.210619578600282"><ele>119.0</ele><time>2026-04-11T10:16:20Z</time></trkpt><trkpt lat="44.89111338131445" lon="8.210648484737684"><ele>118.99999999999999</ele><time>2026-04-11T10:16:22Z</time></trkpt><trkpt lat="44.89105093583603" lon="8.2106692653016"><ele>119.0</ele><time>2026-04-11T10:16:23Z</time></trkpt><trkpt lat="44.89098824809844" lon="8.21068350050825"><ele>119.0</ele><time>2026-04-11T10:16:24Z</time></trkpt><trkpt lat="44.89086395212461" lon="8.210715635593607"><ele>119.0</ele><time>2026-04-11T10:16:26Z</time></trkpt><trkpt lat="44.89073416834445" lon="8.210756110144013"><ele>119.0</ele><time>2026-04-11T10:16:28Z</time></trkpt><trkpt lat="44.89062236754648" lon="8.210781611488922"><ele>119.0</ele><time>2026-04-11T10:16:30Z</time></trkpt><trkpt lat="44.8905175092353" lon="8.210792245790254"><ele>119.0</ele><time>2026-04-11T10:16:32Z</time></trkpt><trkpt lat="44.89040984207519" lon="8.210833549396291"><ele>119.0</ele><time>2026-04-11T10:16:34Z</time></trkpt><trkpt lat="44.890331250431984" lon="8.210875551602088"><ele>119.0</ele><time>2026-04-11T10:16:36Z</time></trkpt><trkpt lat="44.8902345671023" lon="8.210900404369207"><ele>119.0</ele><time>2026-04-11T10:16:38Z</time></trkpt><trkpt lat="44.89013334054123" lon="8.210929634192773"><ele>119.0</ele><time>2026-04-11T10:16:40Z</time></trkpt><trkpt lat="44.89000444067086" lon="8.21095294685316"><ele>118.6</ele><time>2026-04-11T10:16:42Z</time></trkpt><trkpt lat="44.889906534995056" lon="8.210975181047191"><ele>118.2</ele><time>2026-04-11T10:16:44Z</time></trkpt><trkpt lat="44.8897993168603" lon="8.211004766377911"><ele>117.79999999999998</ele><time>2026-04-11T10:16:46Z</time></trkpt><trkpt lat="44.889683720222344" lon="8.211025665515608"><ele>117.39999999999999</ele><time>2026-04-11T10:16:48Z</time></trkpt><trkpt lat="44.8895713443894" lon="8.211058165726367"><ele>117.0</ele><time>2026-04-11T10:16:50Z</time></trkpt><trkpt lat="44.88946165475534" lon="8.211072541428525"><ele>117.0</ele><time>2026-04-11T10:16:52Z</time></trkpt><trkpt lat="44.889357134424074" lon="8.211108862837964"><ele>116.99999999999999</ele><time>2026-04-11T10:16:53.999Z</time></trkpt><trkpt lat="44.88925459665524" lon="8.211128708244779"><ele>116.99999999999999</ele><time>2026-04-11T10:16:55.999Z</time></trkpt><trkpt lat="44.88913934404656" lon="8.211154307189751"><ele>117.0</ele><time>2026-04-11T10:16:57.999Z</time></trkpt><trkpt lat="44.889034244811576" lon="8.21118714865427"><ele>117.0</ele><time>2026-04-11T10:16:59.999Z</time></trkpt><trkpt lat="44.888921949032635" lon="8.211227183089122"><ele>117.0</ele><time>2026-04-11T10:17:01.999Z</time></trkpt><trkpt lat="44.888831582392264" lon="8.211242792979812"><ele>116.99999999999999</ele><time>2026-04-11T10:17:03.999Z</time></trkpt><trkpt lat="44.88873763679909" lon="8.211262317440637"><ele>116.99999999999999</ele><time>2026-04-11T10:17:05.999Z</time></trkpt><trkpt lat="44.88866004695513" lon="8.211289791581699"><ele>117.0</ele><time>2026-04-11T10:17:07.999Z</time></trkpt><trkpt lat="44.888554698443656" lon="8.211285826571673"><ele>117.0</ele><time>2026-04-11T10:17:09.999Z</time></trkpt><trkpt lat="44.888468159566216" lon="8.211281143665492"><ele>117.33333333333333</ele><time>2026-04-11T10:17:11.999Z</time></trkpt><trkpt lat="44.888397691108075" lon="8.211289698009685"><ele>117.66666666666666</ele><time>2026-04-11T10:17:13.999Z</time></trkpt><trkpt lat="44.88833111061481" lon="8.211330542815006"><ele>118.0</ele><time>2026-04-11T10:17:22.999Z</time></trkpt><trkpt lat="44.88826079673305" lon="8.211365275985838"><ele>118.33333333333333</ele><time>2026-04-11T10:17:26.999Z</time></trkpt><trkpt lat="44.888184036722926" lon="8.211406167987219"><ele>118.66666666666666</ele><time>2026-04-11T10:17:28.999Z</time></trkpt><trkpt lat="44.88810915874167" lon="8.211416360807382"><ele>119.0</ele><time>2026-04-11T10:17:30.999Z</time></trkpt><trkpt lat="44.88803195280959" lon="8.211427075166068"><ele>118.99999999999999</ele><time>2026-04-11T10:17:32.999Z</time></trkpt><trkpt lat="44.88795047717366" lon="8.211444187790246"><ele>119.0</ele><time>2026-04-11T10:17:35.999Z</time></trkpt><trkpt lat="44.88786892267741" lon="8.211474887796296"><ele>119.0</ele><time>2026-04-11T10:17:37.999Z</time></trkpt><trkpt lat="44.88777713695259" lon="8.211485503160851"><ele>119.0</ele><time>2026-04-11T10:17:39.999Z</time></trkpt><trkpt lat="44.88768279280057" lon="8.211512282802376"><ele>118.99999999999999</ele><time>2026-04-11T10:17:41.999Z</time></trkpt><trkpt lat="44.887595214798985" lon="8.211544212966086"><ele>119.0</ele><time>2026-04-11T10:17:43.999Z</time></trkpt><trkpt lat="44.88751146086432" lon="8.211574499386932"><ele>118.2</ele><time>2026-04-11T10:17:45.999Z</time></trkpt><trkpt lat="44.887412187849954" lon="8.211605030909995"><ele>117.4</ele><time>2026-04-11T10:17:47.999Z</time></trkpt><trkpt lat="44.887317068322155" lon="8.211625380042541"><ele>116.6</ele><time>2026-04-11T10:17:49.999Z</time></trkpt><trkpt lat="44.88722688047346" lon="8.211629237434261"><ele>115.8</ele><time>2026-04-11T10:17:51.999Z</time></trkpt><trkpt lat="44.88713458214296" lon="8.211636957894955"><ele>115.0</ele><time>2026-04-11T10:17:53.999Z</time></trkpt><trkpt lat="44.887036050020605" lon="8.211646156566518"><ele>115.00000000000001</ele><time>2026-04-11T10:17:56Z</time></trkpt><trkpt lat="44.88697221586355" lon="8.211559440801032"><ele>115.0</ele><time>2026-04-11T10:17:58Z</time></trkpt><trkpt lat="44.886880320939184" lon="8.211497292499264"><ele>115.0</ele><time>2026-04-11T10:18:00Z</time></trkpt><trkpt lat="44.88681458488508" lon="8.21151612839895"><ele>115.0</ele><time>2026-04-11T10:18:01Z</time></trkpt><trkpt lat="44.88676367738138" lon="8.21157110446774"><ele>115.00000000000001</ele><time>2026-04-11T10:18:02Z</time></trkpt><trkpt lat="44.88670170122952" lon="8.211699546912161"><ele>115.0</ele><time>2026-04-11T10:18:04Z</time></trkpt><trkpt lat="44.88662576106318" lon="8.211639845535478"><ele>115.0</ele><time>2026-04-11T10:18:05Z</time></trkpt><trkpt lat="44.886603730201855" lon="8.211770649450312"><ele>115.0</ele><time>2026-04-11T10:18:06Z</time></trkpt><trkpt lat="44.88653075827931" lon="8.211780491427039"><ele>115.0</ele><time>2026-04-11T10:18:07Z</time></trkpt><trkpt lat="44.8864241018505" lon="8.211794904351871"><ele>115.0</ele><time>2026-04-11T10:18:09Z</time></trkpt><trkpt lat="44.88631711105443" lon="8.211814925185072"><ele>115.0</ele><time>2026-04-11T10:18:11Z</time></trkpt><trkpt lat="44.88622312667854" lon="8.211841071303606"><ele>115.0</ele><time>2026-04-11T10:18:13Z</time></trkpt><trkpt lat="44.886115914525114" lon="8.21187510280692"><ele>115.0</ele><time>2026-04-11T10:18:15Z</time></trkpt><trkpt lat="44.88602530883268" lon="8.211907427039202"><ele>115.0</ele><time>2026-04-11T10:18:17Z</time></trkpt><trkpt lat="44.88593403644418" lon="8.211943466504593"><ele>115.0</ele><time>2026-04-11T10:18:19Z</time></trkpt><trkpt lat="44.88584727085548" lon="8.211986237363426"><ele>115.0</ele><time>2026-04-11T10:18:21Z</time></trkpt><trkpt lat="44.88575703800094" lon="8.211995436807017"><ele>114.6</ele><time>2026-04-11T10:18:23Z</time></trkpt><trkpt lat="44.88565381386941" lon="8.212016838924146"><ele>114.2</ele><time>2026-04-11T10:18:25Z</time></trkpt><trkpt lat="44.8855708922943" lon="8.212032763622595"><ele>113.80000000000001</ele><time>2026-04-11T10:18:27Z</time></trkpt><trkpt lat="44.88549073411059" lon="8.212053493078564"><ele>113.4</ele><time>2026-04-11T10:18:29Z</time></trkpt><trkpt lat="44.88539190716871" lon="8.212084013744834"><ele>113.0</ele><time>2026-04-11T10:18:31Z</time></trkpt><trkpt lat="44.8852841194622" lon="8.2121056376337"><ele>113.0</ele><time>2026-04-11T10:18:33Z</time></trkpt><trkpt lat="44.885175627633835" lon="8.212137456622244"><ele>113.00000000000001</ele><time>2026-04-11T10:18:35Z</time></trkpt><trkpt lat="44.885079626490864" lon="8.212161894836239"><ele>113.00000000000001</ele><time>2026-04-11T10:18:37Z</time></trkpt><trkpt lat="44.88497519457516" lon="8.212187592432262"><ele>113.0</ele><time>2026-04-11T10:18:39Z</time></trkpt><trkpt lat="44.88487300199672" lon="8.212212371626167"><ele>113.0</ele><time>2026-04-11T10:18:41Z</time></trkpt><trkpt lat="44.88475997921245" lon="8.212233706911176"><ele>113.0</ele><time>2026-04-11T10:18:43Z</time></trkpt><trkpt lat="44.884670516772104" lon="8.212256889465204"><ele>113.00000000000001</ele><time>2026-04-11T10:18:45Z</time></trkpt><trkpt lat="44.884556841426516" lon="8.212290690653742"><ele>113.00000000000001</ele><time>2026-04-11T10:18:47Z</time></trkpt><trkpt lat="44.88445056230685" lon="8.212313648205768"><ele>113.0</ele><time>2026-04-11T10:18:49Z</time></trkpt><trkpt lat="44.88434514677098" lon="8.212338301866067"><ele>113.0</ele><time>2026-04-11T10:18:51Z</time></trkpt><trkpt lat="44.88425367265202" lon="8.212367962237725"><ele>113.0</ele><time>2026-04-11T10:18:53Z</time></trkpt><trkpt lat="44.88414257501007" lon="8.212394438490962"><ele>113.00000000000001</ele><time>2026-04-11T10:18:55Z</time></trkpt><trkpt lat="44.88407512425075" lon="8.212404750793874"><ele>113.00000000000001</ele><time>2026-04-11T10:18:56Z</time></trkpt><trkpt lat="44.88394782221658" lon="8.212434464012722"><ele>113.0</ele><time>2026-04-11T10:18:57.999Z</time></trkpt><trkpt lat="44.88388504116797" lon="8.212454691361701"><ele>113.0</ele><time>2026-04-11T10:18:58.999Z</time></trkpt><trkpt lat="44.883779459792905" lon="8.212480367172006"><ele>113.0</ele><time>2026-04-11T10:19:00.999Z</time></trkpt><trkpt lat="44.88368897532046" lon="8.212502924202127"><ele>113.00000000000001</ele><time>2026-04-11T10:19:02.999Z</time></trkpt><trkpt lat="44.88362586629972" lon="8.212507909326725"><ele>113.00000000000001</ele><time>2026-04-11T10:19:04.999Z</time></trkpt><trkpt lat="44.88355029554828" lon="8.212796663051304"><ele>113.0</ele><time>2026-04-11T10:19:15.999Z</time></trkpt><trkpt lat="44.88353911719819" lon="8.212887276339538"><ele>113.0</ele><time>2026-04-11T10:19:16.999Z</time></trkpt><trkpt lat="44.88353292040639" lon="8.212982928154426"><ele>113.0</ele><time>2026-04-11T10:19:17.999Z</time></trkpt><trkpt lat="44.88350915306408" lon="8.213065266695724"><ele>113.00000000000001</ele><time>2026-04-11T10:19:18.999Z</time></trkpt><trkpt lat="44.88352021072274" lon="8.21322294963729"><ele>113.00000000000001</ele><time>2026-04-11T10:19:20.999Z</time></trkpt><trkpt lat="44.88353549911211" lon="8.213390313729903"><ele>113.0</ele><time>2026-04-11T10:19:22.999Z</time></trkpt><trkpt lat="44.8835142080812" lon="8.213528664477023"><ele>113.0</ele><time>2026-04-11T10:19:24.999Z</time></trkpt><trkpt lat="44.88349004648031" lon="8.213683313313247"><ele>113.2</ele><time>2026-04-11T10:19:26.999Z</time></trkpt><trkpt lat="44.883473427560396" lon="8.213817901289362"><ele>113.4</ele><time>2026-04-11T10:19:28.999Z</time></trkpt><trkpt lat="44.8834620590051" lon="8.213960509352063"><ele>113.60000000000001</ele><time>2026-04-11T10:19:30.999Z</time></trkpt><trkpt lat="44.88346140221235" lon="8.214119826633627"><ele>113.80000000000001</ele><time>2026-04-11T10:19:32.999Z</time></trkpt><trkpt lat="44.883466938173484" lon="8.21426811075062"><ele>114.0</ele><time>2026-04-11T10:19:34.999Z</time></trkpt><trkpt lat="44.88347708444181" lon="8.214412091009121"><ele>114.0</ele><time>2026-04-11T10:19:36.999Z</time></trkpt><trkpt lat="44.88349206490502" lon="8.214539030698882"><ele>114.0</ele><time>2026-04-11T10:19:38.999Z</time></trkpt><trkpt lat="44.883506131541836" lon="8.21465822436744"><ele>114.0</ele><time>2026-04-11T10:19:40.999Z</time></trkpt><trkpt lat="44.88353760781825" lon="8.214818732693109"><ele>114.0</ele><time>2026-04-11T10:19:42.999Z</time></trkpt><trkpt lat="44.88357373896814" lon="8.214983333180752"><ele>114.0</ele><time>2026-04-11T10:19:44.999Z</time></trkpt><trkpt lat="44.883601864657265" lon="8.215136422798139"><ele>113.80000000000001</ele><time>2026-04-11T10:19:46.999Z</time></trkpt><trkpt lat="44.883551539795334" lon="8.215209043033225"><ele>113.60000000000001</ele><time>2026-04-11T10:19:47.999Z</time></trkpt><trkpt lat="44.8835355426299" lon="8.215296759377713"><ele>113.4</ele><time>2026-04-11T10:19:48.999Z</time></trkpt><trkpt lat="44.88350424242858" lon="8.215460270142051"><ele>113.2</ele><time>2026-04-11T10:19:50.999Z</time></trkpt><trkpt lat="44.883476265318734" lon="8.215614291491883"><ele>113.0</ele><time>2026-04-11T10:19:52.999Z</time></trkpt><trkpt lat="44.883452066092666" lon="8.215777413683634"><ele>113.0</ele><time>2026-04-11T10:19:54.999Z</time></trkpt><trkpt lat="44.88344308051209" lon="8.215866136708046"><ele>113.00000000000001</ele><time>2026-04-11T10:19:55.999Z</time></trkpt><trkpt lat="44.88342957138326" lon="8.21601983959446"><ele>113.00000000000001</ele><time>2026-04-11T10:19:57.999Z</time></trkpt><trkpt lat="44.88342062412084" lon="8.216164113696584"><ele>113.0</ele><time>2026-04-11T10:19:59.999Z</time></trkpt><trkpt lat="44.88341091052899" lon="8.216297142329001"><ele>113.0</ele><time>2026-04-11T10:20:02Z</time></trkpt><trkpt lat="44.88339967004335" lon="8.216438534086132"><ele>113.4</ele><time>2026-04-11T10:20:04Z</time></trkpt><trkpt lat="44.88338538648109" lon="8.216570579591465"><ele>113.80000000000001</ele><time>2026-04-11T10:20:06Z</time></trkpt><trkpt lat="44.883363508554645" lon="8.216706081850928"><ele>114.2</ele><time>2026-04-11T10:20:08Z</time></trkpt><trkpt lat="44.88333055902264" lon="8.216847024321421"><ele>114.6</ele><time>2026-04-11T10:20:10Z</time></trkpt><trkpt lat="44.883283890474914" lon="8.216993616473662"><ele>115.0</ele><time>2026-04-11T10:20:12Z</time></trkpt><trkpt lat="44.88323851742881" lon="8.217128702953392"><ele>115.0</ele><time>2026-04-11T10:20:14Z</time></trkpt><trkpt lat="44.883187913398785" lon="8.217267431409361"><ele>115.0</ele><time>2026-04-11T10:20:16Z</time></trkpt><trkpt lat="44.883144824172405" lon="8.217409388793028"><ele>115.0</ele><time>2026-04-11T10:20:18Z</time></trkpt><trkpt lat="44.88309486825146" lon="8.21754197680932"><ele>115.0</ele><time>2026-04-11T10:20:20Z</time></trkpt><trkpt lat="44.88303626200148" lon="8.217664698871019"><ele>115.0</ele><time>2026-04-11T10:20:22Z</time></trkpt><trkpt lat="44.88299011806675" lon="8.21781427166382"><ele>115.0</ele><time>2026-04-11T10:20:24Z</time></trkpt><trkpt lat="44.8829635568599" lon="8.217959086711835"><ele>115.0</ele><time>2026-04-11T10:20:26Z</time></trkpt><trkpt lat="44.88292114252752" lon="8.21810921397226"><ele>115.0</ele><time>2026-04-11T10:20:28Z</time></trkpt><trkpt lat="44.88286176831894" lon="8.218259507164651"><ele>115.0</ele><time>2026-04-11T10:20:30Z</time></trkpt><trkpt lat="44.8828367096981" lon="8.218417585940035"><ele>115.0</ele><time>2026-04-11T10:20:32Z</time></trkpt><trkpt lat="44.882790851737255" lon="8.218579448197811"><ele>115.0</ele><time>2026-04-11T10:20:34Z</time></trkpt><trkpt lat="44.88274874107441" lon="8.218729651358904"><ele>115.0</ele><time>2026-04-11T10:20:36Z</time></trkpt><trkpt lat="44.88269582515973" lon="8.218882622270621"><ele>115.0</ele><time>2026-04-11T10:20:38Z</time></trkpt><trkpt lat="44.882670156858744" lon="8.219039837442711"><ele>115.25</ele><time>2026-04-11T10:20:40Z</time></trkpt><trkpt lat="44.882629919833505" lon="8.21918698303482"><ele>115.5</ele><time>2026-04-11T10:20:42Z</time></trkpt><trkpt lat="44.88258805376451" lon="8.219325837389261"><ele>115.75</ele><time>2026-04-11T10:20:44Z</time></trkpt><trkpt lat="44.88254044382768" lon="8.219478421167144"><ele>116.0</ele><time>2026-04-11T10:20:46Z</time></trkpt><trkpt lat="44.88248414810379" lon="8.219623148212003"><ele>116.5</ele><time>2026-04-11T10:20:48Z</time></trkpt><trkpt lat="44.88243783629019" lon="8.219776880540017"><ele>117.0</ele><time>2026-04-11T10:20:50Z</time></trkpt><trkpt lat="44.88237945347532" lon="8.21991917656106"><ele>117.5</ele><time>2026-04-11T10:20:52Z</time></trkpt><trkpt lat="44.882341125456705" lon="8.22007251635638"><ele>118.0</ele><time>2026-04-11T10:20:54Z</time></trkpt><trkpt lat="44.88231631216241" lon="8.220232032422029"><ele>118.0</ele><time>2026-04-11T10:20:56Z</time></trkpt><trkpt lat="44.882304376430376" lon="8.220395818156119"><ele>118.00000000000001</ele><time>2026-04-11T10:20:58Z</time></trkpt><trkpt lat="44.88230262177707" lon="8.22055504065511"><ele>118.00000000000001</ele><time>2026-04-11T10:21:00Z</time></trkpt><trkpt lat="44.88230221404645" lon="8.220649674431437"><ele>118.0</ele><time>2026-04-11T10:21:01Z</time></trkpt><trkpt lat="44.88231672271894" lon="8.220799775544483"><ele>118.0</ele><time>2026-04-11T10:21:03Z</time></trkpt><trkpt lat="44.882296845381184" lon="8.220956203437513"><ele>118.0</ele><time>2026-04-11T10:21:05Z</time></trkpt><trkpt lat="44.882291536209515" lon="8.221112110243203"><ele>118.00000000000001</ele><time>2026-04-11T10:21:06.999Z</time></trkpt><trkpt lat="44.88228684322465" lon="8.221201694569704"><ele>118.00000000000001</ele><time>2026-04-11T10:21:07.999Z</time></trkpt><trkpt lat="44.88227998768892" lon="8.221335787437798"><ele>118.0</ele><time>2026-04-11T10:21:09.999Z</time></trkpt><trkpt lat="44.88227165185052" lon="8.221498834495424"><ele>118.0</ele><time>2026-04-11T10:21:11.999Z</time></trkpt><trkpt lat="44.88226390342502" lon="8.221650392045962"><ele>117.80000000000001</ele><time>2026-04-11T10:21:13.999Z</time></trkpt><trkpt lat="44.882255685970144" lon="8.221811123590484"><ele>117.60000000000001</ele><time>2026-04-11T10:21:15.999Z</time></trkpt><trkpt lat="44.882248454931656" lon="8.22195256122261"><ele>117.39999999999999</ele><time>2026-04-11T10:21:17.999Z</time></trkpt><trkpt lat="44.88224048884304" lon="8.22210837619926"><ele>117.19999999999999</ele><time>2026-04-11T10:21:19.999Z</time></trkpt><trkpt lat="44.88223551698584" lon="8.222197856682369"><ele>117.0</ele><time>2026-04-11T10:21:22.999Z</time></trkpt><trkpt lat="44.882225693190534" lon="8.222392212707929"><ele>116.75</ele><time>2026-04-11T10:21:25.999Z</time></trkpt><trkpt lat="44.88222973220632" lon="8.222547561174734"><ele>116.5</ele><time>2026-04-11T10:21:27.999Z</time></trkpt><trkpt lat="44.882321477426" lon="8.222670499087714"><ele>116.25</ele><time>2026-04-11T10:21:29.999Z</time></trkpt><trkpt lat="44.88239149032558" lon="8.222674432335724"><ele>116.0</ele><time>2026-04-11T10:21:30.999Z</time></trkpt><trkpt lat="44.88257069138526" lon="8.222717378874925"><ele>116.0</ele><time>2026-04-11T10:21:35.999Z</time></trkpt><trkpt lat="44.882530447489245" lon="8.222984062735636"><ele>116.0</ele><time>2026-04-11T10:21:39.999Z</time></trkpt><trkpt lat="44.88252233118517" lon="8.22312714141904"><ele>116.0</ele><time>2026-04-11T10:21:41.999Z</time></trkpt><trkpt lat="44.88252615466183" lon="8.223264450699324"><ele>116.0</ele><time>2026-04-11T10:21:43.999Z</time></trkpt><trkpt lat="44.88250832334768" lon="8.223394763548471"><ele>115.99999999999999</ele><time>2026-04-11T10:21:45.999Z</time></trkpt><trkpt lat="44.882494620965005" lon="8.223508681520302"><ele>116.0</ele><time>2026-04-11T10:21:47.999Z</time></trkpt><trkpt lat="44.88247986179539" lon="8.223651367638995"><ele>116.0</ele><time>2026-04-11T10:21:49.999Z</time></trkpt><trkpt lat="44.882461141361986" lon="8.223737723111064"><ele>116.0</ele><time>2026-04-11T10:21:51.999Z</time></trkpt><trkpt lat="44.88242581464848" lon="8.223844750259278"><ele>115.99999999999999</ele><time>2026-04-11T10:21:53.999Z</time></trkpt><trkpt lat="44.882391407161556" lon="8.223960580541833"><ele>116.0</ele><time>2026-04-11T10:21:55.999Z</time></trkpt><trkpt lat="44.88234938508907" lon="8.22408921115582"><ele>115.99999999999999</ele><time>2026-04-11T10:21:57.999Z</time></trkpt><trkpt lat="44.882304655340924" lon="8.224183500411515"><ele>116.0</ele><time>2026-04-11T10:22:00.999Z</time></trkpt><trkpt lat="44.882266395542416" lon="8.224279182489157"><ele>116.0</ele><time>2026-04-11T10:22:02.999Z</time></trkpt><trkpt lat="44.88220438216259" lon="8.224374790997796"><ele>116.0</ele><time>2026-04-11T10:22:04.999Z</time></trkpt><trkpt lat="44.882158354295" lon="8.224460813369829"><ele>115.99999999999999</ele><time>2026-04-11T10:22:07Z</time></trkpt><trkpt lat="44.88212205534981" lon="8.224551384525117"><ele>116.0</ele><time>2026-04-11T10:22:09Z</time></trkpt><trkpt lat="44.88207138746388" lon="8.224651134779098"><ele>115.99999999999999</ele><time>2026-04-11T10:22:11Z</time></trkpt><trkpt lat="44.882020377133685" lon="8.22475553118927"><ele>116.0</ele><time>2026-04-11T10:22:13Z</time></trkpt><trkpt lat="44.88197567692605" lon="8.224843646488301"><ele>116.0</ele><time>2026-04-11T10:22:15Z</time></trkpt><trkpt lat="44.881925741881005" lon="8.224924060912555"><ele>116.0</ele><time>2026-04-11T10:22:17Z</time></trkpt><trkpt lat="44.881876975614176" lon="8.225004719084652"><ele>115.99999999999999</ele><time>2026-04-11T10:22:19Z</time></trkpt><trkpt lat="44.88182055504387" lon="8.225090801652744"><ele>116.0</ele><time>2026-04-11T10:22:21Z</time></trkpt><trkpt lat="44.8817782419287" lon="8.225179301871771"><ele>116.14285714285717</ele><time>2026-04-11T10:22:23Z</time></trkpt><trkpt lat="44.88172819982559" lon="8.225244404139707"><ele>116.28571428571429</ele><time>2026-04-11T10:22:25Z</time></trkpt><trkpt lat="44.88168200718478" lon="8.225330099886136"><ele>116.42857142857144</ele><time>2026-04-11T10:22:27Z</time></trkpt><trkpt lat="44.8816388933025" lon="8.225416461762634"><ele>116.57142857142858</ele><time>2026-04-11T10:22:29Z</time></trkpt><trkpt lat="44.88159338510326" lon="8.225501649889681"><ele>116.71428571428572</ele><time>2026-04-11T10:22:31Z</time></trkpt><trkpt lat="44.881550134237" lon="8.225585865385451"><ele>116.85714285714286</ele><time>2026-04-11T10:22:33Z</time></trkpt><trkpt lat="44.88151187148036" lon="8.225673389816457"><ele>117.0</ele><time>2026-04-11T10:22:35Z</time></trkpt><trkpt lat="44.88146072835971" lon="8.225756063667648"><ele>117.0</ele><time>2026-04-11T10:22:37Z</time></trkpt><trkpt lat="44.881414080934405" lon="8.225842715510987"><ele>117.00000000000001</ele><time>2026-04-11T10:22:39Z</time></trkpt><trkpt lat="44.88136759486837" lon="8.225920533820146"><ele>117.0</ele><time>2026-04-11T10:22:41Z</time></trkpt><trkpt lat="44.8813253623454" lon="8.225996281215709"><ele>117.0</ele><time>2026-04-11T10:22:43Z</time></trkpt><trkpt lat="44.88129034120309" lon="8.226081229732138"><ele>117.00000000000001</ele><time>2026-04-11T10:22:45Z</time></trkpt><trkpt lat="44.88125372387248" lon="8.226184439382239"><ele>117.0</ele><time>2026-04-11T10:22:47Z</time></trkpt><trkpt lat="44.88124027184813" lon="8.226280819506036"><ele>117.0</ele><time>2026-04-11T10:22:49Z</time></trkpt><trkpt lat="44.88122109159615" lon="8.226385720341234"><ele>117.16666666666667</ele><time>2026-04-11T10:22:51Z</time></trkpt><trkpt lat="44.88121094129253" lon="8.226489500165705"><ele>117.33333333333334</ele><time>2026-04-11T10:22:53Z</time></trkpt><trkpt lat="44.88120435837133" lon="8.226595870349295"><ele>117.5</ele><time>2026-04-11T10:22:55Z</time></trkpt><trkpt lat="44.881204884932984" lon="8.226719398072651"><ele>117.66666666666667</ele><time>2026-04-11T10:22:57Z</time></trkpt><trkpt lat="44.88119598745813" lon="8.226820591305058"><ele>117.83333333333334</ele><time>2026-04-11T10:22:59Z</time></trkpt><trkpt lat="44.88119223569607" lon="8.226948420302188"><ele>118.0</ele><time>2026-04-11T10:23:01Z</time></trkpt><trkpt lat="44.88116679063268" lon="8.227042530943873"><ele>118.0</ele><time>2026-04-11T10:23:05Z</time></trkpt><trkpt lat="44.881152685616684" lon="8.227159774758515"><ele>118.00000000000001</ele><time>2026-04-11T10:23:07Z</time></trkpt><trkpt lat="44.88115233772992" lon="8.227260997655806"><ele>118.00000000000001</ele><time>2026-04-11T10:23:08Z</time></trkpt><trkpt lat="44.88115062306431" lon="8.227417340335037"><ele>118.0</ele><time>2026-04-11T10:23:10Z</time></trkpt><trkpt lat="44.88114796825834" lon="8.22758708114829"><ele>118.0</ele><time>2026-04-11T10:23:12Z</time></trkpt><trkpt lat="44.88114759906337" lon="8.227737755409887"><ele>117.80000000000001</ele><time>2026-04-11T10:23:13.999Z</time></trkpt><trkpt lat="44.88113593940925" lon="8.227847545536449"><ele>117.60000000000001</ele><time>2026-04-11T10:23:17.999Z</time></trkpt><trkpt lat="44.881121131850975" lon="8.228006232375877"><ele>117.39999999999999</ele><time>2026-04-11T10:23:19.999Z</time></trkpt><trkpt lat="44.88111955930148" lon="8.228157548294998"><ele>117.19999999999999</ele><time>2026-04-11T10:23:21.999Z</time></trkpt><trkpt lat="44.88110738808965" lon="8.22830986091789"><ele>117.0</ele><time>2026-04-11T10:23:23.999Z</time></trkpt><trkpt lat="44.88111162556078" lon="8.228468149764767"><ele>117.0</ele><time>2026-04-11T10:23:25.999Z</time></trkpt><trkpt lat="44.88113466513818" lon="8.228594204208715"><ele>117.0</ele><time>2026-04-11T10:23:27.999Z</time></trkpt><trkpt lat="44.88116752787206" lon="8.228706341745944"><ele>117.0</ele><time>2026-04-11T10:23:29.999Z</time></trkpt><trkpt lat="44.881195068371476" lon="8.228802487070096"><ele>117.0</ele><time>2026-04-11T10:23:31.999Z</time></trkpt><trkpt lat="44.88123995076774" lon="8.228925483994828"><ele>117.0</ele><time>2026-04-11T10:23:34.999Z</time></trkpt><trkpt lat="44.8812229270432" lon="8.229015970410638"><ele>117.0</ele><time>2026-04-11T10:23:36.999Z</time></trkpt><trkpt lat="44.8811576681182" lon="8.229088419499947"><ele>117.16666666666667</ele><time>2026-04-11T10:23:38.999Z</time></trkpt><trkpt lat="44.881078045488515" lon="8.229175915187696"><ele>117.33333333333334</ele><time>2026-04-11T10:23:44.999Z</time></trkpt><trkpt lat="44.881023447809675" lon="8.229224503583847"><ele>117.5</ele><time>2026-04-11T10:23:47.999Z</time></trkpt><trkpt lat="44.88095902093697" lon="8.229212532156463"><ele>117.66666666666667</ele><time>2026-04-11T10:23:49.999Z</time></trkpt><trkpt lat="44.88085807633146" lon="8.229209901125156"><ele>117.83333333333334</ele><time>2026-04-11T10:23:52.999Z</time></trkpt><trkpt lat="44.88079453501167" lon="8.229223668359644"><ele>118.0</ele><time>2026-04-11T10:23:54.999Z</time></trkpt><trkpt lat="44.880721932057305" lon="8.22924280968757"><ele>118.16666666666667</ele><time>2026-04-11T10:23:56.999Z</time></trkpt><trkpt lat="44.880641466551744" lon="8.229254940198771"><ele>118.33333333333334</ele><time>2026-04-11T10:23:58.999Z</time></trkpt><trkpt lat="44.88055181568656" lon="8.229260167665265"><ele>118.5</ele><time>2026-04-11T10:24:00.999Z</time></trkpt><trkpt lat="44.88044889002274" lon="8.229266945336548"><ele>118.66666666666666</ele><time>2026-04-11T10:24:03.999Z</time></trkpt><trkpt lat="44.88034882256402" lon="8.229288296315564"><ele>118.83333333333333</ele><time>2026-04-11T10:24:06.999Z</time></trkpt><trkpt lat="44.880280327426874" lon="8.229294074159997"><ele>119.0</ele><time>2026-04-11T10:24:08.999Z</time></trkpt><trkpt lat="44.88020969637277" lon="8.229301142009009"><ele>118.99999999999999</ele><time>2026-04-11T10:24:10.999Z</time></trkpt><trkpt lat="44.880127941124506" lon="8.229310046428148"><ele>119.0</ele><time>2026-04-11T10:24:13Z</time></trkpt><trkpt lat="44.8800522852918" lon="8.229322065143053"><ele>119.0</ele><time>2026-04-11T10:24:15Z</time></trkpt><trkpt lat="44.879978102346826" lon="8.229325847756785"><ele>119.0</ele><time>2026-04-11T10:24:17Z</time></trkpt><trkpt lat="44.879900931242865" lon="8.229332579867073"><ele>118.99999999999999</ele><time>2026-04-11T10:24:19Z</time></trkpt><trkpt lat="44.87978923119303" lon="8.229335130050922"><ele>119.0</ele><time>2026-04-11T10:24:21Z</time></trkpt><trkpt lat="44.8797008839498" lon="8.22934207587484"><ele>118.83333333333333</ele><time>2026-04-11T10:24:22Z</time></trkpt><trkpt lat="44.87962787946218" lon="8.229348645778465"><ele>118.66666666666666</ele><time>2026-04-11T10:24:23Z</time></trkpt><trkpt lat="44.87956388794991" lon="8.229357507252887"><ele>118.5</ele><time>2026-04-11T10:24:24Z</time></trkpt><trkpt lat="44.87944893701523" lon="8.22937611853274"><ele>118.33333333333334</ele><time>2026-04-11T10:24:26Z</time></trkpt><trkpt lat="44.87934291472038" lon="8.229388102461348"><ele>118.16666666666667</ele><time>2026-04-11T10:24:28Z</time></trkpt><trkpt lat="44.87925603874196" lon="8.229397179428991"><ele>118.0</ele><time>2026-04-11T10:24:30Z</time></trkpt><trkpt lat="44.8791616873154" lon="8.229382063155775"><ele>118.33333333333334</ele><time>2026-04-11T10:24:32Z</time></trkpt><trkpt lat="44.879067496979175" lon="8.229390465378971"><ele>118.66666666666667</ele><time>2026-04-11T10:24:34Z</time></trkpt><trkpt lat="44.87898234794779" lon="8.229398061071683"><ele>119.0</ele><time>2026-04-11T10:24:36Z</time></trkpt><trkpt lat="44.878897867701056" lon="8.229405579298168"><ele>119.33333333333334</ele><time>2026-04-11T10:24:38Z</time></trkpt><trkpt lat="44.87880392990853" lon="8.229415013626696"><ele>119.66666666666667</ele><time>2026-04-11T10:24:40Z</time></trkpt><trkpt lat="44.87871806226598" lon="8.229423637461544"><ele>120.0</ele><time>2026-04-11T10:24:42Z</time></trkpt><trkpt lat="44.87863298289429" lon="8.229432182128225"><ele>120.0</ele><time>2026-04-11T10:24:44Z</time></trkpt><trkpt lat="44.878542196488105" lon="8.22944129997032"><ele>120.0</ele><time>2026-04-11T10:24:46Z</time></trkpt><trkpt lat="44.87845847203593" lon="8.229449708554789"><ele>120.0</ele><time>2026-04-11T10:24:48Z</time></trkpt><trkpt lat="44.87837719905021" lon="8.229483298722252"><ele>120.0</ele><time>2026-04-11T10:24:52Z</time></trkpt><trkpt lat="44.87829800700152" lon="8.229484764636746"><ele>120.0</ele><time>2026-04-11T10:24:55Z</time></trkpt><trkpt lat="44.87821156335698" lon="8.229490542387813"><ele>120.0</ele><time>2026-04-11T10:24:58Z</time></trkpt><trkpt lat="44.87812849861843" lon="8.229493975859803"><ele>120.16666666666667</ele><time>2026-04-11T10:25:01Z</time></trkpt><trkpt lat="44.878041416132504" lon="8.229498732708441"><ele>120.33333333333334</ele><time>2026-04-11T10:25:04Z</time></trkpt><trkpt lat="44.877927605876536" lon="8.229517838930251"><ele>120.5</ele><time>2026-04-11T10:25:06Z</time></trkpt><trkpt lat="44.8778421254974" lon="8.229526383579557"><ele>120.66666666666667</ele><time>2026-04-11T10:25:08Z</time></trkpt><trkpt lat="44.87775898234054" lon="8.22954524962997"><ele>120.83333333333334</ele><time>2026-04-11T10:25:10Z</time></trkpt><trkpt lat="44.87768356076765" lon="8.229559574235326"><ele>121.0</ele><time>2026-04-11T10:25:12Z</time></trkpt><trkpt lat="44.877615287872125" lon="8.229615402291703"><ele>121.50000000000001</ele><time>2026-04-11T10:25:15Z</time></trkpt><trkpt lat="44.877565951856795" lon="8.229720763359301"><ele>122.0</ele><time>2026-04-11T10:25:17.999Z</time></trkpt><trkpt lat="44.877523432449756" lon="8.22978770055171"><ele>122.5</ele><time>2026-04-11T10:25:19.999Z</time></trkpt><trkpt lat="44.877462884255266" lon="8.2298551913751"><ele>123.0</ele><time>2026-04-11T10:25:21.999Z</time></trkpt><trkpt lat="44.87739106282084" lon="8.229913179350117"><ele>123.50000000000001</ele><time>2026-04-11T10:25:23.999Z</time></trkpt><trkpt lat="44.877339312568" lon="8.22999585579338"><ele>124.0</ele><time>2026-04-11T10:25:25.999Z</time></trkpt><trkpt lat="44.87728332828736" lon="8.230082670358115"><ele>124.00000000000001</ele><time>2026-04-11T10:25:27.999Z</time></trkpt><trkpt lat="44.87722284210593" lon="8.230182031645638"><ele>124.0</ele><time>2026-04-11T10:25:29.999Z</time></trkpt><trkpt lat="44.87717278351361" lon="8.23027754607151"><ele>124.0</ele><time>2026-04-11T10:25:31.999Z</time></trkpt><trkpt lat="44.8771311650914" lon="8.230355408409466"><ele>124.0</ele><time>2026-04-11T10:25:33.999Z</time></trkpt><trkpt lat="44.87708290117656" lon="8.23045061977288"><ele>124.00000000000001</ele><time>2026-04-11T10:25:40.999Z</time></trkpt><trkpt lat="44.87703549725544" lon="8.230541088581086"><ele>124.0</ele><time>2026-04-11T10:25:43.999Z</time></trkpt><trkpt lat="44.877023685540046" lon="8.230630845445058"><ele>124.33333333333334</ele><time>2026-04-11T10:25:45.999Z</time></trkpt><trkpt lat="44.87700345997392" lon="8.230733523601687"><ele>124.66666666666667</ele><time>2026-04-11T10:25:47.999Z</time></trkpt><trkpt lat="44.87697183829379" lon="8.230838815398597"><ele>125.0</ele><time>2026-04-11T10:25:49.999Z</time></trkpt><trkpt lat="44.876948893685544" lon="8.230948747869014"><ele>125.33333333333334</ele><time>2026-04-11T10:25:51.999Z</time></trkpt><trkpt lat="44.87691117954268" lon="8.231035325882454"><ele>125.66666666666667</ele><time>2026-04-11T10:25:53.999Z</time></trkpt><trkpt lat="44.87687274344418" lon="8.231129121009191"><ele>126.0</ele><time>2026-04-11T10:25:55.999Z</time></trkpt><trkpt lat="44.876826703393036" lon="8.2312153745255"><ele>126.0</ele><time>2026-04-11T10:25:57.999Z</time></trkpt><trkpt lat="44.8767761674452" lon="8.231308764621957"><ele>126.0</ele><time>2026-04-11T10:25:59.999Z</time></trkpt><trkpt lat="44.87673346425282" lon="8.231413096641338"><ele>126.0</ele><time>2026-04-11T10:26:01.999Z</time></trkpt><trkpt lat="44.8766974686128" lon="8.231510043355566"><ele>126.0</ele><time>2026-04-11T10:26:03.999Z</time></trkpt><trkpt lat="44.876659678166895" lon="8.231625778187865"><ele>126.0</ele><time>2026-04-11T10:26:05.999Z</time></trkpt><trkpt lat="44.876621920262814" lon="8.231709017952493"><ele>126.0</ele><time>2026-04-11T10:26:07.999Z</time></trkpt><trkpt lat="44.87657480682342" lon="8.231809546986296"><ele>126.0</ele><time>2026-04-11T10:26:10.999Z</time></trkpt><trkpt lat="44.87651307252646" lon="8.231895172587162"><ele>126.0</ele><time>2026-04-11T10:26:12.999Z</time></trkpt><trkpt lat="44.87641854469394" lon="8.231897915301102"><ele>126.0</ele><time>2026-04-11T10:26:14.999Z</time></trkpt><trkpt lat="44.87631796920903" lon="8.231904028216169"><ele>126.0</ele><time>2026-04-11T10:26:16.999Z</time></trkpt><trkpt lat="44.87620311221923" lon="8.231905212105046"><ele>126.0</ele><time>2026-04-11T10:26:19Z</time></trkpt><trkpt lat="44.87610441532598" lon="8.2319110905012"><ele>126.0</ele><time>2026-04-11T10:26:21Z</time></trkpt><trkpt lat="44.87602689234873" lon="8.231918799718443"><ele>126.0</ele><time>2026-04-11T10:26:23Z</time></trkpt><trkpt lat="44.87592670024286" lon="8.231904278982393"><ele>126.0</ele><time>2026-04-11T10:26:25Z</time></trkpt><trkpt lat="44.87580704024952" lon="8.231894108990268"><ele>126.0</ele><time>2026-04-11T10:26:29Z</time></trkpt><trkpt lat="44.87573984787056" lon="8.231894034377659"><ele>126.0</ele><time>2026-04-11T10:26:30Z</time></trkpt><trkpt lat="44.87562523323934" lon="8.231895220681839"><ele>126.0</ele><time>2026-04-11T10:26:32Z</time></trkpt><trkpt lat="44.8755236551154" lon="8.231905516958255"><ele>126.0</ele><time>2026-04-11T10:26:34Z</time></trkpt><trkpt lat="44.875426384302266" lon="8.231900047101334"><ele>126.0</ele><time>2026-04-11T10:26:36Z</time></trkpt><trkpt lat="44.87532873123169" lon="8.23190144391311"><ele>126.0</ele><time>2026-04-11T10:26:38Z</time></trkpt><trkpt lat="44.875233751856555" lon="8.231902719244557"><ele>126.0</ele><time>2026-04-11T10:26:40Z</time></trkpt><trkpt lat="44.875152180625335" lon="8.231895352279572"><ele>126.5</ele><time>2026-04-11T10:26:44Z</time></trkpt><trkpt lat="44.87507644913739" lon="8.231899077841135"><ele>127.0</ele><time>2026-04-11T10:26:46Z</time></trkpt><trkpt lat="44.87501305739503" lon="8.23187822009932"><ele>127.5</ele><time>2026-04-11T10:26:48Z</time></trkpt><trkpt lat="44.87489295424738" lon="8.231871635050997"><ele>128.0</ele><time>2026-04-11T10:26:50Z</time></trkpt><trkpt lat="44.874808137451865" lon="8.231880285668748"><ele>128.5</ele><time>2026-04-11T10:26:51Z</time></trkpt><trkpt lat="44.8747353112185" lon="8.231890724048078"><ele>129.0</ele><time>2026-04-11T10:26:52Z</time></trkpt><trkpt lat="44.874611301129406" lon="8.231896678813227"><ele>129.0</ele><time>2026-04-11T10:26:54Z</time></trkpt><trkpt lat="44.87449596586455" lon="8.231894363406665"><ele>129.0</ele><time>2026-04-11T10:26:56Z</time></trkpt><trkpt lat="44.87438020070371" lon="8.231894582034071"><ele>129.0</ele><time>2026-04-11T10:26:58Z</time></trkpt><trkpt lat="44.87428835670734" lon="8.23188588523265"><ele>129.0</ele><time>2026-04-11T10:27:01Z</time></trkpt><trkpt lat="44.874212456540164" lon="8.231879759728708"><ele>129.0</ele><time>2026-04-11T10:27:03Z</time></trkpt><trkpt lat="44.87414715433552" lon="8.231871686143167"><ele>128.6</ele><time>2026-04-11T10:27:05Z</time></trkpt><trkpt lat="44.874067564983676" lon="8.231855773702904"><ele>128.2</ele><time>2026-04-11T10:27:07Z</time></trkpt><trkpt lat="44.87399172871364" lon="8.231839289175511"><ele>127.79999999999998</ele><time>2026-04-11T10:27:09Z</time></trkpt><trkpt lat="44.873917086856736" lon="8.23180560636693"><ele>127.39999999999999</ele><time>2026-04-11T10:27:11Z</time></trkpt><trkpt lat="44.873778499177014" lon="8.231789162416874"><ele>127.0</ele><time>2026-04-11T10:27:13Z</time></trkpt><trkpt lat="44.87369052655416" lon="8.23178717252291"><ele>127.0</ele><time>2026-04-11T10:27:14Z</time></trkpt><trkpt lat="44.8736168129071" lon="8.23178866163216"><ele>126.99999999999999</ele><time>2026-04-11T10:27:15Z</time></trkpt><trkpt lat="44.873546144841065" lon="8.231782811487726"><ele>126.99999999999999</ele><time>2026-04-11T10:27:16Z</time></trkpt><trkpt lat="44.87341811109139" lon="8.231768737928986"><ele>127.0</ele><time>2026-04-11T10:27:18Z</time></trkpt><trkpt lat="44.87330211436342" lon="8.23175267644747"><ele>127.0</ele><time>2026-04-11T10:27:20Z</time></trkpt><trkpt lat="44.87318367057675" lon="8.231738025616343"><ele>127.39999999999999</ele><time>2026-04-11T10:27:22Z</time></trkpt><trkpt lat="44.873066698958375" lon="8.231719835900432"><ele>127.79999999999998</ele><time>2026-04-11T10:27:24Z</time></trkpt><trkpt lat="44.872963215993096" lon="8.231705676602386"><ele>128.2</ele><time>2026-04-11T10:27:26Z</time></trkpt><trkpt lat="44.87285813757024" lon="8.231691637109195"><ele>128.6</ele><time>2026-04-11T10:27:27.999Z</time></trkpt><trkpt lat="44.87275170369278" lon="8.231677187470014"><ele>129.0</ele><time>2026-04-11T10:27:29.999Z</time></trkpt><trkpt lat="44.872637971854424" lon="8.231654449594469"><ele>128.83333333333334</ele><time>2026-04-11T10:27:31.999Z</time></trkpt><trkpt lat="44.87253347884376" lon="8.23163922418133"><ele>128.66666666666666</ele><time>2026-04-11T10:27:33.999Z</time></trkpt><trkpt lat="44.87246490257309" lon="8.231632992801146"><ele>128.5</ele><time>2026-04-11T10:27:34.999Z</time></trkpt><trkpt lat="44.872381233615" lon="8.23161961023833"><ele>128.33333333333331</ele><time>2026-04-11T10:27:36.999Z</time></trkpt><trkpt lat="44.872292161325" lon="8.231598887241478"><ele>128.16666666666666</ele><time>2026-04-11T10:27:38.999Z</time></trkpt><trkpt lat="44.872204463853855" lon="8.23158580460183"><ele>128.0</ele><time>2026-04-11T10:27:40.999Z</time></trkpt><trkpt lat="44.87209335280886" lon="8.231569487573411"><ele>128.0</ele><time>2026-04-11T10:27:42.999Z</time></trkpt><trkpt lat="44.87199610926742" lon="8.231552789223711"><ele>128.0</ele><time>2026-04-11T10:27:44.999Z</time></trkpt><trkpt lat="44.871902464884876" lon="8.231535022399562"><ele>128.0</ele><time>2026-04-11T10:27:46.999Z</time></trkpt><trkpt lat="44.87181058142958" lon="8.231527168535832"><ele>128.0</ele><time>2026-04-11T10:27:48.999Z</time></trkpt><trkpt lat="44.871708565056245" lon="8.231514653350986"><ele>128.0</ele><time>2026-04-11T10:27:50.999Z</time></trkpt><trkpt lat="44.871619799312576" lon="8.23150034209835"><ele>128.0</ele><time>2026-04-11T10:27:52.999Z</time></trkpt><trkpt lat="44.871525374725096" lon="8.231494753867763"><ele>128.0</ele><time>2026-04-11T10:27:54.999Z</time></trkpt><trkpt lat="44.8714281278904" lon="8.231468987156806"><ele>128.0</ele><time>2026-04-11T10:27:56.999Z</time></trkpt><trkpt lat="44.87133774474675" lon="8.231454493827735"><ele>128.0</ele><time>2026-04-11T10:27:58.999Z</time></trkpt><trkpt lat="44.87124329720872" lon="8.231431860450384"><ele>128.0</ele><time>2026-04-11T10:28:00.999Z</time></trkpt><trkpt lat="44.8711443242009" lon="8.231415013003701"><ele>130.0</ele><time>2026-04-11T10:28:02.999Z</time></trkpt><trkpt lat="44.87105445778447" lon="8.23140155188698"><ele>132.0</ele><time>2026-04-11T10:28:04.999Z</time></trkpt><trkpt lat="44.870960303412865" lon="8.231379866376908"><ele>134.0</ele><time>2026-04-11T10:28:06.999Z</time></trkpt><trkpt lat="44.870865277069306" lon="8.231360798576219"><ele>136.0</ele><time>2026-04-11T10:28:08.999Z</time></trkpt><trkpt lat="44.87076564794497" lon="8.231350821380444"><ele>138.0</ele><time>2026-04-11T10:28:10.999Z</time></trkpt><trkpt lat="44.870671563214586" lon="8.231340112316213"><ele>138.20000000000002</ele><time>2026-04-11T10:28:12.999Z</time></trkpt><trkpt lat="44.87056935859707" lon="8.231320999186183"><ele>138.4</ele><time>2026-04-11T10:28:14.999Z</time></trkpt><trkpt lat="44.87047686959254" lon="8.231310651438612"><ele>138.60000000000002</ele><time>2026-04-11T10:28:16.999Z</time></trkpt><trkpt lat="44.870381137759445" lon="8.23128578306909"><ele>138.8</ele><time>2026-04-11T10:28:18.999Z</time></trkpt><trkpt lat="44.87027874753248" lon="8.231271656783818"><ele>139.0</ele><time>2026-04-11T10:28:20.999Z</time></trkpt><trkpt lat="44.87018196744527" lon="8.23125771421034"><ele>138.0</ele><time>2026-04-11T10:28:22.999Z</time></trkpt><trkpt lat="44.87008233574562" lon="8.231236987807014"><ele>137.0</ele><time>2026-04-11T10:28:25Z</time></trkpt><trkpt lat="44.86998322043337" lon="8.231217017440711"><ele>136.0</ele><time>2026-04-11T10:28:27Z</time></trkpt><trkpt lat="44.86988663169728" lon="8.231203007726895"><ele>135.0</ele><time>2026-04-11T10:28:29Z</time></trkpt><trkpt lat="44.86979624183073" lon="8.231190575113171"><ele>134.0</ele><time>2026-04-11T10:28:31Z</time></trkpt><trkpt lat="44.869698601813994" lon="8.231168121358015"><ele>134.0</ele><time>2026-04-11T10:28:33Z</time></trkpt><trkpt lat="44.8695982421585" lon="8.231151282345785"><ele>134.0</ele><time>2026-04-11T10:28:35Z</time></trkpt><trkpt lat="44.869509533546236" lon="8.231126052530588"><ele>134.0</ele><time>2026-04-11T10:28:38Z</time></trkpt><trkpt lat="44.86943001490147" lon="8.231113812370518"><ele>134.0</ele><time>2026-04-11T10:28:40Z</time></trkpt><trkpt lat="44.869338140062226" lon="8.23109918257312"><ele>134.0</ele><time>2026-04-11T10:28:42Z</time></trkpt><trkpt lat="44.86924616580041" lon="8.231083928841194"><ele>134.0</ele><time>2026-04-11T10:28:44Z</time></trkpt><trkpt lat="44.869155960044836" lon="8.231083101909151"><ele>134.0</ele><time>2026-04-11T10:28:46Z</time></trkpt><trkpt lat="44.86896420072983" lon="8.231095862756042"><ele>134.0</ele><time>2026-04-11T10:28:48Z</time></trkpt><trkpt lat="44.86886537217861" lon="8.231112867811317"><ele>134.0</ele><time>2026-04-11T10:28:50Z</time></trkpt><trkpt lat="44.86877003084354" lon="8.231121567526552"><ele>134.0</ele><time>2026-04-11T10:28:52Z</time></trkpt><trkpt lat="44.86867791655056" lon="8.231153911385324"><ele>134.0</ele><time>2026-04-11T10:28:54Z</time></trkpt><trkpt lat="44.86859306582002" lon="8.231179528358455"><ele>134.0</ele><time>2026-04-11T10:28:56Z</time></trkpt><trkpt lat="44.86850357459012" lon="8.231198476022604"><ele>134.0</ele><time>2026-04-11T10:28:58Z</time></trkpt><trkpt lat="44.86839600128819" lon="8.231227460305169"><ele>134.0</ele><time>2026-04-11T10:29:00Z</time></trkpt><trkpt lat="44.86831161088802" lon="8.231235884191324"><ele>134.0</ele><time>2026-04-11T10:29:02Z</time></trkpt><trkpt lat="44.86824750120993" lon="8.231234934814978"><ele>134.0</ele><time>2026-04-11T10:29:03Z</time></trkpt><trkpt lat="44.86817793277349" lon="8.231236208437005"><ele>134.0</ele><time>2026-04-11T10:29:04Z</time></trkpt><trkpt lat="44.86807400903578" lon="8.231217756055248"><ele>134.0</ele><time>2026-04-11T10:29:06Z</time></trkpt><trkpt lat="44.86797659903888" lon="8.23117644224068"><ele>134.0</ele><time>2026-04-11T10:29:08Z</time></trkpt><trkpt lat="44.86789670552664" lon="8.231099889952407"><ele>134.0</ele><time>2026-04-11T10:29:10Z</time></trkpt><trkpt lat="44.86779666280495" lon="8.23103268562889"><ele>134.0</ele><time>2026-04-11T10:29:12Z</time></trkpt><trkpt lat="44.867714149916104" lon="8.230948575946073"><ele>134.0</ele><time>2026-04-11T10:29:14Z</time></trkpt><trkpt lat="44.86763985501244" lon="8.230877076171192"><ele>134.0</ele><time>2026-04-11T10:29:16Z</time></trkpt><trkpt lat="44.86756658956768" lon="8.230781712445888"><ele>134.0</ele><time>2026-04-11T10:29:18Z</time></trkpt><trkpt lat="44.867483766606604" lon="8.230695377961158"><ele>134.0</ele><time>2026-04-11T10:29:20Z</time></trkpt><trkpt lat="44.86739136618465" lon="8.230614153121268"><ele>135.0</ele><time>2026-04-11T10:29:22Z</time></trkpt><trkpt lat="44.86730409305644" lon="8.23053751076044"><ele>136.0</ele><time>2026-04-11T10:29:24Z</time></trkpt><trkpt lat="44.86720812700829" lon="8.230444841172034"><ele>137.0</ele><time>2026-04-11T10:29:26Z</time></trkpt><trkpt lat="44.86711230183267" lon="8.230431823041402"><ele>138.0</ele><time>2026-04-11T10:29:28Z</time></trkpt><trkpt lat="44.86701800065813" lon="8.230397324078204"><ele>139.0</ele><time>2026-04-11T10:29:30Z</time></trkpt><trkpt lat="44.86693203854499" lon="8.230373923591907"><ele>139.0</ele><time>2026-04-11T10:29:32Z</time></trkpt><trkpt lat="44.866843467328316" lon="8.230350333334425"><ele>139.0</ele><time>2026-04-11T10:29:34Z</time></trkpt><trkpt lat="44.86676073430158" lon="8.230326897069707"><ele>139.0</ele><time>2026-04-11T10:29:36Z</time></trkpt><trkpt lat="44.86669624070747" lon="8.23033075016704"><ele>139.0</ele><time>2026-04-11T10:29:38Z</time></trkpt><trkpt lat="44.86670264748274" lon="8.230162542329913"><ele>139.0</ele><time>2026-04-11T10:29:39Z</time></trkpt><trkpt lat="44.86665359563513" lon="8.230051000488144"><ele>139.0</ele><time>2026-04-11T10:29:41Z</time></trkpt><trkpt lat="44.86660459107598" lon="8.229939566822953"><ele>139.0</ele><time>2026-04-11T10:29:42.999Z</time></trkpt><trkpt lat="44.866550361065755" lon="8.229816251298143"><ele>139.0</ele><time>2026-04-11T10:29:44.999Z</time></trkpt><trkpt lat="44.86649806024897" lon="8.229697321781885"><ele>139.0</ele><time>2026-04-11T10:29:46.999Z</time></trkpt><trkpt lat="44.86644852501797" lon="8.229584681118062"><ele>139.0</ele><time>2026-04-11T10:29:48.999Z</time></trkpt><trkpt lat="44.866374466161304" lon="8.229491403128002"><ele>139.0</ele><time>2026-04-11T10:29:50.999Z</time></trkpt><trkpt lat="44.8663274143551" lon="8.229388043963716"><ele>139.0</ele><time>2026-04-11T10:29:52.999Z</time></trkpt><trkpt lat="44.86628719202171" lon="8.22927901630262"><ele>139.0</ele><time>2026-04-11T10:29:54.999Z</time></trkpt><trkpt lat="44.86624314467442" lon="8.229181135768664"><ele>139.0</ele><time>2026-04-11T10:29:56.999Z</time></trkpt><trkpt lat="44.866201546861745" lon="8.22909808972439"><ele>139.0</ele><time>2026-04-11T10:29:58.999Z</time></trkpt><trkpt lat="44.86616271607503" lon="8.229009267830916"><ele>139.0</ele><time>2026-04-11T10:30:00.999Z</time></trkpt><trkpt lat="44.866124049017834" lon="8.228917246155213"><ele>138.5</ele><time>2026-04-11T10:30:02.999Z</time></trkpt><trkpt lat="44.86608293551192" lon="8.228826214914562"><ele>138.0</ele><time>2026-04-11T10:30:04.999Z</time></trkpt><trkpt lat="44.86604619714967" lon="8.228732895300233"><ele>137.5</ele><time>2026-04-11T10:30:06.999Z</time></trkpt><trkpt lat="44.866004144717856" lon="8.228641572001402"><ele>137.0</ele><time>2026-04-11T10:30:08.999Z</time></trkpt><trkpt lat="44.86596029649533" lon="8.228536109912998"><ele>136.5</ele><time>2026-04-11T10:30:10.999Z</time></trkpt><trkpt lat="44.865917562945945" lon="8.228433274992051"><ele>136.0</ele><time>2026-04-11T10:30:12.999Z</time></trkpt><trkpt lat="44.86587040852414" lon="8.228313786116798"><ele>136.0</ele><time>2026-04-11T10:30:14.999Z</time></trkpt><trkpt lat="44.86581558945644" lon="8.228201047781086"><ele>136.0</ele><time>2026-04-11T10:30:16.999Z</time></trkpt><trkpt lat="44.86576569415555" lon="8.228082933015044"><ele>136.0</ele><time>2026-04-11T10:30:18.999Z</time></trkpt><trkpt lat="44.86571583195584" lon="8.227967080479603"><ele>136.0</ele><time>2026-04-11T10:30:20.999Z</time></trkpt><trkpt lat="44.86566008047029" lon="8.22785137851445"><ele>136.0</ele><time>2026-04-11T10:30:22.999Z</time></trkpt><trkpt lat="44.86562342596999" lon="8.227713254156972"><ele>137.2</ele><time>2026-04-11T10:30:24.999Z</time></trkpt><trkpt lat="44.86556017421947" lon="8.227601857677083"><ele>138.39999999999998</ele><time>2026-04-11T10:30:26.999Z</time></trkpt><trkpt lat="44.865526278261825" lon="8.227476640385618"><ele>139.6</ele><time>2026-04-11T10:30:28.999Z</time></trkpt><trkpt lat="44.86547830097704" lon="8.227356094637278"><ele>140.79999999999998</ele><time>2026-04-11T10:30:31Z</time></trkpt><trkpt lat="44.865435463051845" lon="8.227248461793542"><ele>142.0</ele><time>2026-04-11T10:30:33Z</time></trkpt><trkpt lat="44.86539104792375" lon="8.227142477829023"><ele>141.0</ele><time>2026-04-11T10:30:35Z</time></trkpt><trkpt lat="44.865347089179885" lon="8.227042262056303"><ele>140.0</ele><time>2026-04-11T10:30:37Z</time></trkpt><trkpt lat="44.865304535574914" lon="8.226949445970291"><ele>139.0</ele><time>2026-04-11T10:30:39Z</time></trkpt><trkpt lat="44.86525828002009" lon="8.226854312159055"><ele>138.0</ele><time>2026-04-11T10:30:41Z</time></trkpt><trkpt lat="44.86520776055234" lon="8.226755240270649"><ele>137.0</ele><time>2026-04-11T10:30:43Z</time></trkpt><trkpt lat="44.86515853326386" lon="8.226661211397337"><ele>136.0</ele><time>2026-04-11T10:30:45Z</time></trkpt><trkpt lat="44.86510413507673" lon="8.22656027702256"><ele>137.33333333333334</ele><time>2026-04-11T10:30:47Z</time></trkpt><trkpt lat="44.86504984762259" lon="8.226460192593006"><ele>138.66666666666669</ele><time>2026-04-11T10:30:49Z</time></trkpt><trkpt lat="44.86499686141176" lon="8.226364791020744"><ele>140.0</ele><time>2026-04-11T10:30:51Z</time></trkpt><trkpt lat="44.86492519020866" lon="8.226291612299887"><ele>141.33333333333334</ele><time>2026-04-11T10:30:53Z</time></trkpt><trkpt lat="44.86487421027023" lon="8.226205900524919"><ele>142.66666666666666</ele><time>2026-04-11T10:30:55Z</time></trkpt><trkpt lat="44.864820270943355" lon="8.226113115557599"><ele>144.0</ele><time>2026-04-11T10:30:57Z</time></trkpt><trkpt lat="44.86476752503533" lon="8.226017312235358"><ele>144.0</ele><time>2026-04-11T10:30:59Z</time></trkpt><trkpt lat="44.86470820191544" lon="8.225918013895466"><ele>144.0</ele><time>2026-04-11T10:31:01Z</time></trkpt><trkpt lat="44.86465262722538" lon="8.225815414476878"><ele>144.0</ele><time>2026-04-11T10:31:03Z</time></trkpt><trkpt lat="44.86459046984965" lon="8.225713444299874"><ele>144.0</ele><time>2026-04-11T10:31:05Z</time></trkpt><trkpt lat="44.86452482764982" lon="8.225610209690359"><ele>144.0</ele><time>2026-04-11T10:31:07Z</time></trkpt><trkpt lat="44.864460505078505" lon="8.22551473883066"><ele>143.16666666666666</ele><time>2026-04-11T10:31:09Z</time></trkpt><trkpt lat="44.86439870005342" lon="8.22540175603701"><ele>142.33333333333334</ele><time>2026-04-11T10:31:11Z</time></trkpt><trkpt lat="44.864335472816066" lon="8.225310495134936"><ele>141.5</ele><time>2026-04-11T10:31:13Z</time></trkpt><trkpt lat="44.86427929249591" lon="8.225219602430128"><ele>140.66666666666669</ele><time>2026-04-11T10:31:15Z</time></trkpt><trkpt lat="44.8642241783375" lon="8.22513592028837"><ele>139.83333333333334</ele><time>2026-04-11T10:31:17Z</time></trkpt><trkpt lat="44.864174187581426" lon="8.225036599851117"><ele>139.0</ele><time>2026-04-11T10:31:19Z</time></trkpt><trkpt lat="44.864113527910185" lon="8.224955279914814"><ele>139.0</ele><time>2026-04-11T10:31:21Z</time></trkpt><trkpt lat="44.86407000346585" lon="8.22487784191998"><ele>139.0</ele><time>2026-04-11T10:31:24Z</time></trkpt><trkpt lat="44.86401622454712" lon="8.224796001289405"><ele>139.0</ele><time>2026-04-11T10:31:25Z</time></trkpt><trkpt lat="44.86398319199704" lon="8.224701642875955"><ele>139.0</ele><time>2026-04-11T10:31:27Z</time></trkpt><trkpt lat="44.86392759094057" lon="8.224615777749964"><ele>139.0</ele><time>2026-04-11T10:31:28Z</time></trkpt><trkpt lat="44.86384948805569" lon="8.224504111722776"><ele>139.0</ele><time>2026-04-11T10:31:30Z</time></trkpt><trkpt lat="44.863780106379025" lon="8.224392560937053"><ele>140.25</ele><time>2026-04-11T10:31:32Z</time></trkpt><trkpt lat="44.86370449908754" lon="8.22428195016018"><ele>141.5</ele><time>2026-04-11T10:31:34Z</time></trkpt><trkpt lat="44.86364222372433" lon="8.22413915099489"><ele>142.75</ele><time>2026-04-11T10:31:36Z</time></trkpt><trkpt lat="44.86355824282028" lon="8.22402188234614"><ele>144.0</ele><time>2026-04-11T10:31:38Z</time></trkpt><trkpt lat="44.863487966280736" lon="8.22389764606398"><ele>142.75</ele><time>2026-04-11T10:31:40Z</time></trkpt><trkpt lat="44.863413745708954" lon="8.223777891659706"><ele>141.5</ele><time>2026-04-11T10:31:42Z</time></trkpt><trkpt lat="44.86333557643679" lon="8.223654120575016"><ele>140.25</ele><time>2026-04-11T10:31:44Z</time></trkpt><trkpt lat="44.863258738103674" lon="8.223533361485135"><ele>139.0</ele><time>2026-04-11T10:31:46Z</time></trkpt><trkpt lat="44.86319812939691" lon="8.223407881832223"><ele>139.0</ele><time>2026-04-11T10:31:48Z</time></trkpt><trkpt lat="44.86313399235526" lon="8.22330851987883"><ele>139.0</ele><time>2026-04-11T10:31:50Z</time></trkpt><trkpt lat="44.86305782667006" lon="8.223189373069125"><ele>139.0</ele><time>2026-04-11T10:31:52Z</time></trkpt><trkpt lat="44.862982171591426" lon="8.223069910657038"><ele>139.0</ele><time>2026-04-11T10:31:54Z</time></trkpt><trkpt lat="44.86289617882773" lon="8.222959092880842"><ele>139.0</ele><time>2026-04-11T10:31:56Z</time></trkpt><trkpt lat="44.862831930485825" lon="8.222832673929055"><ele>139.0</ele><time>2026-04-11T10:31:58Z</time></trkpt><trkpt lat="44.86274939836171" lon="8.222729194170434"><ele>139.0</ele><time>2026-04-11T10:32:00Z</time></trkpt><trkpt lat="44.86267822448316" lon="8.222615095253564"><ele>139.0</ele><time>2026-04-11T10:32:01.999Z</time></trkpt><trkpt lat="44.86261369199687" lon="8.222488066597327"><ele>139.0</ele><time>2026-04-11T10:32:03.999Z</time></trkpt><trkpt lat="44.86253453129302" lon="8.22239755024733"><ele>139.0</ele><time>2026-04-11T10:32:05.999Z</time></trkpt><trkpt lat="44.86248017113896" lon="8.22227795055472"><ele>139.8</ele><time>2026-04-11T10:32:07.999Z</time></trkpt><trkpt lat="44.862415478439516" lon="8.22217651373322"><ele>140.60000000000002</ele><time>2026-04-11T10:32:09.999Z</time></trkpt><trkpt lat="44.862343782196554" lon="8.222097763417445"><ele>141.4</ele><time>2026-04-11T10:32:11.999Z</time></trkpt><trkpt lat="44.862281991900325" lon="8.221997307227378"><ele>142.20000000000002</ele><time>2026-04-11T10:32:13.999Z</time></trkpt><trkpt lat="44.86222800177761" lon="8.221889691888727"><ele>143.0</ele><time>2026-04-11T10:32:15.999Z</time></trkpt><trkpt lat="44.86215794635957" lon="8.221795095781374"><ele>143.0</ele><time>2026-04-11T10:32:17.999Z</time></trkpt><trkpt lat="44.86207542306231" lon="8.221722969713475"><ele>143.0</ele><time>2026-04-11T10:32:19.999Z</time></trkpt><trkpt lat="44.86202644964922" lon="8.22161483472384"><ele>143.0</ele><time>2026-04-11T10:32:21.999Z</time></trkpt><trkpt lat="44.86197014873112" lon="8.221520414932861"><ele>143.0</ele><time>2026-04-11T10:32:23.999Z</time></trkpt><trkpt lat="44.86194068348901" lon="8.221380722626943"><ele>143.0</ele><time>2026-04-11T10:32:25.999Z</time></trkpt><trkpt lat="44.861879990067685" lon="8.221306867105664"><ele>142.66666666666666</ele><time>2026-04-11T10:32:27.999Z</time></trkpt><trkpt lat="44.86181098632322" lon="8.221261513483853"><ele>142.33333333333331</ele><time>2026-04-11T10:32:29.999Z</time></trkpt><trkpt lat="44.86175442482363" lon="8.221202439217127"><ele>142.0</ele><time>2026-04-11T10:32:31.999Z</time></trkpt><trkpt lat="44.86168471265365" lon="8.221145524701104"><ele>141.66666666666666</ele><time>2026-04-11T10:32:33.999Z</time></trkpt><trkpt lat="44.86161529005587" lon="8.221087404871826"><ele>141.33333333333334</ele><time>2026-04-11T10:32:35.999Z</time></trkpt><trkpt lat="44.8615393500669" lon="8.221019166411564"><ele>141.0</ele><time>2026-04-11T10:32:38Z</time></trkpt><trkpt lat="44.86145747488726" lon="8.220958927437202"><ele>141.0</ele><time>2026-04-11T10:32:40Z</time></trkpt><trkpt lat="44.86138637203021" lon="8.220898200621741"><ele>141.0</ele><time>2026-04-11T10:32:42Z</time></trkpt><trkpt lat="44.86130785265998" lon="8.220848342221538"><ele>141.0</ele><time>2026-04-11T10:32:44Z</time></trkpt><trkpt lat="44.86124007496443" lon="8.220809384412696"><ele>141.0</ele><time>2026-04-11T10:32:46Z</time></trkpt><trkpt lat="44.86132298974028" lon="8.220845669432437"><ele>141.0</ele><time>2026-04-11T10:34:14.999Z</time></trkpt><trkpt lat="44.86138965878655" lon="8.22088967238565"><ele>141.0</ele><time>2026-04-11T10:34:16.999Z</time></trkpt><trkpt lat="44.86145425952026" lon="8.220940334809672"><ele>141.0</ele><time>2026-04-11T10:34:18.999Z</time></trkpt><trkpt lat="44.86152044424554" lon="8.220981816695916"><ele>141.0</ele><time>2026-04-11T10:34:20.999Z</time></trkpt><trkpt lat="44.861591972020086" lon="8.221045169170857"><ele>141.0</ele><time>2026-04-11T10:34:23.999Z</time></trkpt><trkpt lat="44.86165111231921" lon="8.221090695829613"><ele>141.0</ele><time>2026-04-11T10:34:25.999Z</time></trkpt><trkpt lat="44.861722729490154" lon="8.221161620706301"><ele>141.0</ele><time>2026-04-11T10:34:28.999Z</time></trkpt><trkpt lat="44.86177887196822" lon="8.221206638542853"><ele>141.0</ele><time>2026-04-11T10:34:30.999Z</time></trkpt><trkpt lat="44.86185435760225" lon="8.221286569539004"><ele>142.71428571428572</ele><time>2026-04-11T10:34:33.999Z</time></trkpt><trkpt lat="44.86192070972768" lon="8.221377041113891"><ele>144.42857142857142</ele><time>2026-04-11T10:34:36.999Z</time></trkpt><trkpt lat="44.86196696226073" lon="8.221437566305354"><ele>146.14285714285714</ele><time>2026-04-11T10:34:38.999Z</time></trkpt><trkpt lat="44.86202097120501" lon="8.22138629152654"><ele>147.85714285714286</ele><time>2026-04-11T10:34:41.999Z</time></trkpt><trkpt lat="44.86207311045122" lon="8.221321220349209"><ele>149.57142857142858</ele><time>2026-04-11T10:34:45Z</time></trkpt><trkpt lat="44.86208389549185" lon="8.221228454614229"><ele>151.28571428571428</ele><time>2026-04-11T10:34:47Z</time></trkpt><trkpt lat="44.86202385308679" lon="8.221157444927204"><ele>153.0</ele><time>2026-04-11T10:34:49Z</time></trkpt><trkpt lat="44.861966626269364" lon="8.221073424362663"><ele>153.0</ele><time>2026-04-11T10:34:52Z</time></trkpt><trkpt lat="44.86191207277938" lon="8.221006072054132"><ele>153.0</ele><time>2026-04-11T10:34:55Z</time></trkpt><trkpt lat="44.8618544479323" lon="8.22091565638264"><ele>153.0</ele><time>2026-04-11T10:34:58Z</time></trkpt><trkpt lat="44.86179224284168" lon="8.220823827061208"><ele>153.0</ele><time>2026-04-11T10:35:01Z</time></trkpt><trkpt lat="44.86174354262538" lon="8.22072905708145"><ele>153.0</ele><time>2026-04-11T10:35:05Z</time></trkpt><trkpt lat="44.861692264670786" lon="8.220646519467056"><ele>153.0</ele><time>2026-04-11T10:35:08Z</time></trkpt><trkpt lat="44.8616307340946" lon="8.220545308959553"><ele>151.5</ele><time>2026-04-11T10:35:11Z</time></trkpt><trkpt lat="44.861574923202795" lon="8.220450201996867"><ele>150.0</ele><time>2026-04-11T10:35:13Z</time></trkpt><trkpt lat="44.86151920210391" lon="8.220379291997759"><ele>148.5</ele><time>2026-04-11T10:35:15Z</time></trkpt><trkpt lat="44.86147225405727" lon="8.220293982608988"><ele>147.0</ele><time>2026-04-11T10:35:17Z</time></trkpt><trkpt lat="44.86142466358101" lon="8.220216065317468"><ele>145.5</ele><time>2026-04-11T10:35:19Z</time></trkpt><trkpt lat="44.861376803165584" lon="8.220137253928726"><ele>144.0</ele><time>2026-04-11T10:35:21Z</time></trkpt><trkpt lat="44.86132941116676" lon="8.220057866232196"><ele>144.0</ele><time>2026-04-11T10:35:23Z</time></trkpt><trkpt lat="44.861267237877556" lon="8.219963021162137"><ele>144.0</ele><time>2026-04-11T10:35:26Z</time></trkpt><trkpt lat="44.861223377711916" lon="8.219884072541241"><ele>144.0</ele><time>2026-04-11T10:35:28Z</time></trkpt><trkpt lat="44.8611615820847" lon="8.21979499519834"><ele>144.0</ele><time>2026-04-11T10:35:29.999Z</time></trkpt><trkpt lat="44.861112136510215" lon="8.219704519708833"><ele>144.0</ele><time>2026-04-11T10:35:31.999Z</time></trkpt><trkpt lat="44.86105823388679" lon="8.219618982074012"><ele>144.0</ele><time>2026-04-11T10:35:33.999Z</time></trkpt><trkpt lat="44.86100677856328" lon="8.219526125128901"><ele>144.33333333333334</ele><time>2026-04-11T10:35:35.999Z</time></trkpt><trkpt lat="44.86095679579222" lon="8.21943057881488"><ele>144.66666666666666</ele><time>2026-04-11T10:35:37.999Z</time></trkpt><trkpt lat="44.860906504385525" lon="8.219344448621806"><ele>145.0</ele><time>2026-04-11T10:35:39.999Z</time></trkpt><trkpt lat="44.86085858481219" lon="8.219239389490115"><ele>145.33333333333331</ele><time>2026-04-11T10:35:41.999Z</time></trkpt><trkpt lat="44.86081216838111" lon="8.219145405611613"><ele>145.66666666666666</ele><time>2026-04-11T10:35:43.999Z</time></trkpt><trkpt lat="44.86076939529269" lon="8.21904684808866"><ele>146.0</ele><time>2026-04-11T10:35:45.999Z</time></trkpt><trkpt lat="44.8607253841866" lon="8.218933662364078"><ele>146.0</ele><time>2026-04-11T10:35:47.999Z</time></trkpt><trkpt lat="44.86068867717136" lon="8.218848172887695"><ele>146.0</ele><time>2026-04-11T10:35:49.999Z</time></trkpt><trkpt lat="44.8606478497712" lon="8.218754563053574"><ele>146.0</ele><time>2026-04-11T10:35:51.999Z</time></trkpt><trkpt lat="44.86060712711212" lon="8.21864903700875"><ele>146.0</ele><time>2026-04-11T10:35:53.999Z</time></trkpt><trkpt lat="44.860568525526574" lon="8.218540307762009"><ele>146.0</ele><time>2026-04-11T10:35:55.999Z</time></trkpt><trkpt lat="44.86052799247109" lon="8.21842212640482"><ele>146.0</ele><time>2026-04-11T10:35:57.999Z</time></trkpt><trkpt lat="44.86049127003868" lon="8.218309946009967"><ele>146.0</ele><time>2026-04-11T10:35:59.999Z</time></trkpt><trkpt lat="44.86045965852603" lon="8.218197375488582"><ele>146.0</ele><time>2026-04-11T10:36:01.999Z</time></trkpt><trkpt lat="44.86043254421965" lon="8.218109865171067"><ele>146.0</ele><time>2026-04-11T10:36:04.999Z</time></trkpt><trkpt lat="44.86041288501304" lon="8.218021261179056"><ele>146.0</ele><time>2026-04-11T10:36:06.999Z</time></trkpt><trkpt lat="44.860375953312555" lon="8.217898824589966"><ele>146.0</ele><time>2026-04-11T10:36:08.999Z</time></trkpt><trkpt lat="44.86034823463729" lon="8.217788573417721"><ele>146.0</ele><time>2026-04-11T10:36:09.999Z</time></trkpt><trkpt lat="44.8603080847032" lon="8.217650006529857"><ele>147.33333333333331</ele><time>2026-04-11T10:36:11.999Z</time></trkpt><trkpt lat="44.860309788491136" lon="8.217556700401264"><ele>148.66666666666666</ele><time>2026-04-11T10:36:13.999Z</time></trkpt><trkpt lat="44.86028266488848" lon="8.217458356116307"><ele>150.0</ele><time>2026-04-11T10:36:15.999Z</time></trkpt><trkpt lat="44.86025119779666" lon="8.21734426326738"><ele>151.33333333333334</ele><time>2026-04-11T10:36:17.999Z</time></trkpt><trkpt lat="44.86019979502053" lon="8.217219004901551"><ele>152.66666666666669</ele><time>2026-04-11T10:36:19.999Z</time></trkpt><trkpt lat="44.86017497263665" lon="8.21712268975404"><ele>154.0</ele><time>2026-04-11T10:36:21.999Z</time></trkpt><trkpt lat="44.86016195513244" lon="8.217017614039165"><ele>153.2</ele><time>2026-04-11T10:36:22.999Z</time></trkpt><trkpt lat="44.860124298000734" lon="8.216878531914341"><ele>152.4</ele><time>2026-04-11T10:36:24.999Z</time></trkpt><trkpt lat="44.8600844660005" lon="8.216731417119643"><ele>151.6</ele><time>2026-04-11T10:36:26.999Z</time></trkpt><trkpt lat="44.860043226056355" lon="8.216579102143452"><ele>150.8</ele><time>2026-04-11T10:36:28.999Z</time></trkpt><trkpt lat="44.86000448445631" lon="8.216436014609782"><ele>150.0</ele><time>2026-04-11T10:36:30.999Z</time></trkpt><trkpt lat="44.859968682563064" lon="8.216303784521369"><ele>150.0</ele><time>2026-04-11T10:36:32.999Z</time></trkpt><trkpt lat="44.859931685879474" lon="8.2161680687645"><ele>150.0</ele><time>2026-04-11T10:36:34.999Z</time></trkpt><trkpt lat="44.859897048691295" lon="8.216041129654192"><ele>150.0</ele><time>2026-04-11T10:36:36.999Z</time></trkpt><trkpt lat="44.859863113013134" lon="8.215915512708603"><ele>150.0</ele><time>2026-04-11T10:36:38.999Z</time></trkpt><trkpt lat="44.859812300300305" lon="8.215797350915418"><ele>150.0</ele><time>2026-04-11T10:36:40.999Z</time></trkpt><trkpt lat="44.85980052462628" lon="8.215645191887646"><ele>150.33333333333334</ele><time>2026-04-11T10:36:42.999Z</time></trkpt><trkpt lat="44.859765428551256" lon="8.215480461643331"><ele>150.66666666666666</ele><time>2026-04-11T10:36:44.999Z</time></trkpt><trkpt lat="44.859746714634454" lon="8.215395182188578"><ele>151.0</ele><time>2026-04-11T10:36:45.999Z</time></trkpt><trkpt lat="44.85971353774038" lon="8.215311963432852"><ele>151.33333333333331</ele><time>2026-04-11T10:36:46.999Z</time></trkpt><trkpt lat="44.85969237594805" lon="8.215225287486122"><ele>151.66666666666666</ele><time>2026-04-11T10:36:47.999Z</time></trkpt><trkpt lat="44.859666000815736" lon="8.21514165489226"><ele>152.0</ele><time>2026-04-11T10:36:49Z</time></trkpt><trkpt lat="44.85961471417501" lon="8.214991188709494"><ele>152.0</ele><time>2026-04-11T10:36:51Z</time></trkpt><trkpt lat="44.85956434197596" lon="8.2148488539948"><ele>152.0</ele><time>2026-04-11T10:36:53Z</time></trkpt><trkpt lat="44.859527030780974" lon="8.214708796629415"><ele>152.0</ele><time>2026-04-11T10:36:55Z</time></trkpt><trkpt lat="44.85948196121841" lon="8.2145943929266"><ele>152.0</ele><time>2026-04-11T10:36:57Z</time></trkpt><trkpt lat="44.85943736663271" lon="8.214484184530521"><ele>152.0</ele><time>2026-04-11T10:36:59Z</time></trkpt><trkpt lat="44.85939458709338" lon="8.214381227056148"><ele>151.66666666666666</ele><time>2026-04-11T10:37:01Z</time></trkpt><trkpt lat="44.85934977749789" lon="8.214276761296594"><ele>151.33333333333331</ele><time>2026-04-11T10:37:03Z</time></trkpt><trkpt lat="44.859305914567486" lon="8.214176787792665"><ele>151.0</ele><time>2026-04-11T10:37:05Z</time></trkpt><trkpt lat="44.85926493424205" lon="8.214083384384757"><ele>150.66666666666666</ele><time>2026-04-11T10:37:07Z</time></trkpt><trkpt lat="44.85922054030876" lon="8.21398533105709"><ele>150.33333333333334</ele><time>2026-04-11T10:37:09Z</time></trkpt><trkpt lat="44.85917391758905" lon="8.213883049449858"><ele>150.0</ele><time>2026-04-11T10:37:11Z</time></trkpt><trkpt lat="44.859100495823256" lon="8.213789114982736"><ele>150.0</ele><time>2026-04-11T10:37:13Z</time></trkpt><trkpt lat="44.859048894989066" lon="8.21368861007219"><ele>150.0</ele><time>2026-04-11T10:37:15Z</time></trkpt><trkpt lat="44.8589983943483" lon="8.213587718894207"><ele>150.0</ele><time>2026-04-11T10:37:17Z</time></trkpt><trkpt lat="44.85894455939309" lon="8.21348032393001"><ele>150.0</ele><time>2026-04-11T10:37:19Z</time></trkpt><trkpt lat="44.85889914318" lon="8.213377466506795"><ele>150.0</ele><time>2026-04-11T10:37:21Z</time></trkpt><trkpt lat="44.85885185833976" lon="8.213263592500631"><ele>150.0</ele><time>2026-04-11T10:37:23Z</time></trkpt><trkpt lat="44.85883567280595" lon="8.213132281938082"><ele>150.0</ele><time>2026-04-11T10:37:25Z</time></trkpt><trkpt lat="44.858817241778645" lon="8.213001243919669"><ele>150.0</ele><time>2026-04-11T10:37:27Z</time></trkpt><trkpt lat="44.85881169834935" lon="8.212866759884186"><ele>150.0</ele><time>2026-04-11T10:37:29Z</time></trkpt><trkpt lat="44.85880299813184" lon="8.212731645652273"><ele>150.0</ele><time>2026-04-11T10:37:31Z</time></trkpt><trkpt lat="44.85879675109754" lon="8.212599633849758"><ele>150.0</ele><time>2026-04-11T10:37:33Z</time></trkpt><trkpt lat="44.858786025818524" lon="8.212464548036861"><ele>149.99999999999997</ele><time>2026-04-11T10:37:35Z</time></trkpt><trkpt lat="44.85877099309583" lon="8.212331079498925"><ele>150.0</ele><time>2026-04-11T10:37:37Z</time></trkpt><trkpt lat="44.85875476426962" lon="8.212242216653149"><ele>150.0</ele><time>2026-04-11T10:37:40Z</time></trkpt><trkpt lat="44.85874273466902" lon="8.212132568341298"><ele>150.0</ele><time>2026-04-11T10:37:41Z</time></trkpt><trkpt lat="44.85872607789284" lon="8.212027936472031"><ele>150.0</ele><time>2026-04-11T10:37:43Z</time></trkpt><trkpt lat="44.85869478941191" lon="8.211950534753644"><ele>149.99999999999997</ele><time>2026-04-11T10:37:44Z</time></trkpt><trkpt lat="44.858702665003776" lon="8.211858394325219"><ele>150.0</ele><time>2026-04-11T10:37:45Z</time></trkpt><trkpt lat="44.85870977557658" lon="8.211723313572687"><ele>149.83333333333334</ele><time>2026-04-11T10:37:47Z</time></trkpt><trkpt lat="44.85873662090713" lon="8.211603826688735"><ele>149.66666666666666</ele><time>2026-04-11T10:37:49Z</time></trkpt><trkpt lat="44.858755869975425" lon="8.211514291541084"><ele>149.5</ele><time>2026-04-11T10:37:51Z</time></trkpt><trkpt lat="44.85875066463471" lon="8.211419293367385"><ele>149.33333333333331</ele><time>2026-04-11T10:37:53Z</time></trkpt><trkpt lat="44.8586700117917" lon="8.211402021867041"><ele>149.16666666666666</ele><time>2026-04-11T10:37:55Z</time></trkpt><trkpt lat="44.85857322765992" lon="8.211416110243237"><ele>149.0</ele><time>2026-04-11T10:37:58Z</time></trkpt><trkpt lat="44.85850498938292" lon="8.211411232747986"><ele>151.2</ele><time>2026-04-11T10:37:59.999Z</time></trkpt><trkpt lat="44.858441611046786" lon="8.2114116800958"><ele>153.4</ele><time>2026-04-11T10:38:01.999Z</time></trkpt><trkpt lat="44.858367129000044" lon="8.21140926605673"><ele>155.6</ele><time>2026-04-11T10:38:03.999Z</time></trkpt><trkpt lat="44.85827143711092" lon="8.21139941365926"><ele>157.8</ele><time>2026-04-11T10:38:05.999Z</time></trkpt><trkpt lat="44.8581709648846" lon="8.211379817555457"><ele>160.0</ele><time>2026-04-11T10:38:07.999Z</time></trkpt><trkpt lat="44.85804664244752" lon="8.211347508920522"><ele>160.0</ele><time>2026-04-11T10:38:09.999Z</time></trkpt><trkpt lat="44.85792935028057" lon="8.211285737531592"><ele>160.0</ele><time>2026-04-11T10:38:11.999Z</time></trkpt><trkpt lat="44.85782522152495" lon="8.211270426117197"><ele>160.0</ele><time>2026-04-11T10:38:13.999Z</time></trkpt><trkpt lat="44.85771986817631" lon="8.211226189301271"><ele>160.0</ele><time>2026-04-11T10:38:15.999Z</time></trkpt><trkpt lat="44.85761782971755" lon="8.211175405914755"><ele>160.0</ele><time>2026-04-11T10:38:17.999Z</time></trkpt><trkpt lat="44.85751787591497" lon="8.211133632443564"><ele>158.8</ele><time>2026-04-11T10:38:19.999Z</time></trkpt><trkpt lat="44.8574257799218" lon="8.21108028988148"><ele>157.6</ele><time>2026-04-11T10:38:21.999Z</time></trkpt><trkpt lat="44.857328631032274" lon="8.211018272652344"><ele>156.4</ele><time>2026-04-11T10:38:23.999Z</time></trkpt><trkpt lat="44.8572364467802" lon="8.210959048821845"><ele>155.2</ele><time>2026-04-11T10:38:25.999Z</time></trkpt><trkpt lat="44.857151858816394" lon="8.210917672185852"><ele>154.0</ele><time>2026-04-11T10:38:27.999Z</time></trkpt><trkpt lat="44.85706278476721" lon="8.210873380682505"><ele>154.0</ele><time>2026-04-11T10:38:29.999Z</time></trkpt><trkpt lat="44.85697911326827" lon="8.210824244782291"><ele>154.0</ele><time>2026-04-11T10:38:31.999Z</time></trkpt><trkpt lat="44.85689026945681" lon="8.210781832601713"><ele>154.0</ele><time>2026-04-11T10:38:33.999Z</time></trkpt><trkpt lat="44.85680684557642" lon="8.210748027025044"><ele>154.0</ele><time>2026-04-11T10:38:35.999Z</time></trkpt><trkpt lat="44.85672302338475" lon="8.210702806933655"><ele>154.0</ele><time>2026-04-11T10:38:37.999Z</time></trkpt><trkpt lat="44.856677676296634" lon="8.210634528413413"><ele>154.0</ele><time>2026-04-11T10:38:40.999Z</time></trkpt><trkpt lat="44.856609289061595" lon="8.210539526590601"><ele>153.6</ele><time>2026-04-11T10:38:43.999Z</time></trkpt><trkpt lat="44.85655016107945" lon="8.210453475594923"><ele>153.2</ele><time>2026-04-11T10:38:44.999Z</time></trkpt><trkpt lat="44.85648583779826" lon="8.21034398897903"><ele>152.79999999999998</ele><time>2026-04-11T10:38:46.999Z</time></trkpt><trkpt lat="44.85642556213295" lon="8.210242513794523"><ele>152.4</ele><time>2026-04-11T10:38:48.999Z</time></trkpt><trkpt lat="44.856350389769695" lon="8.21015840504202"><ele>152.0</ele><time>2026-04-11T10:38:50.999Z</time></trkpt><trkpt lat="44.85628788882936" lon="8.210059179921275"><ele>152.0</ele><time>2026-04-11T10:38:52.999Z</time></trkpt><trkpt lat="44.85620686961496" lon="8.209992537653548"><ele>152.0</ele><time>2026-04-11T10:38:55Z</time></trkpt><trkpt lat="44.856133045143686" lon="8.209907422335489"><ele>152.0</ele><time>2026-04-11T10:38:57Z</time></trkpt><trkpt lat="44.85605190722618" lon="8.209835453212666"><ele>152.0</ele><time>2026-04-11T10:38:59Z</time></trkpt><trkpt lat="44.855978072323815" lon="8.20975767025169"><ele>152.0</ele><time>2026-04-11T10:39:01Z</time></trkpt><trkpt lat="44.855903656611716" lon="8.209689199053123"><ele>152.0</ele><time>2026-04-11T10:39:03Z</time></trkpt><trkpt lat="44.855831438527375" lon="8.209619463490526"><ele>152.0</ele><time>2026-04-11T10:39:05Z</time></trkpt><trkpt lat="44.8557681635741" lon="8.209542382864406"><ele>152.0</ele><time>2026-04-11T10:39:08Z</time></trkpt><trkpt lat="44.85569471546311" lon="8.209472808024119"><ele>152.0</ele><time>2026-04-11T10:39:11Z</time></trkpt><trkpt lat="44.855613675822035" lon="8.20940532815659"><ele>152.0</ele><time>2026-04-11T10:39:13Z</time></trkpt><trkpt lat="44.85555653666554" lon="8.209360560033266"><ele>152.0</ele><time>2026-04-11T10:39:14Z</time></trkpt><trkpt lat="44.8554522589647" lon="8.209285759724889"><ele>152.0</ele><time>2026-04-11T10:39:16Z</time></trkpt><trkpt lat="44.855368430810124" lon="8.20923504596462"><ele>152.0</ele><time>2026-04-11T10:39:19Z</time></trkpt><trkpt lat="44.855277909745105" lon="8.209198732964166"><ele>152.0</ele><time>2026-04-11T10:39:22Z</time></trkpt><trkpt lat="44.85519620343721" lon="8.209120429748369"><ele>152.0</ele><time>2026-04-11T10:39:25Z</time></trkpt><trkpt lat="44.85512819199743" lon="8.209088556138488"><ele>152.0</ele><time>2026-04-11T10:39:27Z</time></trkpt><trkpt lat="44.85506879535001" lon="8.209028137861138"><ele>152.0</ele><time>2026-04-11T10:39:29Z</time></trkpt><trkpt lat="44.85500873249784" lon="8.208980859684758"><ele>154.39999999999998</ele><time>2026-04-11T10:39:31Z</time></trkpt><trkpt lat="44.85493074889208" lon="8.208933813681831"><ele>156.79999999999998</ele><time>2026-04-11T10:39:33Z</time></trkpt><trkpt lat="44.854867584397816" lon="8.208885013005998"><ele>159.2</ele><time>2026-04-11T10:39:35Z</time></trkpt><trkpt lat="44.854811910174014" lon="8.208831492460176"><ele>161.6</ele><time>2026-04-11T10:39:37Z</time></trkpt><trkpt lat="44.85469412156587" lon="8.208704362135064"><ele>164.0</ele><time>2026-04-11T10:39:39Z</time></trkpt><trkpt lat="44.8546000743169" lon="8.208620678990755"><ele>164.0</ele><time>2026-04-11T10:39:41Z</time></trkpt><trkpt lat="44.85450412663203" lon="8.208556632933613"><ele>164.0</ele><time>2026-04-11T10:39:43Z</time></trkpt><trkpt lat="44.85443160722328" lon="8.208484903376398"><ele>164.0</ele><time>2026-04-11T10:39:45Z</time></trkpt><trkpt lat="44.85436076620951" lon="8.208420352436576"><ele>164.0</ele><time>2026-04-11T10:39:47Z</time></trkpt><trkpt lat="44.85429221429307" lon="8.208347101799363"><ele>164.0</ele><time>2026-04-11T10:39:49Z</time></trkpt><trkpt lat="44.85423294857572" lon="8.208277310676133"><ele>164.0</ele><time>2026-04-11T10:39:52Z</time></trkpt><trkpt lat="44.8541533949159" lon="8.208204255832898"><ele>164.2</ele><time>2026-04-11T10:39:55Z</time></trkpt><trkpt lat="44.85410006639321" lon="8.208149287094923"><ele>164.39999999999998</ele><time>2026-04-11T10:39:57Z</time></trkpt><trkpt lat="44.85398373130335" lon="8.20803785918034"><ele>164.6</ele><time>2026-04-11T10:40:00Z</time></trkpt><trkpt lat="44.853897695218755" lon="8.207969037759831"><ele>164.8</ele><time>2026-04-11T10:40:02Z</time></trkpt><trkpt lat="44.85382297870058" lon="8.207892826656884"><ele>165.0</ele><time>2026-04-11T10:40:03.999Z</time></trkpt><trkpt lat="44.85376288183033" lon="8.20784649188223"><ele>165.0</ele><time>2026-04-11T10:40:05.999Z</time></trkpt><trkpt lat="44.853696610575" lon="8.207787090258416"><ele>165.0</ele><time>2026-04-11T10:40:08.999Z</time></trkpt><trkpt lat="44.85363425120163" lon="8.207738094310189"><ele>165.0</ele><time>2026-04-11T10:40:10.999Z</time></trkpt><trkpt lat="44.85356085322778" lon="8.207678717581707"><ele>165.0</ele><time>2026-04-11T10:40:13.999Z</time></trkpt><trkpt lat="44.853504920936864" lon="8.20762722720313"><ele>165.0</ele><time>2026-04-11T10:40:16.999Z</time></trkpt><trkpt lat="44.853440474008096" lon="8.20757091366486"><ele>165.0</ele><time>2026-04-11T10:40:19.999Z</time></trkpt><trkpt lat="44.85337626050487" lon="8.207501937831946"><ele>164.33333333333334</ele><time>2026-04-11T10:40:22.999Z</time></trkpt><trkpt lat="44.85331402680876" lon="8.207420911697309"><ele>163.66666666666666</ele><time>2026-04-11T10:40:24.999Z</time></trkpt><trkpt lat="44.85326020067756" lon="8.207351982681713"><ele>163.0</ele><time>2026-04-11T10:40:26.999Z</time></trkpt><trkpt lat="44.8532083771165" lon="8.207256714770748"><ele>162.33333333333331</ele><time>2026-04-11T10:40:28.999Z</time></trkpt><trkpt lat="44.853162520152814" lon="8.207166279666648"><ele>161.66666666666666</ele><time>2026-04-11T10:40:30.999Z</time></trkpt><trkpt lat="44.853119505888394" lon="8.20708666922368"><ele>161.0</ele><time>2026-04-11T10:40:32.999Z</time></trkpt><trkpt lat="44.85306851442649" lon="8.206998180659744"><ele>161.0</ele><time>2026-04-11T10:40:34.999Z</time></trkpt><trkpt lat="44.85301753511245" lon="8.206910145508353"><ele>161.0</ele><time>2026-04-11T10:40:36.999Z</time></trkpt><trkpt lat="44.85297203245233" lon="8.206837463879419"><ele>161.0</ele><time>2026-04-11T10:40:38.999Z</time></trkpt><trkpt lat="44.85291642177584" lon="8.206750855405982"><ele>161.0</ele><time>2026-04-11T10:40:40.999Z</time></trkpt><trkpt lat="44.85284648752226" lon="8.206679738435081"><ele>161.0</ele><time>2026-04-11T10:40:44.999Z</time></trkpt><trkpt lat="44.85279530677582" lon="8.206623336470996"><ele>161.0</ele><time>2026-04-11T10:40:46.999Z</time></trkpt><trkpt lat="44.852733155275956" lon="8.20656267454389"><ele>161.0</ele><time>2026-04-11T10:40:48.999Z</time></trkpt><trkpt lat="44.85267770430417" lon="8.206517888444134"><ele>161.0</ele><time>2026-04-11T10:40:50.999Z</time></trkpt><trkpt lat="44.852616474188075" lon="8.2064764732615"><ele>161.0</ele><time>2026-04-11T10:40:52.999Z</time></trkpt><trkpt lat="44.8525571936176" lon="8.206424913872942"><ele>161.0</ele><time>2026-04-11T10:40:54.999Z</time></trkpt><trkpt lat="44.852479996700254" lon="8.206367901981974"><ele>161.0</ele><time>2026-04-11T10:40:56.999Z</time></trkpt><trkpt lat="44.852385212806745" lon="8.206307111882543"><ele>161.0</ele><time>2026-04-11T10:40:59.999Z</time></trkpt><trkpt lat="44.85232930326411" lon="8.206262210848239"><ele>161.0</ele><time>2026-04-11T10:41:02Z</time></trkpt><trkpt lat="44.85226530313113" lon="8.206206744013626"><ele>161.0</ele><time>2026-04-11T10:41:04Z</time></trkpt><trkpt lat="44.8521992036704" lon="8.20614075888822"><ele>161.0</ele><time>2026-04-11T10:41:06Z</time></trkpt><trkpt lat="44.85210084904434" lon="8.206039104799578"><ele>161.0</ele><time>2026-04-11T10:41:08Z</time></trkpt><trkpt lat="44.85201691460285" lon="8.205947929512158"><ele>161.0</ele><time>2026-04-11T10:41:10Z</time></trkpt><trkpt lat="44.8519418023145" lon="8.205857028753725"><ele>161.0</ele><time>2026-04-11T10:41:12Z</time></trkpt><trkpt lat="44.85188858980611" lon="8.205786506730552"><ele>161.0</ele><time>2026-04-11T10:41:15Z</time></trkpt><trkpt lat="44.851827611559706" lon="8.20570129789564"><ele>161.0</ele><time>2026-04-11T10:41:17Z</time></trkpt><trkpt lat="44.85177270930364" lon="8.205615805624246"><ele>161.0</ele><time>2026-04-11T10:41:18Z</time></trkpt><trkpt lat="44.85171268333334" lon="8.205515945434628"><ele>161.0</ele><time>2026-04-11T10:41:20Z</time></trkpt><trkpt lat="44.851681149448005" lon="8.205393452306968"><ele>161.0</ele><time>2026-04-11T10:41:22Z</time></trkpt><trkpt lat="44.851633571977715" lon="8.20529846603451"><ele>161.33333333333331</ele><time>2026-04-11T10:41:24Z</time></trkpt><trkpt lat="44.85159700660869" lon="8.205221086402869"><ele>161.66666666666666</ele><time>2026-04-11T10:41:27Z</time></trkpt><trkpt lat="44.85155456293929" lon="8.205131267093584"><ele>162.0</ele><time>2026-04-11T10:41:29Z</time></trkpt><trkpt lat="44.85150560459588" lon="8.205024977017601"><ele>162.33333333333334</ele><time>2026-04-11T10:41:31Z</time></trkpt><trkpt lat="44.85146481079405" lon="8.204922894737017"><ele>162.66666666666669</ele><time>2026-04-11T10:41:33Z</time></trkpt><trkpt lat="44.851423347240456" lon="8.204813628521972"><ele>163.0</ele><time>2026-04-11T10:41:36Z</time></trkpt><trkpt lat="44.85137830842058" lon="8.204694007330774"><ele>164.0</ele><time>2026-04-11T10:41:39Z</time></trkpt><trkpt lat="44.8513323868848" lon="8.204619654241787"><ele>165.0</ele><time>2026-04-11T10:41:41Z</time></trkpt><trkpt lat="44.851315417279196" lon="8.204526971108569"><ele>166.0</ele><time>2026-04-11T10:41:43Z</time></trkpt><trkpt lat="44.85127456078368" lon="8.204420087195999"><ele>167.0</ele><time>2026-04-11T10:41:45Z</time></trkpt><trkpt lat="44.85122894205653" lon="8.204335667399782"><ele>168.0</ele><time>2026-04-11T10:41:47Z</time></trkpt><trkpt lat="44.85119412384997" lon="8.204246820631393"><ele>169.0</ele><time>2026-04-11T10:41:49Z</time></trkpt><trkpt lat="44.85114887311842" lon="8.204164703455985"><ele>170.0</ele><time>2026-04-11T10:41:51Z</time></trkpt><trkpt lat="44.851084695505364" lon="8.204090252965576"><ele>170.0</ele><time>2026-04-11T10:41:53Z</time></trkpt><trkpt lat="44.85101047280971" lon="8.204027066147063"><ele>170.0</ele><time>2026-04-11T10:41:55Z</time></trkpt><trkpt lat="44.850915762457966" lon="8.204026604994679"><ele>170.0</ele><time>2026-04-11T10:41:58Z</time></trkpt><trkpt lat="44.85085276188324" lon="8.204021658115659"><ele>170.0</ele><time>2026-04-11T10:42:00Z</time></trkpt><trkpt lat="44.85076346394518" lon="8.204036109643472"><ele>170.0</ele><time>2026-04-11T10:42:02.999Z</time></trkpt><trkpt lat="44.850693019841984" lon="8.204047151412514"><ele>170.0</ele><time>2026-04-11T10:42:04.999Z</time></trkpt><trkpt lat="44.85061975845829" lon="8.20407378610641"><ele>168.5</ele><time>2026-04-11T10:42:06.999Z</time></trkpt><trkpt lat="44.85053013376675" lon="8.20412392581796"><ele>167.0</ele><time>2026-04-11T10:42:09.999Z</time></trkpt><trkpt lat="44.85046935415967" lon="8.204163739031653"><ele>165.5</ele><time>2026-04-11T10:42:11.999Z</time></trkpt><trkpt lat="44.85037974645434" lon="8.204231366288633"><ele>164.0</ele><time>2026-04-11T10:42:13.999Z</time></trkpt><trkpt lat="44.8503006560855" lon="8.204258101066085"><ele>162.5</ele><time>2026-04-11T10:42:14.999Z</time></trkpt><trkpt lat="44.850237955056855" lon="8.204274503107579"><ele>161.0</ele><time>2026-04-11T10:42:15.999Z</time></trkpt><trkpt lat="44.85016794597964" lon="8.204296420426608"><ele>161.20000000000002</ele><time>2026-04-11T10:42:16.999Z</time></trkpt><trkpt lat="44.85005074660409" lon="8.204315487363582"><ele>161.4</ele><time>2026-04-11T10:42:18.999Z</time></trkpt><trkpt lat="44.84994423487973" lon="8.204316750085455"><ele>161.6</ele><time>2026-04-11T10:42:20.999Z</time></trkpt><trkpt lat="44.8498355555401" lon="8.204302816122068"><ele>161.8</ele><time>2026-04-11T10:42:22.999Z</time></trkpt><trkpt lat="44.849739671637494" lon="8.204280178289459"><ele>162.0</ele><time>2026-04-11T10:42:24.999Z</time></trkpt><trkpt lat="44.84965501843871" lon="8.204224697701717"><ele>162.0</ele><time>2026-04-11T10:42:26.999Z</time></trkpt><trkpt lat="44.84955490922823" lon="8.204170317530133"><ele>162.0</ele><time>2026-04-11T10:42:28.999Z</time></trkpt><trkpt lat="44.84946534409527" lon="8.204107670351812"><ele>162.0</ele><time>2026-04-11T10:42:30.999Z</time></trkpt><trkpt lat="44.849385433262796" lon="8.204038370095446"><ele>162.0</ele><time>2026-04-11T10:42:32.999Z</time></trkpt><trkpt lat="44.849317994460826" lon="8.203967516268703"><ele>162.0</ele><time>2026-04-11T10:42:34.999Z</time></trkpt><trkpt lat="44.849252418110524" lon="8.203889292000891"><ele>162.5</ele><time>2026-04-11T10:42:36.999Z</time></trkpt><trkpt lat="44.84918208243276" lon="8.203799542780821"><ele>163.0</ele><time>2026-04-11T10:42:38.999Z</time></trkpt><trkpt lat="44.849118052682215" lon="8.203714376099898"><ele>163.5</ele><time>2026-04-11T10:42:40.999Z</time></trkpt><trkpt lat="44.84905649270462" lon="8.203625823867737"><ele>164.0</ele><time>2026-04-11T10:42:42.999Z</time></trkpt><trkpt lat="44.848971247265915" lon="8.203561233737172"><ele>164.5</ele><time>2026-04-11T10:42:44.999Z</time></trkpt><trkpt lat="44.84892097006853" lon="8.203500266297448"><ele>165.0</ele><time>2026-04-11T10:42:47.999Z</time></trkpt><trkpt lat="44.84884003624811" lon="8.203386016445348"><ele>165.0</ele><time>2026-04-11T10:42:50.999Z</time></trkpt><trkpt lat="44.848783087637614" lon="8.203302294637583"><ele>165.0</ele><time>2026-04-11T10:42:52.999Z</time></trkpt><trkpt lat="44.84872717899228" lon="8.203215391916174"><ele>165.0</ele><time>2026-04-11T10:42:54.999Z</time></trkpt><trkpt lat="44.84867932573421" lon="8.203123355943323"><ele>165.0</ele><time>2026-04-11T10:42:57.999Z</time></trkpt><trkpt lat="44.84862824069488" lon="8.20304216464176"><ele>165.0</ele><time>2026-04-11T10:42:59.999Z</time></trkpt><trkpt lat="44.848563445146866" lon="8.20293280068419"><ele>165.0</ele><time>2026-04-11T10:43:02.999Z</time></trkpt><trkpt lat="44.84850624030099" lon="8.202836848413954"><ele>165.2</ele><time>2026-04-11T10:43:05.999Z</time></trkpt><trkpt lat="44.848452179704005" lon="8.202720545141219"><ele>165.4</ele><time>2026-04-11T10:43:08Z</time></trkpt><trkpt lat="44.848391284819364" lon="8.202594059249018"><ele>165.60000000000002</ele><time>2026-04-11T10:43:10Z</time></trkpt><trkpt lat="44.848352014383025" lon="8.202480359684685"><ele>165.8</ele><time>2026-04-11T10:43:12Z</time></trkpt><trkpt lat="44.84831066067101" lon="8.202385532027845"><ele>166.0</ele><time>2026-04-11T10:43:14Z</time></trkpt><trkpt lat="44.84826787723047" lon="8.202297486025119"><ele>166.0</ele><time>2026-04-11T10:43:16Z</time></trkpt><trkpt lat="44.84823104152984" lon="8.202204518367292"><ele>166.0</ele><time>2026-04-11T10:43:18Z</time></trkpt><trkpt lat="44.848194057986504" lon="8.202105074436147"><ele>166.0</ele><time>2026-04-11T10:43:20Z</time></trkpt><trkpt lat="44.8481507515545" lon="8.202005232256242"><ele>166.0</ele><time>2026-04-11T10:43:22Z</time></trkpt><trkpt lat="44.848108288188236" lon="8.201905414051453"><ele>166.0</ele><time>2026-04-11T10:43:24Z</time></trkpt><trkpt lat="44.84805671120462" lon="8.201805961170315"><ele>166.0</ele><time>2026-04-11T10:43:26Z</time></trkpt><trkpt lat="44.8480047187261" lon="8.201713094345449"><ele>166.0</ele><time>2026-04-11T10:43:28Z</time></trkpt><trkpt lat="44.84794616133121" lon="8.20162468848242"><ele>166.0</ele><time>2026-04-11T10:43:30Z</time></trkpt><trkpt lat="44.84788328615377" lon="8.201542183750977"><ele>166.0</ele><time>2026-04-11T10:43:32Z</time></trkpt><trkpt lat="44.847815516153254" lon="8.201441356763493"><ele>166.0</ele><time>2026-04-11T10:43:34Z</time></trkpt><trkpt lat="44.84774178507214" lon="8.201356233281262"><ele>166.0</ele><time>2026-04-11T10:43:36Z</time></trkpt><trkpt lat="44.84767829973173" lon="8.201276639195735"><ele>165.66666666666669</ele><time>2026-04-11T10:43:38Z</time></trkpt><trkpt lat="44.8476209563465" lon="8.201194975083979"><ele>165.33333333333334</ele><time>2026-04-11T10:43:40Z</time></trkpt><trkpt lat="44.84756691242319" lon="8.201122267468874"><ele>165.0</ele><time>2026-04-11T10:43:42Z</time></trkpt><trkpt lat="44.84751594400969" lon="8.201024854851894"><ele>164.66666666666666</ele><time>2026-04-11T10:43:44Z</time></trkpt><trkpt lat="44.847460960841424" lon="8.20092364434771"><ele>164.33333333333331</ele><time>2026-04-11T10:43:46Z</time></trkpt><trkpt lat="44.84741650729844" lon="8.200812636829918"><ele>164.0</ele><time>2026-04-11T10:43:48Z</time></trkpt><trkpt lat="44.84737815771462" lon="8.200707324945425"><ele>163.83333333333331</ele><time>2026-04-11T10:43:50Z</time></trkpt><trkpt lat="44.84734107853624" lon="8.200588249285744"><ele>163.66666666666666</ele><time>2026-04-11T10:43:52Z</time></trkpt><trkpt lat="44.84729694591202" lon="8.200464543725605"><ele>163.5</ele><time>2026-04-11T10:43:54Z</time></trkpt><trkpt lat="44.847275769493585" lon="8.20034202269667"><ele>163.33333333333334</ele><time>2026-04-11T10:43:56Z</time></trkpt><trkpt lat="44.84724778233241" lon="8.20023326129879"><ele>163.16666666666669</ele><time>2026-04-11T10:43:58Z</time></trkpt><trkpt lat="44.84722058934035" lon="8.200125173230477"><ele>163.0</ele><time>2026-04-11T10:44:00Z</time></trkpt><trkpt lat="44.84719265109422" lon="8.200016975676009"><ele>163.0</ele><time>2026-04-11T10:44:02Z</time></trkpt><trkpt lat="44.84716390158714" lon="8.199913607879928"><ele>163.0</ele><time>2026-04-11T10:44:04Z</time></trkpt><trkpt lat="44.84712904715063" lon="8.199816376527552"><ele>163.0</ele><time>2026-04-11T10:44:06Z</time></trkpt><trkpt lat="44.84709744965139" lon="8.199719180702369"><ele>163.0</ele><time>2026-04-11T10:44:08Z</time></trkpt><trkpt lat="44.84707096779659" lon="8.199633782796935"><ele>163.0</ele><time>2026-04-11T10:44:10Z</time></trkpt><trkpt lat="44.84703577524286" lon="8.199518288778561"><ele>163.0</ele><time>2026-04-11T10:44:12.999Z</time></trkpt><trkpt lat="44.847005988234336" lon="8.199435089686476"><ele>162.0</ele><time>2026-04-11T10:44:14.999Z</time></trkpt><trkpt lat="44.84698519486643" lon="8.199335421928508"><ele>161.0</ele><time>2026-04-11T10:44:16.999Z</time></trkpt><trkpt lat="44.84694903667377" lon="8.199261149946707"><ele>160.0</ele><time>2026-04-11T10:44:18.999Z</time></trkpt><trkpt lat="44.84688394730173" lon="8.199187984123093"><ele>159.0</ele><time>2026-04-11T10:44:20.999Z</time></trkpt><trkpt lat="44.84682882773584" lon="8.199125375757285"><ele>158.0</ele><time>2026-04-11T10:44:22.999Z</time></trkpt><trkpt lat="44.84676504129113" lon="8.199046312301903"><ele>157.0</ele><time>2026-04-11T10:44:24.999Z</time></trkpt><trkpt lat="44.846690835607944" lon="8.19897111765465"><ele>155.83333333333334</ele><time>2026-04-11T10:44:26.999Z</time></trkpt><trkpt lat="44.84661843618928" lon="8.19890437009275"><ele>154.66666666666669</ele><time>2026-04-11T10:44:28.999Z</time></trkpt><trkpt lat="44.84654924574992" lon="8.198862001188127"><ele>153.5</ele><time>2026-04-11T10:44:30.999Z</time></trkpt><trkpt lat="44.84647328537715" lon="8.198796552492736"><ele>152.33333333333334</ele><time>2026-04-11T10:44:32.999Z</time></trkpt><trkpt lat="44.84639077179577" lon="8.198743792399053"><ele>151.16666666666666</ele><time>2026-04-11T10:44:34.999Z</time></trkpt><trkpt lat="44.846323764472615" lon="8.198704104384145"><ele>150.0</ele><time>2026-04-11T10:44:36.999Z</time></trkpt><trkpt lat="44.84625847082773" lon="8.198718316626762"><ele>150.0</ele><time>2026-04-11T10:44:40.999Z</time></trkpt><trkpt lat="44.84620187392639" lon="8.198768865368388"><ele>150.0</ele><time>2026-04-11T10:44:43.999Z</time></trkpt><trkpt lat="44.84613192005474" lon="8.198840114889634"><ele>150.0</ele><time>2026-04-11T10:44:46.999Z</time></trkpt><trkpt lat="44.84604488042834" lon="8.198889754258563"><ele>150.0</ele><time>2026-04-11T10:44:49.999Z</time></trkpt><trkpt lat="44.845991600381026" lon="8.1989527216865"><ele>150.0</ele><time>2026-04-11T10:44:51.999Z</time></trkpt><trkpt lat="44.845933597051285" lon="8.1990171109949"><ele>150.0</ele><time>2026-04-11T10:44:53.999Z</time></trkpt><trkpt lat="44.84587739796418" lon="8.199078217255215"><ele>152.0</ele><time>2026-04-11T10:44:55.999Z</time></trkpt><trkpt lat="44.8458200049051" lon="8.199143680611188"><ele>154.0</ele><time>2026-04-11T10:44:57.999Z</time></trkpt><trkpt lat="44.845747444497775" lon="8.19919353420178"><ele>156.0</ele><time>2026-04-11T10:44:59.999Z</time></trkpt><trkpt lat="44.84567698694391" lon="8.199238783880386"><ele>158.0</ele><time>2026-04-11T10:45:01.999Z</time></trkpt><trkpt lat="44.845606669320546" lon="8.199282155322623"><ele>160.0</ele><time>2026-04-11T10:45:03.999Z</time></trkpt><trkpt lat="44.84553366169227" lon="8.19931823475171"><ele>162.0</ele><time>2026-04-11T10:45:05.999Z</time></trkpt><trkpt lat="44.84546482900296" lon="8.199357737914848"><ele>162.0</ele><time>2026-04-11T10:45:07.999Z</time></trkpt><trkpt lat="44.845389893593136" lon="8.199404249819413"><ele>162.0</ele><time>2026-04-11T10:45:09.999Z</time></trkpt><trkpt lat="44.84531853207616" lon="8.199442581265172"><ele>162.0</ele><time>2026-04-11T10:45:11.999Z</time></trkpt><trkpt lat="44.84524006146446" lon="8.199489487264273"><ele>162.0</ele><time>2026-04-11T10:45:14Z</time></trkpt><trkpt lat="44.84516881619557" lon="8.19952831366808"><ele>162.0</ele><time>2026-04-11T10:45:16Z</time></trkpt><trkpt lat="44.84510061078315" lon="8.199579572022076"><ele>162.0</ele><time>2026-04-11T10:45:18Z</time></trkpt><trkpt lat="44.845027401956635" lon="8.19963089965847"><ele>161.66666666666666</ele><time>2026-04-11T10:45:20Z</time></trkpt><trkpt lat="44.84496827697061" lon="8.199687927631414"><ele>161.33333333333334</ele><time>2026-04-11T10:45:22Z</time></trkpt><trkpt lat="44.84490604353568" lon="8.199743918633093"><ele>161.0</ele><time>2026-04-11T10:45:24Z</time></trkpt><trkpt lat="44.844825903098155" lon="8.199838808047812"><ele>160.66666666666669</ele><time>2026-04-11T10:45:27Z</time></trkpt><trkpt lat="44.844752662870505" lon="8.199922564371148"><ele>160.33333333333334</ele><time>2026-04-11T10:45:30Z</time></trkpt><trkpt lat="44.84470303926001" lon="8.199993181798458"><ele>160.0</ele><time>2026-04-11T10:45:32Z</time></trkpt><trkpt lat="44.844633939884574" lon="8.200077890013915"><ele>160.66666666666669</ele><time>2026-04-11T10:45:35Z</time></trkpt><trkpt lat="44.844573178940074" lon="8.200155886352244"><ele>161.33333333333334</ele><time>2026-04-11T10:45:38Z</time></trkpt><trkpt lat="44.84450746259542" lon="8.200223520873465"><ele>162.0</ele><time>2026-04-11T10:45:41Z</time></trkpt><trkpt lat="44.8444496232715" lon="8.200298813211514"><ele>162.66666666666666</ele><time>2026-04-11T10:45:44Z</time></trkpt><trkpt lat="44.84438420924523" lon="8.200383520495672"><ele>163.33333333333331</ele><time>2026-04-11T10:45:47Z</time></trkpt><trkpt lat="44.84433579429324" lon="8.200451445032202"><ele>164.0</ele><time>2026-04-11T10:45:50Z</time></trkpt><trkpt lat="44.8442882411074" lon="8.200521865844772"><ele>164.5</ele><time>2026-04-11T10:45:53Z</time></trkpt><trkpt lat="44.84423991672894" lon="8.20060985430047"><ele>165.0</ele><time>2026-04-11T10:45:56Z</time></trkpt><trkpt lat="44.84418883984889" lon="8.200707290584317"><ele>165.5</ele><time>2026-04-11T10:45:59Z</time></trkpt><trkpt lat="44.844138016447154" lon="8.200788556593073"><ele>166.0</ele><time>2026-04-11T10:46:02Z</time></trkpt><trkpt lat="44.84408510843451" lon="8.20087004100449"><ele>166.5</ele><time>2026-04-11T10:46:05Z</time></trkpt><trkpt lat="44.844028573174214" lon="8.200963305744919"><ele>167.0</ele><time>2026-04-11T10:46:08Z</time></trkpt><trkpt lat="44.843993288775295" lon="8.201049490128277"><ele>167.5</ele><time>2026-04-11T10:46:11Z</time></trkpt><trkpt lat="44.84395851243129" lon="8.201148178864123"><ele>168.0</ele><time>2026-04-11T10:46:14Z</time></trkpt><trkpt lat="44.84393411522798" lon="8.201248700179198"><ele>168.5</ele><time>2026-04-11T10:46:17Z</time></trkpt><trkpt lat="44.84389357951219" lon="8.2013460118935"><ele>169.0</ele><time>2026-04-11T10:46:20Z</time></trkpt><trkpt lat="44.843861598095216" lon="8.201448273776922"><ele>169.5</ele><time>2026-04-11T10:46:23Z</time></trkpt><trkpt lat="44.84383676891874" lon="8.201543626396864"><ele>170.0</ele><time>2026-04-11T10:46:25.999Z</time></trkpt><trkpt lat="44.84379979058084" lon="8.201634264810208"><ele>170.66666666666666</ele><time>2026-04-11T10:46:28.999Z</time></trkpt><trkpt lat="44.843759876090296" lon="8.201710255304349"><ele>171.33333333333331</ele><time>2026-04-11T10:46:31.999Z</time></trkpt><trkpt lat="44.843705048653426" lon="8.201777103409896"><ele>172.0</ele><time>2026-04-11T10:46:34.999Z</time></trkpt><trkpt lat="44.84364095873256" lon="8.201843465858756"><ele>172.66666666666666</ele><time>2026-04-11T10:46:37.999Z</time></trkpt><trkpt lat="44.84355921867495" lon="8.201895011504298"><ele>173.33333333333334</ele><time>2026-04-11T10:46:41.999Z</time></trkpt><trkpt lat="44.84350479814515" lon="8.201948429604803"><ele>174.0</ele><time>2026-04-11T10:46:44.999Z</time></trkpt><trkpt lat="44.84343246658085" lon="8.20200694969475"><ele>174.0</ele><time>2026-04-11T10:46:47.999Z</time></trkpt><trkpt lat="44.843361664204" lon="8.20205304349539"><ele>174.0</ele><time>2026-04-11T10:46:50.999Z</time></trkpt><trkpt lat="44.8432874403021" lon="8.202098096285324"><ele>174.0</ele><time>2026-04-11T10:46:53.999Z</time></trkpt><trkpt lat="44.84320476266801" lon="8.202140231690413"><ele>174.0</ele><time>2026-04-11T10:46:57.999Z</time></trkpt><trkpt lat="44.84313401604897" lon="8.202188608995046"><ele>174.0</ele><time>2026-04-11T10:47:00.999Z</time></trkpt><trkpt lat="44.843057764083106" lon="8.202214510880879"><ele>174.0</ele><time>2026-04-11T10:47:03.999Z</time></trkpt><trkpt lat="44.84298576890359" lon="8.202249040535197"><ele>174.0</ele><time>2026-04-11T10:47:06.999Z</time></trkpt><trkpt lat="44.84290533878054" lon="8.202261562898366"><ele>174.0</ele><time>2026-04-11T10:47:09.999Z</time></trkpt><trkpt lat="44.84283550117256" lon="8.20227137724099"><ele>174.0</ele><time>2026-04-11T10:47:12.999Z</time></trkpt><trkpt lat="44.842760908739585" lon="8.202290186475036"><ele>174.0</ele><time>2026-04-11T10:47:15.999Z</time></trkpt><trkpt lat="44.842713331670936" lon="8.202354476724851"><ele>174.0</ele><time>2026-04-11T10:47:19Z</time></trkpt><trkpt lat="44.84268135316488" lon="8.202445275668653"><ele>174.0</ele><time>2026-04-11T10:47:22Z</time></trkpt><trkpt lat="44.84268827597853" lon="8.202543728145663"><ele>174.0</ele><time>2026-04-11T10:47:25Z</time></trkpt><trkpt lat="44.84273104703347" lon="8.20261937629388"><ele>175.83333333333334</ele><time>2026-04-11T10:47:28Z</time></trkpt><trkpt lat="44.84279795130635" lon="8.202668311773845"><ele>177.66666666666666</ele><time>2026-04-11T10:47:31Z</time></trkpt><trkpt lat="44.842866149457876" lon="8.202674533281524"><ele>179.5</ele><time>2026-04-11T10:47:34Z</time></trkpt><trkpt lat="44.84294866112754" lon="8.202699260224808"><ele>181.33333333333331</ele><time>2026-04-11T10:47:39Z</time></trkpt><trkpt lat="44.84301138243342" lon="8.2027098074581"><ele>183.16666666666666</ele><time>2026-04-11T10:47:42Z</time></trkpt><trkpt lat="44.84310114709576" lon="8.202749758584398"><ele>185.0</ele><time>2026-04-11T10:47:46Z</time></trkpt><trkpt lat="44.84316914562392" lon="8.202813585532946"><ele>184.99999999999997</ele><time>2026-04-11T10:47:50Z</time></trkpt><trkpt lat="44.84324125258269" lon="8.202886833845554"><ele>185.0</ele><time>2026-04-11T10:47:53Z</time></trkpt><trkpt lat="44.843293911772754" lon="8.20295218632771"><ele>185.0</ele><time>2026-04-11T10:47:56Z</time></trkpt><trkpt lat="44.84333091241128" lon="8.203025172032698"><ele>185.0</ele><time>2026-04-11T10:47:59Z</time></trkpt><trkpt lat="44.84337263820232" lon="8.203121966222485"><ele>185.0</ele><time>2026-04-11T10:48:02Z</time></trkpt><trkpt lat="44.84339596648121" lon="8.20321261829501"><ele>184.99999999999997</ele><time>2026-04-11T10:48:06Z</time></trkpt><trkpt lat="44.84340219603398" lon="8.203316019326792"><ele>185.0</ele><time>2026-04-11T10:48:11Z</time></trkpt><trkpt lat="44.84335322574006" lon="8.203415741922214"><ele>186.57142857142856</ele><time>2026-04-11T10:48:15Z</time></trkpt><trkpt lat="44.843311980585256" lon="8.203498361549839"><ele>188.14285714285714</ele><time>2026-04-11T10:48:17Z</time></trkpt><trkpt lat="44.8432589979288" lon="8.203584604741916"><ele>189.71428571428572</ele><time>2026-04-11T10:48:20Z</time></trkpt><trkpt lat="44.84321130392991" lon="8.203667953047454"><ele>191.28571428571428</ele><time>2026-04-11T10:48:23Z</time></trkpt><trkpt lat="44.843173066753025" lon="8.203758462798355"><ele>192.85714285714286</ele><time>2026-04-11T10:48:25Z</time></trkpt><trkpt lat="44.84313249971406" lon="8.203839199172203"><ele>194.42857142857142</ele><time>2026-04-11T10:48:27Z</time></trkpt><trkpt lat="44.84308983007421" lon="8.203908002427617"><ele>196.0</ele><time>2026-04-11T10:48:28.999Z</time></trkpt><trkpt lat="44.843042958148" lon="8.20398785323175"><ele>195.33333333333331</ele><time>2026-04-11T10:48:30.999Z</time></trkpt><trkpt lat="44.842973165724345" lon="8.204082256778557"><ele>194.66666666666666</ele><time>2026-04-11T10:48:33.999Z</time></trkpt><trkpt lat="44.842924526882754" lon="8.204147687513943"><ele>194.0</ele><time>2026-04-11T10:48:35.999Z</time></trkpt><trkpt lat="44.842870948909024" lon="8.20422347808101"><ele>193.33333333333331</ele><time>2026-04-11T10:48:37.999Z</time></trkpt><trkpt lat="44.84280875494563" lon="8.204326861183121"><ele>192.66666666666666</ele><time>2026-04-11T10:48:39.999Z</time></trkpt><trkpt lat="44.84274098342492" lon="8.204398857399143"><ele>192.0</ele><time>2026-04-11T10:48:41.999Z</time></trkpt><trkpt lat="44.84267342642658" lon="8.204491508310792"><ele>192.57142857142856</ele><time>2026-04-11T10:48:43.999Z</time></trkpt><trkpt lat="44.8426065071805" lon="8.20457449059224"><ele>193.14285714285714</ele><time>2026-04-11T10:48:45.999Z</time></trkpt><trkpt lat="44.84254445553453" lon="8.204649008676174"><ele>193.71428571428572</ele><time>2026-04-11T10:48:47.999Z</time></trkpt><trkpt lat="44.84249501752832" lon="8.204708800602031"><ele>194.28571428571428</ele><time>2026-04-11T10:48:49.999Z</time></trkpt><trkpt lat="44.84245001096946" lon="8.204773736500599"><ele>194.85714285714286</ele><time>2026-04-11T10:48:51.999Z</time></trkpt><trkpt lat="44.84239952763704" lon="8.204830520056458"><ele>195.42857142857142</ele><time>2026-04-11T10:48:53.999Z</time></trkpt><trkpt lat="44.84234559265065" lon="8.204900570264254"><ele>196.0</ele><time>2026-04-11T10:48:56.999Z</time></trkpt><trkpt lat="44.84227530579757" lon="8.204970284636998"><ele>195.99999999999997</ele><time>2026-04-11T10:48:59.999Z</time></trkpt><trkpt lat="44.84221283812728" lon="8.205031343733065"><ele>196.0</ele><time>2026-04-11T10:49:02.999Z</time></trkpt><trkpt lat="44.842139544761096" lon="8.205117581288182"><ele>196.0</ele><time>2026-04-11T10:49:05.999Z</time></trkpt><trkpt lat="44.84208953448193" lon="8.205181519597865"><ele>196.0</ele><time>2026-04-11T10:49:07.999Z</time></trkpt><trkpt lat="44.84199542368765" lon="8.205231626885691"><ele>195.99999999999997</ele><time>2026-04-11T10:49:09.999Z</time></trkpt><trkpt lat="44.84192214635052" lon="8.205300611629147"><ele>196.0</ele><time>2026-04-11T10:49:11.999Z</time></trkpt><trkpt lat="44.8418437098443" lon="8.205380547720711"><ele>195.60000000000002</ele><time>2026-04-11T10:49:13.999Z</time></trkpt><trkpt lat="44.841755213168504" lon="8.205424902008282"><ele>195.2</ele><time>2026-04-11T10:49:15.999Z</time></trkpt><trkpt lat="44.84166645902423" lon="8.20547474819419"><ele>194.8</ele><time>2026-04-11T10:49:17.999Z</time></trkpt><trkpt lat="44.84157622158466" lon="8.205531359847084"><ele>194.39999999999998</ele><time>2026-04-11T10:49:19.999Z</time></trkpt><trkpt lat="44.84148369739527" lon="8.205600849654987"><ele>194.0</ele><time>2026-04-11T10:49:21.999Z</time></trkpt><trkpt lat="44.841424311638946" lon="8.205680756192724"><ele>194.00000000000003</ele><time>2026-04-11T10:49:23.999Z</time></trkpt><trkpt lat="44.841344934449616" lon="8.205744067889816"><ele>194.0</ele><time>2026-04-11T10:49:26Z</time></trkpt><trkpt lat="44.841287225348296" lon="8.205835338494333"><ele>194.0</ele><time>2026-04-11T10:49:28Z</time></trkpt><trkpt lat="44.84121820571594" lon="8.20592412889468"><ele>194.0</ele><time>2026-04-11T10:49:30Z</time></trkpt><trkpt lat="44.84116034787977" lon="8.206006348029875"><ele>194.00000000000003</ele><time>2026-04-11T10:49:32Z</time></trkpt><trkpt lat="44.84110977640637" lon="8.206077388052147"><ele>194.0</ele><time>2026-04-11T10:49:34Z</time></trkpt><trkpt lat="44.84105037745031" lon="8.206159101329437"><ele>194.00000000000003</ele><time>2026-04-11T10:49:36Z</time></trkpt><trkpt lat="44.8410000052722" lon="8.206228385224025"><ele>194.0</ele><time>2026-04-11T10:49:38Z</time></trkpt><trkpt lat="44.84091875365595" lon="8.206305087733897"><ele>194.0</ele><time>2026-04-11T10:49:40Z</time></trkpt><trkpt lat="44.84084161253907" lon="8.206330378777235"><ele>194.0</ele><time>2026-04-11T10:49:43Z</time></trkpt><trkpt lat="44.84076490479933" lon="8.206394197319177"><ele>194.00000000000003</ele><time>2026-04-11T10:49:46Z</time></trkpt><trkpt lat="44.84069251510352" lon="8.206433707643784"><ele>194.0</ele><time>2026-04-11T10:49:49Z</time></trkpt><trkpt lat="44.8406294907624" lon="8.206455648900146"><ele>194.33333333333334</ele><time>2026-04-11T10:49:52Z</time></trkpt><trkpt lat="44.840561187185514" lon="8.2064851790186"><ele>194.66666666666669</ele><time>2026-04-11T10:49:55Z</time></trkpt><trkpt lat="44.84050764102189" lon="8.206541023880002"><ele>195.0</ele><time>2026-04-11T10:49:57Z</time></trkpt><trkpt lat="44.84042732709289" lon="8.206531157316812"><ele>195.33333333333331</ele><time>2026-04-11T10:50:02Z</time></trkpt><trkpt lat="44.84035762797013" lon="8.206556431283433"><ele>195.66666666666666</ele><time>2026-04-11T10:50:06Z</time></trkpt><trkpt lat="44.84027948143207" lon="8.206527048262199"><ele>196.0</ele><time>2026-04-11T10:50:10Z</time></trkpt><trkpt lat="44.84019952120153" lon="8.206532688883431"><ele>197.71428571428572</ele><time>2026-04-11T10:50:16Z</time></trkpt><trkpt lat="44.8401325528459" lon="8.206541992029084"><ele>199.42857142857144</ele><time>2026-04-11T10:50:20Z</time></trkpt><trkpt lat="44.84005279098721" lon="8.20651185046957"><ele>201.14285714285714</ele><time>2026-04-11T10:50:24Z</time></trkpt><trkpt lat="44.83999075911597" lon="8.20649245795263"><ele>202.85714285714286</ele><time>2026-04-11T10:50:28Z</time></trkpt><trkpt lat="44.839918495676145" lon="8.206473949122284"><ele>204.57142857142858</ele><time>2026-04-11T10:50:32Z</time></trkpt><trkpt lat="44.83985563674891" lon="8.206440462844782"><ele>206.28571428571428</ele><time>2026-04-11T10:50:34.999Z</time></trkpt><trkpt lat="44.839782101908575" lon="8.206435824090507"><ele>208.0</ele><time>2026-04-11T10:50:38.999Z</time></trkpt><trkpt lat="44.83972180483607" lon="8.206396188836127"><ele>210.33333333333331</ele><time>2026-04-11T10:50:42.999Z</time></trkpt><trkpt lat="44.83964596682016" lon="8.206403500450424"><ele>212.66666666666666</ele><time>2026-04-11T10:50:46.999Z</time></trkpt><trkpt lat="44.83957432854809" lon="8.206345623492053"><ele>215.0</ele><time>2026-04-11T10:50:50.999Z</time></trkpt><trkpt lat="44.83949946850426" lon="8.20634145728202"><ele>217.33333333333331</ele><time>2026-04-11T10:50:54.999Z</time></trkpt><trkpt lat="44.839431855124545" lon="8.206304778130573"><ele>219.66666666666666</ele><time>2026-04-11T10:50:57.999Z</time></trkpt><trkpt lat="44.83935534503266" lon="8.206275717328198"><ele>222.0</ele><time>2026-04-11T10:51:01.999Z</time></trkpt><trkpt lat="44.839288889049215" lon="8.20630090405653"><ele>222.71428571428572</ele><time>2026-04-11T10:51:04.999Z</time></trkpt><trkpt lat="44.83923398691578" lon="8.206257094470613"><ele>223.42857142857144</ele><time>2026-04-11T10:51:07.999Z</time></trkpt><trkpt lat="44.839156697219934" lon="8.206261020903263"><ele>224.14285714285717</ele><time>2026-04-11T10:51:10.999Z</time></trkpt><trkpt lat="44.83909291407361" lon="8.206221494174146"><ele>224.85714285714286</ele><time>2026-04-11T10:51:14.999Z</time></trkpt><trkpt lat="44.83902711221245" lon="8.206238931649736"><ele>225.5714285714286</ele><time>2026-04-11T10:51:17.999Z</time></trkpt><trkpt lat="44.8389403447011" lon="8.20621381465999"><ele>226.2857142857143</ele><time>2026-04-11T10:51:21.999Z</time></trkpt><trkpt lat="44.838866518850125" lon="8.206232150856907"><ele>227.0</ele><time>2026-04-11T10:51:25.999Z</time></trkpt><trkpt lat="44.83877805836714" lon="8.206218154021943"><ele>227.0</ele><time>2026-04-11T10:51:29.999Z</time></trkpt><trkpt lat="44.838715082145995" lon="8.206237567688428"><ele>227.00000000000003</ele><time>2026-04-11T10:51:33Z</time></trkpt><trkpt lat="44.83865095722718" lon="8.206238041207493"><ele>227.0</ele><time>2026-04-11T10:51:36Z</time></trkpt><trkpt lat="44.83858242213695" lon="8.206246927105312"><ele>227.0</ele><time>2026-04-11T10:51:40Z</time></trkpt><trkpt lat="44.83850537371922" lon="8.206242168201715"><ele>227.00000000000003</ele><time>2026-04-11T10:51:44Z</time></trkpt><trkpt lat="44.83843628829074" lon="8.20623228430814"><ele>227.0</ele><time>2026-04-11T10:51:47Z</time></trkpt><trkpt lat="44.838369162709554" lon="8.206234460180921"><ele>227.0</ele><time>2026-04-11T10:51:50Z</time></trkpt><trkpt lat="44.838287794778964" lon="8.20623728619846"><ele>228.00000000000003</ele><time>2026-04-11T10:51:54Z</time></trkpt><trkpt lat="44.83821805047921" lon="8.206240009728736"><ele>229.0</ele><time>2026-04-11T10:51:57Z</time></trkpt><trkpt lat="44.8381393343531" lon="8.206254212755287"><ele>230.0</ele><time>2026-04-11T10:52:00Z</time></trkpt><trkpt lat="44.83805261782536" lon="8.206265436786547"><ele>231.0</ele><time>2026-04-11T10:52:03Z</time></trkpt><trkpt lat="44.837972781300145" lon="8.206269949107204"><ele>232.00000000000003</ele><time>2026-04-11T10:52:05Z</time></trkpt><trkpt lat="44.83787182896152" lon="8.206264967492356"><ele>233.0</ele><time>2026-04-11T10:52:07Z</time></trkpt><trkpt lat="44.83778516675963" lon="8.206255679616866"><ele>233.0</ele><time>2026-04-11T10:52:09Z</time></trkpt><trkpt lat="44.83770535463709" lon="8.206261418578931"><ele>233.0</ele><time>2026-04-11T10:52:11Z</time></trkpt><trkpt lat="44.83763388093719" lon="8.206293846833034"><ele>233.0</ele><time>2026-04-11T10:52:13Z</time></trkpt><trkpt lat="44.837597332605455" lon="8.2063722792541"><ele>233.0</ele><time>2026-04-11T10:52:16Z</time></trkpt><trkpt lat="44.83764980891985" lon="8.20647007702507"><ele>233.0</ele><time>2026-04-11T10:52:26Z</time></trkpt><trkpt lat="44.83770255173879" lon="8.20640631987901"><ele>233.0</ele><time>2026-04-11T10:55:03.999Z</time></trkpt><trkpt lat="44.83769560044837" lon="8.20649851391764"><ele>233.0</ele><time>2026-04-11T10:55:57.999Z</time></trkpt><trkpt lat="44.83763476101668" lon="8.206454553507022"><ele>233.16666666666669</ele><time>2026-04-11T11:00:32Z</time></trkpt><trkpt lat="44.83761998488652" lon="8.206358390959414"><ele>233.33333333333334</ele><time>2026-04-11T11:00:36Z</time></trkpt><trkpt lat="44.83756166200744" lon="8.206293177964904"><ele>233.5</ele><time>2026-04-11T11:01:21Z</time></trkpt><trkpt lat="44.83747664287224" lon="8.206280334830137"><ele>233.66666666666669</ele><time>2026-04-11T11:01:24Z</time></trkpt><trkpt lat="44.837395342608666" lon="8.2063001476417"><ele>233.83333333333334</ele><time>2026-04-11T11:01:27Z</time></trkpt><trkpt lat="44.837318903420815" lon="8.206359275951426"><ele>234.0</ele><time>2026-04-11T11:01:30Z</time></trkpt><trkpt lat="44.83731071727239" lon="8.206476140809887"><ele>232.42857142857144</ele><time>2026-04-11T11:01:33Z</time></trkpt><trkpt lat="44.83731225408476" lon="8.206575403409206"><ele>230.8571428571429</ele><time>2026-04-11T11:01:36Z</time></trkpt><trkpt lat="44.837327648449715" lon="8.20668580563234"><ele>229.28571428571428</ele><time>2026-04-11T11:01:39Z</time></trkpt><trkpt lat="44.83733933130507" lon="8.206800725131009"><ele>227.71428571428572</ele><time>2026-04-11T11:01:42Z</time></trkpt><trkpt lat="44.83734910967842" lon="8.206893817689604"><ele>226.14285714285714</ele><time>2026-04-11T11:01:44Z</time></trkpt><trkpt lat="44.83735805296534" lon="8.206989996871881"><ele>224.57142857142856</ele><time>2026-04-11T11:01:46Z</time></trkpt><trkpt lat="44.837371425562345" lon="8.20710234238111"><ele>223.0</ele><time>2026-04-11T11:01:48Z</time></trkpt><trkpt lat="44.83738339255369" lon="8.207223371003566"><ele>223.16666666666666</ele><time>2026-04-11T11:01:50Z</time></trkpt><trkpt lat="44.83739460564476" lon="8.20733490391172"><ele>223.33333333333331</ele><time>2026-04-11T11:01:52Z</time></trkpt><trkpt lat="44.8373933197891" lon="8.207432062133911"><ele>223.5</ele><time>2026-04-11T11:01:54Z</time></trkpt><trkpt lat="44.83733677882533" lon="8.207538315557251"><ele>223.66666666666669</ele><time>2026-04-11T11:01:57Z</time></trkpt><trkpt lat="44.83726508933874" lon="8.20756415142001"><ele>223.83333333333334</ele><time>2026-04-11T11:02:15Z</time></trkpt><trkpt lat="44.837191174450716" lon="8.207551185944016"><ele>224.0</ele><time>2026-04-11T11:02:40Z</time></trkpt><trkpt lat="44.837119233439374" lon="8.207526204134263"><ele>224.0</ele><time>2026-04-11T11:02:45Z</time></trkpt><trkpt lat="44.837054418787595" lon="8.207505164372085"><ele>224.0</ele><time>2026-04-11T11:03:00Z</time></trkpt><trkpt lat="44.83699081606874" lon="8.207471807169545"><ele>224.0</ele><time>2026-04-11T11:03:02Z</time></trkpt><trkpt lat="44.83693065570025" lon="8.207443763065424"><ele>224.0</ele><time>2026-04-11T11:03:04Z</time></trkpt><trkpt lat="44.83686475180605" lon="8.207411546493134"><ele>224.0</ele><time>2026-04-11T11:03:06Z</time></trkpt><trkpt lat="44.836799740299135" lon="8.207380097623735"><ele>224.0</ele><time>2026-04-11T11:03:08Z</time></trkpt><trkpt lat="44.83672764860828" lon="8.207352220961429"><ele>224.0</ele><time>2026-04-11T11:03:10Z</time></trkpt><trkpt lat="44.836653133516954" lon="8.207321307911043"><ele>225.42857142857144</ele><time>2026-04-11T11:03:12Z</time></trkpt><trkpt lat="44.83658158739247" lon="8.207289389046304"><ele>226.85714285714286</ele><time>2026-04-11T11:03:14Z</time></trkpt><trkpt lat="44.83651438060807" lon="8.207265937384019"><ele>228.28571428571428</ele><time>2026-04-11T11:03:16Z</time></trkpt><trkpt lat="44.83644649738693" lon="8.207239449705853"><ele>229.71428571428572</ele><time>2026-04-11T11:03:18Z</time></trkpt><trkpt lat="44.83637848903" lon="8.207209118870122"><ele>231.14285714285717</ele><time>2026-04-11T11:03:20Z</time></trkpt><trkpt lat="44.8363176065445" lon="8.2071796243808"><ele>232.57142857142858</ele><time>2026-04-11T11:03:22Z</time></trkpt><trkpt lat="44.83625466844244" lon="8.207140749584163"><ele>234.0</ele><time>2026-04-11T11:03:24Z</time></trkpt><trkpt lat="44.83619177285072" lon="8.207114273722322"><ele>234.0</ele><time>2026-04-11T11:03:26Z</time></trkpt><trkpt lat="44.83612496922208" lon="8.207079080218893"><ele>234.0</ele><time>2026-04-11T11:03:29Z</time></trkpt><trkpt lat="44.83602383878296" lon="8.207025533009231"><ele>234.0</ele><time>2026-04-11T11:03:32Z</time></trkpt><trkpt lat="44.83594294754259" lon="8.206974152042797"><ele>234.0</ele><time>2026-04-11T11:03:35Z</time></trkpt><trkpt lat="44.83588201665673" lon="8.206934870959742"><ele>234.0</ele><time>2026-04-11T11:03:37Z</time></trkpt><trkpt lat="44.83582154564864" lon="8.206906123066057"><ele>234.0</ele><time>2026-04-11T11:03:39Z</time></trkpt><trkpt lat="44.835745596253595" lon="8.206840767005705"><ele>233.33333333333334</ele><time>2026-04-11T11:03:42Z</time></trkpt><trkpt lat="44.8356861961175" lon="8.20680396826301"><ele>232.66666666666669</ele><time>2026-04-11T11:03:44Z</time></trkpt><trkpt lat="44.83562367093273" lon="8.206757462582244"><ele>232.0</ele><time>2026-04-11T11:03:46Z</time></trkpt><trkpt lat="44.83556283947642" lon="8.206706281657441"><ele>231.33333333333334</ele><time>2026-04-11T11:03:48Z</time></trkpt><trkpt lat="44.83549077514448" lon="8.206645777212053"><ele>230.66666666666669</ele><time>2026-04-11T11:03:50Z</time></trkpt><trkpt lat="44.835410607259526" lon="8.206580376612676"><ele>230.0</ele><time>2026-04-11T11:03:52Z</time></trkpt><trkpt lat="44.835337881061925" lon="8.206516305251897"><ele>230.66666666666669</ele><time>2026-04-11T11:03:54Z</time></trkpt><trkpt lat="44.835257529515395" lon="8.206445601928412"><ele>231.33333333333334</ele><time>2026-04-11T11:03:56Z</time></trkpt><trkpt lat="44.83519251795378" lon="8.206375821872935"><ele>232.0</ele><time>2026-04-11T11:03:58Z</time></trkpt><trkpt lat="44.835129593044634" lon="8.206306476053804"><ele>232.66666666666669</ele><time>2026-04-11T11:04:00Z</time></trkpt><trkpt lat="44.83506203145062" lon="8.206242107377985"><ele>233.33333333333334</ele><time>2026-04-11T11:04:02Z</time></trkpt><trkpt lat="44.83499240115301" lon="8.206188321642015"><ele>234.0</ele><time>2026-04-11T11:04:04Z</time></trkpt><trkpt lat="44.83491320658031" lon="8.206133532581426"><ele>234.0</ele><time>2026-04-11T11:04:06Z</time></trkpt><trkpt lat="44.83483521604986" lon="8.206075221725634"><ele>234.0</ele><time>2026-04-11T11:04:08.001Z</time></trkpt><trkpt lat="44.8347516102608" lon="8.206032459609832"><ele>234.0</ele><time>2026-04-11T11:04:10.001Z</time></trkpt><trkpt lat="44.834667405390604" lon="8.20599098179662"><ele>234.0</ele><time>2026-04-11T11:04:12.001Z</time></trkpt><trkpt lat="44.83458799629874" lon="8.205961713669595"><ele>234.0</ele><time>2026-04-11T11:04:14.001Z</time></trkpt><trkpt lat="44.83451451768669" lon="8.20592831371738"><ele>234.0</ele><time>2026-04-11T11:04:16.001Z</time></trkpt><trkpt lat="44.83443692592199" lon="8.205886485217608"><ele>234.0</ele><time>2026-04-11T11:04:18.001Z</time></trkpt><trkpt lat="44.834360582821354" lon="8.20584911936116"><ele>234.0</ele><time>2026-04-11T11:04:20.001Z</time></trkpt><trkpt lat="44.83428058659904" lon="8.205808424552846"><ele>234.0</ele><time>2026-04-11T11:04:22.001Z</time></trkpt><trkpt lat="44.83420545122475" lon="8.20577407918435"><ele>234.0</ele><time>2026-04-11T11:04:24Z</time></trkpt><trkpt lat="44.83413256170363" lon="8.205737951339044"><ele>234.0</ele><time>2026-04-11T11:04:26Z</time></trkpt><trkpt lat="44.83407365924853" lon="8.205704487079334"><ele>234.0</ele><time>2026-04-11T11:04:28Z</time></trkpt><trkpt lat="44.83400862408749" lon="8.205669829825164"><ele>232.85714285714286</ele><time>2026-04-11T11:04:30Z</time></trkpt><trkpt lat="44.83394345926173" lon="8.20563706083674"><ele>231.71428571428572</ele><time>2026-04-11T11:04:32Z</time></trkpt><trkpt lat="44.83388370359167" lon="8.205606255635706"><ele>230.57142857142858</ele><time>2026-04-11T11:04:34Z</time></trkpt><trkpt lat="44.83382214295628" lon="8.205555571563472"><ele>229.42857142857144</ele><time>2026-04-11T11:04:38Z</time></trkpt><trkpt lat="44.83377295290915" lon="8.205461077504903"><ele>228.28571428571428</ele><time>2026-04-11T11:05:07Z</time></trkpt><trkpt lat="44.83376678520161" lon="8.20537199745737"><ele>227.14285714285717</ele><time>2026-04-11T11:06:01Z</time></trkpt><trkpt lat="44.83378146470369" lon="8.205274249281555"><ele>226.0</ele><time>2026-04-11T11:06:03Z</time></trkpt><trkpt lat="44.83382945067744" lon="8.205173345875924"><ele>225.99999999999997</ele><time>2026-04-11T11:06:05Z</time></trkpt><trkpt lat="44.83389842665646" lon="8.205081194415069"><ele>226.0</ele><time>2026-04-11T11:06:07Z</time></trkpt><trkpt lat="44.83396974048548" lon="8.205014513479394"><ele>226.0</ele><time>2026-04-11T11:06:09Z</time></trkpt><trkpt lat="44.834043476153425" lon="8.20495696381405"><ele>226.0</ele><time>2026-04-11T11:06:11Z</time></trkpt><trkpt lat="44.83411331157955" lon="8.20489459112172"><ele>225.99999999999997</ele><time>2026-04-11T11:06:12.999Z</time></trkpt><trkpt lat="44.83418530307903" lon="8.204827047371749"><ele>226.0</ele><time>2026-04-11T11:06:14.999Z</time></trkpt><trkpt lat="44.834254592404044" lon="8.20475904523328"><ele>226.0</ele><time>2026-04-11T11:06:16.999Z</time></trkpt><trkpt lat="44.8343268147544" lon="8.204686738084648"><ele>226.00000000000003</ele><time>2026-04-11T11:06:18.999Z</time></trkpt><trkpt lat="44.834398761522586" lon="8.204614899603879"><ele>226.00000000000003</ele><time>2026-04-11T11:06:20.999Z</time></trkpt><trkpt lat="44.83447160445008" lon="8.2045454753081"><ele>226.0</ele><time>2026-04-11T11:06:22.999Z</time></trkpt><trkpt lat="44.834545299189635" lon="8.204470446335604"><ele>226.0</ele><time>2026-04-11T11:06:24.999Z</time></trkpt><trkpt lat="44.83462377492694" lon="8.204396698628427"><ele>225.99999999999997</ele><time>2026-04-11T11:06:26.999Z</time></trkpt><trkpt lat="44.83469535327981" lon="8.204327545382897"><ele>226.0</ele><time>2026-04-11T11:06:29Z</time></trkpt><trkpt lat="44.83476965001091" lon="8.204251336532984"><ele>226.0</ele><time>2026-04-11T11:06:31Z</time></trkpt><trkpt lat="44.834848412934" lon="8.204172690652634"><ele>226.0</ele><time>2026-04-11T11:06:33Z</time></trkpt><trkpt lat="44.83491616410448" lon="8.20409341274462"><ele>225.99999999999997</ele><time>2026-04-11T11:06:35Z</time></trkpt><trkpt lat="44.83497956711174" lon="8.204018297269682"><ele>226.0</ele><time>2026-04-11T11:06:37Z</time></trkpt><trkpt lat="44.83504686282841" lon="8.20394053688711"><ele>226.28571428571428</ele><time>2026-04-11T11:06:39Z</time></trkpt><trkpt lat="44.8351062562555" lon="8.203870964644262"><ele>226.57142857142856</ele><time>2026-04-11T11:06:41Z</time></trkpt><trkpt lat="44.835166217411825" lon="8.203811383445354"><ele>226.85714285714283</ele><time>2026-04-11T11:06:43Z</time></trkpt><trkpt lat="44.835226460376916" lon="8.203748039350051"><ele>227.14285714285714</ele><time>2026-04-11T11:06:45Z</time></trkpt><trkpt lat="44.835282959150234" lon="8.20368459629735"><ele>227.4285714285714</ele><time>2026-04-11T11:06:47Z</time></trkpt><trkpt lat="44.83533980533198" lon="8.203612792581113"><ele>227.7142857142857</ele><time>2026-04-11T11:06:49Z</time></trkpt><trkpt lat="44.83539052866448" lon="8.203542019685038"><ele>228.0</ele><time>2026-04-11T11:06:51Z</time></trkpt><trkpt lat="44.83543903583355" lon="8.203466308733274"><ele>228.0</ele><time>2026-04-11T11:06:53Z</time></trkpt><trkpt lat="44.83547852232326" lon="8.203386135985655"><ele>228.0</ele><time>2026-04-11T11:06:55Z</time></trkpt><trkpt lat="44.83549858842556" lon="8.20329706190208"><ele>228.0</ele><time>2026-04-11T11:06:57Z</time></trkpt><trkpt lat="44.83553159955997" lon="8.203211022167515"><ele>228.0</ele><time>2026-04-11T11:06:59Z</time></trkpt><trkpt lat="44.83555747348409" lon="8.203104380529272"><ele>228.0</ele><time>2026-04-11T11:07:01Z</time></trkpt><trkpt lat="44.83557805629414" lon="8.20299044853969"><ele>228.0</ele><time>2026-04-11T11:07:03Z</time></trkpt><trkpt lat="44.835596452087024" lon="8.202878514541727"><ele>227.83333333333334</ele><time>2026-04-11T11:07:05Z</time></trkpt><trkpt lat="44.83560720164853" lon="8.202761720119742"><ele>227.66666666666669</ele><time>2026-04-11T11:07:07Z</time></trkpt><trkpt lat="44.835616085277024" lon="8.20263490367627"><ele>227.5</ele><time>2026-04-11T11:07:11Z</time></trkpt><trkpt lat="44.8356201316171" lon="8.20248437554349"><ele>227.33333333333334</ele><time>2026-04-11T11:07:14Z</time></trkpt><trkpt lat="44.83561674898945" lon="8.202393619059627"><ele>227.16666666666669</ele><time>2026-04-11T11:07:16Z</time></trkpt><trkpt lat="44.83561315823883" lon="8.202299533953152"><ele>227.0</ele><time>2026-04-11T11:08:06Z</time></trkpt><trkpt lat="44.835612718995975" lon="8.202182037016776"><ele>227.0</ele><time>2026-04-11T11:08:10Z</time></trkpt><trkpt lat="44.83562035393502" lon="8.202079978490955"><ele>227.00000000000003</ele><time>2026-04-11T11:08:55.999Z</time></trkpt><trkpt lat="44.8356081164587" lon="8.201983388559094"><ele>227.0</ele><time>2026-04-11T11:08:57.999Z</time></trkpt><trkpt lat="44.835595907706384" lon="8.201882174531356"><ele>227.0</ele><time>2026-04-11T11:08:59.999Z</time></trkpt><trkpt lat="44.835588872935126" lon="8.201768455263366"><ele>227.00000000000003</ele><time>2026-04-11T11:09:01.999Z</time></trkpt><trkpt lat="44.83557717327464" lon="8.201671910439488"><ele>227.0</ele><time>2026-04-11T11:09:03.999Z</time></trkpt><trkpt lat="44.835557908003" lon="8.2015690937024"><ele>227.0</ele><time>2026-04-11T11:09:05.999Z</time></trkpt><trkpt lat="44.835544223610896" lon="8.201460148283141"><ele>227.0</ele><time>2026-04-11T11:09:07.999Z</time></trkpt><trkpt lat="44.835533921828905" lon="8.201363478160436"><ele>227.00000000000003</ele><time>2026-04-11T11:09:09.999Z</time></trkpt><trkpt lat="44.83552593903444" lon="8.20125933931963"><ele>227.0</ele><time>2026-04-11T11:09:11.999Z</time></trkpt><trkpt lat="44.83551196341466" lon="8.201152762909572"><ele>227.0</ele><time>2026-04-11T11:09:13.999Z</time></trkpt><trkpt lat="44.83550835449097" lon="8.201048955297445"><ele>227.00000000000003</ele><time>2026-04-11T11:09:15.999Z</time></trkpt><trkpt lat="44.83549818185199" lon="8.200951477996453"><ele>227.0</ele><time>2026-04-11T11:09:17.999Z</time></trkpt><trkpt lat="44.835498712318355" lon="8.200853988500267"><ele>227.0</ele><time>2026-04-11T11:09:19.999Z</time></trkpt><trkpt lat="44.83549595882906" lon="8.200748853815472"><ele>226.2857142857143</ele><time>2026-04-11T11:09:23.999Z</time></trkpt><trkpt lat="44.83550134312296" lon="8.20065669542781"><ele>225.5714285714286</ele><time>2026-04-11T11:09:25.999Z</time></trkpt><trkpt lat="44.83550503700023" lon="8.200554954411546"><ele>224.85714285714286</ele><time>2026-04-11T11:09:28Z</time></trkpt><trkpt lat="44.83551183459063" lon="8.200465556321735"><ele>224.14285714285717</ele><time>2026-04-11T11:09:31Z</time></trkpt><trkpt lat="44.83551957613538" lon="8.20037458586228"><ele>223.42857142857144</ele><time>2026-04-11T11:09:34Z</time></trkpt><trkpt lat="44.83552902779058" lon="8.200285568101163"><ele>222.71428571428572</ele><time>2026-04-11T11:09:38Z</time></trkpt><trkpt lat="44.83555372002328" lon="8.200172445461014"><ele>222.0</ele><time>2026-04-11T11:09:41Z</time></trkpt><trkpt lat="44.83554089275713" lon="8.200066739695629"><ele>222.0</ele><time>2026-04-11T11:09:44Z</time></trkpt><trkpt lat="44.835508654510654" lon="8.199955193348226"><ele>222.0</ele><time>2026-04-11T11:09:46Z</time></trkpt><trkpt lat="44.83547162629611" lon="8.199854710578062"><ele>222.0</ele><time>2026-04-11T11:09:48Z</time></trkpt><trkpt lat="44.835425908332084" lon="8.199688230004023"><ele>222.0</ele><time>2026-04-11T11:09:52Z</time></trkpt><trkpt lat="44.83539833824009" lon="8.199566748330529"><ele>222.0</ele><time>2026-04-11T11:09:54Z</time></trkpt><trkpt lat="44.83538213912122" lon="8.19944601939243"><ele>221.0</ele><time>2026-04-11T11:09:56Z</time></trkpt><trkpt lat="44.83537611212684" lon="8.199308634986826"><ele>220.0</ele><time>2026-04-11T11:09:58Z</time></trkpt><trkpt lat="44.83536152820124" lon="8.199162908219172"><ele>219.0</ele><time>2026-04-11T11:10:00Z</time></trkpt><trkpt lat="44.835347174223706" lon="8.199014551404106"><ele>218.0</ele><time>2026-04-11T11:10:02Z</time></trkpt><trkpt lat="44.83534042500194" lon="8.198862143649233"><ele>217.0</ele><time>2026-04-11T11:10:04Z</time></trkpt><trkpt lat="44.83530925855273" lon="8.19871511440334"><ele>215.6</ele><time>2026-04-11T11:10:06Z</time></trkpt><trkpt lat="44.835276755320635" lon="8.198562691044105"><ele>214.2</ele><time>2026-04-11T11:10:08Z</time></trkpt><trkpt lat="44.835247333276236" lon="8.19841157864415"><ele>212.8</ele><time>2026-04-11T11:10:10Z</time></trkpt><trkpt lat="44.83522305032035" lon="8.198260947314719"><ele>211.4</ele><time>2026-04-11T11:10:12Z</time></trkpt><trkpt lat="44.83520084470253" lon="8.198123202074353"><ele>210.0</ele><time>2026-04-11T11:10:14Z</time></trkpt><trkpt lat="44.83517629129066" lon="8.197971209412229"><ele>210.0</ele><time>2026-04-11T11:10:16Z</time></trkpt><trkpt lat="44.835153217046084" lon="8.197833572357437"><ele>210.0</ele><time>2026-04-11T11:10:18Z</time></trkpt><trkpt lat="44.835125905245434" lon="8.197690505846765"><ele>210.0</ele><time>2026-04-11T11:10:20Z</time></trkpt><trkpt lat="44.83509615091011" lon="8.19756885888929"><ele>210.0</ele><time>2026-04-11T11:10:22Z</time></trkpt><trkpt lat="44.835064751144806" lon="8.197456092599845"><ele>210.0</ele><time>2026-04-11T11:10:24Z</time></trkpt><trkpt lat="44.83502782380855" lon="8.197327315785902"><ele>212.0</ele><time>2026-04-11T11:10:25.997Z</time></trkpt><trkpt lat="44.83499286730406" lon="8.197207571451695"><ele>214.0</ele><time>2026-04-11T11:10:28.997Z</time></trkpt><trkpt lat="44.83494434799746" lon="8.197135276497107"><ele>216.0</ele><time>2026-04-11T11:10:31.997Z</time></trkpt><trkpt lat="44.834906987233694" lon="8.197020623600476"><ele>218.0</ele><time>2026-04-11T11:10:34.998Z</time></trkpt><trkpt lat="44.83485500167542" lon="8.19691460753775"><ele>220.0</ele><time>2026-04-11T11:10:36.998Z</time></trkpt><trkpt lat="44.83482052117227" lon="8.196813060506015"><ele>222.0</ele><time>2026-04-11T11:10:39.998Z</time></trkpt><trkpt lat="44.83478879288529" lon="8.196701944541644"><ele>222.0</ele><time>2026-04-11T11:10:43.998Z</time></trkpt><trkpt lat="44.83474924248529" lon="8.196610425051087"><ele>222.0</ele><time>2026-04-11T11:10:46.998Z</time></trkpt><trkpt lat="44.83471910806069" lon="8.1965120728534"><ele>222.0</ele><time>2026-04-11T11:10:48.998Z</time></trkpt><trkpt lat="44.834669179180956" lon="8.196411002181675"><ele>222.0</ele><time>2026-04-11T11:10:51.999Z</time></trkpt><trkpt lat="44.834626688289696" lon="8.196312138232813"><ele>222.0</ele><time>2026-04-11T11:10:55.999Z</time></trkpt><trkpt lat="44.8345926924462" lon="8.196225961388038"><ele>222.0</ele><time>2026-04-11T11:10:58.999Z</time></trkpt><trkpt lat="44.834550938589445" lon="8.196117249455007"><ele>221.16666666666666</ele><time>2026-04-11T11:11:01.999Z</time></trkpt><trkpt lat="44.834508705714484" lon="8.19602423866563"><ele>220.33333333333331</ele><time>2026-04-11T11:11:05.999Z</time></trkpt><trkpt lat="44.83443378002694" lon="8.195915187960287"><ele>219.5</ele><time>2026-04-11T11:11:08.999Z</time></trkpt><trkpt lat="44.83438086795332" lon="8.195849534040036"><ele>218.66666666666666</ele><time>2026-04-11T11:11:11.999Z</time></trkpt><trkpt lat="44.834318829226135" lon="8.195769443349606"><ele>217.83333333333331</ele><time>2026-04-11T11:11:13.999Z</time></trkpt><trkpt lat="44.83426185935954" lon="8.19570902827956"><ele>217.0</ele><time>2026-04-11T11:11:15.999Z</time></trkpt><trkpt lat="44.83418717961151" lon="8.195627786431507"><ele>218.66666666666666</ele><time>2026-04-11T11:11:18.999Z</time></trkpt><trkpt lat="44.83413077132616" lon="8.19556241442142"><ele>220.33333333333331</ele><time>2026-04-11T11:11:21.999Z</time></trkpt><trkpt lat="44.834051590273006" lon="8.19548082287356"><ele>222.0</ele><time>2026-04-11T11:11:25.999Z</time></trkpt><trkpt lat="44.83399372224968" lon="8.195421176067619"><ele>223.66666666666669</ele><time>2026-04-11T11:11:28.999Z</time></trkpt><trkpt lat="44.83393328461953" lon="8.195366895408739"><ele>225.33333333333334</ele><time>2026-04-11T11:11:31.999Z</time></trkpt><trkpt lat="44.8338774435631" lon="8.195284541758033"><ele>227.0</ele><time>2026-04-11T11:11:34.999Z</time></trkpt><trkpt lat="44.83384365718321" lon="8.195198288931302"><ele>227.00000000000003</ele><time>2026-04-11T11:11:36.999Z</time></trkpt><trkpt lat="44.83380562080186" lon="8.195110819066155"><ele>227.0</ele><time>2026-04-11T11:11:38.999Z</time></trkpt><trkpt lat="44.83376693322501" lon="8.195010832214784"><ele>227.0</ele><time>2026-04-11T11:11:40.999Z</time></trkpt><trkpt lat="44.83371539950938" lon="8.194916025002902"><ele>227.0</ele><time>2026-04-11T11:11:42.999Z</time></trkpt><trkpt lat="44.83366237172753" lon="8.194813478633646"><ele>227.00000000000003</ele><time>2026-04-11T11:11:44.999Z</time></trkpt><trkpt lat="44.83360884291342" lon="8.194703608885987"><ele>227.0</ele><time>2026-04-11T11:11:46.999Z</time></trkpt><trkpt lat="44.83356207773417" lon="8.194585913335043"><ele>227.0</ele><time>2026-04-11T11:11:48.999Z</time></trkpt><trkpt lat="44.833516794686325" lon="8.194468457243929"><ele>227.0</ele><time>2026-04-11T11:11:51Z</time></trkpt><trkpt lat="44.83347503730797" lon="8.19434742606716"><ele>227.0</ele><time>2026-04-11T11:11:53Z</time></trkpt><trkpt lat="44.833432944180025" lon="8.194217425968713"><ele>227.0</ele><time>2026-04-11T11:11:55Z</time></trkpt><trkpt lat="44.83344525591995" lon="8.194048142605359"><ele>227.0</ele><time>2026-04-11T11:11:57Z</time></trkpt><trkpt lat="44.83341164861872" lon="8.193889259127353"><ele>226.6</ele><time>2026-04-11T11:11:59Z</time></trkpt><trkpt lat="44.83337999557796" lon="8.193715371141032"><ele>226.2</ele><time>2026-04-11T11:12:01Z</time></trkpt><trkpt lat="44.833365672335276" lon="8.193626228918781"><ele>225.8</ele><time>2026-04-11T11:12:02Z</time></trkpt><trkpt lat="44.833353020438715" lon="8.193539135932793"><ele>225.4</ele><time>2026-04-11T11:12:03Z</time></trkpt><trkpt lat="44.833299625069365" lon="8.193396623325778"><ele>225.0</ele><time>2026-04-11T11:12:05Z</time></trkpt><trkpt lat="44.83327270184139" lon="8.1932783866731"><ele>225.8</ele><time>2026-04-11T11:12:07Z</time></trkpt><trkpt lat="44.833240115856405" lon="8.193160193693448"><ele>226.6</ele><time>2026-04-11T11:12:09Z</time></trkpt><trkpt lat="44.83322999428879" lon="8.193022391097344"><ele>227.39999999999998</ele><time>2026-04-11T11:12:11Z</time></trkpt><trkpt lat="44.833286877227785" lon="8.192945436951614"><ele>228.2</ele><time>2026-04-11T11:12:12Z</time></trkpt><trkpt lat="44.8332820016575" lon="8.192814117017328"><ele>229.0</ele><time>2026-04-11T11:12:14Z</time></trkpt><trkpt lat="44.83327600725953" lon="8.192681363794595"><ele>228.99999999999997</ele><time>2026-04-11T11:12:16Z</time></trkpt><trkpt lat="44.83325666162181" lon="8.192553843707412"><ele>229.0</ele><time>2026-04-11T11:12:18Z</time></trkpt><trkpt lat="44.83325610535393" lon="8.192437928963768"><ele>229.0</ele><time>2026-04-11T11:12:20Z</time></trkpt><trkpt lat="44.833254909686104" lon="8.192332244474454"><ele>229.0</ele><time>2026-04-11T11:12:22Z</time></trkpt><trkpt lat="44.83325831506798" lon="8.192236873355862"><ele>228.99999999999997</ele><time>2026-04-11T11:12:24Z</time></trkpt><trkpt lat="44.83328179932794" lon="8.19213051739871"><ele>229.0</ele><time>2026-04-11T11:12:28Z</time></trkpt><trkpt lat="44.83331715186706" lon="8.192019952380612"><ele>228.83333333333331</ele><time>2026-04-11T11:12:31Z</time></trkpt><trkpt lat="44.83335828182883" lon="8.191909517965993"><ele>228.66666666666666</ele><time>2026-04-11T11:12:34Z</time></trkpt><trkpt lat="44.833406473292705" lon="8.191775866457888"><ele>228.5</ele><time>2026-04-11T11:12:37Z</time></trkpt><trkpt lat="44.833454068245935" lon="8.191661238767466"><ele>228.33333333333331</ele><time>2026-04-11T11:12:39Z</time></trkpt><trkpt lat="44.83348696916326" lon="8.191563228854129"><ele>228.16666666666666</ele><time>2026-04-11T11:12:41Z</time></trkpt><trkpt lat="44.833516516412864" lon="8.191466829184547"><ele>228.0</ele><time>2026-04-11T11:12:43Z</time></trkpt><trkpt lat="44.8335437832454" lon="8.191372513407332"><ele>228.0</ele><time>2026-04-11T11:12:45Z</time></trkpt><trkpt lat="44.833580476765185" lon="8.191281104383087"><ele>227.99999999999997</ele><time>2026-04-11T11:12:47Z</time></trkpt><trkpt lat="44.83359778334153" lon="8.191186696100829"><ele>228.0</ele><time>2026-04-11T11:12:49Z</time></trkpt><trkpt lat="44.8336221011251" lon="8.191088206358593"><ele>228.0</ele><time>2026-04-11T11:12:51Z</time></trkpt><trkpt lat="44.83364885776423" lon="8.19100675039969"><ele>227.99999999999997</ele><time>2026-04-11T11:12:53Z</time></trkpt><trkpt lat="44.83368141400844" lon="8.190907772521953"><ele>228.0</ele><time>2026-04-11T11:12:55Z</time></trkpt><trkpt lat="44.83370421312463" lon="8.190802321771052"><ele>228.0</ele><time>2026-04-11T11:12:57Z</time></trkpt><trkpt lat="44.833727716389845" lon="8.190693912329177"><ele>228.42857142857142</ele><time>2026-04-11T11:12:59Z</time></trkpt><trkpt lat="44.83373551287596" lon="8.190590853831866"><ele>228.85714285714283</ele><time>2026-04-11T11:13:01Z</time></trkpt><trkpt lat="44.83375869392644" lon="8.19048954284538"><ele>229.28571428571428</ele><time>2026-04-11T11:13:03Z</time></trkpt><trkpt lat="44.8337710061107" lon="8.19038722727847"><ele>229.71428571428572</ele><time>2026-04-11T11:13:05Z</time></trkpt><trkpt lat="44.83379264662393" lon="8.190283042016183"><ele>230.14285714285714</ele><time>2026-04-11T11:13:07Z</time></trkpt><trkpt lat="44.83380800740037" lon="8.19018804825234"><ele>230.57142857142856</ele><time>2026-04-11T11:13:09Z</time></trkpt><trkpt lat="44.83383022649205" lon="8.190084259233503"><ele>231.0</ele><time>2026-04-11T11:13:11Z</time></trkpt><trkpt lat="44.83384836567156" lon="8.18998046136245"><ele>231.0</ele><time>2026-04-11T11:13:13Z</time></trkpt><trkpt lat="44.83385943885166" lon="8.189883357470325"><ele>231.0</ele><time>2026-04-11T11:13:15Z</time></trkpt><trkpt lat="44.83387935687848" lon="8.189785000270502"><ele>231.0</ele><time>2026-04-11T11:13:17Z</time></trkpt><trkpt lat="44.83389608176125" lon="8.189685829417325"><ele>231.0</ele><time>2026-04-11T11:13:19Z</time></trkpt><trkpt lat="44.833918413514276" lon="8.189552986796395"><ele>231.0</ele><time>2026-04-11T11:13:22Z</time></trkpt><trkpt lat="44.83395347702613" lon="8.189434404388454"><ele>231.0</ele><time>2026-04-11T11:13:25Z</time></trkpt><trkpt lat="44.83395276412721" lon="8.18929490759687"><ele>231.14285714285714</ele><time>2026-04-11T11:13:28Z</time></trkpt><trkpt lat="44.83395648970404" lon="8.189191118421427"><ele>231.28571428571428</ele><time>2026-04-11T11:13:31Z</time></trkpt><trkpt lat="44.833931058693594" lon="8.189084691536525"><ele>231.42857142857144</ele><time>2026-04-11T11:13:34Z</time></trkpt><trkpt lat="44.833924874925096" lon="8.188989576471876"><ele>231.57142857142858</ele><time>2026-04-11T11:13:36Z</time></trkpt><trkpt lat="44.83392828624536" lon="8.188893282495405"><ele>231.71428571428572</ele><time>2026-04-11T11:13:38Z</time></trkpt><trkpt lat="44.83392084548621" lon="8.18879991010284"><ele>231.8571428571429</ele><time>2026-04-11T11:13:40Z</time></trkpt><trkpt lat="44.833907015564" lon="8.188704987465723"><ele>232.00000000000003</ele><time>2026-04-11T11:13:42Z</time></trkpt><trkpt lat="44.83387953562426" lon="8.188600272344308"><ele>232.42857142857144</ele><time>2026-04-11T11:13:44Z</time></trkpt><trkpt lat="44.8338398407137" lon="8.188516583976611"><ele>232.85714285714286</ele><time>2026-04-11T11:13:46Z</time></trkpt><trkpt lat="44.83380794883689" lon="8.188437178820362"><ele>233.28571428571428</ele><time>2026-04-11T11:13:48Z</time></trkpt><trkpt lat="44.833742082390195" lon="8.18836434821358"><ele>233.71428571428572</ele><time>2026-04-11T11:13:51.001Z</time></trkpt><trkpt lat="44.83369226863439" lon="8.188286166218006"><ele>234.1428571428571</ele><time>2026-04-11T11:13:55.001Z</time></trkpt><trkpt lat="44.83364673737304" lon="8.18821976588227"><ele>234.57142857142856</ele><time>2026-04-11T11:13:59.001Z</time></trkpt><trkpt lat="44.83357480100346" lon="8.188180009306471"><ele>235.0</ele><time>2026-04-11T11:14:03.001Z</time></trkpt><trkpt lat="44.8335096757791" lon="8.18812898548768"><ele>236.42857142857142</ele><time>2026-04-11T11:14:07.001Z</time></trkpt><trkpt lat="44.83344174270885" lon="8.188079064498519"><ele>237.85714285714283</ele><time>2026-04-11T11:14:11.001Z</time></trkpt><trkpt lat="44.83339517202242" lon="8.188014359356853"><ele>239.28571428571428</ele><time>2026-04-11T11:14:15.001Z</time></trkpt><trkpt lat="44.83336234954059" lon="8.187926230872534"><ele>240.71428571428572</ele><time>2026-04-11T11:14:20.001Z</time></trkpt><trkpt lat="44.83332096246005" lon="8.18785804650472"><ele>242.14285714285714</ele><time>2026-04-11T11:14:25.001Z</time></trkpt><trkpt lat="44.833327417411006" lon="8.18775101091873"><ele>243.57142857142856</ele><time>2026-04-11T11:14:31.001Z</time></trkpt><trkpt lat="44.83338109683626" lon="8.187668021878993"><ele>245.0</ele><time>2026-04-11T11:14:35.001Z</time></trkpt><trkpt lat="44.833435182961125" lon="8.187579665337411"><ele>245.0</ele><time>2026-04-11T11:14:39.001Z</time></trkpt><trkpt lat="44.83346954153486" lon="8.187497957802679"><ele>245.0</ele><time>2026-04-11T11:14:42.001Z</time></trkpt><trkpt lat="44.83352157051307" lon="8.187411153646078"><ele>245.0</ele><time>2026-04-11T11:14:46.001Z</time></trkpt><trkpt lat="44.83356423417151" lon="8.187320455422396"><ele>245.0</ele><time>2026-04-11T11:14:50.001Z</time></trkpt><trkpt lat="44.83357205514332" lon="8.187226006390953"><ele>245.0</ele><time>2026-04-11T11:14:54.001Z</time></trkpt><trkpt lat="44.833562754751654" lon="8.18712964108106"><ele>245.0</ele><time>2026-04-11T11:14:58.001Z</time></trkpt><trkpt lat="44.833554207267625" lon="8.18703811925471"><ele>245.0</ele><time>2026-04-11T11:15:02.001Z</time></trkpt><trkpt lat="44.833513297528285" lon="8.18694163207223"><ele>244.4</ele><time>2026-04-11T11:15:06.001Z</time></trkpt><trkpt lat="44.83346749133223" lon="8.186848683977738"><ele>243.8</ele><time>2026-04-11T11:15:10.001Z</time></trkpt><trkpt lat="44.83338860449861" lon="8.186658477957389"><ele>243.2</ele><time>2026-04-11T11:15:13.001Z</time></trkpt><trkpt lat="44.833341735775036" lon="8.186542656784189"><ele>242.6</ele><time>2026-04-11T11:15:14.001Z</time></trkpt><trkpt lat="44.83330561397463" lon="8.186448668578162"><ele>242.0</ele><time>2026-04-11T11:15:15.001Z</time></trkpt><trkpt lat="44.83326357316391" lon="8.18635065065906"><ele>241.00000000000003</ele><time>2026-04-11T11:15:16.001Z</time></trkpt><trkpt lat="44.83322875196874" lon="8.186245752142932"><ele>240.0</ele><time>2026-04-11T11:15:17.001Z</time></trkpt><trkpt lat="44.833203506080196" lon="8.186130892585695"><ele>239.0</ele><time>2026-04-11T11:15:18.001Z</time></trkpt><trkpt lat="44.833191704169366" lon="8.186007441267925"><ele>238.0</ele><time>2026-04-11T11:15:19.001Z</time></trkpt><trkpt lat="44.83317402852742" lon="8.185897173755583"><ele>237.00000000000003</ele><time>2026-04-11T11:15:20.001Z</time></trkpt><trkpt lat="44.83314094591189" lon="8.185811235076251"><ele>236.0</ele><time>2026-04-11T11:15:21.001Z</time></trkpt><trkpt lat="44.8330753485247" lon="8.18568647950278"><ele>236.00000000000003</ele><time>2026-04-11T11:15:23.001Z</time></trkpt><trkpt lat="44.8329752474706" lon="8.185631485679384"><ele>236.0</ele><time>2026-04-11T11:15:25.001Z</time></trkpt><trkpt lat="44.83290848320662" lon="8.185689886940972"><ele>236.0</ele><time>2026-04-11T11:15:26.001Z</time></trkpt><trkpt lat="44.83288415351781" lon="8.185818643480886"><ele>236.0</ele><time>2026-04-11T11:15:27.001Z</time></trkpt><trkpt lat="44.832862723320076" lon="8.185927228881216"><ele>236.00000000000003</ele><time>2026-04-11T11:15:28.001Z</time></trkpt><trkpt lat="44.8328431009169" lon="8.186036817186707"><ele>236.0</ele><time>2026-04-11T11:15:29.001Z</time></trkpt><trkpt lat="44.8327991623431" lon="8.186141064281944"><ele>236.00000000000003</ele><time>2026-04-11T11:15:30.001Z</time></trkpt><trkpt lat="44.83275697384967" lon="8.186246198156379"><ele>236.0</ele><time>2026-04-11T11:15:31.001Z</time></trkpt><trkpt lat="44.8327167277883" lon="8.186350542428645"><ele>236.0</ele><time>2026-04-11T11:15:32.001Z</time></trkpt><trkpt lat="44.83268831900872" lon="8.186447792841259"><ele>236.0</ele><time>2026-04-11T11:15:33.001Z</time></trkpt><trkpt lat="44.83269453341055" lon="8.186550989384349"><ele>236.00000000000003</ele><time>2026-04-11T11:15:34.001Z</time></trkpt><trkpt lat="44.8327104459333" lon="8.186643814026002"><ele>236.0</ele><time>2026-04-11T11:15:35.001Z</time></trkpt><trkpt lat="44.83276484432226" lon="8.186784876490387"><ele>237.20000000000002</ele><time>2026-04-11T11:15:37.001Z</time></trkpt><trkpt lat="44.832687224176055" lon="8.186876887763848"><ele>238.40000000000003</ele><time>2026-04-11T11:15:39.001Z</time></trkpt><trkpt lat="44.83259782096228" lon="8.186702975196777"><ele>239.6</ele><time>2026-04-11T11:15:41.001Z</time></trkpt><trkpt lat="44.83256481090335" lon="8.186597809384452"><ele>240.8</ele><time>2026-04-11T11:15:42.001Z</time></trkpt><trkpt lat="44.83252557310344" lon="8.186494093775444"><ele>242.0</ele><time>2026-04-11T11:15:43.001Z</time></trkpt><trkpt lat="44.83250863924316" lon="8.18636752743002"><ele>237.6</ele><time>2026-04-11T11:15:44.001Z</time></trkpt><trkpt lat="44.832488089209534" lon="8.186239567180094"><ele>233.2</ele><time>2026-04-11T11:15:45.001Z</time></trkpt><trkpt lat="44.83247182459222" lon="8.186106797157956"><ele>228.8</ele><time>2026-04-11T11:15:46.001Z</time></trkpt><trkpt lat="44.83245917266954" lon="8.185972073671703"><ele>224.4</ele><time>2026-04-11T11:15:47.001Z</time></trkpt><trkpt lat="44.83245204810983" lon="8.185824307529359"><ele>220.0</ele><time>2026-04-11T11:15:48.001Z</time></trkpt><trkpt lat="44.832455151713695" lon="8.18567413739008"><ele>218.0</ele><time>2026-04-11T11:15:49.001Z</time></trkpt><trkpt lat="44.832464708440085" lon="8.18551526571785"><ele>216.0</ele><time>2026-04-11T11:15:50.001Z</time></trkpt><trkpt lat="44.832480289290004" lon="8.185351699990493"><ele>214.0</ele><time>2026-04-11T11:15:51.001Z</time></trkpt><trkpt lat="44.83249958417038" lon="8.1851830501944"><ele>212.0</ele><time>2026-04-11T11:15:52.001Z</time></trkpt><trkpt lat="44.83252286493588" lon="8.185024650969067"><ele>212.00000000000003</ele><time>2026-04-11T11:15:53.001Z</time></trkpt><trkpt lat="44.83254188046599" lon="8.184886244297454"><ele>212.0</ele><time>2026-04-11T11:15:54.001Z</time></trkpt><trkpt lat="44.83255883950297" lon="8.184773584657538"><ele>212.0</ele><time>2026-04-11T11:15:55.001Z</time></trkpt><trkpt lat="44.83257219062706" lon="8.184683882371663"><ele>212.0</ele><time>2026-04-11T11:15:56.001Z</time></trkpt><trkpt lat="44.832516449673506" lon="8.184567970627509"><ele>212.00000000000003</ele><time>2026-04-11T11:15:58.001Z</time></trkpt><trkpt lat="44.832440336819985" lon="8.184561389788602"><ele>212.0</ele><time>2026-04-11T11:15:59.001Z</time></trkpt><trkpt lat="44.83239391154603" lon="8.18471855417038"><ele>212.00000000000003</ele><time>2026-04-11T11:16:00.001Z</time></trkpt><trkpt lat="44.83236809253912" lon="8.184820320332193"><ele>212.0</ele><time>2026-04-11T11:16:01.001Z</time></trkpt><trkpt lat="44.8323035006222" lon="8.184908319977835"><ele>212.0</ele><time>2026-04-11T11:16:03.001Z</time></trkpt><trkpt lat="44.83224518017929" lon="8.184847250875498"><ele>212.0</ele><time>2026-04-11T11:16:04.001Z</time></trkpt><trkpt lat="44.832264680108295" lon="8.184731206267891"><ele>212.00000000000003</ele><time>2026-04-11T11:16:05.001Z</time></trkpt><trkpt lat="44.83228146594765" lon="8.184626350380508"><ele>212.0</ele><time>2026-04-11T11:16:06.001Z</time></trkpt><trkpt lat="44.83229436626067" lon="8.184518198771583"><ele>209.50000000000003</ele><time>2026-04-11T11:16:07.001Z</time></trkpt><trkpt lat="44.83231996857334" lon="8.18440537202679"><ele>207.0</ele><time>2026-04-11T11:16:08.001Z</time></trkpt><trkpt lat="44.832340249889995" lon="8.18428892688691"><ele>204.5</ele><time>2026-04-11T11:16:09.001Z</time></trkpt><trkpt lat="44.832343387895335" lon="8.184177963012868"><ele>202.0</ele><time>2026-04-11T11:16:10.001Z</time></trkpt><trkpt lat="44.83230219300035" lon="8.18409643645338"><ele>199.50000000000003</ele><time>2026-04-11T11:16:11.001Z</time></trkpt><trkpt lat="44.832235371961055" lon="8.18402649074356"><ele>197.0</ele><time>2026-04-11T11:16:12.001Z</time></trkpt><trkpt lat="44.83214694366215" lon="8.184016524072732"><ele>197.0</ele><time>2026-04-11T11:16:13.001Z</time></trkpt><trkpt lat="44.83206389393718" lon="8.184118023856218"><ele>197.0</ele><time>2026-04-11T11:16:14.001Z</time></trkpt><trkpt lat="44.83199023103225" lon="8.184181468909141"><ele>197.0</ele><time>2026-04-11T11:16:15.001Z</time></trkpt><trkpt lat="44.83190914525182" lon="8.184159270231499"><ele>197.0</ele><time>2026-04-11T11:16:16.001Z</time></trkpt><trkpt lat="44.83183158337367" lon="8.18410024215929"><ele>197.0</ele><time>2026-04-11T11:16:17.001Z</time></trkpt><trkpt lat="44.83174701584266" lon="8.184050772960045"><ele>197.50000000000003</ele><time>2026-04-11T11:16:18.001Z</time></trkpt><trkpt lat="44.83169141089472" lon="8.183964772273907"><ele>198.0</ele><time>2026-04-11T11:16:19.001Z</time></trkpt><trkpt lat="44.8316222622728" lon="8.18390073061449"><ele>198.5</ele><time>2026-04-11T11:16:20.001Z</time></trkpt><trkpt lat="44.83156763647504" lon="8.183811016902583"><ele>199.0</ele><time>2026-04-11T11:16:21.001Z</time></trkpt><trkpt lat="44.83149980964427" lon="8.183756969124726"><ele>199.50000000000003</ele><time>2026-04-11T11:16:22.001Z</time></trkpt><trkpt lat="44.83139995839354" lon="8.183811071833597"><ele>200.0</ele><time>2026-04-11T11:16:23.001Z</time></trkpt><trkpt lat="44.83131059926186" lon="8.183865036372913"><ele>200.0</ele><time>2026-04-11T11:16:24.001Z</time></trkpt><trkpt lat="44.83123202321522" lon="8.183952443053322"><ele>200.0</ele><time>2026-04-11T11:16:25.001Z</time></trkpt><trkpt lat="44.831161144296" lon="8.18402843338306"><ele>200.0</ele><time>2026-04-11T11:16:26.001Z</time></trkpt><trkpt lat="44.83108595271602" lon="8.184109047171322"><ele>200.0</ele><time>2026-04-11T11:16:27.001Z</time></trkpt><trkpt lat="44.83100557667813" lon="8.184194095126442"><ele>200.0</ele><time>2026-04-11T11:16:28.001Z</time></trkpt><trkpt lat="44.83092226306941" lon="8.184280202313689"><ele>199.2</ele><time>2026-04-11T11:16:29.001Z</time></trkpt><trkpt lat="44.830835772134115" lon="8.184369593427522"><ele>198.4</ele><time>2026-04-11T11:16:30.001Z</time></trkpt><trkpt lat="44.83074668003037" lon="8.184461673107693"><ele>197.60000000000002</ele><time>2026-04-11T11:16:31.001Z</time></trkpt><trkpt lat="44.83065602878314" lon="8.184555364018117"><ele>196.8</ele><time>2026-04-11T11:16:32.001Z</time></trkpt><trkpt lat="44.83056897115978" lon="8.184643287436677"><ele>196.0</ele><time>2026-04-11T11:16:33.001Z</time></trkpt><trkpt lat="44.83048195038495" lon="8.184729300193554"><ele>196.0</ele><time>2026-04-11T11:16:34.001Z</time></trkpt><trkpt lat="44.83039116404284" lon="8.184807329310797"><ele>196.0</ele><time>2026-04-11T11:16:35.001Z</time></trkpt><trkpt lat="44.83029289870008" lon="8.184878090820993"><ele>196.0</ele><time>2026-04-11T11:16:36.001Z</time></trkpt><trkpt lat="44.83018689950177" lon="8.184922030331727"><ele>196.0</ele><time>2026-04-11T11:16:37.001Z</time></trkpt><trkpt lat="44.83007927446271" lon="8.184948518836936"><ele>196.0</ele><time>2026-04-11T11:16:38.001Z</time></trkpt><trkpt lat="44.82996731502325" lon="8.184985599887499"><ele>192.75</ele><time>2026-04-11T11:16:39.001Z</time></trkpt><trkpt lat="44.82984910192253" lon="8.185000902314629"><ele>189.5</ele><time>2026-04-11T11:16:40.001Z</time></trkpt><trkpt lat="44.82973058500509" lon="8.18500808355147"><ele>186.25</ele><time>2026-04-11T11:16:41.001Z</time></trkpt><trkpt lat="44.829613240883745" lon="8.185025218842409"><ele>183.0</ele><time>2026-04-11T11:16:42.001Z</time></trkpt><trkpt lat="44.82949863379981" lon="8.185025574146051"><ele>183.0</ele><time>2026-04-11T11:16:43.002Z</time></trkpt><trkpt lat="44.82938559297673" lon="8.18503422716101"><ele>183.0</ele><time>2026-04-11T11:16:44.002Z</time></trkpt><trkpt lat="44.82927064733164" lon="8.185058562519874"><ele>183.0</ele><time>2026-04-11T11:16:45.002Z</time></trkpt><trkpt lat="44.82915830417576" lon="8.18510410888747"><ele>183.0</ele><time>2026-04-11T11:16:46.002Z</time></trkpt><trkpt lat="44.829051788022575" lon="8.185179901759643"><ele>181.8</ele><time>2026-04-11T11:16:47.002Z</time></trkpt><trkpt lat="44.828946248139516" lon="8.18524851172928"><ele>180.60000000000002</ele><time>2026-04-11T11:16:48.002Z</time></trkpt><trkpt lat="44.828859073439936" lon="8.185330777478049"><ele>179.39999999999998</ele><time>2026-04-11T11:16:49.002Z</time></trkpt><trkpt lat="44.82878445029588" lon="8.185406883797981"><ele>178.2</ele><time>2026-04-11T11:16:50.001Z</time></trkpt><trkpt lat="44.828698452902906" lon="8.185458782844858"><ele>177.0</ele><time>2026-04-11T11:16:51.001Z</time></trkpt><trkpt lat="44.82859662760464" lon="8.185469983309192"><ele>177.0</ele><time>2026-04-11T11:16:52.001Z</time></trkpt><trkpt lat="44.82851759201776" lon="8.185465711277645"><ele>177.0</ele><time>2026-04-11T11:16:53.001Z</time></trkpt><trkpt lat="44.82845552182329" lon="8.185428387683915"><ele>177.0</ele><time>2026-04-11T11:16:54.001Z</time></trkpt><trkpt lat="44.828336721607904" lon="8.185396758166053"><ele>177.0</ele><time>2026-04-11T11:16:56.001Z</time></trkpt><trkpt lat="44.828227800554885" lon="8.185364994120325"><ele>177.0</ele><time>2026-04-11T11:16:58.001Z</time></trkpt><trkpt lat="44.82816061491491" lon="8.185345311070714"><ele>177.0</ele><time>2026-04-11T11:17:00.001Z</time></trkpt><trkpt lat="44.82814731462562" lon="8.185203801757554"><ele>176.33333333333334</ele><time>2026-04-11T11:17:04.001Z</time></trkpt><trkpt lat="44.82816965571389" lon="8.18510926468856"><ele>175.66666666666666</ele><time>2026-04-11T11:17:06.001Z</time></trkpt><trkpt lat="44.828190296995274" lon="8.1849965360548"><ele>175.0</ele><time>2026-04-11T11:17:08.001Z</time></trkpt><trkpt lat="44.8282132570256" lon="8.184868858514319"><ele>174.33333333333331</ele><time>2026-04-11T11:17:10.001Z</time></trkpt><trkpt lat="44.82823022840984" lon="8.184750358541507"><ele>173.66666666666666</ele><time>2026-04-11T11:17:12.001Z</time></trkpt><trkpt lat="44.82825397554635" lon="8.184663386774254"><ele>173.0</ele><time>2026-04-11T11:17:14.001Z</time></trkpt><trkpt lat="44.82826801430964" lon="8.184552969920098"><ele>173.0</ele><time>2026-04-11T11:17:18.001Z</time></trkpt><trkpt lat="44.82827171398656" lon="8.184461039899887"><ele>173.0</ele><time>2026-04-11T11:17:20.001Z</time></trkpt><trkpt lat="44.828275073665814" lon="8.184355237250989"><ele>173.0</ele><time>2026-04-11T11:17:22.001Z</time></trkpt><trkpt lat="44.828280107189094" lon="8.184238728185695"><ele>173.0</ele><time>2026-04-11T11:17:24.001Z</time></trkpt><trkpt lat="44.82827881249456" lon="8.184113949216314"><ele>173.0</ele><time>2026-04-11T11:17:26.001Z</time></trkpt><trkpt lat="44.828282556261414" lon="8.183983723998262"><ele>173.0</ele><time>2026-04-11T11:17:28.001Z</time></trkpt><trkpt lat="44.8282883440528" lon="8.183848368779067"><ele>173.0</ele><time>2026-04-11T11:17:30.001Z</time></trkpt><trkpt lat="44.828293763497335" lon="8.183711326742928"><ele>173.0</ele><time>2026-04-11T11:17:32.001Z</time></trkpt><trkpt lat="44.82829539667792" lon="8.183573117303226"><ele>173.0</ele><time>2026-04-11T11:17:34.001Z</time></trkpt><trkpt lat="44.82829710258196" lon="8.18343942368079"><ele>173.0</ele><time>2026-04-11T11:17:36.001Z</time></trkpt><trkpt lat="44.82830297344884" lon="8.183303126697616"><ele>173.0</ele><time>2026-04-11T11:17:38.001Z</time></trkpt><trkpt lat="44.82830108310206" lon="8.183168937766391"><ele>172.4</ele><time>2026-04-11T11:17:40.001Z</time></trkpt><trkpt lat="44.82830805594721" lon="8.183035796856965"><ele>171.8</ele><time>2026-04-11T11:17:42.001Z</time></trkpt><trkpt lat="44.828305700963824" lon="8.182897970327463"><ele>171.2</ele><time>2026-04-11T11:17:44.001Z</time></trkpt><trkpt lat="44.82830873311733" lon="8.182749554805653"><ele>170.6</ele><time>2026-04-11T11:17:46.001Z</time></trkpt><trkpt lat="44.82831541404576" lon="8.18259903389693"><ele>170.0</ele><time>2026-04-11T11:17:48.001Z</time></trkpt><trkpt lat="44.82832463754453" lon="8.182446990948558"><ele>170.0</ele><time>2026-04-11T11:17:50.001Z</time></trkpt><trkpt lat="44.82833621850352" lon="8.182287825034575"><ele>170.0</ele><time>2026-04-11T11:17:52.001Z</time></trkpt><trkpt lat="44.828357884768316" lon="8.182139014742722"><ele>170.0</ele><time>2026-04-11T11:17:54.001Z</time></trkpt><trkpt lat="44.82837983546809" lon="8.181977407263847"><ele>170.0</ele><time>2026-04-11T11:17:56.001Z</time></trkpt><trkpt lat="44.82840796557241" lon="8.181822601813053"><ele>170.0</ele><time>2026-04-11T11:17:58.001Z</time></trkpt><trkpt lat="44.82843206861264" lon="8.181665104071964"><ele>170.0</ele><time>2026-04-11T11:18:00.001Z</time></trkpt><trkpt lat="44.82846049101072" lon="8.181513114352438"><ele>170.0</ele><time>2026-04-11T11:18:02.001Z</time></trkpt><trkpt lat="44.828487931319934" lon="8.18135524866566"><ele>170.0</ele><time>2026-04-11T11:18:04.001Z</time></trkpt><trkpt lat="44.82851762664958" lon="8.181195742035227"><ele>169.8</ele><time>2026-04-11T11:18:06.001Z</time></trkpt><trkpt lat="44.82855055065376" lon="8.181032273451454"><ele>169.6</ele><time>2026-04-11T11:18:08.001Z</time></trkpt><trkpt lat="44.828585675527336" lon="8.180858822860097"><ele>169.39999999999998</ele><time>2026-04-11T11:18:10.001Z</time></trkpt><trkpt lat="44.828601142499984" lon="8.180765109321314"><ele>169.2</ele><time>2026-04-11T11:18:11.001Z</time></trkpt><trkpt lat="44.82861825638172" lon="8.180666028680498"><ele>169.0</ele><time>2026-04-11T11:18:12.001Z</time></trkpt><trkpt lat="44.82863476893569" lon="8.180567543538592"><ele>169.0</ele><time>2026-04-11T11:18:13.001Z</time></trkpt><trkpt lat="44.82865170766792" lon="8.180467190533356"><ele>169.0</ele><time>2026-04-11T11:18:14.001Z</time></trkpt><trkpt lat="44.828669763283585" lon="8.180363575005444"><ele>169.0</ele><time>2026-04-11T11:18:15.001Z</time></trkpt><trkpt lat="44.82869267395295" lon="8.180255697976857"><ele>169.0</ele><time>2026-04-11T11:18:16.001Z</time></trkpt><trkpt lat="44.828713604428366" lon="8.180145603551862"><ele>169.0</ele><time>2026-04-11T11:18:17.001Z</time></trkpt><trkpt lat="44.82873264794707" lon="8.180031109864737"><ele>169.0</ele><time>2026-04-11T11:18:18.001Z</time></trkpt><trkpt lat="44.82875261800356" lon="8.179916267334493"><ele>167.16666666666669</ele><time>2026-04-11T11:18:19.001Z</time></trkpt><trkpt lat="44.82876850049448" lon="8.179799899326476"><ele>165.33333333333334</ele><time>2026-04-11T11:18:20.001Z</time></trkpt><trkpt lat="44.82878349360829" lon="8.179678987584694"><ele>163.5</ele><time>2026-04-11T11:18:21.001Z</time></trkpt><trkpt lat="44.82879662588123" lon="8.179557573117682"><ele>161.66666666666666</ele><time>2026-04-11T11:18:22.001Z</time></trkpt><trkpt lat="44.82880173153181" lon="8.179431681960585"><ele>159.83333333333331</ele><time>2026-04-11T11:18:23.001Z</time></trkpt><trkpt lat="44.82879795793143" lon="8.17930649402239"><ele>158.0</ele><time>2026-04-11T11:18:24.001Z</time></trkpt><trkpt lat="44.82877901831858" lon="8.179178074402323"><ele>158.0</ele><time>2026-04-11T11:18:25.001Z</time></trkpt><trkpt lat="44.828753692219216" lon="8.179054661052072"><ele>158.0</ele><time>2026-04-11T11:18:26.001Z</time></trkpt><trkpt lat="44.828718814748754" lon="8.178933702111527"><ele>158.0</ele><time>2026-04-11T11:18:27.001Z</time></trkpt><trkpt lat="44.8286739528025" lon="8.178818267101748"><ele>158.0</ele><time>2026-04-11T11:18:28.001Z</time></trkpt><trkpt lat="44.82861787152927" lon="8.178711542757206"><ele>158.0</ele><time>2026-04-11T11:18:29.001Z</time></trkpt><trkpt lat="44.82855318399723" lon="8.178612628054115"><ele>157.6</ele><time>2026-04-11T11:18:30.001Z</time></trkpt><trkpt lat="44.828479250968144" lon="8.178523838075954"><ele>157.20000000000002</ele><time>2026-04-11T11:18:31.001Z</time></trkpt><trkpt lat="44.82839337341335" lon="8.178447748465706"><ele>156.8</ele><time>2026-04-11T11:18:32.001Z</time></trkpt><trkpt lat="44.82830782305207" lon="8.178379243857075"><ele>156.4</ele><time>2026-04-11T11:18:33.001Z</time></trkpt><trkpt lat="44.82822767846423" lon="8.178284752220272"><ele>156.0</ele><time>2026-04-11T11:18:34.001Z</time></trkpt><trkpt lat="44.82813857638231" lon="8.178213537244515"><ele>154.5</ele><time>2026-04-11T11:18:35.001Z</time></trkpt><trkpt lat="44.82804995087029" lon="8.178170118881193"><ele>153.0</ele><time>2026-04-11T11:18:36.001Z</time></trkpt><trkpt lat="44.82798001809103" lon="8.178087175855342"><ele>151.5</ele><time>2026-04-11T11:18:37.001Z</time></trkpt><trkpt lat="44.82790912826942" lon="8.17802817633535"><ele>150.0</ele><time>2026-04-11T11:18:38.001Z</time></trkpt><trkpt lat="44.82783573949278" lon="8.177984127607772"><ele>148.5</ele><time>2026-04-11T11:18:39.001Z</time></trkpt><trkpt lat="44.82777222064667" lon="8.177918414749337"><ele>147.0</ele><time>2026-04-11T11:18:40.001Z</time></trkpt><trkpt lat="44.8277136628873" lon="8.177840772589866"><ele>147.0</ele><time>2026-04-11T11:18:41.001Z</time></trkpt><trkpt lat="44.82765770444865" lon="8.177759789470333"><ele>147.0</ele><time>2026-04-11T11:18:42.001Z</time></trkpt><trkpt lat="44.82761537706388" lon="8.177679679953865"><ele>147.0</ele><time>2026-04-11T11:18:43.001Z</time></trkpt><trkpt lat="44.827583662152776" lon="8.177599145235803"><ele>147.0</ele><time>2026-04-11T11:18:44.001Z</time></trkpt><trkpt lat="44.827583138118484" lon="8.17745207093339"><ele>147.0</ele><time>2026-04-11T11:18:46.001Z</time></trkpt><trkpt lat="44.82760351150689" lon="8.177360214916662"><ele>147.0</ele><time>2026-04-11T11:18:48.001Z</time></trkpt><trkpt lat="44.82771271746563" lon="8.177346775983798"><ele>145.4</ele><time>2026-04-11T11:18:49.001Z</time></trkpt><trkpt lat="44.82782506696174" lon="8.177339302142185"><ele>143.79999999999998</ele><time>2026-04-11T11:18:51.001Z</time></trkpt><trkpt lat="44.82792987098291" lon="8.177326707093668"><ele>142.2</ele><time>2026-04-11T11:18:53.001Z</time></trkpt><trkpt lat="44.828022936357925" lon="8.177323667213352"><ele>140.6</ele><time>2026-04-11T11:18:55.001Z</time></trkpt><trkpt lat="44.82813759388386" lon="8.177331114154033"><ele>139.0</ele><time>2026-04-11T11:18:57.001Z</time></trkpt><trkpt lat="44.828249426423554" lon="8.177350037913403"><ele>139.5</ele><time>2026-04-11T11:18:59.001Z</time></trkpt><trkpt lat="44.82834207487677" lon="8.17738151283598"><ele>140.0</ele><time>2026-04-11T11:19:01.001Z</time></trkpt><trkpt lat="44.82843013528071" lon="8.177413269798043"><ele>140.5</ele><time>2026-04-11T11:19:03.001Z</time></trkpt><trkpt lat="44.828498371947965" lon="8.177437980468488"><ele>141.0</ele><time>2026-04-11T11:19:05.001Z</time></trkpt><trkpt lat="44.82856045724627" lon="8.177480149960838"><ele>141.5</ele><time>2026-04-11T11:19:07.001Z</time></trkpt><trkpt lat="44.828643258565705" lon="8.177520026832077"><ele>142.0</ele><time>2026-04-11T11:19:10.001Z</time></trkpt><trkpt lat="44.82871638697045" lon="8.177562423388181"><ele>142.0</ele><time>2026-04-11T11:19:14.001Z</time></trkpt><trkpt lat="44.82878112016997" lon="8.17759572292779"><ele>142.0</ele><time>2026-04-11T11:19:17.001Z</time></trkpt><trkpt lat="44.8287227747549" lon="8.177540366816665"><ele>142.0</ele><time>2026-04-11T11:19:23.001Z</time></trkpt><trkpt lat="44.828654742366716" lon="8.177505198232623"><ele>142.0</ele><time>2026-04-11T11:19:30.001Z</time></trkpt><trkpt lat="44.82859257706911" lon="8.1774740611753"><ele>142.0</ele><time>2026-04-11T11:19:35Z</time></trkpt><trkpt lat="44.828521391215254" lon="8.17743840587828"><ele>142.0</ele><time>2026-04-11T11:19:40Z</time></trkpt><trkpt lat="44.82844879082747" lon="8.177289816868846"><ele>141.4</ele><time>2026-04-11T11:19:43Z</time></trkpt><trkpt lat="44.82838325319947" lon="8.177230031943493"><ele>140.79999999999998</ele><time>2026-04-11T11:19:45Z</time></trkpt><trkpt lat="44.82837397716997" lon="8.177072322357109"><ele>140.2</ele><time>2026-04-11T11:19:47Z</time></trkpt><trkpt lat="44.82832451658995" lon="8.176908522189704"><ele>139.6</ele><time>2026-04-11T11:19:49Z</time></trkpt><trkpt lat="44.828296774751124" lon="8.176820705732027"><ele>139.0</ele><time>2026-04-11T11:19:50Z</time></trkpt><trkpt lat="44.828267427668614" lon="8.176728186772419"><ele>139.0</ele><time>2026-04-11T11:19:51Z</time></trkpt><trkpt lat="44.82823685392223" lon="8.176631800580687"><ele>139.0</ele><time>2026-04-11T11:19:52Z</time></trkpt><trkpt lat="44.82820550357335" lon="8.176532793214127"><ele>139.0</ele><time>2026-04-11T11:19:53Z</time></trkpt><trkpt lat="44.828175006684205" lon="8.176436381510173"><ele>139.0</ele><time>2026-04-11T11:19:54Z</time></trkpt><trkpt lat="44.828143884525886" lon="8.176337993211245"><ele>139.0</ele><time>2026-04-11T11:19:55Z</time></trkpt><trkpt lat="44.82811394402622" lon="8.176242846792821"><ele>139.0</ele><time>2026-04-11T11:19:56Z</time></trkpt><trkpt lat="44.82807236630911" lon="8.176165468511126"><ele>139.0</ele><time>2026-04-11T11:19:57Z</time></trkpt><trkpt lat="44.82804576372457" lon="8.176077223144686"><ele>138.0</ele><time>2026-04-11T11:19:58Z</time></trkpt><trkpt lat="44.828011302049475" lon="8.175948351538892"><ele>137.0</ele><time>2026-04-11T11:20:00Z</time></trkpt><trkpt lat="44.82800672724801" lon="8.175840741316597"><ele>136.0</ele><time>2026-04-11T11:20:02Z</time></trkpt><trkpt lat="44.82791687993616" lon="8.175686608180825"><ele>135.0</ele><time>2026-04-11T11:20:05Z</time></trkpt><trkpt lat="44.82784518498724" lon="8.175651724147349"><ele>134.0</ele><time>2026-04-11T11:20:07Z</time></trkpt><trkpt lat="44.827776087791484" lon="8.175588018798733"><ele>133.83333333333331</ele><time>2026-04-11T11:20:09Z</time></trkpt><trkpt lat="44.827697106087896" lon="8.175531301351848"><ele>133.66666666666666</ele><time>2026-04-11T11:20:11Z</time></trkpt><trkpt lat="44.82761254508614" lon="8.175470578766406"><ele>133.5</ele><time>2026-04-11T11:20:13Z</time></trkpt><trkpt lat="44.82752494591394" lon="8.175410816798058"><ele>133.33333333333334</ele><time>2026-04-11T11:20:15Z</time></trkpt><trkpt lat="44.82747255812891" lon="8.175309525637156"><ele>133.16666666666669</ele><time>2026-04-11T11:20:17Z</time></trkpt><trkpt lat="44.82739373283662" lon="8.17530751907908"><ele>133.0</ele><time>2026-04-11T11:20:43Z</time></trkpt><trkpt lat="44.82745000494457" lon="8.175354235507248"><ele>133.0</ele><time>2026-04-11T11:20:48Z</time></trkpt><trkpt lat="44.82744116841356" lon="8.175218956168147"><ele>133.0</ele><time>2026-04-11T11:20:56.001Z</time></trkpt><trkpt lat="44.827435284448214" lon="8.175086016868557"><ele>133.0</ele><time>2026-04-11T11:20:59.001Z</time></trkpt><trkpt lat="44.82746113228901" lon="8.174981684615855"><ele>133.0</ele><time>2026-04-11T11:21:01.001Z</time></trkpt><trkpt lat="44.82745656431367" lon="8.174871937268477"><ele>133.0</ele><time>2026-04-11T11:21:03.001Z</time></trkpt><trkpt lat="44.82746999386705" lon="8.174753539344719"><ele>133.0</ele><time>2026-04-11T11:21:05.001Z</time></trkpt><trkpt lat="44.8274908933678" lon="8.174620291094973"><ele>132.0</ele><time>2026-04-11T11:21:07.001Z</time></trkpt><trkpt lat="44.82752746893044" lon="8.174478703183077"><ele>131.0</ele><time>2026-04-11T11:21:09.001Z</time></trkpt><trkpt lat="44.82757454098518" lon="8.174328602136868"><ele>130.0</ele><time>2026-04-11T11:21:11.001Z</time></trkpt><trkpt lat="44.82759798614798" lon="8.1741719481343"><ele>129.0</ele><time>2026-04-11T11:21:13.001Z</time></trkpt><trkpt lat="44.827623559915715" lon="8.174028132058345"><ele>128.0</ele><time>2026-04-11T11:21:15.001Z</time></trkpt><trkpt lat="44.82765289715305" lon="8.173887946344268"><ele>127.4</ele><time>2026-04-11T11:21:17.001Z</time></trkpt><trkpt lat="44.82766168951512" lon="8.173780968633807"><ele>126.80000000000001</ele><time>2026-04-11T11:21:19Z</time></trkpt><trkpt lat="44.82771011150601" lon="8.173665295897262"><ele>126.2</ele><time>2026-04-11T11:21:21Z</time></trkpt><trkpt lat="44.82774945779242" lon="8.173525149338252"><ele>125.6</ele><time>2026-04-11T11:21:23Z</time></trkpt><trkpt lat="44.82777758110978" lon="8.17336983638689"><ele>125.0</ele><time>2026-04-11T11:21:25Z</time></trkpt><trkpt lat="44.82780914530033" lon="8.173223309072995"><ele>125.4</ele><time>2026-04-11T11:21:27Z</time></trkpt><trkpt lat="44.827870042267435" lon="8.17308575267175"><ele>125.8</ele><time>2026-04-11T11:21:29Z</time></trkpt><trkpt lat="44.82792759907436" lon="8.172942392905899"><ele>126.19999999999999</ele><time>2026-04-11T11:21:31Z</time></trkpt><trkpt lat="44.82797843761773" lon="8.172803670777517"><ele>126.6</ele><time>2026-04-11T11:21:33Z</time></trkpt><trkpt lat="44.828022161772054" lon="8.172667761701762"><ele>127.0</ele><time>2026-04-11T11:21:35Z</time></trkpt><trkpt lat="44.828061486701536" lon="8.17254378956436"><ele>127.00000000000001</ele><time>2026-04-11T11:21:37Z</time></trkpt><trkpt lat="44.828109061630535" lon="8.1724240509047"><ele>127.0</ele><time>2026-04-11T11:21:39Z</time></trkpt><trkpt lat="44.828143354445416" lon="8.172305889132723"><ele>127.0</ele><time>2026-04-11T11:21:41Z</time></trkpt><trkpt lat="44.828168627796956" lon="8.172196628486773"><ele>127.0</ele><time>2026-04-11T11:21:43Z</time></trkpt><trkpt lat="44.82821060486155" lon="8.172099107624621"><ele>127.00000000000001</ele><time>2026-04-11T11:21:45Z</time></trkpt><trkpt lat="44.82824760322212" lon="8.172000869300886"><ele>127.0</ele><time>2026-04-11T11:21:47Z</time></trkpt><trkpt lat="44.82829098247775" lon="8.171884300110127"><ele>127.0</ele><time>2026-04-11T11:21:49Z</time></trkpt><trkpt lat="44.82835169746276" lon="8.17175753096077"><ele>126.99999999999999</ele><time>2026-04-11T11:21:51Z</time></trkpt><trkpt lat="44.82838059990806" lon="8.171601921031042"><ele>126.99999999999999</ele><time>2026-04-11T11:21:53Z</time></trkpt><trkpt lat="44.82842864143373" lon="8.171467863620963"><ele>127.0</ele><time>2026-04-11T11:21:55Z</time></trkpt><trkpt lat="44.8284734673724" lon="8.1713316609303"><ele>127.0</ele><time>2026-04-11T11:21:57Z</time></trkpt><trkpt lat="44.8285157716543" lon="8.171201410479476"><ele>127.0</ele><time>2026-04-11T11:21:59Z</time></trkpt><trkpt lat="44.82854375329992" lon="8.171063248819204"><ele>126.99999999999999</ele><time>2026-04-11T11:22:01Z</time></trkpt><trkpt lat="44.828576102429984" lon="8.17091289537497"><ele>126.99999999999999</ele><time>2026-04-11T11:22:03Z</time></trkpt><trkpt lat="44.828614895111784" lon="8.170842231658575"><ele>127.0</ele><time>2026-04-11T11:22:04Z</time></trkpt><trkpt lat="44.82863096851312" lon="8.170688943504773"><ele>127.0</ele><time>2026-04-11T11:22:06Z</time></trkpt><trkpt lat="44.828642900927846" lon="8.170542966199335"><ele>127.0</ele><time>2026-04-11T11:22:08Z</time></trkpt><trkpt lat="44.82865446169764" lon="8.170385835104964"><ele>126.99999999999999</ele><time>2026-04-11T11:22:10Z</time></trkpt><trkpt lat="44.82866476493868" lon="8.170238685566357"><ele>126.99999999999999</ele><time>2026-04-11T11:22:12Z</time></trkpt><trkpt lat="44.82867453109031" lon="8.170099206512791"><ele>127.0</ele><time>2026-04-11T11:22:14Z</time></trkpt><trkpt lat="44.828684393437904" lon="8.169958353579622"><ele>127.0</ele><time>2026-04-11T11:22:16Z</time></trkpt><trkpt lat="44.82869389093756" lon="8.16982271232227"><ele>127.00000000000001</ele><time>2026-04-11T11:22:18Z</time></trkpt><trkpt lat="44.82870809921432" lon="8.169702753183257"><ele>127.0</ele><time>2026-04-11T11:22:20Z</time></trkpt><trkpt lat="44.828685064231806" lon="8.169565155567474"><ele>127.0</ele><time>2026-04-11T11:22:22Z</time></trkpt><trkpt lat="44.828713442207636" lon="8.169484517437649"><ele>127.0</ele><time>2026-04-11T11:22:23Z</time></trkpt><trkpt lat="44.82869458724497" lon="8.169399648805618"><ele>127.00000000000001</ele><time>2026-04-11T11:22:24Z</time></trkpt><trkpt lat="44.82864473193561" lon="8.169254077702215"><ele>127.0</ele><time>2026-04-11T11:22:26Z</time></trkpt><trkpt lat="44.82859521399484" lon="8.169113743788602"><ele>126.6</ele><time>2026-04-11T11:22:28Z</time></trkpt><trkpt lat="44.82854210073199" lon="8.168970505630849"><ele>126.19999999999999</ele><time>2026-04-11T11:22:30Z</time></trkpt><trkpt lat="44.82848880962966" lon="8.16882878616216"><ele>125.8</ele><time>2026-04-11T11:22:32Z</time></trkpt><trkpt lat="44.828437065697976" lon="8.168691181044071"><ele>125.4</ele><time>2026-04-11T11:22:34Z</time></trkpt><trkpt lat="44.828389633484164" lon="8.168559408977531"><ele>125.0</ele><time>2026-04-11T11:22:36Z</time></trkpt><trkpt lat="44.828340449681356" lon="8.168417844155265"><ele>125.0</ele><time>2026-04-11T11:22:38Z</time></trkpt><trkpt lat="44.82829234625104" lon="8.168269722189045"><ele>125.0</ele><time>2026-04-11T11:22:40Z</time></trkpt><trkpt lat="44.8282480982123" lon="8.168129204289224"><ele>125.0</ele><time>2026-04-11T11:22:42Z</time></trkpt><trkpt lat="44.82820495431832" lon="8.16799110738024"><ele>125.0</ele><time>2026-04-11T11:22:44Z</time></trkpt><trkpt lat="44.82816993708375" lon="8.16786341776932"><ele>125.0</ele><time>2026-04-11T11:22:46Z</time></trkpt><trkpt lat="44.828148274836735" lon="8.16773744547848"><ele>125.25</ele><time>2026-04-11T11:22:48Z</time></trkpt><trkpt lat="44.82813657460864" lon="8.167602898021292"><ele>125.5</ele><time>2026-04-11T11:22:50Z</time></trkpt><trkpt lat="44.82812530113037" lon="8.167473258759042"><ele>125.75</ele><time>2026-04-11T11:22:52Z</time></trkpt><trkpt lat="44.82811451360463" lon="8.16734920760454"><ele>126.0</ele><time>2026-04-11T11:22:54Z</time></trkpt><trkpt lat="44.82781329547569" lon="8.16697067551305"><ele>126.0</ele><time>2026-04-11T11:23:00Z</time></trkpt><trkpt lat="44.82776746000986" lon="8.166907965564567"><ele>126.0</ele><time>2026-04-11T11:23:01.001Z</time></trkpt><trkpt lat="44.82771868707294" lon="8.166849808534064"><ele>126.0</ele><time>2026-04-11T11:23:02.001Z</time></trkpt><trkpt lat="44.82762433989865" lon="8.166755802212851"><ele>126.0</ele><time>2026-04-11T11:23:04.001Z</time></trkpt><trkpt lat="44.82751861419948" lon="8.166668405293676"><ele>126.0</ele><time>2026-04-11T11:23:06.001Z</time></trkpt><trkpt lat="44.82741303235109" lon="8.166586015256994"><ele>126.25</ele><time>2026-04-11T11:23:08.001Z</time></trkpt><trkpt lat="44.827315335811406" lon="8.166496122757637"><ele>126.5</ele><time>2026-04-11T11:23:10Z</time></trkpt><trkpt lat="44.82722908232832" lon="8.166408247482776"><ele>126.75</ele><time>2026-04-11T11:23:12Z</time></trkpt><trkpt lat="44.827131960078" lon="8.166308863180744"><ele>127.0</ele><time>2026-04-11T11:23:14Z</time></trkpt><trkpt lat="44.82704560893869" lon="8.166214156694636"><ele>127.0</ele><time>2026-04-11T11:23:16Z</time></trkpt><trkpt lat="44.826967271331014" lon="8.166110465821411"><ele>126.99999999999999</ele><time>2026-04-11T11:23:18Z</time></trkpt><trkpt lat="44.82689006188358" lon="8.165993326438524"><ele>126.99999999999999</ele><time>2026-04-11T11:23:20Z</time></trkpt><trkpt lat="44.826833233137435" lon="8.165879597942034"><ele>127.0</ele><time>2026-04-11T11:23:22Z</time></trkpt><trkpt lat="44.82677379155607" lon="8.165777197047646"><ele>127.0</ele><time>2026-04-11T11:23:24Z</time></trkpt><trkpt lat="44.826729121421906" lon="8.16567692159441"><ele>127.00000000000001</ele><time>2026-04-11T11:23:26Z</time></trkpt><trkpt lat="44.82667424884503" lon="8.165565943028755"><ele>127.0</ele><time>2026-04-11T11:23:28Z</time></trkpt><trkpt lat="44.82663228276557" lon="8.165463737416237"><ele>127.0</ele><time>2026-04-11T11:23:30Z</time></trkpt><trkpt lat="44.826594707105386" lon="8.165346955835094"><ele>127.0</ele><time>2026-04-11T11:23:32Z</time></trkpt><trkpt lat="44.82654761639219" lon="8.16524523453322"><ele>127.00000000000001</ele><time>2026-04-11T11:23:34Z</time></trkpt><trkpt lat="44.82651104738237" lon="8.165138284853448"><ele>127.0</ele><time>2026-04-11T11:23:36Z</time></trkpt><trkpt lat="44.82647770449416" lon="8.165023965769985"><ele>127.0</ele><time>2026-04-11T11:23:38Z</time></trkpt><trkpt lat="44.82644280533061" lon="8.164925367719873"><ele>126.99999999999999</ele><time>2026-04-11T11:23:40Z</time></trkpt><trkpt lat="44.826415872275376" lon="8.164806043702852"><ele>126.99999999999999</ele><time>2026-04-11T11:23:42Z</time></trkpt><trkpt lat="44.826398606308096" lon="8.164669518505205"><ele>127.0</ele><time>2026-04-11T11:23:44Z</time></trkpt><trkpt lat="44.826378576941984" lon="8.164572580066112"><ele>127.0</ele><time>2026-04-11T11:23:46Z</time></trkpt><trkpt lat="44.82639259437826" lon="8.164396105095298"><ele>127.0</ele><time>2026-04-11T11:23:48Z</time></trkpt><trkpt lat="44.8263786341703" lon="8.164261886094204"><ele>126.99999999999999</ele><time>2026-04-11T11:23:50Z</time></trkpt><trkpt lat="44.82637138854881" lon="8.164122383347365"><ele>126.99999999999999</ele><time>2026-04-11T11:23:52Z</time></trkpt><trkpt lat="44.8263583306978" lon="8.163989396938039"><ele>127.0</ele><time>2026-04-11T11:23:54Z</time></trkpt><trkpt lat="44.826341614902965" lon="8.163851861309993"><ele>127.0</ele><time>2026-04-11T11:23:56Z</time></trkpt><trkpt lat="44.826326910742985" lon="8.16371915673626"><ele>126.6</ele><time>2026-04-11T11:23:58Z</time></trkpt><trkpt lat="44.826302258770326" lon="8.16358573390233"><ele>126.19999999999999</ele><time>2026-04-11T11:24:00Z</time></trkpt><trkpt lat="44.826281468592825" lon="8.163454564836229"><ele>125.8</ele><time>2026-04-11T11:24:02Z</time></trkpt><trkpt lat="44.82626256983065" lon="8.163316100455692"><ele>125.4</ele><time>2026-04-11T11:24:04Z</time></trkpt><trkpt lat="44.82620796406957" lon="8.163199497213776"><ele>125.0</ele><time>2026-04-11T11:24:06Z</time></trkpt><trkpt lat="44.82619893728146" lon="8.163072486191135"><ele>124.99999999999999</ele><time>2026-04-11T11:24:08Z</time></trkpt><trkpt lat="44.82618418788583" lon="8.16296164913257"><ele>125.0</ele><time>2026-04-11T11:24:10Z</time></trkpt><trkpt lat="44.826164838725546" lon="8.162865188529375"><ele>125.0</ele><time>2026-04-11T11:24:12Z</time></trkpt><trkpt lat="44.82619998663539" lon="8.162775718775537"><ele>125.0</ele><time>2026-04-11T11:24:14Z</time></trkpt><trkpt lat="44.8262797214969" lon="8.162690688001621"><ele>124.99999999999999</ele><time>2026-04-11T11:24:16Z</time></trkpt><trkpt lat="44.82635196435941" lon="8.162605297705248"><ele>125.0</ele><time>2026-04-11T11:24:18Z</time></trkpt><trkpt lat="44.82642007537736" lon="8.162516469909164"><ele>125.0</ele><time>2026-04-11T11:24:20Z</time></trkpt><trkpt lat="44.826495297330894" lon="8.162425091408053"><ele>125.0</ele><time>2026-04-11T11:24:22Z</time></trkpt><trkpt lat="44.8265666491333" lon="8.162333557909164"><ele>125.0</ele><time>2026-04-11T11:24:24Z</time></trkpt><trkpt lat="44.82663782223301" lon="8.16224729237208"><ele>125.0</ele><time>2026-04-11T11:24:26Z</time></trkpt><trkpt lat="44.82672148815254" lon="8.162147827829592"><ele>125.0</ele><time>2026-04-11T11:24:29Z</time></trkpt><trkpt lat="44.826856443072046" lon="8.162018606928067"><ele>124.8</ele><time>2026-04-11T11:24:31Z</time></trkpt><trkpt lat="44.8269344584207" lon="8.161929552789829"><ele>124.6</ele><time>2026-04-11T11:24:33Z</time></trkpt><trkpt lat="44.827004611371976" lon="8.161840463487248"><ele>124.4</ele><time>2026-04-11T11:24:35Z</time></trkpt><trkpt lat="44.82707773997903" lon="8.161756099198385"><ele>124.2</ele><time>2026-04-11T11:24:37Z</time></trkpt><trkpt lat="44.82715130558386" lon="8.161665158318543"><ele>124.0</ele><time>2026-04-11T11:24:39Z</time></trkpt><trkpt lat="44.8272203016841" lon="8.161569952742521"><ele>124.2</ele><time>2026-04-11T11:24:41Z</time></trkpt><trkpt lat="44.82726835573913" lon="8.161445564654512"><ele>124.4</ele><time>2026-04-11T11:24:43Z</time></trkpt><trkpt lat="44.82726430548181" lon="8.161313284152143"><ele>124.6</ele><time>2026-04-11T11:24:45Z</time></trkpt><trkpt lat="44.8273121980301" lon="8.16118267649569"><ele>124.8</ele><time>2026-04-11T11:24:47Z</time></trkpt><trkpt lat="44.82733668528432" lon="8.16108675129694"><ele>125.0</ele><time>2026-04-11T11:24:49Z</time></trkpt><trkpt lat="44.82741201130883" lon="8.160997850247231"><ele>124.99999999999999</ele><time>2026-04-11T11:24:51Z</time></trkpt><trkpt lat="44.82747921025186" lon="8.160923877971085"><ele>125.0</ele><time>2026-04-11T11:24:53Z</time></trkpt><trkpt lat="44.82754627954331" lon="8.160832580743087"><ele>125.0</ele><time>2026-04-11T11:24:55Z</time></trkpt><trkpt lat="44.82760667250801" lon="8.160759001899933"><ele>125.0</ele><time>2026-04-11T11:24:57Z</time></trkpt><trkpt lat="44.82766893911606" lon="8.160670405127453"><ele>124.99999999999999</ele><time>2026-04-11T11:24:59Z</time></trkpt><trkpt lat="44.82771257904547" lon="8.160582629085894"><ele>125.0</ele><time>2026-04-11T11:25:01Z</time></trkpt><trkpt lat="44.82778338819557" lon="8.160509755865842"><ele>124.85714285714286</ele><time>2026-04-11T11:25:03Z</time></trkpt><trkpt lat="44.82784220721074" lon="8.16043469016173"><ele>124.71428571428572</ele><time>2026-04-11T11:25:05Z</time></trkpt><trkpt lat="44.82789713166492" lon="8.160383428937276"><ele>124.57142857142858</ele><time>2026-04-11T11:25:07Z</time></trkpt><trkpt lat="44.827958272716856" lon="8.160306827478497"><ele>124.42857142857143</ele><time>2026-04-11T11:25:09Z</time></trkpt><trkpt lat="44.82801156672721" lon="8.160244273909408"><ele>124.2857142857143</ele><time>2026-04-11T11:25:11Z</time></trkpt><trkpt lat="44.82806897798821" lon="8.160177760269647"><ele>124.14285714285715</ele><time>2026-04-11T11:25:13Z</time></trkpt><trkpt lat="44.82812210580425" lon="8.16010356854732"><ele>124.0</ele><time>2026-04-11T11:25:15Z</time></trkpt><trkpt lat="44.828178308772515" lon="8.160027479681839"><ele>124.0</ele><time>2026-04-11T11:25:17Z</time></trkpt><trkpt lat="44.828229065983635" lon="8.15995327459693"><ele>124.00000000000001</ele><time>2026-04-11T11:25:19Z</time></trkpt><trkpt lat="44.82827925998937" lon="8.159881110947152"><ele>124.0</ele><time>2026-04-11T11:25:21Z</time></trkpt><trkpt lat="44.82832643117458" lon="8.15980305381319"><ele>124.0</ele><time>2026-04-11T11:25:23Z</time></trkpt><trkpt lat="44.828392675904645" lon="8.159813467119836"><ele>124.00000000000001</ele><time>2026-04-11T11:25:26Z</time></trkpt><trkpt lat="44.82844706878312" lon="8.159861884367311"><ele>124.0</ele><time>2026-04-11T11:25:28Z</time></trkpt><trkpt lat="44.82850753350953" lon="8.159947160017849"><ele>124.0</ele><time>2026-04-11T11:25:31Z</time></trkpt><trkpt lat="44.828562680282715" lon="8.160029950575831"><ele>124.00000000000001</ele><time>2026-04-11T11:25:32Z</time></trkpt><trkpt lat="44.828627534235764" lon="8.160132447454"><ele>124.0</ele><time>2026-04-11T11:25:34Z</time></trkpt><trkpt lat="44.82868487116343" lon="8.160210663425572"><ele>124.0</ele><time>2026-04-11T11:25:36Z</time></trkpt><trkpt lat="44.828744692391425" lon="8.160299914824963"><ele>124.0</ele><time>2026-04-11T11:25:38Z</time></trkpt><trkpt lat="44.828804053810956" lon="8.160382042471724"><ele>124.00000000000001</ele><time>2026-04-11T11:25:40Z</time></trkpt><trkpt lat="44.82887705116297" lon="8.16046449223206"><ele>124.0</ele><time>2026-04-11T11:25:42Z</time></trkpt><trkpt lat="44.82894940902478" lon="8.160486560279491"><ele>124.0</ele><time>2026-04-11T11:25:44Z</time></trkpt><trkpt lat="44.82902146258519" lon="8.160447720681347"><ele>124.0</ele><time>2026-04-11T11:25:46Z</time></trkpt><trkpt lat="44.82907994959959" lon="8.160375415896443"><ele>124.0</ele><time>2026-04-11T11:25:48Z</time></trkpt><trkpt lat="44.829131495059194" lon="8.160318734313677"><ele>124.0</ele><time>2026-04-11T11:25:50Z</time></trkpt><trkpt lat="44.829207227580355" lon="8.160257775511107"><ele>124.0</ele><time>2026-04-11T11:25:53.025Z</time></trkpt><trkpt lat="44.8293494886299" lon="8.160119340290148"><ele>124.0</ele><time>2026-04-11T11:25:55Z</time></trkpt><trkpt lat="44.82928017476973" lon="8.160061323749147"><ele>124.00000000000001</ele><time>2026-04-11T11:25:56Z</time></trkpt><trkpt lat="44.82923533383832" lon="8.159996637895539"><ele>124.0</ele><time>2026-04-11T11:25:58Z</time></trkpt><trkpt lat="44.82919929577913" lon="8.159922009760084"><ele>124.0</ele><time>2026-04-11T11:26:01Z</time></trkpt><trkpt lat="44.829179398795496" lon="8.159835946920369"><ele>124.00000000000001</ele><time>2026-04-11T11:26:04Z</time></trkpt><trkpt lat="44.82914909482958" lon="8.159755506829002"><ele>124.0</ele><time>2026-04-11T11:26:07Z</time></trkpt><trkpt lat="44.82909230876273" lon="8.159653267239399"><ele>124.0</ele><time>2026-04-11T11:26:10Z</time></trkpt><trkpt lat="44.82904436598321" lon="8.159572388225865"><ele>124.2</ele><time>2026-04-11T11:26:13Z</time></trkpt><trkpt lat="44.828986009080374" lon="8.15948326474616"><ele>124.4</ele><time>2026-04-11T11:26:16Z</time></trkpt><trkpt lat="44.82892593566656" lon="8.159368060786441"><ele>124.6</ele><time>2026-04-11T11:26:18Z</time></trkpt><trkpt lat="44.82885965845277" lon="8.159272101724868"><ele>124.8</ele><time>2026-04-11T11:26:20Z</time></trkpt><trkpt lat="44.828798095654264" lon="8.159188300472469"><ele>125.0</ele><time>2026-04-11T11:26:22Z</time></trkpt><trkpt lat="44.828742141387224" lon="8.159095739043698"><ele>125.16666666666666</ele><time>2026-04-11T11:26:24Z</time></trkpt><trkpt lat="44.828687251925174" lon="8.159001259838096"><ele>125.33333333333333</ele><time>2026-04-11T11:26:26Z</time></trkpt><trkpt lat="44.8286235993779" lon="8.158909572699518"><ele>125.5</ele><time>2026-04-11T11:26:28Z</time></trkpt><trkpt lat="44.8285672465581" lon="8.158815687810046"><ele>125.66666666666666</ele><time>2026-04-11T11:26:30Z</time></trkpt><trkpt lat="44.82850676693211" lon="8.158733018461012"><ele>125.83333333333333</ele><time>2026-04-11T11:26:32Z</time></trkpt><trkpt lat="44.8284714246241" lon="8.15865362126924"><ele>126.0</ele><time>2026-04-11T11:26:35Z</time></trkpt><trkpt lat="44.828419303961674" lon="8.158575494010407"><ele>126.0</ele><time>2026-04-11T11:26:36Z</time></trkpt><trkpt lat="44.828369140561925" lon="8.158489033166205"><ele>126.0</ele><time>2026-04-11T11:26:38Z</time></trkpt><trkpt lat="44.8283235853788" lon="8.158416684756055"><ele>126.0</ele><time>2026-04-11T11:26:39Z</time></trkpt><trkpt lat="44.82825817778054" lon="8.158322090262521"><ele>126.0</ele><time>2026-04-11T11:26:41Z</time></trkpt><trkpt lat="44.82819598154677" lon="8.15822170907694"><ele>126.0</ele><time>2026-04-11T11:26:43Z</time></trkpt><trkpt lat="44.82813436187104" lon="8.158124093821005"><ele>126.0</ele><time>2026-04-11T11:26:45Z</time></trkpt><trkpt lat="44.82807706298277" lon="8.158023734770863"><ele>125.6</ele><time>2026-04-11T11:26:46.999Z</time></trkpt><trkpt lat="44.82802138574946" lon="8.157928485403565"><ele>125.19999999999999</ele><time>2026-04-11T11:26:48.999Z</time></trkpt><trkpt lat="44.82795806180121" lon="8.157829512341559"><ele>124.80000000000001</ele><time>2026-04-11T11:26:50.999Z</time></trkpt><trkpt lat="44.82790057323611" lon="8.157732055832073"><ele>124.4</ele><time>2026-04-11T11:26:52.999Z</time></trkpt><trkpt lat="44.827839111324785" lon="8.157633487448361"><ele>124.0</ele><time>2026-04-11T11:26:54.999Z</time></trkpt><trkpt lat="44.82777534556717" lon="8.157534950548857"><ele>124.0</ele><time>2026-04-11T11:26:56.999Z</time></trkpt><trkpt lat="44.82771285775131" lon="8.157433184543383"><ele>124.0</ele><time>2026-04-11T11:26:58.999Z</time></trkpt><trkpt lat="44.82765062672281" lon="8.157330040349363"><ele>124.0</ele><time>2026-04-11T11:27:00.999Z</time></trkpt><trkpt lat="44.827589285535296" lon="8.15722621375354"><ele>124.0</ele><time>2026-04-11T11:27:02.999Z</time></trkpt><trkpt lat="44.827525070952525" lon="8.1571304881799"><ele>124.0</ele><time>2026-04-11T11:27:04.999Z</time></trkpt><trkpt lat="44.82747457061025" lon="8.157026871521365"><ele>124.2</ele><time>2026-04-11T11:27:06.999Z</time></trkpt><trkpt lat="44.82741414985298" lon="8.156932966386155"><ele>124.4</ele><time>2026-04-11T11:27:08.999Z</time></trkpt><trkpt lat="44.827359263855925" lon="8.15683371143905"><ele>124.6</ele><time>2026-04-11T11:27:10.999Z</time></trkpt><trkpt lat="44.827295848055876" lon="8.156733275642344"><ele>124.8</ele><time>2026-04-11T11:27:13Z</time></trkpt><trkpt lat="44.8272375428439" lon="8.156632169022936"><ele>125.0</ele><time>2026-04-11T11:27:15Z</time></trkpt><trkpt lat="44.82717605232402" lon="8.15653310479964"><ele>125.2</ele><time>2026-04-11T11:27:17Z</time></trkpt><trkpt lat="44.82711874465607" lon="8.156430404304269"><ele>125.4</ele><time>2026-04-11T11:27:19Z</time></trkpt><trkpt lat="44.827055340474935" lon="8.15633162497815"><ele>125.6</ele><time>2026-04-11T11:27:21Z</time></trkpt><trkpt lat="44.826999789132365" lon="8.156227354083883"><ele>125.8</ele><time>2026-04-11T11:27:23Z</time></trkpt><trkpt lat="44.826934235085545" lon="8.156119346545006"><ele>126.0</ele><time>2026-04-11T11:27:25Z</time></trkpt><trkpt lat="44.82686853856194" lon="8.156016763095671"><ele>126.16666666666667</ele><time>2026-04-11T11:27:27Z</time></trkpt><trkpt lat="44.826801581508754" lon="8.155921374653593"><ele>126.33333333333334</ele><time>2026-04-11T11:27:29Z</time></trkpt><trkpt lat="44.82675669352067" lon="8.155849559660087"><ele>126.5</ele><time>2026-04-11T11:27:31Z</time></trkpt><trkpt lat="44.82670978105269" lon="8.155738979059803"><ele>126.66666666666667</ele><time>2026-04-11T11:27:33Z</time></trkpt><trkpt lat="44.82664675349107" lon="8.155651729533274"><ele>126.83333333333334</ele><time>2026-04-11T11:27:35Z</time></trkpt><trkpt lat="44.826601297798696" lon="8.155566881078547"><ele>127.0</ele><time>2026-04-11T11:27:36Z</time></trkpt><trkpt lat="44.826528445144255" lon="8.155467293670867"><ele>127.0</ele><time>2026-04-11T11:27:38Z</time></trkpt><trkpt lat="44.82642064085471" lon="8.155504614452612"><ele>126.99999999999999</ele><time>2026-04-11T11:27:39Z</time></trkpt><trkpt lat="44.82634313827376" lon="8.155376598879053"><ele>126.99999999999999</ele><time>2026-04-11T11:27:42Z</time></trkpt><trkpt lat="44.82629498286813" lon="8.155297057792467"><ele>127.0</ele><time>2026-04-11T11:27:43Z</time></trkpt><trkpt lat="44.82623086186364" lon="8.155191145372193"><ele>127.0</ele><time>2026-04-11T11:27:45Z</time></trkpt><trkpt lat="44.826163650931214" lon="8.155080129015893"><ele>127.0</ele><time>2026-04-11T11:27:47Z</time></trkpt><trkpt lat="44.82609727027967" lon="8.154970484089949"><ele>126.99999999999999</ele><time>2026-04-11T11:27:49Z</time></trkpt><trkpt lat="44.8260297210319" lon="8.154858909243625"><ele>126.99999999999999</ele><time>2026-04-11T11:27:51Z</time></trkpt><trkpt lat="44.82596441686008" lon="8.154750788308613"><ele>127.0</ele><time>2026-04-11T11:27:53Z</time></trkpt><trkpt lat="44.82589823229119" lon="8.15464097462886"><ele>127.0</ele><time>2026-04-11T11:27:55Z</time></trkpt><trkpt lat="44.82583545455155" lon="8.154538448280329"><ele>126.8</ele><time>2026-04-11T11:27:57Z</time></trkpt><trkpt lat="44.82577167209175" lon="8.154433711222236"><ele>126.6</ele><time>2026-04-11T11:27:59Z</time></trkpt><trkpt lat="44.825709388997815" lon="8.154331290082785"><ele>126.39999999999999</ele><time>2026-04-11T11:28:01Z</time></trkpt><trkpt lat="44.82564347841809" lon="8.154222903839775"><ele>126.19999999999999</ele><time>2026-04-11T11:28:03Z</time></trkpt><trkpt lat="44.825580958451326" lon="8.154120093236653"><ele>126.0</ele><time>2026-04-11T11:28:05Z</time></trkpt><trkpt lat="44.82562194667157" lon="8.153981300631681"><ele>126.0</ele><time>2026-04-11T11:28:06Z</time></trkpt><trkpt lat="44.82555614958321" lon="8.153876878028507"><ele>126.0</ele><time>2026-04-11T11:28:08Z</time></trkpt><trkpt lat="44.825498255987675" lon="8.153772694947154"><ele>126.0</ele><time>2026-04-11T11:28:10Z</time></trkpt><trkpt lat="44.82543800341916" lon="8.153671935165741"><ele>126.0</ele><time>2026-04-11T11:28:12Z</time></trkpt><trkpt lat="44.82538628941364" lon="8.153575071158409"><ele>126.0</ele><time>2026-04-11T11:28:14Z</time></trkpt><trkpt lat="44.82532049100402" lon="8.153474198804098"><ele>126.0</ele><time>2026-04-11T11:28:16Z</time></trkpt><trkpt lat="44.82524997517754" lon="8.153348853777183"><ele>126.0</ele><time>2026-04-11T11:28:19Z</time></trkpt><trkpt lat="44.825198365038844" lon="8.153240481286758"><ele>126.0</ele><time>2026-04-11T11:28:21Z</time></trkpt><trkpt lat="44.825146203580296" lon="8.153160581589383"><ele>126.0</ele><time>2026-04-11T11:28:22Z</time></trkpt><trkpt lat="44.824998651234154" lon="8.153159500277537"><ele>126.0</ele><time>2026-04-11T11:28:24Z</time></trkpt><trkpt lat="44.824956775580254" lon="8.15309105747295"><ele>126.16666666666667</ele><time>2026-04-11T11:28:26Z</time></trkpt><trkpt lat="44.824900193898515" lon="8.152997373531099"><ele>126.33333333333334</ele><time>2026-04-11T11:28:28Z</time></trkpt><trkpt lat="44.82484453935123" lon="8.152904531950028"><ele>126.5</ele><time>2026-04-11T11:28:30Z</time></trkpt><trkpt lat="44.824782428339404" lon="8.152800919905667"><ele>126.66666666666667</ele><time>2026-04-11T11:28:32Z</time></trkpt><trkpt lat="44.824733589166634" lon="8.152719978877526"><ele>126.83333333333334</ele><time>2026-04-11T11:28:33Z</time></trkpt><trkpt lat="44.82468716677714" lon="8.152643504307022"><ele>127.0</ele><time>2026-04-11T11:28:34Z</time></trkpt><trkpt lat="44.82462058016871" lon="8.152533812260353"><ele>127.0</ele><time>2026-04-11T11:28:35.999Z</time></trkpt><trkpt lat="44.824549208081315" lon="8.152416236939468"><ele>126.99999999999999</ele><time>2026-04-11T11:28:37.999Z</time></trkpt><trkpt lat="44.8244824909914" lon="8.15230632977635"><ele>126.99999999999999</ele><time>2026-04-11T11:28:39.999Z</time></trkpt><trkpt lat="44.8244158546003" lon="8.15219655570845"><ele>127.0</ele><time>2026-04-11T11:28:41.999Z</time></trkpt><trkpt lat="44.82434715153195" lon="8.152083376941073"><ele>127.0</ele><time>2026-04-11T11:28:43.999Z</time></trkpt><trkpt lat="44.82427941876176" lon="8.15197179671626"><ele>127.0</ele><time>2026-04-11T11:28:45.999Z</time></trkpt><trkpt lat="44.82421169071607" lon="8.151860224439933"><ele>126.99999999999999</ele><time>2026-04-11T11:28:47.999Z</time></trkpt><trkpt lat="44.82414711537973" lon="8.151753905169517"><ele>126.99999999999999</ele><time>2026-04-11T11:28:49.999Z</time></trkpt><trkpt lat="44.824149472564265" lon="8.151570231258585"><ele>127.0</ele><time>2026-04-11T11:28:51.999Z</time></trkpt><trkpt lat="44.82408602983365" lon="8.151466566421842"><ele>127.0</ele><time>2026-04-11T11:28:53.999Z</time></trkpt><trkpt lat="44.82398669820266" lon="8.151490024598848"><ele>127.0</ele><time>2026-04-11T11:28:54.999Z</time></trkpt><trkpt lat="44.82392470794778" lon="8.15138805269418"><ele>126.99999999999999</ele><time>2026-04-11T11:28:56.999Z</time></trkpt><trkpt lat="44.82386023604788" lon="8.15128199864338"><ele>126.99999999999999</ele><time>2026-04-11T11:28:58.999Z</time></trkpt><trkpt lat="44.823796612758805" lon="8.15117734074948"><ele>127.0</ele><time>2026-04-11T11:29:00.999Z</time></trkpt><trkpt lat="44.82373120356542" lon="8.151069744979614"><ele>127.0</ele><time>2026-04-11T11:29:02.999Z</time></trkpt><trkpt lat="44.82366576060446" lon="8.150962093573005"><ele>127.0</ele><time>2026-04-11T11:29:04.999Z</time></trkpt><trkpt lat="44.823601533758094" lon="8.150856442771703"><ele>126.99999999999999</ele><time>2026-04-11T11:29:06.999Z</time></trkpt><trkpt lat="44.82353898501046" lon="8.15075355222726"><ele>126.99999999999999</ele><time>2026-04-11T11:29:08.999Z</time></trkpt><trkpt lat="44.82347440375198" lon="8.150647318332915"><ele>127.0</ele><time>2026-04-11T11:29:10.999Z</time></trkpt><trkpt lat="44.823412407372174" lon="8.150545336534956"><ele>127.0</ele><time>2026-04-11T11:29:12.999Z</time></trkpt><trkpt lat="44.823348261097685" lon="8.150439818231058"><ele>126.8</ele><time>2026-04-11T11:29:14.999Z</time></trkpt><trkpt lat="44.823285653569805" lon="8.150336843287599"><ele>126.6</ele><time>2026-04-11T11:29:16.999Z</time></trkpt><trkpt lat="44.823214343200135" lon="8.150220118028637"><ele>126.39999999999999</ele><time>2026-04-11T11:29:20Z</time></trkpt><trkpt lat="44.823163470593165" lon="8.150136846539002"><ele>126.19999999999999</ele><time>2026-04-11T11:29:22Z</time></trkpt><trkpt lat="44.82310458454869" lon="8.150040458067902"><ele>126.0</ele><time>2026-04-11T11:29:24Z</time></trkpt><trkpt lat="44.823143813879575" lon="8.149893301462399"><ele>126.16666666666667</ele><time>2026-04-11T11:29:25Z</time></trkpt><trkpt lat="44.82309455799741" lon="8.149821347827336"><ele>126.33333333333334</ele><time>2026-04-11T11:29:27Z</time></trkpt><trkpt lat="44.82305342892927" lon="8.14972079447866"><ele>126.5</ele><time>2026-04-11T11:29:29Z</time></trkpt><trkpt lat="44.82299541569273" lon="8.14963103676163"><ele>126.66666666666667</ele><time>2026-04-11T11:29:31Z</time></trkpt><trkpt lat="44.82293450062126" lon="8.149534826811465"><ele>126.83333333333334</ele><time>2026-04-11T11:29:33Z</time></trkpt><trkpt lat="44.822860912764156" lon="8.149434877933821"><ele>127.0</ele><time>2026-04-11T11:29:35Z</time></trkpt><trkpt lat="44.82279743908445" lon="8.14932762845193"><ele>127.0</ele><time>2026-04-11T11:29:37Z</time></trkpt><trkpt lat="44.82273069548624" lon="8.149223476750397"><ele>126.99999999999999</ele><time>2026-04-11T11:29:39Z</time></trkpt><trkpt lat="44.82267823083046" lon="8.149117865188794"><ele>126.99999999999999</ele><time>2026-04-11T11:29:41Z</time></trkpt><trkpt lat="44.82262593930001" lon="8.149012282143543"><ele>127.0</ele><time>2026-04-11T11:29:43Z</time></trkpt><trkpt lat="44.82257020865377" lon="8.148889013892454"><ele>127.0</ele><time>2026-04-11T11:29:46Z</time></trkpt><trkpt lat="44.82251940151706" lon="8.148776146430954"><ele>127.0</ele><time>2026-04-11T11:29:48Z</time></trkpt><trkpt lat="44.822485127539146" lon="8.148698209610568"><ele>126.99999999999999</ele><time>2026-04-11T11:29:50Z</time></trkpt><trkpt lat="44.822438721430736" lon="8.14853736560053"><ele>126.99999999999999</ele><time>2026-04-11T11:29:52Z</time></trkpt><trkpt lat="44.82238126881727" lon="8.148437223477202"><ele>127.0</ele><time>2026-04-11T11:29:54Z</time></trkpt><trkpt lat="44.82232285526745" lon="8.148345282312539"><ele>127.0</ele><time>2026-04-11T11:29:56Z</time></trkpt><trkpt lat="44.822268878073245" lon="8.148243714582636"><ele>127.50000000000001</ele><time>2026-04-11T11:29:58Z</time></trkpt><trkpt lat="44.822219830364865" lon="8.14814224173893"><ele>128.0</ele><time>2026-04-11T11:30:00Z</time></trkpt><trkpt lat="44.82216168723485" lon="8.148058427088719"><ele>128.5</ele><time>2026-04-11T11:30:02Z</time></trkpt><trkpt lat="44.82209944267174" lon="8.147965693947382"><ele>129.0</ele><time>2026-04-11T11:30:04Z</time></trkpt><trkpt lat="44.822034550984604" lon="8.147870599504763"><ele>129.5</ele><time>2026-04-11T11:30:06Z</time></trkpt><trkpt lat="44.82197375690427" lon="8.147785749544864"><ele>130.0</ele><time>2026-04-11T11:30:08Z</time></trkpt><trkpt lat="44.82189350955376" lon="8.147743073634238"><ele>129.5</ele><time>2026-04-11T11:30:10Z</time></trkpt><trkpt lat="44.821769896745174" lon="8.147737810619581"><ele>129.0</ele><time>2026-04-11T11:30:12Z</time></trkpt><trkpt lat="44.82168184781957" lon="8.147762969902661"><ele>128.5</ele><time>2026-04-11T11:30:14Z</time></trkpt><trkpt lat="44.8216100874402" lon="8.14776223709783"><ele>128.0</ele><time>2026-04-11T11:30:16Z</time></trkpt><trkpt lat="44.821540283688414" lon="8.147770951810461"><ele>127.50000000000001</ele><time>2026-04-11T11:30:18Z</time></trkpt><trkpt lat="44.82146487332864" lon="8.147798972520224"><ele>127.0</ele><time>2026-04-11T11:30:21Z</time></trkpt><trkpt lat="44.82140716253331" lon="8.14791634349459"><ele>127.00000000000001</ele><time>2026-04-11T11:30:23Z</time></trkpt><trkpt lat="44.82136094840407" lon="8.147992643431543"><ele>127.0</ele><time>2026-04-11T11:30:24Z</time></trkpt><trkpt lat="44.8212777268161" lon="8.148003829820604"><ele>127.0</ele><time>2026-04-11T11:30:26Z</time></trkpt><trkpt lat="44.821188876617384" lon="8.147988738307054"><ele>127.0</ele><time>2026-04-11T11:30:28Z</time></trkpt><trkpt lat="44.821105785261125" lon="8.147990937592445"><ele>127.00000000000001</ele><time>2026-04-11T11:30:29.999Z</time></trkpt><trkpt lat="44.82102246497714" lon="8.148008038201949"><ele>127.0</ele><time>2026-04-11T11:30:31.999Z</time></trkpt><trkpt lat="44.82093868652099" lon="8.148013083836782"><ele>127.00000000000001</ele><time>2026-04-11T11:30:33.999Z</time></trkpt><trkpt lat="44.82086405502063" lon="8.148029031912937"><ele>127.0</ele><time>2026-04-11T11:30:35.999Z</time></trkpt><trkpt lat="44.820789095815016" lon="8.14804937580363"><ele>127.0</ele><time>2026-04-11T11:30:37.999Z</time></trkpt><trkpt lat="44.82070661130547" lon="8.148063145767152"><ele>127.0</ele><time>2026-04-11T11:30:39.999Z</time></trkpt><trkpt lat="44.82062360862198" lon="8.14807411131953"><ele>127.00000000000001</ele><time>2026-04-11T11:30:41.999Z</time></trkpt><trkpt lat="44.82054543279228" lon="8.148078542483262"><ele>127.0</ele><time>2026-04-11T11:30:43.999Z</time></trkpt><trkpt lat="44.82047471788587" lon="8.14808184452388"><ele>127.00000000000001</ele><time>2026-04-11T11:30:45.999Z</time></trkpt><trkpt lat="44.820398556453576" lon="8.148099175605848"><ele>127.0</ele><time>2026-04-11T11:30:47.999Z</time></trkpt><trkpt lat="44.82032505360817" lon="8.148112530381221"><ele>127.0</ele><time>2026-04-11T11:30:49.999Z</time></trkpt><trkpt lat="44.82024960035103" lon="8.148126400621083"><ele>127.0</ele><time>2026-04-11T11:30:51.999Z</time></trkpt><trkpt lat="44.82017394655957" lon="8.148140513536442"><ele>127.00000000000001</ele><time>2026-04-11T11:30:53.999Z</time></trkpt><trkpt lat="44.82008536097791" lon="8.148152952976988"><ele>127.0</ele><time>2026-04-11T11:30:55.999Z</time></trkpt><trkpt lat="44.81999801806204" lon="8.148165884552308"><ele>127.16666666666667</ele><time>2026-04-11T11:30:57.999Z</time></trkpt><trkpt lat="44.81991042380965" lon="8.148165055570729"><ele>127.33333333333334</ele><time>2026-04-11T11:30:59.999Z</time></trkpt><trkpt lat="44.81981937671422" lon="8.148173372979253"><ele>127.5</ele><time>2026-04-11T11:31:01.999Z</time></trkpt><trkpt lat="44.81973947518039" lon="8.148195846764711"><ele>127.66666666666666</ele><time>2026-04-11T11:31:03.999Z</time></trkpt><trkpt lat="44.81965952461685" lon="8.148219653744109"><ele>127.83333333333333</ele><time>2026-04-11T11:31:06.999Z</time></trkpt><trkpt lat="44.81957300915055" lon="8.148237033966113"><ele>128.0</ele><time>2026-04-11T11:31:09.999Z</time></trkpt><trkpt lat="44.81950566409409" lon="8.14825446638325"><ele>127.99999999999999</ele><time>2026-04-11T11:31:11.999Z</time></trkpt><trkpt lat="44.81943479209698" lon="8.1482709064862"><ele>128.0</ele><time>2026-04-11T11:31:13.999Z</time></trkpt><trkpt lat="44.819363609746794" lon="8.148284006965852"><ele>128.0</ele><time>2026-04-11T11:31:15.999Z</time></trkpt><trkpt lat="44.819288279262565" lon="8.148302373105292"><ele>128.0</ele><time>2026-04-11T11:31:17.999Z</time></trkpt><trkpt lat="44.81921192967221" lon="8.14831564926992"><ele>127.99999999999999</ele><time>2026-04-11T11:31:19.999Z</time></trkpt><trkpt lat="44.81910356222457" lon="8.148338399622167"><ele>128.0</ele><time>2026-04-11T11:31:21.999Z</time></trkpt><trkpt lat="44.81903615324518" lon="8.14834523041626"><ele>128.4</ele><time>2026-04-11T11:31:22.999Z</time></trkpt><trkpt lat="44.81890999040215" lon="8.148391952107689"><ele>128.8</ele><time>2026-04-11T11:31:25Z</time></trkpt><trkpt lat="44.81883160046091" lon="8.148378574869461"><ele>129.2</ele><time>2026-04-11T11:31:27Z</time></trkpt><trkpt lat="44.81872473536672" lon="8.148368964762996"><ele>129.6</ele><time>2026-04-11T11:31:29Z</time></trkpt><trkpt lat="44.81861951848651" lon="8.148337216135078"><ele>130.0</ele><time>2026-04-11T11:31:31Z</time></trkpt><trkpt lat="44.81851797585522" lon="8.148288259565218"><ele>129.6</ele><time>2026-04-11T11:31:33Z</time></trkpt><trkpt lat="44.81844977678905" lon="8.148220854854868"><ele>129.2</ele><time>2026-04-11T11:31:35Z</time></trkpt><trkpt lat="44.81840082829205" lon="8.148130847666746"><ele>128.8</ele><time>2026-04-11T11:31:38Z</time></trkpt><trkpt lat="44.81832038963709" lon="8.147985291797294"><ele>128.4</ele><time>2026-04-11T11:31:40Z</time></trkpt><trkpt lat="44.81826321534132" lon="8.14788661601481"><ele>128.0</ele><time>2026-04-11T11:31:42Z</time></trkpt><trkpt lat="44.81821023953883" lon="8.147792318079048"><ele>127.83333333333333</ele><time>2026-04-11T11:31:44Z</time></trkpt><trkpt lat="44.81815834457904" lon="8.147690774722488"><ele>127.66666666666666</ele><time>2026-04-11T11:31:46Z</time></trkpt><trkpt lat="44.81810221209578" lon="8.147589195851836"><ele>127.5</ele><time>2026-04-11T11:31:48Z</time></trkpt><trkpt lat="44.818054943506134" lon="8.14749261346885"><ele>127.33333333333334</ele><time>2026-04-11T11:31:50Z</time></trkpt><trkpt lat="44.818006392049455" lon="8.147398518760946"><ele>127.16666666666667</ele><time>2026-04-11T11:31:52Z</time></trkpt><trkpt lat="44.81795512438897" lon="8.147302611612046"><ele>127.0</ele><time>2026-04-11T11:31:54Z</time></trkpt><trkpt lat="44.817906053710814" lon="8.147212095367607"><ele>127.33333333333334</ele><time>2026-04-11T11:31:56Z</time></trkpt><trkpt lat="44.81785889999821" lon="8.147116371519589"><ele>127.66666666666667</ele><time>2026-04-11T11:31:58Z</time></trkpt><trkpt lat="44.81780815779345" lon="8.147020954737192"><ele>128.0</ele><time>2026-04-11T11:32:00Z</time></trkpt><trkpt lat="44.8177548174457" lon="8.146920305256026"><ele>128.33333333333334</ele><time>2026-04-11T11:32:02Z</time></trkpt><trkpt lat="44.81770504727301" lon="8.146822111954906"><ele>128.66666666666666</ele><time>2026-04-11T11:32:04Z</time></trkpt><trkpt lat="44.81765832163728" lon="8.14672825014148"><ele>129.0</ele><time>2026-04-11T11:32:06Z</time></trkpt><trkpt lat="44.81761285266837" lon="8.146640218709528"><ele>129.0</ele><time>2026-04-11T11:32:08Z</time></trkpt><trkpt lat="44.8175642306178" lon="8.146546174831958"><ele>129.0</ele><time>2026-04-11T11:32:10Z</time></trkpt><trkpt lat="44.817518337914926" lon="8.146455456320611"><ele>129.0</ele><time>2026-04-11T11:32:12Z</time></trkpt><trkpt lat="44.81746793531426" lon="8.14636919864344"><ele>129.0</ele><time>2026-04-11T11:32:14Z</time></trkpt><trkpt lat="44.817419251278864" lon="8.14627476613533"><ele>129.0</ele><time>2026-04-11T11:32:16Z</time></trkpt><trkpt lat="44.817374812997414" lon="8.14618331383891"><ele>129.0</ele><time>2026-04-11T11:32:18Z</time></trkpt><trkpt lat="44.817326237430706" lon="8.146089010467774"><ele>129.0</ele><time>2026-04-11T11:32:20Z</time></trkpt><trkpt lat="44.81727894338933" lon="8.145996346106559"><ele>129.0</ele><time>2026-04-11T11:32:22Z</time></trkpt><trkpt lat="44.81723303809453" lon="8.145908005292046"><ele>129.0</ele><time>2026-04-11T11:32:24Z</time></trkpt><trkpt lat="44.81718633754117" lon="8.145823272098765"><ele>129.0</ele><time>2026-04-11T11:32:26Z</time></trkpt><trkpt lat="44.817143046162755" lon="8.145726813566293"><ele>129.0</ele><time>2026-04-11T11:32:28Z</time></trkpt><trkpt lat="44.81709630994225" lon="8.145643560631125"><ele>129.0</ele><time>2026-04-11T11:32:30Z</time></trkpt><trkpt lat="44.81705054568547" lon="8.145554907448265"><ele>128.83333333333334</ele><time>2026-04-11T11:32:32Z</time></trkpt><trkpt lat="44.81700424165636" lon="8.145462056561742"><ele>128.66666666666666</ele><time>2026-04-11T11:32:33.999Z</time></trkpt><trkpt lat="44.816949582570196" lon="8.145367853983526"><ele>128.5</ele><time>2026-04-11T11:32:35.999Z</time></trkpt><trkpt lat="44.816906501270644" lon="8.145281478596276"><ele>128.33333333333331</ele><time>2026-04-11T11:32:37.999Z</time></trkpt><trkpt lat="44.81685558496308" lon="8.145188981948653"><ele>128.16666666666666</ele><time>2026-04-11T11:32:39.999Z</time></trkpt><trkpt lat="44.81681037175145" lon="8.145091646440058"><ele>128.0</ele><time>2026-04-11T11:32:41.999Z</time></trkpt><trkpt lat="44.81675707593297" lon="8.144999785028002"><ele>127.99999999999999</ele><time>2026-04-11T11:32:43.999Z</time></trkpt><trkpt lat="44.816709643758976" lon="8.144901506240807"><ele>128.0</ele><time>2026-04-11T11:32:45.999Z</time></trkpt><trkpt lat="44.81665574551615" lon="8.14480183848931"><ele>128.0</ele><time>2026-04-11T11:32:47.999Z</time></trkpt><trkpt lat="44.816606001382596" lon="8.144703350905624"><ele>128.0</ele><time>2026-04-11T11:32:49.999Z</time></trkpt><trkpt lat="44.81654965861918" lon="8.144601953986735"><ele>127.99999999999999</ele><time>2026-04-11T11:32:51.999Z</time></trkpt><trkpt lat="44.81650289256402" lon="8.14450156071815"><ele>128.0</ele><time>2026-04-11T11:32:53.999Z</time></trkpt><trkpt lat="44.81646347062598" lon="8.144385284281983"><ele>128.16666666666666</ele><time>2026-04-11T11:32:55.999Z</time></trkpt><trkpt lat="44.816427716048125" lon="8.144263615580797"><ele>128.33333333333331</ele><time>2026-04-11T11:32:57.999Z</time></trkpt><trkpt lat="44.81640758302796" lon="8.144144517549968"><ele>128.5</ele><time>2026-04-11T11:32:59.999Z</time></trkpt><trkpt lat="44.81638996429531" lon="8.144046987317566"><ele>128.66666666666666</ele><time>2026-04-11T11:33:02.999Z</time></trkpt><trkpt lat="44.81636289556387" lon="8.143949935193652"><ele>128.83333333333334</ele><time>2026-04-11T11:33:03.999Z</time></trkpt><trkpt lat="44.81635093951147" lon="8.14382362193279"><ele>129.0</ele><time>2026-04-11T11:33:05.999Z</time></trkpt><trkpt lat="44.816319452322915" lon="8.143616650671111"><ele>129.0</ele><time>2026-04-11T11:33:08.999Z</time></trkpt><trkpt lat="44.81631702888366" lon="8.14349126476818"><ele>129.0</ele><time>2026-04-11T11:33:10.999Z</time></trkpt><trkpt lat="44.816331046259556" lon="8.14336315156191"><ele>129.0</ele><time>2026-04-11T11:33:12.999Z</time></trkpt><trkpt lat="44.816365317583895" lon="8.143245423098845"><ele>129.0</ele><time>2026-04-11T11:33:14.999Z</time></trkpt><trkpt lat="44.81640005536997" lon="8.143143610156514"><ele>129.0</ele><time>2026-04-11T11:33:16.999Z</time></trkpt><trkpt lat="44.81644064157529" lon="8.14303500048872"><ele>129.0</ele><time>2026-04-11T11:33:18.999Z</time></trkpt><trkpt lat="44.81648309334616" lon="8.142928974131063"><ele>128.83333333333334</ele><time>2026-04-11T11:33:20.999Z</time></trkpt><trkpt lat="44.816529757828334" lon="8.142828460159445"><ele>128.66666666666666</ele><time>2026-04-11T11:33:22.999Z</time></trkpt><trkpt lat="44.816573883652474" lon="8.142729264455525"><ele>128.5</ele><time>2026-04-11T11:33:24.999Z</time></trkpt><trkpt lat="44.816619923878136" lon="8.142629566670086"><ele>128.33333333333331</ele><time>2026-04-11T11:33:26.999Z</time></trkpt><trkpt lat="44.816653161525174" lon="8.14254137363955"><ele>128.16666666666666</ele><time>2026-04-11T11:33:29.999Z</time></trkpt><trkpt lat="44.8166907898538" lon="8.142451933793508"><ele>128.0</ele><time>2026-04-11T11:33:32Z</time></trkpt><trkpt lat="44.81674717357774" lon="8.142319163851669"><ele>127.99999999999999</ele><time>2026-04-11T11:33:35Z</time></trkpt><trkpt lat="44.81679579664864" lon="8.142178662168549"><ele>128.0</ele><time>2026-04-11T11:33:38Z</time></trkpt><trkpt lat="44.81684358877869" lon="8.142097904260405"><ele>128.0</ele><time>2026-04-11T11:33:53Z</time></trkpt><trkpt lat="44.816880810317386" lon="8.142008900076393"><ele>128.0</ele><time>2026-04-11T11:33:58Z</time></trkpt><trkpt lat="44.81691819056372" lon="8.141911387271039"><ele>127.99999999999999</ele><time>2026-04-11T11:34:01Z</time></trkpt><trkpt lat="44.816956898778216" lon="8.141826042436982"><ele>128.0</ele><time>2026-04-11T11:34:03Z</time></trkpt><trkpt lat="44.81699642866258" lon="8.141746451223572"><ele>127.99999999999999</ele><time>2026-04-11T11:34:06Z</time></trkpt><trkpt lat="44.81702729243175" lon="8.141650422616316"><ele>128.0</ele><time>2026-04-11T11:34:08Z</time></trkpt><trkpt lat="44.817084766751144" lon="8.141603932749174"><ele>128.0</ele><time>2026-04-11T11:34:09Z</time></trkpt><trkpt lat="44.81714101696245" lon="8.14155671684722"><ele>128.0</ele><time>2026-04-11T11:34:10Z</time></trkpt><trkpt lat="44.817179712286695" lon="8.141384614510713"><ele>127.99999999999999</ele><time>2026-04-11T11:34:11Z</time></trkpt><trkpt lat="44.817116410773856" lon="8.141364013715275"><ele>128.0</ele><time>2026-04-11T11:34:12Z</time></trkpt><trkpt lat="44.817063878325165" lon="8.141272837748911"><ele>127.99999999999999</ele><time>2026-04-11T11:34:15Z</time></trkpt><trkpt lat="44.817024838908836" lon="8.14118558426008"><ele>128.0</ele><time>2026-04-11T11:34:17Z</time></trkpt><trkpt lat="44.8169913257603" lon="8.141098063444074"><ele>128.0</ele><time>2026-04-11T11:34:19Z</time></trkpt><trkpt lat="44.81695322415916" lon="8.140997723704992"><ele>128.0</ele><time>2026-04-11T11:34:21Z</time></trkpt><trkpt lat="44.81692291983281" lon="8.140893762124195"><ele>127.99999999999999</ele><time>2026-04-11T11:34:23Z</time></trkpt><trkpt lat="44.81689543046248" lon="8.140798470295053"><ele>128.0</ele><time>2026-04-11T11:34:25Z</time></trkpt><trkpt lat="44.81686290223602" lon="8.14069533615318"><ele>128.16666666666666</ele><time>2026-04-11T11:34:27Z</time></trkpt><trkpt lat="44.81682957398584" lon="8.140583675228628"><ele>128.33333333333331</ele><time>2026-04-11T11:34:29Z</time></trkpt><trkpt lat="44.81679058814817" lon="8.140474393255486"><ele>128.5</ele><time>2026-04-11T11:34:31Z</time></trkpt><trkpt lat="44.81675950036249" lon="8.140362904690566"><ele>128.66666666666666</ele><time>2026-04-11T11:34:33Z</time></trkpt><trkpt lat="44.81672559072667" lon="8.140250177370525"><ele>128.83333333333334</ele><time>2026-04-11T11:34:35Z</time></trkpt><trkpt lat="44.81669377891873" lon="8.140153413414875"><ele>129.0</ele><time>2026-04-11T11:34:37Z</time></trkpt><trkpt lat="44.816667304409314" lon="8.140064420444492"><ele>129.0</ele><time>2026-04-11T11:34:39Z</time></trkpt><trkpt lat="44.81662868238093" lon="8.139950417909107"><ele>129.0</ele><time>2026-04-11T11:34:41Z</time></trkpt><trkpt lat="44.81658246037888" lon="8.13982949537425"><ele>129.0</ele><time>2026-04-11T11:34:43Z</time></trkpt><trkpt lat="44.816539243681866" lon="8.139611013227514"><ele>129.0</ele><time>2026-04-11T11:34:45.999Z</time></trkpt><trkpt lat="44.8165001776014" lon="8.13949661308026"><ele>129.0</ele><time>2026-04-11T11:34:47.999Z</time></trkpt><trkpt lat="44.81646291226622" lon="8.139384462525518"><ele>129.0</ele><time>2026-04-11T11:34:49.999Z</time></trkpt><trkpt lat="44.81642800728134" lon="8.139272026972822"><ele>129.0</ele><time>2026-04-11T11:34:51.999Z</time></trkpt><trkpt lat="44.81639087828135" lon="8.139155393614853"><ele>129.0</ele><time>2026-04-11T11:34:53.999Z</time></trkpt><trkpt lat="44.81636242643947" lon="8.139037665957854"><ele>129.0</ele><time>2026-04-11T11:34:55.999Z</time></trkpt><trkpt lat="44.81632309365914" lon="8.13893612705306"><ele>129.0</ele><time>2026-04-11T11:34:57.999Z</time></trkpt><trkpt lat="44.81629360306364" lon="8.138842268316544"><ele>129.0</ele><time>2026-04-11T11:34:59.999Z</time></trkpt><trkpt lat="44.81625666855959" lon="8.138751580252638"><ele>129.0</ele><time>2026-04-11T11:35:01.999Z</time></trkpt><trkpt lat="44.8162002323703" lon="8.138674648332705"><ele>129.0</ele><time>2026-04-11T11:35:04.999Z</time></trkpt><trkpt lat="44.81615689103914" lon="8.138601186242719"><ele>129.0</ele><time>2026-04-11T11:35:06.999Z</time></trkpt><trkpt lat="44.81609462413132" lon="8.138553161897313"><ele>129.0</ele><time>2026-04-11T11:35:08.999Z</time></trkpt><trkpt lat="44.816013734259485" lon="8.13853289424638"><ele>129.0</ele><time>2026-04-11T11:35:10.999Z</time></trkpt><trkpt lat="44.81592945382162" lon="8.13852484229625"><ele>129.0</ele><time>2026-04-11T11:35:12.999Z</time></trkpt><trkpt lat="44.81584678316115" lon="8.138533734586783"><ele>129.0</ele><time>2026-04-11T11:35:14.999Z</time></trkpt><trkpt lat="44.81576863943423" lon="8.13855687047496"><ele>129.0</ele><time>2026-04-11T11:35:16.999Z</time></trkpt><trkpt lat="44.815676771915165" lon="8.138537259524119"><ele>129.0</ele><time>2026-04-11T11:35:18.999Z</time></trkpt><trkpt lat="44.81559510026117" lon="8.138547908387574"><ele>129.0</ele><time>2026-04-11T11:35:20.999Z</time></trkpt><trkpt lat="44.815506016932375" lon="8.138543476349085"><ele>129.0</ele><time>2026-04-11T11:35:22.999Z</time></trkpt><trkpt lat="44.815400846838074" lon="8.138588404743627"><ele>129.0</ele><time>2026-04-11T11:35:24.999Z</time></trkpt><trkpt lat="44.815327852436084" lon="8.138562586533679"><ele>129.0</ele><time>2026-04-11T11:35:26.999Z</time></trkpt><trkpt lat="44.81525481860754" lon="8.138567854442574"><ele>129.0</ele><time>2026-04-11T11:35:28.999Z</time></trkpt><trkpt lat="44.8151722493703" lon="8.138569289632125"><ele>129.0</ele><time>2026-04-11T11:35:30.999Z</time></trkpt><trkpt lat="44.81508858366743" lon="8.138577837311733"><ele>129.0</ele><time>2026-04-11T11:35:32.999Z</time></trkpt><trkpt lat="44.81499585425466" lon="8.138558911283122"><ele>129.0</ele><time>2026-04-11T11:35:34.999Z</time></trkpt><trkpt lat="44.814907444176725" lon="8.138542412924732"><ele>129.0</ele><time>2026-04-11T11:35:37Z</time></trkpt><trkpt lat="44.8148255290221" lon="8.138502922697105"><ele>129.0</ele><time>2026-04-11T11:35:39Z</time></trkpt><trkpt lat="44.814753647008786" lon="8.138453869650355"><ele>129.0</ele><time>2026-04-11T11:35:43Z</time></trkpt><trkpt lat="44.8146621628153" lon="8.138384348034057"><ele>129.0</ele><time>2026-04-11T11:35:45Z</time></trkpt><trkpt lat="44.814593152110014" lon="8.138317406876222"><ele>129.0</ele><time>2026-04-11T11:35:46Z</time></trkpt><trkpt lat="44.814533726288104" lon="8.138276959623758"><ele>129.0</ele><time>2026-04-11T11:35:47Z</time></trkpt><trkpt lat="44.81445620694716" lon="8.138222175663538"><ele>129.0</ele><time>2026-04-11T11:35:49Z</time></trkpt><trkpt lat="44.814402859271446" lon="8.138174505666159"><ele>129.0</ele><time>2026-04-11T11:35:51Z</time></trkpt><trkpt lat="44.81432935196859" lon="8.138099825529832"><ele>129.0</ele><time>2026-04-11T11:35:53Z</time></trkpt><trkpt lat="44.81426282591718" lon="8.138050169842739"><ele>129.0</ele><time>2026-04-11T11:35:55Z</time></trkpt><trkpt lat="44.8141986478153" lon="8.13799831083387"><ele>129.0</ele><time>2026-04-11T11:35:56Z</time></trkpt><trkpt lat="44.814114435664656" lon="8.137918479311189"><ele>129.0</ele><time>2026-04-11T11:35:58Z</time></trkpt><trkpt lat="44.814039164423065" lon="8.137853021265986"><ele>129.2</ele><time>2026-04-11T11:36:00Z</time></trkpt><trkpt lat="44.813958243502825" lon="8.137784409115676"><ele>129.4</ele><time>2026-04-11T11:36:02Z</time></trkpt><trkpt lat="44.81388511681506" lon="8.137712106328747"><ele>129.6</ele><time>2026-04-11T11:36:04Z</time></trkpt><trkpt lat="44.81381664431267" lon="8.137638432201971"><ele>129.8</ele><time>2026-04-11T11:36:06Z</time></trkpt><trkpt lat="44.81373188213391" lon="8.137575075985708"><ele>130.0</ele><time>2026-04-11T11:36:08Z</time></trkpt><trkpt lat="44.81365505954456" lon="8.13749416532887"><ele>130.0</ele><time>2026-04-11T11:36:10Z</time></trkpt><trkpt lat="44.81358370002615" lon="8.137435697917947"><ele>130.0</ele><time>2026-04-11T11:36:12Z</time></trkpt><trkpt lat="44.81351316941439" lon="8.13736695645704"><ele>130.0</ele><time>2026-04-11T11:36:14Z</time></trkpt><trkpt lat="44.81344086339164" lon="8.137304745454687"><ele>130.0</ele><time>2026-04-11T11:36:16Z</time></trkpt><trkpt lat="44.81337010477476" lon="8.13723123718898"><ele>130.0</ele><time>2026-04-11T11:36:18Z</time></trkpt><trkpt lat="44.813299317219176" lon="8.137159920794126"><ele>130.0</ele><time>2026-04-11T11:36:20Z</time></trkpt><trkpt lat="44.813227727810414" lon="8.13709350656263"><ele>130.16666666666669</ele><time>2026-04-11T11:36:22Z</time></trkpt><trkpt lat="44.81315521837796" lon="8.13703198112355"><ele>130.33333333333334</ele><time>2026-04-11T11:36:24Z</time></trkpt><trkpt lat="44.813085554198096" lon="8.136971835700825"><ele>130.5</ele><time>2026-04-11T11:36:26Z</time></trkpt><trkpt lat="44.81300693523863" lon="8.136902589366423"><ele>130.66666666666666</ele><time>2026-04-11T11:36:28Z</time></trkpt><trkpt lat="44.81292618622953" lon="8.136836144015243"><ele>130.83333333333331</ele><time>2026-04-11T11:36:30Z</time></trkpt><trkpt lat="44.81285315245066" lon="8.136780992300046"><ele>131.0</ele><time>2026-04-11T11:36:32Z</time></trkpt><trkpt lat="44.81277991726237" lon="8.136721352413613"><ele>131.0</ele><time>2026-04-11T11:36:34Z</time></trkpt><trkpt lat="44.81271041440873" lon="8.136655035337718"><ele>131.0</ele><time>2026-04-11T11:36:36Z</time></trkpt><trkpt lat="44.812634184801496" lon="8.13659481089766"><ele>131.0</ele><time>2026-04-11T11:36:38Z</time></trkpt><trkpt lat="44.812557686555216" lon="8.136545664241755"><ele>131.0</ele><time>2026-04-11T11:36:40Z</time></trkpt><trkpt lat="44.812482945729016" lon="8.136482302422296"><ele>131.0</ele><time>2026-04-11T11:36:42Z</time></trkpt><trkpt lat="44.81240445212948" lon="8.136417008689387"><ele>131.0</ele><time>2026-04-11T11:36:44Z</time></trkpt><trkpt lat="44.81233830036259" lon="8.136370074013456"><ele>130.83333333333331</ele><time>2026-04-11T11:36:46Z</time></trkpt><trkpt lat="44.812264112291274" lon="8.136292799213976"><ele>130.66666666666666</ele><time>2026-04-11T11:36:48Z</time></trkpt><trkpt lat="44.81219810046382" lon="8.136247505837696"><ele>130.5</ele><time>2026-04-11T11:36:50Z</time></trkpt><trkpt lat="44.812122930750284" lon="8.136184411986155"><ele>130.33333333333334</ele><time>2026-04-11T11:36:52Z</time></trkpt><trkpt lat="44.81204911337958" lon="8.136135355861207"><ele>130.16666666666669</ele><time>2026-04-11T11:36:54Z</time></trkpt><trkpt lat="44.81197802881754" lon="8.136077403095744"><ele>130.0</ele><time>2026-04-11T11:36:55.999Z</time></trkpt><trkpt lat="44.8119094598259" lon="8.136021119053513"><ele>130.0</ele><time>2026-04-11T11:36:57.999Z</time></trkpt><trkpt lat="44.811835914660925" lon="8.135962599351485"><ele>130.0</ele><time>2026-04-11T11:36:59.999Z</time></trkpt><trkpt lat="44.811768172981125" lon="8.13592105943527"><ele>130.0</ele><time>2026-04-11T11:37:01.999Z</time></trkpt><trkpt lat="44.811712894649844" lon="8.135871229612972"><ele>130.0</ele><time>2026-04-11T11:37:04.999Z</time></trkpt><trkpt lat="44.811635086167804" lon="8.13585517738494"><ele>130.0</ele><time>2026-04-11T11:37:06.999Z</time></trkpt><trkpt lat="44.81158334632823" lon="8.1357915962976"><ele>130.0</ele><time>2026-04-11T11:37:07.999Z</time></trkpt><trkpt lat="44.81150436989173" lon="8.135735384054422"><ele>130.0</ele><time>2026-04-11T11:37:09.999Z</time></trkpt><trkpt lat="44.811428714548185" lon="8.13567095519714"><ele>130.0</ele><time>2026-04-11T11:37:11.999Z</time></trkpt><trkpt lat="44.811357800002014" lon="8.135627655811541"><ele>130.0</ele><time>2026-04-11T11:37:13.999Z</time></trkpt><trkpt lat="44.811279750863214" lon="8.135578517796153"><ele>130.0</ele><time>2026-04-11T11:37:15.999Z</time></trkpt><trkpt lat="44.81120642169806" lon="8.135530282303286"><ele>130.0</ele><time>2026-04-11T11:37:17.999Z</time></trkpt><trkpt lat="44.81113113721277" lon="8.135482430745856"><ele>130.0</ele><time>2026-04-11T11:37:19.999Z</time></trkpt><trkpt lat="44.81105908263947" lon="8.135434814551232"><ele>129.83333333333334</ele><time>2026-04-11T11:37:21.999Z</time></trkpt><trkpt lat="44.81098442938125" lon="8.135387966139035"><ele>129.66666666666669</ele><time>2026-04-11T11:37:23.999Z</time></trkpt><trkpt lat="44.81090637122268" lon="8.135336213659748"><ele>129.5</ele><time>2026-04-11T11:37:25.999Z</time></trkpt><trkpt lat="44.810827522763475" lon="8.135279118314434"><ele>129.33333333333334</ele><time>2026-04-11T11:37:27.999Z</time></trkpt><trkpt lat="44.8107562482679" lon="8.135231295352662"><ele>129.16666666666666</ele><time>2026-04-11T11:37:29.999Z</time></trkpt><trkpt lat="44.81067741936276" lon="8.135186223655358"><ele>129.0</ele><time>2026-04-11T11:37:31.999Z</time></trkpt><trkpt lat="44.81059936074183" lon="8.135138104039596"><ele>129.0</ele><time>2026-04-11T11:37:33.999Z</time></trkpt><trkpt lat="44.810521456262194" lon="8.13511500623635"><ele>129.0</ele><time>2026-04-11T11:37:35.999Z</time></trkpt><trkpt lat="44.8104431068179" lon="8.135043618734448"><ele>129.0</ele><time>2026-04-11T11:37:37.999Z</time></trkpt><trkpt lat="44.81037025573939" lon="8.134994181299469"><ele>129.0</ele><time>2026-04-11T11:37:39.999Z</time></trkpt><trkpt lat="44.81029240753076" lon="8.13493985098504"><ele>129.0</ele><time>2026-04-11T11:37:41.999Z</time></trkpt><trkpt lat="44.81021899281282" lon="8.134900596464941"><ele>129.0</ele><time>2026-04-11T11:37:44Z</time></trkpt><trkpt lat="44.8101483489031" lon="8.13486046571174"><ele>129.16666666666666</ele><time>2026-04-11T11:37:46Z</time></trkpt><trkpt lat="44.81007977303848" lon="8.134814645916787"><ele>129.33333333333334</ele><time>2026-04-11T11:37:48Z</time></trkpt><trkpt lat="44.809996751266645" lon="8.134768648108338"><ele>129.5</ele><time>2026-04-11T11:37:50Z</time></trkpt><trkpt lat="44.80993197487953" lon="8.134721323497486"><ele>129.66666666666669</ele><time>2026-04-11T11:37:53Z</time></trkpt><trkpt lat="44.8098653567842" lon="8.13467385713855"><ele>129.83333333333334</ele><time>2026-04-11T11:37:55Z</time></trkpt><trkpt lat="44.809786411555585" lon="8.134625086110953"><ele>130.0</ele><time>2026-04-11T11:37:58Z</time></trkpt><trkpt lat="44.809708492817514" lon="8.134574469419391"><ele>130.0</ele><time>2026-04-11T11:38:01Z</time></trkpt><trkpt lat="44.80962576849456" lon="8.134537823092737"><ele>130.0</ele><time>2026-04-11T11:38:03Z</time></trkpt><trkpt lat="44.80951802873073" lon="8.1344756021766"><ele>130.0</ele><time>2026-04-11T11:38:06Z</time></trkpt><trkpt lat="44.809424338769176" lon="8.134420089400768"><ele>130.0</ele><time>2026-04-11T11:38:09Z</time></trkpt><trkpt lat="44.80922211906448" lon="8.1343128768174"><ele>129.66666666666669</ele><time>2026-04-11T11:38:11Z</time></trkpt><trkpt lat="44.8091459664525" lon="8.134275902211296"><ele>129.33333333333334</ele><time>2026-04-11T11:38:13Z</time></trkpt><trkpt lat="44.809064577510995" lon="8.134244300847053"><ele>129.0</ele><time>2026-04-11T11:38:15Z</time></trkpt><trkpt lat="44.808977051827675" lon="8.13420723508402"><ele>128.66666666666666</ele><time>2026-04-11T11:38:17Z</time></trkpt><trkpt lat="44.80889781955433" lon="8.134169588258084"><ele>128.33333333333331</ele><time>2026-04-11T11:38:19Z</time></trkpt><trkpt lat="44.808819987732605" lon="8.134133210019334"><ele>128.0</ele><time>2026-04-11T11:38:21Z</time></trkpt><trkpt lat="44.80873879642528" lon="8.134101513567199"><ele>127.99999999999999</ele><time>2026-04-11T11:38:23Z</time></trkpt><trkpt lat="44.80866417728341" lon="8.134064761443051"><ele>128.0</ele><time>2026-04-11T11:38:25Z</time></trkpt><trkpt lat="44.808584029809936" lon="8.134022526294576"><ele>128.0</ele><time>2026-04-11T11:38:27Z</time></trkpt><trkpt lat="44.808497814377105" lon="8.133988041359526"><ele>128.0</ele><time>2026-04-11T11:38:29Z</time></trkpt><trkpt lat="44.808412259234146" lon="8.133980088254772"><ele>127.99999999999999</ele><time>2026-04-11T11:38:31Z</time></trkpt><trkpt lat="44.8083310498656" lon="8.133930562619046"><ele>128.0</ele><time>2026-04-11T11:38:33Z</time></trkpt><trkpt lat="44.80826199823226" lon="8.133906445541907"><ele>128.0</ele><time>2026-04-11T11:38:35Z</time></trkpt><trkpt lat="44.80818355351066" lon="8.133868165422212"><ele>127.99999999999999</ele><time>2026-04-11T11:38:37Z</time></trkpt><trkpt lat="44.80810435009859" lon="8.133828267779924"><ele>128.0</ele><time>2026-04-11T11:38:39Z</time></trkpt><trkpt lat="44.808035501063515" lon="8.133791681921647"><ele>128.0</ele><time>2026-04-11T11:38:41Z</time></trkpt><trkpt lat="44.80797133926148" lon="8.133766196854937"><ele>127.99999999999999</ele><time>2026-04-11T11:38:43Z</time></trkpt><trkpt lat="44.80791249360944" lon="8.133728659418898"><ele>128.0</ele><time>2026-04-11T11:38:45Z</time></trkpt><trkpt lat="44.8078414709155" lon="8.133689533440782"><ele>128.0</ele><time>2026-04-11T11:38:48Z</time></trkpt><trkpt lat="44.80775920960587" lon="8.133646176902566"><ele>127.99999999999999</ele><time>2026-04-11T11:38:50Z</time></trkpt><trkpt lat="44.80768766089106" lon="8.133604931135322"><ele>128.0</ele><time>2026-04-11T11:38:51.999Z</time></trkpt><trkpt lat="44.80762020326803" lon="8.133574352812774"><ele>128.0</ele><time>2026-04-11T11:38:53.999Z</time></trkpt><trkpt lat="44.80754703009367" lon="8.13353778765243"><ele>128.0</ele><time>2026-04-11T11:38:55.999Z</time></trkpt><trkpt lat="44.8074664458105" lon="8.133495512338667"><ele>127.99999999999999</ele><time>2026-04-11T11:38:57.999Z</time></trkpt><trkpt lat="44.807394332896735" lon="8.133449269149605"><ele>128.0</ele><time>2026-04-11T11:38:59.999Z</time></trkpt><trkpt lat="44.80732251664135" lon="8.133416545012564"><ele>128.16666666666666</ele><time>2026-04-11T11:39:01.999Z</time></trkpt><trkpt lat="44.807253703663754" lon="8.133375984346568"><ele>128.33333333333331</ele><time>2026-04-11T11:39:03.999Z</time></trkpt><trkpt lat="44.80718020525104" lon="8.133341730281415"><ele>128.5</ele><time>2026-04-11T11:39:05.999Z</time></trkpt><trkpt lat="44.80710443510359" lon="8.133308998550286"><ele>128.66666666666666</ele><time>2026-04-11T11:39:07.999Z</time></trkpt><trkpt lat="44.807020991244784" lon="8.133277169931967"><ele>128.83333333333334</ele><time>2026-04-11T11:39:09.999Z</time></trkpt><trkpt lat="44.8069374892752" lon="8.133239392387043"><ele>129.0</ele><time>2026-04-11T11:39:11.999Z</time></trkpt><trkpt lat="44.80685317769655" lon="8.133191812068732"><ele>129.0</ele><time>2026-04-11T11:39:13.999Z</time></trkpt><trkpt lat="44.806766174901206" lon="8.133158079274875"><ele>129.0</ele><time>2026-04-11T11:39:15.999Z</time></trkpt><trkpt lat="44.80668324907208" lon="8.133115430644663"><ele>129.0</ele><time>2026-04-11T11:39:17.999Z</time></trkpt><trkpt lat="44.806601270527445" lon="8.133083014468639"><ele>129.0</ele><time>2026-04-11T11:39:19.999Z</time></trkpt><trkpt lat="44.806524811681065" lon="8.133039354875864"><ele>129.0</ele><time>2026-04-11T11:39:21.999Z</time></trkpt><trkpt lat="44.806445427608736" lon="8.133010793380878"><ele>129.0</ele><time>2026-04-11T11:39:23.999Z</time></trkpt><trkpt lat="44.80637193881699" lon="8.132972108890076"><ele>129.0</ele><time>2026-04-11T11:39:25.999Z</time></trkpt><trkpt lat="44.806292024200744" lon="8.132933110564302"><ele>129.0</ele><time>2026-04-11T11:39:27.999Z</time></trkpt><trkpt lat="44.80620579093877" lon="8.132894855589893"><ele>129.0</ele><time>2026-04-11T11:39:29.999Z</time></trkpt><trkpt lat="44.80612153811343" lon="8.132852774580972"><ele>129.0</ele><time>2026-04-11T11:39:31.999Z</time></trkpt><trkpt lat="44.80604866878746" lon="8.132819907791388"><ele>129.0</ele><time>2026-04-11T11:39:33.999Z</time></trkpt><trkpt lat="44.80597055935473" lon="8.132782674160945"><ele>129.0</ele><time>2026-04-11T11:39:35.999Z</time></trkpt><trkpt lat="44.80589409387849" lon="8.1327414260519"><ele>129.16666666666666</ele><time>2026-04-11T11:39:37.999Z</time></trkpt><trkpt lat="44.805814909622846" lon="8.132706908622907"><ele>129.33333333333334</ele><time>2026-04-11T11:39:39.999Z</time></trkpt><trkpt lat="44.80573916382798" lon="8.132669322630854"><ele>129.5</ele><time>2026-04-11T11:39:41.999Z</time></trkpt><trkpt lat="44.80566039995956" lon="8.132628570809535"><ele>129.66666666666669</ele><time>2026-04-11T11:39:43.999Z</time></trkpt><trkpt lat="44.805586789689045" lon="8.132591060459966"><ele>129.83333333333334</ele><time>2026-04-11T11:39:45.999Z</time></trkpt><trkpt lat="44.80550885195444" lon="8.132552371134416"><ele>130.0</ele><time>2026-04-11T11:39:47.999Z</time></trkpt><trkpt lat="44.8054211804247" lon="8.132519329333768"><ele>130.0</ele><time>2026-04-11T11:39:50Z</time></trkpt><trkpt lat="44.805340392176035" lon="8.132480322586318"><ele>130.0</ele><time>2026-04-11T11:39:52Z</time></trkpt><trkpt lat="44.80526284841861" lon="8.132443871486267"><ele>130.0</ele><time>2026-04-11T11:39:54Z</time></trkpt><trkpt lat="44.80518603309779" lon="8.132407928902671"><ele>130.0</ele><time>2026-04-11T11:39:58Z</time></trkpt><trkpt lat="44.805098993631844" lon="8.1323574030773"><ele>130.0</ele><time>2026-04-11T11:40:01Z</time></trkpt><trkpt lat="44.80499241538534" lon="8.132311001908251"><ele>129.83333333333334</ele><time>2026-04-11T11:40:03Z</time></trkpt><trkpt lat="44.804898417563095" lon="8.1322606643758"><ele>129.66666666666669</ele><time>2026-04-11T11:40:05Z</time></trkpt><trkpt lat="44.80480944270391" lon="8.132222365997677"><ele>129.5</ele><time>2026-04-11T11:40:07Z</time></trkpt><trkpt lat="44.804728085201006" lon="8.132186302106486"><ele>129.33333333333334</ele><time>2026-04-11T11:40:09Z</time></trkpt><trkpt lat="44.80466282167775" lon="8.13215369751955"><ele>129.16666666666666</ele><time>2026-04-11T11:40:11Z</time></trkpt><trkpt lat="44.80458619989997" lon="8.132128130997222"><ele>129.0</ele><time>2026-04-11T11:40:13Z</time></trkpt><trkpt lat="44.80450975949359" lon="8.132089591759161"><ele>129.0</ele><time>2026-04-11T11:40:15Z</time></trkpt><trkpt lat="44.804429940090905" lon="8.132051921693037"><ele>129.0</ele><time>2026-04-11T11:40:17Z</time></trkpt><trkpt lat="44.80434599760237" lon="8.132015279372242"><ele>129.0</ele><time>2026-04-11T11:40:19Z</time></trkpt><trkpt lat="44.80426685350814" lon="8.131983230148956"><ele>129.0</ele><time>2026-04-11T11:40:21Z</time></trkpt><trkpt lat="44.804188890165314" lon="8.131948462608028"><ele>129.0</ele><time>2026-04-11T11:40:23Z</time></trkpt><trkpt lat="44.80410841999478" lon="8.131909267998976"><ele>129.0</ele><time>2026-04-11T11:40:25Z</time></trkpt><trkpt lat="44.80403065435092" lon="8.131870993608523"><ele>129.0</ele><time>2026-04-11T11:40:27Z</time></trkpt><trkpt lat="44.80394937332337" lon="8.131834086882451"><ele>129.0</ele><time>2026-04-11T11:40:29Z</time></trkpt><trkpt lat="44.80387002321437" lon="8.131803080133187"><ele>129.0</ele><time>2026-04-11T11:40:31Z</time></trkpt><trkpt lat="44.803790608288644" lon="8.131772604237353"><ele>129.0</ele><time>2026-04-11T11:40:33Z</time></trkpt><trkpt lat="44.803710122231884" lon="8.131730342886598"><ele>129.0</ele><time>2026-04-11T11:40:35Z</time></trkpt><trkpt lat="44.8036331626626" lon="8.131701188554059"><ele>129.0</ele><time>2026-04-11T11:40:37Z</time></trkpt><trkpt lat="44.80355099749864" lon="8.13166175582301"><ele>129.0</ele><time>2026-04-11T11:40:39Z</time></trkpt><trkpt lat="44.80347445039931" lon="8.131626364522504"><ele>129.0</ele><time>2026-04-11T11:40:41Z</time></trkpt><trkpt lat="44.80339649580118" lon="8.131601102085442"><ele>129.0</ele><time>2026-04-11T11:40:43Z</time></trkpt><trkpt lat="44.803310146191144" lon="8.131547270588856"><ele>129.0</ele><time>2026-04-11T11:40:45Z</time></trkpt><trkpt lat="44.803226598127964" lon="8.131505945922996"><ele>129.0</ele><time>2026-04-11T11:40:49Z</time></trkpt><trkpt lat="44.803155617897964" lon="8.131471942363548"><ele>129.0</ele><time>2026-04-11T11:40:51Z</time></trkpt><trkpt lat="44.80305828858705" lon="8.131425430712664"><ele>129.0</ele><time>2026-04-11T11:40:54Z</time></trkpt><trkpt lat="44.802990117342894" lon="8.131390743238619"><ele>129.0</ele><time>2026-04-11T11:40:55Z</time></trkpt><trkpt lat="44.80289210096043" lon="8.131346206806317"><ele>129.0</ele><time>2026-04-11T11:40:57Z</time></trkpt><trkpt lat="44.80280512611366" lon="8.131304815411378"><ele>129.0</ele><time>2026-04-11T11:40:58.999Z</time></trkpt><trkpt lat="44.802729226515424" lon="8.131281439380862"><ele>129.0</ele><time>2026-04-11T11:41:00.999Z</time></trkpt><trkpt lat="44.80263668185757" lon="8.131242660066487"><ele>129.0</ele><time>2026-04-11T11:41:02.999Z</time></trkpt><trkpt lat="44.802546949429335" lon="8.131218709467559"><ele>129.16666666666666</ele><time>2026-04-11T11:41:04.999Z</time></trkpt><trkpt lat="44.80246048435553" lon="8.131210430925975"><ele>129.33333333333334</ele><time>2026-04-11T11:41:06.999Z</time></trkpt><trkpt lat="44.80237156793305" lon="8.131184439935943"><ele>129.5</ele><time>2026-04-11T11:41:08.999Z</time></trkpt><trkpt lat="44.80228479048462" lon="8.131169131305318"><ele>129.66666666666669</ele><time>2026-04-11T11:41:10.999Z</time></trkpt><trkpt lat="44.80220005657896" lon="8.13114683828645"><ele>129.83333333333334</ele><time>2026-04-11T11:41:12.999Z</time></trkpt><trkpt lat="44.80211785024445" lon="8.131144509782475"><ele>130.0</ele><time>2026-04-11T11:41:16.999Z</time></trkpt><trkpt lat="44.802013610624506" lon="8.131140911852366"><ele>130.0</ele><time>2026-04-11T11:41:19.999Z</time></trkpt><trkpt lat="44.80192042504551" lon="8.131139021302106"><ele>130.0</ele><time>2026-04-11T11:41:22.999Z</time></trkpt><trkpt lat="44.801832863012955" lon="8.131171925980256"><ele>130.0</ele><time>2026-04-11T11:41:25.999Z</time></trkpt><trkpt lat="44.80170799946478" lon="8.131218245888112"><ele>130.0</ele><time>2026-04-11T11:41:27.999Z</time></trkpt><trkpt lat="44.801613785859516" lon="8.131251534055155"><ele>130.0</ele><time>2026-04-11T11:41:29.999Z</time></trkpt><trkpt lat="44.80153013675117" lon="8.131282189750669"><ele>130.2</ele><time>2026-04-11T11:41:31.999Z</time></trkpt><trkpt lat="44.80143938186479" lon="8.13131826131131"><ele>130.4</ele><time>2026-04-11T11:41:33.999Z</time></trkpt><trkpt lat="44.80134968686249" lon="8.13134056218005"><ele>130.6</ele><time>2026-04-11T11:41:35.999Z</time></trkpt><trkpt lat="44.80125046298029" lon="8.131340606787282"><ele>130.8</ele><time>2026-04-11T11:41:37.999Z</time></trkpt><trkpt lat="44.80115759172477" lon="8.131335182039338"><ele>131.0</ele><time>2026-04-11T11:41:39.999Z</time></trkpt><trkpt lat="44.801062817769456" lon="8.131314867172438"><ele>130.83333333333331</ele><time>2026-04-11T11:41:42.999Z</time></trkpt><trkpt lat="44.800984391604096" lon="8.13131061896393"><ele>130.66666666666666</ele><time>2026-04-11T11:41:45.999Z</time></trkpt><trkpt lat="44.80090826450975" lon="8.13128331209558"><ele>130.5</ele><time>2026-04-11T11:41:47.999Z</time></trkpt><trkpt lat="44.800826063310666" lon="8.131268965512973"><ele>130.33333333333334</ele><time>2026-04-11T11:41:49.999Z</time></trkpt><trkpt lat="44.8007550537711" lon="8.13125092009435"><ele>130.16666666666669</ele><time>2026-04-11T11:41:50.999Z</time></trkpt><trkpt lat="44.80065170973827" lon="8.131228490685515"><ele>130.0</ele><time>2026-04-11T11:41:52.999Z</time></trkpt><trkpt lat="44.800559763384676" lon="8.131206983203656"><ele>130.0</ele><time>2026-04-11T11:41:55Z</time></trkpt><trkpt lat="44.80049395612429" lon="8.131190175511387"><ele>130.0</ele><time>2026-04-11T11:41:57Z</time></trkpt><trkpt lat="44.80039178577112" lon="8.131171637255003"><ele>130.0</ele><time>2026-04-11T11:42:00Z</time></trkpt><trkpt lat="44.800297714499294" lon="8.131137216185785"><ele>130.0</ele><time>2026-04-11T11:42:03Z</time></trkpt><trkpt lat="44.80022701414308" lon="8.131111356756154"><ele>130.0</ele><time>2026-04-11T11:42:05Z</time></trkpt><trkpt lat="44.800154032313934" lon="8.1310820431304"><ele>130.0</ele><time>2026-04-11T11:42:06Z</time></trkpt><trkpt lat="44.80006336910162" lon="8.131035619735966"><ele>129.83333333333334</ele><time>2026-04-11T11:42:08Z</time></trkpt><trkpt lat="44.79998724193245" lon="8.13098140103581"><ele>129.66666666666669</ele><time>2026-04-11T11:42:10Z</time></trkpt><trkpt lat="44.799905004167606" lon="8.130923655309308"><ele>129.5</ele><time>2026-04-11T11:42:12Z</time></trkpt><trkpt lat="44.799825784250245" lon="8.130874934939875"><ele>129.33333333333334</ele><time>2026-04-11T11:42:14Z</time></trkpt><trkpt lat="44.79974315152288" lon="8.130817163153464"><ele>129.16666666666666</ele><time>2026-04-11T11:42:16Z</time></trkpt><trkpt lat="44.79965858946646" lon="8.130774404035922"><ele>129.0</ele><time>2026-04-11T11:42:18Z</time></trkpt><trkpt lat="44.79959783213971" lon="8.130743908592905"><ele>129.0</ele><time>2026-04-11T11:42:20Z</time></trkpt><trkpt lat="44.799504129205296" lon="8.13072040708353"><ele>129.0</ele><time>2026-04-11T11:42:23Z</time></trkpt><trkpt lat="44.79941331053497" lon="8.130695458359872"><ele>129.0</ele><time>2026-04-11T11:42:26Z</time></trkpt><trkpt lat="44.79934803257259" lon="8.130695563783153"><ele>129.0</ele><time>2026-04-11T11:42:27Z</time></trkpt><trkpt lat="44.79925493754013" lon="8.130672105548406"><ele>129.0</ele><time>2026-04-11T11:42:29Z</time></trkpt><trkpt lat="44.79916626236924" lon="8.1306569908671"><ele>129.0</ele><time>2026-04-11T11:42:31Z</time></trkpt><trkpt lat="44.799079710193446" lon="8.130634917062537"><ele>129.4</ele><time>2026-04-11T11:42:33Z</time></trkpt><trkpt lat="44.79898848717059" lon="8.130625457856507"><ele>129.8</ele><time>2026-04-11T11:42:35Z</time></trkpt><trkpt lat="44.79890274787889" lon="8.130606149111014"><ele>130.2</ele><time>2026-04-11T11:42:37Z</time></trkpt><trkpt lat="44.79882752619995" lon="8.130597555361968"><ele>130.6</ele><time>2026-04-11T11:42:40Z</time></trkpt><trkpt lat="44.798703352776315" lon="8.130570478155398"><ele>131.0</ele><time>2026-04-11T11:42:42Z</time></trkpt><trkpt lat="44.79862384116455" lon="8.130552800648369"><ele>131.0</ele><time>2026-04-11T11:42:44Z</time></trkpt><trkpt lat="44.79853719929388" lon="8.13052893996303"><ele>131.0</ele><time>2026-04-11T11:42:47Z</time></trkpt><trkpt lat="44.79846341552953" lon="8.130476051182807"><ele>131.0</ele><time>2026-04-11T11:42:49Z</time></trkpt><trkpt lat="44.79839071263863" lon="8.13045656987539"><ele>131.0</ele><time>2026-04-11T11:42:51Z</time></trkpt><trkpt lat="44.798318788849016" lon="8.130425021000748"><ele>131.0</ele><time>2026-04-11T11:42:53Z</time></trkpt><trkpt lat="44.79824652850443" lon="8.130403903814987"><ele>131.0</ele><time>2026-04-11T11:42:55Z</time></trkpt><trkpt lat="44.79817252845763" lon="8.130361327982977"><ele>131.0</ele><time>2026-04-11T11:42:57Z</time></trkpt><trkpt lat="44.79809672523993" lon="8.130307973587417"><ele>131.0</ele><time>2026-04-11T11:42:59Z</time></trkpt><trkpt lat="44.79802173080783" lon="8.130256968325208"><ele>131.0</ele><time>2026-04-11T11:43:01Z</time></trkpt><trkpt lat="44.797954015587116" lon="8.130206440821764"><ele>131.0</ele><time>2026-04-11T11:43:02.999Z</time></trkpt><trkpt lat="44.7978906468874" lon="8.130151245900624"><ele>131.0</ele><time>2026-04-11T11:43:04.999Z</time></trkpt><trkpt lat="44.7978215437676" lon="8.130113777681705"><ele>131.0</ele><time>2026-04-11T11:43:06.999Z</time></trkpt><trkpt lat="44.79774274056927" lon="8.130092007187946"><ele>131.16666666666666</ele><time>2026-04-11T11:43:08.999Z</time></trkpt><trkpt lat="44.7976604765802" lon="8.130097040642829"><ele>131.33333333333331</ele><time>2026-04-11T11:43:11.999Z</time></trkpt><trkpt lat="44.7975922824237" lon="8.130100828883668"><ele>131.5</ele><time>2026-04-11T11:43:16.999Z</time></trkpt><trkpt lat="44.79750113171293" lon="8.13009993326701"><ele>131.66666666666666</ele><time>2026-04-11T11:43:19.999Z</time></trkpt><trkpt lat="44.79742027371059" lon="8.13003031980127"><ele>131.83333333333334</ele><time>2026-04-11T11:43:21.999Z</time></trkpt><trkpt lat="44.79735717157163" lon="8.129978895753755"><ele>132.0</ele><time>2026-04-11T11:43:23.999Z</time></trkpt><trkpt lat="44.79735288415203" lon="8.130074737816004"><ele>132.0</ele><time>2026-04-11T11:43:28.999Z</time></trkpt><trkpt lat="44.79741617817103" lon="8.130152495389744"><ele>132.0</ele><time>2026-04-11T11:43:32.999Z</time></trkpt><trkpt lat="44.79746990331393" lon="8.130220987849054"><ele>132.0</ele><time>2026-04-11T11:43:35.999Z</time></trkpt><trkpt lat="44.797540387092354" lon="8.130288787903016"><ele>132.0</ele><time>2026-04-11T11:43:38.999Z</time></trkpt><trkpt lat="44.7976014164743" lon="8.130349861917246"><ele>132.0</ele><time>2026-04-11T11:43:41.999Z</time></trkpt><trkpt lat="44.79766816505977" lon="8.130421147844569"><ele>132.0</ele><time>2026-04-11T11:43:44.999Z</time></trkpt><trkpt lat="44.79774011155526" lon="8.130512113301414"><ele>132.0</ele><time>2026-04-11T11:43:47.999Z</time></trkpt><trkpt lat="44.797756697088374" lon="8.130622776756796"><ele>132.0</ele><time>2026-04-11T11:43:52.999Z</time></trkpt><trkpt lat="44.79775734897122" lon="8.130804906185716"><ele>132.0</ele><time>2026-04-11T11:43:55.999Z</time></trkpt><trkpt lat="44.797773692007105" lon="8.130894393247912"><ele>132.0</ele><time>2026-04-11T11:43:56.999Z</time></trkpt><trkpt lat="44.79776011198252" lon="8.131014529752662"><ele>132.0</ele><time>2026-04-11T11:43:58.999Z</time></trkpt><trkpt lat="44.797723440325576" lon="8.131173645838663"><ele>132.0</ele><time>2026-04-11T11:44:01Z</time></trkpt><trkpt lat="44.79766946844989" lon="8.131347020243652"><ele>132.0</ele><time>2026-04-11T11:44:03Z</time></trkpt><trkpt lat="44.797637436987486" lon="8.131434926764308"><ele>132.0</ele><time>2026-04-11T11:44:05Z</time></trkpt><trkpt lat="44.79760014655841" lon="8.131538353414589"><ele>132.0</ele><time>2026-04-11T11:44:07Z</time></trkpt><trkpt lat="44.79752956703232" lon="8.131610910818223"><ele>132.0</ele><time>2026-04-11T11:44:09Z</time></trkpt><trkpt lat="44.797447365932506" lon="8.131671907463796"><ele>132.2</ele><time>2026-04-11T11:44:11Z</time></trkpt><trkpt lat="44.797358709232164" lon="8.131715136720182"><ele>132.39999999999998</ele><time>2026-04-11T11:44:13Z</time></trkpt><trkpt lat="44.797276402244385" lon="8.131766427626415"><ele>132.60000000000002</ele><time>2026-04-11T11:44:15Z</time></trkpt><trkpt lat="44.79718821755626" lon="8.13181411229167"><ele>132.8</ele><time>2026-04-11T11:44:17Z</time></trkpt><trkpt lat="44.79710142902761" lon="8.131869196055717"><ele>133.0</ele><time>2026-04-11T11:44:19Z</time></trkpt><trkpt lat="44.79701423067229" lon="8.131920485234366"><ele>133.0</ele><time>2026-04-11T11:44:21Z</time></trkpt><trkpt lat="44.79693141642501" lon="8.131964363664473"><ele>133.0</ele><time>2026-04-11T11:44:23Z</time></trkpt><trkpt lat="44.796852746515356" lon="8.132015159860591"><ele>133.0</ele><time>2026-04-11T11:44:25Z</time></trkpt><trkpt lat="44.7967672655116" lon="8.132059611804998"><ele>133.0</ele><time>2026-04-11T11:44:27Z</time></trkpt><trkpt lat="44.79668699549487" lon="8.132117840995457"><ele>133.0</ele><time>2026-04-11T11:44:29Z</time></trkpt><trkpt lat="44.796615440790696" lon="8.132158080514923"><ele>133.0</ele><time>2026-04-11T11:44:32Z</time></trkpt><trkpt lat="44.79654194019006" lon="8.132221967138602"><ele>132.8</ele><time>2026-04-11T11:44:35Z</time></trkpt><trkpt lat="44.79647454106389" lon="8.132267420704999"><ele>132.60000000000002</ele><time>2026-04-11T11:44:38Z</time></trkpt><trkpt lat="44.796356643445456" lon="8.132322384653639"><ele>132.39999999999998</ele><time>2026-04-11T11:44:39Z</time></trkpt><trkpt lat="44.79623378702008" lon="8.132367200058855"><ele>132.2</ele><time>2026-04-11T11:44:40Z</time></trkpt><trkpt lat="44.7961309118072" lon="8.13242379814594"><ele>132.0</ele><time>2026-04-11T11:44:42Z</time></trkpt><trkpt lat="44.79605014517207" lon="8.132480997172527"><ele>131.79999999999998</ele><time>2026-04-11T11:44:44Z</time></trkpt><trkpt lat="44.79595258182467" lon="8.132529245180795"><ele>131.6</ele><time>2026-04-11T11:44:46Z</time></trkpt><trkpt lat="44.7958711838303" lon="8.13257833344856"><ele>131.39999999999998</ele><time>2026-04-11T11:44:48Z</time></trkpt><trkpt lat="44.795790071131975" lon="8.132630074120135"><ele>131.2</ele><time>2026-04-11T11:44:50Z</time></trkpt><trkpt lat="44.79569231468741" lon="8.132676647397679"><ele>131.0</ele><time>2026-04-11T11:44:52Z</time></trkpt><trkpt lat="44.79560147085297" lon="8.132735962325"><ele>131.0</ele><time>2026-04-11T11:44:54Z</time></trkpt><trkpt lat="44.79550360197749" lon="8.132785512076948"><ele>131.0</ele><time>2026-04-11T11:44:56Z</time></trkpt><trkpt lat="44.79541067872683" lon="8.132837898608162"><ele>131.0</ele><time>2026-04-11T11:44:58Z</time></trkpt><trkpt lat="44.795305746609436" lon="8.132885894660424"><ele>131.0</ele><time>2026-04-11T11:45:00Z</time></trkpt><trkpt lat="44.79521551391806" lon="8.132927725659854"><ele>131.0</ele><time>2026-04-11T11:45:02Z</time></trkpt><trkpt lat="44.79513379484514" lon="8.132986490618512"><ele>131.4</ele><time>2026-04-11T11:45:04Z</time></trkpt><trkpt lat="44.795038091519636" lon="8.133041426921276"><ele>131.8</ele><time>2026-04-11T11:45:06Z</time></trkpt><trkpt lat="44.794944230937716" lon="8.133097907013678"><ele>132.20000000000002</ele><time>2026-04-11T11:45:08Z</time></trkpt><trkpt lat="44.79484553764571" lon="8.133142982449042"><ele>132.6</ele><time>2026-04-11T11:45:10Z</time></trkpt><trkpt lat="44.79474680176952" lon="8.133198940937682"><ele>133.0</ele><time>2026-04-11T11:45:11.999Z</time></trkpt><trkpt lat="44.79464326258629" lon="8.133251978647904"><ele>133.0</ele><time>2026-04-11T11:45:13.999Z</time></trkpt><trkpt lat="44.79454591320268" lon="8.133311366509275"><ele>133.0</ele><time>2026-04-11T11:45:15.999Z</time></trkpt><trkpt lat="44.79445049307769" lon="8.13336379577418"><ele>133.0</ele><time>2026-04-11T11:45:17.999Z</time></trkpt><trkpt lat="44.79435175921683" lon="8.133423054257522"><ele>133.0</ele><time>2026-04-11T11:45:19.999Z</time></trkpt><trkpt lat="44.794253724093736" lon="8.133471331428241"><ele>133.0</ele><time>2026-04-11T11:45:21.999Z</time></trkpt><trkpt lat="44.79415747073452" lon="8.13354371195234"><ele>132.8</ele><time>2026-04-11T11:45:23.999Z</time></trkpt><trkpt lat="44.794075242027624" lon="8.133614703783113"><ele>132.60000000000002</ele><time>2026-04-11T11:45:25.999Z</time></trkpt><trkpt lat="44.79398468747587" lon="8.133683988926244"><ele>132.39999999999998</ele><time>2026-04-11T11:45:27.999Z</time></trkpt><trkpt lat="44.793891993754684" lon="8.133762385336986"><ele>132.2</ele><time>2026-04-11T11:45:29.999Z</time></trkpt><trkpt lat="44.7938064001641" lon="8.133839097146227"><ele>132.0</ele><time>2026-04-11T11:45:31.999Z</time></trkpt><trkpt lat="44.79370659793821" lon="8.133913677626479"><ele>132.0</ele><time>2026-04-11T11:45:33.999Z</time></trkpt><trkpt lat="44.793620489883956" lon="8.133990098664338"><ele>132.0</ele><time>2026-04-11T11:45:35.999Z</time></trkpt><trkpt lat="44.79353005215482" lon="8.13404669700831"><ele>132.0</ele><time>2026-04-11T11:45:37.999Z</time></trkpt><trkpt lat="44.79344313005211" lon="8.134126858829715"><ele>132.0</ele><time>2026-04-11T11:45:39.999Z</time></trkpt><trkpt lat="44.79335595071058" lon="8.13420295343449"><ele>132.0</ele><time>2026-04-11T11:45:41.999Z</time></trkpt><trkpt lat="44.79326870484362" lon="8.134272217727778"><ele>132.4</ele><time>2026-04-11T11:45:43.999Z</time></trkpt><trkpt lat="44.793179654022985" lon="8.134342867716384"><ele>132.79999999999998</ele><time>2026-04-11T11:45:45.999Z</time></trkpt><trkpt lat="44.793092672340904" lon="8.13441873374199"><ele>133.2</ele><time>2026-04-11T11:45:47.999Z</time></trkpt><trkpt lat="44.79300965675484" lon="8.134489242017311"><ele>133.6</ele><time>2026-04-11T11:45:49.999Z</time></trkpt><trkpt lat="44.792923922504734" lon="8.134559069362627"><ele>134.0</ele><time>2026-04-11T11:45:51.999Z</time></trkpt><trkpt lat="44.79284624846398" lon="8.134633739429528"><ele>134.0</ele><time>2026-04-11T11:45:53.999Z</time></trkpt><trkpt lat="44.792757580771834" lon="8.13469857649038"><ele>134.0</ele><time>2026-04-11T11:45:55.999Z</time></trkpt><trkpt lat="44.79267749136973" lon="8.134768688317186"><ele>134.0</ele><time>2026-04-11T11:45:57.999Z</time></trkpt><trkpt lat="44.79259505353901" lon="8.134833864810345"><ele>134.0</ele><time>2026-04-11T11:45:59.999Z</time></trkpt><trkpt lat="44.79251125027532" lon="8.134902405585605"><ele>134.0</ele><time>2026-04-11T11:46:01.999Z</time></trkpt><trkpt lat="44.79242893299125" lon="8.134973033812296"><ele>133.6</ele><time>2026-04-11T11:46:03.999Z</time></trkpt><trkpt lat="44.792344093802804" lon="8.135045244092675"><ele>133.2</ele><time>2026-04-11T11:46:05.999Z</time></trkpt><trkpt lat="44.79226257549094" lon="8.135125099644778"><ele>132.79999999999998</ele><time>2026-04-11T11:46:08Z</time></trkpt><trkpt lat="44.792164734739785" lon="8.135177525889684"><ele>132.4</ele><time>2026-04-11T11:46:10Z</time></trkpt><trkpt lat="44.79208218816041" lon="8.135256373835539"><ele>132.0</ele><time>2026-04-11T11:46:12Z</time></trkpt><trkpt lat="44.792000979181864" lon="8.135323724994404"><ele>132.0</ele><time>2026-04-11T11:46:14Z</time></trkpt><trkpt lat="44.79192014759801" lon="8.135391723615719"><ele>132.0</ele><time>2026-04-11T11:46:16Z</time></trkpt><trkpt lat="44.79183773884917" lon="8.135463547196345"><ele>132.0</ele><time>2026-04-11T11:46:18Z</time></trkpt><trkpt lat="44.79175010776259" lon="8.135532841739844"><ele>132.0</ele><time>2026-04-11T11:46:20Z</time></trkpt><trkpt lat="44.791667728006644" lon="8.135601021367485"><ele>132.0</ele><time>2026-04-11T11:46:22Z</time></trkpt><trkpt lat="44.7915850918313" lon="8.135673608441788"><ele>132.2</ele><time>2026-04-11T11:46:24Z</time></trkpt><trkpt lat="44.791494970478034" lon="8.135745471049274"><ele>132.39999999999998</ele><time>2026-04-11T11:46:26Z</time></trkpt><trkpt lat="44.79141430699192" lon="8.135816622932168"><ele>132.60000000000002</ele><time>2026-04-11T11:46:28Z</time></trkpt><trkpt lat="44.79132850097699" lon="8.135882208013935"><ele>132.8</ele><time>2026-04-11T11:46:30Z</time></trkpt><trkpt lat="44.79124915639762" lon="8.135955604723144"><ele>133.0</ele><time>2026-04-11T11:46:32Z</time></trkpt><trkpt lat="44.79116349962999" lon="8.136028853177178"><ele>133.0</ele><time>2026-04-11T11:46:34Z</time></trkpt><trkpt lat="44.791076219350444" lon="8.13609643143027"><ele>133.0</ele><time>2026-04-11T11:46:36Z</time></trkpt><trkpt lat="44.790995169438204" lon="8.136172501746696"><ele>133.0</ele><time>2026-04-11T11:46:38Z</time></trkpt><trkpt lat="44.790912698265096" lon="8.136238077527556"><ele>133.0</ele><time>2026-04-11T11:46:40Z</time></trkpt><trkpt lat="44.79082611125267" lon="8.136312520603981"><ele>133.0</ele><time>2026-04-11T11:46:42Z</time></trkpt><trkpt lat="44.79074882160128" lon="8.136386022406258"><ele>133.4</ele><time>2026-04-11T11:46:44Z</time></trkpt><trkpt lat="44.7906629333023" lon="8.13645496155335"><ele>133.8</ele><time>2026-04-11T11:46:46Z</time></trkpt><trkpt lat="44.790575869713464" lon="8.136533503331886"><ele>134.2</ele><time>2026-04-11T11:46:48Z</time></trkpt><trkpt lat="44.79048942077752" lon="8.136606955728515"><ele>134.6</ele><time>2026-04-11T11:46:50Z</time></trkpt><trkpt lat="44.79041540636455" lon="8.136674736528832"><ele>135.0</ele><time>2026-04-11T11:46:53Z</time></trkpt><trkpt lat="44.79028213405208" lon="8.136782775614975"><ele>135.2</ele><time>2026-04-11T11:46:55Z</time></trkpt><trkpt lat="44.79019287526862" lon="8.136853704060567"><ele>135.4</ele><time>2026-04-11T11:46:57Z</time></trkpt><trkpt lat="44.790112228617694" lon="8.136921973009727"><ele>135.6</ele><time>2026-04-11T11:46:59Z</time></trkpt><trkpt lat="44.79003464642605" lon="8.136984365158623"><ele>135.8</ele><time>2026-04-11T11:47:01Z</time></trkpt><trkpt lat="44.78994938349954" lon="8.137050200761406"><ele>136.0</ele><time>2026-04-11T11:47:03Z</time></trkpt><trkpt lat="44.78986539211683" lon="8.137131549991386"><ele>136.0</ele><time>2026-04-11T11:47:05Z</time></trkpt><trkpt lat="44.78977423097439" lon="8.137190247601076"><ele>136.0</ele><time>2026-04-11T11:47:07Z</time></trkpt><trkpt lat="44.78970921701919" lon="8.137258731762607"><ele>136.0</ele><time>2026-04-11T11:47:09Z</time></trkpt><trkpt lat="44.78962561849118" lon="8.137323099120843"><ele>136.0</ele><time>2026-04-11T11:47:11Z</time></trkpt><trkpt lat="44.78955464038902" lon="8.137396186417702"><ele>136.0</ele><time>2026-04-11T11:47:13Z</time></trkpt><trkpt lat="44.78947908419079" lon="8.13746819638199"><ele>136.0</ele><time>2026-04-11T11:47:15Z</time></trkpt><trkpt lat="44.78938828308562" lon="8.137533648388562"><ele>136.0</ele><time>2026-04-11T11:47:17Z</time></trkpt><trkpt lat="44.78930317655786" lon="8.137606291887032"><ele>136.0</ele><time>2026-04-11T11:47:19Z</time></trkpt><trkpt lat="44.78921287443264" lon="8.13767509016751"><ele>136.0</ele><time>2026-04-11T11:47:21Z</time></trkpt><trkpt lat="44.78913089809484" lon="8.137745305323122"><ele>136.0</ele><time>2026-04-11T11:47:23Z</time></trkpt><trkpt lat="44.789045172882005" lon="8.137807570424307"><ele>136.0</ele><time>2026-04-11T11:47:24.999Z</time></trkpt><trkpt lat="44.789082624426825" lon="8.13807347872604"><ele>136.0</ele><time>2026-04-11T11:47:25.999Z</time></trkpt><trkpt lat="44.78899933343341" lon="8.138133058139418"><ele>136.0</ele><time>2026-04-11T11:47:27.999Z</time></trkpt><trkpt lat="44.788912818152355" lon="8.138191339799437"><ele>136.0</ele><time>2026-04-11T11:47:29.999Z</time></trkpt><trkpt lat="44.7888278331431" lon="8.138250565371479"><ele>136.0</ele><time>2026-04-11T11:47:31.999Z</time></trkpt><trkpt lat="44.78874054456934" lon="8.138311396300145"><ele>136.0</ele><time>2026-04-11T11:47:33.999Z</time></trkpt><trkpt lat="44.7885931924973" lon="8.13819609782098"><ele>136.0</ele><time>2026-04-11T11:47:35.999Z</time></trkpt><trkpt lat="44.78856234195564" lon="8.138435584700176"><ele>136.0</ele><time>2026-04-11T11:47:37.999Z</time></trkpt><trkpt lat="44.78848811187728" lon="8.13848731526389"><ele>136.2</ele><time>2026-04-11T11:47:39.999Z</time></trkpt><trkpt lat="44.78840457445235" lon="8.138545532043002"><ele>136.39999999999998</ele><time>2026-04-11T11:47:41.999Z</time></trkpt><trkpt lat="44.78832232381705" lon="8.13860285204375"><ele>136.6</ele><time>2026-04-11T11:47:43.999Z</time></trkpt><trkpt lat="44.788238741570595" lon="8.138661100082258"><ele>136.79999999999998</ele><time>2026-04-11T11:47:45.999Z</time></trkpt><trkpt lat="44.78815314895645" lon="8.138720749083493"><ele>137.0</ele><time>2026-04-11T11:47:47.999Z</time></trkpt><trkpt lat="44.78807043524017" lon="8.138778391819224"><ele>137.0</ele><time>2026-04-11T11:47:49.999Z</time></trkpt><trkpt lat="44.78798544707589" lon="8.138837619600329"><ele>137.0</ele><time>2026-04-11T11:47:51.999Z</time></trkpt><trkpt lat="44.78790133561615" lon="8.138896236412593"><ele>137.0</ele><time>2026-04-11T11:47:53.999Z</time></trkpt><trkpt lat="44.787821895539395" lon="8.138951597772982"><ele>137.0</ele><time>2026-04-11T11:47:55.999Z</time></trkpt><trkpt lat="44.78773629918158" lon="8.139011249410846"><ele>137.0</ele><time>2026-04-11T11:47:57.999Z</time></trkpt><trkpt lat="44.7876510571582" lon="8.139070654098761"><ele>137.0</ele><time>2026-04-11T11:47:59.999Z</time></trkpt><trkpt lat="44.78757295269492" lon="8.139125726155674"><ele>137.0</ele><time>2026-04-11T11:48:01.999Z</time></trkpt><trkpt lat="44.78749729453516" lon="8.139181391468192"><ele>137.0</ele><time>2026-04-11T11:48:03.999Z</time></trkpt><trkpt lat="44.787420653476204" lon="8.139237779932548"><ele>137.0</ele><time>2026-04-11T11:48:05.999Z</time></trkpt><trkpt lat="44.78727358286389" lon="8.139136889630912"><ele>137.0</ele><time>2026-04-11T11:48:07.999Z</time></trkpt><trkpt lat="44.78719697489344" lon="8.139191115177534"><ele>137.0</ele><time>2026-04-11T11:48:09.999Z</time></trkpt><trkpt lat="44.787118151801685" lon="8.139243692256674"><ele>137.0</ele><time>2026-04-11T11:48:11.999Z</time></trkpt><trkpt lat="44.787040783720364" lon="8.13929405025556"><ele>137.0</ele><time>2026-04-11T11:48:14Z</time></trkpt><trkpt lat="44.78695553571645" lon="8.139344134166238"><ele>137.0</ele><time>2026-04-11T11:48:16Z</time></trkpt><trkpt lat="44.786873349673336" lon="8.13938352436734"><ele>137.0</ele><time>2026-04-11T11:48:18Z</time></trkpt><trkpt lat="44.78678752670308" lon="8.139419042763572"><ele>137.0</ele><time>2026-04-11T11:48:20Z</time></trkpt><trkpt lat="44.78671077336469" lon="8.13946142771279"><ele>136.83333333333331</ele><time>2026-04-11T11:48:22Z</time></trkpt><trkpt lat="44.78662916650706" lon="8.139499588764394"><ele>136.66666666666666</ele><time>2026-04-11T11:48:24Z</time></trkpt><trkpt lat="44.78653927932931" lon="8.139532513659672"><ele>136.5</ele><time>2026-04-11T11:48:26Z</time></trkpt><trkpt lat="44.786451689316" lon="8.139564949277247"><ele>136.33333333333334</ele><time>2026-04-11T11:48:28Z</time></trkpt><trkpt lat="44.786368226629" lon="8.13959058238987"><ele>136.16666666666669</ele><time>2026-04-11T11:48:30Z</time></trkpt><trkpt lat="44.786288953569546" lon="8.139617526208712"><ele>136.0</ele><time>2026-04-11T11:48:32Z</time></trkpt><trkpt lat="44.786203860883454" lon="8.139642956184549"><ele>136.0</ele><time>2026-04-11T11:48:34Z</time></trkpt><trkpt lat="44.786122298263436" lon="8.139661518366564"><ele>136.0</ele><time>2026-04-11T11:48:36Z</time></trkpt><trkpt lat="44.786042537773795" lon="8.139673267790014"><ele>136.0</ele><time>2026-04-11T11:48:38Z</time></trkpt><trkpt lat="44.78596172951908" lon="8.139696029911233"><ele>136.0</ele><time>2026-04-11T11:48:40Z</time></trkpt><trkpt lat="44.785879593594096" lon="8.139702461173004"><ele>136.0</ele><time>2026-04-11T11:48:42Z</time></trkpt><trkpt lat="44.78579670837296" lon="8.139709432007606"><ele>136.0</ele><time>2026-04-11T11:48:44Z</time></trkpt><trkpt lat="44.78572007302905" lon="8.139721205660447"><ele>136.0</ele><time>2026-04-11T11:48:46Z</time></trkpt><trkpt lat="44.78565023391369" lon="8.139724946607457"><ele>136.0</ele><time>2026-04-11T11:48:48Z</time></trkpt><trkpt lat="44.78558576326137" lon="8.139716533412669"><ele>136.0</ele><time>2026-04-11T11:49:01Z</time></trkpt><trkpt lat="44.78551136857913" lon="8.139721468431981"><ele>136.0</ele><time>2026-04-11T11:49:05Z</time></trkpt><trkpt lat="44.78542376042129" lon="8.139732444475227"><ele>136.0</ele><time>2026-04-11T11:49:08Z</time></trkpt><trkpt lat="44.78531716443289" lon="8.1397140057502"><ele>136.0</ele><time>2026-04-11T11:49:11Z</time></trkpt><trkpt lat="44.7852515025222" lon="8.139710412271668"><ele>136.0</ele><time>2026-04-11T11:49:13Z</time></trkpt><trkpt lat="44.785171232674195" lon="8.139694605670076"><ele>136.0</ele><time>2026-04-11T11:49:15Z</time></trkpt><trkpt lat="44.785087037482135" lon="8.139682438591947"><ele>136.0</ele><time>2026-04-11T11:49:17Z</time></trkpt><trkpt lat="44.78500860851654" lon="8.139661665624347"><ele>136.0</ele><time>2026-04-11T11:49:19Z</time></trkpt><trkpt lat="44.784918569959494" lon="8.139638557318708"><ele>136.0</ele><time>2026-04-11T11:49:21Z</time></trkpt><trkpt lat="44.784828177354896" lon="8.139607978088565"><ele>136.0</ele><time>2026-04-11T11:49:23Z</time></trkpt><trkpt lat="44.784731356261005" lon="8.1395841606906"><ele>136.0</ele><time>2026-04-11T11:49:26.999Z</time></trkpt><trkpt lat="44.78462299167301" lon="8.139552865992313"><ele>136.0</ele><time>2026-04-11T11:49:29.999Z</time></trkpt><trkpt lat="44.7843933070042" lon="8.139455940875763"><ele>136.0</ele><time>2026-04-11T11:49:32.999Z</time></trkpt><trkpt lat="44.784301052398284" lon="8.139422704713112"><ele>136.0</ele><time>2026-04-11T11:49:34.999Z</time></trkpt><trkpt lat="44.78421291065699" lon="8.139370231920454"><ele>136.2</ele><time>2026-04-11T11:49:36.999Z</time></trkpt><trkpt lat="44.784125384669416" lon="8.139317071186971"><ele>136.39999999999998</ele><time>2026-04-11T11:49:38.999Z</time></trkpt><trkpt lat="44.78403126618161" lon="8.139276650353166"><ele>136.6</ele><time>2026-04-11T11:49:40.999Z</time></trkpt><trkpt lat="44.783943436227304" lon="8.139196210019866"><ele>136.79999999999998</ele><time>2026-04-11T11:49:42.999Z</time></trkpt><trkpt lat="44.783855124916656" lon="8.139134796966438"><ele>137.0</ele><time>2026-04-11T11:49:44.999Z</time></trkpt><trkpt lat="44.78377571359545" lon="8.139083782112502"><ele>136.83333333333331</ele><time>2026-04-11T11:49:46.999Z</time></trkpt><trkpt lat="44.78371751486165" lon="8.139048556746642"><ele>136.66666666666666</ele><time>2026-04-11T11:49:47.999Z</time></trkpt><trkpt lat="44.783640287030444" lon="8.138998923520477"><ele>136.5</ele><time>2026-04-11T11:49:49.999Z</time></trkpt><trkpt lat="44.7835573452543" lon="8.138941131511066"><ele>136.33333333333334</ele><time>2026-04-11T11:49:51.999Z</time></trkpt><trkpt lat="44.78346688701761" lon="8.138885905463576"><ele>136.16666666666669</ele><time>2026-04-11T11:49:53.999Z</time></trkpt><trkpt lat="44.78338160671843" lon="8.138821090356295"><ele>136.0</ele><time>2026-04-11T11:49:55.999Z</time></trkpt><trkpt lat="44.78329619865551" lon="8.138771895610743"><ele>136.4</ele><time>2026-04-11T11:49:57.999Z</time></trkpt><trkpt lat="44.7832105759401" lon="8.138709189510276"><ele>136.8</ele><time>2026-04-11T11:49:59.999Z</time></trkpt><trkpt lat="44.78312603173173" lon="8.1386496465231"><ele>137.20000000000002</ele><time>2026-04-11T11:50:01.999Z</time></trkpt><trkpt lat="44.783036849325285" lon="8.13859219656819"><ele>137.6</ele><time>2026-04-11T11:50:03.999Z</time></trkpt><trkpt lat="44.78295740070697" lon="8.138533091995502"><ele>138.0</ele><time>2026-04-11T11:50:05.999Z</time></trkpt><trkpt lat="44.782881506512155" lon="8.138481296452294"><ele>138.0</ele><time>2026-04-11T11:50:07.999Z</time></trkpt><trkpt lat="44.78279467987671" lon="8.138430814058513"><ele>138.0</ele><time>2026-04-11T11:50:09.999Z</time></trkpt><trkpt lat="44.7827142166128" lon="8.138372441179126"><ele>138.0</ele><time>2026-04-11T11:50:11.999Z</time></trkpt><trkpt lat="44.782636920213896" lon="8.138319761922906"><ele>138.0</ele><time>2026-04-11T11:50:13.999Z</time></trkpt><trkpt lat="44.78255339484555" lon="8.138262293610836"><ele>138.0</ele><time>2026-04-11T11:50:15.999Z</time></trkpt><trkpt lat="44.78246709575107" lon="8.13820864356559"><ele>137.6</ele><time>2026-04-11T11:50:17.999Z</time></trkpt><trkpt lat="44.782380199615396" lon="8.138158660485406"><ele>137.20000000000002</ele><time>2026-04-11T11:50:20Z</time></trkpt><trkpt lat="44.782292715991346" lon="8.138098047243504"><ele>136.8</ele><time>2026-04-11T11:50:22Z</time></trkpt><trkpt lat="44.782206198249796" lon="8.138034738011658"><ele>136.4</ele><time>2026-04-11T11:50:24Z</time></trkpt><trkpt lat="44.782119434158545" lon="8.137972991504704"><ele>136.0</ele><time>2026-04-11T11:50:26Z</time></trkpt><trkpt lat="44.78203180654928" lon="8.137916817799095"><ele>136.0</ele><time>2026-04-11T11:50:28Z</time></trkpt><trkpt lat="44.78194091063285" lon="8.137853812854532"><ele>136.0</ele><time>2026-04-11T11:50:30Z</time></trkpt><trkpt lat="44.78185415854518" lon="8.137790917497359"><ele>136.0</ele><time>2026-04-11T11:50:32Z</time></trkpt><trkpt lat="44.78175953773198" lon="8.137732697838576"><ele>136.0</ele><time>2026-04-11T11:50:34Z</time></trkpt><trkpt lat="44.78167952820825" lon="8.137667732781305"><ele>136.0</ele><time>2026-04-11T11:50:36Z</time></trkpt><trkpt lat="44.781590813469144" lon="8.13763372592149"><ele>136.2</ele><time>2026-04-11T11:50:38Z</time></trkpt><trkpt lat="44.78150237196691" lon="8.137551685914563"><ele>136.39999999999998</ele><time>2026-04-11T11:50:40Z</time></trkpt><trkpt lat="44.781422813757814" lon="8.137503013832779"><ele>136.6</ele><time>2026-04-11T11:50:42Z</time></trkpt><trkpt lat="44.781347197298366" lon="8.137458229782263"><ele>136.79999999999998</ele><time>2026-04-11T11:50:44Z</time></trkpt><trkpt lat="44.7812616084185" lon="8.137394394328643"><ele>137.0</ele><time>2026-04-11T11:50:46Z</time></trkpt><trkpt lat="44.781176180207275" lon="8.137309987610244"><ele>136.6</ele><time>2026-04-11T11:50:48Z</time></trkpt><trkpt lat="44.7811152566896" lon="8.137213053520197"><ele>136.2</ele><time>2026-04-11T11:50:50Z</time></trkpt><trkpt lat="44.7810104679261" lon="8.137118165485617"><ele>135.8</ele><time>2026-04-11T11:50:52Z</time></trkpt><trkpt lat="44.781043187562496" lon="8.137025465810646"><ele>135.4</ele><time>2026-04-11T11:50:53Z</time></trkpt><trkpt lat="44.78102069034617" lon="8.136890358756027"><ele>135.0</ele><time>2026-04-11T11:50:55Z</time></trkpt><trkpt lat="44.78093506254255" lon="8.136866221257705"><ele>135.8</ele><time>2026-04-11T11:50:56Z</time></trkpt><trkpt lat="44.7808932330431" lon="8.136727517037363"><ele>136.6</ele><time>2026-04-11T11:50:58Z</time></trkpt><trkpt lat="44.780849449242865" lon="8.13658284784477"><ele>137.4</ele><time>2026-04-11T11:51:00Z</time></trkpt><trkpt lat="44.7808048681619" lon="8.136435544436585"><ele>138.2</ele><time>2026-04-11T11:51:02Z</time></trkpt><trkpt lat="44.78076187460658" lon="8.136293486138758"><ele>139.0</ele><time>2026-04-11T11:51:04Z</time></trkpt><trkpt lat="44.78072110252012" lon="8.1361587680877"><ele>139.2</ele><time>2026-04-11T11:51:06Z</time></trkpt><trkpt lat="44.780683258945366" lon="8.136033726485342"><ele>139.4</ele><time>2026-04-11T11:51:08Z</time></trkpt><trkpt lat="44.78064474539049" lon="8.135906471312413"><ele>139.6</ele><time>2026-04-11T11:51:10Z</time></trkpt><trkpt lat="44.78061024397643" lon="8.135792475732499"><ele>139.8</ele><time>2026-04-11T11:51:12Z</time></trkpt><trkpt lat="44.78057687592659" lon="8.135682225029026"><ele>140.0</ele><time>2026-04-11T11:51:14Z</time></trkpt><trkpt lat="44.780537550283384" lon="8.135552289618294"><ele>140.0</ele><time>2026-04-11T11:51:16Z</time></trkpt><trkpt lat="44.78082644362702" lon="8.135305726944281"><ele>140.0</ele><time>2026-04-11T11:51:17Z</time></trkpt><trkpt lat="44.780808568470036" lon="8.13516100088327"><ele>140.0</ele><time>2026-04-11T11:51:19Z</time></trkpt><trkpt lat="44.780793868038785" lon="8.135014213047253"><ele>139.8</ele><time>2026-04-11T11:51:21Z</time></trkpt><trkpt lat="44.78076838428903" lon="8.134865888968909"><ele>139.6</ele><time>2026-04-11T11:51:23Z</time></trkpt><trkpt lat="44.78075120890238" lon="8.134729154516933"><ele>139.4</ele><time>2026-04-11T11:51:25Z</time></trkpt><trkpt lat="44.78073274794791" lon="8.134592114956343"><ele>139.2</ele><time>2026-04-11T11:51:27Z</time></trkpt><trkpt lat="44.78071429616412" lon="8.134458638994792"><ele>139.0</ele><time>2026-04-11T11:51:29Z</time></trkpt><trkpt lat="44.780693377618746" lon="8.134304262112993"><ele>139.0</ele><time>2026-04-11T11:51:31Z</time></trkpt><trkpt lat="44.78067463063536" lon="8.134135873928951"><ele>139.0</ele><time>2026-04-11T11:51:33Z</time></trkpt><trkpt lat="44.78065381806452" lon="8.133973487793694"><ele>139.0</ele><time>2026-04-11T11:51:34.999Z</time></trkpt><trkpt lat="44.780630650137255" lon="8.133811824906328"><ele>139.0</ele><time>2026-04-11T11:51:36.999Z</time></trkpt><trkpt lat="44.78060994169698" lon="8.133649651448824"><ele>138.5</ele><time>2026-04-11T11:51:38.999Z</time></trkpt><trkpt lat="44.78058517677453" lon="8.133484233931975"><ele>138.0</ele><time>2026-04-11T11:51:40.999Z</time></trkpt><trkpt lat="44.78056488214901" lon="8.133322800752934"><ele>137.5</ele><time>2026-04-11T11:51:42.999Z</time></trkpt><trkpt lat="44.780540939793035" lon="8.133162443562789"><ele>137.0</ele><time>2026-04-11T11:51:44.999Z</time></trkpt><trkpt lat="44.78051820925395" lon="8.133000750432476"><ele>136.75</ele><time>2026-04-11T11:51:46.999Z</time></trkpt><trkpt lat="44.780499444157094" lon="8.132836983000743"><ele>136.5</ele><time>2026-04-11T11:51:48.999Z</time></trkpt><trkpt lat="44.780481608517626" lon="8.132678195230007"><ele>136.25</ele><time>2026-04-11T11:51:50.999Z</time></trkpt><trkpt lat="44.78045774304935" lon="8.132528145327935"><ele>136.0</ele><time>2026-04-11T11:51:52.999Z</time></trkpt><trkpt lat="44.78044090622543" lon="8.132365876380929"><ele>136.0</ele><time>2026-04-11T11:51:54.999Z</time></trkpt><trkpt lat="44.780419460586586" lon="8.132208362791403"><ele>136.0</ele><time>2026-04-11T11:51:56.999Z</time></trkpt><trkpt lat="44.78039935304135" lon="8.132061744635632"><ele>136.0</ele><time>2026-04-11T11:51:58.999Z</time></trkpt><trkpt lat="44.78037688128986" lon="8.13191103735525"><ele>136.0</ele><time>2026-04-11T11:52:00.999Z</time></trkpt><trkpt lat="44.78035732860842" lon="8.13175986859423"><ele>136.0</ele><time>2026-04-11T11:52:02.999Z</time></trkpt><trkpt lat="44.78033839284514" lon="8.131611836780419"><ele>136.25</ele><time>2026-04-11T11:52:04.999Z</time></trkpt><trkpt lat="44.780327096270504" lon="8.131455998454582"><ele>136.5</ele><time>2026-04-11T11:52:06.999Z</time></trkpt><trkpt lat="44.78032447227221" lon="8.131290848138775"><ele>136.75</ele><time>2026-04-11T11:52:08.999Z</time></trkpt><trkpt lat="44.78032603423473" lon="8.131123500052531"><ele>137.0</ele><time>2026-04-11T11:52:10.999Z</time></trkpt><trkpt lat="44.78033300413841" lon="8.130954481482956"><ele>137.0</ele><time>2026-04-11T11:52:12.999Z</time></trkpt><trkpt lat="44.78034377243879" lon="8.13079102533162"><ele>137.0</ele><time>2026-04-11T11:52:14.999Z</time></trkpt><trkpt lat="44.78035476916294" lon="8.130638269777629"><ele>137.0</ele><time>2026-04-11T11:52:16.999Z</time></trkpt><trkpt lat="44.78037750933156" lon="8.130499166298433"><ele>137.0</ele><time>2026-04-11T11:52:18.999Z</time></trkpt><trkpt lat="44.780406896675146" lon="8.130378120785101"><ele>137.0</ele><time>2026-04-11T11:52:20.999Z</time></trkpt><trkpt lat="44.78044181194394" lon="8.130285484388986"><ele>136.83333333333331</ele><time>2026-04-11T11:52:22.999Z</time></trkpt><trkpt lat="44.78047033575396" lon="8.130187325359357"><ele>136.66666666666666</ele><time>2026-04-11T11:52:25Z</time></trkpt><trkpt lat="44.78051931101851" lon="8.130087122687797"><ele>136.5</ele><time>2026-04-11T11:52:27Z</time></trkpt><trkpt lat="44.780568987284084" lon="8.12997911507843"><ele>136.33333333333334</ele><time>2026-04-11T11:52:29Z</time></trkpt><trkpt lat="44.78059139348432" lon="8.129849978532928"><ele>136.16666666666669</ele><time>2026-04-11T11:52:31Z</time></trkpt><trkpt lat="44.780563618461876" lon="8.129717195971386"><ele>136.0</ele><time>2026-04-11T11:52:33Z</time></trkpt><trkpt lat="44.7804994239451" lon="8.129597315389285"><ele>136.6</ele><time>2026-04-11T11:52:35Z</time></trkpt><trkpt lat="44.78042011296186" lon="8.129489062413148"><ele>137.2</ele><time>2026-04-11T11:52:37Z</time></trkpt><trkpt lat="44.78034426400703" lon="8.129392022421326"><ele>137.8</ele><time>2026-04-11T11:52:39Z</time></trkpt><trkpt lat="44.780251851886675" lon="8.12930432730832"><ele>138.4</ele><time>2026-04-11T11:52:41Z</time></trkpt><trkpt lat="44.78016495819843" lon="8.129225943178223"><ele>139.0</ele><time>2026-04-11T11:52:43Z</time></trkpt><trkpt lat="44.780078239889825" lon="8.12917261898476"><ele>139.0</ele><time>2026-04-11T11:52:46Z</time></trkpt><trkpt lat="44.78000897924757" lon="8.129125014318436"><ele>139.0</ele><time>2026-04-11T11:52:47Z</time></trkpt><trkpt lat="44.779942979679284" lon="8.129097763645357"><ele>139.0</ele><time>2026-04-11T11:52:48Z</time></trkpt><trkpt lat="44.77987698877326" lon="8.129076810854988"><ele>139.0</ele><time>2026-04-11T11:52:49Z</time></trkpt><trkpt lat="44.77981350647359" lon="8.129053106250996"><ele>139.0</ele><time>2026-04-11T11:52:50Z</time></trkpt><trkpt lat="44.77970081434861" lon="8.129002116198865"><ele>139.0</ele><time>2026-04-11T11:52:52Z</time></trkpt><trkpt lat="44.77958802416733" lon="8.128947293774612"><ele>139.2</ele><time>2026-04-11T11:52:54Z</time></trkpt><trkpt lat="44.779484205849926" lon="8.128892058295085"><ele>139.4</ele><time>2026-04-11T11:52:56Z</time></trkpt><trkpt lat="44.779379116673056" lon="8.128842354482014"><ele>139.6</ele><time>2026-04-11T11:52:58Z</time></trkpt><trkpt lat="44.77928545402575" lon="8.128794810561223"><ele>139.8</ele><time>2026-04-11T11:53:00Z</time></trkpt><trkpt lat="44.77918791646606" lon="8.1287482131628"><ele>140.0</ele><time>2026-04-11T11:53:02Z</time></trkpt><trkpt lat="44.77908294605537" lon="8.128688251429063"><ele>139.6</ele><time>2026-04-11T11:53:04Z</time></trkpt><trkpt lat="44.77897877665787" lon="8.128629473957622"><ele>139.2</ele><time>2026-04-11T11:53:06Z</time></trkpt><trkpt lat="44.77887159505579" lon="8.128574731848204"><ele>138.8</ele><time>2026-04-11T11:53:08Z</time></trkpt><trkpt lat="44.77877222494024" lon="8.128517730729842"><ele>138.4</ele><time>2026-04-11T11:53:10Z</time></trkpt><trkpt lat="44.77868459325156" lon="8.128472128014046"><ele>138.0</ele><time>2026-04-11T11:53:12Z</time></trkpt><trkpt lat="44.77860409590795" lon="8.128415714945572"><ele>138.0</ele><time>2026-04-11T11:53:14Z</time></trkpt><trkpt lat="44.77850669274416" lon="8.128323699562337"><ele>138.0</ele><time>2026-04-11T11:53:16Z</time></trkpt><trkpt lat="44.7784366380217" lon="8.128286344394517"><ele>138.0</ele><time>2026-04-11T11:53:17Z</time></trkpt><trkpt lat="44.778370498893565" lon="8.128244883629273"><ele>138.0</ele><time>2026-04-11T11:53:18Z</time></trkpt><trkpt lat="44.77829857182931" lon="8.128228663769761"><ele>138.0</ele><time>2026-04-11T11:53:19Z</time></trkpt><trkpt lat="44.77824074934384" lon="8.128167718808054"><ele>138.0</ele><time>2026-04-11T11:53:20Z</time></trkpt><trkpt lat="44.77811978220459" lon="8.128133699693667"><ele>138.0</ele><time>2026-04-11T11:53:22Z</time></trkpt><trkpt lat="44.77800041180207" lon="8.128093137318691"><ele>138.0</ele><time>2026-04-11T11:53:24Z</time></trkpt><trkpt lat="44.77788037399695" lon="8.12805404774357"><ele>138.0</ele><time>2026-04-11T11:53:26Z</time></trkpt><trkpt lat="44.777762370525565" lon="8.12803099300109"><ele>138.0</ele><time>2026-04-11T11:53:28Z</time></trkpt><trkpt lat="44.77765574593378" lon="8.128021090115396"><ele>138.0</ele><time>2026-04-11T11:53:30Z</time></trkpt><trkpt lat="44.7775563230918" lon="8.128047857951648"><ele>138.0</ele><time>2026-04-11T11:53:32Z</time></trkpt><trkpt lat="44.77745738215075" lon="8.128046674103981"><ele>138.0</ele><time>2026-04-11T11:53:34Z</time></trkpt><trkpt lat="44.77735879350354" lon="8.128068457254335"><ele>138.0</ele><time>2026-04-11T11:53:36Z</time></trkpt><trkpt lat="44.77725665790709" lon="8.128091024049958"><ele>138.0</ele><time>2026-04-11T11:53:37.999Z</time></trkpt><trkpt lat="44.777160024781324" lon="8.12811237511121"><ele>138.0</ele><time>2026-04-11T11:53:39.999Z</time></trkpt><trkpt lat="44.777052640024586" lon="8.128137496534178"><ele>138.0</ele><time>2026-04-11T11:53:41.999Z</time></trkpt><trkpt lat="44.776959350604535" lon="8.128161270067528"><ele>138.0</ele><time>2026-04-11T11:53:43.999Z</time></trkpt><trkpt lat="44.7768816979665" lon="8.128182219160125"><ele>138.0</ele><time>2026-04-11T11:53:45.999Z</time></trkpt><trkpt lat="44.776801852545034" lon="8.128195510054443"><ele>138.0</ele><time>2026-04-11T11:53:47.999Z</time></trkpt><trkpt lat="44.7767291988896" lon="8.128220381331797"><ele>138.0</ele><time>2026-04-11T11:53:49.999Z</time></trkpt><trkpt lat="44.77664006367308" lon="8.128258644022528"><ele>138.20000000000002</ele><time>2026-04-11T11:53:51.999Z</time></trkpt><trkpt lat="44.77655685385523" lon="8.128281331850097"><ele>138.4</ele><time>2026-04-11T11:53:53.999Z</time></trkpt><trkpt lat="44.77648219073346" lon="8.128334318980972"><ele>138.60000000000002</ele><time>2026-04-11T11:53:55.999Z</time></trkpt><trkpt lat="44.7764061295794" lon="8.128392823434307"><ele>138.8</ele><time>2026-04-11T11:53:59.999Z</time></trkpt><trkpt lat="44.77632241594672" lon="8.128422306194462"><ele>139.0</ele><time>2026-04-11T11:54:01.999Z</time></trkpt><trkpt lat="44.77639523243779" lon="8.128093905629855"><ele>139.0</ele><time>2026-04-11T11:54:02.999Z</time></trkpt><trkpt lat="44.77614533198093" lon="8.128129567178425"><ele>139.0</ele><time>2026-04-11T11:54:03.999Z</time></trkpt><trkpt lat="44.77606518088465" lon="8.128062666293435"><ele>139.0</ele><time>2026-04-11T11:54:05.999Z</time></trkpt><trkpt lat="44.77597571109731" lon="8.12798918791017"><ele>139.0</ele><time>2026-04-11T11:54:07.999Z</time></trkpt><trkpt lat="44.77588919723643" lon="8.127912654914873"><ele>138.8</ele><time>2026-04-11T11:54:09.999Z</time></trkpt><trkpt lat="44.77580584306728" lon="8.127842331904791"><ele>138.60000000000002</ele><time>2026-04-11T11:54:11.999Z</time></trkpt><trkpt lat="44.775728474124655" lon="8.1277611379844"><ele>138.4</ele><time>2026-04-11T11:54:13.999Z</time></trkpt><trkpt lat="44.77565036688212" lon="8.127692098156292"><ele>138.20000000000002</ele><time>2026-04-11T11:54:15.999Z</time></trkpt><trkpt lat="44.77557634170037" lon="8.127614929041167"><ele>138.0</ele><time>2026-04-11T11:54:17.999Z</time></trkpt><trkpt lat="44.775496313571594" lon="8.127542736251035"><ele>138.0</ele><time>2026-04-11T11:54:19.999Z</time></trkpt><trkpt lat="44.77542109115517" lon="8.127470006508231"><ele>138.0</ele><time>2026-04-11T11:54:21.999Z</time></trkpt><trkpt lat="44.77533409601347" lon="8.127388846863797"><ele>138.0</ele><time>2026-04-11T11:54:24.999Z</time></trkpt><trkpt lat="44.775254304881095" lon="8.127300624659311"><ele>138.0</ele><time>2026-04-11T11:54:26.999Z</time></trkpt><trkpt lat="44.775189731197216" lon="8.12724761995943"><ele>138.0</ele><time>2026-04-11T11:54:28.999Z</time></trkpt><trkpt lat="44.77507600116968" lon="8.127136555947253"><ele>138.0</ele><time>2026-04-11T11:54:31Z</time></trkpt><trkpt lat="44.7749944931051" lon="8.127064799665481"><ele>138.0</ele><time>2026-04-11T11:54:33Z</time></trkpt><trkpt lat="44.77491379881676" lon="8.127000188378325"><ele>138.0</ele><time>2026-04-11T11:54:35Z</time></trkpt><trkpt lat="44.774840422029634" lon="8.126915349520319"><ele>138.0</ele><time>2026-04-11T11:54:37Z</time></trkpt><trkpt lat="44.77476094064185" lon="8.126841422376229"><ele>138.0</ele><time>2026-04-11T11:54:39Z</time></trkpt><trkpt lat="44.77468146966256" lon="8.126769663925876"><ele>138.0</ele><time>2026-04-11T11:54:41Z</time></trkpt><trkpt lat="44.774606922605884" lon="8.126694256361631"><ele>138.0</ele><time>2026-04-11T11:54:43Z</time></trkpt><trkpt lat="44.77453020132356" lon="8.126621664817803"><ele>138.0</ele><time>2026-04-11T11:54:45Z</time></trkpt><trkpt lat="44.7744609266461" lon="8.126542252371419"><ele>138.0</ele><time>2026-04-11T11:54:47Z</time></trkpt><trkpt lat="44.774385239535064" lon="8.12646763124258"><ele>138.0</ele><time>2026-04-11T11:54:49Z</time></trkpt><trkpt lat="44.774297114417024" lon="8.1263977209442"><ele>137.6</ele><time>2026-04-11T11:54:51Z</time></trkpt><trkpt lat="44.774219333077504" lon="8.126328709525266"><ele>137.20000000000002</ele><time>2026-04-11T11:54:53Z</time></trkpt><trkpt lat="44.774140611422375" lon="8.126259516055086"><ele>136.8</ele><time>2026-04-11T11:54:55Z</time></trkpt><trkpt lat="44.774064103672174" lon="8.126181143496954"><ele>136.4</ele><time>2026-04-11T11:54:57Z</time></trkpt><trkpt lat="44.77397887518935" lon="8.126108325427941"><ele>136.0</ele><time>2026-04-11T11:54:59Z</time></trkpt><trkpt lat="44.77390074155267" lon="8.126042502681177"><ele>136.0</ele><time>2026-04-11T11:55:01Z</time></trkpt><trkpt lat="44.773832064164864" lon="8.12596682081633"><ele>136.0</ele><time>2026-04-11T11:55:03Z</time></trkpt><trkpt lat="44.7737684629368" lon="8.125896621494217"><ele>136.0</ele><time>2026-04-11T11:55:05Z</time></trkpt><trkpt lat="44.77370527013433" lon="8.125813358886749"><ele>136.0</ele><time>2026-04-11T11:55:08Z</time></trkpt><trkpt lat="44.77369947884091" lon="8.125716921560745"><ele>136.0</ele><time>2026-04-11T11:55:10Z</time></trkpt><trkpt lat="44.77365992772061" lon="8.125597918128436"><ele>136.0</ele><time>2026-04-11T11:55:12Z</time></trkpt><trkpt lat="44.7735769777541" lon="8.125483500178385"><ele>136.2</ele><time>2026-04-11T11:55:14Z</time></trkpt><trkpt lat="44.7734922371078" lon="8.125376623117468"><ele>136.39999999999998</ele><time>2026-04-11T11:55:16Z</time></trkpt><trkpt lat="44.77343301571388" lon="8.125262395469294"><ele>136.6</ele><time>2026-04-11T11:55:18Z</time></trkpt><trkpt lat="44.773361710745824" lon="8.12516514234943"><ele>136.79999999999998</ele><time>2026-04-11T11:55:20Z</time></trkpt><trkpt lat="44.77329092245862" lon="8.125060998161047"><ele>137.0</ele><time>2026-04-11T11:55:22Z</time></trkpt><trkpt lat="44.77321889875387" lon="8.124960933069529"><ele>137.0</ele><time>2026-04-11T11:55:24Z</time></trkpt><trkpt lat="44.77314936378761" lon="8.124852761873655"><ele>137.0</ele><time>2026-04-11T11:55:26Z</time></trkpt><trkpt lat="44.77306917429745" lon="8.124743626977615"><ele>137.0</ele><time>2026-04-11T11:55:28Z</time></trkpt><trkpt lat="44.77299338620454" lon="8.124639339871631"><ele>137.0</ele><time>2026-04-11T11:55:30Z</time></trkpt><trkpt lat="44.77291894111465" lon="8.124527051127822"><ele>137.0</ele><time>2026-04-11T11:55:32Z</time></trkpt><trkpt lat="44.772840704160565" lon="8.124421621944792"><ele>137.0</ele><time>2026-04-11T11:55:34Z</time></trkpt><trkpt lat="44.772755735177896" lon="8.124323036893786"><ele>137.0</ele><time>2026-04-11T11:55:36Z</time></trkpt><trkpt lat="44.772668844261275" lon="8.124229155059572"><ele>137.0</ele><time>2026-04-11T11:55:38Z</time></trkpt><trkpt lat="44.772585056303484" lon="8.124140618363032"><ele>137.0</ele><time>2026-04-11T11:55:40Z</time></trkpt><trkpt lat="44.77249623213388" lon="8.124061840966677"><ele>137.0</ele><time>2026-04-11T11:55:42Z</time></trkpt><trkpt lat="44.772412267249365" lon="8.123989070303075"><ele>137.33333333333331</ele><time>2026-04-11T11:55:44Z</time></trkpt><trkpt lat="44.77232007495213" lon="8.123929593709882"><ele>137.66666666666666</ele><time>2026-04-11T11:55:46Z</time></trkpt><trkpt lat="44.77223151549134" lon="8.123872760567055"><ele>138.0</ele><time>2026-04-11T11:55:48Z</time></trkpt><trkpt lat="44.77215787615098" lon="8.123793887894951"><ele>138.33333333333334</ele><time>2026-04-11T11:55:49.999Z</time></trkpt><trkpt lat="44.772101472185" lon="8.123733312578622"><ele>138.66666666666669</ele><time>2026-04-11T11:55:51.999Z</time></trkpt><trkpt lat="44.77206351685182" lon="8.123639105163583"><ele>139.0</ele><time>2026-04-11T12:10:58.999Z</time></trkpt><trkpt lat="44.77200605532065" lon="8.123598045395452"><ele>139.0</ele><time>2026-04-11T12:11:01.999Z</time></trkpt><trkpt lat="44.77194601920842" lon="8.12355115585227"><ele>139.0</ele><time>2026-04-11T12:11:05.999Z</time></trkpt><trkpt lat="44.771885833892206" lon="8.123463594871401"><ele>139.0</ele><time>2026-04-11T12:11:09.999Z</time></trkpt><trkpt lat="44.77182659796011" lon="8.123409550794992"><ele>139.0</ele><time>2026-04-11T12:11:12.999Z</time></trkpt><trkpt lat="44.771745488455615" lon="8.123341813714816"><ele>139.0</ele><time>2026-04-11T12:11:15.999Z</time></trkpt><trkpt lat="44.77169356084641" lon="8.123290767376027"><ele>139.0</ele><time>2026-04-11T12:11:17.999Z</time></trkpt><trkpt lat="44.77162491386391" lon="8.123209065848116"><ele>139.33333333333334</ele><time>2026-04-11T12:11:20.998Z</time></trkpt><trkpt lat="44.77155712791507" lon="8.123121565724093"><ele>139.66666666666669</ele><time>2026-04-11T12:11:23.998Z</time></trkpt><trkpt lat="44.77148521219218" lon="8.12303871843614"><ele>140.0</ele><time>2026-04-11T12:11:26.998Z</time></trkpt><trkpt lat="44.77142373625682" lon="8.122963521709547"><ele>140.33333333333334</ele><time>2026-04-11T12:11:28.999Z</time></trkpt><trkpt lat="44.77136112912277" lon="8.122896579608907"><ele>140.66666666666666</ele><time>2026-04-11T12:11:30.999Z</time></trkpt><trkpt lat="44.771289674217115" lon="8.1227967162808"><ele>141.0</ele><time>2026-04-11T12:11:34.999Z</time></trkpt><trkpt lat="44.77122401254649" lon="8.122704492595096"><ele>141.0</ele><time>2026-04-11T12:11:36.999Z</time></trkpt><trkpt lat="44.77115678357507" lon="8.122607214812348"><ele>141.0</ele><time>2026-04-11T12:11:38.999Z</time></trkpt><trkpt lat="44.77109209839713" lon="8.122544859523977"><ele>141.0</ele><time>2026-04-11T12:11:40.999Z</time></trkpt><trkpt lat="44.771019156296774" lon="8.122484180406826"><ele>141.0</ele><time>2026-04-11T12:11:42.999Z</time></trkpt><trkpt lat="44.77095260300273" lon="8.122397459972236"><ele>141.0</ele><time>2026-04-11T12:11:44.999Z</time></trkpt><trkpt lat="44.770882584077626" lon="8.122322897568294"><ele>141.0</ele><time>2026-04-11T12:11:46.999Z</time></trkpt><trkpt lat="44.77081473308104" lon="8.122245149710977"><ele>140.66666666666666</ele><time>2026-04-11T12:11:48.999Z</time></trkpt><trkpt lat="44.77074746304275" lon="8.122165880723436"><ele>140.33333333333334</ele><time>2026-04-11T12:11:50.999Z</time></trkpt><trkpt lat="44.770686106646316" lon="8.122086958603276"><ele>140.0</ele><time>2026-04-11T12:11:52.999Z</time></trkpt><trkpt lat="44.770618220782914" lon="8.122015663543102"><ele>139.66666666666669</ele><time>2026-04-11T12:11:54.999Z</time></trkpt><trkpt lat="44.77055344062261" lon="8.12195525769779"><ele>139.33333333333334</ele><time>2026-04-11T12:11:56.999Z</time></trkpt><trkpt lat="44.77049434256714" lon="8.121877949763258"><ele>139.0</ele><time>2026-04-11T12:11:58.999Z</time></trkpt><trkpt lat="44.77041242385369" lon="8.121770992015017"><ele>139.0</ele><time>2026-04-11T12:12:00.999Z</time></trkpt><trkpt lat="44.77034149813668" lon="8.12171290773088"><ele>139.0</ele><time>2026-04-11T12:12:02.999Z</time></trkpt><trkpt lat="44.77028270567075" lon="8.121654771275988"><ele>139.0</ele><time>2026-04-11T12:12:05.999Z</time></trkpt><trkpt lat="44.77023056927064" lon="8.121597551752535"><ele>139.0</ele><time>2026-04-11T12:12:07.999Z</time></trkpt><trkpt lat="44.77016545657965" lon="8.121503818768064"><ele>139.0</ele><time>2026-04-11T12:12:10.999Z</time></trkpt><trkpt lat="44.7701146062098" lon="8.121451444927088"><ele>139.0</ele><time>2026-04-11T12:12:12.999Z</time></trkpt><trkpt lat="44.77000856498898" lon="8.1213408213918"><ele>139.2</ele><time>2026-04-11T12:12:14.999Z</time></trkpt><trkpt lat="44.76995296998766" lon="8.121270483243826"><ele>139.4</ele><time>2026-04-11T12:12:15.999Z</time></trkpt><trkpt lat="44.76988816895989" lon="8.121183364328893"><ele>139.6</ele><time>2026-04-11T12:12:17.999Z</time></trkpt><trkpt lat="44.769831288001484" lon="8.121109634125984"><ele>139.8</ele><time>2026-04-11T12:12:20.999Z</time></trkpt><trkpt lat="44.76976819574118" lon="8.121048435920375"><ele>140.0</ele><time>2026-04-11T12:12:22.999Z</time></trkpt><trkpt lat="44.76962695121643" lon="8.120921247315641"><ele>140.0</ele><time>2026-04-11T12:12:23.999Z</time></trkpt><trkpt lat="44.76958383011702" lon="8.120845814567005"><ele>140.0</ele><time>2026-04-11T12:12:26.999Z</time></trkpt><trkpt lat="44.76952879876732" lon="8.120790747322213"><ele>140.0</ele><time>2026-04-11T12:12:27.999Z</time></trkpt><trkpt lat="44.76943717023415" lon="8.120689697044643"><ele>140.0</ele><time>2026-04-11T12:12:29.999Z</time></trkpt><trkpt lat="44.769346137133574" lon="8.120598557223266"><ele>140.0</ele><time>2026-04-11T12:12:31.999Z</time></trkpt><trkpt lat="44.7692671341174" lon="8.12051416169836"><ele>140.0</ele><time>2026-04-11T12:12:33.999Z</time></trkpt><trkpt lat="44.76917451860162" lon="8.120414657626275"><ele>140.0</ele><time>2026-04-11T12:12:35.999Z</time></trkpt><trkpt lat="44.769096960822615" lon="8.120337783819572"><ele>140.0</ele><time>2026-04-11T12:12:37.999Z</time></trkpt><trkpt lat="44.76904063133531" lon="8.120275485796247"><ele>140.0</ele><time>2026-04-11T12:12:39.999Z</time></trkpt><trkpt lat="44.76898168374814" lon="8.120186031727544"><ele>140.0</ele><time>2026-04-11T12:12:41.999Z</time></trkpt><trkpt lat="44.7689002538365" lon="8.120120933819454"><ele>140.0</ele><time>2026-04-11T12:12:43.999Z</time></trkpt><trkpt lat="44.76881586630012" lon="8.12002826139609"><ele>140.0</ele><time>2026-04-11T12:12:45.999Z</time></trkpt><trkpt lat="44.768761359861074" lon="8.119964941879447"><ele>140.0</ele><time>2026-04-11T12:12:46.999Z</time></trkpt><trkpt lat="44.76868943590019" lon="8.119873499515842"><ele>140.0</ele><time>2026-04-11T12:12:48.999Z</time></trkpt><trkpt lat="44.76862106526143" lon="8.119801721390905"><ele>140.0</ele><time>2026-04-11T12:12:50.999Z</time></trkpt><trkpt lat="44.768566350999315" lon="8.119737977812495"><ele>140.0</ele><time>2026-04-11T12:12:53.999Z</time></trkpt><trkpt lat="44.76846448554482" lon="8.119648688246679"><ele>140.0</ele><time>2026-04-11T12:12:56.999Z</time></trkpt><trkpt lat="44.768410538161" lon="8.119566277211536"><ele>140.0</ele><time>2026-04-11T12:12:57.999Z</time></trkpt><trkpt lat="44.76836377896943" lon="8.119505334007997"><ele>140.0</ele><time>2026-04-11T12:12:58.999Z</time></trkpt><trkpt lat="44.76828545681848" lon="8.119430085575143"><ele>140.0</ele><time>2026-04-11T12:13:00.999Z</time></trkpt><trkpt lat="44.768207306241955" lon="8.119344408785457"><ele>140.0</ele><time>2026-04-11T12:13:02.999Z</time></trkpt><trkpt lat="44.76812818443511" lon="8.119249350206287"><ele>140.0</ele><time>2026-04-11T12:13:05.999Z</time></trkpt><trkpt lat="44.7680644701838" lon="8.119158735542587"><ele>140.0</ele><time>2026-04-11T12:13:08.999Z</time></trkpt><trkpt lat="44.768007861668416" lon="8.119103297832574"><ele>140.0</ele><time>2026-04-11T12:13:10.999Z</time></trkpt><trkpt lat="44.767942575277175" lon="8.119007932314306"><ele>140.0</ele><time>2026-04-11T12:13:13.999Z</time></trkpt><trkpt lat="44.767839634107915" lon="8.118900181789144"><ele>140.0</ele><time>2026-04-11T12:13:15.999Z</time></trkpt><trkpt lat="44.76774158380276" lon="8.118887421598108"><ele>140.0</ele><time>2026-04-11T12:13:17.999Z</time></trkpt><trkpt lat="44.7676312655804" lon="8.118857013647004"><ele>140.0</ele><time>2026-04-11T12:13:19.999Z</time></trkpt><trkpt lat="44.76756666562551" lon="8.118864581311739"><ele>140.0</ele><time>2026-04-11T12:13:20.999Z</time></trkpt><trkpt lat="44.767489569244944" lon="8.118815524331707"><ele>140.0</ele><time>2026-04-11T12:13:23.999Z</time></trkpt><trkpt lat="44.76742085794068" lon="8.118796156401134"><ele>140.0</ele><time>2026-04-11T12:13:25.998Z</time></trkpt><trkpt lat="44.76735023811407" lon="8.118774223448579"><ele>140.0</ele><time>2026-04-11T12:13:26.998Z</time></trkpt><trkpt lat="44.76723264042194" lon="8.118746958454636"><ele>140.0</ele><time>2026-04-11T12:13:27.998Z</time></trkpt><trkpt lat="44.7671277873107" lon="8.118712443445276"><ele>140.0</ele><time>2026-04-11T12:13:29.998Z</time></trkpt><trkpt lat="44.76703633194525" lon="8.118683214633162"><ele>140.0</ele><time>2026-04-11T12:13:31.998Z</time></trkpt><trkpt lat="44.76693939737175" lon="8.118641696966117"><ele>140.0</ele><time>2026-04-11T12:13:33.998Z</time></trkpt><trkpt lat="44.766844551594275" lon="8.118614287288445"><ele>140.0</ele><time>2026-04-11T12:13:35.998Z</time></trkpt><trkpt lat="44.76675048007931" lon="8.118587010177498"><ele>140.0</ele><time>2026-04-11T12:13:37.998Z</time></trkpt><trkpt lat="44.76664225770844" lon="8.118576187693302"><ele>140.2</ele><time>2026-04-11T12:13:39.998Z</time></trkpt><trkpt lat="44.76654554944916" lon="8.118528482488044"><ele>140.4</ele><time>2026-04-11T12:13:41.998Z</time></trkpt><trkpt lat="44.766438907450876" lon="8.118498297536664"><ele>140.6</ele><time>2026-04-11T12:13:43.999Z</time></trkpt><trkpt lat="44.766337788416585" lon="8.118471684650647"><ele>140.8</ele><time>2026-04-11T12:13:45.999Z</time></trkpt><trkpt lat="44.76625509919709" lon="8.118471798270441"><ele>141.0</ele><time>2026-04-11T12:13:46.999Z</time></trkpt><trkpt lat="44.76615382644322" lon="8.118427561937327"><ele>141.0</ele><time>2026-04-11T12:13:48.999Z</time></trkpt><trkpt lat="44.766062621031985" lon="8.118430519297684"><ele>141.0</ele><time>2026-04-11T12:13:50.999Z</time></trkpt><trkpt lat="44.76595330892389" lon="8.11842060458566"><ele>141.0</ele><time>2026-04-11T12:13:52.999Z</time></trkpt><trkpt lat="44.76584106276538" lon="8.118430757682377"><ele>141.0</ele><time>2026-04-11T12:13:54.999Z</time></trkpt><trkpt lat="44.76574111608387" lon="8.1184195759032"><ele>141.0</ele><time>2026-04-11T12:13:56.999Z</time></trkpt><trkpt lat="44.76564094804749" lon="8.118350420798556"><ele>141.0</ele><time>2026-04-11T12:13:58.999Z</time></trkpt><trkpt lat="44.765551038511575" lon="8.118315252952959"><ele>141.0</ele><time>2026-04-11T12:14:00.999Z</time></trkpt><trkpt lat="44.7654655058548" lon="8.118228136734006"><ele>141.0</ele><time>2026-04-11T12:14:02.999Z</time></trkpt><trkpt lat="44.76537880377638" lon="8.118145657231828"><ele>141.0</ele><time>2026-04-11T12:14:04.999Z</time></trkpt><trkpt lat="44.7652878190387" lon="8.118055372016988"><ele>141.0</ele><time>2026-04-11T12:14:06.999Z</time></trkpt><trkpt lat="44.76518936652022" lon="8.11797719240413"><ele>140.8</ele><time>2026-04-11T12:14:08.999Z</time></trkpt><trkpt lat="44.76509820401639" lon="8.117877178199112"><ele>140.6</ele><time>2026-04-11T12:14:10.999Z</time></trkpt><trkpt lat="44.764998340249385" lon="8.117799777633518"><ele>140.4</ele><time>2026-04-11T12:14:12.999Z</time></trkpt><trkpt lat="44.76490108256687" lon="8.117723634582678"><ele>140.2</ele><time>2026-04-11T12:14:14.999Z</time></trkpt><trkpt lat="44.76485129579196" lon="8.117664624586642"><ele>140.0</ele><time>2026-04-11T12:14:15.999Z</time></trkpt><trkpt lat="44.76473627505338" lon="8.117607996427347"><ele>140.0</ele><time>2026-04-11T12:14:17.999Z</time></trkpt><trkpt lat="44.76463268128001" lon="8.117518972763792"><ele>140.0</ele><time>2026-04-11T12:14:19.999Z</time></trkpt><trkpt lat="44.764568548486245" lon="8.11750433504132"><ele>140.0</ele><time>2026-04-11T12:14:20.999Z</time></trkpt><trkpt lat="44.76446785698526" lon="8.117421815948669"><ele>140.0</ele><time>2026-04-11T12:14:22.999Z</time></trkpt><trkpt lat="44.7643540638867" lon="8.117380448293453"><ele>140.0</ele><time>2026-04-11T12:14:24.999Z</time></trkpt><trkpt lat="44.76424794589355" lon="8.11732882704465"><ele>140.2</ele><time>2026-04-11T12:14:26.999Z</time></trkpt><trkpt lat="44.764151582596796" lon="8.117249533963761"><ele>140.4</ele><time>2026-04-11T12:14:28.999Z</time></trkpt><trkpt lat="44.76406815328615" lon="8.117187273947893"><ele>140.6</ele><time>2026-04-11T12:14:30.999Z</time></trkpt><trkpt lat="44.764017887193816" lon="8.117079288512569"><ele>140.8</ele><time>2026-04-11T12:14:32.999Z</time></trkpt><trkpt lat="44.764021885573364" lon="8.116936853182091"><ele>141.0</ele><time>2026-04-11T12:14:34.999Z</time></trkpt><trkpt lat="44.76401691737172" lon="8.116795837053584"><ele>141.0</ele><time>2026-04-11T12:14:36.999Z</time></trkpt><trkpt lat="44.76400651669656" lon="8.11666897507829"><ele>141.0</ele><time>2026-04-11T12:14:38.999Z</time></trkpt><trkpt lat="44.76400837076934" lon="8.116523518493269"><ele>141.0</ele><time>2026-04-11T12:14:40.999Z</time></trkpt><trkpt lat="44.76399869691583" lon="8.11637779022668"><ele>141.0</ele><time>2026-04-11T12:14:42.999Z</time></trkpt><trkpt lat="44.76399611604983" lon="8.116223706853784"><ele>141.0</ele><time>2026-04-11T12:14:44.999Z</time></trkpt><trkpt lat="44.76399297314846" lon="8.116068279934266"><ele>141.0</ele><time>2026-04-11T12:14:46.999Z</time></trkpt><trkpt lat="44.7639863345711" lon="8.115920798202922"><ele>141.0</ele><time>2026-04-11T12:14:48.999Z</time></trkpt><trkpt lat="44.76398006448799" lon="8.115762933205257"><ele>141.0</ele><time>2026-04-11T12:14:50.999Z</time></trkpt><trkpt lat="44.76398722481336" lon="8.115670245850568"><ele>141.0</ele><time>2026-04-11T12:14:51.999Z</time></trkpt><trkpt lat="44.76397274896186" lon="8.1155311231574"><ele>141.0</ele><time>2026-04-11T12:14:53.999Z</time></trkpt><trkpt lat="44.763966134179526" lon="8.115383735200023"><ele>140.8</ele><time>2026-04-11T12:14:55.999Z</time></trkpt><trkpt lat="44.76396137535625" lon="8.115246925331567"><ele>140.6</ele><time>2026-04-11T12:14:57.999Z</time></trkpt><trkpt lat="44.763952210530356" lon="8.115121679818225"><ele>140.4</ele><time>2026-04-11T12:14:59.999Z</time></trkpt><trkpt lat="44.76395872112925" lon="8.11498154495405"><ele>140.2</ele><time>2026-04-11T12:15:01.999Z</time></trkpt><trkpt lat="44.76392104517592" lon="8.114845330471972"><ele>140.0</ele><time>2026-04-11T12:15:03.999Z</time></trkpt><trkpt lat="44.76387561203908" lon="8.114775085869566"><ele>140.16666666666666</ele><time>2026-04-11T12:15:04.999Z</time></trkpt><trkpt lat="44.763811007634374" lon="8.114740299966947"><ele>140.33333333333331</ele><time>2026-04-11T12:15:05.999Z</time></trkpt><trkpt lat="44.76371144397934" lon="8.11471631981704"><ele>140.5</ele><time>2026-04-11T12:15:07.999Z</time></trkpt><trkpt lat="44.7636439417375" lon="8.114661076549424"><ele>140.66666666666666</ele><time>2026-04-11T12:15:10Z</time></trkpt><trkpt lat="44.763570118554384" lon="8.114611442750016"><ele>140.83333333333334</ele><time>2026-04-11T12:15:12Z</time></trkpt><trkpt lat="44.76349376179088" lon="8.114575403885995"><ele>141.0</ele><time>2026-04-11T12:15:14Z</time></trkpt><trkpt lat="44.76341880664741" lon="8.114527864397532"><ele>141.0</ele><time>2026-04-11T12:15:16Z</time></trkpt><trkpt lat="44.76336057665501" lon="8.114460309234637"><ele>141.0</ele><time>2026-04-11T12:15:18Z</time></trkpt><trkpt lat="44.76329250780889" lon="8.11440882832516"><ele>141.0</ele><time>2026-04-11T12:15:20Z</time></trkpt><trkpt lat="44.76320554874154" lon="8.114368444449921"><ele>141.0</ele><time>2026-04-11T12:15:22Z</time></trkpt><trkpt lat="44.76310920478718" lon="8.11430394420301"><ele>141.0</ele><time>2026-04-11T12:15:24Z</time></trkpt><trkpt lat="44.763025098271555" lon="8.114236960186707"><ele>141.0</ele><time>2026-04-11T12:15:26Z</time></trkpt><trkpt lat="44.76283810059972" lon="8.114100798340958"><ele>141.2</ele><time>2026-04-11T12:15:31.997Z</time></trkpt><trkpt lat="44.76273556532373" lon="8.114026701572945"><ele>141.39999999999998</ele><time>2026-04-11T12:15:33.997Z</time></trkpt><trkpt lat="44.76263831892372" lon="8.113962537861608"><ele>141.6</ele><time>2026-04-11T12:15:35.997Z</time></trkpt><trkpt lat="44.76255291369722" lon="8.113910090782289"><ele>141.79999999999998</ele><time>2026-04-11T12:15:38.997Z</time></trkpt><trkpt lat="44.76247747798532" lon="8.113855232719871"><ele>142.0</ele><time>2026-04-11T12:15:41.997Z</time></trkpt><trkpt lat="44.762371134216764" lon="8.113776647525235"><ele>142.2</ele><time>2026-04-11T12:15:43.997Z</time></trkpt><trkpt lat="44.76231066651377" lon="8.113722489757706"><ele>142.39999999999998</ele><time>2026-04-11T12:15:44.997Z</time></trkpt><trkpt lat="44.76221713417825" lon="8.113649278096247"><ele>142.60000000000002</ele><time>2026-04-11T12:15:46.997Z</time></trkpt><trkpt lat="44.762119707872806" lon="8.11359629102734"><ele>142.8</ele><time>2026-04-11T12:15:48.997Z</time></trkpt><trkpt lat="44.762029650754556" lon="8.113529850228273"><ele>143.0</ele><time>2026-04-11T12:15:50.997Z</time></trkpt><trkpt lat="44.76194883384727" lon="8.113477287086678"><ele>143.0</ele><time>2026-04-11T12:15:52.997Z</time></trkpt><trkpt lat="44.76186776577538" lon="8.113415264371238"><ele>143.0</ele><time>2026-04-11T12:15:54.998Z</time></trkpt><trkpt lat="44.76179432128271" lon="8.113368929142212"><ele>143.0</ele><time>2026-04-11T12:15:56.998Z</time></trkpt><trkpt lat="44.76172994697703" lon="8.113301530382978"><ele>143.0</ele><time>2026-04-11T12:15:58.998Z</time></trkpt><trkpt lat="44.761656152718956" lon="8.11325140640986"><ele>143.0</ele><time>2026-04-11T12:16:00.998Z</time></trkpt><trkpt lat="44.7615729590769" lon="8.1131948980455"><ele>143.0</ele><time>2026-04-11T12:16:02.998Z</time></trkpt><trkpt lat="44.761482024821454" lon="8.113154921758909"><ele>142.8</ele><time>2026-04-11T12:16:04.998Z</time></trkpt><trkpt lat="44.76140217111796" lon="8.113084448257844"><ele>142.60000000000002</ele><time>2026-04-11T12:16:06.998Z</time></trkpt><trkpt lat="44.76131723492049" lon="8.113024846073976"><ele>142.39999999999998</ele><time>2026-04-11T12:16:08.998Z</time></trkpt><trkpt lat="44.76123034607564" lon="8.112976151640122"><ele>142.2</ele><time>2026-04-11T12:16:10.998Z</time></trkpt><trkpt lat="44.76115715795122" lon="8.11289698887464"><ele>142.0</ele><time>2026-04-11T12:16:12.998Z</time></trkpt><trkpt lat="44.761074294475925" lon="8.112823776422838"><ele>141.79999999999998</ele><time>2026-04-11T12:16:14.998Z</time></trkpt><trkpt lat="44.760983547220576" lon="8.11277359731797"><ele>141.6</ele><time>2026-04-11T12:16:16.998Z</time></trkpt><trkpt lat="44.76090196132228" lon="8.112713228653488"><ele>141.39999999999998</ele><time>2026-04-11T12:16:18.998Z</time></trkpt><trkpt lat="44.76081389877254" lon="8.112652614985912"><ele>141.2</ele><time>2026-04-11T12:16:20.998Z</time></trkpt><trkpt lat="44.76073817599854" lon="8.11260212869374"><ele>141.0</ele><time>2026-04-11T12:16:22.999Z</time></trkpt><trkpt lat="44.76065855682144" lon="8.112555025638772"><ele>141.0</ele><time>2026-04-11T12:16:24.999Z</time></trkpt><trkpt lat="44.76058279389052" lon="8.112504635633165"><ele>141.0</ele><time>2026-04-11T12:16:27.999Z</time></trkpt><trkpt lat="44.76050044939333" lon="8.112446269114663"><ele>141.0</ele><time>2026-04-11T12:16:30.999Z</time></trkpt><trkpt lat="44.76034707118321" lon="8.112341869054418"><ele>141.0</ele><time>2026-04-11T12:16:32.999Z</time></trkpt><trkpt lat="44.76027977419172" lon="8.112258065850511"><ele>141.0</ele><time>2026-04-11T12:16:34.999Z</time></trkpt><trkpt lat="44.76024085206766" lon="8.112143053592161"><ele>141.0</ele><time>2026-04-11T12:16:36.999Z</time></trkpt><trkpt lat="44.760172823088745" lon="8.11205627995715"><ele>141.0</ele><time>2026-04-11T12:16:38.999Z</time></trkpt><trkpt lat="44.760109912849636" lon="8.111977718909202"><ele>141.0</ele><time>2026-04-11T12:16:40.999Z</time></trkpt><trkpt lat="44.76004990801702" lon="8.111902786187827"><ele>141.0</ele><time>2026-04-11T12:16:42.999Z</time></trkpt><trkpt lat="44.75998578304274" lon="8.11182270834027"><ele>141.0</ele><time>2026-04-11T12:16:44.999Z</time></trkpt><trkpt lat="44.75990062435067" lon="8.111740152217433"><ele>141.0</ele><time>2026-04-11T12:16:46.999Z</time></trkpt><trkpt lat="44.75983132583889" lon="8.111655795946065"><ele>141.0</ele><time>2026-04-11T12:16:48.999Z</time></trkpt><trkpt lat="44.759769434368515" lon="8.111550056202796"><ele>141.0</ele><time>2026-04-11T12:16:50.999Z</time></trkpt><trkpt lat="44.759715562986564" lon="8.11148155564958"><ele>141.0</ele><time>2026-04-11T12:16:53.999Z</time></trkpt><trkpt lat="44.75966603482134" lon="8.111416657742645"><ele>141.0</ele><time>2026-04-11T12:16:55.999Z</time></trkpt><trkpt lat="44.75960561917123" lon="8.11136770782234"><ele>141.0</ele><time>2026-04-11T12:16:57.999Z</time></trkpt><trkpt lat="44.75954406338911" lon="8.111273575348429"><ele>141.0</ele><time>2026-04-11T12:16:59.999Z</time></trkpt><trkpt lat="44.759488543791136" lon="8.111194201283299"><ele>141.0</ele><time>2026-04-11T12:17:01.999Z</time></trkpt><trkpt lat="44.759404586862395" lon="8.111058510258555"><ele>141.0</ele><time>2026-04-11T12:17:02.999Z</time></trkpt><trkpt lat="44.7593300964845" lon="8.110953319124544"><ele>141.0</ele><time>2026-04-11T12:17:04.999Z</time></trkpt><trkpt lat="44.75924571866336" lon="8.110860248084885"><ele>141.0</ele><time>2026-04-11T12:17:06.999Z</time></trkpt><trkpt lat="44.75919471886765" lon="8.110764097428433"><ele>141.0</ele><time>2026-04-11T12:17:08.999Z</time></trkpt><trkpt lat="44.759119672839944" lon="8.110664309229248"><ele>141.2</ele><time>2026-04-11T12:17:10.999Z</time></trkpt><trkpt lat="44.759046876898545" lon="8.110575798632027"><ele>141.39999999999998</ele><time>2026-04-11T12:17:12.999Z</time></trkpt><trkpt lat="44.75895297000372" lon="8.110520477130988"><ele>141.6</ele><time>2026-04-11T12:17:14.999Z</time></trkpt><trkpt lat="44.758887164952476" lon="8.1104277282075"><ele>141.79999999999998</ele><time>2026-04-11T12:17:16.999Z</time></trkpt><trkpt lat="44.75880863143586" lon="8.110352441012928"><ele>142.0</ele><time>2026-04-11T12:17:18.999Z</time></trkpt><trkpt lat="44.75873100758796" lon="8.110272610267033"><ele>142.0</ele><time>2026-04-11T12:17:20.999Z</time></trkpt><trkpt lat="44.75866475553807" lon="8.110193302869112"><ele>142.0</ele><time>2026-04-11T12:17:22.999Z</time></trkpt><trkpt lat="44.758599337200934" lon="8.110146878967722"><ele>142.0</ele><time>2026-04-11T12:17:24.999Z</time></trkpt><trkpt lat="44.758527201771315" lon="8.110063692567822"><ele>142.0</ele><time>2026-04-11T12:17:27.999Z</time></trkpt><trkpt lat="44.758465938621136" lon="8.110014633328722"><ele>142.0</ele><time>2026-04-11T12:17:30Z</time></trkpt><trkpt lat="44.75839064059857" lon="8.10998322368087"><ele>142.0</ele><time>2026-04-11T12:17:32Z</time></trkpt><trkpt lat="44.758313631265686" lon="8.109940165738724"><ele>142.33333333333334</ele><time>2026-04-11T12:17:34Z</time></trkpt><trkpt lat="44.75822991359768" lon="8.109906012410905"><ele>142.66666666666669</ele><time>2026-04-11T12:17:36Z</time></trkpt><trkpt lat="44.75815203189469" lon="8.10987756560334"><ele>143.0</ele><time>2026-04-11T12:17:37.995Z</time></trkpt><trkpt lat="44.75806322050486" lon="8.109841153743666"><ele>143.33333333333334</ele><time>2026-04-11T12:17:39.995Z</time></trkpt><trkpt lat="44.75797557909808" lon="8.109807703606933"><ele>143.66666666666666</ele><time>2026-04-11T12:17:41.996Z</time></trkpt><trkpt lat="44.75788077029071" lon="8.10977705169242"><ele>144.0</ele><time>2026-04-11T12:17:43.996Z</time></trkpt><trkpt lat="44.75778778496409" lon="8.109749804469166"><ele>143.66666666666666</ele><time>2026-04-11T12:17:45.996Z</time></trkpt><trkpt lat="44.75768854550621" lon="8.109741589971458"><ele>143.33333333333334</ele><time>2026-04-11T12:17:47.996Z</time></trkpt><trkpt lat="44.75759479308923" lon="8.109730168665275"><ele>143.0</ele><time>2026-04-11T12:17:49.997Z</time></trkpt><trkpt lat="44.75750964541982" lon="8.109736595032352"><ele>142.66666666666669</ele><time>2026-04-11T12:17:51.997Z</time></trkpt><trkpt lat="44.75743255864166" lon="8.109702399080733"><ele>142.33333333333334</ele><time>2026-04-11T12:17:53.997Z</time></trkpt><trkpt lat="44.757385722616725" lon="8.1096203640806"><ele>142.0</ele><time>2026-04-11T12:17:55.997Z</time></trkpt><trkpt lat="44.75739733772128" lon="8.109501735577904"><ele>142.0</ele><time>2026-04-11T12:17:57.997Z</time></trkpt><trkpt lat="44.757436614460914" lon="8.109399367923235"><ele>142.0</ele><time>2026-04-11T12:17:59.998Z</time></trkpt><trkpt lat="44.75749337300567" lon="8.109297483014668"><ele>142.0</ele><time>2026-04-11T12:18:01.998Z</time></trkpt><trkpt lat="44.757534058021" lon="8.109175946434965"><ele>142.0</ele><time>2026-04-11T12:18:03.998Z</time></trkpt><trkpt lat="44.75757275077101" lon="8.109066123433804"><ele>142.0</ele><time>2026-04-11T12:18:05.998Z</time></trkpt><trkpt lat="44.75762095011445" lon="8.108944104509572"><ele>141.83333333333334</ele><time>2026-04-11T12:18:07.998Z</time></trkpt><trkpt lat="44.75766613312425" lon="8.10884270199942"><ele>141.66666666666669</ele><time>2026-04-11T12:18:09.998Z</time></trkpt><trkpt lat="44.757709036620795" lon="8.10873420414198"><ele>141.5</ele><time>2026-04-11T12:18:11.998Z</time></trkpt><trkpt lat="44.75774627550598" lon="8.108632598559538"><ele>141.33333333333334</ele><time>2026-04-11T12:18:13.999Z</time></trkpt><trkpt lat="44.75778146724981" lon="8.108533432667489"><ele>141.16666666666666</ele><time>2026-04-11T12:18:15.999Z</time></trkpt><trkpt lat="44.75782066079286" lon="8.108425835422365"><ele>141.0</ele><time>2026-04-11T12:18:17.999Z</time></trkpt><trkpt lat="44.75785179547463" lon="8.108321614528343"><ele>141.14285714285714</ele><time>2026-04-11T12:18:19.999Z</time></trkpt><trkpt lat="44.7578668451777" lon="8.108214571373383"><ele>141.28571428571428</ele><time>2026-04-11T12:18:21.999Z</time></trkpt><trkpt lat="44.75785377410264" lon="8.10810733549575"><ele>141.42857142857142</ele><time>2026-04-11T12:18:23.999Z</time></trkpt><trkpt lat="44.75780641149924" lon="8.108028424972273"><ele>141.57142857142856</ele><time>2026-04-11T12:18:25.999Z</time></trkpt><trkpt lat="44.75774825416919" lon="8.107968945312843"><ele>141.7142857142857</ele><time>2026-04-11T12:18:27.999Z</time></trkpt><trkpt lat="44.757681447740104" lon="8.107920291252922"><ele>141.85714285714286</ele><time>2026-04-11T12:18:29.999Z</time></trkpt><trkpt lat="44.757628651650315" lon="8.107870731430369"><ele>142.0</ele><time>2026-04-11T12:18:31.999Z</time></trkpt><trkpt lat="44.75757558714292" lon="8.107804021562558"><ele>142.0</ele><time>2026-04-11T12:18:33.999Z</time></trkpt><trkpt lat="44.75750614804367" lon="8.107693733029839"><ele>142.0</ele><time>2026-04-11T12:18:35.999Z</time></trkpt><trkpt lat="44.757444340061824" lon="8.10756258806749"><ele>142.0</ele><time>2026-04-11T12:18:37.999Z</time></trkpt><trkpt lat="44.75739089678613" lon="8.10742252527318"><ele>142.0</ele><time>2026-04-11T12:18:40Z</time></trkpt><trkpt lat="44.757335328418925" lon="8.10731121212533"><ele>142.0</ele><time>2026-04-11T12:18:42Z</time></trkpt><trkpt lat="44.7572834885704" lon="8.107200756913668"><ele>141.79999999999998</ele><time>2026-04-11T12:18:44Z</time></trkpt><trkpt lat="44.757250167784285" lon="8.10706538839433"><ele>141.6</ele><time>2026-04-11T12:18:46Z</time></trkpt><trkpt lat="44.75727881203057" lon="8.106920629881648"><ele>141.39999999999998</ele><time>2026-04-11T12:18:48Z</time></trkpt><trkpt lat="44.75726990969856" lon="8.106796682028213"><ele>141.2</ele><time>2026-04-11T12:18:50Z</time></trkpt><trkpt lat="44.75724738353744" lon="8.106688422876541"><ele>141.0</ele><time>2026-04-11T12:18:52Z</time></trkpt><trkpt lat="44.75717317629059" lon="8.106601472936827"><ele>141.2</ele><time>2026-04-11T12:18:54Z</time></trkpt><trkpt lat="44.75709343261809" lon="8.106527559592658"><ele>141.39999999999998</ele><time>2026-04-11T12:18:56Z</time></trkpt><trkpt lat="44.75704964091295" lon="8.106418200528132"><ele>141.6</ele><time>2026-04-11T12:18:58Z</time></trkpt><trkpt lat="44.757002860578375" lon="8.10630080313097"><ele>141.79999999999998</ele><time>2026-04-11T12:19:00Z</time></trkpt><trkpt lat="44.75694509922124" lon="8.106175060115435"><ele>142.0</ele><time>2026-04-11T12:19:02Z</time></trkpt><trkpt lat="44.75687775216788" lon="8.10606852295923"><ele>141.6</ele><time>2026-04-11T12:19:04Z</time></trkpt><trkpt lat="44.75683385968282" lon="8.10593190867409"><ele>141.2</ele><time>2026-04-11T12:19:06Z</time></trkpt><trkpt lat="44.75678181344766" lon="8.105811616591502"><ele>140.8</ele><time>2026-04-11T12:19:08Z</time></trkpt><trkpt lat="44.75673357512318" lon="8.105700125599132"><ele>140.4</ele><time>2026-04-11T12:19:10Z</time></trkpt><trkpt lat="44.75669078801248" lon="8.105601233638653"><ele>140.0</ele><time>2026-04-11T12:19:12Z</time></trkpt><trkpt lat="44.75664731493919" lon="8.10550157933558"><ele>140.0</ele><time>2026-04-11T12:19:14Z</time></trkpt><trkpt lat="44.756587137734876" lon="8.105407677176016"><ele>140.0</ele><time>2026-04-11T12:19:16Z</time></trkpt><trkpt lat="44.75654514150684" lon="8.10529258074755"><ele>140.0</ele><time>2026-04-11T12:19:18.001Z</time></trkpt><trkpt lat="44.75649341565389" lon="8.105193284976744"><ele>140.0</ele><time>2026-04-11T12:19:20.001Z</time></trkpt><trkpt lat="44.756442772169585" lon="8.105096842789978"><ele>140.0</ele><time>2026-04-11T12:19:22.001Z</time></trkpt><trkpt lat="44.75638541655753" lon="8.10499876712009"><ele>140.0</ele><time>2026-04-11T12:19:24.001Z</time></trkpt><trkpt lat="44.75634397663749" lon="8.1048868072887"><ele>140.0</ele><time>2026-04-11T12:19:26.001Z</time></trkpt><trkpt lat="44.75628754583172" lon="8.104818612853235"><ele>140.0</ele><time>2026-04-11T12:19:28.001Z</time></trkpt><trkpt lat="44.75624229886294" lon="8.104741909389464"><ele>140.0</ele><time>2026-04-11T12:19:30.001Z</time></trkpt><trkpt lat="44.75619245773072" lon="8.104669629278687"><ele>140.0</ele><time>2026-04-11T12:19:32.001Z</time></trkpt><trkpt lat="44.75612156133758" lon="8.104580666377478"><ele>140.0</ele><time>2026-04-11T12:19:35.001Z</time></trkpt><trkpt lat="44.756082226167344" lon="8.104498307524695"><ele>140.0</ele><time>2026-04-11T12:19:37.001Z</time></trkpt><trkpt lat="44.75600362633676" lon="8.104436793832518"><ele>140.2</ele><time>2026-04-11T12:19:39.001Z</time></trkpt><trkpt lat="44.75591915908149" lon="8.104330965391"><ele>140.4</ele><time>2026-04-11T12:19:41.001Z</time></trkpt><trkpt lat="44.755854593092664" lon="8.104352971845994"><ele>140.6</ele><time>2026-04-11T12:19:42.001Z</time></trkpt><trkpt lat="44.75575321130735" lon="8.104389789619644"><ele>140.8</ele><time>2026-04-11T12:19:43.999Z</time></trkpt><trkpt lat="44.75568033690651" lon="8.104425205891896"><ele>141.0</ele><time>2026-04-11T12:19:46Z</time></trkpt><trkpt lat="44.75556699305837" lon="8.104422503341901"><ele>141.0</ele><time>2026-04-11T12:19:49Z</time></trkpt><trkpt lat="44.75549194124531" lon="8.104424531631496"><ele>141.0</ele><time>2026-04-11T12:19:51Z</time></trkpt><trkpt lat="44.7554173587675" lon="8.104435063871085"><ele>141.0</ele><time>2026-04-11T12:19:53Z</time></trkpt><trkpt lat="44.75533659436839" lon="8.104429560670473"><ele>141.0</ele><time>2026-04-11T12:19:55Z</time></trkpt><trkpt lat="44.75527138998573" lon="8.104421648609728"><ele>141.0</ele><time>2026-04-11T12:19:57Z</time></trkpt><trkpt lat="44.755192549897714" lon="8.104413035614433"><ele>141.0</ele><time>2026-04-11T12:19:59Z</time></trkpt><trkpt lat="44.75510765931135" lon="8.104407329935155"><ele>140.83333333333334</ele><time>2026-04-11T12:20:01Z</time></trkpt><trkpt lat="44.75502769651682" lon="8.104396551159029"><ele>140.66666666666666</ele><time>2026-04-11T12:20:03Z</time></trkpt><trkpt lat="44.75495075117856" lon="8.104387243891855"><ele>140.5</ele><time>2026-04-11T12:20:05Z</time></trkpt><trkpt lat="44.75488125132207" lon="8.104375747956457"><ele>140.33333333333331</ele><time>2026-04-11T12:20:07Z</time></trkpt><trkpt lat="44.75481239721908" lon="8.104363483995362"><ele>140.16666666666666</ele><time>2026-04-11T12:20:09Z</time></trkpt><trkpt lat="44.75472276718253" lon="8.104374416154824"><ele>140.0</ele><time>2026-04-11T12:20:12Z</time></trkpt><trkpt lat="44.754651123667266" lon="8.104373355755406"><ele>140.0</ele><time>2026-04-11T12:20:15Z</time></trkpt><trkpt lat="44.75457337078427" lon="8.1043765890306"><ele>140.0</ele><time>2026-04-11T12:20:19Z</time></trkpt><trkpt lat="44.75449742525535" lon="8.104381413648225"><ele>140.0</ele><time>2026-04-11T12:20:23.001Z</time></trkpt><trkpt lat="44.75441860169757" lon="8.104413746031666"><ele>140.0</ele><time>2026-04-11T12:20:26.001Z</time></trkpt><trkpt lat="44.7543467281702" lon="8.104434909687333"><ele>140.0</ele><time>2026-04-11T12:20:29.001Z</time></trkpt><trkpt lat="44.754264011227995" lon="8.104454241989274"><ele>140.0</ele><time>2026-04-11T12:20:31.001Z</time></trkpt><trkpt lat="44.75417265627515" lon="8.104440546517088"><ele>140.75</ele><time>2026-04-11T12:20:34.001Z</time></trkpt><trkpt lat="44.75407725883846" lon="8.104457731783537"><ele>141.5</ele><time>2026-04-11T12:20:37.001Z</time></trkpt><trkpt lat="44.75389731648491" lon="8.10448327101583"><ele>142.25</ele><time>2026-04-11T12:20:39.001Z</time></trkpt><trkpt lat="44.753797950205616" lon="8.104494229601933"><ele>143.0</ele><time>2026-04-11T12:20:41.001Z</time></trkpt><trkpt lat="44.75370077229532" lon="8.104510645933328"><ele>143.0</ele><time>2026-04-11T12:20:43.001Z</time></trkpt><trkpt lat="44.75361918562426" lon="8.104539954350681"><ele>143.0</ele><time>2026-04-11T12:20:45.001Z</time></trkpt><trkpt lat="44.7535366616475" lon="8.104551165723612"><ele>143.0</ele><time>2026-04-11T12:20:47.001Z</time></trkpt><trkpt lat="44.75345506716346" lon="8.10456031158888"><ele>143.0</ele><time>2026-04-11T12:20:49.001Z</time></trkpt><trkpt lat="44.75337161827696" lon="8.104586535526318"><ele>143.0</ele><time>2026-04-11T12:20:51.001Z</time></trkpt><trkpt lat="44.75328110327418" lon="8.104585141641422"><ele>143.0</ele><time>2026-04-11T12:20:53.001Z</time></trkpt><trkpt lat="44.753196415747" lon="8.104601518576317"><ele>143.8</ele><time>2026-04-11T12:20:55.001Z</time></trkpt><trkpt lat="44.753111944716814" lon="8.104574394938819"><ele>144.60000000000002</ele><time>2026-04-11T12:20:57.001Z</time></trkpt><trkpt lat="44.75304149074033" lon="8.104536110360911"><ele>145.39999999999998</ele><time>2026-04-11T12:20:59.001Z</time></trkpt><trkpt lat="44.753005888221416" lon="8.104457257819202"><ele>146.2</ele><time>2026-04-11T12:21:01.002Z</time></trkpt><trkpt lat="44.7529070489445" lon="8.104273287218604"><ele>147.0</ele><time>2026-04-11T12:21:04.002Z</time></trkpt><trkpt lat="44.75284903349924" lon="8.104106668739911"><ele>147.0</ele><time>2026-04-11T12:21:06.002Z</time></trkpt><trkpt lat="44.75278369589788" lon="8.104035140208758"><ele>147.0</ele><time>2026-04-11T12:21:08.002Z</time></trkpt><trkpt lat="44.7527280390201" lon="8.10390885317323"><ele>147.0</ele><time>2026-04-11T12:21:10.002Z</time></trkpt><trkpt lat="44.75265655636183" lon="8.103811436876931"><ele>147.0</ele><time>2026-04-11T12:21:12.002Z</time></trkpt><trkpt lat="44.752603564714256" lon="8.103691274720353"><ele>147.0</ele><time>2026-04-11T12:21:14.002Z</time></trkpt><trkpt lat="44.75255596005907" lon="8.103602571670228"><ele>147.0</ele><time>2026-04-11T12:21:16.002Z</time></trkpt><trkpt lat="44.75250368936469" lon="8.103516077035643"><ele>147.0</ele><time>2026-04-11T12:21:18.002Z</time></trkpt><trkpt lat="44.752452985294674" lon="8.103422255786505"><ele>147.0</ele><time>2026-04-11T12:21:20.002Z</time></trkpt><trkpt lat="44.752380581477" lon="8.103326285183677"><ele>147.0</ele><time>2026-04-11T12:21:22.002Z</time></trkpt><trkpt lat="44.75229243706063" lon="8.103238314735561"><ele>147.0</ele><time>2026-04-11T12:21:24.002Z</time></trkpt><trkpt lat="44.75221245391597" lon="8.103186792443156"><ele>146.4</ele><time>2026-04-11T12:21:26.002Z</time></trkpt><trkpt lat="44.75211793536676" lon="8.103173325934783"><ele>145.79999999999998</ele><time>2026-04-11T12:21:28.002Z</time></trkpt><trkpt lat="44.75202740497745" lon="8.103157090888834"><ele>145.2</ele><time>2026-04-11T12:21:30.002Z</time></trkpt><trkpt lat="44.75194099332407" lon="8.103149761382957"><ele>144.6</ele><time>2026-04-11T12:21:32.002Z</time></trkpt><trkpt lat="44.75184216594811" lon="8.10312406951732"><ele>144.0</ele><time>2026-04-11T12:21:34.002Z</time></trkpt><trkpt lat="44.75174168966032" lon="8.103107714984624"><ele>144.0</ele><time>2026-04-11T12:21:38.003Z</time></trkpt><trkpt lat="44.75168043313571" lon="8.10308406356675"><ele>144.0</ele><time>2026-04-11T12:21:40.003Z</time></trkpt><trkpt lat="44.75161156694127" lon="8.103094019489342"><ele>144.0</ele><time>2026-04-11T12:21:42.003Z</time></trkpt><trkpt lat="44.75153825298576" lon="8.103109650023542"><ele>144.0</ele><time>2026-04-11T12:21:43.003Z</time></trkpt><trkpt lat="44.75144669022025" lon="8.10304201690622"><ele>144.0</ele><time>2026-04-11T12:21:45.003Z</time></trkpt><trkpt lat="44.75138311839028" lon="8.103017204207278"><ele>144.0</ele><time>2026-04-11T12:21:47.003Z</time></trkpt><trkpt lat="44.751310117433974" lon="8.102979473961962"><ele>144.0</ele><time>2026-04-11T12:21:49.001Z</time></trkpt><trkpt lat="44.75122210866814" lon="8.102927800900343"><ele>144.0</ele><time>2026-04-11T12:21:51.001Z</time></trkpt><trkpt lat="44.75113940921077" lon="8.102871093774223"><ele>144.0</ele><time>2026-04-11T12:21:53.001Z</time></trkpt><trkpt lat="44.75108960135422" lon="8.10281474428822"><ele>144.0</ele><time>2026-04-11T12:21:56.001Z</time></trkpt><trkpt lat="44.751038595400296" lon="8.102738740061152"><ele>144.0</ele><time>2026-04-11T12:21:58.001Z</time></trkpt><trkpt lat="44.7509858043086" lon="8.102650312126878"><ele>144.0</ele><time>2026-04-11T12:21:59.001Z</time></trkpt><trkpt lat="44.750945757452804" lon="8.102579276724756"><ele>144.8</ele><time>2026-04-11T12:22:00.001Z</time></trkpt><trkpt lat="44.75088554657253" lon="8.102448563294656"><ele>145.60000000000002</ele><time>2026-04-11T12:22:02.001Z</time></trkpt><trkpt lat="44.75083748709933" lon="8.102331725874944"><ele>146.4</ele><time>2026-04-11T12:22:04.001Z</time></trkpt><trkpt lat="44.75079557809597" lon="8.10221481855674"><ele>147.20000000000002</ele><time>2026-04-11T12:22:06.001Z</time></trkpt><trkpt lat="44.75075429653819" lon="8.102110065562373"><ele>148.0</ele><time>2026-04-11T12:22:08.001Z</time></trkpt><trkpt lat="44.75072653503558" lon="8.101990248533342"><ele>148.0</ele><time>2026-04-11T12:22:10.001Z</time></trkpt><trkpt lat="44.75068918717946" lon="8.101910677574608"><ele>148.0</ele><time>2026-04-11T12:22:13.001Z</time></trkpt><trkpt lat="44.75064590869652" lon="8.101755578970561"><ele>148.0</ele><time>2026-04-11T12:22:15.001Z</time></trkpt><trkpt lat="44.750624005613886" lon="8.101633694601844"><ele>148.0</ele><time>2026-04-11T12:22:17.001Z</time></trkpt><trkpt lat="44.75059859962201" lon="8.101528514041823"><ele>148.0</ele><time>2026-04-11T12:22:19.001Z</time></trkpt><trkpt lat="44.75057005286" lon="8.101426767788684"><ele>148.0</ele><time>2026-04-11T12:22:21.001Z</time></trkpt><trkpt lat="44.75050795516336" lon="8.101303784927499"><ele>148.6</ele><time>2026-04-11T12:22:23.001Z</time></trkpt><trkpt lat="44.75041563213977" lon="8.101259847593877"><ele>149.20000000000002</ele><time>2026-04-11T12:22:25.001Z</time></trkpt><trkpt lat="44.75033219910866" lon="8.101196381302557"><ele>149.8</ele><time>2026-04-11T12:22:27.001Z</time></trkpt><trkpt lat="44.75024857769767" lon="8.10113456119547"><ele>150.4</ele><time>2026-04-11T12:22:29.001Z</time></trkpt><trkpt lat="44.750191351046" lon="8.101069725715147"><ele>151.0</ele><time>2026-04-11T12:22:32.001Z</time></trkpt><trkpt lat="44.75010872317766" lon="8.100989340777646"><ele>151.0</ele><time>2026-04-11T12:22:34.001Z</time></trkpt><trkpt lat="44.750055110511056" lon="8.100904949103736"><ele>151.0</ele><time>2026-04-11T12:22:36.001Z</time></trkpt><trkpt lat="44.75000371396798" lon="8.100816575121316"><ele>151.0</ele><time>2026-04-11T12:22:38.001Z</time></trkpt><trkpt lat="44.74996466548951" lon="8.100733472159176"><ele>151.0</ele><time>2026-04-11T12:22:40.001Z</time></trkpt><trkpt lat="44.74991902975137" lon="8.10064868600109"><ele>151.0</ele><time>2026-04-11T12:22:42.001Z</time></trkpt><trkpt lat="44.74987938941095" lon="8.1005569784733"><ele>151.0</ele><time>2026-04-11T12:22:44.001Z</time></trkpt><trkpt lat="44.74985577828849" lon="8.100442276598086"><ele>150.66666666666669</ele><time>2026-04-11T12:22:46.002Z</time></trkpt><trkpt lat="44.749856302668285" lon="8.100332072495842"><ele>150.33333333333334</ele><time>2026-04-11T12:22:48.002Z</time></trkpt><trkpt lat="44.749829916856164" lon="8.100239478089911"><ele>150.0</ele><time>2026-04-11T12:22:51.002Z</time></trkpt><trkpt lat="44.749810653913464" lon="8.10015366820278"><ele>149.66666666666666</ele><time>2026-04-11T12:22:53.002Z</time></trkpt><trkpt lat="44.749764689602955" lon="8.100041503527386"><ele>149.33333333333331</ele><time>2026-04-11T12:22:55.002Z</time></trkpt><trkpt lat="44.74972658529107" lon="8.099941791991402"><ele>149.0</ele><time>2026-04-11T12:22:56.002Z</time></trkpt><trkpt lat="44.74966419111484" lon="8.099834745075402"><ele>149.2</ele><time>2026-04-11T12:22:58.002Z</time></trkpt><trkpt lat="44.74958720948479" lon="8.099738365802125"><ele>149.4</ele><time>2026-04-11T12:23:00.002Z</time></trkpt><trkpt lat="44.74949017120953" lon="8.099693003414904"><ele>149.6</ele><time>2026-04-11T12:23:02.002Z</time></trkpt><trkpt lat="44.74939837236016" lon="8.099656250691273"><ele>149.8</ele><time>2026-04-11T12:23:04.002Z</time></trkpt><trkpt lat="44.74932438288364" lon="8.099619214560535"><ele>150.0</ele><time>2026-04-11T12:23:06.002Z</time></trkpt><trkpt lat="44.74926939161554" lon="8.09954533395991"><ele>150.0</ele><time>2026-04-11T12:23:08.002Z</time></trkpt><trkpt lat="44.7492008239567" lon="8.09945531718757"><ele>150.0</ele><time>2026-04-11T12:23:10.002Z</time></trkpt><trkpt lat="44.7491285533828" lon="8.099373974706397"><ele>150.0</ele><time>2026-04-11T12:23:12.002Z</time></trkpt><trkpt lat="44.749071070035015" lon="8.099274722112515"><ele>150.0</ele><time>2026-04-11T12:23:14.002Z</time></trkpt><trkpt lat="44.74901186111082" lon="8.099199057317167"><ele>150.0</ele><time>2026-04-11T12:23:16.002Z</time></trkpt><trkpt lat="44.74893787570092" lon="8.099135689390362"><ele>150.0</ele><time>2026-04-11T12:23:18.002Z</time></trkpt><trkpt lat="44.748870598933635" lon="8.099064588795802"><ele>150.0</ele><time>2026-04-11T12:23:20.002Z</time></trkpt><trkpt lat="44.748809855511766" lon="8.099007599227077"><ele>150.0</ele><time>2026-04-11T12:23:22.002Z</time></trkpt><trkpt lat="44.74876022106542" lon="8.098941644580876"><ele>150.0</ele><time>2026-04-11T12:23:24.002Z</time></trkpt><trkpt lat="44.74872242397919" lon="8.09885061030657"><ele>150.0</ele><time>2026-04-11T12:23:26.002Z</time></trkpt><trkpt lat="44.74866228652104" lon="8.098792665692976"><ele>150.0</ele><time>2026-04-11T12:23:28.002Z</time></trkpt><trkpt lat="44.74858993540655" lon="8.09871971687283"><ele>150.0</ele><time>2026-04-11T12:23:30.003Z</time></trkpt><trkpt lat="44.748517434381846" lon="8.098642075113997"><ele>150.0</ele><time>2026-04-11T12:23:32.003Z</time></trkpt><trkpt lat="44.74844835500293" lon="8.098568134227476"><ele>150.0</ele><time>2026-04-11T12:23:34.003Z</time></trkpt><trkpt lat="44.74837765828448" lon="8.09849259492033"><ele>150.0</ele><time>2026-04-11T12:23:36.003Z</time></trkpt><trkpt lat="44.74830588715363" lon="8.098397026784612"><ele>150.0</ele><time>2026-04-11T12:23:38.003Z</time></trkpt><trkpt lat="44.748230731415156" lon="8.09830904554311"><ele>150.0</ele><time>2026-04-11T12:23:40.003Z</time></trkpt><trkpt lat="44.74814625828204" lon="8.09822331557208"><ele>149.6</ele><time>2026-04-11T12:23:42.003Z</time></trkpt><trkpt lat="44.7480681401667" lon="8.098126391460996"><ele>149.2</ele><time>2026-04-11T12:23:44.003Z</time></trkpt><trkpt lat="44.74798740909662" lon="8.098026818793235"><ele>148.8</ele><time>2026-04-11T12:23:46.003Z</time></trkpt><trkpt lat="44.747907327930925" lon="8.097927378332487"><ele>148.4</ele><time>2026-04-11T12:23:48.003Z</time></trkpt><trkpt lat="44.7478355617205" lon="8.09784422299867"><ele>148.0</ele><time>2026-04-11T12:23:50.003Z</time></trkpt><trkpt lat="44.7477413627714" lon="8.097735605980427"><ele>148.0</ele><time>2026-04-11T12:23:52.003Z</time></trkpt><trkpt lat="44.74766075126182" lon="8.097640445495935"><ele>148.0</ele><time>2026-04-11T12:23:54.003Z</time></trkpt><trkpt lat="44.74757421467628" lon="8.097536769281904"><ele>148.0</ele><time>2026-04-11T12:23:56.001Z</time></trkpt><trkpt lat="44.74748902108255" lon="8.097431517125944"><ele>148.0</ele><time>2026-04-11T12:23:58.001Z</time></trkpt><trkpt lat="44.747401846625905" lon="8.09733803288304"><ele>148.0</ele><time>2026-04-11T12:24:00.001Z</time></trkpt><trkpt lat="44.74731389947084" lon="8.097245407284795"><ele>148.0</ele><time>2026-04-11T12:24:02.001Z</time></trkpt><trkpt lat="44.7472244314602" lon="8.09714682903138"><ele>148.0</ele><time>2026-04-11T12:24:04.001Z</time></trkpt><trkpt lat="44.747134057716266" lon="8.097041560928158"><ele>148.0</ele><time>2026-04-11T12:24:06.001Z</time></trkpt><trkpt lat="44.74705083479026" lon="8.096945309120064"><ele>148.0</ele><time>2026-04-11T12:24:08.001Z</time></trkpt><trkpt lat="44.746967480753916" lon="8.096845483726163"><ele>148.0</ele><time>2026-04-11T12:24:10.001Z</time></trkpt><trkpt lat="44.74688120575309" lon="8.096759174548536"><ele>148.20000000000002</ele><time>2026-04-11T12:24:12.001Z</time></trkpt><trkpt lat="44.74679547321044" lon="8.096659821747817"><ele>148.4</ele><time>2026-04-11T12:24:14.001Z</time></trkpt><trkpt lat="44.746712119777364" lon="8.096559707848652"><ele>148.60000000000002</ele><time>2026-04-11T12:24:16.001Z</time></trkpt><trkpt lat="44.74662585213824" lon="8.096446013881467"><ele>148.8</ele><time>2026-04-11T12:24:18.001Z</time></trkpt><trkpt lat="44.74656049439367" lon="8.096321606287974"><ele>149.0</ele><time>2026-04-11T12:24:20.001Z</time></trkpt><trkpt lat="44.7465035453243" lon="8.096189527490317"><ele>149.0</ele><time>2026-04-11T12:24:22.001Z</time></trkpt><trkpt lat="44.746414446649005" lon="8.096092907209584"><ele>149.0</ele><time>2026-04-11T12:24:24.001Z</time></trkpt><trkpt lat="44.74630792539014" lon="8.09605537850452"><ele>149.0</ele><time>2026-04-11T12:24:26.001Z</time></trkpt><trkpt lat="44.74620051469607" lon="8.096050257201474"><ele>149.0</ele><time>2026-04-11T12:24:28.001Z</time></trkpt><trkpt lat="44.74609289443477" lon="8.096067149053148"><ele>149.0</ele><time>2026-04-11T12:24:30.001Z</time></trkpt><trkpt lat="44.74598561888322" lon="8.096076677131437"><ele>149.0</ele><time>2026-04-11T12:24:32.001Z</time></trkpt><trkpt lat="44.74587547043" lon="8.096102844357013"><ele>149.0</ele><time>2026-04-11T12:24:34.001Z</time></trkpt><trkpt lat="44.74577587261322" lon="8.096133209115248"><ele>149.0</ele><time>2026-04-11T12:24:36.001Z</time></trkpt><trkpt lat="44.745678906501325" lon="8.096139318411046"><ele>149.0</ele><time>2026-04-11T12:24:38.001Z</time></trkpt><trkpt lat="44.74558805271749" lon="8.096145849688826"><ele>149.0</ele><time>2026-04-11T12:24:40.001Z</time></trkpt><trkpt lat="44.74550285335094" lon="8.096111186159002"><ele>149.0</ele><time>2026-04-11T12:24:42.001Z</time></trkpt><trkpt lat="44.74542274926681" lon="8.096032964691055"><ele>149.0</ele><time>2026-04-11T12:24:44.001Z</time></trkpt><trkpt lat="44.74533474222388" lon="8.095947822453395"><ele>149.0</ele><time>2026-04-11T12:24:46.001Z</time></trkpt><trkpt lat="44.745250825397726" lon="8.095860352442408"><ele>149.0</ele><time>2026-04-11T12:24:48.001Z</time></trkpt><trkpt lat="44.745168172733706" lon="8.09578112579516"><ele>149.0</ele><time>2026-04-11T12:24:50.001Z</time></trkpt><trkpt lat="44.745082678591636" lon="8.09569453375704"><ele>149.6</ele><time>2026-04-11T12:24:52.001Z</time></trkpt><trkpt lat="44.744994408245745" lon="8.095612517396086"><ele>150.2</ele><time>2026-04-11T12:24:54.001Z</time></trkpt><trkpt lat="44.74490480420539" lon="8.095530027078087"><ele>150.79999999999998</ele><time>2026-04-11T12:24:56.001Z</time></trkpt><trkpt lat="44.744817504946155" lon="8.095446971510095"><ele>151.4</ele><time>2026-04-11T12:24:58.002Z</time></trkpt><trkpt lat="44.74473067647795" lon="8.095355530207861"><ele>152.0</ele><time>2026-04-11T12:25:00.002Z</time></trkpt><trkpt lat="44.74464002231838" lon="8.095258718429507"><ele>152.0</ele><time>2026-04-11T12:25:02.002Z</time></trkpt><trkpt lat="44.744550666840226" lon="8.095177772081728"><ele>152.0</ele><time>2026-04-11T12:25:04.002Z</time></trkpt><trkpt lat="44.744462870417216" lon="8.095098428976447"><ele>152.0</ele><time>2026-04-11T12:25:06.002Z</time></trkpt><trkpt lat="44.744375553101584" lon="8.095012792514094"><ele>152.0</ele><time>2026-04-11T12:25:08.002Z</time></trkpt><trkpt lat="44.74428330686414" lon="8.094931619495366"><ele>152.0</ele><time>2026-04-11T12:25:10.002Z</time></trkpt><trkpt lat="44.74420241562887" lon="8.094846409872156"><ele>151.4</ele><time>2026-04-11T12:25:12.002Z</time></trkpt><trkpt lat="44.74411343595482" lon="8.094769336299423"><ele>150.79999999999998</ele><time>2026-04-11T12:25:14.002Z</time></trkpt><trkpt lat="44.74403402533549" lon="8.09468717219216"><ele>150.2</ele><time>2026-04-11T12:25:16.002Z</time></trkpt><trkpt lat="44.74396444319347" lon="8.094617935318398"><ele>149.6</ele><time>2026-04-11T12:25:19.002Z</time></trkpt><trkpt lat="44.743875459373925" lon="8.094540452817164"><ele>149.0</ele><time>2026-04-11T12:25:21.002Z</time></trkpt><trkpt lat="44.74379191106823" lon="8.094456206604981"><ele>149.0</ele><time>2026-04-11T12:25:23.002Z</time></trkpt><trkpt lat="44.743718275171574" lon="8.0943706169708"><ele>149.0</ele><time>2026-04-11T12:25:25.002Z</time></trkpt><trkpt lat="44.74361770672513" lon="8.094294472217998"><ele>149.0</ele><time>2026-04-11T12:25:27.002Z</time></trkpt><trkpt lat="44.74352755852887" lon="8.094194409439524"><ele>149.0</ele><time>2026-04-11T12:25:29.002Z</time></trkpt><trkpt lat="44.74347565872266" lon="8.094143315993499"><ele>149.0</ele><time>2026-04-11T12:25:30.002Z</time></trkpt><trkpt lat="44.74338508488389" lon="8.094052902012356"><ele>148.8</ele><time>2026-04-11T12:25:32.002Z</time></trkpt><trkpt lat="44.74330633894499" lon="8.093979120056225"><ele>148.60000000000002</ele><time>2026-04-11T12:25:35.002Z</time></trkpt><trkpt lat="44.743245213665645" lon="8.093924609047265"><ele>148.4</ele><time>2026-04-11T12:25:37.002Z</time></trkpt><trkpt lat="44.74312877811246" lon="8.093819058697964"><ele>148.20000000000002</ele><time>2026-04-11T12:25:38.002Z</time></trkpt><trkpt lat="44.7430442314818" lon="8.093737139386946"><ele>148.0</ele><time>2026-04-11T12:25:40.002Z</time></trkpt><trkpt lat="44.742953338725954" lon="8.093659117588873"><ele>148.0</ele><time>2026-04-11T12:25:42.002Z</time></trkpt><trkpt lat="44.74286952681269" lon="8.093578286916822"><ele>148.0</ele><time>2026-04-11T12:25:44.002Z</time></trkpt><trkpt lat="44.74279068688177" lon="8.093498607314741"><ele>148.0</ele><time>2026-04-11T12:25:46.002Z</time></trkpt><trkpt lat="44.74271136973261" lon="8.093422380112193"><ele>148.0</ele><time>2026-04-11T12:25:48.003Z</time></trkpt><trkpt lat="44.742631744337366" lon="8.09333599964344"><ele>148.0</ele><time>2026-04-11T12:25:50.003Z</time></trkpt><trkpt lat="44.742547531678625" lon="8.093262892094096"><ele>149.4</ele><time>2026-04-11T12:25:52.003Z</time></trkpt><trkpt lat="44.742461239670746" lon="8.093184607870757"><ele>150.8</ele><time>2026-04-11T12:25:54.003Z</time></trkpt><trkpt lat="44.74237323754862" lon="8.093104056119124"><ele>152.2</ele><time>2026-04-11T12:25:56.003Z</time></trkpt><trkpt lat="44.742291239582826" lon="8.09302830018663"><ele>153.6</ele><time>2026-04-11T12:25:58.003Z</time></trkpt><trkpt lat="44.742217498884315" lon="8.092939374908994"><ele>155.0</ele><time>2026-04-11T12:26:00.003Z</time></trkpt><trkpt lat="44.74214186368812" lon="8.092868373959776"><ele>155.0</ele><time>2026-04-11T12:26:02.001Z</time></trkpt><trkpt lat="44.74207019714086" lon="8.092801583382581"><ele>155.0</ele><time>2026-04-11T12:26:04.001Z</time></trkpt><trkpt lat="44.74199018701608" lon="8.092730818327773"><ele>155.0</ele><time>2026-04-11T12:26:06.001Z</time></trkpt><trkpt lat="44.741910415773916" lon="8.09264935652658"><ele>155.0</ele><time>2026-04-11T12:26:08.001Z</time></trkpt><trkpt lat="44.74182901207217" lon="8.092573122024618"><ele>155.0</ele><time>2026-04-11T12:26:10.001Z</time></trkpt><trkpt lat="44.74174090769352" lon="8.092495961842996"><ele>154.8</ele><time>2026-04-11T12:26:12.001Z</time></trkpt><trkpt lat="44.741666658774484" lon="8.09241777672294"><ele>154.6</ele><time>2026-04-11T12:26:14.001Z</time></trkpt><trkpt lat="44.74159526272239" lon="8.09234629473809"><ele>154.4</ele><time>2026-04-11T12:26:16.001Z</time></trkpt><trkpt lat="44.741515150656134" lon="8.092273940306871"><ele>154.2</ele><time>2026-04-11T12:26:18.001Z</time></trkpt><trkpt lat="44.74143771288476" lon="8.092201552340969"><ele>154.0</ele><time>2026-04-11T12:26:20.001Z</time></trkpt><trkpt lat="44.74135484349329" lon="8.092126048928568"><ele>154.0</ele><time>2026-04-11T12:26:22.001Z</time></trkpt><trkpt lat="44.74127894229866" lon="8.092056246097311"><ele>154.0</ele><time>2026-04-11T12:26:24.001Z</time></trkpt><trkpt lat="44.741198121220755" lon="8.091993218931092"><ele>154.0</ele><time>2026-04-11T12:26:26.001Z</time></trkpt><trkpt lat="44.74111867167693" lon="8.091936063316101"><ele>154.0</ele><time>2026-04-11T12:26:28.001Z</time></trkpt><trkpt lat="44.741029370849326" lon="8.091907343827353"><ele>154.0</ele><time>2026-04-11T12:26:30.001Z</time></trkpt><trkpt lat="44.74094521230273" lon="8.09196136722897"><ele>154.0</ele><time>2026-04-11T12:26:33.001Z</time></trkpt><trkpt lat="44.740878726259375" lon="8.092005647173265"><ele>154.0</ele><time>2026-04-11T12:26:35.001Z</time></trkpt><trkpt lat="44.74080133515287" lon="8.092055157932496"><ele>154.0</ele><time>2026-04-11T12:26:37.001Z</time></trkpt><trkpt lat="44.740733103557886" lon="8.092086519840821"><ele>154.0</ele><time>2026-04-11T12:26:39.001Z</time></trkpt><trkpt lat="44.74066573469897" lon="8.09210423306426"><ele>154.0</ele><time>2026-04-11T12:26:41.001Z</time></trkpt><trkpt lat="44.74058292753619" lon="8.09211900169441"><ele>154.0</ele><time>2026-04-11T12:26:44.001Z</time></trkpt><trkpt lat="44.74051633935979" lon="8.09214053043486"><ele>154.0</ele><time>2026-04-11T12:27:00.001Z</time></trkpt><trkpt lat="44.740450822000454" lon="8.092199932192539"><ele>154.0</ele><time>2026-04-11T12:27:03.001Z</time></trkpt><trkpt lat="44.74038347891763" lon="8.092209514259814"><ele>154.0</ele><time>2026-04-11T12:27:05.001Z</time></trkpt><trkpt lat="44.7403062363301" lon="8.092222637958132"><ele>154.0</ele><time>2026-04-11T12:27:07.001Z</time></trkpt><trkpt lat="44.74022942867458" lon="8.092280610018957"><ele>154.0</ele><time>2026-04-11T12:27:09.001Z</time></trkpt><trkpt lat="44.740158736465325" lon="8.092347407812744"><ele>154.0</ele><time>2026-04-11T12:27:11.001Z</time></trkpt><trkpt lat="44.74008620594377" lon="8.092414709600018"><ele>154.2</ele><time>2026-04-11T12:27:13.001Z</time></trkpt><trkpt lat="44.74000653819436" lon="8.092475762656314"><ele>154.4</ele><time>2026-04-11T12:27:15.001Z</time></trkpt><trkpt lat="44.739927708700094" lon="8.092534683070944"><ele>154.6</ele><time>2026-04-11T12:27:17.001Z</time></trkpt><trkpt lat="44.73984531947431" lon="8.092586439672665"><ele>154.8</ele><time>2026-04-11T12:27:19.001Z</time></trkpt><trkpt lat="44.739761116420944" lon="8.092642421216045"><ele>155.0</ele><time>2026-04-11T12:27:21.002Z</time></trkpt><trkpt lat="44.73967995791281" lon="8.09269120522502"><ele>155.0</ele><time>2026-04-11T12:27:23.002Z</time></trkpt><trkpt lat="44.73959769957323" lon="8.092742695855009"><ele>155.0</ele><time>2026-04-11T12:27:25.002Z</time></trkpt><trkpt lat="44.739517532260415" lon="8.092802556706175"><ele>155.0</ele><time>2026-04-11T12:27:27.002Z</time></trkpt><trkpt lat="44.73943696991851" lon="8.092860008381777"><ele>155.0</ele><time>2026-04-11T12:27:29.002Z</time></trkpt><trkpt lat="44.73935275050055" lon="8.092913223099794"><ele>155.0</ele><time>2026-04-11T12:27:31.002Z</time></trkpt><trkpt lat="44.7392670267774" lon="8.092961358632591"><ele>155.6</ele><time>2026-04-11T12:27:33.002Z</time></trkpt><trkpt lat="44.73918742364625" lon="8.093018278138954"><ele>156.2</ele><time>2026-04-11T12:27:35.002Z</time></trkpt><trkpt lat="44.739104127070284" lon="8.093064626586267"><ele>156.8</ele><time>2026-04-11T12:27:37.002Z</time></trkpt><trkpt lat="44.7390169010706" lon="8.093113482945173"><ele>157.4</ele><time>2026-04-11T12:27:39.002Z</time></trkpt><trkpt lat="44.73893757875094" lon="8.093174620388037"><ele>158.0</ele><time>2026-04-11T12:27:41.002Z</time></trkpt><trkpt lat="44.73885043717245" lon="8.09322507055198"><ele>158.20000000000002</ele><time>2026-04-11T12:27:43.002Z</time></trkpt><trkpt lat="44.73875971527382" lon="8.093268258962478"><ele>158.4</ele><time>2026-04-11T12:27:45.002Z</time></trkpt><trkpt lat="44.7386788028135" lon="8.093327874738591"><ele>158.60000000000002</ele><time>2026-04-11T12:27:47.002Z</time></trkpt><trkpt lat="44.73859787868549" lon="8.093385771750722"><ele>158.8</ele><time>2026-04-11T12:27:49.002Z</time></trkpt><trkpt lat="44.738513732365085" lon="8.093436795525257"><ele>159.0</ele><time>2026-04-11T12:27:51.002Z</time></trkpt><trkpt lat="44.738422042845265" lon="8.093491211159794"><ele>159.4</ele><time>2026-04-11T12:27:53.002Z</time></trkpt><trkpt lat="44.73833183611384" lon="8.093544126691176"><ele>159.8</ele><time>2026-04-11T12:27:55.002Z</time></trkpt><trkpt lat="44.73824479136186" lon="8.09358355633643"><ele>160.20000000000002</ele><time>2026-04-11T12:27:57.002Z</time></trkpt><trkpt lat="44.73815352131425" lon="8.09362050621143"><ele>160.60000000000002</ele><time>2026-04-11T12:27:59.002Z</time></trkpt><trkpt lat="44.73806245839549" lon="8.093653869136851"><ele>161.0</ele><time>2026-04-11T12:28:01.002Z</time></trkpt><trkpt lat="44.73797491875605" lon="8.093687543821705"><ele>161.0</ele><time>2026-04-11T12:28:03.002Z</time></trkpt><trkpt lat="44.737883727209855" lon="8.093710369639137"><ele>161.0</ele><time>2026-04-11T12:28:05.002Z</time></trkpt><trkpt lat="44.737798363693415" lon="8.093749685539109"><ele>161.0</ele><time>2026-04-11T12:28:07Z</time></trkpt><trkpt lat="44.737710636349476" lon="8.093773889668256"><ele>161.0</ele><time>2026-04-11T12:28:09Z</time></trkpt><trkpt lat="44.73762553713083" lon="8.093805867529579"><ele>161.0</ele><time>2026-04-11T12:28:11Z</time></trkpt><trkpt lat="44.737537352731685" lon="8.093835950413014"><ele>161.16666666666666</ele><time>2026-04-11T12:28:13Z</time></trkpt><trkpt lat="44.73745002813897" lon="8.09386404828033"><ele>161.33333333333331</ele><time>2026-04-11T12:28:15Z</time></trkpt><trkpt lat="44.73736732284298" lon="8.093891384537205"><ele>161.5</ele><time>2026-04-11T12:28:17Z</time></trkpt><trkpt lat="44.73728231641853" lon="8.093918851471678"><ele>161.66666666666666</ele><time>2026-04-11T12:28:19Z</time></trkpt><trkpt lat="44.73719236373356" lon="8.093950428516063"><ele>161.83333333333334</ele><time>2026-04-11T12:28:21Z</time></trkpt><trkpt lat="44.73710618310535" lon="8.093970692086502"><ele>162.0</ele><time>2026-04-11T12:28:23Z</time></trkpt><trkpt lat="44.73701600198465" lon="8.09398399058058"><ele>162.0</ele><time>2026-04-11T12:28:25Z</time></trkpt><trkpt lat="44.73692823054778" lon="8.093997723590185"><ele>162.0</ele><time>2026-04-11T12:28:27Z</time></trkpt><trkpt lat="44.736840918060715" lon="8.094007462287008"><ele>162.0</ele><time>2026-04-11T12:28:29Z</time></trkpt><trkpt lat="44.73675524524229" lon="8.09401452360083"><ele>162.0</ele><time>2026-04-11T12:28:31Z</time></trkpt><trkpt lat="44.736667444428576" lon="8.094020508453545"><ele>162.0</ele><time>2026-04-11T12:28:33Z</time></trkpt><trkpt lat="44.7365789791304" lon="8.09403385055975"><ele>162.0</ele><time>2026-04-11T12:28:35Z</time></trkpt><trkpt lat="44.73649678153056" lon="8.094043053087965"><ele>162.33333333333334</ele><time>2026-04-11T12:28:37Z</time></trkpt><trkpt lat="44.7364144387295" lon="8.094061619232924"><ele>162.66666666666666</ele><time>2026-04-11T12:28:39.001Z</time></trkpt><trkpt lat="44.73632934136546" lon="8.094070907234336"><ele>163.0</ele><time>2026-04-11T12:28:41.001Z</time></trkpt><trkpt lat="44.73624134270832" lon="8.094086578233387"><ele>163.33333333333331</ele><time>2026-04-11T12:28:43.001Z</time></trkpt><trkpt lat="44.73615535841596" lon="8.094103002336718"><ele>163.66666666666666</ele><time>2026-04-11T12:28:45.001Z</time></trkpt><trkpt lat="44.73606727867225" lon="8.094126924266385"><ele>164.0</ele><time>2026-04-11T12:28:47.001Z</time></trkpt><trkpt lat="44.735979197649414" lon="8.094157936161292"><ele>164.0</ele><time>2026-04-11T12:28:49.001Z</time></trkpt><trkpt lat="44.735886436746725" lon="8.094179278885226"><ele>164.0</ele><time>2026-04-11T12:28:51.001Z</time></trkpt><trkpt lat="44.73579436006945" lon="8.094206852940362"><ele>164.0</ele><time>2026-04-11T12:28:53.001Z</time></trkpt><trkpt lat="44.7357018928993" lon="8.094229215267173"><ele>164.0</ele><time>2026-04-11T12:28:55.001Z</time></trkpt><trkpt lat="44.735613194335755" lon="8.094259075822261"><ele>164.0</ele><time>2026-04-11T12:28:57.001Z</time></trkpt><trkpt lat="44.73552011713888" lon="8.094285041634544"><ele>164.0</ele><time>2026-04-11T12:28:59.001Z</time></trkpt><trkpt lat="44.73542732424278" lon="8.094310221754098"><ele>164.0</ele><time>2026-04-11T12:29:01.001Z</time></trkpt><trkpt lat="44.73533772014093" lon="8.094338035892031"><ele>164.0</ele><time>2026-04-11T12:29:03.001Z</time></trkpt><trkpt lat="44.735244090871205" lon="8.094364950266856"><ele>164.0</ele><time>2026-04-11T12:29:05.001Z</time></trkpt><trkpt lat="44.735149915119074" lon="8.09438776149714"><ele>164.0</ele><time>2026-04-11T12:29:07.001Z</time></trkpt><trkpt lat="44.73506236685592" lon="8.094418137568605"><ele>163.6</ele><time>2026-04-11T12:29:09.001Z</time></trkpt><trkpt lat="44.73497055132017" lon="8.094443080354518"><ele>163.2</ele><time>2026-04-11T12:29:11.001Z</time></trkpt><trkpt lat="44.734881434985354" lon="8.094468254866076"><ele>162.79999999999998</ele><time>2026-04-11T12:29:13.001Z</time></trkpt><trkpt lat="44.73479367590899" lon="8.094473310049118"><ele>162.39999999999998</ele><time>2026-04-11T12:29:15.001Z</time></trkpt><trkpt lat="44.73470154136514" lon="8.094488016952676"><ele>162.0</ele><time>2026-04-11T12:29:17.001Z</time></trkpt><trkpt lat="44.734611900399486" lon="8.09448540060352"><ele>162.0</ele><time>2026-04-11T12:29:19.001Z</time></trkpt><trkpt lat="44.73451902966553" lon="8.094469000006384"><ele>162.0</ele><time>2026-04-11T12:29:21.001Z</time></trkpt><trkpt lat="44.73442815447474" lon="8.094438348683619"><ele>162.0</ele><time>2026-04-11T12:29:23.001Z</time></trkpt><trkpt lat="44.734339709521414" lon="8.09441064257738"><ele>162.0</ele><time>2026-04-11T12:29:25.001Z</time></trkpt><trkpt lat="44.73425347770388" lon="8.094380827376064"><ele>162.0</ele><time>2026-04-11T12:29:27.001Z</time></trkpt><trkpt lat="44.73415881221931" lon="8.094342271745742"><ele>162.0</ele><time>2026-04-11T12:29:29.001Z</time></trkpt><trkpt lat="44.73406768169896" lon="8.094314389322653"><ele>162.0</ele><time>2026-04-11T12:29:31.001Z</time></trkpt><trkpt lat="44.733980523764934" lon="8.094290916581775"><ele>162.0</ele><time>2026-04-11T12:29:33.001Z</time></trkpt><trkpt lat="44.733888093407764" lon="8.094261162351781"><ele>162.0</ele><time>2026-04-11T12:29:35.001Z</time></trkpt><trkpt lat="44.73379127954392" lon="8.094228373921183"><ele>162.0</ele><time>2026-04-11T12:29:37.001Z</time></trkpt><trkpt lat="44.733695892176705" lon="8.094198720858097"><ele>162.0</ele><time>2026-04-11T12:29:39.001Z</time></trkpt><trkpt lat="44.733606430220014" lon="8.09416851172344"><ele>162.0</ele><time>2026-04-11T12:29:41.002Z</time></trkpt><trkpt lat="44.733512156132576" lon="8.094138551964791"><ele>162.0</ele><time>2026-04-11T12:29:43.002Z</time></trkpt><trkpt lat="44.733422076475044" lon="8.094114349798264"><ele>162.0</ele><time>2026-04-11T12:29:45.002Z</time></trkpt><trkpt lat="44.73333266737613" lon="8.094094462005739"><ele>162.0</ele><time>2026-04-11T12:29:47.002Z</time></trkpt><trkpt lat="44.7332444784399" lon="8.0940829805253"><ele>162.39999999999998</ele><time>2026-04-11T12:29:49.002Z</time></trkpt><trkpt lat="44.733154642658796" lon="8.09407911066303"><ele>162.79999999999998</ele><time>2026-04-11T12:29:51.002Z</time></trkpt><trkpt lat="44.73306570175207" lon="8.094080826980303"><ele>163.2</ele><time>2026-04-11T12:29:53.002Z</time></trkpt><trkpt lat="44.732971777619" lon="8.094083299704025"><ele>163.6</ele><time>2026-04-11T12:29:55.002Z</time></trkpt><trkpt lat="44.73287782872563" lon="8.094095370064121"><ele>164.0</ele><time>2026-04-11T12:29:57.002Z</time></trkpt><trkpt lat="44.73278919682278" lon="8.094105032760101"><ele>164.33333333333331</ele><time>2026-04-11T12:29:59.002Z</time></trkpt><trkpt lat="44.73269210529893" lon="8.094113564336666"><ele>164.66666666666666</ele><time>2026-04-11T12:30:01.002Z</time></trkpt><trkpt lat="44.73260577308071" lon="8.094124138817179"><ele>165.0</ele><time>2026-04-11T12:30:03.002Z</time></trkpt><trkpt lat="44.73251973123314" lon="8.09413134049733"><ele>165.33333333333334</ele><time>2026-04-11T12:30:05.002Z</time></trkpt><trkpt lat="44.73243498392425" lon="8.094144627725122"><ele>165.66666666666669</ele><time>2026-04-11T12:30:07.002Z</time></trkpt><trkpt lat="44.73234943490238" lon="8.094155002115095"><ele>166.0</ele><time>2026-04-11T12:30:09.002Z</time></trkpt><trkpt lat="44.73225730725368" lon="8.094160524298987"><ele>166.0</ele><time>2026-04-11T12:30:11.002Z</time></trkpt><trkpt lat="44.73217037989684" lon="8.094166421348625"><ele>166.0</ele><time>2026-04-11T12:30:13Z</time></trkpt><trkpt lat="44.73208149097844" lon="8.094169733499093"><ele>166.0</ele><time>2026-04-11T12:30:15Z</time></trkpt><trkpt lat="44.73199083949432" lon="8.094176552431367"><ele>166.0</ele><time>2026-04-11T12:30:17Z</time></trkpt><trkpt lat="44.73190224950874" lon="8.094185303464972"><ele>166.0</ele><time>2026-04-11T12:30:19Z</time></trkpt><trkpt lat="44.73181265256716" lon="8.094196005032456"><ele>166.0</ele><time>2026-04-11T12:30:21Z</time></trkpt><trkpt lat="44.7317258851456" lon="8.094203089269541"><ele>166.66666666666669</ele><time>2026-04-11T12:30:23Z</time></trkpt><trkpt lat="44.7316377576279" lon="8.094212477988608"><ele>167.33333333333334</ele><time>2026-04-11T12:30:25Z</time></trkpt><trkpt lat="44.731549258170254" lon="8.094214997235492"><ele>168.0</ele><time>2026-04-11T12:30:27Z</time></trkpt><trkpt lat="44.73145830230898" lon="8.094221733416077"><ele>168.66666666666666</ele><time>2026-04-11T12:30:29Z</time></trkpt><trkpt lat="44.7313730909536" lon="8.094231461283687"><ele>169.33333333333331</ele><time>2026-04-11T12:30:31Z</time></trkpt><trkpt lat="44.731287670351364" lon="8.094241091901209"><ele>170.0</ele><time>2026-04-11T12:30:33Z</time></trkpt><trkpt lat="44.73119893090147" lon="8.094243093262087"><ele>170.0</ele><time>2026-04-11T12:30:35Z</time></trkpt><trkpt lat="44.73111210117591" lon="8.09424965453462"><ele>170.0</ele><time>2026-04-11T12:30:37Z</time></trkpt><trkpt lat="44.73102357676343" lon="8.09426082691368"><ele>170.0</ele><time>2026-04-11T12:30:39Z</time></trkpt><trkpt lat="44.73093306687398" lon="8.094271555672838"><ele>170.0</ele><time>2026-04-11T12:30:41Z</time></trkpt><trkpt lat="44.73084589096066" lon="8.094283714721"><ele>170.0</ele><time>2026-04-11T12:30:43Z</time></trkpt><trkpt lat="44.730756956413046" lon="8.094282348730976"><ele>170.0</ele><time>2026-04-11T12:30:45Z</time></trkpt><trkpt lat="44.73067083941529" lon="8.094291799496842"><ele>169.83333333333331</ele><time>2026-04-11T12:30:47.001Z</time></trkpt><trkpt lat="44.73059372878779" lon="8.094304741782492"><ele>169.66666666666666</ele><time>2026-04-11T12:30:49.001Z</time></trkpt><trkpt lat="44.73052372810239" lon="8.09430544634442"><ele>169.5</ele><time>2026-04-11T12:30:51.001Z</time></trkpt><trkpt lat="44.73043486587049" lon="8.094268497397922"><ele>169.33333333333334</ele><time>2026-04-11T12:30:54.001Z</time></trkpt><trkpt lat="44.73038702482698" lon="8.094101693020992"><ele>169.16666666666669</ele><time>2026-04-11T12:30:58.001Z</time></trkpt><trkpt lat="44.73037386574686" lon="8.093993134904997"><ele>169.0</ele><time>2026-04-11T12:31:00.001Z</time></trkpt><trkpt lat="44.73037918369262" lon="8.093892502303657"><ele>169.57142857142858</ele><time>2026-04-11T12:31:02.001Z</time></trkpt><trkpt lat="44.73039017980981" lon="8.093792723752298"><ele>170.14285714285714</ele><time>2026-04-11T12:31:04.001Z</time></trkpt><trkpt lat="44.73039006107059" lon="8.093701775619806"><ele>170.71428571428572</ele><time>2026-04-11T12:31:06.001Z</time></trkpt><trkpt lat="44.730399067768865" lon="8.093592390808205"><ele>171.28571428571428</ele><time>2026-04-11T12:31:09.001Z</time></trkpt><trkpt lat="44.730408912779076" lon="8.093487757142256"><ele>171.85714285714286</ele><time>2026-04-11T12:31:12.001Z</time></trkpt><trkpt lat="44.73041701082162" lon="8.093364944726014"><ele>172.42857142857142</ele><time>2026-04-11T12:31:16.001Z</time></trkpt><trkpt lat="44.73042319768766" lon="8.093272713887938"><ele>173.0</ele><time>2026-04-11T12:31:19.001Z</time></trkpt><trkpt lat="44.730450680978706" lon="8.09318079003168"><ele>174.7142857142857</ele><time>2026-04-11T12:31:22.001Z</time></trkpt><trkpt lat="44.73049307209772" lon="8.09309290060524"><ele>176.42857142857144</ele><time>2026-04-11T12:31:25.001Z</time></trkpt><trkpt lat="44.73053560278306" lon="8.093021760273045"><ele>178.14285714285714</ele><time>2026-04-11T12:31:28.001Z</time></trkpt><trkpt lat="44.73059921306246" lon="8.092967002012662"><ele>179.85714285714283</ele><time>2026-04-11T12:31:31.001Z</time></trkpt><trkpt lat="44.73065765122655" lon="8.092931430450006"><ele>181.57142857142856</ele><time>2026-04-11T12:31:34.001Z</time></trkpt><trkpt lat="44.73072816445916" lon="8.092905559676312"><ele>183.28571428571428</ele><time>2026-04-11T12:31:38.001Z</time></trkpt><trkpt lat="44.73080317816232" lon="8.09287916309882"><ele>185.0</ele><time>2026-04-11T12:31:42.001Z</time></trkpt><trkpt lat="44.73087792483278" lon="8.092855694785108"><ele>185.0</ele><time>2026-04-11T12:31:46.001Z</time></trkpt><trkpt lat="44.73093103027499" lon="8.092804890948168"><ele>185.0</ele><time>2026-04-11T12:31:49.001Z</time></trkpt><trkpt lat="44.730992260012755" lon="8.092762479100292"><ele>185.0</ele><time>2026-04-11T12:31:52.002Z</time></trkpt><trkpt lat="44.731059048359484" lon="8.092735731308881"><ele>185.0</ele><time>2026-04-11T12:31:55.002Z</time></trkpt><trkpt lat="44.73113956008068" lon="8.092647613770197"><ele>185.0</ele><time>2026-04-11T12:31:58.002Z</time></trkpt><trkpt lat="44.731217085750096" lon="8.092572251850179"><ele>185.0</ele><time>2026-04-11T12:32:01.002Z</time></trkpt><trkpt lat="44.7312726004005" lon="8.092523158860404"><ele>185.83333333333331</ele><time>2026-04-11T12:32:03.002Z</time></trkpt><trkpt lat="44.73134693820229" lon="8.092446198732526"><ele>186.66666666666666</ele><time>2026-04-11T12:32:06.002Z</time></trkpt><trkpt lat="44.73141050656957" lon="8.092365826320792"><ele>187.5</ele><time>2026-04-11T12:32:09.002Z</time></trkpt><trkpt lat="44.731473020460825" lon="8.09228850653065"><ele>188.33333333333334</ele><time>2026-04-11T12:32:12.002Z</time></trkpt><trkpt lat="44.731545892847635" lon="8.092210411143823"><ele>189.16666666666669</ele><time>2026-04-11T12:32:15.002Z</time></trkpt><trkpt lat="44.73161855867385" lon="8.092127252563001"><ele>190.0</ele><time>2026-04-11T12:32:18.002Z</time></trkpt><trkpt lat="44.73168936699863" lon="8.092052282345044"><ele>190.0</ele><time>2026-04-11T12:32:21.001Z</time></trkpt><trkpt lat="44.731753364903724" lon="8.091973399113392"><ele>190.0</ele><time>2026-04-11T12:32:24Z</time></trkpt><trkpt lat="44.731831947933905" lon="8.09191925442553"><ele>190.0</ele><time>2026-04-11T12:32:27Z</time></trkpt><trkpt lat="44.73189769295507" lon="8.091883408043813"><ele>190.0</ele><time>2026-04-11T12:32:30Z</time></trkpt><trkpt lat="44.73197153738526" lon="8.091864381701042"><ele>190.0</ele><time>2026-04-11T12:32:33Z</time></trkpt><trkpt lat="44.7320350320185" lon="8.091845140384136"><ele>190.0</ele><time>2026-04-11T12:32:36Z</time></trkpt><trkpt lat="44.732098426805656" lon="8.091827761066643"><ele>190.0</ele><time>2026-04-11T12:32:39Z</time></trkpt><trkpt lat="44.73218063449168" lon="8.09181116352722"><ele>190.5</ele><time>2026-04-11T12:32:43Z</time></trkpt><trkpt lat="44.732260104655126" lon="8.09178685529795"><ele>191.0</ele><time>2026-04-11T12:32:47Z</time></trkpt><trkpt lat="44.73233645930594" lon="8.09176015635114"><ele>191.5</ele><time>2026-04-11T12:32:51Z</time></trkpt><trkpt lat="44.73241184386311" lon="8.091718564868826"><ele>192.0</ele><time>2026-04-11T12:32:55.001Z</time></trkpt><trkpt lat="44.73248306089347" lon="8.091671573000514"><ele>192.49999999999997</ele><time>2026-04-11T12:32:59.001Z</time></trkpt><trkpt lat="44.73254031579321" lon="8.091596649923307"><ele>193.0</ele><time>2026-04-11T12:33:03.001Z</time></trkpt><trkpt lat="44.73258698168652" lon="8.091518467819897"><ele>193.33333333333331</ele><time>2026-04-11T12:33:07.001Z</time></trkpt><trkpt lat="44.73263637301392" lon="8.091432102260466"><ele>193.66666666666666</ele><time>2026-04-11T12:33:11.001Z</time></trkpt><trkpt lat="44.73268792801333" lon="8.091357582420548"><ele>194.0</ele><time>2026-04-11T12:33:15.001Z</time></trkpt><trkpt lat="44.73274402877509" lon="8.091274389129008"><ele>194.33333333333331</ele><time>2026-04-11T12:33:19.001Z</time></trkpt><trkpt lat="44.73279868193501" lon="8.091193705342377"><ele>194.66666666666666</ele><time>2026-04-11T12:33:23.001Z</time></trkpt><trkpt lat="44.732856182096" lon="8.091107955251243"><ele>195.0</ele><time>2026-04-11T12:33:27.001Z</time></trkpt><trkpt lat="44.73291652331975" lon="8.091035992857261"><ele>195.0</ele><time>2026-04-11T12:33:31.001Z</time></trkpt><trkpt lat="44.7329764560806" lon="8.090951011882776"><ele>195.0</ele><time>2026-04-11T12:33:35.001Z</time></trkpt><trkpt lat="44.73302349286517" lon="8.090876500392953"><ele>195.0</ele><time>2026-04-11T12:33:38.001Z</time></trkpt><trkpt lat="44.73307616387506" lon="8.09082009887529"><ele>195.0</ele><time>2026-04-11T12:33:41.001Z</time></trkpt><trkpt lat="44.73313127887213" lon="8.090766326386925"><ele>195.0</ele><time>2026-04-11T12:33:44.001Z</time></trkpt><trkpt lat="44.733175974871635" lon="8.090701868216412"><ele>195.0</ele><time>2026-04-11T12:33:47.001Z</time></trkpt><trkpt lat="44.73324507472412" lon="8.090641913755848"><ele>195.0</ele><time>2026-04-11T12:33:51.001Z</time></trkpt><trkpt lat="44.73330393617321" lon="8.090567478176888"><ele>197.66666666666666</ele><time>2026-04-11T12:33:55.001Z</time></trkpt><trkpt lat="44.733368293548274" lon="8.090493231544654"><ele>200.33333333333331</ele><time>2026-04-11T12:33:59.001Z</time></trkpt><trkpt lat="44.733425904174524" lon="8.090410164393251"><ele>203.0</ele><time>2026-04-11T12:34:02.001Z</time></trkpt><trkpt lat="44.733482671203724" lon="8.090346253918746"><ele>205.66666666666666</ele><time>2026-04-11T12:34:05.002Z</time></trkpt><trkpt lat="44.73354087818365" lon="8.090286338623411"><ele>208.33333333333331</ele><time>2026-04-11T12:34:08.002Z</time></trkpt><trkpt lat="44.733598606700625" lon="8.09022208894184"><ele>211.0</ele><time>2026-04-11T12:34:11.002Z</time></trkpt><trkpt lat="44.73365572167045" lon="8.090157083025089"><ele>211.0</ele><time>2026-04-11T12:34:14.002Z</time></trkpt><trkpt lat="44.73371610538299" lon="8.090093529713883"><ele>211.0</ele><time>2026-04-11T12:34:17.002Z</time></trkpt><trkpt lat="44.733768975157474" lon="8.090028378768581"><ele>211.0</ele><time>2026-04-11T12:34:20.002Z</time></trkpt><trkpt lat="44.733841651342054" lon="8.089992621542624"><ele>211.0</ele><time>2026-04-11T12:34:23.002Z</time></trkpt><trkpt lat="44.73390066576974" lon="8.089957314805812"><ele>211.0</ele><time>2026-04-11T12:34:26Z</time></trkpt><trkpt lat="44.73396499541418" lon="8.08994359102369"><ele>211.0</ele><time>2026-04-11T12:34:29Z</time></trkpt><trkpt lat="44.73403432530291" lon="8.089947008898744"><ele>211.0</ele><time>2026-04-11T12:34:32Z</time></trkpt><trkpt lat="44.73409884259158" lon="8.089954009894536"><ele>211.0</ele><time>2026-04-11T12:34:35Z</time></trkpt><trkpt lat="44.734162013648785" lon="8.089967967217962"><ele>211.0</ele><time>2026-04-11T12:34:38Z</time></trkpt><trkpt lat="44.73422147402072" lon="8.09000077276039"><ele>211.0</ele><time>2026-04-11T12:34:41Z</time></trkpt><trkpt lat="44.73428433829403" lon="8.090022698974224"><ele>211.0</ele><time>2026-04-11T12:34:44Z</time></trkpt><trkpt lat="44.734341999539" lon="8.090070542468386"><ele>211.0</ele><time>2026-04-11T12:34:47Z</time></trkpt><trkpt lat="44.73440619885741" lon="8.090091777130636"><ele>211.0</ele><time>2026-04-11T12:34:51Z</time></trkpt><trkpt lat="44.73447476431455" lon="8.090120330499467"><ele>211.0</ele><time>2026-04-11T12:34:55Z</time></trkpt><trkpt lat="44.734535325760184" lon="8.090144761493402"><ele>211.49999999999997</ele><time>2026-04-11T12:34:58Z</time></trkpt><trkpt lat="44.73461317820389" lon="8.090157660183106"><ele>212.0</ele><time>2026-04-11T12:35:01Z</time></trkpt><trkpt lat="44.734682942517196" lon="8.090162099407674"><ele>212.5</ele><time>2026-04-11T12:35:04Z</time></trkpt><trkpt lat="44.734755479104265" lon="8.090138295425971"><ele>213.0</ele><time>2026-04-11T12:35:07Z</time></trkpt><trkpt lat="44.7348187702487" lon="8.090079726474382"><ele>213.49999999999997</ele><time>2026-04-11T12:35:10Z</time></trkpt><trkpt lat="44.7348764173061" lon="8.090010341170231"><ele>214.0</ele><time>2026-04-11T12:35:13.001Z</time></trkpt><trkpt lat="44.73493262062494" lon="8.089937762512422"><ele>215.00000000000003</ele><time>2026-04-11T12:35:16.001Z</time></trkpt><trkpt lat="44.7349915711718" lon="8.089862638697397"><ele>216.0</ele><time>2026-04-11T12:35:19.001Z</time></trkpt><trkpt lat="44.73504160438463" lon="8.08979191761305"><ele>217.0</ele><time>2026-04-11T12:35:22.001Z</time></trkpt><trkpt lat="44.73508217877552" lon="8.089710379780325"><ele>218.0</ele><time>2026-04-11T12:35:25.001Z</time></trkpt><trkpt lat="44.73511929313164" lon="8.089636128775853"><ele>219.0</ele><time>2026-04-11T12:35:28.001Z</time></trkpt><trkpt lat="44.73516349188422" lon="8.089561875523591"><ele>220.00000000000003</ele><time>2026-04-11T12:35:31.001Z</time></trkpt><trkpt lat="44.7352302378718" lon="8.089488563925883"><ele>221.0</ele><time>2026-04-11T12:35:35.001Z</time></trkpt><trkpt lat="44.73529127661728" lon="8.089434698240293"><ele>221.00000000000003</ele><time>2026-04-11T12:35:38.001Z</time></trkpt><trkpt lat="44.73535182914398" lon="8.089395792164895"><ele>221.0</ele><time>2026-04-11T12:35:41.001Z</time></trkpt><trkpt lat="44.7354170228547" lon="8.08934817623144"><ele>221.0</ele><time>2026-04-11T12:35:44.001Z</time></trkpt><trkpt lat="44.73547764047951" lon="8.089306265518076"><ele>221.0</ele><time>2026-04-11T12:35:47.001Z</time></trkpt><trkpt lat="44.73555669243406" lon="8.089270940386697"><ele>221.0</ele><time>2026-04-11T12:35:51.001Z</time></trkpt><trkpt lat="44.735615354099686" lon="8.08923320662515"><ele>221.00000000000003</ele><time>2026-04-11T12:35:54.001Z</time></trkpt><trkpt lat="44.735674016003045" lon="8.089194856923541"><ele>221.0</ele><time>2026-04-11T12:35:57.001Z</time></trkpt><trkpt lat="44.735753742373014" lon="8.089136596459538"><ele>222.66666666666669</ele><time>2026-04-11T12:36:00.001Z</time></trkpt><trkpt lat="44.73583116701191" lon="8.089089051459883"><ele>224.33333333333334</ele><time>2026-04-11T12:36:03.001Z</time></trkpt><trkpt lat="44.73590061272302" lon="8.089029725218147"><ele>226.0</ele><time>2026-04-11T12:36:06.001Z</time></trkpt><trkpt lat="44.735954744995446" lon="8.08895062593374"><ele>227.66666666666669</ele><time>2026-04-11T12:36:09.001Z</time></trkpt><trkpt lat="44.73599477587272" lon="8.08885919444278"><ele>229.33333333333334</ele><time>2026-04-11T12:36:12.001Z</time></trkpt><trkpt lat="44.73599615774069" lon="8.088753483868556"><ele>231.0</ele><time>2026-04-11T12:36:15.001Z</time></trkpt><trkpt lat="44.735971327219545" lon="8.088635497667985"><ele>231.0</ele><time>2026-04-11T12:36:19.001Z</time></trkpt><trkpt lat="44.735925523094" lon="8.088561032084142"><ele>231.0</ele><time>2026-04-11T12:36:22.002Z</time></trkpt><trkpt lat="44.7359086783475" lon="8.088444551438476"><ele>231.0</ele><time>2026-04-11T12:36:26.002Z</time></trkpt><trkpt lat="44.73591053841365" lon="8.088340865597438"><ele>231.0</ele><time>2026-04-11T12:36:29.002Z</time></trkpt><trkpt lat="44.735880452600625" lon="8.088234351254101"><ele>231.0</ele><time>2026-04-11T12:36:32Z</time></trkpt><trkpt lat="44.73584339678594" lon="8.088156428182481"><ele>231.0</ele><time>2026-04-11T12:36:35Z</time></trkpt><trkpt lat="44.73579644048173" lon="8.088078601707942"><ele>231.0</ele><time>2026-04-11T12:36:38Z</time></trkpt><trkpt lat="44.735745612595224" lon="8.088019804652296"><ele>230.85714285714286</ele><time>2026-04-11T12:36:41Z</time></trkpt><trkpt lat="44.73568714612513" lon="8.087961714712549"><ele>230.71428571428572</ele><time>2026-04-11T12:36:44Z</time></trkpt><trkpt lat="44.73562603459751" lon="8.087910697790871"><ele>230.57142857142856</ele><time>2026-04-11T12:36:47Z</time></trkpt><trkpt lat="44.73557050889635" lon="8.08786528896386"><ele>230.42857142857142</ele><time>2026-04-11T12:36:50Z</time></trkpt><trkpt lat="44.735502234470616" lon="8.087824781235495"><ele>230.28571428571428</ele><time>2026-04-11T12:36:53Z</time></trkpt><trkpt lat="44.7354304949227" lon="8.087794860127659"><ele>230.1428571428571</ele><time>2026-04-11T12:36:57Z</time></trkpt><trkpt lat="44.735362799876185" lon="8.087774193652749"><ele>229.99999999999997</ele><time>2026-04-11T12:37:00Z</time></trkpt><trkpt lat="44.73529305188902" lon="8.087758388325284"><ele>232.50000000000003</ele><time>2026-04-11T12:37:04Z</time></trkpt><trkpt lat="44.73520553461586" lon="8.087729609428917"><ele>235.0</ele><time>2026-04-11T12:37:08Z</time></trkpt><trkpt lat="44.73513574210584" lon="8.087700499644464"><ele>237.5</ele><time>2026-04-11T12:37:12Z</time></trkpt><trkpt lat="44.735060830207566" lon="8.087667766483131"><ele>240.0</ele><time>2026-04-11T12:37:16Z</time></trkpt><trkpt lat="44.734980127101586" lon="8.087631034853006"><ele>242.50000000000003</ele><time>2026-04-11T12:37:20Z</time></trkpt><trkpt lat="44.734918816666834" lon="8.08761045791647"><ele>245.0</ele><time>2026-04-11T12:37:23Z</time></trkpt><trkpt lat="44.73484042680734" lon="8.087542657503642"><ele>245.0</ele><time>2026-04-11T12:37:27Z</time></trkpt><trkpt lat="44.73478609269723" lon="8.08749062050769"><ele>245.0</ele><time>2026-04-11T12:37:30.001Z</time></trkpt><trkpt lat="44.7347363540311" lon="8.087428897077608"><ele>245.0</ele><time>2026-04-11T12:37:33.001Z</time></trkpt><trkpt lat="44.734683306292155" lon="8.087371578431595"><ele>245.0</ele><time>2026-04-11T12:37:36.001Z</time></trkpt><trkpt lat="44.7346303196854" lon="8.087317600165504"><ele>245.0</ele><time>2026-04-11T12:37:39.001Z</time></trkpt><trkpt lat="44.734576436230284" lon="8.087262937480332"><ele>245.0</ele><time>2026-04-11T12:37:42.001Z</time></trkpt><trkpt lat="44.73452425711051" lon="8.087203558162175"><ele>245.0</ele><time>2026-04-11T12:37:45.001Z</time></trkpt><trkpt lat="44.73446950755211" lon="8.087151764851317"><ele>244.42857142857144</ele><time>2026-04-11T12:37:48.001Z</time></trkpt><trkpt lat="44.73440245916424" lon="8.087082797226909"><ele>243.85714285714286</ele><time>2026-04-11T12:37:51.001Z</time></trkpt><trkpt lat="44.734357036180434" lon="8.087013924808886"><ele>243.28571428571428</ele><time>2026-04-11T12:37:54.001Z</time></trkpt><trkpt lat="44.734300625802334" lon="8.086963280638667"><ele>242.71428571428572</ele><time>2026-04-11T12:37:57.001Z</time></trkpt><trkpt lat="44.73424396948004" lon="8.086904250783402"><ele>242.14285714285717</ele><time>2026-04-11T12:38:00.001Z</time></trkpt><trkpt lat="44.73416731024892" lon="8.086849585474216"><ele>241.57142857142858</ele><time>2026-04-11T12:38:03.001Z</time></trkpt><trkpt lat="44.734107301171" lon="8.086794438794477"><ele>241.0</ele><time>2026-04-11T12:38:06.001Z</time></trkpt><trkpt lat="44.73404275389433" lon="8.08676672472971"><ele>241.99999999999997</ele><time>2026-04-11T12:38:09.001Z</time></trkpt><trkpt lat="44.73398091856334" lon="8.08673747054206"><ele>243.0</ele><time>2026-04-11T12:38:12.001Z</time></trkpt><trkpt lat="44.73391437707919" lon="8.086699610995765"><ele>244.0</ele><time>2026-04-11T12:38:16.001Z</time></trkpt><trkpt lat="44.73384542630019" lon="8.086680258610757"><ele>245.0</ele><time>2026-04-11T12:38:20.001Z</time></trkpt><trkpt lat="44.733767512007965" lon="8.086645264223883"><ele>245.99999999999997</ele><time>2026-04-11T12:38:24.001Z</time></trkpt><trkpt lat="44.73369273667286" lon="8.086614390856898"><ele>247.0</ele><time>2026-04-11T12:38:28.001Z</time></trkpt><trkpt lat="44.73361397254647" lon="8.086576524334077"><ele>248.83333333333331</ele><time>2026-04-11T12:38:32.001Z</time></trkpt><trkpt lat="44.733549079662886" lon="8.086536691372082"><ele>250.66666666666666</ele><time>2026-04-11T12:38:35.002Z</time></trkpt><trkpt lat="44.733472331655406" lon="8.08652885393686"><ele>252.5</ele><time>2026-04-11T12:38:37.999Z</time></trkpt><trkpt lat="44.73339167535445" lon="8.086501910369481"><ele>254.33333333333331</ele><time>2026-04-11T12:38:41Z</time></trkpt><trkpt lat="44.733324490989965" lon="8.086466777320592"><ele>256.1666666666667</ele><time>2026-04-11T12:38:44Z</time></trkpt><trkpt lat="44.73323016618483" lon="8.086433774601698"><ele>258.0</ele><time>2026-04-11T12:38:47Z</time></trkpt><trkpt lat="44.733147521349565" lon="8.086403941795629"><ele>258.0</ele><time>2026-04-11T12:38:50Z</time></trkpt><trkpt lat="44.7330715271052" lon="8.08638060368925"><ele>258.0</ele><time>2026-04-11T12:38:53Z</time></trkpt><trkpt lat="44.7329874979865" lon="8.086371351663256"><ele>258.0</ele><time>2026-04-11T12:38:56Z</time></trkpt><trkpt lat="44.73290631335404" lon="8.086327435022998"><ele>258.0</ele><time>2026-04-11T12:38:59Z</time></trkpt><trkpt lat="44.73282012780404" lon="8.086308122639458"><ele>258.0</ele><time>2026-04-11T12:39:02Z</time></trkpt><trkpt lat="44.73273851487628" lon="8.086287051890865"><ele>258.0</ele><time>2026-04-11T12:39:05Z</time></trkpt><trkpt lat="44.732662899446645" lon="8.086290165700794"><ele>259.5</ele><time>2026-04-11T12:39:08Z</time></trkpt><trkpt lat="44.73258487612039" lon="8.086288011898208"><ele>261.0</ele><time>2026-04-11T12:39:11Z</time></trkpt><trkpt lat="44.73251385915045" lon="8.086299010338555"><ele>262.5</ele><time>2026-04-11T12:39:14Z</time></trkpt><trkpt lat="44.73243824831718" lon="8.086264821128086"><ele>264.0</ele><time>2026-04-11T12:39:17Z</time></trkpt><trkpt lat="44.73236188029403" lon="8.086266521347662"><ele>265.5</ele><time>2026-04-11T12:39:20Z</time></trkpt><trkpt lat="44.73228794543629" lon="8.086251309014902"><ele>267.0</ele><time>2026-04-11T12:39:23Z</time></trkpt><trkpt lat="44.73221417426422" lon="8.08627344535052"><ele>267.0</ele><time>2026-04-11T12:39:26Z</time></trkpt><trkpt lat="44.73213875376741" lon="8.08625265426876"><ele>267.0</ele><time>2026-04-11T12:39:29Z</time></trkpt><trkpt lat="44.73206045011301" lon="8.086252766875253"><ele>267.0</ele><time>2026-04-11T12:39:32Z</time></trkpt><trkpt lat="44.73198388020085" lon="8.086250970896316"><ele>267.0</ele><time>2026-04-11T12:39:35Z</time></trkpt><trkpt lat="44.73190183048378" lon="8.086258258493734"><ele>267.0</ele><time>2026-04-11T12:39:38.001Z</time></trkpt><trkpt lat="44.73182193134111" lon="8.086264324143057"><ele>267.0</ele><time>2026-04-11T12:39:41.001Z</time></trkpt><trkpt lat="44.731740502828366" lon="8.086274679508929"><ele>267.14285714285717</ele><time>2026-04-11T12:39:44.001Z</time></trkpt><trkpt lat="44.73166029262675" lon="8.086294882666499"><ele>267.2857142857143</ele><time>2026-04-11T12:39:47.001Z</time></trkpt><trkpt lat="44.731583838475345" lon="8.086313324502733"><ele>267.42857142857144</ele><time>2026-04-11T12:39:50.001Z</time></trkpt><trkpt lat="44.73151452836695" lon="8.086343866468457"><ele>267.57142857142856</ele><time>2026-04-11T12:39:53.001Z</time></trkpt><trkpt lat="44.73145184123158" lon="8.086378364163373"><ele>267.7142857142857</ele><time>2026-04-11T12:39:56.001Z</time></trkpt><trkpt lat="44.73137914533022" lon="8.086404438458247"><ele>267.8571428571429</ele><time>2026-04-11T12:40:00.001Z</time></trkpt><trkpt lat="44.731311067342666" lon="8.08640061125685"><ele>268.0</ele><time>2026-04-11T12:41:14Z</time></trkpt><trkpt lat="44.731264749883564" lon="8.086484418157198"><ele>268.0</ele><time>2026-04-11T12:41:18Z</time></trkpt><trkpt lat="44.73118915294629" lon="8.086513727401481"><ele>268.0</ele><time>2026-04-11T12:41:21Z</time></trkpt><trkpt lat="44.731082153827536" lon="8.086547114948237"><ele>268.0</ele><time>2026-04-11T12:41:23Z</time></trkpt><trkpt lat="44.730975549647034" lon="8.08659044984469"><ele>268.0</ele><time>2026-04-11T12:41:25Z</time></trkpt><trkpt lat="44.73091294946045" lon="8.08661408067763"><ele>268.0</ele><time>2026-04-11T12:41:26.001Z</time></trkpt><trkpt lat="44.73084831004874" lon="8.086589939091182"><ele>268.0</ele><time>2026-04-11T12:41:27.001Z</time></trkpt><trkpt lat="44.730778800406526" lon="8.086593958082371"><ele>269.4</ele><time>2026-04-11T12:41:28.001Z</time></trkpt><trkpt lat="44.73066691044132" lon="8.08661699703936"><ele>270.8</ele><time>2026-04-11T12:41:30.001Z</time></trkpt><trkpt lat="44.73055760209942" lon="8.086648109093"><ele>272.2</ele><time>2026-04-11T12:41:32.001Z</time></trkpt><trkpt lat="44.73047026352038" lon="8.086674941265821"><ele>273.6</ele><time>2026-04-11T12:41:34.001Z</time></trkpt><trkpt lat="44.73034425172284" lon="8.086659305628132"><ele>275.0</ele><time>2026-04-11T12:41:36.001Z</time></trkpt><trkpt lat="44.730279444314434" lon="8.086647098505335"><ele>274.5</ele><time>2026-04-11T12:41:37.001Z</time></trkpt><trkpt lat="44.73015904965271" lon="8.08660104621661"><ele>274.0</ele><time>2026-04-11T12:41:39.001Z</time></trkpt><trkpt lat="44.73009114773154" lon="8.086577966809843"><ele>273.5</ele><time>2026-04-11T12:41:40.001Z</time></trkpt><trkpt lat="44.730024257624926" lon="8.086571117992472"><ele>273.0</ele><time>2026-04-11T12:41:41.001Z</time></trkpt><trkpt lat="44.729961522657526" lon="8.086552384084314"><ele>272.5</ele><time>2026-04-11T12:41:42.001Z</time></trkpt><trkpt lat="44.72988362177539" lon="8.086549911586916"><ele>272.0</ele><time>2026-04-11T12:41:43.001Z</time></trkpt><trkpt lat="44.72980912130294" lon="8.086540295404783"><ele>270.0</ele><time>2026-04-11T12:41:44.001Z</time></trkpt><trkpt lat="44.72972903958849" lon="8.086529597529145"><ele>268.0</ele><time>2026-04-11T12:41:45.001Z</time></trkpt><trkpt lat="44.72964100958794" lon="8.086526887526336"><ele>266.0</ele><time>2026-04-11T12:41:46.001Z</time></trkpt><trkpt lat="44.729552958386996" lon="8.086527348242546"><ele>264.0</ele><time>2026-04-11T12:41:47.001Z</time></trkpt><trkpt lat="44.72946637009717" lon="8.086529247644936"><ele>262.0</ele><time>2026-04-11T12:41:48.001Z</time></trkpt><trkpt lat="44.729376059893674" lon="8.086528579216607"><ele>260.0</ele><time>2026-04-11T12:41:49.001Z</time></trkpt><trkpt lat="44.72927696140565" lon="8.086517181709686"><ele>258.4</ele><time>2026-04-11T12:41:50.001Z</time></trkpt><trkpt lat="44.72917954690551" lon="8.086513090343699"><ele>256.8</ele><time>2026-04-11T12:41:51.001Z</time></trkpt><trkpt lat="44.7290831613507" lon="8.086501906237968"><ele>255.2</ele><time>2026-04-11T12:41:52.001Z</time></trkpt><trkpt lat="44.7289818167523" lon="8.086478454586297"><ele>253.6</ele><time>2026-04-11T12:41:53.001Z</time></trkpt><trkpt lat="44.728880856220606" lon="8.086444985057827"><ele>252.0</ele><time>2026-04-11T12:41:54.001Z</time></trkpt><trkpt lat="44.72878284126048" lon="8.086407851513057"><ele>252.0</ele><time>2026-04-11T12:41:55.001Z</time></trkpt><trkpt lat="44.72868445742872" lon="8.086352626765278"><ele>252.0</ele><time>2026-04-11T12:41:56.001Z</time></trkpt><trkpt lat="44.728591177706015" lon="8.086298536896955"><ele>252.0</ele><time>2026-04-11T12:41:57.001Z</time></trkpt><trkpt lat="44.728497104572554" lon="8.086234451498436"><ele>252.0</ele><time>2026-04-11T12:41:58.001Z</time></trkpt><trkpt lat="44.72841887459295" lon="8.086161097122625"><ele>252.0</ele><time>2026-04-11T12:41:59.001Z</time></trkpt><trkpt lat="44.728332810975" lon="8.0860942169016"><ele>251.33333333333334</ele><time>2026-04-11T12:42:00.001Z</time></trkpt><trkpt lat="44.728262868106654" lon="8.086005247200033"><ele>250.66666666666669</ele><time>2026-04-11T12:42:01.001Z</time></trkpt><trkpt lat="44.72818389452549" lon="8.085940706206744"><ele>250.0</ele><time>2026-04-11T12:42:02.001Z</time></trkpt><trkpt lat="44.7281009618698" lon="8.085899456172934"><ele>249.33333333333334</ele><time>2026-04-11T12:42:03.001Z</time></trkpt><trkpt lat="44.72802768837019" lon="8.085836697222085"><ele>248.66666666666669</ele><time>2026-04-11T12:42:04.001Z</time></trkpt><trkpt lat="44.72795733887299" lon="8.085787855327988"><ele>248.0</ele><time>2026-04-11T12:42:05.001Z</time></trkpt><trkpt lat="44.727884703898205" lon="8.085741132210586"><ele>248.0</ele><time>2026-04-11T12:42:06.001Z</time></trkpt><trkpt lat="44.727812753695225" lon="8.085695803888951"><ele>248.0</ele><time>2026-04-11T12:42:07.001Z</time></trkpt><trkpt lat="44.72774889359683" lon="8.085663894901645"><ele>248.0</ele><time>2026-04-11T12:42:08.001Z</time></trkpt><trkpt lat="44.72768422682368" lon="8.08563169785533"><ele>248.0</ele><time>2026-04-11T12:42:09.001Z</time></trkpt><trkpt lat="44.727564789235814" lon="8.085575202796015"><ele>248.0</ele><time>2026-04-11T12:42:11.001Z</time></trkpt><trkpt lat="44.727455141735405" lon="8.085522656584784"><ele>250.2</ele><time>2026-04-11T12:42:13.001Z</time></trkpt><trkpt lat="44.72734878786666" lon="8.085472306088633"><ele>252.4</ele><time>2026-04-11T12:42:15.001Z</time></trkpt><trkpt lat="44.727244957756724" lon="8.085411866433976"><ele>254.59999999999997</ele><time>2026-04-11T12:42:17.001Z</time></trkpt><trkpt lat="44.727146692027326" lon="8.085364028593741"><ele>256.8</ele><time>2026-04-11T12:42:19.001Z</time></trkpt><trkpt lat="44.72704685190948" lon="8.085322051486912"><ele>259.0</ele><time>2026-04-11T12:42:21.001Z</time></trkpt><trkpt lat="44.726957931071624" lon="8.085280653288528"><ele>259.5</ele><time>2026-04-11T12:42:23.001Z</time></trkpt><trkpt lat="44.72686881106701" lon="8.085237885807096"><ele>260.0</ele><time>2026-04-11T12:42:25.002Z</time></trkpt><trkpt lat="44.72678263279719" lon="8.085202311929395"><ele>260.5</ele><time>2026-04-11T12:42:27.002Z</time></trkpt><trkpt lat="44.726696290601005" lon="8.085166089784826"><ele>261.0</ele><time>2026-04-11T12:42:29.002Z</time></trkpt><trkpt lat="44.72661366710595" lon="8.08512741683558"><ele>261.5</ele><time>2026-04-11T12:42:31.002Z</time></trkpt><trkpt lat="44.72653417632214" lon="8.085086701158946"><ele>262.0</ele><time>2026-04-11T12:42:33.002Z</time></trkpt><trkpt lat="44.72645513485973" lon="8.085046212493543"><ele>262.0</ele><time>2026-04-11T12:42:35.002Z</time></trkpt><trkpt lat="44.726379577863746" lon="8.085016382149554"><ele>262.0</ele><time>2026-04-11T12:42:37.002Z</time></trkpt><trkpt lat="44.72630406883659" lon="8.084982658591242"><ele>262.0</ele><time>2026-04-11T12:42:39.002Z</time></trkpt><trkpt lat="44.72623836588034" lon="8.084955190968989"><ele>262.0</ele><time>2026-04-11T12:42:41.002Z</time></trkpt><trkpt lat="44.726171618903955" lon="8.084922053142197"><ele>262.0</ele><time>2026-04-11T12:42:43.002Z</time></trkpt><trkpt lat="44.72611037450099" lon="8.084887891959905"><ele>262.0</ele><time>2026-04-11T12:42:45.002Z</time></trkpt><trkpt lat="44.72604590354182" lon="8.084851305347279"><ele>262.0</ele><time>2026-04-11T12:42:47.002Z</time></trkpt><trkpt lat="44.72597794343848" lon="8.084824793186911"><ele>262.0</ele><time>2026-04-11T12:42:49Z</time></trkpt><trkpt lat="44.725911913954846" lon="8.084792102618227"><ele>262.0</ele><time>2026-04-11T12:42:51Z</time></trkpt><trkpt lat="44.725851382094234" lon="8.084764950612634"><ele>262.0</ele><time>2026-04-11T12:42:53Z</time></trkpt><trkpt lat="44.72578807379238" lon="8.084732132631329"><ele>262.0</ele><time>2026-04-11T12:42:55Z</time></trkpt><trkpt lat="44.72572803863485" lon="8.084701431657429"><ele>262.0</ele><time>2026-04-11T12:42:57Z</time></trkpt><trkpt lat="44.72564991608665" lon="8.08465097232321"><ele>262.0</ele><time>2026-04-11T12:43:00Z</time></trkpt><trkpt lat="44.725577047591706" lon="8.084596760715394"><ele>262.0</ele><time>2026-04-11T12:43:03Z</time></trkpt><trkpt lat="44.72551182468114" lon="8.08455534315914"><ele>262.0</ele><time>2026-04-11T12:43:06Z</time></trkpt><trkpt lat="44.72543898652154" lon="8.084520992172203"><ele>262.0</ele><time>2026-04-11T12:43:09Z</time></trkpt><trkpt lat="44.72549885498578" lon="8.084341601924601"><ele>262.0</ele><time>2026-04-11T12:43:13Z</time></trkpt><trkpt lat="44.72547387593866" lon="8.084243661702578"><ele>262.0</ele><time>2026-04-11T12:43:15Z</time></trkpt><trkpt lat="44.72544050607724" lon="8.08413367199932"><ele>262.0</ele><time>2026-04-11T12:43:17Z</time></trkpt><trkpt lat="44.725400717369205" lon="8.08402500433964"><ele>259.8</ele><time>2026-04-11T12:43:19Z</time></trkpt><trkpt lat="44.7253446550053" lon="8.083921217700263"><ele>257.6</ele><time>2026-04-11T12:43:21Z</time></trkpt><trkpt lat="44.72530903870098" lon="8.083782871169607"><ele>255.40000000000003</ele><time>2026-04-11T12:43:23Z</time></trkpt><trkpt lat="44.72524248380864" lon="8.083635544196719"><ele>253.20000000000002</ele><time>2026-04-11T12:43:25Z</time></trkpt><trkpt lat="44.7251816392979" lon="8.083481557858736"><ele>251.0</ele><time>2026-04-11T12:43:27Z</time></trkpt><trkpt lat="44.725156677720015" lon="8.083396557251499"><ele>253.83333333333334</ele><time>2026-04-11T12:43:28Z</time></trkpt><trkpt lat="44.725130009128364" lon="8.083231429490926"><ele>256.6666666666667</ele><time>2026-04-11T12:43:30Z</time></trkpt><trkpt lat="44.72511024312625" lon="8.083144929607908"><ele>259.5</ele><time>2026-04-11T12:43:31.001Z</time></trkpt><trkpt lat="44.7250739895301" lon="8.082971800476065"><ele>262.3333333333333</ele><time>2026-04-11T12:43:33.001Z</time></trkpt><trkpt lat="44.72505908719731" lon="8.082879713397515"><ele>265.16666666666663</ele><time>2026-04-11T12:43:34.001Z</time></trkpt><trkpt lat="44.72504583832153" lon="8.082786928545659"><ele>268.0</ele><time>2026-04-11T12:43:35.001Z</time></trkpt><trkpt lat="44.725033921409704" lon="8.082695918573632"><ele>268.0</ele><time>2026-04-11T12:43:36.001Z</time></trkpt><trkpt lat="44.72502132137315" lon="8.08260083036597"><ele>268.0</ele><time>2026-04-11T12:43:37.001Z</time></trkpt><trkpt lat="44.72501212319929" lon="8.082503202931294"><ele>268.0</ele><time>2026-04-11T12:43:38.001Z</time></trkpt><trkpt lat="44.72500943498748" lon="8.082409524300564"><ele>268.0</ele><time>2026-04-11T12:43:39.001Z</time></trkpt><trkpt lat="44.72500914287307" lon="8.082316978294957"><ele>268.0</ele><time>2026-04-11T12:43:40.001Z</time></trkpt><trkpt lat="44.72501247872038" lon="8.082218652601226"><ele>268.0</ele><time>2026-04-11T12:43:41.001Z</time></trkpt><trkpt lat="44.72501749522582" lon="8.082124503333398"><ele>268.0</ele><time>2026-04-11T12:43:42.001Z</time></trkpt><trkpt lat="44.72501959424474" lon="8.082030635963676"><ele>267.5</ele><time>2026-04-11T12:43:43.001Z</time></trkpt><trkpt lat="44.725017675105526" lon="8.081875721281587"><ele>267.0</ele><time>2026-04-11T12:43:45.001Z</time></trkpt><trkpt lat="44.7250263342136" lon="8.081765994290947"><ele>266.5</ele><time>2026-04-11T12:43:47.001Z</time></trkpt><trkpt lat="44.72504123208198" lon="8.081659171262997"><ele>266.0</ele><time>2026-04-11T12:43:49.001Z</time></trkpt><trkpt lat="44.72505103437683" lon="8.081541995032158"><ele>265.5</ele><time>2026-04-11T12:43:51.001Z</time></trkpt><trkpt lat="44.72504872070526" lon="8.081416787418535"><ele>265.0</ele><time>2026-04-11T12:43:53.001Z</time></trkpt><trkpt lat="44.72506609199751" lon="8.081304805361192"><ele>264.5</ele><time>2026-04-11T12:43:55.001Z</time></trkpt><trkpt lat="44.72508383187906" lon="8.081194013056141"><ele>264.0</ele><time>2026-04-11T12:43:58.001Z</time></trkpt><trkpt lat="44.72511650266566" lon="8.08111289688104"><ele>263.5</ele><time>2026-04-11T12:44:00.001Z</time></trkpt><trkpt lat="44.72517194859979" lon="8.081045305379703"><ele>263.0</ele><time>2026-04-11T12:44:02.001Z</time></trkpt><trkpt lat="44.72524010901408" lon="8.08098322923871"><ele>262.5</ele><time>2026-04-11T12:44:04.001Z</time></trkpt><trkpt lat="44.72531053570637" lon="8.080943035612618"><ele>262.0</ele><time>2026-04-11T12:44:07.001Z</time></trkpt><trkpt lat="44.725368400261424" lon="8.08086665091289"><ele>261.66666666666663</ele><time>2026-04-11T12:44:10.001Z</time></trkpt><trkpt lat="44.725422854479774" lon="8.080809587076487"><ele>261.3333333333333</ele><time>2026-04-11T12:44:14.001Z</time></trkpt><trkpt lat="44.725425329243635" lon="8.080716553940228"><ele>261.0</ele><time>2026-04-11T12:44:39.002Z</time></trkpt><trkpt lat="44.72553527896331" lon="8.080690370669812"><ele>260.6666666666667</ele><time>2026-04-11T12:44:46.002Z</time></trkpt><trkpt lat="44.72560847000558" lon="8.080678140468967"><ele>260.33333333333337</ele><time>2026-04-11T12:44:52.002Z</time></trkpt><trkpt lat="44.72568384173655" lon="8.080678610470054"><ele>260.0</ele><time>2026-04-11T12:45:08Z</time></trkpt><trkpt lat="44.725745048093124" lon="8.080644094813552"><ele>260.1666666666667</ele><time>2026-04-11T12:45:11Z</time></trkpt><trkpt lat="44.725832232492415" lon="8.080636626615513"><ele>260.33333333333337</ele><time>2026-04-11T12:45:15Z</time></trkpt><trkpt lat="44.725955103250975" lon="8.080617327997516"><ele>260.5</ele><time>2026-04-11T12:45:20Z</time></trkpt><trkpt lat="44.726034587208225" lon="8.080573146599543"><ele>260.6666666666667</ele><time>2026-04-11T12:45:24Z</time></trkpt><trkpt lat="44.72609749590705" lon="8.080559633729308"><ele>260.8333333333333</ele><time>2026-04-11T12:45:26Z</time></trkpt><trkpt lat="44.72616458518345" lon="8.080544930014259"><ele>261.0</ele><time>2026-04-11T12:45:29Z</time></trkpt><trkpt lat="44.72623443989143" lon="8.080496962329024"><ele>261.0</ele><time>2026-04-11T12:45:32Z</time></trkpt><trkpt lat="44.72631482734923" lon="8.080491135894778"><ele>261.0</ele><time>2026-04-11T12:45:35Z</time></trkpt><trkpt lat="44.726539781214875" lon="8.080469329218353"><ele>261.0</ele><time>2026-04-11T12:45:43.001Z</time></trkpt><trkpt lat="44.726622555732845" lon="8.080489002361414"><ele>261.0</ele><time>2026-04-11T12:45:48.001Z</time></trkpt><trkpt lat="44.72671583793051" lon="8.080508813848514"><ele>261.0</ele><time>2026-04-11T12:45:53.001Z</time></trkpt><trkpt lat="44.72681291156034" lon="8.080496129127786"><ele>261.0</ele><time>2026-04-11T12:45:57.001Z</time></trkpt><trkpt lat="44.726886934117914" lon="8.080471261758987"><ele>261.0</ele><time>2026-04-11T12:45:59.001Z</time></trkpt><trkpt lat="44.72694298118436" lon="8.0803878097518"><ele>261.0</ele><time>2026-04-11T12:46:01.001Z</time></trkpt><trkpt lat="44.727006722316474" lon="8.080380504439232"><ele>261.0</ele><time>2026-04-11T12:46:03.001Z</time></trkpt><trkpt lat="44.727076868607554" lon="8.080452936619254"><ele>261.0</ele><time>2026-04-11T12:46:06.001Z</time></trkpt><trkpt lat="44.72714511383638" lon="8.08052220502417"><ele>261.0</ele><time>2026-04-11T12:46:10.001Z</time></trkpt><trkpt lat="44.72720560151152" lon="8.080598561360388"><ele>261.0</ele><time>2026-04-11T12:46:14.001Z</time></trkpt><trkpt lat="44.72712466776442" lon="8.080530459695709"><ele>261.0</ele><time>2026-04-11T12:46:36.001Z</time></trkpt><trkpt lat="44.72704694832706" lon="8.080455517114189"><ele>261.0</ele><time>2026-04-11T12:46:39.002Z</time></trkpt><trkpt lat="44.72696287837943" lon="8.080396416078525"><ele>261.0</ele><time>2026-04-11T12:46:42.002Z</time></trkpt><trkpt lat="44.726900129737615" lon="8.08035285759227"><ele>261.0</ele><time>2026-04-11T12:46:44.002Z</time></trkpt><trkpt lat="44.72680361997672" lon="8.080367541489666"><ele>261.0</ele><time>2026-04-11T12:46:46.002Z</time></trkpt><trkpt lat="44.726739142900584" lon="8.080356838900816"><ele>261.0</ele><time>2026-04-11T12:46:48.002Z</time></trkpt><trkpt lat="44.726693984287444" lon="8.080444379176713"><ele>261.0</ele><time>2026-04-11T12:46:54.002Z</time></trkpt><trkpt lat="44.72662578505318" lon="8.080476377267216"><ele>261.0</ele><time>2026-04-11T12:46:56.002Z</time></trkpt><trkpt lat="44.72653809649048" lon="8.080490132754889"><ele>261.0</ele><time>2026-04-11T12:47:00.002Z</time></trkpt><trkpt lat="44.726461167039865" lon="8.080527303950564"><ele>261.0</ele><time>2026-04-11T12:47:02Z</time></trkpt><trkpt lat="44.7263754647801" lon="8.080527671322917"><ele>261.0</ele><time>2026-04-11T12:47:06Z</time></trkpt><trkpt lat="44.726266008853216" lon="8.080470918146156"><ele>261.0</ele><time>2026-04-11T12:47:08Z</time></trkpt><trkpt lat="44.72620122763674" lon="8.08048975257003"><ele>261.0</ele><time>2026-04-11T12:47:10Z</time></trkpt><trkpt lat="44.726118733787736" lon="8.080492389125416"><ele>261.0</ele><time>2026-04-11T12:47:12Z</time></trkpt><trkpt lat="44.726048941584516" lon="8.080494446427263"><ele>261.0</ele><time>2026-04-11T12:47:14Z</time></trkpt><trkpt lat="44.72596112907726" lon="8.0805111101344"><ele>261.0</ele><time>2026-04-11T12:47:16Z</time></trkpt><trkpt lat="44.72590172180107" lon="8.080558721400394"><ele>260.2857142857143</ele><time>2026-04-11T12:47:18Z</time></trkpt><trkpt lat="44.72582319552622" lon="8.080591829273063"><ele>259.57142857142856</ele><time>2026-04-11T12:47:19Z</time></trkpt><trkpt lat="44.72576232455784" lon="8.080614528159527"><ele>258.85714285714283</ele><time>2026-04-11T12:47:20Z</time></trkpt><trkpt lat="44.72567884167829" lon="8.080617358963476"><ele>258.1428571428571</ele><time>2026-04-11T12:47:22Z</time></trkpt><trkpt lat="44.72560666077899" lon="8.080649612989236"><ele>257.4285714285714</ele><time>2026-04-11T12:47:24Z</time></trkpt><trkpt lat="44.725543675834984" lon="8.080651326038508"><ele>256.7142857142857</ele><time>2026-04-11T12:47:27Z</time></trkpt><trkpt lat="44.72547617725947" lon="8.080647216952089"><ele>256.0</ele><time>2026-04-11T12:47:50.001Z</time></trkpt><trkpt lat="44.725545547230645" lon="8.080657620606052"><ele>256.0</ele><time>2026-04-11T13:28:22.999Z</time></trkpt><trkpt lat="44.72561111879185" lon="8.080642658239196"><ele>256.0</ele><time>2026-04-11T13:28:29.999Z</time></trkpt><trkpt lat="44.72560458503502" lon="8.080793145588512"><ele>256.0</ele><time>2026-04-11T13:29:00Z</time></trkpt><trkpt lat="44.72569360640372" lon="8.0807210365629"><ele>256.0</ele><time>2026-04-11T13:30:01Z</time></trkpt><trkpt lat="44.72566712529134" lon="8.080808884044712"><ele>256.0</ele><time>2026-04-11T13:30:42.999Z</time></trkpt><trkpt lat="44.725567881330534" lon="8.080647487704665"><ele>255.99999999999997</ele><time>2026-04-11T13:31:14Z</time></trkpt><trkpt lat="44.72565135858517" lon="8.080776785238816"><ele>256.0</ele><time>2026-04-11T13:31:23Z</time></trkpt><trkpt lat="44.72559570613822" lon="8.080724048452549"><ele>256.0</ele><time>2026-04-11T13:32:54.999Z</time></trkpt><trkpt lat="44.725559186488546" lon="8.080645388458166"><ele>256.0</ele><time>2026-04-11T13:32:59.999Z</time></trkpt><trkpt lat="44.72549569064471" lon="8.080635567105517"><ele>255.99999999999997</ele><time>2026-04-11T13:33:33Z</time></trkpt><trkpt lat="44.72552015696516" lon="8.080717323758545"><ele>256.0</ele><time>2026-04-11T13:35:11.999Z</time></trkpt><trkpt lat="44.72559201078855" lon="8.080638416846346"><ele>255.99999999999997</ele><time>2026-04-11T13:37:07.999Z</time></trkpt><trkpt lat="44.725655024285324" lon="8.08065097503618"><ele>256.0</ele><time>2026-04-11T13:37:16.999Z</time></trkpt><trkpt lat="44.72570699467152" lon="8.080756488223843"><ele>256.0</ele><time>2026-04-11T13:37:35.999Z</time></trkpt><trkpt lat="44.725634293584015" lon="8.080653526195565"><ele>256.0</ele><time>2026-04-11T13:37:49.999Z</time></trkpt><trkpt lat="44.72566504637575" lon="8.080575060599726"><ele>255.99999999999997</ele><time>2026-04-11T13:37:51.999Z</time></trkpt><trkpt lat="44.7257273682321" lon="8.08046128892532"><ele>256.0</ele><time>2026-04-11T13:37:53.999Z</time></trkpt><trkpt lat="44.72579510307739" lon="8.080434060068141"><ele>256.0</ele><time>2026-04-11T13:37:55.999Z</time></trkpt><trkpt lat="44.72588788471348" lon="8.080307926510363"><ele>256.0</ele><time>2026-04-11T13:37:57.999Z</time></trkpt><trkpt lat="44.72594680950727" lon="8.080230645281123"><ele>256.0</ele><time>2026-04-11T13:37:58.999Z</time></trkpt><trkpt lat="44.726006677101225" lon="8.080133386360046"><ele>256.0</ele><time>2026-04-11T13:37:59.999Z</time></trkpt><trkpt lat="44.726064984195524" lon="8.080043483985232"><ele>256.0</ele><time>2026-04-11T13:38:00.999Z</time></trkpt><trkpt lat="44.72611642210301" lon="8.079957680634486"><ele>256.0</ele><time>2026-04-11T13:38:01.999Z</time></trkpt><trkpt lat="44.72616470182566" lon="8.079877717291215"><ele>256.0</ele><time>2026-04-11T13:38:02.999Z</time></trkpt><trkpt lat="44.72621185009979" lon="8.079798529187956"><ele>256.0</ele><time>2026-04-11T13:38:04.021Z</time></trkpt><trkpt lat="44.72581650547557" lon="8.08042455440829"><ele>256.0</ele><time>2026-04-11T13:38:13.203Z</time></trkpt><trkpt lat="44.725665367479955" lon="8.080620746583397"><ele>256.0</ele><time>2026-04-11T13:38:15.425Z</time></trkpt><trkpt lat="44.725614627864886" lon="8.08067861013867"><ele>256.0</ele><time>2026-04-11T13:38:15.999Z</time></trkpt><trkpt lat="44.72569696649721" lon="8.080986740573204"><ele>256.0</ele><time>2026-04-11T13:38:16.999Z</time></trkpt><trkpt lat="44.725622954188076" lon="8.080767752943313"><ele>256.0</ele><time>2026-04-11T13:38:19.999Z</time></trkpt><trkpt lat="44.72556459688452" lon="8.08072056059181"><ele>256.0</ele><time>2026-04-11T13:38:23.999Z</time></trkpt><trkpt lat="44.72549153518823" lon="8.080588335247299"><ele>256.0</ele><time>2026-04-11T13:41:47Z</time></trkpt><trkpt lat="44.72543322556448" lon="8.08064828103097"><ele>256.0</ele><time>2026-04-11T13:43:01Z</time></trkpt><trkpt lat="44.725360744962" lon="8.080659825942746"><ele>255.99999999999997</ele><time>2026-04-11T13:43:04Z</time></trkpt><trkpt lat="44.72529059058813" lon="8.080670514283442"><ele>256.0</ele><time>2026-04-11T13:43:06Z</time></trkpt><trkpt lat="44.725218439882745" lon="8.080632377899084"><ele>256.0</ele><time>2026-04-11T13:43:07.999Z</time></trkpt><trkpt lat="44.72512748036973" lon="8.080597194888274"><ele>256.0</ele><time>2026-04-11T13:43:09.999Z</time></trkpt><trkpt lat="44.72505049128537" lon="8.080556323275157"><ele>255.99999999999997</ele><time>2026-04-11T13:43:11.999Z</time></trkpt><trkpt lat="44.72497524512571" lon="8.080520583745498"><ele>256.0</ele><time>2026-04-11T13:43:13.999Z</time></trkpt><trkpt lat="44.72490144240256" lon="8.080466975749596"><ele>254.83333333333331</ele><time>2026-04-11T13:43:15.999Z</time></trkpt><trkpt lat="44.72483285017161" lon="8.080398080397435"><ele>253.66666666666666</ele><time>2026-04-11T13:43:17.999Z</time></trkpt><trkpt lat="44.72476165277675" lon="8.080322408478432"><ele>252.5</ele><time>2026-04-11T13:43:19.999Z</time></trkpt><trkpt lat="44.724681656046684" lon="8.08027083603223"><ele>251.33333333333331</ele><time>2026-04-11T13:43:21.999Z</time></trkpt><trkpt lat="44.72460519535799" lon="8.080203372517753"><ele>250.16666666666666</ele><time>2026-04-11T13:43:23.999Z</time></trkpt><trkpt lat="44.72452932437163" lon="8.080145978712656"><ele>249.0</ele><time>2026-04-11T13:43:25.999Z</time></trkpt><trkpt lat="44.72444259759521" lon="8.080097654053372"><ele>249.33333333333334</ele><time>2026-04-11T13:43:27.999Z</time></trkpt><trkpt lat="44.72436389343763" lon="8.080090409375646"><ele>249.66666666666669</ele><time>2026-04-11T13:43:29.999Z</time></trkpt><trkpt lat="44.72427055630701" lon="8.080107985523174"><ele>250.0</ele><time>2026-04-11T13:43:32.999Z</time></trkpt><trkpt lat="44.72418966695773" lon="8.080141885300785"><ele>250.33333333333334</ele><time>2026-04-11T13:43:34.999Z</time></trkpt><trkpt lat="44.7241089516703" lon="8.080191554187365"><ele>250.66666666666669</ele><time>2026-04-11T13:43:36.999Z</time></trkpt><trkpt lat="44.7240316127528" lon="8.080248330752948"><ele>251.0</ele><time>2026-04-11T13:43:38.999Z</time></trkpt><trkpt lat="44.72396968500112" lon="8.080310038424276"><ele>251.00000000000003</ele><time>2026-04-11T13:43:40.999Z</time></trkpt><trkpt lat="44.7239072794149" lon="8.080367066812096"><ele>251.0</ele><time>2026-04-11T13:43:44Z</time></trkpt><trkpt lat="44.72386213769295" lon="8.08042964875273"><ele>251.0</ele><time>2026-04-11T13:43:47Z</time></trkpt><trkpt lat="44.72378158471064" lon="8.08050661308275"><ele>251.0</ele><time>2026-04-11T13:43:50Z</time></trkpt><trkpt lat="44.72372246250645" lon="8.080581740984869"><ele>251.00000000000003</ele><time>2026-04-11T13:43:52Z</time></trkpt><trkpt lat="44.723667484505754" lon="8.080679053885497"><ele>251.0</ele><time>2026-04-11T13:43:54Z</time></trkpt><trkpt lat="44.72362325412042" lon="8.080798479400487"><ele>249.60000000000002</ele><time>2026-04-11T13:43:56Z</time></trkpt><trkpt lat="44.723575017073074" lon="8.080905815812306"><ele>248.20000000000002</ele><time>2026-04-11T13:43:58Z</time></trkpt><trkpt lat="44.72354181002983" lon="8.081026599824629"><ele>246.79999999999998</ele><time>2026-04-11T13:44:00Z</time></trkpt><trkpt lat="44.72351039978015" lon="8.081155156552969"><ele>245.39999999999998</ele><time>2026-04-11T13:44:02Z</time></trkpt><trkpt lat="44.723488470084476" lon="8.081273395586768"><ele>244.0</ele><time>2026-04-11T13:44:04Z</time></trkpt><trkpt lat="44.72346227321493" lon="8.081389821288116"><ele>243.99999999999997</ele><time>2026-04-11T13:44:06Z</time></trkpt><trkpt lat="44.72343195745809" lon="8.08149765274098"><ele>244.0</ele><time>2026-04-11T13:44:08Z</time></trkpt><trkpt lat="44.723397195098826" lon="8.081614348809545"><ele>244.0</ele><time>2026-04-11T13:44:10Z</time></trkpt><trkpt lat="44.72337546545687" lon="8.081726181326326"><ele>244.0</ele><time>2026-04-11T13:44:12Z</time></trkpt><trkpt lat="44.72335312333213" lon="8.081849481315876"><ele>243.99999999999997</ele><time>2026-04-11T13:44:14Z</time></trkpt><trkpt lat="44.72332785591933" lon="8.081970432899393"><ele>244.0</ele><time>2026-04-11T13:44:16Z</time></trkpt><trkpt lat="44.72329786067532" lon="8.082084321287251"><ele>244.99999999999997</ele><time>2026-04-11T13:44:18Z</time></trkpt><trkpt lat="44.72327350472233" lon="8.082193438323557"><ele>246.0</ele><time>2026-04-11T13:44:20Z</time></trkpt><trkpt lat="44.72325703775431" lon="8.082285859997183"><ele>247.0</ele><time>2026-04-11T13:44:22Z</time></trkpt><trkpt lat="44.723228538533085" lon="8.082369020021856"><ele>248.0</ele><time>2026-04-11T13:44:24Z</time></trkpt><trkpt lat="44.72319252219044" lon="8.082454715467692"><ele>248.99999999999997</ele><time>2026-04-11T13:44:26Z</time></trkpt><trkpt lat="44.723142330860256" lon="8.082571765349984"><ele>250.0</ele><time>2026-04-11T13:44:29Z</time></trkpt><trkpt lat="44.72309560295021" lon="8.082640724601502"><ele>248.83333333333331</ele><time>2026-04-11T13:44:31Z</time></trkpt><trkpt lat="44.7230485589906" lon="8.08270012226311"><ele>247.66666666666666</ele><time>2026-04-11T13:44:33Z</time></trkpt><trkpt lat="44.72298359159907" lon="8.082780232406874"><ele>246.5</ele><time>2026-04-11T13:44:36Z</time></trkpt><trkpt lat="44.72290331667968" lon="8.082851385504997"><ele>245.33333333333331</ele><time>2026-04-11T13:44:39Z</time></trkpt><trkpt lat="44.722829539585994" lon="8.082918021195143"><ele>244.16666666666666</ele><time>2026-04-11T13:44:42Z</time></trkpt><trkpt lat="44.72275462241953" lon="8.082977355046014"><ele>243.0</ele><time>2026-04-11T13:44:45Z</time></trkpt><trkpt lat="44.72267280944073" lon="8.083025396186272"><ele>243.0</ele><time>2026-04-11T13:44:48Z</time></trkpt><trkpt lat="44.722588313202515" lon="8.083092605136121"><ele>243.0</ele><time>2026-04-11T13:44:51Z</time></trkpt><trkpt lat="44.722521032577475" lon="8.083139973122382"><ele>243.0</ele><time>2026-04-11T13:44:54Z</time></trkpt><trkpt lat="44.72244310120945" lon="8.08319196528908"><ele>243.0</ele><time>2026-04-11T13:44:57Z</time></trkpt><trkpt lat="44.72237641218149" lon="8.083246088116399"><ele>243.0</ele><time>2026-04-11T13:45:00Z</time></trkpt><trkpt lat="44.722310121311615" lon="8.083317944680342"><ele>243.0</ele><time>2026-04-11T13:45:04Z</time></trkpt><trkpt lat="44.72224496851385" lon="8.083383195573976"><ele>245.5</ele><time>2026-04-11T13:45:07Z</time></trkpt><trkpt lat="44.72219165126453" lon="8.083475320354081"><ele>248.0</ele><time>2026-04-11T13:45:10.999Z</time></trkpt><trkpt lat="44.722127165276916" lon="8.083537765453535"><ele>250.5</ele><time>2026-04-11T13:45:13.999Z</time></trkpt><trkpt lat="44.72207456513564" lon="8.083630276276443"><ele>253.0</ele><time>2026-04-11T13:45:17.999Z</time></trkpt><trkpt lat="44.72203221268994" lon="8.083702096830368"><ele>255.5</ele><time>2026-04-11T13:45:20.999Z</time></trkpt><trkpt lat="44.72197694272873" lon="8.083768178023895"><ele>258.0</ele><time>2026-04-11T13:45:23.999Z</time></trkpt><trkpt lat="44.72193332705067" lon="8.083839080212195"><ele>258.3333333333333</ele><time>2026-04-11T13:45:26.999Z</time></trkpt><trkpt lat="44.721881447930514" lon="8.083894720296511"><ele>258.6666666666667</ele><time>2026-04-11T13:45:30.999Z</time></trkpt><trkpt lat="44.72179778396581" lon="8.083920327153846"><ele>259.0</ele><time>2026-04-11T13:45:34.999Z</time></trkpt><trkpt lat="44.721732125439054" lon="8.08391224465273"><ele>259.33333333333337</ele><time>2026-04-11T13:45:37.999Z</time></trkpt><trkpt lat="44.72164681076065" lon="8.083893337945865"><ele>259.6666666666667</ele><time>2026-04-11T13:45:41.999Z</time></trkpt><trkpt lat="44.721565843538464" lon="8.08387607907071"><ele>260.0</ele><time>2026-04-11T13:45:45.999Z</time></trkpt><trkpt lat="44.721486917860986" lon="8.08385765816939"><ele>260.0</ele><time>2026-04-11T13:45:50Z</time></trkpt><trkpt lat="44.721407464460874" lon="8.083852987841167"><ele>260.0</ele><time>2026-04-11T13:45:54Z</time></trkpt><trkpt lat="44.72133255694433" lon="8.083835859323141"><ele>260.0</ele><time>2026-04-11T13:45:58Z</time></trkpt><trkpt lat="44.72124156849575" lon="8.083820261087713"><ele>260.0</ele><time>2026-04-11T13:46:01Z</time></trkpt><trkpt lat="44.721174789426136" lon="8.083800299517076"><ele>260.0</ele><time>2026-04-11T13:46:04Z</time></trkpt><trkpt lat="44.721086191782234" lon="8.083778030882186"><ele>260.0</ele><time>2026-04-11T13:46:07Z</time></trkpt><trkpt lat="44.720998478536934" lon="8.083754144919297"><ele>260.6666666666667</ele><time>2026-04-11T13:46:10Z</time></trkpt><trkpt lat="44.720919981898376" lon="8.083751949381542"><ele>261.33333333333337</ele><time>2026-04-11T13:46:14Z</time></trkpt><trkpt lat="44.72085172588532" lon="8.083729197221148"><ele>262.0</ele><time>2026-04-11T13:46:17Z</time></trkpt><trkpt lat="44.72076820473245" lon="8.083721457711038"><ele>262.6666666666667</ele><time>2026-04-11T13:46:20Z</time></trkpt><trkpt lat="44.72068245697082" lon="8.083727871740939"><ele>263.3333333333333</ele><time>2026-04-11T13:46:23Z</time></trkpt><trkpt lat="44.720597565579034" lon="8.083751265128233"><ele>264.0</ele><time>2026-04-11T13:46:26Z</time></trkpt><trkpt lat="44.720521080912604" lon="8.083794023433585"><ele>264.0</ele><time>2026-04-11T13:46:30Z</time></trkpt><trkpt lat="44.72046146088229" lon="8.083844236759449"><ele>264.0</ele><time>2026-04-11T13:46:33Z</time></trkpt><trkpt lat="44.72039419232035" lon="8.083933832134836"><ele>264.0</ele><time>2026-04-11T13:46:36Z</time></trkpt><trkpt lat="44.72032898554895" lon="8.08400577955812"><ele>264.0</ele><time>2026-04-11T13:46:39Z</time></trkpt><trkpt lat="44.72027583962722" lon="8.084094438210906"><ele>264.0</ele><time>2026-04-11T13:46:43Z</time></trkpt><trkpt lat="44.72019464419738" lon="8.084185244849825"><ele>264.0</ele><time>2026-04-11T13:46:46Z</time></trkpt><trkpt lat="44.720130870290184" lon="8.084260402162995"><ele>265.5</ele><time>2026-04-11T13:46:49Z</time></trkpt><trkpt lat="44.72005820645671" lon="8.084322325039986"><ele>267.0</ele><time>2026-04-11T13:46:52Z</time></trkpt><trkpt lat="44.71998447571713" lon="8.084392131686618"><ele>268.5</ele><time>2026-04-11T13:46:56Z</time></trkpt><trkpt lat="44.71990013787656" lon="8.084443214770758"><ele>270.0</ele><time>2026-04-11T13:46:59Z</time></trkpt><trkpt lat="44.71982088551959" lon="8.08448948967104"><ele>271.5</ele><time>2026-04-11T13:47:02Z</time></trkpt><trkpt lat="44.719740435081896" lon="8.084534046374959"><ele>273.0</ele><time>2026-04-11T13:47:05Z</time></trkpt><trkpt lat="44.71965695631678" lon="8.084561331422895"><ele>273.0</ele><time>2026-04-11T13:47:07.999Z</time></trkpt><trkpt lat="44.71957362399919" lon="8.08457837115735"><ele>273.0</ele><time>2026-04-11T13:47:10.999Z</time></trkpt><trkpt lat="44.7194954522074" lon="8.084601188939558"><ele>273.0</ele><time>2026-04-11T13:47:13.999Z</time></trkpt><trkpt lat="44.71941135288338" lon="8.084616927527065"><ele>273.0</ele><time>2026-04-11T13:47:16.999Z</time></trkpt><trkpt lat="44.719329653320244" lon="8.084633912462293"><ele>273.0</ele><time>2026-04-11T13:47:19.999Z</time></trkpt><trkpt lat="44.7192367465757" lon="8.084662861627276"><ele>273.0</ele><time>2026-04-11T13:47:23.999Z</time></trkpt><trkpt lat="44.71916814599679" lon="8.084668672984805"><ele>272.8333333333333</ele><time>2026-04-11T13:47:25.999Z</time></trkpt><trkpt lat="44.719077416086975" lon="8.084683260415348"><ele>272.6666666666667</ele><time>2026-04-11T13:47:28.999Z</time></trkpt><trkpt lat="44.719013779322374" lon="8.084688293473738"><ele>272.5</ele><time>2026-04-11T13:47:30.999Z</time></trkpt><trkpt lat="44.71895000046391" lon="8.084702020616087"><ele>272.33333333333337</ele><time>2026-04-11T13:47:32.999Z</time></trkpt><trkpt lat="44.71887680007271" lon="8.084708925602788"><ele>272.1666666666667</ele><time>2026-04-11T13:47:34.999Z</time></trkpt><trkpt lat="44.71878093468101" lon="8.084721752624707"><ele>272.0</ele><time>2026-04-11T13:47:37.999Z</time></trkpt><trkpt lat="44.71871221013089" lon="8.08471906973753"><ele>271.99999999999994</ele><time>2026-04-11T13:47:39.999Z</time></trkpt><trkpt lat="44.71864262260662" lon="8.084725731991798"><ele>272.0</ele><time>2026-04-11T13:47:41.999Z</time></trkpt><trkpt lat="44.718571250282814" lon="8.084736229202484"><ele>272.0</ele><time>2026-04-11T13:47:43.999Z</time></trkpt><trkpt lat="44.71849743185968" lon="8.084742115957399"><ele>272.0</ele><time>2026-04-11T13:47:45.999Z</time></trkpt><trkpt lat="44.71842434144479" lon="8.08474066823752"><ele>272.0</ele><time>2026-04-11T13:47:47.999Z</time></trkpt><trkpt lat="44.71835386907788" lon="8.084746872523915"><ele>271.99999999999994</ele><time>2026-04-11T13:47:49.999Z</time></trkpt><trkpt lat="44.71827541618451" lon="8.084747264719715"><ele>272.0</ele><time>2026-04-11T13:47:51.999Z</time></trkpt><trkpt lat="44.71820623636093" lon="8.0847584325764"><ele>273.1666666666667</ele><time>2026-04-11T13:47:54Z</time></trkpt><trkpt lat="44.718129837020435" lon="8.084764094842003"><ele>274.33333333333337</ele><time>2026-04-11T13:47:57Z</time></trkpt><trkpt lat="44.71804228437008" lon="8.08476849963658"><ele>275.5</ele><time>2026-04-11T13:48:00Z</time></trkpt><trkpt lat="44.71795444087298" lon="8.084779398576268"><ele>276.6666666666667</ele><time>2026-04-11T13:48:03Z</time></trkpt><trkpt lat="44.71786682740111" lon="8.084789350013045"><ele>277.8333333333333</ele><time>2026-04-11T13:48:06Z</time></trkpt><trkpt lat="44.71780391168502" lon="8.084794840404333"><ele>279.0</ele><time>2026-04-11T13:48:08Z</time></trkpt><trkpt lat="44.71772848980781" lon="8.084814350263873"><ele>279.57142857142856</ele><time>2026-04-11T13:48:10Z</time></trkpt><trkpt lat="44.71765823501029" lon="8.084826663358099"><ele>280.1428571428571</ele><time>2026-04-11T13:48:12Z</time></trkpt><trkpt lat="44.71759242282829" lon="8.084836233511915"><ele>280.7142857142857</ele><time>2026-04-11T13:48:14Z</time></trkpt><trkpt lat="44.717523426887475" lon="8.084844300840587"><ele>281.2857142857143</ele><time>2026-04-11T13:48:16Z</time></trkpt><trkpt lat="44.71746115783558" lon="8.084863650000294"><ele>281.8571428571429</ele><time>2026-04-11T13:48:18Z</time></trkpt><trkpt lat="44.71737486521937" lon="8.084896922318144"><ele>282.42857142857144</ele><time>2026-04-11T13:48:21Z</time></trkpt><trkpt lat="44.71729024797272" lon="8.084931175291276"><ele>283.0</ele><time>2026-04-11T13:48:24Z</time></trkpt><trkpt lat="44.71720212773623" lon="8.084969366194054"><ele>283.0</ele><time>2026-04-11T13:48:27Z</time></trkpt><trkpt lat="44.71712718991077" lon="8.084998317088328"><ele>283.0</ele><time>2026-04-11T13:48:30Z</time></trkpt><trkpt lat="44.71704259921369" lon="8.085027190150877"><ele>283.0</ele><time>2026-04-11T13:48:33Z</time></trkpt><trkpt lat="44.71696019830285" lon="8.08504206216343"><ele>283.0</ele><time>2026-04-11T13:48:36Z</time></trkpt><trkpt lat="44.71688447720063" lon="8.08505521121532"><ele>283.0</ele><time>2026-04-11T13:48:39Z</time></trkpt><trkpt lat="44.716794131359485" lon="8.085053119617442"><ele>283.0</ele><time>2026-04-11T13:48:42Z</time></trkpt><trkpt lat="44.71672078705758" lon="8.085053714990266"><ele>284.5</ele><time>2026-04-11T13:48:45Z</time></trkpt><trkpt lat="44.71664102692374" lon="8.085031625682397"><ele>286.0</ele><time>2026-04-11T13:48:48Z</time></trkpt><trkpt lat="44.71656518949364" lon="8.085001844438136"><ele>287.5</ele><time>2026-04-11T13:48:51Z</time></trkpt><trkpt lat="44.716495401177944" lon="8.084974897590582"><ele>289.0</ele><time>2026-04-11T13:48:54Z</time></trkpt><trkpt lat="44.71642249142599" lon="8.084939544574807"><ele>290.5</ele><time>2026-04-11T13:48:58Z</time></trkpt><trkpt lat="44.716355082496165" lon="8.084881377956176"><ele>292.0</ele><time>2026-04-11T13:49:01.999Z</time></trkpt><trkpt lat="44.71629609817745" lon="8.084839193081086"><ele>292.0</ele><time>2026-04-11T13:49:04.999Z</time></trkpt><trkpt lat="44.71623120125894" lon="8.084801935550159"><ele>292.0</ele><time>2026-04-11T13:49:07.999Z</time></trkpt><trkpt lat="44.71614864305749" lon="8.08475707020852"><ele>292.0</ele><time>2026-04-11T13:49:10.999Z</time></trkpt><trkpt lat="44.71607028831875" lon="8.0847032036274"><ele>292.0</ele><time>2026-04-11T13:49:13.999Z</time></trkpt><trkpt lat="44.71599091060144" lon="8.084657727955998"><ele>292.0</ele><time>2026-04-11T13:49:17.999Z</time></trkpt><trkpt lat="44.71591970611486" lon="8.084625918858341"><ele>292.0</ele><time>2026-04-11T13:49:20.999Z</time></trkpt><trkpt lat="44.715853551386324" lon="8.084607798208822"><ele>292.0</ele><time>2026-04-11T13:49:22.999Z</time></trkpt><trkpt lat="44.715789804506" lon="8.084596893750502"><ele>292.0</ele><time>2026-04-11T13:49:24.999Z</time></trkpt><trkpt lat="44.71572473489592" lon="8.084609630337836"><ele>292.0</ele><time>2026-04-11T13:49:26.999Z</time></trkpt><trkpt lat="44.715654102976934" lon="8.084606919910591"><ele>292.0</ele><time>2026-04-11T13:49:28.999Z</time></trkpt><trkpt lat="44.7155879183105" lon="8.084629135818913"><ele>292.0</ele><time>2026-04-11T13:49:30.999Z</time></trkpt><trkpt lat="44.7155329497702" lon="8.084673123025897"><ele>292.0</ele><time>2026-04-11T13:49:32.999Z</time></trkpt><trkpt lat="44.71545136314318" lon="8.084737984946004"><ele>292.0</ele><time>2026-04-11T13:49:35.999Z</time></trkpt><trkpt lat="44.715388814743115" lon="8.084790664547896"><ele>292.0</ele><time>2026-04-11T13:49:37.999Z</time></trkpt><trkpt lat="44.71531501282702" lon="8.084852325296852"><ele>292.0</ele><time>2026-04-11T13:49:39.999Z</time></trkpt><trkpt lat="44.715256534748555" lon="8.08492516193577"><ele>292.0</ele><time>2026-04-11T13:49:41.999Z</time></trkpt><trkpt lat="44.71518400227564" lon="8.08499252798349"><ele>292.0</ele><time>2026-04-11T13:49:43.999Z</time></trkpt><trkpt lat="44.71511393629845" lon="8.085044428662"><ele>292.0</ele><time>2026-04-11T13:49:45.999Z</time></trkpt><trkpt lat="44.715028695183264" lon="8.085098832011056"><ele>292.0</ele><time>2026-04-11T13:49:47.999Z</time></trkpt><trkpt lat="44.71493086388765" lon="8.085147320480456"><ele>293.4</ele><time>2026-04-11T13:49:49.999Z</time></trkpt><trkpt lat="44.71483073697369" lon="8.085190849423542"><ele>294.79999999999995</ele><time>2026-04-11T13:49:51.999Z</time></trkpt><trkpt lat="44.71471800746815" lon="8.085236270113311"><ele>296.2</ele><time>2026-04-11T13:49:53.999Z</time></trkpt><trkpt lat="44.71461087842125" lon="8.085296873420615"><ele>297.59999999999997</ele><time>2026-04-11T13:49:55.999Z</time></trkpt><trkpt lat="44.71451866506076" lon="8.085376146621622"><ele>299.0</ele><time>2026-04-11T13:49:57.999Z</time></trkpt><trkpt lat="44.71442016925073" lon="8.085474478537215"><ele>297.59999999999997</ele><time>2026-04-11T13:50:00Z</time></trkpt><trkpt lat="44.71434674223577" lon="8.085567026725636"><ele>296.2</ele><time>2026-04-11T13:50:02Z</time></trkpt><trkpt lat="44.714267269045784" lon="8.085680607455851"><ele>294.79999999999995</ele><time>2026-04-11T13:50:04Z</time></trkpt><trkpt lat="44.71419116993277" lon="8.085789315864583"><ele>293.4</ele><time>2026-04-11T13:50:06Z</time></trkpt><trkpt lat="44.7141194062347" lon="8.085912008301362"><ele>292.0</ele><time>2026-04-11T13:50:08Z</time></trkpt><trkpt lat="44.714059544272494" lon="8.086048687651882"><ele>292.0</ele><time>2026-04-11T13:50:10Z</time></trkpt><trkpt lat="44.71400011300229" lon="8.086192735771046"><ele>292.0</ele><time>2026-04-11T13:50:12Z</time></trkpt><trkpt lat="44.71393907291412" lon="8.086341652548418"><ele>292.0</ele><time>2026-04-11T13:50:14Z</time></trkpt><trkpt lat="44.71388491802611" lon="8.08647965112034"><ele>292.0</ele><time>2026-04-11T13:50:16Z</time></trkpt><trkpt lat="44.71382559153934" lon="8.086616697496424"><ele>291.0</ele><time>2026-04-11T13:50:18Z</time></trkpt><trkpt lat="44.713761858944075" lon="8.086756056645509"><ele>290.0</ele><time>2026-04-11T13:50:20Z</time></trkpt><trkpt lat="44.71369803861748" lon="8.086877688050745"><ele>289.0</ele><time>2026-04-11T13:50:22Z</time></trkpt><trkpt lat="44.713628265073154" lon="8.08700848190631"><ele>288.0</ele><time>2026-04-11T13:50:24Z</time></trkpt><trkpt lat="44.71357807816723" lon="8.08714053425516"><ele>287.0</ele><time>2026-04-11T13:50:26Z</time></trkpt><trkpt lat="44.713532688153975" lon="8.087279821752178"><ele>287.4</ele><time>2026-04-11T13:50:28Z</time></trkpt><trkpt lat="44.71348582743147" lon="8.087414963499048"><ele>287.79999999999995</ele><time>2026-04-11T13:50:30Z</time></trkpt><trkpt lat="44.71343584453625" lon="8.087548527440948"><ele>288.2</ele><time>2026-04-11T13:50:32Z</time></trkpt><trkpt lat="44.713394410573706" lon="8.08768338923155"><ele>288.59999999999997</ele><time>2026-04-11T13:50:34Z</time></trkpt><trkpt lat="44.71335315223545" lon="8.087812576650535"><ele>289.0</ele><time>2026-04-11T13:50:36Z</time></trkpt><trkpt lat="44.713312460723614" lon="8.087948198178402"><ele>289.0</ele><time>2026-04-11T13:50:38Z</time></trkpt><trkpt lat="44.71326286150058" lon="8.088075149913834"><ele>289.0</ele><time>2026-04-11T13:50:40Z</time></trkpt><trkpt lat="44.71321643114621" lon="8.08819960780105"><ele>289.0</ele><time>2026-04-11T13:50:42Z</time></trkpt><trkpt lat="44.71317791227934" lon="8.088323697136598"><ele>289.0</ele><time>2026-04-11T13:50:44Z</time></trkpt><trkpt lat="44.713130284861904" lon="8.088435214526708"><ele>289.0</ele><time>2026-04-11T13:50:46Z</time></trkpt><trkpt lat="44.71308447337154" lon="8.088559210473148"><ele>289.16666666666663</ele><time>2026-04-11T13:50:48Z</time></trkpt><trkpt lat="44.713031470623925" lon="8.088667128998363"><ele>289.3333333333333</ele><time>2026-04-11T13:50:50Z</time></trkpt><trkpt lat="44.71298031770376" lon="8.08876846412142"><ele>289.5</ele><time>2026-04-11T13:50:52Z</time></trkpt><trkpt lat="44.71292785364323" lon="8.088858659166313"><ele>289.6666666666667</ele><time>2026-04-11T13:50:54Z</time></trkpt><trkpt lat="44.712874971812376" lon="8.088945765796547"><ele>289.83333333333337</ele><time>2026-04-11T13:50:56Z</time></trkpt><trkpt lat="44.71283633349612" lon="8.089027413925786"><ele>290.0</ele><time>2026-04-11T13:50:58Z</time></trkpt><trkpt lat="44.712787115766865" lon="8.089097068573617"><ele>291.6666666666667</ele><time>2026-04-11T13:51:00Z</time></trkpt><trkpt lat="44.71272310664394" lon="8.089187510455284"><ele>293.33333333333337</ele><time>2026-04-11T13:51:03Z</time></trkpt><trkpt lat="44.71266242422658" lon="8.089268283922776"><ele>295.0</ele><time>2026-04-11T13:51:06Z</time></trkpt><trkpt lat="44.71260596552096" lon="8.089361112390192"><ele>296.6666666666667</ele><time>2026-04-11T13:51:09Z</time></trkpt><trkpt lat="44.71255122574535" lon="8.089444815117448"><ele>298.3333333333333</ele><time>2026-04-11T13:51:13Z</time></trkpt><trkpt lat="44.71250897556306" lon="8.089514222537947"><ele>300.0</ele><time>2026-04-11T13:51:16Z</time></trkpt><trkpt lat="44.71245776885214" lon="8.089589922843983"><ele>299.99999999999994</ele><time>2026-04-11T13:51:19Z</time></trkpt><trkpt lat="44.71240465229237" lon="8.08966724667119"><ele>300.0</ele><time>2026-04-11T13:51:21.999Z</time></trkpt><trkpt lat="44.71235249257651" lon="8.089741676346689"><ele>300.0</ele><time>2026-04-11T13:51:23.999Z</time></trkpt><trkpt lat="44.71229955257148" lon="8.089811421091417"><ele>300.0</ele><time>2026-04-11T13:51:26.999Z</time></trkpt><trkpt lat="44.71225242055838" lon="8.089897109530686"><ele>300.0</ele><time>2026-04-11T13:51:29.999Z</time></trkpt><trkpt lat="44.71221202156574" lon="8.089982740600183"><ele>299.99999999999994</ele><time>2026-04-11T13:51:32.999Z</time></trkpt><trkpt lat="44.71216331904752" lon="8.090059635215042"><ele>300.0</ele><time>2026-04-11T13:51:35.999Z</time></trkpt><trkpt lat="44.71211813639951" lon="8.090136937849243"><ele>299.6666666666667</ele><time>2026-04-11T13:51:38.999Z</time></trkpt><trkpt lat="44.71207232763512" lon="8.090219875484694"><ele>299.3333333333333</ele><time>2026-04-11T13:51:41.999Z</time></trkpt><trkpt lat="44.712029752435136" lon="8.090306121005606"><ele>299.0</ele><time>2026-04-11T13:51:44.999Z</time></trkpt><trkpt lat="44.71199400986602" lon="8.090397091055337"><ele>298.66666666666663</ele><time>2026-04-11T13:51:47.999Z</time></trkpt><trkpt lat="44.711950940056866" lon="8.090481430919978"><ele>298.3333333333333</ele><time>2026-04-11T13:51:50.999Z</time></trkpt><trkpt lat="44.711911349230256" lon="8.090578350121035"><ele>298.0</ele><time>2026-04-11T13:51:53.999Z</time></trkpt><trkpt lat="44.71186105744636" lon="8.090670557207423"><ele>299.5</ele><time>2026-04-11T13:51:56.999Z</time></trkpt><trkpt lat="44.711810143649586" lon="8.09076190743724"><ele>301.0</ele><time>2026-04-11T13:51:59.999Z</time></trkpt><trkpt lat="44.71174736349665" lon="8.090843527536192"><ele>302.5</ele><time>2026-04-11T13:52:02.999Z</time></trkpt><trkpt lat="44.71169510226409" lon="8.090897617398948"><ele>304.0</ele><time>2026-04-11T13:52:04.999Z</time></trkpt><trkpt lat="44.71162486049527" lon="8.090981960068483"><ele>305.5</ele><time>2026-04-11T13:52:08Z</time></trkpt><trkpt lat="44.711570801456126" lon="8.09103077535658"><ele>307.0</ele><time>2026-04-11T13:52:10Z</time></trkpt><trkpt lat="44.71151486193828" lon="8.091081106870993"><ele>306.99999999999994</ele><time>2026-04-11T13:52:12Z</time></trkpt><trkpt lat="44.71145802579378" lon="8.091129619820293"><ele>307.0</ele><time>2026-04-11T13:52:14Z</time></trkpt><trkpt lat="44.71139926929858" lon="8.091176003732965"><ele>307.0</ele><time>2026-04-11T13:52:16Z</time></trkpt><trkpt lat="44.71133652373345" lon="8.091216274641978"><ele>307.0</ele><time>2026-04-11T13:52:18Z</time></trkpt><trkpt lat="44.711275915391234" lon="8.091249226146054"><ele>307.0</ele><time>2026-04-11T13:52:20Z</time></trkpt><trkpt lat="44.711206579794265" lon="8.0912741982936"><ele>306.99999999999994</ele><time>2026-04-11T13:52:22Z</time></trkpt><trkpt lat="44.711141530252796" lon="8.091301538390326"><ele>307.0</ele><time>2026-04-11T13:52:24Z</time></trkpt><trkpt lat="44.71107317895613" lon="8.091322658238386"><ele>306.57142857142856</ele><time>2026-04-11T13:52:26Z</time></trkpt><trkpt lat="44.71100441397591" lon="8.091333037151438"><ele>306.1428571428571</ele><time>2026-04-11T13:52:28Z</time></trkpt><trkpt lat="44.710936035794475" lon="8.091337971517568"><ele>305.71428571428567</ele><time>2026-04-11T13:52:30Z</time></trkpt><trkpt lat="44.71087108799238" lon="8.091328350853937"><ele>305.2857142857143</ele><time>2026-04-11T13:52:32Z</time></trkpt><trkpt lat="44.71080791585203" lon="8.091318074440627"><ele>304.8571428571429</ele><time>2026-04-11T13:52:34Z</time></trkpt><trkpt lat="44.71071618593673" lon="8.091293958842176"><ele>304.4285714285714</ele><time>2026-04-11T13:52:37Z</time></trkpt><trkpt lat="44.71065041970131" lon="8.091264153860449"><ele>304.0</ele><time>2026-04-11T13:52:39Z</time></trkpt><trkpt lat="44.71059219016568" lon="8.091226346422593"><ele>304.0</ele><time>2026-04-11T13:52:41Z</time></trkpt><trkpt lat="44.7105317961565" lon="8.09118799221214"><ele>304.0</ele><time>2026-04-11T13:52:43Z</time></trkpt><trkpt lat="44.71045450838286" lon="8.091143758165924"><ele>304.0</ele><time>2026-04-11T13:52:46Z</time></trkpt><trkpt lat="44.71036936562903" lon="8.091079112365005"><ele>304.0</ele><time>2026-04-11T13:52:49Z</time></trkpt><trkpt lat="44.71030924587734" lon="8.0910408368134"><ele>304.0</ele><time>2026-04-11T13:52:51Z</time></trkpt><trkpt lat="44.710230088592475" lon="8.090972656697046"><ele>304.0</ele><time>2026-04-11T13:52:54Z</time></trkpt><trkpt lat="44.71016936612173" lon="8.090925322032376"><ele>303.85714285714283</ele><time>2026-04-11T13:52:56Z</time></trkpt><trkpt lat="44.7101104970754" lon="8.090887562115418"><ele>303.7142857142857</ele><time>2026-04-11T13:52:58Z</time></trkpt><trkpt lat="44.7100269386985" lon="8.090828183720287"><ele>303.57142857142856</ele><time>2026-04-11T13:53:01Z</time></trkpt><trkpt lat="44.709967323485294" lon="8.090786737725946"><ele>303.42857142857144</ele><time>2026-04-11T13:53:03Z</time></trkpt><trkpt lat="44.709908812609655" lon="8.090750289101342"><ele>303.2857142857143</ele><time>2026-04-11T13:53:05Z</time></trkpt><trkpt lat="44.70982157099563" lon="8.090696544447908"><ele>303.14285714285717</ele><time>2026-04-11T13:53:08Z</time></trkpt><trkpt lat="44.70975961393718" lon="8.090676447414067"><ele>303.0</ele><time>2026-04-11T13:53:11Z</time></trkpt><trkpt lat="44.70968685583861" lon="8.09065665178112"><ele>303.0</ele><time>2026-04-11T13:53:13.999Z</time></trkpt><trkpt lat="44.70961772705108" lon="8.090649167945799"><ele>303.0</ele><time>2026-04-11T13:53:15.999Z</time></trkpt><trkpt lat="44.709520846571195" lon="8.090645818122633"><ele>303.0</ele><time>2026-04-11T13:53:17.999Z</time></trkpt><trkpt lat="44.70943199342221" lon="8.090629006993955"><ele>303.0</ele><time>2026-04-11T13:53:19.999Z</time></trkpt><trkpt lat="44.709335073022" lon="8.090604689974885"><ele>303.0</ele><time>2026-04-11T13:53:21.999Z</time></trkpt><trkpt lat="44.709225653504156" lon="8.090566245177007"><ele>305.8333333333333</ele><time>2026-04-11T13:53:23.999Z</time></trkpt><trkpt lat="44.70911522126063" lon="8.090507705334305"><ele>308.6666666666667</ele><time>2026-04-11T13:53:25.999Z</time></trkpt><trkpt lat="44.708996136409205" lon="8.090454905325254"><ele>311.5</ele><time>2026-04-11T13:53:27.999Z</time></trkpt><trkpt lat="44.70893247395544" lon="8.090425793267505"><ele>314.33333333333337</ele><time>2026-04-11T13:53:28.999Z</time></trkpt><trkpt lat="44.70887025567819" lon="8.090395884150125"><ele>317.1666666666667</ele><time>2026-04-11T13:53:29.999Z</time></trkpt><trkpt lat="44.708811245957925" lon="8.090361037452428"><ele>320.0</ele><time>2026-04-11T13:53:30.999Z</time></trkpt><trkpt lat="44.708753776746704" lon="8.090319182920826"><ele>320.0</ele><time>2026-04-11T13:53:31.999Z</time></trkpt><trkpt lat="44.70865081000774" lon="8.090221660055288"><ele>320.0</ele><time>2026-04-11T13:53:33.999Z</time></trkpt><trkpt lat="44.70859707284168" lon="8.090160674586958"><ele>320.0</ele><time>2026-04-11T13:53:34.999Z</time></trkpt><trkpt lat="44.708502103032565" lon="8.090033643840885"><ele>320.0</ele><time>2026-04-11T13:53:36.999Z</time></trkpt><trkpt lat="44.70841463160898" lon="8.089905628684791"><ele>321.0</ele><time>2026-04-11T13:53:38.999Z</time></trkpt><trkpt lat="44.70832246548386" lon="8.089786842954005"><ele>322.0</ele><time>2026-04-11T13:53:40.999Z</time></trkpt><trkpt lat="44.70822571462991" lon="8.089677438856791"><ele>323.0</ele><time>2026-04-11T13:53:42.999Z</time></trkpt><trkpt lat="44.708171457843896" lon="8.089625983403803"><ele>324.0</ele><time>2026-04-11T13:53:43.999Z</time></trkpt><trkpt lat="44.70811382173548" lon="8.089584333687505"><ele>325.0</ele><time>2026-04-11T13:53:44.999Z</time></trkpt><trkpt lat="44.70805254228566" lon="8.089550637753227"><ele>326.0</ele><time>2026-04-11T13:53:45.999Z</time></trkpt><trkpt lat="44.7079917823399" lon="8.08952365290281"><ele>326.0</ele><time>2026-04-11T13:53:46.999Z</time></trkpt><trkpt lat="44.70793328513041" lon="8.08948574019252"><ele>326.0</ele><time>2026-04-11T13:53:47.999Z</time></trkpt><trkpt lat="44.70787316803737" lon="8.089444817924111"><ele>326.0</ele><time>2026-04-11T13:53:48.999Z</time></trkpt><trkpt lat="44.707759539264174" lon="8.089374857134839"><ele>326.0</ele><time>2026-04-11T13:53:50.999Z</time></trkpt><trkpt lat="44.70765518383436" lon="8.089282774266831"><ele>326.0</ele><time>2026-04-11T13:53:52.999Z</time></trkpt><trkpt lat="44.707563054735516" lon="8.08916348779497"><ele>325.4</ele><time>2026-04-11T13:53:54.999Z</time></trkpt><trkpt lat="44.70748070586808" lon="8.089019386185972"><ele>324.8</ele><time>2026-04-11T13:53:56.999Z</time></trkpt><trkpt lat="44.7074390106763" lon="8.088943310502705"><ele>324.2</ele><time>2026-04-11T13:53:57.999Z</time></trkpt><trkpt lat="44.70736127622256" lon="8.088806629022082"><ele>323.59999999999997</ele><time>2026-04-11T13:53:59.999Z</time></trkpt><trkpt lat="44.70732058409524" lon="8.088737944384633"><ele>323.0</ele><time>2026-04-11T13:54:00.999Z</time></trkpt><trkpt lat="44.70724836175147" lon="8.088597313311631"><ele>323.0</ele><time>2026-04-11T13:54:02.999Z</time></trkpt><trkpt lat="44.70717372286445" lon="8.08846254086265"><ele>323.0</ele><time>2026-04-11T13:54:04.999Z</time></trkpt><trkpt lat="44.7071177986565" lon="8.088315807258562"><ele>323.0</ele><time>2026-04-11T13:54:06.999Z</time></trkpt><trkpt lat="44.70708550151329" lon="8.08816758290901"><ele>323.0</ele><time>2026-04-11T13:54:08.999Z</time></trkpt><trkpt lat="44.707083539368384" lon="8.088003704356282"><ele>322.4</ele><time>2026-04-11T13:54:10.999Z</time></trkpt><trkpt lat="44.70711867191586" lon="8.087833101088787"><ele>321.79999999999995</ele><time>2026-04-11T13:54:13Z</time></trkpt><trkpt lat="44.70718239153069" lon="8.08768617570914"><ele>321.2</ele><time>2026-04-11T13:54:15Z</time></trkpt><trkpt lat="44.70721787464749" lon="8.087608143869298"><ele>320.6</ele><time>2026-04-11T13:54:16Z</time></trkpt><trkpt lat="44.707251169026" lon="8.087532957407648"><ele>320.0</ele><time>2026-04-11T13:54:17Z</time></trkpt><trkpt lat="44.70731531120151" lon="8.087383268292564"><ele>319.4</ele><time>2026-04-11T13:54:19Z</time></trkpt><trkpt lat="44.70736296720447" lon="8.087234257303415"><ele>318.8</ele><time>2026-04-11T13:54:21Z</time></trkpt><trkpt lat="44.70738886241664" lon="8.087047117788432"><ele>318.2</ele><time>2026-04-11T13:54:23Z</time></trkpt><trkpt lat="44.70735180100695" lon="8.086893053227746"><ele>317.6</ele><time>2026-04-11T13:54:25Z</time></trkpt><trkpt lat="44.707312013915114" lon="8.086814722616623"><ele>317.0</ele><time>2026-04-11T13:54:26Z</time></trkpt><trkpt lat="44.707219730332525" lon="8.086698996444358"><ele>317.0</ele><time>2026-04-11T13:54:28Z</time></trkpt><trkpt lat="44.70717193947965" lon="8.086632594492391"><ele>317.0</ele><time>2026-04-11T13:54:29Z</time></trkpt><trkpt lat="44.707085390637324" lon="8.08651091607787"><ele>317.0</ele><time>2026-04-11T13:54:31Z</time></trkpt><trkpt lat="44.70700195056034" lon="8.086381640917692"><ele>317.0</ele><time>2026-04-11T13:54:33Z</time></trkpt><trkpt lat="44.70692089352565" lon="8.086276765271958"><ele>317.0</ele><time>2026-04-11T13:54:35Z</time></trkpt><trkpt lat="44.70687641310771" lon="8.086207005980157"><ele>317.2</ele><time>2026-04-11T13:54:36Z</time></trkpt><trkpt lat="44.70680067306312" lon="8.086102118714866"><ele>317.4</ele><time>2026-04-11T13:54:38Z</time></trkpt><trkpt lat="44.70672102623313" lon="8.085990628262723"><ele>317.6</ele><time>2026-04-11T13:54:40Z</time></trkpt><trkpt lat="44.706643429057536" lon="8.08588391249069"><ele>317.8</ele><time>2026-04-11T13:54:42Z</time></trkpt><trkpt lat="44.706600434126116" lon="8.085810969430026"><ele>318.0</ele><time>2026-04-11T13:54:43Z</time></trkpt><trkpt lat="44.706529269160164" lon="8.085671531021298"><ele>315.75</ele><time>2026-04-11T13:54:45Z</time></trkpt><trkpt lat="44.706469533151015" lon="8.085524463728088"><ele>313.5</ele><time>2026-04-11T13:54:47Z</time></trkpt><trkpt lat="44.70641939144911" lon="8.08536856088286"><ele>311.25</ele><time>2026-04-11T13:54:49Z</time></trkpt><trkpt lat="44.70636342927838" lon="8.085218312112147"><ele>309.0</ele><time>2026-04-11T13:54:51Z</time></trkpt><trkpt lat="44.70631160690278" lon="8.08507417193904"><ele>309.0</ele><time>2026-04-11T13:54:53Z</time></trkpt><trkpt lat="44.706282549407085" lon="8.084992888954023"><ele>309.0</ele><time>2026-04-11T13:54:54Z</time></trkpt><trkpt lat="44.70623127530183" lon="8.084837734336773"><ele>309.0</ele><time>2026-04-11T13:54:56Z</time></trkpt><trkpt lat="44.70617757958633" lon="8.08467966609952"><ele>309.0</ele><time>2026-04-11T13:54:58Z</time></trkpt><trkpt lat="44.70613070331816" lon="8.084533299682883"><ele>309.0</ele><time>2026-04-11T13:55:00Z</time></trkpt><trkpt lat="44.70607961328597" lon="8.084393995941129"><ele>311.0</ele><time>2026-04-11T13:55:02Z</time></trkpt><trkpt lat="44.70602791422834" lon="8.084258307288902"><ele>313.0</ele><time>2026-04-11T13:55:04Z</time></trkpt><trkpt lat="44.705977847156916" lon="8.08411421285074"><ele>315.0</ele><time>2026-04-11T13:55:06Z</time></trkpt><trkpt lat="44.70592797766303" lon="8.083972197298054"><ele>317.0</ele><time>2026-04-11T13:55:08Z</time></trkpt><trkpt lat="44.70587492784264" lon="8.083820390331232"><ele>317.0</ele><time>2026-04-11T13:55:10Z</time></trkpt><trkpt lat="44.70582443788065" lon="8.083689709630693"><ele>317.0</ele><time>2026-04-11T13:55:12Z</time></trkpt><trkpt lat="44.705776335798376" lon="8.083572689189644"><ele>317.0</ele><time>2026-04-11T13:55:14Z</time></trkpt><trkpt lat="44.70572999314066" lon="8.083463059883584"><ele>317.0</ele><time>2026-04-11T13:55:16Z</time></trkpt><trkpt lat="44.70567468573086" lon="8.083359692373293"><ele>317.0</ele><time>2026-04-11T13:55:18Z</time></trkpt><trkpt lat="44.70561535762319" lon="8.083261760094326"><ele>315.4</ele><time>2026-04-11T13:55:20Z</time></trkpt><trkpt lat="44.705547383442195" lon="8.083152710459382"><ele>313.79999999999995</ele><time>2026-04-11T13:55:22Z</time></trkpt><trkpt lat="44.70548010558915" lon="8.083034709133528"><ele>312.2</ele><time>2026-04-11T13:55:24Z</time></trkpt><trkpt lat="44.7054031526006" lon="8.082911112181161"><ele>310.59999999999997</ele><time>2026-04-11T13:55:26Z</time></trkpt><trkpt lat="44.70536779299275" lon="8.082836111850684"><ele>309.0</ele><time>2026-04-11T13:55:27Z</time></trkpt><trkpt lat="44.705288069728844" lon="8.082722740309476"><ele>308.8571428571429</ele><time>2026-04-11T13:55:29Z</time></trkpt><trkpt lat="44.705204610842365" lon="8.082585111913252"><ele>308.7142857142857</ele><time>2026-04-11T13:55:30.999Z</time></trkpt><trkpt lat="44.705163018830255" lon="8.082517841234965"><ele>308.57142857142856</ele><time>2026-04-11T13:55:31.999Z</time></trkpt><trkpt lat="44.70511961748902" lon="8.082451156860708"><ele>308.42857142857144</ele><time>2026-04-11T13:55:32.999Z</time></trkpt><trkpt lat="44.705076013972565" lon="8.08238554100818"><ele>308.2857142857143</ele><time>2026-04-11T13:55:33.999Z</time></trkpt><trkpt lat="44.70503421323002" lon="8.0823178775301"><ele>308.14285714285717</ele><time>2026-04-11T13:55:34.999Z</time></trkpt><trkpt lat="44.7049922783824" lon="8.082250377258742"><ele>308.0</ele><time>2026-04-11T13:55:35.999Z</time></trkpt><trkpt lat="44.70494765273491" lon="8.08217799307092"><ele>308.0</ele><time>2026-04-11T13:55:36.999Z</time></trkpt><trkpt lat="44.70486357928879" lon="8.082042502130953"><ele>308.0</ele><time>2026-04-11T13:55:38.999Z</time></trkpt><trkpt lat="44.7048202229774" lon="8.081973564595671"><ele>308.0</ele><time>2026-04-11T13:55:39.999Z</time></trkpt><trkpt lat="44.70473435966447" lon="8.0818436660603"><ele>308.0</ele><time>2026-04-11T13:55:41.999Z</time></trkpt><trkpt lat="44.704656727219124" lon="8.081711612090256"><ele>308.0</ele><time>2026-04-11T13:55:43.999Z</time></trkpt><trkpt lat="44.70457109447323" lon="8.081578747689758"><ele>309.83333333333337</ele><time>2026-04-11T13:55:45.999Z</time></trkpt><trkpt lat="44.704498247642924" lon="8.081432871553453"><ele>311.6666666666667</ele><time>2026-04-11T13:55:47.999Z</time></trkpt><trkpt lat="44.70444662138025" lon="8.081381259074439"><ele>313.5</ele><time>2026-04-11T13:55:48.999Z</time></trkpt><trkpt lat="44.7044068203045" lon="8.081308192803316"><ele>315.3333333333333</ele><time>2026-04-11T13:55:49.999Z</time></trkpt><trkpt lat="44.70436463006748" lon="8.081239447301122"><ele>317.16666666666663</ele><time>2026-04-11T13:55:50.999Z</time></trkpt><trkpt lat="44.70432326699542" lon="8.081171790060042"><ele>319.0</ele><time>2026-04-11T13:55:51.999Z</time></trkpt><trkpt lat="44.704261619807646" lon="8.081030834820218"><ele>319.0</ele><time>2026-04-11T13:55:53.999Z</time></trkpt><trkpt lat="44.704212626189424" lon="8.080969052102756"><ele>319.0</ele><time>2026-04-11T13:55:54.999Z</time></trkpt><trkpt lat="44.70416997234463" lon="8.080808813559408"><ele>319.0</ele><time>2026-04-11T13:55:56.999Z</time></trkpt><trkpt lat="44.7041253204436" lon="8.080654558460266"><ele>319.0</ele><time>2026-04-11T13:55:58.999Z</time></trkpt><trkpt lat="44.70413651132969" lon="8.080558112970643"><ele>319.0</ele><time>2026-04-11T13:55:59.999Z</time></trkpt><trkpt lat="44.70412568123443" lon="8.080468373142553"><ele>319.0</ele><time>2026-04-11T13:56:00.999Z</time></trkpt><trkpt lat="44.70413618666167" lon="8.080376344909515"><ele>318.66666666666663</ele><time>2026-04-11T13:56:01.999Z</time></trkpt><trkpt lat="44.704160736387855" lon="8.080281716726343"><ele>318.3333333333333</ele><time>2026-04-11T13:56:02.999Z</time></trkpt><trkpt lat="44.7041936995917" lon="8.080186269023917"><ele>318.0</ele><time>2026-04-11T13:56:03.999Z</time></trkpt><trkpt lat="44.704230817057" lon="8.080094955065013"><ele>317.6666666666667</ele><time>2026-04-11T13:56:04.999Z</time></trkpt><trkpt lat="44.704282759840446" lon="8.080015895662923"><ele>317.33333333333337</ele><time>2026-04-11T13:56:05.999Z</time></trkpt><trkpt lat="44.704323199338475" lon="8.079933787439021"><ele>317.0</ele><time>2026-04-11T13:56:06.999Z</time></trkpt><trkpt lat="44.70436835193808" lon="8.079839745175967"><ele>317.0</ele><time>2026-04-11T13:56:07.999Z</time></trkpt><trkpt lat="44.704411644519745" lon="8.079752199181979"><ele>317.0</ele><time>2026-04-11T13:56:08.999Z</time></trkpt><trkpt lat="44.70445884752164" lon="8.079658772728333"><ele>317.0</ele><time>2026-04-11T13:56:09.999Z</time></trkpt><trkpt lat="44.70449343277491" lon="8.079556700843694"><ele>317.0</ele><time>2026-04-11T13:56:10.999Z</time></trkpt><trkpt lat="44.70455442384616" lon="8.079471117705479"><ele>317.0</ele><time>2026-04-11T13:56:11.999Z</time></trkpt><trkpt lat="44.70459078062376" lon="8.07936238688007"><ele>317.0</ele><time>2026-04-11T13:56:12.999Z</time></trkpt><trkpt lat="44.70464107459407" lon="8.079264926550389"><ele>315.0</ele><time>2026-04-11T13:56:13.999Z</time></trkpt><trkpt lat="44.70469094984311" lon="8.07916445340289"><ele>313.0</ele><time>2026-04-11T13:56:14.999Z</time></trkpt><trkpt lat="44.70473650000025" lon="8.079075427033779"><ele>311.0</ele><time>2026-04-11T13:56:15.999Z</time></trkpt><trkpt lat="44.704796836022474" lon="8.07899487613622"><ele>309.0</ele><time>2026-04-11T13:56:16.999Z</time></trkpt><trkpt lat="44.70483170459314" lon="8.07888727098528"><ele>307.0</ele><time>2026-04-11T13:56:18Z</time></trkpt><trkpt lat="44.70489369024205" lon="8.078801985574632"><ele>305.0</ele><time>2026-04-11T13:56:19Z</time></trkpt><trkpt lat="44.70494419064876" lon="8.078699093930823"><ele>305.0</ele><time>2026-04-11T13:56:20Z</time></trkpt><trkpt lat="44.70498586867162" lon="8.078596635222656"><ele>305.0</ele><time>2026-04-11T13:56:21Z</time></trkpt><trkpt lat="44.705013688408954" lon="8.078472946938609"><ele>305.0</ele><time>2026-04-11T13:56:22Z</time></trkpt><trkpt lat="44.70502622179993" lon="8.078347596492177"><ele>305.0</ele><time>2026-04-11T13:56:23Z</time></trkpt><trkpt lat="44.705030222592704" lon="8.07821968176615"><ele>305.0</ele><time>2026-04-11T13:56:24Z</time></trkpt><trkpt lat="44.7050243924829" lon="8.078091476859946"><ele>305.0</ele><time>2026-04-11T13:56:25Z</time></trkpt><trkpt lat="44.70501958983477" lon="8.077969915906307"><ele>304.6</ele><time>2026-04-11T13:56:26Z</time></trkpt><trkpt lat="44.705014526773674" lon="8.07784176318397"><ele>304.2</ele><time>2026-04-11T13:56:27Z</time></trkpt><trkpt lat="44.70500933061946" lon="8.07771024195358"><ele>303.8</ele><time>2026-04-11T13:56:28Z</time></trkpt><trkpt lat="44.70500411532567" lon="8.077578236046968"><ele>303.4</ele><time>2026-04-11T13:56:29Z</time></trkpt><trkpt lat="44.704999190714545" lon="8.07744892609331"><ele>303.0</ele><time>2026-04-11T13:56:30Z</time></trkpt><trkpt lat="44.70499447837495" lon="8.077310283668439"><ele>303.0</ele><time>2026-04-11T13:56:31Z</time></trkpt><trkpt lat="44.704993801318665" lon="8.077188675205226"><ele>303.0</ele><time>2026-04-11T13:56:32Z</time></trkpt><trkpt lat="44.704994458216746" lon="8.07707870525691"><ele>303.0</ele><time>2026-04-11T13:56:33Z</time></trkpt><trkpt lat="44.7050015128454" lon="8.076941656351186"><ele>303.0</ele><time>2026-04-11T13:56:34Z</time></trkpt><trkpt lat="44.70500520760832" lon="8.076808979232725"><ele>303.0</ele><time>2026-04-11T13:56:35Z</time></trkpt><trkpt lat="44.70506602033926" lon="8.07669476135219"><ele>302.8</ele><time>2026-04-11T13:56:36Z</time></trkpt><trkpt lat="44.70511797617721" lon="8.076579671434178"><ele>302.6</ele><time>2026-04-11T13:56:37Z</time></trkpt><trkpt lat="44.705178956628636" lon="8.076468079870013"><ele>302.4</ele><time>2026-04-11T13:56:38Z</time></trkpt><trkpt lat="44.70523805641531" lon="8.076355021550082"><ele>302.2</ele><time>2026-04-11T13:56:39Z</time></trkpt><trkpt lat="44.70527809976341" lon="8.076222677482725"><ele>302.0</ele><time>2026-04-11T13:56:40Z</time></trkpt><trkpt lat="44.70533747607475" lon="8.076107458358893"><ele>299.0</ele><time>2026-04-11T13:56:41Z</time></trkpt><trkpt lat="44.70536195401675" lon="8.075955707256186"><ele>296.0</ele><time>2026-04-11T13:56:42Z</time></trkpt><trkpt lat="44.70541120949435" lon="8.075818891069371"><ele>293.0</ele><time>2026-04-11T13:56:43Z</time></trkpt><trkpt lat="44.70544313901465" lon="8.075673611760767"><ele>290.0</ele><time>2026-04-11T13:56:44Z</time></trkpt><trkpt lat="44.70546111471825" lon="8.075514920932413"><ele>287.0</ele><time>2026-04-11T13:56:45Z</time></trkpt><trkpt lat="44.70549496894307" lon="8.075375786418418"><ele>287.0</ele><time>2026-04-11T13:56:46Z</time></trkpt><trkpt lat="44.70552720906025" lon="8.075243649109364"><ele>287.0</ele><time>2026-04-11T13:56:47Z</time></trkpt><trkpt lat="44.70556078664853" lon="8.075104965889226"><ele>287.0</ele><time>2026-04-11T13:56:48Z</time></trkpt><trkpt lat="44.70558510067823" lon="8.074965587038417"><ele>287.0</ele><time>2026-04-11T13:56:49Z</time></trkpt><trkpt lat="44.705610235951745" lon="8.07482418004718"><ele>287.0</ele><time>2026-04-11T13:56:50Z</time></trkpt><trkpt lat="44.7056465168359" lon="8.074685952923623"><ele>286.6</ele><time>2026-04-11T13:56:51Z</time></trkpt><trkpt lat="44.70564789125621" lon="8.074535103239368"><ele>286.2</ele><time>2026-04-11T13:56:52Z</time></trkpt><trkpt lat="44.70565270963809" lon="8.074382671172335"><ele>285.8</ele><time>2026-04-11T13:56:53Z</time></trkpt><trkpt lat="44.70565556210113" lon="8.074224466308843"><ele>285.4</ele><time>2026-04-11T13:56:54Z</time></trkpt><trkpt lat="44.70565592925785" lon="8.074073142423849"><ele>285.0</ele><time>2026-04-11T13:56:55Z</time></trkpt><trkpt lat="44.705658426290384" lon="8.073916894670681"><ele>284.25</ele><time>2026-04-11T13:56:56Z</time></trkpt><trkpt lat="44.705662629251954" lon="8.073759793475412"><ele>283.5</ele><time>2026-04-11T13:56:57Z</time></trkpt><trkpt lat="44.705665717817695" lon="8.073599866924363"><ele>282.75</ele><time>2026-04-11T13:56:58Z</time></trkpt><trkpt lat="44.70566437407388" lon="8.073441417015298"><ele>282.0</ele><time>2026-04-11T13:56:59Z</time></trkpt><trkpt lat="44.705665279295" lon="8.073281404536951"><ele>281.8</ele><time>2026-04-11T13:57:00Z</time></trkpt><trkpt lat="44.705668893264836" lon="8.073125447936125"><ele>281.6</ele><time>2026-04-11T13:57:01Z</time></trkpt><trkpt lat="44.70567701358154" lon="8.072971267474811"><ele>281.40000000000003</ele><time>2026-04-11T13:57:02Z</time></trkpt><trkpt lat="44.705689843326034" lon="8.07281575475118"><ele>281.2</ele><time>2026-04-11T13:57:03Z</time></trkpt><trkpt lat="44.705706918721326" lon="8.072668778400338"><ele>281.0</ele><time>2026-04-11T13:57:04Z</time></trkpt><trkpt lat="44.70572777129455" lon="8.072528052134306"><ele>280.40000000000003</ele><time>2026-04-11T13:57:05Z</time></trkpt><trkpt lat="44.705755878586274" lon="8.07238310612342"><ele>279.8</ele><time>2026-04-11T13:57:06Z</time></trkpt><trkpt lat="44.705785581627865" lon="8.072244629431536"><ele>279.20000000000005</ele><time>2026-04-11T13:57:07Z</time></trkpt><trkpt lat="44.705812940314786" lon="8.072104008191317"><ele>278.6</ele><time>2026-04-11T13:57:08Z</time></trkpt><trkpt lat="44.705839754158355" lon="8.071954993795137"><ele>278.0</ele><time>2026-04-11T13:57:09Z</time></trkpt><trkpt lat="44.70585946172429" lon="8.071813551928717"><ele>278.0</ele><time>2026-04-11T13:57:10Z</time></trkpt><trkpt lat="44.70588541049212" lon="8.07167814944934"><ele>278.0</ele><time>2026-04-11T13:57:11Z</time></trkpt><trkpt lat="44.70587330162396" lon="8.07153094819789"><ele>278.0</ele><time>2026-04-11T13:57:12Z</time></trkpt><trkpt lat="44.70586850718246" lon="8.071388150466014"><ele>278.0</ele><time>2026-04-11T13:57:13Z</time></trkpt><trkpt lat="44.70585746000918" lon="8.071248082609987"><ele>278.0</ele><time>2026-04-11T13:57:14Z</time></trkpt><trkpt lat="44.70583869181711" lon="8.071113218840928"><ele>277.5</ele><time>2026-04-11T13:57:15Z</time></trkpt><trkpt lat="44.70582494587718" lon="8.070995394686701"><ele>277.0</ele><time>2026-04-11T13:57:16Z</time></trkpt><trkpt lat="44.70582178672809" lon="8.070873934987901"><ele>276.5</ele><time>2026-04-11T13:57:17Z</time></trkpt><trkpt lat="44.705831736078345" lon="8.07076347206401"><ele>276.0</ele><time>2026-04-11T13:57:18Z</time></trkpt><trkpt lat="44.70586007795391" lon="8.070662179544911"><ele>275.5</ele><time>2026-04-11T13:57:19Z</time></trkpt><trkpt lat="44.70590756615388" lon="8.070598840242042"><ele>275.0</ele><time>2026-04-11T13:57:20Z</time></trkpt><trkpt lat="44.705964052275604" lon="8.07050530132732"><ele>274.4</ele><time>2026-04-11T13:57:21Z</time></trkpt><trkpt lat="44.7060388302407" lon="8.070439450803832"><ele>273.8</ele><time>2026-04-11T13:57:22Z</time></trkpt><trkpt lat="44.706122277553995" lon="8.070393702235927"><ele>273.2</ele><time>2026-04-11T13:57:23Z</time></trkpt><trkpt lat="44.70621135956183" lon="8.070353979947312"><ele>272.6</ele><time>2026-04-11T13:57:24Z</time></trkpt><trkpt lat="44.70629662369511" lon="8.070310213347927"><ele>272.0</ele><time>2026-04-11T13:57:25Z</time></trkpt><trkpt lat="44.70638555688835" lon="8.07026637154988"><ele>272.0</ele><time>2026-04-11T13:57:26Z</time></trkpt><trkpt lat="44.70647322355758" lon="8.070217472154546"><ele>272.0</ele><time>2026-04-11T13:57:27Z</time></trkpt><trkpt lat="44.70656322401733" lon="8.070170855758235"><ele>272.0</ele><time>2026-04-11T13:57:28Z</time></trkpt><trkpt lat="44.70665617706635" lon="8.070119840280706"><ele>272.0</ele><time>2026-04-11T13:57:28.999Z</time></trkpt><trkpt lat="44.70674335713137" lon="8.07006531731349"><ele>272.0</ele><time>2026-04-11T13:57:29.999Z</time></trkpt><trkpt lat="44.70682916163489" lon="8.06999657685417"><ele>272.0</ele><time>2026-04-11T13:57:30.999Z</time></trkpt><trkpt lat="44.70690896145087" lon="8.069904300947885"><ele>272.0</ele><time>2026-04-11T13:57:31.999Z</time></trkpt><trkpt lat="44.7069726847552" lon="8.069799331745605"><ele>272.0</ele><time>2026-04-11T13:57:32.999Z</time></trkpt><trkpt lat="44.70703348417879" lon="8.069684370299818"><ele>272.0</ele><time>2026-04-11T13:57:33.999Z</time></trkpt><trkpt lat="44.70709306716558" lon="8.069562630594014"><ele>272.0</ele><time>2026-04-11T13:57:34.999Z</time></trkpt><trkpt lat="44.707148910266795" lon="8.069439200924716"><ele>272.0</ele><time>2026-04-11T13:57:35.999Z</time></trkpt><trkpt lat="44.70719625044782" lon="8.069316493380768"><ele>272.0</ele><time>2026-04-11T13:57:36.999Z</time></trkpt><trkpt lat="44.70723903389037" lon="8.069180416401046"><ele>272.0</ele><time>2026-04-11T13:57:37.999Z</time></trkpt><trkpt lat="44.70727537119889" lon="8.069044996455533"><ele>272.0</ele><time>2026-04-11T13:57:38.999Z</time></trkpt><trkpt lat="44.70730469416752" lon="8.068902073493007"><ele>272.0</ele><time>2026-04-11T13:57:39.999Z</time></trkpt><trkpt lat="44.707348013822674" lon="8.068769141471787"><ele>269.8</ele><time>2026-04-11T13:57:40.999Z</time></trkpt><trkpt lat="44.70738028665787" lon="8.068626840775952"><ele>267.6</ele><time>2026-04-11T13:57:41.999Z</time></trkpt><trkpt lat="44.70741272711129" lon="8.068486623600554"><ele>265.40000000000003</ele><time>2026-04-11T13:57:42.999Z</time></trkpt><trkpt lat="44.707446471691064" lon="8.06834076960918"><ele>263.2</ele><time>2026-04-11T13:57:43.999Z</time></trkpt><trkpt lat="44.70747966811396" lon="8.06819338404465"><ele>261.0</ele><time>2026-04-11T13:57:44.999Z</time></trkpt><trkpt lat="44.70750942830555" lon="8.068059812986295"><ele>259.6</ele><time>2026-04-11T13:57:45.999Z</time></trkpt><trkpt lat="44.70754184039171" lon="8.067935867239282"><ele>258.20000000000005</ele><time>2026-04-11T13:57:46.999Z</time></trkpt><trkpt lat="44.70758316523362" lon="8.067818985462997"><ele>256.79999999999995</ele><time>2026-04-11T13:57:47.999Z</time></trkpt><trkpt lat="44.70762781885178" lon="8.06770394511707"><ele>255.39999999999998</ele><time>2026-04-11T13:57:48.999Z</time></trkpt><trkpt lat="44.70771287313707" lon="8.067625348734799"><ele>254.0</ele><time>2026-04-11T13:57:49.999Z</time></trkpt><trkpt lat="44.70781619796121" lon="8.067600481412539"><ele>254.0</ele><time>2026-04-11T13:57:50.999Z</time></trkpt><trkpt lat="44.70791253601359" lon="8.067593848728993"><ele>253.99999999999997</ele><time>2026-04-11T13:57:51.999Z</time></trkpt><trkpt lat="44.70800757725869" lon="8.067584368705004"><ele>253.99999999999997</ele><time>2026-04-11T13:57:52.999Z</time></trkpt><trkpt lat="44.70810406454531" lon="8.067591998784682"><ele>254.0</ele><time>2026-04-11T13:57:53.999Z</time></trkpt><trkpt lat="44.708197812805686" lon="8.067585268093767"><ele>254.0</ele><time>2026-04-11T13:57:54.999Z</time></trkpt><trkpt lat="44.708292557174175" lon="8.067567287043536"><ele>254.0</ele><time>2026-04-11T13:57:55.999Z</time></trkpt><trkpt lat="44.708385095462475" lon="8.067533184273866"><ele>253.99999999999997</ele><time>2026-04-11T13:57:56.999Z</time></trkpt><trkpt lat="44.70847504541339" lon="8.067481536615807"><ele>253.99999999999997</ele><time>2026-04-11T13:57:57.999Z</time></trkpt><trkpt lat="44.7085603959133" lon="8.067420233692927"><ele>254.0</ele><time>2026-04-11T13:57:58.999Z</time></trkpt><trkpt lat="44.70864923344472" lon="8.067354757380908"><ele>254.0</ele><time>2026-04-11T13:57:59.999Z</time></trkpt><trkpt lat="44.708739690726006" lon="8.067291603820692"><ele>252.79999999999998</ele><time>2026-04-11T13:58:00.999Z</time></trkpt><trkpt lat="44.708833199477226" lon="8.067250328913241"><ele>251.59999999999997</ele><time>2026-04-11T13:58:01.999Z</time></trkpt><trkpt lat="44.70892001256087" lon="8.067181740412101"><ele>250.4</ele><time>2026-04-11T13:58:02.999Z</time></trkpt><trkpt lat="44.70900655465934" lon="8.067107057965242"><ele>249.2</ele><time>2026-04-11T13:58:03.999Z</time></trkpt><trkpt lat="44.70907857154179" lon="8.067007273471166"><ele>248.0</ele><time>2026-04-11T13:58:04.999Z</time></trkpt><trkpt lat="44.70916197963658" lon="8.066931302073524"><ele>248.0</ele><time>2026-04-11T13:58:05.999Z</time></trkpt><trkpt lat="44.709211334328565" lon="8.06679625318442"><ele>248.0</ele><time>2026-04-11T13:58:06.999Z</time></trkpt><trkpt lat="44.709274108508225" lon="8.066682499603884"><ele>248.0</ele><time>2026-04-11T13:58:07.999Z</time></trkpt><trkpt lat="44.709305819736294" lon="8.066537672037015"><ele>248.0</ele><time>2026-04-11T13:58:08.999Z</time></trkpt><trkpt lat="44.70936376380241" lon="8.066406463421197"><ele>248.0</ele><time>2026-04-11T13:58:09.999Z</time></trkpt><trkpt lat="44.709404601372135" lon="8.066267462505717"><ele>247.60000000000002</ele><time>2026-04-11T13:58:10.999Z</time></trkpt><trkpt lat="44.709445243541744" lon="8.066134634729375"><ele>247.20000000000002</ele><time>2026-04-11T13:58:11.999Z</time></trkpt><trkpt lat="44.709488068045246" lon="8.065998645921287"><ele>246.8</ele><time>2026-04-11T13:58:12.999Z</time></trkpt><trkpt lat="44.709530105931826" lon="8.065860769068733"><ele>246.4</ele><time>2026-04-11T13:58:13.999Z</time></trkpt><trkpt lat="44.709569414574986" lon="8.065713518461259"><ele>246.0</ele><time>2026-04-11T13:58:14.999Z</time></trkpt><trkpt lat="44.70959853626571" lon="8.06557057632784"><ele>246.0</ele><time>2026-04-11T13:58:15.999Z</time></trkpt><trkpt lat="44.709598608904706" lon="8.065407480562468"><ele>246.0</ele><time>2026-04-11T13:58:16.999Z</time></trkpt><trkpt lat="44.70959737486417" lon="8.065250221110873"><ele>246.0</ele><time>2026-04-11T13:58:17.999Z</time></trkpt><trkpt lat="44.709582823389326" lon="8.06509982654881"><ele>246.0</ele><time>2026-04-11T13:58:18.999Z</time></trkpt><trkpt lat="44.70958658369884" lon="8.064937287850437"><ele>244.25</ele><time>2026-04-11T13:58:19.999Z</time></trkpt><trkpt lat="44.70956194547367" lon="8.064777413099865"><ele>242.5</ele><time>2026-04-11T13:58:20.999Z</time></trkpt><trkpt lat="44.709551384568854" lon="8.064622635899585"><ele>240.75</ele><time>2026-04-11T13:58:21.999Z</time></trkpt><trkpt lat="44.709541712237474" lon="8.064461846583052"><ele>239.0</ele><time>2026-04-11T13:58:22.999Z</time></trkpt><trkpt lat="44.709535217023685" lon="8.064304458219656"><ele>239.0</ele><time>2026-04-11T13:58:24Z</time></trkpt><trkpt lat="44.70952644949065" lon="8.06415605659979"><ele>238.99999999999997</ele><time>2026-04-11T13:58:25Z</time></trkpt><trkpt lat="44.70952016279404" lon="8.06400137015163"><ele>238.99999999999997</ele><time>2026-04-11T13:58:26Z</time></trkpt><trkpt lat="44.70951393610114" lon="8.063861638906289"><ele>239.0</ele><time>2026-04-11T13:58:27Z</time></trkpt><trkpt lat="44.709516104892856" lon="8.063731029552383"><ele>239.0</ele><time>2026-04-11T13:58:28Z</time></trkpt><trkpt lat="44.70954343214559" lon="8.063601078993761"><ele>238.2</ele><time>2026-04-11T13:58:29Z</time></trkpt><trkpt lat="44.7096119493501" lon="8.063502069650076"><ele>237.39999999999998</ele><time>2026-04-11T13:58:30Z</time></trkpt><trkpt lat="44.70967908260966" lon="8.063415295065159"><ele>236.6</ele><time>2026-04-11T13:58:31Z</time></trkpt><trkpt lat="44.709747673249694" lon="8.063310992870168"><ele>235.8</ele><time>2026-04-11T13:58:32Z</time></trkpt><trkpt lat="44.70982195303936" lon="8.06323296592125"><ele>235.0</ele><time>2026-04-11T13:58:33Z</time></trkpt><trkpt lat="44.709885769325155" lon="8.063152687614458"><ele>233.33333333333331</ele><time>2026-04-11T13:58:34Z</time></trkpt><trkpt lat="44.709946778671124" lon="8.06306995956702"><ele>231.66666666666666</ele><time>2026-04-11T13:58:35Z</time></trkpt><trkpt lat="44.709998650791086" lon="8.062977155181956"><ele>230.0</ele><time>2026-04-11T13:58:36Z</time></trkpt><trkpt lat="44.71002781562062" lon="8.06286244647891"><ele>228.33333333333331</ele><time>2026-04-11T13:58:37Z</time></trkpt><trkpt lat="44.71001826690625" lon="8.062742405128343"><ele>226.66666666666666</ele><time>2026-04-11T13:58:38Z</time></trkpt><trkpt lat="44.70998715968595" lon="8.062633745763604"><ele>225.0</ele><time>2026-04-11T13:58:39Z</time></trkpt><trkpt lat="44.709935046675355" lon="8.062549214371224"><ele>225.0</ele><time>2026-04-11T13:58:40Z</time></trkpt><trkpt lat="44.70986275660307" lon="8.062494566169232"><ele>225.0</ele><time>2026-04-11T13:58:41Z</time></trkpt><trkpt lat="44.70978411006091" lon="8.062472751016372"><ele>225.0</ele><time>2026-04-11T13:58:42Z</time></trkpt><trkpt lat="44.70970693206392" lon="8.062471367776121"><ele>225.0</ele><time>2026-04-11T13:58:43Z</time></trkpt><trkpt lat="44.70963198162497" lon="8.062489659534426"><ele>225.0</ele><time>2026-04-11T13:58:44Z</time></trkpt><trkpt lat="44.70955242369951" lon="8.062513922933064"><ele>225.0</ele><time>2026-04-11T13:58:45Z</time></trkpt><trkpt lat="44.70947615759389" lon="8.062553692250733"><ele>223.16666666666666</ele><time>2026-04-11T13:58:46Z</time></trkpt><trkpt lat="44.709407334333456" lon="8.062601197911933"><ele>221.33333333333331</ele><time>2026-04-11T13:58:47Z</time></trkpt><trkpt lat="44.70934445298842" lon="8.062692481364946"><ele>219.5</ele><time>2026-04-11T13:58:48Z</time></trkpt><trkpt lat="44.7092973756907" lon="8.06278921030358"><ele>217.66666666666666</ele><time>2026-04-11T13:58:49Z</time></trkpt><trkpt lat="44.709280105960644" lon="8.06291686380228"><ele>215.83333333333331</ele><time>2026-04-11T13:58:50Z</time></trkpt><trkpt lat="44.70926613507808" lon="8.063045559149877"><ele>214.0</ele><time>2026-04-11T13:58:51Z</time></trkpt><trkpt lat="44.7092582818809" lon="8.063171721633651"><ele>214.39999999999998</ele><time>2026-04-11T13:58:52Z</time></trkpt><trkpt lat="44.709248464426935" lon="8.06330231963923"><ele>214.79999999999998</ele><time>2026-04-11T13:58:53Z</time></trkpt><trkpt lat="44.70923673407136" lon="8.063434519825757"><ele>215.20000000000002</ele><time>2026-04-11T13:58:54Z</time></trkpt><trkpt lat="44.70921783329453" lon="8.063566476053792"><ele>215.60000000000002</ele><time>2026-04-11T13:58:55Z</time></trkpt><trkpt lat="44.709191440451946" lon="8.063698179149291"><ele>216.0</ele><time>2026-04-11T13:58:56Z</time></trkpt><trkpt lat="44.70916643203021" lon="8.063830462949094"><ele>216.0</ele><time>2026-04-11T13:58:57Z</time></trkpt><trkpt lat="44.70914226188978" lon="8.063972258487688"><ele>216.00000000000003</ele><time>2026-04-11T13:58:58Z</time></trkpt><trkpt lat="44.70912559041463" lon="8.064106230677101"><ele>216.00000000000003</ele><time>2026-04-11T13:58:59Z</time></trkpt><trkpt lat="44.7091067421444" lon="8.06424764404222"><ele>216.0</ele><time>2026-04-11T13:59:00Z</time></trkpt><trkpt lat="44.70908974477653" lon="8.064391858521818"><ele>216.0</ele><time>2026-04-11T13:59:01Z</time></trkpt><trkpt lat="44.709076318446535" lon="8.06453819226204"><ele>216.60000000000002</ele><time>2026-04-11T13:59:02Z</time></trkpt><trkpt lat="44.709065478532764" lon="8.064685511431666"><ele>217.20000000000002</ele><time>2026-04-11T13:59:03Z</time></trkpt><trkpt lat="44.709054242565465" lon="8.064829699600491"><ele>217.79999999999998</ele><time>2026-04-11T13:59:04Z</time></trkpt><trkpt lat="44.70904293083632" lon="8.064966457355474"><ele>218.39999999999998</ele><time>2026-04-11T13:59:05Z</time></trkpt><trkpt lat="44.7090226441952" lon="8.0650906440179"><ele>219.0</ele><time>2026-04-11T13:59:06Z</time></trkpt><trkpt lat="44.70898367822513" lon="8.065205461164675"><ele>220.0</ele><time>2026-04-11T13:59:07Z</time></trkpt><trkpt lat="44.70891007503311" lon="8.065290045416607"><ele>220.99999999999997</ele><time>2026-04-11T13:59:08Z</time></trkpt><trkpt lat="44.70880641169819" lon="8.065323188087648"><ele>221.99999999999997</ele><time>2026-04-11T13:59:09Z</time></trkpt><trkpt lat="44.70870559603784" lon="8.065326493998754"><ele>223.0</ele><time>2026-04-11T13:59:10Z</time></trkpt><trkpt lat="44.70860126819498" lon="8.065312655981208"><ele>224.0</ele><time>2026-04-11T13:59:11Z</time></trkpt><trkpt lat="44.70850669877071" lon="8.06528885111042"><ele>221.0</ele><time>2026-04-11T13:59:12Z</time></trkpt><trkpt lat="44.7084184299941" lon="8.065226643645216"><ele>217.99999999999997</ele><time>2026-04-11T13:59:13Z</time></trkpt><trkpt lat="44.708324989590075" lon="8.065134895236527"><ele>215.0</ele><time>2026-04-11T13:59:14Z</time></trkpt><trkpt lat="44.70823693214051" lon="8.06505998602306"><ele>212.0</ele><time>2026-04-11T13:59:15Z</time></trkpt><trkpt lat="44.708131725437276" lon="8.06500401141169"><ele>209.0</ele><time>2026-04-11T13:59:16Z</time></trkpt><trkpt lat="44.70802339071142" lon="8.06497491510862"><ele>209.0</ele><time>2026-04-11T13:59:17Z</time></trkpt><trkpt lat="44.707910316195864" lon="8.064950422146786"><ele>209.0</ele><time>2026-04-11T13:59:18Z</time></trkpt><trkpt lat="44.70779420426709" lon="8.064926554468268"><ele>209.0</ele><time>2026-04-11T13:59:19Z</time></trkpt><trkpt lat="44.70767714108154" lon="8.064905290951154"><ele>209.0</ele><time>2026-04-11T13:59:20Z</time></trkpt><trkpt lat="44.70755823746447" lon="8.06488177700983"><ele>206.6</ele><time>2026-04-11T13:59:21Z</time></trkpt><trkpt lat="44.707443610472104" lon="8.064858116387795"><ele>204.2</ele><time>2026-04-11T13:59:22Z</time></trkpt><trkpt lat="44.70732868142149" lon="8.064832603884454"><ele>201.79999999999998</ele><time>2026-04-11T13:59:23Z</time></trkpt><trkpt lat="44.70722247005579" lon="8.064801364247547"><ele>199.39999999999998</ele><time>2026-04-11T13:59:24Z</time></trkpt><trkpt lat="44.707122066424844" lon="8.064773562512425"><ele>197.0</ele><time>2026-04-11T13:59:25Z</time></trkpt><trkpt lat="44.70702767848196" lon="8.064740386359153"><ele>197.0</ele><time>2026-04-11T13:59:26Z</time></trkpt><trkpt lat="44.70693746626745" lon="8.064686341896698"><ele>197.0</ele><time>2026-04-11T13:59:27Z</time></trkpt><trkpt lat="44.706854813574886" lon="8.064601460706427"><ele>197.0</ele><time>2026-04-11T13:59:28Z</time></trkpt><trkpt lat="44.70677669162353" lon="8.064491857520856"><ele>197.0</ele><time>2026-04-11T13:59:29Z</time></trkpt><trkpt lat="44.70671526238845" lon="8.064375119795244"><ele>197.0</ele><time>2026-04-11T13:59:30Z</time></trkpt><trkpt lat="44.70666005826569" lon="8.064261669187793"><ele>196.6</ele><time>2026-04-11T13:59:31Z</time></trkpt><trkpt lat="44.70658385613658" lon="8.064183153779164"><ele>196.2</ele><time>2026-04-11T13:59:32Z</time></trkpt><trkpt lat="44.70649658728547" lon="8.064144743567526"><ele>195.8</ele><time>2026-04-11T13:59:33Z</time></trkpt><trkpt lat="44.70640464621186" lon="8.064155028513026"><ele>195.4</ele><time>2026-04-11T13:59:34Z</time></trkpt><trkpt lat="44.706323469640246" lon="8.064206879680789"><ele>195.0</ele><time>2026-04-11T13:59:35Z</time></trkpt><trkpt lat="44.70625511150474" lon="8.064296882944364"><ele>195.0</ele><time>2026-04-11T13:59:36Z</time></trkpt><trkpt lat="44.70620297264859" lon="8.064403324786898"><ele>195.0</ele><time>2026-04-11T13:59:37Z</time></trkpt><trkpt lat="44.706165907143266" lon="8.064526219797328"><ele>195.0</ele><time>2026-04-11T13:59:38Z</time></trkpt><trkpt lat="44.70615187688823" lon="8.064656720936805"><ele>195.0</ele><time>2026-04-11T13:59:39Z</time></trkpt><trkpt lat="44.706149104417136" lon="8.064784362561076"><ele>195.0</ele><time>2026-04-11T13:59:40Z</time></trkpt><trkpt lat="44.706146614532074" lon="8.064918298669898"><ele>197.2</ele><time>2026-04-11T13:59:41Z</time></trkpt><trkpt lat="44.706139642188674" lon="8.065052749038017"><ele>199.4</ele><time>2026-04-11T13:59:42Z</time></trkpt><trkpt lat="44.706139478017626" lon="8.065186394655653"><ele>201.60000000000002</ele><time>2026-04-11T13:59:43Z</time></trkpt><trkpt lat="44.706144602553515" lon="8.065321710474665"><ele>203.8</ele><time>2026-04-11T13:59:44Z</time></trkpt><trkpt lat="44.706146154183294" lon="8.06545430672707"><ele>206.0</ele><time>2026-04-11T13:59:45Z</time></trkpt><trkpt lat="44.70614708518656" lon="8.065591598575946"><ele>206.0</ele><time>2026-04-11T13:59:46Z</time></trkpt><trkpt lat="44.70614281349735" lon="8.065724540503837"><ele>206.0</ele><time>2026-04-11T13:59:47Z</time></trkpt><trkpt lat="44.70613272964823" lon="8.065859248494835"><ele>206.0</ele><time>2026-04-11T13:59:48Z</time></trkpt><trkpt lat="44.706101483084296" lon="8.065983602627911"><ele>206.0</ele><time>2026-04-11T13:59:49Z</time></trkpt><trkpt lat="44.706040377495825" lon="8.066091810947253"><ele>206.0</ele><time>2026-04-11T13:59:50Z</time></trkpt><trkpt lat="44.705954072243074" lon="8.06616514376127"><ele>203.4</ele><time>2026-04-11T13:59:51Z</time></trkpt><trkpt lat="44.70585680329824" lon="8.066187547745255"><ele>200.8</ele><time>2026-04-11T13:59:52Z</time></trkpt><trkpt lat="44.705755814767805" lon="8.066154652708702"><ele>198.20000000000002</ele><time>2026-04-11T13:59:53Z</time></trkpt><trkpt lat="44.70566043833764" lon="8.066083448874169"><ele>195.60000000000002</ele><time>2026-04-11T13:59:54Z</time></trkpt><trkpt lat="44.70559040928993" lon="8.065974747093653"><ele>193.0</ele><time>2026-04-11T13:59:55Z</time></trkpt><trkpt lat="44.70550734675006" lon="8.065891694603941"><ele>193.0</ele><time>2026-04-11T13:59:56Z</time></trkpt><trkpt lat="44.70543614419512" lon="8.065782492673327"><ele>193.0</ele><time>2026-04-11T13:59:57Z</time></trkpt><trkpt lat="44.70536819988418" lon="8.06567919627895"><ele>193.0</ele><time>2026-04-11T13:59:58Z</time></trkpt><trkpt lat="44.705300470344774" lon="8.065574078221312"><ele>193.0</ele><time>2026-04-11T13:59:59Z</time></trkpt><trkpt lat="44.705232691340775" lon="8.065467941688661"><ele>193.0</ele><time>2026-04-11T14:00:00Z</time></trkpt><trkpt lat="44.70516392420282" lon="8.06536771610286"><ele>191.8</ele><time>2026-04-11T14:00:01Z</time></trkpt><trkpt lat="44.70509200274896" lon="8.065261660426126"><ele>190.60000000000002</ele><time>2026-04-11T14:00:02Z</time></trkpt><trkpt lat="44.705020669043556" lon="8.06516029181405"><ele>189.39999999999998</ele><time>2026-04-11T14:00:03Z</time></trkpt><trkpt lat="44.70495331976367" lon="8.065047915104959"><ele>188.2</ele><time>2026-04-11T14:00:04Z</time></trkpt><trkpt lat="44.704883410466934" lon="8.064937436211684"><ele>187.0</ele><time>2026-04-11T14:00:05Z</time></trkpt><trkpt lat="44.7048121587755" lon="8.064828120488837"><ele>185.8</ele><time>2026-04-11T14:00:05.999Z</time></trkpt><trkpt lat="44.704734568687336" lon="8.06473054547256"><ele>184.6</ele><time>2026-04-11T14:00:06.999Z</time></trkpt><trkpt lat="44.7046453843421" lon="8.064655408699428"><ele>183.4</ele><time>2026-04-11T14:00:07.999Z</time></trkpt><trkpt lat="44.70454691017662" lon="8.064606845056726"><ele>182.20000000000002</ele><time>2026-04-11T14:00:08.999Z</time></trkpt><trkpt lat="44.70444583503462" lon="8.064574250297639"><ele>181.0</ele><time>2026-04-11T14:00:09.999Z</time></trkpt><trkpt lat="44.704343828396865" lon="8.064569650326382"><ele>181.0</ele><time>2026-04-11T14:00:10.999Z</time></trkpt><trkpt lat="44.70423765672512" lon="8.06457830292778"><ele>181.0</ele><time>2026-04-11T14:00:11.999Z</time></trkpt><trkpt lat="44.704130751691984" lon="8.06459126309294"><ele>181.0</ele><time>2026-04-11T14:00:12.999Z</time></trkpt><trkpt lat="44.704028778006524" lon="8.064604405661239"><ele>181.0</ele><time>2026-04-11T14:00:13.999Z</time></trkpt><trkpt lat="44.70392306128434" lon="8.06463334197912"><ele>181.0</ele><time>2026-04-11T14:00:14.999Z</time></trkpt><trkpt lat="44.70382220991054" lon="8.064608192377062"><ele>181.0</ele><time>2026-04-11T14:00:15.999Z</time></trkpt><trkpt lat="44.703720046929476" lon="8.06460966268333"><ele>181.0</ele><time>2026-04-11T14:00:16.999Z</time></trkpt><trkpt lat="44.703619014077326" lon="8.064619397466872"><ele>181.0</ele><time>2026-04-11T14:00:17.999Z</time></trkpt><trkpt lat="44.70352014111482" lon="8.064626408418361"><ele>181.0</ele><time>2026-04-11T14:00:18.999Z</time></trkpt><trkpt lat="44.70342170809134" lon="8.06462503249619"><ele>181.0</ele><time>2026-04-11T14:00:19.999Z</time></trkpt><trkpt lat="44.703328378759544" lon="8.064610864148298"><ele>180.0</ele><time>2026-04-11T14:00:20.999Z</time></trkpt><trkpt lat="44.70323818746749" lon="8.064570358917168"><ele>179.0</ele><time>2026-04-11T14:00:21.999Z</time></trkpt><trkpt lat="44.7031499284987" lon="8.064512776413766"><ele>178.0</ele><time>2026-04-11T14:00:22.999Z</time></trkpt><trkpt lat="44.70306282419398" lon="8.06444415090874"><ele>177.0</ele><time>2026-04-11T14:00:23.999Z</time></trkpt><trkpt lat="44.70297226012401" lon="8.06438089233247"><ele>176.0</ele><time>2026-04-11T14:00:24.999Z</time></trkpt><trkpt lat="44.70288337791744" lon="8.064309813199372"><ele>176.0</ele><time>2026-04-11T14:00:25.999Z</time></trkpt><trkpt lat="44.70279757728333" lon="8.064240579875884"><ele>176.0</ele><time>2026-04-11T14:00:26.999Z</time></trkpt><trkpt lat="44.70270680609663" lon="8.06417375996177"><ele>176.0</ele><time>2026-04-11T14:00:27.999Z</time></trkpt><trkpt lat="44.70261252664887" lon="8.064105654682086"><ele>176.0</ele><time>2026-04-11T14:00:28.999Z</time></trkpt><trkpt lat="44.702519531646395" lon="8.064035279909191"><ele>176.0</ele><time>2026-04-11T14:00:30Z</time></trkpt><trkpt lat="44.702425844237105" lon="8.063964065247164"><ele>174.8</ele><time>2026-04-11T14:00:31Z</time></trkpt><trkpt lat="44.702329965708465" lon="8.063899445549263"><ele>173.60000000000002</ele><time>2026-04-11T14:00:32Z</time></trkpt><trkpt lat="44.70223433454808" lon="8.063839719251352"><ele>172.4</ele><time>2026-04-11T14:00:33Z</time></trkpt><trkpt lat="44.70213945452222" lon="8.06378697052536"><ele>171.2</ele><time>2026-04-11T14:00:34Z</time></trkpt><trkpt lat="44.702044705838105" lon="8.063734250870919"><ele>170.0</ele><time>2026-04-11T14:00:35Z</time></trkpt><trkpt lat="44.70195380649803" lon="8.063684827189968"><ele>170.0</ele><time>2026-04-11T14:00:36Z</time></trkpt><trkpt lat="44.701866520458125" lon="8.063638448707211"><ele>170.0</ele><time>2026-04-11T14:00:37Z</time></trkpt><trkpt lat="44.70178116107708" lon="8.06358891956059"><ele>170.0</ele><time>2026-04-11T14:00:38Z</time></trkpt><trkpt lat="44.70169880263669" lon="8.063544320063398"><ele>170.0</ele><time>2026-04-11T14:00:39Z</time></trkpt><trkpt lat="44.701616067204846" lon="8.063497900404899"><ele>170.0</ele><time>2026-04-11T14:00:40Z</time></trkpt><trkpt lat="44.70154028150276" lon="8.063460013544015"><ele>170.0</ele><time>2026-04-11T14:00:41Z</time></trkpt><trkpt lat="44.70146673557508" lon="8.063422192636894"><ele>170.0</ele><time>2026-04-11T14:00:42Z</time></trkpt><trkpt lat="44.70139564084727" lon="8.06338369688518"><ele>170.0</ele><time>2026-04-11T14:00:43Z</time></trkpt><trkpt lat="44.70132427398079" lon="8.063344525574587"><ele>170.0</ele><time>2026-04-11T14:00:44Z</time></trkpt><trkpt lat="44.70125521163754" lon="8.063310908651566"><ele>170.0</ele><time>2026-04-11T14:00:45Z</time></trkpt><trkpt lat="44.70119128842356" lon="8.063275724020162"><ele>170.0</ele><time>2026-04-11T14:00:46Z</time></trkpt><trkpt lat="44.70112591717868" lon="8.06323956657705"><ele>170.0</ele><time>2026-04-11T14:00:47Z</time></trkpt><trkpt lat="44.70106399698514" lon="8.063204659261123"><ele>170.0</ele><time>2026-04-11T14:00:48Z</time></trkpt><trkpt lat="44.70094908794245" lon="8.063137545035769"><ele>169.8</ele><time>2026-04-11T14:00:50Z</time></trkpt><trkpt lat="44.700840242953085" lon="8.063069273798801"><ele>169.6</ele><time>2026-04-11T14:00:52Z</time></trkpt><trkpt lat="44.70074076679686" lon="8.062990684341917"><ele>169.39999999999998</ele><time>2026-04-11T14:00:54Z</time></trkpt><trkpt lat="44.70066975142651" lon="8.06287414550316"><ele>169.2</ele><time>2026-04-11T14:00:56Z</time></trkpt><trkpt lat="44.70062696223264" lon="8.062740707075505"><ele>169.0</ele><time>2026-04-11T14:00:58Z</time></trkpt><trkpt lat="44.700610849409735" lon="8.062607894608742"><ele>169.0</ele><time>2026-04-11T14:01:00Z</time></trkpt><trkpt lat="44.70059835369584" lon="8.062468847038838"><ele>169.0</ele><time>2026-04-11T14:01:02Z</time></trkpt><trkpt lat="44.700583372602075" lon="8.062309241222415"><ele>169.0</ele><time>2026-04-11T14:01:05Z</time></trkpt><trkpt lat="44.70056916129094" lon="8.062124942070927"><ele>169.0</ele><time>2026-04-11T14:01:07Z</time></trkpt><trkpt lat="44.700561340980386" lon="8.061969449545602"><ele>169.79999999999998</ele><time>2026-04-11T14:01:09Z</time></trkpt><trkpt lat="44.70054687043668" lon="8.06181019459497"><ele>170.6</ele><time>2026-04-11T14:01:11Z</time></trkpt><trkpt lat="44.70054077134246" lon="8.061649665721275"><ele>171.4</ele><time>2026-04-11T14:01:13Z</time></trkpt><trkpt lat="44.70052611138135" lon="8.061495729617036"><ele>172.2</ele><time>2026-04-11T14:01:15Z</time></trkpt><trkpt lat="44.70051368956891" lon="8.061355505263952"><ele>173.0</ele><time>2026-04-11T14:01:17Z</time></trkpt><trkpt lat="44.7004880261432" lon="8.061221879770931"><ele>174.16666666666666</ele><time>2026-04-11T14:01:19Z</time></trkpt><trkpt lat="44.70045517045576" lon="8.061103344253857"><ele>175.33333333333331</ele><time>2026-04-11T14:01:21Z</time></trkpt><trkpt lat="44.700427630306265" lon="8.060993153911609"><ele>176.5</ele><time>2026-04-11T14:01:23Z</time></trkpt><trkpt lat="44.700393551723224" lon="8.060885873079274"><ele>177.66666666666666</ele><time>2026-04-11T14:01:25Z</time></trkpt><trkpt lat="44.700361484285224" lon="8.0608031819714"><ele>178.83333333333334</ele><time>2026-04-11T14:01:27Z</time></trkpt><trkpt lat="44.7003251776098" lon="8.06071692862679"><ele>180.0</ele><time>2026-04-11T14:01:30Z</time></trkpt><trkpt lat="44.70028619747388" lon="8.060615549723684"><ele>180.2</ele><time>2026-04-11T14:01:33Z</time></trkpt><trkpt lat="44.700246025853254" lon="8.060525232680146"><ele>180.4</ele><time>2026-04-11T14:01:35Z</time></trkpt><trkpt lat="44.70019736009655" lon="8.060445321271597"><ele>180.60000000000002</ele><time>2026-04-11T14:01:38Z</time></trkpt><trkpt lat="44.700128549923875" lon="8.060288096104374"><ele>180.8</ele><time>2026-04-11T14:01:40Z</time></trkpt><trkpt lat="44.70006413486306" lon="8.060156288190457"><ele>181.0</ele><time>2026-04-11T14:01:42Z</time></trkpt><trkpt lat="44.7000104302519" lon="8.06004632265598"><ele>181.0</ele><time>2026-04-11T14:01:44Z</time></trkpt><trkpt lat="44.69996377921307" lon="8.05995384251604"><ele>181.0</ele><time>2026-04-11T14:01:46Z</time></trkpt><trkpt lat="44.69991913077257" lon="8.05986625656561"><ele>181.0</ele><time>2026-04-11T14:01:48Z</time></trkpt><trkpt lat="44.69987927570175" lon="8.059782317378739"><ele>181.0</ele><time>2026-04-11T14:01:50Z</time></trkpt><trkpt lat="44.69983286575409" lon="8.059695680165166"><ele>181.0</ele><time>2026-04-11T14:01:52Z</time></trkpt><trkpt lat="44.69979300460955" lon="8.059617894118862"><ele>181.0</ele><time>2026-04-11T14:01:54Z</time></trkpt><trkpt lat="44.699750409183274" lon="8.05953423223652"><ele>181.0</ele><time>2026-04-11T14:01:56Z</time></trkpt><trkpt lat="44.69971075273218" lon="8.059450931124365"><ele>181.85714285714286</ele><time>2026-04-11T14:01:58Z</time></trkpt><trkpt lat="44.69966999822605" lon="8.05936558481976"><ele>182.71428571428572</ele><time>2026-04-11T14:02:00Z</time></trkpt><trkpt lat="44.699627741118384" lon="8.059279936046341"><ele>183.57142857142856</ele><time>2026-04-11T14:02:02Z</time></trkpt><trkpt lat="44.69958968899597" lon="8.059201646315241"><ele>184.42857142857144</ele><time>2026-04-11T14:02:04Z</time></trkpt><trkpt lat="44.699548059125526" lon="8.059117558949513"><ele>185.2857142857143</ele><time>2026-04-11T14:02:06Z</time></trkpt><trkpt lat="44.6995102277423" lon="8.05904389733678"><ele>186.14285714285714</ele><time>2026-04-11T14:02:07.999Z</time></trkpt><trkpt lat="44.69946773038124" lon="8.058953890620488"><ele>187.0</ele><time>2026-04-11T14:02:09.999Z</time></trkpt><trkpt lat="44.69942683832069" lon="8.058870942668518"><ele>187.0</ele><time>2026-04-11T14:02:11.999Z</time></trkpt><trkpt lat="44.69938468818828" lon="8.05879002406026"><ele>187.0</ele><time>2026-04-11T14:02:13.999Z</time></trkpt><trkpt lat="44.69933189521988" lon="8.058678312300046"><ele>187.0</ele><time>2026-04-11T14:02:17.999Z</time></trkpt><trkpt lat="44.69929711277835" lon="8.05860201897707"><ele>187.0</ele><time>2026-04-11T14:02:19.999Z</time></trkpt><trkpt lat="44.699262184091786" lon="8.058521859994045"><ele>187.0</ele><time>2026-04-11T14:02:21.999Z</time></trkpt><trkpt lat="44.699206562131835" lon="8.058407269359032"><ele>187.0</ele><time>2026-04-11T14:02:24.999Z</time></trkpt><trkpt lat="44.699136535722175" lon="8.058288240491471"><ele>188.0</ele><time>2026-04-11T14:02:27.999Z</time></trkpt><trkpt lat="44.69908695137459" lon="8.05814321914732"><ele>189.0</ele><time>2026-04-11T14:02:30.999Z</time></trkpt><trkpt lat="44.6990293069433" lon="8.058034936970213"><ele>190.0</ele><time>2026-04-11T14:02:33.999Z</time></trkpt><trkpt lat="44.69898445269208" lon="8.057906980112351"><ele>191.0</ele><time>2026-04-11T14:02:36Z</time></trkpt><trkpt lat="44.698924508540024" lon="8.057776716677974"><ele>192.0</ele><time>2026-04-11T14:02:38Z</time></trkpt><trkpt lat="44.698865625098584" lon="8.05767344231527"><ele>192.0</ele><time>2026-04-11T14:02:40Z</time></trkpt><trkpt lat="44.69880981434329" lon="8.057578716906335"><ele>192.0</ele><time>2026-04-11T14:02:42Z</time></trkpt><trkpt lat="44.69875930431977" lon="8.057488324380781"><ele>192.0</ele><time>2026-04-11T14:02:44Z</time></trkpt><trkpt lat="44.69870994050343" lon="8.057401411976693"><ele>192.0</ele><time>2026-04-11T14:02:46Z</time></trkpt><trkpt lat="44.698668190065504" lon="8.05731691620841"><ele>192.0</ele><time>2026-04-11T14:02:48Z</time></trkpt><trkpt lat="44.69862700975187" lon="8.057230327835443"><ele>192.0</ele><time>2026-04-11T14:02:50Z</time></trkpt><trkpt lat="44.69858749419132" lon="8.057150415935475"><ele>191.85714285714283</ele><time>2026-04-11T14:02:52Z</time></trkpt><trkpt lat="44.69854758176499" lon="8.057072925538828"><ele>191.71428571428572</ele><time>2026-04-11T14:02:54Z</time></trkpt><trkpt lat="44.69850629054191" lon="8.05699147466278"><ele>191.57142857142856</ele><time>2026-04-11T14:02:56Z</time></trkpt><trkpt lat="44.69846586756837" lon="8.056910144696152"><ele>191.42857142857142</ele><time>2026-04-11T14:02:58Z</time></trkpt><trkpt lat="44.69842983620628" lon="8.05682693361427"><ele>191.28571428571428</ele><time>2026-04-11T14:03:00Z</time></trkpt><trkpt lat="44.6983931713165" lon="8.056750073264396"><ele>191.14285714285714</ele><time>2026-04-11T14:03:02Z</time></trkpt><trkpt lat="44.69835893657883" lon="8.05667035724659"><ele>191.0</ele><time>2026-04-11T14:03:04Z</time></trkpt><trkpt lat="44.69832875088248" lon="8.056591149070693"><ele>191.83333333333331</ele><time>2026-04-11T14:03:06Z</time></trkpt><trkpt lat="44.69828884970465" lon="8.056494251398236"><ele>192.66666666666666</ele><time>2026-04-11T14:03:09Z</time></trkpt><trkpt lat="44.69825820459148" lon="8.056412677762205"><ele>193.5</ele><time>2026-04-11T14:03:12Z</time></trkpt><trkpt lat="44.69822282261766" lon="8.056311218241992"><ele>194.33333333333331</ele><time>2026-04-11T14:03:15Z</time></trkpt><trkpt lat="44.69817333491312" lon="8.056182566990934"><ele>195.16666666666666</ele><time>2026-04-11T14:03:18Z</time></trkpt><trkpt lat="44.698134369347905" lon="8.056068264734437"><ele>196.0</ele><time>2026-04-11T14:03:21Z</time></trkpt><trkpt lat="44.69809865822568" lon="8.055963187232624"><ele>195.99999999999997</ele><time>2026-04-11T14:03:24Z</time></trkpt><trkpt lat="44.69805956191228" lon="8.055865236798919"><ele>196.0</ele><time>2026-04-11T14:03:26Z</time></trkpt><trkpt lat="44.6980124358988" lon="8.05574524968165"><ele>196.0</ele><time>2026-04-11T14:03:29Z</time></trkpt><trkpt lat="44.697968646199115" lon="8.055630049870707"><ele>196.0</ele><time>2026-04-11T14:03:31Z</time></trkpt><trkpt lat="44.69792697978529" lon="8.05553605351992"><ele>195.99999999999997</ele><time>2026-04-11T14:03:33Z</time></trkpt><trkpt lat="44.69789406507566" lon="8.055450616396294"><ele>196.0</ele><time>2026-04-11T14:03:35Z</time></trkpt><trkpt lat="44.69786089214842" lon="8.055367834060373"><ele>195.99999999999997</ele><time>2026-04-11T14:03:37Z</time></trkpt><trkpt lat="44.697827051699704" lon="8.055292698846454"><ele>196.0</ele><time>2026-04-11T14:03:39Z</time></trkpt><trkpt lat="44.69779109022755" lon="8.055174921101123"><ele>196.0</ele><time>2026-04-11T14:03:42Z</time></trkpt><trkpt lat="44.69775777416823" lon="8.055099771002931"><ele>196.0</ele><time>2026-04-11T14:03:44Z</time></trkpt><trkpt lat="44.697716749635305" lon="8.054984072452775"><ele>195.99999999999997</ele><time>2026-04-11T14:03:47Z</time></trkpt><trkpt lat="44.697667720893854" lon="8.054878019227532"><ele>196.0</ele><time>2026-04-11T14:03:50Z</time></trkpt><trkpt lat="44.69761852752803" lon="8.054766405509787"><ele>196.99999999999997</ele><time>2026-04-11T14:03:53Z</time></trkpt><trkpt lat="44.69756495800867" lon="8.054683185440512"><ele>198.0</ele><time>2026-04-11T14:03:57Z</time></trkpt><trkpt lat="44.69749730002495" lon="8.054596559180926"><ele>199.0</ele><time>2026-04-11T14:04:01Z</time></trkpt><trkpt lat="44.697447096241255" lon="8.05453943905537"><ele>200.0</ele><time>2026-04-11T14:04:04Z</time></trkpt><trkpt lat="44.697390583874444" lon="8.054477398952038"><ele>200.99999999999997</ele><time>2026-04-11T14:04:06.999Z</time></trkpt><trkpt lat="44.697312646075744" lon="8.054440067172838"><ele>202.0</ele><time>2026-04-11T14:04:08.999Z</time></trkpt><trkpt lat="44.69723666799207" lon="8.054398797826973"><ele>201.99999999999997</ele><time>2026-04-11T14:04:11.999Z</time></trkpt><trkpt lat="44.69713945827032" lon="8.054364908701507"><ele>202.0</ele><time>2026-04-11T14:04:14.999Z</time></trkpt><trkpt lat="44.69706606504039" lon="8.054333600103599"><ele>202.0</ele><time>2026-04-11T14:04:17.999Z</time></trkpt><trkpt lat="44.696971422920214" lon="8.054297703033388"><ele>202.0</ele><time>2026-04-11T14:04:20.999Z</time></trkpt><trkpt lat="44.69689273302314" lon="8.054261655870834"><ele>201.99999999999997</ele><time>2026-04-11T14:04:22.999Z</time></trkpt><trkpt lat="44.69681884567433" lon="8.054245063686967"><ele>202.0</ele><time>2026-04-11T14:04:24.999Z</time></trkpt><trkpt lat="44.69674275688631" lon="8.054235483765973"><ele>202.33333333333331</ele><time>2026-04-11T14:04:26.999Z</time></trkpt><trkpt lat="44.69667648172242" lon="8.054215403776462"><ele>202.66666666666666</ele><time>2026-04-11T14:04:28.999Z</time></trkpt><trkpt lat="44.69658923655393" lon="8.054203051869708"><ele>203.0</ele><time>2026-04-11T14:04:31.999Z</time></trkpt><trkpt lat="44.696526591194825" lon="8.054190368927205"><ele>203.33333333333331</ele><time>2026-04-11T14:04:33.999Z</time></trkpt><trkpt lat="44.696454791608204" lon="8.054174119876581"><ele>203.66666666666666</ele><time>2026-04-11T14:04:35.999Z</time></trkpt><trkpt lat="44.69637540229979" lon="8.054161635274825"><ele>204.0</ele><time>2026-04-11T14:04:38.999Z</time></trkpt><trkpt lat="44.696293612824576" lon="8.054144238897244"><ele>204.0</ele><time>2026-04-11T14:04:42Z</time></trkpt><trkpt lat="44.69622266721934" lon="8.054125950795864"><ele>204.0</ele><time>2026-04-11T14:04:45Z</time></trkpt><trkpt lat="44.6961607022772" lon="8.054106037142931"><ele>204.0</ele><time>2026-04-11T14:04:48Z</time></trkpt><trkpt lat="44.69609073605278" lon="8.054093420265529"><ele>204.0</ele><time>2026-04-11T14:04:51Z</time></trkpt><trkpt lat="44.696021575207176" lon="8.054066739679866"><ele>204.0</ele><time>2026-04-11T14:04:54Z</time></trkpt><trkpt lat="44.69595329957073" lon="8.054048565149976"><ele>204.0</ele><time>2026-04-11T14:04:57Z</time></trkpt><trkpt lat="44.6958798182973" lon="8.054026837488818"><ele>204.0</ele><time>2026-04-11T14:05:00Z</time></trkpt><trkpt lat="44.69581183054341" lon="8.054000539550502"><ele>204.14285714285714</ele><time>2026-04-11T14:05:02Z</time></trkpt><trkpt lat="44.69574082572496" lon="8.05396996498653"><ele>204.28571428571428</ele><time>2026-04-11T14:05:05Z</time></trkpt><trkpt lat="44.695664362909284" lon="8.05393498008069"><ele>204.42857142857144</ele><time>2026-04-11T14:05:08Z</time></trkpt><trkpt lat="44.69559249175757" lon="8.053888341551263"><ele>204.57142857142856</ele><time>2026-04-11T14:05:10Z</time></trkpt><trkpt lat="44.69552596100679" lon="8.05384849272635"><ele>204.7142857142857</ele><time>2026-04-11T14:05:13Z</time></trkpt><trkpt lat="44.695467264540014" lon="8.05380603584339"><ele>204.85714285714286</ele><time>2026-04-11T14:05:15Z</time></trkpt><trkpt lat="44.69540770365191" lon="8.05376896971185"><ele>205.0</ele><time>2026-04-11T14:05:17Z</time></trkpt><trkpt lat="44.69534560020341" lon="8.053731682517894"><ele>204.99999999999997</ele><time>2026-04-11T14:05:20Z</time></trkpt><trkpt lat="44.69525426742205" lon="8.053670552548395"><ele>205.0</ele><time>2026-04-11T14:05:23Z</time></trkpt><trkpt lat="44.69518934082998" lon="8.053619832089398"><ele>205.0</ele><time>2026-04-11T14:05:25Z</time></trkpt><trkpt lat="44.695133308988545" lon="8.053578665815841"><ele>205.0</ele><time>2026-04-11T14:05:28Z</time></trkpt><trkpt lat="44.695036668206505" lon="8.053509264677482"><ele>204.99999999999997</ele><time>2026-04-11T14:05:31Z</time></trkpt><trkpt lat="44.694962804430354" lon="8.053468216920278"><ele>205.0</ele><time>2026-04-11T14:05:34Z</time></trkpt><trkpt lat="44.69488521756882" lon="8.053410402278839"><ele>205.83333333333331</ele><time>2026-04-11T14:05:37Z</time></trkpt><trkpt lat="44.694822098894726" lon="8.05337203933913"><ele>206.66666666666666</ele><time>2026-04-11T14:05:39Z</time></trkpt><trkpt lat="44.69476022992059" lon="8.053322351596359"><ele>207.5</ele><time>2026-04-11T14:05:41Z</time></trkpt><trkpt lat="44.694676045551766" lon="8.053258829539873"><ele>208.33333333333331</ele><time>2026-04-11T14:05:44Z</time></trkpt><trkpt lat="44.69459520992754" lon="8.05319713476802"><ele>209.16666666666666</ele><time>2026-04-11T14:05:47Z</time></trkpt><trkpt lat="44.69451527507038" lon="8.053142813843927"><ele>210.0</ele><time>2026-04-11T14:05:50Z</time></trkpt><trkpt lat="44.69443334184472" lon="8.053088364537627"><ele>211.16666666666666</ele><time>2026-04-11T14:05:53Z</time></trkpt><trkpt lat="44.6943572345193" lon="8.053029498880626"><ele>212.33333333333331</ele><time>2026-04-11T14:05:56Z</time></trkpt><trkpt lat="44.69428226543347" lon="8.052988700972824"><ele>213.5</ele><time>2026-04-11T14:05:59Z</time></trkpt><trkpt lat="44.69420390337864" lon="8.052941373453512"><ele>214.66666666666666</ele><time>2026-04-11T14:06:02Z</time></trkpt><trkpt lat="44.694121620040875" lon="8.052902439116107"><ele>215.83333333333331</ele><time>2026-04-11T14:06:05Z</time></trkpt><trkpt lat="44.69404233471539" lon="8.052882596925869"><ele>217.0</ele><time>2026-04-11T14:06:08Z</time></trkpt><trkpt lat="44.69395950879664" lon="8.052858520886582"><ele>216.99999999999997</ele><time>2026-04-11T14:06:11Z</time></trkpt><trkpt lat="44.69387266767115" lon="8.052843545330955"><ele>217.0</ele><time>2026-04-11T14:06:13.999Z</time></trkpt><trkpt lat="44.693789749836846" lon="8.052835781213682"><ele>217.0</ele><time>2026-04-11T14:06:16.999Z</time></trkpt><trkpt lat="44.69370280311969" lon="8.052823389460832"><ele>217.0</ele><time>2026-04-11T14:06:19.999Z</time></trkpt><trkpt lat="44.69363258872151" lon="8.05281642639226"><ele>216.99999999999997</ele><time>2026-04-11T14:06:23.999Z</time></trkpt><trkpt lat="44.69356528327782" lon="8.052812415569996"><ele>217.0</ele><time>2026-04-11T14:06:26.999Z</time></trkpt><trkpt lat="44.69346157044571" lon="8.052812129181095"><ele>217.83333333333331</ele><time>2026-04-11T14:06:30.999Z</time></trkpt><trkpt lat="44.693391796871225" lon="8.052801734760108"><ele>218.66666666666666</ele><time>2026-04-11T14:06:32.999Z</time></trkpt><trkpt lat="44.69331728327218" lon="8.052794996408347"><ele>219.5</ele><time>2026-04-11T14:06:35.999Z</time></trkpt><trkpt lat="44.69322372976455" lon="8.052782114218866"><ele>220.33333333333331</ele><time>2026-04-11T14:06:38.999Z</time></trkpt><trkpt lat="44.693137428289795" lon="8.05277410996479"><ele>221.16666666666666</ele><time>2026-04-11T14:06:40.999Z</time></trkpt><trkpt lat="44.69306612449752" lon="8.052768355452374"><ele>222.0</ele><time>2026-04-11T14:06:43.999Z</time></trkpt><trkpt lat="44.69299702833054" lon="8.052764451379405"><ele>222.0</ele><time>2026-04-11T14:06:45.999Z</time></trkpt><trkpt lat="44.69291610062782" lon="8.052753478607904"><ele>222.0</ele><time>2026-04-11T14:06:49Z</time></trkpt><trkpt lat="44.692851152906265" lon="8.052743863431086"><ele>222.0</ele><time>2026-04-11T14:06:51Z</time></trkpt><trkpt lat="44.69276962466373" lon="8.052737271258769"><ele>222.0</ele><time>2026-04-11T14:06:54Z</time></trkpt><trkpt lat="44.692703214537296" lon="8.052727632633898"><ele>222.0</ele><time>2026-04-11T14:06:56Z</time></trkpt><trkpt lat="44.692617410167664" lon="8.052711486302615"><ele>222.0</ele><time>2026-04-11T14:06:59Z</time></trkpt><trkpt lat="44.69255568995376" lon="8.052692223675797"><ele>222.0</ele><time>2026-04-11T14:07:01Z</time></trkpt><trkpt lat="44.69250791999469" lon="8.05263454447225"><ele>222.66666666666666</ele><time>2026-04-11T14:07:03Z</time></trkpt><trkpt lat="44.69243089614649" lon="8.052588232843487"><ele>223.33333333333331</ele><time>2026-04-11T14:07:06Z</time></trkpt><trkpt lat="44.692365023466024" lon="8.05250425464675"><ele>224.0</ele><time>2026-04-11T14:07:09Z</time></trkpt><trkpt lat="44.69232962565611" lon="8.052401979481854"><ele>224.66666666666666</ele><time>2026-04-11T14:07:12Z</time></trkpt><trkpt lat="44.69231253156977" lon="8.052311242354493"><ele>225.33333333333331</ele><time>2026-04-11T14:07:14Z</time></trkpt><trkpt lat="44.69230291699892" lon="8.052216969093282"><ele>226.0</ele><time>2026-04-11T14:07:16Z</time></trkpt><trkpt lat="44.69231050699554" lon="8.052098837077647"><ele>227.33333333333331</ele><time>2026-04-11T14:07:19Z</time></trkpt><trkpt lat="44.692331176405894" lon="8.052013618299451"><ele>228.66666666666666</ele><time>2026-04-11T14:07:21Z</time></trkpt><trkpt lat="44.69237472760466" lon="8.051906701062093"><ele>230.0</ele><time>2026-04-11T14:07:24Z</time></trkpt><trkpt lat="44.69243821329826" lon="8.051821869050002"><ele>231.33333333333331</ele><time>2026-04-11T14:07:27Z</time></trkpt><trkpt lat="44.69249103206788" lon="8.051772768407234"><ele>232.66666666666666</ele><time>2026-04-11T14:07:29Z</time></trkpt><trkpt lat="44.692568695488745" lon="8.051709093407275"><ele>234.0</ele><time>2026-04-11T14:07:32Z</time></trkpt><trkpt lat="44.692633140980504" lon="8.051657809322618"><ele>234.5</ele><time>2026-04-11T14:07:34Z</time></trkpt><trkpt lat="44.692703306757615" lon="8.05161616798647"><ele>235.0</ele><time>2026-04-11T14:07:37Z</time></trkpt><trkpt lat="44.69276195019918" lon="8.051570970664795"><ele>235.5</ele><time>2026-04-11T14:07:39Z</time></trkpt><trkpt lat="44.69284068168616" lon="8.051518190236216"><ele>236.0</ele><time>2026-04-11T14:07:42Z</time></trkpt><trkpt lat="44.692901791290595" lon="8.05146512110961"><ele>236.5</ele><time>2026-04-11T14:07:45Z</time></trkpt><trkpt lat="44.69298163558626" lon="8.051417404765028"><ele>237.0</ele><time>2026-04-11T14:07:48Z</time></trkpt><trkpt lat="44.69303532401178" lon="8.051368791144007"><ele>237.0</ele><time>2026-04-11T14:07:50Z</time></trkpt><trkpt lat="44.69310598522728" lon="8.051322043888147"><ele>237.0</ele><time>2026-04-11T14:07:53Z</time></trkpt><trkpt lat="44.69318315423068" lon="8.051246896456934"><ele>237.0</ele><time>2026-04-11T14:07:56Z</time></trkpt><trkpt lat="44.69323550630892" lon="8.051166441338697"><ele>237.0</ele><time>2026-04-11T14:07:59Z</time></trkpt><trkpt lat="44.693295232330264" lon="8.051080632419922"><ele>237.0</ele><time>2026-04-11T14:08:02Z</time></trkpt><trkpt lat="44.69335516183837" lon="8.050993898330226"><ele>237.0</ele><time>2026-04-11T14:08:05Z</time></trkpt><trkpt lat="44.69341558539351" lon="8.050896247821195"><ele>237.0</ele><time>2026-04-11T14:08:08Z</time></trkpt><trkpt lat="44.693465431793776" lon="8.050801223253815"><ele>237.0</ele><time>2026-04-11T14:08:11Z</time></trkpt><trkpt lat="44.69351718288901" lon="8.050714311961517"><ele>237.0</ele><time>2026-04-11T14:08:14Z</time></trkpt><trkpt lat="44.69357466255839" lon="8.050619961607822"><ele>237.0</ele><time>2026-04-11T14:08:17Z</time></trkpt><trkpt lat="44.693638872165856" lon="8.050510691531684"><ele>237.0</ele><time>2026-04-11T14:08:19.999Z</time></trkpt><trkpt lat="44.693691913574746" lon="8.05045258819939"><ele>237.0</ele><time>2026-04-11T14:08:22.999Z</time></trkpt><trkpt lat="44.69374528035724" lon="8.050379088877508"><ele>238.0</ele><time>2026-04-11T14:08:25.999Z</time></trkpt><trkpt lat="44.69381157490251" lon="8.050298970454588"><ele>239.0</ele><time>2026-04-11T14:08:28.999Z</time></trkpt><trkpt lat="44.693864986769164" lon="8.05023527702274"><ele>240.0</ele><time>2026-04-11T14:08:31.999Z</time></trkpt><trkpt lat="44.69391986315904" lon="8.050155793011426"><ele>241.0</ele><time>2026-04-11T14:08:34.999Z</time></trkpt><trkpt lat="44.693969584955205" lon="8.050084030347119"><ele>242.0</ele><time>2026-04-11T14:08:37.999Z</time></trkpt><trkpt lat="44.694021661598896" lon="8.05000215161368"><ele>243.0</ele><time>2026-04-11T14:08:40.999Z</time></trkpt><trkpt lat="44.6940652132972" lon="8.049917091256516"><ele>243.33333333333334</ele><time>2026-04-11T14:08:43.999Z</time></trkpt><trkpt lat="44.694112109512" lon="8.049808582110284"><ele>243.66666666666669</ele><time>2026-04-11T14:08:46.999Z</time></trkpt><trkpt lat="44.69414136779825" lon="8.049720525020186"><ele>244.0</ele><time>2026-04-11T14:08:49.999Z</time></trkpt><trkpt lat="44.694166665930325" lon="8.049638609655887"><ele>244.33333333333334</ele><time>2026-04-11T14:08:51.999Z</time></trkpt><trkpt lat="44.69418658491194" lon="8.04950377611569"><ele>244.66666666666669</ele><time>2026-04-11T14:08:55Z</time></trkpt><trkpt lat="44.69422238452296" lon="8.049421192543639"><ele>245.0</ele><time>2026-04-11T14:08:57Z</time></trkpt><trkpt lat="44.69425050888852" lon="8.04931759854306"><ele>245.0</ele><time>2026-04-11T14:08:59Z</time></trkpt><trkpt lat="44.69429479892927" lon="8.049213199040231"><ele>245.0</ele><time>2026-04-11T14:09:01Z</time></trkpt><trkpt lat="44.694343898953996" lon="8.049092804218706"><ele>245.0</ele><time>2026-04-11T14:09:03Z</time></trkpt><trkpt lat="44.69441767787067" lon="8.04897168655271"><ele>245.0</ele><time>2026-04-11T14:09:05Z</time></trkpt><trkpt lat="44.694528356614164" lon="8.048884851394915"><ele>245.0</ele><time>2026-04-11T14:09:07Z</time></trkpt><trkpt lat="44.6945786122095" lon="8.04881563108611"><ele>243.57142857142856</ele><time>2026-04-11T14:09:08Z</time></trkpt><trkpt lat="44.69464123988351" lon="8.048768375006055"><ele>242.14285714285714</ele><time>2026-04-11T14:09:09Z</time></trkpt><trkpt lat="44.69470048186639" lon="8.04872531716993"><ele>240.71428571428572</ele><time>2026-04-11T14:09:10Z</time></trkpt><trkpt lat="44.69476218283674" lon="8.048675883610121"><ele>239.28571428571428</ele><time>2026-04-11T14:09:11Z</time></trkpt><trkpt lat="44.694827743756186" lon="8.048628907854331"><ele>237.85714285714283</ele><time>2026-04-11T14:09:12Z</time></trkpt><trkpt lat="44.69489380467903" lon="8.048581142658888"><ele>236.42857142857142</ele><time>2026-04-11T14:09:13Z</time></trkpt><trkpt lat="44.694956246254435" lon="8.048525011142571"><ele>235.0</ele><time>2026-04-11T14:09:14Z</time></trkpt><trkpt lat="44.69501970885316" lon="8.048465027560706"><ele>234.99999999999997</ele><time>2026-04-11T14:09:15Z</time></trkpt><trkpt lat="44.69509230973248" lon="8.048409075048884"><ele>235.0</ele><time>2026-04-11T14:09:16Z</time></trkpt><trkpt lat="44.69516312531618" lon="8.04835221299527"><ele>235.0</ele><time>2026-04-11T14:09:17Z</time></trkpt><trkpt lat="44.69523693837618" lon="8.04828697639249"><ele>235.0</ele><time>2026-04-11T14:09:18Z</time></trkpt><trkpt lat="44.69531184886285" lon="8.04823509448757"><ele>234.99999999999997</ele><time>2026-04-11T14:09:19Z</time></trkpt><trkpt lat="44.6953844111039" lon="8.048162952827672"><ele>235.0</ele><time>2026-04-11T14:09:20Z</time></trkpt><trkpt lat="44.69545845453131" lon="8.048085860163198"><ele>233.49999999999997</ele><time>2026-04-11T14:09:21Z</time></trkpt><trkpt lat="44.695527432188904" lon="8.04799014844321"><ele>232.0</ele><time>2026-04-11T14:09:22Z</time></trkpt><trkpt lat="44.6955971433086" lon="8.047913669735724"><ele>230.5</ele><time>2026-04-11T14:09:23Z</time></trkpt><trkpt lat="44.69566482709213" lon="8.04782729831493"><ele>229.0</ele><time>2026-04-11T14:09:24Z</time></trkpt><trkpt lat="44.695731116720495" lon="8.047748407109177"><ele>227.49999999999997</ele><time>2026-04-11T14:09:25Z</time></trkpt><trkpt lat="44.69579584720916" lon="8.0476689214512"><ele>226.0</ele><time>2026-04-11T14:09:26Z</time></trkpt><trkpt lat="44.69586724911933" lon="8.04760918130089"><ele>226.0</ele><time>2026-04-11T14:09:27Z</time></trkpt><trkpt lat="44.695931047193845" lon="8.04752960201236"><ele>226.00000000000003</ele><time>2026-04-11T14:09:28Z</time></trkpt><trkpt lat="44.695999939986955" lon="8.047447637764082"><ele>226.00000000000003</ele><time>2026-04-11T14:09:29Z</time></trkpt><trkpt lat="44.69606290579298" lon="8.047351189900727"><ele>226.0</ele><time>2026-04-11T14:09:30Z</time></trkpt><trkpt lat="44.696138053403814" lon="8.04727923541278"><ele>226.0</ele><time>2026-04-11T14:09:31Z</time></trkpt><trkpt lat="44.69621800173271" lon="8.047212192133461"><ele>224.60000000000002</ele><time>2026-04-11T14:09:32Z</time></trkpt><trkpt lat="44.69629675595221" lon="8.04715080306815"><ele>223.20000000000002</ele><time>2026-04-11T14:09:33Z</time></trkpt><trkpt lat="44.69637775746868" lon="8.047094484123434"><ele>221.79999999999998</ele><time>2026-04-11T14:09:34Z</time></trkpt><trkpt lat="44.69645956975421" lon="8.047030954078352"><ele>220.39999999999998</ele><time>2026-04-11T14:09:35Z</time></trkpt><trkpt lat="44.69654554704784" lon="8.046978971360346"><ele>219.0</ele><time>2026-04-11T14:09:36Z</time></trkpt><trkpt lat="44.696622035561504" lon="8.046909861079786"><ele>219.0</ele><time>2026-04-11T14:09:37Z</time></trkpt><trkpt lat="44.696697111739226" lon="8.046853089434787"><ele>219.0</ele><time>2026-04-11T14:09:38Z</time></trkpt><trkpt lat="44.69677204219175" lon="8.046792132716707"><ele>219.0</ele><time>2026-04-11T14:09:39Z</time></trkpt><trkpt lat="44.69684530895992" lon="8.046733953675606"><ele>219.0</ele><time>2026-04-11T14:09:40Z</time></trkpt><trkpt lat="44.69693016834128" lon="8.04670033973412"><ele>219.0</ele><time>2026-04-11T14:09:41Z</time></trkpt><trkpt lat="44.69700741396514" lon="8.04665325470351"><ele>219.0</ele><time>2026-04-11T14:09:42Z</time></trkpt><trkpt lat="44.69707629968948" lon="8.046599023506964"><ele>217.79999999999998</ele><time>2026-04-11T14:09:43Z</time></trkpt><trkpt lat="44.69716826160805" lon="8.046624756775406"><ele>216.59999999999997</ele><time>2026-04-11T14:09:44Z</time></trkpt><trkpt lat="44.69724739303017" lon="8.046695592625573"><ele>215.4</ele><time>2026-04-11T14:09:45Z</time></trkpt><trkpt lat="44.69730976689996" lon="8.046803791102588"><ele>214.2</ele><time>2026-04-11T14:09:46Z</time></trkpt><trkpt lat="44.69734388518954" lon="8.046941947988353"><ele>213.0</ele><time>2026-04-11T14:09:47Z</time></trkpt><trkpt lat="44.69737991875528" lon="8.047065920857005"><ele>213.0</ele><time>2026-04-11T14:09:48Z</time></trkpt><trkpt lat="44.69743853526847" lon="8.047177425301062"><ele>213.0</ele><time>2026-04-11T14:09:49Z</time></trkpt><trkpt lat="44.69751962658245" lon="8.047261622127268"><ele>213.0</ele><time>2026-04-11T14:09:50Z</time></trkpt><trkpt lat="44.697610532157455" lon="8.0473233607785"><ele>213.0</ele><time>2026-04-11T14:09:51Z</time></trkpt><trkpt lat="44.69771554153466" lon="8.047364060677912"><ele>213.0</ele><time>2026-04-11T14:09:52Z</time></trkpt><trkpt lat="44.697819687393604" lon="8.047352788198015"><ele>212.0</ele><time>2026-04-11T14:09:53Z</time></trkpt><trkpt lat="44.697914189726696" lon="8.047316414446302"><ele>211.0</ele><time>2026-04-11T14:09:54Z</time></trkpt><trkpt lat="44.69801052884448" lon="8.047257235833857"><ele>210.0</ele><time>2026-04-11T14:09:55Z</time></trkpt><trkpt lat="44.69809671000774" lon="8.047186984721021"><ele>209.0</ele><time>2026-04-11T14:09:56Z</time></trkpt><trkpt lat="44.69818125375693" lon="8.047106676188424"><ele>208.0</ele><time>2026-04-11T14:09:57Z</time></trkpt><trkpt lat="44.69826614417735" lon="8.047020064216708"><ele>208.0</ele><time>2026-04-11T14:09:58Z</time></trkpt><trkpt lat="44.698342836844986" lon="8.046937015616908"><ele>208.0</ele><time>2026-04-11T14:09:59Z</time></trkpt><trkpt lat="44.698418814554216" lon="8.04686809063776"><ele>208.0</ele><time>2026-04-11T14:10:00Z</time></trkpt><trkpt lat="44.69850372016205" lon="8.046815951748348"><ele>208.0</ele><time>2026-04-11T14:10:01Z</time></trkpt><trkpt lat="44.69858494129238" lon="8.046754941408775"><ele>208.0</ele><time>2026-04-11T14:10:02Z</time></trkpt><trkpt lat="44.69867113367891" lon="8.046704656392324"><ele>209.4</ele><time>2026-04-11T14:10:03Z</time></trkpt><trkpt lat="44.69876249780408" lon="8.046652682156957"><ele>210.8</ele><time>2026-04-11T14:10:04Z</time></trkpt><trkpt lat="44.6988586632754" lon="8.046639464804892"><ele>212.2</ele><time>2026-04-11T14:10:05Z</time></trkpt><trkpt lat="44.69896175671542" lon="8.046632993668632"><ele>213.6</ele><time>2026-04-11T14:10:06Z</time></trkpt><trkpt lat="44.69905925267701" lon="8.046615941712732"><ele>215.0</ele><time>2026-04-11T14:10:07Z</time></trkpt><trkpt lat="44.69915629135239" lon="8.046583766497559"><ele>211.4</ele><time>2026-04-11T14:10:08Z</time></trkpt><trkpt lat="44.69925226964413" lon="8.046544553269447"><ele>207.8</ele><time>2026-04-11T14:10:09Z</time></trkpt><trkpt lat="44.69933732245768" lon="8.046502964201458"><ele>204.2</ele><time>2026-04-11T14:10:10Z</time></trkpt><trkpt lat="44.69942855995546" lon="8.046453418771721"><ele>200.6</ele><time>2026-04-11T14:10:11Z</time></trkpt><trkpt lat="44.69952132040829" lon="8.04641874687902"><ele>197.0</ele><time>2026-04-11T14:10:12Z</time></trkpt><trkpt lat="44.699618678698776" lon="8.04643491343451"><ele>197.00000000000003</ele><time>2026-04-11T14:10:13Z</time></trkpt><trkpt lat="44.699717145885046" lon="8.046422138208719"><ele>197.0</ele><time>2026-04-11T14:10:14Z</time></trkpt><trkpt lat="44.69981011718272" lon="8.046444399850607"><ele>197.0</ele><time>2026-04-11T14:10:15Z</time></trkpt><trkpt lat="44.69989592895471" lon="8.046447294122997"><ele>197.0</ele><time>2026-04-11T14:10:16Z</time></trkpt><trkpt lat="44.69996977576702" lon="8.046416822214239"><ele>197.00000000000003</ele><time>2026-04-11T14:10:17Z</time></trkpt><trkpt lat="44.700029642632785" lon="8.046349420210996"><ele>197.0</ele><time>2026-04-11T14:10:18Z</time></trkpt><trkpt lat="44.700062939100114" lon="8.046238276511593"><ele>197.0</ele><time>2026-04-11T14:10:19Z</time></trkpt><trkpt lat="44.7000579987929" lon="8.046101184617008"><ele>197.0</ele><time>2026-04-11T14:10:20Z</time></trkpt><trkpt lat="44.70002781076485" lon="8.045974236959959"><ele>197.0</ele><time>2026-04-11T14:10:21Z</time></trkpt><trkpt lat="44.699962054024205" lon="8.045867406624145"><ele>197.0</ele><time>2026-04-11T14:10:22Z</time></trkpt><trkpt lat="44.699875609116226" lon="8.045791360933757"><ele>197.0</ele><time>2026-04-11T14:10:23Z</time></trkpt><trkpt lat="44.69978348021621" lon="8.045729459462775"><ele>194.39999999999998</ele><time>2026-04-11T14:10:24Z</time></trkpt><trkpt lat="44.699690704453644" lon="8.04566772502986"><ele>191.79999999999998</ele><time>2026-04-11T14:10:25Z</time></trkpt><trkpt lat="44.69959922970384" lon="8.045615980196997"><ele>189.2</ele><time>2026-04-11T14:10:26Z</time></trkpt><trkpt lat="44.699506261700996" lon="8.045574924452698"><ele>186.6</ele><time>2026-04-11T14:10:27Z</time></trkpt><trkpt lat="44.69940675821028" lon="8.045550206219994"><ele>184.0</ele><time>2026-04-11T14:10:28Z</time></trkpt><trkpt lat="44.699296622164574" lon="8.04552904262307"><ele>184.0</ele><time>2026-04-11T14:10:29Z</time></trkpt><trkpt lat="44.69920559109012" lon="8.045531013260984"><ele>184.0</ele><time>2026-04-11T14:10:30Z</time></trkpt><trkpt lat="44.6991123279533" lon="8.045545055551235"><ele>184.0</ele><time>2026-04-11T14:10:31Z</time></trkpt><trkpt lat="44.699014856210155" lon="8.045570224298427"><ele>184.0</ele><time>2026-04-11T14:10:32Z</time></trkpt><trkpt lat="44.698918650909654" lon="8.045600042402988"><ele>184.0</ele><time>2026-04-11T14:10:33Z</time></trkpt><trkpt lat="44.69881934632091" lon="8.045622517842748"><ele>184.0</ele><time>2026-04-11T14:10:34Z</time></trkpt><trkpt lat="44.698718895743575" lon="8.045640898488202"><ele>184.0</ele><time>2026-04-11T14:10:35Z</time></trkpt><trkpt lat="44.69862187802635" lon="8.04563968351116"><ele>184.0</ele><time>2026-04-11T14:10:36Z</time></trkpt><trkpt lat="44.69854368549968" lon="8.045562107340773"><ele>184.0</ele><time>2026-04-11T14:10:37Z</time></trkpt><trkpt lat="44.698485181846216" lon="8.04547469120817"><ele>184.0</ele><time>2026-04-11T14:10:38Z</time></trkpt><trkpt lat="44.698456090550174" lon="8.045356055092794"><ele>184.83333333333334</ele><time>2026-04-11T14:10:39Z</time></trkpt><trkpt lat="44.698406182415965" lon="8.045246979884862"><ele>185.66666666666669</ele><time>2026-04-11T14:10:40Z</time></trkpt><trkpt lat="44.69838206764465" lon="8.045124358203694"><ele>186.5</ele><time>2026-04-11T14:10:41Z</time></trkpt><trkpt lat="44.69834945978409" lon="8.045020977488429"><ele>187.33333333333334</ele><time>2026-04-11T14:10:42Z</time></trkpt><trkpt lat="44.69831079083399" lon="8.044925484250939"><ele>188.16666666666666</ele><time>2026-04-11T14:10:43Z</time></trkpt><trkpt lat="44.69826882745977" lon="8.044821684947824"><ele>189.0</ele><time>2026-04-11T14:10:44Z</time></trkpt><trkpt lat="44.69821782454352" lon="8.044727423337866"><ele>187.0</ele><time>2026-04-11T14:10:45Z</time></trkpt><trkpt lat="44.698151517836145" lon="8.044644091016002"><ele>185.0</ele><time>2026-04-11T14:10:46Z</time></trkpt><trkpt lat="44.698069702100454" lon="8.044583548918654"><ele>183.0</ele><time>2026-04-11T14:10:46.999Z</time></trkpt><trkpt lat="44.69797638716664" lon="8.044553589596076"><ele>181.0</ele><time>2026-04-11T14:10:47.999Z</time></trkpt><trkpt lat="44.69787750014812" lon="8.044543174034112"><ele>179.0</ele><time>2026-04-11T14:10:48.999Z</time></trkpt><trkpt lat="44.69777976937795" lon="8.044547677861454"><ele>179.83333333333331</ele><time>2026-04-11T14:10:49.999Z</time></trkpt><trkpt lat="44.697685641450455" lon="8.044568534472392"><ele>180.66666666666666</ele><time>2026-04-11T14:10:50.999Z</time></trkpt><trkpt lat="44.697589287646984" lon="8.044596940533983"><ele>181.5</ele><time>2026-04-11T14:10:51.999Z</time></trkpt><trkpt lat="44.69750323485183" lon="8.04462276832898"><ele>182.33333333333334</ele><time>2026-04-11T14:10:52.999Z</time></trkpt><trkpt lat="44.69741753010101" lon="8.044642342069668"><ele>183.16666666666669</ele><time>2026-04-11T14:10:53.999Z</time></trkpt><trkpt lat="44.69733837700663" lon="8.044642573616686"><ele>184.0</ele><time>2026-04-11T14:10:54.999Z</time></trkpt><trkpt lat="44.697267681742915" lon="8.044604927792854"><ele>184.0</ele><time>2026-04-11T14:10:55.999Z</time></trkpt><trkpt lat="44.697223189201964" lon="8.044501676868146"><ele>184.0</ele><time>2026-04-11T14:10:56.999Z</time></trkpt><trkpt lat="44.697233530180014" lon="8.04436820888688"><ele>184.0</ele><time>2026-04-11T14:10:57.999Z</time></trkpt><trkpt lat="44.697242582487156" lon="8.044251449511792"><ele>184.0</ele><time>2026-04-11T14:10:58.999Z</time></trkpt><trkpt lat="44.69729314413416" lon="8.044136562497943"><ele>184.0</ele><time>2026-04-11T14:11:00Z</time></trkpt><trkpt lat="44.69735459899415" lon="8.044044898322847"><ele>183.0</ele><time>2026-04-11T14:11:01Z</time></trkpt><trkpt lat="44.697431204485" lon="8.043991935977038"><ele>182.0</ele><time>2026-04-11T14:11:02Z</time></trkpt><trkpt lat="44.697497347632655" lon="8.043928686395423"><ele>181.0</ele><time>2026-04-11T14:11:03Z</time></trkpt><trkpt lat="44.697590139244504" lon="8.043908615243586"><ele>180.0</ele><time>2026-04-11T14:11:04Z</time></trkpt><trkpt lat="44.69767805047479" lon="8.04390179784867"><ele>179.0</ele><time>2026-04-11T14:11:05Z</time></trkpt><trkpt lat="44.69776536025882" lon="8.043900236542399"><ele>178.0</ele><time>2026-04-11T14:11:06Z</time></trkpt><trkpt lat="44.69785390932588" lon="8.043891139329697"><ele>177.33333333333334</ele><time>2026-04-11T14:11:07Z</time></trkpt><trkpt lat="44.69793321564457" lon="8.043891318202364"><ele>176.66666666666669</ele><time>2026-04-11T14:11:08Z</time></trkpt><trkpt lat="44.6980010384714" lon="8.043880530195743"><ele>176.0</ele><time>2026-04-11T14:11:09Z</time></trkpt><trkpt lat="44.69807770585284" lon="8.043866525100238"><ele>175.33333333333334</ele><time>2026-04-11T14:11:10Z</time></trkpt><trkpt lat="44.698156984859764" lon="8.043848108730268"><ele>174.66666666666666</ele><time>2026-04-11T14:11:11Z</time></trkpt><trkpt lat="44.69823565010333" lon="8.043836643711515"><ele>174.0</ele><time>2026-04-11T14:11:12Z</time></trkpt><trkpt lat="44.698314331997715" lon="8.043831404193666"><ele>174.0</ele><time>2026-04-11T14:11:13Z</time></trkpt><trkpt lat="44.69839277363467" lon="8.043822361206564"><ele>174.0</ele><time>2026-04-11T14:11:14Z</time></trkpt><trkpt lat="44.698469229809874" lon="8.04381456422976"><ele>174.0</ele><time>2026-04-11T14:11:15Z</time></trkpt><trkpt lat="44.698551050062704" lon="8.043802333417691"><ele>174.0</ele><time>2026-04-11T14:11:16Z</time></trkpt><trkpt lat="44.69863319158836" lon="8.043782707209935"><ele>174.0</ele><time>2026-04-11T14:11:17Z</time></trkpt><trkpt lat="44.69870716074782" lon="8.043752734495945"><ele>174.0</ele><time>2026-04-11T14:11:18Z</time></trkpt><trkpt lat="44.698773580560925" lon="8.04371154029429"><ele>173.42857142857142</ele><time>2026-04-11T14:11:19Z</time></trkpt><trkpt lat="44.69884921732139" lon="8.043675875121714"><ele>172.85714285714286</ele><time>2026-04-11T14:11:20Z</time></trkpt><trkpt lat="44.698916304064966" lon="8.043636494134748"><ele>172.28571428571428</ele><time>2026-04-11T14:11:21Z</time></trkpt><trkpt lat="44.698987015856844" lon="8.043599775160308"><ele>171.71428571428572</ele><time>2026-04-11T14:11:22Z</time></trkpt><trkpt lat="44.69905553588715" lon="8.043560243116067"><ele>171.14285714285714</ele><time>2026-04-11T14:11:23Z</time></trkpt><trkpt lat="44.69911873023077" lon="8.04352778374378"><ele>170.57142857142858</ele><time>2026-04-11T14:11:24Z</time></trkpt><trkpt lat="44.699187577028496" lon="8.043494752868023"><ele>170.0</ele><time>2026-04-11T14:11:25Z</time></trkpt><trkpt lat="44.69926474301076" lon="8.043475840494734"><ele>170.0</ele><time>2026-04-11T14:11:26Z</time></trkpt><trkpt lat="44.69934615538638" lon="8.043464866643607"><ele>170.0</ele><time>2026-04-11T14:11:27Z</time></trkpt><trkpt lat="44.69942157918968" lon="8.043464405372069"><ele>170.0</ele><time>2026-04-11T14:11:28Z</time></trkpt><trkpt lat="44.69949846581601" lon="8.043472561043634"><ele>170.0</ele><time>2026-04-11T14:11:29Z</time></trkpt><trkpt lat="44.69957989536091" lon="8.043479907651877"><ele>170.0</ele><time>2026-04-11T14:11:30Z</time></trkpt><trkpt lat="44.699659832190235" lon="8.043483656974912"><ele>170.0</ele><time>2026-04-11T14:11:31Z</time></trkpt><trkpt lat="44.69974124617949" lon="8.043488073861258"><ele>170.16666666666666</ele><time>2026-04-11T14:11:32Z</time></trkpt><trkpt lat="44.69982503416892" lon="8.043483816605395"><ele>170.33333333333331</ele><time>2026-04-11T14:11:33Z</time></trkpt><trkpt lat="44.69990786042058" lon="8.043469403628924"><ele>170.5</ele><time>2026-04-11T14:11:34Z</time></trkpt><trkpt lat="44.699988745245705" lon="8.043433367648168"><ele>170.66666666666666</ele><time>2026-04-11T14:11:35Z</time></trkpt><trkpt lat="44.70006679908018" lon="8.043388371005001"><ele>170.83333333333334</ele><time>2026-04-11T14:11:36Z</time></trkpt><trkpt lat="44.70013063977697" lon="8.04333406057931"><ele>171.0</ele><time>2026-04-11T14:11:37Z</time></trkpt><trkpt lat="44.70019660471211" lon="8.043281966480807"><ele>170.0</ele><time>2026-04-11T14:11:38Z</time></trkpt><trkpt lat="44.700265196043425" lon="8.04323574310466"><ele>169.0</ele><time>2026-04-11T14:11:39Z</time></trkpt><trkpt lat="44.700323920662974" lon="8.043183314997027"><ele>168.0</ele><time>2026-04-11T14:11:40Z</time></trkpt><trkpt lat="44.700348655817336" lon="8.04306191851257"><ele>167.0</ele><time>2026-04-11T14:11:41Z</time></trkpt><trkpt lat="44.70031542968733" lon="8.042932964410598"><ele>166.0</ele><time>2026-04-11T14:11:42Z</time></trkpt><trkpt lat="44.70029544414634" lon="8.042819123511922"><ele>165.0</ele><time>2026-04-11T14:11:43Z</time></trkpt><trkpt lat="44.70031035691442" lon="8.042711290907807"><ele>165.0</ele><time>2026-04-11T14:11:44Z</time></trkpt><trkpt lat="44.700324936674726" lon="8.042597707698901"><ele>165.0</ele><time>2026-04-11T14:11:45Z</time></trkpt><trkpt lat="44.700340040182255" lon="8.04248004654305"><ele>165.0</ele><time>2026-04-11T14:11:46Z</time></trkpt><trkpt lat="44.700354659856814" lon="8.042366318777129"><ele>165.0</ele><time>2026-04-11T14:11:47Z</time></trkpt><trkpt lat="44.70036825072957" lon="8.042256341158103"><ele>165.0</ele><time>2026-04-11T14:11:48Z</time></trkpt><trkpt lat="44.700381745015314" lon="8.042143286761608"><ele>165.0</ele><time>2026-04-11T14:11:49Z</time></trkpt><trkpt lat="44.70037869382706" lon="8.042030046089458"><ele>164.85714285714286</ele><time>2026-04-11T14:11:50Z</time></trkpt><trkpt lat="44.70039452857437" lon="8.041915890003928"><ele>164.71428571428572</ele><time>2026-04-11T14:11:51Z</time></trkpt><trkpt lat="44.700421887434544" lon="8.041824997077487"><ele>164.57142857142856</ele><time>2026-04-11T14:11:52Z</time></trkpt><trkpt lat="44.70043393737437" lon="8.04172418599444"><ele>164.42857142857144</ele><time>2026-04-11T14:11:53Z</time></trkpt><trkpt lat="44.70044557882254" lon="8.041626792463681"><ele>164.28571428571428</ele><time>2026-04-11T14:11:54Z</time></trkpt><trkpt lat="44.700456186771966" lon="8.041536371658397"><ele>164.14285714285714</ele><time>2026-04-11T14:11:55Z</time></trkpt><trkpt lat="44.70045450171617" lon="8.04144177937956"><ele>164.0</ele><time>2026-04-11T14:11:56Z</time></trkpt><trkpt lat="44.70047051763535" lon="8.041355416832934"><ele>164.0</ele><time>2026-04-11T14:11:57Z</time></trkpt><trkpt lat="44.70049682762664" lon="8.041199218596745"><ele>164.0</ele><time>2026-04-11T14:11:59Z</time></trkpt><trkpt lat="44.70051706339359" lon="8.041043264765989"><ele>164.0</ele><time>2026-04-11T14:12:01Z</time></trkpt><trkpt lat="44.70053542198008" lon="8.040901163680532"><ele>164.0</ele><time>2026-04-11T14:12:03Z</time></trkpt><trkpt lat="44.7005538592884" lon="8.040753319465889"><ele>164.0</ele><time>2026-04-11T14:12:05Z</time></trkpt><trkpt lat="44.70057144486681" lon="8.040612236231473"><ele>164.83333333333331</ele><time>2026-04-11T14:12:07Z</time></trkpt><trkpt lat="44.700590223043285" lon="8.040463076728997"><ele>165.66666666666666</ele><time>2026-04-11T14:12:09Z</time></trkpt><trkpt lat="44.70059362220128" lon="8.040338445938243"><ele>166.5</ele><time>2026-04-11T14:12:11Z</time></trkpt><trkpt lat="44.700611386139784" lon="8.040236365342674"><ele>167.33333333333334</ele><time>2026-04-11T14:12:13Z</time></trkpt><trkpt lat="44.700635093060164" lon="8.040124146584864"><ele>168.16666666666669</ele><time>2026-04-11T14:12:15Z</time></trkpt><trkpt lat="44.70067419975114" lon="8.040019437478565"><ele>169.0</ele><time>2026-04-11T14:12:17Z</time></trkpt><trkpt lat="44.70071095489761" lon="8.039904468844268"><ele>169.5</ele><time>2026-04-11T14:12:19Z</time></trkpt><trkpt lat="44.70075785402455" lon="8.03978653886948"><ele>170.0</ele><time>2026-04-11T14:12:21Z</time></trkpt><trkpt lat="44.70080403954116" lon="8.039681192846999"><ele>170.5</ele><time>2026-04-11T14:12:23Z</time></trkpt><trkpt lat="44.7008604453824" lon="8.039601614456709"><ele>171.0</ele><time>2026-04-11T14:12:25Z</time></trkpt><trkpt lat="44.7008847883333" lon="8.039489394625573"><ele>171.5</ele><time>2026-04-11T14:12:27Z</time></trkpt><trkpt lat="44.700892367375204" lon="8.039390661642067"><ele>172.0</ele><time>2026-04-11T14:12:29Z</time></trkpt><trkpt lat="44.70091598711175" lon="8.039301089756814"><ele>172.00000000000003</ele><time>2026-04-11T14:12:31Z</time></trkpt><trkpt lat="44.70093597045729" lon="8.039215717847098"><ele>172.0</ele><time>2026-04-11T14:12:33Z</time></trkpt><trkpt lat="44.70095801524742" lon="8.039090718993156"><ele>172.0</ele><time>2026-04-11T14:12:36Z</time></trkpt><trkpt lat="44.70097886704664" lon="8.03900188713816"><ele>172.0</ele><time>2026-04-11T14:12:37.999Z</time></trkpt><trkpt lat="44.70100068563688" lon="8.03890621595166"><ele>172.0</ele><time>2026-04-11T14:12:39.999Z</time></trkpt><trkpt lat="44.70102598113272" lon="8.038812530872214"><ele>172.00000000000003</ele><time>2026-04-11T14:12:41.999Z</time></trkpt><trkpt lat="44.7010489577778" lon="8.038716913164638"><ele>172.0</ele><time>2026-04-11T14:12:43.999Z</time></trkpt><trkpt lat="44.701058567442" lon="8.038624053030325"><ele>172.2857142857143</ele><time>2026-04-11T14:12:45.999Z</time></trkpt><trkpt lat="44.70108215621933" lon="8.038532159807428"><ele>172.57142857142858</ele><time>2026-04-11T14:12:47.999Z</time></trkpt><trkpt lat="44.701095579840526" lon="8.038434676814237"><ele>172.85714285714286</ele><time>2026-04-11T14:12:49.999Z</time></trkpt><trkpt lat="44.70111962611508" lon="8.038335216959597"><ele>173.14285714285717</ele><time>2026-04-11T14:12:51.999Z</time></trkpt><trkpt lat="44.70112967973217" lon="8.038214591314617"><ele>173.42857142857144</ele><time>2026-04-11T14:12:54.999Z</time></trkpt><trkpt lat="44.701137519676344" lon="8.038104021460754"><ele>173.71428571428572</ele><time>2026-04-11T14:12:56.999Z</time></trkpt><trkpt lat="44.701142521504345" lon="8.038009220595507"><ele>174.0</ele><time>2026-04-11T14:13:00.999Z</time></trkpt><trkpt lat="44.7011221088686" lon="8.03792038836526"><ele>174.0</ele><time>2026-04-11T14:13:01.999Z</time></trkpt><trkpt lat="44.701119276833104" lon="8.037798520413617"><ele>174.0</ele><time>2026-04-11T14:13:03.999Z</time></trkpt><trkpt lat="44.701131832966304" lon="8.03771083737719"><ele>174.0</ele><time>2026-04-11T14:13:06Z</time></trkpt><trkpt lat="44.70114053347507" lon="8.037598703764017"><ele>174.0</ele><time>2026-04-11T14:13:08Z</time></trkpt><trkpt lat="44.701141157721665" lon="8.037494940280148"><ele>174.0</ele><time>2026-04-11T14:13:10Z</time></trkpt><trkpt lat="44.70114371975155" lon="8.037386929502652"><ele>174.0</ele><time>2026-04-11T14:13:13Z</time></trkpt><trkpt lat="44.70110358966631" lon="8.03731823053323"><ele>174.0</ele><time>2026-04-11T14:13:15Z</time></trkpt><trkpt lat="44.70105786114884" lon="8.037240146160851"><ele>174.5</ele><time>2026-04-11T14:13:17Z</time></trkpt><trkpt lat="44.70101127329736" lon="8.037164806194975"><ele>175.0</ele><time>2026-04-11T14:13:21Z</time></trkpt><trkpt lat="44.700946925157545" lon="8.037117244995255"><ele>175.5</ele><time>2026-04-11T14:13:29Z</time></trkpt><trkpt lat="44.700862347492055" lon="8.037145696110299"><ele>176.0</ele><time>2026-04-11T14:13:33Z</time></trkpt><trkpt lat="44.70079667167436" lon="8.0372003561054"><ele>176.5</ele><time>2026-04-11T14:13:36Z</time></trkpt><trkpt lat="44.70072497864956" lon="8.037262415514988"><ele>177.0</ele><time>2026-04-11T14:13:39Z</time></trkpt><trkpt lat="44.700641034836245" lon="8.037299636749943"><ele>177.0</ele><time>2026-04-11T14:13:42Z</time></trkpt><trkpt lat="44.70057215648453" lon="8.03732400540984"><ele>177.0</ele><time>2026-04-11T14:13:44Z</time></trkpt><trkpt lat="44.700506900380915" lon="8.037342910273086"><ele>177.0</ele><time>2026-04-11T14:13:46Z</time></trkpt><trkpt lat="44.700433873170404" lon="8.037350359922263"><ele>177.0</ele><time>2026-04-11T14:13:48Z</time></trkpt><trkpt lat="44.700364329194436" lon="8.037356270683285"><ele>177.0</ele><time>2026-04-11T14:13:51Z</time></trkpt><trkpt lat="44.700308372690806" lon="8.037401544049334"><ele>177.0</ele><time>2026-04-11T14:13:54Z</time></trkpt><trkpt lat="44.70020756660504" lon="8.037444320001137"><ele>176.83333333333334</ele><time>2026-04-11T14:13:59Z</time></trkpt><trkpt lat="44.70015507135294" lon="8.037496976544382"><ele>176.66666666666666</ele><time>2026-04-11T14:14:01Z</time></trkpt><trkpt lat="44.70007546014041" lon="8.037523300945637"><ele>176.5</ele><time>2026-04-11T14:14:03Z</time></trkpt><trkpt lat="44.700011358049984" lon="8.037553161869143"><ele>176.33333333333331</ele><time>2026-04-11T14:14:05Z</time></trkpt><trkpt lat="44.699927156981644" lon="8.037577009299868"><ele>176.16666666666666</ele><time>2026-04-11T14:14:07Z</time></trkpt><trkpt lat="44.69985355206697" lon="8.037554917133933"><ele>176.0</ele><time>2026-04-11T14:14:09Z</time></trkpt><trkpt lat="44.69972741695871" lon="8.037567274334126"><ele>176.0</ele><time>2026-04-11T14:14:11Z</time></trkpt><trkpt lat="44.69963866630756" lon="8.037551690460761"><ele>176.0</ele><time>2026-04-11T14:14:13Z</time></trkpt><trkpt lat="44.699563664823195" lon="8.037442185306185"><ele>176.0</ele><time>2026-04-11T14:14:15Z</time></trkpt><trkpt lat="44.69956494843233" lon="8.037337466467616"><ele>176.0</ele><time>2026-04-11T14:14:17Z</time></trkpt><trkpt lat="44.699558523588884" lon="8.037242791670835"><ele>176.0</ele><time>2026-04-11T14:14:19Z</time></trkpt><trkpt lat="44.69956742703464" lon="8.037139244141013"><ele>176.0</ele><time>2026-04-11T14:14:21Z</time></trkpt><trkpt lat="44.699580298553784" lon="8.037029080622276"><ele>176.33333333333331</ele><time>2026-04-11T14:14:23Z</time></trkpt><trkpt lat="44.699589604564146" lon="8.036935511411926"><ele>176.66666666666666</ele><time>2026-04-11T14:14:25Z</time></trkpt><trkpt lat="44.699594115588624" lon="8.036828197223619"><ele>177.0</ele><time>2026-04-11T14:14:27Z</time></trkpt><trkpt lat="44.69961539091776" lon="8.036717422816315"><ele>177.33333333333334</ele><time>2026-04-11T14:14:29Z</time></trkpt><trkpt lat="44.69962815498692" lon="8.036606470952103"><ele>177.66666666666669</ele><time>2026-04-11T14:14:31Z</time></trkpt><trkpt lat="44.69965564506344" lon="8.036502812967168"><ele>178.0</ele><time>2026-04-11T14:14:33Z</time></trkpt><trkpt lat="44.69968139803378" lon="8.036406490217146"><ele>178.28571428571428</ele><time>2026-04-11T14:14:35Z</time></trkpt><trkpt lat="44.69968427739222" lon="8.036314959994527"><ele>178.57142857142856</ele><time>2026-04-11T14:14:37Z</time></trkpt><trkpt lat="44.69967366894545" lon="8.036225007875263"><ele>178.85714285714283</ele><time>2026-04-11T14:14:40.999Z</time></trkpt><trkpt lat="44.69961334706193" lon="8.036194197368337"><ele>179.14285714285714</ele><time>2026-04-11T14:14:44.999Z</time></trkpt><trkpt lat="44.69954869962085" lon="8.036201057390516"><ele>179.42857142857144</ele><time>2026-04-11T14:14:46.999Z</time></trkpt><trkpt lat="44.69946650901133" lon="8.036190761579755"><ele>179.7142857142857</ele><time>2026-04-11T14:14:48.999Z</time></trkpt><trkpt lat="44.69937756536753" lon="8.036145549339986"><ele>180.0</ele><time>2026-04-11T14:14:50.999Z</time></trkpt><trkpt lat="44.699316245160695" lon="8.036121464615881"><ele>179.16666666666666</ele><time>2026-04-11T14:14:52.999Z</time></trkpt><trkpt lat="44.699250810233806" lon="8.036072790772096"><ele>178.33333333333334</ele><time>2026-04-11T14:14:54.999Z</time></trkpt><trkpt lat="44.6991748087715" lon="8.036106710538341"><ele>177.5</ele><time>2026-04-11T14:14:56.999Z</time></trkpt><trkpt lat="44.69907527618248" lon="8.036099302339782"><ele>176.66666666666669</ele><time>2026-04-11T14:14:59.999Z</time></trkpt><trkpt lat="44.69899894297746" lon="8.036090591982518"><ele>175.83333333333334</ele><time>2026-04-11T14:15:01.999Z</time></trkpt><trkpt lat="44.698912165502726" lon="8.036057663752905"><ele>175.0</ele><time>2026-04-11T14:15:03.999Z</time></trkpt><trkpt lat="44.698832648053695" lon="8.036042321955042"><ele>175.0</ele><time>2026-04-11T14:15:05.999Z</time></trkpt><trkpt lat="44.69872840257667" lon="8.036021713426457"><ele>175.0</ele><time>2026-04-11T14:15:08.999Z</time></trkpt><trkpt lat="44.698620693608646" lon="8.036002654136109"><ele>175.0</ele><time>2026-04-11T14:15:12Z</time></trkpt><trkpt lat="44.6985227665059" lon="8.035978550117974"><ele>175.0</ele><time>2026-04-11T14:15:15Z</time></trkpt><trkpt lat="44.69844619786799" lon="8.035966320475248"><ele>175.0</ele><time>2026-04-11T14:15:17Z</time></trkpt><trkpt lat="44.698374286518806" lon="8.035995233106016"><ele>174.66666666666669</ele><time>2026-04-11T14:15:21Z</time></trkpt><trkpt lat="44.698372188816506" lon="8.036085154237862"><ele>174.33333333333334</ele><time>2026-04-11T14:15:23Z</time></trkpt><trkpt lat="44.69835370470488" lon="8.036196722686793"><ele>174.0</ele><time>2026-04-11T14:15:26Z</time></trkpt><trkpt lat="44.698305544009926" lon="8.036302761052665"><ele>173.66666666666666</ele><time>2026-04-11T14:15:29Z</time></trkpt><trkpt lat="44.698319797347274" lon="8.036421235215307"><ele>173.33333333333331</ele><time>2026-04-11T14:15:33Z</time></trkpt><trkpt lat="44.698291128928" lon="8.036317380504153"><ele>173.0</ele><time>2026-04-11T14:15:48Z</time></trkpt><trkpt lat="44.698250901405" lon="8.036244621518929"><ele>173.0</ele><time>2026-04-11T14:15:51Z</time></trkpt><trkpt lat="44.6981594311194" lon="8.036258727837177"><ele>173.0</ele><time>2026-04-11T14:15:54Z</time></trkpt><trkpt lat="44.698094837721676" lon="8.036246415708158"><ele>173.0</ele><time>2026-04-11T14:15:56Z</time></trkpt><trkpt lat="44.69799560189045" lon="8.036257338252"><ele>173.0</ele><time>2026-04-11T14:15:58Z</time></trkpt><trkpt lat="44.697933511195735" lon="8.036214927924098"><ele>173.0</ele><time>2026-04-11T14:15:59Z</time></trkpt><trkpt lat="44.69785928095001" lon="8.036208307362655"><ele>173.0</ele><time>2026-04-11T14:16:01Z</time></trkpt><trkpt lat="44.69785899202763" lon="8.036325028263988"><ele>173.0</ele><time>2026-04-11T14:16:03Z</time></trkpt><trkpt lat="44.697813712722784" lon="8.036409391882142"><ele>173.0</ele><time>2026-04-11T14:16:06Z</time></trkpt><trkpt lat="44.69775280291134" lon="8.036449037209549"><ele>173.0</ele><time>2026-04-11T14:16:09Z</time></trkpt><trkpt lat="44.697689513740656" lon="8.036476579909177"><ele>173.0</ele><time>2026-04-11T14:16:12Z</time></trkpt><trkpt lat="44.69762888508528" lon="8.036350745903313"><ele>173.0</ele><time>2026-04-11T14:16:16Z</time></trkpt><trkpt lat="44.69756718445418" lon="8.036283299151773"><ele>173.0</ele><time>2026-04-11T14:16:19Z</time></trkpt><trkpt lat="44.69758160117672" lon="8.036190900711283"><ele>173.16666666666666</ele><time>2026-04-11T14:16:21Z</time></trkpt><trkpt lat="44.697563126848216" lon="8.036085794508503"><ele>173.33333333333331</ele><time>2026-04-11T14:16:24Z</time></trkpt><trkpt lat="44.69756419495891" lon="8.035992330637631"><ele>173.5</ele><time>2026-04-11T14:16:26Z</time></trkpt><trkpt lat="44.697578885140544" lon="8.03590377259499"><ele>173.66666666666666</ele><time>2026-04-11T14:16:28Z</time></trkpt><trkpt lat="44.69752401945416" lon="8.035795400475468"><ele>173.83333333333334</ele><time>2026-04-11T14:16:30Z</time></trkpt><trkpt lat="44.697502404633155" lon="8.035688238409612"><ele>174.0</ele><time>2026-04-11T14:16:32Z</time></trkpt><trkpt lat="44.697429072716645" lon="8.035614588313093"><ele>174.5</ele><time>2026-04-11T14:16:34Z</time></trkpt><trkpt lat="44.6974093253912" lon="8.03551538866892"><ele>175.0</ele><time>2026-04-11T14:16:36Z</time></trkpt><trkpt lat="44.69740651260507" lon="8.035390649500709"><ele>175.5</ele><time>2026-04-11T14:16:38Z</time></trkpt><trkpt lat="44.69738680613158" lon="8.035257446010771"><ele>176.0</ele><time>2026-04-11T14:16:41Z</time></trkpt><trkpt lat="44.69737175820974" lon="8.035159856997673"><ele>176.5</ele><time>2026-04-11T14:16:43Z</time></trkpt><trkpt lat="44.697354020576135" lon="8.035053441490986"><ele>177.0</ele><time>2026-04-11T14:16:45Z</time></trkpt><trkpt lat="44.69735427031138" lon="8.034959250345654"><ele>177.5</ele><time>2026-04-11T14:16:47Z</time></trkpt><trkpt lat="44.69732936893445" lon="8.034831179274708"><ele>178.0</ele><time>2026-04-11T14:16:50Z</time></trkpt><trkpt lat="44.69727112130568" lon="8.034796192706489"><ele>178.5</ele><time>2026-04-11T14:16:52Z</time></trkpt><trkpt lat="44.69720694217058" lon="8.034765001473302"><ele>179.0</ele><time>2026-04-11T14:16:57Z</time></trkpt><trkpt lat="44.69719151191115" lon="8.034665172431822"><ele>179.5</ele><time>2026-04-11T14:17:01Z</time></trkpt><trkpt lat="44.6971873082413" lon="8.034549898628258"><ele>180.0</ele><time>2026-04-11T14:17:05Z</time></trkpt><trkpt lat="44.69714969079667" lon="8.034465290627736"><ele>180.0</ele><time>2026-04-11T14:17:11.999Z</time></trkpt><trkpt lat="44.69707406410114" lon="8.03441662288017"><ele>180.0</ele><time>2026-04-11T14:17:18Z</time></trkpt><trkpt lat="44.69700183568603" lon="8.03440707162592"><ele>180.0</ele><time>2026-04-11T14:17:21Z</time></trkpt><trkpt lat="44.69693702101884" lon="8.03440505631773"><ele>180.0</ele><time>2026-04-11T14:17:23Z</time></trkpt><trkpt lat="44.69687317943836" lon="8.034403716575866"><ele>180.0</ele><time>2026-04-11T14:17:25Z</time></trkpt><trkpt lat="44.69678791624138" lon="8.034407677854379"><ele>180.0</ele><time>2026-04-11T14:17:27Z</time></trkpt><trkpt lat="44.69671570669614" lon="8.034402063111889"><ele>180.0</ele><time>2026-04-11T14:17:30Z</time></trkpt><trkpt lat="44.69665104092603" lon="8.034385805247574"><ele>179.57142857142856</ele><time>2026-04-11T14:17:34Z</time></trkpt><trkpt lat="44.6966181056041" lon="8.034308084061253"><ele>179.14285714285717</ele><time>2026-04-11T14:17:37Z</time></trkpt><trkpt lat="44.696609722008965" lon="8.034212190386476"><ele>178.71428571428572</ele><time>2026-04-11T14:17:40Z</time></trkpt><trkpt lat="44.69662253543003" lon="8.034103522227307"><ele>178.28571428571428</ele><time>2026-04-11T14:17:43Z</time></trkpt><trkpt lat="44.696629403648664" lon="8.034008206316992"><ele>177.85714285714283</ele><time>2026-04-11T14:17:46Z</time></trkpt><trkpt lat="44.69664282616925" lon="8.033905559593062"><ele>177.42857142857144</ele><time>2026-04-11T14:17:49Z</time></trkpt><trkpt lat="44.69666093880079" lon="8.033801961998249"><ele>177.0</ele><time>2026-04-11T14:17:52Z</time></trkpt><trkpt lat="44.69666767416608" lon="8.033672138565485"><ele>176.83333333333334</ele><time>2026-04-11T14:17:55Z</time></trkpt><trkpt lat="44.69667261773883" lon="8.033568802169283"><ele>176.66666666666666</ele><time>2026-04-11T14:17:57Z</time></trkpt><trkpt lat="44.69666991692093" lon="8.033468623637209"><ele>176.5</ele><time>2026-04-11T14:17:59Z</time></trkpt><trkpt lat="44.69666850225341" lon="8.033378618636839"><ele>176.33333333333331</ele><time>2026-04-11T14:18:01Z</time></trkpt><trkpt lat="44.696670872509046" lon="8.03328459513372"><ele>176.16666666666666</ele><time>2026-04-11T14:18:03Z</time></trkpt><trkpt lat="44.69667191108755" lon="8.033164110524648"><ele>176.0</ele><time>2026-04-11T14:18:06Z</time></trkpt><trkpt lat="44.696682456457204" lon="8.033040982985158"><ele>175.28571428571428</ele><time>2026-04-11T14:18:09Z</time></trkpt><trkpt lat="44.69667858877035" lon="8.03291269783568"><ele>174.57142857142856</ele><time>2026-04-11T14:18:12Z</time></trkpt><trkpt lat="44.69665698262332" lon="8.032814928794926"><ele>173.85714285714283</ele><time>2026-04-11T14:18:14Z</time></trkpt><trkpt lat="44.696623388262786" lon="8.032715363111729"><ele>173.14285714285714</ele><time>2026-04-11T14:18:16Z</time></trkpt><trkpt lat="44.696573047182994" lon="8.03265377489234"><ele>172.42857142857142</ele><time>2026-04-11T14:18:18Z</time></trkpt><trkpt lat="44.6965160494064" lon="8.032593217872323"><ele>171.7142857142857</ele><time>2026-04-11T14:18:20Z</time></trkpt><trkpt lat="44.69645846216927" lon="8.0325405195188"><ele>171.0</ele><time>2026-04-11T14:18:22Z</time></trkpt><trkpt lat="44.69638814274792" lon="8.032449485979887"><ele>170.66666666666666</ele><time>2026-04-11T14:18:25Z</time></trkpt><trkpt lat="44.69634097628599" lon="8.032386853202192"><ele>170.33333333333334</ele><time>2026-04-11T14:18:27Z</time></trkpt><trkpt lat="44.69629551191043" lon="8.032316860581851"><ele>170.0</ele><time>2026-04-11T14:18:29Z</time></trkpt><trkpt lat="44.69624821207469" lon="8.032251350735221"><ele>169.66666666666669</ele><time>2026-04-11T14:18:31Z</time></trkpt><trkpt lat="44.69620264099409" lon="8.032160668462454"><ele>169.33333333333334</ele><time>2026-04-11T14:18:33Z</time></trkpt><trkpt lat="44.69615585825021" lon="8.032071481944902"><ele>169.0</ele><time>2026-04-11T14:18:35Z</time></trkpt><trkpt lat="44.69611032928304" lon="8.03195036902164"><ele>169.0</ele><time>2026-04-11T14:18:37Z</time></trkpt><trkpt lat="44.69612413767159" lon="8.031812551458266"><ele>169.0</ele><time>2026-04-11T14:18:39Z</time></trkpt><trkpt lat="44.696209097702116" lon="8.031719898902958"><ele>169.0</ele><time>2026-04-11T14:18:42Z</time></trkpt><trkpt lat="44.69626745461943" lon="8.031615999877845"><ele>169.0</ele><time>2026-04-11T14:18:44Z</time></trkpt><trkpt lat="44.696272844001136" lon="8.031510850312204"><ele>169.0</ele><time>2026-04-11T14:18:46Z</time></trkpt><trkpt lat="44.69627571374518" lon="8.031367930479707"><ele>169.39999999999998</ele><time>2026-04-11T14:18:48Z</time></trkpt><trkpt lat="44.69623637459431" lon="8.031234148619578"><ele>169.8</ele><time>2026-04-11T14:18:50Z</time></trkpt><trkpt lat="44.696177432868396" lon="8.031098281438378"><ele>170.2</ele><time>2026-04-11T14:18:52Z</time></trkpt><trkpt lat="44.696124641213174" lon="8.030964427261859"><ele>170.60000000000002</ele><time>2026-04-11T14:18:54Z</time></trkpt><trkpt lat="44.69606106855138" lon="8.030824427908042"><ele>171.0</ele><time>2026-04-11T14:18:56Z</time></trkpt><trkpt lat="44.69599365185352" lon="8.03069039142111"><ele>171.4</ele><time>2026-04-11T14:18:58Z</time></trkpt><trkpt lat="44.69593560529547" lon="8.030557473987034"><ele>171.8</ele><time>2026-04-11T14:19:00Z</time></trkpt><trkpt lat="44.69588491854445" lon="8.030437058426605"><ele>172.20000000000002</ele><time>2026-04-11T14:19:02Z</time></trkpt><trkpt lat="44.69583062592807" lon="8.030313805266836"><ele>172.60000000000002</ele><time>2026-04-11T14:19:04Z</time></trkpt><trkpt lat="44.6957821692372" lon="8.030190487284168"><ele>173.0</ele><time>2026-04-11T14:19:06Z</time></trkpt><trkpt lat="44.69576140520161" lon="8.030055595761587"><ele>172.8</ele><time>2026-04-11T14:19:08Z</time></trkpt><trkpt lat="44.69572935500286" lon="8.029948250135533"><ele>172.60000000000002</ele><time>2026-04-11T14:19:10Z</time></trkpt><trkpt lat="44.69569836073783" lon="8.029819316544792"><ele>172.39999999999998</ele><time>2026-04-11T14:19:12Z</time></trkpt><trkpt lat="44.69567950361863" lon="8.029667675944047"><ele>172.2</ele><time>2026-04-11T14:19:14Z</time></trkpt><trkpt lat="44.6956565994808" lon="8.029528995139813"><ele>172.0</ele><time>2026-04-11T14:19:16Z</time></trkpt><trkpt lat="44.69562729656468" lon="8.029380240027468"><ele>172.0</ele><time>2026-04-11T14:19:18Z</time></trkpt><trkpt lat="44.69559018499722" lon="8.029241037425829"><ele>172.0</ele><time>2026-04-11T14:19:19.999Z</time></trkpt><trkpt lat="44.69557081249608" lon="8.0291080285138"><ele>172.0</ele><time>2026-04-11T14:19:21.999Z</time></trkpt><trkpt lat="44.6955381221456" lon="8.028959337615827"><ele>172.0</ele><time>2026-04-11T14:19:24Z</time></trkpt><trkpt lat="44.69552395876441" lon="8.028820703994137"><ele>172.0</ele><time>2026-04-11T14:19:26Z</time></trkpt><trkpt lat="44.695523063986755" lon="8.028696581164986"><ele>172.0</ele><time>2026-04-11T14:19:28Z</time></trkpt><trkpt lat="44.69553784787157" lon="8.02857508468109"><ele>172.0</ele><time>2026-04-11T14:19:30Z</time></trkpt><trkpt lat="44.69550940138729" lon="8.028466617400237"><ele>172.0</ele><time>2026-04-11T14:19:32Z</time></trkpt><trkpt lat="44.69546892633249" lon="8.028376628795435"><ele>172.0</ele><time>2026-04-11T14:19:34Z</time></trkpt><trkpt lat="44.69545599571265" lon="8.028245488355644"><ele>172.0</ele><time>2026-04-11T14:19:36Z</time></trkpt><trkpt lat="44.695424791341964" lon="8.02811206063251"><ele>172.0</ele><time>2026-04-11T14:19:38Z</time></trkpt><trkpt lat="44.695395366485734" lon="8.02798368151589"><ele>172.0</ele><time>2026-04-11T14:19:40Z</time></trkpt><trkpt lat="44.69537795865089" lon="8.027876852420139"><ele>172.0</ele><time>2026-04-11T14:19:42Z</time></trkpt><trkpt lat="44.695357349296046" lon="8.027734289270308"><ele>172.0</ele><time>2026-04-11T14:19:44Z</time></trkpt><trkpt lat="44.69532707902403" lon="8.027565832795158"><ele>172.0</ele><time>2026-04-11T14:19:46Z</time></trkpt><trkpt lat="44.6953193151411" lon="8.027462691563237"><ele>172.0</ele><time>2026-04-11T14:19:47Z</time></trkpt><trkpt lat="44.695317855488014" lon="8.027359602391998"><ele>172.0</ele><time>2026-04-11T14:19:48Z</time></trkpt><trkpt lat="44.695309869615585" lon="8.027267850862017"><ele>172.0</ele><time>2026-04-11T14:19:49Z</time></trkpt><trkpt lat="44.695269214639" lon="8.02710808595678"><ele>172.0</ele><time>2026-04-11T14:19:51Z</time></trkpt><trkpt lat="44.69524842678775" lon="8.026957333228507"><ele>172.0</ele><time>2026-04-11T14:19:53Z</time></trkpt><trkpt lat="44.69521159270476" lon="8.0268456814558"><ele>172.0</ele><time>2026-04-11T14:19:55Z</time></trkpt><trkpt lat="44.69517465412828" lon="8.026743346496573"><ele>172.39999999999998</ele><time>2026-04-11T14:19:57Z</time></trkpt><trkpt lat="44.6951733410192" lon="8.026602235609861"><ele>172.79999999999998</ele><time>2026-04-11T14:19:59Z</time></trkpt><trkpt lat="44.69514140181682" lon="8.026509343544951"><ele>173.2</ele><time>2026-04-11T14:20:01Z</time></trkpt><trkpt lat="44.695096442183434" lon="8.026410616814367"><ele>173.6</ele><time>2026-04-11T14:20:03Z</time></trkpt><trkpt lat="44.695045420805336" lon="8.026279750488456"><ele>174.0</ele><time>2026-04-11T14:20:05Z</time></trkpt><trkpt lat="44.69500541605338" lon="8.026169617838175"><ele>174.0</ele><time>2026-04-11T14:20:07Z</time></trkpt><trkpt lat="44.69496002480074" lon="8.026062505040992"><ele>174.0</ele><time>2026-04-11T14:20:09Z</time></trkpt><trkpt lat="44.6949162208129" lon="8.025965981851195"><ele>174.0</ele><time>2026-04-11T14:20:11Z</time></trkpt><trkpt lat="44.69486206330224" lon="8.025886341422959"><ele>174.0</ele><time>2026-04-11T14:20:13Z</time></trkpt><trkpt lat="44.69480466249646" lon="8.025754654339497"><ele>174.0</ele><time>2026-04-11T14:20:16Z</time></trkpt><trkpt lat="44.69476174960471" lon="8.025628425853355"><ele>173.79999999999998</ele><time>2026-04-11T14:20:18Z</time></trkpt><trkpt lat="44.69469668404513" lon="8.025500446227326"><ele>173.6</ele><time>2026-04-11T14:20:20Z</time></trkpt><trkpt lat="44.69463571473991" lon="8.02536821633466"><ele>173.4</ele><time>2026-04-11T14:20:22Z</time></trkpt><trkpt lat="44.69457646302584" lon="8.025249076411932"><ele>173.2</ele><time>2026-04-11T14:20:24Z</time></trkpt><trkpt lat="44.69451876456566" lon="8.025103583049125"><ele>173.0</ele><time>2026-04-11T14:20:26Z</time></trkpt><trkpt lat="44.69441606099269" lon="8.025018721207887"><ele>172.83333333333331</ele><time>2026-04-11T14:20:28Z</time></trkpt><trkpt lat="44.6943692310712" lon="8.024915436394666"><ele>172.66666666666666</ele><time>2026-04-11T14:20:30Z</time></trkpt><trkpt lat="44.69432631504593" lon="8.02482078379675"><ele>172.5</ele><time>2026-04-11T14:20:32Z</time></trkpt><trkpt lat="44.694281704827254" lon="8.02472251077544"><ele>172.33333333333334</ele><time>2026-04-11T14:20:34Z</time></trkpt><trkpt lat="44.694242166499706" lon="8.024635181477924"><ele>172.16666666666669</ele><time>2026-04-11T14:20:36Z</time></trkpt><trkpt lat="44.694200104074795" lon="8.024542861173453"><ele>172.0</ele><time>2026-04-11T14:20:38Z</time></trkpt><trkpt lat="44.694158696202585" lon="8.024451699165247"><ele>172.0</ele><time>2026-04-11T14:20:40Z</time></trkpt><trkpt lat="44.69411011444373" lon="8.024344743235613"><ele>172.0</ele><time>2026-04-11T14:20:42Z</time></trkpt><trkpt lat="44.69406041687509" lon="8.024236348118974"><ele>172.0</ele><time>2026-04-11T14:20:44Z</time></trkpt><trkpt lat="44.69404699082449" lon="8.024095885543616"><ele>172.0</ele><time>2026-04-11T14:20:46Z</time></trkpt><trkpt lat="44.69396175538416" lon="8.024016786568529"><ele>172.0</ele><time>2026-04-11T14:20:48Z</time></trkpt><trkpt lat="44.69391643299502" lon="8.023915748305985"><ele>172.0</ele><time>2026-04-11T14:20:50Z</time></trkpt><trkpt lat="44.693866589415016" lon="8.023805176434239"><ele>172.0</ele><time>2026-04-11T14:20:52Z</time></trkpt><trkpt lat="44.6938147504803" lon="8.023684676296156"><ele>172.0</ele><time>2026-04-11T14:20:54Z</time></trkpt><trkpt lat="44.69380869009997" lon="8.023539700611085"><ele>172.0</ele><time>2026-04-11T14:20:56Z</time></trkpt><trkpt lat="44.6937639650374" lon="8.023434967186486"><ele>172.0</ele><time>2026-04-11T14:20:58Z</time></trkpt><trkpt lat="44.69372447838533" lon="8.023351395343495"><ele>171.85714285714286</ele><time>2026-04-11T14:21:00Z</time></trkpt><trkpt lat="44.69368432269803" lon="8.023257522444853"><ele>171.71428571428572</ele><time>2026-04-11T14:21:02Z</time></trkpt><trkpt lat="44.69365249583382" lon="8.023168889396977"><ele>171.57142857142856</ele><time>2026-04-11T14:21:04Z</time></trkpt><trkpt lat="44.6936082088759" lon="8.023100308742839"><ele>171.42857142857144</ele><time>2026-04-11T14:21:06Z</time></trkpt><trkpt lat="44.69356637497475" lon="8.023030168226093"><ele>171.28571428571428</ele><time>2026-04-11T14:21:08Z</time></trkpt><trkpt lat="44.69352496513018" lon="8.022943192114296"><ele>171.14285714285714</ele><time>2026-04-11T14:21:10Z</time></trkpt><trkpt lat="44.69349106240804" lon="8.022854588460778"><ele>171.0</ele><time>2026-04-11T14:21:12Z</time></trkpt><trkpt lat="44.69346223531239" lon="8.02275923273325"><ele>171.28571428571428</ele><time>2026-04-11T14:21:14Z</time></trkpt><trkpt lat="44.693422212861876" lon="8.02267106395807"><ele>171.57142857142856</ele><time>2026-04-11T14:21:16Z</time></trkpt><trkpt lat="44.6933756672542" lon="8.022583818731576"><ele>171.85714285714283</ele><time>2026-04-11T14:21:18Z</time></trkpt><trkpt lat="44.69333368949295" lon="8.022490596421797"><ele>172.14285714285714</ele><time>2026-04-11T14:21:20Z</time></trkpt><trkpt lat="44.69329578155268" lon="8.02240541292293"><ele>172.42857142857144</ele><time>2026-04-11T14:21:22Z</time></trkpt><trkpt lat="44.693259141456004" lon="8.022320893445068"><ele>172.7142857142857</ele><time>2026-04-11T14:21:24Z</time></trkpt><trkpt lat="44.693222413749396" lon="8.022233441142436"><ele>173.0</ele><time>2026-04-11T14:21:26Z</time></trkpt><trkpt lat="44.693170887910966" lon="8.022108949053225"><ele>173.0</ele><time>2026-04-11T14:21:28Z</time></trkpt><trkpt lat="44.693121349567996" lon="8.022000491729802"><ele>173.0</ele><time>2026-04-11T14:21:30Z</time></trkpt><trkpt lat="44.6930660776784" lon="8.021912471130845"><ele>173.0</ele><time>2026-04-11T14:21:32Z</time></trkpt><trkpt lat="44.693021417483735" lon="8.021818263706303"><ele>173.0</ele><time>2026-04-11T14:21:34Z</time></trkpt><trkpt lat="44.69297587594723" lon="8.021750015497505"><ele>173.0</ele><time>2026-04-11T14:21:36Z</time></trkpt><trkpt lat="44.69295407894815" lon="8.0216450835323"><ele>173.0</ele><time>2026-04-11T14:21:42Z</time></trkpt><trkpt lat="44.692923223074494" lon="8.021563567685593"><ele>173.16666666666666</ele><time>2026-04-11T14:21:44Z</time></trkpt><trkpt lat="44.69285564961059" lon="8.021476357895429"><ele>173.33333333333331</ele><time>2026-04-11T14:21:46Z</time></trkpt><trkpt lat="44.692786784062406" lon="8.021377589290356"><ele>173.5</ele><time>2026-04-11T14:21:48Z</time></trkpt><trkpt lat="44.6927565925483" lon="8.021265044231745"><ele>173.66666666666666</ele><time>2026-04-11T14:21:50Z</time></trkpt><trkpt lat="44.69270559420868" lon="8.02117282465382"><ele>173.83333333333334</ele><time>2026-04-11T14:21:52Z</time></trkpt><trkpt lat="44.69265583301343" lon="8.021082124965229"><ele>174.0</ele><time>2026-04-11T14:21:54Z</time></trkpt><trkpt lat="44.692604878723294" lon="8.020957898345575"><ele>174.0</ele><time>2026-04-11T14:21:56Z</time></trkpt><trkpt lat="44.69255722937696" lon="8.020858179347648"><ele>174.0</ele><time>2026-04-11T14:21:58Z</time></trkpt><trkpt lat="44.69251614659069" lon="8.020757128945204"><ele>174.0</ele><time>2026-04-11T14:22:00Z</time></trkpt><trkpt lat="44.692467943041386" lon="8.020625229813728"><ele>174.0</ele><time>2026-04-11T14:22:02Z</time></trkpt><trkpt lat="44.69241512551128" lon="8.020520512741166"><ele>174.0</ele><time>2026-04-11T14:22:04Z</time></trkpt><trkpt lat="44.69235803924194" lon="8.020414611294301"><ele>174.0</ele><time>2026-04-11T14:22:06Z</time></trkpt><trkpt lat="44.692304242790875" lon="8.020295820903737"><ele>174.0</ele><time>2026-04-11T14:22:08Z</time></trkpt><trkpt lat="44.69226297923334" lon="8.020177721042796"><ele>174.0</ele><time>2026-04-11T14:22:10Z</time></trkpt><trkpt lat="44.692202647253744" lon="8.020099622735861"><ele>174.0</ele><time>2026-04-11T14:22:12Z</time></trkpt><trkpt lat="44.69215337562619" lon="8.01997955630531"><ele>174.0</ele><time>2026-04-11T14:22:14Z</time></trkpt><trkpt lat="44.69210077358604" lon="8.01984679787314"><ele>173.79999999999998</ele><time>2026-04-11T14:22:16Z</time></trkpt><trkpt lat="44.69204401575996" lon="8.019732813460106"><ele>173.6</ele><time>2026-04-11T14:22:18Z</time></trkpt><trkpt lat="44.69198561209388" lon="8.01961046841519"><ele>173.4</ele><time>2026-04-11T14:22:20Z</time></trkpt><trkpt lat="44.69193579895033" lon="8.019492532954029"><ele>173.2</ele><time>2026-04-11T14:22:22Z</time></trkpt><trkpt lat="44.69188409931961" lon="8.019374036939572"><ele>173.0</ele><time>2026-04-11T14:22:24Z</time></trkpt><trkpt lat="44.69182640561375" lon="8.019253892966622"><ele>173.4</ele><time>2026-04-11T14:22:26Z</time></trkpt><trkpt lat="44.69177495057293" lon="8.019125298606571"><ele>173.8</ele><time>2026-04-11T14:22:28Z</time></trkpt><trkpt lat="44.691717830827905" lon="8.019003893101267"><ele>174.2</ele><time>2026-04-11T14:22:30Z</time></trkpt><trkpt lat="44.691664142615295" lon="8.018851361678026"><ele>174.6</ele><time>2026-04-11T14:22:32Z</time></trkpt><trkpt lat="44.69161263367027" lon="8.018720266766776"><ele>175.0</ele><time>2026-04-11T14:22:34Z</time></trkpt><trkpt lat="44.69155824498365" lon="8.018600635070042"><ele>175.0</ele><time>2026-04-11T14:22:36Z</time></trkpt><trkpt lat="44.691510810924136" lon="8.018471819549545"><ele>175.0</ele><time>2026-04-11T14:22:38Z</time></trkpt><trkpt lat="44.69145041144466" lon="8.018346975509377"><ele>175.0</ele><time>2026-04-11T14:22:40Z</time></trkpt><trkpt lat="44.69139506808108" lon="8.018218606262636"><ele>175.0</ele><time>2026-04-11T14:22:42Z</time></trkpt><trkpt lat="44.69133203870661" lon="8.018091732114042"><ele>175.0</ele><time>2026-04-11T14:22:44Z</time></trkpt><trkpt lat="44.69127772355062" lon="8.017975332607808"><ele>174.4</ele><time>2026-04-11T14:22:46Z</time></trkpt><trkpt lat="44.691220393740515" lon="8.01784829399333"><ele>173.8</ele><time>2026-04-11T14:22:48Z</time></trkpt><trkpt lat="44.69117121938886" lon="8.017725007874771"><ele>173.2</ele><time>2026-04-11T14:22:50Z</time></trkpt><trkpt lat="44.69112827965977" lon="8.01761839764993"><ele>172.6</ele><time>2026-04-11T14:22:52Z</time></trkpt><trkpt lat="44.691085549860006" lon="8.01751224616123"><ele>172.0</ele><time>2026-04-11T14:22:54Z</time></trkpt><trkpt lat="44.691007747301825" lon="8.017510520620721"><ele>171.6</ele><time>2026-04-11T14:22:55Z</time></trkpt><trkpt lat="44.69095889672135" lon="8.017403850609819"><ele>171.2</ele><time>2026-04-11T14:22:57Z</time></trkpt><trkpt lat="44.690904599153086" lon="8.017285286539659"><ele>170.8</ele><time>2026-04-11T14:22:59Z</time></trkpt><trkpt lat="44.69085467622123" lon="8.017176274848797"><ele>170.4</ele><time>2026-04-11T14:23:01Z</time></trkpt><trkpt lat="44.69080076145338" lon="8.017058546710881"><ele>170.0</ele><time>2026-04-11T14:23:03Z</time></trkpt><trkpt lat="44.69074898710395" lon="8.01694222539804"><ele>170.0</ele><time>2026-04-11T14:23:05Z</time></trkpt><trkpt lat="44.69072696562696" lon="8.016791638502314"><ele>170.0</ele><time>2026-04-11T14:23:07Z</time></trkpt><trkpt lat="44.69067199144783" lon="8.01666733608288"><ele>170.0</ele><time>2026-04-11T14:23:09Z</time></trkpt><trkpt lat="44.69060290533098" lon="8.016568370191905"><ele>170.0</ele><time>2026-04-11T14:23:11Z</time></trkpt><trkpt lat="44.6905466302199" lon="8.016429740114107"><ele>170.0</ele><time>2026-04-11T14:23:13Z</time></trkpt><trkpt lat="44.69047602886192" lon="8.01634336193391"><ele>170.4</ele><time>2026-04-11T14:23:15Z</time></trkpt><trkpt lat="44.69042344532551" lon="8.016228253782812"><ele>170.8</ele><time>2026-04-11T14:23:17Z</time></trkpt><trkpt lat="44.69037413239979" lon="8.016120305213544"><ele>171.2</ele><time>2026-04-11T14:23:19Z</time></trkpt><trkpt lat="44.69032098177531" lon="8.016003956973957"><ele>171.6</ele><time>2026-04-11T14:23:21Z</time></trkpt><trkpt lat="44.69027152722562" lon="8.015895293184222"><ele>172.0</ele><time>2026-04-11T14:23:23Z</time></trkpt><trkpt lat="44.69022110721096" lon="8.01578466519637"><ele>172.2</ele><time>2026-04-11T14:23:25Z</time></trkpt><trkpt lat="44.69017211659692" lon="8.015677174040997"><ele>172.39999999999998</ele><time>2026-04-11T14:23:27Z</time></trkpt><trkpt lat="44.69011960353782" lon="8.0155613176508"><ele>172.60000000000002</ele><time>2026-04-11T14:23:29Z</time></trkpt><trkpt lat="44.69006048264711" lon="8.015430585123651"><ele>172.8</ele><time>2026-04-11T14:23:31Z</time></trkpt><trkpt lat="44.69002365032712" lon="8.015348988423835"><ele>173.0</ele><time>2026-04-11T14:23:32Z</time></trkpt><trkpt lat="44.689978394655895" lon="8.015248731025398"><ele>173.0</ele><time>2026-04-11T14:23:34Z</time></trkpt><trkpt lat="44.689930977516" lon="8.015143685170585"><ele>173.0</ele><time>2026-04-11T14:23:36Z</time></trkpt><trkpt lat="44.68988105285336" lon="8.015033084284665"><ele>173.0</ele><time>2026-04-11T14:23:38Z</time></trkpt><trkpt lat="44.68983125165857" lon="8.01492275695197"><ele>173.0</ele><time>2026-04-11T14:23:40Z</time></trkpt><trkpt lat="44.68978026853479" lon="8.014811579107542"><ele>173.0</ele><time>2026-04-11T14:23:42Z</time></trkpt><trkpt lat="44.68976514945914" lon="8.014697995986836"><ele>172.8</ele><time>2026-04-11T14:23:44Z</time></trkpt><trkpt lat="44.68970574006791" lon="8.014564476421555"><ele>172.60000000000002</ele><time>2026-04-11T14:23:46Z</time></trkpt><trkpt lat="44.68964409941873" lon="8.014426820612865"><ele>172.39999999999998</ele><time>2026-04-11T14:23:48Z</time></trkpt><trkpt lat="44.6895599002592" lon="8.014330623300001"><ele>172.2</ele><time>2026-04-11T14:23:50Z</time></trkpt><trkpt lat="44.689508982987434" lon="8.01421992826135"><ele>172.0</ele><time>2026-04-11T14:23:52Z</time></trkpt><trkpt lat="44.689453670461404" lon="8.014095810139885"><ele>172.39999999999998</ele><time>2026-04-11T14:23:54Z</time></trkpt><trkpt lat="44.68941593549826" lon="8.014010602630153"><ele>172.79999999999998</ele><time>2026-04-11T14:23:56Z</time></trkpt><trkpt lat="44.6893558658577" lon="8.013874772243657"><ele>173.2</ele><time>2026-04-11T14:23:58Z</time></trkpt><trkpt lat="44.689305106247026" lon="8.013759993806048"><ele>173.6</ele><time>2026-04-11T14:24:00Z</time></trkpt><trkpt lat="44.68925424502498" lon="8.013645373462289"><ele>174.0</ele><time>2026-04-11T14:24:02Z</time></trkpt><trkpt lat="44.689201503473164" lon="8.013526688310472"><ele>174.0</ele><time>2026-04-11T14:24:04Z</time></trkpt><trkpt lat="44.68914250568074" lon="8.013407006898419"><ele>174.0</ele><time>2026-04-11T14:24:06Z</time></trkpt><trkpt lat="44.68908740794" lon="8.013291899973119"><ele>174.0</ele><time>2026-04-11T14:24:08Z</time></trkpt><trkpt lat="44.689035710034666" lon="8.013183779327592"><ele>174.0</ele><time>2026-04-11T14:24:10Z</time></trkpt><trkpt lat="44.68897699673636" lon="8.013052874237841"><ele>174.0</ele><time>2026-04-11T14:24:12Z</time></trkpt><trkpt lat="44.688927915486154" lon="8.012943444496727"><ele>174.0</ele><time>2026-04-11T14:24:14Z</time></trkpt><trkpt lat="44.6888917461838" lon="8.012862802683099"><ele>174.0</ele><time>2026-04-11T14:24:16Z</time></trkpt><trkpt lat="44.68888182349964" lon="8.012751595359262"><ele>174.0</ele><time>2026-04-11T14:24:18Z</time></trkpt><trkpt lat="44.68884946625788" lon="8.012666419358059"><ele>174.0</ele><time>2026-04-11T14:24:19Z</time></trkpt><trkpt lat="44.688816629858636" lon="8.012559748213114"><ele>174.0</ele><time>2026-04-11T14:24:21Z</time></trkpt><trkpt lat="44.68875085669848" lon="8.01245231756478"><ele>174.0</ele><time>2026-04-11T14:24:23Z</time></trkpt><trkpt lat="44.68870511713796" lon="8.012357415438982"><ele>174.2</ele><time>2026-04-11T14:24:25Z</time></trkpt><trkpt lat="44.68865340321868" lon="8.01223545982784"><ele>174.39999999999998</ele><time>2026-04-11T14:24:27Z</time></trkpt><trkpt lat="44.68858910500309" lon="8.012105759339935"><ele>174.6</ele><time>2026-04-11T14:24:29Z</time></trkpt><trkpt lat="44.68853421404024" lon="8.011959908993994"><ele>174.8</ele><time>2026-04-11T14:24:31Z</time></trkpt><trkpt lat="44.68850593008435" lon="8.011876204884873"><ele>175.0</ele><time>2026-04-11T14:24:32Z</time></trkpt><trkpt lat="44.68844741110573" lon="8.011757325135843"><ele>175.0</ele><time>2026-04-11T14:24:34Z</time></trkpt><trkpt lat="44.68838506977012" lon="8.011634837262166"><ele>175.0</ele><time>2026-04-11T14:24:36Z</time></trkpt><trkpt lat="44.68832993520684" lon="8.011498983062426"><ele>175.0</ele><time>2026-04-11T14:24:38Z</time></trkpt><trkpt lat="44.688228819500054" lon="8.011404026507496"><ele>175.0</ele><time>2026-04-11T14:24:40Z</time></trkpt><trkpt lat="44.688168939413764" lon="8.011271802602332"><ele>175.0</ele><time>2026-04-11T14:24:42Z</time></trkpt><trkpt lat="44.68810745670013" lon="8.011136039414337"><ele>175.0</ele><time>2026-04-11T14:24:44Z</time></trkpt><trkpt lat="44.68804449759803" lon="8.010997117319294"><ele>175.0</ele><time>2026-04-11T14:24:46Z</time></trkpt><trkpt lat="44.687991474221995" lon="8.010880548060422"><ele>175.0</ele><time>2026-04-11T14:24:48Z</time></trkpt><trkpt lat="44.687932552222506" lon="8.010751010875643"><ele>175.0</ele><time>2026-04-11T14:24:50Z</time></trkpt><trkpt lat="44.687876496614315" lon="8.010627775349416"><ele>174.6</ele><time>2026-04-11T14:24:52Z</time></trkpt><trkpt lat="44.68782833341917" lon="8.010521890973736"><ele>174.2</ele><time>2026-04-11T14:24:54Z</time></trkpt><trkpt lat="44.687776088246814" lon="8.010407032493898"><ele>173.8</ele><time>2026-04-11T14:24:56Z</time></trkpt><trkpt lat="44.68771515484395" lon="8.010272948336295"><ele>173.4</ele><time>2026-04-11T14:24:58Z</time></trkpt><trkpt lat="44.68769059188739" lon="8.010130754237986"><ele>173.0</ele><time>2026-04-11T14:25:00Z</time></trkpt><trkpt lat="44.687630466478396" lon="8.010086410751116"><ele>173.60000000000002</ele><time>2026-04-11T14:25:01Z</time></trkpt><trkpt lat="44.68757631595844" lon="8.009967136881148"><ele>174.20000000000002</ele><time>2026-04-11T14:25:03Z</time></trkpt><trkpt lat="44.68755777347964" lon="8.009796479905049"><ele>174.8</ele><time>2026-04-11T14:25:05Z</time></trkpt><trkpt lat="44.68749526111414" lon="8.009676364143555"><ele>175.4</ele><time>2026-04-11T14:25:07Z</time></trkpt><trkpt lat="44.68743419338647" lon="8.009539005657068"><ele>176.0</ele><time>2026-04-11T14:25:09Z</time></trkpt><trkpt lat="44.687345963519356" lon="8.009461299012292"><ele>176.0</ele><time>2026-04-11T14:25:11Z</time></trkpt><trkpt lat="44.68728401828916" lon="8.009325297302112"><ele>176.0</ele><time>2026-04-11T14:25:13Z</time></trkpt><trkpt lat="44.68723205629172" lon="8.00921121391335"><ele>176.0</ele><time>2026-04-11T14:25:15Z</time></trkpt><trkpt lat="44.68717638552702" lon="8.009088987861888"><ele>176.0</ele><time>2026-04-11T14:25:17Z</time></trkpt><trkpt lat="44.68712543442627" lon="8.00897044137955"><ele>176.0</ele><time>2026-04-11T14:25:19Z</time></trkpt><trkpt lat="44.687108314639886" lon="8.008850072094754"><ele>176.0</ele><time>2026-04-11T14:25:21Z</time></trkpt><trkpt lat="44.68706408433768" lon="8.008733514240534"><ele>176.0</ele><time>2026-04-11T14:25:23Z</time></trkpt><trkpt lat="44.687025204979605" lon="8.008620587014645"><ele>176.0</ele><time>2026-04-11T14:25:25Z</time></trkpt><trkpt lat="44.68696504101831" lon="8.008504324133414"><ele>176.0</ele><time>2026-04-11T14:25:27Z</time></trkpt><trkpt lat="44.68691631749429" lon="8.00838562400114"><ele>176.0</ele><time>2026-04-11T14:25:29Z</time></trkpt><trkpt lat="44.686870927730624" lon="8.008268289684343"><ele>176.0</ele><time>2026-04-11T14:25:31Z</time></trkpt><trkpt lat="44.686791550032446" lon="8.00814056941446"><ele>176.0</ele><time>2026-04-11T14:25:32.999Z</time></trkpt><trkpt lat="44.686726863027516" lon="8.00810939586332"><ele>176.0</ele><time>2026-04-11T14:25:33.999Z</time></trkpt><trkpt lat="44.68669190465389" lon="8.00794778079985"><ele>176.0</ele><time>2026-04-11T14:25:35.999Z</time></trkpt><trkpt lat="44.686625355175686" lon="8.007827700801952"><ele>176.0</ele><time>2026-04-11T14:25:37.999Z</time></trkpt><trkpt lat="44.68655462288375" lon="8.007707484970473"><ele>176.0</ele><time>2026-04-11T14:25:39.999Z</time></trkpt><trkpt lat="44.686481744129686" lon="8.007593376172148"><ele>176.0</ele><time>2026-04-11T14:25:42Z</time></trkpt><trkpt lat="44.686412833940295" lon="8.007577165448387"><ele>176.0</ele><time>2026-04-11T14:25:43Z</time></trkpt><trkpt lat="44.68634221998698" lon="8.007477427151294"><ele>176.0</ele><time>2026-04-11T14:25:45Z</time></trkpt><trkpt lat="44.686267173304486" lon="8.007376975811802"><ele>176.0</ele><time>2026-04-11T14:25:47Z</time></trkpt><trkpt lat="44.68619506508201" lon="8.007285523789166"><ele>176.0</ele><time>2026-04-11T14:25:49Z</time></trkpt><trkpt lat="44.686114315661285" lon="8.007189748572108"><ele>176.0</ele><time>2026-04-11T14:25:51Z</time></trkpt><trkpt lat="44.68603584366801" lon="8.007099062723922"><ele>176.0</ele><time>2026-04-11T14:25:53Z</time></trkpt><trkpt lat="44.685953987651324" lon="8.0070104070234"><ele>176.0</ele><time>2026-04-11T14:25:55Z</time></trkpt><trkpt lat="44.68587347275746" lon="8.006930751292357"><ele>176.0</ele><time>2026-04-11T14:25:57Z</time></trkpt><trkpt lat="44.68579599399219" lon="8.006807702116133"><ele>175.8</ele><time>2026-04-11T14:25:59Z</time></trkpt><trkpt lat="44.6857217918338" lon="8.006738344754236"><ele>175.60000000000002</ele><time>2026-04-11T14:26:01Z</time></trkpt><trkpt lat="44.68564394730498" lon="8.006658840772335"><ele>175.4</ele><time>2026-04-11T14:26:03Z</time></trkpt><trkpt lat="44.68558562039141" lon="8.006625033006816"><ele>175.2</ele><time>2026-04-11T14:26:04Z</time></trkpt><trkpt lat="44.685495743154725" lon="8.00655253651551"><ele>175.0</ele><time>2026-04-11T14:26:06Z</time></trkpt><trkpt lat="44.68540670833228" lon="8.00648289858853"><ele>175.0</ele><time>2026-04-11T14:26:08Z</time></trkpt><trkpt lat="44.68531427297107" lon="8.006413996335082"><ele>175.0</ele><time>2026-04-11T14:26:10Z</time></trkpt><trkpt lat="44.685212369816504" lon="8.00634071928689"><ele>175.0</ele><time>2026-04-11T14:26:12Z</time></trkpt><trkpt lat="44.685114630494006" lon="8.006262348257605"><ele>175.0</ele><time>2026-04-11T14:26:14Z</time></trkpt><trkpt lat="44.685016089284964" lon="8.006192402707512"><ele>175.0</ele><time>2026-04-11T14:26:16Z</time></trkpt><trkpt lat="44.68492257316725" lon="8.006125474853905"><ele>175.0</ele><time>2026-04-11T14:26:18Z</time></trkpt><trkpt lat="44.684836987127845" lon="8.006064150160746"><ele>175.0</ele><time>2026-04-11T14:26:20Z</time></trkpt><trkpt lat="44.684761450918714" lon="8.005999469021546"><ele>175.0</ele><time>2026-04-11T14:26:22Z</time></trkpt><trkpt lat="44.684716469226906" lon="8.00589178062205"><ele>175.0</ele><time>2026-04-11T14:26:24Z</time></trkpt><trkpt lat="44.68463674851413" lon="8.005811517098667"><ele>175.0</ele><time>2026-04-11T14:26:26Z</time></trkpt><trkpt lat="44.68455799004722" lon="8.0057363580136"><ele>175.0</ele><time>2026-04-11T14:26:28Z</time></trkpt><trkpt lat="44.68447428194232" lon="8.005651717915615"><ele>175.0</ele><time>2026-04-11T14:26:30Z</time></trkpt><trkpt lat="44.684399310912504" lon="8.005560370382202"><ele>175.0</ele><time>2026-04-11T14:26:32Z</time></trkpt><trkpt lat="44.68431436827893" lon="8.005478997426215"><ele>175.0</ele><time>2026-04-11T14:26:34Z</time></trkpt><trkpt lat="44.684235801665956" lon="8.005380537352233"><ele>175.0</ele><time>2026-04-11T14:26:36Z</time></trkpt><trkpt lat="44.6841617903194" lon="8.005284197624315"><ele>175.2</ele><time>2026-04-11T14:26:38Z</time></trkpt><trkpt lat="44.68410402660644" lon="8.005172685246588"><ele>175.4</ele><time>2026-04-11T14:26:40Z</time></trkpt><trkpt lat="44.68404931299387" lon="8.005076544068514"><ele>175.60000000000002</ele><time>2026-04-11T14:26:42Z</time></trkpt><trkpt lat="44.6839923792918" lon="8.004981922025205"><ele>175.8</ele><time>2026-04-11T14:26:44Z</time></trkpt><trkpt lat="44.68393429558008" lon="8.004879060552993"><ele>176.0</ele><time>2026-04-11T14:26:46Z</time></trkpt><trkpt lat="44.68386582534162" lon="8.00476878203879"><ele>176.0</ele><time>2026-04-11T14:26:48Z</time></trkpt><trkpt lat="44.68380190823198" lon="8.004679792200838"><ele>176.0</ele><time>2026-04-11T14:26:50Z</time></trkpt><trkpt lat="44.68373641875388" lon="8.00456938579622"><ele>176.0</ele><time>2026-04-11T14:26:52Z</time></trkpt><trkpt lat="44.68367842105771" lon="8.004459583263634"><ele>176.0</ele><time>2026-04-11T14:26:54Z</time></trkpt><trkpt lat="44.68362213868788" lon="8.00434202299591"><ele>176.0</ele><time>2026-04-11T14:26:56Z</time></trkpt><trkpt lat="44.683551083576255" lon="8.00424008792152"><ele>175.8</ele><time>2026-04-11T14:26:58Z</time></trkpt><trkpt lat="44.6835054674731" lon="8.004097030896087"><ele>175.60000000000002</ele><time>2026-04-11T14:27:00Z</time></trkpt><trkpt lat="44.683456652246605" lon="8.003973078043762"><ele>175.4</ele><time>2026-04-11T14:27:02Z</time></trkpt><trkpt lat="44.68339995614136" lon="8.003852168977176"><ele>175.2</ele><time>2026-04-11T14:27:04Z</time></trkpt><trkpt lat="44.68333867837471" lon="8.003726755507294"><ele>175.0</ele><time>2026-04-11T14:27:06Z</time></trkpt><trkpt lat="44.68328252725507" lon="8.003612742539595"><ele>175.0</ele><time>2026-04-11T14:27:08Z</time></trkpt><trkpt lat="44.68322787532586" lon="8.003491792383157"><ele>175.0</ele><time>2026-04-11T14:27:10Z</time></trkpt><trkpt lat="44.68316473420075" lon="8.003374940911876"><ele>175.0</ele><time>2026-04-11T14:27:12Z</time></trkpt><trkpt lat="44.68310804937467" lon="8.00324702784272"><ele>175.0</ele><time>2026-04-11T14:27:14Z</time></trkpt><trkpt lat="44.68304748387766" lon="8.003117968159728"><ele>175.0</ele><time>2026-04-11T14:27:16Z</time></trkpt><trkpt lat="44.682982109200154" lon="8.002984838565496"><ele>175.0</ele><time>2026-04-11T14:27:18Z</time></trkpt><trkpt lat="44.68291927791462" lon="8.002858949837048"><ele>175.0</ele><time>2026-04-11T14:27:20Z</time></trkpt><trkpt lat="44.68286505323817" lon="8.002734162778316"><ele>175.0</ele><time>2026-04-11T14:27:22Z</time></trkpt><trkpt lat="44.682803956022546" lon="8.002615316109292"><ele>175.0</ele><time>2026-04-11T14:27:24Z</time></trkpt><trkpt lat="44.682743713645245" lon="8.002497860114254"><ele>175.0</ele><time>2026-04-11T14:27:26Z</time></trkpt><trkpt lat="44.68267916693409" lon="8.002367110930592"><ele>175.0</ele><time>2026-04-11T14:27:28Z</time></trkpt><trkpt lat="44.68261972180717" lon="8.002255986235483"><ele>175.0</ele><time>2026-04-11T14:27:30Z</time></trkpt><trkpt lat="44.68255727263621" lon="8.002125474661954"><ele>175.0</ele><time>2026-04-11T14:27:32Z</time></trkpt><trkpt lat="44.68249847553759" lon="8.00200439992452"><ele>175.0</ele><time>2026-04-11T14:27:34Z</time></trkpt><trkpt lat="44.68243998252692" lon="8.001882423753543"><ele>175.0</ele><time>2026-04-11T14:27:36Z</time></trkpt><trkpt lat="44.68238315644322" lon="8.001779695256634"><ele>175.0</ele><time>2026-04-11T14:27:38Z</time></trkpt><trkpt lat="44.68232898594081" lon="8.001671077660435"><ele>175.0</ele><time>2026-04-11T14:27:40Z</time></trkpt><trkpt lat="44.68227657335653" lon="8.001562199688934"><ele>175.0</ele><time>2026-04-11T14:27:42Z</time></trkpt><trkpt lat="44.682229408956644" lon="8.001443077374725"><ele>175.0</ele><time>2026-04-11T14:27:44Z</time></trkpt><trkpt lat="44.68216926037507" lon="8.001332252610512"><ele>175.0</ele><time>2026-04-11T14:27:46Z</time></trkpt><trkpt lat="44.68211054387578" lon="8.001211918096494"><ele>175.0</ele><time>2026-04-11T14:27:48Z</time></trkpt><trkpt lat="44.682052490363276" lon="8.001091189499279"><ele>175.0</ele><time>2026-04-11T14:27:50Z</time></trkpt><trkpt lat="44.68198499667153" lon="8.000971919744662"><ele>175.0</ele><time>2026-04-11T14:27:52Z</time></trkpt><trkpt lat="44.681951208565124" lon="8.000896459746258"><ele>175.0</ele><time>2026-04-11T14:27:53Z</time></trkpt><trkpt lat="44.681897708708604" lon="8.000772321128226"><ele>175.0</ele><time>2026-04-11T14:27:55Z</time></trkpt><trkpt lat="44.68186130834271" lon="8.00069796055168"><ele>175.0</ele><time>2026-04-11T14:27:56Z</time></trkpt><trkpt lat="44.68179875081512" lon="8.00057336448362"><ele>175.4</ele><time>2026-04-11T14:27:58Z</time></trkpt><trkpt lat="44.681738360572076" lon="8.000437710032282"><ele>175.8</ele><time>2026-04-11T14:28:00Z</time></trkpt><trkpt lat="44.68167019978613" lon="8.000310812781288"><ele>176.2</ele><time>2026-04-11T14:28:02Z</time></trkpt><trkpt lat="44.681614688479044" lon="8.000192234783553"><ele>176.6</ele><time>2026-04-11T14:28:04Z</time></trkpt><trkpt lat="44.6815609922914" lon="8.000071949031726"><ele>177.0</ele><time>2026-04-11T14:28:06Z</time></trkpt><trkpt lat="44.68150320366825" lon="7.9999609924871296"><ele>177.0</ele><time>2026-04-11T14:28:08Z</time></trkpt><trkpt lat="44.68145055246937" lon="7.999841828697922"><ele>177.0</ele><time>2026-04-11T14:28:10Z</time></trkpt><trkpt lat="44.6813930360173" lon="7.999723074742878"><ele>177.0</ele><time>2026-04-11T14:28:12Z</time></trkpt><trkpt lat="44.681331140223136" lon="7.99959481028688"><ele>177.0</ele><time>2026-04-11T14:28:14Z</time></trkpt><trkpt lat="44.68126742269484" lon="7.999460715745986"><ele>177.0</ele><time>2026-04-11T14:28:16Z</time></trkpt><trkpt lat="44.68120526907516" lon="7.999335388058016"><ele>177.0</ele><time>2026-04-11T14:28:18Z</time></trkpt><trkpt lat="44.68114130303344" lon="7.999208239952645"><ele>177.0</ele><time>2026-04-11T14:28:20Z</time></trkpt><trkpt lat="44.681076632657124" lon="7.999081337118761"><ele>177.0</ele><time>2026-04-11T14:28:22Z</time></trkpt><trkpt lat="44.681021672461675" lon="7.998963775373423"><ele>177.0</ele><time>2026-04-11T14:28:24Z</time></trkpt><trkpt lat="44.680964309345356" lon="7.998846122529146"><ele>177.0</ele><time>2026-04-11T14:28:26Z</time></trkpt><trkpt lat="44.68090776671638" lon="7.998727403225526"><ele>177.0</ele><time>2026-04-11T14:28:28Z</time></trkpt><trkpt lat="44.680846337759945" lon="7.998620384148262"><ele>177.0</ele><time>2026-04-11T14:28:30Z</time></trkpt><trkpt lat="44.68078487509534" lon="7.998499782805028"><ele>177.0</ele><time>2026-04-11T14:28:32Z</time></trkpt><trkpt lat="44.680720255845806" lon="7.9983634465731575"><ele>177.0</ele><time>2026-04-11T14:28:34Z</time></trkpt><trkpt lat="44.68065559006462" lon="7.998235508544418"><ele>177.0</ele><time>2026-04-11T14:28:36Z</time></trkpt><trkpt lat="44.680597855908815" lon="7.998098780732"><ele>177.0</ele><time>2026-04-11T14:28:38Z</time></trkpt><trkpt lat="44.68053758898465" lon="7.997966079890042"><ele>177.0</ele><time>2026-04-11T14:28:40Z</time></trkpt><trkpt lat="44.680470640433754" lon="7.997835314668512"><ele>177.0</ele><time>2026-04-11T14:28:42Z</time></trkpt><trkpt lat="44.68040921925091" lon="7.997704584352875"><ele>177.0</ele><time>2026-04-11T14:28:44Z</time></trkpt><trkpt lat="44.68035161584154" lon="7.997583107930648"><ele>177.0</ele><time>2026-04-11T14:28:46Z</time></trkpt><trkpt lat="44.68028418557058" lon="7.99745083009087"><ele>177.39999999999998</ele><time>2026-04-11T14:28:48Z</time></trkpt><trkpt lat="44.680222034360796" lon="7.997324397462044"><ele>177.79999999999998</ele><time>2026-04-11T14:28:50Z</time></trkpt><trkpt lat="44.68015768672649" lon="7.997185829733453"><ele>178.2</ele><time>2026-04-11T14:28:52Z</time></trkpt><trkpt lat="44.68009347651394" lon="7.997051601347787"><ele>178.6</ele><time>2026-04-11T14:28:54Z</time></trkpt><trkpt lat="44.680029864986416" lon="7.996931413921995"><ele>179.0</ele><time>2026-04-11T14:28:56Z</time></trkpt><trkpt lat="44.679978116156185" lon="7.996799505124275"><ele>179.0</ele><time>2026-04-11T14:28:58Z</time></trkpt><trkpt lat="44.6799122611132" lon="7.99667308619819"><ele>179.0</ele><time>2026-04-11T14:29:00Z</time></trkpt><trkpt lat="44.679849190800354" lon="7.996549732875556"><ele>179.0</ele><time>2026-04-11T14:29:02Z</time></trkpt><trkpt lat="44.67978041895621" lon="7.996413455835323"><ele>179.0</ele><time>2026-04-11T14:29:04Z</time></trkpt><trkpt lat="44.67974382393217" lon="7.996338215507655"><ele>179.0</ele><time>2026-04-11T14:29:05Z</time></trkpt><trkpt lat="44.679686940701615" lon="7.996235088665193"><ele>179.2</ele><time>2026-04-11T14:29:07Z</time></trkpt><trkpt lat="44.67963335574269" lon="7.9961408574300705"><ele>179.39999999999998</ele><time>2026-04-11T14:29:09Z</time></trkpt><trkpt lat="44.67959653982127" lon="7.996058626619073"><ele>179.6</ele><time>2026-04-11T14:29:10Z</time></trkpt><trkpt lat="44.67953470460248" lon="7.995945241538911"><ele>179.8</ele><time>2026-04-11T14:29:12Z</time></trkpt><trkpt lat="44.67947465061989" lon="7.995805543367703"><ele>180.0</ele><time>2026-04-11T14:29:14Z</time></trkpt><trkpt lat="44.67941373379341" lon="7.995673163884021"><ele>180.2</ele><time>2026-04-11T14:29:16Z</time></trkpt><trkpt lat="44.67934508859835" lon="7.995570525292618"><ele>180.4</ele><time>2026-04-11T14:29:18Z</time></trkpt><trkpt lat="44.67930515413046" lon="7.995457768679493"><ele>180.60000000000002</ele><time>2026-04-11T14:29:20Z</time></trkpt><trkpt lat="44.67924584774569" lon="7.9953478108265115"><ele>180.8</ele><time>2026-04-11T14:29:22Z</time></trkpt><trkpt lat="44.67919093665572" lon="7.995228121378522"><ele>181.0</ele><time>2026-04-11T14:29:24Z</time></trkpt><trkpt lat="44.679138933816965" lon="7.995114580770107"><ele>181.0</ele><time>2026-04-11T14:29:26Z</time></trkpt><trkpt lat="44.679082646841664" lon="7.994982226311439"><ele>181.0</ele><time>2026-04-11T14:29:28Z</time></trkpt><trkpt lat="44.67902001691584" lon="7.994854553996875"><ele>181.0</ele><time>2026-04-11T14:29:30Z</time></trkpt><trkpt lat="44.67896084526996" lon="7.994713885034827"><ele>181.0</ele><time>2026-04-11T14:29:32Z</time></trkpt><trkpt lat="44.678895792889755" lon="7.994588780816806"><ele>181.0</ele><time>2026-04-11T14:29:34Z</time></trkpt><trkpt lat="44.67883584119698" lon="7.994466595017233"><ele>181.0</ele><time>2026-04-11T14:29:36Z</time></trkpt><trkpt lat="44.67877511115738" lon="7.994341292051285"><ele>181.0</ele><time>2026-04-11T14:29:37.999Z</time></trkpt><trkpt lat="44.678738855639295" lon="7.994268547036233"><ele>181.0</ele><time>2026-04-11T14:29:38.999Z</time></trkpt><trkpt lat="44.67868863370386" lon="7.994169122910769"><ele>181.0</ele><time>2026-04-11T14:29:40.999Z</time></trkpt><trkpt lat="44.67862410897049" lon="7.994031218101477"><ele>181.0</ele><time>2026-04-11T14:29:42.999Z</time></trkpt><trkpt lat="44.67856883447745" lon="7.993904670558373"><ele>180.8</ele><time>2026-04-11T14:29:44.999Z</time></trkpt><trkpt lat="44.678506570341014" lon="7.993776324676597"><ele>180.60000000000002</ele><time>2026-04-11T14:29:46.999Z</time></trkpt><trkpt lat="44.67844593942062" lon="7.9936530165747195"><ele>180.4</ele><time>2026-04-11T14:29:48.999Z</time></trkpt><trkpt lat="44.678384732835326" lon="7.993530842958434"><ele>180.2</ele><time>2026-04-11T14:29:50.999Z</time></trkpt><trkpt lat="44.678325954607686" lon="7.993415507670673"><ele>180.0</ele><time>2026-04-11T14:29:52.999Z</time></trkpt><trkpt lat="44.67826471411307" lon="7.993293797101658"><ele>179.6</ele><time>2026-04-11T14:29:55Z</time></trkpt><trkpt lat="44.67820374179627" lon="7.99318462725614"><ele>179.2</ele><time>2026-04-11T14:29:57Z</time></trkpt><trkpt lat="44.67814929094038" lon="7.9930609158466694"><ele>178.8</ele><time>2026-04-11T14:29:59Z</time></trkpt><trkpt lat="44.6780848865966" lon="7.992944086968625"><ele>178.4</ele><time>2026-04-11T14:30:01Z</time></trkpt><trkpt lat="44.67802473673925" lon="7.9928213612465875"><ele>178.0</ele><time>2026-04-11T14:30:03Z</time></trkpt><trkpt lat="44.67795991389484" lon="7.992684814725561"><ele>178.0</ele><time>2026-04-11T14:30:05Z</time></trkpt><trkpt lat="44.67789602419414" lon="7.992581883635746"><ele>178.0</ele><time>2026-04-11T14:30:07Z</time></trkpt><trkpt lat="44.67783302199283" lon="7.992470451836263"><ele>178.0</ele><time>2026-04-11T14:30:09Z</time></trkpt><trkpt lat="44.67778205094519" lon="7.9923622395291956"><ele>178.0</ele><time>2026-04-11T14:30:11Z</time></trkpt><trkpt lat="44.67771653883321" lon="7.992256717679363"><ele>178.0</ele><time>2026-04-11T14:30:13Z</time></trkpt><trkpt lat="44.67764682832295" lon="7.992131647480729"><ele>178.0</ele><time>2026-04-11T14:30:15Z</time></trkpt><trkpt lat="44.677583579922036" lon="7.992008901262874"><ele>178.0</ele><time>2026-04-11T14:30:17Z</time></trkpt><trkpt lat="44.67751965777889" lon="7.9918839368702335"><ele>178.0</ele><time>2026-04-11T14:30:19Z</time></trkpt><trkpt lat="44.67744270310392" lon="7.991766777663629"><ele>178.0</ele><time>2026-04-11T14:30:21Z</time></trkpt><trkpt lat="44.677375674200455" lon="7.991636527984506"><ele>178.0</ele><time>2026-04-11T14:30:23Z</time></trkpt><trkpt lat="44.67730832487827" lon="7.991506505523325"><ele>178.0</ele><time>2026-04-11T14:30:25Z</time></trkpt><trkpt lat="44.677257541165766" lon="7.991396485513774"><ele>178.0</ele><time>2026-04-11T14:30:27Z</time></trkpt><trkpt lat="44.67718926913567" lon="7.991283444872832"><ele>178.0</ele><time>2026-04-11T14:30:29Z</time></trkpt><trkpt lat="44.67712654387465" lon="7.991163756717324"><ele>178.0</ele><time>2026-04-11T14:30:31Z</time></trkpt><trkpt lat="44.67706364385765" lon="7.991066542603616"><ele>178.0</ele><time>2026-04-11T14:30:33Z</time></trkpt><trkpt lat="44.677008690927394" lon="7.990981185793512"><ele>178.0</ele><time>2026-04-11T14:30:35Z</time></trkpt><trkpt lat="44.67696987720453" lon="7.990900458491247"><ele>178.0</ele><time>2026-04-11T14:30:37Z</time></trkpt><trkpt lat="44.67692415279429" lon="7.990804466854223"><ele>178.0</ele><time>2026-04-11T14:30:40Z</time></trkpt><trkpt lat="44.67687655610636" lon="7.990716997713837"><ele>178.0</ele><time>2026-04-11T14:30:42Z</time></trkpt><trkpt lat="44.67684198307421" lon="7.990610238961966"><ele>178.0</ele><time>2026-04-11T14:30:44Z</time></trkpt><trkpt lat="44.676835461063874" lon="7.990518767690182"><ele>178.0</ele><time>2026-04-11T14:30:46Z</time></trkpt><trkpt lat="44.67681039836319" lon="7.990410453021422"><ele>178.60000000000002</ele><time>2026-04-11T14:30:48Z</time></trkpt><trkpt lat="44.67673670288106" lon="7.990322292936486"><ele>179.20000000000002</ele><time>2026-04-11T14:30:50Z</time></trkpt><trkpt lat="44.6766431232702" lon="7.990280504459328"><ele>179.8</ele><time>2026-04-11T14:30:52Z</time></trkpt><trkpt lat="44.6765474543765" lon="7.990266880003502"><ele>180.4</ele><time>2026-04-11T14:30:54Z</time></trkpt><trkpt lat="44.676455630004284" lon="7.990214921215948"><ele>181.0</ele><time>2026-04-11T14:30:56Z</time></trkpt><trkpt lat="44.67637743107545" lon="7.990157206291553"><ele>181.0</ele><time>2026-04-11T14:30:58Z</time></trkpt><trkpt lat="44.676282014892585" lon="7.990084559830898"><ele>181.0</ele><time>2026-04-11T14:31:00Z</time></trkpt><trkpt lat="44.676195552540534" lon="7.99001840609455"><ele>181.0</ele><time>2026-04-11T14:31:02Z</time></trkpt><trkpt lat="44.67611043537274" lon="7.989967891031624"><ele>181.0</ele><time>2026-04-11T14:31:04Z</time></trkpt><trkpt lat="44.67601891429678" lon="7.98991252685964"><ele>181.0</ele><time>2026-04-11T14:31:06Z</time></trkpt><trkpt lat="44.67592395343546" lon="7.989849953996948"><ele>181.16666666666669</ele><time>2026-04-11T14:31:08Z</time></trkpt><trkpt lat="44.675830121296414" lon="7.9897912464596885"><ele>181.33333333333334</ele><time>2026-04-11T14:31:10Z</time></trkpt><trkpt lat="44.67575693177275" lon="7.98974588645679"><ele>181.5</ele><time>2026-04-11T14:31:12Z</time></trkpt><trkpt lat="44.675679661358224" lon="7.989698373393937"><ele>181.66666666666666</ele><time>2026-04-11T14:31:14Z</time></trkpt><trkpt lat="44.67561789458986" lon="7.98965841333102"><ele>181.83333333333331</ele><time>2026-04-11T14:31:16Z</time></trkpt><trkpt lat="44.67555067672463" lon="7.989618108979215"><ele>182.0</ele><time>2026-04-11T14:31:18Z</time></trkpt><trkpt lat="44.675490156091506" lon="7.989574347619311"><ele>182.0</ele><time>2026-04-11T14:31:20Z</time></trkpt><trkpt lat="44.675496833747665" lon="7.989473016675051"><ele>182.0</ele><time>2026-04-11T14:34:57Z</time></trkpt><trkpt lat="44.67542665799329" lon="7.989502202109717"><ele>182.0</ele><time>2026-04-11T14:36:33Z</time></trkpt><trkpt lat="44.67536707058804" lon="7.989472303202667"><ele>182.0</ele><time>2026-04-11T14:36:36Z</time></trkpt><trkpt lat="44.67530653894289" lon="7.989437611052055"><ele>182.0</ele><time>2026-04-11T14:36:38Z</time></trkpt><trkpt lat="44.67524505566317" lon="7.989403168109585"><ele>182.0</ele><time>2026-04-11T14:36:40Z</time></trkpt><trkpt lat="44.675183104723075" lon="7.989366667722774"><ele>182.0</ele><time>2026-04-11T14:36:42Z</time></trkpt><trkpt lat="44.675120833059054" lon="7.989328623281949"><ele>182.16666666666666</ele><time>2026-04-11T14:36:44Z</time></trkpt><trkpt lat="44.675037788411515" lon="7.989285714864778"><ele>182.33333333333331</ele><time>2026-04-11T14:36:46Z</time></trkpt><trkpt lat="44.6749656226853" lon="7.989239152089997"><ele>182.5</ele><time>2026-04-11T14:36:48Z</time></trkpt><trkpt lat="44.67488896335329" lon="7.989192865644781"><ele>182.66666666666666</ele><time>2026-04-11T14:36:50Z</time></trkpt><trkpt lat="44.67480331626832" lon="7.9891524108310845"><ele>182.83333333333334</ele><time>2026-04-11T14:36:52Z</time></trkpt><trkpt lat="44.67472115862333" lon="7.98911497932109"><ele>183.0</ele><time>2026-04-11T14:36:54Z</time></trkpt><trkpt lat="44.674635012400415" lon="7.989083714705915"><ele>183.0</ele><time>2026-04-11T14:36:56Z</time></trkpt><trkpt lat="44.67454295544683" lon="7.989056698324326"><ele>183.0</ele><time>2026-04-11T14:36:58Z</time></trkpt><trkpt lat="44.67445112702918" lon="7.989033903766551"><ele>183.0</ele><time>2026-04-11T14:37:00Z</time></trkpt><trkpt lat="44.674360378640294" lon="7.989011730753171"><ele>183.0</ele><time>2026-04-11T14:37:02Z</time></trkpt><trkpt lat="44.674259473862186" lon="7.98899935415467"><ele>183.0</ele><time>2026-04-11T14:37:04Z</time></trkpt><trkpt lat="44.674160741614784" lon="7.988992496050676"><ele>183.2</ele><time>2026-04-11T14:37:06Z</time></trkpt><trkpt lat="44.67406127978055" lon="7.988983119691774"><ele>183.4</ele><time>2026-04-11T14:37:08Z</time></trkpt><trkpt lat="44.673961596816326" lon="7.988977155207231"><ele>183.6</ele><time>2026-04-11T14:37:10Z</time></trkpt><trkpt lat="44.67386396204117" lon="7.98897644894232"><ele>183.79999999999998</ele><time>2026-04-11T14:37:12Z</time></trkpt><trkpt lat="44.6737603529678" lon="7.988970832664553"><ele>184.0</ele><time>2026-04-11T14:37:14Z</time></trkpt><trkpt lat="44.673657499553286" lon="7.988974788440483"><ele>183.6</ele><time>2026-04-11T14:37:16Z</time></trkpt><trkpt lat="44.673553866762866" lon="7.988967751064949"><ele>183.2</ele><time>2026-04-11T14:37:18Z</time></trkpt><trkpt lat="44.67344856768395" lon="7.988967570706026"><ele>182.79999999999998</ele><time>2026-04-11T14:37:20Z</time></trkpt><trkpt lat="44.67333612903391" lon="7.98897793340246"><ele>182.39999999999998</ele><time>2026-04-11T14:37:22Z</time></trkpt><trkpt lat="44.6732409034318" lon="7.988957953114821"><ele>182.0</ele><time>2026-04-11T14:37:24Z</time></trkpt><trkpt lat="44.67313547262202" lon="7.988949314770628"><ele>182.0</ele><time>2026-04-11T14:37:26Z</time></trkpt><trkpt lat="44.6730352531805" lon="7.988928768361207"><ele>182.0</ele><time>2026-04-11T14:37:28Z</time></trkpt><trkpt lat="44.67293264352041" lon="7.988899265283098"><ele>182.0</ele><time>2026-04-11T14:37:30Z</time></trkpt><trkpt lat="44.67284308620623" lon="7.9888659672912485"><ele>182.0</ele><time>2026-04-11T14:37:32Z</time></trkpt><trkpt lat="44.672755699172626" lon="7.9888243268099535"><ele>182.0</ele><time>2026-04-11T14:37:34Z</time></trkpt><trkpt lat="44.67266697378492" lon="7.988783830589207"><ele>182.0</ele><time>2026-04-11T14:37:36Z</time></trkpt><trkpt lat="44.67258071194405" lon="7.988735470403056"><ele>182.0</ele><time>2026-04-11T14:37:38Z</time></trkpt><trkpt lat="44.67249351491326" lon="7.988680447072876"><ele>182.0</ele><time>2026-04-11T14:37:40Z</time></trkpt><trkpt lat="44.67241065223399" lon="7.988628579731491"><ele>182.0</ele><time>2026-04-11T14:37:42Z</time></trkpt><trkpt lat="44.6723217757668" lon="7.988583738480381"><ele>182.0</ele><time>2026-04-11T14:37:44Z</time></trkpt><trkpt lat="44.672231022238165" lon="7.988535654659139"><ele>182.0</ele><time>2026-04-11T14:37:46Z</time></trkpt><trkpt lat="44.672131030018846" lon="7.988492293049526"><ele>182.0</ele><time>2026-04-11T14:37:48Z</time></trkpt><trkpt lat="44.67204036148371" lon="7.988442247046257"><ele>182.0</ele><time>2026-04-11T14:37:50Z</time></trkpt><trkpt lat="44.671942635095135" lon="7.988382101204937"><ele>182.0</ele><time>2026-04-11T14:37:51.999Z</time></trkpt><trkpt lat="44.67184030600856" lon="7.988320027285734"><ele>182.0</ele><time>2026-04-11T14:37:53.999Z</time></trkpt><trkpt lat="44.671749325392796" lon="7.988249679603437"><ele>182.6</ele><time>2026-04-11T14:37:55.999Z</time></trkpt><trkpt lat="44.67165700732941" lon="7.988174129535431"><ele>183.2</ele><time>2026-04-11T14:37:57.999Z</time></trkpt><trkpt lat="44.671579053126194" lon="7.988102623489165"><ele>183.8</ele><time>2026-04-11T14:37:59.999Z</time></trkpt><trkpt lat="44.67150416808851" lon="7.9880255426980655"><ele>184.4</ele><time>2026-04-11T14:38:01.999Z</time></trkpt><trkpt lat="44.67142253654122" lon="7.9879458636482"><ele>185.0</ele><time>2026-04-11T14:38:03.999Z</time></trkpt><trkpt lat="44.67134415488898" lon="7.987858063599201"><ele>185.0</ele><time>2026-04-11T14:38:05.999Z</time></trkpt><trkpt lat="44.671289754085926" lon="7.987806051696086"><ele>185.0</ele><time>2026-04-11T14:38:06.999Z</time></trkpt><trkpt lat="44.67120218849127" lon="7.987730792470728"><ele>185.0</ele><time>2026-04-11T14:38:08.999Z</time></trkpt><trkpt lat="44.67109685946893" lon="7.987660021966659"><ele>185.0</ele><time>2026-04-11T14:38:10.999Z</time></trkpt><trkpt lat="44.67099207996515" lon="7.987607103199478"><ele>185.0</ele><time>2026-04-11T14:38:12.999Z</time></trkpt><trkpt lat="44.6708743858133" lon="7.987555151973016"><ele>184.66666666666666</ele><time>2026-04-11T14:38:14.999Z</time></trkpt><trkpt lat="44.670755625066114" lon="7.987498753792578"><ele>184.33333333333331</ele><time>2026-04-11T14:38:16.999Z</time></trkpt><trkpt lat="44.67069458173654" lon="7.987475322765158"><ele>184.0</ele><time>2026-04-11T14:38:18Z</time></trkpt><trkpt lat="44.67062497851959" lon="7.987448193959824"><ele>183.66666666666666</ele><time>2026-04-11T14:38:19Z</time></trkpt><trkpt lat="44.67051831791393" lon="7.98739759387959"><ele>183.33333333333334</ele><time>2026-04-11T14:38:21Z</time></trkpt><trkpt lat="44.67045013432084" lon="7.987368516865207"><ele>183.0</ele><time>2026-04-11T14:38:22Z</time></trkpt><trkpt lat="44.67035660539755" lon="7.987337599512132"><ele>183.0</ele><time>2026-04-11T14:38:24Z</time></trkpt><trkpt lat="44.6702886980451" lon="7.987307087460445"><ele>183.0</ele><time>2026-04-11T14:38:25Z</time></trkpt><trkpt lat="44.67021833453545" lon="7.9872816617965885"><ele>183.0</ele><time>2026-04-11T14:38:26Z</time></trkpt><trkpt lat="44.67010949472081" lon="7.987234098180074"><ele>183.0</ele><time>2026-04-11T14:38:28Z</time></trkpt><trkpt lat="44.67004805716519" lon="7.987207322841411"><ele>183.0</ele><time>2026-04-11T14:38:29Z</time></trkpt><trkpt lat="44.669981241412884" lon="7.987185686313321"><ele>183.0</ele><time>2026-04-11T14:38:30Z</time></trkpt><trkpt lat="44.669864724764736" lon="7.987140516080592"><ele>183.5</ele><time>2026-04-11T14:38:32Z</time></trkpt><trkpt lat="44.6697457495825" lon="7.987127536159469"><ele>184.0</ele><time>2026-04-11T14:38:34Z</time></trkpt><trkpt lat="44.66962655977391" lon="7.987107583094651"><ele>184.5</ele><time>2026-04-11T14:38:36Z</time></trkpt><trkpt lat="44.66951002640504" lon="7.987090564025261"><ele>185.0</ele><time>2026-04-11T14:38:38Z</time></trkpt><trkpt lat="44.66939297026272" lon="7.987067799199283"><ele>185.25</ele><time>2026-04-11T14:38:40Z</time></trkpt><trkpt lat="44.669268536201656" lon="7.987048766237398"><ele>185.5</ele><time>2026-04-11T14:38:42Z</time></trkpt><trkpt lat="44.66914912733709" lon="7.98703338718146"><ele>185.75</ele><time>2026-04-11T14:38:44Z</time></trkpt><trkpt lat="44.66903054279203" lon="7.987004052906008"><ele>186.0</ele><time>2026-04-11T14:38:46Z</time></trkpt><trkpt lat="44.668909969212386" lon="7.986980866632484"><ele>186.0</ele><time>2026-04-11T14:38:48Z</time></trkpt><trkpt lat="44.66879045374454" lon="7.986954229748805"><ele>186.0</ele><time>2026-04-11T14:38:50Z</time></trkpt><trkpt lat="44.6686750776337" lon="7.986915828829109"><ele>186.0</ele><time>2026-04-11T14:38:52Z</time></trkpt><trkpt lat="44.668566805515475" lon="7.986857554544716"><ele>186.0</ele><time>2026-04-11T14:38:54Z</time></trkpt><trkpt lat="44.668485157153974" lon="7.986806491344347"><ele>186.0</ele><time>2026-04-11T14:38:56Z</time></trkpt><trkpt lat="44.66841795859501" lon="7.986766547492287"><ele>186.16666666666666</ele><time>2026-04-11T14:38:58Z</time></trkpt><trkpt lat="44.668357762918035" lon="7.986711138200186"><ele>186.33333333333334</ele><time>2026-04-11T14:39:00Z</time></trkpt><trkpt lat="44.668279952899475" lon="7.986646334780985"><ele>186.5</ele><time>2026-04-11T14:39:02Z</time></trkpt><trkpt lat="44.66822206217161" lon="7.9865962250998725"><ele>186.66666666666669</ele><time>2026-04-11T14:39:05Z</time></trkpt><trkpt lat="44.66816612076968" lon="7.986533288598938"><ele>186.83333333333334</ele><time>2026-04-11T14:39:24Z</time></trkpt><trkpt lat="44.668108714783294" lon="7.986582907165128"><ele>187.0</ele><time>2026-04-11T14:39:27Z</time></trkpt><trkpt lat="44.66808996788931" lon="7.986712824579287"><ele>187.39999999999998</ele><time>2026-04-11T14:39:29Z</time></trkpt><trkpt lat="44.668057143285246" lon="7.986833322730928"><ele>187.79999999999998</ele><time>2026-04-11T14:39:31Z</time></trkpt><trkpt lat="44.66800951355885" lon="7.986959435375417"><ele>188.2</ele><time>2026-04-11T14:39:33Z</time></trkpt><trkpt lat="44.667940321580815" lon="7.98706894224723"><ele>188.6</ele><time>2026-04-11T14:39:35Z</time></trkpt><trkpt lat="44.66788541446487" lon="7.987171116113945"><ele>189.0</ele><time>2026-04-11T14:39:37Z</time></trkpt><trkpt lat="44.667838397407934" lon="7.987264914027153"><ele>189.0</ele><time>2026-04-11T14:39:39Z</time></trkpt><trkpt lat="44.66778946135422" lon="7.987368014253284"><ele>189.0</ele><time>2026-04-11T14:39:41Z</time></trkpt><trkpt lat="44.667740478604244" lon="7.987447452056901"><ele>189.0</ele><time>2026-04-11T14:39:43Z</time></trkpt><trkpt lat="44.66769043872092" lon="7.987534230093043"><ele>189.0</ele><time>2026-04-11T14:39:45Z</time></trkpt><trkpt lat="44.66764837504663" lon="7.9876241591464705"><ele>189.0</ele><time>2026-04-11T14:39:46.999Z</time></trkpt><trkpt lat="44.667589410987276" lon="7.987713992166758"><ele>189.0</ele><time>2026-04-11T14:39:48.999Z</time></trkpt><trkpt lat="44.667545373397004" lon="7.98782487651754"><ele>189.0</ele><time>2026-04-11T14:39:50.999Z</time></trkpt><trkpt lat="44.66748994289046" lon="7.987926106788459"><ele>189.0</ele><time>2026-04-11T14:39:52.999Z</time></trkpt><trkpt lat="44.66743918667732" lon="7.988026589913719"><ele>189.0</ele><time>2026-04-11T14:39:54.999Z</time></trkpt><trkpt lat="44.667376207369806" lon="7.988130567203488"><ele>189.0</ele><time>2026-04-11T14:39:56.999Z</time></trkpt><trkpt lat="44.667313384472834" lon="7.988250024950246"><ele>189.0</ele><time>2026-04-11T14:39:58.999Z</time></trkpt><trkpt lat="44.667254716510726" lon="7.988351295754795"><ele>189.0</ele><time>2026-04-11T14:40:00.999Z</time></trkpt><trkpt lat="44.66719713329224" lon="7.988450397496758"><ele>189.0</ele><time>2026-04-11T14:40:02.999Z</time></trkpt><trkpt lat="44.66713897135849" lon="7.98854766148203"><ele>189.0</ele><time>2026-04-11T14:40:04.999Z</time></trkpt><trkpt lat="44.6670791693731" lon="7.98867153554009"><ele>189.0</ele><time>2026-04-11T14:40:06.999Z</time></trkpt><trkpt lat="44.66702066797352" lon="7.988772821252772"><ele>189.0</ele><time>2026-04-11T14:40:08.999Z</time></trkpt><trkpt lat="44.666960645826414" lon="7.988876702079069"><ele>189.0</ele><time>2026-04-11T14:40:10.999Z</time></trkpt><trkpt lat="44.66689685127907" lon="7.988976721744096"><ele>189.0</ele><time>2026-04-11T14:40:12.999Z</time></trkpt><trkpt lat="44.666832357959684" lon="7.989092535514928"><ele>189.0</ele><time>2026-04-11T14:40:14.999Z</time></trkpt><trkpt lat="44.666767128864926" lon="7.989193308632041"><ele>189.0</ele><time>2026-04-11T14:40:16.999Z</time></trkpt><trkpt lat="44.666695005440694" lon="7.989286310868156"><ele>189.0</ele><time>2026-04-11T14:40:18.999Z</time></trkpt><trkpt lat="44.666632729236085" lon="7.989391748511852"><ele>188.79999999999998</ele><time>2026-04-11T14:40:20.999Z</time></trkpt><trkpt lat="44.66656231091142" lon="7.989485702851699"><ele>188.6</ele><time>2026-04-11T14:40:22.999Z</time></trkpt><trkpt lat="44.666495556930414" lon="7.989577394379442"><ele>188.4</ele><time>2026-04-11T14:40:25Z</time></trkpt><trkpt lat="44.666425995938845" lon="7.989647222592509"><ele>188.2</ele><time>2026-04-11T14:40:27Z</time></trkpt><trkpt lat="44.66635528410404" lon="7.989750981834048"><ele>188.0</ele><time>2026-04-11T14:40:29Z</time></trkpt><trkpt lat="44.66628564789767" lon="7.989851504652124"><ele>188.0</ele><time>2026-04-11T14:40:31Z</time></trkpt><trkpt lat="44.666211666266605" lon="7.989934648703629"><ele>188.0</ele><time>2026-04-11T14:40:33Z</time></trkpt><trkpt lat="44.66613959967761" lon="7.990029035839905"><ele>188.0</ele><time>2026-04-11T14:40:35Z</time></trkpt><trkpt lat="44.666068982918134" lon="7.990121919896925"><ele>188.0</ele><time>2026-04-11T14:40:37Z</time></trkpt><trkpt lat="44.66599999068633" lon="7.990205001000916"><ele>188.0</ele><time>2026-04-11T14:40:39Z</time></trkpt><trkpt lat="44.66593035343951" lon="7.990291102610843"><ele>188.0</ele><time>2026-04-11T14:40:41Z</time></trkpt><trkpt lat="44.66585965922223" lon="7.9903729694772965"><ele>188.0</ele><time>2026-04-11T14:40:43Z</time></trkpt><trkpt lat="44.6657937791337" lon="7.990469706589338"><ele>188.0</ele><time>2026-04-11T14:40:45Z</time></trkpt><trkpt lat="44.66573261594905" lon="7.990554778775808"><ele>188.0</ele><time>2026-04-11T14:40:47Z</time></trkpt><trkpt lat="44.66567619872312" lon="7.990633887576525"><ele>188.0</ele><time>2026-04-11T14:40:49Z</time></trkpt><trkpt lat="44.66561472153376" lon="7.990670418845991"><ele>188.0</ele><time>2026-04-11T14:40:51Z</time></trkpt><trkpt lat="44.6655852228456" lon="7.990568643194011"><ele>188.0</ele><time>2026-04-11T14:40:53Z</time></trkpt><trkpt lat="44.66555650956496" lon="7.990455987386692"><ele>188.0</ele><time>2026-04-11T14:40:55Z</time></trkpt><trkpt lat="44.665504545353265" lon="7.9903378325707175"><ele>188.0</ele><time>2026-04-11T14:40:58Z</time></trkpt><trkpt lat="44.66546568545814" lon="7.990221384681689"><ele>188.0</ele><time>2026-04-11T14:41:00Z</time></trkpt><trkpt lat="44.665415229097114" lon="7.9901106022371815"><ele>188.0</ele><time>2026-04-11T14:41:02Z</time></trkpt><trkpt lat="44.665359983381464" lon="7.990012950725013"><ele>188.16666666666666</ele><time>2026-04-11T14:41:04Z</time></trkpt><trkpt lat="44.665311231395506" lon="7.989904345505243"><ele>188.33333333333331</ele><time>2026-04-11T14:41:06Z</time></trkpt><trkpt lat="44.665273674126965" lon="7.989779312627624"><ele>188.5</ele><time>2026-04-11T14:41:08Z</time></trkpt><trkpt lat="44.665216763862304" lon="7.989678091674751"><ele>188.66666666666666</ele><time>2026-04-11T14:41:10Z</time></trkpt><trkpt lat="44.66514448638889" lon="7.989597098006091"><ele>188.83333333333334</ele><time>2026-04-11T14:41:12Z</time></trkpt><trkpt lat="44.66509662869072" lon="7.989527663876482"><ele>189.0</ele><time>2026-04-11T14:41:14Z</time></trkpt><trkpt lat="44.665018860727855" lon="7.989456238214963"><ele>189.16666666666666</ele><time>2026-04-11T14:41:16Z</time></trkpt><trkpt lat="44.664954424568336" lon="7.989402243844688"><ele>189.33333333333334</ele><time>2026-04-11T14:41:18Z</time></trkpt><trkpt lat="44.66487784116217" lon="7.989345767833357"><ele>189.5</ele><time>2026-04-11T14:41:20Z</time></trkpt><trkpt lat="44.66480537256004" lon="7.989288363192473"><ele>189.66666666666669</ele><time>2026-04-11T14:41:22Z</time></trkpt><trkpt lat="44.664725697653786" lon="7.989229366422839"><ele>189.83333333333334</ele><time>2026-04-11T14:41:24Z</time></trkpt><trkpt lat="44.66465539277931" lon="7.9891661029651235"><ele>190.0</ele><time>2026-04-11T14:41:26Z</time></trkpt><trkpt lat="44.66456929174958" lon="7.989110566404104"><ele>190.0</ele><time>2026-04-11T14:41:28Z</time></trkpt><trkpt lat="44.66448860730555" lon="7.989056704257751"><ele>190.0</ele><time>2026-04-11T14:41:30Z</time></trkpt><trkpt lat="44.664412917882714" lon="7.989003303197589"><ele>190.0</ele><time>2026-04-11T14:41:32Z</time></trkpt><trkpt lat="44.66433447452736" lon="7.988957284353178"><ele>190.0</ele><time>2026-04-11T14:41:34Z</time></trkpt><trkpt lat="44.664260681214536" lon="7.988909138199951"><ele>190.0</ele><time>2026-04-11T14:41:36Z</time></trkpt><trkpt lat="44.66417324605423" lon="7.988872812344625"><ele>190.0</ele><time>2026-04-11T14:41:38Z</time></trkpt><trkpt lat="44.6641041723162" lon="7.988834843275239"><ele>190.5</ele><time>2026-04-11T14:41:40Z</time></trkpt><trkpt lat="44.66402889142288" lon="7.98878423812264"><ele>191.0</ele><time>2026-04-11T14:41:42Z</time></trkpt><trkpt lat="44.66395598606608" lon="7.9887257573613955"><ele>191.5</ele><time>2026-04-11T14:41:44Z</time></trkpt><trkpt lat="44.663886519959455" lon="7.988645565331685"><ele>192.0</ele><time>2026-04-11T14:41:46Z</time></trkpt><trkpt lat="44.66381780354439" lon="7.988561127034982"><ele>192.49999999999997</ele><time>2026-04-11T14:41:47.999Z</time></trkpt><trkpt lat="44.663753504899084" lon="7.988474795876555"><ele>193.0</ele><time>2026-04-11T14:41:49.999Z</time></trkpt><trkpt lat="44.66368599555658" lon="7.988373142646922"><ele>192.8</ele><time>2026-04-11T14:41:51.999Z</time></trkpt><trkpt lat="44.663625901494136" lon="7.988283627701522"><ele>192.60000000000002</ele><time>2026-04-11T14:41:53.999Z</time></trkpt><trkpt lat="44.66355176065249" lon="7.988195151239501"><ele>192.39999999999998</ele><time>2026-04-11T14:41:55.999Z</time></trkpt><trkpt lat="44.66348155124726" lon="7.988123239686375"><ele>192.2</ele><time>2026-04-11T14:41:57.999Z</time></trkpt><trkpt lat="44.66340552980666" lon="7.9880442369719304"><ele>192.0</ele><time>2026-04-11T14:41:59.999Z</time></trkpt><trkpt lat="44.66334990342332" lon="7.987950547854167"><ele>192.0</ele><time>2026-04-11T14:42:01.999Z</time></trkpt><trkpt lat="44.663315203222155" lon="7.987842023650611"><ele>192.0</ele><time>2026-04-11T14:42:03.999Z</time></trkpt><trkpt lat="44.66327234992791" lon="7.9877590707241"><ele>192.0</ele><time>2026-04-11T14:42:05.999Z</time></trkpt><trkpt lat="44.66318716506461" lon="7.987813491824657"><ele>192.0</ele><time>2026-04-11T14:42:10.999Z</time></trkpt><trkpt lat="44.66313548465277" lon="7.987897189880184"><ele>192.0</ele><time>2026-04-11T14:42:13.999Z</time></trkpt><trkpt lat="44.66307552047794" lon="7.987972462783934"><ele>192.0</ele><time>2026-04-11T14:42:16.999Z</time></trkpt><trkpt lat="44.663009847834054" lon="7.988053720290609"><ele>192.0</ele><time>2026-04-11T14:42:19.999Z</time></trkpt><trkpt lat="44.66295533522503" lon="7.98812581913932"><ele>192.0</ele><time>2026-04-11T14:42:22.999Z</time></trkpt><trkpt lat="44.6629162588558" lon="7.988196899948395"><ele>192.0</ele><time>2026-04-11T14:42:24.999Z</time></trkpt><trkpt lat="44.66286457036168" lon="7.988272718244474"><ele>192.0</ele><time>2026-04-11T14:42:26.999Z</time></trkpt><trkpt lat="44.66281108085062" lon="7.98833444748679"><ele>192.0</ele><time>2026-04-11T14:42:28.999Z</time></trkpt><trkpt lat="44.662735541077915" lon="7.988420068466145"><ele>192.0</ele><time>2026-04-11T14:42:32Z</time></trkpt><trkpt lat="44.662678675551525" lon="7.9885037767964935"><ele>192.16666666666666</ele><time>2026-04-11T14:42:34Z</time></trkpt><trkpt lat="44.66262158967132" lon="7.988569043113989"><ele>192.33333333333331</ele><time>2026-04-11T14:42:36Z</time></trkpt><trkpt lat="44.66255843050721" lon="7.988651270678007"><ele>192.5</ele><time>2026-04-11T14:42:38Z</time></trkpt><trkpt lat="44.66249692604218" lon="7.988742130228638"><ele>192.66666666666666</ele><time>2026-04-11T14:42:40Z</time></trkpt><trkpt lat="44.66243240435533" lon="7.988826876966104"><ele>192.83333333333331</ele><time>2026-04-11T14:42:42Z</time></trkpt><trkpt lat="44.66237821142271" lon="7.988916155174344"><ele>193.0</ele><time>2026-04-11T14:42:44Z</time></trkpt><trkpt lat="44.66232187488671" lon="7.988990193972999"><ele>192.99999999999997</ele><time>2026-04-11T14:42:46Z</time></trkpt><trkpt lat="44.66226384182812" lon="7.9890741475795775"><ele>193.0</ele><time>2026-04-11T14:42:48Z</time></trkpt><trkpt lat="44.662204331479806" lon="7.98916057222211"><ele>193.0</ele><time>2026-04-11T14:42:50Z</time></trkpt><trkpt lat="44.66214482589145" lon="7.989237522466202"><ele>193.0</ele><time>2026-04-11T14:42:52Z</time></trkpt><trkpt lat="44.66208657565344" lon="7.989332228226073"><ele>192.99999999999997</ele><time>2026-04-11T14:42:54Z</time></trkpt><trkpt lat="44.66202793071738" lon="7.989418256164139"><ele>193.0</ele><time>2026-04-11T14:42:56Z</time></trkpt><trkpt lat="44.66197134148157" lon="7.989498423630556"><ele>193.16666666666666</ele><time>2026-04-11T14:42:58Z</time></trkpt><trkpt lat="44.66191177211525" lon="7.98958866015486"><ele>193.33333333333331</ele><time>2026-04-11T14:43:00Z</time></trkpt><trkpt lat="44.66186383631934" lon="7.989670169487097"><ele>193.5</ele><time>2026-04-11T14:43:02Z</time></trkpt><trkpt lat="44.66179461874358" lon="7.989746124768485"><ele>193.66666666666669</ele><time>2026-04-11T14:43:04Z</time></trkpt><trkpt lat="44.661734558142825" lon="7.989825576977527"><ele>193.83333333333334</ele><time>2026-04-11T14:43:06Z</time></trkpt><trkpt lat="44.66166936592878" lon="7.989907089619951"><ele>194.0</ele><time>2026-04-11T14:43:08Z</time></trkpt><trkpt lat="44.66160500359496" lon="7.9899917563577"><ele>193.83333333333334</ele><time>2026-04-11T14:43:10Z</time></trkpt><trkpt lat="44.6615389889432" lon="7.9900798110662885"><ele>193.66666666666669</ele><time>2026-04-11T14:43:12Z</time></trkpt><trkpt lat="44.6614745352576" lon="7.990156151453067"><ele>193.5</ele><time>2026-04-11T14:43:14Z</time></trkpt><trkpt lat="44.66140961459812" lon="7.990224660907734"><ele>193.33333333333331</ele><time>2026-04-11T14:43:16Z</time></trkpt><trkpt lat="44.66134261139252" lon="7.990306499524634"><ele>193.16666666666666</ele><time>2026-04-11T14:43:18Z</time></trkpt><trkpt lat="44.66128106886093" lon="7.990392605870914"><ele>193.0</ele><time>2026-04-11T14:43:20Z</time></trkpt><trkpt lat="44.6612169666624" lon="7.990475300681947"><ele>192.99999999999997</ele><time>2026-04-11T14:43:22Z</time></trkpt><trkpt lat="44.66114818234948" lon="7.990554024963568"><ele>193.0</ele><time>2026-04-11T14:43:24Z</time></trkpt><trkpt lat="44.661084079152346" lon="7.9906264317969296"><ele>193.0</ele><time>2026-04-11T14:43:26Z</time></trkpt><trkpt lat="44.661011476669316" lon="7.990714756239232"><ele>193.0</ele><time>2026-04-11T14:43:28Z</time></trkpt><trkpt lat="44.66094002149575" lon="7.990793401467931"><ele>192.99999999999997</ele><time>2026-04-11T14:43:30Z</time></trkpt><trkpt lat="44.66087977948468" lon="7.9908675881268625"><ele>193.0</ele><time>2026-04-11T14:43:32Z</time></trkpt><trkpt lat="44.66081795135608" lon="7.9909376102708"><ele>193.49999999999997</ele><time>2026-04-11T14:43:34Z</time></trkpt><trkpt lat="44.66074256220894" lon="7.991015198139995"><ele>194.0</ele><time>2026-04-11T14:43:36Z</time></trkpt><trkpt lat="44.66067758706602" lon="7.991079523963403"><ele>194.5</ele><time>2026-04-11T14:43:38Z</time></trkpt><trkpt lat="44.66060956581324" lon="7.991166204768815"><ele>195.0</ele><time>2026-04-11T14:43:40Z</time></trkpt><trkpt lat="44.66053446861828" lon="7.9912373620547035"><ele>195.49999999999997</ele><time>2026-04-11T14:43:42Z</time></trkpt><trkpt lat="44.660471621727815" lon="7.991318062394731"><ele>196.0</ele><time>2026-04-11T14:43:44Z</time></trkpt><trkpt lat="44.66040208280732" lon="7.991389167948158"><ele>195.99999999999997</ele><time>2026-04-11T14:43:46Z</time></trkpt><trkpt lat="44.660335989234774" lon="7.991450052310277"><ele>196.0</ele><time>2026-04-11T14:43:48Z</time></trkpt><trkpt lat="44.660267236387035" lon="7.991512728425762"><ele>196.0</ele><time>2026-04-11T14:43:50Z</time></trkpt><trkpt lat="44.66019339146195" lon="7.991571568163154"><ele>196.0</ele><time>2026-04-11T14:43:52Z</time></trkpt><trkpt lat="44.660121754423315" lon="7.991619669208055"><ele>195.99999999999997</ele><time>2026-04-11T14:43:54Z</time></trkpt><trkpt lat="44.66005238734131" lon="7.991661221662369"><ele>196.0</ele><time>2026-04-11T14:43:56Z</time></trkpt><trkpt lat="44.65998093091443" lon="7.991694958881029"><ele>196.49999999999997</ele><time>2026-04-11T14:43:58Z</time></trkpt><trkpt lat="44.65991086515697" lon="7.9917230484259365"><ele>197.0</ele><time>2026-04-11T14:44:00Z</time></trkpt><trkpt lat="44.65984366375897" lon="7.991756185627208"><ele>197.5</ele><time>2026-04-11T14:44:01.999Z</time></trkpt><trkpt lat="44.659774446819064" lon="7.9917858717247965"><ele>198.0</ele><time>2026-04-11T14:44:03.999Z</time></trkpt><trkpt lat="44.659699878125075" lon="7.991819961839283"><ele>198.49999999999997</ele><time>2026-04-11T14:44:05.999Z</time></trkpt><trkpt lat="44.65962473968863" lon="7.9918585063296605"><ele>199.0</ele><time>2026-04-11T14:44:07.999Z</time></trkpt><trkpt lat="44.65955000507486" lon="7.991894398391406"><ele>198.99999999999997</ele><time>2026-04-11T14:44:09.999Z</time></trkpt><trkpt lat="44.65947810469032" lon="7.991928268631824"><ele>199.0</ele><time>2026-04-11T14:44:11.999Z</time></trkpt><trkpt lat="44.65940226755532" lon="7.991962985697857"><ele>199.0</ele><time>2026-04-11T14:44:13.999Z</time></trkpt><trkpt lat="44.65932254101508" lon="7.991993622108388"><ele>199.0</ele><time>2026-04-11T14:44:15.999Z</time></trkpt><trkpt lat="44.65924953406944" lon="7.99201936194746"><ele>198.99999999999997</ele><time>2026-04-11T14:44:17.999Z</time></trkpt><trkpt lat="44.65916415352234" lon="7.992037318258033"><ele>199.0</ele><time>2026-04-11T14:44:19.999Z</time></trkpt><trkpt lat="44.659082756021185" lon="7.992043948561779"><ele>199.66666666666666</ele><time>2026-04-11T14:44:21.999Z</time></trkpt><trkpt lat="44.659003721053686" lon="7.9920456391707715"><ele>200.33333333333331</ele><time>2026-04-11T14:44:23.999Z</time></trkpt><trkpt lat="44.6589269334186" lon="7.992039183317063"><ele>201.0</ele><time>2026-04-11T14:44:25.999Z</time></trkpt><trkpt lat="44.65884738740493" lon="7.992035796498536"><ele>201.66666666666669</ele><time>2026-04-11T14:44:27.999Z</time></trkpt><trkpt lat="44.65877178126541" lon="7.992029503074451"><ele>202.33333333333334</ele><time>2026-04-11T14:44:29.999Z</time></trkpt><trkpt lat="44.65869821831682" lon="7.9920208475683525"><ele>203.0</ele><time>2026-04-11T14:44:31.999Z</time></trkpt><trkpt lat="44.65861752774139" lon="7.992010592027723"><ele>203.14285714285714</ele><time>2026-04-11T14:44:33.999Z</time></trkpt><trkpt lat="44.658547174805" lon="7.991998429069554"><ele>203.28571428571428</ele><time>2026-04-11T14:44:36Z</time></trkpt><trkpt lat="44.658473113240106" lon="7.991985529080127"><ele>203.42857142857144</ele><time>2026-04-11T14:44:38Z</time></trkpt><trkpt lat="44.65840116359656" lon="7.991982556856139"><ele>203.57142857142856</ele><time>2026-04-11T14:44:40Z</time></trkpt><trkpt lat="44.658321141404556" lon="7.9919692324898515"><ele>203.71428571428572</ele><time>2026-04-11T14:44:42Z</time></trkpt><trkpt lat="44.65824908621048" lon="7.991961869214217"><ele>203.85714285714286</ele><time>2026-04-11T14:44:44Z</time></trkpt><trkpt lat="44.65817294740198" lon="7.991954353524786"><ele>204.0</ele><time>2026-04-11T14:44:46Z</time></trkpt><trkpt lat="44.658102187574805" lon="7.991948325109294"><ele>204.0</ele><time>2026-04-11T14:44:48Z</time></trkpt><trkpt lat="44.65803382727419" lon="7.991938368699291"><ele>204.0</ele><time>2026-04-11T14:44:50Z</time></trkpt><trkpt lat="44.657964958282605" lon="7.9919418339968"><ele>204.0</ele><time>2026-04-11T14:44:52Z</time></trkpt><trkpt lat="44.65789198411933" lon="7.991948401165597"><ele>204.0</ele><time>2026-04-11T14:44:54Z</time></trkpt><trkpt lat="44.65782107703065" lon="7.991962359723611"><ele>204.0</ele><time>2026-04-11T14:44:56Z</time></trkpt><trkpt lat="44.65775607288127" lon="7.991987220546388"><ele>204.0</ele><time>2026-04-11T14:44:58Z</time></trkpt><trkpt lat="44.65768526092374" lon="7.992022575180031"><ele>204.0</ele><time>2026-04-11T14:45:00Z</time></trkpt><trkpt lat="44.65762300085444" lon="7.992056182663403"><ele>204.16666666666666</ele><time>2026-04-11T14:45:02Z</time></trkpt><trkpt lat="44.65756212154012" lon="7.992095863123943"><ele>204.33333333333331</ele><time>2026-04-11T14:45:04Z</time></trkpt><trkpt lat="44.657496619031875" lon="7.992146844759964"><ele>204.5</ele><time>2026-04-11T14:45:06Z</time></trkpt><trkpt lat="44.65739100624379" lon="7.992210202778381"><ele>204.66666666666666</ele><time>2026-04-11T14:45:10Z</time></trkpt><trkpt lat="44.657319042263126" lon="7.992251413776629"><ele>204.83333333333331</ele><time>2026-04-11T14:45:12Z</time></trkpt><trkpt lat="44.65726068364026" lon="7.992292020988629"><ele>205.0</ele><time>2026-04-11T14:45:14Z</time></trkpt><trkpt lat="44.6571962122248" lon="7.992331266996758"><ele>205.0</ele><time>2026-04-11T14:45:16Z</time></trkpt><trkpt lat="44.65713326168949" lon="7.99237294568624"><ele>205.0</ele><time>2026-04-11T14:45:18Z</time></trkpt><trkpt lat="44.65707817128033" lon="7.99242538703265"><ele>205.0</ele><time>2026-04-11T14:45:20Z</time></trkpt><trkpt lat="44.657027175706915" lon="7.9924935003124675"><ele>205.0</ele><time>2026-04-11T14:45:22Z</time></trkpt><trkpt lat="44.65695747937074" lon="7.992574873916499"><ele>205.0</ele><time>2026-04-11T14:45:25Z</time></trkpt><trkpt lat="44.656911971562344" lon="7.992651349488729"><ele>205.0</ele><time>2026-04-11T14:45:27Z</time></trkpt><trkpt lat="44.65686650861877" lon="7.992732083480941"><ele>205.0</ele><time>2026-04-11T14:45:29Z</time></trkpt><trkpt lat="44.65681952303824" lon="7.992802209523275"><ele>206.0</ele><time>2026-04-11T14:45:31Z</time></trkpt><trkpt lat="44.65677676618688" lon="7.992871254310117"><ele>207.0</ele><time>2026-04-11T14:45:33Z</time></trkpt><trkpt lat="44.656729993816455" lon="7.992945957992505"><ele>208.0</ele><time>2026-04-11T14:45:35Z</time></trkpt><trkpt lat="44.656684930620266" lon="7.993021541142601"><ele>209.0</ele><time>2026-04-11T14:45:37Z</time></trkpt><trkpt lat="44.656622407695615" lon="7.9931304930323686"><ele>210.0</ele><time>2026-04-11T14:45:40Z</time></trkpt><trkpt lat="44.65657730056076" lon="7.993201340813293"><ele>211.0</ele><time>2026-04-11T14:45:42Z</time></trkpt><trkpt lat="44.65653262926089" lon="7.993277139012389"><ele>212.0</ele><time>2026-04-11T14:45:44Z</time></trkpt><trkpt lat="44.656484063317855" lon="7.993343056450059"><ele>212.33333333333334</ele><time>2026-04-11T14:45:46Z</time></trkpt><trkpt lat="44.65644279167881" lon="7.993415687484611"><ele>212.66666666666669</ele><time>2026-04-11T14:45:48Z</time></trkpt><trkpt lat="44.6563722101544" lon="7.9935019238817135"><ele>213.0</ele><time>2026-04-11T14:45:51Z</time></trkpt><trkpt lat="44.656324185748495" lon="7.993565615323712"><ele>213.33333333333331</ele><time>2026-04-11T14:45:53Z</time></trkpt><trkpt lat="44.65625221946689" lon="7.993638109674365"><ele>213.66666666666666</ele><time>2026-04-11T14:45:56Z</time></trkpt><trkpt lat="44.65618904881986" lon="7.9937147648269695"><ele>214.0</ele><time>2026-04-11T14:45:59Z</time></trkpt><trkpt lat="44.65611590126774" lon="7.993776087622742"><ele>214.33333333333331</ele><time>2026-04-11T14:46:01.999Z</time></trkpt><trkpt lat="44.65605656963697" lon="7.993826438371105"><ele>214.66666666666666</ele><time>2026-04-11T14:46:04.999Z</time></trkpt><trkpt lat="44.65599104744565" lon="7.993870319813491"><ele>215.0</ele><time>2026-04-11T14:46:07.999Z</time></trkpt><trkpt lat="44.65592722496364" lon="7.99393046870595"><ele>215.33333333333331</ele><time>2026-04-11T14:46:10.999Z</time></trkpt><trkpt lat="44.65584451551584" lon="7.99401418507563"><ele>215.66666666666666</ele><time>2026-04-11T14:46:14.999Z</time></trkpt><trkpt lat="44.655790323257115" lon="7.994091886384874"><ele>216.0</ele><time>2026-04-11T14:46:17.999Z</time></trkpt><trkpt lat="44.65574340077413" lon="7.994182570908079"><ele>216.28571428571428</ele><time>2026-04-11T14:46:20.999Z</time></trkpt><trkpt lat="44.65568889163739" lon="7.994250342318249"><ele>216.57142857142856</ele><time>2026-04-11T14:46:23.999Z</time></trkpt><trkpt lat="44.655636141735854" lon="7.994326004827039"><ele>216.85714285714286</ele><time>2026-04-11T14:46:26.999Z</time></trkpt><trkpt lat="44.655593404744835" lon="7.994409973672662"><ele>217.14285714285714</ele><time>2026-04-11T14:46:29.999Z</time></trkpt><trkpt lat="44.6555526304983" lon="7.994488651178567"><ele>217.42857142857144</ele><time>2026-04-11T14:46:32.999Z</time></trkpt><trkpt lat="44.65550207404386" lon="7.994551574075776"><ele>217.71428571428572</ele><time>2026-04-11T14:46:35.999Z</time></trkpt><trkpt lat="44.65545629456041" lon="7.994634207042318"><ele>218.0</ele><time>2026-04-11T14:46:38.999Z</time></trkpt><trkpt lat="44.655402837460464" lon="7.994703293342141"><ele>218.00000000000003</ele><time>2026-04-11T14:46:42Z</time></trkpt><trkpt lat="44.655340917685194" lon="7.994783603031933"><ele>218.0</ele><time>2026-04-11T14:46:46Z</time></trkpt><trkpt lat="44.65527146913976" lon="7.994850183750391"><ele>218.0</ele><time>2026-04-11T14:46:50Z</time></trkpt><trkpt lat="44.65522479426536" lon="7.994926839339086"><ele>218.0</ele><time>2026-04-11T14:46:53Z</time></trkpt><trkpt lat="44.65516320623856" lon="7.994960982396834"><ele>218.00000000000003</ele><time>2026-04-11T14:46:57Z</time></trkpt><trkpt lat="44.65509748223832" lon="7.995002280656452"><ele>218.0</ele><time>2026-04-11T14:47:00Z</time></trkpt><trkpt lat="44.655018287242704" lon="7.995039679574829"><ele>219.57142857142858</ele><time>2026-04-11T14:47:04Z</time></trkpt><trkpt lat="44.65495241528272" lon="7.995072431757099"><ele>221.14285714285717</ele><time>2026-04-11T14:47:08Z</time></trkpt><trkpt lat="44.65489226055983" lon="7.995102664837959"><ele>222.71428571428572</ele><time>2026-04-11T14:47:12Z</time></trkpt><trkpt lat="44.65481815903759" lon="7.995134273683336"><ele>224.28571428571428</ele><time>2026-04-11T14:47:17Z</time></trkpt><trkpt lat="44.654747425878874" lon="7.9951868409833935"><ele>225.85714285714286</ele><time>2026-04-11T14:47:23Z</time></trkpt><trkpt lat="44.65468744276647" lon="7.9952532839450665"><ele>227.42857142857142</ele><time>2026-04-11T14:47:29Z</time></trkpt><trkpt lat="44.65463304657229" lon="7.995312928668616"><ele>229.0</ele><time>2026-04-11T14:47:34Z</time></trkpt><trkpt lat="44.654597648207755" lon="7.9953982215673305"><ele>229.0</ele><time>2026-04-11T14:47:39Z</time></trkpt><trkpt lat="44.6545701544249" lon="7.995483121893054"><ele>229.0</ele><time>2026-04-11T14:47:45Z</time></trkpt><trkpt lat="44.65453827572935" lon="7.995562536069139"><ele>229.0</ele><time>2026-04-11T14:47:50Z</time></trkpt><trkpt lat="44.654521764621244" lon="7.9956480319717285"><ele>229.0</ele><time>2026-04-11T14:47:55Z</time></trkpt><trkpt lat="44.654522309273965" lon="7.995745732240488"><ele>229.0</ele><time>2026-04-11T14:47:59.999Z</time></trkpt><trkpt lat="44.654510863594794" lon="7.995835826393542"><ele>229.0</ele><time>2026-04-11T14:48:04.999Z</time></trkpt><trkpt lat="44.654516584858065" lon="7.995939435092662"><ele>229.0</ele><time>2026-04-11T14:48:09.999Z</time></trkpt><trkpt lat="44.65452717743492" lon="7.996042725513205"><ele>230.85714285714283</ele><time>2026-04-11T14:48:15.999Z</time></trkpt><trkpt lat="44.65455480977876" lon="7.996148486317556"><ele>232.71428571428572</ele><time>2026-04-11T14:48:20.999Z</time></trkpt><trkpt lat="44.6545600175482" lon="7.9962428805444805"><ele>234.57142857142856</ele><time>2026-04-11T14:48:25.999Z</time></trkpt><trkpt lat="44.65456433069708" lon="7.996341645778649"><ele>236.42857142857142</ele><time>2026-04-11T14:48:30.999Z</time></trkpt><trkpt lat="44.65454477665383" lon="7.996457800958861"><ele>238.28571428571428</ele><time>2026-04-11T14:48:36.999Z</time></trkpt><trkpt lat="44.65447594452425" lon="7.996496949522557"><ele>240.14285714285714</ele><time>2026-04-11T14:48:43.999Z</time></trkpt><trkpt lat="44.6544127452287" lon="7.996487056495343"><ele>242.0</ele><time>2026-04-11T14:48:49Z</time></trkpt><trkpt lat="44.65434674540191" lon="7.996464745182897"><ele>243.85714285714283</ele><time>2026-04-11T14:48:54Z</time></trkpt><trkpt lat="44.65429067015046" lon="7.996419392266943"><ele>245.7142857142857</ele><time>2026-04-11T14:48:59Z</time></trkpt><trkpt lat="44.6542398391289" lon="7.996359813241519"><ele>247.57142857142856</ele><time>2026-04-11T14:49:04Z</time></trkpt><trkpt lat="44.654196482880344" lon="7.996289600152967"><ele>249.42857142857144</ele><time>2026-04-11T14:49:09Z</time></trkpt><trkpt lat="44.654133308423795" lon="7.996233993437921"><ele>251.2857142857143</ele><time>2026-04-11T14:49:15Z</time></trkpt><trkpt lat="44.65406103657358" lon="7.996180099010067"><ele>253.14285714285717</ele><time>2026-04-11T14:49:20Z</time></trkpt><trkpt lat="44.654021730018826" lon="7.9961034724686515"><ele>255.0</ele><time>2026-04-11T14:49:24Z</time></trkpt><trkpt lat="44.65398476652617" lon="7.996030387788981"><ele>255.0</ele><time>2026-04-11T14:49:30Z</time></trkpt><trkpt lat="44.65398055225491" lon="7.9961295267251735"><ele>255.00000000000003</ele><time>2026-04-11T14:49:38Z</time></trkpt><trkpt lat="44.65395887899918" lon="7.996034844316566"><ele>255.0</ele><time>2026-04-11T14:49:48Z</time></trkpt><trkpt lat="44.653931207714855" lon="7.995941327598802"><ele>255.0</ele><time>2026-04-11T14:49:52Z</time></trkpt><trkpt lat="44.653910224802424" lon="7.995857392441567"><ele>255.00000000000003</ele><time>2026-04-11T14:49:55Z</time></trkpt><trkpt lat="44.65391146152298" lon="7.995750988153904"><ele>255.0</ele><time>2026-04-11T14:49:58Z</time></trkpt><trkpt lat="44.653905123586895" lon="7.995657729181766"><ele>255.0</ele><time>2026-04-11T14:50:01.999Z</time></trkpt><trkpt lat="44.653913947780275" lon="7.99555717195122"><ele>254.57142857142858</ele><time>2026-04-11T14:50:04.999Z</time></trkpt><trkpt lat="44.65390988070966" lon="7.9954682242284685"><ele>254.14285714285717</ele><time>2026-04-11T14:50:07.999Z</time></trkpt><trkpt lat="44.65387558091898" lon="7.995361911487789"><ele>253.71428571428572</ele><time>2026-04-11T14:50:11.999Z</time></trkpt><trkpt lat="44.653852301956896" lon="7.995255881325734"><ele>253.28571428571428</ele><time>2026-04-11T14:50:14.999Z</time></trkpt><trkpt lat="44.65382026211358" lon="7.995177673560972"><ele>252.85714285714286</ele><time>2026-04-11T14:50:17.999Z</time></trkpt><trkpt lat="44.653787326921766" lon="7.995094973422236"><ele>252.42857142857144</ele><time>2026-04-11T14:50:20.999Z</time></trkpt><trkpt lat="44.65375586318576" lon="7.995005384669738"><ele>252.0</ele><time>2026-04-11T14:50:23.999Z</time></trkpt><trkpt lat="44.65371947304959" lon="7.9949211472287605"><ele>251.28571428571428</ele><time>2026-04-11T14:50:26.999Z</time></trkpt><trkpt lat="44.65367703853549" lon="7.99484794463914"><ele>250.57142857142856</ele><time>2026-04-11T14:50:29.999Z</time></trkpt><trkpt lat="44.65360786491955" lon="7.994807751921092"><ele>249.85714285714286</ele><time>2026-04-11T14:50:33.999Z</time></trkpt><trkpt lat="44.653604339477674" lon="7.994899904118802"><ele>249.14285714285714</ele><time>2026-04-11T14:50:37.999Z</time></trkpt><trkpt lat="44.653587383358726" lon="7.9949989766853555"><ele>248.42857142857142</ele><time>2026-04-11T14:50:41.999Z</time></trkpt><trkpt lat="44.65359195421387" lon="7.995087531745197"><ele>247.71428571428572</ele><time>2026-04-11T14:50:45.999Z</time></trkpt><trkpt lat="44.653556539301114" lon="7.99518419518573"><ele>247.0</ele><time>2026-04-11T14:50:48.999Z</time></trkpt><trkpt lat="44.65351446755892" lon="7.995258841427732"><ele>249.33333333333331</ele><time>2026-04-11T14:50:52.999Z</time></trkpt><trkpt lat="44.653478487359" lon="7.995341178724284"><ele>251.66666666666666</ele><time>2026-04-11T14:50:58Z</time></trkpt><trkpt lat="44.6534113477504" lon="7.995437519069499"><ele>254.0</ele><time>2026-04-11T14:51:02Z</time></trkpt><trkpt lat="44.653352291136294" lon="7.995538795150974"><ele>256.3333333333333</ele><time>2026-04-11T14:51:38Z</time></trkpt><trkpt lat="44.653287515107046" lon="7.995600430082829"><ele>258.6666666666667</ele><time>2026-04-11T14:51:40Z</time></trkpt><trkpt lat="44.65319416027436" lon="7.995619275280474"><ele>261.0</ele><time>2026-04-11T14:51:42Z</time></trkpt><trkpt lat="44.65308946803042" lon="7.99562393760136"><ele>261.0</ele><time>2026-04-11T14:51:44Z</time></trkpt><trkpt lat="44.65296833382119" lon="7.995601258582713"><ele>261.0</ele><time>2026-04-11T14:51:46Z</time></trkpt><trkpt lat="44.652880896051116" lon="7.995581309069808"><ele>261.0</ele><time>2026-04-11T14:51:48Z</time></trkpt><trkpt lat="44.65281789251663" lon="7.9955738553617355"><ele>261.0</ele><time>2026-04-11T14:51:50Z</time></trkpt><trkpt lat="44.652744795435744" lon="7.995568986346763"><ele>261.0</ele><time>2026-04-11T14:51:52Z</time></trkpt><trkpt lat="44.65265220854794" lon="7.995585315471128"><ele>261.0</ele><time>2026-04-11T14:51:54Z</time></trkpt><trkpt lat="44.652578623596845" lon="7.9955761334527296"><ele>259.3333333333333</ele><time>2026-04-11T14:51:56Z</time></trkpt><trkpt lat="44.65248806631096" lon="7.995564764321188"><ele>257.6666666666667</ele><time>2026-04-11T14:51:58Z</time></trkpt><trkpt lat="44.65242163949083" lon="7.995552574871221"><ele>256.0</ele><time>2026-04-11T14:52:00Z</time></trkpt><trkpt lat="44.65236920159812" lon="7.995495347584959"><ele>254.33333333333334</ele><time>2026-04-11T14:52:01.999Z</time></trkpt><trkpt lat="44.65233704462234" lon="7.99540465756006"><ele>252.66666666666669</ele><time>2026-04-11T14:52:03.999Z</time></trkpt><trkpt lat="44.652325108753764" lon="7.995280418088878"><ele>251.0</ele><time>2026-04-11T14:52:06.999Z</time></trkpt><trkpt lat="44.6523051690825" lon="7.995165417597411"><ele>250.99999999999997</ele><time>2026-04-11T14:52:09.999Z</time></trkpt><trkpt lat="44.65229987818049" lon="7.995066715599386"><ele>251.0</ele><time>2026-04-11T14:52:11.999Z</time></trkpt><trkpt lat="44.652301869532906" lon="7.994970843772853"><ele>250.99999999999997</ele><time>2026-04-11T14:52:13.999Z</time></trkpt><trkpt lat="44.65230482833906" lon="7.994862098458737"><ele>250.99999999999997</ele><time>2026-04-11T14:52:16.999Z</time></trkpt><trkpt lat="44.65232222940876" lon="7.994761710952075"><ele>251.0</ele><time>2026-04-11T14:52:19.999Z</time></trkpt><trkpt lat="44.652346601549496" lon="7.994665475694421"><ele>250.99999999999997</ele><time>2026-04-11T14:52:23.999Z</time></trkpt><trkpt lat="44.65237248898213" lon="7.994565738501422"><ele>250.99999999999997</ele><time>2026-04-11T14:52:26.999Z</time></trkpt><trkpt lat="44.65240360406547" lon="7.994435082078702"><ele>251.66666666666669</ele><time>2026-04-11T14:52:29.999Z</time></trkpt><trkpt lat="44.65243732658874" lon="7.9943151399365515"><ele>252.33333333333334</ele><time>2026-04-11T14:52:32.999Z</time></trkpt><trkpt lat="44.65247773125202" lon="7.9942086797682395"><ele>253.0</ele><time>2026-04-11T14:52:35.999Z</time></trkpt><trkpt lat="44.65252558546839" lon="7.994102035459596"><ele>253.66666666666669</ele><time>2026-04-11T14:52:38.999Z</time></trkpt><trkpt lat="44.65257216699163" lon="7.994002749598955"><ele>254.33333333333334</ele><time>2026-04-11T14:52:41.999Z</time></trkpt><trkpt lat="44.65261658491452" lon="7.993908389524201"><ele>255.0</ele><time>2026-04-11T14:52:44.999Z</time></trkpt><trkpt lat="44.6526565325916" lon="7.993827088203721"><ele>255.0</ele><time>2026-04-11T14:52:46.999Z</time></trkpt><trkpt lat="44.65268945669039" lon="7.9937350818644335"><ele>255.0</ele><time>2026-04-11T14:52:48.999Z</time></trkpt><trkpt lat="44.65272893560244" lon="7.993643120467343"><ele>255.0</ele><time>2026-04-11T14:52:50.999Z</time></trkpt><trkpt lat="44.652776708014315" lon="7.993538969328912"><ele>255.0</ele><time>2026-04-11T14:52:52.999Z</time></trkpt><trkpt lat="44.65282701624308" lon="7.993438557529459"><ele>255.0</ele><time>2026-04-11T14:52:54.999Z</time></trkpt><trkpt lat="44.65286553223975" lon="7.9933463075005315"><ele>255.0</ele><time>2026-04-11T14:52:56.999Z</time></trkpt><trkpt lat="44.65280401395651" lon="7.9932764082169685"><ele>253.5</ele><time>2026-04-11T14:52:58.999Z</time></trkpt><trkpt lat="44.65272115412436" lon="7.993245349230156"><ele>252.0</ele><time>2026-04-11T14:53:01Z</time></trkpt><trkpt lat="44.65265974880309" lon="7.993214555797214"><ele>250.5</ele><time>2026-04-11T14:53:04Z</time></trkpt><trkpt lat="44.65258840968987" lon="7.993153930805388"><ele>249.0</ele><time>2026-04-11T14:53:07Z</time></trkpt><trkpt lat="44.65254532303484" lon="7.993080323700341"><ele>247.5</ele><time>2026-04-11T14:53:10Z</time></trkpt><trkpt lat="44.652516851990384" lon="7.992978603919661"><ele>246.0</ele><time>2026-04-11T14:53:13Z</time></trkpt><trkpt lat="44.652480630477996" lon="7.992857685117374"><ele>246.0</ele><time>2026-04-11T14:53:16Z</time></trkpt><trkpt lat="44.65243870966447" lon="7.992774480644622"><ele>246.0</ele><time>2026-04-11T14:53:18Z</time></trkpt><trkpt lat="44.6523573693115" lon="7.99272601897571"><ele>246.0</ele><time>2026-04-11T14:53:20Z</time></trkpt><trkpt lat="44.65227616243585" lon="7.992674042760756"><ele>246.0</ele><time>2026-04-11T14:53:22Z</time></trkpt><trkpt lat="44.652194188796884" lon="7.992620901521815"><ele>246.0</ele><time>2026-04-11T14:53:24Z</time></trkpt><trkpt lat="44.65209979640194" lon="7.9925679443840085"><ele>246.0</ele><time>2026-04-11T14:53:26Z</time></trkpt><trkpt lat="44.65200532313275" lon="7.992516948317767"><ele>241.16666666666666</ele><time>2026-04-11T14:53:28Z</time></trkpt><trkpt lat="44.65192561499587" lon="7.992466714596926"><ele>236.33333333333331</ele><time>2026-04-11T14:53:30Z</time></trkpt><trkpt lat="44.65183702112115" lon="7.992417319808773"><ele>231.5</ele><time>2026-04-11T14:53:32Z</time></trkpt><trkpt lat="44.651763035673966" lon="7.992372463750196"><ele>226.66666666666666</ele><time>2026-04-11T14:53:34Z</time></trkpt><trkpt lat="44.65168333677131" lon="7.992321018842082"><ele>221.83333333333331</ele><time>2026-04-11T14:53:36Z</time></trkpt><trkpt lat="44.65160404290013" lon="7.992274601024637"><ele>217.0</ele><time>2026-04-11T14:53:38Z</time></trkpt><trkpt lat="44.65152136218564" lon="7.992228454655737"><ele>217.0</ele><time>2026-04-11T14:53:40Z</time></trkpt><trkpt lat="44.65143664590371" lon="7.992171008331667"><ele>217.0</ele><time>2026-04-11T14:53:42Z</time></trkpt><trkpt lat="44.651339663472235" lon="7.992113215502522"><ele>217.0</ele><time>2026-04-11T14:53:44Z</time></trkpt><trkpt lat="44.65125243842745" lon="7.992047194953742"><ele>217.0</ele><time>2026-04-11T14:53:46Z</time></trkpt><trkpt lat="44.65119807990477" lon="7.9920014407154785"><ele>217.0</ele><time>2026-04-11T14:53:47Z</time></trkpt><trkpt lat="44.651092797975835" lon="7.9919083426508175"><ele>214.6</ele><time>2026-04-11T14:53:49Z</time></trkpt><trkpt lat="44.65101852884881" lon="7.991781532391413"><ele>212.2</ele><time>2026-04-11T14:53:51Z</time></trkpt><trkpt lat="44.65093423975936" lon="7.9917115090439115"><ele>209.8</ele><time>2026-04-11T14:53:53Z</time></trkpt><trkpt lat="44.65088151061704" lon="7.991640401963903"><ele>207.4</ele><time>2026-04-11T14:53:55Z</time></trkpt><trkpt lat="44.6508293618528" lon="7.9915836575590005"><ele>205.0</ele><time>2026-04-11T14:54:01Z</time></trkpt><trkpt lat="44.65073801944392" lon="7.99168226176241"><ele>204.99999999999997</ele><time>2026-04-11T14:54:04Z</time></trkpt><trkpt lat="44.65069730766001" lon="7.991761904522274"><ele>205.0</ele><time>2026-04-11T14:54:06Z</time></trkpt><trkpt lat="44.65065103548861" lon="7.991855409134243"><ele>205.0</ele><time>2026-04-11T14:54:08Z</time></trkpt><trkpt lat="44.650588897148666" lon="7.991929571797617"><ele>205.0</ele><time>2026-04-11T14:54:09.999Z</time></trkpt><trkpt lat="44.65052822353255" lon="7.992021623830156"><ele>204.99999999999997</ele><time>2026-04-11T14:54:11.999Z</time></trkpt><trkpt lat="44.65047437929589" lon="7.992118963383529"><ele>205.0</ele><time>2026-04-11T14:54:13.999Z</time></trkpt><trkpt lat="44.65042543777983" lon="7.99220715931441"><ele>205.0</ele><time>2026-04-11T14:54:15.999Z</time></trkpt><trkpt lat="44.65036845763257" lon="7.992298160812702"><ele>205.0</ele><time>2026-04-11T14:54:17.999Z</time></trkpt><trkpt lat="44.65031380112868" lon="7.9923981869687655"><ele>205.0</ele><time>2026-04-11T14:54:19.999Z</time></trkpt><trkpt lat="44.65025584543341" lon="7.992496994762482"><ele>205.0</ele><time>2026-04-11T14:54:21.999Z</time></trkpt><trkpt lat="44.650199441631024" lon="7.992598127797927"><ele>205.0</ele><time>2026-04-11T14:54:23.999Z</time></trkpt><trkpt lat="44.6501391478518" lon="7.992708015643742"><ele>204.8</ele><time>2026-04-11T14:54:25.999Z</time></trkpt><trkpt lat="44.6500807126769" lon="7.992811363412386"><ele>204.6</ele><time>2026-04-11T14:54:27.999Z</time></trkpt><trkpt lat="44.65000934657818" lon="7.992932694733456"><ele>204.39999999999998</ele><time>2026-04-11T14:54:30.999Z</time></trkpt><trkpt lat="44.649960554976154" lon="7.993026974049676"><ele>204.2</ele><time>2026-04-11T14:54:32.999Z</time></trkpt><trkpt lat="44.64988993383011" lon="7.99314344106789"><ele>204.0</ele><time>2026-04-11T14:54:33.999Z</time></trkpt><trkpt lat="44.64983141584873" lon="7.993263669238638"><ele>204.2</ele><time>2026-04-11T14:54:35.999Z</time></trkpt><trkpt lat="44.649761887873346" lon="7.993371550027137"><ele>204.39999999999998</ele><time>2026-04-11T14:54:37.999Z</time></trkpt><trkpt lat="44.64969810441182" lon="7.993486482654313"><ele>204.6</ele><time>2026-04-11T14:54:39.999Z</time></trkpt><trkpt lat="44.6496355401946" lon="7.993601824496917"><ele>204.8</ele><time>2026-04-11T14:54:41.999Z</time></trkpt><trkpt lat="44.64957615773787" lon="7.993710968250419"><ele>205.0</ele><time>2026-04-11T14:54:43.999Z</time></trkpt><trkpt lat="44.64951145824055" lon="7.993817667351464"><ele>205.0</ele><time>2026-04-11T14:54:45.999Z</time></trkpt><trkpt lat="44.64944729275232" lon="7.993908957990533"><ele>205.0</ele><time>2026-04-11T14:54:47.999Z</time></trkpt><trkpt lat="44.64938686599908" lon="7.994020191401273"><ele>205.0</ele><time>2026-04-11T14:54:49.999Z</time></trkpt><trkpt lat="44.64932585342616" lon="7.994135861382488"><ele>205.0</ele><time>2026-04-11T14:54:51.999Z</time></trkpt><trkpt lat="44.6492691624232" lon="7.994248597959694"><ele>205.0</ele><time>2026-04-11T14:54:53.999Z</time></trkpt><trkpt lat="44.64920575406188" lon="7.994357209989416"><ele>207.4</ele><time>2026-04-11T14:54:55.999Z</time></trkpt><trkpt lat="44.64913400696283" lon="7.994461386558573"><ele>209.8</ele><time>2026-04-11T14:54:57.999Z</time></trkpt><trkpt lat="44.6490670935451" lon="7.99456052862738"><ele>212.2</ele><time>2026-04-11T14:54:59.999Z</time></trkpt><trkpt lat="44.648970138014676" lon="7.994634269888333"><ele>214.6</ele><time>2026-04-11T14:55:01.999Z</time></trkpt><trkpt lat="44.648882879896036" lon="7.994701781294467"><ele>217.0</ele><time>2026-04-11T14:55:03.999Z</time></trkpt><trkpt lat="44.64878651373677" lon="7.994759301940218"><ele>217.0</ele><time>2026-04-11T14:55:06Z</time></trkpt><trkpt lat="44.648692832885054" lon="7.994787840538386"><ele>217.0</ele><time>2026-04-11T14:55:08Z</time></trkpt><trkpt lat="44.64858757329842" lon="7.994810310779364"><ele>217.0</ele><time>2026-04-11T14:55:10Z</time></trkpt><trkpt lat="44.64849146936547" lon="7.99484245278835"><ele>217.0</ele><time>2026-04-11T14:55:12Z</time></trkpt><trkpt lat="44.64838157026133" lon="7.994861334498139"><ele>217.0</ele><time>2026-04-11T14:55:14Z</time></trkpt><trkpt lat="44.64828689676991" lon="7.994897079979569"><ele>216.6</ele><time>2026-04-11T14:55:16Z</time></trkpt><trkpt lat="44.648188434952395" lon="7.994928574384247"><ele>216.2</ele><time>2026-04-11T14:55:18Z</time></trkpt><trkpt lat="44.648105242906155" lon="7.994965282862327"><ele>215.8</ele><time>2026-04-11T14:55:20Z</time></trkpt><trkpt lat="44.64800696094454" lon="7.995050655107616"><ele>215.4</ele><time>2026-04-11T14:55:22Z</time></trkpt><trkpt lat="44.64792251151205" lon="7.995129522170234"><ele>215.0</ele><time>2026-04-11T14:55:24Z</time></trkpt><trkpt lat="44.6478364910098" lon="7.995194316362499"><ele>213.6</ele><time>2026-04-11T14:55:26Z</time></trkpt><trkpt lat="44.64775359398932" lon="7.9952827873775085"><ele>212.2</ele><time>2026-04-11T14:55:28Z</time></trkpt><trkpt lat="44.64767825862272" lon="7.995364855814798"><ele>210.8</ele><time>2026-04-11T14:55:30Z</time></trkpt><trkpt lat="44.64760672839559" lon="7.995436703646581"><ele>209.4</ele><time>2026-04-11T14:55:32Z</time></trkpt><trkpt lat="44.64753459069649" lon="7.995520480123955"><ele>208.0</ele><time>2026-04-11T14:55:34Z</time></trkpt><trkpt lat="44.64746693397268" lon="7.995600162366456"><ele>207.99999999999997</ele><time>2026-04-11T14:55:36Z</time></trkpt><trkpt lat="44.647397079219445" lon="7.995681616557394"><ele>208.0</ele><time>2026-04-11T14:55:38Z</time></trkpt><trkpt lat="44.647329038416046" lon="7.9957538620084465"><ele>208.0</ele><time>2026-04-11T14:55:40Z</time></trkpt><trkpt lat="44.64725832607443" lon="7.995831500215372"><ele>208.0</ele><time>2026-04-11T14:55:42Z</time></trkpt><trkpt lat="44.647194238138454" lon="7.995908819508845"><ele>207.99999999999997</ele><time>2026-04-11T14:55:44Z</time></trkpt><trkpt lat="44.647133615382835" lon="7.995959240869512"><ele>208.0</ele><time>2026-04-11T14:55:47Z</time></trkpt><trkpt lat="44.647063632263325" lon="7.995923033394891"><ele>208.0</ele><time>2026-04-11T14:55:50Z</time></trkpt><trkpt lat="44.647010718337675" lon="7.995850295784379"><ele>208.0</ele><time>2026-04-11T14:55:51Z</time></trkpt><trkpt lat="44.64696601740626" lon="7.995782407431112"><ele>208.0</ele><time>2026-04-11T14:55:52Z</time></trkpt><trkpt lat="44.64692129084961" lon="7.995717448500594"><ele>208.0</ele><time>2026-04-11T14:55:53Z</time></trkpt><trkpt lat="44.646830997102114" lon="7.99558258313675"><ele>208.0</ele><time>2026-04-11T14:55:55Z</time></trkpt><trkpt lat="44.646753155271895" lon="7.995436860642193"><ele>208.14285714285714</ele><time>2026-04-11T14:55:57Z</time></trkpt><trkpt lat="44.64671030369172" lon="7.995359740277957"><ele>208.2857142857143</ele><time>2026-04-11T14:55:58Z</time></trkpt><trkpt lat="44.64666426788341" lon="7.995285849660581"><ele>208.42857142857144</ele><time>2026-04-11T14:55:59Z</time></trkpt><trkpt lat="44.64662100420822" lon="7.99521171700711"><ele>208.57142857142856</ele><time>2026-04-11T14:56:00Z</time></trkpt><trkpt lat="44.64658028582352" lon="7.995139439173794"><ele>208.71428571428572</ele><time>2026-04-11T14:56:01Z</time></trkpt><trkpt lat="44.64653777499549" lon="7.995068127961047"><ele>208.85714285714286</ele><time>2026-04-11T14:56:02Z</time></trkpt><trkpt lat="44.646502244862496" lon="7.994991481210687"><ele>209.0</ele><time>2026-04-11T14:56:03Z</time></trkpt><trkpt lat="44.64645802029203" lon="7.994922278739638"><ele>208.33333333333334</ele><time>2026-04-11T14:56:04Z</time></trkpt><trkpt lat="44.64637943755882" lon="7.99477985747379"><ele>207.66666666666669</ele><time>2026-04-11T14:56:06Z</time></trkpt><trkpt lat="44.646339895455874" lon="7.994709483278558"><ele>207.0</ele><time>2026-04-11T14:56:07Z</time></trkpt><trkpt lat="44.64627446163383" lon="7.994582673899694"><ele>206.33333333333331</ele><time>2026-04-11T14:56:08.999Z</time></trkpt><trkpt lat="44.646230655515026" lon="7.994516779225531"><ele>205.66666666666666</ele><time>2026-04-11T14:56:09.999Z</time></trkpt><trkpt lat="44.64619343423633" lon="7.994440377991124"><ele>205.0</ele><time>2026-04-11T14:56:10.999Z</time></trkpt><trkpt lat="44.64611449264301" lon="7.994308822099227"><ele>204.8</ele><time>2026-04-11T14:56:12.999Z</time></trkpt><trkpt lat="44.646071765959846" lon="7.994236179508474"><ele>204.6</ele><time>2026-04-11T14:56:13.999Z</time></trkpt><trkpt lat="44.64600246262661" lon="7.994112653567812"><ele>204.39999999999998</ele><time>2026-04-11T14:56:15.999Z</time></trkpt><trkpt lat="44.64593343979491" lon="7.993984216988466"><ele>204.2</ele><time>2026-04-11T14:56:17.999Z</time></trkpt><trkpt lat="44.645881823261604" lon="7.993850653950852"><ele>204.0</ele><time>2026-04-11T14:56:19.999Z</time></trkpt><trkpt lat="44.64582292264289" lon="7.993739402491262"><ele>204.0</ele><time>2026-04-11T14:56:21.999Z</time></trkpt><trkpt lat="44.64575003713383" lon="7.9936312659760755"><ele>204.0</ele><time>2026-04-11T14:56:23.999Z</time></trkpt><trkpt lat="44.64569721660607" lon="7.993493819752154"><ele>204.0</ele><time>2026-04-11T14:56:25.999Z</time></trkpt><trkpt lat="44.64562727081183" lon="7.993355772088627"><ele>204.0</ele><time>2026-04-11T14:56:27.999Z</time></trkpt><trkpt lat="44.64555450862307" lon="7.993216357993299"><ele>203.83333333333334</ele><time>2026-04-11T14:56:29.999Z</time></trkpt><trkpt lat="44.64549147504544" lon="7.993082671084501"><ele>203.66666666666669</ele><time>2026-04-11T14:56:31.999Z</time></trkpt><trkpt lat="44.645457682094374" lon="7.99300510992943"><ele>203.5</ele><time>2026-04-11T14:56:32.999Z</time></trkpt><trkpt lat="44.645424679381385" lon="7.992929362529861"><ele>203.33333333333334</ele><time>2026-04-11T14:56:33.999Z</time></trkpt><trkpt lat="44.64536664869892" lon="7.992801923912025"><ele>203.16666666666669</ele><time>2026-04-11T14:56:35.999Z</time></trkpt><trkpt lat="44.64531888412462" lon="7.992708459590552"><ele>203.0</ele><time>2026-04-11T14:56:37.999Z</time></trkpt><trkpt lat="44.64527308256123" lon="7.992621887095133"><ele>203.00000000000003</ele><time>2026-04-11T14:56:39.999Z</time></trkpt><trkpt lat="44.64523086086085" lon="7.992545715556586"><ele>203.0</ele><time>2026-04-11T14:56:41.999Z</time></trkpt><trkpt lat="44.64517916279229" lon="7.992485160610622"><ele>203.0</ele><time>2026-04-11T14:56:43.999Z</time></trkpt><trkpt lat="44.64511622099599" lon="7.992384217165456"><ele>203.0</ele><time>2026-04-11T14:56:45.999Z</time></trkpt><trkpt lat="44.645055179103444" lon="7.992278662214834"><ele>203.00000000000003</ele><time>2026-04-11T14:56:47.999Z</time></trkpt><trkpt lat="44.64499109209661" lon="7.992166995724545"><ele>203.0</ele><time>2026-04-11T14:56:49.999Z</time></trkpt><trkpt lat="44.644914376195274" lon="7.9920617221183425"><ele>203.00000000000003</ele><time>2026-04-11T14:56:51.999Z</time></trkpt><trkpt lat="44.64485513965116" lon="7.991969142790619"><ele>203.0</ele><time>2026-04-11T14:56:53.999Z</time></trkpt><trkpt lat="44.64481431246103" lon="7.991873438241149"><ele>203.0</ele><time>2026-04-11T14:56:55.999Z</time></trkpt><trkpt lat="44.644824062008496" lon="7.991748456150775"><ele>203.0</ele><time>2026-04-11T14:56:58.999Z</time></trkpt><trkpt lat="44.64486311240262" lon="7.991667480892755"><ele>203.00000000000003</ele><time>2026-04-11T14:57:00.999Z</time></trkpt><trkpt lat="44.644919415732" lon="7.991608514606818"><ele>203.0</ele><time>2026-04-11T14:57:02.999Z</time></trkpt><trkpt lat="44.64497696510237" lon="7.991545816292293"><ele>203.16666666666669</ele><time>2026-04-11T14:57:04.999Z</time></trkpt><trkpt lat="44.64503119040646" lon="7.9914671424290376"><ele>203.33333333333334</ele><time>2026-04-11T14:57:06.999Z</time></trkpt><trkpt lat="44.64508596959941" lon="7.991366719614093"><ele>203.5</ele><time>2026-04-11T14:57:08.999Z</time></trkpt><trkpt lat="44.645137208651576" lon="7.991264486830559"><ele>203.66666666666669</ele><time>2026-04-11T14:57:10.999Z</time></trkpt><trkpt lat="44.645183295544065" lon="7.991152989346777"><ele>203.83333333333334</ele><time>2026-04-11T14:57:13Z</time></trkpt><trkpt lat="44.64523165268233" lon="7.991051934684632"><ele>204.0</ele><time>2026-04-11T14:57:15Z</time></trkpt><trkpt lat="44.64527519082071" lon="7.990949780867269"><ele>203.66666666666666</ele><time>2026-04-11T14:57:17Z</time></trkpt><trkpt lat="44.64530979290215" lon="7.990859693813216"><ele>203.33333333333331</ele><time>2026-04-11T14:57:19Z</time></trkpt><trkpt lat="44.64534777208147" lon="7.990750171974654"><ele>203.0</ele><time>2026-04-11T14:57:21Z</time></trkpt><trkpt lat="44.64538258611466" lon="7.990643140666801"><ele>202.66666666666666</ele><time>2026-04-11T14:57:23Z</time></trkpt><trkpt lat="44.64541200271029" lon="7.9905412903068616"><ele>202.33333333333331</ele><time>2026-04-11T14:57:25Z</time></trkpt><trkpt lat="44.64544746126658" lon="7.990433874816133"><ele>202.0</ele><time>2026-04-11T14:57:27Z</time></trkpt><trkpt lat="44.64547812929257" lon="7.990321857406598"><ele>201.99999999999997</ele><time>2026-04-11T14:57:29Z</time></trkpt><trkpt lat="44.645508951806164" lon="7.990225213315608"><ele>202.0</ele><time>2026-04-11T14:57:31Z</time></trkpt><trkpt lat="44.645544388679106" lon="7.990117751549598"><ele>202.0</ele><time>2026-04-11T14:57:33Z</time></trkpt><trkpt lat="44.64557995096999" lon="7.990020534165304"><ele>202.0</ele><time>2026-04-11T14:57:35Z</time></trkpt><trkpt lat="44.64561316181148" lon="7.989905917039366"><ele>201.99999999999997</ele><time>2026-04-11T14:57:37Z</time></trkpt><trkpt lat="44.645653361404385" lon="7.989798056918436"><ele>202.0</ele><time>2026-04-11T14:57:39Z</time></trkpt><trkpt lat="44.64568679398323" lon="7.9896801567653055"><ele>202.16666666666666</ele><time>2026-04-11T14:57:41Z</time></trkpt><trkpt lat="44.6457168915834" lon="7.989571001597811"><ele>202.33333333333331</ele><time>2026-04-11T14:57:43Z</time></trkpt><trkpt lat="44.64575664424224" lon="7.989452949710945"><ele>202.5</ele><time>2026-04-11T14:57:45Z</time></trkpt><trkpt lat="44.645790821694604" lon="7.989347916088447"><ele>202.66666666666669</ele><time>2026-04-11T14:57:47Z</time></trkpt><trkpt lat="44.6458181110415" lon="7.989229035341075"><ele>202.83333333333334</ele><time>2026-04-11T14:57:49Z</time></trkpt><trkpt lat="44.64584939061289" lon="7.989112431492309"><ele>203.0</ele><time>2026-04-11T14:57:51Z</time></trkpt><trkpt lat="44.64587771401803" lon="7.988998531261765"><ele>202.83333333333334</ele><time>2026-04-11T14:57:53Z</time></trkpt><trkpt lat="44.64590152144542" lon="7.988883786950719"><ele>202.66666666666669</ele><time>2026-04-11T14:57:55Z</time></trkpt><trkpt lat="44.645925687434016" lon="7.9887506801194"><ele>202.5</ele><time>2026-04-11T14:57:57Z</time></trkpt><trkpt lat="44.645949864405864" lon="7.988637729501658"><ele>202.33333333333331</ele><time>2026-04-11T14:57:59Z</time></trkpt><trkpt lat="44.64597763187184" lon="7.988513480071465"><ele>202.16666666666666</ele><time>2026-04-11T14:58:01Z</time></trkpt><trkpt lat="44.64600571745926" lon="7.988395566770868"><ele>202.0</ele><time>2026-04-11T14:58:03Z</time></trkpt><trkpt lat="44.64603473855546" lon="7.988274736643263"><ele>201.99999999999997</ele><time>2026-04-11T14:58:05Z</time></trkpt><trkpt lat="44.64606242490496" lon="7.988157179944882"><ele>202.0</ele><time>2026-04-11T14:58:07Z</time></trkpt><trkpt lat="44.646086018670665" lon="7.9880369012418635"><ele>202.0</ele><time>2026-04-11T14:58:09Z</time></trkpt><trkpt lat="44.646111010359874" lon="7.9879174586485755"><ele>202.0</ele><time>2026-04-11T14:58:11Z</time></trkpt><trkpt lat="44.646140689080795" lon="7.98780415084298"><ele>201.99999999999997</ele><time>2026-04-11T14:58:13Z</time></trkpt><trkpt lat="44.64616873064924" lon="7.987672720313946"><ele>202.0</ele><time>2026-04-11T14:58:15Z</time></trkpt><trkpt lat="44.64620480708477" lon="7.987565585576968"><ele>201.6</ele><time>2026-04-11T14:58:17Z</time></trkpt><trkpt lat="44.64623445537353" lon="7.987438950542807"><ele>201.2</ele><time>2026-04-11T14:58:19Z</time></trkpt><trkpt lat="44.64626816805694" lon="7.987316200911912"><ele>200.8</ele><time>2026-04-11T14:58:21Z</time></trkpt><trkpt lat="44.64629799302105" lon="7.987198672003138"><ele>200.4</ele><time>2026-04-11T14:58:23Z</time></trkpt><trkpt lat="44.64633028926541" lon="7.98708041982923"><ele>200.0</ele><time>2026-04-11T14:58:25Z</time></trkpt><trkpt lat="44.64635873413952" lon="7.986964330436752"><ele>200.0</ele><time>2026-04-11T14:58:27Z</time></trkpt><trkpt lat="44.64638626160834" lon="7.986842646553492"><ele>200.0</ele><time>2026-04-11T14:58:28.999Z</time></trkpt><trkpt lat="44.64641982123483" lon="7.986715024118814"><ele>200.0</ele><time>2026-04-11T14:58:30.999Z</time></trkpt><trkpt lat="44.646455704306426" lon="7.9865765819795005"><ele>200.0</ele><time>2026-04-11T14:58:32.999Z</time></trkpt><trkpt lat="44.64648947904212" lon="7.98645231322119"><ele>200.0</ele><time>2026-04-11T14:58:34.999Z</time></trkpt><trkpt lat="44.646519507687614" lon="7.986328562976071"><ele>200.0</ele><time>2026-04-11T14:58:36.999Z</time></trkpt><trkpt lat="44.64655177433992" lon="7.986202059282262"><ele>200.0</ele><time>2026-04-11T14:58:38.999Z</time></trkpt><trkpt lat="44.64660043261617" lon="7.986082011101868"><ele>200.0</ele><time>2026-04-11T14:58:40.999Z</time></trkpt><trkpt lat="44.646635704130546" lon="7.9859469422239195"><ele>200.0</ele><time>2026-04-11T14:58:42.999Z</time></trkpt><trkpt lat="44.64666630738459" lon="7.985829669535823"><ele>200.0</ele><time>2026-04-11T14:58:44.999Z</time></trkpt><trkpt lat="44.64667630339627" lon="7.985713057935262"><ele>200.00000000000003</ele><time>2026-04-11T14:58:46.999Z</time></trkpt><trkpt lat="44.646706998875764" lon="7.98558749786287"><ele>200.0</ele><time>2026-04-11T14:58:48.999Z</time></trkpt><trkpt lat="44.64673866040325" lon="7.985468212969312"><ele>200.0</ele><time>2026-04-11T14:58:50.999Z</time></trkpt><trkpt lat="44.646766830056436" lon="7.985356210081476"><ele>200.0</ele><time>2026-04-11T14:58:52.999Z</time></trkpt><trkpt lat="44.646796658750944" lon="7.985237837792033"><ele>200.00000000000003</ele><time>2026-04-11T14:58:54.999Z</time></trkpt><trkpt lat="44.64682491653185" lon="7.985125254373175"><ele>200.0</ele><time>2026-04-11T14:58:56.999Z</time></trkpt><trkpt lat="44.64685622541501" lon="7.985010514349511"><ele>200.00000000000003</ele><time>2026-04-11T14:58:58.999Z</time></trkpt><trkpt lat="44.64688319581178" lon="7.984898478645666"><ele>200.0</ele><time>2026-04-11T14:59:00.999Z</time></trkpt><trkpt lat="44.646916678637325" lon="7.984775365547646"><ele>200.0</ele><time>2026-04-11T14:59:02.999Z</time></trkpt><trkpt lat="44.64694378590218" lon="7.984663365291428"><ele>200.0</ele><time>2026-04-11T14:59:04.999Z</time></trkpt><trkpt lat="44.64697650312035" lon="7.984545228948146"><ele>200.00000000000003</ele><time>2026-04-11T14:59:06.999Z</time></trkpt><trkpt lat="44.64700262706439" lon="7.984430895813374"><ele>200.0</ele><time>2026-04-11T14:59:08.999Z</time></trkpt><trkpt lat="44.64703079821989" lon="7.984320957331815"><ele>199.66666666666669</ele><time>2026-04-11T14:59:10.999Z</time></trkpt><trkpt lat="44.64706593007142" lon="7.984200489551001"><ele>199.33333333333334</ele><time>2026-04-11T14:59:12.999Z</time></trkpt><trkpt lat="44.6470969365367" lon="7.984086556736576"><ele>199.0</ele><time>2026-04-11T14:59:14.999Z</time></trkpt><trkpt lat="44.64713473454104" lon="7.983972435926834"><ele>198.66666666666669</ele><time>2026-04-11T14:59:16.999Z</time></trkpt><trkpt lat="44.647164308783026" lon="7.983857078891858"><ele>198.33333333333334</ele><time>2026-04-11T14:59:19Z</time></trkpt><trkpt lat="44.647189755004824" lon="7.983735030821209"><ele>198.0</ele><time>2026-04-11T14:59:21Z</time></trkpt><trkpt lat="44.647220625860015" lon="7.983604196659269"><ele>198.0</ele><time>2026-04-11T14:59:23Z</time></trkpt><trkpt lat="44.64725225151627" lon="7.983473274175946"><ele>198.0</ele><time>2026-04-11T14:59:25Z</time></trkpt><trkpt lat="44.64728550526643" lon="7.983350323689934"><ele>198.0</ele><time>2026-04-11T14:59:27Z</time></trkpt><trkpt lat="44.64732103427156" lon="7.983229622366909"><ele>198.0</ele><time>2026-04-11T14:59:29Z</time></trkpt><trkpt lat="44.64735847742264" lon="7.983110184738375"><ele>198.0</ele><time>2026-04-11T14:59:31Z</time></trkpt><trkpt lat="44.64739535535372" lon="7.982980838515944"><ele>198.2</ele><time>2026-04-11T14:59:33Z</time></trkpt><trkpt lat="44.64743526443014" lon="7.9828684153965375"><ele>198.4</ele><time>2026-04-11T14:59:35Z</time></trkpt><trkpt lat="44.64747604810567" lon="7.982742488023922"><ele>198.6</ele><time>2026-04-11T14:59:37Z</time></trkpt><trkpt lat="44.64751892164174" lon="7.982607937521353"><ele>198.79999999999998</ele><time>2026-04-11T14:59:39Z</time></trkpt><trkpt lat="44.647561258203666" lon="7.982474346515013"><ele>199.0</ele><time>2026-04-11T14:59:41Z</time></trkpt><trkpt lat="44.647604812609224" lon="7.982327312726879"><ele>199.0</ele><time>2026-04-11T14:59:43Z</time></trkpt><trkpt lat="44.64765274620434" lon="7.982192015592777"><ele>199.0</ele><time>2026-04-11T14:59:45Z</time></trkpt><trkpt lat="44.64769850429566" lon="7.982046835076253"><ele>199.0</ele><time>2026-04-11T14:59:47Z</time></trkpt><trkpt lat="44.647740895797575" lon="7.981913344564509"><ele>199.0</ele><time>2026-04-11T14:59:49Z</time></trkpt><trkpt lat="44.6477852794431" lon="7.981786909610392"><ele>199.0</ele><time>2026-04-11T14:59:51Z</time></trkpt><trkpt lat="44.647820323371995" lon="7.981653671719892"><ele>198.99999999999997</ele><time>2026-04-11T14:59:53Z</time></trkpt><trkpt lat="44.64785051766349" lon="7.981543552990459"><ele>199.0</ele><time>2026-04-11T14:59:55Z</time></trkpt><trkpt lat="44.64788257714803" lon="7.981438701193302"><ele>199.0</ele><time>2026-04-11T14:59:57Z</time></trkpt><trkpt lat="44.64791882292168" lon="7.9813212812896515"><ele>199.0</ele><time>2026-04-11T14:59:59Z</time></trkpt><trkpt lat="44.647940894539495" lon="7.981190884762313"><ele>198.99999999999997</ele><time>2026-04-11T15:00:01Z</time></trkpt><trkpt lat="44.64795386666925" lon="7.981055037355054"><ele>199.0</ele><time>2026-04-11T15:00:03Z</time></trkpt><trkpt lat="44.647956192830144" lon="7.98089756046642"><ele>199.16666666666666</ele><time>2026-04-11T15:00:05Z</time></trkpt><trkpt lat="44.64796055408557" lon="7.980762627730317"><ele>199.33333333333331</ele><time>2026-04-11T15:00:07Z</time></trkpt><trkpt lat="44.64796255417905" lon="7.980643271169206"><ele>199.5</ele><time>2026-04-11T15:00:09Z</time></trkpt><trkpt lat="44.64796367325627" lon="7.980495812901764"><ele>199.66666666666669</ele><time>2026-04-11T15:00:11Z</time></trkpt><trkpt lat="44.64795781290261" lon="7.980388953863028"><ele>199.83333333333334</ele><time>2026-04-11T15:00:13Z</time></trkpt><trkpt lat="44.647962789490656" lon="7.980272605899844"><ele>200.0</ele><time>2026-04-11T15:00:15Z</time></trkpt><trkpt lat="44.647963252601144" lon="7.980155149815795"><ele>200.0</ele><time>2026-04-11T15:00:17Z</time></trkpt><trkpt lat="44.64796150025708" lon="7.980023291344714"><ele>200.0</ele><time>2026-04-11T15:00:19Z</time></trkpt><trkpt lat="44.647960178598694" lon="7.97988051220902"><ele>200.0</ele><time>2026-04-11T15:00:21Z</time></trkpt><trkpt lat="44.64796312254235" lon="7.979744119273208"><ele>200.0</ele><time>2026-04-11T15:00:23Z</time></trkpt><trkpt lat="44.64796334440889" lon="7.979616219063788"><ele>200.0</ele><time>2026-04-11T15:00:24.999Z</time></trkpt><trkpt lat="44.64796054580004" lon="7.979521584963326"><ele>199.66666666666669</ele><time>2026-04-11T15:00:25.999Z</time></trkpt><trkpt lat="44.6479642006095" lon="7.979409274140889"><ele>199.33333333333334</ele><time>2026-04-11T15:00:27.999Z</time></trkpt><trkpt lat="44.64797872076229" lon="7.979286010533909"><ele>199.0</ele><time>2026-04-11T15:00:29.999Z</time></trkpt><trkpt lat="44.64801550703624" lon="7.9791608162297205"><ele>198.66666666666669</ele><time>2026-04-11T15:00:31.999Z</time></trkpt><trkpt lat="44.64806258458086" lon="7.979067630021802"><ele>198.33333333333334</ele><time>2026-04-11T15:00:33.999Z</time></trkpt><trkpt lat="44.64807764355633" lon="7.978961767147179"><ele>198.0</ele><time>2026-04-11T15:00:36.999Z</time></trkpt><trkpt lat="44.648022463175636" lon="7.9788611143844825"><ele>198.0</ele><time>2026-04-11T15:00:39.999Z</time></trkpt><trkpt lat="44.647954809533346" lon="7.978842824237987"><ele>198.0</ele><time>2026-04-11T15:00:41.999Z</time></trkpt><trkpt lat="44.64789011571531" lon="7.978809576136515"><ele>198.0</ele><time>2026-04-11T15:00:43.999Z</time></trkpt><trkpt lat="44.647815849942354" lon="7.978777892217622"><ele>198.0</ele><time>2026-04-11T15:00:45.999Z</time></trkpt><trkpt lat="44.64773739704046" lon="7.978744309572593"><ele>198.0</ele><time>2026-04-11T15:00:47.999Z</time></trkpt><trkpt lat="44.647657038637035" lon="7.978711766189192"><ele>198.0</ele><time>2026-04-11T15:00:49.999Z</time></trkpt><trkpt lat="44.64757698830611" lon="7.978677291102383"><ele>198.83333333333334</ele><time>2026-04-11T15:00:51.999Z</time></trkpt><trkpt lat="44.64749793484741" lon="7.978645530580537"><ele>199.66666666666669</ele><time>2026-04-11T15:00:53.999Z</time></trkpt><trkpt lat="44.64740701334167" lon="7.978608134576464"><ele>200.5</ele><time>2026-04-11T15:00:55.999Z</time></trkpt><trkpt lat="44.647336909212996" lon="7.978566140459153"><ele>201.33333333333334</ele><time>2026-04-11T15:00:57.999Z</time></trkpt><trkpt lat="44.64725668572268" lon="7.978519937244665"><ele>202.16666666666669</ele><time>2026-04-11T15:00:59.999Z</time></trkpt><trkpt lat="44.64716532848381" lon="7.978467375299971"><ele>203.0</ele><time>2026-04-11T15:01:01.999Z</time></trkpt><trkpt lat="44.6470750117324" lon="7.9784117777590975"><ele>202.4</ele><time>2026-04-11T15:01:03.999Z</time></trkpt><trkpt lat="44.646999361071224" lon="7.978327404835833"><ele>201.8</ele><time>2026-04-11T15:01:05.999Z</time></trkpt><trkpt lat="44.64694100200818" lon="7.978206861597827"><ele>201.2</ele><time>2026-04-11T15:01:07.999Z</time></trkpt><trkpt lat="44.64691019425723" lon="7.97805917341948"><ele>200.6</ele><time>2026-04-11T15:01:09.999Z</time></trkpt><trkpt lat="44.646866473298275" lon="7.977938336816722"><ele>200.0</ele><time>2026-04-11T15:01:11.999Z</time></trkpt><trkpt lat="44.64678059681206" lon="7.977853311321441"><ele>200.00000000000003</ele><time>2026-04-11T15:01:13.999Z</time></trkpt><trkpt lat="44.646681395126166" lon="7.97785137152764"><ele>200.0</ele><time>2026-04-11T15:01:15.999Z</time></trkpt><trkpt lat="44.64659456700903" lon="7.9779385155651195"><ele>200.0</ele><time>2026-04-11T15:01:17.999Z</time></trkpt><trkpt lat="44.64655527511344" lon="7.978055325668812"><ele>200.0</ele><time>2026-04-11T15:01:19.999Z</time></trkpt><trkpt lat="44.64652131444575" lon="7.978152363723094"><ele>200.00000000000003</ele><time>2026-04-11T15:01:21.999Z</time></trkpt><trkpt lat="44.64646811797991" lon="7.978225466805694"><ele>200.0</ele><time>2026-04-11T15:01:24Z</time></trkpt><trkpt lat="44.6463965287512" lon="7.978251247637388"><ele>200.00000000000003</ele><time>2026-04-11T15:01:26Z</time></trkpt><trkpt lat="44.6463178343608" lon="7.978280979087673"><ele>200.0</ele><time>2026-04-11T15:01:28Z</time></trkpt><trkpt lat="44.64624076131266" lon="7.978319893294913"><ele>200.0</ele><time>2026-04-11T15:01:30Z</time></trkpt><trkpt lat="44.64616590016888" lon="7.978362630612845"><ele>200.0</ele><time>2026-04-11T15:01:32Z</time></trkpt><trkpt lat="44.64609294072105" lon="7.978389790226288"><ele>200.00000000000003</ele><time>2026-04-11T15:01:34Z</time></trkpt><trkpt lat="44.646014359341365" lon="7.978444335106829"><ele>200.0</ele><time>2026-04-11T15:01:36Z</time></trkpt><trkpt lat="44.64593451991013" lon="7.978492801157366"><ele>201.50000000000003</ele><time>2026-04-11T15:01:38Z</time></trkpt><trkpt lat="44.645845805770456" lon="7.9785418284327125"><ele>203.0</ele><time>2026-04-11T15:01:40Z</time></trkpt><trkpt lat="44.64577017101189" lon="7.978588603723741"><ele>204.5</ele><time>2026-04-11T15:01:42Z</time></trkpt><trkpt lat="44.64569853735508" lon="7.978627103499769"><ele>206.0</ele><time>2026-04-11T15:01:44Z</time></trkpt><trkpt lat="44.64562985024928" lon="7.978666935390778"><ele>207.50000000000003</ele><time>2026-04-11T15:01:46Z</time></trkpt><trkpt lat="44.64555479267971" lon="7.9787028842475465"><ele>209.0</ele><time>2026-04-11T15:01:48Z</time></trkpt><trkpt lat="44.64548606321757" lon="7.978736042572143"><ele>209.00000000000003</ele><time>2026-04-11T15:01:50Z</time></trkpt><trkpt lat="44.64541288268693" lon="7.978774407657307"><ele>209.0</ele><time>2026-04-11T15:01:52Z</time></trkpt><trkpt lat="44.64533726856339" lon="7.978811332254138"><ele>209.0</ele><time>2026-04-11T15:01:54Z</time></trkpt><trkpt lat="44.64527104351187" lon="7.978852163037351"><ele>209.0</ele><time>2026-04-11T15:01:56Z</time></trkpt><trkpt lat="44.64520667357252" lon="7.978886326653385"><ele>209.00000000000003</ele><time>2026-04-11T15:01:58Z</time></trkpt><trkpt lat="44.6451305777732" lon="7.978921407762161"><ele>209.0</ele><time>2026-04-11T15:02:00Z</time></trkpt><trkpt lat="44.64506453337421" lon="7.978956719877294"><ele>208.33333333333334</ele><time>2026-04-11T15:02:02Z</time></trkpt><trkpt lat="44.644985619297536" lon="7.978993173647001"><ele>207.66666666666669</ele><time>2026-04-11T15:02:04Z</time></trkpt><trkpt lat="44.64491644236379" lon="7.97903239219897"><ele>207.0</ele><time>2026-04-11T15:02:06Z</time></trkpt><trkpt lat="44.64484836043643" lon="7.979073593317198"><ele>206.33333333333331</ele><time>2026-04-11T15:02:08Z</time></trkpt><trkpt lat="44.644769612357" lon="7.979105904193365"><ele>205.66666666666666</ele><time>2026-04-11T15:02:10Z</time></trkpt><trkpt lat="44.64470434310139" lon="7.9791519681744765"><ele>205.0</ele><time>2026-04-11T15:02:12Z</time></trkpt><trkpt lat="44.644619761428885" lon="7.979193617348409"><ele>206.16666666666666</ele><time>2026-04-11T15:02:14Z</time></trkpt><trkpt lat="44.64454858212243" lon="7.97923145092573"><ele>207.33333333333331</ele><time>2026-04-11T15:02:16Z</time></trkpt><trkpt lat="44.64445972003152" lon="7.979275257448314"><ele>208.5</ele><time>2026-04-11T15:02:18Z</time></trkpt><trkpt lat="44.64437704886212" lon="7.979318634363306"><ele>209.66666666666669</ele><time>2026-04-11T15:02:20Z</time></trkpt><trkpt lat="44.6443019349212" lon="7.979370908709514"><ele>210.83333333333334</ele><time>2026-04-11T15:02:22Z</time></trkpt><trkpt lat="44.644216652127554" lon="7.9794397916273985"><ele>212.0</ele><time>2026-04-11T15:02:24Z</time></trkpt><trkpt lat="44.644142363780794" lon="7.979503927805646"><ele>212.0</ele><time>2026-04-11T15:02:26Z</time></trkpt><trkpt lat="44.6440623106246" lon="7.979578877828471"><ele>212.0</ele><time>2026-04-11T15:02:28Z</time></trkpt><trkpt lat="44.643983045972334" lon="7.979665319572628"><ele>212.0</ele><time>2026-04-11T15:02:30Z</time></trkpt><trkpt lat="44.643908899734186" lon="7.979752014272585"><ele>212.0</ele><time>2026-04-11T15:02:32Z</time></trkpt><trkpt lat="44.643832361528695" lon="7.979838913808402"><ele>212.0</ele><time>2026-04-11T15:02:33.999Z</time></trkpt><trkpt lat="44.64376030034533" lon="7.979921515798699"><ele>212.0</ele><time>2026-04-11T15:02:35.999Z</time></trkpt><trkpt lat="44.64368307089239" lon="7.980006061853328"><ele>212.0</ele><time>2026-04-11T15:02:37.999Z</time></trkpt><trkpt lat="44.64361551632763" lon="7.98009757771912"><ele>212.0</ele><time>2026-04-11T15:02:39.999Z</time></trkpt><trkpt lat="44.64355236360543" lon="7.9801804972472805"><ele>212.0</ele><time>2026-04-11T15:02:41.999Z</time></trkpt><trkpt lat="44.64347984326431" lon="7.980267565856172"><ele>212.0</ele><time>2026-04-11T15:02:43.999Z</time></trkpt><trkpt lat="44.64341362335555" lon="7.980345412213452"><ele>211.39999999999998</ele><time>2026-04-11T15:02:45.999Z</time></trkpt><trkpt lat="44.64333596716208" lon="7.980431769796912"><ele>210.79999999999998</ele><time>2026-04-11T15:02:47.999Z</time></trkpt><trkpt lat="44.64327230426505" lon="7.980524169104224"><ele>210.2</ele><time>2026-04-11T15:02:49.999Z</time></trkpt><trkpt lat="44.64319398746611" lon="7.980610424697338"><ele>209.6</ele><time>2026-04-11T15:02:51.999Z</time></trkpt><trkpt lat="44.643116618248065" lon="7.9806977253157765"><ele>209.0</ele><time>2026-04-11T15:02:53.999Z</time></trkpt><trkpt lat="44.64303731785695" lon="7.980763228884361"><ele>209.0</ele><time>2026-04-11T15:02:55.999Z</time></trkpt><trkpt lat="44.642954561579295" lon="7.98083971147386"><ele>209.0</ele><time>2026-04-11T15:02:57.999Z</time></trkpt><trkpt lat="44.64287329838268" lon="7.980900378940415"><ele>209.0</ele><time>2026-04-11T15:02:59.999Z</time></trkpt><trkpt lat="44.642788213430734" lon="7.980955366001332"><ele>209.0</ele><time>2026-04-11T15:03:01.999Z</time></trkpt><trkpt lat="44.64271107917522" lon="7.981014142141414"><ele>209.0</ele><time>2026-04-11T15:03:03.999Z</time></trkpt><trkpt lat="44.64262385464862" lon="7.98106536257295"><ele>209.0</ele><time>2026-04-11T15:03:05.999Z</time></trkpt><trkpt lat="44.642535873201055" lon="7.981124889528448"><ele>209.0</ele><time>2026-04-11T15:03:07.999Z</time></trkpt><trkpt lat="44.64245006403697" lon="7.981198946992659"><ele>209.0</ele><time>2026-04-11T15:03:09.999Z</time></trkpt><trkpt lat="44.64236771186284" lon="7.9812842083291855"><ele>209.0</ele><time>2026-04-11T15:03:11.999Z</time></trkpt><trkpt lat="44.64228985806474" lon="7.981382828475218"><ele>209.0</ele><time>2026-04-11T15:03:13.999Z</time></trkpt><trkpt lat="44.642216354976135" lon="7.981474990711869"><ele>209.0</ele><time>2026-04-11T15:03:15.999Z</time></trkpt><trkpt lat="44.64213601356554" lon="7.9815672200113"><ele>209.0</ele><time>2026-04-11T15:03:17.999Z</time></trkpt><trkpt lat="44.64205249813594" lon="7.98166897948756"><ele>209.0</ele><time>2026-04-11T15:03:19.999Z</time></trkpt><trkpt lat="44.64196268272344" lon="7.981755557678936"><ele>209.0</ele><time>2026-04-11T15:03:21.999Z</time></trkpt><trkpt lat="44.64186903204465" lon="7.9818391402405275"><ele>209.0</ele><time>2026-04-11T15:03:23.999Z</time></trkpt><trkpt lat="44.64177162994571" lon="7.981909075360715"><ele>209.0</ele><time>2026-04-11T15:03:25.999Z</time></trkpt><trkpt lat="44.64167164360252" lon="7.981967780285077"><ele>209.0</ele><time>2026-04-11T15:03:27.999Z</time></trkpt><trkpt lat="44.64156454294729" lon="7.98201972871361"><ele>209.0</ele><time>2026-04-11T15:03:30Z</time></trkpt><trkpt lat="44.64146644165069" lon="7.982066598491852"><ele>209.0</ele><time>2026-04-11T15:03:32Z</time></trkpt><trkpt lat="44.64136764924719" lon="7.982105721777605"><ele>209.0</ele><time>2026-04-11T15:03:34Z</time></trkpt><trkpt lat="44.64126701365697" lon="7.982140965642373"><ele>209.00000000000003</ele><time>2026-04-11T15:03:36Z</time></trkpt><trkpt lat="44.641172698487146" lon="7.98217573228149"><ele>209.0</ele><time>2026-04-11T15:03:38Z</time></trkpt><trkpt lat="44.641083735265305" lon="7.98220742798384"><ele>209.0</ele><time>2026-04-11T15:03:40Z</time></trkpt><trkpt lat="44.6410038072846" lon="7.982231753387261"><ele>209.0</ele><time>2026-04-11T15:03:42Z</time></trkpt><trkpt lat="44.640926896281975" lon="7.982260097517208"><ele>209.00000000000003</ele><time>2026-04-11T15:03:44Z</time></trkpt><trkpt lat="44.640845242190494" lon="7.982292165859977"><ele>209.0</ele><time>2026-04-11T15:03:46Z</time></trkpt><trkpt lat="44.64075579267327" lon="7.982324335058047"><ele>208.79999999999998</ele><time>2026-04-11T15:03:48Z</time></trkpt><trkpt lat="44.64067044338457" lon="7.982353367461124"><ele>208.6</ele><time>2026-04-11T15:03:50Z</time></trkpt><trkpt lat="44.640581925025366" lon="7.9823826977291965"><ele>208.4</ele><time>2026-04-11T15:03:52Z</time></trkpt><trkpt lat="44.64049387670921" lon="7.982411190240585"><ele>208.2</ele><time>2026-04-11T15:03:54Z</time></trkpt><trkpt lat="44.64040601460231" lon="7.98244687196459"><ele>208.0</ele><time>2026-04-11T15:03:56Z</time></trkpt><trkpt lat="44.64031097981157" lon="7.982482121633584"><ele>207.8</ele><time>2026-04-11T15:03:58Z</time></trkpt><trkpt lat="44.640217264891966" lon="7.9825101464188535"><ele>207.60000000000002</ele><time>2026-04-11T15:04:00Z</time></trkpt><trkpt lat="44.640130490870874" lon="7.982547044095622"><ele>207.39999999999998</ele><time>2026-04-11T15:04:02Z</time></trkpt><trkpt lat="44.64003697585113" lon="7.982575306586577"><ele>207.2</ele><time>2026-04-11T15:04:04Z</time></trkpt><trkpt lat="44.639943145131525" lon="7.9826057435857685"><ele>207.0</ele><time>2026-04-11T15:04:06Z</time></trkpt><trkpt lat="44.63984892689314" lon="7.982629120200135"><ele>208.8</ele><time>2026-04-11T15:04:08Z</time></trkpt><trkpt lat="44.639757959324385" lon="7.9826528050817815"><ele>210.6</ele><time>2026-04-11T15:04:10Z</time></trkpt><trkpt lat="44.639662391617804" lon="7.9826666530970485"><ele>212.40000000000003</ele><time>2026-04-11T15:04:12Z</time></trkpt><trkpt lat="44.639573365878036" lon="7.982681045934334"><ele>214.20000000000002</ele><time>2026-04-11T15:04:14Z</time></trkpt><trkpt lat="44.639477845656565" lon="7.982694720637445"><ele>216.0</ele><time>2026-04-11T15:04:16Z</time></trkpt><trkpt lat="44.63939108733267" lon="7.982697808209759"><ele>216.0</ele><time>2026-04-11T15:04:18Z</time></trkpt><trkpt lat="44.639311782577124" lon="7.982704633684405"><ele>216.0</ele><time>2026-04-11T15:04:20Z</time></trkpt><trkpt lat="44.63922764800938" lon="7.982716794566735"><ele>216.0</ele><time>2026-04-11T15:04:22Z</time></trkpt><trkpt lat="44.6391382432369" lon="7.982727845350896"><ele>216.0</ele><time>2026-04-11T15:04:24Z</time></trkpt><trkpt lat="44.6390518056031" lon="7.98273906455191"><ele>216.0</ele><time>2026-04-11T15:04:26Z</time></trkpt><trkpt lat="44.63897325815087" lon="7.982749746886655"><ele>216.0</ele><time>2026-04-11T15:04:28Z</time></trkpt><trkpt lat="44.63889821597722" lon="7.982759495813938"><ele>216.0</ele><time>2026-04-11T15:04:30Z</time></trkpt><trkpt lat="44.638833390016245" lon="7.9827638389452"><ele>216.0</ele><time>2026-04-11T15:04:32Z</time></trkpt><trkpt lat="44.63876781142104" lon="7.982751409946806"><ele>216.0</ele><time>2026-04-11T15:04:35Z</time></trkpt><trkpt lat="44.63884948771871" lon="7.982766643111504"><ele>216.0</ele><time>2026-04-11T15:04:43.999Z</time></trkpt><trkpt lat="44.63882661895967" lon="7.982849629078947"><ele>216.0</ele><time>2026-04-11T15:04:46.999Z</time></trkpt><trkpt lat="44.638749205263174" lon="7.982891010727667"><ele>216.0</ele><time>2026-04-11T15:04:49.999Z</time></trkpt><trkpt lat="44.638673999106395" lon="7.98292171379061"><ele>216.0</ele><time>2026-04-11T15:04:54.999Z</time></trkpt><trkpt lat="44.63861519271106" lon="7.983009472277215"><ele>215.5</ele><time>2026-04-11T15:04:57.999Z</time></trkpt><trkpt lat="44.63853539458936" lon="7.983075208223187"><ele>215.0</ele><time>2026-04-11T15:05:00.999Z</time></trkpt><trkpt lat="44.63849550869579" lon="7.983147438619893"><ele>214.5</ele><time>2026-04-11T15:05:02.999Z</time></trkpt><trkpt lat="44.63845898904696" lon="7.983221989730553"><ele>214.0</ele><time>2026-04-11T15:05:04.999Z</time></trkpt><trkpt lat="44.63839920738248" lon="7.983308004750883"><ele>213.5</ele><time>2026-04-11T15:05:07.999Z</time></trkpt><trkpt lat="44.63835688511015" lon="7.983401485876677"><ele>213.0</ele><time>2026-04-11T15:05:09.999Z</time></trkpt><trkpt lat="44.63830599250583" lon="7.98352558598709"><ele>213.99999999999997</ele><time>2026-04-11T15:05:12.999Z</time></trkpt><trkpt lat="44.638276800032834" lon="7.983619482651851"><ele>215.0</ele><time>2026-04-11T15:05:14.999Z</time></trkpt><trkpt lat="44.63824484461619" lon="7.983708537015716"><ele>216.0</ele><time>2026-04-11T15:05:16.999Z</time></trkpt><trkpt lat="44.63822999356872" lon="7.983798241851356"><ele>217.0</ele><time>2026-04-11T15:05:18.999Z</time></trkpt><trkpt lat="44.63820912868132" lon="7.983901594497512"><ele>218.0</ele><time>2026-04-11T15:05:20.999Z</time></trkpt><trkpt lat="44.63820071942475" lon="7.983990391561192"><ele>218.99999999999997</ele><time>2026-04-11T15:05:22.999Z</time></trkpt><trkpt lat="44.638201078557444" lon="7.984124104782146"><ele>220.0</ele><time>2026-04-11T15:05:24.999Z</time></trkpt><trkpt lat="44.6381858901776" lon="7.984227578187808"><ele>220.42857142857142</ele><time>2026-04-11T15:05:27.999Z</time></trkpt><trkpt lat="44.63818364019414" lon="7.984316253731703"><ele>220.85714285714286</ele><time>2026-04-11T15:05:29.999Z</time></trkpt><trkpt lat="44.6381784048812" lon="7.9844120593097125"><ele>221.28571428571428</ele><time>2026-04-11T15:05:31.999Z</time></trkpt><trkpt lat="44.63817556784155" lon="7.984509202900553"><ele>221.71428571428572</ele><time>2026-04-11T15:05:33.999Z</time></trkpt><trkpt lat="44.63818448155408" lon="7.984600903877362"><ele>222.14285714285714</ele><time>2026-04-11T15:05:36Z</time></trkpt><trkpt lat="44.638195295273796" lon="7.984694134742797"><ele>222.57142857142856</ele><time>2026-04-11T15:05:38Z</time></trkpt><trkpt lat="44.638212561647414" lon="7.984784518395097"><ele>223.0</ele><time>2026-04-11T15:05:40Z</time></trkpt><trkpt lat="44.638235501223974" lon="7.984903590575095"><ele>222.99999999999997</ele><time>2026-04-11T15:05:43Z</time></trkpt><trkpt lat="44.63826019065919" lon="7.984990898440799"><ele>223.0</ele><time>2026-04-11T15:05:45Z</time></trkpt><trkpt lat="44.63829438948258" lon="7.985069454229921"><ele>223.0</ele><time>2026-04-11T15:05:47Z</time></trkpt><trkpt lat="44.638330929663404" lon="7.985186398086161"><ele>223.0</ele><time>2026-04-11T15:05:50Z</time></trkpt><trkpt lat="44.63835921038849" lon="7.985296102890035"><ele>222.99999999999997</ele><time>2026-04-11T15:05:53Z</time></trkpt><trkpt lat="44.638400090569256" lon="7.9853919988399795"><ele>223.0</ele><time>2026-04-11T15:05:56Z</time></trkpt><trkpt lat="44.63842978214151" lon="7.985503605351001"><ele>223.49999999999997</ele><time>2026-04-11T15:05:59Z</time></trkpt><trkpt lat="44.63846117071666" lon="7.985619822833533"><ele>224.0</ele><time>2026-04-11T15:06:02Z</time></trkpt><trkpt lat="44.63849008535744" lon="7.9857427651482205"><ele>224.5</ele><time>2026-04-11T15:06:05Z</time></trkpt><trkpt lat="44.63852174247034" lon="7.985872213467806"><ele>225.0</ele><time>2026-04-11T15:06:08Z</time></trkpt><trkpt lat="44.63854927142712" lon="7.985993023379441"><ele>225.49999999999997</ele><time>2026-04-11T15:06:11Z</time></trkpt><trkpt lat="44.638570257956694" lon="7.986090154874576"><ele>226.0</ele><time>2026-04-11T15:06:14Z</time></trkpt><trkpt lat="44.63857729560365" lon="7.98620873073571"><ele>226.66666666666666</ele><time>2026-04-11T15:06:17Z</time></trkpt><trkpt lat="44.638573433365096" lon="7.986329902023362"><ele>227.33333333333331</ele><time>2026-04-11T15:06:20Z</time></trkpt><trkpt lat="44.638573970933976" lon="7.986451995858191"><ele>228.0</ele><time>2026-04-11T15:06:23Z</time></trkpt><trkpt lat="44.63857106893801" lon="7.986559046217497"><ele>228.66666666666669</ele><time>2026-04-11T15:06:26Z</time></trkpt><trkpt lat="44.63856030150967" lon="7.986659366704608"><ele>229.33333333333334</ele><time>2026-04-11T15:06:29Z</time></trkpt><trkpt lat="44.63854139196569" lon="7.98676223145764"><ele>230.0</ele><time>2026-04-11T15:06:32Z</time></trkpt><trkpt lat="44.63854417120865" lon="7.986852656266793"><ele>230.1428571428571</ele><time>2026-04-11T15:06:34Z</time></trkpt><trkpt lat="44.63854093306898" lon="7.986969011835528"><ele>230.28571428571428</ele><time>2026-04-11T15:06:37Z</time></trkpt><trkpt lat="44.63854079953279" lon="7.98706580792111"><ele>230.42857142857142</ele><time>2026-04-11T15:06:40Z</time></trkpt><trkpt lat="44.63852573779034" lon="7.987158942971293"><ele>230.57142857142856</ele><time>2026-04-11T15:06:43Z</time></trkpt><trkpt lat="44.638530107847615" lon="7.987266221197802"><ele>230.71428571428572</ele><time>2026-04-11T15:06:45.999Z</time></trkpt><trkpt lat="44.63853486932305" lon="7.987377349331675"><ele>230.85714285714286</ele><time>2026-04-11T15:06:48.999Z</time></trkpt><trkpt lat="44.63853934806758" lon="7.987469203410187"><ele>231.0</ele><time>2026-04-11T15:06:51.999Z</time></trkpt><trkpt lat="44.63853837104164" lon="7.987566974595639"><ele>231.71428571428572</ele><time>2026-04-11T15:06:54.999Z</time></trkpt><trkpt lat="44.63853167340828" lon="7.987658172959406"><ele>232.42857142857144</ele><time>2026-04-11T15:06:59.999Z</time></trkpt><trkpt lat="44.638539577189476" lon="7.987759286079489"><ele>233.14285714285714</ele><time>2026-04-11T15:07:03.999Z</time></trkpt><trkpt lat="44.638577031118224" lon="7.987842163140091"><ele>233.85714285714286</ele><time>2026-04-11T15:07:06.999Z</time></trkpt><trkpt lat="44.63853952030626" lon="7.987923324876704"><ele>234.57142857142858</ele><time>2026-04-11T15:07:14.999Z</time></trkpt><trkpt lat="44.63853996174859" lon="7.988021144984213"><ele>235.28571428571428</ele><time>2026-04-11T15:07:18.999Z</time></trkpt><trkpt lat="44.638586683229605" lon="7.988097785994971"><ele>236.0</ele><time>2026-04-11T15:07:21.999Z</time></trkpt><trkpt lat="44.638651532510856" lon="7.9880337535971115"><ele>238.00000000000003</ele><time>2026-04-11T15:07:26.999Z</time></trkpt><trkpt lat="44.6386819174318" lon="7.987955680557488"><ele>240.0</ele><time>2026-04-11T15:07:30.999Z</time></trkpt><trkpt lat="44.638729469951144" lon="7.987850999093815"><ele>242.0</ele><time>2026-04-11T15:07:35.999Z</time></trkpt><trkpt lat="44.63875232601159" lon="7.98773630094318"><ele>244.0</ele><time>2026-04-11T15:07:39.999Z</time></trkpt><trkpt lat="44.63877699715894" lon="7.987642981677785"><ele>246.00000000000003</ele><time>2026-04-11T15:07:42Z</time></trkpt><trkpt lat="44.63881056836589" lon="7.987550823350136"><ele>248.0</ele><time>2026-04-11T15:07:46Z</time></trkpt><trkpt lat="44.638845648098126" lon="7.987424001091103"><ele>248.00000000000003</ele><time>2026-04-11T15:07:49Z</time></trkpt><trkpt lat="44.63887752702168" lon="7.987333504627255"><ele>248.0</ele><time>2026-04-11T15:07:51Z</time></trkpt><trkpt lat="44.638901156014306" lon="7.987211434018692"><ele>248.0</ele><time>2026-04-11T15:07:54Z</time></trkpt><trkpt lat="44.638915611261844" lon="7.987105003622794"><ele>248.0</ele><time>2026-04-11T15:07:57Z</time></trkpt><trkpt lat="44.63893547146683" lon="7.986969835161957"><ele>248.00000000000003</ele><time>2026-04-11T15:08:01Z</time></trkpt><trkpt lat="44.63894299703229" lon="7.986879125619228"><ele>248.0</ele><time>2026-04-11T15:08:03Z</time></trkpt><trkpt lat="44.63895803465828" lon="7.986761787677484"><ele>247.33333333333334</ele><time>2026-04-11T15:08:06Z</time></trkpt><trkpt lat="44.63895723551514" lon="7.986632580110448"><ele>246.66666666666669</ele><time>2026-04-11T15:08:09Z</time></trkpt><trkpt lat="44.638954519466026" lon="7.986530740598733"><ele>246.0</ele><time>2026-04-11T15:08:11Z</time></trkpt><trkpt lat="44.638958974122595" lon="7.986431658701108"><ele>245.33333333333331</ele><time>2026-04-11T15:08:13Z</time></trkpt><trkpt lat="44.63897292275381" lon="7.9863029736226"><ele>244.66666666666666</ele><time>2026-04-11T15:08:16Z</time></trkpt><trkpt lat="44.63897814398491" lon="7.986195401267334"><ele>244.0</ele><time>2026-04-11T15:08:19Z</time></trkpt><trkpt lat="44.638986539742604" lon="7.986064126323426"><ele>243.99999999999997</ele><time>2026-04-11T15:08:22Z</time></trkpt><trkpt lat="44.639006964136506" lon="7.985941814608525"><ele>244.0</ele><time>2026-04-11T15:08:26Z</time></trkpt><trkpt lat="44.63901382253137" lon="7.985840949285384"><ele>244.0</ele><time>2026-04-11T15:08:28Z</time></trkpt><trkpt lat="44.639011692966264" lon="7.985735442077113"><ele>244.0</ele><time>2026-04-11T15:08:31Z</time></trkpt><trkpt lat="44.639012564620884" lon="7.985622331498964"><ele>243.99999999999997</ele><time>2026-04-11T15:08:34Z</time></trkpt><trkpt lat="44.63899482846458" lon="7.985537434381851"><ele>244.0</ele><time>2026-04-11T15:08:36Z</time></trkpt><trkpt lat="44.6389904847002" lon="7.985430570312187"><ele>243.57142857142856</ele><time>2026-04-11T15:08:38Z</time></trkpt><trkpt lat="44.63897539744802" lon="7.98532981133566"><ele>243.14285714285714</ele><time>2026-04-11T15:08:40Z</time></trkpt><trkpt lat="44.638957488539056" lon="7.9852386922926035"><ele>242.71428571428572</ele><time>2026-04-11T15:08:42Z</time></trkpt><trkpt lat="44.638931650239805" lon="7.985152973496149"><ele>242.28571428571428</ele><time>2026-04-11T15:08:44Z</time></trkpt><trkpt lat="44.63889841989419" lon="7.985042624184858"><ele>241.8571428571429</ele><time>2026-04-11T15:08:46.999Z</time></trkpt><trkpt lat="44.638879770055844" lon="7.984940298922033"><ele>241.42857142857144</ele><time>2026-04-11T15:08:49.999Z</time></trkpt><trkpt lat="44.638863631690484" lon="7.984838815841429"><ele>241.0</ele><time>2026-04-11T15:08:52.999Z</time></trkpt><trkpt lat="44.63885752112018" lon="7.984737696982694"><ele>241.0</ele><time>2026-04-11T15:08:55.999Z</time></trkpt><trkpt lat="44.638878992262484" lon="7.984647141687682"><ele>241.00000000000003</ele><time>2026-04-11T15:08:58.999Z</time></trkpt><trkpt lat="44.63892228391525" lon="7.984572862334077"><ele>241.0</ele><time>2026-04-11T15:09:01.999Z</time></trkpt><trkpt lat="44.638984915163526" lon="7.984532607808028"><ele>241.0</ele><time>2026-04-11T15:09:04.999Z</time></trkpt><trkpt lat="44.6390499300981" lon="7.984518825487213"><ele>241.00000000000003</ele><time>2026-04-11T15:09:07.999Z</time></trkpt><trkpt lat="44.63912573510777" lon="7.984539638862573"><ele>241.0</ele><time>2026-04-11T15:09:11.999Z</time></trkpt><trkpt lat="44.63918798547874" lon="7.984576455783733"><ele>241.0</ele><time>2026-04-11T15:09:14.999Z</time></trkpt><trkpt lat="44.63926027596903" lon="7.984622858264927"><ele>240.99999999999997</ele><time>2026-04-11T15:09:18.999Z</time></trkpt><trkpt lat="44.63933131944715" lon="7.984664883244984"><ele>241.0</ele><time>2026-04-11T15:09:22.999Z</time></trkpt><trkpt lat="44.63940246250296" lon="7.984710433126878"><ele>241.0</ele><time>2026-04-11T15:09:27.999Z</time></trkpt><trkpt lat="44.63947286899388" lon="7.984754533846336"><ele>241.0</ele><time>2026-04-11T15:09:31.999Z</time></trkpt><trkpt lat="44.639562462305676" lon="7.9847838781484795"><ele>240.99999999999997</ele><time>2026-04-11T15:09:35.999Z</time></trkpt><trkpt lat="44.639635333637905" lon="7.984800279217601"><ele>241.0</ele><time>2026-04-11T15:09:40.999Z</time></trkpt><trkpt lat="44.639707237693514" lon="7.984793766718601"><ele>243.0</ele><time>2026-04-11T15:09:45.999Z</time></trkpt><trkpt lat="44.63977735344756" lon="7.984785982231549"><ele>245.00000000000003</ele><time>2026-04-11T15:09:50Z</time></trkpt><trkpt lat="44.639847495270416" lon="7.984780388001893"><ele>247.0</ele><time>2026-04-11T15:09:54Z</time></trkpt><trkpt lat="44.639911106684906" lon="7.984755320328074"><ele>249.0</ele><time>2026-04-11T15:09:58Z</time></trkpt><trkpt lat="44.63997511369762" lon="7.984748094390105"><ele>251.00000000000003</ele><time>2026-04-11T15:10:02Z</time></trkpt><trkpt lat="44.64004042563727" lon="7.984730865525332"><ele>253.0</ele><time>2026-04-11T15:10:05Z</time></trkpt><trkpt lat="44.640111436172354" lon="7.9847015286136545"><ele>255.0</ele><time>2026-04-11T15:10:08Z</time></trkpt><trkpt lat="44.64018883720946" lon="7.984683930165305"><ele>255.0</ele><time>2026-04-11T15:10:12Z</time></trkpt><trkpt lat="44.64024775535174" lon="7.984649057085481"><ele>255.00000000000003</ele><time>2026-04-11T15:10:15Z</time></trkpt><trkpt lat="44.64032131329113" lon="7.984644973230916"><ele>255.0</ele><time>2026-04-11T15:10:18Z</time></trkpt><trkpt lat="44.64039261538927" lon="7.984634798998142"><ele>255.0</ele><time>2026-04-11T15:10:22Z</time></trkpt><trkpt lat="44.64048012694254" lon="7.9846277711688485"><ele>255.00000000000003</ele><time>2026-04-11T15:10:26Z</time></trkpt><trkpt lat="44.64055131616745" lon="7.984632057806016"><ele>255.0</ele><time>2026-04-11T15:10:29Z</time></trkpt><trkpt lat="44.6406232105287" lon="7.984637069912724"><ele>255.0</ele><time>2026-04-11T15:10:32Z</time></trkpt><trkpt lat="44.64070869942945" lon="7.984658477476458"><ele>254.85714285714286</ele><time>2026-04-11T15:10:36Z</time></trkpt><trkpt lat="44.640777849088124" lon="7.984696877861699"><ele>254.71428571428572</ele><time>2026-04-11T15:10:39Z</time></trkpt><trkpt lat="44.64079091487109" lon="7.984786883880835"><ele>254.57142857142858</ele><time>2026-04-11T15:10:42Z</time></trkpt><trkpt lat="44.64081923010461" lon="7.984893646689503"><ele>254.42857142857144</ele><time>2026-04-11T15:10:46Z</time></trkpt><trkpt lat="44.64081676067578" lon="7.984989915491338"><ele>254.28571428571428</ele><time>2026-04-11T15:10:49Z</time></trkpt><trkpt lat="44.640807447949726" lon="7.985087856538957"><ele>254.14285714285717</ele><time>2026-04-11T15:10:52Z</time></trkpt><trkpt lat="44.640801976316354" lon="7.985204692083905"><ele>254.0</ele><time>2026-04-11T15:10:56Z</time></trkpt><trkpt lat="44.640783898840006" lon="7.9853003139006375"><ele>254.00000000000003</ele><time>2026-04-11T15:10:59Z</time></trkpt><trkpt lat="44.64076880033227" lon="7.985414596361425"><ele>254.0</ele><time>2026-04-11T15:11:02.999Z</time></trkpt><trkpt lat="44.64076263069624" lon="7.985517286874253"><ele>254.0</ele><time>2026-04-11T15:11:05.999Z</time></trkpt><trkpt lat="44.64075342347468" lon="7.985606648681649"><ele>254.0</ele><time>2026-04-11T15:11:08.999Z</time></trkpt><trkpt lat="44.640752659106276" lon="7.985724980334553"><ele>254.00000000000003</ele><time>2026-04-11T15:11:12.999Z</time></trkpt><trkpt lat="44.640757846912194" lon="7.985836653195889"><ele>254.0</ele><time>2026-04-11T15:11:16.999Z</time></trkpt><trkpt lat="44.64077485011416" lon="7.985926788341762"><ele>256.0</ele><time>2026-04-11T15:11:19.999Z</time></trkpt><trkpt lat="44.6407882285961" lon="7.986016392399294"><ele>258.0</ele><time>2026-04-11T15:11:22.999Z</time></trkpt><trkpt lat="44.640812200594624" lon="7.986130457632848"><ele>260.0</ele><time>2026-04-11T15:11:26.999Z</time></trkpt><trkpt lat="44.64084714804619" lon="7.986250979172306"><ele>262.0</ele><time>2026-04-11T15:11:29.999Z</time></trkpt><trkpt lat="44.640889548648666" lon="7.986340348486641"><ele>264.0</ele><time>2026-04-11T15:11:32.999Z</time></trkpt><trkpt lat="44.64094351177759" lon="7.986417670071587"><ele>266.0</ele><time>2026-04-11T15:11:35.999Z</time></trkpt><trkpt lat="44.6410045162145" lon="7.986488660367205"><ele>266.0</ele><time>2026-04-11T15:11:38.999Z</time></trkpt><trkpt lat="44.641064441152146" lon="7.986537712677875"><ele>266.0</ele><time>2026-04-11T15:11:41.999Z</time></trkpt><trkpt lat="44.641136529503456" lon="7.986568183074442"><ele>266.0</ele><time>2026-04-11T15:11:44.999Z</time></trkpt><trkpt lat="44.64120026916799" lon="7.986605578316292"><ele>266.0</ele><time>2026-04-11T15:11:47.999Z</time></trkpt><trkpt lat="44.64127194357736" lon="7.986633853416632"><ele>266.0</ele><time>2026-04-11T15:11:50.999Z</time></trkpt><trkpt lat="44.64133788452727" lon="7.986651718066939"><ele>266.0</ele><time>2026-04-11T15:11:54Z</time></trkpt><trkpt lat="44.641408779927346" lon="7.986675845087888"><ele>266.0</ele><time>2026-04-11T15:11:57Z</time></trkpt><trkpt lat="44.64148325788078" lon="7.986705410631215"><ele>266.14285714285717</ele><time>2026-04-11T15:12:00Z</time></trkpt><trkpt lat="44.64156247763047" lon="7.986739690554454"><ele>266.2857142857143</ele><time>2026-04-11T15:12:03Z</time></trkpt><trkpt lat="44.64164255792822" lon="7.986748357637784"><ele>266.42857142857144</ele><time>2026-04-11T15:12:06Z</time></trkpt><trkpt lat="44.64171651633359" lon="7.9867737535756795"><ele>266.57142857142856</ele><time>2026-04-11T15:12:09Z</time></trkpt><trkpt lat="44.641787768945484" lon="7.986798645138494"><ele>266.7142857142857</ele><time>2026-04-11T15:12:12Z</time></trkpt><trkpt lat="44.64185485464209" lon="7.986808514900343"><ele>266.8571428571429</ele><time>2026-04-11T15:12:15Z</time></trkpt><trkpt lat="44.64192065350981" lon="7.986823862308075"><ele>267.0</ele><time>2026-04-11T15:13:39.999Z</time></trkpt><trkpt lat="44.64186850248865" lon="7.986907303554238"><ele>267.00000000000006</ele><time>2026-04-11T15:15:16.999Z</time></trkpt><trkpt lat="44.6418498167965" lon="7.9869950830672005"><ele>267.0</ele><time>2026-04-11T15:16:54.999Z</time></trkpt><trkpt lat="44.64182928922569" lon="7.987081093595831"><ele>267.0</ele><time>2026-04-11T15:16:58.999Z</time></trkpt><trkpt lat="44.641809781181664" lon="7.987175778351342"><ele>267.0</ele><time>2026-04-11T15:17:02.999Z</time></trkpt><trkpt lat="44.64178682592277" lon="7.987270196457095"><ele>267.0</ele><time>2026-04-11T15:17:05.999Z</time></trkpt><trkpt lat="44.64176609243766" lon="7.98735875965703"><ele>267.00000000000006</ele><time>2026-04-11T15:17:08.999Z</time></trkpt><trkpt lat="44.64173781712141" lon="7.987461688349069"><ele>267.0</ele><time>2026-04-11T15:17:12.999Z</time></trkpt><trkpt lat="44.64171835196474" lon="7.987547091847362"><ele>267.0</ele><time>2026-04-11T15:17:15.999Z</time></trkpt><trkpt lat="44.6416936270727" lon="7.987655958550378"><ele>267.0</ele><time>2026-04-11T15:17:19.999Z</time></trkpt><trkpt lat="44.64166592402594" lon="7.98776876183986"><ele>267.0</ele><time>2026-04-11T15:17:23.999Z</time></trkpt><trkpt lat="44.641640160310516" lon="7.98787656912853"><ele>267.0</ele><time>2026-04-11T15:17:28.999Z</time></trkpt><trkpt lat="44.64161704479088" lon="7.987971082090892"><ele>267.0</ele><time>2026-04-11T15:17:32.999Z</time></trkpt><trkpt lat="44.641592722323125" lon="7.988064767227226"><ele>267.0</ele><time>2026-04-11T15:17:36.999Z</time></trkpt><trkpt lat="44.641572824303964" lon="7.988156930024507"><ele>267.00000000000006</ele><time>2026-04-11T15:17:40.999Z</time></trkpt><trkpt lat="44.64155120321782" lon="7.988244695304825"><ele>267.0</ele><time>2026-04-11T15:17:44.999Z</time></trkpt><trkpt lat="44.64152769312129" lon="7.988349170008917"><ele>267.0</ele><time>2026-04-11T15:17:50.999Z</time></trkpt><trkpt lat="44.64150988103638" lon="7.988442551924737"><ele>267.0</ele><time>2026-04-11T15:17:54.999Z</time></trkpt><trkpt lat="44.64148772231253" lon="7.988534734448879"><ele>267.0</ele><time>2026-04-11T15:17:59.999Z</time></trkpt><trkpt lat="44.64146142554292" lon="7.988628218116292"><ele>267.00000000000006</ele><time>2026-04-11T15:18:03.999Z</time></trkpt><trkpt lat="44.641443052692686" lon="7.988714094552074"><ele>267.0</ele><time>2026-04-11T15:18:07.999Z</time></trkpt><trkpt lat="44.64142028170243" lon="7.988816648288578"><ele>266.5714285714286</ele><time>2026-04-11T15:18:12Z</time></trkpt><trkpt lat="44.641397552144866" lon="7.988904217427219"><ele>266.14285714285717</ele><time>2026-04-11T15:18:16Z</time></trkpt><trkpt lat="44.64137221573274" lon="7.988987470906648"><ele>265.7142857142857</ele><time>2026-04-11T15:18:20Z</time></trkpt><trkpt lat="44.64134913234358" lon="7.989087727583276"><ele>265.28571428571433</ele><time>2026-04-11T15:18:25Z</time></trkpt><trkpt lat="44.64132059745433" lon="7.989189137604114"><ele>264.8571428571429</ele><time>2026-04-11T15:18:30Z</time></trkpt><trkpt lat="44.64129474512512" lon="7.989284100173488"><ele>264.42857142857144</ele><time>2026-04-11T15:18:35Z</time></trkpt><trkpt lat="44.64127259640216" lon="7.989375040538312"><ele>264.0</ele><time>2026-04-11T15:18:39Z</time></trkpt><trkpt lat="44.641244237420395" lon="7.989474407497688"><ele>262.85714285714283</ele><time>2026-04-11T15:18:44Z</time></trkpt><trkpt lat="44.641208985497904" lon="7.989552403068286"><ele>261.7142857142857</ele><time>2026-04-11T15:18:47Z</time></trkpt><trkpt lat="44.6411647052513" lon="7.9896276842471305"><ele>260.57142857142856</ele><time>2026-04-11T15:18:50Z</time></trkpt><trkpt lat="44.641092692503584" lon="7.989703859777648"><ele>259.42857142857144</ele><time>2026-04-11T15:18:53Z</time></trkpt><trkpt lat="44.641035007955686" lon="7.98975549960401"><ele>258.2857142857143</ele><time>2026-04-11T15:18:55Z</time></trkpt><trkpt lat="44.64097812421201" lon="7.989796540536808"><ele>257.1428571428571</ele><time>2026-04-11T15:18:57Z</time></trkpt><trkpt lat="44.64091122373248" lon="7.989852816669552"><ele>256.0</ele><time>2026-04-11T15:19:00Z</time></trkpt><trkpt lat="44.64084391307245" lon="7.98992060504035"><ele>256.8333333333333</ele><time>2026-04-11T15:19:03Z</time></trkpt><trkpt lat="44.6407837687036" lon="7.98994791282015"><ele>257.66666666666663</ele><time>2026-04-11T15:19:05Z</time></trkpt><trkpt lat="44.64070767735771" lon="7.990007861140307"><ele>258.5</ele><time>2026-04-11T15:19:08Z</time></trkpt><trkpt lat="44.64061990036561" lon="7.99006767091794"><ele>259.3333333333333</ele><time>2026-04-11T15:19:11Z</time></trkpt><trkpt lat="44.64056136861579" lon="7.990107208539582"><ele>260.1666666666667</ele><time>2026-04-11T15:19:13Z</time></trkpt><trkpt lat="44.64049939930655" lon="7.990152233043412"><ele>261.0</ele><time>2026-04-11T15:19:15Z</time></trkpt><trkpt lat="44.64043444587706" lon="7.990205713252847"><ele>261.0</ele><time>2026-04-11T15:19:17Z</time></trkpt><trkpt lat="44.6403570679801" lon="7.990252852348365"><ele>261.0</ele><time>2026-04-11T15:19:20Z</time></trkpt><trkpt lat="44.640291442581706" lon="7.990299943431889"><ele>261.0</ele><time>2026-04-11T15:19:23Z</time></trkpt><trkpt lat="44.64021324836336" lon="7.990369148229107"><ele>261.0</ele><time>2026-04-11T15:19:26Z</time></trkpt><trkpt lat="44.64015440106279" lon="7.990406528503346"><ele>261.0</ele><time>2026-04-11T15:19:28Z</time></trkpt><trkpt lat="44.64009697834371" lon="7.990443544850104"><ele>261.0</ele><time>2026-04-11T15:19:30Z</time></trkpt><trkpt lat="44.640025253116804" lon="7.990489021233466"><ele>263.7142857142857</ele><time>2026-04-11T15:19:33Z</time></trkpt><trkpt lat="44.63997353493507" lon="7.990540662356414"><ele>266.42857142857144</ele><time>2026-04-11T15:19:36Z</time></trkpt><trkpt lat="44.63992545825081" lon="7.990602551460676"><ele>269.1428571428571</ele><time>2026-04-11T15:19:39Z</time></trkpt><trkpt lat="44.63986846262753" lon="7.990677861887017"><ele>271.8571428571429</ele><time>2026-04-11T15:19:43Z</time></trkpt><trkpt lat="44.639808433928096" lon="7.990717839729691"><ele>274.57142857142856</ele><time>2026-04-11T15:19:46Z</time></trkpt><trkpt lat="44.639722936475465" lon="7.990758851196225"><ele>277.2857142857143</ele><time>2026-04-11T15:19:49Z</time></trkpt><trkpt lat="44.63965365636465" lon="7.990775085994273"><ele>280.0</ele><time>2026-04-11T15:19:52Z</time></trkpt><trkpt lat="44.639585227854774" lon="7.9907422623623345"><ele>280.0</ele><time>2026-04-11T15:19:57Z</time></trkpt><trkpt lat="44.63955657739977" lon="7.990659100126592"><ele>280.0</ele><time>2026-04-11T15:20:01Z</time></trkpt><trkpt lat="44.63949629842937" lon="7.9905914781607965"><ele>280.0</ele><time>2026-04-11T15:20:06Z</time></trkpt><trkpt lat="44.63945087409089" lon="7.990668503243388"><ele>280.0</ele><time>2026-04-11T15:20:11Z</time></trkpt><trkpt lat="44.63939510737588" lon="7.990741627235665"><ele>280.0</ele><time>2026-04-11T15:20:15Z</time></trkpt><trkpt lat="44.639334812055644" lon="7.990805695780328"><ele>280.0</ele><time>2026-04-11T15:20:19.001Z</time></trkpt><trkpt lat="44.639272216586235" lon="7.990875696990122"><ele>280.0</ele><time>2026-04-11T15:20:23.001Z</time></trkpt><trkpt lat="44.6392263221718" lon="7.990952494407989"><ele>282.0</ele><time>2026-04-11T15:20:27.001Z</time></trkpt><trkpt lat="44.63918673517782" lon="7.99102662100348"><ele>284.0</ele><time>2026-04-11T15:20:30.001Z</time></trkpt><trkpt lat="44.63914822321982" lon="7.991103164986353"><ele>286.0</ele><time>2026-04-11T15:20:33.001Z</time></trkpt><trkpt lat="44.63911408915889" lon="7.991179103037703"><ele>288.0</ele><time>2026-04-11T15:20:36.001Z</time></trkpt><trkpt lat="44.639069025585876" lon="7.991268029723266"><ele>290.0</ele><time>2026-04-11T15:20:40.001Z</time></trkpt><trkpt lat="44.63903472131392" lon="7.991346423084121"><ele>292.0</ele><time>2026-04-11T15:20:43.001Z</time></trkpt><trkpt lat="44.63899239861038" lon="7.991431198912616"><ele>294.0</ele><time>2026-04-11T15:20:47.001Z</time></trkpt><trkpt lat="44.63895055674371" lon="7.991527909006246"><ele>294.0</ele><time>2026-04-11T15:20:51.001Z</time></trkpt><trkpt lat="44.6389152588241" lon="7.991608230395271"><ele>294.0</ele><time>2026-04-11T15:20:54Z</time></trkpt><trkpt lat="44.638878261565836" lon="7.991681205344735"><ele>294.0</ele><time>2026-04-11T15:20:58Z</time></trkpt><trkpt lat="44.638834353530854" lon="7.991764721942354"><ele>294.0</ele><time>2026-04-11T15:21:02Z</time></trkpt><trkpt lat="44.63879108777365" lon="7.99186108149085"><ele>294.0</ele><time>2026-04-11T15:21:06Z</time></trkpt><trkpt lat="44.63875154483483" lon="7.991932750397984"><ele>294.0</ele><time>2026-04-11T15:21:10Z</time></trkpt><trkpt lat="44.63871712232306" lon="7.992017356995512"><ele>294.0</ele><time>2026-04-11T15:21:14Z</time></trkpt><trkpt lat="44.638675743010594" lon="7.992098929558956"><ele>293.8333333333333</ele><time>2026-04-11T15:21:18Z</time></trkpt><trkpt lat="44.6386324482376" lon="7.992190901020684"><ele>293.6666666666667</ele><time>2026-04-11T15:21:22Z</time></trkpt><trkpt lat="44.638591351196325" lon="7.992281051038911"><ele>293.5</ele><time>2026-04-11T15:21:26Z</time></trkpt><trkpt lat="44.63856059044791" lon="7.992359004419756"><ele>293.33333333333337</ele><time>2026-04-11T15:21:29Z</time></trkpt><trkpt lat="44.63851496945737" lon="7.992456385294444"><ele>293.1666666666667</ele><time>2026-04-11T15:21:33Z</time></trkpt><trkpt lat="44.638453711140414" lon="7.9925541691787965"><ele>293.0</ele><time>2026-04-11T15:21:35Z</time></trkpt><trkpt lat="44.63840479507789" lon="7.992619842615919"><ele>292.33333333333337</ele><time>2026-04-11T15:21:36Z</time></trkpt><trkpt lat="44.63832442617132" lon="7.992721897276556"><ele>291.6666666666667</ele><time>2026-04-11T15:21:38Z</time></trkpt><trkpt lat="44.638279697851985" lon="7.992788106123432"><ele>291.0</ele><time>2026-04-11T15:21:39Z</time></trkpt><trkpt lat="44.63820028105704" lon="7.992808387343405"><ele>290.3333333333333</ele><time>2026-04-11T15:21:40Z</time></trkpt><trkpt lat="44.6381501927005" lon="7.992870936374916"><ele>289.66666666666663</ele><time>2026-04-11T15:21:41Z</time></trkpt><trkpt lat="44.638099534130795" lon="7.9929354597657944"><ele>289.0</ele><time>2026-04-11T15:21:42Z</time></trkpt><trkpt lat="44.63801592523532" lon="7.993046384480204"><ele>289.0</ele><time>2026-04-11T15:21:44Z</time></trkpt><trkpt lat="44.63794467170709" lon="7.993168766043079"><ele>289.0</ele><time>2026-04-11T15:21:46Z</time></trkpt><trkpt lat="44.63788936355604" lon="7.9932733419719435"><ele>289.0</ele><time>2026-04-11T15:21:48Z</time></trkpt><trkpt lat="44.63784551426378" lon="7.993353111497819"><ele>289.0</ele><time>2026-04-11T15:21:50Z</time></trkpt><trkpt lat="44.637802881076524" lon="7.993421928787811"><ele>289.0</ele><time>2026-04-11T15:21:52Z</time></trkpt><trkpt lat="44.637757348627375" lon="7.993493937915578"><ele>289.0</ele><time>2026-04-11T15:21:54Z</time></trkpt><trkpt lat="44.637701434174964" lon="7.993583796225764"><ele>290.57142857142856</ele><time>2026-04-11T15:21:57Z</time></trkpt><trkpt lat="44.63765953818968" lon="7.99365858603867"><ele>292.1428571428571</ele><time>2026-04-11T15:22:00Z</time></trkpt><trkpt lat="44.63761585119708" lon="7.993743469483451"><ele>293.71428571428567</ele><time>2026-04-11T15:22:03Z</time></trkpt><trkpt lat="44.637588011123896" lon="7.993852224759166"><ele>295.2857142857143</ele><time>2026-04-11T15:22:07Z</time></trkpt><trkpt lat="44.63754879753281" lon="7.993942599244878"><ele>296.85714285714283</ele><time>2026-04-11T15:22:11Z</time></trkpt><trkpt lat="44.63751139073416" lon="7.994016138143707"><ele>298.4285714285714</ele><time>2026-04-11T15:22:15Z</time></trkpt><trkpt lat="44.63746351398663" lon="7.9940949488034985"><ele>300.0</ele><time>2026-04-11T15:22:20Z</time></trkpt><trkpt lat="44.63742386140611" lon="7.994176360248706"><ele>300.2857142857143</ele><time>2026-04-11T15:22:25.001Z</time></trkpt><trkpt lat="44.63737116349302" lon="7.994243755524263"><ele>300.57142857142856</ele><time>2026-04-11T15:22:30.001Z</time></trkpt><trkpt lat="44.63735422811492" lon="7.9943384091736895"><ele>300.8571428571429</ele><time>2026-04-11T15:22:35.001Z</time></trkpt><trkpt lat="44.63732235614024" lon="7.994420805750889"><ele>301.1428571428571</ele><time>2026-04-11T15:22:39.001Z</time></trkpt><trkpt lat="44.637288235567745" lon="7.9944985147886305"><ele>301.42857142857144</ele><time>2026-04-11T15:22:43.001Z</time></trkpt><trkpt lat="44.63726659552747" lon="7.9945896961363685"><ele>301.7142857142857</ele><time>2026-04-11T15:22:48.001Z</time></trkpt><trkpt lat="44.63722638404964" lon="7.994676996581467"><ele>302.0</ele><time>2026-04-11T15:22:52.001Z</time></trkpt><trkpt lat="44.637159161712695" lon="7.994735029355819"><ele>302.0</ele><time>2026-04-11T15:22:56.001Z</time></trkpt><trkpt lat="44.63710046407102" lon="7.994793087614456"><ele>302.0</ele><time>2026-04-11T15:23:00.001Z</time></trkpt><trkpt lat="44.63703496734701" lon="7.994837656380365"><ele>302.0</ele><time>2026-04-11T15:23:02Z</time></trkpt><trkpt lat="44.63697339783191" lon="7.994895662783768"><ele>302.0</ele><time>2026-04-11T15:23:05Z</time></trkpt><trkpt lat="44.63689085216117" lon="7.994956267155941"><ele>302.0</ele><time>2026-04-11T15:23:08Z</time></trkpt><trkpt lat="44.636809295229455" lon="7.9949659729800935"><ele>302.0</ele><time>2026-04-11T15:23:11Z</time></trkpt><trkpt lat="44.6367337468931" lon="7.995013103985981"><ele>301.0</ele><time>2026-04-11T15:23:15Z</time></trkpt><trkpt lat="44.63663990228391" lon="7.995046499973664"><ele>300.0</ele><time>2026-04-11T15:23:17Z</time></trkpt><trkpt lat="44.63655911390135" lon="7.995084563576926"><ele>299.0</ele><time>2026-04-11T15:23:20Z</time></trkpt><trkpt lat="44.63648421298778" lon="7.995115651730372"><ele>298.0</ele><time>2026-04-11T15:23:22Z</time></trkpt><trkpt lat="44.636418702809756" lon="7.9951519934366795"><ele>297.0</ele><time>2026-04-11T15:23:24Z</time></trkpt><trkpt lat="44.6363381876842" lon="7.995189457294297"><ele>296.0</ele><time>2026-04-11T15:23:27Z</time></trkpt><trkpt lat="44.6362786655186" lon="7.995225684704711"><ele>296.0</ele><time>2026-04-11T15:23:30Z</time></trkpt><trkpt lat="44.63621194328838" lon="7.995263242712845"><ele>296.0</ele><time>2026-04-11T15:23:36Z</time></trkpt><trkpt lat="44.63614407880698" lon="7.995288612756364"><ele>296.0</ele><time>2026-04-11T15:23:39Z</time></trkpt><trkpt lat="44.636066461318876" lon="7.995290666126512"><ele>296.0</ele><time>2026-04-11T15:23:42Z</time></trkpt><trkpt lat="44.63599547118168" lon="7.995244567200592"><ele>296.0</ele><time>2026-04-11T15:23:46Z</time></trkpt><trkpt lat="44.63592528779352" lon="7.995190167706327"><ele>296.0</ele><time>2026-04-11T15:23:50Z</time></trkpt><trkpt lat="44.635873020444954" lon="7.995137672183515"><ele>296.0</ele><time>2026-04-11T15:23:53Z</time></trkpt><trkpt lat="44.635802086617296" lon="7.995106858020649"><ele>297.57142857142856</ele><time>2026-04-11T15:23:57Z</time></trkpt><trkpt lat="44.63574218939083" lon="7.995039535698956"><ele>299.1428571428571</ele><time>2026-04-11T15:24:00Z</time></trkpt><trkpt lat="44.63568181113048" lon="7.9949917753591055"><ele>300.71428571428567</ele><time>2026-04-11T15:24:02Z</time></trkpt><trkpt lat="44.635629082681824" lon="7.994938100690806"><ele>302.2857142857143</ele><time>2026-04-11T15:24:04Z</time></trkpt><trkpt lat="44.63557481929828" lon="7.9948901291902486"><ele>303.85714285714283</ele><time>2026-04-11T15:24:06Z</time></trkpt><trkpt lat="44.63549474336822" lon="7.994821371162829"><ele>305.4285714285714</ele><time>2026-04-11T15:24:09Z</time></trkpt><trkpt lat="44.63543884976222" lon="7.9947444407455555"><ele>307.0</ele><time>2026-04-11T15:24:12Z</time></trkpt><trkpt lat="44.63539404446419" lon="7.994669103075065"><ele>307.66666666666663</ele><time>2026-04-11T15:24:14Z</time></trkpt><trkpt lat="44.63535131084325" lon="7.99457504648912"><ele>308.3333333333333</ele><time>2026-04-11T15:24:16Z</time></trkpt><trkpt lat="44.63531122420619" lon="7.994484230445694"><ele>309.0</ele><time>2026-04-11T15:24:18Z</time></trkpt><trkpt lat="44.635272045343406" lon="7.994394651776015"><ele>309.6666666666667</ele><time>2026-04-11T15:24:20Z</time></trkpt><trkpt lat="44.635226079615265" lon="7.994308633316564"><ele>310.33333333333337</ele><time>2026-04-11T15:24:22Z</time></trkpt><trkpt lat="44.6351825228326" lon="7.994230173645418"><ele>311.0</ele><time>2026-04-11T15:24:24Z</time></trkpt><trkpt lat="44.63512840000201" lon="7.994157471570756"><ele>311.0</ele><time>2026-04-11T15:24:26Z</time></trkpt><trkpt lat="44.63506009083602" lon="7.994102984412541"><ele>311.0</ele><time>2026-04-11T15:24:28Z</time></trkpt><trkpt lat="44.634972702953434" lon="7.9940441317250235"><ele>311.0</ele><time>2026-04-11T15:24:30.001Z</time></trkpt><trkpt lat="44.634874054026675" lon="7.9939841123249655"><ele>311.0</ele><time>2026-04-11T15:24:32.001Z</time></trkpt><trkpt lat="44.63476459022726" lon="7.993940241509087"><ele>311.0</ele><time>2026-04-11T15:24:34.001Z</time></trkpt><trkpt lat="44.63465253188481" lon="7.9939127969870105"><ele>311.0</ele><time>2026-04-11T15:24:36.001Z</time></trkpt><trkpt lat="44.634536414150595" lon="7.9938750746872085"><ele>311.0</ele><time>2026-04-11T15:24:38.001Z</time></trkpt><trkpt lat="44.634432040791474" lon="7.993824358929755"><ele>311.0</ele><time>2026-04-11T15:24:40.001Z</time></trkpt><trkpt lat="44.634331746117" lon="7.993754318236556"><ele>311.0</ele><time>2026-04-11T15:24:42.001Z</time></trkpt><trkpt lat="44.63424144915122" lon="7.993682639873555"><ele>311.0</ele><time>2026-04-11T15:24:44.001Z</time></trkpt><trkpt lat="44.63417675029803" lon="7.9935957961035236"><ele>310.7142857142857</ele><time>2026-04-11T15:24:46.001Z</time></trkpt><trkpt lat="44.63411037069699" lon="7.993554627063322"><ele>310.42857142857144</ele><time>2026-04-11T15:24:48.001Z</time></trkpt><trkpt lat="44.6340520834767" lon="7.9934969716423065"><ele>310.14285714285717</ele><time>2026-04-11T15:24:50.001Z</time></trkpt><trkpt lat="44.63400084408184" lon="7.99341768110252"><ele>309.8571428571429</ele><time>2026-04-11T15:24:52Z</time></trkpt><trkpt lat="44.63393978233557" lon="7.993381791122008"><ele>309.57142857142856</ele><time>2026-04-11T15:24:54Z</time></trkpt><trkpt lat="44.63388136678603" lon="7.993294178820507"><ele>309.28571428571433</ele><time>2026-04-11T15:24:57Z</time></trkpt><trkpt lat="44.633821909190644" lon="7.993233852709779"><ele>309.0</ele><time>2026-04-11T15:24:59Z</time></trkpt><trkpt lat="44.63376051150674" lon="7.99320469395056"><ele>309.0</ele><time>2026-04-11T15:25:01Z</time></trkpt><trkpt lat="44.633683237164675" lon="7.993130710765376"><ele>309.0</ele><time>2026-04-11T15:25:04Z</time></trkpt><trkpt lat="44.6336261407673" lon="7.993076672032068"><ele>309.0</ele><time>2026-04-11T15:25:06Z</time></trkpt><trkpt lat="44.6335587610868" lon="7.993026403328947"><ele>309.0</ele><time>2026-04-11T15:25:08Z</time></trkpt><trkpt lat="44.63348859910082" lon="7.992971399173681"><ele>309.0</ele><time>2026-04-11T15:25:10Z</time></trkpt><trkpt lat="44.63341636187147" lon="7.992937686186141"><ele>309.0</ele><time>2026-04-11T15:25:12Z</time></trkpt><trkpt lat="44.63333977730761" lon="7.992876072960856"><ele>308.8333333333333</ele><time>2026-04-11T15:25:15Z</time></trkpt><trkpt lat="44.63327970041693" lon="7.99282440195583"><ele>308.6666666666667</ele><time>2026-04-11T15:25:17Z</time></trkpt><trkpt lat="44.63321903025995" lon="7.992755311456913"><ele>308.5</ele><time>2026-04-11T15:25:19Z</time></trkpt><trkpt lat="44.63314065799403" lon="7.9927510746377495"><ele>308.33333333333337</ele><time>2026-04-11T15:25:21Z</time></trkpt><trkpt lat="44.633053812398785" lon="7.9927766169388255"><ele>308.1666666666667</ele><time>2026-04-11T15:25:23Z</time></trkpt><trkpt lat="44.63297850997216" lon="7.992797382532373"><ele>308.0</ele><time>2026-04-11T15:25:25Z</time></trkpt><trkpt lat="44.6329007124716" lon="7.992785849537046"><ele>308.0</ele><time>2026-04-11T15:25:27Z</time></trkpt><trkpt lat="44.632817134978914" lon="7.992804515585592"><ele>308.0</ele><time>2026-04-11T15:25:29Z</time></trkpt><trkpt lat="44.63273317791567" lon="7.992807459810478"><ele>308.0</ele><time>2026-04-11T15:25:31Z</time></trkpt><trkpt lat="44.63265238514384" lon="7.992798889107218"><ele>308.0</ele><time>2026-04-11T15:25:33Z</time></trkpt><trkpt lat="44.63257505017996" lon="7.992789633323083"><ele>308.0</ele><time>2026-04-11T15:25:35Z</time></trkpt><trkpt lat="44.63248993973442" lon="7.992749341367935"><ele>308.0</ele><time>2026-04-11T15:25:37Z</time></trkpt><trkpt lat="44.63241351268081" lon="7.992740040380747"><ele>307.0</ele><time>2026-04-11T15:25:39Z</time></trkpt><trkpt lat="44.63231985690235" lon="7.992712497835232"><ele>306.0</ele><time>2026-04-11T15:25:41Z</time></trkpt><trkpt lat="44.632227121561236" lon="7.99268406533136"><ele>305.0</ele><time>2026-04-11T15:25:43Z</time></trkpt><trkpt lat="44.6321421500497" lon="7.99264626392936"><ele>304.0</ele><time>2026-04-11T15:25:45Z</time></trkpt><trkpt lat="44.632077617869214" lon="7.992613681003633"><ele>303.0</ele><time>2026-04-11T15:25:47Z</time></trkpt><trkpt lat="44.632004607633036" lon="7.992570269970512"><ele>302.0</ele><time>2026-04-11T15:25:50Z</time></trkpt><trkpt lat="44.63194832812054" lon="7.992521891819935"><ele>301.6666666666667</ele><time>2026-04-11T15:25:53Z</time></trkpt><trkpt lat="44.631883887482495" lon="7.992498305207607"><ele>301.33333333333337</ele><time>2026-04-11T15:25:56Z</time></trkpt><trkpt lat="44.631810516351024" lon="7.992499965669882"><ele>301.0</ele><time>2026-04-11T15:26:05Z</time></trkpt><trkpt lat="44.6317460501306" lon="7.9924069295776246"><ele>300.6666666666667</ele><time>2026-04-11T15:26:09Z</time></trkpt><trkpt lat="44.63166048704166" lon="7.992338536841664"><ele>300.3333333333333</ele><time>2026-04-11T15:26:12Z</time></trkpt><trkpt lat="44.631597762072396" lon="7.992309288016966"><ele>300.0</ele><time>2026-04-11T15:26:14Z</time></trkpt><trkpt lat="44.6315394026274" lon="7.99227138358175"><ele>299.99999999999994</ele><time>2026-04-11T15:26:16Z</time></trkpt><trkpt lat="44.631477000187964" lon="7.992215579992073"><ele>300.0</ele><time>2026-04-11T15:26:18Z</time></trkpt><trkpt lat="44.63142042319286" lon="7.992164599642143"><ele>300.0</ele><time>2026-04-11T15:26:20Z</time></trkpt><trkpt lat="44.63135762664791" lon="7.992112938669293"><ele>300.0</ele><time>2026-04-11T15:26:22Z</time></trkpt><trkpt lat="44.63128864470908" lon="7.9920671959202725"><ele>300.0</ele><time>2026-04-11T15:26:24Z</time></trkpt><trkpt lat="44.63123192710052" lon="7.992020840527503"><ele>299.99999999999994</ele><time>2026-04-11T15:26:26Z</time></trkpt><trkpt lat="44.6311666870927" lon="7.991967384968868"><ele>300.0</ele><time>2026-04-11T15:26:29Z</time></trkpt><trkpt lat="44.631110431471335" lon="7.991907683686198"><ele>299.6666666666667</ele><time>2026-04-11T15:26:33Z</time></trkpt><trkpt lat="44.63102997361634" lon="7.9918483199683275"><ele>299.3333333333333</ele><time>2026-04-11T15:26:36.001Z</time></trkpt><trkpt lat="44.630963805488314" lon="7.991814568842898"><ele>299.0</ele><time>2026-04-11T15:26:39.001Z</time></trkpt><trkpt lat="44.63089361236438" lon="7.991793658049727"><ele>298.66666666666663</ele><time>2026-04-11T15:26:42.001Z</time></trkpt><trkpt lat="44.6308178124034" lon="7.991791950785967"><ele>298.3333333333333</ele><time>2026-04-11T15:26:45Z</time></trkpt><trkpt lat="44.630738850081315" lon="7.991802302733014"><ele>298.0</ele><time>2026-04-11T15:26:48Z</time></trkpt><trkpt lat="44.63066003407091" lon="7.991818553905587"><ele>298.0</ele><time>2026-04-11T15:26:51Z</time></trkpt><trkpt lat="44.630585243686674" lon="7.991834510618844"><ele>298.0</ele><time>2026-04-11T15:26:53Z</time></trkpt><trkpt lat="44.63050107884936" lon="7.991859939937572"><ele>298.0</ele><time>2026-04-11T15:26:56Z</time></trkpt><trkpt lat="44.630435749714906" lon="7.991858674232561"><ele>298.0</ele><time>2026-04-11T15:26:58Z</time></trkpt><trkpt lat="44.630351996651044" lon="7.991878242609444"><ele>298.0</ele><time>2026-04-11T15:27:01Z</time></trkpt><trkpt lat="44.63028244294113" lon="7.991902656275444"><ele>298.0</ele><time>2026-04-11T15:27:04Z</time></trkpt><trkpt lat="44.63021001166629" lon="7.991916523087115"><ele>299.1428571428571</ele><time>2026-04-11T15:27:07Z</time></trkpt><trkpt lat="44.630142441950326" lon="7.991933400488075"><ele>300.2857142857143</ele><time>2026-04-11T15:27:10Z</time></trkpt><trkpt lat="44.63006951716322" lon="7.991938595963383"><ele>301.42857142857144</ele><time>2026-04-11T15:27:14Z</time></trkpt><trkpt lat="44.629990951612484" lon="7.991954859144608"><ele>302.57142857142856</ele><time>2026-04-11T15:27:18Z</time></trkpt><trkpt lat="44.62991274179539" lon="7.991970714329878"><ele>303.7142857142857</ele><time>2026-04-11T15:27:22Z</time></trkpt><trkpt lat="44.62984275917299" lon="7.991978036116759"><ele>304.85714285714283</ele><time>2026-04-11T15:27:26Z</time></trkpt><trkpt lat="44.62977419956547" lon="7.99199988160226"><ele>306.0</ele><time>2026-04-11T15:27:29Z</time></trkpt><trkpt lat="44.629707130662055" lon="7.992005033549777"><ele>306.0</ele><time>2026-04-11T15:27:32Z</time></trkpt><trkpt lat="44.629630489938776" lon="7.992006987096626"><ele>306.0</ele><time>2026-04-11T15:27:35Z</time></trkpt><trkpt lat="44.62955568387418" lon="7.992010099359991"><ele>306.0</ele><time>2026-04-11T15:27:39Z</time></trkpt><trkpt lat="44.629491118280036" lon="7.992015544002961"><ele>306.0</ele><time>2026-04-11T15:27:42Z</time></trkpt><trkpt lat="44.6294069242782" lon="7.99202302291938"><ele>306.0</ele><time>2026-04-11T15:27:46Z</time></trkpt><trkpt lat="44.62932858749073" lon="7.992038024902717"><ele>306.0</ele><time>2026-04-11T15:27:49Z</time></trkpt><trkpt lat="44.62924777648404" lon="7.992041886170675"><ele>306.8333333333333</ele><time>2026-04-11T15:27:52Z</time></trkpt><trkpt lat="44.62917502129235" lon="7.992049460134578"><ele>307.6666666666667</ele><time>2026-04-11T15:27:55Z</time></trkpt><trkpt lat="44.62908999896804" lon="7.9920713198598134"><ele>308.5</ele><time>2026-04-11T15:27:58Z</time></trkpt><trkpt lat="44.62902641874048" lon="7.992083560823523"><ele>309.33333333333337</ele><time>2026-04-11T15:28:00Z</time></trkpt><trkpt lat="44.62895523206147" lon="7.992106302852071"><ele>310.1666666666667</ele><time>2026-04-11T15:28:03Z</time></trkpt><trkpt lat="44.628876062644736" lon="7.992104036888577"><ele>311.0</ele><time>2026-04-11T15:28:06Z</time></trkpt><trkpt lat="44.62879444932504" lon="7.992116488998348"><ele>311.0</ele><time>2026-04-11T15:28:09Z</time></trkpt><trkpt lat="44.628724798293874" lon="7.992146375172859"><ele>311.0</ele><time>2026-04-11T15:28:12Z</time></trkpt><trkpt lat="44.628657335927784" lon="7.992173816092651"><ele>311.0</ele><time>2026-04-11T15:28:14.999Z</time></trkpt><trkpt lat="44.62859679989975" lon="7.99222189311355"><ele>311.0</ele><time>2026-04-11T15:28:18.999Z</time></trkpt><trkpt lat="44.62853936479468" lon="7.992262787097795"><ele>311.0</ele><time>2026-04-11T15:28:21.999Z</time></trkpt><trkpt lat="44.62846003615221" lon="7.992314285333106"><ele>311.0</ele><time>2026-04-11T15:28:24.999Z</time></trkpt><trkpt lat="44.62838174255724" lon="7.992366151411812"><ele>311.85714285714283</ele><time>2026-04-11T15:28:27.999Z</time></trkpt><trkpt lat="44.62832632770175" lon="7.992415697093149"><ele>312.7142857142857</ele><time>2026-04-11T15:28:30.999Z</time></trkpt><trkpt lat="44.62827000306391" lon="7.992460260049477"><ele>313.57142857142856</ele><time>2026-04-11T15:28:33.999Z</time></trkpt><trkpt lat="44.62819865240927" lon="7.992522838249208"><ele>314.42857142857144</ele><time>2026-04-11T15:28:37.999Z</time></trkpt><trkpt lat="44.62813464633159" lon="7.9925753859899675"><ele>315.2857142857143</ele><time>2026-04-11T15:28:40.999Z</time></trkpt><trkpt lat="44.62807505913888" lon="7.992615404674851"><ele>316.14285714285717</ele><time>2026-04-11T15:28:44Z</time></trkpt><trkpt lat="44.62801310707965" lon="7.992650373750051"><ele>317.0</ele><time>2026-04-11T15:28:47Z</time></trkpt><trkpt lat="44.62794588119379" lon="7.992688879377495"><ele>317.0</ele><time>2026-04-11T15:28:49Z</time></trkpt><trkpt lat="44.62787318716367" lon="7.992731093729344"><ele>317.0</ele><time>2026-04-11T15:28:52Z</time></trkpt><trkpt lat="44.62780751316113" lon="7.9927811989310795"><ele>317.0</ele><time>2026-04-11T15:28:56Z</time></trkpt><trkpt lat="44.627748566528886" lon="7.992818304856922"><ele>317.0</ele><time>2026-04-11T15:28:58Z</time></trkpt><trkpt lat="44.627674278823015" lon="7.992857162659881"><ele>317.0</ele><time>2026-04-11T15:29:01Z</time></trkpt><trkpt lat="44.62760712057704" lon="7.992911009997018"><ele>317.0</ele><time>2026-04-11T15:29:04Z</time></trkpt><trkpt lat="44.62754218823419" lon="7.992960748526613"><ele>317.0</ele><time>2026-04-11T15:29:07Z</time></trkpt><trkpt lat="44.627468763419344" lon="7.992993896765099"><ele>319.0</ele><time>2026-04-11T15:29:10Z</time></trkpt><trkpt lat="44.62741551854496" lon="7.993067335199889"><ele>321.0</ele><time>2026-04-11T15:29:14Z</time></trkpt><trkpt lat="44.62735993655863" lon="7.9931097923732874"><ele>323.0</ele><time>2026-04-11T15:29:17Z</time></trkpt><trkpt lat="44.627305019209246" lon="7.99316910124168"><ele>325.0</ele><time>2026-04-11T15:29:20Z</time></trkpt><trkpt lat="44.62724792286179" lon="7.993238294388985"><ele>327.0</ele><time>2026-04-11T15:29:23Z</time></trkpt><trkpt lat="44.62719859015311" lon="7.993333651080532"><ele>329.0</ele><time>2026-04-11T15:29:26Z</time></trkpt><trkpt lat="44.627156633574664" lon="7.993404814170123"><ele>331.0</ele><time>2026-04-11T15:29:29Z</time></trkpt><trkpt lat="44.627133472846886" lon="7.993499173623523"><ele>331.8333333333333</ele><time>2026-04-11T15:29:32Z</time></trkpt><trkpt lat="44.62708290662235" lon="7.993588407817007"><ele>332.66666666666663</ele><time>2026-04-11T15:29:36Z</time></trkpt><trkpt lat="44.62703865623765" lon="7.993675108865984"><ele>333.5</ele><time>2026-04-11T15:29:39Z</time></trkpt><trkpt lat="44.62698924964892" lon="7.993748969762614"><ele>334.3333333333333</ele><time>2026-04-11T15:29:42Z</time></trkpt><trkpt lat="44.626938619780695" lon="7.993835211765454"><ele>335.1666666666667</ele><time>2026-04-11T15:29:45Z</time></trkpt><trkpt lat="44.62689439796037" lon="7.993911543926335"><ele>336.0</ele><time>2026-04-11T15:29:48Z</time></trkpt><trkpt lat="44.62685868338112" lon="7.9940061184432345"><ele>336.2857142857143</ele><time>2026-04-11T15:29:51Z</time></trkpt><trkpt lat="44.62681962023054" lon="7.994081885345436"><ele>336.57142857142856</ele><time>2026-04-11T15:29:54Z</time></trkpt><trkpt lat="44.626783286509955" lon="7.99415873369903"><ele>336.8571428571429</ele><time>2026-04-11T15:29:57Z</time></trkpt><trkpt lat="44.626741666752814" lon="7.994238681564066"><ele>337.1428571428571</ele><time>2026-04-11T15:30:00Z</time></trkpt><trkpt lat="44.62670098703712" lon="7.994314771508216"><ele>337.42857142857144</ele><time>2026-04-11T15:30:02.999Z</time></trkpt><trkpt lat="44.62666343397323" lon="7.994391807442576"><ele>337.7142857142857</ele><time>2026-04-11T15:30:05.999Z</time></trkpt><trkpt lat="44.62663157665536" lon="7.994470428891935"><ele>338.0</ele><time>2026-04-11T15:30:08.999Z</time></trkpt><trkpt lat="44.626599533352966" lon="7.994551575006608"><ele>338.57142857142856</ele><time>2026-04-11T15:30:11.999Z</time></trkpt><trkpt lat="44.62657020564768" lon="7.994637212222781"><ele>339.1428571428571</ele><time>2026-04-11T15:30:14.999Z</time></trkpt><trkpt lat="44.626544400823725" lon="7.994728216446879"><ele>339.71428571428567</ele><time>2026-04-11T15:30:17.999Z</time></trkpt><trkpt lat="44.626515938194466" lon="7.994819202321138"><ele>340.2857142857143</ele><time>2026-04-11T15:30:20.999Z</time></trkpt><trkpt lat="44.62649050095457" lon="7.994917616024312"><ele>340.85714285714283</ele><time>2026-04-11T15:30:23.999Z</time></trkpt><trkpt lat="44.62646622925147" lon="7.995014875290409"><ele>341.4285714285714</ele><time>2026-04-11T15:30:26.999Z</time></trkpt><trkpt lat="44.62644131939111" lon="7.995120072198896"><ele>342.0</ele><time>2026-04-11T15:30:29.999Z</time></trkpt><trkpt lat="44.626413179394945" lon="7.99522723270208"><ele>343.6666666666667</ele><time>2026-04-11T15:30:32.999Z</time></trkpt><trkpt lat="44.626389836053505" lon="7.995340888650409"><ele>345.3333333333333</ele><time>2026-04-11T15:30:35.999Z</time></trkpt><trkpt lat="44.62636164888813" lon="7.995460939270071"><ele>347.0</ele><time>2026-04-11T15:30:38.999Z</time></trkpt><trkpt lat="44.626326328810315" lon="7.995574869526989"><ele>348.66666666666663</ele><time>2026-04-11T15:30:41.999Z</time></trkpt><trkpt lat="44.62630146400978" lon="7.995691435495881"><ele>350.3333333333333</ele><time>2026-04-11T15:30:44.999Z</time></trkpt><trkpt lat="44.62626494586154" lon="7.995795809323227"><ele>352.0</ele><time>2026-04-11T15:30:48Z</time></trkpt><trkpt lat="44.62623374513795" lon="7.995904613658432"><ele>353.0</ele><time>2026-04-11T15:30:51Z</time></trkpt><trkpt lat="44.62620335472182" lon="7.996015105939277"><ele>354.0</ele><time>2026-04-11T15:30:54Z</time></trkpt><trkpt lat="44.62615052631197" lon="7.9961131043602895"><ele>355.0</ele><time>2026-04-11T15:30:57Z</time></trkpt><trkpt lat="44.62607791915773" lon="7.996192525860799"><ele>356.0</ele><time>2026-04-11T15:31:00Z</time></trkpt><trkpt lat="44.62599052175573" lon="7.996235802378351"><ele>357.0</ele><time>2026-04-11T15:31:03Z</time></trkpt><trkpt lat="44.62589613762546" lon="7.9962464193013"><ele>357.0</ele><time>2026-04-11T15:31:06Z</time></trkpt><trkpt lat="44.625823701514605" lon="7.996229741690113"><ele>357.0</ele><time>2026-04-11T15:31:08Z</time></trkpt><trkpt lat="44.625735885329696" lon="7.996207950944024"><ele>357.0</ele><time>2026-04-11T15:31:11Z</time></trkpt><trkpt lat="44.62565788502654" lon="7.996178514323771"><ele>357.0</ele><time>2026-04-11T15:31:14Z</time></trkpt><trkpt lat="44.625568608850045" lon="7.996150778108811"><ele>357.0</ele><time>2026-04-11T15:31:17Z</time></trkpt><trkpt lat="44.625479848894486" lon="7.996128654164459"><ele>357.0</ele><time>2026-04-11T15:31:20Z</time></trkpt><trkpt lat="44.62539461949311" lon="7.996108888067425"><ele>357.0</ele><time>2026-04-11T15:31:23Z</time></trkpt><trkpt lat="44.62532485529296" lon="7.996077586468777"><ele>357.0</ele><time>2026-04-11T15:31:27Z</time></trkpt><trkpt lat="44.625245417536036" lon="7.996054275712395"><ele>357.0</ele><time>2026-04-11T15:31:30Z</time></trkpt><trkpt lat="44.625163029843726" lon="7.996032820552177"><ele>357.0</ele><time>2026-04-11T15:31:33Z</time></trkpt><trkpt lat="44.62507880339786" lon="7.996006218169044"><ele>357.0</ele><time>2026-04-11T15:31:36Z</time></trkpt><trkpt lat="44.624990782435276" lon="7.9959835372498445"><ele>357.0</ele><time>2026-04-11T15:31:39Z</time></trkpt><trkpt lat="44.62491727343917" lon="7.995958967574979"><ele>357.0</ele><time>2026-04-11T15:31:42Z</time></trkpt><trkpt lat="44.62484990487693" lon="7.995931923508324"><ele>357.0</ele><time>2026-04-11T15:31:45Z</time></trkpt><trkpt lat="44.624768523966765" lon="7.995900162590447"><ele>357.0</ele><time>2026-04-11T15:31:48Z</time></trkpt><trkpt lat="44.624690938545584" lon="7.995864506076613"><ele>357.0</ele><time>2026-04-11T15:31:50Z</time></trkpt><trkpt lat="44.624605182657476" lon="7.995810915820954"><ele>357.0</ele><time>2026-04-11T15:31:52Z</time></trkpt><trkpt lat="44.62450903883498" lon="7.99575986620981"><ele>357.0</ele><time>2026-04-11T15:31:54Z</time></trkpt><trkpt lat="44.62443710390822" lon="7.995717224607149"><ele>357.0</ele><time>2026-04-11T15:31:56Z</time></trkpt><trkpt lat="44.62436840201237" lon="7.995671656338578"><ele>357.0</ele><time>2026-04-11T15:31:58Z</time></trkpt><trkpt lat="44.624300597527146" lon="7.995622614816658"><ele>357.0</ele><time>2026-04-11T15:31:59.999Z</time></trkpt><trkpt lat="44.624233324040944" lon="7.9955850796213666"><ele>357.0</ele><time>2026-04-11T15:32:01.999Z</time></trkpt><trkpt lat="44.624167762030154" lon="7.995533763730525"><ele>357.0</ele><time>2026-04-11T15:32:03.999Z</time></trkpt><trkpt lat="44.62410551260426" lon="7.995480283175419"><ele>357.0</ele><time>2026-04-11T15:32:05.999Z</time></trkpt><trkpt lat="44.624041749769496" lon="7.995426877276849"><ele>357.0</ele><time>2026-04-11T15:32:07.999Z</time></trkpt><trkpt lat="44.62396234393" lon="7.995361476404109"><ele>357.0</ele><time>2026-04-11T15:32:10.999Z</time></trkpt><trkpt lat="44.62389722651347" lon="7.995320795538168"><ele>357.0</ele><time>2026-04-11T15:32:12.999Z</time></trkpt><trkpt lat="44.62384650726329" lon="7.995263647993153"><ele>357.0</ele><time>2026-04-11T15:32:15.999Z</time></trkpt><trkpt lat="44.623770403677916" lon="7.995191942477567"><ele>357.0</ele><time>2026-04-11T15:32:17.999Z</time></trkpt><trkpt lat="44.623694614686976" lon="7.995151057093641"><ele>357.0</ele><time>2026-04-11T15:32:19.999Z</time></trkpt><trkpt lat="44.623625085611444" lon="7.995085554596094"><ele>357.0</ele><time>2026-04-11T15:32:23.999Z</time></trkpt><trkpt lat="44.623555849910815" lon="7.995021446629095"><ele>356.3333333333333</ele><time>2026-04-11T15:32:26.999Z</time></trkpt><trkpt lat="44.62346958382061" lon="7.994956314877103"><ele>355.6666666666667</ele><time>2026-04-11T15:32:28.999Z</time></trkpt><trkpt lat="44.623411710298114" lon="7.994911784739792"><ele>355.0</ele><time>2026-04-11T15:32:30.999Z</time></trkpt><trkpt lat="44.62335286046004" lon="7.994869490750046"><ele>354.33333333333337</ele><time>2026-04-11T15:32:32.999Z</time></trkpt><trkpt lat="44.623276236064505" lon="7.994804220601646"><ele>353.6666666666667</ele><time>2026-04-11T15:32:35.999Z</time></trkpt><trkpt lat="44.623214768344106" lon="7.994766407857753"><ele>353.0</ele><time>2026-04-11T15:32:37.999Z</time></trkpt><trkpt lat="44.62313254681562" lon="7.994699332036205"><ele>353.0</ele><time>2026-04-11T15:32:40.999Z</time></trkpt><trkpt lat="44.62304277624923" lon="7.994646947603566"><ele>353.0</ele><time>2026-04-11T15:32:43.999Z</time></trkpt><trkpt lat="44.62297875677944" lon="7.9946129037046205"><ele>353.0</ele><time>2026-04-11T15:32:45.999Z</time></trkpt><trkpt lat="44.62288612124965" lon="7.99456768088062"><ele>353.0</ele><time>2026-04-11T15:32:48.999Z</time></trkpt><trkpt lat="44.62279488642693" lon="7.994556120157465"><ele>353.0</ele><time>2026-04-11T15:32:51.999Z</time></trkpt><trkpt lat="44.62272155229663" lon="7.99454140736924"><ele>353.0</ele><time>2026-04-11T15:32:55Z</time></trkpt><trkpt lat="44.622646341585686" lon="7.994538852852519"><ele>354.33333333333337</ele><time>2026-04-11T15:32:58Z</time></trkpt><trkpt lat="44.62255640479658" lon="7.994561909789931"><ele>355.6666666666667</ele><time>2026-04-11T15:33:01Z</time></trkpt><trkpt lat="44.62246741223337" lon="7.994573747597621"><ele>357.0</ele><time>2026-04-11T15:33:03Z</time></trkpt><trkpt lat="44.622392146274386" lon="7.994622267497558"><ele>358.3333333333333</ele><time>2026-04-11T15:33:07Z</time></trkpt><trkpt lat="44.62231637903336" lon="7.994666221357245"><ele>359.66666666666663</ele><time>2026-04-11T15:33:10Z</time></trkpt><trkpt lat="44.62222221805917" lon="7.9947199241344125"><ele>361.0</ele><time>2026-04-11T15:33:12Z</time></trkpt><trkpt lat="44.62215409469322" lon="7.994759032187959"><ele>361.0</ele><time>2026-04-11T15:33:14Z</time></trkpt><trkpt lat="44.62208809578334" lon="7.994793765157281"><ele>361.0</ele><time>2026-04-11T15:33:16Z</time></trkpt><trkpt lat="44.62202960616253" lon="7.994830677545801"><ele>361.0</ele><time>2026-04-11T15:33:18Z</time></trkpt><trkpt lat="44.62194570316804" lon="7.994890123895554"><ele>361.0</ele><time>2026-04-11T15:33:21Z</time></trkpt><trkpt lat="44.62186713977682" lon="7.994951633716507"><ele>361.0</ele><time>2026-04-11T15:33:24Z</time></trkpt><trkpt lat="44.62177757057341" lon="7.995005405947753"><ele>361.0</ele><time>2026-04-11T15:33:27Z</time></trkpt><trkpt lat="44.62172098479331" lon="7.995047144096582"><ele>359.5714285714286</ele><time>2026-04-11T15:33:29Z</time></trkpt><trkpt lat="44.62166302614826" lon="7.99508922693324"><ele>358.1428571428571</ele><time>2026-04-11T15:33:31Z</time></trkpt><trkpt lat="44.621595467953426" lon="7.995129896584968"><ele>356.7142857142857</ele><time>2026-04-11T15:33:33Z</time></trkpt><trkpt lat="44.621530069162226" lon="7.995176180947451"><ele>355.28571428571433</ele><time>2026-04-11T15:33:35Z</time></trkpt><trkpt lat="44.62146565030993" lon="7.995214283455989"><ele>353.8571428571429</ele><time>2026-04-11T15:33:37Z</time></trkpt><trkpt lat="44.62140293479998" lon="7.995253493537604"><ele>352.42857142857144</ele><time>2026-04-11T15:33:39Z</time></trkpt><trkpt lat="44.62133659762831" lon="7.995295620121895"><ele>351.0</ele><time>2026-04-11T15:33:41Z</time></trkpt><trkpt lat="44.62126335049783" lon="7.9953292534248135"><ele>351.00000000000006</ele><time>2026-04-11T15:33:43Z</time></trkpt><trkpt lat="44.62120238170569" lon="7.995356603206521"><ele>351.0</ele><time>2026-04-11T15:33:45Z</time></trkpt><trkpt lat="44.62111293256307" lon="7.995388153974793"><ele>351.0</ele><time>2026-04-11T15:33:48Z</time></trkpt><trkpt lat="44.6210493254272" lon="7.99541097742635"><ele>351.0</ele><time>2026-04-11T15:33:50Z</time></trkpt><trkpt lat="44.62097774190417" lon="7.9954131393841195"><ele>351.0</ele><time>2026-04-11T15:33:52Z</time></trkpt><trkpt lat="44.62090816239583" lon="7.995425408433017"><ele>351.00000000000006</ele><time>2026-04-11T15:33:54Z</time></trkpt><trkpt lat="44.62084469714953" lon="7.99542959609012"><ele>351.0</ele><time>2026-04-11T15:33:56Z</time></trkpt><trkpt lat="44.62077333302199" lon="7.9954278969030765"><ele>352.0</ele><time>2026-04-11T15:33:58Z</time></trkpt><trkpt lat="44.62068447920648" lon="7.995425777583677"><ele>353.0</ele><time>2026-04-11T15:34:01Z</time></trkpt><trkpt lat="44.6205963869311" lon="7.995406873905165"><ele>354.0</ele><time>2026-04-11T15:34:04Z</time></trkpt><trkpt lat="44.62050867932579" lon="7.995409052905788"><ele>355.0</ele><time>2026-04-11T15:34:07Z</time></trkpt><trkpt lat="44.620435524916935" lon="7.99540220172538"><ele>356.0</ele><time>2026-04-11T15:34:10Z</time></trkpt><trkpt lat="44.62036239842367" lon="7.99541138487571"><ele>357.0</ele><time>2026-04-11T15:34:12.999Z</time></trkpt><trkpt lat="44.6202836527424" lon="7.995416587237194"><ele>358.3333333333333</ele><time>2026-04-11T15:34:15.999Z</time></trkpt><trkpt lat="44.62020326085057" lon="7.995428718693694"><ele>359.6666666666667</ele><time>2026-04-11T15:34:18.999Z</time></trkpt><trkpt lat="44.62013250907973" lon="7.995443402675306"><ele>361.0</ele><time>2026-04-11T15:34:21.999Z</time></trkpt><trkpt lat="44.620056670144116" lon="7.99542774631395"><ele>362.33333333333337</ele><time>2026-04-11T15:34:24.999Z</time></trkpt><trkpt lat="44.61997339514545" lon="7.995454270726943"><ele>363.6666666666667</ele><time>2026-04-11T15:34:27.999Z</time></trkpt><trkpt lat="44.6198979675609" lon="7.995460355552711"><ele>365.0</ele><time>2026-04-11T15:34:30.999Z</time></trkpt><trkpt lat="44.61981794996663" lon="7.995480747029859"><ele>365.0</ele><time>2026-04-11T15:34:33.999Z</time></trkpt><trkpt lat="44.61974570847156" lon="7.995495157163837"><ele>365.0</ele><time>2026-04-11T15:34:36.999Z</time></trkpt><trkpt lat="44.61966636042681" lon="7.995506658513589"><ele>365.0</ele><time>2026-04-11T15:34:39.999Z</time></trkpt><trkpt lat="44.619589161574936" lon="7.995520416107006"><ele>365.0</ele><time>2026-04-11T15:34:42.999Z</time></trkpt><trkpt lat="44.61951714983555" lon="7.995546600100916"><ele>365.0</ele><time>2026-04-11T15:34:45.999Z</time></trkpt><trkpt lat="44.61943849731726" lon="7.995574465906964"><ele>365.0</ele><time>2026-04-11T15:34:48.999Z</time></trkpt><trkpt lat="44.619376273853646" lon="7.995614291560676"><ele>365.1666666666667</ele><time>2026-04-11T15:34:51.999Z</time></trkpt><trkpt lat="44.619304779586926" lon="7.9956704117451585"><ele>365.33333333333337</ele><time>2026-04-11T15:34:54.999Z</time></trkpt><trkpt lat="44.619252562108585" lon="7.995741644998921"><ele>365.5</ele><time>2026-04-11T15:34:57.999Z</time></trkpt><trkpt lat="44.6192079845752" lon="7.995828580669379"><ele>365.6666666666667</ele><time>2026-04-11T15:35:01Z</time></trkpt><trkpt lat="44.619181133427006" lon="7.995928082608688"><ele>365.8333333333333</ele><time>2026-04-11T15:35:04Z</time></trkpt><trkpt lat="44.61916733237381" lon="7.9960281385007175"><ele>366.0</ele><time>2026-04-11T15:35:07Z</time></trkpt><trkpt lat="44.6191604235464" lon="7.996136749561639"><ele>366.0</ele><time>2026-04-11T15:35:10Z</time></trkpt><trkpt lat="44.619163209867374" lon="7.996240253255823"><ele>366.0</ele><time>2026-04-11T15:35:13Z</time></trkpt><trkpt lat="44.61916133176918" lon="7.996350008858204"><ele>366.0</ele><time>2026-04-11T15:35:16Z</time></trkpt><trkpt lat="44.61916142100122" lon="7.996456572116765"><ele>366.0</ele><time>2026-04-11T15:35:19Z</time></trkpt><trkpt lat="44.6191612202847" lon="7.996561344618957"><ele>366.0</ele><time>2026-04-11T15:35:22Z</time></trkpt><trkpt lat="44.61915466592972" lon="7.996662914153592"><ele>366.0</ele><time>2026-04-11T15:35:25Z</time></trkpt><trkpt lat="44.619140094742804" lon="7.9967622121939375"><ele>366.0</ele><time>2026-04-11T15:35:28Z</time></trkpt><trkpt lat="44.61912710271141" lon="7.996863565982277"><ele>366.7142857142857</ele><time>2026-04-11T15:35:31Z</time></trkpt><trkpt lat="44.61911212330611" lon="7.996964825723402"><ele>367.42857142857144</ele><time>2026-04-11T15:35:34Z</time></trkpt><trkpt lat="44.6190954241951" lon="7.997066486807141"><ele>368.1428571428571</ele><time>2026-04-11T15:35:37Z</time></trkpt><trkpt lat="44.61906641066188" lon="7.99716849835453"><ele>368.8571428571429</ele><time>2026-04-11T15:35:40Z</time></trkpt><trkpt lat="44.61903799277974" lon="7.997267254483535"><ele>369.57142857142856</ele><time>2026-04-11T15:35:43Z</time></trkpt><trkpt lat="44.61900585375927" lon="7.997358059407302"><ele>370.2857142857143</ele><time>2026-04-11T15:35:46Z</time></trkpt><trkpt lat="44.61897771650234" lon="7.997452802373042"><ele>371.0</ele><time>2026-04-11T15:35:49Z</time></trkpt><trkpt lat="44.61894695576972" lon="7.997541544565621"><ele>371.0</ele><time>2026-04-11T15:35:52Z</time></trkpt><trkpt lat="44.61890838628945" lon="7.997627910552675"><ele>371.0</ele><time>2026-04-11T15:35:55Z</time></trkpt><trkpt lat="44.61886841680601" lon="7.9977097538964586"><ele>371.0</ele><time>2026-04-11T15:35:58Z</time></trkpt><trkpt lat="44.61882374507586" lon="7.99778980444648"><ele>371.0</ele><time>2026-04-11T15:36:01Z</time></trkpt><trkpt lat="44.618780477496756" lon="7.997862520704367"><ele>371.0</ele><time>2026-04-11T15:36:04Z</time></trkpt><trkpt lat="44.61873404572605" lon="7.997942815528262"><ele>371.0</ele><time>2026-04-11T15:36:07Z</time></trkpt><trkpt lat="44.61867444044152" lon="7.9980079470593495"><ele>371.0</ele><time>2026-04-11T15:36:10Z</time></trkpt><trkpt lat="44.618617956854855" lon="7.998075727167971"><ele>371.33333333333337</ele><time>2026-04-11T15:36:12.999Z</time></trkpt><trkpt lat="44.61856211862466" lon="7.998148920160632"><ele>371.6666666666667</ele><time>2026-04-11T15:36:15.999Z</time></trkpt><trkpt lat="44.61850355958087" lon="7.998207756349587"><ele>372.0</ele><time>2026-04-11T15:36:18.999Z</time></trkpt><trkpt lat="44.61844400742298" lon="7.998277016875042"><ele>372.3333333333333</ele><time>2026-04-11T15:36:21.999Z</time></trkpt><trkpt lat="44.61837992462305" lon="7.998334243493821"><ele>372.66666666666663</ele><time>2026-04-11T15:36:24.999Z</time></trkpt><trkpt lat="44.618320340202246" lon="7.998387583810919"><ele>373.0</ele><time>2026-04-11T15:36:27.999Z</time></trkpt><trkpt lat="44.61825284161732" lon="7.998441647198527"><ele>373.0</ele><time>2026-04-11T15:36:30.999Z</time></trkpt><trkpt lat="44.61817638824469" lon="7.998480603946348"><ele>373.0</ele><time>2026-04-11T15:36:33.999Z</time></trkpt><trkpt lat="44.618097624459466" lon="7.998525337280848"><ele>373.0</ele><time>2026-04-11T15:36:36.999Z</time></trkpt><trkpt lat="44.61800722002081" lon="7.998569262703342"><ele>373.0</ele><time>2026-04-11T15:36:39.999Z</time></trkpt><trkpt lat="44.6179392610403" lon="7.998596307462881"><ele>373.0</ele><time>2026-04-11T15:36:41.999Z</time></trkpt><trkpt lat="44.617869534992295" lon="7.998621381386602"><ele>373.0</ele><time>2026-04-11T15:36:43.999Z</time></trkpt><trkpt lat="44.61779121468361" lon="7.998646163735762"><ele>373.0</ele><time>2026-04-11T15:36:45.999Z</time></trkpt><trkpt lat="44.61771263384845" lon="7.9986654386907805"><ele>373.0</ele><time>2026-04-11T15:36:47.999Z</time></trkpt><trkpt lat="44.61763679885376" lon="7.998690477853647"><ele>373.0</ele><time>2026-04-11T15:36:49.999Z</time></trkpt><trkpt lat="44.617563004145815" lon="7.998727759932576"><ele>373.0</ele><time>2026-04-11T15:36:51.999Z</time></trkpt><trkpt lat="44.617480919645864" lon="7.998777198668997"><ele>373.0</ele><time>2026-04-11T15:36:53.999Z</time></trkpt><trkpt lat="44.617401272918016" lon="7.998835326003467"><ele>373.0</ele><time>2026-04-11T15:36:55.999Z</time></trkpt><trkpt lat="44.617332133359696" lon="7.99890021893837"><ele>373.0</ele><time>2026-04-11T15:36:57.999Z</time></trkpt><trkpt lat="44.61726765930179" lon="7.998966443277209"><ele>373.0</ele><time>2026-04-11T15:36:59.999Z</time></trkpt><trkpt lat="44.61720858716656" lon="7.9990454092869"><ele>373.0</ele><time>2026-04-11T15:37:01.999Z</time></trkpt><trkpt lat="44.61714507220582" lon="7.999128473049375"><ele>373.0</ele><time>2026-04-11T15:37:03.999Z</time></trkpt><trkpt lat="44.61709355300069" lon="7.999221866897646"><ele>373.0</ele><time>2026-04-11T15:37:06Z</time></trkpt><trkpt lat="44.61704251031221" lon="7.999318903741484"><ele>373.0</ele><time>2026-04-11T15:37:08Z</time></trkpt><trkpt lat="44.61699621834757" lon="7.99941362851988"><ele>374.16666666666663</ele><time>2026-04-11T15:37:10Z</time></trkpt><trkpt lat="44.61695451784662" lon="7.999505841862414"><ele>375.3333333333333</ele><time>2026-04-11T15:37:12Z</time></trkpt><trkpt lat="44.61690940525685" lon="7.9995985251007715"><ele>376.5</ele><time>2026-04-11T15:37:14Z</time></trkpt><trkpt lat="44.61686223601691" lon="7.9996876158179155"><ele>377.6666666666667</ele><time>2026-04-11T15:37:16Z</time></trkpt><trkpt lat="44.61681778682869" lon="7.99977789707681"><ele>378.83333333333337</ele><time>2026-04-11T15:37:18Z</time></trkpt><trkpt lat="44.616777636315746" lon="7.9998666144344925"><ele>380.0</ele><time>2026-04-11T15:37:20Z</time></trkpt><trkpt lat="44.616730168684995" lon="7.999950036677345"><ele>380.0</ele><time>2026-04-11T15:37:22Z</time></trkpt><trkpt lat="44.61667133772083" lon="8.000020345557646"><ele>380.0</ele><time>2026-04-11T15:37:24Z</time></trkpt><trkpt lat="44.6166215445506" lon="8.000091016451016"><ele>380.0</ele><time>2026-04-11T15:37:26Z</time></trkpt><trkpt lat="44.61656697344909" lon="8.000170662944976"><ele>380.0</ele><time>2026-04-11T15:37:28Z</time></trkpt><trkpt lat="44.61649878153271" lon="8.00021813062633"><ele>380.0</ele><time>2026-04-11T15:37:30Z</time></trkpt><trkpt lat="44.61644341137721" lon="8.00027397634445"><ele>380.0</ele><time>2026-04-11T15:37:32Z</time></trkpt><trkpt lat="44.61636057477499" lon="8.000346835618402"><ele>380.0</ele><time>2026-04-11T15:37:35Z</time></trkpt><trkpt lat="44.616282438403225" lon="8.000424230705178"><ele>380.0</ele><time>2026-04-11T15:37:39Z</time></trkpt><trkpt lat="44.61620907198349" lon="8.000477149157414"><ele>380.0</ele><time>2026-04-11T15:37:42Z</time></trkpt><trkpt lat="44.61613786145322" lon="8.00052162566954"><ele>380.0</ele><time>2026-04-11T15:37:44Z</time></trkpt><trkpt lat="44.616055416572316" lon="8.000567212042673"><ele>380.0</ele><time>2026-04-11T15:37:47Z</time></trkpt><trkpt lat="44.615972241031216" lon="8.000612355367409"><ele>380.0</ele><time>2026-04-11T15:37:50Z</time></trkpt><trkpt lat="44.6158982305307" lon="8.000653247244461"><ele>380.33333333333337</ele><time>2026-04-11T15:37:52Z</time></trkpt><trkpt lat="44.615817183014435" lon="8.000687400906383"><ele>380.6666666666667</ele><time>2026-04-11T15:37:55Z</time></trkpt><trkpt lat="44.61573052885244" lon="8.000724945335634"><ele>381.0</ele><time>2026-04-11T15:37:58Z</time></trkpt><trkpt lat="44.615648377594" lon="8.000767343841456"><ele>381.3333333333333</ele><time>2026-04-11T15:38:00Z</time></trkpt><trkpt lat="44.61557202748661" lon="8.00079866621128"><ele>381.66666666666663</ele><time>2026-04-11T15:38:02Z</time></trkpt><trkpt lat="44.61550638515047" lon="8.000823611250336"><ele>382.0</ele><time>2026-04-11T15:38:04Z</time></trkpt><trkpt lat="44.61544374655983" lon="8.000857654686854"><ele>382.0</ele><time>2026-04-11T15:38:06Z</time></trkpt><trkpt lat="44.61537265020632" lon="8.000883857366222"><ele>382.0</ele><time>2026-04-11T15:38:08Z</time></trkpt><trkpt lat="44.61530197476638" lon="8.000912838090805"><ele>382.0</ele><time>2026-04-11T15:38:10Z</time></trkpt><trkpt lat="44.61523752376206" lon="8.00093631595273"><ele>382.0</ele><time>2026-04-11T15:38:12Z</time></trkpt><trkpt lat="44.61516738495477" lon="8.00096315231574"><ele>382.0</ele><time>2026-04-11T15:38:14Z</time></trkpt><trkpt lat="44.61510281127396" lon="8.000986919185568"><ele>382.0</ele><time>2026-04-11T15:38:16Z</time></trkpt><trkpt lat="44.61501609942518" lon="8.001032609176443"><ele>382.0</ele><time>2026-04-11T15:38:18.999Z</time></trkpt><trkpt lat="44.61495073484788" lon="8.001060677145995"><ele>382.0</ele><time>2026-04-11T15:38:20.999Z</time></trkpt><trkpt lat="44.614882329022045" lon="8.001087863939278"><ele>382.0</ele><time>2026-04-11T15:38:22.999Z</time></trkpt><trkpt lat="44.61480477737434" lon="8.00113207556835"><ele>382.0</ele><time>2026-04-11T15:38:25.999Z</time></trkpt><trkpt lat="44.6146952086412" lon="8.00118959860473"><ele>382.0</ele><time>2026-04-11T15:38:28.999Z</time></trkpt><trkpt lat="44.61459802104725" lon="8.001213518304647"><ele>382.0</ele><time>2026-04-11T15:38:30.999Z</time></trkpt><trkpt lat="44.61449414632796" lon="8.001251266423841"><ele>381.66666666666663</ele><time>2026-04-11T15:38:32.999Z</time></trkpt><trkpt lat="44.614378449393946" lon="8.001282129155086"><ele>381.3333333333333</ele><time>2026-04-11T15:38:34.999Z</time></trkpt><trkpt lat="44.61431586340696" lon="8.001298124022862"><ele>381.0</ele><time>2026-04-11T15:38:35.999Z</time></trkpt><trkpt lat="44.61425220389951" lon="8.001305518782072"><ele>380.6666666666667</ele><time>2026-04-11T15:38:36.999Z</time></trkpt><trkpt lat="44.614187721605084" lon="8.001321123910722"><ele>380.33333333333337</ele><time>2026-04-11T15:38:37.999Z</time></trkpt><trkpt lat="44.61406445865359" lon="8.001346237246008"><ele>380.0</ele><time>2026-04-11T15:38:39.999Z</time></trkpt><trkpt lat="44.613931898609444" lon="8.001361685730462"><ele>380.0</ele><time>2026-04-11T15:38:41.999Z</time></trkpt><trkpt lat="44.613866137009296" lon="8.00136899037995"><ele>380.0</ele><time>2026-04-11T15:38:42.999Z</time></trkpt><trkpt lat="44.61379851160303" lon="8.001370544255463"><ele>380.0</ele><time>2026-04-11T15:38:43.999Z</time></trkpt><trkpt lat="44.61373386816398" lon="8.001375474296658"><ele>380.0</ele><time>2026-04-11T15:38:44.999Z</time></trkpt><trkpt lat="44.61366844383088" lon="8.001382517933402"><ele>380.0</ele><time>2026-04-11T15:38:45.999Z</time></trkpt><trkpt lat="44.61360349915092" lon="8.001387761826084"><ele>380.0</ele><time>2026-04-11T15:38:46.999Z</time></trkpt><trkpt lat="44.613485250939775" lon="8.0014026302603"><ele>380.0</ele><time>2026-04-11T15:38:48.999Z</time></trkpt><trkpt lat="44.613365431730216" lon="8.001411388093928"><ele>379.8</ele><time>2026-04-11T15:38:50.999Z</time></trkpt><trkpt lat="44.61325422531861" lon="8.001408236790642"><ele>379.6</ele><time>2026-04-11T15:38:52.999Z</time></trkpt><trkpt lat="44.61314805147414" lon="8.00139424024251"><ele>379.4</ele><time>2026-04-11T15:38:54.999Z</time></trkpt><trkpt lat="44.613039122702865" lon="8.00137253072923"><ele>379.2</ele><time>2026-04-11T15:38:56.999Z</time></trkpt><trkpt lat="44.612925852733355" lon="8.00133754853672"><ele>379.0</ele><time>2026-04-11T15:38:58.999Z</time></trkpt><trkpt lat="44.6128196284117" lon="8.001282632833373"><ele>379.0</ele><time>2026-04-11T15:39:00.999Z</time></trkpt><trkpt lat="44.612717178515474" lon="8.001241042080155"><ele>379.0</ele><time>2026-04-11T15:39:02.999Z</time></trkpt><trkpt lat="44.61260785067924" lon="8.001140202490937"><ele>379.0</ele><time>2026-04-11T15:39:04.999Z</time></trkpt><trkpt lat="44.61252466990916" lon="8.001114814941092"><ele>379.0</ele><time>2026-04-11T15:39:06.999Z</time></trkpt><trkpt lat="44.61244784349004" lon="8.00107406634843"><ele>379.0</ele><time>2026-04-11T15:39:08.999Z</time></trkpt><trkpt lat="44.612362511230444" lon="8.001025664206933"><ele>379.0</ele><time>2026-04-11T15:39:10.999Z</time></trkpt><trkpt lat="44.61228182118102" lon="8.00098066671283"><ele>379.0</ele><time>2026-04-11T15:39:13Z</time></trkpt><trkpt lat="44.61220277381019" lon="8.000925525968036"><ele>379.0</ele><time>2026-04-11T15:39:15Z</time></trkpt><trkpt lat="44.612126150232726" lon="8.000883357330723"><ele>379.0</ele><time>2026-04-11T15:39:17Z</time></trkpt><trkpt lat="44.61206472798896" lon="8.000842994094805"><ele>379.0</ele><time>2026-04-11T15:39:19Z</time></trkpt><trkpt lat="44.61197667955373" lon="8.00078247734965"><ele>379.0</ele><time>2026-04-11T15:39:22Z</time></trkpt><trkpt lat="44.6119120458526" lon="8.000735699170923"><ele>379.16666666666663</ele><time>2026-04-11T15:39:24Z</time></trkpt><trkpt lat="44.61185172083702" lon="8.000684980522871"><ele>379.3333333333333</ele><time>2026-04-11T15:39:26Z</time></trkpt><trkpt lat="44.61178793133556" lon="8.00060558419038"><ele>379.5</ele><time>2026-04-11T15:39:29Z</time></trkpt><trkpt lat="44.61171046315279" lon="8.000629682809974"><ele>379.6666666666667</ele><time>2026-04-11T15:39:33Z</time></trkpt><trkpt lat="44.611635370119835" lon="8.000570508591291"><ele>379.83333333333337</ele><time>2026-04-11T15:39:36Z</time></trkpt><trkpt lat="44.61157795407885" lon="8.000511280266279"><ele>380.0</ele><time>2026-04-11T15:39:39Z</time></trkpt><trkpt lat="44.611517287453346" lon="8.000449058943627"><ele>380.0</ele><time>2026-04-11T15:39:43Z</time></trkpt><trkpt lat="44.611446059179265" lon="8.000440519979518"><ele>380.0</ele><time>2026-04-11T15:39:47Z</time></trkpt><trkpt lat="44.61139714848787" lon="8.000362156119632"><ele>380.0</ele><time>2026-04-11T15:39:52Z</time></trkpt><trkpt lat="44.611321661814074" lon="8.000352936197576"><ele>380.0</ele><time>2026-04-11T15:39:57Z</time></trkpt><trkpt lat="44.61125573138529" lon="8.000302723226667"><ele>380.0</ele><time>2026-04-11T15:40:02Z</time></trkpt><trkpt lat="44.61132608952681" lon="8.00034488939113"><ele>380.0</ele><time>2026-04-11T15:40:08Z</time></trkpt><trkpt lat="44.61139894075103" lon="8.00036135026581"><ele>380.0</ele><time>2026-04-11T15:40:10Z</time></trkpt><trkpt lat="44.61144893301452" lon="8.000468707363604"><ele>380.0</ele><time>2026-04-11T15:40:12Z</time></trkpt><trkpt lat="44.61143571767217" lon="8.000622083561938"><ele>380.0</ele><time>2026-04-11T15:40:14Z</time></trkpt><trkpt lat="44.61140423683356" lon="8.00070572248334"><ele>380.0</ele><time>2026-04-11T15:40:16Z</time></trkpt><trkpt lat="44.61137020844795" lon="8.000788696951503"><ele>380.0</ele><time>2026-04-11T15:40:18.999Z</time></trkpt><trkpt lat="44.6113256917813" lon="8.000854166305293"><ele>380.0</ele><time>2026-04-11T15:42:30.999Z</time></trkpt><trkpt lat="44.61126906716841" lon="8.000806147117459"><ele>380.0</ele><time>2026-04-11T15:42:39.999Z</time></trkpt><trkpt lat="44.611236396512375" lon="8.000713352091008"><ele>380.0</ele><time>2026-04-11T15:42:45.999Z</time></trkpt><trkpt lat="44.61122107206509" lon="8.000627265999162"><ele>380.0</ele><time>2026-04-11T15:42:48.999Z</time></trkpt><trkpt lat="44.61122326683872" lon="8.0005388511021"><ele>380.0</ele><time>2026-04-11T15:42:51.999Z</time></trkpt><trkpt lat="44.611217755609864" lon="8.000442078168236"><ele>380.0</ele><time>2026-04-11T15:42:54.999Z</time></trkpt><trkpt lat="44.61119193723346" lon="8.000349223593899"><ele>380.0</ele><time>2026-04-11T15:42:58.999Z</time></trkpt><trkpt lat="44.611110063237575" lon="8.000363648454206"><ele>380.0</ele><time>2026-04-11T15:43:03.999Z</time></trkpt><trkpt lat="44.61104899367193" lon="8.000391994255953"><ele>380.0</ele><time>2026-04-11T15:43:07.999Z</time></trkpt><trkpt lat="44.611021568825684" lon="8.0004825916371"><ele>382.42857142857144</ele><time>2026-04-11T15:43:12.999Z</time></trkpt><trkpt lat="44.61102175543015" lon="8.000600397783868"><ele>384.8571428571429</ele><time>2026-04-11T15:43:17.999Z</time></trkpt><trkpt lat="44.610958266803536" lon="8.000611913981803"><ele>387.2857142857143</ele><time>2026-04-11T15:43:24Z</time></trkpt><trkpt lat="44.61091304239231" lon="8.000550072073537"><ele>389.7142857142857</ele><time>2026-04-11T15:43:29Z</time></trkpt><trkpt lat="44.610923420866406" lon="8.000446569924605"><ele>392.1428571428571</ele><time>2026-04-11T15:43:34Z</time></trkpt><trkpt lat="44.610935748695674" lon="8.00035292953954"><ele>394.57142857142856</ele><time>2026-04-11T15:43:39Z</time></trkpt><trkpt lat="44.610891637673646" lon="8.000264876669162"><ele>397.0</ele><time>2026-04-11T15:43:44Z</time></trkpt><trkpt lat="44.610871403228884" lon="8.000162574872093"><ele>397.0</ele><time>2026-04-11T15:43:49Z</time></trkpt><trkpt lat="44.610804483118706" lon="8.000156326897807"><ele>397.0</ele><time>2026-04-11T15:43:54Z</time></trkpt><trkpt lat="44.61074294491657" lon="8.000131002798584"><ele>397.0</ele><time>2026-04-11T15:44:01Z</time></trkpt><trkpt lat="44.61067688381801" lon="8.000134081507852"><ele>397.0</ele><time>2026-04-11T15:44:05Z</time></trkpt><trkpt lat="44.61061143747159" lon="8.000145519718748"><ele>397.0</ele><time>2026-04-11T15:44:12Z</time></trkpt><trkpt lat="44.610581058821" lon="8.000235056435287"><ele>397.0</ele><time>2026-04-11T15:44:21Z</time></trkpt><trkpt lat="44.610592736782166" lon="8.000331418408008"><ele>397.0</ele><time>2026-04-11T15:44:27Z</time></trkpt><trkpt lat="44.61064269723292" lon="8.000390931623246"><ele>397.0</ele><time>2026-04-11T15:44:53.999Z</time></trkpt><trkpt lat="44.61072134856208" lon="8.000451457533686"><ele>397.0</ele><time>2026-04-11T15:44:57.999Z</time></trkpt><trkpt lat="44.6107883007764" lon="8.00047911770277"><ele>397.0</ele><time>2026-04-11T15:45:00.999Z</time></trkpt><trkpt lat="44.61072138988315" lon="8.000455413853507"><ele>397.0</ele><time>2026-04-11T15:45:09.999Z</time></trkpt><trkpt lat="44.61065224672842" lon="8.000460444702371"><ele>397.0</ele><time>2026-04-11T15:45:12.999Z</time></trkpt><trkpt lat="44.61058756430049" lon="8.000382045094774"><ele>397.0</ele><time>2026-04-11T15:45:15.999Z</time></trkpt><trkpt lat="44.61055247651043" lon="8.000307904141875"><ele>397.0</ele><time>2026-04-11T15:45:19.999Z</time></trkpt><trkpt lat="44.610539982894785" lon="8.000214464188705"><ele>397.00000000000006</ele><time>2026-04-11T15:45:24.999Z</time></trkpt><trkpt lat="44.61057236764651" lon="8.000110221227269"><ele>397.0</ele><time>2026-04-11T15:45:28.999Z</time></trkpt><trkpt lat="44.61062038636256" lon="8.000040933858575"><ele>397.0</ele><time>2026-04-11T15:45:32Z</time></trkpt><trkpt lat="44.61070581890152" lon="8.000047058077989"><ele>397.0</ele><time>2026-04-11T15:45:35Z</time></trkpt><trkpt lat="44.61078196958314" lon="8.000108295134805"><ele>397.00000000000006</ele><time>2026-04-11T15:45:38Z</time></trkpt><trkpt lat="44.61086321721316" lon="8.000164238172546"><ele>397.0</ele><time>2026-04-11T15:45:41Z</time></trkpt><trkpt lat="44.610910333915704" lon="8.000263731572723"><ele>397.0</ele><time>2026-04-11T15:45:44Z</time></trkpt><trkpt lat="44.61091349637678" lon="8.000359733851772"><ele>397.0</ele><time>2026-04-11T15:45:46Z</time></trkpt><trkpt lat="44.610904246399215" lon="8.000453277844406"><ele>397.0</ele><time>2026-04-11T15:45:48Z</time></trkpt><trkpt lat="44.610910497804866" lon="8.000570143420422"><ele>397.0</ele><time>2026-04-11T15:45:51Z</time></trkpt><trkpt lat="44.610967313207745" lon="8.000632662448943"><ele>397.0</ele><time>2026-04-11T15:45:54Z</time></trkpt><trkpt lat="44.61094313860805" lon="8.000717148394594"><ele>397.0</ele><time>2026-04-11T15:45:56Z</time></trkpt><trkpt lat="44.610888195689924" lon="8.000817551523332"><ele>397.0</ele><time>2026-04-11T15:45:59Z</time></trkpt><trkpt lat="44.61083470622892" lon="8.000896109777287"><ele>397.00000000000006</ele><time>2026-04-11T15:46:01Z</time></trkpt><trkpt lat="44.61075403418983" lon="8.000946948833061"><ele>397.0</ele><time>2026-04-11T15:46:03Z</time></trkpt><trkpt lat="44.61064830693454" lon="8.000992515754671"><ele>397.0</ele><time>2026-04-11T15:46:05Z</time></trkpt><trkpt lat="44.61055366574742" lon="8.000939695005417"><ele>397.0</ele><time>2026-04-11T15:46:07Z</time></trkpt><trkpt lat="44.610492185233674" lon="8.00087712051358"><ele>397.00000000000006</ele><time>2026-04-11T15:46:09Z</time></trkpt><trkpt lat="44.61043826562424" lon="8.000830825696392"><ele>397.0</ele><time>2026-04-11T15:46:10Z</time></trkpt><trkpt lat="44.6103751660681" lon="8.000754249186308"><ele>397.00000000000006</ele><time>2026-04-11T15:46:12Z</time></trkpt><trkpt lat="44.61033723221935" lon="8.000645819459443"><ele>397.0</ele><time>2026-04-11T15:46:14Z</time></trkpt><trkpt lat="44.610291231275546" lon="8.00057011360625"><ele>397.0</ele><time>2026-04-11T15:46:16Z</time></trkpt><trkpt lat="44.61023573988329" lon="8.000478454472775"><ele>397.0</ele><time>2026-04-11T15:46:18Z</time></trkpt><trkpt lat="44.610165390875274" lon="8.0004237573854"><ele>397.00000000000006</ele><time>2026-04-11T15:46:20Z</time></trkpt><trkpt lat="44.61012326352745" lon="8.000327226132253"><ele>397.0</ele><time>2026-04-11T15:46:23Z</time></trkpt><trkpt lat="44.61004497378959" lon="8.0003164271999"><ele>396.20000000000005</ele><time>2026-04-11T15:46:25Z</time></trkpt><trkpt lat="44.60996292339364" lon="8.00028397531443"><ele>395.4</ele><time>2026-04-11T15:46:27Z</time></trkpt><trkpt lat="44.60985663493748" lon="8.000266776814517"><ele>394.6</ele><time>2026-04-11T15:46:29Z</time></trkpt><trkpt lat="44.60974325137338" lon="8.000264455363068"><ele>393.79999999999995</ele><time>2026-04-11T15:46:31Z</time></trkpt><trkpt lat="44.60966756427041" lon="8.000267789848415"><ele>393.0</ele><time>2026-04-11T15:46:33Z</time></trkpt><trkpt lat="44.60959247054844" lon="8.000271097952925"><ele>391.0</ele><time>2026-04-11T15:46:35.999Z</time></trkpt><trkpt lat="44.60948164708859" lon="8.000289720232693"><ele>389.0</ele><time>2026-04-11T15:46:38.999Z</time></trkpt><trkpt lat="44.60942937252181" lon="8.000378513835292"><ele>387.0</ele><time>2026-04-11T15:46:40.999Z</time></trkpt><trkpt lat="44.60934429110408" lon="8.000439292455093"><ele>385.0</ele><time>2026-04-11T15:46:42.999Z</time></trkpt><trkpt lat="44.60925980544032" lon="8.000503273190294"><ele>383.0</ele><time>2026-04-11T15:46:44.999Z</time></trkpt><trkpt lat="44.609166987822896" lon="8.00054135105091"><ele>383.0</ele><time>2026-04-11T15:46:46.999Z</time></trkpt><trkpt lat="44.609071773382055" lon="8.000566684701836"><ele>383.0</ele><time>2026-04-11T15:46:48.999Z</time></trkpt><trkpt lat="44.60897003961594" lon="8.000595561281855"><ele>383.0</ele><time>2026-04-11T15:46:50.999Z</time></trkpt><trkpt lat="44.60886490323043" lon="8.000626043216181"><ele>383.0</ele><time>2026-04-11T15:46:52.999Z</time></trkpt><trkpt lat="44.60876864172035" lon="8.00062378395424"><ele>383.0</ele><time>2026-04-11T15:46:54.999Z</time></trkpt><trkpt lat="44.60866791086227" lon="8.000624704866425"><ele>382.4</ele><time>2026-04-11T15:46:56.999Z</time></trkpt><trkpt lat="44.60856495297213" lon="8.00060909195417"><ele>381.79999999999995</ele><time>2026-04-11T15:46:58.999Z</time></trkpt><trkpt lat="44.60846254441137" lon="8.000605653268027"><ele>381.2</ele><time>2026-04-11T15:47:00.999Z</time></trkpt><trkpt lat="44.608367420685056" lon="8.000573862072827"><ele>380.6</ele><time>2026-04-11T15:47:02.999Z</time></trkpt><trkpt lat="44.60826660676316" lon="8.000522523755931"><ele>380.0</ele><time>2026-04-11T15:47:04.999Z</time></trkpt><trkpt lat="44.608159579507934" lon="8.000491710448555"><ele>380.0</ele><time>2026-04-11T15:47:06.999Z</time></trkpt><trkpt lat="44.608049798728935" lon="8.000434091082063"><ele>380.0</ele><time>2026-04-11T15:47:08.999Z</time></trkpt><trkpt lat="44.60795512195164" lon="8.000392641287673"><ele>380.0</ele><time>2026-04-11T15:47:10.999Z</time></trkpt><trkpt lat="44.60785482744482" lon="8.00036439737117"><ele>380.0</ele><time>2026-04-11T15:47:12.999Z</time></trkpt><trkpt lat="44.60775636657255" lon="8.000334367558311"><ele>380.0</ele><time>2026-04-11T15:47:14.999Z</time></trkpt><trkpt lat="44.60765971810527" lon="8.000295145461902"><ele>380.83333333333337</ele><time>2026-04-11T15:47:16.999Z</time></trkpt><trkpt lat="44.60756994783776" lon="8.00025002082999"><ele>381.6666666666667</ele><time>2026-04-11T15:47:18.999Z</time></trkpt><trkpt lat="44.6074795941714" lon="8.000218904385273"><ele>382.5</ele><time>2026-04-11T15:47:20.999Z</time></trkpt><trkpt lat="44.6073945458618" lon="8.000177088423943"><ele>383.33333333333337</ele><time>2026-04-11T15:47:22.999Z</time></trkpt><trkpt lat="44.6073166456884" lon="8.00012139525109"><ele>384.1666666666667</ele><time>2026-04-11T15:47:24.999Z</time></trkpt><trkpt lat="44.60724085684152" lon="8.000080539855995"><ele>385.0</ele><time>2026-04-11T15:47:26.999Z</time></trkpt><trkpt lat="44.607175654567925" lon="8.000021038892116"><ele>385.00000000000006</ele><time>2026-04-11T15:47:28.999Z</time></trkpt><trkpt lat="44.60711715802637" lon="7.999961105990679"><ele>385.0</ele><time>2026-04-11T15:47:30.999Z</time></trkpt><trkpt lat="44.607063017749155" lon="7.999903121365188"><ele>385.0</ele><time>2026-04-11T15:47:33.999Z</time></trkpt><trkpt lat="44.60698929032543" lon="7.999840670128664"><ele>385.0</ele><time>2026-04-11T15:47:36Z</time></trkpt><trkpt lat="44.60691728015399" lon="7.999755588342251"><ele>385.00000000000006</ele><time>2026-04-11T15:47:39Z</time></trkpt><trkpt lat="44.60685669962448" lon="7.999697873584734"><ele>385.0</ele><time>2026-04-11T15:47:41Z</time></trkpt><trkpt lat="44.60679534299491" lon="7.999644875943636"><ele>386.2</ele><time>2026-04-11T15:47:43Z</time></trkpt><trkpt lat="44.60673067814681" lon="7.999599786900451"><ele>387.4</ele><time>2026-04-11T15:47:45Z</time></trkpt><trkpt lat="44.6066457775175" lon="7.999578548812471"><ele>388.6</ele><time>2026-04-11T15:47:47Z</time></trkpt><trkpt lat="44.6065436056596" lon="7.999561884559444"><ele>389.8</ele><time>2026-04-11T15:47:49Z</time></trkpt><trkpt lat="44.606434364094724" lon="7.9995531709886345"><ele>391.0</ele><time>2026-04-11T15:47:51Z</time></trkpt><trkpt lat="44.60632250338862" lon="7.999580058302142"><ele>391.0</ele><time>2026-04-11T15:47:53Z</time></trkpt><trkpt lat="44.606214598863374" lon="7.999601138900042"><ele>391.0</ele><time>2026-04-11T15:47:55Z</time></trkpt><trkpt lat="44.6061127852197" lon="7.999610943045266"><ele>391.0</ele><time>2026-04-11T15:47:57Z</time></trkpt><trkpt lat="44.60598931771566" lon="7.9996046646961485"><ele>391.0</ele><time>2026-04-11T15:47:59Z</time></trkpt><trkpt lat="44.605865255443554" lon="7.9995662288367155"><ele>389.99999999999994</ele><time>2026-04-11T15:48:01Z</time></trkpt><trkpt lat="44.60580071224702" lon="7.999536086751169"><ele>389.0</ele><time>2026-04-11T15:48:02Z</time></trkpt><trkpt lat="44.60573827537856" lon="7.999512075513212"><ele>388.0</ele><time>2026-04-11T15:48:03Z</time></trkpt><trkpt lat="44.605676749086086" lon="7.999492515882908"><ele>387.0</ele><time>2026-04-11T15:48:04Z</time></trkpt><trkpt lat="44.6056140316432" lon="7.999469216919447"><ele>386.0</ele><time>2026-04-11T15:48:05Z</time></trkpt><trkpt lat="44.605549074379" lon="7.999448696397318"><ele>384.99999999999994</ele><time>2026-04-11T15:48:06Z</time></trkpt><trkpt lat="44.60548587068396" lon="7.999429481044206"><ele>384.0</ele><time>2026-04-11T15:48:07Z</time></trkpt><trkpt lat="44.60535599638322" lon="7.999390448610701"><ele>382.2</ele><time>2026-04-11T15:48:09Z</time></trkpt><trkpt lat="44.60523799035744" lon="7.999368345609548"><ele>380.4</ele><time>2026-04-11T15:48:11Z</time></trkpt><trkpt lat="44.60513299548707" lon="7.999329824545422"><ele>378.6</ele><time>2026-04-11T15:48:13Z</time></trkpt><trkpt lat="44.6050272263695" lon="7.999273617315458"><ele>376.8</ele><time>2026-04-11T15:48:15Z</time></trkpt><trkpt lat="44.60492827220632" lon="7.999264048558093"><ele>375.0</ele><time>2026-04-11T15:48:17Z</time></trkpt><trkpt lat="44.60483523536217" lon="7.999211568764383"><ele>375.0</ele><time>2026-04-11T15:48:19Z</time></trkpt><trkpt lat="44.604741224433795" lon="7.9992012750312025"><ele>375.0</ele><time>2026-04-11T15:48:21Z</time></trkpt><trkpt lat="44.60464976996046" lon="7.999170306440249"><ele>375.0</ele><time>2026-04-11T15:48:23Z</time></trkpt><trkpt lat="44.60456842061343" lon="7.999138626879568"><ele>375.0</ele><time>2026-04-11T15:48:25Z</time></trkpt><trkpt lat="44.604489748588016" lon="7.999113597350758"><ele>375.0</ele><time>2026-04-11T15:48:27Z</time></trkpt><trkpt lat="44.604416451622114" lon="7.999095087286054"><ele>375.0</ele><time>2026-04-11T15:48:29Z</time></trkpt><trkpt lat="44.604343427523716" lon="7.9990709312774895"><ele>376.3333333333333</ele><time>2026-04-11T15:48:31Z</time></trkpt><trkpt lat="44.60427073441781" lon="7.999039297249124"><ele>377.6666666666667</ele><time>2026-04-11T15:48:33Z</time></trkpt><trkpt lat="44.60418690487985" lon="7.99901743546142"><ele>379.0</ele><time>2026-04-11T15:48:35Z</time></trkpt><trkpt lat="44.60410240698913" lon="7.998997006117247"><ele>380.33333333333337</ele><time>2026-04-11T15:48:36.999Z</time></trkpt><trkpt lat="44.604019716029704" lon="7.998986842705241"><ele>381.6666666666667</ele><time>2026-04-11T15:48:38.999Z</time></trkpt><trkpt lat="44.60393160968502" lon="7.998978922504778"><ele>383.0</ele><time>2026-04-11T15:48:40.999Z</time></trkpt><trkpt lat="44.603842953174" lon="7.9989818544543905"><ele>383.0</ele><time>2026-04-11T15:48:42.999Z</time></trkpt><trkpt lat="44.60375683779045" lon="7.998978721149147"><ele>383.0</ele><time>2026-04-11T15:48:44.999Z</time></trkpt><trkpt lat="44.60366761875939" lon="7.9989843526383355"><ele>383.0</ele><time>2026-04-11T15:48:46.999Z</time></trkpt><trkpt lat="44.60356727334744" lon="7.998994362728917"><ele>383.0</ele><time>2026-04-11T15:48:48.999Z</time></trkpt><trkpt lat="44.603464913002355" lon="7.999012082291712"><ele>383.0</ele><time>2026-04-11T15:48:50.999Z</time></trkpt><trkpt lat="44.603371930934465" lon="7.999040326684253"><ele>382.0</ele><time>2026-04-11T15:48:52.999Z</time></trkpt><trkpt lat="44.60327979824614" lon="7.999063049130466"><ele>381.0</ele><time>2026-04-11T15:48:54.999Z</time></trkpt><trkpt lat="44.60319422221501" lon="7.999080493935321"><ele>380.0</ele><time>2026-04-11T15:48:56.999Z</time></trkpt><trkpt lat="44.60309754787881" lon="7.9990975978943615"><ele>379.0</ele><time>2026-04-11T15:48:58.999Z</time></trkpt><trkpt lat="44.60301270592772" lon="7.999122813220714"><ele>378.0</ele><time>2026-04-11T15:49:00.999Z</time></trkpt><trkpt lat="44.60292722743415" lon="7.999150827446623"><ele>378.0</ele><time>2026-04-11T15:49:02.999Z</time></trkpt><trkpt lat="44.60283694362478" lon="7.99916462775551"><ele>378.0</ele><time>2026-04-11T15:49:04.999Z</time></trkpt><trkpt lat="44.602767958947105" lon="7.999179330646408"><ele>378.0</ele><time>2026-04-11T15:49:06.999Z</time></trkpt><trkpt lat="44.60267891149282" lon="7.999202169528049"><ele>378.0</ele><time>2026-04-11T15:49:08.999Z</time></trkpt><trkpt lat="44.602587444950736" lon="7.999219621954345"><ele>378.0</ele><time>2026-04-11T15:49:10.999Z</time></trkpt><trkpt lat="44.60249726989076" lon="7.999250100787349"><ele>378.0</ele><time>2026-04-11T15:49:12.999Z</time></trkpt><trkpt lat="44.60242075007811" lon="7.999276725887838"><ele>378.0</ele><time>2026-04-11T15:49:14.999Z</time></trkpt><trkpt lat="44.60234171444051" lon="7.999300476336536"><ele>378.0</ele><time>2026-04-11T15:49:16.999Z</time></trkpt><trkpt lat="44.60226728310136" lon="7.9993199093001595"><ele>378.0</ele><time>2026-04-11T15:49:18.999Z</time></trkpt><trkpt lat="44.6021957355973" lon="7.99933722854773"><ele>378.0</ele><time>2026-04-11T15:49:20.999Z</time></trkpt><trkpt lat="44.60212505486695" lon="7.999359086436418"><ele>378.0</ele><time>2026-04-11T15:49:22.999Z</time></trkpt><trkpt lat="44.602052608916466" lon="7.999374139989212"><ele>378.0</ele><time>2026-04-11T15:49:24.999Z</time></trkpt><trkpt lat="44.60198549144215" lon="7.999391300162808"><ele>378.0</ele><time>2026-04-11T15:49:26.999Z</time></trkpt><trkpt lat="44.60192045919588" lon="7.999407927697727"><ele>378.0</ele><time>2026-04-11T15:49:28.999Z</time></trkpt><trkpt lat="44.601853289086634" lon="7.999420001688407"><ele>378.0</ele><time>2026-04-11T15:49:30.999Z</time></trkpt><trkpt lat="44.60176055801976" lon="7.999450427745481"><ele>378.0</ele><time>2026-04-11T15:49:33.999Z</time></trkpt><trkpt lat="44.6016909915785" lon="7.999467282124311"><ele>378.0</ele><time>2026-04-11T15:49:35.999Z</time></trkpt><trkpt lat="44.60159934601465" lon="7.999489342547938"><ele>378.0</ele><time>2026-04-11T15:49:37.999Z</time></trkpt><trkpt lat="44.60151872647536" lon="7.9995125209614235"><ele>378.0</ele><time>2026-04-11T15:49:39.999Z</time></trkpt><trkpt lat="44.601430884729226" lon="7.9995369743870075"><ele>378.0</ele><time>2026-04-11T15:49:42Z</time></trkpt><trkpt lat="44.60132218388398" lon="7.999572201054489"><ele>378.0</ele><time>2026-04-11T15:49:44Z</time></trkpt><trkpt lat="44.60119397059594" lon="7.999597276052842"><ele>378.0</ele><time>2026-04-11T15:49:46Z</time></trkpt><trkpt lat="44.60112998262876" lon="7.999619013802266"><ele>378.0</ele><time>2026-04-11T15:49:47Z</time></trkpt><trkpt lat="44.601058101224574" lon="7.99963496428517"><ele>378.0</ele><time>2026-04-11T15:49:48Z</time></trkpt><trkpt lat="44.60097861345975" lon="7.999659230425502"><ele>378.0</ele><time>2026-04-11T15:49:49Z</time></trkpt><trkpt lat="44.60090529600754" lon="7.99968059128536"><ele>378.0</ele><time>2026-04-11T15:49:50Z</time></trkpt><trkpt lat="44.60083015925973" lon="7.9997002040831875"><ele>378.0</ele><time>2026-04-11T15:49:51Z</time></trkpt><trkpt lat="44.600752465908506" lon="7.99972111811003"><ele>378.0</ele><time>2026-04-11T15:49:52Z</time></trkpt><trkpt lat="44.6006744505449" lon="7.999747047983779"><ele>378.0</ele><time>2026-04-11T15:49:53Z</time></trkpt><trkpt lat="44.600591788858026" lon="7.999766981506235"><ele>378.0</ele><time>2026-04-11T15:49:54Z</time></trkpt><trkpt lat="44.600509892330436" lon="7.999793957313688"><ele>378.0</ele><time>2026-04-11T15:49:55Z</time></trkpt><trkpt lat="44.60043229389889" lon="7.999814821196128"><ele>378.0</ele><time>2026-04-11T15:49:56Z</time></trkpt><trkpt lat="44.60035253843528" lon="7.999854476463389"><ele>378.0</ele><time>2026-04-11T15:49:57Z</time></trkpt><trkpt lat="44.60027377286082" lon="7.999901846903674"><ele>378.0</ele><time>2026-04-11T15:49:58Z</time></trkpt><trkpt lat="44.600194842246644" lon="7.999974719434684"><ele>378.0</ele><time>2026-04-11T15:49:59Z</time></trkpt><trkpt lat="44.600127098591535" lon="8.000061107053217"><ele>378.0</ele><time>2026-04-11T15:50:00Z</time></trkpt><trkpt lat="44.60006556527389" lon="8.000157835367752"><ele>378.0</ele><time>2026-04-11T15:50:01Z</time></trkpt><trkpt lat="44.60000605701397" lon="8.0002661950674"><ele>378.0</ele><time>2026-04-11T15:50:02Z</time></trkpt><trkpt lat="44.59995377460203" lon="8.000377949439539"><ele>378.0</ele><time>2026-04-11T15:50:03Z</time></trkpt><trkpt lat="44.59990800772532" lon="8.000490703597077"><ele>378.0</ele><time>2026-04-11T15:50:04Z</time></trkpt><trkpt lat="44.59986361357056" lon="8.00059568846431"><ele>378.0</ele><time>2026-04-11T15:50:05Z</time></trkpt><trkpt lat="44.59982544207756" lon="8.000704014501252"><ele>378.0</ele><time>2026-04-11T15:50:06Z</time></trkpt><trkpt lat="44.59978444695545" lon="8.000805267053186"><ele>378.0</ele><time>2026-04-11T15:50:07Z</time></trkpt><trkpt lat="44.59975119884277" lon="8.00090036422285"><ele>378.0</ele><time>2026-04-11T15:50:08Z</time></trkpt><trkpt lat="44.59972646058364" lon="8.001004142229611"><ele>378.0</ele><time>2026-04-11T15:50:09Z</time></trkpt><trkpt lat="44.59972553228898" lon="8.001096216673652"><ele>378.0</ele><time>2026-04-11T15:50:10Z</time></trkpt><trkpt lat="44.59970804131698" lon="8.001187009382773"><ele>378.0</ele><time>2026-04-11T15:50:11Z</time></trkpt><trkpt lat="44.599717206579825" lon="8.001286297564176"><ele>378.0</ele><time>2026-04-11T15:50:12Z</time></trkpt><trkpt lat="44.59974680322301" lon="8.001371603113066"><ele>378.2</ele><time>2026-04-11T15:50:13Z</time></trkpt><trkpt lat="44.59977696583608" lon="8.001533952221617"><ele>378.4</ele><time>2026-04-11T15:50:15Z</time></trkpt><trkpt lat="44.59980949075828" lon="8.001669008474549"><ele>378.59999999999997</ele><time>2026-04-11T15:50:17Z</time></trkpt><trkpt lat="44.59982841407286" lon="8.001778517866"><ele>378.79999999999995</ele><time>2026-04-11T15:50:19Z</time></trkpt><trkpt lat="44.59986532354976" lon="8.00190135249071"><ele>379.0</ele><time>2026-04-11T15:50:21Z</time></trkpt><trkpt lat="44.59988474084315" lon="8.002003039009608"><ele>379.3333333333333</ele><time>2026-04-11T15:50:23Z</time></trkpt><trkpt lat="44.599896563049455" lon="8.002105266263342"><ele>379.66666666666663</ele><time>2026-04-11T15:50:25Z</time></trkpt><trkpt lat="44.59990820761587" lon="8.002238768582014"><ele>380.0</ele><time>2026-04-11T15:50:28Z</time></trkpt><trkpt lat="44.59992123215786" lon="8.00236409126341"><ele>380.3333333333333</ele><time>2026-04-11T15:50:31Z</time></trkpt><trkpt lat="44.599919226004005" lon="8.00248793275506"><ele>380.6666666666667</ele><time>2026-04-11T15:50:34Z</time></trkpt><trkpt lat="44.599920810993154" lon="8.002603391049036"><ele>381.0</ele><time>2026-04-11T15:50:37Z</time></trkpt><trkpt lat="44.5999328474822" lon="8.00270465559428"><ele>381.57142857142856</ele><time>2026-04-11T15:50:40Z</time></trkpt><trkpt lat="44.59994081090458" lon="8.00279778146012"><ele>382.14285714285717</ele><time>2026-04-11T15:50:42Z</time></trkpt><trkpt lat="44.59996070432194" lon="8.002882438330348"><ele>382.7142857142857</ele><time>2026-04-11T15:50:45Z</time></trkpt><trkpt lat="44.59998631537164" lon="8.00298520139351"><ele>383.2857142857143</ele><time>2026-04-11T15:50:48Z</time></trkpt><trkpt lat="44.600026766422374" lon="8.003080786495387"><ele>383.8571428571429</ele><time>2026-04-11T15:50:50.999Z</time></trkpt><trkpt lat="44.600073328110845" lon="8.00317598442549"><ele>384.42857142857144</ele><time>2026-04-11T15:50:53.999Z</time></trkpt><trkpt lat="44.60012624842963" lon="8.003259368760741"><ele>385.0</ele><time>2026-04-11T15:50:56.999Z</time></trkpt><trkpt lat="44.600174185832294" lon="8.003354223556016"><ele>384.33333333333337</ele><time>2026-04-11T15:50:59.999Z</time></trkpt><trkpt lat="44.60023039833078" lon="8.003451308915153"><ele>383.6666666666667</ele><time>2026-04-11T15:51:02.999Z</time></trkpt><trkpt lat="44.60028125750889" lon="8.003547923779628"><ele>383.0</ele><time>2026-04-11T15:51:05.999Z</time></trkpt><trkpt lat="44.60033316158542" lon="8.003641815540812"><ele>382.33333333333337</ele><time>2026-04-11T15:51:08.999Z</time></trkpt><trkpt lat="44.60038727142554" lon="8.003735737217179"><ele>381.6666666666667</ele><time>2026-04-11T15:51:11.999Z</time></trkpt><trkpt lat="44.60043267287783" lon="8.003834150577543"><ele>381.0</ele><time>2026-04-11T15:51:14.999Z</time></trkpt><trkpt lat="44.60048931789863" lon="8.003929100570392"><ele>381.0</ele><time>2026-04-11T15:51:17.999Z</time></trkpt><trkpt lat="44.6005406671513" lon="8.004027660543699"><ele>381.0</ele><time>2026-04-11T15:51:20.999Z</time></trkpt><trkpt lat="44.60058082886132" lon="8.00411299879674"><ele>381.0</ele><time>2026-04-11T15:51:23.999Z</time></trkpt><trkpt lat="44.60062268212795" lon="8.00420539859714"><ele>381.0</ele><time>2026-04-11T15:51:26.999Z</time></trkpt><trkpt lat="44.60066314833137" lon="8.004287874753402"><ele>381.0</ele><time>2026-04-11T15:51:29.999Z</time></trkpt><trkpt lat="44.600707166357495" lon="8.004371469301049"><ele>381.0</ele><time>2026-04-11T15:51:32.999Z</time></trkpt><trkpt lat="44.600750998218786" lon="8.0044463685901"><ele>382.2857142857143</ele><time>2026-04-11T15:51:35.999Z</time></trkpt><trkpt lat="44.60080024381237" lon="8.004528015858277"><ele>383.5714285714286</ele><time>2026-04-11T15:51:38.999Z</time></trkpt><trkpt lat="44.60085173977426" lon="8.004607518068562"><ele>384.8571428571429</ele><time>2026-04-11T15:51:41.999Z</time></trkpt><trkpt lat="44.600892841712664" lon="8.004709846785818"><ele>386.1428571428571</ele><time>2026-04-11T15:51:44.999Z</time></trkpt><trkpt lat="44.60091491468126" lon="8.004801005527582"><ele>387.42857142857144</ele><time>2026-04-11T15:51:48Z</time></trkpt><trkpt lat="44.6009319979852" lon="8.004893894737574"><ele>388.7142857142857</ele><time>2026-04-11T15:51:51Z</time></trkpt><trkpt lat="44.60090717796725" lon="8.004976774867009"><ele>390.0</ele><time>2026-04-11T15:51:54Z</time></trkpt><trkpt lat="44.60084001258801" lon="8.00500518286024"><ele>390.0</ele><time>2026-04-11T15:51:57Z</time></trkpt><trkpt lat="44.60076466931268" lon="8.005005353417195"><ele>390.0</ele><time>2026-04-11T15:52:00Z</time></trkpt><trkpt lat="44.60070464398627" lon="8.004942369227606"><ele>390.0</ele><time>2026-04-11T15:52:03Z</time></trkpt><trkpt lat="44.600673380870276" lon="8.004851577044093"><ele>390.0</ele><time>2026-04-11T15:52:06Z</time></trkpt><trkpt lat="44.60063377283137" lon="8.004763452186749"><ele>390.0</ele><time>2026-04-11T15:52:09Z</time></trkpt><trkpt lat="44.60058816829764" lon="8.004678068216279"><ele>390.0</ele><time>2026-04-11T15:52:12Z</time></trkpt><trkpt lat="44.60054779423942" lon="8.004598006884528"><ele>390.0</ele><time>2026-04-11T15:52:15Z</time></trkpt><trkpt lat="44.60051069068286" lon="8.004509393402666"><ele>390.0</ele><time>2026-04-11T15:52:18Z</time></trkpt><trkpt lat="44.60046522786518" lon="8.004425387395605"><ele>390.0</ele><time>2026-04-11T15:52:21Z</time></trkpt><trkpt lat="44.60042304284826" lon="8.004344763583049"><ele>390.0</ele><time>2026-04-11T15:52:24Z</time></trkpt><trkpt lat="44.60036300317164" lon="8.00429576749522"><ele>390.0</ele><time>2026-04-11T15:52:27Z</time></trkpt><trkpt lat="44.60029548455983" lon="8.004184512588711"><ele>390.0</ele><time>2026-04-11T15:52:31Z</time></trkpt><trkpt lat="44.600229915776175" lon="8.004124276339178"><ele>390.0</ele><time>2026-04-11T15:52:34Z</time></trkpt><trkpt lat="44.600159037919546" lon="8.004068142589523"><ele>390.6666666666667</ele><time>2026-04-11T15:52:38Z</time></trkpt><trkpt lat="44.600087722944366" lon="8.00404255215955"><ele>391.33333333333337</ele><time>2026-04-11T15:52:42Z</time></trkpt><trkpt lat="44.60000536244343" lon="8.004035699933988"><ele>392.0</ele><time>2026-04-11T15:52:46Z</time></trkpt><trkpt lat="44.599939863060825" lon="8.004087531956147"><ele>392.6666666666667</ele><time>2026-04-11T15:52:50Z</time></trkpt><trkpt lat="44.59988011940513" lon="8.004171035779441"><ele>393.33333333333337</ele><time>2026-04-11T15:52:52.999Z</time></trkpt><trkpt lat="44.59983199486512" lon="8.004250004195345"><ele>394.0</ele><time>2026-04-11T15:52:56.999Z</time></trkpt><trkpt lat="44.59983534882863" lon="8.004348375123238"><ele>395.7142857142857</ele><time>2026-04-11T15:52:59.999Z</time></trkpt><trkpt lat="44.5998253205453" lon="8.004441552866858"><ele>397.42857142857144</ele><time>2026-04-11T15:53:02.999Z</time></trkpt><trkpt lat="44.59980511254937" lon="8.004554907998525"><ele>399.1428571428571</ele><time>2026-04-11T15:53:06.999Z</time></trkpt><trkpt lat="44.59980137665144" lon="8.004646954690415"><ele>400.8571428571429</ele><time>2026-04-11T15:53:09.999Z</time></trkpt><trkpt lat="44.59978418686085" lon="8.004749230895568"><ele>402.57142857142856</ele><time>2026-04-11T15:53:12.999Z</time></trkpt><trkpt lat="44.599773999164725" lon="8.004859399352185"><ele>404.2857142857143</ele><time>2026-04-11T15:53:16.999Z</time></trkpt><trkpt lat="44.59975245853401" lon="8.00494763636621"><ele>406.0</ele><time>2026-04-11T15:53:19.999Z</time></trkpt><trkpt lat="44.59972556711782" lon="8.005057358419911"><ele>405.57142857142856</ele><time>2026-04-11T15:53:23.999Z</time></trkpt><trkpt lat="44.599699347912384" lon="8.005157812887006"><ele>405.1428571428571</ele><time>2026-04-11T15:53:27.999Z</time></trkpt><trkpt lat="44.59966702309221" lon="8.005234322383986"><ele>404.7142857142857</ele><time>2026-04-11T15:53:30.999Z</time></trkpt><trkpt lat="44.59962930060827" lon="8.00531145944713"><ele>404.2857142857143</ele><time>2026-04-11T15:53:33.999Z</time></trkpt><trkpt lat="44.59958204497093" lon="8.005372574919724"><ele>403.85714285714283</ele><time>2026-04-11T15:53:36.999Z</time></trkpt><trkpt lat="44.59951888740194" lon="8.005443778627608"><ele>403.42857142857144</ele><time>2026-04-11T15:53:40.999Z</time></trkpt><trkpt lat="44.59946789464779" lon="8.005502438852357"><ele>403.0</ele><time>2026-04-11T15:53:43.999Z</time></trkpt><trkpt lat="44.59941528528037" lon="8.005553529999485"><ele>403.00000000000006</ele><time>2026-04-11T15:53:46.999Z</time></trkpt><trkpt lat="44.5993567924649" lon="8.005610913410548"><ele>403.0</ele><time>2026-04-11T15:53:49.999Z</time></trkpt><trkpt lat="44.59928287436878" lon="8.00569463255945"><ele>403.0</ele><time>2026-04-11T15:53:55Z</time></trkpt><trkpt lat="44.59921681415054" lon="8.005766488583745"><ele>403.0</ele><time>2026-04-11T15:54:00Z</time></trkpt><trkpt lat="44.599149284472055" lon="8.005817365667621"><ele>403.00000000000006</ele><time>2026-04-11T15:54:03Z</time></trkpt><trkpt lat="44.599090373346" lon="8.005868585016994"><ele>403.0</ele><time>2026-04-11T15:54:06Z</time></trkpt><trkpt lat="44.59902714310759" lon="8.005923862393928"><ele>404.0</ele><time>2026-04-11T15:54:09Z</time></trkpt><trkpt lat="44.59897441290864" lon="8.005978182915467"><ele>405.0</ele><time>2026-04-11T15:54:12Z</time></trkpt><trkpt lat="44.598920703242655" lon="8.006031710952804"><ele>406.0</ele><time>2026-04-11T15:54:15Z</time></trkpt><trkpt lat="44.59886641587424" lon="8.006079031912613"><ele>407.0</ele><time>2026-04-11T15:54:18Z</time></trkpt><trkpt lat="44.59880840095515" lon="8.006131579808764"><ele>408.0</ele><time>2026-04-11T15:54:21Z</time></trkpt><trkpt lat="44.59874047995966" lon="8.006198584920599"><ele>409.0</ele><time>2026-04-11T15:54:25Z</time></trkpt><trkpt lat="44.598676601959745" lon="8.00625401205062"><ele>410.0</ele><time>2026-04-11T15:54:29Z</time></trkpt><trkpt lat="44.59861757204255" lon="8.006301297286448"><ele>409.99999999999994</ele><time>2026-04-11T15:54:33Z</time></trkpt><trkpt lat="44.598559956854" lon="8.006350755296564"><ele>410.0</ele><time>2026-04-11T15:54:36Z</time></trkpt><trkpt lat="44.59847948535806" lon="8.006394040318174"><ele>410.0</ele><time>2026-04-11T15:54:39Z</time></trkpt><trkpt lat="44.59841093519011" lon="8.006419657612227"><ele>410.0</ele><time>2026-04-11T15:54:42Z</time></trkpt><trkpt lat="44.59833667628983" lon="8.00645755513406"><ele>409.99999999999994</ele><time>2026-04-11T15:54:45Z</time></trkpt><trkpt lat="44.598275530849406" lon="8.006481303080552"><ele>410.0</ele><time>2026-04-11T15:54:47Z</time></trkpt><trkpt lat="44.59819675235923" lon="8.006527236501581"><ele>409.99999999999994</ele><time>2026-04-11T15:54:50Z</time></trkpt><trkpt lat="44.59812340966368" lon="8.006574442976287"><ele>410.0</ele><time>2026-04-11T15:54:53Z</time></trkpt><trkpt lat="44.598050020799874" lon="8.006607272643402"><ele>410.0</ele><time>2026-04-11T15:54:56Z</time></trkpt><trkpt lat="44.59796127473263" lon="8.006633716892752"><ele>410.0</ele><time>2026-04-11T15:54:59Z</time></trkpt><trkpt lat="44.5978802050074" lon="8.00666063085765"><ele>409.99999999999994</ele><time>2026-04-11T15:55:01.999Z</time></trkpt><trkpt lat="44.59781745544484" lon="8.006669821040436"><ele>410.0</ele><time>2026-04-11T15:55:04.999Z</time></trkpt><trkpt lat="44.59773188689274" lon="8.006687451514196"><ele>412.3333333333333</ele><time>2026-04-11T15:55:07.999Z</time></trkpt><trkpt lat="44.59766567793875" lon="8.006695191456878"><ele>414.66666666666663</ele><time>2026-04-11T15:55:09.999Z</time></trkpt><trkpt lat="44.59760139646641" lon="8.006718641485136"><ele>417.0</ele><time>2026-04-11T15:55:11.999Z</time></trkpt><trkpt lat="44.59751400649004" lon="8.006732641209373"><ele>419.33333333333337</ele><time>2026-04-11T15:55:14.999Z</time></trkpt><trkpt lat="44.597440098729166" lon="8.006745588183922"><ele>421.6666666666667</ele><time>2026-04-11T15:55:17.999Z</time></trkpt><trkpt lat="44.597350612135465" lon="8.006750631082037"><ele>424.0</ele><time>2026-04-11T15:55:20.999Z</time></trkpt><trkpt lat="44.59728572269435" lon="8.006762492885617"><ele>424.00000000000006</ele><time>2026-04-11T15:55:22.999Z</time></trkpt><trkpt lat="44.59720250302648" lon="8.006775697867225"><ele>424.0</ele><time>2026-04-11T15:55:24.999Z</time></trkpt><trkpt lat="44.59712657524566" lon="8.00678300790111"><ele>424.0</ele><time>2026-04-11T15:55:26.999Z</time></trkpt><trkpt lat="44.59705981380482" lon="8.006775668138454"><ele>424.0</ele><time>2026-04-11T15:55:28.999Z</time></trkpt><trkpt lat="44.59698861285483" lon="8.006774857227665"><ele>424.00000000000006</ele><time>2026-04-11T15:55:30.999Z</time></trkpt><trkpt lat="44.596910999244095" lon="8.00676324645636"><ele>424.0</ele><time>2026-04-11T15:55:32.999Z</time></trkpt><trkpt lat="44.596832576408616" lon="8.006734123794395"><ele>423.83333333333337</ele><time>2026-04-11T15:55:34.999Z</time></trkpt><trkpt lat="44.596762973497185" lon="8.00669932064639"><ele>423.6666666666667</ele><time>2026-04-11T15:55:36.999Z</time></trkpt><trkpt lat="44.59667872961505" lon="8.006630841930983"><ele>423.5</ele><time>2026-04-11T15:55:39.999Z</time></trkpt><trkpt lat="44.59662955727402" lon="8.006573630399881"><ele>423.33333333333337</ele><time>2026-04-11T15:55:41.999Z</time></trkpt><trkpt lat="44.596580971555895" lon="8.006514568807612"><ele>423.1666666666667</ele><time>2026-04-11T15:55:43.999Z</time></trkpt><trkpt lat="44.59651769629054" lon="8.006427256106516"><ele>423.0</ele><time>2026-04-11T15:55:46.999Z</time></trkpt><trkpt lat="44.596464231776444" lon="8.006356298913985"><ele>421.6666666666667</ele><time>2026-04-11T15:55:49.999Z</time></trkpt><trkpt lat="44.59640956558874" lon="8.00626557192316"><ele>420.33333333333337</ele><time>2026-04-11T15:55:52.999Z</time></trkpt><trkpt lat="44.59635526310128" lon="8.006188343813609"><ele>419.0</ele><time>2026-04-11T15:55:55.999Z</time></trkpt><trkpt lat="44.59630157736496" lon="8.006110287621906"><ele>417.6666666666667</ele><time>2026-04-11T15:55:58.999Z</time></trkpt><trkpt lat="44.59625086183795" lon="8.0060206789294"><ele>416.33333333333337</ele><time>2026-04-11T15:56:02Z</time></trkpt><trkpt lat="44.59619964814376" lon="8.00595718958074"><ele>415.0</ele><time>2026-04-11T15:56:05Z</time></trkpt><trkpt lat="44.59613936850263" lon="8.005881915336138"><ele>417.6666666666667</ele><time>2026-04-11T15:56:08Z</time></trkpt><trkpt lat="44.59609684965014" lon="8.005785422134862"><ele>420.33333333333337</ele><time>2026-04-11T15:56:11Z</time></trkpt><trkpt lat="44.59605563879925" lon="8.00569013358391"><ele>423.0</ele><time>2026-04-11T15:56:14Z</time></trkpt><trkpt lat="44.59602259409311" lon="8.005585827945822"><ele>425.66666666666663</ele><time>2026-04-11T15:56:17Z</time></trkpt><trkpt lat="44.59600130736737" lon="8.005474665447384"><ele>428.3333333333333</ele><time>2026-04-11T15:56:20Z</time></trkpt><trkpt lat="44.59598916842794" lon="8.005373982100883"><ele>431.0</ele><time>2026-04-11T15:56:23Z</time></trkpt><trkpt lat="44.5959752857302" lon="8.005251908593317"><ele>430.99999999999994</ele><time>2026-04-11T15:56:26Z</time></trkpt><trkpt lat="44.59595140810351" lon="8.005141588261946"><ele>431.0</ele><time>2026-04-11T15:56:29Z</time></trkpt><trkpt lat="44.595900247750585" lon="8.00503396171125"><ele>431.0</ele><time>2026-04-11T15:56:32Z</time></trkpt><trkpt lat="44.59585542900105" lon="8.004968377637406"><ele>431.0</ele><time>2026-04-11T15:56:34Z</time></trkpt><trkpt lat="44.59578214017417" lon="8.004901905207431"><ele>430.99999999999994</ele><time>2026-04-11T15:56:37Z</time></trkpt><trkpt lat="44.59569199838276" lon="8.004877466264272"><ele>431.0</ele><time>2026-04-11T15:56:40Z</time></trkpt><trkpt lat="44.595602894077544" lon="8.004849742398623"><ele>429.8571428571429</ele><time>2026-04-11T15:56:43Z</time></trkpt><trkpt lat="44.595517807949314" lon="8.00482871731303"><ele>428.71428571428567</ele><time>2026-04-11T15:56:46Z</time></trkpt><trkpt lat="44.59545314432009" lon="8.004804391608019"><ele>427.57142857142856</ele><time>2026-04-11T15:56:48Z</time></trkpt><trkpt lat="44.59539117530881" lon="8.004787606964365"><ele>426.42857142857144</ele><time>2026-04-11T15:56:50Z</time></trkpt><trkpt lat="44.595304183971244" lon="8.004738633040155"><ele>425.28571428571433</ele><time>2026-04-11T15:56:53Z</time></trkpt><trkpt lat="44.595245752334776" lon="8.004694843528151"><ele>424.1428571428571</ele><time>2026-04-11T15:56:55Z</time></trkpt><trkpt lat="44.5951849979355" lon="8.004649304534302"><ele>423.0</ele><time>2026-04-11T15:56:57Z</time></trkpt><trkpt lat="44.595127611898384" lon="8.004603595974942"><ele>423.0</ele><time>2026-04-11T15:56:59Z</time></trkpt><trkpt lat="44.595072905419954" lon="8.004556898674046"><ele>423.0</ele><time>2026-04-11T15:57:01Z</time></trkpt><trkpt lat="44.594996723644115" lon="8.004496968002613"><ele>423.0</ele><time>2026-04-11T15:57:04Z</time></trkpt><trkpt lat="44.59492926912932" lon="8.004415831228977"><ele>423.0</ele><time>2026-04-11T15:57:07Z</time></trkpt><trkpt lat="44.59485445943671" lon="8.004340180934479"><ele>423.0</ele><time>2026-04-11T15:57:09.999Z</time></trkpt><trkpt lat="44.594802996298654" lon="8.004279603355513"><ele>423.0</ele><time>2026-04-11T15:57:11.999Z</time></trkpt><trkpt lat="44.59473438494171" lon="8.004210205848215"><ele>423.5</ele><time>2026-04-11T15:57:14.999Z</time></trkpt><trkpt lat="44.59467043358016" lon="8.004141116521827"><ele>424.0</ele><time>2026-04-11T15:57:17.999Z</time></trkpt><trkpt lat="44.594630318553094" lon="8.004070774546605"><ele>424.5</ele><time>2026-04-11T15:57:20.999Z</time></trkpt><trkpt lat="44.594580952484606" lon="8.0040135409621"><ele>425.0</ele><time>2026-04-11T15:57:22.999Z</time></trkpt><trkpt lat="44.594538697600086" lon="8.003944332259467"><ele>425.5</ele><time>2026-04-11T15:57:24.999Z</time></trkpt><trkpt lat="44.59448327739102" lon="8.003849930831393"><ele>426.0</ele><time>2026-04-11T15:57:27.999Z</time></trkpt><trkpt lat="44.5944276471729" lon="8.003747672551784"><ele>425.99999999999994</ele><time>2026-04-11T15:57:30.999Z</time></trkpt><trkpt lat="44.594387428420575" lon="8.003668019937685"><ele>426.0</ele><time>2026-04-11T15:57:32.999Z</time></trkpt><trkpt lat="44.594332313711064" lon="8.003615902413857"><ele>426.0</ele><time>2026-04-11T15:57:35.999Z</time></trkpt><trkpt lat="44.59429971406494" lon="8.003537210261447"><ele>426.0</ele><time>2026-04-11T15:57:37.999Z</time></trkpt><trkpt lat="44.59426235577483" lon="8.003463553052272"><ele>426.0</ele><time>2026-04-11T15:57:39.999Z</time></trkpt><trkpt lat="44.5942057563675" lon="8.003389103079197"><ele>425.99999999999994</ele><time>2026-04-11T15:57:42.999Z</time></trkpt><trkpt lat="44.594137502792975" lon="8.003298659049284"><ele>426.0</ele><time>2026-04-11T15:57:45.999Z</time></trkpt><trkpt lat="44.59407784641542" lon="8.00324618036223"><ele>425.3333333333333</ele><time>2026-04-11T15:57:47.999Z</time></trkpt><trkpt lat="44.59400526343605" lon="8.003187981438169"><ele>424.66666666666663</ele><time>2026-04-11T15:57:50.999Z</time></trkpt><trkpt lat="44.59393476065817" lon="8.003125943830305"><ele>424.0</ele><time>2026-04-11T15:57:53.999Z</time></trkpt><trkpt lat="44.59387526786531" lon="8.003081432887095"><ele>423.3333333333333</ele><time>2026-04-11T15:57:55.999Z</time></trkpt><trkpt lat="44.59381850199369" lon="8.00303617934106"><ele>422.66666666666663</ele><time>2026-04-11T15:57:57.999Z</time></trkpt><trkpt lat="44.59374526394824" lon="8.002970127149922"><ele>422.0</ele><time>2026-04-11T15:58:00.999Z</time></trkpt><trkpt lat="44.59368284543359" lon="8.002928768042775"><ele>423.2857142857143</ele><time>2026-04-11T15:58:02.999Z</time></trkpt><trkpt lat="44.59362320919233" lon="8.00288041640535"><ele>424.57142857142856</ele><time>2026-04-11T15:58:04.999Z</time></trkpt><trkpt lat="44.59355576437573" lon="8.002829422156587"><ele>425.8571428571429</ele><time>2026-04-11T15:58:07Z</time></trkpt><trkpt lat="44.59349636138214" lon="8.00279216673594"><ele>427.1428571428571</ele><time>2026-04-11T15:58:09Z</time></trkpt><trkpt lat="44.59344052982489" lon="8.002749126280767"><ele>428.4285714285714</ele><time>2026-04-11T15:58:11Z</time></trkpt><trkpt lat="44.593370640879805" lon="8.002716941389966"><ele>429.7142857142857</ele><time>2026-04-11T15:58:13Z</time></trkpt><trkpt lat="44.5932879786784" lon="8.002678190447197"><ele>431.0</ele><time>2026-04-11T15:58:16Z</time></trkpt><trkpt lat="44.59321800529338" lon="8.0026692960118"><ele>431.0</ele><time>2026-04-11T15:58:18Z</time></trkpt><trkpt lat="44.59314397898264" lon="8.00267485257613"><ele>431.0</ele><time>2026-04-11T15:58:20Z</time></trkpt><trkpt lat="44.59307410582333" lon="8.00269421648531"><ele>431.0</ele><time>2026-04-11T15:58:22Z</time></trkpt><trkpt lat="44.59299471733695" lon="8.00271989546747"><ele>431.0</ele><time>2026-04-11T15:58:24Z</time></trkpt><trkpt lat="44.59293098055373" lon="8.002749368173818"><ele>431.0</ele><time>2026-04-11T15:58:26Z</time></trkpt><trkpt lat="44.59285522643162" lon="8.002776223470157"><ele>431.0</ele><time>2026-04-11T15:58:28Z</time></trkpt><trkpt lat="44.59279174652167" lon="8.002809880762783"><ele>431.0</ele><time>2026-04-11T15:58:30Z</time></trkpt><trkpt lat="44.59272575077095" lon="8.002845374240417"><ele>430.66666666666663</ele><time>2026-04-11T15:58:32Z</time></trkpt><trkpt lat="44.59265758691344" lon="8.0028740208273"><ele>430.3333333333333</ele><time>2026-04-11T15:58:34Z</time></trkpt><trkpt lat="44.59256109660617" lon="8.002918746243271"><ele>430.0</ele><time>2026-04-11T15:58:37Z</time></trkpt><trkpt lat="44.59248906157167" lon="8.002946167631157"><ele>429.66666666666663</ele><time>2026-04-11T15:58:39Z</time></trkpt><trkpt lat="44.592422146116405" lon="8.00297972799324"><ele>429.3333333333333</ele><time>2026-04-11T15:58:41Z</time></trkpt><trkpt lat="44.5923494253094" lon="8.003009431758535"><ele>429.0</ele><time>2026-04-11T15:58:43Z</time></trkpt><trkpt lat="44.59226346193196" lon="8.003038885887658"><ele>429.0</ele><time>2026-04-11T15:58:46Z</time></trkpt><trkpt lat="44.592192228619524" lon="8.003049501631187"><ele>429.0</ele><time>2026-04-11T15:58:48Z</time></trkpt><trkpt lat="44.59212599722784" lon="8.003060453056968"><ele>429.0</ele><time>2026-04-11T15:58:50Z</time></trkpt><trkpt lat="44.59205376999896" lon="8.003066516943107"><ele>429.0</ele><time>2026-04-11T15:58:52Z</time></trkpt><trkpt lat="44.5919847081187" lon="8.003068811647793"><ele>429.0</ele><time>2026-04-11T15:58:54Z</time></trkpt><trkpt lat="44.591913125923256" lon="8.003074080843227"><ele>429.0</ele><time>2026-04-11T15:58:56Z</time></trkpt><trkpt lat="44.5918397292212" lon="8.003079004414003"><ele>429.0</ele><time>2026-04-11T15:58:58Z</time></trkpt><trkpt lat="44.59177525701411" lon="8.003068837379205"><ele>429.2857142857143</ele><time>2026-04-11T15:59:00Z</time></trkpt><trkpt lat="44.59170734771549" lon="8.003069870724763"><ele>429.57142857142856</ele><time>2026-04-11T15:59:02Z</time></trkpt><trkpt lat="44.59164226846834" lon="8.003063392454752"><ele>429.8571428571429</ele><time>2026-04-11T15:59:04Z</time></trkpt><trkpt lat="44.5915790036291" lon="8.003059488591186"><ele>430.1428571428571</ele><time>2026-04-11T15:59:06Z</time></trkpt><trkpt lat="44.59151199284002" lon="8.003045997927934"><ele>430.4285714285714</ele><time>2026-04-11T15:59:08Z</time></trkpt><trkpt lat="44.591421273904565" lon="8.003044198498811"><ele>430.7142857142857</ele><time>2026-04-11T15:59:11Z</time></trkpt><trkpt lat="44.59135642940451" lon="8.00303426247865"><ele>431.0</ele><time>2026-04-11T15:59:13Z</time></trkpt><trkpt lat="44.591271266052246" lon="8.003034056435895"><ele>430.99999999999994</ele><time>2026-04-11T15:59:16Z</time></trkpt><trkpt lat="44.59118459514272" lon="8.003010836554026"><ele>431.0</ele><time>2026-04-11T15:59:19Z</time></trkpt><trkpt lat="44.591106646457945" lon="8.002999227850882"><ele>431.0</ele><time>2026-04-11T15:59:21.999Z</time></trkpt><trkpt lat="44.59102495439361" lon="8.002993511610054"><ele>431.0</ele><time>2026-04-11T15:59:24.999Z</time></trkpt><trkpt lat="44.59094844918345" lon="8.002995308720992"><ele>430.99999999999994</ele><time>2026-04-11T15:59:26.999Z</time></trkpt><trkpt lat="44.59086845197987" lon="8.002977400319187"><ele>431.0</ele><time>2026-04-11T15:59:28.999Z</time></trkpt><trkpt lat="44.590766847912064" lon="8.002962642637206"><ele>431.49999999999994</ele><time>2026-04-11T15:59:30.999Z</time></trkpt><trkpt lat="44.59065489187217" lon="8.002954997839163"><ele>432.0</ele><time>2026-04-11T15:59:32.999Z</time></trkpt><trkpt lat="44.59059228902371" lon="8.0029450153281"><ele>432.5</ele><time>2026-04-11T15:59:33.999Z</time></trkpt><trkpt lat="44.5904603153373" lon="8.0029501146156"><ele>433.0</ele><time>2026-04-11T15:59:35.999Z</time></trkpt><trkpt lat="44.59039394041402" lon="8.002938522978855"><ele>433.49999999999994</ele><time>2026-04-11T15:59:36.999Z</time></trkpt><trkpt lat="44.59032363056183" lon="8.00292362974043"><ele>434.0</ele><time>2026-04-11T15:59:37.999Z</time></trkpt><trkpt lat="44.59025088363117" lon="8.002914212925138"><ele>432.99999999999994</ele><time>2026-04-11T15:59:38.999Z</time></trkpt><trkpt lat="44.59017875541893" lon="8.002911082326529"><ele>432.0</ele><time>2026-04-11T15:59:39.999Z</time></trkpt><trkpt lat="44.590106511922464" lon="8.002906453793733"><ele>431.0</ele><time>2026-04-11T15:59:40.999Z</time></trkpt><trkpt lat="44.590027485522945" lon="8.002903877757452"><ele>430.0</ele><time>2026-04-11T15:59:41.999Z</time></trkpt><trkpt lat="44.58994779425886" lon="8.002916194158933"><ele>428.99999999999994</ele><time>2026-04-11T15:59:42.999Z</time></trkpt><trkpt lat="44.589862536362524" lon="8.002936298909612"><ele>428.0</ele><time>2026-04-11T15:59:43.999Z</time></trkpt><trkpt lat="44.58978153135617" lon="8.002963599722447"><ele>428.0</ele><time>2026-04-11T15:59:44.999Z</time></trkpt><trkpt lat="44.589702160093715" lon="8.003008550145482"><ele>427.99999999999994</ele><time>2026-04-11T15:59:45.999Z</time></trkpt><trkpt lat="44.5896241567162" lon="8.00307030685211"><ele>427.99999999999994</ele><time>2026-04-11T15:59:46.999Z</time></trkpt><trkpt lat="44.58954803302266" lon="8.003146845769443"><ele>428.0</ele><time>2026-04-11T15:59:47.999Z</time></trkpt><trkpt lat="44.58948246427667" lon="8.003238874204042"><ele>428.0</ele><time>2026-04-11T15:59:48.999Z</time></trkpt><trkpt lat="44.58942194644619" lon="8.003343796304573"><ele>428.4</ele><time>2026-04-11T15:59:49.999Z</time></trkpt><trkpt lat="44.58936063442245" lon="8.003453485394989"><ele>428.79999999999995</ele><time>2026-04-11T15:59:50.999Z</time></trkpt><trkpt lat="44.589295227552036" lon="8.00356264137293"><ele>429.2</ele><time>2026-04-11T15:59:51.999Z</time></trkpt><trkpt lat="44.58922547695052" lon="8.00366840892753"><ele>429.6</ele><time>2026-04-11T15:59:52.999Z</time></trkpt><trkpt lat="44.589152887367874" lon="8.0037729744655"><ele>430.0</ele><time>2026-04-11T15:59:53.999Z</time></trkpt><trkpt lat="44.58908518599317" lon="8.003886427689546"><ele>430.0</ele><time>2026-04-11T15:59:54.999Z</time></trkpt><trkpt lat="44.58901800044199" lon="8.004002196210998"><ele>430.0</ele><time>2026-04-11T15:59:55.999Z</time></trkpt><trkpt lat="44.588946192307716" lon="8.004122162833877"><ele>430.0</ele><time>2026-04-11T15:59:56.999Z</time></trkpt><trkpt lat="44.58887092682863" lon="8.004236050124591"><ele>430.0</ele><time>2026-04-11T15:59:57.999Z</time></trkpt><trkpt lat="44.58879704811244" lon="8.004354131643105"><ele>430.0</ele><time>2026-04-11T15:59:58.999Z</time></trkpt><trkpt lat="44.58872847919743" lon="8.004467731105699"><ele>428.0</ele><time>2026-04-11T15:59:59.999Z</time></trkpt><trkpt lat="44.58865977672725" lon="8.004580513021372"><ele>426.0</ele><time>2026-04-11T16:00:00.999Z</time></trkpt><trkpt lat="44.588595669997716" lon="8.004700451778255"><ele>424.0</ele><time>2026-04-11T16:00:01.999Z</time></trkpt><trkpt lat="44.58853508784413" lon="8.004814540250937"><ele>422.0</ele><time>2026-04-11T16:00:02.999Z</time></trkpt><trkpt lat="44.58848323195898" lon="8.004938207998485"><ele>420.0</ele><time>2026-04-11T16:00:03.999Z</time></trkpt><trkpt lat="44.58843569200855" lon="8.005067515947657"><ele>420.0</ele><time>2026-04-11T16:00:04.999Z</time></trkpt><trkpt lat="44.588400529383286" lon="8.005197952258616"><ele>420.0</ele><time>2026-04-11T16:00:05.999Z</time></trkpt><trkpt lat="44.58837822973034" lon="8.005328252107732"><ele>420.0</ele><time>2026-04-11T16:00:06.999Z</time></trkpt><trkpt lat="44.58836204259518" lon="8.005456456348053"><ele>420.0</ele><time>2026-04-11T16:00:07.999Z</time></trkpt><trkpt lat="44.5883593217714" lon="8.00558402241679"><ele>420.0</ele><time>2026-04-11T16:00:08.999Z</time></trkpt><trkpt lat="44.58836334442612" lon="8.005706495651344"><ele>420.0</ele><time>2026-04-11T16:00:09.999Z</time></trkpt><trkpt lat="44.5883734264942" lon="8.005821966482985"><ele>420.0</ele><time>2026-04-11T16:00:10.999Z</time></trkpt><trkpt lat="44.58838438375674" lon="8.005931282821201"><ele>420.0</ele><time>2026-04-11T16:00:12Z</time></trkpt><trkpt lat="44.58839921584488" lon="8.006029700898035"><ele>420.0</ele><time>2026-04-11T16:00:13Z</time></trkpt><trkpt lat="44.58842270877659" lon="8.006115756692962"><ele>420.0</ele><time>2026-04-11T16:00:14Z</time></trkpt><trkpt lat="44.5884634157474" lon="8.006260940782264"><ele>420.0</ele><time>2026-04-11T16:00:16Z</time></trkpt><trkpt lat="44.58849463991184" lon="8.006374059792494"><ele>421.1666666666667</ele><time>2026-04-11T16:00:18Z</time></trkpt><trkpt lat="44.58852579045474" lon="8.00648732873729"><ele>422.33333333333337</ele><time>2026-04-11T16:00:21Z</time></trkpt><trkpt lat="44.58855194164804" lon="8.006592155066635"><ele>423.5</ele><time>2026-04-11T16:00:24Z</time></trkpt><trkpt lat="44.58856179371684" lon="8.006689731803716"><ele>424.6666666666667</ele><time>2026-04-11T16:00:27Z</time></trkpt><trkpt lat="44.588533139678724" lon="8.006782042548792"><ele>425.83333333333337</ele><time>2026-04-11T16:00:30Z</time></trkpt><trkpt lat="44.588477493448515" lon="8.006844617653483"><ele>427.0</ele><time>2026-04-11T16:00:33Z</time></trkpt><trkpt lat="44.58841314934904" lon="8.006899967270755"><ele>428.14285714285717</ele><time>2026-04-11T16:00:37Z</time></trkpt><trkpt lat="44.588349062957434" lon="8.006904861572467"><ele>429.2857142857143</ele><time>2026-04-11T16:00:40Z</time></trkpt><trkpt lat="44.58828131628972" lon="8.006897571641737"><ele>430.42857142857144</ele><time>2026-04-11T16:00:43Z</time></trkpt><trkpt lat="44.58821108180846" lon="8.00689145819333"><ele>431.57142857142856</ele><time>2026-04-11T16:00:46Z</time></trkpt><trkpt lat="44.58814465269165" lon="8.006889704184111"><ele>432.7142857142857</ele><time>2026-04-11T16:00:49Z</time></trkpt><trkpt lat="44.58805871010922" lon="8.00687532840768"><ele>433.8571428571429</ele><time>2026-04-11T16:00:53Z</time></trkpt><trkpt lat="44.58799598456595" lon="8.006858111116285"><ele>435.0</ele><time>2026-04-11T16:00:56Z</time></trkpt><trkpt lat="44.58791348762451" lon="8.0068411412907"><ele>435.00000000000006</ele><time>2026-04-11T16:01:00Z</time></trkpt><trkpt lat="44.5878335796908" lon="8.006833305017526"><ele>435.0</ele><time>2026-04-11T16:01:04Z</time></trkpt><trkpt lat="44.587769816101606" lon="8.006831822819365"><ele>435.0</ele><time>2026-04-11T16:01:07Z</time></trkpt><trkpt lat="44.58770522667012" lon="8.006814594268652"><ele>435.0</ele><time>2026-04-11T16:01:10Z</time></trkpt><trkpt lat="44.58762204862411" lon="8.006804423975787"><ele>435.0</ele><time>2026-04-11T16:01:14Z</time></trkpt><trkpt lat="44.58755537551223" lon="8.006798777594677"><ele>435.00000000000006</ele><time>2026-04-11T16:01:17Z</time></trkpt><trkpt lat="44.587491101443995" lon="8.006802194123651"><ele>435.0</ele><time>2026-04-11T16:01:20Z</time></trkpt><trkpt lat="44.58742451289983" lon="8.006813914880361"><ele>435.00000000000006</ele><time>2026-04-11T16:01:22.999Z</time></trkpt><trkpt lat="44.58735443121882" lon="8.00683002319669"><ele>435.0</ele><time>2026-04-11T16:01:26.999Z</time></trkpt><trkpt lat="44.587292001166915" lon="8.006856116014376"><ele>435.0</ele><time>2026-04-11T16:01:30.999Z</time></trkpt><trkpt lat="44.587224311917254" lon="8.006903321931715"><ele>435.0</ele><time>2026-04-11T16:01:34.999Z</time></trkpt><trkpt lat="44.58716172740225" lon="8.006961659573516"><ele>435.0</ele><time>2026-04-11T16:01:37.999Z</time></trkpt><trkpt lat="44.587105689928535" lon="8.007024158083285"><ele>435.00000000000006</ele><time>2026-04-11T16:01:40.999Z</time></trkpt><trkpt lat="44.58705343897407" lon="8.00708980671864"><ele>435.0</ele><time>2026-04-11T16:01:43.999Z</time></trkpt><trkpt lat="44.58701157535856" lon="8.007163319088352"><ele>435.7142857142857</ele><time>2026-04-11T16:01:46.999Z</time></trkpt><trkpt lat="44.58696846822723" lon="8.007236927527432"><ele>436.42857142857144</ele><time>2026-04-11T16:01:49.999Z</time></trkpt><trkpt lat="44.58693033209281" lon="8.007313806349375"><ele>437.1428571428571</ele><time>2026-04-11T16:01:52.999Z</time></trkpt><trkpt lat="44.58690210403912" lon="8.0074187883698"><ele>437.8571428571429</ele><time>2026-04-11T16:01:56.999Z</time></trkpt><trkpt lat="44.58687759539146" lon="8.007501720867753"><ele>438.57142857142856</ele><time>2026-04-11T16:01:59.999Z</time></trkpt><trkpt lat="44.58685644149826" lon="8.007587471543088"><ele>439.2857142857143</ele><time>2026-04-11T16:02:02.999Z</time></trkpt><trkpt lat="44.58684786408089" lon="8.007678597112358"><ele>440.0</ele><time>2026-04-11T16:02:05.999Z</time></trkpt><trkpt lat="44.58684738862935" lon="8.007768493722397"><ele>439.99999999999994</ele><time>2026-04-11T16:02:08.999Z</time></trkpt><trkpt lat="44.586855641375394" lon="8.007880270987844"><ele>440.0</ele><time>2026-04-11T16:02:12.999Z</time></trkpt><trkpt lat="44.58687538836677" lon="8.007966678594077"><ele>440.0</ele><time>2026-04-11T16:02:15.999Z</time></trkpt><trkpt lat="44.586888677480886" lon="8.008061993760068"><ele>440.0</ele><time>2026-04-11T16:02:19Z</time></trkpt><trkpt lat="44.58689637327707" lon="8.008151292650622"><ele>440.0</ele><time>2026-04-11T16:02:22Z</time></trkpt><trkpt lat="44.58692283079041" lon="8.008237848641778"><ele>439.99999999999994</ele><time>2026-04-11T16:02:25Z</time></trkpt><trkpt lat="44.58694003177631" lon="8.008324504968728"><ele>440.0</ele><time>2026-04-11T16:02:28Z</time></trkpt><trkpt lat="44.586942873974756" lon="8.008413186035535"><ele>441.1428571428571</ele><time>2026-04-11T16:02:31Z</time></trkpt><trkpt lat="44.58693799481847" lon="8.008502518401276"><ele>442.2857142857143</ele><time>2026-04-11T16:02:34Z</time></trkpt><trkpt lat="44.58692380537783" lon="8.00860924039232"><ele>443.42857142857144</ele><time>2026-04-11T16:02:38Z</time></trkpt><trkpt lat="44.586895249291636" lon="8.008689779068634"><ele>444.57142857142856</ele><time>2026-04-11T16:02:41Z</time></trkpt><trkpt lat="44.586844438725755" lon="8.00878107286981"><ele>445.7142857142857</ele><time>2026-04-11T16:02:45Z</time></trkpt><trkpt lat="44.58679432961721" lon="8.008836894518039"><ele>446.85714285714283</ele><time>2026-04-11T16:02:48Z</time></trkpt><trkpt lat="44.586741868031794" lon="8.008896050323193"><ele>448.0</ele><time>2026-04-11T16:02:51Z</time></trkpt><trkpt lat="44.586692212237395" lon="8.008952706309183"><ele>448.0</ele><time>2026-04-11T16:02:54Z</time></trkpt><trkpt lat="44.586636830061714" lon="8.0089986585945"><ele>448.0</ele><time>2026-04-11T16:02:57Z</time></trkpt><trkpt lat="44.58658549635123" lon="8.009051252424912"><ele>448.0</ele><time>2026-04-11T16:03:00Z</time></trkpt><trkpt lat="44.58653781079889" lon="8.009110922842941"><ele>448.0</ele><time>2026-04-11T16:03:03Z</time></trkpt><trkpt lat="44.58649335814905" lon="8.009188747747682"><ele>448.0</ele><time>2026-04-11T16:03:07Z</time></trkpt><trkpt lat="44.586450118039295" lon="8.009273310540657"><ele>448.0</ele><time>2026-04-11T16:03:10Z</time></trkpt><trkpt lat="44.58640519416386" lon="8.009344618279323"><ele>448.0</ele><time>2026-04-11T16:03:13Z</time></trkpt><trkpt lat="44.586372425648165" lon="8.009426028558222"><ele>447.83333333333337</ele><time>2026-04-11T16:03:15.999Z</time></trkpt><trkpt lat="44.586333769490125" lon="8.00952232176419"><ele>447.6666666666667</ele><time>2026-04-11T16:03:19.999Z</time></trkpt><trkpt lat="44.586293129962584" lon="8.009603473268793"><ele>447.5</ele><time>2026-04-11T16:03:22.999Z</time></trkpt><trkpt lat="44.58626111083638" lon="8.0096845334755"><ele>447.33333333333337</ele><time>2026-04-11T16:03:25.999Z</time></trkpt><trkpt lat="44.58621528548955" lon="8.009779869129638"><ele>447.1666666666667</ele><time>2026-04-11T16:03:29.999Z</time></trkpt><trkpt lat="44.58617111572122" lon="8.009877394393461"><ele>447.0</ele><time>2026-04-11T16:03:33.999Z</time></trkpt><trkpt lat="44.586120072175866" lon="8.009965949507798"><ele>450.3333333333333</ele><time>2026-04-11T16:03:37.999Z</time></trkpt><trkpt lat="44.58606436091382" lon="8.010051491289268"><ele>453.66666666666663</ele><time>2026-04-11T16:03:41.999Z</time></trkpt><trkpt lat="44.58599602147389" lon="8.010121346502546"><ele>457.0</ele><time>2026-04-11T16:03:45.999Z</time></trkpt><trkpt lat="44.58593928088755" lon="8.010181898543518"><ele>460.3333333333333</ele><time>2026-04-11T16:03:49.999Z</time></trkpt><trkpt lat="44.58586948542732" lon="8.010233025747155"><ele>463.66666666666663</ele><time>2026-04-11T16:03:53.999Z</time></trkpt><trkpt lat="44.58580503301928" lon="8.010242939580088"><ele>467.0</ele><time>2026-04-11T16:03:56.999Z</time></trkpt><trkpt lat="44.5857200077077" lon="8.010234562282617"><ele>466.99999999999994</ele><time>2026-04-11T16:04:00.999Z</time></trkpt><trkpt lat="44.58563958399246" lon="8.010226659018914"><ele>467.0</ele><time>2026-04-11T16:04:04.999Z</time></trkpt><trkpt lat="44.585557746263845" lon="8.010222147034366"><ele>467.0</ele><time>2026-04-11T16:04:08.999Z</time></trkpt><trkpt lat="44.585482552635774" lon="8.010228604143455"><ele>467.0</ele><time>2026-04-11T16:04:12.999Z</time></trkpt><trkpt lat="44.58541988940923" lon="8.010246175664147"><ele>466.99999999999994</ele><time>2026-04-11T16:04:15.999Z</time></trkpt><trkpt lat="44.58535626323921" lon="8.01029329138827"><ele>467.0</ele><time>2026-04-11T16:04:20.999Z</time></trkpt><trkpt lat="44.58530392326799" lon="8.01037283848747"><ele>466.99999999999994</ele><time>2026-04-11T16:04:26Z</time></trkpt><trkpt lat="44.585274805502365" lon="8.010457972027826"><ele>467.0</ele><time>2026-04-11T16:04:30Z</time></trkpt><trkpt lat="44.58528704881186" lon="8.010548702306165"><ele>466.99999999999994</ele><time>2026-04-11T16:04:33Z</time></trkpt><trkpt lat="44.585311205957396" lon="8.010639043795708"><ele>466.99999999999994</ele><time>2026-04-11T16:04:37Z</time></trkpt><trkpt lat="44.5853634680968" lon="8.010712212977182"><ele>467.0</ele><time>2026-04-11T16:04:41Z</time></trkpt><trkpt lat="44.58541451349187" lon="8.010786942631043"><ele>466.99999999999994</ele><time>2026-04-11T16:04:45Z</time></trkpt><trkpt lat="44.5854807600842" lon="8.010787952589656"><ele>466.99999999999994</ele><time>2026-04-11T16:04:49Z</time></trkpt><trkpt lat="44.585548032844216" lon="8.0107981247807"><ele>466.99999999999994</ele><time>2026-04-11T16:04:52Z</time></trkpt><trkpt lat="44.585615572977325" lon="8.010816402547759"><ele>467.0</ele><time>2026-04-11T16:04:55Z</time></trkpt><trkpt lat="44.58568517129832" lon="8.010820421888745"><ele>466.99999999999994</ele><time>2026-04-11T16:04:58Z</time></trkpt><trkpt lat="44.58575124360843" lon="8.010831740880693"><ele>466.99999999999994</ele><time>2026-04-11T16:05:01Z</time></trkpt><trkpt lat="44.58582915457511" lon="8.010827372685362"><ele>467.0</ele><time>2026-04-11T16:05:05Z</time></trkpt><trkpt lat="44.58589272374291" lon="8.010826666733342"><ele>466.99999999999994</ele><time>2026-04-11T16:05:08Z</time></trkpt><trkpt lat="44.58596151857964" lon="8.010804037184322"><ele>466.99999999999994</ele><time>2026-04-11T16:05:11Z</time></trkpt><trkpt lat="44.586032244927964" lon="8.010783525095723"><ele>466.99999999999994</ele><time>2026-04-11T16:05:14Z</time></trkpt><trkpt lat="44.58610151940568" lon="8.010757985507063"><ele>467.0</ele><time>2026-04-11T16:05:17Z</time></trkpt><trkpt lat="44.58616301878245" lon="8.010709311696845"><ele>467.0</ele><time>2026-04-11T16:05:20Z</time></trkpt><trkpt lat="44.586245009790076" lon="8.010659614219676"><ele>467.0</ele><time>2026-04-11T16:05:24Z</time></trkpt><trkpt lat="44.58630571871406" lon="8.01056906146939"><ele>466.99999999999994</ele><time>2026-04-11T16:05:28Z</time></trkpt><trkpt lat="44.58635403166789" lon="8.010501100309357"><ele>467.0</ele><time>2026-04-11T16:05:30.999Z</time></trkpt><trkpt lat="44.5864101230882" lon="8.010444956294567"><ele>468.99999999999994</ele><time>2026-04-11T16:05:33.999Z</time></trkpt><trkpt lat="44.58646122598751" lon="8.010385594410591"><ele>471.0</ele><time>2026-04-11T16:05:36.999Z</time></trkpt><trkpt lat="44.58654585244468" lon="8.010400722725246"><ele>473.0</ele><time>2026-04-11T16:05:40.999Z</time></trkpt><trkpt lat="44.586584755343935" lon="8.010490155205387"><ele>475.0</ele><time>2026-04-11T16:05:44.999Z</time></trkpt><trkpt lat="44.586556637590185" lon="8.01058985419769"><ele>476.99999999999994</ele><time>2026-04-11T16:05:48.999Z</time></trkpt><trkpt lat="44.58649257017767" lon="8.010654906380603"><ele>479.0</ele><time>2026-04-11T16:05:52.999Z</time></trkpt><trkpt lat="44.586436600617006" lon="8.010709929801578"><ele>479.0</ele><time>2026-04-11T16:05:56.999Z</time></trkpt><trkpt lat="44.586375382223366" lon="8.010774405472585"><ele>479.0</ele><time>2026-04-11T16:05:59.999Z</time></trkpt><trkpt lat="44.586318317998696" lon="8.010845732013692"><ele>479.0</ele><time>2026-04-11T16:06:03.999Z</time></trkpt><trkpt lat="44.586260311776414" lon="8.010887950503289"><ele>479.0</ele><time>2026-04-11T16:06:06.999Z</time></trkpt><trkpt lat="44.58620848705079" lon="8.010941008287364"><ele>479.0</ele><time>2026-04-11T16:06:09.999Z</time></trkpt><trkpt lat="44.58614807101346" lon="8.011001389369348"><ele>479.0</ele><time>2026-04-11T16:06:13.999Z</time></trkpt><trkpt lat="44.58609275745542" lon="8.011069842132876"><ele>479.0</ele><time>2026-04-11T16:06:17.999Z</time></trkpt><trkpt lat="44.586030242959446" lon="8.011126325915122"><ele>479.66666666666663</ele><time>2026-04-11T16:06:21.999Z</time></trkpt><trkpt lat="44.58597723414942" lon="8.011198205679229"><ele>480.3333333333333</ele><time>2026-04-11T16:06:25.999Z</time></trkpt><trkpt lat="44.58592560625208" lon="8.011277436329523"><ele>481.0</ele><time>2026-04-11T16:06:30Z</time></trkpt><trkpt lat="44.585873888591465" lon="8.011352568396077"><ele>481.66666666666663</ele><time>2026-04-11T16:06:33Z</time></trkpt><trkpt lat="44.58582005546957" lon="8.01144400500769"><ele>482.3333333333333</ele><time>2026-04-11T16:06:37Z</time></trkpt><trkpt lat="44.58576314851056" lon="8.011527304832631"><ele>483.0</ele><time>2026-04-11T16:06:41Z</time></trkpt><trkpt lat="44.58571110212902" lon="8.01161213529157"><ele>484.42857142857144</ele><time>2026-04-11T16:06:45Z</time></trkpt><trkpt lat="44.585666365293356" lon="8.01170491810985"><ele>485.8571428571429</ele><time>2026-04-11T16:06:49Z</time></trkpt><trkpt lat="44.58562579446971" lon="8.011802590596869"><ele>487.2857142857143</ele><time>2026-04-11T16:06:53Z</time></trkpt><trkpt lat="44.585591313586114" lon="8.011901865674856"><ele>488.7142857142857</ele><time>2026-04-11T16:06:57Z</time></trkpt><trkpt lat="44.58556447870038" lon="8.011984189918177"><ele>490.14285714285717</ele><time>2026-04-11T16:07:00Z</time></trkpt><trkpt lat="44.585517065825094" lon="8.012073201327558"><ele>491.57142857142856</ele><time>2026-04-11T16:07:04Z</time></trkpt><trkpt lat="44.58548492815498" lon="8.012150539683908"><ele>493.0</ele><time>2026-04-11T16:07:07Z</time></trkpt><trkpt lat="44.585438391282" lon="8.01223601510675"><ele>493.0</ele><time>2026-04-11T16:07:11Z</time></trkpt><trkpt lat="44.58539494829315" lon="8.012333774483727"><ele>493.0</ele><time>2026-04-11T16:07:16Z</time></trkpt><trkpt lat="44.58534724186417" lon="8.012407644877916"><ele>493.0</ele><time>2026-04-11T16:07:19Z</time></trkpt><trkpt lat="44.58531498215335" lon="8.01250978620991"><ele>493.0</ele><time>2026-04-11T16:07:23Z</time></trkpt><trkpt lat="44.58525281498874" lon="8.012568228563888"><ele>493.0</ele><time>2026-04-11T16:07:27Z</time></trkpt><trkpt lat="44.58520167777785" lon="8.01262512832066"><ele>493.0</ele><time>2026-04-11T16:07:31Z</time></trkpt><trkpt lat="44.58520751951184" lon="8.012716539482218"><ele>493.0</ele><time>2026-04-11T16:07:35.999Z</time></trkpt><trkpt lat="44.58521532342826" lon="8.01281933137516"><ele>494.79999999999995</ele><time>2026-04-11T16:07:39.999Z</time></trkpt><trkpt lat="44.58523150483195" lon="8.012932097715346"><ele>496.59999999999997</ele><time>2026-04-11T16:07:42.999Z</time></trkpt><trkpt lat="44.58523968563581" lon="8.01303668656795"><ele>498.40000000000003</ele><time>2026-04-11T16:07:44.999Z</time></trkpt><trkpt lat="44.58525578873765" lon="8.013175625142573"><ele>500.20000000000005</ele><time>2026-04-11T16:07:46.999Z</time></trkpt><trkpt lat="44.58526801590411" lon="8.01332035646203"><ele>502.0</ele><time>2026-04-11T16:07:48.999Z</time></trkpt><trkpt lat="44.58528027448752" lon="8.013464076810395"><ele>503.20000000000005</ele><time>2026-04-11T16:07:50.999Z</time></trkpt><trkpt lat="44.58529532446304" lon="8.013627461771971"><ele>504.40000000000003</ele><time>2026-04-11T16:07:52.999Z</time></trkpt><trkpt lat="44.58531891159411" lon="8.013796986687229"><ele>505.59999999999997</ele><time>2026-04-11T16:07:54.999Z</time></trkpt><trkpt lat="44.58537971964101" lon="8.013961477388944"><ele>506.79999999999995</ele><time>2026-04-11T16:07:56.999Z</time></trkpt><trkpt lat="44.58542270495404" lon="8.014042435069129"><ele>508.0</ele><time>2026-04-11T16:07:57.999Z</time></trkpt><trkpt lat="44.58547089581807" lon="8.014128263510775"><ele>505.14285714285717</ele><time>2026-04-11T16:07:58.999Z</time></trkpt><trkpt lat="44.585516522835704" lon="8.014217606245689"><ele>502.2857142857142</ele><time>2026-04-11T16:07:59.999Z</time></trkpt><trkpt lat="44.58556382311361" lon="8.014293150362434"><ele>499.4285714285714</ele><time>2026-04-11T16:08:00.999Z</time></trkpt><trkpt lat="44.58560859394153" lon="8.014379187889219"><ele>496.57142857142856</ele><time>2026-04-11T16:08:01.999Z</time></trkpt><trkpt lat="44.58565251508829" lon="8.014461178629727"><ele>493.71428571428567</ele><time>2026-04-11T16:08:02.999Z</time></trkpt><trkpt lat="44.58569825556565" lon="8.01453897427012"><ele>490.8571428571428</ele><time>2026-04-11T16:08:03.999Z</time></trkpt><trkpt lat="44.585741326583495" lon="8.014621522962612"><ele>487.99999999999994</ele><time>2026-04-11T16:08:04.999Z</time></trkpt><trkpt lat="44.585776771602674" lon="8.014718275622538"><ele>487.99999999999994</ele><time>2026-04-11T16:08:05.999Z</time></trkpt><trkpt lat="44.58580153963503" lon="8.014812146875487"><ele>488.0</ele><time>2026-04-11T16:08:06.999Z</time></trkpt><trkpt lat="44.58580488594329" lon="8.014918772603524"><ele>488.0</ele><time>2026-04-11T16:08:07.999Z</time></trkpt><trkpt lat="44.585807211483186" lon="8.015028381118846"><ele>488.0</ele><time>2026-04-11T16:08:08.999Z</time></trkpt><trkpt lat="44.58579319521127" lon="8.01513702030004"><ele>487.99999999999994</ele><time>2026-04-11T16:08:09.999Z</time></trkpt><trkpt lat="44.58576752591587" lon="8.015237263403227"><ele>488.0</ele><time>2026-04-11T16:08:10.999Z</time></trkpt><trkpt lat="44.58575589552667" lon="8.015347865847708"><ele>488.2</ele><time>2026-04-11T16:08:11.999Z</time></trkpt><trkpt lat="44.585761372774535" lon="8.015463460465543"><ele>488.4</ele><time>2026-04-11T16:08:12.999Z</time></trkpt><trkpt lat="44.585769548981844" lon="8.015587283211993"><ele>488.59999999999997</ele><time>2026-04-11T16:08:13.999Z</time></trkpt><trkpt lat="44.58580554056983" lon="8.01570128978345"><ele>488.79999999999995</ele><time>2026-04-11T16:08:14.999Z</time></trkpt><trkpt lat="44.585867146814174" lon="8.015811877418107"><ele>489.0</ele><time>2026-04-11T16:08:15.999Z</time></trkpt><trkpt lat="44.58593728847375" lon="8.015906375019556"><ele>489.2</ele><time>2026-04-11T16:08:16.999Z</time></trkpt><trkpt lat="44.586033078861426" lon="8.015965018079845"><ele>489.4</ele><time>2026-04-11T16:08:17.999Z</time></trkpt><trkpt lat="44.58610077454632" lon="8.01603368383427"><ele>489.6</ele><time>2026-04-11T16:08:18.999Z</time></trkpt><trkpt lat="44.58617956237289" lon="8.016091493770947"><ele>489.8</ele><time>2026-04-11T16:08:19.999Z</time></trkpt><trkpt lat="44.586201083179816" lon="8.01624318199631"><ele>490.0</ele><time>2026-04-11T16:08:20.999Z</time></trkpt><trkpt lat="44.58623379105135" lon="8.01634249974303"><ele>489.00000000000006</ele><time>2026-04-11T16:08:21.999Z</time></trkpt><trkpt lat="44.58626243819457" lon="8.016500775640214"><ele>488.0</ele><time>2026-04-11T16:08:23.999Z</time></trkpt><trkpt lat="44.58628581420929" lon="8.016610914628451"><ele>487.0</ele><time>2026-04-11T16:08:25.999Z</time></trkpt><trkpt lat="44.586304292546224" lon="8.016697978299709"><ele>486.0</ele><time>2026-04-11T16:08:27.999Z</time></trkpt><trkpt lat="44.58633231454142" lon="8.01680257074566"><ele>485.00000000000006</ele><time>2026-04-11T16:08:30.999Z</time></trkpt><trkpt lat="44.58626969264156" lon="8.016822699489145"><ele>484.0</ele><time>2026-04-11T16:08:33.999Z</time></trkpt><trkpt lat="44.586198384348" lon="8.016850688142652"><ele>484.1428571428571</ele><time>2026-04-11T16:08:38Z</time></trkpt><trkpt lat="44.58613707317515" lon="8.016818067832045"><ele>484.2857142857142</ele><time>2026-04-11T16:09:26Z</time></trkpt><trkpt lat="44.58605395334312" lon="8.0168093519614"><ele>484.42857142857144</ele><time>2026-04-11T16:09:30Z</time></trkpt><trkpt lat="44.58598198570482" lon="8.016781075787943"><ele>484.57142857142856</ele><time>2026-04-11T16:09:33Z</time></trkpt><trkpt lat="44.585921585971036" lon="8.01673815981417"><ele>484.7142857142857</ele><time>2026-04-11T16:09:35.999Z</time></trkpt><trkpt lat="44.58586453304514" lon="8.016666163286265"><ele>484.8571428571429</ele><time>2026-04-11T16:09:39.999Z</time></trkpt><trkpt lat="44.585805721066016" lon="8.01659352428683"><ele>485.00000000000006</ele><time>2026-04-11T16:09:43.999Z</time></trkpt><trkpt lat="44.585764189299006" lon="8.016511985735674"><ele>485.7142857142858</ele><time>2026-04-11T16:09:47.999Z</time></trkpt><trkpt lat="44.58570750397118" lon="8.016434693167774"><ele>486.42857142857144</ele><time>2026-04-11T16:09:51.999Z</time></trkpt><trkpt lat="44.58564797613697" lon="8.01637221484778"><ele>487.14285714285717</ele><time>2026-04-11T16:09:56.999Z</time></trkpt><trkpt lat="44.58558206516447" lon="8.016342527652697"><ele>487.8571428571429</ele><time>2026-04-11T16:10:00.999Z</time></trkpt><trkpt lat="44.585523038056145" lon="8.016309161350023"><ele>488.57142857142856</ele><time>2026-04-11T16:10:04.999Z</time></trkpt><trkpt lat="44.58545321360158" lon="8.016273187319399"><ele>489.2857142857143</ele><time>2026-04-11T16:10:08.999Z</time></trkpt><trkpt lat="44.585391308248525" lon="8.016243129152139"><ele>490.0</ele><time>2026-04-11T16:10:11.999Z</time></trkpt><trkpt lat="44.5853278909891" lon="8.016222814383928"><ele>491.0</ele><time>2026-04-11T16:10:15.999Z</time></trkpt><trkpt lat="44.58526256939632" lon="8.016196102712334"><ele>492.0</ele><time>2026-04-11T16:10:19.999Z</time></trkpt><trkpt lat="44.58519804497822" lon="8.016168341020197"><ele>493.0</ele><time>2026-04-11T16:10:23.999Z</time></trkpt><trkpt lat="44.58514277570598" lon="8.016121866041114"><ele>494.0</ele><time>2026-04-11T16:10:27.999Z</time></trkpt><trkpt lat="44.5851038232582" lon="8.016037968896654"><ele>495.0</ele><time>2026-04-11T16:10:32.999Z</time></trkpt><trkpt lat="44.585067681785524" lon="8.015945823046582"><ele>496.0</ele><time>2026-04-11T16:10:36.999Z</time></trkpt><trkpt lat="44.5850322495646" lon="8.015868832397055"><ele>497.0</ele><time>2026-04-11T16:10:40.999Z</time></trkpt><trkpt lat="44.58499475906077" lon="8.015792054281711"><ele>498.42857142857144</ele><time>2026-04-11T16:10:45Z</time></trkpt><trkpt lat="44.584954127463284" lon="8.01570747973999"><ele>499.8571428571429</ele><time>2026-04-11T16:10:50Z</time></trkpt><trkpt lat="44.58490312556861" lon="8.015624075528777"><ele>501.2857142857143</ele><time>2026-04-11T16:10:55Z</time></trkpt><trkpt lat="44.58484762594427" lon="8.015551758276365"><ele>502.7142857142857</ele><time>2026-04-11T16:11:00Z</time></trkpt><trkpt lat="44.58479993011953" lon="8.015486450000584"><ele>504.14285714285717</ele><time>2026-04-11T16:11:04Z</time></trkpt><trkpt lat="44.58475211046868" lon="8.015423607278352"><ele>505.57142857142856</ele><time>2026-04-11T16:11:07Z</time></trkpt><trkpt lat="44.5846940661489" lon="8.015366737814304"><ele>507.0</ele><time>2026-04-11T16:11:11Z</time></trkpt><trkpt lat="44.584651056474044" lon="8.015290445441586"><ele>507.0</ele><time>2026-04-11T16:11:14Z</time></trkpt><trkpt lat="44.58459392121785" lon="8.01524548739186"><ele>507.0</ele><time>2026-04-11T16:11:17Z</time></trkpt><trkpt lat="44.584523192650224" lon="8.01517997341595"><ele>507.0</ele><time>2026-04-11T16:11:21Z</time></trkpt><trkpt lat="44.58445054000889" lon="8.015125773802547"><ele>507.0</ele><time>2026-04-11T16:11:25Z</time></trkpt><trkpt lat="44.58437583595888" lon="8.015095017141007"><ele>507.0</ele><time>2026-04-11T16:11:30Z</time></trkpt><trkpt lat="44.584305390679226" lon="8.015091968400531"><ele>507.0</ele><time>2026-04-11T16:11:34Z</time></trkpt><trkpt lat="44.58424002585164" lon="8.015094432798897"><ele>507.0</ele><time>2026-04-11T16:11:37Z</time></trkpt><trkpt lat="44.584168727702135" lon="8.015097606614349"><ele>507.85714285714283</ele><time>2026-04-11T16:11:41Z</time></trkpt><trkpt lat="44.58410020257037" lon="8.015086415868574"><ele>508.7142857142858</ele><time>2026-04-11T16:11:44Z</time></trkpt><trkpt lat="44.584018892494264" lon="8.015085921316777"><ele>509.5714285714286</ele><time>2026-04-11T16:11:48Z</time></trkpt><trkpt lat="44.58394295128624" lon="8.015081953747059"><ele>510.42857142857144</ele><time>2026-04-11T16:11:51.999Z</time></trkpt><trkpt lat="44.58387429154925" lon="8.01507554778194"><ele>511.28571428571433</ele><time>2026-04-11T16:11:55.999Z</time></trkpt><trkpt lat="44.58380578427396" lon="8.015030537483922"><ele>512.1428571428572</ele><time>2026-04-11T16:11:59.999Z</time></trkpt><trkpt lat="44.583735603144895" lon="8.014982197171454"><ele>513.0</ele><time>2026-04-11T16:12:04.999Z</time></trkpt><trkpt lat="44.583679326753895" lon="8.01493479210385"><ele>515.5714285714287</ele><time>2026-04-11T16:12:08.999Z</time></trkpt><trkpt lat="44.583628714697014" lon="8.014875039896756"><ele>518.1428571428571</ele><time>2026-04-11T16:12:12.999Z</time></trkpt><trkpt lat="44.583571144970314" lon="8.014789190290047"><ele>520.7142857142858</ele><time>2026-04-11T16:12:18.999Z</time></trkpt><trkpt lat="44.58352610737784" lon="8.014727203240275"><ele>523.2857142857143</ele><time>2026-04-11T16:12:32.999Z</time></trkpt><trkpt lat="44.58347149595478" lon="8.014667278113855"><ele>525.8571428571429</ele><time>2026-04-11T16:12:36.999Z</time></trkpt><trkpt lat="44.583415453141356" lon="8.014596436128146"><ele>528.4285714285714</ele><time>2026-04-11T16:12:40.999Z</time></trkpt><trkpt lat="44.58336312556177" lon="8.01454189643226"><ele>531.0</ele><time>2026-04-11T16:12:44.999Z</time></trkpt><trkpt lat="44.58331019756187" lon="8.014486013479697"><ele>531.0</ele><time>2026-04-11T16:12:49Z</time></trkpt><trkpt lat="44.58324034144786" lon="8.014423893468036"><ele>531.0</ele><time>2026-04-11T16:12:53Z</time></trkpt><trkpt lat="44.583169529598926" lon="8.014386669701825"><ele>531.0</ele><time>2026-04-11T16:12:57Z</time></trkpt><trkpt lat="44.583108643300164" lon="8.014356099221137"><ele>531.0</ele><time>2026-04-11T16:13:00Z</time></trkpt><trkpt lat="44.583042736271196" lon="8.014335726982834"><ele>531.0</ele><time>2026-04-11T16:13:04Z</time></trkpt><trkpt lat="44.582952413784874" lon="8.014321537313778"><ele>531.0</ele><time>2026-04-11T16:13:08Z</time></trkpt><trkpt lat="44.582869490494915" lon="8.014308933753682"><ele>530.1428571428571</ele><time>2026-04-11T16:13:11Z</time></trkpt><trkpt lat="44.58280534545533" lon="8.014302459311072"><ele>529.2857142857143</ele><time>2026-04-11T16:13:14Z</time></trkpt><trkpt lat="44.58272957784657" lon="8.01429920861583"><ele>528.4285714285714</ele><time>2026-04-11T16:13:17Z</time></trkpt><trkpt lat="44.58264753012691" lon="8.014294464144243"><ele>527.5714285714286</ele><time>2026-04-11T16:13:20Z</time></trkpt><trkpt lat="44.582580517609685" lon="8.014299392411253"><ele>526.7142857142858</ele><time>2026-04-11T16:13:23Z</time></trkpt><trkpt lat="44.58251072101707" lon="8.01429309699724"><ele>525.8571428571429</ele><time>2026-04-11T16:13:26Z</time></trkpt><trkpt lat="44.582427413624686" lon="8.014285325725782"><ele>525.0</ele><time>2026-04-11T16:13:29Z</time></trkpt><trkpt lat="44.582353387089235" lon="8.014283916411202"><ele>525.0</ele><time>2026-04-11T16:13:32Z</time></trkpt><trkpt lat="44.58228017013017" lon="8.014244349617876"><ele>525.0</ele><time>2026-04-11T16:13:36Z</time></trkpt><trkpt lat="44.58220306033814" lon="8.014227915895509"><ele>525.0</ele><time>2026-04-11T16:13:41Z</time></trkpt><trkpt lat="44.58212264733349" lon="8.01422392258313"><ele>525.0</ele><time>2026-04-11T16:13:45Z</time></trkpt><trkpt lat="44.58205592892021" lon="8.014217612779573"><ele>525.0</ele><time>2026-04-11T16:13:48Z</time></trkpt><trkpt lat="44.5819754999612" lon="8.014222414363555"><ele>525.0</ele><time>2026-04-11T16:13:51Z</time></trkpt><trkpt lat="44.58189634714218" lon="8.014201220193167"><ele>524.6666666666666</ele><time>2026-04-11T16:13:55Z</time></trkpt><trkpt lat="44.5818252802838" lon="8.014177438919164"><ele>524.3333333333334</ele><time>2026-04-11T16:13:58.999Z</time></trkpt><trkpt lat="44.58174784923573" lon="8.014151173441398"><ele>524.0</ele><time>2026-04-11T16:14:01.999Z</time></trkpt><trkpt lat="44.58166662612506" lon="8.01413786567737"><ele>523.6666666666667</ele><time>2026-04-11T16:14:04.999Z</time></trkpt><trkpt lat="44.58157870057245" lon="8.014113047637855"><ele>523.3333333333334</ele><time>2026-04-11T16:14:07.999Z</time></trkpt><trkpt lat="44.58150468539546" lon="8.0140662633421"><ele>523.0</ele><time>2026-04-11T16:14:10.999Z</time></trkpt><trkpt lat="44.58141943059939" lon="8.014026190537624"><ele>522.1666666666667</ele><time>2026-04-11T16:14:13.999Z</time></trkpt><trkpt lat="44.58135116102489" lon="8.014002658165822"><ele>521.3333333333334</ele><time>2026-04-11T16:14:16.999Z</time></trkpt><trkpt lat="44.58126726453652" lon="8.01399811480019"><ele>520.5</ele><time>2026-04-11T16:14:19.999Z</time></trkpt><trkpt lat="44.58118996285178" lon="8.013978896167757"><ele>519.6666666666666</ele><time>2026-04-11T16:14:22.999Z</time></trkpt><trkpt lat="44.58111495024752" lon="8.013966812465904"><ele>518.8333333333333</ele><time>2026-04-11T16:14:25.999Z</time></trkpt><trkpt lat="44.58104149418215" lon="8.013969918128659"><ele>518.0</ele><time>2026-04-11T16:14:28.999Z</time></trkpt><trkpt lat="44.580968201950164" lon="8.013970584994087"><ele>518.0</ele><time>2026-04-11T16:14:31.999Z</time></trkpt><trkpt lat="44.580895710474785" lon="8.013976896926359"><ele>518.0</ele><time>2026-04-11T16:14:34.999Z</time></trkpt><trkpt lat="44.58081862683165" lon="8.013981841144814"><ele>518.0</ele><time>2026-04-11T16:14:37.999Z</time></trkpt><trkpt lat="44.5807476155471" lon="8.013979734909803"><ele>518.0</ele><time>2026-04-11T16:14:40.999Z</time></trkpt><trkpt lat="44.58067484423259" lon="8.013974066536768"><ele>518.0</ele><time>2026-04-11T16:14:43.999Z</time></trkpt><trkpt lat="44.58059241180938" lon="8.013977587208656"><ele>518.0</ele><time>2026-04-11T16:14:46.999Z</time></trkpt><trkpt lat="44.580508228564085" lon="8.013980745189071"><ele>518.0</ele><time>2026-04-11T16:14:50.999Z</time></trkpt><trkpt lat="44.58043779771516" lon="8.013972869562071"><ele>518.0</ele><time>2026-04-11T16:14:54Z</time></trkpt><trkpt lat="44.58037465631702" lon="8.01397238835096"><ele>518.0</ele><time>2026-04-11T16:14:57Z</time></trkpt><trkpt lat="44.58030172813843" lon="8.013976137517824"><ele>518.0</ele><time>2026-04-11T16:15:00Z</time></trkpt><trkpt lat="44.58023242517246" lon="8.01397237744506"><ele>518.0</ele><time>2026-04-11T16:15:03Z</time></trkpt><trkpt lat="44.58014904550249" lon="8.013978207725083"><ele>518.0</ele><time>2026-04-11T16:15:07Z</time></trkpt><trkpt lat="44.580076865259656" lon="8.013978020230615"><ele>518.0</ele><time>2026-04-11T16:15:10Z</time></trkpt><trkpt lat="44.58001073747568" lon="8.013978568622262"><ele>519.0</ele><time>2026-04-11T16:15:13Z</time></trkpt><trkpt lat="44.57994403723089" lon="8.013980674408804"><ele>520.0</ele><time>2026-04-11T16:15:16Z</time></trkpt><trkpt lat="44.57986149872469" lon="8.013983250887271"><ele>521.0</ele><time>2026-04-11T16:15:20Z</time></trkpt><trkpt lat="44.57979200081258" lon="8.013973291291734"><ele>522.0</ele><time>2026-04-11T16:15:23Z</time></trkpt><trkpt lat="44.57972468580386" lon="8.013959879534541"><ele>523.0</ele><time>2026-04-11T16:15:26Z</time></trkpt><trkpt lat="44.57965839585519" lon="8.013932834158426"><ele>524.0</ele><time>2026-04-11T16:15:30Z</time></trkpt><trkpt lat="44.579592770126816" lon="8.01388398894179"><ele>525.0</ele><time>2026-04-11T16:15:34Z</time></trkpt><trkpt lat="44.579534868141764" lon="8.013824873365719"><ele>526.5714285714286</ele><time>2026-04-11T16:15:38Z</time></trkpt><trkpt lat="44.579493352453106" lon="8.013751958483383"><ele>528.1428571428571</ele><time>2026-04-11T16:15:41Z</time></trkpt><trkpt lat="44.57945875670068" lon="8.013676135167724"><ele>529.7142857142858</ele><time>2026-04-11T16:15:44Z</time></trkpt><trkpt lat="44.57940755007828" lon="8.01358913120569"><ele>531.2857142857142</ele><time>2026-04-11T16:15:48Z</time></trkpt><trkpt lat="44.5793770271869" lon="8.013484783726604"><ele>532.8571428571429</ele><time>2026-04-11T16:15:51.999Z</time></trkpt><trkpt lat="44.57935204643389" lon="8.01339932447384"><ele>534.4285714285714</ele><time>2026-04-11T16:15:54.999Z</time></trkpt><trkpt lat="44.57930521204313" lon="8.01330331709578"><ele>536.0</ele><time>2026-04-11T16:15:57.999Z</time></trkpt><trkpt lat="44.57925411504157" lon="8.013231267084029"><ele>536.0</ele><time>2026-04-11T16:16:00.999Z</time></trkpt><trkpt lat="44.57918937090672" lon="8.013182024461512"><ele>536.0</ele><time>2026-04-11T16:16:03.999Z</time></trkpt><trkpt lat="44.57911672684674" lon="8.013187115019308"><ele>536.0</ele><time>2026-04-11T16:16:07.999Z</time></trkpt><trkpt lat="44.579064917443404" lon="8.013256763687599"><ele>536.0</ele><time>2026-04-11T16:16:12.999Z</time></trkpt><trkpt lat="44.579055606708806" lon="8.013369793016413"><ele>536.0</ele><time>2026-04-11T16:16:16.999Z</time></trkpt><trkpt lat="44.579043167597085" lon="8.013462822106632"><ele>536.0</ele><time>2026-04-11T16:16:20.999Z</time></trkpt><trkpt lat="44.57899447770152" lon="8.01355506408913"><ele>536.0</ele><time>2026-04-11T16:16:24.999Z</time></trkpt><trkpt lat="44.57895141632349" lon="8.013622179941105"><ele>537.5714285714286</ele><time>2026-04-11T16:16:27.999Z</time></trkpt><trkpt lat="44.57890295320716" lon="8.013678595870552"><ele>539.1428571428571</ele><time>2026-04-11T16:16:30.999Z</time></trkpt><trkpt lat="44.57883861978158" lon="8.013712296118047"><ele>540.7142857142857</ele><time>2026-04-11T16:16:33.999Z</time></trkpt><trkpt lat="44.578763870794646" lon="8.013747833310399"><ele>542.2857142857142</ele><time>2026-04-11T16:16:37.999Z</time></trkpt><trkpt lat="44.57868444872423" lon="8.01377193530859"><ele>543.8571428571428</ele><time>2026-04-11T16:16:41.999Z</time></trkpt><trkpt lat="44.57861986696442" lon="8.01381220986058"><ele>545.4285714285714</ele><time>2026-04-11T16:16:44.999Z</time></trkpt><trkpt lat="44.57855438396163" lon="8.01382043653071"><ele>547.0</ele><time>2026-04-11T16:16:48.999Z</time></trkpt><trkpt lat="44.578482025669956" lon="8.01385131991069"><ele>549.0</ele><time>2026-04-11T16:16:52.999Z</time></trkpt><trkpt lat="44.57840227405004" lon="8.013880323276984"><ele>551.0</ele><time>2026-04-11T16:16:55.999Z</time></trkpt><trkpt lat="44.57833212253511" lon="8.013902178904125"><ele>553.0</ele><time>2026-04-11T16:16:58.999Z</time></trkpt><trkpt lat="44.57825581737332" lon="8.013935920146626"><ele>555.0</ele><time>2026-04-11T16:17:02Z</time></trkpt><trkpt lat="44.57818960285844" lon="8.013949656766627"><ele>557.0</ele><time>2026-04-11T16:17:05Z</time></trkpt><trkpt lat="44.57811935304481" lon="8.013971154979487"><ele>559.0</ele><time>2026-04-11T16:17:08Z</time></trkpt><trkpt lat="44.57805975062003" lon="8.014006547171773"><ele>561.0</ele><time>2026-04-11T16:17:11Z</time></trkpt><trkpt lat="44.57799480430587" lon="8.014042312785747"><ele>561.0</ele><time>2026-04-11T16:17:14Z</time></trkpt><trkpt lat="44.57791589691286" lon="8.014078979120592"><ele>561.0</ele><time>2026-04-11T16:17:18Z</time></trkpt><trkpt lat="44.57784028133754" lon="8.01411841990659"><ele>561.0</ele><time>2026-04-11T16:17:22Z</time></trkpt><trkpt lat="44.57776963420872" lon="8.014158176593122"><ele>561.0</ele><time>2026-04-11T16:17:25Z</time></trkpt><trkpt lat="44.57770308963737" lon="8.014189841548868"><ele>561.0</ele><time>2026-04-11T16:17:29Z</time></trkpt><trkpt lat="44.5776388864171" lon="8.014221045127128"><ele>561.0</ele><time>2026-04-11T16:17:32Z</time></trkpt><trkpt lat="44.577573678690186" lon="8.014250087348751"><ele>561.0</ele><time>2026-04-11T16:17:35Z</time></trkpt><trkpt lat="44.57750033380035" lon="8.014296337601502"><ele>561.4285714285714</ele><time>2026-04-11T16:17:40Z</time></trkpt><trkpt lat="44.57742981678553" lon="8.014337989422346"><ele>561.8571428571428</ele><time>2026-04-11T16:17:43Z</time></trkpt><trkpt lat="44.57735853147719" lon="8.014389982520383"><ele>562.2857142857142</ele><time>2026-04-11T16:17:47Z</time></trkpt><trkpt lat="44.57729534148653" lon="8.014414863324866"><ele>562.7142857142857</ele><time>2026-04-11T16:17:50Z</time></trkpt><trkpt lat="44.5772343646241" lon="8.014449213176153"><ele>563.1428571428571</ele><time>2026-04-11T16:17:53Z</time></trkpt><trkpt lat="44.577170762213065" lon="8.01449163759591"><ele>563.5714285714286</ele><time>2026-04-11T16:17:56.999Z</time></trkpt><trkpt lat="44.57709446150831" lon="8.014549577869214"><ele>564.0</ele><time>2026-04-11T16:18:00.999Z</time></trkpt><trkpt lat="44.57702476184045" lon="8.014573074310105"><ele>565.8333333333334</ele><time>2026-04-11T16:18:04.999Z</time></trkpt><trkpt lat="44.57695917415869" lon="8.014596089439404"><ele>567.6666666666666</ele><time>2026-04-11T16:18:08.999Z</time></trkpt><trkpt lat="44.57688016275448" lon="8.014652959707275"><ele>569.5</ele><time>2026-04-11T16:18:11.999Z</time></trkpt><trkpt lat="44.57680725942681" lon="8.014693637757436"><ele>571.3333333333333</ele><time>2026-04-11T16:18:14.999Z</time></trkpt><trkpt lat="44.576741604619805" lon="8.014746245793464"><ele>573.1666666666666</ele><time>2026-04-11T16:18:16.999Z</time></trkpt><trkpt lat="44.57665839051067" lon="8.014778309884383"><ele>575.0</ele><time>2026-04-11T16:18:19.999Z</time></trkpt><trkpt lat="44.576580317126215" lon="8.014823302383885"><ele>575.0</ele><time>2026-04-11T16:18:22.999Z</time></trkpt><trkpt lat="44.576516428931626" lon="8.014854157904946"><ele>575.0</ele><time>2026-04-11T16:18:25.999Z</time></trkpt><trkpt lat="44.576443345720186" lon="8.014884341182613"><ele>575.0</ele><time>2026-04-11T16:18:28.999Z</time></trkpt><trkpt lat="44.57637467914766" lon="8.014931649150546"><ele>575.0</ele><time>2026-04-11T16:18:31.999Z</time></trkpt><trkpt lat="44.576306067412524" lon="8.014978951423604"><ele>575.0</ele><time>2026-04-11T16:18:34.999Z</time></trkpt><trkpt lat="44.57625466430259" lon="8.015053884768031"><ele>575.0</ele><time>2026-04-11T16:18:37.999Z</time></trkpt><trkpt lat="44.576216607216395" lon="8.015130824216538"><ele>575.0</ele><time>2026-04-11T16:18:40.999Z</time></trkpt><trkpt lat="44.57618750410316" lon="8.015228669935992"><ele>574.8571428571429</ele><time>2026-04-11T16:18:43.999Z</time></trkpt><trkpt lat="44.57615976310388" lon="8.015317040883893"><ele>574.7142857142857</ele><time>2026-04-11T16:18:46.999Z</time></trkpt><trkpt lat="44.576135440753546" lon="8.015400306247765"><ele>574.5714285714286</ele><time>2026-04-11T16:18:49.999Z</time></trkpt><trkpt lat="44.57610665750678" lon="8.015512356143738"><ele>574.4285714285714</ele><time>2026-04-11T16:18:54.999Z</time></trkpt><trkpt lat="44.5760783499073" lon="8.015597201933463"><ele>574.2857142857142</ele><time>2026-04-11T16:18:57.999Z</time></trkpt><trkpt lat="44.576049906929846" lon="8.015684451817785"><ele>574.1428571428571</ele><time>2026-04-11T16:19:00.999Z</time></trkpt><trkpt lat="44.57603470030993" lon="8.015775955004433"><ele>574.0</ele><time>2026-04-11T16:19:03.999Z</time></trkpt><trkpt lat="44.576007971209506" lon="8.015864017269887"><ele>574.0</ele><time>2026-04-11T16:19:07Z</time></trkpt><trkpt lat="44.575982330320244" lon="8.015957883214046"><ele>574.0</ele><time>2026-04-11T16:19:10Z</time></trkpt><trkpt lat="44.57595591665651" lon="8.01605271119261"><ele>574.0</ele><time>2026-04-11T16:19:13Z</time></trkpt><trkpt lat="44.575941523048094" lon="8.016141695827018"><ele>574.0</ele><time>2026-04-11T16:19:16Z</time></trkpt><trkpt lat="44.57591257337333" lon="8.016233805726335"><ele>574.0</ele><time>2026-04-11T16:19:19Z</time></trkpt><trkpt lat="44.5758952391356" lon="8.016326852677674"><ele>574.0</ele><time>2026-04-11T16:19:22Z</time></trkpt><trkpt lat="44.57587104259709" lon="8.016412453862397"><ele>574.0</ele><time>2026-04-11T16:19:25Z</time></trkpt><trkpt lat="44.57585031029621" lon="8.016507832286267"><ele>574.0</ele><time>2026-04-11T16:19:28Z</time></trkpt><trkpt lat="44.57582330975936" lon="8.016593263799859"><ele>574.0</ele><time>2026-04-11T16:19:31Z</time></trkpt><trkpt lat="44.575798863299816" lon="8.01667807422486"><ele>574.0</ele><time>2026-04-11T16:19:34Z</time></trkpt><trkpt lat="44.57577839149869" lon="8.016767859614875"><ele>574.0</ele><time>2026-04-11T16:19:37Z</time></trkpt><trkpt lat="44.575764354527095" lon="8.016857849534743"><ele>574.0</ele><time>2026-04-11T16:19:40Z</time></trkpt><trkpt lat="44.57573814301016" lon="8.016964951569234"><ele>574.0</ele><time>2026-04-11T16:19:44Z</time></trkpt><trkpt lat="44.575721164897175" lon="8.01706378535803"><ele>574.0</ele><time>2026-04-11T16:19:50Z</time></trkpt><trkpt lat="44.575713198874354" lon="8.01716742816346"><ele>574.0</ele><time>2026-04-11T16:19:55Z</time></trkpt><trkpt lat="44.57572886203772" lon="8.017062955384905"><ele>574.0</ele><time>2026-04-11T16:20:41.999Z</time></trkpt><trkpt lat="44.575772559826056" lon="8.016961207599012"><ele>574.0</ele><time>2026-04-11T16:20:44.999Z</time></trkpt><trkpt lat="44.5758007395103" lon="8.016868324914997"><ele>574.0</ele><time>2026-04-11T16:20:46.999Z</time></trkpt><trkpt lat="44.57583486894404" lon="8.016736507011565"><ele>574.0</ele><time>2026-04-11T16:20:48.999Z</time></trkpt><trkpt lat="44.57587410681455" lon="8.016616334387834"><ele>574.0</ele><time>2026-04-11T16:20:50.999Z</time></trkpt><trkpt lat="44.57590181255453" lon="8.016483375855403"><ele>574.0</ele><time>2026-04-11T16:20:52.999Z</time></trkpt><trkpt lat="44.57592778713403" lon="8.016367842710885"><ele>574.0</ele><time>2026-04-11T16:20:54.999Z</time></trkpt><trkpt lat="44.575970317908265" lon="8.016270965752758"><ele>574.0</ele><time>2026-04-11T16:20:56.999Z</time></trkpt><trkpt lat="44.57601196273771" lon="8.016181252475326"><ele>574.0</ele><time>2026-04-11T16:20:58.999Z</time></trkpt><trkpt lat="44.576037981876496" lon="8.016093589249317"><ele>574.0</ele><time>2026-04-11T16:21:00.999Z</time></trkpt><trkpt lat="44.57606470825869" lon="8.016006152782106"><ele>574.0</ele><time>2026-04-11T16:21:02.999Z</time></trkpt><trkpt lat="44.57608058980594" lon="8.0159019191963"><ele>573.0</ele><time>2026-04-11T16:21:04.999Z</time></trkpt><trkpt lat="44.57606803549948" lon="8.01580836026077"><ele>572.0</ele><time>2026-04-11T16:21:06.999Z</time></trkpt><trkpt lat="44.57605474666586" lon="8.015694951403184"><ele>571.0</ele><time>2026-04-11T16:21:09.999Z</time></trkpt><trkpt lat="44.57603644628258" lon="8.01579100216973"><ele>570.0</ele><time>2026-04-11T16:24:30.999Z</time></trkpt><trkpt lat="44.5759788304153" lon="8.015748547887188"><ele>569.0</ele><time>2026-04-11T16:24:38.999Z</time></trkpt><trkpt lat="44.57591540381373" lon="8.015706428655687"><ele>568.0</ele><time>2026-04-11T16:24:45.999Z</time></trkpt><trkpt lat="44.57598407274023" lon="8.015594836304818"><ele>568.0</ele><time>2026-04-11T16:25:29Z</time></trkpt><trkpt lat="44.57604127222037" lon="8.015540397262347"><ele>568.0</ele><time>2026-04-11T16:25:32Z</time></trkpt><trkpt lat="44.57614316742856" lon="8.015576385069178"><ele>568.0</ele><time>2026-04-11T16:25:38Z</time></trkpt><trkpt lat="44.57637211980185" lon="8.015640041637845"><ele>568.0</ele><time>2026-04-11T16:25:46Z</time></trkpt><trkpt lat="44.57593488355184" lon="8.015628009988014"><ele>568.0</ele><time>2026-04-11T16:25:52Z</time></trkpt><trkpt lat="44.57584309589441" lon="8.015607143812739"><ele>568.0</ele><time>2026-04-11T16:25:53Z</time></trkpt><trkpt lat="44.57589451148466" lon="8.0156643596288"><ele>568.0</ele><time>2026-04-11T16:26:06Z</time></trkpt><trkpt lat="44.57594758193992" lon="8.015715472948868"><ele>568.0</ele><time>2026-04-11T16:27:21.999Z</time></trkpt><trkpt lat="44.57582777792645" lon="8.015679904247207"><ele>568.0</ele><time>2026-04-11T16:27:55Z</time></trkpt><trkpt lat="44.57575659271781" lon="8.015876105062677"><ele>574.0</ele><time>2026-04-11T16:28:20Z</time></trkpt><trkpt lat="44.57584708355172" lon="8.015734978856658"><ele>568.0</ele><time>2026-04-11T16:28:22Z</time></trkpt></trkseg><trkseg><trkpt lat="44.57602358772482" lon="8.015738829509884"><ele>568.8571428571429</ele><time>2026-04-12T04:33:52.842Z</time></trkpt><trkpt lat="44.576045956548484" lon="8.015828458364059"><ele>569.7142857142857</ele><time>2026-04-12T04:34:04.001Z</time></trkpt><trkpt lat="44.576006591573616" lon="8.015908752225831"><ele>570.5714285714286</ele><time>2026-04-12T04:34:07Z</time></trkpt><trkpt lat="44.575983170165316" lon="8.016011016253415"><ele>571.4285714285714</ele><time>2026-04-12T04:34:10Z</time></trkpt><trkpt lat="44.5759460212418" lon="8.01611347792082"><ele>572.2857142857142</ele><time>2026-04-12T04:34:14Z</time></trkpt><trkpt lat="44.57593040201094" lon="8.016208524818818"><ele>573.1428571428571</ele><time>2026-04-12T04:34:17Z</time></trkpt><trkpt lat="44.57591265081485" lon="8.01629851790149"><ele>574.0</ele><time>2026-04-12T04:34:20Z</time></trkpt><trkpt lat="44.57589894890603" lon="8.016403378547144"><ele>574.0</ele><time>2026-04-12T04:34:23Z</time></trkpt><trkpt lat="44.575861249209524" lon="8.016479056509176"><ele>574.0</ele><time>2026-04-12T04:34:26Z</time></trkpt><trkpt lat="44.57584419962436" lon="8.01657209786198"><ele>574.0</ele><time>2026-04-12T04:34:29Z</time></trkpt><trkpt lat="44.57587155805898" lon="8.016222844917808"><ele>574.0</ele><time>2026-04-12T04:34:30Z</time></trkpt><trkpt lat="44.57584326419781" lon="8.016455290415884"><ele>574.0</ele><time>2026-04-12T04:34:31Z</time></trkpt><trkpt lat="44.57582180183495" lon="8.016617141794354"><ele>574.0</ele><time>2026-04-12T04:34:32Z</time></trkpt><trkpt lat="44.575796506819984" lon="8.016711648379884"><ele>574.0</ele><time>2026-04-12T04:34:34Z</time></trkpt><trkpt lat="44.57578279523683" lon="8.016802387711941"><ele>574.0</ele><time>2026-04-12T04:34:38Z</time></trkpt><trkpt lat="44.57574556900112" lon="8.016910288881531"><ele>574.0</ele><time>2026-04-12T04:34:42Z</time></trkpt><trkpt lat="44.57574017140232" lon="8.01702736441523"><ele>574.0</ele><time>2026-04-12T04:34:45Z</time></trkpt><trkpt lat="44.57572349514088" lon="8.017132454640018"><ele>573.8333333333334</ele><time>2026-04-12T04:34:47.999Z</time></trkpt><trkpt lat="44.57570299372744" lon="8.017228060365023"><ele>573.6666666666667</ele><time>2026-04-12T04:34:50.999Z</time></trkpt><trkpt lat="44.57566699982856" lon="8.017335165642159"><ele>573.5</ele><time>2026-04-12T04:34:53.999Z</time></trkpt><trkpt lat="44.5756797675274" lon="8.017454653938021"><ele>573.3333333333334</ele><time>2026-04-12T04:34:56.999Z</time></trkpt><trkpt lat="44.57573578785732" lon="8.017508239653617"><ele>573.1666666666666</ele><time>2026-04-12T04:35:00.999Z</time></trkpt><trkpt lat="44.57565623097205" lon="8.017519026166768"><ele>573.0</ele><time>2026-04-12T04:35:21.999Z</time></trkpt><trkpt lat="44.57558651720558" lon="8.017595707873614"><ele>573.0</ele><time>2026-04-12T04:35:24.999Z</time></trkpt><trkpt lat="44.57551930745508" lon="8.017683346641414"><ele>573.0</ele><time>2026-04-12T04:35:27.999Z</time></trkpt><trkpt lat="44.57547516371814" lon="8.01776042497546"><ele>573.0</ele><time>2026-04-12T04:35:29.999Z</time></trkpt><trkpt lat="44.57543957624254" lon="8.017849386158009"><ele>573.0</ele><time>2026-04-12T04:35:31.999Z</time></trkpt><trkpt lat="44.57539069365268" lon="8.017938466194796"><ele>573.0</ele><time>2026-04-12T04:35:33.999Z</time></trkpt><trkpt lat="44.57534565757201" lon="8.018015658922767"><ele>573.0</ele><time>2026-04-12T04:35:35.999Z</time></trkpt><trkpt lat="44.57530153782481" lon="8.018122753446637"><ele>574.4</ele><time>2026-04-12T04:35:37.999Z</time></trkpt><trkpt lat="44.57524939157967" lon="8.018231305284186"><ele>575.8</ele><time>2026-04-12T04:35:39.999Z</time></trkpt><trkpt lat="44.57518350444992" lon="8.018318097327901"><ele>577.2</ele><time>2026-04-12T04:35:41.999Z</time></trkpt><trkpt lat="44.57512838199415" lon="8.018428066426756"><ele>578.6</ele><time>2026-04-12T04:35:43.999Z</time></trkpt><trkpt lat="44.57508227337014" lon="8.018529076487019"><ele>580.0</ele><time>2026-04-12T04:35:45.999Z</time></trkpt><trkpt lat="44.57503325310996" lon="8.01864085006672"><ele>580.0</ele><time>2026-04-12T04:35:47.999Z</time></trkpt><trkpt lat="44.574987065384974" lon="8.018759934104558"><ele>580.0</ele><time>2026-04-12T04:35:49.999Z</time></trkpt><trkpt lat="44.57493531452383" lon="8.01888520114352"><ele>580.0</ele><time>2026-04-12T04:35:51.999Z</time></trkpt><trkpt lat="44.57488558216345" lon="8.019018103469811"><ele>580.0</ele><time>2026-04-12T04:35:53.999Z</time></trkpt><trkpt lat="44.57482973002556" lon="8.019144068394372"><ele>580.0</ele><time>2026-04-12T04:35:55.999Z</time></trkpt><trkpt lat="44.57477743778688" lon="8.019278866910994"><ele>578.4</ele><time>2026-04-12T04:35:57.999Z</time></trkpt><trkpt lat="44.5747291096926" lon="8.019426558057681"><ele>576.8</ele><time>2026-04-12T04:36:00Z</time></trkpt><trkpt lat="44.57470084175541" lon="8.019565109940052"><ele>575.2</ele><time>2026-04-12T04:36:02Z</time></trkpt><trkpt lat="44.57466924224811" lon="8.019702202672391"><ele>573.6</ele><time>2026-04-12T04:36:04Z</time></trkpt><trkpt lat="44.574640544036924" lon="8.019842311110054"><ele>572.0</ele><time>2026-04-12T04:36:06Z</time></trkpt><trkpt lat="44.574613025570514" lon="8.019983254187885"><ele>571.6</ele><time>2026-04-12T04:36:08Z</time></trkpt><trkpt lat="44.57459879302952" lon="8.020102830817644"><ele>571.2</ele><time>2026-04-12T04:36:10Z</time></trkpt><trkpt lat="44.574576893094665" lon="8.02023135879085"><ele>570.8</ele><time>2026-04-12T04:36:12Z</time></trkpt><trkpt lat="44.57454754630981" lon="8.020351630749087"><ele>570.4</ele><time>2026-04-12T04:36:14Z</time></trkpt><trkpt lat="44.5745235149605" lon="8.020484352573664"><ele>570.0</ele><time>2026-04-12T04:36:16Z</time></trkpt><trkpt lat="44.57450669269094" lon="8.020627123782289"><ele>571.0</ele><time>2026-04-12T04:36:18Z</time></trkpt><trkpt lat="44.57448461968899" lon="8.020756317815517"><ele>572.0</ele><time>2026-04-12T04:36:20Z</time></trkpt><trkpt lat="44.57445368682892" lon="8.02088718298804"><ele>573.0</ele><time>2026-04-12T04:36:22Z</time></trkpt><trkpt lat="44.57443561888687" lon="8.021033841109428"><ele>574.0</ele><time>2026-04-12T04:36:24Z</time></trkpt><trkpt lat="44.574454765912606" lon="8.021195726197401"><ele>575.0</ele><time>2026-04-12T04:36:26Z</time></trkpt><trkpt lat="44.57449703430066" lon="8.021359162467734"><ele>574.3333333333333</ele><time>2026-04-12T04:36:28Z</time></trkpt><trkpt lat="44.57453567666039" lon="8.021446234330575"><ele>573.6666666666666</ele><time>2026-04-12T04:36:29Z</time></trkpt><trkpt lat="44.57459074028063" lon="8.021514472533823"><ele>573.0</ele><time>2026-04-12T04:36:30Z</time></trkpt><trkpt lat="44.574640523349004" lon="8.021606809738797"><ele>572.3333333333334</ele><time>2026-04-12T04:36:31Z</time></trkpt><trkpt lat="44.5746909347721" lon="8.021683343327455"><ele>571.6666666666667</ele><time>2026-04-12T04:36:32Z</time></trkpt><trkpt lat="44.574736828787834" lon="8.021756605061514"><ele>571.0</ele><time>2026-04-12T04:36:33Z</time></trkpt><trkpt lat="44.57478724509778" lon="8.021838774619056"><ele>570.8571428571429</ele><time>2026-04-12T04:36:34Z</time></trkpt><trkpt lat="44.57483716797468" lon="8.021916313136373"><ele>570.7142857142857</ele><time>2026-04-12T04:36:35Z</time></trkpt><trkpt lat="44.57488083733282" lon="8.021984401739378"><ele>570.5714285714286</ele><time>2026-04-12T04:36:36Z</time></trkpt><trkpt lat="44.5749391011508" lon="8.022059111722974"><ele>570.4285714285714</ele><time>2026-04-12T04:36:37Z</time></trkpt><trkpt lat="44.574971483727495" lon="8.022146222510143"><ele>570.2857142857143</ele><time>2026-04-12T04:36:38Z</time></trkpt><trkpt lat="44.57501618841441" lon="8.022219068060554"><ele>570.1428571428571</ele><time>2026-04-12T04:36:39Z</time></trkpt><trkpt lat="44.575063232064494" lon="8.022296031129974"><ele>570.0</ele><time>2026-04-12T04:36:40Z</time></trkpt><trkpt lat="44.57510874940771" lon="8.022367752796866"><ele>570.0</ele><time>2026-04-12T04:36:41Z</time></trkpt><trkpt lat="44.575156639360216" lon="8.022441852383972"><ele>570.0</ele><time>2026-04-12T04:36:42Z</time></trkpt><trkpt lat="44.57520864885721" lon="8.022522326096318"><ele>570.0</ele><time>2026-04-12T04:36:43Z</time></trkpt><trkpt lat="44.575292659147884" lon="8.022657006928668"><ele>570.0</ele><time>2026-04-12T04:36:45Z</time></trkpt><trkpt lat="44.5753653540063" lon="8.022775594652675"><ele>570.0</ele><time>2026-04-12T04:36:47Z</time></trkpt><trkpt lat="44.57553936385065" lon="8.02279551741876"><ele>567.8</ele><time>2026-04-12T04:36:49Z</time></trkpt><trkpt lat="44.5756100062748" lon="8.022851650364444"><ele>565.6</ele><time>2026-04-12T04:36:50Z</time></trkpt><trkpt lat="44.5756770894116" lon="8.022913596869163"><ele>563.4</ele><time>2026-04-12T04:36:51Z</time></trkpt><trkpt lat="44.57575721009496" lon="8.022984804369973"><ele>561.2</ele><time>2026-04-12T04:36:51.999Z</time></trkpt><trkpt lat="44.57584128060498" lon="8.023059639261263"><ele>559.0</ele><time>2026-04-12T04:36:52.999Z</time></trkpt><trkpt lat="44.57591839638137" lon="8.023139595302704"><ele>559.0</ele><time>2026-04-12T04:36:53.999Z</time></trkpt><trkpt lat="44.57596654128828" lon="8.023246635033587"><ele>559.0</ele><time>2026-04-12T04:36:54.999Z</time></trkpt><trkpt lat="44.57602581339681" lon="8.02335038213655"><ele>559.0</ele><time>2026-04-12T04:36:55.999Z</time></trkpt><trkpt lat="44.576080832692405" lon="8.023454226715753"><ele>559.0</ele><time>2026-04-12T04:36:56.999Z</time></trkpt><trkpt lat="44.57612526021238" lon="8.023554196757422"><ele>559.0</ele><time>2026-04-12T04:36:57.999Z</time></trkpt><trkpt lat="44.57617770941489" lon="8.023645871614132"><ele>559.0</ele><time>2026-04-12T04:36:58.999Z</time></trkpt><trkpt lat="44.57620846866686" lon="8.023758409259834"><ele>557.8</ele><time>2026-04-12T04:36:59.999Z</time></trkpt><trkpt lat="44.57624013209638" lon="8.02388187497301"><ele>556.5999999999999</ele><time>2026-04-12T04:37:00.999Z</time></trkpt><trkpt lat="44.576279560083734" lon="8.024008658685585"><ele>555.4</ele><time>2026-04-12T04:37:01.999Z</time></trkpt><trkpt lat="44.57631831658287" lon="8.024137859411402"><ele>554.1999999999999</ele><time>2026-04-12T04:37:02.999Z</time></trkpt><trkpt lat="44.57635731965022" lon="8.024273480100064"><ele>553.0</ele><time>2026-04-12T04:37:03.999Z</time></trkpt><trkpt lat="44.576393882030054" lon="8.0244021565989"><ele>553.0</ele><time>2026-04-12T04:37:04.999Z</time></trkpt><trkpt lat="44.57642961554538" lon="8.024520192911737"><ele>553.0</ele><time>2026-04-12T04:37:05.999Z</time></trkpt><trkpt lat="44.5764906312065" lon="8.024622832220839"><ele>553.0</ele><time>2026-04-12T04:37:06.999Z</time></trkpt><trkpt lat="44.57654711291985" lon="8.024727797797285"><ele>553.0</ele><time>2026-04-12T04:37:07.999Z</time></trkpt><trkpt lat="44.57658845813865" lon="8.02483422253685"><ele>553.0</ele><time>2026-04-12T04:37:08.999Z</time></trkpt><trkpt lat="44.57662950128265" lon="8.024965991762327"><ele>553.4</ele><time>2026-04-12T04:37:09.999Z</time></trkpt><trkpt lat="44.57666239288119" lon="8.025092708586573"><ele>553.8</ele><time>2026-04-12T04:37:10.999Z</time></trkpt><trkpt lat="44.576693444891674" lon="8.025234385387217"><ele>554.2</ele><time>2026-04-12T04:37:11.999Z</time></trkpt><trkpt lat="44.576713155580975" lon="8.02537471892717"><ele>554.6</ele><time>2026-04-12T04:37:12.999Z</time></trkpt><trkpt lat="44.57671036644102" lon="8.025512340848277"><ele>555.0</ele><time>2026-04-12T04:37:13.999Z</time></trkpt><trkpt lat="44.57672015723325" lon="8.025652530614265"><ele>555.0</ele><time>2026-04-12T04:37:14.999Z</time></trkpt><trkpt lat="44.57674049415781" lon="8.025798054098187"><ele>555.0</ele><time>2026-04-12T04:37:15.999Z</time></trkpt><trkpt lat="44.57678679716727" lon="8.025936258113278"><ele>555.0</ele><time>2026-04-12T04:37:16.999Z</time></trkpt><trkpt lat="44.576816267335225" lon="8.026070037566004"><ele>555.0</ele><time>2026-04-12T04:37:17.999Z</time></trkpt><trkpt lat="44.576843187660884" lon="8.026210885705257"><ele>555.0</ele><time>2026-04-12T04:37:18.999Z</time></trkpt><trkpt lat="44.57686976632602" lon="8.02634415772008"><ele>555.0</ele><time>2026-04-12T04:37:19.999Z</time></trkpt><trkpt lat="44.57689794302116" lon="8.02647547231854"><ele>555.0</ele><time>2026-04-12T04:37:20.999Z</time></trkpt><trkpt lat="44.576928751342095" lon="8.026608359830654"><ele>555.0</ele><time>2026-04-12T04:37:21.999Z</time></trkpt><trkpt lat="44.57697320214295" lon="8.026722426004728"><ele>555.0</ele><time>2026-04-12T04:37:22.999Z</time></trkpt><trkpt lat="44.577005415264836" lon="8.026846320828268"><ele>555.0</ele><time>2026-04-12T04:37:23.999Z</time></trkpt><trkpt lat="44.57703681085993" lon="8.026962993793633"><ele>551.6666666666666</ele><time>2026-04-12T04:37:24.999Z</time></trkpt><trkpt lat="44.577067939679125" lon="8.02706297767237"><ele>548.3333333333334</ele><time>2026-04-12T04:37:25.999Z</time></trkpt><trkpt lat="44.57709086728414" lon="8.02715848566749"><ele>545.0</ele><time>2026-04-12T04:37:26.999Z</time></trkpt><trkpt lat="44.57713039728877" lon="8.027269807273214"><ele>541.6666666666667</ele><time>2026-04-12T04:37:27.999Z</time></trkpt><trkpt lat="44.57717199520886" lon="8.027378945191577"><ele>538.3333333333334</ele><time>2026-04-12T04:37:28.999Z</time></trkpt><trkpt lat="44.57721269175222" lon="8.027475717920359"><ele>535.0</ele><time>2026-04-12T04:37:29.999Z</time></trkpt><trkpt lat="44.57725780848633" lon="8.02756272515896"><ele>535.0</ele><time>2026-04-12T04:37:30.999Z</time></trkpt><trkpt lat="44.57730722023261" lon="8.027621885270225"><ele>535.0</ele><time>2026-04-12T04:37:31.999Z</time></trkpt><trkpt lat="44.57735459184795" lon="8.02769057290188"><ele>535.0</ele><time>2026-04-12T04:37:32.999Z</time></trkpt><trkpt lat="44.57740412361087" lon="8.027807208566612"><ele>535.0</ele><time>2026-04-12T04:37:34.999Z</time></trkpt><trkpt lat="44.577463279886246" lon="8.027918080705408"><ele>535.0</ele><time>2026-04-12T04:37:36.999Z</time></trkpt><trkpt lat="44.57754007868662" lon="8.02801818840103"><ele>535.0</ele><time>2026-04-12T04:37:38.999Z</time></trkpt><trkpt lat="44.57760618062352" lon="8.02813148070181"><ele>535.0</ele><time>2026-04-12T04:37:40.999Z</time></trkpt><trkpt lat="44.57767463344523" lon="8.028237646003152"><ele>535.0</ele><time>2026-04-12T04:37:42.999Z</time></trkpt><trkpt lat="44.57774751494954" lon="8.02834017969029"><ele>535.0</ele><time>2026-04-12T04:37:44.999Z</time></trkpt><trkpt lat="44.57782214289446" lon="8.028456441849526"><ele>535.0</ele><time>2026-04-12T04:37:46.999Z</time></trkpt><trkpt lat="44.577914699682516" lon="8.028560021290962"><ele>535.0</ele><time>2026-04-12T04:37:48.999Z</time></trkpt><trkpt lat="44.578007538063616" lon="8.02865474709102"><ele>534.0</ele><time>2026-04-12T04:37:50.999Z</time></trkpt><trkpt lat="44.57810142599171" lon="8.028747255129442"><ele>533.0</ele><time>2026-04-12T04:37:52.999Z</time></trkpt><trkpt lat="44.57820095489238" lon="8.028848760118414"><ele>532.0</ele><time>2026-04-12T04:37:54.999Z</time></trkpt><trkpt lat="44.578252765401814" lon="8.028902664161084"><ele>531.0</ele><time>2026-04-12T04:37:55.999Z</time></trkpt><trkpt lat="44.57835421261547" lon="8.029011953008554"><ele>530.0</ele><time>2026-04-12T04:37:57.999Z</time></trkpt><trkpt lat="44.578419072768355" lon="8.029054856947754"><ele>530.0</ele><time>2026-04-12T04:37:58.999Z</time></trkpt><trkpt lat="44.578469749215415" lon="8.02911271110669"><ele>530.0</ele><time>2026-04-12T04:37:59.999Z</time></trkpt><trkpt lat="44.57850545626185" lon="8.029190020173697"><ele>530.0</ele><time>2026-04-12T04:38:00.999Z</time></trkpt><trkpt lat="44.5785894143258" lon="8.029320790657364"><ele>530.0</ele><time>2026-04-12T04:38:02.999Z</time></trkpt><trkpt lat="44.57866166552568" lon="8.029451377119951"><ele>530.0</ele><time>2026-04-12T04:38:04.999Z</time></trkpt><trkpt lat="44.578734075886864" lon="8.029565891721864"><ele>529.6</ele><time>2026-04-12T04:38:07Z</time></trkpt><trkpt lat="44.57881603473232" lon="8.02969116167274"><ele>529.2</ele><time>2026-04-12T04:38:09Z</time></trkpt><trkpt lat="44.57887809219247" lon="8.029730078315792"><ele>528.8</ele><time>2026-04-12T04:38:10Z</time></trkpt><trkpt lat="44.57900037757137" lon="8.029776784832533"><ele>528.4</ele><time>2026-04-12T04:38:12Z</time></trkpt><trkpt lat="44.57908624760295" lon="8.029877905673763"><ele>528.0</ele><time>2026-04-12T04:38:14Z</time></trkpt><trkpt lat="44.57917592954684" lon="8.029965782203066"><ele>529.0</ele><time>2026-04-12T04:38:16Z</time></trkpt><trkpt lat="44.57926871146474" lon="8.030046143328242"><ele>530.0</ele><time>2026-04-12T04:38:18Z</time></trkpt><trkpt lat="44.57935004073325" lon="8.030159720747431"><ele>531.0</ele><time>2026-04-12T04:38:20Z</time></trkpt><trkpt lat="44.57939114269442" lon="8.030227433872868"><ele>532.0</ele><time>2026-04-12T04:38:21Z</time></trkpt><trkpt lat="44.57943682065116" lon="8.030302406839809"><ele>533.0</ele><time>2026-04-12T04:38:22Z</time></trkpt><trkpt lat="44.57947541101549" lon="8.030373799249327"><ele>534.0</ele><time>2026-04-12T04:38:23Z</time></trkpt><trkpt lat="44.579517636247644" lon="8.030454024558166"><ele>532.6666666666666</ele><time>2026-04-12T04:38:24Z</time></trkpt><trkpt lat="44.579559325112136" lon="8.03054020761108"><ele>531.3333333333334</ele><time>2026-04-12T04:38:25Z</time></trkpt><trkpt lat="44.579607179687564" lon="8.030623050914121"><ele>530.0</ele><time>2026-04-12T04:38:26Z</time></trkpt><trkpt lat="44.5796558779814" lon="8.030703396069171"><ele>528.6666666666667</ele><time>2026-04-12T04:38:27Z</time></trkpt><trkpt lat="44.579704268457135" lon="8.030785341861714"><ele>527.3333333333334</ele><time>2026-04-12T04:38:28Z</time></trkpt><trkpt lat="44.57975370675679" lon="8.030869351826226"><ele>526.0</ele><time>2026-04-12T04:38:29Z</time></trkpt><trkpt lat="44.57980772987199" lon="8.030948334597593"><ele>526.0</ele><time>2026-04-12T04:38:30Z</time></trkpt><trkpt lat="44.57986422908038" lon="8.031029871995944"><ele>526.0</ele><time>2026-04-12T04:38:31Z</time></trkpt><trkpt lat="44.57991370516655" lon="8.031111712367034"><ele>526.0</ele><time>2026-04-12T04:38:32Z</time></trkpt><trkpt lat="44.57995820757135" lon="8.031200659833859"><ele>526.0</ele><time>2026-04-12T04:38:33Z</time></trkpt><trkpt lat="44.57999234939444" lon="8.031289455587167"><ele>526.0</ele><time>2026-04-12T04:38:34Z</time></trkpt><trkpt lat="44.58000397876785" lon="8.031456947216329"><ele>526.0</ele><time>2026-04-12T04:38:36Z</time></trkpt><trkpt lat="44.579990804443256" lon="8.031585927408225"><ele>527.5</ele><time>2026-04-12T04:38:38Z</time></trkpt><trkpt lat="44.57999939570733" lon="8.031688676246409"><ele>529.0</ele><time>2026-04-12T04:38:40Z</time></trkpt><trkpt lat="44.5799842676348" lon="8.031781244730677"><ele>530.5</ele><time>2026-04-12T04:38:42Z</time></trkpt><trkpt lat="44.57996092644471" lon="8.03191126416849"><ele>532.0</ele><time>2026-04-12T04:38:45Z</time></trkpt><trkpt lat="44.5799502653858" lon="8.032035808896936"><ele>533.5</ele><time>2026-04-12T04:38:48Z</time></trkpt><trkpt lat="44.57992261097606" lon="8.03211566848451"><ele>535.0</ele><time>2026-04-12T04:38:50Z</time></trkpt><trkpt lat="44.579909087330144" lon="8.032237901663112"><ele>535.0</ele><time>2026-04-12T04:38:53Z</time></trkpt><trkpt lat="44.579895968997114" lon="8.032360873673952"><ele>535.0</ele><time>2026-04-12T04:38:56Z</time></trkpt><trkpt lat="44.579898883649605" lon="8.032467616446507"><ele>535.0</ele><time>2026-04-12T04:38:59Z</time></trkpt><trkpt lat="44.57990908887631" lon="8.032569188041334"><ele>535.0</ele><time>2026-04-12T04:39:01.999Z</time></trkpt><trkpt lat="44.57991388442716" lon="8.03268740360369"><ele>535.0</ele><time>2026-04-12T04:39:04.999Z</time></trkpt><trkpt lat="44.57992508043616" lon="8.03280396736966"><ele>535.0</ele><time>2026-04-12T04:39:07.999Z</time></trkpt><trkpt lat="44.57992693733299" lon="8.032919864826079"><ele>535.6666666666667</ele><time>2026-04-12T04:39:10.999Z</time></trkpt><trkpt lat="44.579896564150246" lon="8.033005684231362"><ele>536.3333333333334</ele><time>2026-04-12T04:39:13.999Z</time></trkpt><trkpt lat="44.579868438704054" lon="8.033121893824264"><ele>537.0</ele><time>2026-04-12T04:39:16.999Z</time></trkpt><trkpt lat="44.579874735286985" lon="8.033229756643603"><ele>537.6666666666666</ele><time>2026-04-12T04:39:18.999Z</time></trkpt><trkpt lat="44.57987356659509" lon="8.033336088303697"><ele>538.3333333333333</ele><time>2026-04-12T04:39:20.999Z</time></trkpt><trkpt lat="44.57986982713102" lon="8.033462296168725"><ele>539.0</ele><time>2026-04-12T04:39:22.999Z</time></trkpt><trkpt lat="44.57986207164333" lon="8.03358826470017"><ele>539.4</ele><time>2026-04-12T04:39:24.999Z</time></trkpt><trkpt lat="44.57985033123697" lon="8.033718817810207"><ele>539.8</ele><time>2026-04-12T04:39:26.999Z</time></trkpt><trkpt lat="44.57982606684318" lon="8.033853585541449"><ele>540.2</ele><time>2026-04-12T04:39:28.999Z</time></trkpt><trkpt lat="44.5798014037754" lon="8.033990245635083"><ele>540.6</ele><time>2026-04-12T04:39:30.999Z</time></trkpt><trkpt lat="44.5797718106949" lon="8.034120434042622"><ele>541.0</ele><time>2026-04-12T04:39:32.999Z</time></trkpt><trkpt lat="44.57974205743285" lon="8.034248945165391"><ele>541.0</ele><time>2026-04-12T04:39:34.999Z</time></trkpt><trkpt lat="44.579710106812875" lon="8.0343687468403"><ele>541.0</ele><time>2026-04-12T04:39:36.999Z</time></trkpt><trkpt lat="44.57967955548377" lon="8.034486995379016"><ele>541.0</ele><time>2026-04-12T04:39:38.999Z</time></trkpt><trkpt lat="44.579654467677265" lon="8.034604694948033"><ele>541.0</ele><time>2026-04-12T04:39:40.999Z</time></trkpt><trkpt lat="44.57962461498484" lon="8.034714680405656"><ele>541.0</ele><time>2026-04-12T04:39:42.999Z</time></trkpt><trkpt lat="44.579591838582616" lon="8.034824847418715"><ele>541.0</ele><time>2026-04-12T04:39:44.999Z</time></trkpt><trkpt lat="44.579573856986826" lon="8.034924398418399"><ele>540.3333333333334</ele><time>2026-04-12T04:39:46.999Z</time></trkpt><trkpt lat="44.57954719855331" lon="8.035023035418652"><ele>539.6666666666667</ele><time>2026-04-12T04:39:48.999Z</time></trkpt><trkpt lat="44.57951535203526" lon="8.035111504856804"><ele>539.0</ele><time>2026-04-12T04:39:50.999Z</time></trkpt><trkpt lat="44.57949674895855" lon="8.035204488570374"><ele>538.3333333333334</ele><time>2026-04-12T04:39:52.999Z</time></trkpt><trkpt lat="44.57946864311009" lon="8.035321708200044"><ele>537.6666666666666</ele><time>2026-04-12T04:39:55.999Z</time></trkpt><trkpt lat="44.579434594791735" lon="8.035425462118578"><ele>537.0</ele><time>2026-04-12T04:39:58.999Z</time></trkpt><trkpt lat="44.57938943343076" lon="8.035532178987776"><ele>538.1428571428571</ele><time>2026-04-12T04:40:01.999Z</time></trkpt><trkpt lat="44.57931897161447" lon="8.03557857122686"><ele>539.2857142857142</ele><time>2026-04-12T04:40:04.999Z</time></trkpt><trkpt lat="44.57924453001317" lon="8.03558391689722"><ele>540.4285714285714</ele><time>2026-04-12T04:40:07.999Z</time></trkpt><trkpt lat="44.57918012412604" lon="8.035573801826"><ele>541.5714285714286</ele><time>2026-04-12T04:40:11Z</time></trkpt><trkpt lat="44.5791102129274" lon="8.03554804543722"><ele>542.7142857142858</ele><time>2026-04-12T04:40:14Z</time></trkpt><trkpt lat="44.579039751675595" lon="8.035526893011594"><ele>543.8571428571429</ele><time>2026-04-12T04:40:17Z</time></trkpt><trkpt lat="44.57897032204853" lon="8.035488677321878"><ele>545.0</ele><time>2026-04-12T04:40:20Z</time></trkpt><trkpt lat="44.57889869635493" lon="8.035473969011335"><ele>545.0</ele><time>2026-04-12T04:40:23Z</time></trkpt><trkpt lat="44.57883300540535" lon="8.035450692508526"><ele>545.0</ele><time>2026-04-12T04:40:26Z</time></trkpt><trkpt lat="44.578766206571494" lon="8.035420490346603"><ele>545.0</ele><time>2026-04-12T04:40:29Z</time></trkpt><trkpt lat="44.57869616884099" lon="8.035400100865353"><ele>545.0</ele><time>2026-04-12T04:40:32Z</time></trkpt><trkpt lat="44.5786087568082" lon="8.035375556636943"><ele>545.0</ele><time>2026-04-12T04:40:36Z</time></trkpt><trkpt lat="44.57853045009189" lon="8.035339674307169"><ele>545.0</ele><time>2026-04-12T04:40:40Z</time></trkpt><trkpt lat="44.57845809412621" lon="8.03532386219244"><ele>545.8571428571429</ele><time>2026-04-12T04:40:43Z</time></trkpt><trkpt lat="44.578388429853916" lon="8.035294242865188"><ele>546.7142857142858</ele><time>2026-04-12T04:40:46Z</time></trkpt><trkpt lat="44.57830145072814" lon="8.03529175421459"><ele>547.5714285714286</ele><time>2026-04-12T04:40:49Z</time></trkpt><trkpt lat="44.57824392519708" lon="8.035242340813634"><ele>548.4285714285714</ele><time>2026-04-12T04:40:52Z</time></trkpt><trkpt lat="44.57817707447103" lon="8.035217500927645"><ele>549.2857142857142</ele><time>2026-04-12T04:40:55Z</time></trkpt><trkpt lat="44.578110783653756" lon="8.035205140397723"><ele>550.1428571428571</ele><time>2026-04-12T04:40:58Z</time></trkpt><trkpt lat="44.57804194790736" lon="8.035183782338061"><ele>551.0</ele><time>2026-04-12T04:41:00.999Z</time></trkpt><trkpt lat="44.577975481365456" lon="8.035158550648054"><ele>550.9999999999999</ele><time>2026-04-12T04:41:03.999Z</time></trkpt><trkpt lat="44.57790406481079" lon="8.03515815250867"><ele>551.0</ele><time>2026-04-12T04:41:06.999Z</time></trkpt><trkpt lat="44.577832782510214" lon="8.035164231154042"><ele>551.0</ele><time>2026-04-12T04:41:09.999Z</time></trkpt><trkpt lat="44.577764095087495" lon="8.035192297935067"><ele>551.0</ele><time>2026-04-12T04:41:12.999Z</time></trkpt><trkpt lat="44.57770464139704" lon="8.035247402217697"><ele>551.0</ele><time>2026-04-12T04:41:15.999Z</time></trkpt><trkpt lat="44.57765872690127" lon="8.035326989989132"><ele>550.9999999999999</ele><time>2026-04-12T04:41:19.999Z</time></trkpt><trkpt lat="44.57763374055154" lon="8.035412916753405"><ele>551.0</ele><time>2026-04-12T04:41:22.999Z</time></trkpt><trkpt lat="44.57761592089508" lon="8.035530298239028"><ele>551.2857142857142</ele><time>2026-04-12T04:41:25.999Z</time></trkpt><trkpt lat="44.57759571547372" lon="8.035626010656806"><ele>551.5714285714286</ele><time>2026-04-12T04:41:28.999Z</time></trkpt><trkpt lat="44.57758172089001" lon="8.035746978192682"><ele>551.8571428571429</ele><time>2026-04-12T04:41:32.999Z</time></trkpt><trkpt lat="44.57759152315646" lon="8.035839324866082"><ele>552.1428571428571</ele><time>2026-04-12T04:41:35.999Z</time></trkpt><trkpt lat="44.57759116098384" lon="8.03593419391623"><ele>552.4285714285714</ele><time>2026-04-12T04:41:38.999Z</time></trkpt><trkpt lat="44.57760482822321" lon="8.036030882127697"><ele>552.7142857142857</ele><time>2026-04-12T04:41:41.999Z</time></trkpt><trkpt lat="44.57760854437611" lon="8.036132961763405"><ele>553.0</ele><time>2026-04-12T04:41:45.999Z</time></trkpt><trkpt lat="44.577624109938554" lon="8.036236722560501"><ele>553.0</ele><time>2026-04-12T04:41:52.999Z</time></trkpt><trkpt lat="44.57763431039369" lon="8.036102409449281"><ele>553.0</ele><time>2026-04-12T04:41:56.999Z</time></trkpt><trkpt lat="44.57760565340971" lon="8.035987529605906"><ele>553.0</ele><time>2026-04-12T04:41:58.999Z</time></trkpt><trkpt lat="44.57759156819645" lon="8.035856434290618"><ele>553.0</ele><time>2026-04-12T04:42:00.999Z</time></trkpt><trkpt lat="44.577583233052806" lon="8.035727373138997"><ele>553.0</ele><time>2026-04-12T04:42:02.999Z</time></trkpt><trkpt lat="44.57759535000593" lon="8.035600910925321"><ele>552.6</ele><time>2026-04-12T04:42:04.999Z</time></trkpt><trkpt lat="44.577627945920305" lon="8.035461955116617"><ele>552.1999999999999</ele><time>2026-04-12T04:42:06.999Z</time></trkpt><trkpt lat="44.57766375761652" lon="8.035340492880458"><ele>551.8</ele><time>2026-04-12T04:42:08.999Z</time></trkpt><trkpt lat="44.577728488132216" lon="8.03523159844234"><ele>551.4</ele><time>2026-04-12T04:42:10.999Z</time></trkpt><trkpt lat="44.5778113687287" lon="8.035176011831036"><ele>551.0</ele><time>2026-04-12T04:42:12.999Z</time></trkpt><trkpt lat="44.57792685497006" lon="8.035163164363855"><ele>551.0</ele><time>2026-04-12T04:42:14.999Z</time></trkpt><trkpt lat="44.577982214837505" lon="8.035213349603524"><ele>551.0</ele><time>2026-04-12T04:42:17Z</time></trkpt><trkpt lat="44.57790915198989" lon="8.035092259131615"><ele>551.0</ele><time>2026-04-12T04:42:23Z</time></trkpt><trkpt lat="44.57782826609444" lon="8.035079031541045"><ele>551.0</ele><time>2026-04-12T04:42:25Z</time></trkpt><trkpt lat="44.57773827564181" lon="8.035091659834332"><ele>551.0</ele><time>2026-04-12T04:42:27Z</time></trkpt><trkpt lat="44.57766902269445" lon="8.035138355460768"><ele>551.0</ele><time>2026-04-12T04:42:29Z</time></trkpt><trkpt lat="44.57761499183768" lon="8.035195018800577"><ele>549.5</ele><time>2026-04-12T04:42:32Z</time></trkpt><trkpt lat="44.577570778153664" lon="8.035287240455078"><ele>548.0</ele><time>2026-04-12T04:42:36Z</time></trkpt><trkpt lat="44.577533908475246" lon="8.035378523768857"><ele>546.5</ele><time>2026-04-12T04:42:38Z</time></trkpt><trkpt lat="44.57748140383031" lon="8.035463628635402"><ele>545.0</ele><time>2026-04-12T04:42:40Z</time></trkpt><trkpt lat="44.57742500690637" lon="8.03554293009447"><ele>543.5</ele><time>2026-04-12T04:42:54Z</time></trkpt><trkpt lat="44.57739282989812" lon="8.035632808669147"><ele>542.0</ele><time>2026-04-12T04:43:19.999Z</time></trkpt><trkpt lat="44.57736623282743" lon="8.035750810852079"><ele>543.8333333333333</ele><time>2026-04-12T04:43:22.999Z</time></trkpt><trkpt lat="44.57734371507331" lon="8.035858522203984"><ele>545.6666666666666</ele><time>2026-04-12T04:43:25.999Z</time></trkpt><trkpt lat="44.57733066227994" lon="8.035976775929942"><ele>547.5</ele><time>2026-04-12T04:43:28.999Z</time></trkpt><trkpt lat="44.5773123107626" lon="8.036091520187089"><ele>549.3333333333334</ele><time>2026-04-12T04:43:30.999Z</time></trkpt><trkpt lat="44.5772893018096" lon="8.036220891565938"><ele>551.1666666666667</ele><time>2026-04-12T04:43:32.999Z</time></trkpt><trkpt lat="44.57726799027269" lon="8.036321155545203"><ele>553.0</ele><time>2026-04-12T04:43:34.999Z</time></trkpt><trkpt lat="44.57723277735921" lon="8.03642419794144"><ele>553.0</ele><time>2026-04-12T04:43:37.999Z</time></trkpt><trkpt lat="44.577206138468526" lon="8.036543228318909"><ele>553.0</ele><time>2026-04-12T04:43:40.999Z</time></trkpt><trkpt lat="44.57719783892027" lon="8.036635662103542"><ele>553.0</ele><time>2026-04-12T04:43:42.999Z</time></trkpt><trkpt lat="44.57717373306851" lon="8.036744102293467"><ele>553.0</ele><time>2026-04-12T04:43:44.999Z</time></trkpt><trkpt lat="44.577183938005156" lon="8.036843960981903"><ele>553.0</ele><time>2026-04-12T04:43:46.999Z</time></trkpt><trkpt lat="44.57714117335604" lon="8.036980145718754"><ele>553.0</ele><time>2026-04-12T04:43:48.999Z</time></trkpt><trkpt lat="44.577116541442514" lon="8.037066455693385"><ele>553.0</ele><time>2026-04-12T04:43:49.999Z</time></trkpt><trkpt lat="44.577085247134214" lon="8.037190595060933"><ele>553.0</ele><time>2026-04-12T04:43:51.999Z</time></trkpt><trkpt lat="44.577019050337206" lon="8.037276206410475"><ele>553.0</ele><time>2026-04-12T04:43:53.999Z</time></trkpt><trkpt lat="44.576962582465065" lon="8.037346158972843"><ele>553.0</ele><time>2026-04-12T04:43:56.999Z</time></trkpt><trkpt lat="44.576903759622624" lon="8.037464970561956"><ele>553.0</ele><time>2026-04-12T04:43:58.999Z</time></trkpt><trkpt lat="44.57685778958251" lon="8.037559158904036"><ele>553.0</ele><time>2026-04-12T04:44:00.999Z</time></trkpt><trkpt lat="44.57680963981329" lon="8.03767888443969"><ele>547.8</ele><time>2026-04-12T04:44:02.999Z</time></trkpt><trkpt lat="44.57675016688012" lon="8.037802999930811"><ele>542.5999999999999</ele><time>2026-04-12T04:44:04.999Z</time></trkpt><trkpt lat="44.57668347102598" lon="8.03791872018633"><ele>537.4000000000001</ele><time>2026-04-12T04:44:06.999Z</time></trkpt><trkpt lat="44.57661914661648" lon="8.038035323519573"><ele>532.2</ele><time>2026-04-12T04:44:08.999Z</time></trkpt><trkpt lat="44.5765706242208" lon="8.038151907035013"><ele>527.0</ele><time>2026-04-12T04:44:10.999Z</time></trkpt><trkpt lat="44.57656443081344" lon="8.03824261076663"><ele>528.5</ele><time>2026-04-12T04:44:12.999Z</time></trkpt><trkpt lat="44.57653248457719" lon="8.038335228409178"><ele>530.0</ele><time>2026-04-12T04:44:14.999Z</time></trkpt><trkpt lat="44.576484137972706" lon="8.038462520421152"><ele>531.5</ele><time>2026-04-12T04:44:16.999Z</time></trkpt><trkpt lat="44.57641103632954" lon="8.038552484637924"><ele>533.0</ele><time>2026-04-12T04:44:18.999Z</time></trkpt><trkpt lat="44.57635134733434" lon="8.038661338666365"><ele>534.5</ele><time>2026-04-12T04:44:20.999Z</time></trkpt><trkpt lat="44.576303358910216" lon="8.038724361514678"><ele>536.0</ele><time>2026-04-12T04:44:21.999Z</time></trkpt><trkpt lat="44.576232046467545" lon="8.038851052820803"><ele>533.8</ele><time>2026-04-12T04:44:24Z</time></trkpt><trkpt lat="44.57617263949318" lon="8.038947567336551"><ele>531.6</ele><time>2026-04-12T04:44:26Z</time></trkpt><trkpt lat="44.57612543617675" lon="8.039079521356305"><ele>529.4</ele><time>2026-04-12T04:44:28Z</time></trkpt><trkpt lat="44.57605881551961" lon="8.039202192370878"><ele>527.2</ele><time>2026-04-12T04:44:30Z</time></trkpt><trkpt lat="44.576037602719914" lon="8.03929099979698"><ele>525.0</ele><time>2026-04-12T04:44:31Z</time></trkpt><trkpt lat="44.575933970567625" lon="8.039388822344495"><ele>524.6666666666666</ele><time>2026-04-12T04:44:33Z</time></trkpt><trkpt lat="44.57584822771483" lon="8.039435835156777"><ele>524.3333333333334</ele><time>2026-04-12T04:44:35Z</time></trkpt><trkpt lat="44.57578437731781" lon="8.03947980698402"><ele>524.0</ele><time>2026-04-12T04:44:37Z</time></trkpt><trkpt lat="44.57572052553601" lon="8.03954334585509"><ele>523.6666666666667</ele><time>2026-04-12T04:44:39Z</time></trkpt><trkpt lat="44.57565141581143" lon="8.039600698784499"><ele>523.3333333333334</ele><time>2026-04-12T04:44:41Z</time></trkpt><trkpt lat="44.575604291104796" lon="8.039676461644719"><ele>523.0</ele><time>2026-04-12T04:44:43Z</time></trkpt><trkpt lat="44.5755557293403" lon="8.0397482499402"><ele>523.0</ele><time>2026-04-12T04:44:45Z</time></trkpt><trkpt lat="44.57551803263834" lon="8.039848123633444"><ele>523.0</ele><time>2026-04-12T04:44:48Z</time></trkpt><trkpt lat="44.575482852778535" lon="8.039930710692309"><ele>523.0</ele><time>2026-04-12T04:44:49Z</time></trkpt><trkpt lat="44.57541639295627" lon="8.040025042299561"><ele>523.0</ele><time>2026-04-12T04:44:51Z</time></trkpt><trkpt lat="44.575359837185246" lon="8.040115146483801"><ele>523.0</ele><time>2026-04-12T04:44:53Z</time></trkpt><trkpt lat="44.57531220955348" lon="8.040216041079967"><ele>523.0</ele><time>2026-04-12T04:44:55Z</time></trkpt><trkpt lat="44.57525911311986" lon="8.040310551459402"><ele>524.8333333333334</ele><time>2026-04-12T04:44:58Z</time></trkpt><trkpt lat="44.57520538944162" lon="8.0403877501253"><ele>526.6666666666667</ele><time>2026-04-12T04:45:02Z</time></trkpt><trkpt lat="44.5751691033614" lon="8.040471617552837"><ele>528.5</ele><time>2026-04-12T04:45:04Z</time></trkpt><trkpt lat="44.57515349095913" lon="8.040570651336274"><ele>530.3333333333334</ele><time>2026-04-12T04:45:09Z</time></trkpt><trkpt lat="44.575109002800914" lon="8.040675435456324"><ele>532.1666666666666</ele><time>2026-04-12T04:45:11.999Z</time></trkpt><trkpt lat="44.57505561303929" lon="8.040751240113417"><ele>534.0</ele><time>2026-04-12T04:45:14.999Z</time></trkpt><trkpt lat="44.57502413578738" lon="8.04083648726411"><ele>534.0000000000001</ele><time>2026-04-12T04:45:19.999Z</time></trkpt><trkpt lat="44.57496650647935" lon="8.040886484250569"><ele>534.0</ele><time>2026-04-12T04:45:25.999Z</time></trkpt><trkpt lat="44.57490843350924" lon="8.040929120073598"><ele>534.0</ele><time>2026-04-12T04:47:03Z</time></trkpt><trkpt lat="44.57485745074672" lon="8.040996565914233"><ele>534.0</ele><time>2026-04-12T04:47:13Z</time></trkpt><trkpt lat="44.574842577135975" lon="8.041094343000887"><ele>534.0</ele><time>2026-04-12T04:47:19Z</time></trkpt><trkpt lat="44.574813046027835" lon="8.041182563823993"><ele>534.0000000000001</ele><time>2026-04-12T04:47:23.999Z</time></trkpt><trkpt lat="44.5747807597753" lon="8.041271872491432"><ele>534.0</ele><time>2026-04-12T04:47:30.999Z</time></trkpt><trkpt lat="44.574743168794775" lon="8.041200979850075"><ele>534.0000000000001</ele><time>2026-04-12T04:47:51.999Z</time></trkpt><trkpt lat="44.57475717664016" lon="8.04108523958007"><ele>534.0</ele><time>2026-04-12T04:47:57.999Z</time></trkpt><trkpt lat="44.57476245589249" lon="8.040992141302947"><ele>534.0</ele><time>2026-04-12T04:48:01.999Z</time></trkpt><trkpt lat="44.57479701566926" lon="8.040910298428244"><ele>534.0</ele><time>2026-04-12T04:48:05.999Z</time></trkpt><trkpt lat="44.574818050938845" lon="8.040822723041803"><ele>534.0</ele><time>2026-04-12T04:48:09.999Z</time></trkpt><trkpt lat="44.57485185503416" lon="8.040729000031138"><ele>534.0000000000001</ele><time>2026-04-12T04:48:13.999Z</time></trkpt><trkpt lat="44.57487967276572" lon="8.040629580561117"><ele>534.0</ele><time>2026-04-12T04:48:18.999Z</time></trkpt><trkpt lat="44.574884896629385" lon="8.040513878720148"><ele>534.2857142857143</ele><time>2026-04-12T04:48:23.999Z</time></trkpt><trkpt lat="44.5749062167987" lon="8.04041913291952"><ele>534.5714285714286</ele><time>2026-04-12T04:48:26.999Z</time></trkpt><trkpt lat="44.57488898581146" lon="8.040316992418015"><ele>534.8571428571429</ele><time>2026-04-12T04:48:30.999Z</time></trkpt><trkpt lat="44.5748995320406" lon="8.04022947031983"><ele>535.1428571428571</ele><time>2026-04-12T04:48:33.999Z</time></trkpt><trkpt lat="44.574891320839214" lon="8.040119472172728"><ele>535.4285714285714</ele><time>2026-04-12T04:48:39Z</time></trkpt><trkpt lat="44.57489764300823" lon="8.040024525729498"><ele>535.7142857142858</ele><time>2026-04-12T04:48:43Z</time></trkpt><trkpt lat="44.57488093771359" lon="8.039933392516533"><ele>536.0</ele><time>2026-04-12T04:48:49Z</time></trkpt><trkpt lat="44.57487890674511" lon="8.039833142635304"><ele>536.0</ele><time>2026-04-12T04:48:54Z</time></trkpt><trkpt lat="44.57483487391342" lon="8.039755358683722"><ele>536.0</ele><time>2026-04-12T04:48:58Z</time></trkpt><trkpt lat="44.57476387371493" lon="8.039717105947071"><ele>536.0</ele><time>2026-04-12T04:49:06Z</time></trkpt><trkpt lat="44.57469064338221" lon="8.039726825021901"><ele>536.0</ele><time>2026-04-12T04:49:12Z</time></trkpt><trkpt lat="44.5746300219633" lon="8.039656917687912"><ele>536.0</ele><time>2026-04-12T04:49:19Z</time></trkpt><trkpt lat="44.574634889373236" lon="8.039565722938894"><ele>536.0</ele><time>2026-04-12T04:49:25Z</time></trkpt><trkpt lat="44.57464293049401" lon="8.039476000150923"><ele>536.0</ele><time>2026-04-12T04:49:29.999Z</time></trkpt><trkpt lat="44.5746464677431" lon="8.039385765191685"><ele>536.0</ele><time>2026-04-12T04:49:33.999Z</time></trkpt><trkpt lat="44.574665573846524" lon="8.03929890826553"><ele>536.0</ele><time>2026-04-12T04:49:38.999Z</time></trkpt><trkpt lat="44.57463315183956" lon="8.03922272259211"><ele>536.0</ele><time>2026-04-12T04:49:43.999Z</time></trkpt><trkpt lat="44.57464769005333" lon="8.039125663422373"><ele>536.0</ele><time>2026-04-12T04:49:47.999Z</time></trkpt><trkpt lat="44.57463763518727" lon="8.039029613389237"><ele>536.0</ele><time>2026-04-12T04:49:54.999Z</time></trkpt><trkpt lat="44.57463837499856" lon="8.038918765345223"><ele>536.0</ele><time>2026-04-12T04:49:58.999Z</time></trkpt><trkpt lat="44.57464838505996" lon="8.038825337964047"><ele>536.0</ele><time>2026-04-12T04:50:02.999Z</time></trkpt><trkpt lat="44.57469433860627" lon="8.038720747188282"><ele>536.0</ele><time>2026-04-12T04:50:05.999Z</time></trkpt><trkpt lat="44.574750207957564" lon="8.038627383011647"><ele>536.0</ele><time>2026-04-12T04:50:07.999Z</time></trkpt><trkpt lat="44.57480937165899" lon="8.038527692115329"><ele>536.0</ele><time>2026-04-12T04:50:09.999Z</time></trkpt><trkpt lat="44.574839840437456" lon="8.038429385536187"><ele>536.0</ele><time>2026-04-12T04:50:11.999Z</time></trkpt><trkpt lat="44.5748576524129" lon="8.038296025057262"><ele>536.0</ele><time>2026-04-12T04:50:13.999Z</time></trkpt><trkpt lat="44.574847585035236" lon="8.038172371948624"><ele>536.0</ele><time>2026-04-12T04:50:15.999Z</time></trkpt><trkpt lat="44.57483416221427" lon="8.038041239411399"><ele>535.8333333333333</ele><time>2026-04-12T04:50:17.999Z</time></trkpt><trkpt lat="44.57480520030726" lon="8.03792844921286"><ele>535.6666666666666</ele><time>2026-04-12T04:50:19.999Z</time></trkpt><trkpt lat="44.57477978179796" lon="8.037819322753698"><ele>535.5</ele><time>2026-04-12T04:50:21.999Z</time></trkpt><trkpt lat="44.57472242307266" lon="8.037727468330345"><ele>535.3333333333334</ele><time>2026-04-12T04:50:24.999Z</time></trkpt><trkpt lat="44.574687532026445" lon="8.03764514148945"><ele>535.1666666666667</ele><time>2026-04-12T04:50:27.999Z</time></trkpt><trkpt lat="44.57464855584707" lon="8.037554319083693"><ele>535.0</ele><time>2026-04-12T04:50:31.999Z</time></trkpt><trkpt lat="44.57461292126549" lon="8.037479045700778"><ele>534.8333333333334</ele><time>2026-04-12T04:50:34.999Z</time></trkpt><trkpt lat="44.574570939866334" lon="8.037378638888814"><ele>534.6666666666667</ele><time>2026-04-12T04:50:38.999Z</time></trkpt><trkpt lat="44.57453834356037" lon="8.037289751854718"><ele>534.5</ele><time>2026-04-12T04:50:42Z</time></trkpt><trkpt lat="44.574492645128" lon="8.037192277563696"><ele>534.3333333333334</ele><time>2026-04-12T04:50:45Z</time></trkpt><trkpt lat="44.574457719005814" lon="8.037114809446303"><ele>534.1666666666666</ele><time>2026-04-12T04:50:48Z</time></trkpt><trkpt lat="44.574412803785776" lon="8.037026326923444"><ele>534.0</ele><time>2026-04-12T04:50:51Z</time></trkpt><trkpt lat="44.574352987320225" lon="8.036935242754671"><ele>536.0</ele><time>2026-04-12T04:50:55Z</time></trkpt><trkpt lat="44.574302838765185" lon="8.03684277828831"><ele>538.0</ele><time>2026-04-12T04:50:59Z</time></trkpt><trkpt lat="44.574265538647616" lon="8.03674824618956"><ele>540.0</ele><time>2026-04-12T04:51:03Z</time></trkpt><trkpt lat="44.57422848861196" lon="8.03666468813989"><ele>542.0</ele><time>2026-04-12T04:51:07Z</time></trkpt><trkpt lat="44.57417350594146" lon="8.036570815562593"><ele>544.0</ele><time>2026-04-12T04:51:11Z</time></trkpt><trkpt lat="44.574121872617724" lon="8.036472969184148"><ele>546.0</ele><time>2026-04-12T04:51:15Z</time></trkpt><trkpt lat="44.574084220018456" lon="8.036358658003772"><ele>545.6666666666666</ele><time>2026-04-12T04:51:18Z</time></trkpt><trkpt lat="44.57405481463934" lon="8.036271065925208"><ele>545.3333333333334</ele><time>2026-04-12T04:51:21Z</time></trkpt><trkpt lat="44.574053101638015" lon="8.036147841372722"><ele>545.0</ele><time>2026-04-12T04:51:25Z</time></trkpt><trkpt lat="44.57405828108599" lon="8.036036630200524"><ele>544.6666666666667</ele><time>2026-04-12T04:51:28Z</time></trkpt><trkpt lat="44.57405281056433" lon="8.035930115961172"><ele>544.3333333333334</ele><time>2026-04-12T04:51:31Z</time></trkpt><trkpt lat="44.57402908951281" lon="8.035834941439356"><ele>544.0</ele><time>2026-04-12T04:51:33.999Z</time></trkpt><trkpt lat="44.57400691123215" lon="8.035743510946912"><ele>544.0</ele><time>2026-04-12T04:51:37.999Z</time></trkpt><trkpt lat="44.5739760970428" lon="8.035619774626051"><ele>544.0</ele><time>2026-04-12T04:51:40.999Z</time></trkpt><trkpt lat="44.573959577535476" lon="8.035510516806175"><ele>544.0</ele><time>2026-04-12T04:51:42.999Z</time></trkpt><trkpt lat="44.57395586615842" lon="8.035407629826226"><ele>544.0</ele><time>2026-04-12T04:51:44.999Z</time></trkpt><trkpt lat="44.57396590101906" lon="8.035289198355898"><ele>544.0</ele><time>2026-04-12T04:51:46.999Z</time></trkpt><trkpt lat="44.57398112167919" lon="8.035200368396978"><ele>544.0</ele><time>2026-04-12T04:51:48.999Z</time></trkpt><trkpt lat="44.57400024199301" lon="8.035108747803669"><ele>544.0</ele><time>2026-04-12T04:51:50.999Z</time></trkpt><trkpt lat="44.57402233049017" lon="8.034996544040325"><ele>544.0</ele><time>2026-04-12T04:51:52.999Z</time></trkpt><trkpt lat="44.574013557395034" lon="8.034894435873746"><ele>544.0</ele><time>2026-04-12T04:51:54.999Z</time></trkpt><trkpt lat="44.57401529435159" lon="8.034774268796626"><ele>544.0</ele><time>2026-04-12T04:51:57.999Z</time></trkpt><trkpt lat="44.57401091907699" lon="8.034682404865856"><ele>544.0</ele><time>2026-04-12T04:51:59.999Z</time></trkpt><trkpt lat="44.574007550572006" lon="8.034590775228008"><ele>544.0</ele><time>2026-04-12T04:52:01.999Z</time></trkpt><trkpt lat="44.5739988254721" lon="8.034475035307613"><ele>543.0</ele><time>2026-04-12T04:52:04.999Z</time></trkpt><trkpt lat="44.57398014262501" lon="8.034365839716902"><ele>542.0</ele><time>2026-04-12T04:52:15.999Z</time></trkpt><trkpt lat="44.573940221198534" lon="8.034247231154879"><ele>541.0</ele><time>2026-04-12T04:52:18.999Z</time></trkpt><trkpt lat="44.57391519790742" lon="8.034152395635692"><ele>540.0</ele><time>2026-04-12T04:52:21.999Z</time></trkpt><trkpt lat="44.573922298645535" lon="8.034023171583298"><ele>539.0</ele><time>2026-04-12T04:52:23.999Z</time></trkpt><trkpt lat="44.57387114687219" lon="8.033904375813108"><ele>538.0</ele><time>2026-04-12T04:52:25.999Z</time></trkpt><trkpt lat="44.573830736063584" lon="8.033808831201283"><ele>536.3333333333334</ele><time>2026-04-12T04:52:27.999Z</time></trkpt><trkpt lat="44.57380037314651" lon="8.033714617531707"><ele>534.6666666666667</ele><time>2026-04-12T04:52:29.999Z</time></trkpt><trkpt lat="44.573747638272714" lon="8.033626847423193"><ele>533.0</ele><time>2026-04-12T04:52:32.999Z</time></trkpt><trkpt lat="44.573674984946656" lon="8.033565115925914"><ele>531.3333333333334</ele><time>2026-04-12T04:52:35.999Z</time></trkpt><trkpt lat="44.57361146252351" lon="8.033487658638066"><ele>529.6666666666666</ele><time>2026-04-12T04:52:39.999Z</time></trkpt><trkpt lat="44.57356493883159" lon="8.033395291129864"><ele>528.0</ele><time>2026-04-12T04:52:43.999Z</time></trkpt><trkpt lat="44.57351838373382" lon="8.033316211708787"><ele>528.3333333333334</ele><time>2026-04-12T04:52:47Z</time></trkpt><trkpt lat="44.57345579753033" lon="8.03324067249563"><ele>528.6666666666666</ele><time>2026-04-12T04:52:51Z</time></trkpt><trkpt lat="44.57340491767538" lon="8.03311921995574"><ele>529.0</ele><time>2026-04-12T04:52:54Z</time></trkpt><trkpt lat="44.57334319409336" lon="8.033034677332648"><ele>529.3333333333333</ele><time>2026-04-12T04:52:57Z</time></trkpt><trkpt lat="44.57330189213431" lon="8.032955176704952"><ele>529.6666666666666</ele><time>2026-04-12T04:53:00Z</time></trkpt><trkpt lat="44.57325839556929" lon="8.032869160561152"><ele>530.0</ele><time>2026-04-12T04:53:35Z</time></trkpt><trkpt lat="44.57320456248755" lon="8.032805187789588"><ele>530.0</ele><time>2026-04-12T04:54:24.999Z</time></trkpt><trkpt lat="44.573142561498614" lon="8.032720510918772"><ele>530.0</ele><time>2026-04-12T04:54:26.999Z</time></trkpt><trkpt lat="44.573076955416965" lon="8.032643143773235"><ele>530.0</ele><time>2026-04-12T04:54:28.999Z</time></trkpt><trkpt lat="44.573005671051845" lon="8.032553385609383"><ele>530.0</ele><time>2026-04-12T04:54:31.999Z</time></trkpt><trkpt lat="44.572941585820686" lon="8.032470578519083"><ele>530.0</ele><time>2026-04-12T04:54:33.999Z</time></trkpt><trkpt lat="44.572867276511886" lon="8.032392821092282"><ele>530.0</ele><time>2026-04-12T04:54:35.999Z</time></trkpt><trkpt lat="44.5728070333943" lon="8.032325741404557"><ele>530.1666666666666</ele><time>2026-04-12T04:54:37.999Z</time></trkpt><trkpt lat="44.572742484259464" lon="8.032262762662816"><ele>530.3333333333333</ele><time>2026-04-12T04:54:39.999Z</time></trkpt><trkpt lat="44.5726866679404" lon="8.032214820925534"><ele>530.5</ele><time>2026-04-12T04:54:41.999Z</time></trkpt><trkpt lat="44.57262065548673" lon="8.032145099833063"><ele>530.6666666666666</ele><time>2026-04-12T04:54:44.999Z</time></trkpt><trkpt lat="44.57254803945877" lon="8.03207157457578"><ele>530.8333333333334</ele><time>2026-04-12T04:54:47.999Z</time></trkpt><trkpt lat="44.57248122363974" lon="8.03200661071715"><ele>531.0</ele><time>2026-04-12T04:54:50.999Z</time></trkpt><trkpt lat="44.572422219899494" lon="8.031949440392347"><ele>531.0</ele><time>2026-04-12T04:54:54Z</time></trkpt><trkpt lat="44.57236247688903" lon="8.031904012283738"><ele>531.0</ele><time>2026-04-12T04:54:57Z</time></trkpt><trkpt lat="44.57229698624485" lon="8.03186562644262"><ele>531.0</ele><time>2026-04-12T04:55:00Z</time></trkpt><trkpt lat="44.57223817004809" lon="8.031829757979306"><ele>531.0</ele><time>2026-04-12T04:55:03Z</time></trkpt><trkpt lat="44.57217315791894" lon="8.031785966839518"><ele>531.0</ele><time>2026-04-12T04:55:06Z</time></trkpt><trkpt lat="44.572107404929554" lon="8.03175481664128"><ele>531.0</ele><time>2026-04-12T04:55:09Z</time></trkpt><trkpt lat="44.572026745979194" lon="8.031738641873918"><ele>531.0</ele><time>2026-04-12T04:55:12Z</time></trkpt><trkpt lat="44.57195110240353" lon="8.031729427210186"><ele>531.0</ele><time>2026-04-12T04:55:15Z</time></trkpt><trkpt lat="44.57187250857675" lon="8.031713229380642"><ele>531.0</ele><time>2026-04-12T04:55:18Z</time></trkpt><trkpt lat="44.57179862981277" lon="8.031696631711903"><ele>531.0</ele><time>2026-04-12T04:55:22Z</time></trkpt><trkpt lat="44.571728960936724" lon="8.031675766869995"><ele>531.0</ele><time>2026-04-12T04:55:26Z</time></trkpt><trkpt lat="44.57166843710817" lon="8.031650082504953"><ele>531.0</ele><time>2026-04-12T04:55:29Z</time></trkpt><trkpt lat="44.57160890727202" lon="8.031620860715096"><ele>531.0</ele><time>2026-04-12T04:55:35Z</time></trkpt><trkpt lat="44.57154056615575" lon="8.031575989798943"><ele>531.0</ele><time>2026-04-12T04:55:39.999Z</time></trkpt><trkpt lat="44.57145956947269" lon="8.03152996009796"><ele>531.0</ele><time>2026-04-12T04:55:44.999Z</time></trkpt><trkpt lat="44.571395419293616" lon="8.031488849479656"><ele>531.0</ele><time>2026-04-12T04:55:47.999Z</time></trkpt><trkpt lat="44.57131834783564" lon="8.031439659378332"><ele>531.0</ele><time>2026-04-12T04:55:50.999Z</time></trkpt><trkpt lat="44.57126352770583" lon="8.03139104471608"><ele>531.0</ele><time>2026-04-12T04:55:53.999Z</time></trkpt><trkpt lat="44.57119086135247" lon="8.031328072632206"><ele>531.0</ele><time>2026-04-12T04:55:56.999Z</time></trkpt><trkpt lat="44.57112151417214" lon="8.031278007119155"><ele>531.0</ele><time>2026-04-12T04:55:59.999Z</time></trkpt><trkpt lat="44.571055698702565" lon="8.031240806152939"><ele>532.5</ele><time>2026-04-12T04:56:02.999Z</time></trkpt><trkpt lat="44.57097813691229" lon="8.031208279042822"><ele>534.0</ele><time>2026-04-12T04:56:05.999Z</time></trkpt><trkpt lat="44.57089579514932" lon="8.03117444087292"><ele>535.5</ele><time>2026-04-12T04:56:08.999Z</time></trkpt><trkpt lat="44.57083312855382" lon="8.031131781190505"><ele>537.0</ele><time>2026-04-12T04:56:11.999Z</time></trkpt><trkpt lat="44.57074398940754" lon="8.031123423535718"><ele>538.5</ele><time>2026-04-12T04:56:15.999Z</time></trkpt><trkpt lat="44.57066094480298" lon="8.031086804529325"><ele>540.0</ele><time>2026-04-12T04:56:19.999Z</time></trkpt><trkpt lat="44.57058097188833" lon="8.031085754909345"><ele>540.0</ele><time>2026-04-12T04:56:23.999Z</time></trkpt><trkpt lat="44.57051662563392" lon="8.031080774104689"><ele>540.0</ele><time>2026-04-12T04:56:26.999Z</time></trkpt><trkpt lat="44.57045204077232" lon="8.031070219077783"><ele>540.0</ele><time>2026-04-12T04:56:29.999Z</time></trkpt><trkpt lat="44.5703721768915" lon="8.031046042121915"><ele>540.0</ele><time>2026-04-12T04:56:33.999Z</time></trkpt><trkpt lat="44.57029827720583" lon="8.031017542557274"><ele>540.0</ele><time>2026-04-12T04:56:37.999Z</time></trkpt><trkpt lat="44.57021798418177" lon="8.030996213914879"><ele>540.0</ele><time>2026-04-12T04:56:41.999Z</time></trkpt><trkpt lat="44.57013434350429" lon="8.030969094872676"><ele>540.3333333333334</ele><time>2026-04-12T04:56:45.999Z</time></trkpt><trkpt lat="44.5700631902015" lon="8.030923430568354"><ele>540.6666666666666</ele><time>2026-04-12T04:56:49.999Z</time></trkpt><trkpt lat="44.56999756480638" lon="8.030911591962171"><ele>541.0</ele><time>2026-04-12T04:56:52.998Z</time></trkpt><trkpt lat="44.569921961346274" lon="8.030933529780343"><ele>541.3333333333333</ele><time>2026-04-12T04:56:56.998Z</time></trkpt><trkpt lat="44.56984698307494" lon="8.030954618436729"><ele>541.6666666666666</ele><time>2026-04-12T04:57:01Z</time></trkpt><trkpt lat="44.56977519299924" lon="8.03099742770352"><ele>542.0</ele><time>2026-04-12T04:57:05Z</time></trkpt><trkpt lat="44.569706742391936" lon="8.031042889170193"><ele>542.0</ele><time>2026-04-12T04:57:09Z</time></trkpt><trkpt lat="44.56964536972579" lon="8.031109721116866"><ele>542.0</ele><time>2026-04-12T04:57:13Z</time></trkpt><trkpt lat="44.56959829719525" lon="8.031189768590696"><ele>542.0</ele><time>2026-04-12T04:57:17Z</time></trkpt><trkpt lat="44.56955533586601" lon="8.031260580455735"><ele>542.0</ele><time>2026-04-12T04:57:21Z</time></trkpt><trkpt lat="44.569519274602136" lon="8.031334915676052"><ele>542.0</ele><time>2026-04-12T04:57:25Z</time></trkpt><trkpt lat="44.56948515488646" lon="8.03141807924038"><ele>542.0</ele><time>2026-04-12T04:57:29Z</time></trkpt><trkpt lat="44.56943725126275" lon="8.031495994826491"><ele>542.0</ele><time>2026-04-12T04:57:33Z</time></trkpt><trkpt lat="44.56939832666725" lon="8.031576514426192"><ele>544.0</ele><time>2026-04-12T04:57:37Z</time></trkpt><trkpt lat="44.56936118038694" lon="8.031655332251148"><ele>546.0</ele><time>2026-04-12T04:57:41Z</time></trkpt><trkpt lat="44.56932685655211" lon="8.03174371674157"><ele>548.0</ele><time>2026-04-12T04:57:45Z</time></trkpt><trkpt lat="44.56929384695791" lon="8.031831154012384"><ele>550.0</ele><time>2026-04-12T04:57:49Z</time></trkpt><trkpt lat="44.56925347128763" lon="8.031904780794164"><ele>552.0</ele><time>2026-04-12T04:57:52.999Z</time></trkpt><trkpt lat="44.56922560704364" lon="8.031997416899081"><ele>554.0</ele><time>2026-04-12T04:57:56.999Z</time></trkpt><trkpt lat="44.569206475891875" lon="8.032091885499383"><ele>556.0</ele><time>2026-04-12T04:58:00.999Z</time></trkpt><trkpt lat="44.56918426571275" lon="8.032177241074523"><ele>556.0</ele><time>2026-04-12T04:58:05.999Z</time></trkpt><trkpt lat="44.56917086029485" lon="8.032271646755772"><ele>556.0</ele><time>2026-04-12T04:58:10.999Z</time></trkpt><trkpt lat="44.569164854066614" lon="8.032385016667327"><ele>556.0</ele><time>2026-04-12T04:58:15.999Z</time></trkpt><trkpt lat="44.56915193938943" lon="8.032473085580392"><ele>556.0</ele><time>2026-04-12T04:58:20.999Z</time></trkpt><trkpt lat="44.56915553589297" lon="8.03256585247598"><ele>556.0</ele><time>2026-04-12T04:58:24.999Z</time></trkpt><trkpt lat="44.56913695661673" lon="8.032650346852288"><ele>556.0</ele><time>2026-04-12T04:58:28.999Z</time></trkpt><trkpt lat="44.569152159028015" lon="8.032736554595848"><ele>556.0</ele><time>2026-04-12T04:58:33.999Z</time></trkpt><trkpt lat="44.56915968174507" lon="8.03283102342871"><ele>557.7142857142857</ele><time>2026-04-12T04:58:38.999Z</time></trkpt><trkpt lat="44.56915310188754" lon="8.032934278120077"><ele>559.4285714285714</ele><time>2026-04-12T04:58:43.999Z</time></trkpt><trkpt lat="44.569157146361555" lon="8.033028030371833"><ele>561.1428571428571</ele><time>2026-04-12T04:58:48.999Z</time></trkpt><trkpt lat="44.56914008048022" lon="8.033114299052063"><ele>562.8571428571429</ele><time>2026-04-12T04:58:52.999Z</time></trkpt><trkpt lat="44.56910425616255" lon="8.033207749006225"><ele>564.5714285714286</ele><time>2026-04-12T04:58:57.999Z</time></trkpt><trkpt lat="44.569094222915254" lon="8.033297475620227"><ele>566.2857142857142</ele><time>2026-04-12T04:59:01.999Z</time></trkpt><trkpt lat="44.569086733260896" lon="8.033394837396374"><ele>568.0</ele><time>2026-04-12T04:59:06Z</time></trkpt><trkpt lat="44.5690741686218" lon="8.033489227774053"><ele>569.5714285714286</ele><time>2026-04-12T04:59:10Z</time></trkpt><trkpt lat="44.56906416246075" lon="8.0335844154686"><ele>571.1428571428571</ele><time>2026-04-12T04:59:14Z</time></trkpt><trkpt lat="44.569046112904836" lon="8.033676936314796"><ele>572.7142857142857</ele><time>2026-04-12T04:59:18Z</time></trkpt><trkpt lat="44.569035961582635" lon="8.033771152817694"><ele>574.2857142857142</ele><time>2026-04-12T04:59:22Z</time></trkpt><trkpt lat="44.56903239905211" lon="8.03386905859762"><ele>575.8571428571429</ele><time>2026-04-12T04:59:26Z</time></trkpt><trkpt lat="44.56903703627851" lon="8.033965065164901"><ele>577.4285714285713</ele><time>2026-04-12T04:59:30Z</time></trkpt><trkpt lat="44.569041941828544" lon="8.034055416844932"><ele>579.0</ele><time>2026-04-12T04:59:34Z</time></trkpt><trkpt lat="44.56904393497707" lon="8.034151914281898"><ele>580.5714285714286</ele><time>2026-04-12T04:59:38Z</time></trkpt><trkpt lat="44.56904411678358" lon="8.034241442325046"><ele>582.1428571428571</ele><time>2026-04-12T04:59:42Z</time></trkpt><trkpt lat="44.56904182443817" lon="8.034337160332504"><ele>583.7142857142858</ele><time>2026-04-12T04:59:46Z</time></trkpt><trkpt lat="44.56904045643012" lon="8.03444051045222"><ele>585.2857142857142</ele><time>2026-04-12T04:59:50Z</time></trkpt><trkpt lat="44.56903688792573" lon="8.034538077894563"><ele>586.8571428571429</ele><time>2026-04-12T04:59:54Z</time></trkpt><trkpt lat="44.56900824889689" lon="8.034623714718371"><ele>588.4285714285714</ele><time>2026-04-12T04:59:57.999Z</time></trkpt><trkpt lat="44.56900210913802" lon="8.034715032174049"><ele>590.0</ele><time>2026-04-12T05:00:01.999Z</time></trkpt><trkpt lat="44.568993030378046" lon="8.034810688089358"><ele>590.0000000000001</ele><time>2026-04-12T05:00:05.999Z</time></trkpt><trkpt lat="44.56897209375289" lon="8.034902293730466"><ele>590.0</ele><time>2026-04-12T05:00:09.999Z</time></trkpt><trkpt lat="44.56895216954767" lon="8.034994422716723"><ele>590.0</ele><time>2026-04-12T05:00:13.999Z</time></trkpt><trkpt lat="44.56896079374305" lon="8.035088584074513"><ele>590.0</ele><time>2026-04-12T05:00:17.999Z</time></trkpt><trkpt lat="44.56894627425665" lon="8.035186682987542"><ele>590.0</ele><time>2026-04-12T05:00:21.999Z</time></trkpt><trkpt lat="44.568931059185005" lon="8.035274613145761"><ele>590.0000000000001</ele><time>2026-04-12T05:00:25.999Z</time></trkpt><trkpt lat="44.56890468210251" lon="8.035360626481598"><ele>590.0</ele><time>2026-04-12T05:00:29.999Z</time></trkpt><trkpt lat="44.5688676758052" lon="8.035460613151573"><ele>590.3333333333333</ele><time>2026-04-12T05:00:33.999Z</time></trkpt><trkpt lat="44.56883168864141" lon="8.035552999206104"><ele>590.6666666666666</ele><time>2026-04-12T05:00:37.999Z</time></trkpt><trkpt lat="44.56878561985393" lon="8.035638743199957"><ele>591.0</ele><time>2026-04-12T05:00:41.999Z</time></trkpt><trkpt lat="44.56874593424724" lon="8.035722981617608"><ele>591.3333333333334</ele><time>2026-04-12T05:00:45.999Z</time></trkpt><trkpt lat="44.568703334665415" lon="8.0358000076426"><ele>591.6666666666667</ele><time>2026-04-12T05:00:49.999Z</time></trkpt><trkpt lat="44.568649470628685" lon="8.035877487952467"><ele>592.0</ele><time>2026-04-12T05:00:53.999Z</time></trkpt><trkpt lat="44.568590417132896" lon="8.035952218331722"><ele>592.0</ele><time>2026-04-12T05:00:57.999Z</time></trkpt><trkpt lat="44.56854366516757" lon="8.036017409431974"><ele>592.0</ele><time>2026-04-12T05:01:01.999Z</time></trkpt><trkpt lat="44.56848037095852" lon="8.036055845566189"><ele>592.0</ele><time>2026-04-12T05:01:05.999Z</time></trkpt><trkpt lat="44.56842709622435" lon="8.036115159890285"><ele>592.0</ele><time>2026-04-12T05:01:09.998Z</time></trkpt><trkpt lat="44.56836312918128" lon="8.036170441572041"><ele>592.0</ele><time>2026-04-12T05:01:14Z</time></trkpt><trkpt lat="44.56830389567907" lon="8.036229888693839"><ele>592.0</ele><time>2026-04-12T05:01:18Z</time></trkpt><trkpt lat="44.56824993093616" lon="8.036298633083392"><ele>592.0</ele><time>2026-04-12T05:01:22Z</time></trkpt><trkpt lat="44.56818995242992" lon="8.036370036457107"><ele>592.0</ele><time>2026-04-12T05:01:26Z</time></trkpt><trkpt lat="44.568161333269906" lon="8.03645188469632"><ele>592.0</ele><time>2026-04-12T05:01:29Z</time></trkpt><trkpt lat="44.56810877670247" lon="8.036516090253077"><ele>592.0</ele><time>2026-04-12T05:01:32Z</time></trkpt><trkpt lat="44.56805591535907" lon="8.036592052641124"><ele>592.0</ele><time>2026-04-12T05:01:36Z</time></trkpt><trkpt lat="44.56801802059708" lon="8.036671855392852"><ele>592.0</ele><time>2026-04-12T05:01:39Z</time></trkpt><trkpt lat="44.56798010467594" lon="8.036749728930179"><ele>592.0</ele><time>2026-04-12T05:01:42Z</time></trkpt><trkpt lat="44.56795702530032" lon="8.036832518100386"><ele>592.0</ele><time>2026-04-12T05:01:45Z</time></trkpt><trkpt lat="44.56791589995549" lon="8.036901288729519"><ele>590.5</ele><time>2026-04-12T05:01:48Z</time></trkpt><trkpt lat="44.56787307610571" lon="8.03699633219704"><ele>589.0</ele><time>2026-04-12T05:01:52Z</time></trkpt><trkpt lat="44.567828042890525" lon="8.037087891641923"><ele>587.5</ele><time>2026-04-12T05:01:56Z</time></trkpt><trkpt lat="44.56779793523157" lon="8.03718911110487"><ele>586.0</ele><time>2026-04-12T05:02:00Z</time></trkpt><trkpt lat="44.56775946231407" lon="8.037277241962194"><ele>584.5</ele><time>2026-04-12T05:02:03.999Z</time></trkpt><trkpt lat="44.56770957606733" lon="8.037348337638013"><ele>583.0</ele><time>2026-04-12T05:02:07.999Z</time></trkpt><trkpt lat="44.567681922742295" lon="8.037437133364005"><ele>585.5</ele><time>2026-04-12T05:02:11.999Z</time></trkpt><trkpt lat="44.56764904993613" lon="8.037532563092451"><ele>588.0</ele><time>2026-04-12T05:02:15.999Z</time></trkpt><trkpt lat="44.567644222182025" lon="8.037648665845323"><ele>590.5</ele><time>2026-04-12T05:02:19.999Z</time></trkpt><trkpt lat="44.56764343884177" lon="8.03776063531331"><ele>593.0</ele><time>2026-04-12T05:02:23.999Z</time></trkpt><trkpt lat="44.56762486353494" lon="8.037846869966524"><ele>595.5</ele><time>2026-04-12T05:02:26.999Z</time></trkpt><trkpt lat="44.56765106424838" lon="8.03796318581883"><ele>598.0</ele><time>2026-04-12T05:02:30.999Z</time></trkpt><trkpt lat="44.56767712148467" lon="8.038047175140703"><ele>598.0</ele><time>2026-04-12T05:02:33.999Z</time></trkpt><trkpt lat="44.56771259137913" lon="8.03813277930765"><ele>598.0</ele><time>2026-04-12T05:02:36.999Z</time></trkpt><trkpt lat="44.56773023251502" lon="8.038246380121613"><ele>598.0</ele><time>2026-04-12T05:02:40.999Z</time></trkpt><trkpt lat="44.56776060046388" lon="8.038347341967825"><ele>598.0</ele><time>2026-04-12T05:02:43.999Z</time></trkpt><trkpt lat="44.56778847230157" lon="8.038431679012438"><ele>598.0</ele><time>2026-04-12T05:02:46.999Z</time></trkpt><trkpt lat="44.56781006864776" lon="8.0385385660118"><ele>598.0</ele><time>2026-04-12T05:02:49.999Z</time></trkpt><trkpt lat="44.56783952108447" lon="8.03864139885111"><ele>598.7142857142857</ele><time>2026-04-12T05:02:52.999Z</time></trkpt><trkpt lat="44.56785268723542" lon="8.038739907964446"><ele>599.4285714285714</ele><time>2026-04-12T05:02:55.999Z</time></trkpt><trkpt lat="44.56785857160527" lon="8.038846413345668"><ele>600.1428571428571</ele><time>2026-04-12T05:02:58.999Z</time></trkpt><trkpt lat="44.567850450718936" lon="8.038965219200334"><ele>600.8571428571429</ele><time>2026-04-12T05:03:01.999Z</time></trkpt><trkpt lat="44.56790974303064" lon="8.039008318590968"><ele>601.5714285714286</ele><time>2026-04-12T05:03:04.999Z</time></trkpt><trkpt lat="44.5679370229683" lon="8.038903748138676"><ele>602.2857142857143</ele><time>2026-04-12T05:03:08.999Z</time></trkpt><trkpt lat="44.56796084534801" lon="8.038817078481271"><ele>603.0</ele><time>2026-04-12T05:03:11.999Z</time></trkpt><trkpt lat="44.56795180593842" lon="8.038713225120125"><ele>605.8571428571429</ele><time>2026-04-12T05:03:15.998Z</time></trkpt><trkpt lat="44.56793814199411" lon="8.038611272641575"><ele>608.7142857142857</ele><time>2026-04-12T05:03:20Z</time></trkpt><trkpt lat="44.56793470091516" lon="8.038504989321043"><ele>611.5714285714286</ele><time>2026-04-12T05:03:24Z</time></trkpt><trkpt lat="44.56792567372812" lon="8.038397600175784"><ele>614.4285714285714</ele><time>2026-04-12T05:03:28Z</time></trkpt><trkpt lat="44.5679164596518" lon="8.038309172027283"><ele>617.2857142857142</ele><time>2026-04-12T05:03:31Z</time></trkpt><trkpt lat="44.56790322304861" lon="8.03819632281441"><ele>620.1428571428571</ele><time>2026-04-12T05:03:35Z</time></trkpt><trkpt lat="44.56788662704338" lon="8.038107804009277"><ele>623.0</ele><time>2026-04-12T05:03:38Z</time></trkpt><trkpt lat="44.56788743795224" lon="8.037994108861623"><ele>623.0</ele><time>2026-04-12T05:03:42Z</time></trkpt><trkpt lat="44.567894012935376" lon="8.037883576994263"><ele>623.0</ele><time>2026-04-12T05:03:46Z</time></trkpt><trkpt lat="44.56793360224324" lon="8.037800688841365"><ele>623.0</ele><time>2026-04-12T05:03:50Z</time></trkpt><trkpt lat="44.56799845943789" lon="8.037782130566676"><ele>623.0</ele><time>2026-04-12T05:03:54Z</time></trkpt><trkpt lat="44.56804568889924" lon="8.037858054247224"><ele>623.0</ele><time>2026-04-12T05:03:59Z</time></trkpt><trkpt lat="44.56805741122156" lon="8.03795120351344"><ele>623.0</ele><time>2026-04-12T05:04:03Z</time></trkpt><trkpt lat="44.568061141542806" lon="8.038042783536765"><ele>623.0</ele><time>2026-04-12T05:04:06.999Z</time></trkpt><trkpt lat="44.56808834274011" lon="8.038142588664202"><ele>623.0</ele><time>2026-04-12T05:04:11.999Z</time></trkpt><trkpt lat="44.56813022608622" lon="8.038212090795934"><ele>623.0</ele><time>2026-04-12T05:04:15.999Z</time></trkpt><trkpt lat="44.56816606212" lon="8.038308735217582"><ele>623.0</ele><time>2026-04-12T05:04:20.999Z</time></trkpt><trkpt lat="44.5682006955782" lon="8.03838403792721"><ele>623.0</ele><time>2026-04-12T05:04:24.999Z</time></trkpt><trkpt lat="44.5682474340218" lon="8.038445725810247"><ele>623.0</ele><time>2026-04-12T05:04:28.999Z</time></trkpt><trkpt lat="44.568266561040225" lon="8.038533908401877"><ele>623.0</ele><time>2026-04-12T05:04:32.999Z</time></trkpt><trkpt lat="44.56831378991562" lon="8.038621660958368"><ele>623.0</ele><time>2026-04-12T05:04:37.999Z</time></trkpt><trkpt lat="44.568373626367574" lon="8.038691031922271"><ele>624.0</ele><time>2026-04-12T05:04:42.999Z</time></trkpt><trkpt lat="44.56842391622315" lon="8.038773025447014"><ele>625.0</ele><time>2026-04-12T05:04:47.999Z</time></trkpt><trkpt lat="44.56846991357464" lon="8.03885992606701"><ele>626.0</ele><time>2026-04-12T05:04:53.999Z</time></trkpt><trkpt lat="44.5684895165225" lon="8.038956585390455"><ele>627.0</ele><time>2026-04-12T05:04:58.999Z</time></trkpt><trkpt lat="44.56850778455499" lon="8.039054879622345"><ele>628.0</ele><time>2026-04-12T05:05:02.999Z</time></trkpt><trkpt lat="44.568526440581145" lon="8.039152747507183"><ele>629.0</ele><time>2026-04-12T05:05:07.999Z</time></trkpt><trkpt lat="44.568578586522676" lon="8.039225157532032"><ele>630.0</ele><time>2026-04-12T05:05:11.999Z</time></trkpt><trkpt lat="44.5686379637137" lon="8.039183244407415"><ele>630.0</ele><time>2026-04-12T05:05:16.999Z</time></trkpt><trkpt lat="44.5686529457162" lon="8.03908855075056"><ele>630.0</ele><time>2026-04-12T05:05:20.998Z</time></trkpt><trkpt lat="44.56865046812996" lon="8.038992964037066"><ele>630.0</ele><time>2026-04-12T05:05:25Z</time></trkpt><trkpt lat="44.568646961130355" lon="8.038887563104895"><ele>630.0</ele><time>2026-04-12T05:05:30Z</time></trkpt><trkpt lat="44.568656929791246" lon="8.038780469216123"><ele>630.0</ele><time>2026-04-12T05:05:35Z</time></trkpt><trkpt lat="44.56867241690767" lon="8.038674277711856"><ele>630.0</ele><time>2026-04-12T05:05:39Z</time></trkpt><trkpt lat="44.56867138193075" lon="8.038560645836311"><ele>630.0</ele><time>2026-04-12T05:05:43Z</time></trkpt><trkpt lat="44.568669654292385" lon="8.038458520091021"><ele>630.0</ele><time>2026-04-12T05:05:47Z</time></trkpt><trkpt lat="44.56866883760556" lon="8.038330677677985"><ele>630.0</ele><time>2026-04-12T05:05:51Z</time></trkpt><trkpt lat="44.56867697177935" lon="8.038236897567026"><ele>630.0</ele><time>2026-04-12T05:05:55Z</time></trkpt><trkpt lat="44.568697033565805" lon="8.038142738095877"><ele>630.0</ele><time>2026-04-12T05:05:59Z</time></trkpt><trkpt lat="44.5687467207215" lon="8.038079955486246"><ele>630.0</ele><time>2026-04-12T05:06:03Z</time></trkpt><trkpt lat="44.568816412299405" lon="8.038107809966894"><ele>630.0</ele><time>2026-04-12T05:06:07Z</time></trkpt><trkpt lat="44.568860718124206" lon="8.038194674709557"><ele>630.0</ele><time>2026-04-12T05:06:10.999Z</time></trkpt><trkpt lat="44.56888387732613" lon="8.038292746017444"><ele>632.0</ele><time>2026-04-12T05:06:14.999Z</time></trkpt><trkpt lat="44.568915447893296" lon="8.038396445020926"><ele>634.0</ele><time>2026-04-12T05:06:18.999Z</time></trkpt><trkpt lat="44.56894209653282" lon="8.03847982409568"><ele>636.0</ele><time>2026-04-12T05:06:21.999Z</time></trkpt><trkpt lat="44.56898106437286" lon="8.038588076423576"><ele>638.0</ele><time>2026-04-12T05:06:25.999Z</time></trkpt><trkpt lat="44.56900291004303" lon="8.038682658070613"><ele>640.0</ele><time>2026-04-12T05:06:28.999Z</time></trkpt><trkpt lat="44.56901969641923" lon="8.038777563431692"><ele>642.0</ele><time>2026-04-12T05:06:31.999Z</time></trkpt><trkpt lat="44.569037760455274" lon="8.038864354269672"><ele>644.0</ele><time>2026-04-12T05:06:34.999Z</time></trkpt><trkpt lat="44.56905192147147" lon="8.038971264778917"><ele>644.0</ele><time>2026-04-12T05:06:38.999Z</time></trkpt><trkpt lat="44.56906512587293" lon="8.039076423174667"><ele>644.0</ele><time>2026-04-12T05:06:42.999Z</time></trkpt><trkpt lat="44.56907049429144" lon="8.03917673864206"><ele>644.0</ele><time>2026-04-12T05:06:46.999Z</time></trkpt><trkpt lat="44.5690887123009" lon="8.039271288980345"><ele>644.0</ele><time>2026-04-12T05:06:50.999Z</time></trkpt><trkpt lat="44.569104712441906" lon="8.03936427877805"><ele>644.0</ele><time>2026-04-12T05:06:54.999Z</time></trkpt><trkpt lat="44.569138307417916" lon="8.039448920309496"><ele>644.0</ele><time>2026-04-12T05:06:58.999Z</time></trkpt><trkpt lat="44.56917552619371" lon="8.03952203126919"><ele>644.0</ele><time>2026-04-12T05:07:01.999Z</time></trkpt><trkpt lat="44.569210301442716" lon="8.039618363767739"><ele>644.8571428571429</ele><time>2026-04-12T05:07:06.999Z</time></trkpt><trkpt lat="44.56923558690015" lon="8.039717138821448"><ele>645.7142857142858</ele><time>2026-04-12T05:07:10.999Z</time></trkpt><trkpt lat="44.56924481996078" lon="8.039808060054128"><ele>646.5714285714286</ele><time>2026-04-12T05:07:14.999Z</time></trkpt><trkpt lat="44.56924097179377" lon="8.039914572061203"><ele>647.4285714285714</ele><time>2026-04-12T05:07:19.999Z</time></trkpt><trkpt lat="44.56923260085511" lon="8.040005058629397"><ele>648.2857142857143</ele><time>2026-04-12T05:07:23.998Z</time></trkpt><trkpt lat="44.569200517148374" lon="8.040101963276287"><ele>649.1428571428571</ele><time>2026-04-12T05:07:29Z</time></trkpt><trkpt lat="44.56916767524414" lon="8.040194627245073"><ele>650.0</ele><time>2026-04-12T05:07:34Z</time></trkpt><trkpt lat="44.569138197155496" lon="8.040273547894781"><ele>650.8333333333333</ele><time>2026-04-12T05:07:40Z</time></trkpt><trkpt lat="44.56910284386808" lon="8.040365660160948"><ele>651.6666666666666</ele><time>2026-04-12T05:07:46Z</time></trkpt><trkpt lat="44.56906985048517" lon="8.040451825366617"><ele>652.5</ele><time>2026-04-12T05:07:51Z</time></trkpt><trkpt lat="44.56902475824129" lon="8.040545754215334"><ele>653.3333333333334</ele><time>2026-04-12T05:07:55Z</time></trkpt><trkpt lat="44.568985330471975" lon="8.040643884334584"><ele>654.1666666666667</ele><time>2026-04-12T05:08:00Z</time></trkpt><trkpt lat="44.56895160995836" lon="8.040725637492848"><ele>655.0</ele><time>2026-04-12T05:08:03Z</time></trkpt><trkpt lat="44.56890253668945" lon="8.04081352496154"><ele>656.3333333333334</ele><time>2026-04-12T05:08:07Z</time></trkpt><trkpt lat="44.568879669430494" lon="8.040917829609416"><ele>657.6666666666667</ele><time>2026-04-12T05:08:11Z</time></trkpt><trkpt lat="44.568866243066815" lon="8.04103472407241"><ele>659.0</ele><time>2026-04-12T05:08:14Z</time></trkpt><trkpt lat="44.56884421792084" lon="8.0411534598969"><ele>660.3333333333334</ele><time>2026-04-12T05:08:16Z</time></trkpt><trkpt lat="44.568827144499444" lon="8.041251645656311"><ele>661.6666666666666</ele><time>2026-04-12T05:08:18Z</time></trkpt><trkpt lat="44.56878871290228" lon="8.041350700906156"><ele>663.0</ele><time>2026-04-12T05:08:19.999Z</time></trkpt><trkpt lat="44.56876263055565" lon="8.04144528177631"><ele>663.0</ele><time>2026-04-12T05:08:21.999Z</time></trkpt><trkpt lat="44.56872613060807" lon="8.041544094784502"><ele>663.0</ele><time>2026-04-12T05:08:23.999Z</time></trkpt><trkpt lat="44.56868058212245" lon="8.041641163744824"><ele>663.0</ele><time>2026-04-12T05:08:25.999Z</time></trkpt><trkpt lat="44.56861891844647" lon="8.041737042440563"><ele>663.0</ele><time>2026-04-12T05:08:27.999Z</time></trkpt><trkpt lat="44.56856773778207" lon="8.041828813013671"><ele>663.0</ele><time>2026-04-12T05:08:29.999Z</time></trkpt><trkpt lat="44.5685184717524" lon="8.041918209018723"><ele>663.0</ele><time>2026-04-12T05:08:31.999Z</time></trkpt><trkpt lat="44.56847665760961" lon="8.042004079833836"><ele>664.1666666666666</ele><time>2026-04-12T05:08:33.999Z</time></trkpt><trkpt lat="44.56842865627733" lon="8.042123488891075"><ele>665.3333333333334</ele><time>2026-04-12T05:08:36.999Z</time></trkpt><trkpt lat="44.56841015980863" lon="8.042209981310052"><ele>666.5</ele><time>2026-04-12T05:08:38.999Z</time></trkpt><trkpt lat="44.568389423265884" lon="8.042299717784234"><ele>667.6666666666667</ele><time>2026-04-12T05:08:40.999Z</time></trkpt><trkpt lat="44.568362516199635" lon="8.042422842292831"><ele>668.8333333333334</ele><time>2026-04-12T05:08:43.999Z</time></trkpt><trkpt lat="44.568345157516305" lon="8.042545670729119"><ele>670.0</ele><time>2026-04-12T05:08:46.999Z</time></trkpt><trkpt lat="44.56832270351048" lon="8.042669291354409"><ele>670.0</ele><time>2026-04-12T05:08:49.999Z</time></trkpt><trkpt lat="44.56829198429962" lon="8.042789043408353"><ele>670.0</ele><time>2026-04-12T05:08:52.999Z</time></trkpt><trkpt lat="44.56826283368155" lon="8.042906913674571"><ele>670.0</ele><time>2026-04-12T05:08:55.999Z</time></trkpt><trkpt lat="44.56822376684401" lon="8.043015192805084"><ele>670.0</ele><time>2026-04-12T05:08:58.999Z</time></trkpt><trkpt lat="44.568185931432325" lon="8.043121072354426"><ele>670.0</ele><time>2026-04-12T05:09:01.999Z</time></trkpt><trkpt lat="44.56815180453406" lon="8.043213955758006"><ele>670.0</ele><time>2026-04-12T05:09:04.999Z</time></trkpt><trkpt lat="44.56811565168591" lon="8.04330274530597"><ele>670.6666666666667</ele><time>2026-04-12T05:09:07.999Z</time></trkpt><trkpt lat="44.56807888858484" lon="8.043395039189726"><ele>671.3333333333334</ele><time>2026-04-12T05:09:10.999Z</time></trkpt><trkpt lat="44.568048047353734" lon="8.04348924701598"><ele>672.0</ele><time>2026-04-12T05:09:13.999Z</time></trkpt><trkpt lat="44.56800417486808" lon="8.043583734435314"><ele>672.6666666666666</ele><time>2026-04-12T05:09:16.999Z</time></trkpt><trkpt lat="44.5679807915249" lon="8.043688162601025"><ele>673.3333333333333</ele><time>2026-04-12T05:09:19.999Z</time></trkpt><trkpt lat="44.56796315718734" lon="8.043794699580793"><ele>674.0</ele><time>2026-04-12T05:09:22.999Z</time></trkpt><trkpt lat="44.567949122676296" lon="8.043903044450385"><ele>674.0</ele><time>2026-04-12T05:09:25.999Z</time></trkpt><trkpt lat="44.567921067435954" lon="8.0440093605806"><ele>674.0</ele><time>2026-04-12T05:09:28.999Z</time></trkpt><trkpt lat="44.567871737177484" lon="8.044096564198362"><ele>674.0</ele><time>2026-04-12T05:09:31.999Z</time></trkpt><trkpt lat="44.567817286557236" lon="8.04417051478436"><ele>674.0</ele><time>2026-04-12T05:09:35Z</time></trkpt><trkpt lat="44.567767674473" lon="8.044236676076666"><ele>674.0</ele><time>2026-04-12T05:09:38Z</time></trkpt><trkpt lat="44.567722208415354" lon="8.044303662985051"><ele>674.0</ele><time>2026-04-12T05:09:41Z</time></trkpt><trkpt lat="44.56766239496942" lon="8.044383247251393"><ele>673.1428571428572</ele><time>2026-04-12T05:09:45Z</time></trkpt><trkpt lat="44.567610102731024" lon="8.044464535568553"><ele>672.2857142857143</ele><time>2026-04-12T05:09:49Z</time></trkpt><trkpt lat="44.56756158438193" lon="8.044541182487814"><ele>671.4285714285714</ele><time>2026-04-12T05:09:53Z</time></trkpt><trkpt lat="44.5675071901106" lon="8.044615082107127"><ele>670.5714285714287</ele><time>2026-04-12T05:09:57Z</time></trkpt><trkpt lat="44.56746234465253" lon="8.044689749203119"><ele>669.7142857142858</ele><time>2026-04-12T05:10:01Z</time></trkpt><trkpt lat="44.56741588850964" lon="8.044774813520535"><ele>668.8571428571429</ele><time>2026-04-12T05:10:06Z</time></trkpt><trkpt lat="44.56738107458044" lon="8.044854214075572"><ele>668.0</ele><time>2026-04-12T05:10:10Z</time></trkpt><trkpt lat="44.56733955883605" lon="8.044934790619386"><ele>668.5</ele><time>2026-04-12T05:10:13Z</time></trkpt><trkpt lat="44.567304864655405" lon="8.045015200097023"><ele>669.0</ele><time>2026-04-12T05:10:16Z</time></trkpt><trkpt lat="44.56726920591831" lon="8.04511550519637"><ele>669.5</ele><time>2026-04-12T05:10:20Z</time></trkpt><trkpt lat="44.56723256095893" lon="8.045212160472872"><ele>670.0</ele><time>2026-04-12T05:10:22.999Z</time></trkpt><trkpt lat="44.56718811126038" lon="8.045310924554645"><ele>670.5</ele><time>2026-04-12T05:10:25.999Z</time></trkpt><trkpt lat="44.567149343084125" lon="8.045402515364154"><ele>671.0</ele><time>2026-04-12T05:10:28.999Z</time></trkpt><trkpt lat="44.56709777173784" lon="8.045502106789943"><ele>671.0</ele><time>2026-04-12T05:10:31.999Z</time></trkpt><trkpt lat="44.56705322978946" lon="8.045597244931914"><ele>671.0</ele><time>2026-04-12T05:10:34.999Z</time></trkpt><trkpt lat="44.56701030398694" lon="8.04568938114764"><ele>671.0</ele><time>2026-04-12T05:10:37.999Z</time></trkpt><trkpt lat="44.56697404016091" lon="8.045781995433195"><ele>671.0</ele><time>2026-04-12T05:10:40.999Z</time></trkpt><trkpt lat="44.566948917786505" lon="8.045879057780988"><ele>671.0</ele><time>2026-04-12T05:10:43.999Z</time></trkpt><trkpt lat="44.56692660897113" lon="8.045976754410058"><ele>671.0</ele><time>2026-04-12T05:10:46.999Z</time></trkpt><trkpt lat="44.56691287638294" lon="8.046065191723319"><ele>671.0</ele><time>2026-04-12T05:10:49.999Z</time></trkpt><trkpt lat="44.566890983329806" lon="8.046158818706719"><ele>671.5</ele><time>2026-04-12T05:10:52.999Z</time></trkpt><trkpt lat="44.566859839495486" lon="8.046241671939255"><ele>672.0</ele><time>2026-04-12T05:10:55.999Z</time></trkpt><trkpt lat="44.56683698918139" lon="8.046341117147083"><ele>672.5</ele><time>2026-04-12T05:10:58.999Z</time></trkpt><trkpt lat="44.56680143412935" lon="8.046451891747191"><ele>673.0</ele><time>2026-04-12T05:11:01.999Z</time></trkpt><trkpt lat="44.56677869037441" lon="8.046559763797214"><ele>673.5</ele><time>2026-04-12T05:11:04.999Z</time></trkpt><trkpt lat="44.56675637206261" lon="8.046646008583508"><ele>674.0</ele><time>2026-04-12T05:11:06.999Z</time></trkpt><trkpt lat="44.56673576929565" lon="8.046758353590569"><ele>675.0</ele><time>2026-04-12T05:11:09.999Z</time></trkpt><trkpt lat="44.56671490121534" lon="8.046861700027918"><ele>676.0</ele><time>2026-04-12T05:11:12.999Z</time></trkpt><trkpt lat="44.56668669061275" lon="8.04697108333854"><ele>677.0</ele><time>2026-04-12T05:11:15.999Z</time></trkpt><trkpt lat="44.56666426687794" lon="8.047082892286673"><ele>678.0</ele><time>2026-04-12T05:11:18.999Z</time></trkpt><trkpt lat="44.566645213203145" lon="8.047186751790802"><ele>679.0</ele><time>2026-04-12T05:11:21.999Z</time></trkpt><trkpt lat="44.56664306610827" lon="8.047292841113377"><ele>680.0</ele><time>2026-04-12T05:11:24.999Z</time></trkpt><trkpt lat="44.56664831711228" lon="8.047391834005785"><ele>680.2857142857143</ele><time>2026-04-12T05:11:27.999Z</time></trkpt><trkpt lat="44.566655761716234" lon="8.047494329269691"><ele>680.5714285714286</ele><time>2026-04-12T05:11:30.999Z</time></trkpt><trkpt lat="44.56666799603075" lon="8.04759174796518"><ele>680.8571428571429</ele><time>2026-04-12T05:11:33.999Z</time></trkpt><trkpt lat="44.5666750742341" lon="8.047699201632131"><ele>681.1428571428571</ele><time>2026-04-12T05:11:36.998Z</time></trkpt><trkpt lat="44.566685169158006" lon="8.047799074245647"><ele>681.4285714285714</ele><time>2026-04-12T05:11:40Z</time></trkpt><trkpt lat="44.566686189314055" lon="8.04789322698404"><ele>681.7142857142857</ele><time>2026-04-12T05:11:43Z</time></trkpt><trkpt lat="44.56668606614593" lon="8.04798669468338"><ele>682.0</ele><time>2026-04-12T05:11:46Z</time></trkpt><trkpt lat="44.5666842418096" lon="8.048078374236907"><ele>682.0</ele><time>2026-04-12T05:11:49Z</time></trkpt><trkpt lat="44.566677568977276" lon="8.048172863289995"><ele>682.0</ele><time>2026-04-12T05:11:52Z</time></trkpt><trkpt lat="44.56665750972536" lon="8.048264266227145"><ele>682.0</ele><time>2026-04-12T05:11:55Z</time></trkpt><trkpt lat="44.56662594377548" lon="8.048357729719386"><ele>682.0</ele><time>2026-04-12T05:11:58Z</time></trkpt><trkpt lat="44.56660277386198" lon="8.048444725191265"><ele>682.0</ele><time>2026-04-12T05:12:01Z</time></trkpt><trkpt lat="44.5665906554028" lon="8.048537432857302"><ele>682.0</ele><time>2026-04-12T05:12:05Z</time></trkpt><trkpt lat="44.566582406592225" lon="8.048627654328484"><ele>682.0</ele><time>2026-04-12T05:12:08Z</time></trkpt><trkpt lat="44.566569544895835" lon="8.048746578051782"><ele>682.5714285714286</ele><time>2026-04-12T05:12:12Z</time></trkpt><trkpt lat="44.56656300075144" lon="8.048844912483514"><ele>683.1428571428571</ele><time>2026-04-12T05:12:15Z</time></trkpt><trkpt lat="44.566556881021356" lon="8.048940726127942"><ele>683.7142857142858</ele><time>2026-04-12T05:12:18Z</time></trkpt><trkpt lat="44.566530890813276" lon="8.049042545914224"><ele>684.2857142857142</ele><time>2026-04-12T05:12:21Z</time></trkpt><trkpt lat="44.56649799526831" lon="8.049134410404472"><ele>684.8571428571429</ele><time>2026-04-12T05:12:24Z</time></trkpt><trkpt lat="44.56647583872557" lon="8.049234041020949"><ele>685.4285714285714</ele><time>2026-04-12T05:12:27Z</time></trkpt><trkpt lat="44.56645269180221" lon="8.04933479552378"><ele>686.0</ele><time>2026-04-12T05:12:30Z</time></trkpt><trkpt lat="44.56642297155424" lon="8.049439421481077"><ele>686.7142857142857</ele><time>2026-04-12T05:12:33Z</time></trkpt><trkpt lat="44.5664188917967" lon="8.049534901119545"><ele>687.4285714285714</ele><time>2026-04-12T05:12:35.999Z</time></trkpt><trkpt lat="44.56641171037127" lon="8.049625309129167"><ele>688.1428571428571</ele><time>2026-04-12T05:12:38.999Z</time></trkpt><trkpt lat="44.56639990092347" lon="8.04971504344954"><ele>688.8571428571429</ele><time>2026-04-12T05:12:41.999Z</time></trkpt><trkpt lat="44.56639939820702" lon="8.049816790655061"><ele>689.5714285714286</ele><time>2026-04-12T05:12:45.999Z</time></trkpt><trkpt lat="44.56638864905743" lon="8.049933580700904"><ele>690.2857142857142</ele><time>2026-04-12T05:12:49.999Z</time></trkpt><trkpt lat="44.56638896701477" lon="8.050047698441489"><ele>691.0</ele><time>2026-04-12T05:12:53.999Z</time></trkpt><trkpt lat="44.56638765113021" lon="8.050164300124152"><ele>691.5</ele><time>2026-04-12T05:12:57.999Z</time></trkpt><trkpt lat="44.56638769458011" lon="8.050276718590483"><ele>692.0</ele><time>2026-04-12T05:13:01.999Z</time></trkpt><trkpt lat="44.56638583358035" lon="8.050379918328753"><ele>692.5</ele><time>2026-04-12T05:13:04.999Z</time></trkpt><trkpt lat="44.56638165393261" lon="8.050482704949586"><ele>693.0</ele><time>2026-04-12T05:13:07.999Z</time></trkpt><trkpt lat="44.56638103066431" lon="8.050590688237072"><ele>693.5</ele><time>2026-04-12T05:13:10.999Z</time></trkpt><trkpt lat="44.56637976216008" lon="8.05069443234861"><ele>694.0</ele><time>2026-04-12T05:13:13.999Z</time></trkpt><trkpt lat="44.56637969707971" lon="8.050801718039743"><ele>694.2857142857143</ele><time>2026-04-12T05:13:16.999Z</time></trkpt><trkpt lat="44.56637488435223" lon="8.050907258286003"><ele>694.5714285714286</ele><time>2026-04-12T05:13:19.999Z</time></trkpt><trkpt lat="44.566374397204406" lon="8.051016914612307"><ele>694.8571428571429</ele><time>2026-04-12T05:13:54Z</time></trkpt><trkpt lat="44.56637410381774" lon="8.051124206435501"><ele>695.1428571428571</ele><time>2026-04-12T05:13:59Z</time></trkpt><trkpt lat="44.566377013433936" lon="8.051217304075784"><ele>695.4285714285714</ele><time>2026-04-12T05:14:04Z</time></trkpt><trkpt lat="44.566377583251956" lon="8.05130581862644"><ele>695.7142857142857</ele><time>2026-04-12T05:14:09Z</time></trkpt><trkpt lat="44.566390394210075" lon="8.051393251241672"><ele>696.0</ele><time>2026-04-12T05:14:14Z</time></trkpt><trkpt lat="44.56639140200277" lon="8.051495201377717"><ele>696.0</ele><time>2026-04-12T05:14:20Z</time></trkpt><trkpt lat="44.56638734040182" lon="8.051583621710554"><ele>696.0</ele><time>2026-04-12T05:14:25Z</time></trkpt><trkpt lat="44.56636595127375" lon="8.051668715707747"><ele>696.0</ele><time>2026-04-12T05:14:30Z</time></trkpt><trkpt lat="44.5663345979288" lon="8.051760128863203"><ele>696.0</ele><time>2026-04-12T05:14:35.999Z</time></trkpt><trkpt lat="44.566292271827784" lon="8.051840129412144"><ele>696.0</ele><time>2026-04-12T05:14:41.999Z</time></trkpt><trkpt lat="44.56625266812008" lon="8.051924493055747"><ele>696.0</ele><time>2026-04-12T05:14:47.999Z</time></trkpt><trkpt lat="44.566216614402144" lon="8.052004908115414"><ele>696.0</ele><time>2026-04-12T05:14:52.999Z</time></trkpt><trkpt lat="44.56618333744635" lon="8.052081081606408"><ele>697.5</ele><time>2026-04-12T05:14:56.999Z</time></trkpt><trkpt lat="44.566135037098135" lon="8.052158665625337"><ele>699.0</ele><time>2026-04-12T05:14:59.999Z</time></trkpt><trkpt lat="44.56607804792008" lon="8.052251746978547"><ele>700.5</ele><time>2026-04-12T05:15:02.999Z</time></trkpt><trkpt lat="44.56604930452831" lon="8.052346548547686"><ele>702.0</ele><time>2026-04-12T05:15:05.999Z</time></trkpt><trkpt lat="44.566001439142006" lon="8.052435009339703"><ele>703.5</ele><time>2026-04-12T05:15:08.999Z</time></trkpt><trkpt lat="44.56597349038125" lon="8.052543696059377"><ele>705.0</ele><time>2026-04-12T05:15:11.999Z</time></trkpt><trkpt lat="44.56592762657095" lon="8.05265132857422"><ele>706.5714285714286</ele><time>2026-04-12T05:15:14.999Z</time></trkpt><trkpt lat="44.56588642753809" lon="8.052766195995588"><ele>708.1428571428571</ele><time>2026-04-12T05:15:17.999Z</time></trkpt><trkpt lat="44.565844973498606" lon="8.052837085723336"><ele>709.7142857142858</ele><time>2026-04-12T05:15:19.999Z</time></trkpt><trkpt lat="44.56582774191042" lon="8.052942146761643"><ele>711.2857142857142</ele><time>2026-04-12T05:15:21.999Z</time></trkpt><trkpt lat="44.5657949385742" lon="8.05301791409913"><ele>712.8571428571429</ele><time>2026-04-12T05:15:24.999Z</time></trkpt><trkpt lat="44.565780590320806" lon="8.053126553813243"><ele>714.4285714285714</ele><time>2026-04-12T05:15:27.999Z</time></trkpt><trkpt lat="44.56575575010013" lon="8.05321477464281"><ele>716.0</ele><time>2026-04-12T05:15:30.999Z</time></trkpt><trkpt lat="44.565729072722135" lon="8.053302145438373"><ele>716.0000000000001</ele><time>2026-04-12T05:15:33.999Z</time></trkpt><trkpt lat="44.565697280270946" lon="8.05338229201116"><ele>716.0</ele><time>2026-04-12T05:15:36.999Z</time></trkpt><trkpt lat="44.565665387867114" lon="8.053465330472386"><ele>716.0</ele><time>2026-04-12T05:15:39.999Z</time></trkpt><trkpt lat="44.5656459495783" lon="8.053550143855043"><ele>716.0</ele><time>2026-04-12T05:15:42.999Z</time></trkpt><trkpt lat="44.5656072549689" lon="8.053647597970162"><ele>716.0</ele><time>2026-04-12T05:15:46.999Z</time></trkpt><trkpt lat="44.56556557770993" lon="8.053735902794168"><ele>716.0000000000001</ele><time>2026-04-12T05:15:50.998Z</time></trkpt><trkpt lat="44.565515958541525" lon="8.053821352676042"><ele>716.0</ele><time>2026-04-12T05:15:56Z</time></trkpt><trkpt lat="44.56548526220173" lon="8.05390214777249"><ele>716.0000000000001</ele><time>2026-04-12T05:16:00Z</time></trkpt><trkpt lat="44.56544126291666" lon="8.05397238404768"><ele>716.0</ele><time>2026-04-12T05:16:04Z</time></trkpt><trkpt lat="44.565399907353765" lon="8.054039975031156"><ele>716.0</ele><time>2026-04-12T05:16:08Z</time></trkpt><trkpt lat="44.56534463297846" lon="8.054121512423862"><ele>716.0</ele><time>2026-04-12T05:16:13Z</time></trkpt><trkpt lat="44.56528447160485" lon="8.054169732991728"><ele>716.0</ele><time>2026-04-12T05:16:16Z</time></trkpt><trkpt lat="44.56521992818656" lon="8.0542457012401"><ele>716.0000000000001</ele><time>2026-04-12T05:16:20Z</time></trkpt><trkpt lat="44.56514764144665" lon="8.054299383787894"><ele>716.0</ele><time>2026-04-12T05:16:23Z</time></trkpt><trkpt lat="44.5650635939132" lon="8.05438093790849"><ele>717.4</ele><time>2026-04-12T05:16:26Z</time></trkpt><trkpt lat="44.56499749824813" lon="8.054444699916806"><ele>718.8</ele><time>2026-04-12T05:16:28Z</time></trkpt><trkpt lat="44.56491901512906" lon="8.054512693498971"><ele>720.1999999999999</ele><time>2026-04-12T05:16:30Z</time></trkpt><trkpt lat="44.56480541473649" lon="8.05459605181684"><ele>721.5999999999999</ele><time>2026-04-12T05:16:32Z</time></trkpt><trkpt lat="44.56472462600777" lon="8.054642951495552"><ele>723.0</ele><time>2026-04-12T05:16:34Z</time></trkpt><trkpt lat="44.56461862968916" lon="8.054709412170148"><ele>723.0</ele><time>2026-04-12T05:16:36Z</time></trkpt><trkpt lat="44.564553811734896" lon="8.054742807479386"><ele>723.0</ele><time>2026-04-12T05:16:37Z</time></trkpt><trkpt lat="44.5644331800171" lon="8.054805995907403"><ele>723.0</ele><time>2026-04-12T05:16:39Z</time></trkpt><trkpt lat="44.56432468355122" lon="8.054892131730284"><ele>723.0</ele><time>2026-04-12T05:16:40.999Z</time></trkpt><trkpt lat="44.5642373832145" lon="8.054985162406258"><ele>723.0</ele><time>2026-04-12T05:16:42.999Z</time></trkpt><trkpt lat="44.56418226766569" lon="8.055121040269531"><ele>721.4285714285714</ele><time>2026-04-12T05:16:44.999Z</time></trkpt><trkpt lat="44.56412789754307" lon="8.055197632869985"><ele>719.8571428571429</ele><time>2026-04-12T05:16:46.999Z</time></trkpt><trkpt lat="44.56408015223463" lon="8.055291118678197"><ele>718.2857142857142</ele><time>2026-04-12T05:16:49.999Z</time></trkpt><trkpt lat="44.56404000499472" lon="8.055370577865856"><ele>716.7142857142858</ele><time>2026-04-12T05:16:52.999Z</time></trkpt><trkpt lat="44.56399776768749" lon="8.055455998834127"><ele>715.1428571428571</ele><time>2026-04-12T05:16:55.999Z</time></trkpt><trkpt lat="44.56395949934852" lon="8.055531349580127"><ele>713.5714285714286</ele><time>2026-04-12T05:16:58.999Z</time></trkpt><trkpt lat="44.56392177316852" lon="8.055610995955654"><ele>712.0</ele><time>2026-04-12T05:17:01.999Z</time></trkpt><trkpt lat="44.56386676315544" lon="8.05569441081214"><ele>711.9999999999999</ele><time>2026-04-12T05:17:05.999Z</time></trkpt><trkpt lat="44.563838573369914" lon="8.055774953978009"><ele>712.0</ele><time>2026-04-12T05:17:08.999Z</time></trkpt><trkpt lat="44.56379716823956" lon="8.055859874513732"><ele>712.0</ele><time>2026-04-12T05:17:12.999Z</time></trkpt><trkpt lat="44.563743630193336" lon="8.055928964919405"><ele>712.0</ele><time>2026-04-12T05:17:16.999Z</time></trkpt><trkpt lat="44.563706403651274" lon="8.056004862031982"><ele>712.0</ele><time>2026-04-12T05:17:20.999Z</time></trkpt><trkpt lat="44.56367303091967" lon="8.056080232799317"><ele>711.9999999999999</ele><time>2026-04-12T05:17:24.999Z</time></trkpt><trkpt lat="44.56362478507399" lon="8.05615597394919"><ele>712.0</ele><time>2026-04-12T05:17:29.999Z</time></trkpt><trkpt lat="44.56357520532176" lon="8.056238176888646"><ele>713.2857142857142</ele><time>2026-04-12T05:17:34.999Z</time></trkpt><trkpt lat="44.56352523983988" lon="8.05631293507614"><ele>714.5714285714286</ele><time>2026-04-12T05:17:39.999Z</time></trkpt><trkpt lat="44.56347132861968" lon="8.056379968229468"><ele>715.8571428571429</ele><time>2026-04-12T05:17:44.999Z</time></trkpt><trkpt lat="44.56342632590176" lon="8.0564439099117"><ele>717.1428571428571</ele><time>2026-04-12T05:17:49.999Z</time></trkpt><trkpt lat="44.563371318402574" lon="8.05650046731844"><ele>718.4285714285714</ele><time>2026-04-12T05:17:54.998Z</time></trkpt><trkpt lat="44.56332138529366" lon="8.056558405272742"><ele>719.7142857142857</ele><time>2026-04-12T05:18:00Z</time></trkpt><trkpt lat="44.56326457631824" lon="8.056597412776544"><ele>721.0</ele><time>2026-04-12T05:18:04Z</time></trkpt><trkpt lat="44.56321309312603" lon="8.056656947579395"><ele>722.5714285714286</ele><time>2026-04-12T05:18:09Z</time></trkpt><trkpt lat="44.56315513309291" lon="8.056716193824695"><ele>724.1428571428571</ele><time>2026-04-12T05:18:14Z</time></trkpt><trkpt lat="44.5630973912581" lon="8.056768280374586"><ele>725.7142857142858</ele><time>2026-04-12T05:18:19Z</time></trkpt><trkpt lat="44.56303166103423" lon="8.056813614484328"><ele>727.2857142857142</ele><time>2026-04-12T05:18:24Z</time></trkpt><trkpt lat="44.562972186124654" lon="8.056873009558773"><ele>728.8571428571429</ele><time>2026-04-12T05:18:29Z</time></trkpt><trkpt lat="44.56291645035842" lon="8.056937103819564"><ele>730.4285714285714</ele><time>2026-04-12T05:18:34Z</time></trkpt><trkpt lat="44.562864578356276" lon="8.056989512463598"><ele>732.0</ele><time>2026-04-12T05:18:38Z</time></trkpt><trkpt lat="44.56280876402036" lon="8.057056922362158"><ele>732.8333333333334</ele><time>2026-04-12T05:18:43Z</time></trkpt><trkpt lat="44.5627515350206" lon="8.057135772312492"><ele>733.6666666666666</ele><time>2026-04-12T05:18:47.999Z</time></trkpt><trkpt lat="44.5627013358514" lon="8.05721678523097"><ele>734.5</ele><time>2026-04-12T05:18:52.999Z</time></trkpt><trkpt lat="44.562655621243294" lon="8.057309234265553"><ele>735.3333333333333</ele><time>2026-04-12T05:18:57.999Z</time></trkpt><trkpt lat="44.56263363510149" lon="8.057400779927569"><ele>736.1666666666666</ele><time>2026-04-12T05:19:01.999Z</time></trkpt><trkpt lat="44.562605938907026" lon="8.057482905310989"><ele>737.0</ele><time>2026-04-12T05:19:05.999Z</time></trkpt><trkpt lat="44.56256868588572" lon="8.057582942740273"><ele>738.5714285714287</ele><time>2026-04-12T05:19:10.999Z</time></trkpt><trkpt lat="44.56252409467064" lon="8.057661093744413"><ele>740.1428571428571</ele><time>2026-04-12T05:19:13.999Z</time></trkpt><trkpt lat="44.56247384647896" lon="8.057729431123185"><ele>741.7142857142858</ele><time>2026-04-12T05:19:16.999Z</time></trkpt><trkpt lat="44.56241206879132" lon="8.05778515089465"><ele>743.2857142857143</ele><time>2026-04-12T05:19:20.999Z</time></trkpt><trkpt lat="44.56234309005554" lon="8.057812626045074"><ele>744.8571428571429</ele><time>2026-04-12T05:19:28.999Z</time></trkpt><trkpt lat="44.56227445200631" lon="8.057814316305665"><ele>746.4285714285714</ele><time>2026-04-12T05:19:33.999Z</time></trkpt><trkpt lat="44.562210606747925" lon="8.05787778788339"><ele>748.0</ele><time>2026-04-12T05:19:37.999Z</time></trkpt><trkpt lat="44.5621541560184" lon="8.057931655890197"><ele>748.0</ele><time>2026-04-12T05:19:41.999Z</time></trkpt><trkpt lat="44.56209446071506" lon="8.057984358962074"><ele>748.0</ele><time>2026-04-12T05:19:46.999Z</time></trkpt><trkpt lat="44.56208676877853" lon="8.058089343856572"><ele>748.0</ele><time>2026-04-12T05:19:52.999Z</time></trkpt><trkpt lat="44.562060686318524" lon="8.058185139715434"><ele>748.0</ele><time>2026-04-12T05:19:57.999Z</time></trkpt><trkpt lat="44.56203964798926" lon="8.058271706438473"><ele>748.0</ele><time>2026-04-12T05:20:01.999Z</time></trkpt><trkpt lat="44.56200399089934" lon="8.058353457624763"><ele>748.0</ele><time>2026-04-12T05:21:22.999Z</time></trkpt><trkpt lat="44.56195788720029" lon="8.058429481591421"><ele>748.0</ele><time>2026-04-12T05:21:25.999Z</time></trkpt><trkpt lat="44.56190919809641" lon="8.058511224893874"><ele>749.4</ele><time>2026-04-12T05:21:27.999Z</time></trkpt><trkpt lat="44.561848094702505" lon="8.058586945717645"><ele>750.8</ele><time>2026-04-12T05:21:29.999Z</time></trkpt><trkpt lat="44.56175138692539" lon="8.058578746818338"><ele>752.2</ele><time>2026-04-12T05:21:31.999Z</time></trkpt><trkpt lat="44.56165014366502" lon="8.05850800935722"><ele>753.6</ele><time>2026-04-12T05:21:33.999Z</time></trkpt><trkpt lat="44.56156480977971" lon="8.058411361524499"><ele>755.0</ele><time>2026-04-12T05:21:35.999Z</time></trkpt><trkpt lat="44.56146800577999" lon="8.058344647649651"><ele>755.4</ele><time>2026-04-12T05:21:37.999Z</time></trkpt><trkpt lat="44.561378521704846" lon="8.058281323539205"><ele>755.8</ele><time>2026-04-12T05:21:39.999Z</time></trkpt><trkpt lat="44.56127986537689" lon="8.058245793408782"><ele>756.2</ele><time>2026-04-12T05:21:41.999Z</time></trkpt><trkpt lat="44.56119119203615" lon="8.058197417103846"><ele>756.6</ele><time>2026-04-12T05:21:43.999Z</time></trkpt><trkpt lat="44.561106970092865" lon="8.058178512976967"><ele>757.0</ele><time>2026-04-12T05:21:45.999Z</time></trkpt><trkpt lat="44.561015903801156" lon="8.058188705424207"><ele>756.8</ele><time>2026-04-12T05:21:47.999Z</time></trkpt><trkpt lat="44.56091392635607" lon="8.058238549145461"><ele>756.6</ele><time>2026-04-12T05:21:50.999Z</time></trkpt><trkpt lat="44.56084047059609" lon="8.058272183766169"><ele>756.4</ele><time>2026-04-12T05:21:52.999Z</time></trkpt><trkpt lat="44.56075341031583" lon="8.05828056682914"><ele>756.1999999999999</ele><time>2026-04-12T05:21:54.999Z</time></trkpt><trkpt lat="44.560659601109855" lon="8.058308444883165"><ele>756.0</ele><time>2026-04-12T05:21:56.999Z</time></trkpt><trkpt lat="44.56055521015473" lon="8.05835674620403"><ele>756.0</ele><time>2026-04-12T05:21:58.999Z</time></trkpt><trkpt lat="44.560441562627226" lon="8.058373755393292"><ele>756.0</ele><time>2026-04-12T05:22:00.999Z</time></trkpt><trkpt lat="44.56032363366099" lon="8.05835838190038"><ele>756.0</ele><time>2026-04-12T05:22:02.999Z</time></trkpt><trkpt lat="44.56021419080414" lon="8.058338357901452"><ele>756.0</ele><time>2026-04-12T05:22:04.999Z</time></trkpt><trkpt lat="44.560123198158394" lon="8.058284203480982"><ele>756.0</ele><time>2026-04-12T05:22:06.999Z</time></trkpt><trkpt lat="44.56003779812642" lon="8.058233494309576"><ele>755.8</ele><time>2026-04-12T05:22:08.998Z</time></trkpt><trkpt lat="44.55998312185744" lon="8.058349961886625"><ele>755.5999999999999</ele><time>2026-04-12T05:22:10Z</time></trkpt><trkpt lat="44.55989446562402" lon="8.05841856080826"><ele>755.4</ele><time>2026-04-12T05:22:12Z</time></trkpt><trkpt lat="44.55979161568293" lon="8.058445857746072"><ele>755.2</ele><time>2026-04-12T05:22:14Z</time></trkpt><trkpt lat="44.55968035427066" lon="8.058508559648217"><ele>755.0</ele><time>2026-04-12T05:22:16Z</time></trkpt><trkpt lat="44.55962171584656" lon="8.058547593979775"><ele>755.0</ele><time>2026-04-12T05:22:17Z</time></trkpt><trkpt lat="44.55955412680646" lon="8.058590734909684"><ele>755.0</ele><time>2026-04-12T05:22:18Z</time></trkpt><trkpt lat="44.559504437170546" lon="8.058654303684206"><ele>755.0</ele><time>2026-04-12T05:22:19Z</time></trkpt><trkpt lat="44.55942188229822" lon="8.05868765788248"><ele>755.0</ele><time>2026-04-12T05:22:20Z</time></trkpt><trkpt lat="44.55932330991703" lon="8.058751013814987"><ele>755.0</ele><time>2026-04-12T05:22:21Z</time></trkpt><trkpt lat="44.559247972103904" lon="8.058831052794146"><ele>755.0</ele><time>2026-04-12T05:22:22Z</time></trkpt><trkpt lat="44.55915068700207" lon="8.058891247371797"><ele>752.2</ele><time>2026-04-12T05:22:23Z</time></trkpt><trkpt lat="44.559063214008496" lon="8.05895775386584"><ele>749.4</ele><time>2026-04-12T05:22:24Z</time></trkpt><trkpt lat="44.55897818373503" lon="8.059036759076339"><ele>746.5999999999999</ele><time>2026-04-12T05:22:25Z</time></trkpt><trkpt lat="44.55887891337562" lon="8.059101684176172"><ele>743.8</ele><time>2026-04-12T05:22:26Z</time></trkpt><trkpt lat="44.55878959910625" lon="8.059170826313895"><ele>741.0</ele><time>2026-04-12T05:22:27Z</time></trkpt><trkpt lat="44.55869867876425" lon="8.059233827481243"><ele>739.5999999999999</ele><time>2026-04-12T05:22:28Z</time></trkpt><trkpt lat="44.55860886758262" lon="8.059295260228488"><ele>738.2</ele><time>2026-04-12T05:22:29Z</time></trkpt><trkpt lat="44.55852191157532" lon="8.059356560398012"><ele>736.8</ele><time>2026-04-12T05:22:30Z</time></trkpt><trkpt lat="44.558459388966305" lon="8.059401173429844"><ele>735.4000000000001</ele><time>2026-04-12T05:22:31Z</time></trkpt><trkpt lat="44.558354308511326" lon="8.059471692419287"><ele>734.0</ele><time>2026-04-12T05:22:33Z</time></trkpt><trkpt lat="44.55826591075268" lon="8.059511734363175"><ele>734.0</ele><time>2026-04-12T05:22:35Z</time></trkpt><trkpt lat="44.5581707070857" lon="8.059518700384695"><ele>734.0</ele><time>2026-04-12T05:22:38Z</time></trkpt><trkpt lat="44.55808935982155" lon="8.059559982789908"><ele>734.0</ele><time>2026-04-12T05:22:40Z</time></trkpt><trkpt lat="44.55799591267215" lon="8.059554941062496"><ele>734.0</ele><time>2026-04-12T05:22:42Z</time></trkpt><trkpt lat="44.55791207864965" lon="8.059547487721"><ele>734.0</ele><time>2026-04-12T05:22:44Z</time></trkpt><trkpt lat="44.55782787224402" lon="8.059560791892403"><ele>734.0</ele><time>2026-04-12T05:22:46Z</time></trkpt><trkpt lat="44.55773908721446" lon="8.059594358353507"><ele>731.8000000000001</ele><time>2026-04-12T05:22:48Z</time></trkpt><trkpt lat="44.55764955618415" lon="8.059634143259528"><ele>729.6</ele><time>2026-04-12T05:22:50Z</time></trkpt><trkpt lat="44.557566250723525" lon="8.059687045002795"><ele>727.4</ele><time>2026-04-12T05:22:52Z</time></trkpt><trkpt lat="44.55747553428091" lon="8.059741769527749"><ele>725.2</ele><time>2026-04-12T05:22:54Z</time></trkpt><trkpt lat="44.55737879869694" lon="8.059791579474403"><ele>723.0</ele><time>2026-04-12T05:22:56Z</time></trkpt><trkpt lat="44.55728308411432" lon="8.059851882573861"><ele>723.0</ele><time>2026-04-12T05:22:58Z</time></trkpt><trkpt lat="44.557183639253836" lon="8.059924572587565"><ele>723.0</ele><time>2026-04-12T05:22:59.999Z</time></trkpt><trkpt lat="44.55707948065645" lon="8.05999628583013"><ele>723.0</ele><time>2026-04-12T05:23:01.999Z</time></trkpt><trkpt lat="44.55702332226144" lon="8.060049476317309"><ele>723.0</ele><time>2026-04-12T05:23:02.999Z</time></trkpt><trkpt lat="44.55690247011462" lon="8.060094616597938"><ele>723.0</ele><time>2026-04-12T05:23:04.999Z</time></trkpt><trkpt lat="44.556843507277165" lon="8.060127134329909"><ele>724.1666666666666</ele><time>2026-04-12T05:23:05.999Z</time></trkpt><trkpt lat="44.55678265441578" lon="8.06015518723161"><ele>725.3333333333334</ele><time>2026-04-12T05:23:06.999Z</time></trkpt><trkpt lat="44.55672142500088" lon="8.060177191340118"><ele>726.5</ele><time>2026-04-12T05:23:07.999Z</time></trkpt><trkpt lat="44.556596823462705" lon="8.060216989733172"><ele>727.6666666666667</ele><time>2026-04-12T05:23:09.999Z</time></trkpt><trkpt lat="44.556534274341736" lon="8.060241480682452"><ele>728.8333333333334</ele><time>2026-04-12T05:23:10.999Z</time></trkpt><trkpt lat="44.556415449684685" lon="8.060276503916098"><ele>730.0</ele><time>2026-04-12T05:23:12.999Z</time></trkpt><trkpt lat="44.556291672311964" lon="8.060311290958195"><ele>728.0</ele><time>2026-04-12T05:23:14.999Z</time></trkpt><trkpt lat="44.55617055737266" lon="8.060368689435053"><ele>726.0</ele><time>2026-04-12T05:23:16.999Z</time></trkpt><trkpt lat="44.55605637968993" lon="8.060437748850186"><ele>724.0</ele><time>2026-04-12T05:23:18.999Z</time></trkpt><trkpt lat="44.556001424716314" lon="8.060480917843217"><ele>722.0</ele><time>2026-04-12T05:23:19.999Z</time></trkpt><trkpt lat="44.55590660228909" lon="8.060594623208512"><ele>720.0</ele><time>2026-04-12T05:23:21.999Z</time></trkpt><trkpt lat="44.5558645456651" lon="8.060660840868296"><ele>720.0</ele><time>2026-04-12T05:23:22.999Z</time></trkpt><trkpt lat="44.55582216114727" lon="8.060726676938492"><ele>720.0</ele><time>2026-04-12T05:23:23.999Z</time></trkpt><trkpt lat="44.55574782151613" lon="8.06086544349989"><ele>720.0</ele><time>2026-04-12T05:23:25.999Z</time></trkpt><trkpt lat="44.55571473488893" lon="8.060942598670021"><ele>720.0</ele><time>2026-04-12T05:23:26.999Z</time></trkpt><trkpt lat="44.55564703294838" lon="8.061089467401779"><ele>720.0</ele><time>2026-04-12T05:23:28.999Z</time></trkpt><trkpt lat="44.555613722830415" lon="8.061171829331045"><ele>720.0</ele><time>2026-04-12T05:23:29.999Z</time></trkpt><trkpt lat="44.55558140002413" lon="8.061251024371485"><ele>721.25</ele><time>2026-04-12T05:23:30.999Z</time></trkpt><trkpt lat="44.55552210473093" lon="8.061406250254027"><ele>722.5</ele><time>2026-04-12T05:23:32.999Z</time></trkpt><trkpt lat="44.555457767273296" lon="8.061552673243307"><ele>723.75</ele><time>2026-04-12T05:23:34.999Z</time></trkpt><trkpt lat="44.55540660055414" lon="8.061703628896275"><ele>725.0</ele><time>2026-04-12T05:23:36.999Z</time></trkpt><trkpt lat="44.555342088421064" lon="8.061839868172031"><ele>725.0</ele><time>2026-04-12T05:23:38.999Z</time></trkpt><trkpt lat="44.55528425168072" lon="8.061963163823421"><ele>725.0</ele><time>2026-04-12T05:23:40.999Z</time></trkpt><trkpt lat="44.555219249535554" lon="8.062095758280352"><ele>725.0</ele><time>2026-04-12T05:23:42.999Z</time></trkpt><trkpt lat="44.55513669143536" lon="8.06222104055121"><ele>725.0</ele><time>2026-04-12T05:23:44.999Z</time></trkpt><trkpt lat="44.555093787671616" lon="8.062286970590861"><ele>725.0</ele><time>2026-04-12T05:23:45.999Z</time></trkpt><trkpt lat="44.555000223876235" lon="8.062391456544768"><ele>727.25</ele><time>2026-04-12T05:23:47.999Z</time></trkpt><trkpt lat="44.55489858920441" lon="8.062481280801183"><ele>729.5</ele><time>2026-04-12T05:23:49.999Z</time></trkpt><trkpt lat="44.55478488281439" lon="8.062532688946057"><ele>731.75</ele><time>2026-04-12T05:23:51.999Z</time></trkpt><trkpt lat="44.55467560236713" lon="8.062567283858092"><ele>734.0</ele><time>2026-04-12T05:23:53.999Z</time></trkpt><trkpt lat="44.5545674342995" lon="8.062592211244393"><ele>733.4000000000001</ele><time>2026-04-12T05:23:55.999Z</time></trkpt><trkpt lat="44.55453024472894" lon="8.062718119253313"><ele>732.8</ele><time>2026-04-12T05:23:56.999Z</time></trkpt><trkpt lat="44.554435020947416" lon="8.06278446507732"><ele>732.2</ele><time>2026-04-12T05:23:58.999Z</time></trkpt><trkpt lat="44.55434121393921" lon="8.062819231534228"><ele>731.5999999999999</ele><time>2026-04-12T05:24:00.999Z</time></trkpt><trkpt lat="44.55424993880724" lon="8.062859233113988"><ele>731.0</ele><time>2026-04-12T05:24:02.999Z</time></trkpt><trkpt lat="44.55416602112811" lon="8.062899387469155"><ele>731.0</ele><time>2026-04-12T05:24:04.999Z</time></trkpt><trkpt lat="44.554087945626954" lon="8.062936000912055"><ele>731.0</ele><time>2026-04-12T05:24:06.999Z</time></trkpt><trkpt lat="44.554017085069226" lon="8.06297814850863"><ele>731.0</ele><time>2026-04-12T05:24:08.999Z</time></trkpt><trkpt lat="44.55394632023641" lon="8.06301328004365"><ele>731.0</ele><time>2026-04-12T05:24:10.999Z</time></trkpt><trkpt lat="44.553883280688275" lon="8.063064208008708"><ele>731.0</ele><time>2026-04-12T05:24:12.999Z</time></trkpt><trkpt lat="44.55381368387906" lon="8.063101138947474"><ele>731.0</ele><time>2026-04-12T05:24:14.998Z</time></trkpt><trkpt lat="44.55374540900231" lon="8.063131695586927"><ele>731.1428571428571</ele><time>2026-04-12T05:24:17Z</time></trkpt><trkpt lat="44.55368646875775" lon="8.063175542511656"><ele>731.2857142857142</ele><time>2026-04-12T05:24:19Z</time></trkpt><trkpt lat="44.55361871526788" lon="8.063252091232892"><ele>731.4285714285714</ele><time>2026-04-12T05:24:22Z</time></trkpt><trkpt lat="44.553553872679096" lon="8.063310490065026"><ele>731.5714285714286</ele><time>2026-04-12T05:24:25Z</time></trkpt><trkpt lat="44.553492773949564" lon="8.063345840503317"><ele>731.7142857142858</ele><time>2026-04-12T05:24:28Z</time></trkpt><trkpt lat="44.553436980262695" lon="8.063392123562531"><ele>731.8571428571429</ele><time>2026-04-12T05:24:31Z</time></trkpt><trkpt lat="44.553377699801985" lon="8.06343504001422"><ele>732.0</ele><time>2026-04-12T05:24:34Z</time></trkpt><trkpt lat="44.55329671158644" lon="8.063500263656834"><ele>733.6</ele><time>2026-04-12T05:24:38Z</time></trkpt><trkpt lat="44.55322727787563" lon="8.063554410930658"><ele>735.2</ele><time>2026-04-12T05:24:41Z</time></trkpt><trkpt lat="44.55316798886906" lon="8.063612743412111"><ele>736.8</ele><time>2026-04-12T05:24:43Z</time></trkpt><trkpt lat="44.553096978859735" lon="8.063683015723104"><ele>738.4</ele><time>2026-04-12T05:24:45Z</time></trkpt><trkpt lat="44.553022585361234" lon="8.063786153009794"><ele>740.0</ele><time>2026-04-12T05:24:47Z</time></trkpt><trkpt lat="44.55294711533567" lon="8.063915695138903"><ele>739.9999999999999</ele><time>2026-04-12T05:24:49Z</time></trkpt><trkpt lat="44.55290571984033" lon="8.06398306555616"><ele>740.0</ele><time>2026-04-12T05:24:50Z</time></trkpt><trkpt lat="44.552859934798384" lon="8.06405283498767"><ele>740.0</ele><time>2026-04-12T05:24:51Z</time></trkpt><trkpt lat="44.552814489303934" lon="8.06413013511203"><ele>740.0</ele><time>2026-04-12T05:24:52Z</time></trkpt><trkpt lat="44.552767693964846" lon="8.064214349558792"><ele>740.0</ele><time>2026-04-12T05:24:53Z</time></trkpt><trkpt lat="44.55271976308619" lon="8.064303047139953"><ele>739.9999999999999</ele><time>2026-04-12T05:24:54Z</time></trkpt><trkpt lat="44.55267274111935" lon="8.064394099913367"><ele>740.0</ele><time>2026-04-12T05:24:55Z</time></trkpt><trkpt lat="44.5526230705229" lon="8.064486352823272"><ele>740.0</ele><time>2026-04-12T05:24:56Z</time></trkpt><trkpt lat="44.55257359933526" lon="8.064579500204113"><ele>740.0</ele><time>2026-04-12T05:24:57Z</time></trkpt><trkpt lat="44.552522077505714" lon="8.064672996509938"><ele>740.0</ele><time>2026-04-12T05:24:58Z</time></trkpt><trkpt lat="44.55247037731983" lon="8.064765380878908"><ele>740.0</ele><time>2026-04-12T05:24:59Z</time></trkpt><trkpt lat="44.55242445134081" lon="8.064862857956513"><ele>740.0</ele><time>2026-04-12T05:25:00Z</time></trkpt><trkpt lat="44.5523829317877" lon="8.064965317852325"><ele>740.0</ele><time>2026-04-12T05:25:01Z</time></trkpt><trkpt lat="44.55234808343188" lon="8.06506970993776"><ele>739.9999999999999</ele><time>2026-04-12T05:25:01.999Z</time></trkpt><trkpt lat="44.55231546451608" lon="8.065172543841209"><ele>740.0</ele><time>2026-04-12T05:25:02.999Z</time></trkpt><trkpt lat="44.55228049533299" lon="8.065272824499054"><ele>740.0</ele><time>2026-04-12T05:25:03.999Z</time></trkpt><trkpt lat="44.5522459036659" lon="8.065368259128647"><ele>740.0</ele><time>2026-04-12T05:25:04.999Z</time></trkpt><trkpt lat="44.552212934859476" lon="8.065456976396034"><ele>740.0</ele><time>2026-04-12T05:25:05.999Z</time></trkpt><trkpt lat="44.552180454367615" lon="8.06553962047098"><ele>739.9999999999999</ele><time>2026-04-12T05:25:06.999Z</time></trkpt><trkpt lat="44.55215322195337" lon="8.065621765344167"><ele>740.0</ele><time>2026-04-12T05:25:07.999Z</time></trkpt><trkpt lat="44.552078733272104" lon="8.065762841647935"><ele>738.8</ele><time>2026-04-12T05:25:09.999Z</time></trkpt><trkpt lat="44.552021782324786" lon="8.065910654589116"><ele>737.6</ele><time>2026-04-12T05:25:11.999Z</time></trkpt><trkpt lat="44.55197601110292" lon="8.066049982456803"><ele>736.4000000000001</ele><time>2026-04-12T05:25:13.999Z</time></trkpt><trkpt lat="44.55194458341044" lon="8.066169969754378"><ele>735.2</ele><time>2026-04-12T05:25:15.999Z</time></trkpt><trkpt lat="44.55189413413027" lon="8.06611500827378"><ele>734.0</ele><time>2026-04-12T05:25:19.999Z</time></trkpt><trkpt lat="44.551896874117126" lon="8.065993385446179"><ele>734.0</ele><time>2026-04-12T05:25:23.999Z</time></trkpt><trkpt lat="44.55189105914844" lon="8.065887369266155"><ele>734.0</ele><time>2026-04-12T05:25:26.999Z</time></trkpt><trkpt lat="44.551880201809226" lon="8.065771228180258"><ele>734.0</ele><time>2026-04-12T05:25:29.999Z</time></trkpt><trkpt lat="44.5518685002279" lon="8.065660739114012"><ele>734.0</ele><time>2026-04-12T05:25:32.999Z</time></trkpt><trkpt lat="44.55185601751548" lon="8.06555406083852"><ele>734.0</ele><time>2026-04-12T05:25:35.999Z</time></trkpt><trkpt lat="44.55183544990544" lon="8.065437451831306"><ele>734.0</ele><time>2026-04-12T05:25:38.999Z</time></trkpt><trkpt lat="44.551822428077465" lon="8.06533566784003"><ele>734.7142857142857</ele><time>2026-04-12T05:25:41.999Z</time></trkpt><trkpt lat="44.55181413094971" lon="8.065231677807718"><ele>735.4285714285714</ele><time>2026-04-12T05:25:44.999Z</time></trkpt><trkpt lat="44.55180651669983" lon="8.065130500560228"><ele>736.1428571428571</ele><time>2026-04-12T05:25:48.999Z</time></trkpt><trkpt lat="44.551805991955796" lon="8.065018921930745"><ele>736.8571428571429</ele><time>2026-04-12T05:25:52.999Z</time></trkpt><trkpt lat="44.55180335092559" lon="8.064928359502185"><ele>737.5714285714287</ele><time>2026-04-12T05:25:54.999Z</time></trkpt><trkpt lat="44.55178318239373" lon="8.06481978533722"><ele>738.2857142857143</ele><time>2026-04-12T05:25:56.999Z</time></trkpt><trkpt lat="44.551747535010676" lon="8.064722842785493"><ele>739.0</ele><time>2026-04-12T05:25:58.999Z</time></trkpt><trkpt lat="44.55171172655719" lon="8.06463478781741"><ele>739.8333333333334</ele><time>2026-04-12T05:26:00.999Z</time></trkpt><trkpt lat="44.55167270728403" lon="8.064560307740106"><ele>740.6666666666667</ele><time>2026-04-12T05:26:02.999Z</time></trkpt><trkpt lat="44.551606309148866" lon="8.06445996834166"><ele>741.5</ele><time>2026-04-12T05:26:05.999Z</time></trkpt><trkpt lat="44.55155110913458" lon="8.064368389435852"><ele>742.3333333333334</ele><time>2026-04-12T05:26:08.999Z</time></trkpt><trkpt lat="44.551504029265985" lon="8.06428288026615"><ele>743.1666666666666</ele><time>2026-04-12T05:26:11.999Z</time></trkpt><trkpt lat="44.551445534646405" lon="8.064232125058387"><ele>744.0</ele><time>2026-04-12T05:26:14.999Z</time></trkpt><trkpt lat="44.551398807304714" lon="8.064162302703135"><ele>743.6666666666666</ele><time>2026-04-12T05:26:18.998Z</time></trkpt><trkpt lat="44.551345639514764" lon="8.06410158765868"><ele>743.3333333333334</ele><time>2026-04-12T05:26:22Z</time></trkpt><trkpt lat="44.551286919143976" lon="8.064030025880125"><ele>743.0</ele><time>2026-04-12T05:26:26Z</time></trkpt><trkpt lat="44.55123028460573" lon="8.063970580254882"><ele>742.6666666666667</ele><time>2026-04-12T05:26:29Z</time></trkpt><trkpt lat="44.551177224131344" lon="8.063896996557627"><ele>742.3333333333334</ele><time>2026-04-12T05:26:33Z</time></trkpt><trkpt lat="44.551110392626924" lon="8.063825170454543"><ele>742.0</ele><time>2026-04-12T05:26:37Z</time></trkpt><trkpt lat="44.5510571489008" lon="8.063753185578628"><ele>742.0</ele><time>2026-04-12T05:26:40Z</time></trkpt><trkpt lat="44.55102151858829" lon="8.063679137424737"><ele>742.0</ele><time>2026-04-12T05:26:42Z</time></trkpt><trkpt lat="44.55098225919927" lon="8.063609597422053"><ele>742.0</ele><time>2026-04-12T05:26:44Z</time></trkpt><trkpt lat="44.55094854840471" lon="8.063532378867915"><ele>742.0</ele><time>2026-04-12T05:26:46Z</time></trkpt><trkpt lat="44.55089769178246" lon="8.063452990376474"><ele>742.0</ele><time>2026-04-12T05:26:48Z</time></trkpt><trkpt lat="44.55083760290429" lon="8.063363245723643"><ele>742.0</ele><time>2026-04-12T05:26:51Z</time></trkpt><trkpt lat="44.5507752792275" lon="8.063302608742186"><ele>742.0</ele><time>2026-04-12T05:26:53Z</time></trkpt><trkpt lat="44.55071692216831" lon="8.063236542002429"><ele>741.6666666666667</ele><time>2026-04-12T05:26:55Z</time></trkpt><trkpt lat="44.55064671260378" lon="8.06316972600613"><ele>741.3333333333334</ele><time>2026-04-12T05:26:58Z</time></trkpt><trkpt lat="44.550586924026895" lon="8.063106069035756"><ele>741.0</ele><time>2026-04-12T05:27:01Z</time></trkpt><trkpt lat="44.55052930454844" lon="8.063031671555223"><ele>740.6666666666666</ele><time>2026-04-12T05:27:04Z</time></trkpt><trkpt lat="44.55046847672559" lon="8.062974656034521"><ele>740.3333333333333</ele><time>2026-04-12T05:27:06Z</time></trkpt><trkpt lat="44.55042057043411" lon="8.062898903255938"><ele>740.0</ele><time>2026-04-12T05:27:07.999Z</time></trkpt><trkpt lat="44.55035875319009" lon="8.062832853186125"><ele>738.5</ele><time>2026-04-12T05:27:11.999Z</time></trkpt><trkpt lat="44.550310655316565" lon="8.062761935718756"><ele>737.0</ele><time>2026-04-12T05:27:14.999Z</time></trkpt><trkpt lat="44.550261578308394" lon="8.062670293980766"><ele>735.5</ele><time>2026-04-12T05:27:17.999Z</time></trkpt><trkpt lat="44.55022531209187" lon="8.06256666335317"><ele>734.0</ele><time>2026-04-12T05:27:20.999Z</time></trkpt><trkpt lat="44.550208591628405" lon="8.062462439001697"><ele>732.5</ele><time>2026-04-12T05:27:23.999Z</time></trkpt><trkpt lat="44.550191530609624" lon="8.06233466195467"><ele>731.0</ele><time>2026-04-12T05:27:26.999Z</time></trkpt><trkpt lat="44.55015927098336" lon="8.06223327238619"><ele>730.6666666666666</ele><time>2026-04-12T05:27:29.999Z</time></trkpt><trkpt lat="44.550114499704144" lon="8.062150057847047"><ele>730.3333333333333</ele><time>2026-04-12T05:27:33.999Z</time></trkpt><trkpt lat="44.55007889752198" lon="8.062075848930254"><ele>730.0</ele><time>2026-04-12T05:27:35.999Z</time></trkpt><trkpt lat="44.54996490397632" lon="8.062078679098915"><ele>729.6666666666666</ele><time>2026-04-12T05:27:36.999Z</time></trkpt><trkpt lat="44.54995181456856" lon="8.061963074046238"><ele>729.3333333333334</ele><time>2026-04-12T05:27:41.999Z</time></trkpt><trkpt lat="44.54994115870825" lon="8.06186896214922"><ele>729.0</ele><time>2026-04-12T05:27:45.999Z</time></trkpt><trkpt lat="44.54994075296466" lon="8.061765378794503"><ele>729.0</ele><time>2026-04-12T05:27:49.999Z</time></trkpt><trkpt lat="44.549920997978035" lon="8.061643020949047"><ele>729.0</ele><time>2026-04-12T05:27:52.999Z</time></trkpt><trkpt lat="44.549912976886745" lon="8.061548951449687"><ele>729.0</ele><time>2026-04-12T05:27:54.999Z</time></trkpt><trkpt lat="44.54989003849827" lon="8.061445225004201"><ele>729.0</ele><time>2026-04-12T05:27:56.999Z</time></trkpt><trkpt lat="44.54988781408708" lon="8.061333998099943"><ele>729.0</ele><time>2026-04-12T05:27:58.999Z</time></trkpt><trkpt lat="44.54988438055252" lon="8.061233332600588"><ele>729.0</ele><time>2026-04-12T05:28:00.999Z</time></trkpt><trkpt lat="44.549910972594205" lon="8.061110048514847"><ele>728.3333333333334</ele><time>2026-04-12T05:28:03.999Z</time></trkpt><trkpt lat="44.54982666378215" lon="8.061003628123407"><ele>727.6666666666666</ele><time>2026-04-12T05:28:05.999Z</time></trkpt><trkpt lat="44.549774552963484" lon="8.060919102431273"><ele>727.0</ele><time>2026-04-12T05:28:07.999Z</time></trkpt><trkpt lat="44.54971806750534" lon="8.060833647658797"><ele>726.3333333333333</ele><time>2026-04-12T05:28:09.999Z</time></trkpt><trkpt lat="44.54966284032408" lon="8.060757131201786"><ele>725.6666666666666</ele><time>2026-04-12T05:28:11.999Z</time></trkpt><trkpt lat="44.549612541057144" lon="8.060681715771082"><ele>725.0</ele><time>2026-04-12T05:28:13.999Z</time></trkpt><trkpt lat="44.54954938887854" lon="8.060618840010775"><ele>725.2857142857143</ele><time>2026-04-12T05:28:15.999Z</time></trkpt><trkpt lat="44.54948657208689" lon="8.060563560321153"><ele>725.5714285714287</ele><time>2026-04-12T05:28:17.999Z</time></trkpt><trkpt lat="44.54943410045664" lon="8.060498898311476"><ele>725.8571428571429</ele><time>2026-04-12T05:28:19.999Z</time></trkpt><trkpt lat="44.54939162682312" lon="8.060418742685872"><ele>726.1428571428571</ele><time>2026-04-12T05:28:21.999Z</time></trkpt><trkpt lat="44.549316921978225" lon="8.060397489654166"><ele>726.4285714285714</ele><time>2026-04-12T05:28:24.998Z</time></trkpt><trkpt lat="44.54924392218313" lon="8.060377266225874"><ele>726.7142857142857</ele><time>2026-04-12T05:28:26.998Z</time></trkpt><trkpt lat="44.54916279131431" lon="8.060356415214095"><ele>727.0</ele><time>2026-04-12T05:28:29Z</time></trkpt><trkpt lat="44.54913799379877" lon="8.059977949336867"><ele>725.3333333333334</ele><time>2026-04-12T05:28:30Z</time></trkpt><trkpt lat="44.549087680532296" lon="8.05991559401036"><ele>723.6666666666667</ele><time>2026-04-12T05:28:31Z</time></trkpt><trkpt lat="44.54903530455628" lon="8.05986084239986"><ele>722.0</ele><time>2026-04-12T05:28:32Z</time></trkpt><trkpt lat="44.54896413375384" lon="8.059778118735444"><ele>720.3333333333334</ele><time>2026-04-12T05:28:34Z</time></trkpt><trkpt lat="44.54890659813424" lon="8.059702119441349"><ele>718.6666666666666</ele><time>2026-04-12T05:28:36Z</time></trkpt><trkpt lat="44.548845601631385" lon="8.059602290408032"><ele>717.0</ele><time>2026-04-12T05:28:39Z</time></trkpt><trkpt lat="44.548794121230145" lon="8.059522337775972"><ele>717.0</ele><time>2026-04-12T05:28:41Z</time></trkpt><trkpt lat="44.548754464023915" lon="8.05943210324434"><ele>717.0</ele><time>2026-04-12T05:28:43Z</time></trkpt><trkpt lat="44.54870898144794" lon="8.059355364379648"><ele>717.0</ele><time>2026-04-12T05:28:45Z</time></trkpt><trkpt lat="44.54865393757424" lon="8.05929489694378"><ele>717.0</ele><time>2026-04-12T05:28:49Z</time></trkpt><trkpt lat="44.54861058222896" lon="8.059203870353898"><ele>717.0</ele><time>2026-04-12T05:28:53Z</time></trkpt><trkpt lat="44.548564881601415" lon="8.059115088945621"><ele>717.0</ele><time>2026-04-12T05:28:57Z</time></trkpt><trkpt lat="44.54853354372131" lon="8.059037336607888"><ele>717.0</ele><time>2026-04-12T05:29:00Z</time></trkpt><trkpt lat="44.54849273369437" lon="8.058964669828018"><ele>718.4285714285714</ele><time>2026-04-12T05:29:03Z</time></trkpt><trkpt lat="44.54844393624934" lon="8.058890114335506"><ele>719.8571428571429</ele><time>2026-04-12T05:29:07Z</time></trkpt><trkpt lat="44.5483954577577" lon="8.058830665891648"><ele>721.2857142857142</ele><time>2026-04-12T05:29:11Z</time></trkpt><trkpt lat="44.548341841327776" lon="8.058765493838928"><ele>722.7142857142858</ele><time>2026-04-12T05:29:14.999Z</time></trkpt><trkpt lat="44.54829300362616" lon="8.058696045183789"><ele>724.1428571428572</ele><time>2026-04-12T05:29:17.999Z</time></trkpt><trkpt lat="44.548239346375325" lon="8.058601800187"><ele>725.5714285714286</ele><time>2026-04-12T05:29:20.999Z</time></trkpt><trkpt lat="44.54819064102602" lon="8.058505358367325"><ele>727.0</ele><time>2026-04-12T05:29:24.999Z</time></trkpt><trkpt lat="44.54815364136864" lon="8.05842289960878"><ele>727.0</ele><time>2026-04-12T05:29:27.999Z</time></trkpt><trkpt lat="44.548131547492936" lon="8.05833428519601"><ele>727.0</ele><time>2026-04-12T05:29:30.999Z</time></trkpt><trkpt lat="44.54810601129681" lon="8.058229180445005"><ele>727.0</ele><time>2026-04-12T05:29:33.999Z</time></trkpt><trkpt lat="44.54807235760849" lon="8.058137764344968"><ele>727.0</ele><time>2026-04-12T05:29:36.999Z</time></trkpt><trkpt lat="44.54805134664035" lon="8.058053059135554"><ele>727.0</ele><time>2026-04-12T05:29:39.999Z</time></trkpt><trkpt lat="44.548018746570655" lon="8.05793069825832"><ele>727.0</ele><time>2026-04-12T05:29:42.999Z</time></trkpt><trkpt lat="44.5479896693988" lon="8.057827237535207"><ele>727.3333333333334</ele><time>2026-04-12T05:29:45.999Z</time></trkpt><trkpt lat="44.54794101499939" lon="8.05772702866002"><ele>727.6666666666667</ele><time>2026-04-12T05:29:48.999Z</time></trkpt><trkpt lat="44.54791556148937" lon="8.057639740933821"><ele>728.0</ele><time>2026-04-12T05:29:51.999Z</time></trkpt><trkpt lat="44.54789852042898" lon="8.057513960230668"><ele>728.3333333333334</ele><time>2026-04-12T05:29:54.999Z</time></trkpt><trkpt lat="44.547884701321884" lon="8.05740171695844"><ele>728.6666666666666</ele><time>2026-04-12T05:29:57.999Z</time></trkpt><trkpt lat="44.547854869509266" lon="8.057278617636777"><ele>729.0</ele><time>2026-04-12T05:30:00.999Z</time></trkpt><trkpt lat="44.547830824497225" lon="8.057183212293268"><ele>729.0</ele><time>2026-04-12T05:30:02.999Z</time></trkpt><trkpt lat="44.547803186391086" lon="8.057070170783923"><ele>729.0</ele><time>2026-04-12T05:30:04.999Z</time></trkpt><trkpt lat="44.54776604675624" lon="8.05696134862546"><ele>729.0</ele><time>2026-04-12T05:30:06.999Z</time></trkpt><trkpt lat="44.547719532738284" lon="8.056858508199525"><ele>729.0</ele><time>2026-04-12T05:30:08.999Z</time></trkpt><trkpt lat="44.54767771362484" lon="8.056762895860235"><ele>729.0</ele><time>2026-04-12T05:30:10.999Z</time></trkpt><trkpt lat="44.54762172844353" lon="8.056665952671873"><ele>729.0</ele><time>2026-04-12T05:30:13.999Z</time></trkpt><trkpt lat="44.54755418029105" lon="8.05664738834701"><ele>729.0</ele><time>2026-04-12T05:30:16.999Z</time></trkpt><trkpt lat="44.54750778436304" lon="8.056715441078339"><ele>729.0</ele><time>2026-04-12T05:30:18.999Z</time></trkpt><trkpt lat="44.54746949571508" lon="8.056801033446757"><ele>729.0</ele><time>2026-04-12T05:30:21.999Z</time></trkpt><trkpt lat="44.547420228954714" lon="8.056874897568406"><ele>729.0</ele><time>2026-04-12T05:30:24.999Z</time></trkpt><trkpt lat="44.547369382175575" lon="8.056954674353994"><ele>729.0</ele><time>2026-04-12T05:30:27.998Z</time></trkpt><trkpt lat="44.54732118634275" lon="8.057045427133145"><ele>729.0</ele><time>2026-04-12T05:30:30.998Z</time></trkpt><trkpt lat="44.54727122859378" lon="8.057143363182956"><ele>729.0</ele><time>2026-04-12T05:30:34Z</time></trkpt><trkpt lat="44.54721994786376" lon="8.057254916089411"><ele>729.0</ele><time>2026-04-12T05:30:37Z</time></trkpt><trkpt lat="44.54718443297013" lon="8.057341262265924"><ele>729.0</ele><time>2026-04-12T05:30:39Z</time></trkpt><trkpt lat="44.5471385527203" lon="8.057434706653638"><ele>729.0</ele><time>2026-04-12T05:30:41Z</time></trkpt><trkpt lat="44.54708413040657" lon="8.057523507995095"><ele>729.0</ele><time>2026-04-12T05:30:43Z</time></trkpt><trkpt lat="44.54704367414112" lon="8.05762923692407"><ele>729.0</ele><time>2026-04-12T05:30:45Z</time></trkpt><trkpt lat="44.54698974435432" lon="8.057730780113632"><ele>727.6</ele><time>2026-04-12T05:30:47Z</time></trkpt><trkpt lat="44.54693904605873" lon="8.057831776291984"><ele>726.2</ele><time>2026-04-12T05:30:49Z</time></trkpt><trkpt lat="44.54687516383732" lon="8.057922523413605"><ele>724.8000000000001</ele><time>2026-04-12T05:30:51Z</time></trkpt><trkpt lat="44.546810564996186" lon="8.05800741894415"><ele>723.4000000000001</ele><time>2026-04-12T05:30:53Z</time></trkpt><trkpt lat="44.546744461363176" lon="8.058105564818074"><ele>722.0</ele><time>2026-04-12T05:30:55Z</time></trkpt><trkpt lat="44.546675928990325" lon="8.058212231236764"><ele>724.2</ele><time>2026-04-12T05:30:57Z</time></trkpt><trkpt lat="44.54660182165211" lon="8.058333121951595"><ele>726.4000000000001</ele><time>2026-04-12T05:30:59Z</time></trkpt><trkpt lat="44.546511496632014" lon="8.058447166612527"><ele>728.5999999999999</ele><time>2026-04-12T05:31:01Z</time></trkpt><trkpt lat="44.546409396761774" lon="8.05854924926524"><ele>730.8</ele><time>2026-04-12T05:31:03Z</time></trkpt><trkpt lat="44.54635401297456" lon="8.058596789723326"><ele>733.0</ele><time>2026-04-12T05:31:04Z</time></trkpt><trkpt lat="44.546300168050166" lon="8.058643719368071"><ele>731.8</ele><time>2026-04-12T05:31:05Z</time></trkpt><trkpt lat="44.54620338437765" lon="8.058723900531898"><ele>730.5999999999999</ele><time>2026-04-12T05:31:07Z</time></trkpt><trkpt lat="44.54611393639912" lon="8.058761750181235"><ele>729.4000000000001</ele><time>2026-04-12T05:31:09Z</time></trkpt><trkpt lat="44.54602766810574" lon="8.058684585417845"><ele>728.2</ele><time>2026-04-12T05:31:11Z</time></trkpt><trkpt lat="44.54595063427745" lon="8.058609692639614"><ele>727.0</ele><time>2026-04-12T05:31:13Z</time></trkpt><trkpt lat="44.5458823896887" lon="8.058539363550441"><ele>727.0</ele><time>2026-04-12T05:31:15Z</time></trkpt><trkpt lat="44.545808591913506" lon="8.058461501799393"><ele>727.0</ele><time>2026-04-12T05:31:17Z</time></trkpt><trkpt lat="44.54573553332026" lon="8.058388448954709"><ele>727.0</ele><time>2026-04-12T05:31:19Z</time></trkpt><trkpt lat="44.54566534262458" lon="8.05831921407429"><ele>727.0</ele><time>2026-04-12T05:31:21Z</time></trkpt><trkpt lat="44.54558724943546" lon="8.058252855771512"><ele>727.0</ele><time>2026-04-12T05:31:22.999Z</time></trkpt><trkpt lat="44.54551307283929" lon="8.058189445018009"><ele>727.0</ele><time>2026-04-12T05:31:24.999Z</time></trkpt><trkpt lat="44.54542811089173" lon="8.058134013072635"><ele>726.2</ele><time>2026-04-12T05:31:26.999Z</time></trkpt><trkpt lat="44.54534272033585" lon="8.058072796277871"><ele>725.4000000000001</ele><time>2026-04-12T05:31:28.999Z</time></trkpt><trkpt lat="44.54524881158879" lon="8.058017166919516"><ele>724.5999999999999</ele><time>2026-04-12T05:31:30.999Z</time></trkpt><trkpt lat="44.545155186933705" lon="8.057964755358238"><ele>723.8</ele><time>2026-04-12T05:31:32.999Z</time></trkpt><trkpt lat="44.54506064070072" lon="8.05792758475261"><ele>723.0</ele><time>2026-04-12T05:31:34.999Z</time></trkpt><trkpt lat="44.54496203003901" lon="8.057880344920056"><ele>723.0</ele><time>2026-04-12T05:31:36.999Z</time></trkpt><trkpt lat="44.54486427560119" lon="8.057832931531125"><ele>723.0</ele><time>2026-04-12T05:31:38.999Z</time></trkpt><trkpt lat="44.544771406954176" lon="8.05777290082568"><ele>723.0</ele><time>2026-04-12T05:31:40.999Z</time></trkpt><trkpt lat="44.54468618961068" lon="8.057705768356684"><ele>723.0</ele><time>2026-04-12T05:31:42.999Z</time></trkpt><trkpt lat="44.54460658889494" lon="8.05762427711142"><ele>723.0</ele><time>2026-04-12T05:31:44.999Z</time></trkpt><trkpt lat="44.544530283862684" lon="8.057538886502355"><ele>722.5999999999999</ele><time>2026-04-12T05:31:46.999Z</time></trkpt><trkpt lat="44.54445146861722" lon="8.057453540461273"><ele>722.1999999999999</ele><time>2026-04-12T05:31:48.999Z</time></trkpt><trkpt lat="44.544372190857906" lon="8.057378152278774"><ele>721.8</ele><time>2026-04-12T05:31:50.999Z</time></trkpt><trkpt lat="44.54428755818884" lon="8.057311044553762"><ele>721.4</ele><time>2026-04-12T05:31:52.999Z</time></trkpt><trkpt lat="44.54419848084243" lon="8.057247331405463"><ele>721.0</ele><time>2026-04-12T05:31:54.999Z</time></trkpt><trkpt lat="44.54409763858744" lon="8.057208429886423"><ele>721.0</ele><time>2026-04-12T05:31:56.999Z</time></trkpt><trkpt lat="44.543996297950244" lon="8.057195209206132"><ele>721.0</ele><time>2026-04-12T05:31:58.999Z</time></trkpt><trkpt lat="44.543895274095235" lon="8.057191135534087"><ele>721.0</ele><time>2026-04-12T05:32:00.999Z</time></trkpt><trkpt lat="44.54379513230724" lon="8.057201076728292"><ele>721.0</ele><time>2026-04-12T05:32:02.999Z</time></trkpt><trkpt lat="44.54369561671535" lon="8.057204969780146"><ele>721.0</ele><time>2026-04-12T05:32:04.999Z</time></trkpt><trkpt lat="44.5435970387888" lon="8.057212593937916"><ele>721.0</ele><time>2026-04-12T05:32:06.999Z</time></trkpt><trkpt lat="44.543499477483365" lon="8.057213503512523"><ele>721.0</ele><time>2026-04-12T05:32:08.999Z</time></trkpt><trkpt lat="44.54340348783972" lon="8.057214421222552"><ele>721.0</ele><time>2026-04-12T05:32:10.999Z</time></trkpt><trkpt lat="44.54330859994503" lon="8.057216485438035"><ele>721.0</ele><time>2026-04-12T05:32:12.999Z</time></trkpt><trkpt lat="44.543210003678766" lon="8.057208934471028"><ele>721.0</ele><time>2026-04-12T05:32:14.999Z</time></trkpt><trkpt lat="44.54310608684409" lon="8.057182378187086"><ele>721.0</ele><time>2026-04-12T05:32:16.999Z</time></trkpt><trkpt lat="44.54299954557616" lon="8.057157550927931"><ele>721.0</ele><time>2026-04-12T05:32:18.999Z</time></trkpt><trkpt lat="44.542891591467615" lon="8.057124338140829"><ele>721.0</ele><time>2026-04-12T05:32:20.999Z</time></trkpt><trkpt lat="44.54278901920149" lon="8.057088818336778"><ele>721.0</ele><time>2026-04-12T05:32:22.999Z</time></trkpt><trkpt lat="44.54269362987921" lon="8.05704322963428"><ele>721.0</ele><time>2026-04-12T05:32:24.999Z</time></trkpt><trkpt lat="44.54260020456218" lon="8.056996021744226"><ele>722.4</ele><time>2026-04-12T05:32:26.999Z</time></trkpt><trkpt lat="44.54250964275687" lon="8.056950644993465"><ele>723.8</ele><time>2026-04-12T05:32:28.999Z</time></trkpt><trkpt lat="44.54242147042107" lon="8.056886148455192"><ele>725.1999999999999</ele><time>2026-04-12T05:32:30.999Z</time></trkpt><trkpt lat="44.54233268425048" lon="8.056812744135467"><ele>726.5999999999999</ele><time>2026-04-12T05:32:32.999Z</time></trkpt><trkpt lat="44.5422460027709" lon="8.056740997417123"><ele>728.0</ele><time>2026-04-12T05:32:34.999Z</time></trkpt><trkpt lat="44.542158060585" lon="8.056657318657638"><ele>727.5999999999999</ele><time>2026-04-12T05:32:36.999Z</time></trkpt><trkpt lat="44.54207525478328" lon="8.05657400071844"><ele>727.1999999999999</ele><time>2026-04-12T05:32:38.998Z</time></trkpt><trkpt lat="44.54199147889526" lon="8.056495889456755"><ele>726.8</ele><time>2026-04-12T05:32:41Z</time></trkpt><trkpt lat="44.54191501062777" lon="8.056420623563922"><ele>726.4</ele><time>2026-04-12T05:32:43Z</time></trkpt><trkpt lat="44.541843842303436" lon="8.05634801903952"><ele>726.0</ele><time>2026-04-12T05:32:45Z</time></trkpt><trkpt lat="44.541772612609584" lon="8.056275133053067"><ele>726.0</ele><time>2026-04-12T05:32:47Z</time></trkpt><trkpt lat="44.54169879130958" lon="8.056199054242162"><ele>726.0</ele><time>2026-04-12T05:32:49Z</time></trkpt><trkpt lat="44.54163044410836" lon="8.056107041879972"><ele>726.0</ele><time>2026-04-12T05:32:51Z</time></trkpt><trkpt lat="44.54156382087296" lon="8.056004617833286"><ele>726.0</ele><time>2026-04-12T05:32:53Z</time></trkpt><trkpt lat="44.54150305027193" lon="8.05590060528327"><ele>726.0</ele><time>2026-04-12T05:32:55Z</time></trkpt><trkpt lat="44.541448228213646" lon="8.055790568803861"><ele>726.4</ele><time>2026-04-12T05:32:57Z</time></trkpt><trkpt lat="44.54139260760116" lon="8.055674664903417"><ele>726.8</ele><time>2026-04-12T05:32:59Z</time></trkpt><trkpt lat="44.541337389456075" lon="8.055556956088248"><ele>727.1999999999999</ele><time>2026-04-12T05:33:01Z</time></trkpt><trkpt lat="44.541281307955494" lon="8.05544429107145"><ele>727.5999999999999</ele><time>2026-04-12T05:33:03Z</time></trkpt><trkpt lat="44.54122802630758" lon="8.055335356329076"><ele>728.0</ele><time>2026-04-12T05:33:05Z</time></trkpt><trkpt lat="44.54116928974914" lon="8.055223781232046"><ele>728.0</ele><time>2026-04-12T05:33:07Z</time></trkpt><trkpt lat="44.541113725306765" lon="8.055103939748754"><ele>728.0</ele><time>2026-04-12T05:33:09Z</time></trkpt><trkpt lat="44.54105511877624" lon="8.054980642936787"><ele>728.0</ele><time>2026-04-12T05:33:11Z</time></trkpt><trkpt lat="44.54099585983932" lon="8.054856438523098"><ele>728.0</ele><time>2026-04-12T05:33:13Z</time></trkpt><trkpt lat="44.54093985353318" lon="8.05473747902001"><ele>728.0</ele><time>2026-04-12T05:33:15Z</time></trkpt><trkpt lat="44.54088509394404" lon="8.054630408363836"><ele>726.4</ele><time>2026-04-12T05:33:17Z</time></trkpt><trkpt lat="44.540826786351296" lon="8.054535313678757"><ele>724.8</ele><time>2026-04-12T05:33:19Z</time></trkpt><trkpt lat="44.540764529650886" lon="8.054438396504027"><ele>723.2</ele><time>2026-04-12T05:33:21Z</time></trkpt><trkpt lat="44.54069759356031" lon="8.054345535847576"><ele>721.6</ele><time>2026-04-12T05:33:23Z</time></trkpt><trkpt lat="44.54062419456631" lon="8.054267621984684"><ele>720.0</ele><time>2026-04-12T05:33:25Z</time></trkpt><trkpt lat="44.54054505297215" lon="8.0541984451678"><ele>720.0</ele><time>2026-04-12T05:33:27Z</time></trkpt><trkpt lat="44.540467756107745" lon="8.054131834366565"><ele>720.0</ele><time>2026-04-12T05:33:28.999Z</time></trkpt><trkpt lat="44.54039223156121" lon="8.05408110749622"><ele>720.0</ele><time>2026-04-12T05:33:30.999Z</time></trkpt><trkpt lat="44.54031505055642" lon="8.054046234070977"><ele>720.0</ele><time>2026-04-12T05:33:32.999Z</time></trkpt><trkpt lat="44.54022661448557" lon="8.054008783488564"><ele>720.0</ele><time>2026-04-12T05:33:34.999Z</time></trkpt><trkpt lat="44.54013552406532" lon="8.053976887180566"><ele>720.0</ele><time>2026-04-12T05:33:36.999Z</time></trkpt><trkpt lat="44.54005430306209" lon="8.053928596159468"><ele>720.6666666666666</ele><time>2026-04-12T05:33:38.999Z</time></trkpt><trkpt lat="44.53999069260243" lon="8.053858679703113"><ele>721.3333333333334</ele><time>2026-04-12T05:33:40.999Z</time></trkpt><trkpt lat="44.539923841131085" lon="8.053838771291149"><ele>722.0</ele><time>2026-04-12T05:33:42.999Z</time></trkpt><trkpt lat="44.53985173714731" lon="8.053907236946996"><ele>722.6666666666667</ele><time>2026-04-12T05:33:45.999Z</time></trkpt><trkpt lat="44.53978773513716" lon="8.053952582518734"><ele>723.3333333333334</ele><time>2026-04-12T05:33:48.999Z</time></trkpt><trkpt lat="44.539753032963176" lon="8.054040191151191"><ele>724.0</ele><time>2026-04-12T05:33:52.999Z</time></trkpt><trkpt lat="44.53970193262364" lon="8.054110266183757"><ele>724.8571428571429</ele><time>2026-04-12T05:33:57.999Z</time></trkpt><trkpt lat="44.539637403830866" lon="8.054168972157276"><ele>725.7142857142857</ele><time>2026-04-12T05:34:01.999Z</time></trkpt><trkpt lat="44.53958067134811" lon="8.054213823884627"><ele>726.5714285714287</ele><time>2026-04-12T05:34:05.999Z</time></trkpt><trkpt lat="44.539512869467515" lon="8.054189960738928"><ele>727.4285714285714</ele><time>2026-04-12T05:38:17.999Z</time></trkpt><trkpt lat="44.53944178952468" lon="8.054148600398095"><ele>728.2857142857143</ele><time>2026-04-12T05:38:21.999Z</time></trkpt><trkpt lat="44.53938583133875" lon="8.054107453848186"><ele>729.1428571428572</ele><time>2026-04-12T05:38:24.999Z</time></trkpt><trkpt lat="44.53932334143811" lon="8.054068447530334"><ele>730.0</ele><time>2026-04-12T05:38:28.999Z</time></trkpt><trkpt lat="44.53926158290129" lon="8.054023193093585"><ele>731.1428571428572</ele><time>2026-04-12T05:38:33.999Z</time></trkpt><trkpt lat="44.53919070714716" lon="8.053989288685301"><ele>732.2857142857143</ele><time>2026-04-12T05:38:38.999Z</time></trkpt><trkpt lat="44.539121712656886" lon="8.053957796928303"><ele>733.4285714285714</ele><time>2026-04-12T05:38:43.999Z</time></trkpt><trkpt lat="44.539054679631946" lon="8.053900384631167"><ele>734.5714285714287</ele><time>2026-04-12T05:38:49.999Z</time></trkpt><trkpt lat="44.53900122244278" lon="8.053852613929742"><ele>735.7142857142857</ele><time>2026-04-12T05:38:54.999Z</time></trkpt><trkpt lat="44.538958849308386" lon="8.053779713016885"><ele>736.8571428571429</ele><time>2026-04-12T05:39:00Z</time></trkpt><trkpt lat="44.5389148266864" lon="8.053714505125448"><ele>738.0</ele><time>2026-04-12T05:39:04Z</time></trkpt><trkpt lat="44.5388787711056" lon="8.053635078241765"><ele>738.0</ele><time>2026-04-12T05:39:09Z</time></trkpt><trkpt lat="44.538828585455754" lon="8.053569780905402"><ele>738.0</ele><time>2026-04-12T05:39:14Z</time></trkpt><trkpt lat="44.53877166056977" lon="8.053498443073138"><ele>738.0</ele><time>2026-04-12T05:39:19Z</time></trkpt><trkpt lat="44.53872733925668" lon="8.053426535956929"><ele>738.0</ele><time>2026-04-12T05:39:23Z</time></trkpt><trkpt lat="44.538680396312394" lon="8.053359577355302"><ele>738.0</ele><time>2026-04-12T05:39:27Z</time></trkpt><trkpt lat="44.53862674985" lon="8.053299468327449"><ele>738.0</ele><time>2026-04-12T05:39:32Z</time></trkpt><trkpt lat="44.53858169603628" lon="8.053223253732265"><ele>738.0</ele><time>2026-04-12T05:39:37Z</time></trkpt><trkpt lat="44.53852251131534" lon="8.05315106277293"><ele>740.0</ele><time>2026-04-12T05:39:42Z</time></trkpt><trkpt lat="44.53845533245279" lon="8.053093752006038"><ele>742.0</ele><time>2026-04-12T05:39:47Z</time></trkpt><trkpt lat="44.53839500623336" lon="8.053033508642844"><ele>744.0</ele><time>2026-04-12T05:39:51.999Z</time></trkpt><trkpt lat="44.538321894229945" lon="8.052994959318557"><ele>746.0</ele><time>2026-04-12T05:39:56.999Z</time></trkpt><trkpt lat="44.53826089204292" lon="8.052967175294068"><ele>748.0</ele><time>2026-04-12T05:40:00.999Z</time></trkpt><trkpt lat="44.53820665257372" lon="8.052920552530109"><ele>750.0</ele><time>2026-04-12T05:40:03.999Z</time></trkpt><trkpt lat="44.538151609596795" lon="8.052843827333671"><ele>752.0</ele><time>2026-04-12T05:40:05.999Z</time></trkpt><trkpt lat="44.53808848932397" lon="8.052753410155443"><ele>752.0</ele><time>2026-04-12T05:40:07.999Z</time></trkpt><trkpt lat="44.53804779230131" lon="8.052625282877647"><ele>752.0</ele><time>2026-04-12T05:40:09.999Z</time></trkpt><trkpt lat="44.538016929096045" lon="8.052489101153908"><ele>752.0</ele><time>2026-04-12T05:40:11.999Z</time></trkpt><trkpt lat="44.53798859737856" lon="8.052365140685145"><ele>752.0</ele><time>2026-04-12T05:40:13.999Z</time></trkpt><trkpt lat="44.53796871593947" lon="8.05225394411712"><ele>752.0</ele><time>2026-04-12T05:40:15.999Z</time></trkpt><trkpt lat="44.5379517406553" lon="8.052138401828607"><ele>752.4000000000001</ele><time>2026-04-12T05:40:18.999Z</time></trkpt><trkpt lat="44.5379413958728" lon="8.05200585891877"><ele>752.8000000000001</ele><time>2026-04-12T05:40:20.999Z</time></trkpt><trkpt lat="44.53794011881638" lon="8.051858795160959"><ele>753.2</ele><time>2026-04-12T05:40:22.999Z</time></trkpt><trkpt lat="44.53794227022337" lon="8.051726969801337"><ele>753.6</ele><time>2026-04-12T05:40:24.999Z</time></trkpt><trkpt lat="44.53795763401361" lon="8.05159815546729"><ele>754.0</ele><time>2026-04-12T05:40:26.999Z</time></trkpt><trkpt lat="44.5379626581991" lon="8.051451644053538"><ele>754.8000000000001</ele><time>2026-04-12T05:40:28.999Z</time></trkpt><trkpt lat="44.537953294502195" lon="8.051303119376602"><ele>755.6</ele><time>2026-04-12T05:40:30.999Z</time></trkpt><trkpt lat="44.5379401585025" lon="8.051161752673005"><ele>756.4</ele><time>2026-04-12T05:40:32.999Z</time></trkpt><trkpt lat="44.53792582506427" lon="8.051019823323163"><ele>757.2</ele><time>2026-04-12T05:40:34.999Z</time></trkpt><trkpt lat="44.53791380417209" lon="8.050892289837234"><ele>758.0</ele><time>2026-04-12T05:40:36.999Z</time></trkpt><trkpt lat="44.53790794831503" lon="8.050752166289946"><ele>758.0</ele><time>2026-04-12T05:40:38.999Z</time></trkpt><trkpt lat="44.537905379497246" lon="8.05061595846476"><ele>758.0</ele><time>2026-04-12T05:40:40.999Z</time></trkpt><trkpt lat="44.53790638136397" lon="8.05047901941574"><ele>758.0</ele><time>2026-04-12T05:40:42.999Z</time></trkpt><trkpt lat="44.53789501833724" lon="8.050375779259214"><ele>758.0</ele><time>2026-04-12T05:40:44.999Z</time></trkpt><trkpt lat="44.5378749370983" lon="8.050263366357298"><ele>758.0</ele><time>2026-04-12T05:40:46.999Z</time></trkpt><trkpt lat="44.53784298940587" lon="8.050178365815047"><ele>758.0</ele><time>2026-04-12T05:40:48.999Z</time></trkpt><trkpt lat="44.53779079835145" lon="8.05008770352921"><ele>753.8571428571429</ele><time>2026-04-12T05:40:51.999Z</time></trkpt><trkpt lat="44.537733347715296" lon="8.050017604316162"><ele>749.7142857142858</ele><time>2026-04-12T05:40:53.999Z</time></trkpt><trkpt lat="44.537682658855466" lon="8.049957877452005"><ele>745.5714285714287</ele><time>2026-04-12T05:40:55.999Z</time></trkpt><trkpt lat="44.53762740623325" lon="8.049902937075872"><ele>741.4285714285714</ele><time>2026-04-12T05:40:57.999Z</time></trkpt><trkpt lat="44.53754629704712" lon="8.049839683117245"><ele>737.2857142857142</ele><time>2026-04-12T05:41:00.999Z</time></trkpt><trkpt lat="44.537495648927994" lon="8.049785317926807"><ele>733.1428571428572</ele><time>2026-04-12T05:41:02.999Z</time></trkpt><trkpt lat="44.53742736351643" lon="8.04974333704292"><ele>729.0</ele><time>2026-04-12T05:41:07Z</time></trkpt><trkpt lat="44.537367410588395" lon="8.049687827633159"><ele>729.0</ele><time>2026-04-12T05:41:10Z</time></trkpt><trkpt lat="44.537325763548026" lon="8.049616548396726"><ele>729.0</ele><time>2026-04-12T05:41:13Z</time></trkpt><trkpt lat="44.53729003446142" lon="8.04954273161628"><ele>729.0</ele><time>2026-04-12T05:41:16Z</time></trkpt><trkpt lat="44.53727205112713" lon="8.049449081078848"><ele>729.0</ele><time>2026-04-12T05:41:19Z</time></trkpt><trkpt lat="44.537287762751774" lon="8.049317241144978"><ele>729.0</ele><time>2026-04-12T05:41:22Z</time></trkpt><trkpt lat="44.537311652544936" lon="8.049195523535573"><ele>729.0</ele><time>2026-04-12T05:41:24Z</time></trkpt><trkpt lat="44.53732323235259" lon="8.049012041491798"><ele>727.1666666666666</ele><time>2026-04-12T05:41:26Z</time></trkpt><trkpt lat="44.537339561109555" lon="8.048908674805933"><ele>725.3333333333334</ele><time>2026-04-12T05:41:27Z</time></trkpt><trkpt lat="44.537361668180445" lon="8.048809747449187"><ele>723.5</ele><time>2026-04-12T05:41:28Z</time></trkpt><trkpt lat="44.537381180343054" lon="8.048706678769612"><ele>721.6666666666667</ele><time>2026-04-12T05:41:29Z</time></trkpt><trkpt lat="44.53740059617906" lon="8.048600884105939"><ele>719.8333333333334</ele><time>2026-04-12T05:41:30Z</time></trkpt><trkpt lat="44.53743149447248" lon="8.048499648476632"><ele>718.0</ele><time>2026-04-12T05:41:31Z</time></trkpt><trkpt lat="44.53746710610301" lon="8.048402017759217"><ele>718.0</ele><time>2026-04-12T05:41:32Z</time></trkpt><trkpt lat="44.53750645576368" lon="8.048298306646466"><ele>718.0</ele><time>2026-04-12T05:41:33Z</time></trkpt><trkpt lat="44.53754713850881" lon="8.048198301104739"><ele>718.0</ele><time>2026-04-12T05:41:34Z</time></trkpt><trkpt lat="44.537582362282826" lon="8.048096453583728"><ele>718.0</ele><time>2026-04-12T05:41:35Z</time></trkpt><trkpt lat="44.53762053012993" lon="8.047998512354095"><ele>718.0</ele><time>2026-04-12T05:41:36Z</time></trkpt><trkpt lat="44.537669325104574" lon="8.047906894687396"><ele>718.0</ele><time>2026-04-12T05:41:37Z</time></trkpt><trkpt lat="44.53772965353917" lon="8.04781949862803"><ele>717.8333333333334</ele><time>2026-04-12T05:41:38Z</time></trkpt><trkpt lat="44.537794765933334" lon="8.047734306277405"><ele>717.6666666666667</ele><time>2026-04-12T05:41:39Z</time></trkpt><trkpt lat="44.5378633097387" lon="8.047653714362738"><ele>717.5</ele><time>2026-04-12T05:41:40Z</time></trkpt><trkpt lat="44.5379331223089" lon="8.047578002640833"><ele>717.3333333333334</ele><time>2026-04-12T05:41:41Z</time></trkpt><trkpt lat="44.53800066089458" lon="8.047505877253469"><ele>717.1666666666666</ele><time>2026-04-12T05:41:42Z</time></trkpt><trkpt lat="44.53806020445157" lon="8.047429547108683"><ele>717.0</ele><time>2026-04-12T05:41:43Z</time></trkpt><trkpt lat="44.53810824393594" lon="8.047350277068865"><ele>717.0</ele><time>2026-04-12T05:41:44Z</time></trkpt><trkpt lat="44.538150358813525" lon="8.047272897604046"><ele>717.0</ele><time>2026-04-12T05:41:45Z</time></trkpt><trkpt lat="44.53818806900678" lon="8.047194798355834"><ele>717.0</ele><time>2026-04-12T05:41:46Z</time></trkpt><trkpt lat="44.5382251924991" lon="8.04711870581806"><ele>717.0</ele><time>2026-04-12T05:41:47Z</time></trkpt><trkpt lat="44.53827771058516" lon="8.046964319151803"><ele>717.0</ele><time>2026-04-12T05:41:49Z</time></trkpt><trkpt lat="44.53830732666592" lon="8.04680916621617"><ele>717.0</ele><time>2026-04-12T05:41:51Z</time></trkpt><trkpt lat="44.538314991395204" lon="8.046653692673242"><ele>715.6</ele><time>2026-04-12T05:41:53Z</time></trkpt><trkpt lat="44.538325652459655" lon="8.04650182962986"><ele>714.2</ele><time>2026-04-12T05:41:55Z</time></trkpt><trkpt lat="44.53832947108638" lon="8.046359173157661"><ele>712.8</ele><time>2026-04-12T05:41:57Z</time></trkpt><trkpt lat="44.5383188807846" lon="8.046236740709396"><ele>711.4</ele><time>2026-04-12T05:41:59Z</time></trkpt><trkpt lat="44.53833155165908" lon="8.046119719576147"><ele>710.0</ele><time>2026-04-12T05:42:01.999Z</time></trkpt><trkpt lat="44.53830976095955" lon="8.045989613597927"><ele>710.0</ele><time>2026-04-12T05:42:04.999Z</time></trkpt><trkpt lat="44.538227036542146" lon="8.0459188691829"><ele>710.0</ele><time>2026-04-12T05:42:07.999Z</time></trkpt><trkpt lat="44.538161732394315" lon="8.04586630865623"><ele>710.0</ele><time>2026-04-12T05:42:09.999Z</time></trkpt><trkpt lat="44.53808835366587" lon="8.045813310220552"><ele>710.0</ele><time>2026-04-12T05:42:11.999Z</time></trkpt><trkpt lat="44.538006188718825" lon="8.04577406517934"><ele>710.0</ele><time>2026-04-12T05:42:13.999Z</time></trkpt><trkpt lat="44.53792890617261" lon="8.045720751433205"><ele>710.0</ele><time>2026-04-12T05:42:15.999Z</time></trkpt><trkpt lat="44.53785879213381" lon="8.045654167075398"><ele>709.8</ele><time>2026-04-12T05:42:17.999Z</time></trkpt><trkpt lat="44.5377752190002" lon="8.045598982296111"><ele>709.6</ele><time>2026-04-12T05:42:19.999Z</time></trkpt><trkpt lat="44.537683587383896" lon="8.045531988082436"><ele>709.4000000000001</ele><time>2026-04-12T05:42:21.999Z</time></trkpt><trkpt lat="44.53758824507476" lon="8.045466200515417"><ele>709.2</ele><time>2026-04-12T05:42:23.999Z</time></trkpt><trkpt lat="44.53748507367861" lon="8.045400364098903"><ele>709.0</ele><time>2026-04-12T05:42:25.999Z</time></trkpt><trkpt lat="44.537383924371866" lon="8.045336229589369"><ele>709.0</ele><time>2026-04-12T05:42:27.999Z</time></trkpt><trkpt lat="44.5372836915521" lon="8.045272389349286"><ele>709.0</ele><time>2026-04-12T05:42:29.999Z</time></trkpt><trkpt lat="44.53717972656644" lon="8.045219276313281"><ele>709.0</ele><time>2026-04-12T05:42:31.999Z</time></trkpt><trkpt lat="44.537077154281775" lon="8.045181685207142"><ele>709.0</ele><time>2026-04-12T05:42:33.999Z</time></trkpt><trkpt lat="44.53697681433546" lon="8.045148786645868"><ele>709.0</ele><time>2026-04-12T05:42:35.999Z</time></trkpt><trkpt lat="44.53687751141572" lon="8.045144321034101"><ele>710.4000000000001</ele><time>2026-04-12T05:42:37.999Z</time></trkpt><trkpt lat="44.53677513419583" lon="8.045142530315898"><ele>711.8</ele><time>2026-04-12T05:42:39.999Z</time></trkpt><trkpt lat="44.53667097237937" lon="8.045140913725708"><ele>713.2</ele><time>2026-04-12T05:42:41.999Z</time></trkpt><trkpt lat="44.536565214133205" lon="8.04514682390512"><ele>714.5999999999999</ele><time>2026-04-12T05:42:43.999Z</time></trkpt><trkpt lat="44.53646490353717" lon="8.045153620571801"><ele>716.0</ele><time>2026-04-12T05:42:45.999Z</time></trkpt><trkpt lat="44.53636044356336" lon="8.045155478303228"><ele>716.0</ele><time>2026-04-12T05:42:47.999Z</time></trkpt><trkpt lat="44.53626038432118" lon="8.045168797070533"><ele>716.0</ele><time>2026-04-12T05:42:49.999Z</time></trkpt><trkpt lat="44.536163709843194" lon="8.045162389502874"><ele>716.0</ele><time>2026-04-12T05:42:51.999Z</time></trkpt><trkpt lat="44.536072585684224" lon="8.045166614742943"><ele>716.0</ele><time>2026-04-12T05:42:53.999Z</time></trkpt><trkpt lat="44.53598613473534" lon="8.04516769213211"><ele>716.0</ele><time>2026-04-12T05:42:55.999Z</time></trkpt><trkpt lat="44.535901733720635" lon="8.04516907121652"><ele>717.6666666666666</ele><time>2026-04-12T05:42:57.999Z</time></trkpt><trkpt lat="44.53582182417205" lon="8.045173434526582"><ele>719.3333333333333</ele><time>2026-04-12T05:42:59.999Z</time></trkpt><trkpt lat="44.53574669620498" lon="8.045184771916896"><ele>721.0</ele><time>2026-04-12T05:43:01.999Z</time></trkpt><trkpt lat="44.53566437486948" lon="8.045194016430475"><ele>722.6666666666666</ele><time>2026-04-12T05:43:03.999Z</time></trkpt><trkpt lat="44.53558409687757" lon="8.0452090404213"><ele>724.3333333333334</ele><time>2026-04-12T05:43:05.999Z</time></trkpt><trkpt lat="44.535505804592255" lon="8.045231871960809"><ele>726.0</ele><time>2026-04-12T05:43:07.999Z</time></trkpt><trkpt lat="44.53542594156261" lon="8.045270853981439"><ele>727.8333333333334</ele><time>2026-04-12T05:43:10Z</time></trkpt><trkpt lat="44.53534778909963" lon="8.045312625594102"><ele>729.6666666666666</ele><time>2026-04-12T05:43:12Z</time></trkpt><trkpt lat="44.53526536083959" lon="8.04534207324623"><ele>731.5</ele><time>2026-04-12T05:43:14Z</time></trkpt><trkpt lat="44.53518886526233" lon="8.045378753387292"><ele>733.3333333333333</ele><time>2026-04-12T05:43:16Z</time></trkpt><trkpt lat="44.53511706554202" lon="8.045423050379966"><ele>735.1666666666666</ele><time>2026-04-12T05:43:18Z</time></trkpt><trkpt lat="44.53504361722082" lon="8.04544756463058"><ele>737.0</ele><time>2026-04-12T05:43:20Z</time></trkpt><trkpt lat="44.53496680971016" lon="8.045478878303818"><ele>737.0</ele><time>2026-04-12T05:43:22Z</time></trkpt><trkpt lat="44.534893367677086" lon="8.045509527449493"><ele>737.0</ele><time>2026-04-12T05:43:24Z</time></trkpt><trkpt lat="44.53482458770781" lon="8.045554025577747"><ele>737.0</ele><time>2026-04-12T05:43:26Z</time></trkpt><trkpt lat="44.53475049355965" lon="8.04558488750002"><ele>737.0</ele><time>2026-04-12T05:43:28Z</time></trkpt><trkpt lat="44.534683487627014" lon="8.045628856274803"><ele>737.0</ele><time>2026-04-12T05:43:30Z</time></trkpt><trkpt lat="44.53461018993578" lon="8.045639318719928"><ele>737.0</ele><time>2026-04-12T05:43:32Z</time></trkpt><trkpt lat="44.53453872964246" lon="8.045688720471452"><ele>738.1666666666666</ele><time>2026-04-12T05:43:34Z</time></trkpt><trkpt lat="44.534463578672515" lon="8.045732917043976"><ele>739.3333333333333</ele><time>2026-04-12T05:43:36Z</time></trkpt><trkpt lat="44.534393679958505" lon="8.045762809070162"><ele>740.5</ele><time>2026-04-12T05:43:38Z</time></trkpt><trkpt lat="44.53431493738524" lon="8.045795820287708"><ele>741.6666666666666</ele><time>2026-04-12T05:43:40Z</time></trkpt><trkpt lat="44.5342394951209" lon="8.045831582291957"><ele>742.8333333333334</ele><time>2026-04-12T05:43:42Z</time></trkpt><trkpt lat="44.53416527740191" lon="8.045857723976464"><ele>744.0</ele><time>2026-04-12T05:43:44Z</time></trkpt><trkpt lat="44.53409016239274" lon="8.045893594937876"><ele>743.0000000000001</ele><time>2026-04-12T05:43:46Z</time></trkpt><trkpt lat="44.53402902444424" lon="8.045924505291888"><ele>742.0</ele><time>2026-04-12T05:43:48Z</time></trkpt><trkpt lat="44.53396692463128" lon="8.045960059757215"><ele>741.0</ele><time>2026-04-12T05:43:50Z</time></trkpt><trkpt lat="44.53390466174118" lon="8.04599652152525"><ele>740.0</ele><time>2026-04-12T05:43:52Z</time></trkpt><trkpt lat="44.533840646221506" lon="8.046032454815265"><ele>739.0</ele><time>2026-04-12T05:43:54Z</time></trkpt><trkpt lat="44.53377997172611" lon="8.046074985413814"><ele>738.0000000000001</ele><time>2026-04-12T05:43:56Z</time></trkpt><trkpt lat="44.53371643639121" lon="8.0461052594811"><ele>737.0</ele><time>2026-04-12T05:43:58Z</time></trkpt><trkpt lat="44.53365154541775" lon="8.046117048551105"><ele>737.0000000000001</ele><time>2026-04-12T05:44:00Z</time></trkpt><trkpt lat="44.533587311147905" lon="8.046129821435795"><ele>737.0</ele><time>2026-04-12T05:44:02Z</time></trkpt><trkpt lat="44.53351693891795" lon="8.04613152734509"><ele>737.0</ele><time>2026-04-12T05:44:03.999Z</time></trkpt><trkpt lat="44.533447967561095" lon="8.046113156938492"><ele>737.0</ele><time>2026-04-12T05:44:05.999Z</time></trkpt><trkpt lat="44.533364282521816" lon="8.046116529538681"><ele>737.0</ele><time>2026-04-12T05:44:08.999Z</time></trkpt><trkpt lat="44.533298821161225" lon="8.04614192619967"><ele>737.0000000000001</ele><time>2026-04-12T05:44:11.999Z</time></trkpt><trkpt lat="44.53323322474928" lon="8.046162424367768"><ele>737.0</ele><time>2026-04-12T05:44:14.999Z</time></trkpt><trkpt lat="44.53317388752828" lon="8.046206574450016"><ele>737.0000000000001</ele><time>2026-04-12T05:44:18.999Z</time></trkpt><trkpt lat="44.53309927871301" lon="8.046230852269744"><ele>737.0</ele><time>2026-04-12T05:44:22.999Z</time></trkpt><trkpt lat="44.53303908111625" lon="8.046263136624246"><ele>737.0</ele><time>2026-04-12T05:44:25.999Z</time></trkpt><trkpt lat="44.532969123193624" lon="8.046296937096523"><ele>737.0</ele><time>2026-04-12T05:44:29.999Z</time></trkpt><trkpt lat="44.53289772302042" lon="8.046328115310091"><ele>737.0</ele><time>2026-04-12T05:44:33.999Z</time></trkpt><trkpt lat="44.53282600776143" lon="8.046360953182477"><ele>737.0000000000001</ele><time>2026-04-12T05:44:37.999Z</time></trkpt><trkpt lat="44.53275654460952" lon="8.046343734678253"><ele>737.0</ele><time>2026-04-12T05:44:41.999Z</time></trkpt><trkpt lat="44.53271767617476" lon="8.046237759860816"><ele>737.0000000000001</ele><time>2026-04-12T05:44:45.999Z</time></trkpt><trkpt lat="44.53274470026283" lon="8.046157438288322"><ele>737.0</ele><time>2026-04-12T05:44:48.999Z</time></trkpt><trkpt lat="44.53279740204194" lon="8.046091551600624"><ele>737.0</ele><time>2026-04-12T05:44:51.999Z</time></trkpt><trkpt lat="44.53285656499443" lon="8.046012991003536"><ele>737.0</ele><time>2026-04-12T05:44:55.999Z</time></trkpt><trkpt lat="44.532914416129735" lon="8.045968476826317"><ele>737.0</ele><time>2026-04-12T05:44:58.999Z</time></trkpt><trkpt lat="44.53296557358059" lon="8.045914156401794"><ele>737.0000000000001</ele><time>2026-04-12T05:45:01.999Z</time></trkpt><trkpt lat="44.533032415300276" lon="8.045847687343912"><ele>737.0</ele><time>2026-04-12T05:45:05.999Z</time></trkpt><trkpt lat="44.53309924987518" lon="8.045788337656067"><ele>736.8571428571429</ele><time>2026-04-12T05:45:09.999Z</time></trkpt><trkpt lat="44.533165228058294" lon="8.045719134771392"><ele>736.7142857142858</ele><time>2026-04-12T05:45:13.999Z</time></trkpt><trkpt lat="44.53321601513534" lon="8.045665734709706"><ele>736.5714285714287</ele><time>2026-04-12T05:45:17Z</time></trkpt><trkpt lat="44.53328771974895" lon="8.045600608745076"><ele>736.4285714285714</ele><time>2026-04-12T05:45:21Z</time></trkpt><trkpt lat="44.533340457207196" lon="8.0455484136837"><ele>736.2857142857142</ele><time>2026-04-12T05:45:24Z</time></trkpt><trkpt lat="44.53339626266832" lon="8.04549552440148"><ele>736.1428571428572</ele><time>2026-04-12T05:45:27Z</time></trkpt><trkpt lat="44.53345350071333" lon="8.045443354107901"><ele>736.0</ele><time>2026-04-12T05:45:30Z</time></trkpt><trkpt lat="44.533506984294576" lon="8.045393401183599"><ele>736.0</ele><time>2026-04-12T05:45:33Z</time></trkpt><trkpt lat="44.53356120613782" lon="8.045344418100706"><ele>736.0</ele><time>2026-04-12T05:45:36Z</time></trkpt><trkpt lat="44.53362867795303" lon="8.045278452503664"><ele>736.0</ele><time>2026-04-12T05:45:40Z</time></trkpt><trkpt lat="44.533697113157174" lon="8.045223726808096"><ele>736.0</ele><time>2026-04-12T05:45:44Z</time></trkpt><trkpt lat="44.533773350659175" lon="8.04515940990895"><ele>736.0</ele><time>2026-04-12T05:45:48Z</time></trkpt><trkpt lat="44.53382373507614" lon="8.045087737320477"><ele>736.0</ele><time>2026-04-12T05:45:51Z</time></trkpt><trkpt lat="44.533871107965034" lon="8.045020627982815"><ele>737.5714285714286</ele><time>2026-04-12T05:45:54Z</time></trkpt><trkpt lat="44.53391312845352" lon="8.044936476939872"><ele>739.1428571428571</ele><time>2026-04-12T05:45:57Z</time></trkpt><trkpt lat="44.53396265486386" lon="8.044838883115114"><ele>740.7142857142857</ele><time>2026-04-12T05:46:01Z</time></trkpt><trkpt lat="44.53400317442247" lon="8.044758619667773"><ele>742.2857142857142</ele><time>2026-04-12T05:46:04Z</time></trkpt><trkpt lat="44.534039893976924" lon="8.044672483977056"><ele>743.8571428571429</ele><time>2026-04-12T05:46:06.999Z</time></trkpt><trkpt lat="44.53407785070791" lon="8.044593030360195"><ele>745.4285714285713</ele><time>2026-04-12T05:46:09.999Z</time></trkpt><trkpt lat="44.534114889057385" lon="8.04450659505816"><ele>747.0</ele><time>2026-04-12T05:46:12.999Z</time></trkpt><trkpt lat="44.534139637512986" lon="8.044417633978137"><ele>747.0</ele><time>2026-04-12T05:46:15.999Z</time></trkpt><trkpt lat="44.53416915666708" lon="8.044330762362362"><ele>747.0</ele><time>2026-04-12T05:46:18.999Z</time></trkpt><trkpt lat="44.53421762145529" lon="8.044237562427684"><ele>747.0</ele><time>2026-04-12T05:46:21.999Z</time></trkpt><trkpt lat="44.53424790262997" lon="8.044151303240243"><ele>747.0</ele><time>2026-04-12T05:46:24.999Z</time></trkpt><trkpt lat="44.53428910766214" lon="8.044050892175523"><ele>747.0</ele><time>2026-04-12T05:46:27.999Z</time></trkpt><trkpt lat="44.53432180360678" lon="8.04393024609976"><ele>747.0</ele><time>2026-04-12T05:46:30.999Z</time></trkpt><trkpt lat="44.53435616064217" lon="8.043810015227518"><ele>746.3333333333334</ele><time>2026-04-12T05:46:33.999Z</time></trkpt><trkpt lat="44.534388526021495" lon="8.043686833562806"><ele>745.6666666666666</ele><time>2026-04-12T05:46:36.999Z</time></trkpt><trkpt lat="44.5344153426461" lon="8.043596452886238"><ele>745.0</ele><time>2026-04-12T05:46:38.999Z</time></trkpt><trkpt lat="44.53444179765659" lon="8.043502533817366"><ele>744.3333333333333</ele><time>2026-04-12T05:46:40.999Z</time></trkpt><trkpt lat="44.534457222856744" lon="8.043386384530024"><ele>743.6666666666666</ele><time>2026-04-12T05:46:42.999Z</time></trkpt><trkpt lat="44.53446867614934" lon="8.043281153778521"><ele>743.0</ele><time>2026-04-12T05:46:44.999Z</time></trkpt><trkpt lat="44.534471584216114" lon="8.043174218965522"><ele>743.0</ele><time>2026-04-12T05:46:46.999Z</time></trkpt><trkpt lat="44.534479326289556" lon="8.043078442157224"><ele>743.0</ele><time>2026-04-12T05:46:48.999Z</time></trkpt><trkpt lat="44.53450602356147" lon="8.042981368010466"><ele>743.0</ele><time>2026-04-12T05:46:50.999Z</time></trkpt><trkpt lat="44.534517434881934" lon="8.042888555833823"><ele>743.0</ele><time>2026-04-12T05:46:52.999Z</time></trkpt><trkpt lat="44.5344979324901" lon="8.042784121324221"><ele>743.0</ele><time>2026-04-12T05:46:54.999Z</time></trkpt><trkpt lat="44.53455029661742" lon="8.04270987478599"><ele>743.0</ele><time>2026-04-12T05:46:56.999Z</time></trkpt><trkpt lat="44.53457808845802" lon="8.042615232416864"><ele>743.0</ele><time>2026-04-12T05:46:58.999Z</time></trkpt><trkpt lat="44.534630973142846" lon="8.042552318293673"><ele>743.8</ele><time>2026-04-12T05:47:02.999Z</time></trkpt><trkpt lat="44.53466115408032" lon="8.04245728606877"><ele>744.5999999999999</ele><time>2026-04-12T05:47:27Z</time></trkpt><trkpt lat="44.534719880405426" lon="8.042340554698477"><ele>745.4000000000001</ele><time>2026-04-12T05:47:30Z</time></trkpt><trkpt lat="44.53477770997007" lon="8.042213738096534"><ele>746.2</ele><time>2026-04-12T05:47:32Z</time></trkpt><trkpt lat="44.53484944346695" lon="8.04206790300123"><ele>747.0</ele><time>2026-04-12T05:47:34Z</time></trkpt><trkpt lat="44.534889946082274" lon="8.041986896335779"><ele>747.0</ele><time>2026-04-12T05:47:35Z</time></trkpt><trkpt lat="44.53493964246539" lon="8.041897889898426"><ele>747.0</ele><time>2026-04-12T05:47:36Z</time></trkpt><trkpt lat="44.534984749382545" lon="8.041801059437244"><ele>747.0</ele><time>2026-04-12T05:47:37Z</time></trkpt><trkpt lat="44.535025330108546" lon="8.041702030033598"><ele>747.0</ele><time>2026-04-12T05:47:38Z</time></trkpt><trkpt lat="44.53506468520223" lon="8.041597884921504"><ele>747.0</ele><time>2026-04-12T05:47:39Z</time></trkpt><trkpt lat="44.53510276870868" lon="8.04149154942046"><ele>747.0</ele><time>2026-04-12T05:47:40Z</time></trkpt><trkpt lat="44.53514102423167" lon="8.04138117884252"><ele>745.8</ele><time>2026-04-12T05:47:41Z</time></trkpt><trkpt lat="44.535186795538266" lon="8.041268839314618"><ele>744.6</ele><time>2026-04-12T05:47:42Z</time></trkpt><trkpt lat="44.535241946557846" lon="8.041162149897929"><ele>743.4</ele><time>2026-04-12T05:47:43Z</time></trkpt><trkpt lat="44.5353139468095" lon="8.04107635895697"><ele>742.1999999999999</ele><time>2026-04-12T05:47:44Z</time></trkpt><trkpt lat="44.53538323983298" lon="8.040993837637453"><ele>741.0</ele><time>2026-04-12T05:47:45Z</time></trkpt><trkpt lat="44.535456521425296" lon="8.04091092001392"><ele>739.0</ele><time>2026-04-12T05:47:46Z</time></trkpt><trkpt lat="44.535531970207614" lon="8.040832710260782"><ele>737.0</ele><time>2026-04-12T05:47:47Z</time></trkpt><trkpt lat="44.535602854565475" lon="8.040754121158038"><ele>735.0</ele><time>2026-04-12T05:47:48Z</time></trkpt><trkpt lat="44.53567256034458" lon="8.04066587272359"><ele>733.0</ele><time>2026-04-12T05:47:49Z</time></trkpt><trkpt lat="44.53574407081878" lon="8.04056863472048"><ele>731.0</ele><time>2026-04-12T05:47:50Z</time></trkpt><trkpt lat="44.5358142154183" lon="8.04046565956009"><ele>730.4</ele><time>2026-04-12T05:47:51Z</time></trkpt><trkpt lat="44.535885819270064" lon="8.040354784883917"><ele>729.8</ele><time>2026-04-12T05:47:52Z</time></trkpt><trkpt lat="44.535951143233504" lon="8.040232512614367"><ele>729.1999999999999</ele><time>2026-04-12T05:47:53Z</time></trkpt><trkpt lat="44.53601316569313" lon="8.040105236376405"><ele>728.5999999999999</ele><time>2026-04-12T05:47:54Z</time></trkpt><trkpt lat="44.53607367381927" lon="8.039973369920826"><ele>728.0</ele><time>2026-04-12T05:47:55Z</time></trkpt><trkpt lat="44.53613912075248" lon="8.03984027973998"><ele>726.4</ele><time>2026-04-12T05:47:56Z</time></trkpt><trkpt lat="44.53621474894492" lon="8.039718396321376"><ele>724.8</ele><time>2026-04-12T05:47:57Z</time></trkpt><trkpt lat="44.536291927389954" lon="8.039601470969217"><ele>723.2</ele><time>2026-04-12T05:47:58Z</time></trkpt><trkpt lat="44.53637249817591" lon="8.03949234611739"><ele>721.6</ele><time>2026-04-12T05:47:59Z</time></trkpt><trkpt lat="44.5364573582885" lon="8.03940341643123"><ele>720.0</ele><time>2026-04-12T05:48:00Z</time></trkpt><trkpt lat="44.5365429253009" lon="8.039312432150192"><ele>720.0</ele><time>2026-04-12T05:48:01Z</time></trkpt><trkpt lat="44.536623114877514" lon="8.03922521753304"><ele>720.0</ele><time>2026-04-12T05:48:02Z</time></trkpt><trkpt lat="44.53670006323243" lon="8.039149268900315"><ele>720.0</ele><time>2026-04-12T05:48:03Z</time></trkpt><trkpt lat="44.536787825529" lon="8.039097720712777"><ele>720.0</ele><time>2026-04-12T05:48:04Z</time></trkpt><trkpt lat="44.53688544344473" lon="8.03906736147138"><ele>720.0</ele><time>2026-04-12T05:48:05Z</time></trkpt><trkpt lat="44.536977389556554" lon="8.038998797097209"><ele>720.0</ele><time>2026-04-12T05:48:06Z</time></trkpt><trkpt lat="44.53705057614636" lon="8.038922014904943"><ele>720.0</ele><time>2026-04-12T05:48:07Z</time></trkpt><trkpt lat="44.53710166463731" lon="8.038823148463807"><ele>720.0</ele><time>2026-04-12T05:48:08Z</time></trkpt><trkpt lat="44.53715671194568" lon="8.038753716544072"><ele>720.0</ele><time>2026-04-12T05:48:09Z</time></trkpt><trkpt lat="44.537206123192036" lon="8.038687330425532"><ele>720.0</ele><time>2026-04-12T05:48:10Z</time></trkpt><trkpt lat="44.53724195139127" lon="8.038534574031452"><ele>720.0</ele><time>2026-04-12T05:48:11.999Z</time></trkpt><trkpt lat="44.537223745624026" lon="8.03838429668201"><ele>720.0</ele><time>2026-04-12T05:48:13.999Z</time></trkpt><trkpt lat="44.53727802640868" lon="8.038321952997174"><ele>720.0</ele><time>2026-04-12T05:48:15.999Z</time></trkpt><trkpt lat="44.5373715190232" lon="8.038255555475507"><ele>720.0</ele><time>2026-04-12T05:48:17.999Z</time></trkpt><trkpt lat="44.537444225613" lon="8.038264069359622"><ele>720.0</ele><time>2026-04-12T05:48:21.999Z</time></trkpt><trkpt lat="44.537522973632925" lon="8.03823991363929"><ele>720.0</ele><time>2026-04-12T05:48:24.999Z</time></trkpt><trkpt lat="44.53759437644506" lon="8.03822343607481"><ele>720.0</ele><time>2026-04-12T05:48:28.999Z</time></trkpt><trkpt lat="44.53766278876923" lon="8.038207648609891"><ele>719.5</ele><time>2026-04-12T05:48:31.999Z</time></trkpt><trkpt lat="44.53773950821711" lon="8.038189944436645"><ele>719.0</ele><time>2026-04-12T05:48:35.999Z</time></trkpt><trkpt lat="44.53781136706342" lon="8.038173362051879"><ele>718.5</ele><time>2026-04-12T05:48:38.999Z</time></trkpt><trkpt lat="44.537879903767816" lon="8.038157546306486"><ele>718.0</ele><time>2026-04-12T05:48:41.999Z</time></trkpt><trkpt lat="44.53795539198475" lon="8.038140126407754"><ele>717.5</ele><time>2026-04-12T05:48:44.999Z</time></trkpt><trkpt lat="44.53803632337533" lon="8.038121450421587"><ele>717.0</ele><time>2026-04-12T05:48:47.999Z</time></trkpt><trkpt lat="44.538071934006076" lon="8.03822064338527"><ele>717.0</ele><time>2026-04-12T05:48:48.999Z</time></trkpt><trkpt lat="44.538176439898706" lon="8.038263207137136"><ele>717.0</ele><time>2026-04-12T05:48:51.999Z</time></trkpt><trkpt lat="44.538255491772" lon="8.038341961227278"><ele>717.0</ele><time>2026-04-12T05:48:53.999Z</time></trkpt><trkpt lat="44.53832868772954" lon="8.038381512906415"><ele>717.0</ele><time>2026-04-12T05:48:55.999Z</time></trkpt><trkpt lat="44.5384123793162" lon="8.038408760831253"><ele>717.0</ele><time>2026-04-12T05:48:58.999Z</time></trkpt><trkpt lat="44.53849781660935" lon="8.038416502164784"><ele>717.0</ele><time>2026-04-12T05:49:01.999Z</time></trkpt><trkpt lat="44.5385840856245" lon="8.038376992652537"><ele>717.0</ele><time>2026-04-12T05:49:04.999Z</time></trkpt><trkpt lat="44.538651357948375" lon="8.038300656464232"><ele>717.0</ele><time>2026-04-12T05:49:07.999Z</time></trkpt><trkpt lat="44.53873322392306" lon="8.038226213434877"><ele>717.0</ele><time>2026-04-12T05:49:10.999Z</time></trkpt><trkpt lat="44.53877752698927" lon="8.038129861678913"><ele>717.0</ele><time>2026-04-12T05:49:13.999Z</time></trkpt><trkpt lat="44.53882672662109" lon="8.038072666547272"><ele>717.0</ele><time>2026-04-12T05:49:15.999Z</time></trkpt><trkpt lat="44.53888986764333" lon="8.03797233271981"><ele>717.0</ele><time>2026-04-12T05:49:18.999Z</time></trkpt><trkpt lat="44.53894658727735" lon="8.037900375266814"><ele>717.0</ele><time>2026-04-12T05:49:20.999Z</time></trkpt><trkpt lat="44.53900741123259" lon="8.037815791796067"><ele>717.0</ele><time>2026-04-12T05:49:22.999Z</time></trkpt><trkpt lat="44.53905251927203" lon="8.037713114908948"><ele>717.0</ele><time>2026-04-12T05:49:24.999Z</time></trkpt><trkpt lat="44.53909296263908" lon="8.037596022013894"><ele>717.0</ele><time>2026-04-12T05:49:27Z</time></trkpt><trkpt lat="44.53914524965838" lon="8.037478877185496"><ele>717.0</ele><time>2026-04-12T05:49:29Z</time></trkpt><trkpt lat="44.53919086136112" lon="8.037374384430557"><ele>719.1666666666666</ele><time>2026-04-12T05:49:31Z</time></trkpt><trkpt lat="44.539232035812006" lon="8.037291965082467"><ele>721.3333333333334</ele><time>2026-04-12T05:49:33Z</time></trkpt><trkpt lat="44.53927606714623" lon="8.037210341040943"><ele>723.5</ele><time>2026-04-12T05:49:36Z</time></trkpt><trkpt lat="44.539315232361126" lon="8.037106580678461"><ele>725.6666666666667</ele><time>2026-04-12T05:49:39Z</time></trkpt><trkpt lat="44.53935386891242" lon="8.037000422283496"><ele>727.8333333333334</ele><time>2026-04-12T05:49:42Z</time></trkpt><trkpt lat="44.5393897085185" lon="8.03689323672459"><ele>730.0</ele><time>2026-04-12T05:49:44Z</time></trkpt><trkpt lat="44.53941148910277" lon="8.036752834224856"><ele>731.3333333333334</ele><time>2026-04-12T05:49:46Z</time></trkpt><trkpt lat="44.53942493635335" lon="8.036625198667918"><ele>732.6666666666667</ele><time>2026-04-12T05:49:48Z</time></trkpt><trkpt lat="44.53944119810005" lon="8.036529656443728"><ele>734.0</ele><time>2026-04-12T05:49:49Z</time></trkpt><trkpt lat="44.539482601999" lon="8.036434175646978"><ele>735.3333333333334</ele><time>2026-04-12T05:49:51Z</time></trkpt><trkpt lat="44.53953524533924" lon="8.036358719185355"><ele>736.6666666666666</ele><time>2026-04-12T05:49:53Z</time></trkpt><trkpt lat="44.53957897884572" lon="8.03625326743696"><ele>738.0</ele><time>2026-04-12T05:49:57Z</time></trkpt><trkpt lat="44.53959568387874" lon="8.036164355822397"><ele>737.0</ele><time>2026-04-12T05:49:59Z</time></trkpt><trkpt lat="44.5396142384428" lon="8.036078332635586"><ele>736.0</ele><time>2026-04-12T05:50:01Z</time></trkpt><trkpt lat="44.53965347360696" lon="8.035956214560036"><ele>735.0</ele><time>2026-04-12T05:50:03Z</time></trkpt><trkpt lat="44.53970529917953" lon="8.035870615585877"><ele>734.0</ele><time>2026-04-12T05:50:05Z</time></trkpt><trkpt lat="44.53978942120061" lon="8.035810553245893"><ele>733.0</ele><time>2026-04-12T05:50:07Z</time></trkpt><trkpt lat="44.53987527957818" lon="8.035755483339683"><ele>732.0</ele><time>2026-04-12T05:50:09Z</time></trkpt><trkpt lat="44.53995928435372" lon="8.035747785708665"><ele>732.0</ele><time>2026-04-12T05:50:11Z</time></trkpt><trkpt lat="44.540023401435846" lon="8.035727307856334"><ele>732.0</ele><time>2026-04-12T05:50:13Z</time></trkpt><trkpt lat="44.54011053702449" lon="8.035747891541659"><ele>732.0</ele><time>2026-04-12T05:50:16Z</time></trkpt><trkpt lat="44.54019155731078" lon="8.035747438252663"><ele>732.0</ele><time>2026-04-12T05:50:19Z</time></trkpt><trkpt lat="44.54025549082958" lon="8.035777103510465"><ele>732.0</ele><time>2026-04-12T05:50:39.999Z</time></trkpt><trkpt lat="44.540323332106595" lon="8.0357628485053"><ele>732.0</ele><time>2026-04-12T05:50:58.999Z</time></trkpt><trkpt lat="44.54041248371293" lon="8.03575331869692"><ele>728.5</ele><time>2026-04-12T05:51:02.999Z</time></trkpt><trkpt lat="44.540499656350775" lon="8.035735217760392"><ele>725.0</ele><time>2026-04-12T05:51:05.999Z</time></trkpt><trkpt lat="44.540583496740496" lon="8.035723488755067"><ele>721.5</ele><time>2026-04-12T05:51:08.999Z</time></trkpt><trkpt lat="44.540677085360926" lon="8.03574263193"><ele>718.0</ele><time>2026-04-12T05:51:11.999Z</time></trkpt><trkpt lat="44.5407432647697" lon="8.035773497405017"><ele>714.5</ele><time>2026-04-12T05:51:14.999Z</time></trkpt><trkpt lat="44.54080847173503" lon="8.035787580863765"><ele>711.0</ele><time>2026-04-12T05:51:16.999Z</time></trkpt><trkpt lat="44.54087339695053" lon="8.035761410347765"><ele>711.0</ele><time>2026-04-12T05:51:18.999Z</time></trkpt><trkpt lat="44.540953787976356" lon="8.035720956100237"><ele>711.0</ele><time>2026-04-12T05:51:21.999Z</time></trkpt><trkpt lat="44.541026994979276" lon="8.035644554589927"><ele>711.0</ele><time>2026-04-12T05:51:24.999Z</time></trkpt><trkpt lat="44.54107320979872" lon="8.035580197902425"><ele>711.0</ele><time>2026-04-12T05:51:26.999Z</time></trkpt><trkpt lat="44.541137912552315" lon="8.035501742868135"><ele>711.0</ele><time>2026-04-12T05:51:28.999Z</time></trkpt><trkpt lat="44.54118244173538" lon="8.035407419625445"><ele>711.0</ele><time>2026-04-12T05:51:30.999Z</time></trkpt><trkpt lat="44.54124695009188" lon="8.035343569635936"><ele>709.1666666666666</ele><time>2026-04-12T05:51:33Z</time></trkpt><trkpt lat="44.54127616725882" lon="8.035230443171606"><ele>707.3333333333334</ele><time>2026-04-12T05:51:35Z</time></trkpt><trkpt lat="44.54128699592144" lon="8.035106847539863"><ele>705.5</ele><time>2026-04-12T05:51:38Z</time></trkpt><trkpt lat="44.541305617314016" lon="8.03498335635931"><ele>703.6666666666667</ele><time>2026-04-12T05:51:41Z</time></trkpt><trkpt lat="44.541372843303094" lon="8.034909381735122"><ele>701.8333333333334</ele><time>2026-04-12T05:51:44Z</time></trkpt><trkpt lat="44.54140010051602" lon="8.034822068502015"><ele>700.0</ele><time>2026-04-12T05:51:48Z</time></trkpt><trkpt lat="44.54145177376473" lon="8.034735300148395"><ele>700.0</ele><time>2026-04-12T05:51:51Z</time></trkpt><trkpt lat="44.54151510466253" lon="8.034656851750059"><ele>700.0</ele><time>2026-04-12T05:51:54Z</time></trkpt><trkpt lat="44.541571968284856" lon="8.034592695338699"><ele>700.0</ele><time>2026-04-12T05:51:57Z</time></trkpt><trkpt lat="44.54164779730741" lon="8.034556026716125"><ele>700.0</ele><time>2026-04-12T05:52:00Z</time></trkpt><trkpt lat="44.54172126376547" lon="8.034543339388103"><ele>700.0</ele><time>2026-04-12T05:52:18Z</time></trkpt><trkpt lat="44.54178564003937" lon="8.03450191893107"><ele>700.0</ele><time>2026-04-12T05:52:44.999Z</time></trkpt><trkpt lat="44.54187001347211" lon="8.034406579536821"><ele>700.0</ele><time>2026-04-12T05:52:56.999Z</time></trkpt><trkpt lat="44.54193558484876" lon="8.034363187177487"><ele>700.0</ele><time>2026-04-12T05:53:16.999Z</time></trkpt><trkpt lat="44.54198049254209" lon="8.034294582891386"><ele>700.0</ele><time>2026-04-12T05:53:20.999Z</time></trkpt><trkpt lat="44.5420603384548" lon="8.034227812989124"><ele>700.0</ele><time>2026-04-12T05:53:23.999Z</time></trkpt><trkpt lat="44.54212683225222" lon="8.034179283535325"><ele>700.0</ele><time>2026-04-12T05:53:25.999Z</time></trkpt><trkpt lat="44.542178557870294" lon="8.034112000902084"><ele>700.0</ele><time>2026-04-12T05:53:27.999Z</time></trkpt><trkpt lat="44.542253913519644" lon="8.034032952576625"><ele>697.7142857142857</ele><time>2026-04-12T05:53:30.999Z</time></trkpt><trkpt lat="44.54232205384191" lon="8.033953756866865"><ele>695.4285714285714</ele><time>2026-04-12T05:53:33.999Z</time></trkpt><trkpt lat="44.54238515482965" lon="8.03392053620263"><ele>693.1428571428571</ele><time>2026-04-12T05:53:35.999Z</time></trkpt><trkpt lat="44.54243336218557" lon="8.03386345458003"><ele>690.8571428571429</ele><time>2026-04-12T05:53:39Z</time></trkpt><trkpt lat="44.54247794811909" lon="8.033799804143882"><ele>688.5714285714286</ele><time>2026-04-12T05:53:41Z</time></trkpt><trkpt lat="44.54250607745749" lon="8.033713949794095"><ele>686.2857142857142</ele><time>2026-04-12T05:53:43Z</time></trkpt><trkpt lat="44.54254204757605" lon="8.03362459894454"><ele>684.0</ele><time>2026-04-12T05:53:45Z</time></trkpt><trkpt lat="44.542558984392656" lon="8.033533984405402"><ele>684.0</ele><time>2026-04-12T05:53:47Z</time></trkpt><trkpt lat="44.54257116403877" lon="8.033440309316923"><ele>684.0</ele><time>2026-04-12T05:53:49Z</time></trkpt><trkpt lat="44.5425849377171" lon="8.033302680526281"><ele>684.0</ele><time>2026-04-12T05:53:52Z</time></trkpt><trkpt lat="44.54261273790735" lon="8.033192425845156"><ele>684.0</ele><time>2026-04-12T05:53:54Z</time></trkpt><trkpt lat="44.54263709072193" lon="8.033110409966842"><ele>684.0</ele><time>2026-04-12T05:53:56Z</time></trkpt><trkpt lat="44.54266847083028" lon="8.033029333154499"><ele>684.0</ele><time>2026-04-12T05:53:58Z</time></trkpt><trkpt lat="44.5427214356206" lon="8.03293391811154"><ele>683.3333333333334</ele><time>2026-04-12T05:54:00Z</time></trkpt><trkpt lat="44.54278145975825" lon="8.032851562377495"><ele>682.6666666666666</ele><time>2026-04-12T05:54:02Z</time></trkpt><trkpt lat="44.54283743048182" lon="8.032757985245572"><ele>682.0</ele><time>2026-04-12T05:54:04Z</time></trkpt><trkpt lat="44.54288758107543" lon="8.032629037187835"><ele>681.3333333333333</ele><time>2026-04-12T05:54:06Z</time></trkpt><trkpt lat="44.5429270045733" lon="8.032526947954373"><ele>680.6666666666666</ele><time>2026-04-12T05:54:08Z</time></trkpt><trkpt lat="44.54298113758943" lon="8.032472026656192"><ele>680.0</ele><time>2026-04-12T05:54:10Z</time></trkpt><trkpt lat="44.54307336068674" lon="8.03243109528954"><ele>680.0</ele><time>2026-04-12T05:54:12Z</time></trkpt><trkpt lat="44.54315567347489" lon="8.032392640109117"><ele>680.0</ele><time>2026-04-12T05:54:14Z</time></trkpt><trkpt lat="44.54322986630224" lon="8.032305104218768"><ele>680.0</ele><time>2026-04-12T05:54:16Z</time></trkpt><trkpt lat="44.54327785863867" lon="8.032202627693511"><ele>680.0</ele><time>2026-04-12T05:54:18Z</time></trkpt><trkpt lat="44.543323956454614" lon="8.032101314480387"><ele>680.0</ele><time>2026-04-12T05:54:20Z</time></trkpt><trkpt lat="44.54335696682291" lon="8.032007435075771"><ele>680.0</ele><time>2026-04-12T05:54:22Z</time></trkpt><trkpt lat="44.54339804269627" lon="8.031916557406012"><ele>680.0</ele><time>2026-04-12T05:54:24Z</time></trkpt><trkpt lat="44.543433727540354" lon="8.031833660076398"><ele>680.0</ele><time>2026-04-12T05:54:26Z</time></trkpt><trkpt lat="44.5434941398725" lon="8.031719271280327"><ele>680.0</ele><time>2026-04-12T05:54:28Z</time></trkpt><trkpt lat="44.54354208036388" lon="8.031621683157063"><ele>680.0</ele><time>2026-04-12T05:54:30Z</time></trkpt><trkpt lat="44.54359518622829" lon="8.031512580107965"><ele>680.0</ele><time>2026-04-12T05:54:32Z</time></trkpt><trkpt lat="44.54365950948131" lon="8.031412841355914"><ele>680.0</ele><time>2026-04-12T05:54:33.999Z</time></trkpt><trkpt lat="44.54371548090602" lon="8.031314848971238"><ele>677.0</ele><time>2026-04-12T05:54:35.999Z</time></trkpt><trkpt lat="44.54376201656699" lon="8.0312549213632"><ele>674.0</ele><time>2026-04-12T05:54:37.999Z</time></trkpt><trkpt lat="44.543809666262746" lon="8.031170464881347"><ele>671.0</ele><time>2026-04-12T05:54:39.999Z</time></trkpt><trkpt lat="44.5438633469745" lon="8.031097740085956"><ele>668.0</ele><time>2026-04-12T05:54:41.999Z</time></trkpt><trkpt lat="44.54392737047454" lon="8.031048147769798"><ele>665.0</ele><time>2026-04-12T05:54:43.999Z</time></trkpt><trkpt lat="44.5439957684929" lon="8.03098669375863"><ele>662.0</ele><time>2026-04-12T05:54:45.999Z</time></trkpt><trkpt lat="44.544075121701944" lon="8.030914999897222"><ele>662.0</ele><time>2026-04-12T05:54:47.999Z</time></trkpt><trkpt lat="44.54414960353391" lon="8.030831006577076"><ele>662.0</ele><time>2026-04-12T05:54:49.999Z</time></trkpt><trkpt lat="44.544199714179186" lon="8.030744091283943"><ele>662.0</ele><time>2026-04-12T05:54:51.999Z</time></trkpt><trkpt lat="44.54427643066969" lon="8.030642272051299"><ele>662.0</ele><time>2026-04-12T05:54:53.999Z</time></trkpt><trkpt lat="44.5443131255885" lon="8.030560776925252"><ele>662.0</ele><time>2026-04-12T05:54:55.999Z</time></trkpt><trkpt lat="44.544369985267934" lon="8.030476463311418"><ele>662.0</ele><time>2026-04-12T05:54:57.999Z</time></trkpt><trkpt lat="44.54442051118604" lon="8.030375931662276"><ele>661.4285714285714</ele><time>2026-04-12T05:55:00.999Z</time></trkpt><trkpt lat="44.54446591933456" lon="8.030313453774943"><ele>660.8571428571429</ele><time>2026-04-12T05:55:02.999Z</time></trkpt><trkpt lat="44.544523290042996" lon="8.030208256601028"><ele>660.2857142857142</ele><time>2026-04-12T05:55:05.999Z</time></trkpt><trkpt lat="44.54455264217459" lon="8.030119601098058"><ele>659.7142857142858</ele><time>2026-04-12T05:55:07.999Z</time></trkpt><trkpt lat="44.544596606275014" lon="8.030050718110765"><ele>659.1428571428571</ele><time>2026-04-12T05:55:09.999Z</time></trkpt><trkpt lat="44.54464869970029" lon="8.029988801700858"><ele>658.5714285714286</ele><time>2026-04-12T05:55:11.999Z</time></trkpt><trkpt lat="44.54469946389906" lon="8.029899069089321"><ele>658.0</ele><time>2026-04-12T05:55:13.999Z</time></trkpt><trkpt lat="44.54476113693991" lon="8.029832578253789"><ele>658.0</ele><time>2026-04-12T05:55:15.999Z</time></trkpt><trkpt lat="44.54481923288994" lon="8.029749497641106"><ele>658.0</ele><time>2026-04-12T05:55:17.999Z</time></trkpt><trkpt lat="44.54488871552789" lon="8.029665622748716"><ele>658.0</ele><time>2026-04-12T05:55:19.999Z</time></trkpt><trkpt lat="44.54495306265196" lon="8.029569155904415"><ele>658.0</ele><time>2026-04-12T05:55:21.999Z</time></trkpt><trkpt lat="44.545019493957085" lon="8.029453101196879"><ele>658.0</ele><time>2026-04-12T05:55:23.999Z</time></trkpt><trkpt lat="44.54506737540991" lon="8.029323530044975"><ele>658.0</ele><time>2026-04-12T05:55:25.999Z</time></trkpt><trkpt lat="44.54512644588277" lon="8.029257595507456"><ele>658.0</ele><time>2026-04-12T05:55:28.999Z</time></trkpt><trkpt lat="44.54517837283535" lon="8.029204105649223"><ele>658.0</ele><time>2026-04-12T05:55:36.999Z</time></trkpt><trkpt lat="44.54524084765784" lon="8.029135116310238"><ele>658.0</ele><time>2026-04-12T05:55:39.999Z</time></trkpt><trkpt lat="44.545290183275284" lon="8.029076924567041"><ele>658.0</ele><time>2026-04-12T05:55:41.999Z</time></trkpt><trkpt lat="44.545344021890216" lon="8.028973595315495"><ele>658.0</ele><time>2026-04-12T05:55:45Z</time></trkpt><trkpt lat="44.54539018460565" lon="8.028901034281434"><ele>658.0</ele><time>2026-04-12T05:55:47Z</time></trkpt><trkpt lat="44.54543387433775" lon="8.028817005160303"><ele>655.8571428571429</ele><time>2026-04-12T05:55:49Z</time></trkpt><trkpt lat="44.545476631125396" lon="8.02873016922364"><ele>653.7142857142858</ele><time>2026-04-12T05:55:51Z</time></trkpt><trkpt lat="44.5455150293131" lon="8.028647193799879"><ele>651.5714285714286</ele><time>2026-04-12T05:55:53Z</time></trkpt><trkpt lat="44.54554087276843" lon="8.028534132904424"><ele>649.4285714285714</ele><time>2026-04-12T05:57:08.999Z</time></trkpt><trkpt lat="44.545552424663164" lon="8.028427695269029"><ele>647.2857142857143</ele><time>2026-04-12T05:57:11.999Z</time></trkpt><trkpt lat="44.5455718974789" lon="8.02834195667104"><ele>645.1428571428571</ele><time>2026-04-12T05:57:13.999Z</time></trkpt><trkpt lat="44.545596140905715" lon="8.028258567261021"><ele>643.0</ele><time>2026-04-12T05:57:15.999Z</time></trkpt><trkpt lat="44.54563437375136" lon="8.028167588559842"><ele>643.0</ele><time>2026-04-12T05:57:18.999Z</time></trkpt><trkpt lat="44.54568167935288" lon="8.028081708271385"><ele>643.0</ele><time>2026-04-12T05:57:23.999Z</time></trkpt><trkpt lat="44.54573974269309" lon="8.028003056486298"><ele>643.0</ele><time>2026-04-12T05:57:26.999Z</time></trkpt><trkpt lat="44.5457824902873" lon="8.027935550628145"><ele>643.0</ele><time>2026-04-12T05:57:28.999Z</time></trkpt><trkpt lat="44.54583970314753" lon="8.027873663340468"><ele>643.0</ele><time>2026-04-12T05:57:30.999Z</time></trkpt><trkpt lat="44.545905881378204" lon="8.027828590166203"><ele>643.0</ele><time>2026-04-12T05:57:32.999Z</time></trkpt><trkpt lat="44.54595623083555" lon="8.02775976905252"><ele>643.0</ele><time>2026-04-12T05:57:34.999Z</time></trkpt><trkpt lat="44.54600095185365" lon="8.027682604785582"><ele>643.0</ele><time>2026-04-12T05:57:36.999Z</time></trkpt><trkpt lat="44.54604447636259" lon="8.027607214574676"><ele>643.0</ele><time>2026-04-12T05:57:38.999Z</time></trkpt><trkpt lat="44.546099647582764" lon="8.027532975641936"><ele>643.0</ele><time>2026-04-12T05:57:40.999Z</time></trkpt><trkpt lat="44.54615323251487" lon="8.027443027458817"><ele>643.0</ele><time>2026-04-12T05:57:42.999Z</time></trkpt><trkpt lat="44.546177316692" lon="8.027351014786111"><ele>643.0</ele><time>2026-04-12T05:57:44.999Z</time></trkpt><trkpt lat="44.54615985663495" lon="8.027221432141467"><ele>643.0</ele><time>2026-04-12T05:57:48.999Z</time></trkpt><trkpt lat="44.54613405434938" lon="8.027118284589156"><ele>642.0</ele><time>2026-04-12T05:57:51Z</time></trkpt><trkpt lat="44.54605958601777" lon="8.027038065318095"><ele>641.0</ele><time>2026-04-12T05:57:53Z</time></trkpt><trkpt lat="44.546018291285016" lon="8.026953564366238"><ele>640.0</ele><time>2026-04-12T05:57:55Z</time></trkpt><trkpt lat="44.54596963510239" lon="8.026845681749968"><ele>639.0</ele><time>2026-04-12T05:57:57Z</time></trkpt><trkpt lat="44.54592405480362" lon="8.026735343109934"><ele>638.0</ele><time>2026-04-12T05:57:59Z</time></trkpt><trkpt lat="44.54587365552502" lon="8.02664597910394"><ele>637.0</ele><time>2026-04-12T05:58:01Z</time></trkpt><trkpt lat="44.545840426990374" lon="8.026549109294404"><ele>636.5</ele><time>2026-04-12T05:58:03Z</time></trkpt><trkpt lat="44.54578603246271" lon="8.026439213434285"><ele>636.0</ele><time>2026-04-12T05:58:06Z</time></trkpt><trkpt lat="44.5457319158403" lon="8.026368613607138"><ele>635.5</ele><time>2026-04-12T05:58:08Z</time></trkpt><trkpt lat="44.54562848224199" lon="8.026344563970344"><ele>635.0</ele><time>2026-04-12T05:59:17.999Z</time></trkpt><trkpt lat="44.54559107055621" lon="8.026248682316773"><ele>634.5</ele><time>2026-04-12T05:59:38.999Z</time></trkpt><trkpt lat="44.54555880018458" lon="8.026158713829377"><ele>634.0</ele><time>2026-04-12T05:59:49.999Z</time></trkpt><trkpt lat="44.54554498348016" lon="8.026065077494255"><ele>634.0</ele><time>2026-04-12T06:00:10Z</time></trkpt><trkpt lat="44.545527823781356" lon="8.025977344879408"><ele>634.0</ele><time>2026-04-12T06:00:21Z</time></trkpt><trkpt lat="44.54554904179483" lon="8.025888612164636"><ele>634.0</ele><time>2026-04-12T06:00:34Z</time></trkpt><trkpt lat="44.545576207099835" lon="8.025798196286978"><ele>634.0</ele><time>2026-04-12T06:00:43Z</time></trkpt><trkpt lat="44.54557248029926" lon="8.025701883538504"><ele>634.0</ele><time>2026-04-12T06:00:50.999Z</time></trkpt><trkpt lat="44.54559960914482" lon="8.025617327201198"><ele>634.0</ele><time>2026-04-12T06:00:58.999Z</time></trkpt><trkpt lat="44.545606058850474" lon="8.025518292265273"><ele>634.0</ele><time>2026-04-12T06:01:06.999Z</time></trkpt><trkpt lat="44.545604470407035" lon="8.025427735230835"><ele>634.0</ele><time>2026-04-12T06:01:13.999Z</time></trkpt><trkpt lat="44.545592350398515" lon="8.02533244016759"><ele>634.0</ele><time>2026-04-12T06:01:21.999Z</time></trkpt><trkpt lat="44.545569827212475" lon="8.025236025997772"><ele>634.0</ele><time>2026-04-12T06:01:29.999Z</time></trkpt><trkpt lat="44.54551218617521" lon="8.025193802394167"><ele>634.0</ele><time>2026-04-12T06:01:36.999Z</time></trkpt><trkpt lat="44.545451455970245" lon="8.025165602253335"><ele>634.0</ele><time>2026-04-12T06:02:05Z</time></trkpt><trkpt lat="44.54538186416682" lon="8.025161603831988"><ele>634.0</ele><time>2026-04-12T06:02:09Z</time></trkpt><trkpt lat="44.54530139849629" lon="8.02516147317356"><ele>634.0</ele><time>2026-04-12T06:02:13Z</time></trkpt><trkpt lat="44.54523174252549" lon="8.025144313298894"><ele>635.4285714285714</ele><time>2026-04-12T06:02:17Z</time></trkpt><trkpt lat="44.54516811516562" lon="8.025098650478508"><ele>636.8571428571429</ele><time>2026-04-12T06:02:22Z</time></trkpt><trkpt lat="44.54510742974109" lon="8.025026536287685"><ele>638.2857142857142</ele><time>2026-04-12T06:02:39Z</time></trkpt><trkpt lat="44.54505192160761" lon="8.024964863111688"><ele>639.7142857142858</ele><time>2026-04-12T06:02:46Z</time></trkpt><trkpt lat="44.545011140284124" lon="8.024869677528297"><ele>641.1428571428571</ele><time>2026-04-12T06:02:59.999Z</time></trkpt><trkpt lat="44.54498771158696" lon="8.02478686566913"><ele>642.5714285714286</ele><time>2026-04-12T06:03:09.999Z</time></trkpt><trkpt lat="44.54496433829103" lon="8.024694374561648"><ele>644.0</ele><time>2026-04-12T06:03:13.999Z</time></trkpt><trkpt lat="44.54493828321813" lon="8.024600472031455"><ele>644.0</ele><time>2026-04-12T06:03:16.999Z</time></trkpt><trkpt lat="44.54489269909926" lon="8.024497029122653"><ele>644.0</ele><time>2026-04-12T06:03:20.999Z</time></trkpt><trkpt lat="44.544857114834" lon="8.024414695485975"><ele>644.0</ele><time>2026-04-12T06:03:25.999Z</time></trkpt><trkpt lat="44.54482616458728" lon="8.024318752528087"><ele>644.0</ele><time>2026-04-12T06:03:28.999Z</time></trkpt><trkpt lat="44.544791139719486" lon="8.02423699301009"><ele>644.0</ele><time>2026-04-12T06:03:30.999Z</time></trkpt><trkpt lat="44.54475005825136" lon="8.024164020692647"><ele>644.0</ele><time>2026-04-12T06:03:32.999Z</time></trkpt><trkpt lat="44.54470544679825" lon="8.024094261593067"><ele>644.0</ele><time>2026-04-12T06:03:34.999Z</time></trkpt><trkpt lat="44.54465615707045" lon="8.024035560263586"><ele>644.3333333333333</ele><time>2026-04-12T06:03:37.999Z</time></trkpt><trkpt lat="44.54458168497762" lon="8.023969868291546"><ele>644.6666666666666</ele><time>2026-04-12T06:03:40.999Z</time></trkpt><trkpt lat="44.54453465684777" lon="8.023894627294798"><ele>645.0</ele><time>2026-04-12T06:03:43.999Z</time></trkpt><trkpt lat="44.544471547403454" lon="8.023833629504605"><ele>645.3333333333334</ele><time>2026-04-12T06:03:46.999Z</time></trkpt><trkpt lat="44.54440493706826" lon="8.023776619250935"><ele>645.6666666666667</ele><time>2026-04-12T06:03:49.999Z</time></trkpt><trkpt lat="44.54435672493792" lon="8.023702937332256"><ele>646.0</ele><time>2026-04-12T06:03:52.999Z</time></trkpt><trkpt lat="44.54429998808414" lon="8.023638565546168"><ele>646.0000000000001</ele><time>2026-04-12T06:03:57.999Z</time></trkpt><trkpt lat="44.544254381278144" lon="8.02357024002344"><ele>646.0</ele><time>2026-04-12T06:04:09Z</time></trkpt><trkpt lat="44.54420496138599" lon="8.023489050705152"><ele>646.0</ele><time>2026-04-12T06:04:18Z</time></trkpt><trkpt lat="44.54415018729285" lon="8.023440118622643"><ele>646.0</ele><time>2026-04-12T06:04:21Z</time></trkpt><trkpt lat="44.54410035800947" lon="8.02335843133284"><ele>646.0</ele><time>2026-04-12T06:04:24Z</time></trkpt><trkpt lat="44.54403901647157" lon="8.023267720685613"><ele>646.0000000000001</ele><time>2026-04-12T06:04:28Z</time></trkpt><trkpt lat="44.54399143998089" lon="8.023200836687106"><ele>646.0</ele><time>2026-04-12T06:04:31Z</time></trkpt><trkpt lat="44.54393596725369" lon="8.023127332803483"><ele>644.3333333333334</ele><time>2026-04-12T06:04:35Z</time></trkpt><trkpt lat="44.543849905505944" lon="8.023051063173975"><ele>642.6666666666667</ele><time>2026-04-12T06:04:38Z</time></trkpt><trkpt lat="44.543765707603" lon="8.022981785160885"><ele>641.0</ele><time>2026-04-12T06:04:40Z</time></trkpt><trkpt lat="44.54370785151245" lon="8.022930728161477"><ele>639.3333333333334</ele><time>2026-04-12T06:04:42Z</time></trkpt><trkpt lat="44.54365135474828" lon="8.02286968945616"><ele>637.6666666666666</ele><time>2026-04-12T06:04:44Z</time></trkpt><trkpt lat="44.54362144379954" lon="8.022772821140569"><ele>636.0</ele><time>2026-04-12T06:04:46Z</time></trkpt><trkpt lat="44.54358141795874" lon="8.022684107151134"><ele>636.0</ele><time>2026-04-12T06:04:48Z</time></trkpt><trkpt lat="44.54355699105767" lon="8.022567654798365"><ele>636.0</ele><time>2026-04-12T06:04:50Z</time></trkpt><trkpt lat="44.543533489901684" lon="8.0224517400082"><ele>636.0</ele><time>2026-04-12T06:04:52Z</time></trkpt><trkpt lat="44.543499926053215" lon="8.022339047745902"><ele>636.0</ele><time>2026-04-12T06:04:54Z</time></trkpt><trkpt lat="44.54343251480411" lon="8.022222911666"><ele>636.0</ele><time>2026-04-12T06:04:56Z</time></trkpt><trkpt lat="44.54335808213781" lon="8.02210748838486"><ele>635.4</ele><time>2026-04-12T06:04:58Z</time></trkpt><trkpt lat="44.54330283920195" lon="8.021983187008292"><ele>634.8</ele><time>2026-04-12T06:05:00Z</time></trkpt><trkpt lat="44.54327229990298" lon="8.021850462705244"><ele>634.1999999999999</ele><time>2026-04-12T06:05:01.999Z</time></trkpt><trkpt lat="44.54321734555178" lon="8.021728862912186"><ele>633.6</ele><time>2026-04-12T06:05:03.999Z</time></trkpt><trkpt lat="44.54317506016805" lon="8.021603842936914"><ele>633.0</ele><time>2026-04-12T06:05:05.999Z</time></trkpt><trkpt lat="44.54312435067783" lon="8.021480884001178"><ele>632.0</ele><time>2026-04-12T06:05:07.999Z</time></trkpt><trkpt lat="44.54305538566103" lon="8.021360829587286"><ele>631.0</ele><time>2026-04-12T06:05:09.999Z</time></trkpt><trkpt lat="44.542991715790066" lon="8.021225529938514"><ele>630.0</ele><time>2026-04-12T06:05:11.999Z</time></trkpt><trkpt lat="44.54295442779037" lon="8.021148395453986"><ele>629.0</ele><time>2026-04-12T06:05:12.999Z</time></trkpt><trkpt lat="44.54291959746013" lon="8.021062773371087"><ele>628.0</ele><time>2026-04-12T06:05:13.999Z</time></trkpt><trkpt lat="44.542878581946695" lon="8.02098742200693"><ele>627.0</ele><time>2026-04-12T06:05:14.999Z</time></trkpt><trkpt lat="44.54284080281523" lon="8.020903016695875"><ele>626.5</ele><time>2026-04-12T06:05:15.999Z</time></trkpt><trkpt lat="44.54279378046436" lon="8.020824162209735"><ele>626.0</ele><time>2026-04-12T06:05:16.999Z</time></trkpt><trkpt lat="44.54275128197247" lon="8.020739216094972"><ele>625.5</ele><time>2026-04-12T06:05:17.999Z</time></trkpt><trkpt lat="44.542710275613736" lon="8.0206492090467"><ele>625.0</ele><time>2026-04-12T06:05:18.999Z</time></trkpt><trkpt lat="44.54266058547191" lon="8.020564700805677"><ele>624.5</ele><time>2026-04-12T06:05:19.999Z</time></trkpt><trkpt lat="44.542613497018316" lon="8.020474948907813"><ele>624.0</ele><time>2026-04-12T06:05:20.999Z</time></trkpt><trkpt lat="44.542573502547455" lon="8.02037815909032"><ele>624.0</ele><time>2026-04-12T06:05:21.999Z</time></trkpt><trkpt lat="44.542539543359595" lon="8.020275283395781"><ele>624.0</ele><time>2026-04-12T06:05:22.999Z</time></trkpt><trkpt lat="44.54250960292961" lon="8.020170698025046"><ele>624.0</ele><time>2026-04-12T06:05:23.999Z</time></trkpt><trkpt lat="44.542482123390215" lon="8.020065883613828"><ele>624.0</ele><time>2026-04-12T06:05:24.999Z</time></trkpt><trkpt lat="44.54245212677429" lon="8.019963317619503"><ele>624.0</ele><time>2026-04-12T06:05:25.999Z</time></trkpt><trkpt lat="44.542418675917396" lon="8.01986051867398"><ele>624.0</ele><time>2026-04-12T06:05:26.999Z</time></trkpt><trkpt lat="44.54240046644039" lon="8.019751065539198"><ele>623.6666666666666</ele><time>2026-04-12T06:05:27.999Z</time></trkpt><trkpt lat="44.542365876631976" lon="8.019651231190387"><ele>623.3333333333334</ele><time>2026-04-12T06:05:28.999Z</time></trkpt><trkpt lat="44.54231419613984" lon="8.019565904885907"><ele>623.0</ele><time>2026-04-12T06:05:29.999Z</time></trkpt><trkpt lat="44.54227683557902" lon="8.019472563651773"><ele>622.6666666666667</ele><time>2026-04-12T06:05:30.999Z</time></trkpt><trkpt lat="44.542238348832115" lon="8.0193810523358"><ele>622.3333333333334</ele><time>2026-04-12T06:05:31.999Z</time></trkpt><trkpt lat="44.54220197589887" lon="8.01929038036268"><ele>622.0</ele><time>2026-04-12T06:05:32.999Z</time></trkpt><trkpt lat="44.542162263385904" lon="8.019199077582979"><ele>622.1428571428571</ele><time>2026-04-12T06:05:33.999Z</time></trkpt><trkpt lat="44.54212317307545" lon="8.019109654084236"><ele>622.2857142857143</ele><time>2026-04-12T06:05:34.999Z</time></trkpt><trkpt lat="44.542086476318254" lon="8.019019553441911"><ele>622.4285714285714</ele><time>2026-04-12T06:05:35.999Z</time></trkpt><trkpt lat="44.54205065348842" lon="8.018927753215191"><ele>622.5714285714286</ele><time>2026-04-12T06:05:36.999Z</time></trkpt><trkpt lat="44.54202814374307" lon="8.018827444567425"><ele>622.7142857142858</ele><time>2026-04-12T06:05:37.999Z</time></trkpt><trkpt lat="44.541992959570905" lon="8.018734905603573"><ele>622.8571428571429</ele><time>2026-04-12T06:05:38.999Z</time></trkpt><trkpt lat="44.541941556255864" lon="8.018661255236909"><ele>623.0</ele><time>2026-04-12T06:05:39.999Z</time></trkpt><trkpt lat="44.54190831987919" lon="8.018582019547583"><ele>623.0</ele><time>2026-04-12T06:05:40.999Z</time></trkpt><trkpt lat="44.54180346623476" lon="8.018489226671663"><ele>623.0</ele><time>2026-04-12T06:05:42.999Z</time></trkpt><trkpt lat="44.541733026802824" lon="8.01846349134415"><ele>623.0</ele><time>2026-04-12T06:05:43.999Z</time></trkpt><trkpt lat="44.54162820037588" lon="8.018374042642707"><ele>623.0</ele><time>2026-04-12T06:05:45.999Z</time></trkpt><trkpt lat="44.541561963100435" lon="8.018318196473903"><ele>623.0</ele><time>2026-04-12T06:05:46.999Z</time></trkpt><trkpt lat="44.54153037165573" lon="8.018223041742473"><ele>621.6666666666666</ele><time>2026-04-12T06:05:47.999Z</time></trkpt><trkpt lat="44.5414629976835" lon="8.0181159133992"><ele>620.3333333333333</ele><time>2026-04-12T06:05:49.999Z</time></trkpt><trkpt lat="44.541379609203155" lon="8.017983321141969"><ele>619.0</ele><time>2026-04-12T06:05:51.999Z</time></trkpt><trkpt lat="44.54132350302702" lon="8.01792517233005"><ele>617.6666666666666</ele><time>2026-04-12T06:05:52.999Z</time></trkpt><trkpt lat="44.5412751307575" lon="8.017845102608563"><ele>616.3333333333334</ele><time>2026-04-12T06:05:53.999Z</time></trkpt><trkpt lat="44.54123803993614" lon="8.017758218280685"><ele>615.0</ele><time>2026-04-12T06:05:54.999Z</time></trkpt><trkpt lat="44.54118647813278" lon="8.017675393475741"><ele>614.8333333333334</ele><time>2026-04-12T06:05:55.999Z</time></trkpt><trkpt lat="44.54113472772831" lon="8.017590033943016"><ele>614.6666666666666</ele><time>2026-04-12T06:05:56.999Z</time></trkpt><trkpt lat="44.54108275446222" lon="8.017500040001636"><ele>614.5</ele><time>2026-04-12T06:05:57.999Z</time></trkpt><trkpt lat="44.54102954173699" lon="8.017404797969618"><ele>614.3333333333333</ele><time>2026-04-12T06:05:58.999Z</time></trkpt><trkpt lat="44.540977333474515" lon="8.017309721525066"><ele>614.1666666666666</ele><time>2026-04-12T06:05:59.999Z</time></trkpt><trkpt lat="44.54090997927993" lon="8.017223389286626"><ele>614.0</ele><time>2026-04-12T06:06:00.999Z</time></trkpt><trkpt lat="44.540861015676896" lon="8.017119578044776"><ele>614.0</ele><time>2026-04-12T06:06:01.999Z</time></trkpt><trkpt lat="44.54080680583798" lon="8.017015853700046"><ele>614.0</ele><time>2026-04-12T06:06:02.999Z</time></trkpt><trkpt lat="44.54074906198934" lon="8.016910829049886"><ele>614.0</ele><time>2026-04-12T06:06:03.999Z</time></trkpt><trkpt lat="44.54070774006164" lon="8.016792555035616"><ele>614.0</ele><time>2026-04-12T06:06:04.999Z</time></trkpt><trkpt lat="44.54065452763741" lon="8.016685509192111"><ele>614.0</ele><time>2026-04-12T06:06:05.999Z</time></trkpt><trkpt lat="44.540590322654516" lon="8.01659314755292"><ele>613.6</ele><time>2026-04-12T06:06:06.999Z</time></trkpt><trkpt lat="44.54053986740675" lon="8.016487400156727"><ele>613.2</ele><time>2026-04-12T06:06:07.999Z</time></trkpt><trkpt lat="44.540491208441445" lon="8.016381947920854"><ele>612.8000000000001</ele><time>2026-04-12T06:06:08.999Z</time></trkpt><trkpt lat="44.540439688929325" lon="8.016275625414444"><ele>612.4</ele><time>2026-04-12T06:06:09.999Z</time></trkpt><trkpt lat="44.54038649330456" lon="8.016173101032079"><ele>612.0</ele><time>2026-04-12T06:06:10.999Z</time></trkpt><trkpt lat="44.54034995258394" lon="8.01605293376087"><ele>611.0</ele><time>2026-04-12T06:06:11.999Z</time></trkpt><trkpt lat="44.540310104770896" lon="8.015942344554757"><ele>610.0</ele><time>2026-04-12T06:06:12.999Z</time></trkpt><trkpt lat="44.54027616780373" lon="8.015831298986603"><ele>609.0</ele><time>2026-04-12T06:06:13.999Z</time></trkpt><trkpt lat="44.540240238563776" lon="8.015711340819491"><ele>608.0</ele><time>2026-04-12T06:06:15Z</time></trkpt><trkpt lat="44.54020063486247" lon="8.015593925458663"><ele>607.0</ele><time>2026-04-12T06:06:16Z</time></trkpt><trkpt lat="44.54014667219775" lon="8.015484029515157"><ele>607.0</ele><time>2026-04-12T06:06:17Z</time></trkpt><trkpt lat="44.540107707596704" lon="8.015366361997996"><ele>607.0</ele><time>2026-04-12T06:06:18Z</time></trkpt><trkpt lat="44.5400673448108" lon="8.015250265266493"><ele>607.0</ele><time>2026-04-12T06:06:19Z</time></trkpt><trkpt lat="44.54002750451054" lon="8.015134347352893"><ele>607.0</ele><time>2026-04-12T06:06:20Z</time></trkpt><trkpt lat="44.539982071291945" lon="8.015024309047993"><ele>607.0</ele><time>2026-04-12T06:06:21Z</time></trkpt><trkpt lat="44.539934434050195" lon="8.014926638511628"><ele>606.6666666666667</ele><time>2026-04-12T06:06:22Z</time></trkpt><trkpt lat="44.539887856014374" lon="8.014835148906858"><ele>606.3333333333334</ele><time>2026-04-12T06:06:23Z</time></trkpt><trkpt lat="44.539840083243185" lon="8.014739892485697"><ele>606.0</ele><time>2026-04-12T06:06:24Z</time></trkpt><trkpt lat="44.53979675485326" lon="8.014636737549132"><ele>605.6666666666666</ele><time>2026-04-12T06:06:25Z</time></trkpt><trkpt lat="44.53975665299394" lon="8.014531631493043"><ele>605.3333333333333</ele><time>2026-04-12T06:06:26Z</time></trkpt><trkpt lat="44.53971877998056" lon="8.014428367780985"><ele>605.0</ele><time>2026-04-12T06:06:27Z</time></trkpt><trkpt lat="44.53967602353246" lon="8.014328409422355"><ele>605.0</ele><time>2026-04-12T06:06:28Z</time></trkpt><trkpt lat="44.53963560181551" lon="8.01423294851655"><ele>605.0</ele><time>2026-04-12T06:06:29Z</time></trkpt><trkpt lat="44.539598901934006" lon="8.01413736775364"><ele>605.0</ele><time>2026-04-12T06:06:30Z</time></trkpt><trkpt lat="44.53954287502644" lon="8.01405442260799"><ele>605.0</ele><time>2026-04-12T06:06:31Z</time></trkpt><trkpt lat="44.53946899102472" lon="8.013987470244126"><ele>605.0</ele><time>2026-04-12T06:06:32Z</time></trkpt><trkpt lat="44.53939344258787" lon="8.01393484277183"><ele>605.0</ele><time>2026-04-12T06:06:33Z</time></trkpt><trkpt lat="44.539324294371575" lon="8.013852043756247"><ele>604.8</ele><time>2026-04-12T06:06:34Z</time></trkpt><trkpt lat="44.539261834578" lon="8.013769839041704"><ele>604.6</ele><time>2026-04-12T06:06:35Z</time></trkpt><trkpt lat="44.53918644267087" lon="8.013666909802433"><ele>604.4</ele><time>2026-04-12T06:06:36Z</time></trkpt><trkpt lat="44.53911472045858" lon="8.013576547819854"><ele>604.2</ele><time>2026-04-12T06:06:37Z</time></trkpt><trkpt lat="44.53904258479312" lon="8.013479170256977"><ele>604.0</ele><time>2026-04-12T06:06:38Z</time></trkpt><trkpt lat="44.539000576963424" lon="8.013342820443848"><ele>604.2</ele><time>2026-04-12T06:06:39Z</time></trkpt><trkpt lat="44.53895561934741" lon="8.013224099938066"><ele>604.4</ele><time>2026-04-12T06:06:40Z</time></trkpt><trkpt lat="44.53890386558337" lon="8.013092913859053"><ele>604.6</ele><time>2026-04-12T06:06:41Z</time></trkpt><trkpt lat="44.538840917947425" lon="8.012978081011662"><ele>604.8</ele><time>2026-04-12T06:06:42Z</time></trkpt><trkpt lat="44.53876392281819" lon="8.012877439228493"><ele>605.0</ele><time>2026-04-12T06:06:43Z</time></trkpt><trkpt lat="44.538698276206475" lon="8.012769704260036"><ele>602.1666666666666</ele><time>2026-04-12T06:06:44Z</time></trkpt><trkpt lat="44.538648391899784" lon="8.01266083420456"><ele>599.3333333333333</ele><time>2026-04-12T06:06:45Z</time></trkpt><trkpt lat="44.53859940683783" lon="8.012557602518335"><ele>596.5</ele><time>2026-04-12T06:06:46Z</time></trkpt><trkpt lat="44.53857440750348" lon="8.01245924608414"><ele>593.6666666666666</ele><time>2026-04-12T06:06:47Z</time></trkpt><trkpt lat="44.538539498704885" lon="8.012348950945219"><ele>590.8333333333334</ele><time>2026-04-12T06:06:48Z</time></trkpt><trkpt lat="44.53851633663055" lon="8.01223353105588"><ele>588.0</ele><time>2026-04-12T06:06:49Z</time></trkpt><trkpt lat="44.53849363846051" lon="8.012111429871853"><ele>588.0</ele><time>2026-04-12T06:06:50Z</time></trkpt><trkpt lat="44.53841516044196" lon="8.012031206574834"><ele>588.0</ele><time>2026-04-12T06:06:51Z</time></trkpt><trkpt lat="44.53834469496596" lon="8.011966755701938"><ele>588.0</ele><time>2026-04-12T06:06:52Z</time></trkpt><trkpt lat="44.53829441342313" lon="8.011885957244736"><ele>588.0</ele><time>2026-04-12T06:06:53Z</time></trkpt><trkpt lat="44.53825526754302" lon="8.01180692736509"><ele>588.0</ele><time>2026-04-12T06:06:54Z</time></trkpt><trkpt lat="44.53822424278825" lon="8.011692957431608"><ele>588.0</ele><time>2026-04-12T06:06:55Z</time></trkpt><trkpt lat="44.53819328280282" lon="8.01158052573198"><ele>589.3333333333334</ele><time>2026-04-12T06:06:56Z</time></trkpt><trkpt lat="44.538135629506435" lon="8.01148008958641"><ele>590.6666666666666</ele><time>2026-04-12T06:06:57Z</time></trkpt><trkpt lat="44.538087799754805" lon="8.011378374454262"><ele>592.0</ele><time>2026-04-12T06:06:58Z</time></trkpt><trkpt lat="44.53805931987586" lon="8.011260063900673"><ele>593.3333333333333</ele><time>2026-04-12T06:06:59Z</time></trkpt><trkpt lat="44.53802496736851" lon="8.011142777560199"><ele>594.6666666666666</ele><time>2026-04-12T06:07:00Z</time></trkpt><trkpt lat="44.537994625150446" lon="8.011047424026899"><ele>596.0</ele><time>2026-04-12T06:07:01Z</time></trkpt><trkpt lat="44.53794540665927" lon="8.01089963738224"><ele>596.0</ele><time>2026-04-12T06:07:03Z</time></trkpt><trkpt lat="44.537914207582865" lon="8.01082020025891"><ele>596.0</ele><time>2026-04-12T06:07:05Z</time></trkpt><trkpt lat="44.53787395288328" lon="8.010736883189162"><ele>596.0</ele><time>2026-04-12T06:07:29.999Z</time></trkpt><trkpt lat="44.53781451622796" lon="8.010671594668146"><ele>596.0</ele><time>2026-04-12T06:07:32.999Z</time></trkpt><trkpt lat="44.53776711475819" lon="8.010586740494212"><ele>596.0</ele><time>2026-04-12T06:07:34.999Z</time></trkpt><trkpt lat="44.53772528926491" lon="8.010485276448282"><ele>596.0</ele><time>2026-04-12T06:07:36.999Z</time></trkpt><trkpt lat="44.53770833156451" lon="8.01035486341314"><ele>591.0</ele><time>2026-04-12T06:07:38.999Z</time></trkpt><trkpt lat="44.53770287172467" lon="8.010215394435658"><ele>586.0</ele><time>2026-04-12T06:07:40.999Z</time></trkpt><trkpt lat="44.53766442711823" lon="8.0100731843087"><ele>581.0</ele><time>2026-04-12T06:07:42.999Z</time></trkpt><trkpt lat="44.537610383194306" lon="8.009937279447854"><ele>576.0</ele><time>2026-04-12T06:07:44.999Z</time></trkpt><trkpt lat="44.537540726598415" lon="8.009810031513105"><ele>571.0</ele><time>2026-04-12T06:07:46.999Z</time></trkpt><trkpt lat="44.53752496326637" lon="8.009723474261845"><ele>571.0</ele><time>2026-04-12T06:07:47.999Z</time></trkpt><trkpt lat="44.53748509716282" lon="8.009651704390325"><ele>571.0</ele><time>2026-04-12T06:07:48.999Z</time></trkpt><trkpt lat="44.53747961239838" lon="8.009560080524915"><ele>571.0</ele><time>2026-04-12T06:07:49.999Z</time></trkpt><trkpt lat="44.5374837783742" lon="8.009462244042837"><ele>571.0</ele><time>2026-04-12T06:07:50.999Z</time></trkpt><trkpt lat="44.537497376056514" lon="8.00936541318609"><ele>571.0</ele><time>2026-04-12T06:07:51.999Z</time></trkpt><trkpt lat="44.53751754361711" lon="8.009273965859222"><ele>571.0</ele><time>2026-04-12T06:07:52.999Z</time></trkpt><trkpt lat="44.53753615181934" lon="8.00917270668932"><ele>571.0</ele><time>2026-04-12T06:07:53.999Z</time></trkpt><trkpt lat="44.537533763984975" lon="8.009069604557268"><ele>570.6666666666667</ele><time>2026-04-12T06:07:54.999Z</time></trkpt><trkpt lat="44.53751880555444" lon="8.0089666240487"><ele>570.3333333333334</ele><time>2026-04-12T06:07:55.999Z</time></trkpt><trkpt lat="44.537508995455056" lon="8.008863612301653"><ele>570.0</ele><time>2026-04-12T06:07:56.999Z</time></trkpt><trkpt lat="44.53748137193815" lon="8.008760322485829"><ele>569.6666666666666</ele><time>2026-04-12T06:07:57.999Z</time></trkpt><trkpt lat="44.537458579021354" lon="8.008657278294645"><ele>569.3333333333333</ele><time>2026-04-12T06:07:58.999Z</time></trkpt><trkpt lat="44.537448446658715" lon="8.008546608473315"><ele>569.0</ele><time>2026-04-12T06:07:59.999Z</time></trkpt><trkpt lat="44.537444861801326" lon="8.008435175859496"><ele>569.0</ele><time>2026-04-12T06:08:00.999Z</time></trkpt><trkpt lat="44.53744097584989" lon="8.00831805192615"><ele>569.0</ele><time>2026-04-12T06:08:01.999Z</time></trkpt><trkpt lat="44.53744448608249" lon="8.008198126873207"><ele>569.0</ele><time>2026-04-12T06:08:02.999Z</time></trkpt><trkpt lat="44.53745111169011" lon="8.008086290745847"><ele>569.0</ele><time>2026-04-12T06:08:03.999Z</time></trkpt><trkpt lat="44.53744561602126" lon="8.007970732073131"><ele>569.0</ele><time>2026-04-12T06:08:04.999Z</time></trkpt><trkpt lat="44.537433101998495" lon="8.007859529570831"><ele>569.0</ele><time>2026-04-12T06:08:05.999Z</time></trkpt><trkpt lat="44.537421597016454" lon="8.007756386572318"><ele>569.0000000000001</ele><time>2026-04-12T06:08:06.999Z</time></trkpt><trkpt lat="44.537410541876014" lon="8.007649958840027"><ele>569.0</ele><time>2026-04-12T06:08:07.999Z</time></trkpt><trkpt lat="44.53739277863166" lon="8.007546513933123"><ele>569.0</ele><time>2026-04-12T06:08:08.999Z</time></trkpt><trkpt lat="44.5373831459784" lon="8.007443622958808"><ele>569.0</ele><time>2026-04-12T06:08:09.999Z</time></trkpt><trkpt lat="44.53737619372051" lon="8.007342333873344"><ele>569.0</ele><time>2026-04-12T06:08:10.999Z</time></trkpt><trkpt lat="44.53736819177445" lon="8.007246933684277"><ele>569.0000000000001</ele><time>2026-04-12T06:08:11.999Z</time></trkpt><trkpt lat="44.53736349825797" lon="8.007153819876706"><ele>569.0</ele><time>2026-04-12T06:08:12.999Z</time></trkpt><trkpt lat="44.537358948178984" lon="8.007060558091156"><ele>568.8333333333333</ele><time>2026-04-12T06:08:13.999Z</time></trkpt><trkpt lat="44.53735376327757" lon="8.006967018358898"><ele>568.6666666666666</ele><time>2026-04-12T06:08:14.999Z</time></trkpt><trkpt lat="44.53734350265211" lon="8.006878197582221"><ele>568.5</ele><time>2026-04-12T06:08:15.999Z</time></trkpt><trkpt lat="44.537335697566284" lon="8.0067899270524"><ele>568.3333333333334</ele><time>2026-04-12T06:08:16.999Z</time></trkpt><trkpt lat="44.53732650104818" lon="8.006623067510645"><ele>568.1666666666667</ele><time>2026-04-12T06:08:18.999Z</time></trkpt><trkpt lat="44.53732388040888" lon="8.006470927972252"><ele>568.0</ele><time>2026-04-12T06:08:21Z</time></trkpt><trkpt lat="44.53731731771002" lon="8.00633107037237"><ele>567.0</ele><time>2026-04-12T06:08:23Z</time></trkpt><trkpt lat="44.537312887172064" lon="8.006197537891538"><ele>566.0</ele><time>2026-04-12T06:08:25Z</time></trkpt><trkpt lat="44.537305497433174" lon="8.006067491522842"><ele>565.0</ele><time>2026-04-12T06:08:27Z</time></trkpt><trkpt lat="44.537298961545304" lon="8.005935265419529"><ele>564.0</ele><time>2026-04-12T06:08:29Z</time></trkpt><trkpt lat="44.5372937296114" lon="8.005797817742371"><ele>563.0</ele><time>2026-04-12T06:08:31Z</time></trkpt><trkpt lat="44.53729622307207" lon="8.005643588518705"><ele>562.6</ele><time>2026-04-12T06:08:33Z</time></trkpt><trkpt lat="44.537310183404955" lon="8.005478172394698"><ele>562.1999999999999</ele><time>2026-04-12T06:08:35Z</time></trkpt><trkpt lat="44.537333821013" lon="8.00533700056274"><ele>561.8</ele><time>2026-04-12T06:08:37Z</time></trkpt><trkpt lat="44.537329048622084" lon="8.005209812803727"><ele>561.4</ele><time>2026-04-12T06:08:39Z</time></trkpt><trkpt lat="44.537238970946014" lon="8.005138113907341"><ele>561.0</ele><time>2026-04-12T06:08:41Z</time></trkpt><trkpt lat="44.537158635878704" lon="8.005167832898588"><ele>561.0</ele><time>2026-04-12T06:08:43Z</time></trkpt><trkpt lat="44.537152858602916" lon="8.005321295251996"><ele>561.0</ele><time>2026-04-12T06:08:45Z</time></trkpt><trkpt lat="44.53713871745436" lon="8.005438221199636"><ele>561.0</ele><time>2026-04-12T06:08:47Z</time></trkpt><trkpt lat="44.5371243327986" lon="8.005588506201697"><ele>561.0</ele><time>2026-04-12T06:08:49Z</time></trkpt><trkpt lat="44.537107883703236" lon="8.005760359624123"><ele>561.0</ele><time>2026-04-12T06:08:51Z</time></trkpt><trkpt lat="44.537098777878725" lon="8.00585001507061"><ele>561.3333333333334</ele><time>2026-04-12T06:08:52Z</time></trkpt><trkpt lat="44.537089081622184" lon="8.005944448111865"><ele>561.6666666666666</ele><time>2026-04-12T06:08:53Z</time></trkpt><trkpt lat="44.5370801285623" lon="8.006037948308792"><ele>562.0</ele><time>2026-04-12T06:08:54Z</time></trkpt><trkpt lat="44.53707437267797" lon="8.006129985361971"><ele>562.3333333333333</ele><time>2026-04-12T06:08:55Z</time></trkpt><trkpt lat="44.53706905567274" lon="8.006302474055628"><ele>562.6666666666666</ele><time>2026-04-12T06:08:57Z</time></trkpt><trkpt lat="44.53707578591978" lon="8.006473923989699"><ele>563.0</ele><time>2026-04-12T06:08:59Z</time></trkpt><trkpt lat="44.53708744548861" lon="8.006653914301355"><ele>563.8333333333333</ele><time>2026-04-12T06:09:01Z</time></trkpt><trkpt lat="44.53708718505539" lon="8.006742944593553"><ele>564.6666666666666</ele><time>2026-04-12T06:09:02Z</time></trkpt><trkpt lat="44.53707756106566" lon="8.006834095823015"><ele>565.5</ele><time>2026-04-12T06:09:03Z</time></trkpt><trkpt lat="44.53708231286733" lon="8.00692447323121"><ele>566.3333333333334</ele><time>2026-04-12T06:09:04Z</time></trkpt><trkpt lat="44.5370902182221" lon="8.00710080322346"><ele>567.1666666666667</ele><time>2026-04-12T06:09:06Z</time></trkpt><trkpt lat="44.53708887975094" lon="8.007277391393433"><ele>568.0</ele><time>2026-04-12T06:09:08Z</time></trkpt><trkpt lat="44.53708422192779" lon="8.00737083140989"><ele>568.0</ele><time>2026-04-12T06:09:09Z</time></trkpt><trkpt lat="44.53707954353775" lon="8.007465258039398"><ele>568.0</ele><time>2026-04-12T06:09:10Z</time></trkpt><trkpt lat="44.53707986113119" lon="8.007558935713174"><ele>568.0</ele><time>2026-04-12T06:09:11Z</time></trkpt><trkpt lat="44.53708446384679" lon="8.007650198693677"><ele>568.0</ele><time>2026-04-12T06:09:11.999Z</time></trkpt><trkpt lat="44.537110520657855" lon="8.007737831961782"><ele>568.0</ele><time>2026-04-12T06:09:12.999Z</time></trkpt><trkpt lat="44.53710731400078" lon="8.00783450267728"><ele>568.0</ele><time>2026-04-12T06:09:13.999Z</time></trkpt><trkpt lat="44.53711959365801" lon="8.00792707614495"><ele>568.0</ele><time>2026-04-12T06:09:14.999Z</time></trkpt><trkpt lat="44.537129860310685" lon="8.008021088586283"><ele>568.1666666666667</ele><time>2026-04-12T06:09:15.999Z</time></trkpt><trkpt lat="44.53713405415714" lon="8.00811824871698"><ele>568.3333333333334</ele><time>2026-04-12T06:09:16.999Z</time></trkpt><trkpt lat="44.537132752380764" lon="8.008214693005398"><ele>568.5</ele><time>2026-04-12T06:09:17.999Z</time></trkpt><trkpt lat="44.53713900751615" lon="8.008323205071575"><ele>568.6666666666666</ele><time>2026-04-12T06:09:18.999Z</time></trkpt><trkpt lat="44.537131695876226" lon="8.008432106539574"><ele>568.8333333333333</ele><time>2026-04-12T06:09:19.999Z</time></trkpt><trkpt lat="44.537103969789236" lon="8.008536631161503"><ele>569.0</ele><time>2026-04-12T06:09:20.999Z</time></trkpt><trkpt lat="44.537087865103786" lon="8.008645245350575"><ele>569.0</ele><time>2026-04-12T06:09:21.999Z</time></trkpt><trkpt lat="44.53707055461133" lon="8.008745324875216"><ele>569.0</ele><time>2026-04-12T06:09:22.999Z</time></trkpt><trkpt lat="44.53705402539161" lon="8.008850775250872"><ele>569.0</ele><time>2026-04-12T06:09:23.999Z</time></trkpt><trkpt lat="44.53704174259099" lon="8.008956497279465"><ele>569.0</ele><time>2026-04-12T06:09:24.999Z</time></trkpt><trkpt lat="44.53705244090785" lon="8.00906202587297"><ele>569.0</ele><time>2026-04-12T06:09:25.999Z</time></trkpt><trkpt lat="44.53704657961319" lon="8.009159750947125"><ele>569.0</ele><time>2026-04-12T06:09:26.999Z</time></trkpt><trkpt lat="44.537044690934934" lon="8.009269998020057"><ele>569.3333333333333</ele><time>2026-04-12T06:09:27.999Z</time></trkpt><trkpt lat="44.537037049324866" lon="8.009383047995446"><ele>569.6666666666666</ele><time>2026-04-12T06:09:28.999Z</time></trkpt><trkpt lat="44.53703570067273" lon="8.009499190357941"><ele>570.0</ele><time>2026-04-12T06:09:29.999Z</time></trkpt><trkpt lat="44.537034689452874" lon="8.009617421776925"><ele>570.3333333333334</ele><time>2026-04-12T06:09:30.999Z</time></trkpt><trkpt lat="44.53704142167287" lon="8.009733771961379"><ele>570.6666666666667</ele><time>2026-04-12T06:09:31.999Z</time></trkpt><trkpt lat="44.53704854121457" lon="8.009850631925673"><ele>571.0</ele><time>2026-04-12T06:09:32.999Z</time></trkpt><trkpt lat="44.53707059137948" lon="8.00996320108147"><ele>570.3333333333334</ele><time>2026-04-12T06:09:33.999Z</time></trkpt><trkpt lat="44.53708111499324" lon="8.010076103430153"><ele>569.6666666666667</ele><time>2026-04-12T06:09:34.999Z</time></trkpt><trkpt lat="44.53707211086129" lon="8.010181670991495"><ele>569.0</ele><time>2026-04-12T06:09:35.999Z</time></trkpt><trkpt lat="44.53707801013848" lon="8.01028685226538"><ele>568.3333333333334</ele><time>2026-04-12T06:09:36.999Z</time></trkpt><trkpt lat="44.53708044920906" lon="8.010391941805599"><ele>567.6666666666666</ele><time>2026-04-12T06:09:37.999Z</time></trkpt><trkpt lat="44.537083056389044" lon="8.010494325896394"><ele>567.0</ele><time>2026-04-12T06:09:38.999Z</time></trkpt><trkpt lat="44.537080430444604" lon="8.010600056059292"><ele>567.0</ele><time>2026-04-12T06:09:39.999Z</time></trkpt><trkpt lat="44.537069436944385" lon="8.010701655020917"><ele>567.0</ele><time>2026-04-12T06:09:40.999Z</time></trkpt><trkpt lat="44.53705752620011" lon="8.010804229880904"><ele>567.0</ele><time>2026-04-12T06:09:41.999Z</time></trkpt><trkpt lat="44.53702893281411" lon="8.010962251282049"><ele>567.0</ele><time>2026-04-12T06:09:43.999Z</time></trkpt><trkpt lat="44.53698882426858" lon="8.011106524656464"><ele>567.0</ele><time>2026-04-12T06:09:45.999Z</time></trkpt><trkpt lat="44.53693336166794" lon="8.011222672698011"><ele>560.8333333333334</ele><time>2026-04-12T06:09:47.999Z</time></trkpt><trkpt lat="44.536867372757456" lon="8.011342037316135"><ele>554.6666666666666</ele><time>2026-04-12T06:09:49.999Z</time></trkpt><trkpt lat="44.53681603645035" lon="8.011401793943685"><ele>548.5</ele><time>2026-04-12T06:09:50.999Z</time></trkpt><trkpt lat="44.53674590875558" lon="8.011409009600122"><ele>542.3333333333333</ele><time>2026-04-12T06:09:51.999Z</time></trkpt><trkpt lat="44.53663648409518" lon="8.01142915515013"><ele>536.1666666666666</ele><time>2026-04-12T06:09:53.999Z</time></trkpt><trkpt lat="44.536549554854844" lon="8.011441455398733"><ele>530.0</ele><time>2026-04-12T06:09:55.999Z</time></trkpt><trkpt lat="44.53653431847439" lon="8.011550439029635"><ele>529.1666666666666</ele><time>2026-04-12T06:09:56.999Z</time></trkpt><trkpt lat="44.53653816967662" lon="8.011719340131357"><ele>528.3333333333333</ele><time>2026-04-12T06:10:03.999Z</time></trkpt><trkpt lat="44.536586360988046" lon="8.011819113564716"><ele>527.5</ele><time>2026-04-12T06:10:06.999Z</time></trkpt><trkpt lat="44.53662865873262" lon="8.01190379946066"><ele>526.6666666666666</ele><time>2026-04-12T06:10:08.999Z</time></trkpt><trkpt lat="44.53668020367108" lon="8.011991095259058"><ele>525.8333333333334</ele><time>2026-04-12T06:10:10.999Z</time></trkpt><trkpt lat="44.53672520304585" lon="8.012097804229237"><ele>525.0</ele><time>2026-04-12T06:10:12.999Z</time></trkpt><trkpt lat="44.536773542973165" lon="8.012198769913665"><ele>525.0</ele><time>2026-04-12T06:10:14.999Z</time></trkpt><trkpt lat="44.53682435501332" lon="8.012305263557383"><ele>525.0</ele><time>2026-04-12T06:10:16.999Z</time></trkpt><trkpt lat="44.53687485116915" lon="8.012412526635257"><ele>525.0</ele><time>2026-04-12T06:10:18.999Z</time></trkpt><trkpt lat="44.53693433058165" lon="8.012521764660143"><ele>525.0</ele><time>2026-04-12T06:10:20.999Z</time></trkpt><trkpt lat="44.53698080708368" lon="8.012640540052749"><ele>525.0</ele><time>2026-04-12T06:10:22.999Z</time></trkpt><trkpt lat="44.5370288678492" lon="8.012754527095751"><ele>524.2</ele><time>2026-04-12T06:10:24.999Z</time></trkpt><trkpt lat="44.53706329422439" lon="8.012882372963576"><ele>523.4</ele><time>2026-04-12T06:10:27Z</time></trkpt><trkpt lat="44.53708351273919" lon="8.013023768778856"><ele>522.6</ele><time>2026-04-12T06:10:29Z</time></trkpt><trkpt lat="44.53707456453136" lon="8.013178282488147"><ele>521.8</ele><time>2026-04-12T06:10:31Z</time></trkpt><trkpt lat="44.537045139334985" lon="8.01331477263413"><ele>521.0</ele><time>2026-04-12T06:10:33Z</time></trkpt><trkpt lat="44.53701391737456" lon="8.013454042183247"><ele>520.2</ele><time>2026-04-12T06:10:35Z</time></trkpt><trkpt lat="44.53697817200555" lon="8.013594068470558"><ele>519.4000000000001</ele><time>2026-04-12T06:10:37Z</time></trkpt><trkpt lat="44.53693186097517" lon="8.013730406526545"><ele>518.6</ele><time>2026-04-12T06:10:39Z</time></trkpt><trkpt lat="44.53689087762307" lon="8.013868451361494"><ele>517.8000000000001</ele><time>2026-04-12T06:10:41Z</time></trkpt><trkpt lat="44.53685216174769" lon="8.014008235167994"><ele>517.0</ele><time>2026-04-12T06:10:43Z</time></trkpt><trkpt lat="44.53680460282131" lon="8.014137392928099"><ele>517.2</ele><time>2026-04-12T06:10:45Z</time></trkpt><trkpt lat="44.5367446517625" lon="8.014270783570977"><ele>517.4000000000001</ele><time>2026-04-12T06:10:47Z</time></trkpt><trkpt lat="44.53663837438526" lon="8.014349878442923"><ele>517.5999999999999</ele><time>2026-04-12T06:10:49Z</time></trkpt><trkpt lat="44.53657575908518" lon="8.014369735460123"><ele>517.8</ele><time>2026-04-12T06:10:50Z</time></trkpt><trkpt lat="44.536450215089864" lon="8.014365057222983"><ele>518.0</ele><time>2026-04-12T06:10:52Z</time></trkpt><trkpt lat="44.536387557482826" lon="8.014343065539771"><ele>518.0</ele><time>2026-04-12T06:10:53Z</time></trkpt><trkpt lat="44.536325717553765" lon="8.01432062529892"><ele>518.0</ele><time>2026-04-12T06:10:54Z</time></trkpt><trkpt lat="44.53620999076615" lon="8.014279993355798"><ele>518.0</ele><time>2026-04-12T06:10:56Z</time></trkpt><trkpt lat="44.5361061274674" lon="8.014239788800012"><ele>518.0</ele><time>2026-04-12T06:10:58Z</time></trkpt><trkpt lat="44.53601841115157" lon="8.014183251439231"><ele>518.0</ele><time>2026-04-12T06:11:00Z</time></trkpt><trkpt lat="44.53594025237099" lon="8.01411280957313"><ele>517.1666666666666</ele><time>2026-04-12T06:11:02Z</time></trkpt><trkpt lat="44.535880776022935" lon="8.014018482131776"><ele>516.3333333333333</ele><time>2026-04-12T06:11:04Z</time></trkpt><trkpt lat="44.535831715887944" lon="8.013911291062271"><ele>515.5</ele><time>2026-04-12T06:11:06Z</time></trkpt><trkpt lat="44.535782729177" lon="8.013806695964561"><ele>514.6666666666666</ele><time>2026-04-12T06:11:08Z</time></trkpt><trkpt lat="44.53572573630099" lon="8.013711621605232"><ele>513.8333333333334</ele><time>2026-04-12T06:11:10Z</time></trkpt><trkpt lat="44.53566722055552" lon="8.013629924501409"><ele>513.0</ele><time>2026-04-12T06:11:12Z</time></trkpt><trkpt lat="44.535600016453834" lon="8.013565608675435"><ele>513.0000000000001</ele><time>2026-04-12T06:11:14Z</time></trkpt><trkpt lat="44.53552620603497" lon="8.013518987309583"><ele>513.0</ele><time>2026-04-12T06:11:16Z</time></trkpt><trkpt lat="44.535453778419516" lon="8.01347719609115"><ele>513.0</ele><time>2026-04-12T06:11:17.999Z</time></trkpt><trkpt lat="44.53538349616385" lon="8.013448858078348"><ele>513.0</ele><time>2026-04-12T06:11:19.999Z</time></trkpt><trkpt lat="44.535315680256545" lon="8.013402996945944"><ele>513.0</ele><time>2026-04-12T06:11:21.999Z</time></trkpt><trkpt lat="44.53525157755856" lon="8.013369121042029"><ele>513.0000000000001</ele><time>2026-04-12T06:11:23.999Z</time></trkpt><trkpt lat="44.53518772503642" lon="8.013333221696712"><ele>513.0</ele><time>2026-04-12T06:11:25.999Z</time></trkpt><trkpt lat="44.535122216226874" lon="8.013306741705035"><ele>512.7142857142858</ele><time>2026-04-12T06:11:27.999Z</time></trkpt><trkpt lat="44.53505533603183" lon="8.013286449014847"><ele>512.4285714285714</ele><time>2026-04-12T06:11:29.999Z</time></trkpt><trkpt lat="44.53499381760056" lon="8.013251821146307"><ele>512.1428571428571</ele><time>2026-04-12T06:11:31.999Z</time></trkpt><trkpt lat="44.534928417188134" lon="8.013247549119798"><ele>511.8571428571429</ele><time>2026-04-12T06:11:33.999Z</time></trkpt><trkpt lat="44.53486791409964" lon="8.013221647068132"><ele>511.57142857142856</ele><time>2026-04-12T06:11:35.999Z</time></trkpt><trkpt lat="44.53478639257835" lon="8.01319059672474"><ele>511.2857142857143</ele><time>2026-04-12T06:11:38.999Z</time></trkpt><trkpt lat="44.53470263238928" lon="8.013161585153988"><ele>511.0</ele><time>2026-04-12T06:11:41.999Z</time></trkpt><trkpt lat="44.53461416578006" lon="8.01315645487535"><ele>512.8333333333334</ele><time>2026-04-12T06:11:44.999Z</time></trkpt><trkpt lat="44.5345183728727" lon="8.013141667779156"><ele>514.6666666666667</ele><time>2026-04-12T06:11:47.999Z</time></trkpt><trkpt lat="44.53445439894564" lon="8.013141583120163"><ele>516.5</ele><time>2026-04-12T06:11:49.999Z</time></trkpt><trkpt lat="44.534391527586905" lon="8.013121877537367"><ele>518.3333333333334</ele><time>2026-04-12T06:11:51.999Z</time></trkpt><trkpt lat="44.53430365990951" lon="8.01311046109103"><ele>520.1666666666666</ele><time>2026-04-12T06:11:54.999Z</time></trkpt><trkpt lat="44.53421984849463" lon="8.013105224776588"><ele>522.0</ele><time>2026-04-12T06:11:57.999Z</time></trkpt><trkpt lat="44.53413477306777" lon="8.013083692164326"><ele>522.0</ele><time>2026-04-12T06:12:00.999Z</time></trkpt><trkpt lat="44.53404674868624" lon="8.013073988232115"><ele>522.0</ele><time>2026-04-12T06:12:03.999Z</time></trkpt><trkpt lat="44.53396538434018" lon="8.013068751195469"><ele>522.0</ele><time>2026-04-12T06:12:06.999Z</time></trkpt><trkpt lat="44.53389141991496" lon="8.013053162045425"><ele>522.0</ele><time>2026-04-12T06:12:09.999Z</time></trkpt><trkpt lat="44.5338133030944" lon="8.013044979866349"><ele>522.0</ele><time>2026-04-12T06:12:12.999Z</time></trkpt><trkpt lat="44.53374654576395" lon="8.013055633555872"><ele>522.0</ele><time>2026-04-12T06:12:15.999Z</time></trkpt><trkpt lat="44.53367253930997" lon="8.013038103437143"><ele>522.6666666666666</ele><time>2026-04-12T06:12:19.999Z</time></trkpt><trkpt lat="44.53360871247454" lon="8.013066323121945"><ele>523.3333333333334</ele><time>2026-04-12T06:14:10.999Z</time></trkpt><trkpt lat="44.53353756175519" lon="8.013060609747338"><ele>524.0</ele><time>2026-04-12T06:14:14.999Z</time></trkpt><trkpt lat="44.53347086625311" lon="8.013037001889805"><ele>524.6666666666667</ele><time>2026-04-12T06:14:17.999Z</time></trkpt><trkpt lat="44.53338943075632" lon="8.01301906627609"><ele>525.3333333333334</ele><time>2026-04-12T06:14:20.999Z</time></trkpt><trkpt lat="44.533300383565226" lon="8.01298880671041"><ele>526.0</ele><time>2026-04-12T06:14:23.999Z</time></trkpt><trkpt lat="44.53321008089287" lon="8.01297056828392"><ele>526.0</ele><time>2026-04-12T06:14:26.999Z</time></trkpt><trkpt lat="44.53312630957014" lon="8.012934929140028"><ele>526.0</ele><time>2026-04-12T06:14:29.999Z</time></trkpt><trkpt lat="44.53304123127672" lon="8.012921285768295"><ele>526.0</ele><time>2026-04-12T06:14:32.999Z</time></trkpt><trkpt lat="44.53295638851289" lon="8.012909811840766"><ele>526.0</ele><time>2026-04-12T06:14:35.999Z</time></trkpt><trkpt lat="44.532875814537135" lon="8.01288708292824"><ele>526.0</ele><time>2026-04-12T06:14:39Z</time></trkpt><trkpt lat="44.53280210142981" lon="8.0128782741147"><ele>526.0</ele><time>2026-04-12T06:14:42Z</time></trkpt><trkpt lat="44.53271881709642" lon="8.012865411051294"><ele>527.6666666666667</ele><time>2026-04-12T06:14:45Z</time></trkpt><trkpt lat="44.53262893120204" lon="8.012872846248179"><ele>529.3333333333334</ele><time>2026-04-12T06:14:48Z</time></trkpt><trkpt lat="44.532564981220055" lon="8.01287585554542"><ele>531.0</ele><time>2026-04-12T06:14:50Z</time></trkpt><trkpt lat="44.53249970082754" lon="8.01287837328167"><ele>532.6666666666666</ele><time>2026-04-12T06:14:52Z</time></trkpt><trkpt lat="44.532436772326825" lon="8.01288737155814"><ele>534.3333333333333</ele><time>2026-04-12T06:14:54Z</time></trkpt><trkpt lat="44.53234643086377" lon="8.012866620675924"><ele>536.0</ele><time>2026-04-12T06:14:57Z</time></trkpt><trkpt lat="44.532265009067146" lon="8.012831162065403"><ele>536.0</ele><time>2026-04-12T06:15:00Z</time></trkpt><trkpt lat="44.532192667028106" lon="8.012783888464606"><ele>536.0</ele><time>2026-04-12T06:15:03Z</time></trkpt><trkpt lat="44.53211970937366" lon="8.012732266467694"><ele>536.0</ele><time>2026-04-12T06:15:06Z</time></trkpt><trkpt lat="44.53205921294597" lon="8.012688304134452"><ele>536.0</ele><time>2026-04-12T06:15:09Z</time></trkpt><trkpt lat="44.53199345476596" lon="8.012627337202956"><ele>536.0</ele><time>2026-04-12T06:15:12Z</time></trkpt><trkpt lat="44.531926875546866" lon="8.012575635304904"><ele>536.0</ele><time>2026-04-12T06:15:15Z</time></trkpt><trkpt lat="44.53186546596527" lon="8.012514652559714"><ele>537.1428571428571</ele><time>2026-04-12T06:15:18Z</time></trkpt><trkpt lat="44.53181029336478" lon="8.012439627492093"><ele>538.2857142857142</ele><time>2026-04-12T06:15:21Z</time></trkpt><trkpt lat="44.53176393565236" lon="8.012354277853527"><ele>539.4285714285713</ele><time>2026-04-12T06:15:24Z</time></trkpt><trkpt lat="44.531725042820796" lon="8.012267680204296"><ele>540.5714285714286</ele><time>2026-04-12T06:15:27Z</time></trkpt><trkpt lat="44.53170277931397" lon="8.01217112157793"><ele>541.7142857142857</ele><time>2026-04-12T06:15:29.999Z</time></trkpt><trkpt lat="44.53167813944836" lon="8.012078214164033"><ele>542.8571428571428</ele><time>2026-04-12T06:15:32.999Z</time></trkpt><trkpt lat="44.53165027628707" lon="8.011988278041326"><ele>544.0</ele><time>2026-04-12T06:15:35.999Z</time></trkpt><trkpt lat="44.531638840330174" lon="8.011900578726022"><ele>543.9999999999999</ele><time>2026-04-12T06:15:38.999Z</time></trkpt><trkpt lat="44.53161493394747" lon="8.011812916592197"><ele>544.0</ele><time>2026-04-12T06:15:41.999Z</time></trkpt><trkpt lat="44.531597059622726" lon="8.011696127326934"><ele>544.0</ele><time>2026-04-12T06:15:45.999Z</time></trkpt><trkpt lat="44.53157828407527" lon="8.01160748162211"><ele>544.0</ele><time>2026-04-12T06:15:48.999Z</time></trkpt><trkpt lat="44.53155391584569" lon="8.011514233497916"><ele>544.0</ele><time>2026-04-12T06:15:51.999Z</time></trkpt><trkpt lat="44.53151823394812" lon="8.011419324525606"><ele>543.9999999999999</ele><time>2026-04-12T06:15:54.999Z</time></trkpt><trkpt lat="44.53148520471769" lon="8.011312747867004"><ele>544.0</ele><time>2026-04-12T06:15:57.999Z</time></trkpt><trkpt lat="44.5314518894352" lon="8.011192919293144"><ele>543.5714285714286</ele><time>2026-04-12T06:16:00.999Z</time></trkpt><trkpt lat="44.53142359253222" lon="8.01110849041555"><ele>543.1428571428571</ele><time>2026-04-12T06:16:02.999Z</time></trkpt><trkpt lat="44.53139942045855" lon="8.011008366260553"><ele>542.7142857142858</ele><time>2026-04-12T06:16:04.999Z</time></trkpt><trkpt lat="44.53136017044729" lon="8.010911841180576"><ele>542.2857142857142</ele><time>2026-04-12T06:16:06.999Z</time></trkpt><trkpt lat="44.53133892137605" lon="8.010814694590625"><ele>541.8571428571429</ele><time>2026-04-12T06:16:08.999Z</time></trkpt><trkpt lat="44.531325497233524" lon="8.010716193321176"><ele>541.4285714285714</ele><time>2026-04-12T06:16:10.999Z</time></trkpt><trkpt lat="44.531309233239526" lon="8.010600612103541"><ele>541.0</ele><time>2026-04-12T06:16:12.999Z</time></trkpt><trkpt lat="44.53128947384958" lon="8.010478541593605"><ele>540.0</ele><time>2026-04-12T06:16:14.999Z</time></trkpt><trkpt lat="44.53127502049551" lon="8.010348851142446"><ele>539.0</ele><time>2026-04-12T06:16:16.999Z</time></trkpt><trkpt lat="44.53126635954581" lon="8.010213555236787"><ele>538.0</ele><time>2026-04-12T06:16:18.999Z</time></trkpt><trkpt lat="44.53124750063644" lon="8.010078859752547"><ele>537.0</ele><time>2026-04-12T06:16:20.999Z</time></trkpt><trkpt lat="44.53122657651824" lon="8.00993751135537"><ele>536.0</ele><time>2026-04-12T06:16:22.999Z</time></trkpt><trkpt lat="44.531196419011785" lon="8.009800492210656"><ele>538.0</ele><time>2026-04-12T06:16:24.999Z</time></trkpt><trkpt lat="44.53116112955666" lon="8.009661736766356"><ele>540.0</ele><time>2026-04-12T06:16:26.999Z</time></trkpt><trkpt lat="44.531108431840494" lon="8.009521307068654"><ele>542.0</ele><time>2026-04-12T06:16:28.999Z</time></trkpt><trkpt lat="44.531044404936736" lon="8.009376734729743"><ele>544.0</ele><time>2026-04-12T06:16:30.999Z</time></trkpt><trkpt lat="44.53100684797916" lon="8.009304926343182"><ele>546.0</ele><time>2026-04-12T06:16:31.999Z</time></trkpt><trkpt lat="44.53098509132753" lon="8.009216453157006"><ele>545.2857142857143</ele><time>2026-04-12T06:16:32.999Z</time></trkpt><trkpt lat="44.53095086498754" lon="8.009140534902633"><ele>544.5714285714286</ele><time>2026-04-12T06:16:33.999Z</time></trkpt><trkpt lat="44.53091661258995" lon="8.00906339353512"><ele>543.8571428571429</ele><time>2026-04-12T06:16:34.999Z</time></trkpt><trkpt lat="44.53087100226136" lon="8.008993347107104"><ele>543.1428571428571</ele><time>2026-04-12T06:16:35.999Z</time></trkpt><trkpt lat="44.53084655804803" lon="8.008901850652983"><ele>542.4285714285714</ele><time>2026-04-12T06:16:36.999Z</time></trkpt><trkpt lat="44.530827579353875" lon="8.008804077567815"><ele>541.7142857142858</ele><time>2026-04-12T06:16:37.999Z</time></trkpt><trkpt lat="44.5308121472056" lon="8.00870455908877"><ele>541.0</ele><time>2026-04-12T06:16:38.999Z</time></trkpt><trkpt lat="44.53079623423758" lon="8.008600165042894"><ele>541.0</ele><time>2026-04-12T06:16:39.999Z</time></trkpt><trkpt lat="44.530775880589424" lon="8.008497807479248"><ele>541.0</ele><time>2026-04-12T06:16:40.999Z</time></trkpt><trkpt lat="44.530756101331896" lon="8.008396373660398"><ele>541.0</ele><time>2026-04-12T06:16:41.999Z</time></trkpt><trkpt lat="44.53073212323361" lon="8.00829572539365"><ele>541.0</ele><time>2026-04-12T06:16:42.999Z</time></trkpt><trkpt lat="44.53071204584121" lon="8.008194185376297"><ele>541.0</ele><time>2026-04-12T06:16:43.999Z</time></trkpt><trkpt lat="44.53069252464884" lon="8.008094070162885"><ele>541.0</ele><time>2026-04-12T06:16:45Z</time></trkpt><trkpt lat="44.53066231282861" lon="8.007998767651523"><ele>540.1666666666667</ele><time>2026-04-12T06:16:46Z</time></trkpt><trkpt lat="44.5306279129043" lon="8.0079054332844"><ele>539.3333333333334</ele><time>2026-04-12T06:16:47Z</time></trkpt><trkpt lat="44.53059572291986" lon="8.007816791783663"><ele>538.5</ele><time>2026-04-12T06:16:48Z</time></trkpt><trkpt lat="44.530554177844884" lon="8.007739983722887"><ele>537.6666666666666</ele><time>2026-04-12T06:16:49Z</time></trkpt><trkpt lat="44.53052102935183" lon="8.007660008002851"><ele>536.8333333333333</ele><time>2026-04-12T06:16:50Z</time></trkpt><trkpt lat="44.53044778416218" lon="8.007512210325826"><ele>536.0</ele><time>2026-04-12T06:16:52Z</time></trkpt><trkpt lat="44.53037462939042" lon="8.007367983634573"><ele>536.0</ele><time>2026-04-12T06:16:54Z</time></trkpt><trkpt lat="44.530333670859214" lon="8.00729563554022"><ele>536.0</ele><time>2026-04-12T06:16:55Z</time></trkpt><trkpt lat="44.53028861748121" lon="8.007221615879647"><ele>536.0</ele><time>2026-04-12T06:16:56Z</time></trkpt><trkpt lat="44.530242967935436" lon="8.007143444827365"><ele>536.0</ele><time>2026-04-12T06:16:57Z</time></trkpt><trkpt lat="44.53019494844572" lon="8.007069668596742"><ele>536.0</ele><time>2026-04-12T06:16:58Z</time></trkpt><trkpt lat="44.530143819702126" lon="8.006993782433952"><ele>536.0</ele><time>2026-04-12T06:16:59Z</time></trkpt><trkpt lat="44.53009350122961" lon="8.006917705886519"><ele>536.0</ele><time>2026-04-12T06:17:00Z</time></trkpt><trkpt lat="44.53005273270861" lon="8.006820865149876"><ele>536.0</ele><time>2026-04-12T06:17:01Z</time></trkpt><trkpt lat="44.529987275656566" lon="8.006751378545973"><ele>536.0</ele><time>2026-04-12T06:17:02Z</time></trkpt><trkpt lat="44.52993042653803" lon="8.00666714450611"><ele>536.0</ele><time>2026-04-12T06:17:03Z</time></trkpt><trkpt lat="44.52986568287625" lon="8.006592433502526"><ele>536.0</ele><time>2026-04-12T06:17:04Z</time></trkpt><trkpt lat="44.52979280329229" lon="8.00653232320271"><ele>536.0</ele><time>2026-04-12T06:17:05Z</time></trkpt><trkpt lat="44.52971681942291" lon="8.006483602048283"><ele>536.0</ele><time>2026-04-12T06:17:06Z</time></trkpt><trkpt lat="44.52963633080021" lon="8.00645116103008"><ele>535.6666666666666</ele><time>2026-04-12T06:17:07Z</time></trkpt><trkpt lat="44.52955633563508" lon="8.006434470888793"><ele>535.3333333333333</ele><time>2026-04-12T06:17:08Z</time></trkpt><trkpt lat="44.529476798921614" lon="8.006438095261379"><ele>535.0</ele><time>2026-04-12T06:17:09Z</time></trkpt><trkpt lat="44.52940304357948" lon="8.006456894298875"><ele>534.6666666666666</ele><time>2026-04-12T06:17:10Z</time></trkpt><trkpt lat="44.52932925004529" lon="8.006471585163057"><ele>534.3333333333334</ele><time>2026-04-12T06:17:11Z</time></trkpt><trkpt lat="44.52925830571178" lon="8.00648030528488"><ele>534.0</ele><time>2026-04-12T06:17:12Z</time></trkpt><trkpt lat="44.529190178239844" lon="8.006462887193862"><ele>534.0</ele><time>2026-04-12T06:17:13Z</time></trkpt><trkpt lat="44.52912775188672" lon="8.00641880815261"><ele>534.0</ele><time>2026-04-12T06:17:14Z</time></trkpt><trkpt lat="44.529072276882275" lon="8.006366053388232"><ele>534.0</ele><time>2026-04-12T06:17:15Z</time></trkpt><trkpt lat="44.52902406642843" lon="8.006305903234692"><ele>534.0</ele><time>2026-04-12T06:17:16Z</time></trkpt><trkpt lat="44.52897840311682" lon="8.006238528402355"><ele>534.0</ele><time>2026-04-12T06:17:17Z</time></trkpt><trkpt lat="44.52890254534531" lon="8.006108154923194"><ele>534.0</ele><time>2026-04-12T06:17:19Z</time></trkpt><trkpt lat="44.52882733311365" lon="8.005989971380586"><ele>534.0</ele><time>2026-04-12T06:17:21Z</time></trkpt><trkpt lat="44.52875743767031" lon="8.005871970638584"><ele>534.0</ele><time>2026-04-12T06:17:23Z</time></trkpt><trkpt lat="44.52868195784851" lon="8.005760350974061"><ele>534.0</ele><time>2026-04-12T06:17:25Z</time></trkpt><trkpt lat="44.52860475704551" lon="8.005663718622994"><ele>534.0</ele><time>2026-04-12T06:17:27Z</time></trkpt><trkpt lat="44.528535835431256" lon="8.005561295277122"><ele>534.0</ele><time>2026-04-12T06:17:29Z</time></trkpt><trkpt lat="44.5284670099835" lon="8.005461635575287"><ele>535.0</ele><time>2026-04-12T06:17:31Z</time></trkpt><trkpt lat="44.52839608582984" lon="8.005374383037339"><ele>536.0</ele><time>2026-04-12T06:17:33Z</time></trkpt><trkpt lat="44.52833489020176" lon="8.005289299253485"><ele>537.0</ele><time>2026-04-12T06:17:34.999Z</time></trkpt><trkpt lat="44.52828162417593" lon="8.005210367357462"><ele>538.0</ele><time>2026-04-12T06:17:36.999Z</time></trkpt><trkpt lat="44.528235114578486" lon="8.005133507179583"><ele>539.0</ele><time>2026-04-12T06:17:38.999Z</time></trkpt><trkpt lat="44.5281874783458" lon="8.00506206515336"><ele>540.0</ele><time>2026-04-12T06:17:40.999Z</time></trkpt><trkpt lat="44.52813020736384" lon="8.005021100872494"><ele>539.0</ele><time>2026-04-12T06:17:42.999Z</time></trkpt><trkpt lat="44.52806807602173" lon="8.004944451802722"><ele>538.0</ele><time>2026-04-12T06:17:45.999Z</time></trkpt><trkpt lat="44.52800112836201" lon="8.004884819805893"><ele>537.0</ele><time>2026-04-12T06:17:48.999Z</time></trkpt><trkpt lat="44.52794323131142" lon="8.004820889363762"><ele>536.0</ele><time>2026-04-12T06:17:51.999Z</time></trkpt><trkpt lat="44.527875215183585" lon="8.004773543512757"><ele>535.0</ele><time>2026-04-12T06:17:54.999Z</time></trkpt><trkpt lat="44.52782415571583" lon="8.004705667181765"><ele>534.0</ele><time>2026-04-12T06:17:57.999Z</time></trkpt><trkpt lat="44.52776648717267" lon="8.004650408251852"><ele>536.1428571428572</ele><time>2026-04-12T06:18:00.999Z</time></trkpt><trkpt lat="44.52770886024758" lon="8.004593337652885"><ele>538.2857142857143</ele><time>2026-04-12T06:18:03.999Z</time></trkpt><trkpt lat="44.52764820356186" lon="8.004528778850501"><ele>540.4285714285714</ele><time>2026-04-12T06:18:06.999Z</time></trkpt><trkpt lat="44.52759455918236" lon="8.004464174749597"><ele>542.5714285714287</ele><time>2026-04-12T06:18:09.999Z</time></trkpt><trkpt lat="44.52754377243095" lon="8.004397707373554"><ele>544.7142857142858</ele><time>2026-04-12T06:18:12.999Z</time></trkpt><trkpt lat="44.52748384360155" lon="8.00434273181511"><ele>546.8571428571429</ele><time>2026-04-12T06:18:15.999Z</time></trkpt><trkpt lat="44.527427609553015" lon="8.00428140205808"><ele>549.0</ele><time>2026-04-12T06:18:18.999Z</time></trkpt><trkpt lat="44.52737015644833" lon="8.004223670853655"><ele>549.7142857142857</ele><time>2026-04-12T06:18:21.999Z</time></trkpt><trkpt lat="44.527318903039884" lon="8.004145412404132"><ele>550.4285714285714</ele><time>2026-04-12T06:18:24.999Z</time></trkpt><trkpt lat="44.52725736183947" lon="8.004093424152154"><ele>551.1428571428571</ele><time>2026-04-12T06:18:27.999Z</time></trkpt><trkpt lat="44.52720343166391" lon="8.004015377613056"><ele>551.8571428571429</ele><time>2026-04-12T06:18:30.999Z</time></trkpt><trkpt lat="44.527146688477444" lon="8.00395604252518"><ele>552.5714285714286</ele><time>2026-04-12T06:18:33.999Z</time></trkpt><trkpt lat="44.52709686362833" lon="8.003887955556795"><ele>553.2857142857142</ele><time>2026-04-12T06:18:36.999Z</time></trkpt><trkpt lat="44.527040885277145" lon="8.003826900000993"><ele>554.0</ele><time>2026-04-12T06:18:39.999Z</time></trkpt><trkpt lat="44.52699381847126" lon="8.003764080537028"><ele>554.0</ele><time>2026-04-12T06:18:42.999Z</time></trkpt><trkpt lat="44.52693138531845" lon="8.003711732969556"><ele>554.0</ele><time>2026-04-12T06:18:45.999Z</time></trkpt><trkpt lat="44.526863145404974" lon="8.003666579759658"><ele>554.0</ele><time>2026-04-12T06:18:48.999Z</time></trkpt><trkpt lat="44.52679711024388" lon="8.003617411728207"><ele>554.0</ele><time>2026-04-12T06:18:52Z</time></trkpt><trkpt lat="44.52672709273384" lon="8.00356598769413"><ele>554.0</ele><time>2026-04-12T06:18:55Z</time></trkpt><trkpt lat="44.52665336977176" lon="8.003508141290629"><ele>554.0</ele><time>2026-04-12T06:18:58Z</time></trkpt><trkpt lat="44.52657007117761" lon="8.00347463312505"><ele>554.0</ele><time>2026-04-12T06:19:01Z</time></trkpt><trkpt lat="44.526490972202375" lon="8.003427621192628"><ele>554.0</ele><time>2026-04-12T06:19:04Z</time></trkpt><trkpt lat="44.526429759617805" lon="8.003390523220304"><ele>554.0</ele><time>2026-04-12T06:19:06Z</time></trkpt><trkpt lat="44.52636696997385" lon="8.00336513383086"><ele>554.0</ele><time>2026-04-12T06:19:08Z</time></trkpt><trkpt lat="44.52630368661977" lon="8.003330359054038"><ele>554.0</ele><time>2026-04-12T06:19:10Z</time></trkpt><trkpt lat="44.52624488634074" lon="8.003284064821827"><ele>554.0</ele><time>2026-04-12T06:19:12Z</time></trkpt><trkpt lat="44.52618169784643" lon="8.003255481635334"><ele>554.0</ele><time>2026-04-12T06:19:14Z</time></trkpt><trkpt lat="44.526110281978454" lon="8.003228026177677"><ele>554.0</ele><time>2026-04-12T06:19:16Z</time></trkpt><trkpt lat="44.52603192952341" lon="8.003192493147468"><ele>554.0</ele><time>2026-04-12T06:19:18Z</time></trkpt><trkpt lat="44.525935720080845" lon="8.003132898764948"><ele>554.0</ele><time>2026-04-12T06:19:20Z</time></trkpt><trkpt lat="44.525837435299664" lon="8.00303650056067"><ele>554.0</ele><time>2026-04-12T06:19:22Z</time></trkpt><trkpt lat="44.52581190065365" lon="8.002953161708009"><ele>554.0</ele><time>2026-04-12T06:19:23Z</time></trkpt><trkpt lat="44.5257638547283" lon="8.00288489154812"><ele>554.0</ele><time>2026-04-12T06:19:24Z</time></trkpt><trkpt lat="44.52571832347218" lon="8.002820195972125"><ele>554.0</ele><time>2026-04-12T06:19:25Z</time></trkpt><trkpt lat="44.5256604782021" lon="8.002771985058256"><ele>554.0</ele><time>2026-04-12T06:19:26Z</time></trkpt><trkpt lat="44.52562784733194" lon="8.002694070017876"><ele>554.0</ele><time>2026-04-12T06:19:27Z</time></trkpt><trkpt lat="44.52554467429091" lon="8.002582668587642"><ele>554.0</ele><time>2026-04-12T06:19:29Z</time></trkpt><trkpt lat="44.525464284889175" lon="8.002482804527803"><ele>554.0</ele><time>2026-04-12T06:19:31Z</time></trkpt><trkpt lat="44.52537932143672" lon="8.002385469709488"><ele>553.2</ele><time>2026-04-12T06:19:33Z</time></trkpt><trkpt lat="44.5252936654433" lon="8.002291102638578"><ele>552.4</ele><time>2026-04-12T06:19:35Z</time></trkpt><trkpt lat="44.525210771147506" lon="8.002221467006597"><ele>551.6</ele><time>2026-04-12T06:19:37Z</time></trkpt><trkpt lat="44.525141769437546" lon="8.00212611217809"><ele>550.8</ele><time>2026-04-12T06:19:39Z</time></trkpt><trkpt lat="44.5250867964457" lon="8.002041813090539"><ele>550.0</ele><time>2026-04-12T06:19:40.999Z</time></trkpt><trkpt lat="44.52499052282259" lon="8.001982596280081"><ele>550.0</ele><time>2026-04-12T06:19:42.999Z</time></trkpt><trkpt lat="44.52491626810793" lon="8.0018991974131"><ele>550.0</ele><time>2026-04-12T06:19:44.999Z</time></trkpt><trkpt lat="44.524842975975815" lon="8.001817692139545"><ele>550.0</ele><time>2026-04-12T06:19:46.999Z</time></trkpt><trkpt lat="44.52475151993461" lon="8.00172822034637"><ele>550.0</ele><time>2026-04-12T06:19:48.999Z</time></trkpt><trkpt lat="44.52471038675292" lon="8.001653737223243"><ele>550.0</ele><time>2026-04-12T06:19:49.999Z</time></trkpt><trkpt lat="44.5246580523805" lon="8.001591759618284"><ele>550.0</ele><time>2026-04-12T06:19:50.999Z</time></trkpt><trkpt lat="44.52460068801061" lon="8.001520445470762"><ele>548.8</ele><time>2026-04-12T06:19:51.999Z</time></trkpt><trkpt lat="44.524541529515396" lon="8.001441377371913"><ele>547.6</ele><time>2026-04-12T06:19:52.999Z</time></trkpt><trkpt lat="44.52446925204141" lon="8.001367524931725"><ele>546.4</ele><time>2026-04-12T06:19:53.999Z</time></trkpt><trkpt lat="44.5244080903005" lon="8.001270348105477"><ele>545.2</ele><time>2026-04-12T06:19:54.999Z</time></trkpt><trkpt lat="44.52434414359766" lon="8.001169110407634"><ele>544.0</ele><time>2026-04-12T06:19:55.999Z</time></trkpt><trkpt lat="44.524278744986205" lon="8.001066861822707"><ele>544.0</ele><time>2026-04-12T06:19:56.999Z</time></trkpt><trkpt lat="44.52421421213163" lon="8.000966994851494"><ele>544.0</ele><time>2026-04-12T06:19:57.999Z</time></trkpt><trkpt lat="44.52415040902618" lon="8.000866744920595"><ele>544.0</ele><time>2026-04-12T06:19:58.999Z</time></trkpt><trkpt lat="44.52408562137671" lon="8.000768829949829"><ele>544.0</ele><time>2026-04-12T06:19:59.999Z</time></trkpt><trkpt lat="44.52402287060678" lon="8.00067519205893"><ele>544.0</ele><time>2026-04-12T06:20:00.999Z</time></trkpt><trkpt lat="44.52397008937779" lon="8.000588908518505"><ele>544.3333333333334</ele><time>2026-04-12T06:20:01.999Z</time></trkpt><trkpt lat="44.52391146511214" lon="8.000506853497587"><ele>544.6666666666667</ele><time>2026-04-12T06:20:02.999Z</time></trkpt><trkpt lat="44.523856668758214" lon="8.000418587844003"><ele>545.0</ele><time>2026-04-12T06:20:03.999Z</time></trkpt><trkpt lat="44.52381293430254" lon="8.00034136276477"><ele>545.3333333333334</ele><time>2026-04-12T06:20:04.999Z</time></trkpt><trkpt lat="44.52377575682781" lon="8.000267016349635"><ele>545.6666666666666</ele><time>2026-04-12T06:20:05.999Z</time></trkpt><trkpt lat="44.523724391797494" lon="8.000124834335903"><ele>546.0</ele><time>2026-04-12T06:20:07.999Z</time></trkpt><trkpt lat="44.52367125841144" lon="7.999993632073034"><ele>544.8333333333334</ele><time>2026-04-12T06:20:09.999Z</time></trkpt><trkpt lat="44.52363392833387" lon="7.999886627358841"><ele>543.6666666666666</ele><time>2026-04-12T06:20:11.999Z</time></trkpt><trkpt lat="44.523601373558215" lon="7.999762032361829"><ele>542.5</ele><time>2026-04-12T06:20:13.999Z</time></trkpt><trkpt lat="44.52355317718973" lon="7.999655865475803"><ele>541.3333333333333</ele><time>2026-04-12T06:20:15.999Z</time></trkpt><trkpt lat="44.52349759063224" lon="7.999562055656598"><ele>540.1666666666666</ele><time>2026-04-12T06:20:17.999Z</time></trkpt><trkpt lat="44.523452720924084" lon="7.999471070026493"><ele>539.0</ele><time>2026-04-12T06:20:19.999Z</time></trkpt><trkpt lat="44.52341713699014" lon="7.9993878818200255"><ele>539.0</ele><time>2026-04-12T06:20:21.999Z</time></trkpt><trkpt lat="44.52337426301073" lon="7.999314020907359"><ele>539.0</ele><time>2026-04-12T06:20:23.999Z</time></trkpt><trkpt lat="44.52331729638881" lon="7.999212922278606"><ele>539.0</ele><time>2026-04-12T06:20:26.999Z</time></trkpt><trkpt lat="44.523266346268386" lon="7.999109388205092"><ele>539.0</ele><time>2026-04-12T06:20:29.999Z</time></trkpt><trkpt lat="44.52321226813749" lon="7.999008414967132"><ele>539.0</ele><time>2026-04-12T06:20:32.999Z</time></trkpt><trkpt lat="44.52315606595208" lon="7.998924100863239"><ele>539.0</ele><time>2026-04-12T06:20:35.999Z</time></trkpt><trkpt lat="44.523113258894426" lon="7.99883858113024"><ele>538.6666666666666</ele><time>2026-04-12T06:20:38.999Z</time></trkpt><trkpt lat="44.52306686972264" lon="7.998773240120904"><ele>538.3333333333333</ele><time>2026-04-12T06:20:41.999Z</time></trkpt><trkpt lat="44.52303092237692" lon="7.998657654983879"><ele>538.0</ele><time>2026-04-12T06:20:43.999Z</time></trkpt><trkpt lat="44.522941081217624" lon="7.998532138363041"><ele>537.6666666666666</ele><time>2026-04-12T06:20:45.999Z</time></trkpt><trkpt lat="44.522899502755244" lon="7.9984567465851"><ele>537.3333333333334</ele><time>2026-04-12T06:20:46.999Z</time></trkpt><trkpt lat="44.52284636445301" lon="7.998377763616624"><ele>537.0</ele><time>2026-04-12T06:20:47.999Z</time></trkpt><trkpt lat="44.522793981093564" lon="7.998297010390568"><ele>539.8333333333334</ele><time>2026-04-12T06:20:48.999Z</time></trkpt><trkpt lat="44.522738944002434" lon="7.998212316661772"><ele>542.6666666666666</ele><time>2026-04-12T06:20:49.999Z</time></trkpt><trkpt lat="44.522682441246495" lon="7.998122279272032"><ele>545.5</ele><time>2026-04-12T06:20:50.999Z</time></trkpt><trkpt lat="44.52262319680516" lon="7.998028482654065"><ele>548.3333333333333</ele><time>2026-04-12T06:20:51.999Z</time></trkpt><trkpt lat="44.52256868499188" lon="7.99792808045632"><ele>551.1666666666666</ele><time>2026-04-12T06:20:52.999Z</time></trkpt><trkpt lat="44.52250886457221" lon="7.997819302224427"><ele>554.0</ele><time>2026-04-12T06:20:53.999Z</time></trkpt><trkpt lat="44.52246772301098" lon="7.99768992909136"><ele>554.0</ele><time>2026-04-12T06:20:54.999Z</time></trkpt><trkpt lat="44.52241915635984" lon="7.997564260487686"><ele>554.0</ele><time>2026-04-12T06:20:55.999Z</time></trkpt><trkpt lat="44.522363958316525" lon="7.997431999725188"><ele>554.0</ele><time>2026-04-12T06:20:57Z</time></trkpt><trkpt lat="44.522302843018494" lon="7.997298299921733"><ele>554.0</ele><time>2026-04-12T06:20:58Z</time></trkpt><trkpt lat="44.522240080865096" lon="7.997160997103412"><ele>554.0</ele><time>2026-04-12T06:20:59Z</time></trkpt><trkpt lat="44.5221811511628" lon="7.997032079397605"><ele>552.8</ele><time>2026-04-12T06:21:00Z</time></trkpt><trkpt lat="44.52211530027237" lon="7.99692374226936"><ele>551.5999999999999</ele><time>2026-04-12T06:21:01Z</time></trkpt><trkpt lat="44.52207013125989" lon="7.996784038692945"><ele>550.4</ele><time>2026-04-12T06:21:02Z</time></trkpt><trkpt lat="44.522010020618836" lon="7.996648367973415"><ele>549.1999999999999</ele><time>2026-04-12T06:21:03Z</time></trkpt><trkpt lat="44.5219490121364" lon="7.99651040478743"><ele>548.0</ele><time>2026-04-12T06:21:04Z</time></trkpt><trkpt lat="44.52188947262831" lon="7.996366689455131"><ele>547.5</ele><time>2026-04-12T06:21:05Z</time></trkpt><trkpt lat="44.521816024941025" lon="7.996233863746205"><ele>547.0</ele><time>2026-04-12T06:21:06Z</time></trkpt><trkpt lat="44.521773911937885" lon="7.996078050632956"><ele>546.5</ele><time>2026-04-12T06:21:07Z</time></trkpt><trkpt lat="44.521706989494064" lon="7.995944600219976"><ele>546.0</ele><time>2026-04-12T06:21:08Z</time></trkpt><trkpt lat="44.52165884361615" lon="7.99580312741917"><ele>544.2</ele><time>2026-04-12T06:21:09Z</time></trkpt><trkpt lat="44.52160964626532" lon="7.9956635126101325"><ele>542.4000000000001</ele><time>2026-04-12T06:21:10Z</time></trkpt><trkpt lat="44.521556516857245" lon="7.995532607354713"><ele>540.6</ele><time>2026-04-12T06:21:11Z</time></trkpt><trkpt lat="44.521499818997206" lon="7.995408395090445"><ele>538.8000000000001</ele><time>2026-04-12T06:21:12Z</time></trkpt><trkpt lat="44.52143563600909" lon="7.995298018032098"><ele>537.0</ele><time>2026-04-12T06:21:13Z</time></trkpt><trkpt lat="44.521365628871145" lon="7.9951895311073535"><ele>537.0</ele><time>2026-04-12T06:21:14Z</time></trkpt><trkpt lat="44.52130192446756" lon="7.995066660397623"><ele>537.0</ele><time>2026-04-12T06:21:15Z</time></trkpt><trkpt lat="44.52121999791233" lon="7.994981320467278"><ele>537.0</ele><time>2026-04-12T06:21:16Z</time></trkpt><trkpt lat="44.52114871454245" lon="7.994881516555733"><ele>537.0</ele><time>2026-04-12T06:21:17Z</time></trkpt><trkpt lat="44.521076794882546" lon="7.994778776572575"><ele>537.0</ele><time>2026-04-12T06:21:18Z</time></trkpt><trkpt lat="44.521014119636156" lon="7.994672327534136"><ele>536.5</ele><time>2026-04-12T06:21:19Z</time></trkpt><trkpt lat="44.52094760695077" lon="7.994579127807695"><ele>536.0</ele><time>2026-04-12T06:21:20Z</time></trkpt><trkpt lat="44.520881662730815" lon="7.994487902098079"><ele>535.5</ele><time>2026-04-12T06:21:21Z</time></trkpt><trkpt lat="44.52083525046836" lon="7.994382466540526"><ele>535.0</ele><time>2026-04-12T06:21:22Z</time></trkpt><trkpt lat="44.520766849525586" lon="7.994315526031099"><ele>534.5</ele><time>2026-04-12T06:21:23Z</time></trkpt><trkpt lat="44.52071038739522" lon="7.994238340199434"><ele>534.0</ele><time>2026-04-12T06:21:24Z</time></trkpt><trkpt lat="44.520664048893074" lon="7.994155450008594"><ele>534.0000000000001</ele><time>2026-04-12T06:21:25Z</time></trkpt><trkpt lat="44.52060709968088" lon="7.99409149123669"><ele>534.0</ele><time>2026-04-12T06:21:26Z</time></trkpt><trkpt lat="44.520548525178796" lon="7.994036507393203"><ele>534.0</ele><time>2026-04-12T06:21:27Z</time></trkpt><trkpt lat="44.5204889108128" lon="7.993986496683872"><ele>534.0</ele><time>2026-04-12T06:21:28Z</time></trkpt><trkpt lat="44.52043169929751" lon="7.993938067607111"><ele>534.0</ele><time>2026-04-12T06:21:29Z</time></trkpt><trkpt lat="44.52037423937567" lon="7.993888339937975"><ele>534.0000000000001</ele><time>2026-04-12T06:21:30Z</time></trkpt><trkpt lat="44.52031831254774" lon="7.993839938965805"><ele>534.0</ele><time>2026-04-12T06:21:31Z</time></trkpt><trkpt lat="44.52020983264635" lon="7.993744951577873"><ele>536.2</ele><time>2026-04-12T06:21:33Z</time></trkpt><trkpt lat="44.52010598745978" lon="7.993652101698314"><ele>538.4</ele><time>2026-04-12T06:21:35Z</time></trkpt><trkpt lat="44.52001101327662" lon="7.993566775686403"><ele>540.6</ele><time>2026-04-12T06:21:37Z</time></trkpt><trkpt lat="44.51993339378121" lon="7.993492634763359"><ele>542.8</ele><time>2026-04-12T06:21:39Z</time></trkpt><trkpt lat="44.519890525468504" lon="7.993420823381733"><ele>545.0</ele><time>2026-04-12T06:21:42Z</time></trkpt><trkpt lat="44.52001247937542" lon="7.993449955098262"><ele>545.0</ele><time>2026-04-12T06:21:44Z</time></trkpt><trkpt lat="44.520076201645956" lon="7.99346497079826"><ele>545.0</ele><time>2026-04-12T06:21:45Z</time></trkpt><trkpt lat="44.5201441930639" lon="7.993480571698259"><ele>545.0</ele><time>2026-04-12T06:21:46Z</time></trkpt><trkpt lat="44.52021976732239" lon="7.993492986530031"><ele>545.0</ele><time>2026-04-12T06:21:47Z</time></trkpt><trkpt lat="44.52030078183832" lon="7.993498387175146"><ele>545.0</ele><time>2026-04-12T06:21:48Z</time></trkpt><trkpt lat="44.52038508565517" lon="7.993483421353079"><ele>545.0</ele><time>2026-04-12T06:21:49Z</time></trkpt><trkpt lat="44.52047277079163" lon="7.993492630892139"><ele>542.8</ele><time>2026-04-12T06:21:50Z</time></trkpt><trkpt lat="44.52056369125053" lon="7.993495565596389"><ele>540.6</ele><time>2026-04-12T06:21:50.999Z</time></trkpt><trkpt lat="44.52065575114473" lon="7.993482640412274"><ele>538.4</ele><time>2026-04-12T06:21:51.999Z</time></trkpt><trkpt lat="44.52074818008605" lon="7.993466317944652"><ele>536.2</ele><time>2026-04-12T06:21:52.999Z</time></trkpt><trkpt lat="44.520843610899064" lon="7.993459799276009"><ele>534.0</ele><time>2026-04-12T06:21:53.999Z</time></trkpt><trkpt lat="44.52094046505344" lon="7.993448455062136"><ele>534.0</ele><time>2026-04-12T06:21:54.999Z</time></trkpt><trkpt lat="44.5210382912258" lon="7.993434322037563"><ele>534.0</ele><time>2026-04-12T06:21:55.999Z</time></trkpt><trkpt lat="44.52113993838791" lon="7.993444384921771"><ele>534.0</ele><time>2026-04-12T06:21:56.999Z</time></trkpt><trkpt lat="44.52124166967082" lon="7.9934350477401654"><ele>534.0</ele><time>2026-04-12T06:21:57.999Z</time></trkpt><trkpt lat="44.52133991111031" lon="7.993410807565492"><ele>534.0</ele><time>2026-04-12T06:21:58.999Z</time></trkpt><trkpt lat="44.521432270717774" lon="7.993402509405227"><ele>532.0</ele><time>2026-04-12T06:21:59.999Z</time></trkpt><trkpt lat="44.521516630496414" lon="7.993394584785281"><ele>530.0</ele><time>2026-04-12T06:22:00.999Z</time></trkpt><trkpt lat="44.521594544170846" lon="7.9933914466851395"><ele>528.0</ele><time>2026-04-12T06:22:01.999Z</time></trkpt><trkpt lat="44.521659896744175" lon="7.993386913668936"><ele>526.0</ele><time>2026-04-12T06:22:02.999Z</time></trkpt><trkpt lat="44.52177852375548" lon="7.993337622876732"><ele>524.0</ele><time>2026-04-12T06:22:04.999Z</time></trkpt><trkpt lat="44.52183799327875" lon="7.993271291131175"><ele>522.0</ele><time>2026-04-12T06:22:05.999Z</time></trkpt><trkpt lat="44.52189217854704" lon="7.993185789342942"><ele>522.0</ele><time>2026-04-12T06:22:06.999Z</time></trkpt><trkpt lat="44.521939833966286" lon="7.993086138091035"><ele>522.0</ele><time>2026-04-12T06:22:07.999Z</time></trkpt><trkpt lat="44.52198329719103" lon="7.992988036205613"><ele>522.0</ele><time>2026-04-12T06:22:08.999Z</time></trkpt><trkpt lat="44.52203831306794" lon="7.992860381794952"><ele>522.0</ele><time>2026-04-12T06:22:09.999Z</time></trkpt><trkpt lat="44.52208516534427" lon="7.992748450973509"><ele>522.0</ele><time>2026-04-12T06:22:10.999Z</time></trkpt><trkpt lat="44.522130287651315" lon="7.99261974052728"><ele>518.8000000000001</ele><time>2026-04-12T06:22:11.999Z</time></trkpt><trkpt lat="44.52219395690432" lon="7.992498206551609"><ele>515.6</ele><time>2026-04-12T06:22:12.999Z</time></trkpt><trkpt lat="44.52222818179649" lon="7.992344820478263"><ele>512.4000000000001</ele><time>2026-04-12T06:22:13.999Z</time></trkpt><trkpt lat="44.522276042547" lon="7.99220769169139"><ele>509.20000000000005</ele><time>2026-04-12T06:22:14.999Z</time></trkpt><trkpt lat="44.522343423592844" lon="7.992083598268364"><ele>506.0</ele><time>2026-04-12T06:22:15.999Z</time></trkpt><trkpt lat="44.52240020526258" lon="7.9919526078691066"><ele>506.0</ele><time>2026-04-12T06:22:16.999Z</time></trkpt><trkpt lat="44.522453075080435" lon="7.991813863344943"><ele>506.0</ele><time>2026-04-12T06:22:17.999Z</time></trkpt><trkpt lat="44.52252478891943" lon="7.9916906439348505"><ele>506.0</ele><time>2026-04-12T06:22:18.999Z</time></trkpt><trkpt lat="44.52261519634316" lon="7.991594932683255"><ele>506.0</ele><time>2026-04-12T06:22:19.999Z</time></trkpt><trkpt lat="44.5226972433886" lon="7.991494772966028"><ele>506.0</ele><time>2026-04-12T06:22:20.999Z</time></trkpt><trkpt lat="44.522784303492614" lon="7.991394842697895"><ele>505.8</ele><time>2026-04-12T06:22:21.999Z</time></trkpt><trkpt lat="44.52287335744304" lon="7.99130518234915"><ele>505.6</ele><time>2026-04-12T06:22:22.999Z</time></trkpt><trkpt lat="44.52296169469011" lon="7.991227976780354"><ele>505.4</ele><time>2026-04-12T06:22:23.999Z</time></trkpt><trkpt lat="44.52305131684012" lon="7.9911511723004125"><ele>505.2</ele><time>2026-04-12T06:22:24.999Z</time></trkpt><trkpt lat="44.52313567795692" lon="7.991059541874787"><ele>505.0</ele><time>2026-04-12T06:22:25.999Z</time></trkpt><trkpt lat="44.5232130407848" lon="7.990994766040569"><ele>504.00000000000006</ele><time>2026-04-12T06:22:26.999Z</time></trkpt><trkpt lat="44.52329737845362" lon="7.9909450664318795"><ele>503.0</ele><time>2026-04-12T06:22:27.999Z</time></trkpt><trkpt lat="44.523360482578525" lon="7.9908787501006255"><ele>502.0</ele><time>2026-04-12T06:22:28.999Z</time></trkpt><trkpt lat="44.523436849515804" lon="7.9908259706578395"><ele>501.0</ele><time>2026-04-12T06:22:29.999Z</time></trkpt><trkpt lat="44.52350653242571" lon="7.990758218376268"><ele>500.00000000000006</ele><time>2026-04-12T06:22:30.999Z</time></trkpt><trkpt lat="44.52358435670746" lon="7.990692568149575"><ele>499.0</ele><time>2026-04-12T06:22:31.999Z</time></trkpt><trkpt lat="44.523639671913614" lon="7.990594257047985"><ele>499.00000000000006</ele><time>2026-04-12T06:22:32.999Z</time></trkpt><trkpt lat="44.52367046720348" lon="7.990486814516327"><ele>499.0</ele><time>2026-04-12T06:22:33.999Z</time></trkpt><trkpt lat="44.52371374232151" lon="7.990399274813562"><ele>499.0</ele><time>2026-04-12T06:22:34.999Z</time></trkpt><trkpt lat="44.52373709247865" lon="7.99030770234002"><ele>499.0</ele><time>2026-04-12T06:22:35.999Z</time></trkpt><trkpt lat="44.523737909035226" lon="7.990201972116525"><ele>499.00000000000006</ele><time>2026-04-12T06:22:36.999Z</time></trkpt><trkpt lat="44.5237205026444" lon="7.990092569228566"><ele>499.0</ele><time>2026-04-12T06:22:37.999Z</time></trkpt><trkpt lat="44.523693423613246" lon="7.98998149342697"><ele>498.6666666666667</ele><time>2026-04-12T06:22:38.999Z</time></trkpt><trkpt lat="44.52366960299523" lon="7.989863836874287"><ele>498.33333333333337</ele><time>2026-04-12T06:22:39.999Z</time></trkpt><trkpt lat="44.52366589709925" lon="7.989737185319994"><ele>498.0</ele><time>2026-04-12T06:22:40.999Z</time></trkpt><trkpt lat="44.523657050227456" lon="7.989610960969749"><ele>497.66666666666663</ele><time>2026-04-12T06:22:41.999Z</time></trkpt><trkpt lat="44.52368892255964" lon="7.989492763337134"><ele>497.3333333333333</ele><time>2026-04-12T06:22:42.999Z</time></trkpt><trkpt lat="44.52372104384866" lon="7.989388320507759"><ele>497.0</ele><time>2026-04-12T06:22:43.999Z</time></trkpt><trkpt lat="44.523752593540394" lon="7.989285244888175"><ele>495.40000000000003</ele><time>2026-04-12T06:22:44.999Z</time></trkpt><trkpt lat="44.52378402267639" lon="7.989164015821562"><ele>493.80000000000007</ele><time>2026-04-12T06:22:45.999Z</time></trkpt><trkpt lat="44.52380258407299" lon="7.989034743222134"><ele>492.2</ele><time>2026-04-12T06:22:46.999Z</time></trkpt><trkpt lat="44.5237930979615" lon="7.988896299940443"><ele>490.6</ele><time>2026-04-12T06:22:47.999Z</time></trkpt><trkpt lat="44.52375255053805" lon="7.9887695665191005"><ele>489.0</ele><time>2026-04-12T06:22:48.999Z</time></trkpt><trkpt lat="44.523714205758154" lon="7.988646596899533"><ele>489.0</ele><time>2026-04-12T06:22:49.999Z</time></trkpt><trkpt lat="44.52367591064247" lon="7.988525961488562"><ele>489.0</ele><time>2026-04-12T06:22:50.999Z</time></trkpt><trkpt lat="44.52364623523382" lon="7.988401023009222"><ele>489.0</ele><time>2026-04-12T06:22:51.999Z</time></trkpt><trkpt lat="44.52363576670751" lon="7.988276584964207"><ele>489.0</ele><time>2026-04-12T06:22:52.999Z</time></trkpt><trkpt lat="44.5236365500534" lon="7.988180162145759"><ele>489.0</ele><time>2026-04-12T06:22:53.999Z</time></trkpt><trkpt lat="44.52366746170179" lon="7.9880352573385665"><ele>487.0</ele><time>2026-04-12T06:22:55.999Z</time></trkpt><trkpt lat="44.523792798946644" lon="7.988018386038941"><ele>485.0</ele><time>2026-04-12T06:22:57.999Z</time></trkpt><trkpt lat="44.523846837453775" lon="7.988075397677926"><ele>483.0</ele><time>2026-04-12T06:22:58.999Z</time></trkpt><trkpt lat="44.52387429360699" lon="7.988166018738782"><ele>481.0</ele><time>2026-04-12T06:22:59.999Z</time></trkpt><trkpt lat="44.52390526159015" lon="7.988251498264229"><ele>479.0</ele><time>2026-04-12T06:23:00.999Z</time></trkpt><trkpt lat="44.523936184546535" lon="7.988347240361557"><ele>477.0</ele><time>2026-04-12T06:23:01.999Z</time></trkpt><trkpt lat="44.523970296139474" lon="7.988453435901762"><ele>477.0</ele><time>2026-04-12T06:23:03Z</time></trkpt><trkpt lat="44.52400634968639" lon="7.988566401828971"><ele>477.0</ele><time>2026-04-12T06:23:04Z</time></trkpt><trkpt lat="44.524041605133974" lon="7.988680651793345"><ele>477.0</ele><time>2026-04-12T06:23:05Z</time></trkpt><trkpt lat="44.524076339608015" lon="7.988793213409583"><ele>477.0</ele><time>2026-04-12T06:23:06Z</time></trkpt><trkpt lat="44.52412192851233" lon="7.988898484711"><ele>477.0</ele><time>2026-04-12T06:23:07Z</time></trkpt><trkpt lat="44.52414730412162" lon="7.989013607412152"><ele>477.0</ele><time>2026-04-12T06:23:08Z</time></trkpt><trkpt lat="44.52416671279637" lon="7.989104043584789"><ele>477.0</ele><time>2026-04-12T06:23:09Z</time></trkpt><trkpt lat="44.52422946393015" lon="7.989224255072968"><ele>477.0</ele><time>2026-04-12T06:23:11Z</time></trkpt><trkpt lat="44.52432583612071" lon="7.989162371209594"><ele>477.0</ele><time>2026-04-12T06:23:13Z</time></trkpt><trkpt lat="44.52433971656153" lon="7.989059507260292"><ele>477.0</ele><time>2026-04-12T06:23:14Z</time></trkpt><trkpt lat="44.52434733146202" lon="7.988955896957302"><ele>477.0</ele><time>2026-04-12T06:23:15Z</time></trkpt><trkpt lat="44.524360151949836" lon="7.988846753062623"><ele>477.0</ele><time>2026-04-12T06:23:16Z</time></trkpt><trkpt lat="44.524372253272695" lon="7.98873311387005"><ele>477.0</ele><time>2026-04-12T06:23:17Z</time></trkpt><trkpt lat="44.52438114171587" lon="7.988617079890632"><ele>477.0</ele><time>2026-04-12T06:23:18Z</time></trkpt><trkpt lat="44.52439025862406" lon="7.9884966926797825"><ele>477.0</ele><time>2026-04-12T06:23:19Z</time></trkpt><trkpt lat="44.52439199241754" lon="7.988372238642327"><ele>477.0</ele><time>2026-04-12T06:23:20Z</time></trkpt><trkpt lat="44.52439265814217" lon="7.988242256440037"><ele>477.0</ele><time>2026-04-12T06:23:21Z</time></trkpt><trkpt lat="44.52439450533482" lon="7.988106126690354"><ele>477.0</ele><time>2026-04-12T06:23:22Z</time></trkpt><trkpt lat="44.52439240396962" lon="7.987965400687102"><ele>475.40000000000003</ele><time>2026-04-12T06:23:23Z</time></trkpt><trkpt lat="44.524392790101246" lon="7.987819533041307"><ele>473.80000000000007</ele><time>2026-04-12T06:23:24Z</time></trkpt><trkpt lat="44.52439134253501" lon="7.987670428927654"><ele>472.2</ele><time>2026-04-12T06:23:25Z</time></trkpt><trkpt lat="44.524388903393664" lon="7.987518273902771"><ele>470.6</ele><time>2026-04-12T06:23:26Z</time></trkpt><trkpt lat="44.52438487471437" lon="7.987367522638497"><ele>469.0</ele><time>2026-04-12T06:23:27Z</time></trkpt><trkpt lat="44.524371379541726" lon="7.987216805884107"><ele>467.75</ele><time>2026-04-12T06:23:28Z</time></trkpt><trkpt lat="44.52434605915339" lon="7.987063253123277"><ele>466.5</ele><time>2026-04-12T06:23:29Z</time></trkpt><trkpt lat="44.52430784902899" lon="7.98691548150564"><ele>465.25</ele><time>2026-04-12T06:23:30Z</time></trkpt><trkpt lat="44.52425625026281" lon="7.986769471445045"><ele>464.0</ele><time>2026-04-12T06:23:31Z</time></trkpt><trkpt lat="44.52419849938534" lon="7.986624779591878"><ele>462.25</ele><time>2026-04-12T06:23:32Z</time></trkpt><trkpt lat="44.52414055688652" lon="7.986476250139824"><ele>460.5</ele><time>2026-04-12T06:23:33Z</time></trkpt><trkpt lat="44.524084136916215" lon="7.986325004966942"><ele>458.75</ele><time>2026-04-12T06:23:34Z</time></trkpt><trkpt lat="44.52403132791384" lon="7.986177737294635"><ele>457.0</ele><time>2026-04-12T06:23:35Z</time></trkpt><trkpt lat="44.52398414215623" lon="7.98603159422354"><ele>457.0</ele><time>2026-04-12T06:23:36Z</time></trkpt><trkpt lat="44.52393164692281" lon="7.9858966753694"><ele>457.00000000000006</ele><time>2026-04-12T06:23:37Z</time></trkpt><trkpt lat="44.52387330601698" lon="7.9857721319540484"><ele>457.00000000000006</ele><time>2026-04-12T06:23:38Z</time></trkpt><trkpt lat="44.52380922523122" lon="7.985650756496946"><ele>457.0</ele><time>2026-04-12T06:23:39Z</time></trkpt><trkpt lat="44.523745289900404" lon="7.985544284587312"><ele>457.0</ele><time>2026-04-12T06:23:40Z</time></trkpt><trkpt lat="44.52369368076127" lon="7.9854587889974145"><ele>456.1666666666667</ele><time>2026-04-12T06:23:41Z</time></trkpt><trkpt lat="44.5236464413562" lon="7.985385008972133"><ele>455.33333333333337</ele><time>2026-04-12T06:23:42Z</time></trkpt><trkpt lat="44.52357926667397" lon="7.985287115246924"><ele>454.5</ele><time>2026-04-12T06:23:44Z</time></trkpt><trkpt lat="44.52356743179222" lon="7.98516222294976"><ele>453.66666666666663</ele><time>2026-04-12T06:23:46Z</time></trkpt><trkpt lat="44.523684898761125" lon="7.985159068090268"><ele>452.8333333333333</ele><time>2026-04-12T06:23:48Z</time></trkpt><trkpt lat="44.52372415327024" lon="7.985242790294759"><ele>452.0</ele><time>2026-04-12T06:23:49Z</time></trkpt><trkpt lat="44.523778010523934" lon="7.985296792816926"><ele>451.14285714285717</ele><time>2026-04-12T06:23:50Z</time></trkpt><trkpt lat="44.523831949620785" lon="7.9853556474194445"><ele>450.2857142857143</ele><time>2026-04-12T06:23:51Z</time></trkpt><trkpt lat="44.523893138316566" lon="7.98540065109303"><ele>449.42857142857144</ele><time>2026-04-12T06:23:52Z</time></trkpt><trkpt lat="44.523941037170246" lon="7.98546462478308"><ele>448.57142857142856</ele><time>2026-04-12T06:23:53Z</time></trkpt><trkpt lat="44.52399639925347" lon="7.985527416158962"><ele>447.71428571428567</ele><time>2026-04-12T06:23:54Z</time></trkpt><trkpt lat="44.52406172659964" lon="7.985589502007499"><ele>446.85714285714283</ele><time>2026-04-12T06:23:55Z</time></trkpt><trkpt lat="44.52412858955666" lon="7.9856553877889835"><ele>446.0</ele><time>2026-04-12T06:23:56Z</time></trkpt><trkpt lat="44.52420165623389" lon="7.985720360229596"><ele>445.99999999999994</ele><time>2026-04-12T06:23:57Z</time></trkpt><trkpt lat="44.52427326987277" lon="7.9857883343073155"><ele>446.0</ele><time>2026-04-12T06:23:58Z</time></trkpt><trkpt lat="44.52436057485916" lon="7.985844013463423"><ele>446.0</ele><time>2026-04-12T06:23:59Z</time></trkpt><trkpt lat="44.52442392333839" lon="7.985904881010797"><ele>446.0</ele><time>2026-04-12T06:23:59.999Z</time></trkpt><trkpt lat="44.524479799454454" lon="7.985948547336888"><ele>445.99999999999994</ele><time>2026-04-12T06:24:00.999Z</time></trkpt><trkpt lat="44.52458834376001" lon="7.985950822063398"><ele>446.0</ele><time>2026-04-12T06:24:02.999Z</time></trkpt><trkpt lat="44.524633994725875" lon="7.9857929189366095"><ele>445.99999999999994</ele><time>2026-04-12T06:24:04.999Z</time></trkpt><trkpt lat="44.52459673100072" lon="7.985688648016917"><ele>446.0</ele><time>2026-04-12T06:24:05.999Z</time></trkpt><trkpt lat="44.52456522413324" lon="7.985596183721833"><ele>446.0</ele><time>2026-04-12T06:24:06.999Z</time></trkpt><trkpt lat="44.52452885218065" lon="7.9854963328044395"><ele>446.0</ele><time>2026-04-12T06:24:07.999Z</time></trkpt><trkpt lat="44.52448948539188" lon="7.985388260206187"><ele>445.99999999999994</ele><time>2026-04-12T06:24:08.999Z</time></trkpt><trkpt lat="44.524449379367844" lon="7.985274327753362"><ele>446.0</ele><time>2026-04-12T06:24:09.999Z</time></trkpt><trkpt lat="44.52440881253969" lon="7.985158609892289"><ele>446.0</ele><time>2026-04-12T06:24:10.999Z</time></trkpt><trkpt lat="44.52436618959067" lon="7.985037026782925"><ele>446.0</ele><time>2026-04-12T06:24:11.999Z</time></trkpt><trkpt lat="44.52432218821322" lon="7.984911511714638"><ele>446.0</ele><time>2026-04-12T06:24:12.999Z</time></trkpt><trkpt lat="44.52427677274184" lon="7.984784798021464"><ele>446.0</ele><time>2026-04-12T06:24:13.999Z</time></trkpt><trkpt lat="44.524214096026775" lon="7.984661078559144"><ele>446.0</ele><time>2026-04-12T06:24:14.999Z</time></trkpt><trkpt lat="44.52416790625563" lon="7.984518760844477"><ele>442.8</ele><time>2026-04-12T06:24:15.999Z</time></trkpt><trkpt lat="44.524142470954025" lon="7.984364083776252"><ele>439.6</ele><time>2026-04-12T06:24:16.999Z</time></trkpt><trkpt lat="44.52410818546381" lon="7.984216977447401"><ele>436.4</ele><time>2026-04-12T06:24:17.999Z</time></trkpt><trkpt lat="44.52407704965597" lon="7.984067029595209"><ele>433.2</ele><time>2026-04-12T06:24:18.999Z</time></trkpt><trkpt lat="44.524040939402056" lon="7.983925364147073"><ele>430.0</ele><time>2026-04-12T06:24:19.999Z</time></trkpt><trkpt lat="44.524010344317276" lon="7.98377724110218"><ele>427.25</ele><time>2026-04-12T06:24:20.999Z</time></trkpt><trkpt lat="44.523973323471296" lon="7.983633847514483"><ele>424.5</ele><time>2026-04-12T06:24:21.999Z</time></trkpt><trkpt lat="44.523930902794085" lon="7.983483914009499"><ele>421.75</ele><time>2026-04-12T06:24:22.999Z</time></trkpt><trkpt lat="44.523879295399624" lon="7.983336225483868"><ele>419.0</ele><time>2026-04-12T06:24:23.999Z</time></trkpt><trkpt lat="44.52380993242114" lon="7.983192312814083"><ele>418.25</ele><time>2026-04-12T06:24:24.999Z</time></trkpt><trkpt lat="44.52373451226922" lon="7.983047003712152"><ele>417.5</ele><time>2026-04-12T06:24:25.999Z</time></trkpt><trkpt lat="44.52366257820481" lon="7.9828974109133295"><ele>416.75</ele><time>2026-04-12T06:24:26.999Z</time></trkpt><trkpt lat="44.52359078317784" lon="7.982741400286034"><ele>416.0</ele><time>2026-04-12T06:24:27.999Z</time></trkpt><trkpt lat="44.52354918754771" lon="7.9825892719726905"><ele>413.8</ele><time>2026-04-12T06:24:28.999Z</time></trkpt><trkpt lat="44.52351124974721" lon="7.982438194135832"><ele>411.6</ele><time>2026-04-12T06:24:29.999Z</time></trkpt><trkpt lat="44.523488323890135" lon="7.982298508094319"><ele>409.4</ele><time>2026-04-12T06:24:30.999Z</time></trkpt><trkpt lat="44.52347427151335" lon="7.982159060016659"><ele>407.2</ele><time>2026-04-12T06:24:31.999Z</time></trkpt><trkpt lat="44.52344926093001" lon="7.9820416507470595"><ele>405.0</ele><time>2026-04-12T06:24:32.999Z</time></trkpt><trkpt lat="44.52341068534662" lon="7.981930255843417"><ele>405.0</ele><time>2026-04-12T06:24:33.999Z</time></trkpt><trkpt lat="44.52335820686627" lon="7.981838321081511"><ele>405.0</ele><time>2026-04-12T06:24:34.999Z</time></trkpt><trkpt lat="44.52328870527354" lon="7.981776307925722"><ele>405.0</ele><time>2026-04-12T06:24:35.999Z</time></trkpt><trkpt lat="44.52321837995162" lon="7.981744671250878"><ele>405.0</ele><time>2026-04-12T06:24:36.999Z</time></trkpt><trkpt lat="44.52315055701184" lon="7.981709320362238"><ele>405.0</ele><time>2026-04-12T06:24:37.999Z</time></trkpt><trkpt lat="44.5230871104829" lon="7.981694993793759"><ele>405.0</ele><time>2026-04-12T06:24:38.999Z</time></trkpt><trkpt lat="44.5230468026654" lon="7.981586483981152"><ele>403.1666666666667</ele><time>2026-04-12T06:24:40.999Z</time></trkpt><trkpt lat="44.523071805469314" lon="7.9815025334003655"><ele>401.33333333333337</ele><time>2026-04-12T06:24:41.999Z</time></trkpt><trkpt lat="44.523148280384305" lon="7.981463213487008"><ele>399.5</ele><time>2026-04-12T06:24:42.999Z</time></trkpt><trkpt lat="44.52321378390844" lon="7.981403725437885"><ele>397.6666666666667</ele><time>2026-04-12T06:24:43.999Z</time></trkpt><trkpt lat="44.523285607313866" lon="7.981345258138598"><ele>395.83333333333337</ele><time>2026-04-12T06:24:44.999Z</time></trkpt><trkpt lat="44.52335542435272" lon="7.981290304944693"><ele>394.0</ele><time>2026-04-12T06:24:45.999Z</time></trkpt><trkpt lat="44.52342135618892" lon="7.981215513747532"><ele>394.00000000000006</ele><time>2026-04-12T06:24:46.999Z</time></trkpt><trkpt lat="44.52350495744984" lon="7.9811734790828766"><ele>394.0</ele><time>2026-04-12T06:24:47.999Z</time></trkpt><trkpt lat="44.523581354753055" lon="7.981113792121153"><ele>394.0</ele><time>2026-04-12T06:24:48.999Z</time></trkpt><trkpt lat="44.52365799184613" lon="7.9810554378226355"><ele>394.0</ele><time>2026-04-12T06:24:49.999Z</time></trkpt><trkpt lat="44.5237355115748" lon="7.98100190511497"><ele>394.00000000000006</ele><time>2026-04-12T06:24:50.999Z</time></trkpt><trkpt lat="44.52380405479166" lon="7.980939418638242"><ele>394.0</ele><time>2026-04-12T06:24:51.999Z</time></trkpt><trkpt lat="44.523876120166754" lon="7.980909247120936"><ele>393.79999999999995</ele><time>2026-04-12T06:24:52.999Z</time></trkpt><trkpt lat="44.5239399459395" lon="7.980880837736911"><ele>393.59999999999997</ele><time>2026-04-12T06:24:53.999Z</time></trkpt><trkpt lat="44.52403142326744" lon="7.980776104989028"><ele>393.4</ele><time>2026-04-12T06:24:55.999Z</time></trkpt><trkpt lat="44.524002319668334" lon="7.980636029304025"><ele>393.2</ele><time>2026-04-12T06:24:57.999Z</time></trkpt><trkpt lat="44.52388737996614" lon="7.980620914426256"><ele>393.0</ele><time>2026-04-12T06:24:59.999Z</time></trkpt><trkpt lat="44.52375992721491" lon="7.980648339254759"><ele>390.5</ele><time>2026-04-12T06:25:01.999Z</time></trkpt><trkpt lat="44.52368388266031" lon="7.980635935431265"><ele>388.0</ele><time>2026-04-12T06:25:02.999Z</time></trkpt><trkpt lat="44.523605836692276" lon="7.980647314595225"><ele>385.5</ele><time>2026-04-12T06:25:03.999Z</time></trkpt><trkpt lat="44.52352088783594" lon="7.980661176782909"><ele>383.0</ele><time>2026-04-12T06:25:04.999Z</time></trkpt><trkpt lat="44.52343357932453" lon="7.980677617989064"><ele>380.5</ele><time>2026-04-12T06:25:05.999Z</time></trkpt><trkpt lat="44.52335196687783" lon="7.980716023273498"><ele>378.0</ele><time>2026-04-12T06:25:06.999Z</time></trkpt><trkpt lat="44.52326360542387" lon="7.980719737698007"><ele>378.0</ele><time>2026-04-12T06:25:07.999Z</time></trkpt><trkpt lat="44.52317798306775" lon="7.980746660093271"><ele>378.0</ele><time>2026-04-12T06:25:09Z</time></trkpt><trkpt lat="44.523105732893285" lon="7.980772561079797"><ele>378.0</ele><time>2026-04-12T06:25:10Z</time></trkpt><trkpt lat="44.5230168390126" lon="7.980795570353305"><ele>378.0</ele><time>2026-04-12T06:25:12Z</time></trkpt><trkpt lat="44.523047079568784" lon="7.980669720586456"><ele>378.0</ele><time>2026-04-12T06:25:15Z</time></trkpt><trkpt lat="44.52313906999576" lon="7.980558618051951"><ele>378.0</ele><time>2026-04-12T06:25:17Z</time></trkpt><trkpt lat="44.523203399487194" lon="7.980505174027746"><ele>378.0</ele><time>2026-04-12T06:25:18Z</time></trkpt><trkpt lat="44.52326368309909" lon="7.9804480732984695"><ele>378.0</ele><time>2026-04-12T06:25:19Z</time></trkpt><trkpt lat="44.52336632988262" lon="7.980342940324014"><ele>378.0</ele><time>2026-04-12T06:25:21Z</time></trkpt><trkpt lat="44.52342407603479" lon="7.98028904522781"><ele>378.0</ele><time>2026-04-12T06:25:22Z</time></trkpt><trkpt lat="44.5234807972863" lon="7.9802400989683715"><ele>378.0</ele><time>2026-04-12T06:25:23Z</time></trkpt><trkpt lat="44.5235463470412" lon="7.980197138926221"><ele>378.0</ele><time>2026-04-12T06:25:24Z</time></trkpt><trkpt lat="44.52362062814971" lon="7.980155849698844"><ele>378.0</ele><time>2026-04-12T06:25:25Z</time></trkpt><trkpt lat="44.52370097202887" lon="7.980119209971457"><ele>378.0</ele><time>2026-04-12T06:25:26Z</time></trkpt><trkpt lat="44.523781174677104" lon="7.9800788788407555"><ele>378.0</ele><time>2026-04-12T06:25:27Z</time></trkpt><trkpt lat="44.523857344510326" lon="7.980032758854321"><ele>378.0</ele><time>2026-04-12T06:25:28Z</time></trkpt><trkpt lat="44.5239368552194" lon="7.979987105755362"><ele>378.0</ele><time>2026-04-12T06:25:29Z</time></trkpt><trkpt lat="44.52401463176357" lon="7.979947141483897"><ele>376.79999999999995</ele><time>2026-04-12T06:25:30Z</time></trkpt><trkpt lat="44.5240864719851" lon="7.979913516747041"><ele>375.6</ele><time>2026-04-12T06:25:31Z</time></trkpt><trkpt lat="44.524192149615544" lon="7.979845243154602"><ele>374.4</ele><time>2026-04-12T06:25:33Z</time></trkpt><trkpt lat="44.52418866486645" lon="7.979723701955397"><ele>373.20000000000005</ele><time>2026-04-12T06:25:35Z</time></trkpt><trkpt lat="44.524088852701944" lon="7.979649883726834"><ele>372.0</ele><time>2026-04-12T06:25:37Z</time></trkpt><trkpt lat="44.524020131135835" lon="7.9796877399693535"><ele>372.0</ele><time>2026-04-12T06:25:38Z</time></trkpt><trkpt lat="44.523956107438586" lon="7.979715261302668"><ele>372.0</ele><time>2026-04-12T06:25:39Z</time></trkpt><trkpt lat="44.523894072110956" lon="7.9797400015695334"><ele>372.0</ele><time>2026-04-12T06:25:40Z</time></trkpt><trkpt lat="44.52377425455851" lon="7.979779975663326"><ele>372.0</ele><time>2026-04-12T06:25:42Z</time></trkpt><trkpt lat="44.523659781839896" lon="7.979817887567107"><ele>372.0</ele><time>2026-04-12T06:25:44Z</time></trkpt><trkpt lat="44.52356425895377" lon="7.979853002676069"><ele>373.0</ele><time>2026-04-12T06:25:46Z</time></trkpt><trkpt lat="44.5234774988918" lon="7.979888683795909"><ele>374.0</ele><time>2026-04-12T06:25:48Z</time></trkpt><trkpt lat="44.52339486264169" lon="7.979935406788335"><ele>375.0</ele><time>2026-04-12T06:25:50Z</time></trkpt><trkpt lat="44.52331735810845" lon="7.979996146189486"><ele>376.0</ele><time>2026-04-12T06:25:52Z</time></trkpt><trkpt lat="44.52325842632924" lon="7.980041281028026"><ele>377.0</ele><time>2026-04-12T06:25:54Z</time></trkpt><trkpt lat="44.523310246996196" lon="7.979934400042674"><ele>378.0</ele><time>2026-04-12T06:25:58.999Z</time></trkpt><trkpt lat="44.52339268870474" lon="7.979869175041984"><ele>377.0</ele><time>2026-04-12T06:26:00.999Z</time></trkpt><trkpt lat="44.52349204984075" lon="7.979809461950358"><ele>376.0</ele><time>2026-04-12T06:26:02.999Z</time></trkpt><trkpt lat="44.52360309859319" lon="7.979740428787284"><ele>375.0</ele><time>2026-04-12T06:26:04.999Z</time></trkpt><trkpt lat="44.52366328570208" lon="7.979704244728087"><ele>374.0</ele><time>2026-04-12T06:26:05.999Z</time></trkpt><trkpt lat="44.523723259591215" lon="7.979663737972454"><ele>373.0</ele><time>2026-04-12T06:26:06.999Z</time></trkpt><trkpt lat="44.52378392395676" lon="7.9796224034417715"><ele>372.0</ele><time>2026-04-12T06:26:07.999Z</time></trkpt><trkpt lat="44.52384710043726" lon="7.979581789250621"><ele>372.0</ele><time>2026-04-12T06:26:08.999Z</time></trkpt><trkpt lat="44.52391306291098" lon="7.979547591821947"><ele>372.0</ele><time>2026-04-12T06:26:09.999Z</time></trkpt><trkpt lat="44.523981759095804" lon="7.979503084508133"><ele>372.0</ele><time>2026-04-12T06:26:10.999Z</time></trkpt><trkpt lat="44.52405268451128" lon="7.9794520828586535"><ele>372.0</ele><time>2026-04-12T06:26:11.999Z</time></trkpt><trkpt lat="44.524125500990785" lon="7.9794047730562685"><ele>372.0</ele><time>2026-04-12T06:26:12.999Z</time></trkpt><trkpt lat="44.52420109237206" lon="7.979361241071715"><ele>372.0</ele><time>2026-04-12T06:26:13.999Z</time></trkpt><trkpt lat="44.5242800963488" lon="7.979316755260813"><ele>372.0</ele><time>2026-04-12T06:26:14.999Z</time></trkpt><trkpt lat="44.52435670184562" lon="7.9792841283541796"><ele>372.0</ele><time>2026-04-12T06:26:15.999Z</time></trkpt><trkpt lat="44.524433917772456" lon="7.9792766550792456"><ele>372.0</ele><time>2026-04-12T06:26:16.999Z</time></trkpt><trkpt lat="44.52452236926616" lon="7.97931852033285"><ele>372.0</ele><time>2026-04-12T06:26:17.999Z</time></trkpt><trkpt lat="44.52460762243977" lon="7.979383441016067"><ele>372.0</ele><time>2026-04-12T06:26:18.999Z</time></trkpt><trkpt lat="44.52469064233406" lon="7.979464262260168"><ele>372.0</ele><time>2026-04-12T06:26:19.999Z</time></trkpt><trkpt lat="44.524775166927185" lon="7.979544600171453"><ele>367.0</ele><time>2026-04-12T06:26:20.999Z</time></trkpt><trkpt lat="44.5248608129363" lon="7.979616723599967"><ele>362.0</ele><time>2026-04-12T06:26:21.999Z</time></trkpt><trkpt lat="44.52494153176622" lon="7.9797057968512375"><ele>357.0</ele><time>2026-04-12T06:26:22.999Z</time></trkpt><trkpt lat="44.525026969358194" lon="7.979776932715318"><ele>352.0</ele><time>2026-04-12T06:26:23.999Z</time></trkpt><trkpt lat="44.525110183505596" lon="7.979818195458209"><ele>347.0</ele><time>2026-04-12T06:26:24.999Z</time></trkpt><trkpt lat="44.525169957297024" lon="7.979873691138815"><ele>347.0</ele><time>2026-04-12T06:26:25.999Z</time></trkpt><trkpt lat="44.52522326035059" lon="7.979920773179604"><ele>347.0</ele><time>2026-04-12T06:26:26.999Z</time></trkpt><trkpt lat="44.52528179488007" lon="7.979964773527556"><ele>347.0</ele><time>2026-04-12T06:26:27.999Z</time></trkpt><trkpt lat="44.52533948346663" lon="7.98000467162054"><ele>347.0</ele><time>2026-04-12T06:26:28.999Z</time></trkpt><trkpt lat="44.52540804857413" lon="7.980027956428865"><ele>347.0</ele><time>2026-04-12T06:26:29.999Z</time></trkpt><trkpt lat="44.525474834863864" lon="7.9800332570577694"><ele>347.0</ele><time>2026-04-12T06:26:30.999Z</time></trkpt><trkpt lat="44.52558719931814" lon="7.9800079419168215"><ele>347.0</ele><time>2026-04-12T06:26:32.999Z</time></trkpt><trkpt lat="44.52566819853546" lon="7.979951845967277"><ele>349.6</ele><time>2026-04-12T06:26:34.999Z</time></trkpt><trkpt lat="44.52569534755701" lon="7.9797809749105015"><ele>352.20000000000005</ele><time>2026-04-12T06:26:37.999Z</time></trkpt><trkpt lat="44.52570284560173" lon="7.979673472318638"><ele>354.8</ele><time>2026-04-12T06:26:39.999Z</time></trkpt><trkpt lat="44.525681289729064" lon="7.979551238554556"><ele>357.4</ele><time>2026-04-12T06:26:41.999Z</time></trkpt><trkpt lat="44.525663154877975" lon="7.979421890459261"><ele>360.0</ele><time>2026-04-12T06:26:43.999Z</time></trkpt><trkpt lat="44.5256580527433" lon="7.9792929522413"><ele>359.6</ele><time>2026-04-12T06:26:45.999Z</time></trkpt><trkpt lat="44.525645011152825" lon="7.9791588196561944"><ele>359.2</ele><time>2026-04-12T06:26:47.999Z</time></trkpt><trkpt lat="44.52562703658373" lon="7.97901731381854"><ele>358.79999999999995</ele><time>2026-04-12T06:26:49.999Z</time></trkpt><trkpt lat="44.52561164905241" lon="7.978876718284288"><ele>358.4</ele><time>2026-04-12T06:26:51.999Z</time></trkpt><trkpt lat="44.52562177076468" lon="7.978788752706194"><ele>358.0</ele><time>2026-04-12T06:26:52.999Z</time></trkpt><trkpt lat="44.52560022785921" lon="7.978663396149365"><ele>358.0</ele><time>2026-04-12T06:26:54.999Z</time></trkpt><trkpt lat="44.52558297278325" lon="7.978527289716851"><ele>358.0</ele><time>2026-04-12T06:26:56.999Z</time></trkpt><trkpt lat="44.5255800431848" lon="7.978384288247236"><ele>358.0</ele><time>2026-04-12T06:26:58.999Z</time></trkpt><trkpt lat="44.52558476855558" lon="7.978245181258613"><ele>358.0</ele><time>2026-04-12T06:27:00.999Z</time></trkpt><trkpt lat="44.525597850718626" lon="7.978086013556369"><ele>358.0</ele><time>2026-04-12T06:27:02.999Z</time></trkpt><trkpt lat="44.52563125817668" lon="7.977929199213888"><ele>357.16666666666663</ele><time>2026-04-12T06:27:04.999Z</time></trkpt><trkpt lat="44.52570725074207" lon="7.977796156283591"><ele>356.3333333333333</ele><time>2026-04-12T06:27:06.999Z</time></trkpt><trkpt lat="44.525725153382595" lon="7.977705539486574"><ele>355.5</ele><time>2026-04-12T06:27:07.999Z</time></trkpt><trkpt lat="44.52577542501059" lon="7.977648610637214"><ele>354.6666666666667</ele><time>2026-04-12T06:27:08.999Z</time></trkpt><trkpt lat="44.525827905584634" lon="7.977595483229449"><ele>353.83333333333337</ele><time>2026-04-12T06:27:09.999Z</time></trkpt><trkpt lat="44.52589495313809" lon="7.977559239317269"><ele>353.0</ele><time>2026-04-12T06:27:10.999Z</time></trkpt><trkpt lat="44.52594624992674" lon="7.977495460367702"><ele>353.57142857142856</ele><time>2026-04-12T06:27:11.999Z</time></trkpt><trkpt lat="44.52599965394359" lon="7.977436931011697"><ele>354.14285714285717</ele><time>2026-04-12T06:27:12.999Z</time></trkpt><trkpt lat="44.52605435676216" lon="7.977373626964344"><ele>354.7142857142857</ele><time>2026-04-12T06:27:13.999Z</time></trkpt><trkpt lat="44.526110523745146" lon="7.977309341220221"><ele>355.2857142857143</ele><time>2026-04-12T06:27:15Z</time></trkpt><trkpt lat="44.526165599051325" lon="7.977249993556949"><ele>355.8571428571429</ele><time>2026-04-12T06:27:16Z</time></trkpt><trkpt lat="44.52622260508193" lon="7.977189160473086"><ele>356.42857142857144</ele><time>2026-04-12T06:27:17Z</time></trkpt><trkpt lat="44.52628115896166" lon="7.977130489921341"><ele>357.0</ele><time>2026-04-12T06:27:18Z</time></trkpt><trkpt lat="44.5263375878972" lon="7.977067256144886"><ele>357.0</ele><time>2026-04-12T06:27:19Z</time></trkpt><trkpt lat="44.526391691921035" lon="7.977000700919601"><ele>357.0</ele><time>2026-04-12T06:27:20Z</time></trkpt><trkpt lat="44.52644413666043" lon="7.976935909987406"><ele>357.0</ele><time>2026-04-12T06:27:21Z</time></trkpt><trkpt lat="44.5264972542574" lon="7.97687433726559"><ele>357.0</ele><time>2026-04-12T06:27:22Z</time></trkpt><trkpt lat="44.5265497323586" lon="7.976820831344607"><ele>357.0</ele><time>2026-04-12T06:27:23Z</time></trkpt><trkpt lat="44.52660248796425" lon="7.976768248593515"><ele>357.0</ele><time>2026-04-12T06:27:24Z</time></trkpt><trkpt lat="44.5266737690842" lon="7.976713399212493"><ele>357.0</ele><time>2026-04-12T06:27:25Z</time></trkpt><trkpt lat="44.526744821474836" lon="7.976615319092015"><ele>357.5</ele><time>2026-04-12T06:27:27Z</time></trkpt><trkpt lat="44.52679127945043" lon="7.976549445483855"><ele>358.0</ele><time>2026-04-12T06:27:28Z</time></trkpt><trkpt lat="44.526861834162524" lon="7.976503387219116"><ele>358.5</ele><time>2026-04-12T06:27:30Z</time></trkpt><trkpt lat="44.526941980537785" lon="7.976395085974986"><ele>359.0</ele><time>2026-04-12T06:27:32Z</time></trkpt><trkpt lat="44.52703159157429" lon="7.976332096995215"><ele>359.5</ele><time>2026-04-12T06:27:34Z</time></trkpt><trkpt lat="44.527087022123816" lon="7.9762328803481575"><ele>360.0</ele><time>2026-04-12T06:27:36Z</time></trkpt><trkpt lat="44.52716279558469" lon="7.976165430539346"><ele>360.0</ele><time>2026-04-12T06:27:38Z</time></trkpt><trkpt lat="44.5272215381761" lon="7.976087953598559"><ele>360.0</ele><time>2026-04-12T06:27:40Z</time></trkpt><trkpt lat="44.527286714314535" lon="7.97601412850157"><ele>360.0</ele><time>2026-04-12T06:27:42Z</time></trkpt><trkpt lat="44.52734873311157" lon="7.975950248317844"><ele>360.0</ele><time>2026-04-12T06:27:44Z</time></trkpt><trkpt lat="44.527405184674976" lon="7.975874597346121"><ele>360.0</ele><time>2026-04-12T06:27:46Z</time></trkpt><trkpt lat="44.52746902265075" lon="7.975840230430954"><ele>360.0</ele><time>2026-04-12T06:27:48Z</time></trkpt><trkpt lat="44.52752498841376" lon="7.975743892799088"><ele>361.0</ele><time>2026-04-12T06:27:50Z</time></trkpt><trkpt lat="44.527592700018516" lon="7.975677726855805"><ele>362.0</ele><time>2026-04-12T06:27:52Z</time></trkpt><trkpt lat="44.52765525431068" lon="7.975602314579851"><ele>363.0</ele><time>2026-04-12T06:27:54Z</time></trkpt><trkpt lat="44.52771711384042" lon="7.975536569772835"><ele>364.0</ele><time>2026-04-12T06:27:56Z</time></trkpt><trkpt lat="44.527783459668186" lon="7.97546029508827"><ele>365.0</ele><time>2026-04-12T06:27:58Z</time></trkpt><trkpt lat="44.52783223578039" lon="7.9753842383544455"><ele>366.0</ele><time>2026-04-12T06:28:00Z</time></trkpt><trkpt lat="44.527894663370304" lon="7.975326339360386"><ele>366.0</ele><time>2026-04-12T06:28:02Z</time></trkpt><trkpt lat="44.527967224561735" lon="7.975243697226971"><ele>366.0</ele><time>2026-04-12T06:28:04Z</time></trkpt><trkpt lat="44.528030647150274" lon="7.975197814606597"><ele>366.0</ele><time>2026-04-12T06:28:06.999Z</time></trkpt><trkpt lat="44.528098262250175" lon="7.975130717633224"><ele>366.0</ele><time>2026-04-12T06:28:08.999Z</time></trkpt><trkpt lat="44.52813912898299" lon="7.975024480084963"><ele>366.0</ele><time>2026-04-12T06:28:11.999Z</time></trkpt><trkpt lat="44.52818501704331" lon="7.9749456087534085"><ele>366.0</ele><time>2026-04-12T06:28:13.999Z</time></trkpt><trkpt lat="44.52822694437129" lon="7.974851400508207"><ele>363.4</ele><time>2026-04-12T06:28:15.999Z</time></trkpt><trkpt lat="44.52828376123077" lon="7.974746493881858"><ele>360.8</ele><time>2026-04-12T06:28:17.999Z</time></trkpt><trkpt lat="44.528332296937585" lon="7.974609036035053"><ele>358.2</ele><time>2026-04-12T06:28:19.999Z</time></trkpt><trkpt lat="44.52839283540348" lon="7.974470735725379"><ele>355.59999999999997</ele><time>2026-04-12T06:28:21.999Z</time></trkpt><trkpt lat="44.5284552939694" lon="7.974315069768382"><ele>353.0</ele><time>2026-04-12T06:28:23.999Z</time></trkpt><trkpt lat="44.52848991310219" lon="7.974232209442818"><ele>354.6666666666667</ele><time>2026-04-12T06:28:24.999Z</time></trkpt><trkpt lat="44.52852951950115" lon="7.974148454718393"><ele>356.33333333333337</ele><time>2026-04-12T06:28:25.999Z</time></trkpt><trkpt lat="44.52856427253248" lon="7.974060307127049"><ele>358.0</ele><time>2026-04-12T06:28:26.999Z</time></trkpt><trkpt lat="44.52860429586943" lon="7.973972838119535"><ele>359.6666666666667</ele><time>2026-04-12T06:28:27.999Z</time></trkpt><trkpt lat="44.52864116398525" lon="7.973874701985055"><ele>361.3333333333333</ele><time>2026-04-12T06:28:28.999Z</time></trkpt><trkpt lat="44.52868398523885" lon="7.973776557794376"><ele>363.0</ele><time>2026-04-12T06:28:29.999Z</time></trkpt><trkpt lat="44.52875262405738" lon="7.973671816313137"><ele>363.0</ele><time>2026-04-12T06:28:30.999Z</time></trkpt><trkpt lat="44.5287929174305" lon="7.973584233721747"><ele>363.0</ele><time>2026-04-12T06:28:31.999Z</time></trkpt><trkpt lat="44.52883148892965" lon="7.973474497824639"><ele>363.0</ele><time>2026-04-12T06:28:32.999Z</time></trkpt><trkpt lat="44.528874550728474" lon="7.973365113654947"><ele>363.0</ele><time>2026-04-12T06:28:33.999Z</time></trkpt><trkpt lat="44.528928550832255" lon="7.973256085579173"><ele>363.0</ele><time>2026-04-12T06:28:34.999Z</time></trkpt><trkpt lat="44.528970982970435" lon="7.973138645263671"><ele>363.0</ele><time>2026-04-12T06:28:35.999Z</time></trkpt><trkpt lat="44.52902403408899" lon="7.973023032023945"><ele>360.4</ele><time>2026-04-12T06:28:36.999Z</time></trkpt><trkpt lat="44.52907730105958" lon="7.972907065862837"><ele>357.79999999999995</ele><time>2026-04-12T06:28:37.999Z</time></trkpt><trkpt lat="44.52911827443316" lon="7.972803436461509"><ele>355.2</ele><time>2026-04-12T06:28:38.999Z</time></trkpt><trkpt lat="44.52918086295894" lon="7.97267484768483"><ele>352.6</ele><time>2026-04-12T06:28:39.999Z</time></trkpt><trkpt lat="44.529236344461744" lon="7.972548360186001"><ele>350.0</ele><time>2026-04-12T06:28:40.999Z</time></trkpt><trkpt lat="44.529290828650076" lon="7.972424509422607"><ele>349.8</ele><time>2026-04-12T06:28:41.999Z</time></trkpt><trkpt lat="44.529348858632595" lon="7.9723048431917976"><ele>349.6</ele><time>2026-04-12T06:28:42.999Z</time></trkpt><trkpt lat="44.529404789493384" lon="7.972182774151495"><ele>349.4</ele><time>2026-04-12T06:28:43.999Z</time></trkpt><trkpt lat="44.52946591828299" lon="7.97205840064517"><ele>349.2</ele><time>2026-04-12T06:28:44.999Z</time></trkpt><trkpt lat="44.52952946212128" lon="7.9719338862363935"><ele>349.0</ele><time>2026-04-12T06:28:45.999Z</time></trkpt><trkpt lat="44.529588955591116" lon="7.971802904716972"><ele>346.4</ele><time>2026-04-12T06:28:46.999Z</time></trkpt><trkpt lat="44.529642150783154" lon="7.9716697106881185"><ele>343.79999999999995</ele><time>2026-04-12T06:28:47.999Z</time></trkpt><trkpt lat="44.52969559012466" lon="7.971536137328948"><ele>341.20000000000005</ele><time>2026-04-12T06:28:48.999Z</time></trkpt><trkpt lat="44.52975372883554" lon="7.971403482891139"><ele>338.6</ele><time>2026-04-12T06:28:49.999Z</time></trkpt><trkpt lat="44.52981824438125" lon="7.971271934898817"><ele>336.0</ele><time>2026-04-12T06:28:50.999Z</time></trkpt><trkpt lat="44.52987519926481" lon="7.971136257014634"><ele>336.0</ele><time>2026-04-12T06:28:51.999Z</time></trkpt><trkpt lat="44.529935959820875" lon="7.970996904874237"><ele>336.0</ele><time>2026-04-12T06:28:52.999Z</time></trkpt><trkpt lat="44.52999761653473" lon="7.970860524415259"><ele>336.0</ele><time>2026-04-12T06:28:53.999Z</time></trkpt><trkpt lat="44.53006029070457" lon="7.9707223776444"><ele>336.0</ele><time>2026-04-12T06:28:54.999Z</time></trkpt><trkpt lat="44.53012247120371" lon="7.97058450192879"><ele>333.25</ele><time>2026-04-12T06:28:55.999Z</time></trkpt><trkpt lat="44.53018523951209" lon="7.970444870278728"><ele>330.5</ele><time>2026-04-12T06:28:56.999Z</time></trkpt><trkpt lat="44.530245607136386" lon="7.970302478068748"><ele>327.75</ele><time>2026-04-12T06:28:57.999Z</time></trkpt><trkpt lat="44.530313951994685" lon="7.970161326614545"><ele>325.0</ele><time>2026-04-12T06:28:58.999Z</time></trkpt><trkpt lat="44.53037346362552" lon="7.970014829403696"><ele>326.0</ele><time>2026-04-12T06:28:59.999Z</time></trkpt><trkpt lat="44.53043591718821" lon="7.969871857622773"><ele>327.0</ele><time>2026-04-12T06:29:00.999Z</time></trkpt><trkpt lat="44.530496650474525" lon="7.969728844905515"><ele>328.0</ele><time>2026-04-12T06:29:01.999Z</time></trkpt><trkpt lat="44.53055523635645" lon="7.969585267111504"><ele>329.0</ele><time>2026-04-12T06:29:02.999Z</time></trkpt><trkpt lat="44.53061506786504" lon="7.969446769297329"><ele>329.0</ele><time>2026-04-12T06:29:03.999Z</time></trkpt><trkpt lat="44.530673846503454" lon="7.969310457427691"><ele>329.0</ele><time>2026-04-12T06:29:04.999Z</time></trkpt><trkpt lat="44.5307300846139" lon="7.969174349080117"><ele>329.0</ele><time>2026-04-12T06:29:05.999Z</time></trkpt><trkpt lat="44.5307894782478" lon="7.969039279890822"><ele>329.0</ele><time>2026-04-12T06:29:06.999Z</time></trkpt><trkpt lat="44.53084599211814" lon="7.968906031909875"><ele>329.0</ele><time>2026-04-12T06:29:07.999Z</time></trkpt><trkpt lat="44.53090590737717" lon="7.968773208247329"><ele>326.59999999999997</ele><time>2026-04-12T06:29:08.999Z</time></trkpt><trkpt lat="44.53096541843162" lon="7.968641403927648"><ele>324.2</ele><time>2026-04-12T06:29:09.999Z</time></trkpt><trkpt lat="44.53102402018169" lon="7.968508516021505"><ele>321.79999999999995</ele><time>2026-04-12T06:29:10.999Z</time></trkpt><trkpt lat="44.53108125140031" lon="7.9683726591895265"><ele>319.4</ele><time>2026-04-12T06:29:11.999Z</time></trkpt><trkpt lat="44.531138496187175" lon="7.968237942273391"><ele>317.0</ele><time>2026-04-12T06:29:12.999Z</time></trkpt><trkpt lat="44.53119613787921" lon="7.968104470626371"><ele>318.75</ele><time>2026-04-12T06:29:13.999Z</time></trkpt><trkpt lat="44.53125115402266" lon="7.967972390756258"><ele>320.5</ele><time>2026-04-12T06:29:14.999Z</time></trkpt><trkpt lat="44.53131115591295" lon="7.967838449185191"><ele>322.25</ele><time>2026-04-12T06:29:15.999Z</time></trkpt><trkpt lat="44.53137148943955" lon="7.967701905022608"><ele>324.0</ele><time>2026-04-12T06:29:16.999Z</time></trkpt><trkpt lat="44.53143269518849" lon="7.967561526526862"><ele>321.5</ele><time>2026-04-12T06:29:17.999Z</time></trkpt><trkpt lat="44.53149362444986" lon="7.9674216139153415"><ele>319.0</ele><time>2026-04-12T06:29:18.999Z</time></trkpt><trkpt lat="44.5315571039433" lon="7.9672816876395"><ele>316.5</ele><time>2026-04-12T06:29:19.999Z</time></trkpt><trkpt lat="44.53162311883718" lon="7.967141300189379"><ele>314.0</ele><time>2026-04-12T06:29:21Z</time></trkpt><trkpt lat="44.531693689914114" lon="7.9670067836046865"><ele>314.0</ele><time>2026-04-12T06:29:22Z</time></trkpt><trkpt lat="44.531776381718615" lon="7.966883140765974"><ele>314.0</ele><time>2026-04-12T06:29:23Z</time></trkpt><trkpt lat="44.531864486138794" lon="7.966765494949246"><ele>314.0</ele><time>2026-04-12T06:29:24Z</time></trkpt><trkpt lat="44.53194703987966" lon="7.966649966483526"><ele>314.0</ele><time>2026-04-12T06:29:25Z</time></trkpt><trkpt lat="44.532028119454246" lon="7.966532753752133"><ele>312.4</ele><time>2026-04-12T06:29:26Z</time></trkpt><trkpt lat="44.53210613147016" lon="7.966411327378041"><ele>310.79999999999995</ele><time>2026-04-12T06:29:27Z</time></trkpt><trkpt lat="44.53218400617388" lon="7.966297386215807"><ele>309.20000000000005</ele><time>2026-04-12T06:29:28Z</time></trkpt><trkpt lat="44.53225612591758" lon="7.966189218778554"><ele>307.6</ele><time>2026-04-12T06:29:29Z</time></trkpt><trkpt lat="44.5323167955021" lon="7.96607129278148"><ele>306.0</ele><time>2026-04-12T06:29:30Z</time></trkpt><trkpt lat="44.532375081386974" lon="7.965948703385484"><ele>306.0</ele><time>2026-04-12T06:29:31Z</time></trkpt><trkpt lat="44.53242804229683" lon="7.965825511580338"><ele>306.0</ele><time>2026-04-12T06:29:32Z</time></trkpt><trkpt lat="44.53247573832108" lon="7.965701885349782"><ele>306.0</ele><time>2026-04-12T06:29:33Z</time></trkpt><trkpt lat="44.53252270317784" lon="7.965581922041833"><ele>306.0</ele><time>2026-04-12T06:29:34Z</time></trkpt><trkpt lat="44.53256743644065" lon="7.965465225547217"><ele>306.0</ele><time>2026-04-12T06:29:35Z</time></trkpt><trkpt lat="44.532613250237176" lon="7.965351064060123"><ele>306.0</ele><time>2026-04-12T06:29:36Z</time></trkpt><trkpt lat="44.53265969333554" lon="7.965240435951137"><ele>306.0</ele><time>2026-04-12T06:29:37Z</time></trkpt><trkpt lat="44.53270365283085" lon="7.965131576150958"><ele>306.0</ele><time>2026-04-12T06:29:38Z</time></trkpt><trkpt lat="44.53274776112147" lon="7.965024512029576"><ele>306.0</ele><time>2026-04-12T06:29:39Z</time></trkpt><trkpt lat="44.53278817729426" lon="7.9649134282970895"><ele>306.0</ele><time>2026-04-12T06:29:40Z</time></trkpt><trkpt lat="44.532826430948894" lon="7.96480218372469"><ele>306.0</ele><time>2026-04-12T06:29:41Z</time></trkpt><trkpt lat="44.53286706199161" lon="7.9646947851615035"><ele>306.6666666666667</ele><time>2026-04-12T06:29:42Z</time></trkpt><trkpt lat="44.53290389757433" lon="7.964592366454933"><ele>307.3333333333333</ele><time>2026-04-12T06:29:43Z</time></trkpt><trkpt lat="44.532939729973236" lon="7.96448857927806"><ele>308.0</ele><time>2026-04-12T06:29:44Z</time></trkpt><trkpt lat="44.53297406976929" lon="7.964386931031662"><ele>308.66666666666663</ele><time>2026-04-12T06:29:45Z</time></trkpt><trkpt lat="44.533009677829085" lon="7.964283924777951"><ele>309.3333333333333</ele><time>2026-04-12T06:29:46Z</time></trkpt><trkpt lat="44.53304279263534" lon="7.964182501346855"><ele>310.0</ele><time>2026-04-12T06:29:47Z</time></trkpt><trkpt lat="44.53307250282567" lon="7.96408390955588"><ele>310.0</ele><time>2026-04-12T06:29:48Z</time></trkpt><trkpt lat="44.533101137923644" lon="7.963984845800063"><ele>310.0</ele><time>2026-04-12T06:29:49Z</time></trkpt><trkpt lat="44.533126390120664" lon="7.963887179984913"><ele>310.0</ele><time>2026-04-12T06:29:50Z</time></trkpt><trkpt lat="44.533151666059695" lon="7.963790303940433"><ele>310.0</ele><time>2026-04-12T06:29:51Z</time></trkpt><trkpt lat="44.53317906052012" lon="7.9636966367552615"><ele>310.0</ele><time>2026-04-12T06:29:52Z</time></trkpt><trkpt lat="44.53320356936807" lon="7.963603926871821"><ele>310.0</ele><time>2026-04-12T06:29:53Z</time></trkpt><trkpt lat="44.533230212914184" lon="7.963511689337062"><ele>310.0</ele><time>2026-04-12T06:29:54Z</time></trkpt><trkpt lat="44.53325828709248" lon="7.963421743278973"><ele>309.7142857142857</ele><time>2026-04-12T06:29:55Z</time></trkpt><trkpt lat="44.53328613706538" lon="7.963331347250434"><ele>309.42857142857144</ele><time>2026-04-12T06:29:56Z</time></trkpt><trkpt lat="44.53331160893409" lon="7.963242039045694"><ele>309.1428571428571</ele><time>2026-04-12T06:29:57Z</time></trkpt><trkpt lat="44.533337288915895" lon="7.9631526374708645"><ele>308.8571428571429</ele><time>2026-04-12T06:29:58Z</time></trkpt><trkpt lat="44.533362324170504" lon="7.963065983215476"><ele>308.57142857142856</ele><time>2026-04-12T06:29:59Z</time></trkpt><trkpt lat="44.53338896955382" lon="7.962977984115494"><ele>308.2857142857143</ele><time>2026-04-12T06:30:00Z</time></trkpt><trkpt lat="44.53341455787638" lon="7.962888053868965"><ele>308.0</ele><time>2026-04-12T06:30:01Z</time></trkpt><trkpt lat="44.53343867812836" lon="7.962798182795238"><ele>308.0</ele><time>2026-04-12T06:30:02Z</time></trkpt><trkpt lat="44.53346239164493" lon="7.962706756277616"><ele>308.0</ele><time>2026-04-12T06:30:03Z</time></trkpt><trkpt lat="44.53348494773086" lon="7.962613710292082"><ele>308.0</ele><time>2026-04-12T06:30:04Z</time></trkpt><trkpt lat="44.533505587011014" lon="7.9625186552372265"><ele>308.0</ele><time>2026-04-12T06:30:05Z</time></trkpt><trkpt lat="44.53352401750948" lon="7.962421185514179"><ele>308.0</ele><time>2026-04-12T06:30:06Z</time></trkpt><trkpt lat="44.53353625943396" lon="7.962323083615737"><ele>308.0</ele><time>2026-04-12T06:30:07Z</time></trkpt><trkpt lat="44.533548416328806" lon="7.962222848664226"><ele>308.0</ele><time>2026-04-12T06:30:08Z</time></trkpt><trkpt lat="44.53355895365633" lon="7.962121094593827"><ele>307.7142857142857</ele><time>2026-04-12T06:30:09Z</time></trkpt><trkpt lat="44.53356434487995" lon="7.962018443047697"><ele>307.42857142857144</ele><time>2026-04-12T06:30:10Z</time></trkpt><trkpt lat="44.53357389629013" lon="7.9619145660602415"><ele>307.1428571428571</ele><time>2026-04-12T06:30:11Z</time></trkpt><trkpt lat="44.533578927648904" lon="7.961811066257576"><ele>306.8571428571429</ele><time>2026-04-12T06:30:12Z</time></trkpt><trkpt lat="44.53358755668512" lon="7.961706682904248"><ele>306.57142857142856</ele><time>2026-04-12T06:30:12.999Z</time></trkpt><trkpt lat="44.53359546291639" lon="7.961602303776703"><ele>306.2857142857143</ele><time>2026-04-12T06:30:13.999Z</time></trkpt><trkpt lat="44.53360169614517" lon="7.961498533444787"><ele>306.0</ele><time>2026-04-12T06:30:14.999Z</time></trkpt><trkpt lat="44.533610386807226" lon="7.961394149927979"><ele>305.7142857142857</ele><time>2026-04-12T06:30:15.999Z</time></trkpt><trkpt lat="44.53362050878159" lon="7.961290710915211"><ele>305.42857142857144</ele><time>2026-04-12T06:30:16.999Z</time></trkpt><trkpt lat="44.53362549323806" lon="7.961185995340564"><ele>305.1428571428571</ele><time>2026-04-12T06:30:17.999Z</time></trkpt><trkpt lat="44.533631822120604" lon="7.9610822045734775"><ele>304.8571428571429</ele><time>2026-04-12T06:30:18.999Z</time></trkpt><trkpt lat="44.53363729883102" lon="7.96097874188898"><ele>304.5714285714286</ele><time>2026-04-12T06:30:19.999Z</time></trkpt><trkpt lat="44.5336423878371" lon="7.960877013454427"><ele>304.2857142857143</ele><time>2026-04-12T06:30:20.999Z</time></trkpt><trkpt lat="44.533648488949645" lon="7.960777430439915"><ele>304.0</ele><time>2026-04-12T06:30:21.999Z</time></trkpt><trkpt lat="44.53365399068769" lon="7.960675858783855"><ele>303.7142857142857</ele><time>2026-04-12T06:30:22.999Z</time></trkpt><trkpt lat="44.53366144815535" lon="7.9605737470197875"><ele>303.42857142857144</ele><time>2026-04-12T06:30:23.999Z</time></trkpt><trkpt lat="44.533665409789336" lon="7.960469662302381"><ele>303.14285714285717</ele><time>2026-04-12T06:30:24.999Z</time></trkpt><trkpt lat="44.5336679993325" lon="7.9603656913309715"><ele>302.8571428571429</ele><time>2026-04-12T06:30:25.999Z</time></trkpt><trkpt lat="44.53367099526142" lon="7.960261752063666"><ele>302.57142857142856</ele><time>2026-04-12T06:30:26.999Z</time></trkpt><trkpt lat="44.53367813880173" lon="7.960159269860063"><ele>302.28571428571433</ele><time>2026-04-12T06:30:27.999Z</time></trkpt><trkpt lat="44.53368162766784" lon="7.960053695196591"><ele>302.0</ele><time>2026-04-12T06:30:28.999Z</time></trkpt><trkpt lat="44.53368607114138" lon="7.959946508969822"><ele>301.42857142857144</ele><time>2026-04-12T06:30:29.999Z</time></trkpt><trkpt lat="44.53369279586305" lon="7.9598447219798265"><ele>300.8571428571429</ele><time>2026-04-12T06:30:30.999Z</time></trkpt><trkpt lat="44.533693110928475" lon="7.959743046063973"><ele>300.2857142857143</ele><time>2026-04-12T06:30:31.999Z</time></trkpt><trkpt lat="44.53369438711435" lon="7.959640897908606"><ele>299.7142857142857</ele><time>2026-04-12T06:30:32.999Z</time></trkpt><trkpt lat="44.53369353085473" lon="7.959540889327108"><ele>299.1428571428571</ele><time>2026-04-12T06:30:33.999Z</time></trkpt><trkpt lat="44.53369400332951" lon="7.959439333478175"><ele>298.57142857142856</ele><time>2026-04-12T06:30:34.999Z</time></trkpt><trkpt lat="44.53369033683139" lon="7.959337583015471"><ele>298.0</ele><time>2026-04-12T06:30:35.999Z</time></trkpt><trkpt lat="44.53368763824665" lon="7.959237189718941"><ele>298.0</ele><time>2026-04-12T06:30:36.999Z</time></trkpt><trkpt lat="44.5336846858678" lon="7.959133900988078"><ele>298.0</ele><time>2026-04-12T06:30:37.999Z</time></trkpt><trkpt lat="44.53367844590959" lon="7.959032217504976"><ele>298.0</ele><time>2026-04-12T06:30:38.999Z</time></trkpt><trkpt lat="44.53367292710986" lon="7.958930048033868"><ele>298.0</ele><time>2026-04-12T06:30:39.999Z</time></trkpt><trkpt lat="44.53366807575497" lon="7.958828755795757"><ele>298.0</ele><time>2026-04-12T06:30:40.999Z</time></trkpt><trkpt lat="44.53365870144767" lon="7.958728706131798"><ele>298.0</ele><time>2026-04-12T06:30:41.999Z</time></trkpt><trkpt lat="44.53365026067471" lon="7.958631121125129"><ele>298.0</ele><time>2026-04-12T06:30:42.999Z</time></trkpt><trkpt lat="44.53364793882489" lon="7.958529636960241"><ele>298.0</ele><time>2026-04-12T06:30:43.999Z</time></trkpt><trkpt lat="44.5336402473287" lon="7.958431203546041"><ele>298.0</ele><time>2026-04-12T06:30:44.999Z</time></trkpt><trkpt lat="44.53363275044202" lon="7.9583321047642706"><ele>298.0</ele><time>2026-04-12T06:30:45.999Z</time></trkpt><trkpt lat="44.53362749943685" lon="7.958234831951434"><ele>298.0</ele><time>2026-04-12T06:30:46.999Z</time></trkpt><trkpt lat="44.53361994544243" lon="7.958138281344108"><ele>298.0</ele><time>2026-04-12T06:30:47.999Z</time></trkpt><trkpt lat="44.533612323195435" lon="7.958040785489118"><ele>298.0</ele><time>2026-04-12T06:30:48.999Z</time></trkpt><trkpt lat="44.53360316988088" lon="7.957946231645414"><ele>298.0</ele><time>2026-04-12T06:30:49.999Z</time></trkpt><trkpt lat="44.533593737969845" lon="7.957856711738498"><ele>298.0</ele><time>2026-04-12T06:30:50.999Z</time></trkpt><trkpt lat="44.53358732682038" lon="7.957765662438033"><ele>298.0</ele><time>2026-04-12T06:30:51.999Z</time></trkpt><trkpt lat="44.53357887987774" lon="7.957672647556934"><ele>298.0</ele><time>2026-04-12T06:30:52.999Z</time></trkpt><trkpt lat="44.53357007757423" lon="7.957581583763791"><ele>298.0</ele><time>2026-04-12T06:30:53.999Z</time></trkpt><trkpt lat="44.5335680398177" lon="7.957481164864938"><ele>298.0</ele><time>2026-04-12T06:30:54.999Z</time></trkpt><trkpt lat="44.53356378463101" lon="7.9573923970634635"><ele>298.0</ele><time>2026-04-12T06:30:55.999Z</time></trkpt><trkpt lat="44.533557897389095" lon="7.957220638067552"><ele>298.5</ele><time>2026-04-12T06:30:57.999Z</time></trkpt><trkpt lat="44.5335359032993" lon="7.957057857339413"><ele>299.0</ele><time>2026-04-12T06:30:59.999Z</time></trkpt><trkpt lat="44.53347352166336" lon="7.956909589781915"><ele>299.5</ele><time>2026-04-12T06:31:01.999Z</time></trkpt><trkpt lat="44.53346095364523" lon="7.95682061526941"><ele>300.0</ele><time>2026-04-12T06:31:02.999Z</time></trkpt><trkpt lat="44.53343949414978" lon="7.956727086013618"><ele>300.5</ele><time>2026-04-12T06:31:03.999Z</time></trkpt><trkpt lat="44.53341990322185" lon="7.956631906867129"><ele>301.0</ele><time>2026-04-12T06:31:04.999Z</time></trkpt><trkpt lat="44.53339705710418" lon="7.956533747537981"><ele>301.3333333333333</ele><time>2026-04-12T06:31:05.999Z</time></trkpt><trkpt lat="44.533372818841066" lon="7.956436780289893"><ele>301.66666666666663</ele><time>2026-04-12T06:31:06.999Z</time></trkpt><trkpt lat="44.533348316002986" lon="7.956337786962096"><ele>302.0</ele><time>2026-04-12T06:31:07.999Z</time></trkpt><trkpt lat="44.53332431659805" lon="7.956238655737621"><ele>302.3333333333333</ele><time>2026-04-12T06:31:08.999Z</time></trkpt><trkpt lat="44.53330201015092" lon="7.956133542480815"><ele>302.6666666666667</ele><time>2026-04-12T06:31:09.999Z</time></trkpt><trkpt lat="44.533277592724765" lon="7.9560271453305935"><ele>303.0</ele><time>2026-04-12T06:31:10.999Z</time></trkpt><trkpt lat="44.533251729151644" lon="7.955920341471591"><ele>302.8333333333333</ele><time>2026-04-12T06:31:11.999Z</time></trkpt><trkpt lat="44.53322608843185" lon="7.95581161067811"><ele>302.6666666666667</ele><time>2026-04-12T06:31:12.999Z</time></trkpt><trkpt lat="44.533201145796944" lon="7.955703828895954"><ele>302.5</ele><time>2026-04-12T06:31:13.999Z</time></trkpt><trkpt lat="44.53317703557281" lon="7.955596439488005"><ele>302.33333333333337</ele><time>2026-04-12T06:31:14.999Z</time></trkpt><trkpt lat="44.533154864765265" lon="7.955492025366721"><ele>302.1666666666667</ele><time>2026-04-12T06:31:15.999Z</time></trkpt><trkpt lat="44.53313006757342" lon="7.955390703599342"><ele>302.0</ele><time>2026-04-12T06:31:16.999Z</time></trkpt><trkpt lat="44.533113757791924" lon="7.955293336231663"><ele>302.0</ele><time>2026-04-12T06:31:17.999Z</time></trkpt><trkpt lat="44.53309280202249" lon="7.955197265337897"><ele>302.0</ele><time>2026-04-12T06:31:18.999Z</time></trkpt><trkpt lat="44.533075992113595" lon="7.955109585737869"><ele>302.0</ele><time>2026-04-12T06:31:19.999Z</time></trkpt><trkpt lat="44.53304337734269" lon="7.954953236633652"><ele>302.0</ele><time>2026-04-12T06:31:21.999Z</time></trkpt><trkpt lat="44.53301679352496" lon="7.954821733672914"><ele>302.0</ele><time>2026-04-12T06:31:23.999Z</time></trkpt><trkpt lat="44.532995836726485" lon="7.954734936135121"><ele>302.0</ele><time>2026-04-12T06:31:25.999Z</time></trkpt><trkpt lat="44.532976684916875" lon="7.954650808775717"><ele>301.6666666666667</ele><time>2026-04-12T06:31:30Z</time></trkpt><trkpt lat="44.53295048654788" lon="7.954551101744375"><ele>301.33333333333337</ele><time>2026-04-12T06:31:38Z</time></trkpt><trkpt lat="44.53292224861497" lon="7.954433114729034"><ele>301.0</ele><time>2026-04-12T06:31:41Z</time></trkpt><trkpt lat="44.53290752464878" lon="7.954317250884243"><ele>300.6666666666667</ele><time>2026-04-12T06:31:44Z</time></trkpt><trkpt lat="44.532881725601676" lon="7.954207482360236"><ele>300.3333333333333</ele><time>2026-04-12T06:31:47Z</time></trkpt><trkpt lat="44.53286083417728" lon="7.95411739089557"><ele>300.0</ele><time>2026-04-12T06:31:49Z</time></trkpt><trkpt lat="44.532828534805645" lon="7.954019822404606"><ele>299.5</ele><time>2026-04-12T06:31:51Z</time></trkpt><trkpt lat="44.532810316203225" lon="7.953925943734851"><ele>299.0</ele><time>2026-04-12T06:31:53Z</time></trkpt><trkpt lat="44.532786109026596" lon="7.9538239916103946"><ele>298.5</ele><time>2026-04-12T06:31:55Z</time></trkpt><trkpt lat="44.532757748878225" lon="7.953715694749216"><ele>298.0</ele><time>2026-04-12T06:31:57Z</time></trkpt><trkpt lat="44.532731205635535" lon="7.9535941632733325"><ele>297.5</ele><time>2026-04-12T06:31:59Z</time></trkpt><trkpt lat="44.53270361579638" lon="7.953475877684697"><ele>297.0</ele><time>2026-04-12T06:32:01Z</time></trkpt><trkpt lat="44.532673484209404" lon="7.9533659891725685"><ele>297.0</ele><time>2026-04-12T06:32:03Z</time></trkpt><trkpt lat="44.53265417161033" lon="7.953249854823295"><ele>297.0</ele><time>2026-04-12T06:32:05Z</time></trkpt><trkpt lat="44.53261955709001" lon="7.953130602177766"><ele>297.0</ele><time>2026-04-12T06:32:07Z</time></trkpt><trkpt lat="44.53259085513115" lon="7.9530097159491095"><ele>297.0</ele><time>2026-04-12T06:32:09Z</time></trkpt><trkpt lat="44.532557243515065" lon="7.952882236582635"><ele>297.0</ele><time>2026-04-12T06:32:11Z</time></trkpt><trkpt lat="44.53252611880367" lon="7.952759891995793"><ele>297.0</ele><time>2026-04-12T06:32:13Z</time></trkpt><trkpt lat="44.532491879943414" lon="7.952634824789966"><ele>297.0</ele><time>2026-04-12T06:32:15Z</time></trkpt><trkpt lat="44.532458586779725" lon="7.9525034654574505"><ele>297.0</ele><time>2026-04-12T06:32:17Z</time></trkpt><trkpt lat="44.53242148948405" lon="7.95237151332954"><ele>297.0</ele><time>2026-04-12T06:32:18.999Z</time></trkpt><trkpt lat="44.53238731883873" lon="7.952230660948102"><ele>297.0</ele><time>2026-04-12T06:32:20.999Z</time></trkpt><trkpt lat="44.5323487255355" lon="7.952085087397907"><ele>296.6</ele><time>2026-04-12T06:32:22.999Z</time></trkpt><trkpt lat="44.532309572460065" lon="7.951931924590094"><ele>296.2</ele><time>2026-04-12T06:32:24.999Z</time></trkpt><trkpt lat="44.53226696362987" lon="7.951788727262143"><ele>295.8</ele><time>2026-04-12T06:32:26.999Z</time></trkpt><trkpt lat="44.53223875517989" lon="7.951637292465974"><ele>295.4</ele><time>2026-04-12T06:32:28.999Z</time></trkpt><trkpt lat="44.53221068218831" lon="7.951491792803641"><ele>295.0</ele><time>2026-04-12T06:32:30.999Z</time></trkpt><trkpt lat="44.53217344343637" lon="7.951342779008533"><ele>295.0</ele><time>2026-04-12T06:32:32.999Z</time></trkpt><trkpt lat="44.53213775358604" lon="7.951201337069026"><ele>295.0</ele><time>2026-04-12T06:32:34.999Z</time></trkpt><trkpt lat="44.53210351231044" lon="7.951058121952263"><ele>295.0</ele><time>2026-04-12T06:32:36.999Z</time></trkpt><trkpt lat="44.53208304299827" lon="7.950907296406788"><ele>295.0</ele><time>2026-04-12T06:32:38.999Z</time></trkpt><trkpt lat="44.53207858308925" lon="7.950750399533485"><ele>295.0</ele><time>2026-04-12T06:32:40.999Z</time></trkpt><trkpt lat="44.532079163642756" lon="7.9505898071623315"><ele>295.0</ele><time>2026-04-12T06:32:42.999Z</time></trkpt><trkpt lat="44.53208174390679" lon="7.9504228538334925"><ele>295.0</ele><time>2026-04-12T06:32:44.999Z</time></trkpt><trkpt lat="44.53207744397253" lon="7.950256585068415"><ele>295.0</ele><time>2026-04-12T06:32:46.999Z</time></trkpt><trkpt lat="44.5320748338066" lon="7.950095240258026"><ele>295.0</ele><time>2026-04-12T06:32:48.999Z</time></trkpt><trkpt lat="44.532066007104305" lon="7.949937962098834"><ele>294.2</ele><time>2026-04-12T06:32:50.999Z</time></trkpt><trkpt lat="44.53202439558087" lon="7.949792011613509"><ele>293.4</ele><time>2026-04-12T06:32:52.999Z</time></trkpt><trkpt lat="44.53194388115699" lon="7.949673098501761"><ele>292.6</ele><time>2026-04-12T06:32:54.999Z</time></trkpt><trkpt lat="44.53184466204335" lon="7.949588618914906"><ele>291.8</ele><time>2026-04-12T06:32:56.999Z</time></trkpt><trkpt lat="44.531787858009615" lon="7.949544817488889"><ele>291.0</ele><time>2026-04-12T06:32:57.999Z</time></trkpt><trkpt lat="44.531720670747625" lon="7.94951150004345"><ele>291.0</ele><time>2026-04-12T06:32:58.999Z</time></trkpt><trkpt lat="44.53165693084975" lon="7.949481701646738"><ele>291.0</ele><time>2026-04-12T06:32:59.999Z</time></trkpt><trkpt lat="44.531585714927026" lon="7.9494641816844664"><ele>291.0</ele><time>2026-04-12T06:33:00.999Z</time></trkpt><trkpt lat="44.531510821468714" lon="7.94944480513809"><ele>291.0</ele><time>2026-04-12T06:33:01.999Z</time></trkpt><trkpt lat="44.53143199617164" lon="7.949434274540329"><ele>291.0</ele><time>2026-04-12T06:33:02.999Z</time></trkpt><trkpt lat="44.53135150332496" lon="7.949422170597315"><ele>291.0</ele><time>2026-04-12T06:33:03.999Z</time></trkpt><trkpt lat="44.531271489440904" lon="7.949408492411234"><ele>290.5</ele><time>2026-04-12T06:33:04.999Z</time></trkpt><trkpt lat="44.53118965231933" lon="7.9494009454832995"><ele>290.0</ele><time>2026-04-12T06:33:05.999Z</time></trkpt><trkpt lat="44.53111901514116" lon="7.9493879305016115"><ele>289.5</ele><time>2026-04-12T06:33:06.999Z</time></trkpt><trkpt lat="44.53105382723346" lon="7.949375265236148"><ele>289.0</ele><time>2026-04-12T06:33:07.999Z</time></trkpt><trkpt lat="44.53093784164626" lon="7.949373181963851"><ele>288.5</ele><time>2026-04-12T06:33:09.999Z</time></trkpt><trkpt lat="44.53084389599257" lon="7.949376612811952"><ele>288.0</ele><time>2026-04-12T06:33:11.999Z</time></trkpt><trkpt lat="44.53077434634957" lon="7.949375624063967"><ele>288.00000000000006</ele><time>2026-04-12T06:33:13.999Z</time></trkpt><trkpt lat="44.530721651448076" lon="7.949289300334504"><ele>288.0</ele><time>2026-04-12T06:33:16.999Z</time></trkpt><trkpt lat="44.530659863848335" lon="7.94932494706157"><ele>288.0</ele><time>2026-04-12T06:33:20.999Z</time></trkpt><trkpt lat="44.53064634073592" lon="7.949424774006871"><ele>288.0</ele><time>2026-04-12T06:33:25.999Z</time></trkpt><trkpt lat="44.530605826464914" lon="7.949511709443278"><ele>288.0</ele><time>2026-04-12T06:33:31.999Z</time></trkpt><trkpt lat="44.530612056635036" lon="7.949614298043724"><ele>288.00000000000006</ele><time>2026-04-12T06:33:37Z</time></trkpt><trkpt lat="44.53067602778964" lon="7.949645519348312"><ele>288.0</ele><time>2026-04-12T06:33:42Z</time></trkpt><trkpt lat="44.530677073765574" lon="7.9497606968712"><ele>288.0</ele><time>2026-04-12T06:33:46Z</time></trkpt><trkpt lat="44.53068377985096" lon="7.949852625809061"><ele>288.0</ele><time>2026-04-12T06:33:49Z</time></trkpt><trkpt lat="44.530694154793935" lon="7.949951480748518"><ele>288.0</ele><time>2026-04-12T06:33:52Z</time></trkpt><trkpt lat="44.530708874090884" lon="7.9500579459871945"><ele>288.0</ele><time>2026-04-12T06:33:55Z</time></trkpt><trkpt lat="44.53070872236739" lon="7.95017449991649"><ele>288.0</ele><time>2026-04-12T06:33:58Z</time></trkpt><trkpt lat="44.530716603278705" lon="7.9502755843522115"><ele>288.0</ele><time>2026-04-12T06:34:01Z</time></trkpt><trkpt lat="44.53072430402382" lon="7.9503889289387075"><ele>288.00000000000006</ele><time>2026-04-12T06:34:05Z</time></trkpt><trkpt lat="44.53067614477725" lon="7.950290010839708"><ele>288.0</ele><time>2026-04-12T06:34:10Z</time></trkpt><trkpt lat="44.530689320025694" lon="7.950174373606589"><ele>288.0</ele><time>2026-04-12T06:34:13Z</time></trkpt><trkpt lat="44.53068922209463" lon="7.950079637176162"><ele>288.0</ele><time>2026-04-12T06:34:15Z</time></trkpt><trkpt lat="44.53068548978578" lon="7.949979563305522"><ele>288.0</ele><time>2026-04-12T06:34:17Z</time></trkpt><trkpt lat="44.53067222799982" lon="7.949882220020574"><ele>288.00000000000006</ele><time>2026-04-12T06:34:19Z</time></trkpt><trkpt lat="44.53068737523729" lon="7.949785300247775"><ele>288.0</ele><time>2026-04-12T06:34:21Z</time></trkpt><trkpt lat="44.530670822722335" lon="7.949688243341489"><ele>288.0</ele><time>2026-04-12T06:34:23Z</time></trkpt><trkpt lat="44.5306686173121" lon="7.949593953098061"><ele>288.0</ele><time>2026-04-12T06:34:25Z</time></trkpt><trkpt lat="44.530688697811655" lon="7.9495021926570155"><ele>288.0</ele><time>2026-04-12T06:34:26.999Z</time></trkpt><trkpt lat="44.53069905683541" lon="7.949390472954333"><ele>288.0</ele><time>2026-04-12T06:34:29.999Z</time></trkpt><trkpt lat="44.53069569349006" lon="7.949270042832254"><ele>288.0</ele><time>2026-04-12T06:48:16Z</time></trkpt><trkpt lat="44.53074052471037" lon="7.949160022231884"><ele>288.0</ele><time>2026-04-12T06:48:18Z</time></trkpt><trkpt lat="44.53075148386381" lon="7.949040694075556"><ele>288.2</ele><time>2026-04-12T06:48:20Z</time></trkpt><trkpt lat="44.53076227695557" lon="7.948903474783258"><ele>288.4</ele><time>2026-04-12T06:48:22Z</time></trkpt><trkpt lat="44.53077471907828" lon="7.948765512154111"><ele>288.59999999999997</ele><time>2026-04-12T06:48:24Z</time></trkpt><trkpt lat="44.53078221508069" lon="7.948631660557216"><ele>288.8</ele><time>2026-04-12T06:48:26Z</time></trkpt><trkpt lat="44.530799420553784" lon="7.948496702606538"><ele>289.0</ele><time>2026-04-12T06:48:28Z</time></trkpt><trkpt lat="44.53081468891706" lon="7.948365323431284"><ele>289.0</ele><time>2026-04-12T06:48:30Z</time></trkpt><trkpt lat="44.53082843672618" lon="7.94823274359628"><ele>289.0</ele><time>2026-04-12T06:48:32Z</time></trkpt><trkpt lat="44.53084837870831" lon="7.948103815529077"><ele>289.0</ele><time>2026-04-12T06:48:34Z</time></trkpt><trkpt lat="44.53086794874618" lon="7.947989327227566"><ele>289.0</ele><time>2026-04-12T06:48:36Z</time></trkpt><trkpt lat="44.53087613017355" lon="7.947897188264465"><ele>289.0</ele><time>2026-04-12T06:48:38Z</time></trkpt><trkpt lat="44.53088437451694" lon="7.9477662335047885"><ele>289.0</ele><time>2026-04-12T06:49:20.999Z</time></trkpt><trkpt lat="44.53090065753492" lon="7.947663899126724"><ele>289.0</ele><time>2026-04-12T06:49:22.999Z</time></trkpt><trkpt lat="44.5309111148569" lon="7.947550159244338"><ele>289.0</ele><time>2026-04-12T06:49:24.999Z</time></trkpt><trkpt lat="44.530910645979596" lon="7.947443362778845"><ele>289.0</ele><time>2026-04-12T06:49:26.999Z</time></trkpt><trkpt lat="44.530831604449" lon="7.9474029617159445"><ele>289.0</ele><time>2026-04-12T06:49:28.999Z</time></trkpt><trkpt lat="44.530765487571934" lon="7.947427326972978"><ele>289.0</ele><time>2026-04-12T06:49:30.999Z</time></trkpt><trkpt lat="44.53070139684337" lon="7.947426677787163"><ele>289.0</ele><time>2026-04-12T06:49:32.999Z</time></trkpt><trkpt lat="44.53063597898299" lon="7.947446946264893"><ele>289.0</ele><time>2026-04-12T06:49:34.999Z</time></trkpt><trkpt lat="44.53056564452007" lon="7.947407365145692"><ele>288.5</ele><time>2026-04-12T06:49:38.999Z</time></trkpt><trkpt lat="44.530557338202314" lon="7.947311339470325"><ele>288.0</ele><time>2026-04-12T06:49:40.999Z</time></trkpt><trkpt lat="44.530539620979084" lon="7.947206481954885"><ele>287.5</ele><time>2026-04-12T06:49:42.999Z</time></trkpt><trkpt lat="44.53051675469582" lon="7.947120276915062"><ele>287.0</ele><time>2026-04-12T06:49:44.999Z</time></trkpt><trkpt lat="44.530545604221714" lon="7.946978315353529"><ele>286.5</ele><time>2026-04-12T06:49:46.999Z</time></trkpt><trkpt lat="44.53051318320039" lon="7.946900182549422"><ele>286.0</ele><time>2026-04-12T06:49:48.999Z</time></trkpt><trkpt lat="44.53051098157511" lon="7.9468010023337765"><ele>286.1428571428571</ele><time>2026-04-12T06:49:50.999Z</time></trkpt><trkpt lat="44.530524220889504" lon="7.946705772625849"><ele>286.2857142857143</ele><time>2026-04-12T06:49:52.999Z</time></trkpt><trkpt lat="44.53050550016543" lon="7.946611276866226"><ele>286.42857142857144</ele><time>2026-04-12T06:49:54.999Z</time></trkpt><trkpt lat="44.530519773414994" lon="7.946519042829935"><ele>286.57142857142856</ele><time>2026-04-12T06:49:56.999Z</time></trkpt><trkpt lat="44.53053091480271" lon="7.946408340895878"><ele>286.7142857142857</ele><time>2026-04-12T06:49:58.999Z</time></trkpt><trkpt lat="44.53053001627273" lon="7.946295734599542"><ele>286.85714285714283</ele><time>2026-04-12T06:50:00.999Z</time></trkpt><trkpt lat="44.53052622677433" lon="7.946183435466324"><ele>287.0</ele><time>2026-04-12T06:50:02.999Z</time></trkpt><trkpt lat="44.5305024321562" lon="7.94607761658647"><ele>287.0</ele><time>2026-04-12T06:50:04.999Z</time></trkpt><trkpt lat="44.5304899051279" lon="7.945966661728134"><ele>287.0</ele><time>2026-04-12T06:50:06.999Z</time></trkpt><trkpt lat="44.530477054282514" lon="7.945849260772171"><ele>287.0</ele><time>2026-04-12T06:50:08.999Z</time></trkpt><trkpt lat="44.53049397486555" lon="7.945746562177551"><ele>287.0</ele><time>2026-04-12T06:50:10.999Z</time></trkpt><trkpt lat="44.5305101214182" lon="7.945639450791677"><ele>287.0</ele><time>2026-04-12T06:50:13.999Z</time></trkpt><trkpt lat="44.5304694096746" lon="7.9454867125372335"><ele>287.0</ele><time>2026-04-12T06:50:16.999Z</time></trkpt><trkpt lat="44.530516578506884" lon="7.945398333359489"><ele>286.8</ele><time>2026-04-12T06:50:23Z</time></trkpt><trkpt lat="44.53054466115288" lon="7.945299774530564"><ele>286.6</ele><time>2026-04-12T06:50:28Z</time></trkpt><trkpt lat="44.530692019184094" lon="7.945321052988423"><ele>286.40000000000003</ele><time>2026-04-12T06:50:33Z</time></trkpt><trkpt lat="44.530770199463205" lon="7.945333145820577"><ele>286.2</ele><time>2026-04-12T06:50:35Z</time></trkpt><trkpt lat="44.530849858170285" lon="7.945353817181129"><ele>286.0</ele><time>2026-04-12T06:50:37Z</time></trkpt><trkpt lat="44.53092749540635" lon="7.945367960302893"><ele>286.0</ele><time>2026-04-12T06:50:39Z</time></trkpt><trkpt lat="44.531018604405055" lon="7.945382608079316"><ele>286.0</ele><time>2026-04-12T06:50:42Z</time></trkpt><trkpt lat="44.53107057040443" lon="7.9453236058467445"><ele>286.0</ele><time>2026-04-12T06:50:44Z</time></trkpt><trkpt lat="44.531144267778714" lon="7.945206606136231"><ele>286.0</ele><time>2026-04-12T06:50:46Z</time></trkpt><trkpt lat="44.53115466488775" lon="7.945051394592962"><ele>286.0</ele><time>2026-04-12T06:50:48Z</time></trkpt><trkpt lat="44.53114499599365" lon="7.944963688991539"><ele>286.0</ele><time>2026-04-12T06:50:49Z</time></trkpt><trkpt lat="44.5311666305942" lon="7.944872766117534"><ele>285.5</ele><time>2026-04-12T06:50:50Z</time></trkpt><trkpt lat="44.53117309151799" lon="7.944776315016777"><ele>285.0</ele><time>2026-04-12T06:50:51Z</time></trkpt><trkpt lat="44.53117963534949" lon="7.9446786263080424"><ele>284.5</ele><time>2026-04-12T06:50:52Z</time></trkpt><trkpt lat="44.53118695946822" lon="7.944583585353394"><ele>284.0</ele><time>2026-04-12T06:50:53Z</time></trkpt><trkpt lat="44.53119423932793" lon="7.94449022249471"><ele>283.5</ele><time>2026-04-12T06:50:54Z</time></trkpt><trkpt lat="44.53120121183896" lon="7.944400801284296"><ele>283.0</ele><time>2026-04-12T06:50:55Z</time></trkpt><trkpt lat="44.53120430701179" lon="7.9442437436681566"><ele>283.16666666666663</ele><time>2026-04-12T06:50:57Z</time></trkpt><trkpt lat="44.53121400323161" lon="7.944112724452762"><ele>283.3333333333333</ele><time>2026-04-12T06:50:59Z</time></trkpt><trkpt lat="44.531233206134445" lon="7.943982769970593"><ele>283.5</ele><time>2026-04-12T06:51:01Z</time></trkpt><trkpt lat="44.53124007613874" lon="7.943850385610603"><ele>283.6666666666667</ele><time>2026-04-12T06:51:03Z</time></trkpt><trkpt lat="44.531240516309516" lon="7.943719795063957"><ele>283.83333333333337</ele><time>2026-04-12T06:51:05Z</time></trkpt><trkpt lat="44.531261299329294" lon="7.943621263145019"><ele>284.0</ele><time>2026-04-12T06:51:07Z</time></trkpt><trkpt lat="44.53097802917848" lon="7.94353257535341"><ele>284.0</ele><time>2026-04-12T06:51:19.999Z</time></trkpt><trkpt lat="44.530887983450626" lon="7.943510695315692"><ele>284.0</ele><time>2026-04-12T06:51:22.999Z</time></trkpt><trkpt lat="44.530902892770726" lon="7.9432644201773694"><ele>284.0</ele><time>2026-04-12T06:51:28.999Z</time></trkpt><trkpt lat="44.53090953637381" lon="7.943120262451043"><ele>284.0</ele><time>2026-04-12T06:51:30.999Z</time></trkpt><trkpt lat="44.530917186861885" lon="7.942980629509518"><ele>283.83333333333337</ele><time>2026-04-12T06:51:32.999Z</time></trkpt><trkpt lat="44.53092465755876" lon="7.942848835132168"><ele>283.6666666666667</ele><time>2026-04-12T06:51:34.999Z</time></trkpt><trkpt lat="44.530837327523784" lon="7.9428231517472465"><ele>283.5</ele><time>2026-04-12T06:51:37.999Z</time></trkpt><trkpt lat="44.53079073033647" lon="7.942735075709612"><ele>283.3333333333333</ele><time>2026-04-12T06:51:38.999Z</time></trkpt><trkpt lat="44.53071498782772" lon="7.942754448393643"><ele>283.16666666666663</ele><time>2026-04-12T06:51:40.999Z</time></trkpt><trkpt lat="44.53063496193952" lon="7.942716352006112"><ele>283.0</ele><time>2026-04-12T06:51:42.999Z</time></trkpt><trkpt lat="44.530595736090504" lon="7.942561556603944"><ele>282.8</ele><time>2026-04-12T06:51:45.999Z</time></trkpt><trkpt lat="44.530592834606644" lon="7.942434449050937"><ele>282.6</ele><time>2026-04-12T06:51:47.999Z</time></trkpt><trkpt lat="44.53059449034922" lon="7.942289994473706"><ele>282.4</ele><time>2026-04-12T06:51:49.999Z</time></trkpt><trkpt lat="44.53059961592841" lon="7.942139684926502"><ele>282.2</ele><time>2026-04-12T06:51:51.999Z</time></trkpt><trkpt lat="44.53059166847875" lon="7.941976255026681"><ele>282.0</ele><time>2026-04-12T06:51:53.999Z</time></trkpt><trkpt lat="44.5306017320149" lon="7.941818525687856"><ele>281.6</ele><time>2026-04-12T06:51:55.999Z</time></trkpt><trkpt lat="44.53058557873469" lon="7.941664550547123"><ele>281.2</ele><time>2026-04-12T06:51:57.999Z</time></trkpt><trkpt lat="44.53058686341093" lon="7.941526867053314"><ele>280.8</ele><time>2026-04-12T06:51:59.999Z</time></trkpt><trkpt lat="44.530579841243316" lon="7.941372674900063"><ele>280.4</ele><time>2026-04-12T06:52:01.999Z</time></trkpt><trkpt lat="44.5305837024211" lon="7.941218745501255"><ele>280.0</ele><time>2026-04-12T06:52:03.999Z</time></trkpt><trkpt lat="44.53058854911842" lon="7.941069103760499"><ele>280.0</ele><time>2026-04-12T06:52:05.999Z</time></trkpt><trkpt lat="44.530595564704015" lon="7.940931575755458"><ele>280.0</ele><time>2026-04-12T06:52:07.999Z</time></trkpt><trkpt lat="44.530590791733125" lon="7.940794083865546"><ele>280.0</ele><time>2026-04-12T06:52:09.999Z</time></trkpt><trkpt lat="44.53059870669906" lon="7.940652612743148"><ele>280.0</ele><time>2026-04-12T06:52:11.999Z</time></trkpt><trkpt lat="44.53060510033958" lon="7.940525668741611"><ele>280.0</ele><time>2026-04-12T06:52:13.999Z</time></trkpt><trkpt lat="44.530613299611744" lon="7.940389231141833"><ele>280.0</ele><time>2026-04-12T06:52:15.999Z</time></trkpt><trkpt lat="44.5306088149417" lon="7.940255222660068"><ele>280.0</ele><time>2026-04-12T06:52:17.999Z</time></trkpt><trkpt lat="44.53060148658499" lon="7.940130222903476"><ele>280.0</ele><time>2026-04-12T06:52:19.999Z</time></trkpt><trkpt lat="44.53061252316427" lon="7.9400214543122"><ele>280.0</ele><time>2026-04-12T06:52:21.999Z</time></trkpt><trkpt lat="44.53069906963825" lon="7.939992726957311"><ele>280.0</ele><time>2026-04-12T06:52:23.999Z</time></trkpt><trkpt lat="44.53079059444962" lon="7.939984856488336"><ele>280.0</ele><time>2026-04-12T06:52:25.999Z</time></trkpt><trkpt lat="44.5308984440677" lon="7.939988072762594"><ele>279.6</ele><time>2026-04-12T06:52:28Z</time></trkpt><trkpt lat="44.53100906063734" lon="7.93998171939428"><ele>279.2</ele><time>2026-04-12T06:52:30Z</time></trkpt><trkpt lat="44.53111750653129" lon="7.939979905732832"><ele>278.8</ele><time>2026-04-12T06:52:32Z</time></trkpt><trkpt lat="44.531228347608355" lon="7.939975582135906"><ele>278.4</ele><time>2026-04-12T06:52:34Z</time></trkpt><trkpt lat="44.53132628982557" lon="7.939969227347202"><ele>278.0</ele><time>2026-04-12T06:52:36Z</time></trkpt><trkpt lat="44.53139963247819" lon="7.939963494127318"><ele>277.4</ele><time>2026-04-12T06:52:38Z</time></trkpt><trkpt lat="44.53146972122968" lon="7.9399726608392385"><ele>276.8</ele><time>2026-04-12T06:52:41Z</time></trkpt><trkpt lat="44.5315228284882" lon="7.939704282194586"><ele>276.2</ele><time>2026-04-12T06:52:48Z</time></trkpt><trkpt lat="44.53153860562736" lon="7.939615478714571"><ele>275.6</ele><time>2026-04-12T06:52:51Z</time></trkpt><trkpt lat="44.53154865191522" lon="7.939501419443046"><ele>275.0</ele><time>2026-04-12T06:52:55Z</time></trkpt><trkpt lat="44.53154377624959" lon="7.939367501803519"><ele>275.0</ele><time>2026-04-12T06:52:58Z</time></trkpt><trkpt lat="44.53157639875667" lon="7.939266807775163"><ele>275.0</ele><time>2026-04-12T06:53:00Z</time></trkpt><trkpt lat="44.53159152133036" lon="7.939157963638954"><ele>275.0</ele><time>2026-04-12T06:53:02Z</time></trkpt><trkpt lat="44.53159925109775" lon="7.939043403372291"><ele>275.0</ele><time>2026-04-12T06:53:04Z</time></trkpt><trkpt lat="44.53161580900737" lon="7.938906777899567"><ele>275.0</ele><time>2026-04-12T06:53:06Z</time></trkpt><trkpt lat="44.53160558172799" lon="7.938760319671055"><ele>275.0</ele><time>2026-04-12T06:53:08Z</time></trkpt><trkpt lat="44.53163364604263" lon="7.938627273936149"><ele>275.0</ele><time>2026-04-12T06:53:10Z</time></trkpt><trkpt lat="44.53163805118354" lon="7.938495224576262"><ele>275.0</ele><time>2026-04-12T06:53:12Z</time></trkpt><trkpt lat="44.53163923747123" lon="7.938366571681624"><ele>275.0</ele><time>2026-04-12T06:53:14Z</time></trkpt><trkpt lat="44.53164329292971" lon="7.9382291330450085"><ele>275.0</ele><time>2026-04-12T06:53:16Z</time></trkpt><trkpt lat="44.531660256228456" lon="7.9380787600180005"><ele>275.0</ele><time>2026-04-12T06:53:18Z</time></trkpt><trkpt lat="44.53167311465568" lon="7.937933506715759"><ele>274.8</ele><time>2026-04-12T06:53:20Z</time></trkpt><trkpt lat="44.53169350378581" lon="7.937795537762296"><ele>274.6</ele><time>2026-04-12T06:53:21.999Z</time></trkpt><trkpt lat="44.53170542304553" lon="7.937650129390309"><ele>274.4</ele><time>2026-04-12T06:53:23.999Z</time></trkpt><trkpt lat="44.53171840947669" lon="7.937511545485435"><ele>274.2</ele><time>2026-04-12T06:53:25.999Z</time></trkpt><trkpt lat="44.53172541669262" lon="7.937374367062395"><ele>274.0</ele><time>2026-04-12T06:53:27.999Z</time></trkpt><trkpt lat="44.53173990268001" lon="7.9372408356941415"><ele>274.0</ele><time>2026-04-12T06:53:29.999Z</time></trkpt><trkpt lat="44.53173827055929" lon="7.9371282063430915"><ele>274.0</ele><time>2026-04-12T06:53:31.999Z</time></trkpt><trkpt lat="44.53166457502369" lon="7.937122169692372"><ele>274.0</ele><time>2026-04-12T06:57:47.999Z</time></trkpt><trkpt lat="44.53172498728812" lon="7.937045480605602"><ele>274.0</ele><time>2026-04-12T06:58:14.999Z</time></trkpt><trkpt lat="44.53174844948067" lon="7.936957247648956"><ele>274.0</ele><time>2026-04-12T06:58:16.999Z</time></trkpt><trkpt lat="44.53174988043372" lon="7.9368591539260285"><ele>274.0</ele><time>2026-04-12T06:58:18.999Z</time></trkpt><trkpt lat="44.53175622827915" lon="7.936749943043897"><ele>273.66666666666663</ele><time>2026-04-12T06:58:20.999Z</time></trkpt><trkpt lat="44.531768140258336" lon="7.936648791996211"><ele>273.3333333333333</ele><time>2026-04-12T06:58:22.999Z</time></trkpt><trkpt lat="44.53178125767361" lon="7.936530962845535"><ele>273.0</ele><time>2026-04-12T06:58:24.999Z</time></trkpt><trkpt lat="44.5317902003619" lon="7.936411081245525"><ele>272.6666666666667</ele><time>2026-04-12T06:58:26.999Z</time></trkpt><trkpt lat="44.531803483610936" lon="7.936297234991882"><ele>272.33333333333337</ele><time>2026-04-12T06:58:28.999Z</time></trkpt><trkpt lat="44.53181903391711" lon="7.936177193345808"><ele>272.0</ele><time>2026-04-12T06:58:30.999Z</time></trkpt><trkpt lat="44.53183989812595" lon="7.936052659227037"><ele>272.0</ele><time>2026-04-12T06:58:32.999Z</time></trkpt><trkpt lat="44.53188548134326" lon="7.935937956576782"><ele>272.0</ele><time>2026-04-12T06:58:34.999Z</time></trkpt><trkpt lat="44.53195489311921" lon="7.9358410977011955"><ele>272.0</ele><time>2026-04-12T06:58:36.999Z</time></trkpt><trkpt lat="44.5320454035738" lon="7.935786992389097"><ele>272.0</ele><time>2026-04-12T06:58:38.999Z</time></trkpt><trkpt lat="44.53213247876748" lon="7.935741978285015"><ele>272.0</ele><time>2026-04-12T06:58:40.999Z</time></trkpt><trkpt lat="44.5321884578909" lon="7.935691338591899"><ele>272.0</ele><time>2026-04-12T06:58:41.999Z</time></trkpt><trkpt lat="44.532274552439574" lon="7.935655951699187"><ele>272.0</ele><time>2026-04-12T06:58:43.999Z</time></trkpt><trkpt lat="44.53237924108375" lon="7.935607212870436"><ele>272.0</ele><time>2026-04-12T06:58:45.999Z</time></trkpt><trkpt lat="44.532479189684814" lon="7.935568566734998"><ele>272.0</ele><time>2026-04-12T06:58:47.999Z</time></trkpt><trkpt lat="44.53257658040973" lon="7.935519566801055"><ele>272.0</ele><time>2026-04-12T06:58:50Z</time></trkpt><trkpt lat="44.53267365310883" lon="7.935475035025864"><ele>272.0</ele><time>2026-04-12T06:58:52Z</time></trkpt><trkpt lat="44.53277221223093" lon="7.93542224745116"><ele>272.0</ele><time>2026-04-12T06:58:54Z</time></trkpt><trkpt lat="44.53287188755873" lon="7.935368484266551"><ele>272.0</ele><time>2026-04-12T06:58:56Z</time></trkpt><trkpt lat="44.53297753241204" lon="7.935312157679226"><ele>272.0</ele><time>2026-04-12T06:58:58Z</time></trkpt><trkpt lat="44.533076350751564" lon="7.935259613829888"><ele>272.0</ele><time>2026-04-12T06:59:00Z</time></trkpt><trkpt lat="44.53317636947661" lon="7.935207755026953"><ele>272.0</ele><time>2026-04-12T06:59:02Z</time></trkpt><trkpt lat="44.53328059085394" lon="7.935156009265808"><ele>272.25</ele><time>2026-04-12T06:59:04Z</time></trkpt><trkpt lat="44.53338752550708" lon="7.935099931617066"><ele>272.5</ele><time>2026-04-12T06:59:06Z</time></trkpt><trkpt lat="44.53349726462104" lon="7.935038168003258"><ele>272.75</ele><time>2026-04-12T06:59:08Z</time></trkpt><trkpt lat="44.533604562986405" lon="7.93497936375789"><ele>273.0</ele><time>2026-04-12T06:59:10Z</time></trkpt><trkpt lat="44.53371056951257" lon="7.934932523941019"><ele>272.2</ele><time>2026-04-12T06:59:12Z</time></trkpt><trkpt lat="44.53381063329687" lon="7.9348857669289785"><ele>271.4</ele><time>2026-04-12T06:59:14Z</time></trkpt><trkpt lat="44.53390936559584" lon="7.9348355503250465"><ele>270.59999999999997</ele><time>2026-04-12T06:59:16Z</time></trkpt><trkpt lat="44.53401473483689" lon="7.93477420555666"><ele>269.8</ele><time>2026-04-12T06:59:18Z</time></trkpt><trkpt lat="44.53412310166353" lon="7.934717609128356"><ele>269.0</ele><time>2026-04-12T06:59:20Z</time></trkpt><trkpt lat="44.53423760581007" lon="7.934662353340999"><ele>269.0</ele><time>2026-04-12T06:59:21.999Z</time></trkpt><trkpt lat="44.53433866300435" lon="7.934603356063976"><ele>269.0</ele><time>2026-04-12T06:59:23.999Z</time></trkpt><trkpt lat="44.53444503210589" lon="7.934548637165125"><ele>269.0</ele><time>2026-04-12T06:59:25.999Z</time></trkpt><trkpt lat="44.53454043332218" lon="7.934480625969544"><ele>269.0</ele><time>2026-04-12T06:59:27.999Z</time></trkpt><trkpt lat="44.53463978895521" lon="7.934454807913676"><ele>269.0</ele><time>2026-04-12T06:59:29.999Z</time></trkpt><trkpt lat="44.534735700938114" lon="7.934407915584409"><ele>269.1666666666667</ele><time>2026-04-12T06:59:31.999Z</time></trkpt><trkpt lat="44.53481769204451" lon="7.934370630312756"><ele>269.33333333333337</ele><time>2026-04-12T06:59:33.999Z</time></trkpt><trkpt lat="44.53489085412987" lon="7.934339575869075"><ele>269.5</ele><time>2026-04-12T06:59:35.999Z</time></trkpt><trkpt lat="44.53497218756946" lon="7.934310663737261"><ele>269.6666666666667</ele><time>2026-04-12T06:59:37.999Z</time></trkpt><trkpt lat="44.53507191951829" lon="7.9342783624595725"><ele>269.8333333333333</ele><time>2026-04-12T06:59:39.999Z</time></trkpt><trkpt lat="44.53517054328837" lon="7.934259556575017"><ele>270.0</ele><time>2026-04-12T06:59:41.999Z</time></trkpt><trkpt lat="44.53526545063263" lon="7.9342583591233655"><ele>273.0</ele><time>2026-04-12T06:59:43.999Z</time></trkpt><trkpt lat="44.535574202446426" lon="7.933512463017829"><ele>273.0</ele><time>2026-04-12T06:59:49.999Z</time></trkpt><trkpt lat="44.535676317639606" lon="7.933428658153642"><ele>273.0</ele><time>2026-04-12T06:59:51.999Z</time></trkpt><trkpt lat="44.53577318399308" lon="7.933323653285574"><ele>273.0</ele><time>2026-04-12T06:59:53.999Z</time></trkpt><trkpt lat="44.535823469469754" lon="7.933267409496736"><ele>273.0</ele><time>2026-04-12T06:59:54.999Z</time></trkpt><trkpt lat="44.535914104379884" lon="7.933168635424041"><ele>273.0</ele><time>2026-04-12T06:59:56.999Z</time></trkpt><trkpt lat="44.53600732212509" lon="7.933069006704274"><ele>272.3333333333333</ele><time>2026-04-12T06:59:58.999Z</time></trkpt><trkpt lat="44.536091936793554" lon="7.932995860646169"><ele>271.6666666666667</ele><time>2026-04-12T07:00:00.999Z</time></trkpt><trkpt lat="44.536159254011245" lon="7.932919089594496"><ele>271.0</ele><time>2026-04-12T07:00:02.999Z</time></trkpt><trkpt lat="44.536236390210036" lon="7.932843844992683"><ele>270.33333333333337</ele><time>2026-04-12T07:00:04.999Z</time></trkpt><trkpt lat="44.53630693208234" lon="7.9327877738014605"><ele>269.6666666666667</ele><time>2026-04-12T07:00:06.999Z</time></trkpt><trkpt lat="44.53638324245575" lon="7.932729029324974"><ele>269.0</ele><time>2026-04-12T07:00:09.999Z</time></trkpt><trkpt lat="44.536451534447146" lon="7.932673613323523"><ele>269.0</ele><time>2026-04-12T07:00:11.999Z</time></trkpt><trkpt lat="44.53652233628894" lon="7.932635210157958"><ele>269.0</ele><time>2026-04-12T07:00:13.999Z</time></trkpt><trkpt lat="44.5366044155792" lon="7.932577550414638"><ele>269.0</ele><time>2026-04-12T07:00:15.999Z</time></trkpt><trkpt lat="44.536686279586505" lon="7.932484241325122"><ele>269.0</ele><time>2026-04-12T07:00:17.999Z</time></trkpt><trkpt lat="44.53676991364591" lon="7.932418195132045"><ele>269.0</ele><time>2026-04-12T07:00:19.999Z</time></trkpt><trkpt lat="44.53686378139214" lon="7.932329594783222"><ele>268.5</ele><time>2026-04-12T07:00:21.999Z</time></trkpt><trkpt lat="44.53696174939931" lon="7.932239633506914"><ele>268.0</ele><time>2026-04-12T07:00:23.999Z</time></trkpt><trkpt lat="44.537064038902464" lon="7.932153508708952"><ele>267.5</ele><time>2026-04-12T07:00:25.999Z</time></trkpt><trkpt lat="44.537161009364404" lon="7.932062374543357"><ele>267.0</ele><time>2026-04-12T07:00:27.999Z</time></trkpt><trkpt lat="44.53725714187886" lon="7.931971373470427"><ele>266.5</ele><time>2026-04-12T07:00:29.999Z</time></trkpt><trkpt lat="44.53735503335935" lon="7.931869812545765"><ele>266.0</ele><time>2026-04-12T07:00:31.999Z</time></trkpt><trkpt lat="44.53745140777771" lon="7.931769730669015"><ele>265.5</ele><time>2026-04-12T07:00:33.999Z</time></trkpt><trkpt lat="44.53754499386073" lon="7.931666780257593"><ele>265.0</ele><time>2026-04-12T07:00:35.999Z</time></trkpt><trkpt lat="44.53763316175151" lon="7.931552683338136"><ele>265.0</ele><time>2026-04-12T07:00:37.999Z</time></trkpt><trkpt lat="44.537685812500385" lon="7.931501550357382"><ele>265.0</ele><time>2026-04-12T07:00:38.999Z</time></trkpt><trkpt lat="44.53773936651885" lon="7.931451300997114"><ele>265.0</ele><time>2026-04-12T07:00:39.999Z</time></trkpt><trkpt lat="44.53783212784015" lon="7.931345345788075"><ele>265.0</ele><time>2026-04-12T07:00:41.999Z</time></trkpt><trkpt lat="44.537880244030184" lon="7.931285643973264"><ele>265.0</ele><time>2026-04-12T07:00:42.999Z</time></trkpt><trkpt lat="44.53796483148175" lon="7.9311724557930585"><ele>265.0</ele><time>2026-04-12T07:00:44.999Z</time></trkpt><trkpt lat="44.5380523222321" lon="7.931055183274136"><ele>265.0</ele><time>2026-04-12T07:00:46.999Z</time></trkpt><trkpt lat="44.53811946699939" lon="7.930926657077602"><ele>265.0</ele><time>2026-04-12T07:00:48.999Z</time></trkpt><trkpt lat="44.53819274249457" lon="7.9308206140656825"><ele>265.0</ele><time>2026-04-12T07:00:51Z</time></trkpt><trkpt lat="44.53825633163899" lon="7.930706221928596"><ele>265.0</ele><time>2026-04-12T07:00:53Z</time></trkpt><trkpt lat="44.53831784419719" lon="7.930601138053952"><ele>265.0</ele><time>2026-04-12T07:00:55Z</time></trkpt><trkpt lat="44.53837383947205" lon="7.930508441626994"><ele>264.8</ele><time>2026-04-12T07:00:57Z</time></trkpt><trkpt lat="44.53842580160772" lon="7.930399541880157"><ele>264.6</ele><time>2026-04-12T07:00:59Z</time></trkpt><trkpt lat="44.53848663523271" lon="7.930308945540046"><ele>264.4</ele><time>2026-04-12T07:01:01Z</time></trkpt><trkpt lat="44.53854597831425" lon="7.930195626751532"><ele>264.2</ele><time>2026-04-12T07:01:03Z</time></trkpt><trkpt lat="44.538599027407535" lon="7.930094852738822"><ele>264.0</ele><time>2026-04-12T07:01:05Z</time></trkpt><trkpt lat="44.538684470548716" lon="7.930040399316431"><ele>264.0</ele><time>2026-04-12T07:01:07Z</time></trkpt><trkpt lat="44.538743401541254" lon="7.930147898840279"><ele>264.0</ele><time>2026-04-12T07:01:09Z</time></trkpt><trkpt lat="44.53880495532256" lon="7.930259027339522"><ele>264.0</ele><time>2026-04-12T07:01:11Z</time></trkpt><trkpt lat="44.538867478514376" lon="7.93037190290024"><ele>264.0</ele><time>2026-04-12T07:01:13Z</time></trkpt><trkpt lat="44.53894012592163" lon="7.930473914905722"><ele>264.0</ele><time>2026-04-12T07:01:15Z</time></trkpt><trkpt lat="44.53899916938197" lon="7.930600462596787"><ele>264.0</ele><time>2026-04-12T07:01:17Z</time></trkpt><trkpt lat="44.539051150767456" lon="7.930712016545433"><ele>264.0</ele><time>2026-04-12T07:01:19Z</time></trkpt><trkpt lat="44.53911875890391" lon="7.930819008840705"><ele>264.0</ele><time>2026-04-12T07:01:21Z</time></trkpt><trkpt lat="44.53918128901505" lon="7.930932041904574"><ele>264.0</ele><time>2026-04-12T07:01:23Z</time></trkpt><trkpt lat="44.53924683566554" lon="7.931044685873599"><ele>264.0</ele><time>2026-04-12T07:01:25Z</time></trkpt><trkpt lat="44.539300857081486" lon="7.931153741939556"><ele>264.5</ele><time>2026-04-12T07:01:27Z</time></trkpt><trkpt lat="44.53934687021853" lon="7.931236198438059"><ele>265.0</ele><time>2026-04-12T07:01:29Z</time></trkpt><trkpt lat="44.53946084515862" lon="7.931312799600826"><ele>265.5</ele><time>2026-04-12T07:01:34Z</time></trkpt><trkpt lat="44.53951234066371" lon="7.931252616162623"><ele>266.0</ele><time>2026-04-12T07:01:37Z</time></trkpt><trkpt lat="44.53956503451406" lon="7.931191032337271"><ele>266.5</ele><time>2026-04-12T07:01:40Z</time></trkpt><trkpt lat="44.53962674704669" lon="7.9311189082430555"><ele>267.0</ele><time>2026-04-12T07:01:43Z</time></trkpt><trkpt lat="44.53968695127012" lon="7.931090792673039"><ele>266.6</ele><time>2026-04-12T07:01:44.999Z</time></trkpt><trkpt lat="44.53976586959714" lon="7.9309998297212445"><ele>266.2</ele><time>2026-04-12T07:01:46.999Z</time></trkpt><trkpt lat="44.53983967537869" lon="7.9309040302333695"><ele>265.8</ele><time>2026-04-12T07:01:48.999Z</time></trkpt><trkpt lat="44.53991948682903" lon="7.930816705230507"><ele>265.4</ele><time>2026-04-12T07:01:50.999Z</time></trkpt><trkpt lat="44.54000475406037" lon="7.930721465580727"><ele>265.0</ele><time>2026-04-12T07:01:52.999Z</time></trkpt><trkpt lat="44.54009147482622" lon="7.9306173079897135"><ele>265.0</ele><time>2026-04-12T07:01:54.999Z</time></trkpt><trkpt lat="44.54018411989248" lon="7.930512171981297"><ele>265.0</ele><time>2026-04-12T07:01:56.999Z</time></trkpt><trkpt lat="44.54027698781964" lon="7.930400613635429"><ele>265.0</ele><time>2026-04-12T07:01:58.999Z</time></trkpt><trkpt lat="44.540372299863655" lon="7.930288171936135"><ele>265.0</ele><time>2026-04-12T07:02:00.999Z</time></trkpt><trkpt lat="44.54047019803224" lon="7.930177345276302"><ele>264.6</ele><time>2026-04-12T07:02:02.999Z</time></trkpt><trkpt lat="44.54057134716832" lon="7.930065355938185"><ele>264.2</ele><time>2026-04-12T07:02:04.999Z</time></trkpt><trkpt lat="44.54066378060809" lon="7.929954605334845"><ele>263.8</ele><time>2026-04-12T07:02:06.999Z</time></trkpt><trkpt lat="44.54071568329696" lon="7.929897295802343"><ele>263.4</ele><time>2026-04-12T07:02:07.999Z</time></trkpt><trkpt lat="44.54081170996336" lon="7.929789228192013"><ele>263.0</ele><time>2026-04-12T07:02:09.999Z</time></trkpt><trkpt lat="44.5409048689957" lon="7.929678754202102"><ele>263.0</ele><time>2026-04-12T07:02:11.999Z</time></trkpt><trkpt lat="44.5409581611906" lon="7.929622469458086"><ele>263.0</ele><time>2026-04-12T07:02:12.999Z</time></trkpt><trkpt lat="44.54105125545586" lon="7.929511181108552"><ele>263.0</ele><time>2026-04-12T07:02:14.999Z</time></trkpt><trkpt lat="44.541149032290164" lon="7.929398612052287"><ele>263.0</ele><time>2026-04-12T07:02:16.999Z</time></trkpt><trkpt lat="44.5411998554464" lon="7.929343692268772"><ele>263.0</ele><time>2026-04-12T07:02:17.999Z</time></trkpt><trkpt lat="44.54124899374451" lon="7.929286412547352"><ele>263.0</ele><time>2026-04-12T07:02:18.999Z</time></trkpt><trkpt lat="44.54134218449579" lon="7.929174778512792"><ele>263.2</ele><time>2026-04-12T07:02:20.999Z</time></trkpt><trkpt lat="44.541438935466644" lon="7.929061610654514"><ele>263.4</ele><time>2026-04-12T07:02:22.999Z</time></trkpt><trkpt lat="44.54153135008529" lon="7.928951961160205"><ele>263.59999999999997</ele><time>2026-04-12T07:02:24.999Z</time></trkpt><trkpt lat="44.54157930651723" lon="7.928893476446133"><ele>263.8</ele><time>2026-04-12T07:02:25.999Z</time></trkpt><trkpt lat="44.54162703783203" lon="7.928834400534612"><ele>264.0</ele><time>2026-04-12T07:02:26.999Z</time></trkpt><trkpt lat="44.5417191489356" lon="7.928733487472696"><ele>264.0</ele><time>2026-04-12T07:02:28.999Z</time></trkpt><trkpt lat="44.5417987756357" lon="7.9286591984507995"><ele>264.0</ele><time>2026-04-12T07:02:30.999Z</time></trkpt><trkpt lat="44.541885494438354" lon="7.92857980500718"><ele>264.0</ele><time>2026-04-12T07:02:32.999Z</time></trkpt><trkpt lat="44.541958046889846" lon="7.928484487904994"><ele>264.0</ele><time>2026-04-12T07:02:34.999Z</time></trkpt><trkpt lat="44.542052688417876" lon="7.9283994422766355"><ele>264.0</ele><time>2026-04-12T07:02:36.999Z</time></trkpt><trkpt lat="44.54215437017081" lon="7.92831783928456"><ele>263.4</ele><time>2026-04-12T07:02:38.999Z</time></trkpt><trkpt lat="44.54225282247683" lon="7.928231668886588"><ele>262.79999999999995</ele><time>2026-04-12T07:02:40.999Z</time></trkpt><trkpt lat="44.54234531979418" lon="7.92816329298854"><ele>262.20000000000005</ele><time>2026-04-12T07:02:42.999Z</time></trkpt><trkpt lat="44.542436692413716" lon="7.928102370131868"><ele>261.6</ele><time>2026-04-12T07:02:44.999Z</time></trkpt><trkpt lat="44.542529306091396" lon="7.928037065435505"><ele>261.0</ele><time>2026-04-12T07:02:46.999Z</time></trkpt><trkpt lat="44.54261568123856" lon="7.927982249693462"><ele>261.0</ele><time>2026-04-12T07:02:48.999Z</time></trkpt><trkpt lat="44.54269658868084" lon="7.927904257044911"><ele>261.0</ele><time>2026-04-12T07:02:50.999Z</time></trkpt><trkpt lat="44.54278282601672" lon="7.927841279930684"><ele>261.0</ele><time>2026-04-12T07:02:52.999Z</time></trkpt><trkpt lat="44.5428541283025" lon="7.927777595691879"><ele>261.0</ele><time>2026-04-12T07:02:54.999Z</time></trkpt><trkpt lat="44.54292007466162" lon="7.927724966792836"><ele>261.0</ele><time>2026-04-12T07:02:57Z</time></trkpt><trkpt lat="44.5429881053554" lon="7.927669687056527"><ele>261.0</ele><time>2026-04-12T07:02:59Z</time></trkpt><trkpt lat="44.54305481320908" lon="7.927622058043649"><ele>261.6666666666667</ele><time>2026-04-12T07:03:01Z</time></trkpt><trkpt lat="44.543130717962725" lon="7.92756162868343"><ele>262.3333333333333</ele><time>2026-04-12T07:03:03Z</time></trkpt><trkpt lat="44.54320924103779" lon="7.927528026949682"><ele>263.0</ele><time>2026-04-12T07:03:05Z</time></trkpt><trkpt lat="44.543283719906206" lon="7.927487965518518"><ele>263.66666666666663</ele><time>2026-04-12T07:03:07Z</time></trkpt><trkpt lat="44.543334215559774" lon="7.927554075960655"><ele>264.3333333333333</ele><time>2026-04-12T07:03:08Z</time></trkpt><trkpt lat="44.5434033661303" lon="7.927582039120695"><ele>265.0</ele><time>2026-04-12T07:03:10Z</time></trkpt><trkpt lat="44.54346935263975" lon="7.927603322444581"><ele>265.4285714285714</ele><time>2026-04-12T07:03:12Z</time></trkpt><trkpt lat="44.54353397220797" lon="7.9276292804039645"><ele>265.85714285714283</ele><time>2026-04-12T07:03:14Z</time></trkpt><trkpt lat="44.54360259428254" lon="7.927655606631966"><ele>266.2857142857143</ele><time>2026-04-12T07:03:16Z</time></trkpt><trkpt lat="44.54368289551765" lon="7.927702355802141"><ele>266.71428571428567</ele><time>2026-04-12T07:03:19Z</time></trkpt><trkpt lat="44.54374950581759" lon="7.9277275229947834"><ele>267.1428571428571</ele><time>2026-04-12T07:03:21Z</time></trkpt><trkpt lat="44.54380379403978" lon="7.927784034552196"><ele>267.57142857142856</ele><time>2026-04-12T07:03:23Z</time></trkpt><trkpt lat="44.543839333459125" lon="7.927861375879294"><ele>268.0</ele><time>2026-04-12T07:03:25Z</time></trkpt><trkpt lat="44.543858380289805" lon="7.9279480963119076"><ele>269.5</ele><time>2026-04-12T07:03:27Z</time></trkpt><trkpt lat="44.543881601449385" lon="7.928059663630996"><ele>271.0</ele><time>2026-04-12T07:03:30Z</time></trkpt><trkpt lat="44.5439133071926" lon="7.928173686268174"><ele>272.5</ele><time>2026-04-12T07:03:33Z</time></trkpt><trkpt lat="44.54394134174974" lon="7.928277126682086"><ele>274.0</ele><time>2026-04-12T07:03:36Z</time></trkpt><trkpt lat="44.54394069359625" lon="7.928397530808978"><ele>275.5</ele><time>2026-04-12T07:03:39Z</time></trkpt><trkpt lat="44.54392757076281" lon="7.9284850330357886"><ele>277.0</ele><time>2026-04-12T07:03:41Z</time></trkpt><trkpt lat="44.54388852361336" lon="7.928602915969851"><ele>276.2</ele><time>2026-04-12T07:03:44Z</time></trkpt><trkpt lat="44.54384231692385" lon="7.92870766263111"><ele>275.4</ele><time>2026-04-12T07:03:47Z</time></trkpt><trkpt lat="44.54380399088289" lon="7.928829439015654"><ele>274.6</ele><time>2026-04-12T07:03:50Z</time></trkpt><trkpt lat="44.54377369825644" lon="7.92894692264155"><ele>273.8</ele><time>2026-04-12T07:03:53Z</time></trkpt><trkpt lat="44.543746477235054" lon="7.929071326244336"><ele>273.0</ele><time>2026-04-12T07:03:56Z</time></trkpt><trkpt lat="44.543706945434515" lon="7.929183349727182"><ele>274.8333333333333</ele><time>2026-04-12T07:03:59Z</time></trkpt><trkpt lat="44.543658619332014" lon="7.929292614945373"><ele>276.6666666666667</ele><time>2026-04-12T07:04:02Z</time></trkpt><trkpt lat="44.54360680939184" lon="7.9293992090167515"><ele>278.5</ele><time>2026-04-12T07:04:04.999Z</time></trkpt><trkpt lat="44.54356800642037" lon="7.929468947319435"><ele>280.33333333333337</ele><time>2026-04-12T07:04:06.999Z</time></trkpt><trkpt lat="44.54353075832459" lon="7.929583981211854"><ele>282.1666666666667</ele><time>2026-04-12T07:04:09.999Z</time></trkpt><trkpt lat="44.54351718448219" lon="7.929704431731071"><ele>284.0</ele><time>2026-04-12T07:04:12.999Z</time></trkpt><trkpt lat="44.543525670384845" lon="7.929820195288408"><ele>284.0</ele><time>2026-04-12T07:04:15.999Z</time></trkpt><trkpt lat="44.543530079826546" lon="7.929940121734298"><ele>284.0</ele><time>2026-04-12T07:04:18.999Z</time></trkpt><trkpt lat="44.543545368269015" lon="7.930044346880265"><ele>284.0</ele><time>2026-04-12T07:04:21.999Z</time></trkpt><trkpt lat="44.54355208933955" lon="7.93015086069918"><ele>284.0</ele><time>2026-04-12T07:04:24.999Z</time></trkpt><trkpt lat="44.543540677450586" lon="7.930255313914295"><ele>284.0</ele><time>2026-04-12T07:04:27.999Z</time></trkpt><trkpt lat="44.54352018149612" lon="7.9303556457327575"><ele>284.0</ele><time>2026-04-12T07:04:30.999Z</time></trkpt><trkpt lat="44.54350411902483" lon="7.9304654292080885"><ele>285.0</ele><time>2026-04-12T07:04:33.999Z</time></trkpt><trkpt lat="44.54349709655952" lon="7.930562229396481"><ele>286.0</ele><time>2026-04-12T07:04:36.999Z</time></trkpt><trkpt lat="44.54348156615269" lon="7.9306658418779"><ele>287.0</ele><time>2026-04-12T07:04:39.999Z</time></trkpt><trkpt lat="44.543477831110806" lon="7.930774043513063"><ele>288.0</ele><time>2026-04-12T07:04:42.999Z</time></trkpt><trkpt lat="44.54347344538156" lon="7.930877433587769"><ele>289.0</ele><time>2026-04-12T07:04:45.999Z</time></trkpt><trkpt lat="44.543467820473644" lon="7.9309833832651675"><ele>290.0</ele><time>2026-04-12T07:04:48.999Z</time></trkpt><trkpt lat="44.54346150847232" lon="7.931088569264805"><ele>291.0</ele><time>2026-04-12T07:04:51.999Z</time></trkpt><trkpt lat="44.54347005227928" lon="7.931190566772223"><ele>292.1666666666667</ele><time>2026-04-12T07:04:54.999Z</time></trkpt><trkpt lat="44.54349673285786" lon="7.931289813367242"><ele>293.3333333333333</ele><time>2026-04-12T07:04:57.999Z</time></trkpt><trkpt lat="44.5435137197702" lon="7.9313976879061885"><ele>294.5</ele><time>2026-04-12T07:05:00.999Z</time></trkpt><trkpt lat="44.54354192376631" lon="7.931500658062044"><ele>295.66666666666663</ele><time>2026-04-12T07:05:04Z</time></trkpt><trkpt lat="44.54356888637704" lon="7.931594937532593"><ele>296.8333333333333</ele><time>2026-04-12T07:05:07Z</time></trkpt><trkpt lat="44.543609096272256" lon="7.931687491785148"><ele>298.0</ele><time>2026-04-12T07:05:10Z</time></trkpt><trkpt lat="44.543633317086574" lon="7.931782985482978"><ele>299.0</ele><time>2026-04-12T07:05:13Z</time></trkpt><trkpt lat="44.54366246830699" lon="7.931877594339375"><ele>300.0</ele><time>2026-04-12T07:05:16Z</time></trkpt><trkpt lat="44.54368391200001" lon="7.931964712927755"><ele>301.0</ele><time>2026-04-12T07:05:19Z</time></trkpt><trkpt lat="44.543704889357" lon="7.93205780247594"><ele>302.0</ele><time>2026-04-12T07:05:22Z</time></trkpt><trkpt lat="44.54373474111792" lon="7.932153339247171"><ele>303.0</ele><time>2026-04-12T07:05:25Z</time></trkpt><trkpt lat="44.54376811460541" lon="7.932279305948061"><ele>304.0</ele><time>2026-04-12T07:05:29Z</time></trkpt><trkpt lat="44.54378995810555" lon="7.932373150838187"><ele>305.0</ele><time>2026-04-12T07:05:32Z</time></trkpt><trkpt lat="44.54381910273574" lon="7.932465362757294"><ele>305.2857142857143</ele><time>2026-04-12T07:05:35Z</time></trkpt><trkpt lat="44.54384287584871" lon="7.932559540432443"><ele>305.57142857142856</ele><time>2026-04-12T07:05:38Z</time></trkpt><trkpt lat="44.54388348932929" lon="7.932641254913184"><ele>305.85714285714283</ele><time>2026-04-12T07:05:41Z</time></trkpt><trkpt lat="44.54390862877404" lon="7.932738491325211"><ele>306.1428571428571</ele><time>2026-04-12T07:05:44Z</time></trkpt><trkpt lat="44.54394445953226" lon="7.9328317089271545"><ele>306.42857142857144</ele><time>2026-04-12T07:05:47Z</time></trkpt><trkpt lat="44.54397631013425" lon="7.932926151698492"><ele>306.71428571428567</ele><time>2026-04-12T07:05:50Z</time></trkpt><trkpt lat="44.54401434451747" lon="7.933016432405044"><ele>307.0</ele><time>2026-04-12T07:05:53Z</time></trkpt><trkpt lat="44.54403838494279" lon="7.93311334142987"><ele>306.99999999999994</ele><time>2026-04-12T07:05:56Z</time></trkpt><trkpt lat="44.54405818341963" lon="7.9332058009368955"><ele>307.0</ele><time>2026-04-12T07:05:59Z</time></trkpt><trkpt lat="44.54407168878982" lon="7.9333088164896735"><ele>307.0</ele><time>2026-04-12T07:06:01.999Z</time></trkpt><trkpt lat="44.544076410764646" lon="7.933408560385608"><ele>307.0</ele><time>2026-04-12T07:06:04.999Z</time></trkpt><trkpt lat="44.544094333785175" lon="7.933499490746562"><ele>307.0</ele><time>2026-04-12T07:06:07.999Z</time></trkpt><trkpt lat="44.54411207813515" lon="7.933589454321094"><ele>306.99999999999994</ele><time>2026-04-12T07:06:10.999Z</time></trkpt><trkpt lat="44.54414206138115" lon="7.933690560150219"><ele>307.0</ele><time>2026-04-12T07:06:13.999Z</time></trkpt><trkpt lat="44.544154079001274" lon="7.933784335421168"><ele>308.2857142857143</ele><time>2026-04-12T07:06:17.999Z</time></trkpt><trkpt lat="44.54416809625641" lon="7.933880376283163"><ele>309.57142857142856</ele><time>2026-04-12T07:06:21.999Z</time></trkpt><trkpt lat="44.54418433251418" lon="7.93396674933457"><ele>310.8571428571429</ele><time>2026-04-12T07:06:24.999Z</time></trkpt><trkpt lat="44.544209924254105" lon="7.934054134936068"><ele>312.1428571428571</ele><time>2026-04-12T07:06:27.999Z</time></trkpt><trkpt lat="44.54422808476826" lon="7.934150792690633"><ele>313.42857142857144</ele><time>2026-04-12T07:06:31.999Z</time></trkpt><trkpt lat="44.54424383917479" lon="7.93426022529675"><ele>314.7142857142857</ele><time>2026-04-12T07:06:35.999Z</time></trkpt><trkpt lat="44.544257583958206" lon="7.934375568504323"><ele>316.0</ele><time>2026-04-12T07:06:39.999Z</time></trkpt><trkpt lat="44.54427370772345" lon="7.93448080287386"><ele>317.16666666666663</ele><time>2026-04-12T07:06:43.999Z</time></trkpt><trkpt lat="44.54430142429787" lon="7.934593470008452"><ele>318.3333333333333</ele><time>2026-04-12T07:06:48.999Z</time></trkpt><trkpt lat="44.544331123368984" lon="7.934703770205258"><ele>319.5</ele><time>2026-04-12T07:06:52.999Z</time></trkpt><trkpt lat="44.544355402650005" lon="7.934808960098728"><ele>320.6666666666667</ele><time>2026-04-12T07:06:56.999Z</time></trkpt><trkpt lat="44.54439014817644" lon="7.934903053114746"><ele>321.83333333333337</ele><time>2026-04-12T07:07:00.999Z</time></trkpt><trkpt lat="44.54442078781978" lon="7.934992324710861"><ele>323.0</ele><time>2026-04-12T07:07:04.999Z</time></trkpt><trkpt lat="44.544474157739174" lon="7.935079692862684"><ele>323.5714285714286</ele><time>2026-04-12T07:07:09Z</time></trkpt><trkpt lat="44.54451882151938" lon="7.935170496445437"><ele>324.14285714285717</ele><time>2026-04-12T07:07:14Z</time></trkpt><trkpt lat="44.54456085630873" lon="7.935260378953698"><ele>324.7142857142857</ele><time>2026-04-12T07:07:18Z</time></trkpt><trkpt lat="44.544592117575064" lon="7.935341373435203"><ele>325.28571428571433</ele><time>2026-04-12T07:07:22Z</time></trkpt><trkpt lat="44.54462661563191" lon="7.935418685270276"><ele>325.8571428571429</ele><time>2026-04-12T07:07:25Z</time></trkpt><trkpt lat="44.54465633398039" lon="7.935525705461844"><ele>326.42857142857144</ele><time>2026-04-12T07:07:30Z</time></trkpt><trkpt lat="44.544716653235064" lon="7.935568197606587"><ele>327.0</ele><time>2026-04-12T07:07:32Z</time></trkpt><trkpt lat="44.544753786767764" lon="7.93564082206336"><ele>327.0</ele><time>2026-04-12T07:07:36Z</time></trkpt><trkpt lat="44.5447852267499" lon="7.9357240783932586"><ele>327.0</ele><time>2026-04-12T07:07:40Z</time></trkpt><trkpt lat="44.54481727868627" lon="7.935807700000644"><ele>327.0</ele><time>2026-04-12T07:07:44Z</time></trkpt><trkpt lat="44.54484135433198" lon="7.935899751914914"><ele>327.0</ele><time>2026-04-12T07:07:48Z</time></trkpt><trkpt lat="44.5447980010142" lon="7.9359835308410265"><ele>327.0</ele><time>2026-04-12T07:07:53Z</time></trkpt><trkpt lat="44.54471679702493" lon="7.9359837973195875"><ele>327.0</ele><time>2026-04-12T07:07:58Z</time></trkpt><trkpt lat="44.544645708096645" lon="7.935983278329476"><ele>327.0</ele><time>2026-04-12T07:08:02Z</time></trkpt><trkpt lat="44.54457991072561" lon="7.935952989800974"><ele>327.1428571428571</ele><time>2026-04-12T07:08:06.999Z</time></trkpt><trkpt lat="44.544509264873206" lon="7.935910378414545"><ele>327.2857142857143</ele><time>2026-04-12T07:08:09.999Z</time></trkpt><trkpt lat="44.5444258129443" lon="7.935879572665135"><ele>327.42857142857144</ele><time>2026-04-12T07:08:13.999Z</time></trkpt><trkpt lat="44.54435924887289" lon="7.935859228744753"><ele>327.57142857142856</ele><time>2026-04-12T07:08:17.999Z</time></trkpt><trkpt lat="44.544296611296495" lon="7.935826366964109"><ele>327.7142857142857</ele><time>2026-04-12T07:08:21.999Z</time></trkpt><trkpt lat="44.544239019700335" lon="7.935790301729247"><ele>327.85714285714283</ele><time>2026-04-12T07:08:25.999Z</time></trkpt><trkpt lat="44.54418802377147" lon="7.935725861780739"><ele>328.0</ele><time>2026-04-12T07:08:28.999Z</time></trkpt><trkpt lat="44.54411618801369" lon="7.935682200156335"><ele>327.99999999999994</ele><time>2026-04-12T07:08:31.999Z</time></trkpt><trkpt lat="44.54407300353723" lon="7.935614446339514"><ele>328.0</ele><time>2026-04-12T07:08:34.999Z</time></trkpt><trkpt lat="44.544018858737026" lon="7.93555233653827"><ele>328.0</ele><time>2026-04-12T07:08:37.999Z</time></trkpt><trkpt lat="44.543979821630934" lon="7.935463699420267"><ele>328.0</ele><time>2026-04-12T07:08:40.999Z</time></trkpt><trkpt lat="44.543915158741434" lon="7.935393549790895"><ele>328.0</ele><time>2026-04-12T07:08:43.999Z</time></trkpt><trkpt lat="44.54387197153461" lon="7.935319513299588"><ele>327.99999999999994</ele><time>2026-04-12T07:08:46.999Z</time></trkpt><trkpt lat="44.54385597031232" lon="7.935233480663831"><ele>328.0</ele><time>2026-04-12T07:08:49.999Z</time></trkpt><trkpt lat="44.543830265021846" lon="7.935147842761363"><ele>327.99999999999994</ele><time>2026-04-12T07:08:52.999Z</time></trkpt><trkpt lat="44.54379354714783" lon="7.935068723599222"><ele>328.0</ele><time>2026-04-12T07:08:55.999Z</time></trkpt><trkpt lat="44.543764771056125" lon="7.934981044389411"><ele>328.0</ele><time>2026-04-12T07:08:58.999Z</time></trkpt><trkpt lat="44.543711005438624" lon="7.934889583509628"><ele>328.0</ele><time>2026-04-12T07:09:02.999Z</time></trkpt><trkpt lat="44.54365532423243" lon="7.934838203377363"><ele>328.0</ele><time>2026-04-12T07:09:05.999Z</time></trkpt><trkpt lat="44.54362165875476" lon="7.934754057320292"><ele>327.99999999999994</ele><time>2026-04-12T07:09:08.999Z</time></trkpt><trkpt lat="44.54358002505155" lon="7.934666402615101"><ele>328.0</ele><time>2026-04-12T07:09:11.999Z</time></trkpt><trkpt lat="44.54352241457069" lon="7.934575630520771"><ele>328.5</ele><time>2026-04-12T07:09:15Z</time></trkpt><trkpt lat="44.543492867912065" lon="7.93448507944417"><ele>329.0</ele><time>2026-04-12T07:09:18Z</time></trkpt><trkpt lat="44.54344782852743" lon="7.934393774503488"><ele>329.5</ele><time>2026-04-12T07:09:21Z</time></trkpt><trkpt lat="44.54340971894273" lon="7.934291619832488"><ele>330.0</ele><time>2026-04-12T07:09:25Z</time></trkpt><trkpt lat="44.543364528885135" lon="7.934189649077875"><ele>330.5</ele><time>2026-04-12T07:09:29Z</time></trkpt><trkpt lat="44.5433091748647" lon="7.934108060717935"><ele>331.0</ele><time>2026-04-12T07:09:33Z</time></trkpt><trkpt lat="44.54326241034556" lon="7.934042626888932"><ele>331.0</ele><time>2026-04-12T07:09:37Z</time></trkpt><trkpt lat="44.54322479251407" lon="7.9339664005090516"><ele>331.0</ele><time>2026-04-12T07:09:40Z</time></trkpt><trkpt lat="44.54317512992455" lon="7.933899408453617"><ele>331.0</ele><time>2026-04-12T07:09:43Z</time></trkpt><trkpt lat="44.543115428401435" lon="7.9338653872469544"><ele>331.0</ele><time>2026-04-12T07:09:46Z</time></trkpt><trkpt lat="44.54305169482663" lon="7.933862315775019"><ele>331.0</ele><time>2026-04-12T07:09:49Z</time></trkpt><trkpt lat="44.542977817797876" lon="7.9338818800407775"><ele>331.0</ele><time>2026-04-12T07:09:53Z</time></trkpt><trkpt lat="44.54292552345309" lon="7.933947359166792"><ele>331.0</ele><time>2026-04-12T07:09:57Z</time></trkpt><trkpt lat="44.54287962798032" lon="7.934025994815398"><ele>331.0</ele><time>2026-04-12T07:10:01Z</time></trkpt><trkpt lat="44.54288906363179" lon="7.934125012227987"><ele>331.0</ele><time>2026-04-12T07:10:05Z</time></trkpt><trkpt lat="44.54287127897372" lon="7.934216561479481"><ele>331.0</ele><time>2026-04-12T07:10:08.999Z</time></trkpt><trkpt lat="44.542912879521474" lon="7.934287748731785"><ele>331.0</ele><time>2026-04-12T07:10:11.999Z</time></trkpt><trkpt lat="44.54296646386558" lon="7.934387254969679"><ele>331.0</ele><time>2026-04-12T07:10:16.999Z</time></trkpt><trkpt lat="44.54301297518097" lon="7.934451307092738"><ele>331.0</ele><time>2026-04-12T07:10:20.999Z</time></trkpt><trkpt lat="44.543050243390994" lon="7.934537232171843"><ele>331.0</ele><time>2026-04-12T07:10:24.999Z</time></trkpt><trkpt lat="44.543059481281794" lon="7.934649763012115"><ele>331.8571428571429</ele><time>2026-04-12T07:10:28.999Z</time></trkpt><trkpt lat="44.54306357592714" lon="7.934749273171561"><ele>332.7142857142857</ele><time>2026-04-12T07:10:32.999Z</time></trkpt><trkpt lat="44.54307970412922" lon="7.934843709925334"><ele>333.57142857142856</ele><time>2026-04-12T07:10:35.999Z</time></trkpt><trkpt lat="44.543073219620084" lon="7.934949252177909"><ele>334.42857142857144</ele><time>2026-04-12T07:10:39.999Z</time></trkpt><trkpt lat="44.543066077551586" lon="7.935056721675774"><ele>335.2857142857143</ele><time>2026-04-12T07:10:43.999Z</time></trkpt><trkpt lat="44.543059581837966" lon="7.935157879311501"><ele>336.14285714285717</ele><time>2026-04-12T07:10:47.999Z</time></trkpt><trkpt lat="44.54305141694817" lon="7.935258694860494"><ele>337.0</ele><time>2026-04-12T07:10:51.999Z</time></trkpt><trkpt lat="44.54304753065526" lon="7.935366109305047"><ele>338.00000000000006</ele><time>2026-04-12T07:10:55.999Z</time></trkpt><trkpt lat="44.543052110995625" lon="7.935464251125811"><ele>339.0</ele><time>2026-04-12T07:10:59.999Z</time></trkpt><trkpt lat="44.54304853274441" lon="7.93556561750828"><ele>340.0</ele><time>2026-04-12T07:11:03.999Z</time></trkpt><trkpt lat="44.5430553160427" lon="7.935663819940976"><ele>341.0</ele><time>2026-04-12T07:11:07.999Z</time></trkpt><trkpt lat="44.543059677335194" lon="7.935774211856287"><ele>342.0</ele><time>2026-04-12T07:11:11.999Z</time></trkpt><trkpt lat="44.543067441476666" lon="7.93586531936987"><ele>343.00000000000006</ele><time>2026-04-12T07:11:15.999Z</time></trkpt><trkpt lat="44.54307616857136" lon="7.9359546851252984"><ele>344.0</ele><time>2026-04-12T07:11:18.999Z</time></trkpt><trkpt lat="44.543099190460474" lon="7.9360369615500135"><ele>345.42857142857144</ele><time>2026-04-12T07:11:23Z</time></trkpt><trkpt lat="44.54313911117516" lon="7.9361079073036"><ele>346.8571428571429</ele><time>2026-04-12T07:11:26Z</time></trkpt><trkpt lat="44.54316584685705" lon="7.936195306701941"><ele>348.28571428571433</ele><time>2026-04-12T07:11:30Z</time></trkpt><trkpt lat="44.543190107110576" lon="7.9362950172272875"><ele>349.7142857142857</ele><time>2026-04-12T07:11:34Z</time></trkpt><trkpt lat="44.54320795346732" lon="7.936382665703434"><ele>351.1428571428571</ele><time>2026-04-12T07:11:37Z</time></trkpt><trkpt lat="44.543221799190825" lon="7.93647715500688"><ele>352.5714285714286</ele><time>2026-04-12T07:11:40Z</time></trkpt><trkpt lat="44.5432135813235" lon="7.9365724249287375"><ele>354.0</ele><time>2026-04-12T07:11:43Z</time></trkpt><trkpt lat="44.54323002473874" lon="7.936661783558869"><ele>355.6666666666667</ele><time>2026-04-12T07:11:46Z</time></trkpt><trkpt lat="44.54324256214459" lon="7.93677745216722"><ele>357.3333333333333</ele><time>2026-04-12T07:11:50Z</time></trkpt><trkpt lat="44.543254990139644" lon="7.936876914281794"><ele>359.0</ele><time>2026-04-12T07:11:54Z</time></trkpt><trkpt lat="44.54326771111543" lon="7.936982623967888"><ele>360.66666666666663</ele><time>2026-04-12T07:11:58Z</time></trkpt><trkpt lat="44.54328272926394" lon="7.937076801187044"><ele>362.3333333333333</ele><time>2026-04-12T07:12:01Z</time></trkpt><trkpt lat="44.54330515203952" lon="7.937175379145036"><ele>364.0</ele><time>2026-04-12T07:12:05Z</time></trkpt><trkpt lat="44.54333579118102" lon="7.937283655415001"><ele>364.0</ele><time>2026-04-12T07:12:09Z</time></trkpt><trkpt lat="44.543375478353845" lon="7.937379718308967"><ele>364.0</ele><time>2026-04-12T07:12:13Z</time></trkpt><trkpt lat="44.54341116702836" lon="7.937453363404425"><ele>364.0</ele><time>2026-04-12T07:12:16Z</time></trkpt><trkpt lat="44.543459121552225" lon="7.93752853013193"><ele>364.0</ele><time>2026-04-12T07:12:18.999Z</time></trkpt><trkpt lat="44.543521630333295" lon="7.937584023890187"><ele>364.0</ele><time>2026-04-12T07:12:22.999Z</time></trkpt><trkpt lat="44.54357780506671" lon="7.937634447588843"><ele>364.0</ele><time>2026-04-12T07:12:25.999Z</time></trkpt><trkpt lat="44.54363989730629" lon="7.937700870010242"><ele>364.0</ele><time>2026-04-12T07:12:28.999Z</time></trkpt><trkpt lat="44.543708253058455" lon="7.937756846956104"><ele>365.57142857142856</ele><time>2026-04-12T07:12:32.999Z</time></trkpt><trkpt lat="44.54377690205282" lon="7.937815763854536"><ele>367.1428571428571</ele><time>2026-04-12T07:12:36.999Z</time></trkpt><trkpt lat="44.543832906347156" lon="7.937857205056648"><ele>368.7142857142857</ele><time>2026-04-12T07:12:39.999Z</time></trkpt><trkpt lat="44.54389498565241" lon="7.937909163826915"><ele>370.2857142857143</ele><time>2026-04-12T07:12:43.999Z</time></trkpt><trkpt lat="44.54395650526696" lon="7.937963607920922"><ele>371.85714285714283</ele><time>2026-04-12T07:12:47.999Z</time></trkpt><trkpt lat="44.54401555020024" lon="7.938019509017738"><ele>373.42857142857144</ele><time>2026-04-12T07:12:51.999Z</time></trkpt><trkpt lat="44.5440718457394" lon="7.938078562174388"><ele>375.0</ele><time>2026-04-12T07:12:55.999Z</time></trkpt><trkpt lat="44.54413494980769" lon="7.9381403624626605"><ele>375.0</ele><time>2026-04-12T07:12:59.999Z</time></trkpt><trkpt lat="44.54419870506288" lon="7.938199604116791"><ele>375.0</ele><time>2026-04-12T07:13:03.999Z</time></trkpt><trkpt lat="44.54423191567062" lon="7.938280565616254"><ele>375.0</ele><time>2026-04-12T07:13:07.999Z</time></trkpt><trkpt lat="44.544243669355815" lon="7.938377508721172"><ele>375.0</ele><time>2026-04-12T07:13:10.999Z</time></trkpt><trkpt lat="44.544241157224285" lon="7.938484450399357"><ele>375.0</ele><time>2026-04-12T07:13:14.999Z</time></trkpt><trkpt lat="44.54423123683728" lon="7.938586292127661"><ele>375.0</ele><time>2026-04-12T07:13:18.999Z</time></trkpt><trkpt lat="44.54421543798269" lon="7.938686525870453"><ele>375.0</ele><time>2026-04-12T07:13:22.999Z</time></trkpt><trkpt lat="44.54418553025267" lon="7.938772152688531"><ele>376.2857142857143</ele><time>2026-04-12T07:13:27Z</time></trkpt><trkpt lat="44.54412828854633" lon="7.938841188056562"><ele>377.57142857142856</ele><time>2026-04-12T07:13:31Z</time></trkpt><trkpt lat="44.54408078166972" lon="7.938921338592101"><ele>378.85714285714283</ele><time>2026-04-12T07:13:36Z</time></trkpt><trkpt lat="44.54408937465861" lon="7.939015616780075"><ele>380.1428571428571</ele><time>2026-04-12T07:13:40Z</time></trkpt><trkpt lat="44.544146776848166" lon="7.939087018505315"><ele>381.42857142857144</ele><time>2026-04-12T07:13:45Z</time></trkpt><trkpt lat="44.5442127399537" lon="7.939138242308884"><ele>382.71428571428567</ele><time>2026-04-12T07:13:49Z</time></trkpt><trkpt lat="44.544279535740834" lon="7.939161808533459"><ele>384.0</ele><time>2026-04-12T07:13:53Z</time></trkpt><trkpt lat="44.54435205854344" lon="7.939167443124416"><ele>384.0</ele><time>2026-04-12T07:13:57Z</time></trkpt><trkpt lat="44.54443211952345" lon="7.93917230868209"><ele>384.0</ele><time>2026-04-12T07:14:01Z</time></trkpt><trkpt lat="44.544507879851366" lon="7.93918342034926"><ele>384.0</ele><time>2026-04-12T07:14:05Z</time></trkpt><trkpt lat="44.54457704510079" lon="7.939216642090828"><ele>384.0</ele><time>2026-04-12T07:14:08Z</time></trkpt><trkpt lat="44.54462158203894" lon="7.939283154067733"><ele>384.0</ele><time>2026-04-12T07:14:12Z</time></trkpt><trkpt lat="44.54464367552707" lon="7.9393893469511845"><ele>384.0</ele><time>2026-04-12T07:14:16Z</time></trkpt><trkpt lat="44.544643056429564" lon="7.939507183813588"><ele>384.99999999999994</ele><time>2026-04-12T07:14:19.999Z</time></trkpt><trkpt lat="44.544670934272595" lon="7.939590231839726"><ele>386.0</ele><time>2026-04-12T07:14:22.999Z</time></trkpt><trkpt lat="44.544673812410004" lon="7.9396810683362915"><ele>387.0</ele><time>2026-04-12T07:14:26.999Z</time></trkpt><trkpt lat="44.544690801460604" lon="7.9397939953455134"><ele>388.0</ele><time>2026-04-12T07:14:30.999Z</time></trkpt><trkpt lat="44.54470434673494" lon="7.939898634312364"><ele>389.0</ele><time>2026-04-12T07:14:34.999Z</time></trkpt><trkpt lat="44.54472150234788" lon="7.939991107361015"><ele>389.99999999999994</ele><time>2026-04-12T07:14:37.999Z</time></trkpt><trkpt lat="44.5447820536838" lon="7.9400712448291175"><ele>391.0</ele><time>2026-04-12T07:14:40.999Z</time></trkpt><trkpt lat="44.5448535280807" lon="7.940116678677851"><ele>390.99999999999994</ele><time>2026-04-12T07:14:44.999Z</time></trkpt><trkpt lat="44.54493089772924" lon="7.94014088834091"><ele>391.0</ele><time>2026-04-12T07:14:48.999Z</time></trkpt><trkpt lat="44.54500514652435" lon="7.940158427731342"><ele>391.0</ele><time>2026-04-12T07:14:52.999Z</time></trkpt><trkpt lat="44.5450678242078" lon="7.9401721590867815"><ele>391.0</ele><time>2026-04-12T07:14:55.999Z</time></trkpt><trkpt lat="44.54512842341154" lon="7.940202995690894"><ele>391.0</ele><time>2026-04-12T07:14:58.999Z</time></trkpt><trkpt lat="44.54519408576962" lon="7.940218415704006"><ele>390.99999999999994</ele><time>2026-04-12T07:15:01.999Z</time></trkpt><trkpt lat="44.54526950234404" lon="7.940233610846774"><ele>391.0</ele><time>2026-04-12T07:15:05.999Z</time></trkpt><trkpt lat="44.54535201381045" lon="7.940255051678356"><ele>392.85714285714283</ele><time>2026-04-12T07:15:09.999Z</time></trkpt><trkpt lat="44.54543101796697" lon="7.940268092225787"><ele>394.7142857142857</ele><time>2026-04-12T07:15:13.999Z</time></trkpt><trkpt lat="44.54551074615588" lon="7.940276932345427"><ele>396.57142857142856</ele><time>2026-04-12T07:15:17.999Z</time></trkpt><trkpt lat="44.54557446180496" lon="7.940288391029846"><ele>398.42857142857144</ele><time>2026-04-12T07:15:20.999Z</time></trkpt><trkpt lat="44.54564355709342" lon="7.9403097276787795"><ele>400.2857142857143</ele><time>2026-04-12T07:15:24.999Z</time></trkpt><trkpt lat="44.54570037854032" lon="7.940352977576236"><ele>402.1428571428571</ele><time>2026-04-12T07:15:27.999Z</time></trkpt><trkpt lat="44.54575988362628" lon="7.940431106879398"><ele>404.0</ele><time>2026-04-12T07:15:32Z</time></trkpt><trkpt lat="44.54582258609623" lon="7.940507860329695"><ele>403.99999999999994</ele><time>2026-04-12T07:15:36Z</time></trkpt><trkpt lat="44.54588757661082" lon="7.94057972280735"><ele>404.0</ele><time>2026-04-12T07:15:40Z</time></trkpt><trkpt lat="44.5459533413198" lon="7.940651158289543"><ele>404.0</ele><time>2026-04-12T07:15:44Z</time></trkpt><trkpt lat="44.545995362460516" lon="7.940719185499071"><ele>404.0</ele><time>2026-04-12T07:15:48Z</time></trkpt><trkpt lat="44.546057226219375" lon="7.940790985992141"><ele>403.99999999999994</ele><time>2026-04-12T07:15:52Z</time></trkpt><trkpt lat="44.54610871331487" lon="7.940858140247054"><ele>404.0</ele><time>2026-04-12T07:15:56Z</time></trkpt><trkpt lat="44.54616873397686" lon="7.940940857638969"><ele>405.7142857142857</ele><time>2026-04-12T07:16:00Z</time></trkpt><trkpt lat="44.54622287355674" lon="7.941008465380937"><ele>407.42857142857144</ele><time>2026-04-12T07:16:04Z</time></trkpt><trkpt lat="44.54627694824894" lon="7.9411047872083635"><ele>409.1428571428571</ele><time>2026-04-12T07:16:09Z</time></trkpt><trkpt lat="44.54632864804463" lon="7.94116806487004"><ele>410.8571428571429</ele><time>2026-04-12T07:16:13Z</time></trkpt><trkpt lat="44.5463812304418" lon="7.941231508948819"><ele>412.5714285714286</ele><time>2026-04-12T07:16:17Z</time></trkpt><trkpt lat="44.54643118522907" lon="7.94130701602992"><ele>414.2857142857143</ele><time>2026-04-12T07:16:20.999Z</time></trkpt><trkpt lat="44.546488823596086" lon="7.941359909371511"><ele>416.0</ele><time>2026-04-12T07:16:24.999Z</time></trkpt><trkpt lat="44.546535348670396" lon="7.941433306215752"><ele>416.0</ele><time>2026-04-12T07:16:28.999Z</time></trkpt><trkpt lat="44.54657945852302" lon="7.94149937543491"><ele>416.0</ele><time>2026-04-12T07:16:32.999Z</time></trkpt><trkpt lat="44.54664318915577" lon="7.941580039572694"><ele>416.0</ele><time>2026-04-12T07:16:37.999Z</time></trkpt><trkpt lat="44.546702529914484" lon="7.941636900152477"><ele>416.0</ele><time>2026-04-12T07:16:41.999Z</time></trkpt><trkpt lat="44.54675344219005" lon="7.94171069457851"><ele>416.0</ele><time>2026-04-12T07:16:45.999Z</time></trkpt><trkpt lat="44.54680351562018" lon="7.941764290230441"><ele>416.0</ele><time>2026-04-12T07:16:49.999Z</time></trkpt><trkpt lat="44.546852764403" lon="7.941821419613822"><ele>416.0</ele><time>2026-04-12T07:16:53.999Z</time></trkpt><trkpt lat="44.54690823525679" lon="7.941882514066396"><ele>415.2857142857143</ele><time>2026-04-12T07:16:57.999Z</time></trkpt><trkpt lat="44.546958588858395" lon="7.941942994486159"><ele>414.5714285714286</ele><time>2026-04-12T07:17:01.999Z</time></trkpt><trkpt lat="44.5470019112848" lon="7.942011593813847"><ele>413.8571428571429</ele><time>2026-04-12T07:17:05.999Z</time></trkpt><trkpt lat="44.547066449780225" lon="7.942067574164755"><ele>413.1428571428571</ele><time>2026-04-12T07:17:10.999Z</time></trkpt><trkpt lat="44.54711324413055" lon="7.942130762240554"><ele>412.42857142857144</ele><time>2026-04-12T07:17:14.999Z</time></trkpt><trkpt lat="44.547171271431324" lon="7.942190459537648"><ele>411.7142857142857</ele><time>2026-04-12T07:17:17.999Z</time></trkpt><trkpt lat="44.54718743133969" lon="7.942294236512218"><ele>411.0</ele><time>2026-04-12T07:17:21.999Z</time></trkpt><trkpt lat="44.54717054499609" lon="7.942392599976451"><ele>410.6666666666667</ele><time>2026-04-12T07:17:24.999Z</time></trkpt><trkpt lat="44.54718057408966" lon="7.942508074007855"><ele>410.33333333333337</ele><time>2026-04-12T07:17:27.999Z</time></trkpt><trkpt lat="44.547225898775565" lon="7.942572828536656"><ele>410.0</ele><time>2026-04-12T07:17:30.999Z</time></trkpt><trkpt lat="44.54729924672487" lon="7.942634842707025"><ele>409.6666666666667</ele><time>2026-04-12T07:17:33.999Z</time></trkpt><trkpt lat="44.547368555108946" lon="7.942686762671634"><ele>409.33333333333337</ele><time>2026-04-12T07:17:38Z</time></trkpt><trkpt lat="44.54743068990075" lon="7.942710781026091"><ele>409.0</ele><time>2026-04-12T07:17:41Z</time></trkpt><trkpt lat="44.547510574185864" lon="7.942739155340306"><ele>409.0</ele><time>2026-04-12T07:17:45Z</time></trkpt><trkpt lat="44.54757235980803" lon="7.942779591921805"><ele>409.0</ele><time>2026-04-12T07:17:48Z</time></trkpt><trkpt lat="44.54764999611277" lon="7.942783215677177"><ele>409.0</ele><time>2026-04-12T07:17:53Z</time></trkpt><trkpt lat="44.547716615562436" lon="7.942779049614661"><ele>409.0</ele><time>2026-04-12T07:17:57Z</time></trkpt><trkpt lat="44.54777767634105" lon="7.942747395312566"><ele>409.0</ele><time>2026-04-12T07:18:01Z</time></trkpt><trkpt lat="44.547835229198185" lon="7.942691812859559"><ele>409.0</ele><time>2026-04-12T07:18:05Z</time></trkpt><trkpt lat="44.54791236703783" lon="7.942681026906488"><ele>409.0</ele><time>2026-04-12T07:18:09Z</time></trkpt><trkpt lat="44.54796697791961" lon="7.94272852715167"><ele>412.1428571428571</ele><time>2026-04-12T07:18:13Z</time></trkpt><trkpt lat="44.54802141007493" lon="7.942796905968692"><ele>415.28571428571433</ele><time>2026-04-12T07:18:17Z</time></trkpt><trkpt lat="44.548072462967454" lon="7.942849914185918"><ele>418.42857142857144</ele><time>2026-04-12T07:18:21Z</time></trkpt><trkpt lat="44.548131471468906" lon="7.94292180526126"><ele>421.57142857142856</ele><time>2026-04-12T07:18:25.999Z</time></trkpt><trkpt lat="44.548188714396176" lon="7.942997973094288"><ele>424.71428571428567</ele><time>2026-04-12T07:18:29.999Z</time></trkpt><trkpt lat="44.548239865291386" lon="7.943061545181757"><ele>427.8571428571429</ele><time>2026-04-12T07:18:33.999Z</time></trkpt><trkpt lat="44.54829183373446" lon="7.943135555303325"><ele>431.0</ele><time>2026-04-12T07:18:38.999Z</time></trkpt><trkpt lat="44.54835365806712" lon="7.943194358993023"><ele>431.0</ele><time>2026-04-12T07:18:43.999Z</time></trkpt><trkpt lat="44.54841040080554" lon="7.943237675432431"><ele>431.0</ele><time>2026-04-12T07:18:47.999Z</time></trkpt><trkpt lat="44.54847347727299" lon="7.943278643504732"><ele>431.0</ele><time>2026-04-12T07:18:52.999Z</time></trkpt><trkpt lat="44.54853785710242" lon="7.943288817716795"><ele>431.0</ele><time>2026-04-12T07:18:56.999Z</time></trkpt><trkpt lat="44.54861747453223" lon="7.943307395051092"><ele>431.0</ele><time>2026-04-12T07:19:02.999Z</time></trkpt><trkpt lat="44.54868405688146" lon="7.943313838985994"><ele>431.0</ele><time>2026-04-12T07:19:06.999Z</time></trkpt><trkpt lat="44.548760423576624" lon="7.943328029773131"><ele>431.0</ele><time>2026-04-12T07:19:11.999Z</time></trkpt><trkpt lat="44.54882986297306" lon="7.943339952753221"><ele>431.66666666666663</ele><time>2026-04-12T07:19:16.999Z</time></trkpt><trkpt lat="44.548892954388464" lon="7.943397297284908"><ele>432.3333333333333</ele><time>2026-04-12T07:19:21.999Z</time></trkpt><trkpt lat="44.548946107246636" lon="7.943447473304293"><ele>433.0</ele><time>2026-04-12T07:19:24.999Z</time></trkpt><trkpt lat="44.54900653527392" lon="7.943511264051955"><ele>433.66666666666663</ele><time>2026-04-12T07:19:28.999Z</time></trkpt><trkpt lat="44.54907288202919" lon="7.9435723020629245"><ele>434.3333333333333</ele><time>2026-04-12T07:19:32.999Z</time></trkpt><trkpt lat="44.54913662834672" lon="7.943640737298432"><ele>435.0</ele><time>2026-04-12T07:19:36.999Z</time></trkpt><trkpt lat="44.549200469099304" lon="7.943711831122203"><ele>435.00000000000006</ele><time>2026-04-12T07:19:40.999Z</time></trkpt><trkpt lat="44.54925112226588" lon="7.943766652887308"><ele>435.0</ele><time>2026-04-12T07:19:44Z</time></trkpt><trkpt lat="44.54930552153935" lon="7.94381703341187"><ele>435.0</ele><time>2026-04-12T07:19:47Z</time></trkpt><trkpt lat="44.54935955405077" lon="7.943874777472482"><ele>435.0</ele><time>2026-04-12T07:19:50Z</time></trkpt><trkpt lat="44.54941027893384" lon="7.943930213487018"><ele>435.0</ele><time>2026-04-12T07:19:53Z</time></trkpt><trkpt lat="44.54947403641255" lon="7.94399277249446"><ele>435.00000000000006</ele><time>2026-04-12T07:19:57Z</time></trkpt><trkpt lat="44.54953110085919" lon="7.944047468617788"><ele>435.0</ele><time>2026-04-12T07:20:01Z</time></trkpt><trkpt lat="44.54959493821351" lon="7.944118165250983"><ele>434.6666666666667</ele><time>2026-04-12T07:20:05Z</time></trkpt><trkpt lat="44.54964362782924" lon="7.944182541976747"><ele>434.33333333333337</ele><time>2026-04-12T07:20:10Z</time></trkpt><trkpt lat="44.54970921849025" lon="7.944213130702599"><ele>434.0</ele><time>2026-04-12T07:21:58.999Z</time></trkpt><trkpt lat="44.54976835374114" lon="7.944260018687659"><ele>433.6666666666667</ele><time>2026-04-12T07:22:00.999Z</time></trkpt><trkpt lat="44.549838018323705" lon="7.944297798238945"><ele>433.33333333333337</ele><time>2026-04-12T07:22:02.999Z</time></trkpt><trkpt lat="44.549915778344" lon="7.9443491120631045"><ele>433.0</ele><time>2026-04-12T07:22:04.999Z</time></trkpt><trkpt lat="44.550007633044196" lon="7.944407123463979"><ele>432.0</ele><time>2026-04-12T07:22:06.999Z</time></trkpt><trkpt lat="44.55008691894435" lon="7.944462642080317"><ele>430.99999999999994</ele><time>2026-04-12T07:22:08.999Z</time></trkpt><trkpt lat="44.550175172067284" lon="7.944521485618706"><ele>429.99999999999994</ele><time>2026-04-12T07:22:10.999Z</time></trkpt><trkpt lat="44.55026619759542" lon="7.944577666050306"><ele>429.0</ele><time>2026-04-12T07:22:12.999Z</time></trkpt><trkpt lat="44.55035433605551" lon="7.944639409698436"><ele>428.0</ele><time>2026-04-12T07:22:14.999Z</time></trkpt><trkpt lat="44.55045230586055" lon="7.9446868617512525"><ele>430.2</ele><time>2026-04-12T07:22:16.999Z</time></trkpt><trkpt lat="44.55054466601647" lon="7.944764608430727"><ele>432.4</ele><time>2026-04-12T07:22:18.999Z</time></trkpt><trkpt lat="44.55063648098955" lon="7.944828769992828"><ele>434.59999999999997</ele><time>2026-04-12T07:22:20.999Z</time></trkpt><trkpt lat="44.55072418796137" lon="7.944898290935358"><ele>436.79999999999995</ele><time>2026-04-12T07:22:22.999Z</time></trkpt><trkpt lat="44.55079785650828" lon="7.944965321781345"><ele>439.0</ele><time>2026-04-12T07:22:24.999Z</time></trkpt><trkpt lat="44.55086524316728" lon="7.945025752922903"><ele>439.00000000000006</ele><time>2026-04-12T07:22:26.999Z</time></trkpt><trkpt lat="44.550932460186914" lon="7.945094461660732"><ele>439.0</ele><time>2026-04-12T07:22:28.999Z</time></trkpt><trkpt lat="44.55100202476191" lon="7.94515360382645"><ele>439.0</ele><time>2026-04-12T07:22:30.999Z</time></trkpt><trkpt lat="44.551067939319" lon="7.945220051288462"><ele>439.0</ele><time>2026-04-12T07:22:32.999Z</time></trkpt><trkpt lat="44.55113141611006" lon="7.945293399758057"><ele>439.00000000000006</ele><time>2026-04-12T07:22:34.999Z</time></trkpt><trkpt lat="44.55120275763771" lon="7.9453534957670495"><ele>439.0</ele><time>2026-04-12T07:22:36.999Z</time></trkpt><trkpt lat="44.55128165306615" lon="7.9453828707462995"><ele>439.00000000000006</ele><time>2026-04-12T07:22:38.999Z</time></trkpt><trkpt lat="44.55135421895262" lon="7.945421992864274"><ele>439.0</ele><time>2026-04-12T07:22:40.999Z</time></trkpt><trkpt lat="44.551444491409065" lon="7.945465027481992"><ele>439.0</ele><time>2026-04-12T07:22:42.999Z</time></trkpt><trkpt lat="44.55153352867081" lon="7.945491524160631"><ele>439.0</ele><time>2026-04-12T07:22:44.999Z</time></trkpt><trkpt lat="44.551611388568155" lon="7.945518243822018"><ele>439.00000000000006</ele><time>2026-04-12T07:22:46.999Z</time></trkpt><trkpt lat="44.551681059473786" lon="7.945548731569857"><ele>439.0</ele><time>2026-04-12T07:22:48.999Z</time></trkpt><trkpt lat="44.55174652153759" lon="7.945579324416045"><ele>439.00000000000006</ele><time>2026-04-12T07:22:50.999Z</time></trkpt><trkpt lat="44.551819520331705" lon="7.945609689657375"><ele>439.0</ele><time>2026-04-12T07:22:52.999Z</time></trkpt><trkpt lat="44.55189407411533" lon="7.945650869402186"><ele>439.0</ele><time>2026-04-12T07:22:54.999Z</time></trkpt><trkpt lat="44.55196070892742" lon="7.945710574182387"><ele>439.0</ele><time>2026-04-12T07:22:56.999Z</time></trkpt><trkpt lat="44.5520344074244" lon="7.945777646170238"><ele>439.00000000000006</ele><time>2026-04-12T07:22:58.999Z</time></trkpt><trkpt lat="44.55210945189101" lon="7.945860974599071"><ele>439.0</ele><time>2026-04-12T07:23:00.999Z</time></trkpt><trkpt lat="44.55220259024868" lon="7.945957086403312"><ele>438.1666666666667</ele><time>2026-04-12T07:23:02.999Z</time></trkpt><trkpt lat="44.55230037703554" lon="7.946030746959941"><ele>437.33333333333337</ele><time>2026-04-12T07:23:04.999Z</time></trkpt><trkpt lat="44.55238969904939" lon="7.94611435053069"><ele>436.5</ele><time>2026-04-12T07:23:06.999Z</time></trkpt><trkpt lat="44.55243998034774" lon="7.946169992469063"><ele>435.66666666666663</ele><time>2026-04-12T07:23:07.999Z</time></trkpt><trkpt lat="44.55250525205909" lon="7.946252427105967"><ele>434.8333333333333</ele><time>2026-04-12T07:23:08.999Z</time></trkpt><trkpt lat="44.55256436243383" lon="7.9463151974446244"><ele>434.0</ele><time>2026-04-12T07:23:09.999Z</time></trkpt><trkpt lat="44.5526204019051" lon="7.946378501488497"><ele>433.99999999999994</ele><time>2026-04-12T07:23:10.999Z</time></trkpt><trkpt lat="44.55267104265995" lon="7.946447277697066"><ele>434.0</ele><time>2026-04-12T07:23:11.999Z</time></trkpt><trkpt lat="44.55273403810409" lon="7.946516339859251"><ele>434.0</ele><time>2026-04-12T07:23:12.999Z</time></trkpt><trkpt lat="44.55284941606473" lon="7.946599639040915"><ele>434.0</ele><time>2026-04-12T07:23:14.999Z</time></trkpt><trkpt lat="44.55289958856851" lon="7.946663460021013"><ele>433.99999999999994</ele><time>2026-04-12T07:23:15.999Z</time></trkpt><trkpt lat="44.55296053619329" lon="7.946719752257937"><ele>434.0</ele><time>2026-04-12T07:23:16.999Z</time></trkpt><trkpt lat="44.55302150051321" lon="7.94676210208895"><ele>435.79999999999995</ele><time>2026-04-12T07:23:17.999Z</time></trkpt><trkpt lat="44.55311967841602" lon="7.9468653015862145"><ele>437.59999999999997</ele><time>2026-04-12T07:23:19.999Z</time></trkpt><trkpt lat="44.55317555562218" lon="7.946998627303887"><ele>439.4</ele><time>2026-04-12T07:23:21.999Z</time></trkpt><trkpt lat="44.553192413229354" lon="7.94711659756234"><ele>441.2</ele><time>2026-04-12T07:23:23.999Z</time></trkpt><trkpt lat="44.55321968282997" lon="7.947220735559421"><ele>443.0</ele><time>2026-04-12T07:23:25.999Z</time></trkpt><trkpt lat="44.55322680551136" lon="7.947347394568385"><ele>442.99999999999994</ele><time>2026-04-12T07:23:27.999Z</time></trkpt><trkpt lat="44.553228238552286" lon="7.947469600701237"><ele>443.0</ele><time>2026-04-12T07:23:29.999Z</time></trkpt><trkpt lat="44.55324091376298" lon="7.947568069961019"><ele>443.0</ele><time>2026-04-12T07:23:31.999Z</time></trkpt><trkpt lat="44.553306109993045" lon="7.947631955967758"><ele>443.0</ele><time>2026-04-12T07:23:34.999Z</time></trkpt><trkpt lat="44.553371222452" lon="7.947664534266827"><ele>442.99999999999994</ele><time>2026-04-12T07:23:37.999Z</time></trkpt><trkpt lat="44.553438459292146" lon="7.947730612401964"><ele>443.0</ele><time>2026-04-12T07:23:40.998Z</time></trkpt><trkpt lat="44.55351690401702" lon="7.947824474540781"><ele>442.49999999999994</ele><time>2026-04-12T07:23:43.998Z</time></trkpt><trkpt lat="44.55358159235445" lon="7.947886969193846"><ele>442.0</ele><time>2026-04-12T07:23:45.998Z</time></trkpt><trkpt lat="44.553642515779615" lon="7.947947802786775"><ele>441.5</ele><time>2026-04-12T07:23:47.998Z</time></trkpt><trkpt lat="44.553710829373045" lon="7.948011427878598"><ele>441.0</ele><time>2026-04-12T07:23:49.998Z</time></trkpt><trkpt lat="44.553786346316386" lon="7.948061699789136"><ele>440.49999999999994</ele><time>2026-04-12T07:23:51.998Z</time></trkpt><trkpt lat="44.55385347893031" lon="7.948122813213829"><ele>440.0</ele><time>2026-04-12T07:23:53.998Z</time></trkpt><trkpt lat="44.55392213334327" lon="7.948179869891542"><ele>439.99999999999994</ele><time>2026-04-12T07:23:55.999Z</time></trkpt><trkpt lat="44.55397603100573" lon="7.948248471305348"><ele>440.0</ele><time>2026-04-12T07:23:57.999Z</time></trkpt><trkpt lat="44.554049869312614" lon="7.948311777815903"><ele>440.0</ele><time>2026-04-12T07:24:00Z</time></trkpt><trkpt lat="44.55412688709288" lon="7.948374613158726"><ele>440.0</ele><time>2026-04-12T07:24:02Z</time></trkpt><trkpt lat="44.55420042235716" lon="7.948440810413946"><ele>439.99999999999994</ele><time>2026-04-12T07:24:04Z</time></trkpt><trkpt lat="44.55427496228435" lon="7.948504073048778"><ele>440.0</ele><time>2026-04-12T07:24:06Z</time></trkpt><trkpt lat="44.554342352911554" lon="7.948569006767653"><ele>438.66666666666663</ele><time>2026-04-12T07:24:08Z</time></trkpt><trkpt lat="44.55440837364383" lon="7.948649363620559"><ele>437.3333333333333</ele><time>2026-04-12T07:24:10Z</time></trkpt><trkpt lat="44.55448173956801" lon="7.948719985175523"><ele>436.0</ele><time>2026-04-12T07:24:12Z</time></trkpt><trkpt lat="44.55454898680466" lon="7.9487926284321"><ele>434.66666666666663</ele><time>2026-04-12T07:24:14Z</time></trkpt><trkpt lat="44.554607669545376" lon="7.948862282956175"><ele>433.3333333333333</ele><time>2026-04-12T07:24:16Z</time></trkpt><trkpt lat="44.55467044077582" lon="7.948925741983126"><ele>432.0</ele><time>2026-04-12T07:24:18Z</time></trkpt><trkpt lat="44.55473305905499" lon="7.948997233371855"><ele>432.0</ele><time>2026-04-12T07:24:20Z</time></trkpt><trkpt lat="44.55479807690195" lon="7.9490760192783165"><ele>432.00000000000006</ele><time>2026-04-12T07:24:22Z</time></trkpt><trkpt lat="44.55486608349201" lon="7.949157419226144"><ele>432.00000000000006</ele><time>2026-04-12T07:24:24Z</time></trkpt><trkpt lat="44.55494285173844" lon="7.9492491726721655"><ele>432.0</ele><time>2026-04-12T07:24:26Z</time></trkpt><trkpt lat="44.55502936495481" lon="7.949343864257258"><ele>432.0</ele><time>2026-04-12T07:24:28Z</time></trkpt><trkpt lat="44.5551177951131" lon="7.949442816352024"><ele>432.20000000000005</ele><time>2026-04-12T07:24:30Z</time></trkpt><trkpt lat="44.55519855456129" lon="7.949545072895662"><ele>432.40000000000003</ele><time>2026-04-12T07:24:32Z</time></trkpt><trkpt lat="44.55527949706887" lon="7.9496458595848445"><ele>432.59999999999997</ele><time>2026-04-12T07:24:34Z</time></trkpt><trkpt lat="44.555355727944516" lon="7.949732609934298"><ele>432.79999999999995</ele><time>2026-04-12T07:24:36Z</time></trkpt><trkpt lat="44.55543868315701" lon="7.949823361339082"><ele>433.0</ele><time>2026-04-12T07:24:37.999Z</time></trkpt><trkpt lat="44.55552608185088" lon="7.949909449214119"><ele>433.0</ele><time>2026-04-12T07:24:39.999Z</time></trkpt><trkpt lat="44.55561157118042" lon="7.949993030843905"><ele>432.99999999999994</ele><time>2026-04-12T07:24:41.999Z</time></trkpt><trkpt lat="44.55569820362309" lon="7.950063182418021"><ele>432.99999999999994</ele><time>2026-04-12T07:24:43.999Z</time></trkpt><trkpt lat="44.55576875470935" lon="7.950161421967463"><ele>433.0</ele><time>2026-04-12T07:24:45.999Z</time></trkpt><trkpt lat="44.55583461846778" lon="7.950251258865096"><ele>433.0</ele><time>2026-04-12T07:24:47.999Z</time></trkpt><trkpt lat="44.555898009433626" lon="7.950341039781877"><ele>432.33333333333337</ele><time>2026-04-12T07:24:49.999Z</time></trkpt><trkpt lat="44.55595219514303" lon="7.950410315319967"><ele>431.6666666666667</ele><time>2026-04-12T07:24:51.999Z</time></trkpt><trkpt lat="44.556002431377856" lon="7.9504829336195755"><ele>431.0</ele><time>2026-04-12T07:24:53.999Z</time></trkpt><trkpt lat="44.55606602786937" lon="7.950544527291352"><ele>430.33333333333337</ele><time>2026-04-12T07:24:56.999Z</time></trkpt><trkpt lat="44.55612569875427" lon="7.950627001261212"><ele>429.6666666666667</ele><time>2026-04-12T07:24:59.999Z</time></trkpt><trkpt lat="44.55619367672407" lon="7.950694037864916"><ele>429.0</ele><time>2026-04-12T07:25:02.999Z</time></trkpt><trkpt lat="44.55627007432374" lon="7.950752603229188"><ele>429.8333333333333</ele><time>2026-04-12T07:25:05.999Z</time></trkpt><trkpt lat="44.55633668545376" lon="7.950795352446071"><ele>430.66666666666663</ele><time>2026-04-12T07:25:07.999Z</time></trkpt><trkpt lat="44.556414711581866" lon="7.950845320738844"><ele>431.5</ele><time>2026-04-12T07:25:09.999Z</time></trkpt><trkpt lat="44.5564843759654" lon="7.950890560632436"><ele>432.3333333333333</ele><time>2026-04-12T07:25:11.999Z</time></trkpt><trkpt lat="44.55656746293059" lon="7.950939689610717"><ele>433.16666666666663</ele><time>2026-04-12T07:25:13.999Z</time></trkpt><trkpt lat="44.556646403119544" lon="7.9509753187938506"><ele>434.0</ele><time>2026-04-12T07:25:15.999Z</time></trkpt><trkpt lat="44.556737943433156" lon="7.9510098889629734"><ele>433.99999999999994</ele><time>2026-04-12T07:25:17.999Z</time></trkpt><trkpt lat="44.55681095731734" lon="7.951055406149308"><ele>434.0</ele><time>2026-04-12T07:25:19.999Z</time></trkpt><trkpt lat="44.556865136466094" lon="7.951107285855694"><ele>434.0</ele><time>2026-04-12T07:25:21.999Z</time></trkpt><trkpt lat="44.55690272640499" lon="7.951208887735095"><ele>434.0</ele><time>2026-04-12T07:25:23.999Z</time></trkpt><trkpt lat="44.556900674262" lon="7.951321276587543"><ele>433.99999999999994</ele><time>2026-04-12T07:25:25.999Z</time></trkpt><trkpt lat="44.55690816111137" lon="7.951422842427596"><ele>434.0</ele><time>2026-04-12T07:25:27.999Z</time></trkpt><trkpt lat="44.556915636440294" lon="7.9515242600488065"><ele>434.0</ele><time>2026-04-12T07:25:29.999Z</time></trkpt><trkpt lat="44.55692678972044" lon="7.951639986670191"><ele>434.0</ele><time>2026-04-12T07:25:32.999Z</time></trkpt><trkpt lat="44.556901509038234" lon="7.9517238950922176"><ele>434.0</ele><time>2026-04-12T07:25:34.999Z</time></trkpt><trkpt lat="44.556959767237345" lon="7.951796596687483"><ele>434.0</ele><time>2026-04-12T07:25:36.999Z</time></trkpt><trkpt lat="44.55710063213883" lon="7.951841252048824"><ele>434.0</ele><time>2026-04-12T07:25:38.999Z</time></trkpt><trkpt lat="44.55722128399871" lon="7.951864453424337"><ele>435.16666666666663</ele><time>2026-04-12T07:25:40.999Z</time></trkpt><trkpt lat="44.557296998822125" lon="7.951749824789579"><ele>436.3333333333333</ele><time>2026-04-12T07:25:42.999Z</time></trkpt><trkpt lat="44.557290507557255" lon="7.951652817479572"><ele>437.5</ele><time>2026-04-12T07:25:43.999Z</time></trkpt><trkpt lat="44.557238158808275" lon="7.9515138563732535"><ele>438.66666666666663</ele><time>2026-04-12T07:25:45.999Z</time></trkpt><trkpt lat="44.55717822848268" lon="7.951445777371745"><ele>439.8333333333333</ele><time>2026-04-12T07:25:48.999Z</time></trkpt><trkpt lat="44.557175917391945" lon="7.951352039343586"><ele>441.0</ele><time>2026-04-12T07:25:50.999Z</time></trkpt><trkpt lat="44.557210558783275" lon="7.951249000083176"><ele>437.8333333333333</ele><time>2026-04-12T07:25:53.999Z</time></trkpt><trkpt lat="44.557293713638806" lon="7.9511925797709235"><ele>434.66666666666663</ele><time>2026-04-12T07:25:57.999Z</time></trkpt><trkpt lat="44.55734244040914" lon="7.951278861406073"><ele>431.5</ele><time>2026-04-12T07:25:58.999Z</time></trkpt><trkpt lat="44.55742645069675" lon="7.951328955706631"><ele>428.3333333333333</ele><time>2026-04-12T07:26:01Z</time></trkpt><trkpt lat="44.5575333840607" lon="7.951373826235529"><ele>425.16666666666663</ele><time>2026-04-12T07:26:03Z</time></trkpt><trkpt lat="44.557600606328606" lon="7.9514044924248095"><ele>422.0</ele><time>2026-04-12T07:26:04Z</time></trkpt><trkpt lat="44.5577321682148" lon="7.9514533197740125"><ele>421.99999999999994</ele><time>2026-04-12T07:26:06Z</time></trkpt><trkpt lat="44.55780805536091" lon="7.951475658611213"><ele>422.0</ele><time>2026-04-12T07:26:07Z</time></trkpt><trkpt lat="44.557880751208536" lon="7.951507410165755"><ele>422.0</ele><time>2026-04-12T07:26:08Z</time></trkpt><trkpt lat="44.55795255850849" lon="7.95154275558474"><ele>422.0</ele><time>2026-04-12T07:26:09Z</time></trkpt><trkpt lat="44.5580235641804" lon="7.9515767781143305"><ele>421.99999999999994</ele><time>2026-04-12T07:26:10Z</time></trkpt><trkpt lat="44.558091553870355" lon="7.951616435492866"><ele>422.0</ele><time>2026-04-12T07:26:11Z</time></trkpt><trkpt lat="44.55816626159449" lon="7.951639700815021"><ele>419.8333333333333</ele><time>2026-04-12T07:26:12Z</time></trkpt><trkpt lat="44.55823940211075" lon="7.9516502779541725"><ele>417.66666666666663</ele><time>2026-04-12T07:26:13Z</time></trkpt><trkpt lat="44.55831344289269" lon="7.951659069141267"><ele>415.5</ele><time>2026-04-12T07:26:14Z</time></trkpt><trkpt lat="44.55838444246825" lon="7.951658009383076"><ele>413.33333333333337</ele><time>2026-04-12T07:26:15Z</time></trkpt><trkpt lat="44.558457318944846" lon="7.9516330538270275"><ele>411.1666666666667</ele><time>2026-04-12T07:26:16Z</time></trkpt><trkpt lat="44.55853440888566" lon="7.951588506822989"><ele>409.0</ele><time>2026-04-12T07:26:17Z</time></trkpt><trkpt lat="44.55861115366115" lon="7.951537331897191"><ele>409.00000000000006</ele><time>2026-04-12T07:26:18Z</time></trkpt><trkpt lat="44.55868819336396" lon="7.9514975086358906"><ele>409.0</ele><time>2026-04-12T07:26:19Z</time></trkpt><trkpt lat="44.55876880747863" lon="7.9514622226982326"><ele>409.0</ele><time>2026-04-12T07:26:20Z</time></trkpt><trkpt lat="44.55885198908927" lon="7.951430308386446"><ele>409.0</ele><time>2026-04-12T07:26:21Z</time></trkpt><trkpt lat="44.55893628200542" lon="7.951408617765587"><ele>409.00000000000006</ele><time>2026-04-12T07:26:22Z</time></trkpt><trkpt lat="44.55902379387339" lon="7.9513929248125965"><ele>409.0</ele><time>2026-04-12T07:26:23Z</time></trkpt><trkpt lat="44.5591127108619" lon="7.951378000403196"><ele>407.50000000000006</ele><time>2026-04-12T07:26:24Z</time></trkpt><trkpt lat="44.559195401236735" lon="7.951362061397719"><ele>406.0</ele><time>2026-04-12T07:26:25Z</time></trkpt><trkpt lat="44.55927151208418" lon="7.951345984378583"><ele>404.5</ele><time>2026-04-12T07:26:26Z</time></trkpt><trkpt lat="44.55934553802068" lon="7.951337566699752"><ele>403.0</ele><time>2026-04-12T07:26:27Z</time></trkpt><trkpt lat="44.559422107319385" lon="7.951327914901344"><ele>401.50000000000006</ele><time>2026-04-12T07:26:28Z</time></trkpt><trkpt lat="44.55949884643587" lon="7.951331953139874"><ele>400.0</ele><time>2026-04-12T07:26:29Z</time></trkpt><trkpt lat="44.55957402341645" lon="7.9513522300138515"><ele>397.00000000000006</ele><time>2026-04-12T07:26:30Z</time></trkpt><trkpt lat="44.559645224445966" lon="7.951380651342533"><ele>394.0</ele><time>2026-04-12T07:26:31Z</time></trkpt><trkpt lat="44.55971191179869" lon="7.95142647224888"><ele>391.0</ele><time>2026-04-12T07:26:32Z</time></trkpt><trkpt lat="44.55977352268799" lon="7.951466189441352"><ele>388.0</ele><time>2026-04-12T07:26:33Z</time></trkpt><trkpt lat="44.559874068698356" lon="7.951536442138141"><ele>385.0</ele><time>2026-04-12T07:26:35Z</time></trkpt><trkpt lat="44.55996039617256" lon="7.951525262266101"><ele>382.0</ele><time>2026-04-12T07:26:37Z</time></trkpt><trkpt lat="44.560010159876114" lon="7.951421474060093"><ele>382.0</ele><time>2026-04-12T07:26:39Z</time></trkpt><trkpt lat="44.56007529948228" lon="7.95149559125899"><ele>382.0</ele><time>2026-04-12T07:26:41Z</time></trkpt><trkpt lat="44.5601321801874" lon="7.951448046346968"><ele>382.0</ele><time>2026-04-12T07:26:45Z</time></trkpt><trkpt lat="44.560201325503" lon="7.951670986462325"><ele>382.0</ele><time>2026-04-12T07:26:46Z</time></trkpt><trkpt lat="44.56024867657694" lon="7.951601506352404"><ele>382.0</ele><time>2026-04-12T07:26:47Z</time></trkpt><trkpt lat="44.560244973591026" lon="7.951474631271593"><ele>382.0</ele><time>2026-04-12T07:26:48Z</time></trkpt><trkpt lat="44.5603206816508" lon="7.951612007141236"><ele>382.0</ele><time>2026-04-12T07:26:49Z</time></trkpt><trkpt lat="44.56040609038772" lon="7.951635285741339"><ele>382.0</ele><time>2026-04-12T07:26:51Z</time></trkpt><trkpt lat="44.560477351168345" lon="7.951928144659653"><ele>382.0</ele><time>2026-04-12T07:26:53Z</time></trkpt><trkpt lat="44.560560846076406" lon="7.952019269057568"><ele>381.0</ele><time>2026-04-12T07:26:55Z</time></trkpt><trkpt lat="44.56065185933088" lon="7.952117323685258"><ele>380.0</ele><time>2026-04-12T07:26:57Z</time></trkpt><trkpt lat="44.56074275586499" lon="7.952207345444833"><ele>379.0</ele><time>2026-04-12T07:26:59Z</time></trkpt><trkpt lat="44.560811672703764" lon="7.952295087474567"><ele>378.0</ele><time>2026-04-12T07:27:01Z</time></trkpt><trkpt lat="44.560860251590604" lon="7.9523732627757155"><ele>377.0</ele><time>2026-04-12T07:27:03Z</time></trkpt><trkpt lat="44.56092898354721" lon="7.952440891801111"><ele>377.0</ele><time>2026-04-12T07:27:05Z</time></trkpt><trkpt lat="44.560985172736714" lon="7.952512472563067"><ele>377.0</ele><time>2026-04-12T07:27:06.999Z</time></trkpt><trkpt lat="44.56104162914568" lon="7.952578459043814"><ele>377.0</ele><time>2026-04-12T07:27:08.999Z</time></trkpt><trkpt lat="44.56110344167558" lon="7.952659082726979"><ele>377.0</ele><time>2026-04-12T07:27:11.999Z</time></trkpt><trkpt lat="44.56118082621104" lon="7.952725950269014"><ele>377.0</ele><time>2026-04-12T07:27:14.999Z</time></trkpt><trkpt lat="44.56126703336236" lon="7.952772226658017"><ele>377.0</ele><time>2026-04-12T07:27:16.999Z</time></trkpt><trkpt lat="44.561331213876706" lon="7.952776503722045"><ele>375.6666666666667</ele><time>2026-04-12T07:27:17.999Z</time></trkpt><trkpt lat="44.56139384485214" lon="7.952764610116944"><ele>374.33333333333337</ele><time>2026-04-12T07:27:18.999Z</time></trkpt><trkpt lat="44.56149016592297" lon="7.95276224426946"><ele>373.0</ele><time>2026-04-12T07:27:20.999Z</time></trkpt><trkpt lat="44.56157669333525" lon="7.952754889979911"><ele>371.6666666666667</ele><time>2026-04-12T07:27:22.999Z</time></trkpt><trkpt lat="44.56166337025028" lon="7.952759981555945"><ele>370.3333333333333</ele><time>2026-04-12T07:27:24.999Z</time></trkpt><trkpt lat="44.56176334889567" lon="7.9527679119880235"><ele>369.0</ele><time>2026-04-12T07:27:26.999Z</time></trkpt><trkpt lat="44.5618785358161" lon="7.952768806590342"><ele>369.0</ele><time>2026-04-12T07:27:28.999Z</time></trkpt><trkpt lat="44.56199028605917" lon="7.952768977035676"><ele>369.0</ele><time>2026-04-12T07:27:30.999Z</time></trkpt><trkpt lat="44.56205657050575" lon="7.952754296128093"><ele>369.0</ele><time>2026-04-12T07:27:32.999Z</time></trkpt><trkpt lat="44.56212571093143" lon="7.952733319018432"><ele>369.0</ele><time>2026-04-12T07:27:36.999Z</time></trkpt><trkpt lat="44.562149192484846" lon="7.952816871516522"><ele>369.0</ele><time>2026-04-12T07:27:42.999Z</time></trkpt><trkpt lat="44.56218239510218" lon="7.952933231008322"><ele>369.0</ele><time>2026-04-12T07:27:46.999Z</time></trkpt><trkpt lat="44.56216551634793" lon="7.953057954304569"><ele>369.0</ele><time>2026-04-12T07:27:49.999Z</time></trkpt><trkpt lat="44.562113952158576" lon="7.953165463355991"><ele>369.0</ele><time>2026-04-12T07:27:52.999Z</time></trkpt><trkpt lat="44.56206300932493" lon="7.953241151246406"><ele>369.0</ele><time>2026-04-12T07:27:54.999Z</time></trkpt><trkpt lat="44.5619979903573" lon="7.953303869566877"><ele>369.0</ele><time>2026-04-12T07:27:56.999Z</time></trkpt><trkpt lat="44.561919098857956" lon="7.953362882984838"><ele>369.0</ele><time>2026-04-12T07:27:58.999Z</time></trkpt><trkpt lat="44.56184147922571" lon="7.9534478211872"><ele>369.0</ele><time>2026-04-12T07:28:00.999Z</time></trkpt><trkpt lat="44.561757268401706" lon="7.953528451499984"><ele>367.2</ele><time>2026-04-12T07:28:02.999Z</time></trkpt><trkpt lat="44.56167990858085" lon="7.953614530511851"><ele>365.4</ele><time>2026-04-12T07:28:04.999Z</time></trkpt><trkpt lat="44.561642921378144" lon="7.953744467726614"><ele>363.6</ele><time>2026-04-12T07:28:07Z</time></trkpt><trkpt lat="44.56164190559613" lon="7.95387443355425"><ele>361.8</ele><time>2026-04-12T07:28:09Z</time></trkpt><trkpt lat="44.561635893229024" lon="7.953999248324936"><ele>360.0</ele><time>2026-04-12T07:28:11Z</time></trkpt><trkpt lat="44.561627042821684" lon="7.954125902536775"><ele>359.6</ele><time>2026-04-12T07:28:13Z</time></trkpt><trkpt lat="44.56162025759267" lon="7.954274294498629"><ele>359.2</ele><time>2026-04-12T07:28:15Z</time></trkpt><trkpt lat="44.561615613029325" lon="7.9544111642654105"><ele>358.79999999999995</ele><time>2026-04-12T07:28:17Z</time></trkpt><trkpt lat="44.561615686319975" lon="7.9545800264459485"><ele>358.4</ele><time>2026-04-12T07:28:19Z</time></trkpt><trkpt lat="44.561622481149286" lon="7.9547240069560665"><ele>358.0</ele><time>2026-04-12T07:28:21Z</time></trkpt><trkpt lat="44.5616154078217" lon="7.954842959786844"><ele>358.0</ele><time>2026-04-12T07:28:23Z</time></trkpt><trkpt lat="44.56161663413399" lon="7.954960749267089"><ele>358.0</ele><time>2026-04-12T07:28:25Z</time></trkpt><trkpt lat="44.56161611929771" lon="7.955080413218027"><ele>358.0</ele><time>2026-04-12T07:28:27Z</time></trkpt><trkpt lat="44.561612904543274" lon="7.955198721150852"><ele>358.0</ele><time>2026-04-12T07:28:29Z</time></trkpt><trkpt lat="44.561610735148854" lon="7.955321044258602"><ele>358.0</ele><time>2026-04-12T07:28:31Z</time></trkpt><trkpt lat="44.56160680704845" lon="7.955433721886872"><ele>358.0</ele><time>2026-04-12T07:28:33Z</time></trkpt><trkpt lat="44.561606464952824" lon="7.955541540898123"><ele>357.28571428571433</ele><time>2026-04-12T07:28:35Z</time></trkpt><trkpt lat="44.561603502164054" lon="7.95564173561987"><ele>356.57142857142856</ele><time>2026-04-12T07:28:37Z</time></trkpt><trkpt lat="44.56158471387669" lon="7.955738396047786"><ele>355.8571428571429</ele><time>2026-04-12T07:28:39Z</time></trkpt><trkpt lat="44.561561647790164" lon="7.9558631849662165"><ele>355.14285714285717</ele><time>2026-04-12T07:28:42Z</time></trkpt><trkpt lat="44.56150612043568" lon="7.955930421186708"><ele>354.42857142857144</ele><time>2026-04-12T07:28:45Z</time></trkpt><trkpt lat="44.56144643308969" lon="7.955864841352025"><ele>353.7142857142857</ele><time>2026-04-12T07:28:49Z</time></trkpt><trkpt lat="44.56140202794253" lon="7.95579803056476"><ele>353.0</ele><time>2026-04-12T07:28:52Z</time></trkpt><trkpt lat="44.56134589025221" lon="7.955716269824683"><ele>354.83333333333337</ele><time>2026-04-12T07:28:56Z</time></trkpt><trkpt lat="44.56128457863903" lon="7.955621636927868"><ele>356.6666666666667</ele><time>2026-04-12T07:29:00Z</time></trkpt><trkpt lat="44.561209778032925" lon="7.955603315127733"><ele>358.5</ele><time>2026-04-12T07:29:03Z</time></trkpt><trkpt lat="44.56113666505749" lon="7.9556388743328625"><ele>360.3333333333333</ele><time>2026-04-12T07:29:06Z</time></trkpt><trkpt lat="44.56108350665513" lon="7.955708893897352"><ele>362.16666666666663</ele><time>2026-04-12T07:29:09Z</time></trkpt><trkpt lat="44.56104635957952" lon="7.955781013124126"><ele>364.0</ele><time>2026-04-12T07:29:12Z</time></trkpt><trkpt lat="44.56100704765492" lon="7.95587792091816"><ele>364.8333333333333</ele><time>2026-04-12T07:29:16Z</time></trkpt><trkpt lat="44.56096604484985" lon="7.955974261327612"><ele>365.66666666666663</ele><time>2026-04-12T07:29:20Z</time></trkpt><trkpt lat="44.560918894007415" lon="7.956051717641019"><ele>366.5</ele><time>2026-04-12T07:29:23.999Z</time></trkpt><trkpt lat="44.56085909881921" lon="7.956128502850769"><ele>367.3333333333333</ele><time>2026-04-12T07:29:27.999Z</time></trkpt><trkpt lat="44.560796668618586" lon="7.956195600511496"><ele>368.1666666666667</ele><time>2026-04-12T07:29:31.999Z</time></trkpt><trkpt lat="44.560730214921804" lon="7.956253984877905"><ele>369.0</ele><time>2026-04-12T07:29:35.999Z</time></trkpt><trkpt lat="44.56066232683691" lon="7.956307384797957"><ele>369.0</ele><time>2026-04-12T07:29:39.999Z</time></trkpt><trkpt lat="44.5606063394017" lon="7.956347958860492"><ele>369.0</ele><time>2026-04-12T07:29:42.999Z</time></trkpt><trkpt lat="44.56053553573146" lon="7.956397575973544"><ele>369.0</ele><time>2026-04-12T07:29:46.999Z</time></trkpt><trkpt lat="44.56046647958065" lon="7.956441160496229"><ele>369.0</ele><time>2026-04-12T07:29:50.999Z</time></trkpt><trkpt lat="44.56038715767794" lon="7.9564904726067525"><ele>369.0</ele><time>2026-04-12T07:29:54.999Z</time></trkpt><trkpt lat="44.56032987756999" lon="7.95652869220287"><ele>369.0</ele><time>2026-04-12T07:29:57.999Z</time></trkpt><trkpt lat="44.560271987379" lon="7.956577626749282"><ele>369.0</ele><time>2026-04-12T07:30:00.999Z</time></trkpt><trkpt lat="44.560216427342624" lon="7.956647452188573"><ele>372.2857142857143</ele><time>2026-04-12T07:30:03.999Z</time></trkpt><trkpt lat="44.56016959936109" lon="7.956717386317172"><ele>375.57142857142856</ele><time>2026-04-12T07:30:06.999Z</time></trkpt><trkpt lat="44.56012546190927" lon="7.956789882616916"><ele>378.8571428571429</ele><time>2026-04-12T07:30:09.999Z</time></trkpt><trkpt lat="44.56007446450583" lon="7.956879171523032"><ele>382.1428571428571</ele><time>2026-04-12T07:30:14Z</time></trkpt><trkpt lat="44.56002651985569" lon="7.956967123889988"><ele>385.42857142857144</ele><time>2026-04-12T07:30:18Z</time></trkpt><trkpt lat="44.55998722819262" lon="7.957042282397106"><ele>388.7142857142857</ele><time>2026-04-12T07:30:21Z</time></trkpt><trkpt lat="44.55994891428066" lon="7.957126457026203"><ele>392.0</ele><time>2026-04-12T07:30:24Z</time></trkpt><trkpt lat="44.559931376082304" lon="7.957218159770247"><ele>392.0</ele><time>2026-04-12T07:30:27Z</time></trkpt><trkpt lat="44.55988878024461" lon="7.957292195754392"><ele>392.0</ele><time>2026-04-12T07:30:30Z</time></trkpt><trkpt lat="44.559862783542386" lon="7.957377930474739"><ele>392.0</ele><time>2026-04-12T07:30:33Z</time></trkpt><trkpt lat="44.559841425752985" lon="7.9574660365221295"><ele>392.0</ele><time>2026-04-12T07:30:36Z</time></trkpt><trkpt lat="44.559827066623974" lon="7.957555551233137"><ele>392.0</ele><time>2026-04-12T07:30:39Z</time></trkpt><trkpt lat="44.55981849878179" lon="7.957650383597835"><ele>392.0</ele><time>2026-04-12T07:30:42Z</time></trkpt><trkpt lat="44.55981633358603" lon="7.957738851378584"><ele>392.0</ele><time>2026-04-12T07:30:45Z</time></trkpt><trkpt lat="44.559828669898614" lon="7.957851074231886"><ele>393.42857142857144</ele><time>2026-04-12T07:30:48Z</time></trkpt><trkpt lat="44.55986266198651" lon="7.957959206965545"><ele>394.8571428571429</ele><time>2026-04-12T07:30:52Z</time></trkpt><trkpt lat="44.55990574504124" lon="7.9580382621690795"><ele>396.2857142857143</ele><time>2026-04-12T07:30:55Z</time></trkpt><trkpt lat="44.55995213880253" lon="7.958098589703079"><ele>397.7142857142857</ele><time>2026-04-12T07:30:58Z</time></trkpt><trkpt lat="44.56001165717432" lon="7.9581299141743465"><ele>399.14285714285717</ele><time>2026-04-12T07:31:01Z</time></trkpt><trkpt lat="44.56006194024822" lon="7.958183379122094"><ele>400.57142857142856</ele><time>2026-04-12T07:31:04Z</time></trkpt><trkpt lat="44.56011669767725" lon="7.958232432186519"><ele>402.0</ele><time>2026-04-12T07:31:07Z</time></trkpt><trkpt lat="44.56017380660423" lon="7.958290770012828"><ele>400.6666666666667</ele><time>2026-04-12T07:31:10Z</time></trkpt><trkpt lat="44.560228442957694" lon="7.958376453301058"><ele>399.33333333333337</ele><time>2026-04-12T07:31:14Z</time></trkpt><trkpt lat="44.560293281200906" lon="7.958434978649473"><ele>398.0</ele><time>2026-04-12T07:31:17Z</time></trkpt><trkpt lat="44.560338028118984" lon="7.958518564159894"><ele>396.6666666666667</ele><time>2026-04-12T07:31:19.999Z</time></trkpt><trkpt lat="44.56037771319723" lon="7.958612520393107"><ele>395.33333333333337</ele><time>2026-04-12T07:31:22.999Z</time></trkpt><trkpt lat="44.56042896240027" lon="7.958704011478373"><ele>394.0</ele><time>2026-04-12T07:31:25.999Z</time></trkpt><trkpt lat="44.5604764024072" lon="7.958805449090771"><ele>394.0</ele><time>2026-04-12T07:31:28.999Z</time></trkpt><trkpt lat="44.560491719810045" lon="7.958909835682565"><ele>394.0</ele><time>2026-04-12T07:31:31.999Z</time></trkpt><trkpt lat="44.5605185611833" lon="7.959010245364592"><ele>394.0</ele><time>2026-04-12T07:31:34.999Z</time></trkpt><trkpt lat="44.56054061197554" lon="7.95911541766223"><ele>394.0</ele><time>2026-04-12T07:31:37.999Z</time></trkpt><trkpt lat="44.56054916653121" lon="7.959209682896338"><ele>394.0</ele><time>2026-04-12T07:31:40.999Z</time></trkpt><trkpt lat="44.560554058465875" lon="7.959301530475178"><ele>394.0</ele><time>2026-04-12T07:31:43.999Z</time></trkpt><trkpt lat="44.56055650752322" lon="7.959405867123958"><ele>394.0</ele><time>2026-04-12T07:31:46.999Z</time></trkpt><trkpt lat="44.56055652890744" lon="7.959517387085791"><ele>394.6666666666667</ele><time>2026-04-12T07:31:50.999Z</time></trkpt><trkpt lat="44.560553552995636" lon="7.959631629301011"><ele>395.33333333333337</ele><time>2026-04-12T07:31:54.999Z</time></trkpt><trkpt lat="44.56054701432966" lon="7.959728025591983"><ele>396.0</ele><time>2026-04-12T07:31:58.999Z</time></trkpt><trkpt lat="44.560534211073744" lon="7.9598253948477415"><ele>396.66666666666663</ele><time>2026-04-12T07:32:02.999Z</time></trkpt><trkpt lat="44.56051030608148" lon="7.959939013825762"><ele>397.3333333333333</ele><time>2026-04-12T07:32:06.999Z</time></trkpt><trkpt lat="44.560485584422274" lon="7.960033600310355"><ele>398.0</ele><time>2026-04-12T07:32:10.999Z</time></trkpt><trkpt lat="44.560458410768575" lon="7.960133386791426"><ele>397.99999999999994</ele><time>2026-04-12T07:32:14.999Z</time></trkpt><trkpt lat="44.56043259027427" lon="7.9602192495580315"><ele>398.0</ele><time>2026-04-12T07:32:19Z</time></trkpt><trkpt lat="44.56039705353205" lon="7.960324590120915"><ele>398.0</ele><time>2026-04-12T07:32:23Z</time></trkpt><trkpt lat="44.56038199806935" lon="7.960412313253736"><ele>398.0</ele><time>2026-04-12T07:32:26Z</time></trkpt><trkpt lat="44.560334721097306" lon="7.960478462216983"><ele>398.0</ele><time>2026-04-12T07:32:30Z</time></trkpt><trkpt lat="44.56029794825002" lon="7.960563049709383"><ele>397.99999999999994</ele><time>2026-04-12T07:32:35Z</time></trkpt><trkpt lat="44.56025498472806" lon="7.960657969166588"><ele>398.0</ele><time>2026-04-12T07:32:39Z</time></trkpt><trkpt lat="44.56021850648721" lon="7.960738560625695"><ele>400.99999999999994</ele><time>2026-04-12T07:32:43Z</time></trkpt><trkpt lat="44.56018603641597" lon="7.960829075079172"><ele>404.0</ele><time>2026-04-12T07:32:47Z</time></trkpt><trkpt lat="44.560136128570434" lon="7.9609016985351895"><ele>407.0</ele><time>2026-04-12T07:32:51Z</time></trkpt><trkpt lat="44.56009534631084" lon="7.960995543769134"><ele>410.0</ele><time>2026-04-12T07:32:55Z</time></trkpt><trkpt lat="44.56007714185601" lon="7.961105039202635"><ele>413.0</ele><time>2026-04-12T07:32:58Z</time></trkpt><trkpt lat="44.5600844118519" lon="7.961204700352082"><ele>415.99999999999994</ele><time>2026-04-12T07:33:01Z</time></trkpt><trkpt lat="44.560090510145564" lon="7.961300969437166"><ele>419.0</ele><time>2026-04-12T07:33:05Z</time></trkpt><trkpt lat="44.56009449657162" lon="7.961407881698999"><ele>418.99999999999994</ele><time>2026-04-12T07:33:09Z</time></trkpt><trkpt lat="44.56009834242543" lon="7.961511023918088"><ele>419.0</ele><time>2026-04-12T07:33:13Z</time></trkpt><trkpt lat="44.56011788987334" lon="7.961622739842112"><ele>419.0</ele><time>2026-04-12T07:33:17.999Z</time></trkpt><trkpt lat="44.56011067108949" lon="7.9617106751097895"><ele>419.0</ele><time>2026-04-12T07:33:21.999Z</time></trkpt><trkpt lat="44.56008738829653" lon="7.961800403116194"><ele>419.0</ele><time>2026-04-12T07:33:25.999Z</time></trkpt><trkpt lat="44.56007685273372" lon="7.961893077239194"><ele>418.99999999999994</ele><time>2026-04-12T07:33:29.999Z</time></trkpt><trkpt lat="44.56004224164122" lon="7.961977568740907"><ele>419.0</ele><time>2026-04-12T07:33:33.999Z</time></trkpt><trkpt lat="44.56002125296421" lon="7.962065609514131"><ele>419.71428571428567</ele><time>2026-04-12T07:33:37.999Z</time></trkpt><trkpt lat="44.559997992764686" lon="7.962160881913973"><ele>420.42857142857144</ele><time>2026-04-12T07:33:43.999Z</time></trkpt><trkpt lat="44.55997714109848" lon="7.962246290246847"><ele>421.1428571428571</ele><time>2026-04-12T07:33:47.999Z</time></trkpt><trkpt lat="44.560028496000335" lon="7.962319894899467"><ele>421.85714285714283</ele><time>2026-04-12T07:33:49.999Z</time></trkpt><trkpt lat="44.56003443774632" lon="7.962419352558334"><ele>422.57142857142856</ele><time>2026-04-12T07:33:53.999Z</time></trkpt><trkpt lat="44.5600459034083" lon="7.962514013877182"><ele>423.2857142857143</ele><time>2026-04-12T07:33:57.999Z</time></trkpt><trkpt lat="44.56005724535972" lon="7.962608730948334"><ele>424.0</ele><time>2026-04-12T07:34:01.999Z</time></trkpt><trkpt lat="44.5600695470197" lon="7.962701818795715"><ele>424.7142857142857</ele><time>2026-04-12T07:34:05.999Z</time></trkpt><trkpt lat="44.560090269608146" lon="7.962798131079928"><ele>425.4285714285714</ele><time>2026-04-12T07:34:09.999Z</time></trkpt><trkpt lat="44.56010472583034" lon="7.962890083406383"><ele>426.1428571428571</ele><time>2026-04-12T07:34:13.999Z</time></trkpt><trkpt lat="44.56013042808813" lon="7.962980454908197"><ele>426.8571428571429</ele><time>2026-04-12T07:34:17.999Z</time></trkpt><trkpt lat="44.560141209523486" lon="7.963089651212708"><ele>427.57142857142856</ele><time>2026-04-12T07:34:22.999Z</time></trkpt><trkpt lat="44.56015695790315" lon="7.963195897968533"><ele>428.2857142857143</ele><time>2026-04-12T07:34:28Z</time></trkpt><trkpt lat="44.56019033598387" lon="7.963274757939571"><ele>429.0</ele><time>2026-04-12T07:34:32Z</time></trkpt><trkpt lat="44.56022092992197" lon="7.963369818227885"><ele>429.0</ele><time>2026-04-12T07:34:36Z</time></trkpt><trkpt lat="44.560239005952795" lon="7.963457435678566"><ele>429.0</ele><time>2026-04-12T07:34:40Z</time></trkpt><trkpt lat="44.560284093198646" lon="7.963543750776774"><ele>429.0</ele><time>2026-04-12T07:34:44Z</time></trkpt><trkpt lat="44.56033252049913" lon="7.963637656570453"><ele>429.0</ele><time>2026-04-12T07:34:48Z</time></trkpt><trkpt lat="44.560381462650554" lon="7.963706929381543"><ele>429.0</ele><time>2026-04-12T07:34:51Z</time></trkpt><trkpt lat="44.56044990566011" lon="7.963766272497961"><ele>429.0</ele><time>2026-04-12T07:34:54Z</time></trkpt><trkpt lat="44.5605122048866" lon="7.963834362555816"><ele>429.8333333333333</ele><time>2026-04-12T07:34:57Z</time></trkpt><trkpt lat="44.560576512774475" lon="7.9638867497093795"><ele>430.66666666666663</ele><time>2026-04-12T07:35:00Z</time></trkpt><trkpt lat="44.56063725323426" lon="7.963948519974607"><ele>431.5</ele><time>2026-04-12T07:35:03Z</time></trkpt><trkpt lat="44.56070060209921" lon="7.963995679201803"><ele>432.3333333333333</ele><time>2026-04-12T07:35:06Z</time></trkpt><trkpt lat="44.560764592295534" lon="7.964055267955358"><ele>433.16666666666663</ele><time>2026-04-12T07:35:09Z</time></trkpt><trkpt lat="44.56083483526738" lon="7.964104827163138"><ele>434.0</ele><time>2026-04-12T07:35:12Z</time></trkpt><trkpt lat="44.560907737746106" lon="7.964152044018287"><ele>433.66666666666663</ele><time>2026-04-12T07:35:15Z</time></trkpt><trkpt lat="44.56100757354762" lon="7.964203601640762"><ele>433.3333333333333</ele><time>2026-04-12T07:35:18Z</time></trkpt><trkpt lat="44.56109102452369" lon="7.964252800550701"><ele>433.0</ele><time>2026-04-12T07:35:23Z</time></trkpt><trkpt lat="44.56115864427898" lon="7.964272513471355"><ele>432.66666666666663</ele><time>2026-04-12T07:35:24.999Z</time></trkpt><trkpt lat="44.56121996748122" lon="7.96429259343555"><ele>432.3333333333333</ele><time>2026-04-12T07:35:26.999Z</time></trkpt><trkpt lat="44.56130508733571" lon="7.964325456028852"><ele>432.0</ele><time>2026-04-12T07:35:29.999Z</time></trkpt><trkpt lat="44.56138796926713" lon="7.9643359482131855"><ele>431.0</ele><time>2026-04-12T07:35:32.999Z</time></trkpt><trkpt lat="44.561460436565234" lon="7.964344506647481"><ele>430.0</ele><time>2026-04-12T07:35:34.999Z</time></trkpt><trkpt lat="44.561527327810694" lon="7.964361092829737"><ele>429.0</ele><time>2026-04-12T07:35:36.999Z</time></trkpt><trkpt lat="44.56158997784624" lon="7.964379820769128"><ele>428.0</ele><time>2026-04-12T07:35:38.999Z</time></trkpt><trkpt lat="44.56166642962973" lon="7.964382337274916"><ele>427.0</ele><time>2026-04-12T07:35:40.999Z</time></trkpt><trkpt lat="44.56174447804273" lon="7.964381674998409"><ele>426.0</ele><time>2026-04-12T07:35:42.999Z</time></trkpt><trkpt lat="44.56183762342377" lon="7.964358026137743"><ele>426.0</ele><time>2026-04-12T07:35:44.999Z</time></trkpt><trkpt lat="44.56194066952631" lon="7.9643435371599285"><ele>426.0</ele><time>2026-04-12T07:35:46.999Z</time></trkpt><trkpt lat="44.56205382544023" lon="7.964325064139718"><ele>426.0</ele><time>2026-04-12T07:35:48.999Z</time></trkpt><trkpt lat="44.562118194487304" lon="7.9643053289080115"><ele>426.0</ele><time>2026-04-12T07:35:49.999Z</time></trkpt><trkpt lat="44.562184634185876" lon="7.964284938594957"><ele>426.0</ele><time>2026-04-12T07:35:50.999Z</time></trkpt><trkpt lat="44.56225761653525" lon="7.964266705374976"><ele>426.0</ele><time>2026-04-12T07:35:51.999Z</time></trkpt><trkpt lat="44.56233242248664" lon="7.964251737889929"><ele>425.6666666666667</ele><time>2026-04-12T07:35:52.999Z</time></trkpt><trkpt lat="44.5624133072684" lon="7.964239224072999"><ele>425.33333333333337</ele><time>2026-04-12T07:35:53.999Z</time></trkpt><trkpt lat="44.562493734450975" lon="7.964222611528085"><ele>425.0</ele><time>2026-04-12T07:35:54.999Z</time></trkpt><trkpt lat="44.562575372289906" lon="7.964205965546208"><ele>424.6666666666667</ele><time>2026-04-12T07:35:55.999Z</time></trkpt><trkpt lat="44.56265741932349" lon="7.964184805132609"><ele>424.33333333333337</ele><time>2026-04-12T07:35:56.999Z</time></trkpt><trkpt lat="44.56274209929958" lon="7.96415433121817"><ele>424.0</ele><time>2026-04-12T07:35:57.999Z</time></trkpt><trkpt lat="44.56282220560215" lon="7.9641193046630905"><ele>422.83333333333337</ele><time>2026-04-12T07:35:58.999Z</time></trkpt><trkpt lat="44.56290397918605" lon="7.964080442788849"><ele>421.6666666666667</ele><time>2026-04-12T07:35:59.999Z</time></trkpt><trkpt lat="44.56298973923603" lon="7.964041440429257"><ele>420.5</ele><time>2026-04-12T07:36:00.999Z</time></trkpt><trkpt lat="44.563074428883574" lon="7.964000451521504"><ele>419.33333333333337</ele><time>2026-04-12T07:36:01.999Z</time></trkpt><trkpt lat="44.56315797897008" lon="7.96395595398787"><ele>418.1666666666667</ele><time>2026-04-12T07:36:02.999Z</time></trkpt><trkpt lat="44.56323588273975" lon="7.963896248062153"><ele>417.0</ele><time>2026-04-12T07:36:03.999Z</time></trkpt><trkpt lat="44.56330601541141" lon="7.96381715579667"><ele>417.0</ele><time>2026-04-12T07:36:04.999Z</time></trkpt><trkpt lat="44.56336955670046" lon="7.963742079782062"><ele>417.0</ele><time>2026-04-12T07:36:05.999Z</time></trkpt><trkpt lat="44.563433330755366" lon="7.963679207246486"><ele>417.0</ele><time>2026-04-12T07:36:06.999Z</time></trkpt><trkpt lat="44.5635007009311" lon="7.963662110188971"><ele>417.0</ele><time>2026-04-12T07:36:07.999Z</time></trkpt><trkpt lat="44.5635793513491" lon="7.963699835133507"><ele>417.0</ele><time>2026-04-12T07:36:08.999Z</time></trkpt><trkpt lat="44.56364357995185" lon="7.963800870180212"><ele>417.0</ele><time>2026-04-12T07:36:09.999Z</time></trkpt><trkpt lat="44.563733388961055" lon="7.963860650718787"><ele>416.20000000000005</ele><time>2026-04-12T07:36:10.999Z</time></trkpt><trkpt lat="44.563816521842995" lon="7.963935183833452"><ele>415.4</ele><time>2026-04-12T07:36:11.999Z</time></trkpt><trkpt lat="44.563900907136684" lon="7.964011461695279"><ele>414.6</ele><time>2026-04-12T07:36:12.999Z</time></trkpt><trkpt lat="44.5639825433124" lon="7.964090234663637"><ele>413.79999999999995</ele><time>2026-04-12T07:36:13.999Z</time></trkpt><trkpt lat="44.564051585729366" lon="7.964174271215319"><ele>413.0</ele><time>2026-04-12T07:36:14.999Z</time></trkpt><trkpt lat="44.5640855326072" lon="7.9642889800205285"><ele>413.0</ele><time>2026-04-12T07:36:15.999Z</time></trkpt><trkpt lat="44.564133225103014" lon="7.964401310243247"><ele>413.0</ele><time>2026-04-12T07:36:16.999Z</time></trkpt><trkpt lat="44.5641907897374" lon="7.9644976376262395"><ele>413.0</ele><time>2026-04-12T07:36:17.999Z</time></trkpt><trkpt lat="44.56420843233887" lon="7.96459121117635"><ele>413.0</ele><time>2026-04-12T07:36:18.999Z</time></trkpt><trkpt lat="44.564216259558826" lon="7.96474287403562"><ele>413.0</ele><time>2026-04-12T07:36:20.999Z</time></trkpt><trkpt lat="44.56429158919905" lon="7.964866841540432"><ele>413.0</ele><time>2026-04-12T07:36:22.999Z</time></trkpt><trkpt lat="44.56435305593402" lon="7.964985447033167"><ele>413.0</ele><time>2026-04-12T07:36:24.999Z</time></trkpt><trkpt lat="44.56442202001692" lon="7.96510237076414"><ele>413.0</ele><time>2026-04-12T07:36:26.999Z</time></trkpt><trkpt lat="44.56448634103741" lon="7.9652077085236686"><ele>413.0</ele><time>2026-04-12T07:36:28.999Z</time></trkpt><trkpt lat="44.56454884629152" lon="7.965308527176699"><ele>413.0</ele><time>2026-04-12T07:36:31Z</time></trkpt><trkpt lat="44.56460778069017" lon="7.965404002992606"><ele>412.0</ele><time>2026-04-12T07:36:33Z</time></trkpt><trkpt lat="44.56466942021294" lon="7.965490784612438"><ele>411.0</ele><time>2026-04-12T07:36:35Z</time></trkpt><trkpt lat="44.564729541865994" lon="7.965574611714756"><ele>410.0</ele><time>2026-04-12T07:36:37Z</time></trkpt><trkpt lat="44.564813408296594" lon="7.965651867744384"><ele>409.0</ele><time>2026-04-12T07:36:39Z</time></trkpt><trkpt lat="44.56489413180229" lon="7.965732409313822"><ele>408.0</ele><time>2026-04-12T07:36:41Z</time></trkpt><trkpt lat="44.56496629838001" lon="7.965832263694084"><ele>408.59999999999997</ele><time>2026-04-12T07:36:43Z</time></trkpt><trkpt lat="44.56500923525776" lon="7.965960756241155"><ele>409.2</ele><time>2026-04-12T07:36:45Z</time></trkpt><trkpt lat="44.56502341830302" lon="7.966098285942057"><ele>409.8</ele><time>2026-04-12T07:36:47Z</time></trkpt><trkpt lat="44.565031860714754" lon="7.966244003600784"><ele>410.4</ele><time>2026-04-12T07:36:49Z</time></trkpt><trkpt lat="44.565039115004296" lon="7.966401022661999"><ele>411.0</ele><time>2026-04-12T07:36:51Z</time></trkpt><trkpt lat="44.56503725959136" lon="7.966565916746755"><ele>411.75</ele><time>2026-04-12T07:36:53Z</time></trkpt><trkpt lat="44.565040318996296" lon="7.966732783922215"><ele>412.5</ele><time>2026-04-12T07:36:55Z</time></trkpt><trkpt lat="44.56504214312683" lon="7.9669005247251485"><ele>413.25</ele><time>2026-04-12T07:36:57Z</time></trkpt><trkpt lat="44.56504142609357" lon="7.967070002774352"><ele>414.0</ele><time>2026-04-12T07:36:59Z</time></trkpt><trkpt lat="44.56504208796048" lon="7.967232715644405"><ele>414.0</ele><time>2026-04-12T07:37:01Z</time></trkpt><trkpt lat="44.56505190068634" lon="7.967394362894088"><ele>414.0</ele><time>2026-04-12T07:37:03Z</time></trkpt><trkpt lat="44.56507739175624" lon="7.967549933807289"><ele>414.0</ele><time>2026-04-12T07:37:05Z</time></trkpt><trkpt lat="44.565120043383914" lon="7.967699166076893"><ele>414.0</ele><time>2026-04-12T07:37:07Z</time></trkpt><trkpt lat="44.56518428845169" lon="7.967833302853243"><ele>413.0</ele><time>2026-04-12T07:37:09Z</time></trkpt><trkpt lat="44.565268673002755" lon="7.967951290369761"><ele>412.0</ele><time>2026-04-12T07:37:11Z</time></trkpt><trkpt lat="44.56536121507132" lon="7.968052849196812"><ele>411.0</ele><time>2026-04-12T07:37:13Z</time></trkpt><trkpt lat="44.565466906545545" lon="7.968139340163499"><ele>410.0</ele><time>2026-04-12T07:37:15Z</time></trkpt><trkpt lat="44.56557783964149" lon="7.968217368737273"><ele>410.0</ele><time>2026-04-12T07:37:17Z</time></trkpt><trkpt lat="44.56563463759197" lon="7.968255814565544"><ele>410.0</ele><time>2026-04-12T07:37:18Z</time></trkpt><trkpt lat="44.565694718755275" lon="7.968284042887818"><ele>410.0</ele><time>2026-04-12T07:37:19Z</time></trkpt><trkpt lat="44.565806230245364" lon="7.968355834000356"><ele>410.0</ele><time>2026-04-12T07:37:21Z</time></trkpt><trkpt lat="44.56592202831661" lon="7.968416571879271"><ele>410.0</ele><time>2026-04-12T07:37:23Z</time></trkpt><trkpt lat="44.56603636237483" lon="7.968476201803163"><ele>412.75</ele><time>2026-04-12T07:37:24.999Z</time></trkpt><trkpt lat="44.566151760448484" lon="7.968529653777527"><ele>415.5</ele><time>2026-04-12T07:37:26.999Z</time></trkpt><trkpt lat="44.56626983822072" lon="7.968559077797726"><ele>418.25</ele><time>2026-04-12T07:37:28.999Z</time></trkpt><trkpt lat="44.56638945570576" lon="7.968565418997301"><ele>421.0</ele><time>2026-04-12T07:37:30.999Z</time></trkpt><trkpt lat="44.56651290125662" lon="7.96855207305361"><ele>421.00000000000006</ele><time>2026-04-12T07:37:32.999Z</time></trkpt><trkpt lat="44.566636361005685" lon="7.968519921940447"><ele>421.0</ele><time>2026-04-12T07:37:34.999Z</time></trkpt><trkpt lat="44.5666993483252" lon="7.968503031803561"><ele>421.0</ele><time>2026-04-12T07:37:35.999Z</time></trkpt><trkpt lat="44.56676200611659" lon="7.968483073071527"><ele>421.0</ele><time>2026-04-12T07:37:36.999Z</time></trkpt><trkpt lat="44.56682218786521" lon="7.968455473282193"><ele>421.0</ele><time>2026-04-12T07:37:37.999Z</time></trkpt><trkpt lat="44.56688596619559" lon="7.968435450593999"><ele>421.00000000000006</ele><time>2026-04-12T07:37:38.999Z</time></trkpt><trkpt lat="44.566947746956124" lon="7.968412774713332"><ele>421.0</ele><time>2026-04-12T07:37:39.999Z</time></trkpt><trkpt lat="44.56700943728524" lon="7.968387541382339"><ele>419.7142857142857</ele><time>2026-04-12T07:37:40.999Z</time></trkpt><trkpt lat="44.56707068965114" lon="7.9683620148073055"><ele>418.42857142857144</ele><time>2026-04-12T07:37:41.999Z</time></trkpt><trkpt lat="44.56713064394101" lon="7.968332517116992"><ele>417.1428571428571</ele><time>2026-04-12T07:37:42.999Z</time></trkpt><trkpt lat="44.56718875064723" lon="7.968297120472721"><ele>415.8571428571429</ele><time>2026-04-12T07:37:43.999Z</time></trkpt><trkpt lat="44.5673040974723" lon="7.9682267455371"><ele>414.57142857142856</ele><time>2026-04-12T07:37:45.999Z</time></trkpt><trkpt lat="44.567362184471804" lon="7.968189860937584"><ele>413.2857142857143</ele><time>2026-04-12T07:37:46.999Z</time></trkpt><trkpt lat="44.567419712559875" lon="7.968153071281593"><ele>412.0</ele><time>2026-04-12T07:37:47.999Z</time></trkpt><trkpt lat="44.56753570501853" lon="7.968092487601016"><ele>412.00000000000006</ele><time>2026-04-12T07:37:49.999Z</time></trkpt><trkpt lat="44.56764556787326" lon="7.968011407519904"><ele>412.0</ele><time>2026-04-12T07:37:51.999Z</time></trkpt><trkpt lat="44.56775199856608" lon="7.967927983015936"><ele>412.0</ele><time>2026-04-12T07:37:53.999Z</time></trkpt><trkpt lat="44.56780941608432" lon="7.967890734566373"><ele>412.0</ele><time>2026-04-12T07:37:54.999Z</time></trkpt><trkpt lat="44.56786975434447" lon="7.967865200736224"><ele>412.00000000000006</ele><time>2026-04-12T07:37:55.999Z</time></trkpt><trkpt lat="44.56793249965307" lon="7.967851479319091"><ele>412.0</ele><time>2026-04-12T07:37:56.999Z</time></trkpt><trkpt lat="44.568054037335266" lon="7.967831590280442"><ele>412.83333333333337</ele><time>2026-04-12T07:37:58.999Z</time></trkpt><trkpt lat="44.568178357333736" lon="7.967820658946063"><ele>413.6666666666667</ele><time>2026-04-12T07:38:00.999Z</time></trkpt><trkpt lat="44.56824254193243" lon="7.96782529863025"><ele>414.5</ele><time>2026-04-12T07:38:01.999Z</time></trkpt><trkpt lat="44.5683081380432" lon="7.967835253244861"><ele>415.33333333333337</ele><time>2026-04-12T07:38:02.999Z</time></trkpt><trkpt lat="44.56837495827089" lon="7.9678489138703155"><ele>416.1666666666667</ele><time>2026-04-12T07:38:03.999Z</time></trkpt><trkpt lat="44.5684395193697" lon="7.967865651365329"><ele>417.0</ele><time>2026-04-12T07:38:04.999Z</time></trkpt><trkpt lat="44.568501900438825" lon="7.967884796222649"><ele>417.0</ele><time>2026-04-12T07:38:05.999Z</time></trkpt><trkpt lat="44.568624193294696" lon="7.967925457848772"><ele>417.0</ele><time>2026-04-12T07:38:07.999Z</time></trkpt><trkpt lat="44.568686933581446" lon="7.967947629124552"><ele>417.0</ele><time>2026-04-12T07:38:08.999Z</time></trkpt><trkpt lat="44.568752187633436" lon="7.967968915160147"><ele>417.0</ele><time>2026-04-12T07:38:09.999Z</time></trkpt><trkpt lat="44.568818178004136" lon="7.967990899025856"><ele>417.0</ele><time>2026-04-12T07:38:10.999Z</time></trkpt><trkpt lat="44.568879862911224" lon="7.968011090374922"><ele>417.0</ele><time>2026-04-12T07:38:11.999Z</time></trkpt><trkpt lat="44.568992953400006" lon="7.968048712807277"><ele>415.40000000000003</ele><time>2026-04-12T07:38:13.999Z</time></trkpt><trkpt lat="44.56909006007833" lon="7.968088632627695"><ele>413.8</ele><time>2026-04-12T07:38:15.999Z</time></trkpt><trkpt lat="44.56918530683147" lon="7.968125199869306"><ele>412.2</ele><time>2026-04-12T07:38:17.999Z</time></trkpt><trkpt lat="44.56927958350597" lon="7.9681551342681525"><ele>410.6</ele><time>2026-04-12T07:38:19.999Z</time></trkpt><trkpt lat="44.569370206625145" lon="7.968180660751603"><ele>409.0</ele><time>2026-04-12T07:38:21.999Z</time></trkpt><trkpt lat="44.56946163986223" lon="7.968208203394845"><ele>409.00000000000006</ele><time>2026-04-12T07:38:23.999Z</time></trkpt><trkpt lat="44.56954420156074" lon="7.968228457894379"><ele>409.0</ele><time>2026-04-12T07:38:25.999Z</time></trkpt><trkpt lat="44.56962556799654" lon="7.968254478470966"><ele>409.0</ele><time>2026-04-12T07:38:27.999Z</time></trkpt><trkpt lat="44.56969680183338" lon="7.968280682024377"><ele>409.0</ele><time>2026-04-12T07:38:29.999Z</time></trkpt><trkpt lat="44.56976572428578" lon="7.968298642736388"><ele>409.00000000000006</ele><time>2026-04-12T07:38:31.999Z</time></trkpt><trkpt lat="44.569836515950726" lon="7.968294596319295"><ele>409.0</ele><time>2026-04-12T07:38:33.999Z</time></trkpt><trkpt lat="44.569904608939076" lon="7.9682898677227"><ele>409.0</ele><time>2026-04-12T07:38:35.999Z</time></trkpt><trkpt lat="44.56996958393826" lon="7.968279462974035"><ele>409.0</ele><time>2026-04-12T07:38:38Z</time></trkpt><trkpt lat="44.57003465818032" lon="7.968266540086138"><ele>409.0</ele><time>2026-04-12T07:38:40Z</time></trkpt><trkpt lat="44.57009735195423" lon="7.9682558409137885"><ele>409.0</ele><time>2026-04-12T07:38:42Z</time></trkpt><trkpt lat="44.57018806853773" lon="7.96825050735804"><ele>409.0</ele><time>2026-04-12T07:38:45Z</time></trkpt><trkpt lat="44.570251201589805" lon="7.968243577073717"><ele>409.0</ele><time>2026-04-12T07:38:47Z</time></trkpt><trkpt lat="44.57034399661851" lon="7.96823014412596"><ele>409.0</ele><time>2026-04-12T07:38:50Z</time></trkpt><trkpt lat="44.5704333859473" lon="7.968233246831723"><ele>410.50000000000006</ele><time>2026-04-12T07:38:53Z</time></trkpt><trkpt lat="44.570519175507805" lon="7.968241501052062"><ele>412.0</ele><time>2026-04-12T07:38:56Z</time></trkpt><trkpt lat="44.57060758583603" lon="7.968262243099444"><ele>413.5</ele><time>2026-04-12T07:38:59Z</time></trkpt><trkpt lat="44.570694964044705" lon="7.96827937783706"><ele>415.0</ele><time>2026-04-12T07:39:02Z</time></trkpt><trkpt lat="44.570783329412585" lon="7.968273852311533"><ele>416.50000000000006</ele><time>2026-04-12T07:39:05Z</time></trkpt><trkpt lat="44.570847396304956" lon="7.968271581413071"><ele>418.0</ele><time>2026-04-12T07:39:07Z</time></trkpt><trkpt lat="44.570932908352965" lon="7.968256180027649"><ele>418.00000000000006</ele><time>2026-04-12T07:39:10Z</time></trkpt><trkpt lat="44.571018958008715" lon="7.968221618442758"><ele>418.0</ele><time>2026-04-12T07:39:13Z</time></trkpt><trkpt lat="44.5711049824929" lon="7.968180587778795"><ele>418.0</ele><time>2026-04-12T07:39:16Z</time></trkpt><trkpt lat="44.57117750997405" lon="7.968140111847524"><ele>418.0</ele><time>2026-04-12T07:39:19Z</time></trkpt><trkpt lat="44.57125330135776" lon="7.968109097399652"><ele>418.00000000000006</ele><time>2026-04-12T07:39:23Z</time></trkpt><trkpt lat="44.57131857949209" lon="7.9680626197648055"><ele>418.0</ele><time>2026-04-12T07:39:26.999Z</time></trkpt><trkpt lat="44.57138091826514" lon="7.968027363551989"><ele>418.00000000000006</ele><time>2026-04-12T07:39:30.999Z</time></trkpt><trkpt lat="44.571450022002296" lon="7.968022075134333"><ele>418.0</ele><time>2026-04-12T07:39:34.999Z</time></trkpt><trkpt lat="44.571530408980024" lon="7.968014521727674"><ele>418.0</ele><time>2026-04-12T07:39:38.999Z</time></trkpt><trkpt lat="44.57161350970178" lon="7.968076983671603"><ele>418.0</ele><time>2026-04-12T07:39:41.999Z</time></trkpt><trkpt lat="44.57167781730437" lon="7.968115390969488"><ele>418.00000000000006</ele><time>2026-04-12T07:39:43.999Z</time></trkpt><trkpt lat="44.571743047387436" lon="7.968162380273816"><ele>418.0</ele><time>2026-04-12T07:39:45.999Z</time></trkpt><trkpt lat="44.571812565599906" lon="7.968209089889096"><ele>418.00000000000006</ele><time>2026-04-12T07:39:47.999Z</time></trkpt><trkpt lat="44.57188514615348" lon="7.968251145707782"><ele>418.0</ele><time>2026-04-12T07:39:49.999Z</time></trkpt><trkpt lat="44.571951697678806" lon="7.968292160972881"><ele>418.0</ele><time>2026-04-12T07:39:51.999Z</time></trkpt><trkpt lat="44.572019029973546" lon="7.968334316517069"><ele>418.0</ele><time>2026-04-12T07:39:53.999Z</time></trkpt><trkpt lat="44.57208735872123" lon="7.968378748054983"><ele>418.00000000000006</ele><time>2026-04-12T07:39:55.999Z</time></trkpt><trkpt lat="44.57215718601302" lon="7.968421482389148"><ele>418.0</ele><time>2026-04-12T07:39:57.999Z</time></trkpt><trkpt lat="44.5722287211202" lon="7.9684605151337715"><ele>417.50000000000006</ele><time>2026-04-12T07:39:59.999Z</time></trkpt><trkpt lat="44.5723001144775" lon="7.968501130332394"><ele>417.0</ele><time>2026-04-12T07:40:01.999Z</time></trkpt><trkpt lat="44.57236928895917" lon="7.968541430080082"><ele>416.5</ele><time>2026-04-12T07:40:03.999Z</time></trkpt><trkpt lat="44.57243769267315" lon="7.968583203586162"><ele>416.0</ele><time>2026-04-12T07:40:05.999Z</time></trkpt><trkpt lat="44.572508226404835" lon="7.968623770602132"><ele>415.50000000000006</ele><time>2026-04-12T07:40:07.999Z</time></trkpt><trkpt lat="44.5725801112094" lon="7.968659289490231"><ele>415.0</ele><time>2026-04-12T07:40:09.999Z</time></trkpt><trkpt lat="44.57264854799135" lon="7.968699244105752"><ele>415.0</ele><time>2026-04-12T07:40:11.999Z</time></trkpt><trkpt lat="44.57271790508751" lon="7.968739729327094"><ele>415.0</ele><time>2026-04-12T07:40:13.999Z</time></trkpt><trkpt lat="44.572785776051816" lon="7.968779362052324"><ele>415.0</ele><time>2026-04-12T07:40:15.999Z</time></trkpt><trkpt lat="44.57285117454811" lon="7.968824149240928"><ele>415.0</ele><time>2026-04-12T07:40:17.999Z</time></trkpt><trkpt lat="44.57291175772476" lon="7.96887482304472"><ele>415.0</ele><time>2026-04-12T07:40:19.999Z</time></trkpt><trkpt lat="44.57296502865016" lon="7.968934060241536"><ele>415.0</ele><time>2026-04-12T07:40:21.999Z</time></trkpt><trkpt lat="44.573014750217496" lon="7.969000097404964"><ele>415.0</ele><time>2026-04-12T07:40:23.999Z</time></trkpt><trkpt lat="44.57305639874524" lon="7.969068914663988"><ele>414.1666666666667</ele><time>2026-04-12T07:40:25.999Z</time></trkpt><trkpt lat="44.573110863290886" lon="7.969173238607255"><ele>413.33333333333337</ele><time>2026-04-12T07:40:28.999Z</time></trkpt><trkpt lat="44.573167109363716" lon="7.96927120633796"><ele>412.5</ele><time>2026-04-12T07:40:31.999Z</time></trkpt><trkpt lat="44.57322379326665" lon="7.969365186602209"><ele>411.66666666666663</ele><time>2026-04-12T07:40:34.999Z</time></trkpt><trkpt lat="44.57328141761071" lon="7.969457078054206"><ele>410.8333333333333</ele><time>2026-04-12T07:40:37.999Z</time></trkpt><trkpt lat="44.57334219463691" lon="7.9695439530856556"><ele>410.0</ele><time>2026-04-12T07:40:40.999Z</time></trkpt><trkpt lat="44.573407328002254" lon="7.96961570630735"><ele>409.99999999999994</ele><time>2026-04-12T07:40:44Z</time></trkpt><trkpt lat="44.57347819057763" lon="7.969678619395071"><ele>410.0</ele><time>2026-04-12T07:40:47Z</time></trkpt><trkpt lat="44.57354949079738" lon="7.969721887169505"><ele>410.0</ele><time>2026-04-12T07:40:50Z</time></trkpt><trkpt lat="44.57362344608775" lon="7.969764000606264"><ele>410.0</ele><time>2026-04-12T07:40:53Z</time></trkpt><trkpt lat="44.57370197954961" lon="7.969797313370187"><ele>409.99999999999994</ele><time>2026-04-12T07:40:56Z</time></trkpt><trkpt lat="44.57377490721694" lon="7.969831426533411"><ele>410.0</ele><time>2026-04-12T07:40:59Z</time></trkpt><trkpt lat="44.573855162657395" lon="7.969859606572429"><ele>412.3333333333333</ele><time>2026-04-12T07:41:02Z</time></trkpt><trkpt lat="44.57393345072332" lon="7.969889755127586"><ele>414.66666666666663</ele><time>2026-04-12T07:41:05Z</time></trkpt><trkpt lat="44.57401826459462" lon="7.969922676453679"><ele>417.0</ele><time>2026-04-12T07:41:08Z</time></trkpt><trkpt lat="44.57410250397913" lon="7.969940383349685"><ele>419.33333333333337</ele><time>2026-04-12T07:41:11Z</time></trkpt><trkpt lat="44.57418607424514" lon="7.969967612146118"><ele>421.6666666666667</ele><time>2026-04-12T07:41:14Z</time></trkpt><trkpt lat="44.57426498643718" lon="7.969992644712165"><ele>424.0</ele><time>2026-04-12T07:41:17Z</time></trkpt><trkpt lat="44.574345303299474" lon="7.970012001258055"><ele>422.6666666666667</ele><time>2026-04-12T07:41:20Z</time></trkpt><trkpt lat="44.57442422483561" lon="7.9700266499351855"><ele>421.33333333333337</ele><time>2026-04-12T07:41:23Z</time></trkpt><trkpt lat="44.57451750265928" lon="7.97004242537149"><ele>420.0</ele><time>2026-04-12T07:41:26Z</time></trkpt><trkpt lat="44.574599262242856" lon="7.970060135806521"><ele>418.66666666666663</ele><time>2026-04-12T07:41:29Z</time></trkpt><trkpt lat="44.57468100575691" lon="7.970085288671811"><ele>417.3333333333333</ele><time>2026-04-12T07:41:31.999Z</time></trkpt><trkpt lat="44.574761435097585" lon="7.970118417454564"><ele>416.0</ele><time>2026-04-12T07:41:34.999Z</time></trkpt><trkpt lat="44.57483857494381" lon="7.97014827979577"><ele>415.99999999999994</ele><time>2026-04-12T07:41:37.999Z</time></trkpt><trkpt lat="44.57490946364115" lon="7.970181135364531"><ele>416.0</ele><time>2026-04-12T07:41:40.999Z</time></trkpt><trkpt lat="44.57498577863816" lon="7.9702093009426545"><ele>416.0</ele><time>2026-04-12T07:41:43.999Z</time></trkpt><trkpt lat="44.575058040421375" lon="7.970246224436923"><ele>416.0</ele><time>2026-04-12T07:41:46.999Z</time></trkpt><trkpt lat="44.575133039245905" lon="7.970276391558444"><ele>415.99999999999994</ele><time>2026-04-12T07:41:49.999Z</time></trkpt><trkpt lat="44.57520976391252" lon="7.970299150494407"><ele>416.0</ele><time>2026-04-12T07:41:52.999Z</time></trkpt><trkpt lat="44.57528238999119" lon="7.970334693301957"><ele>417.3333333333333</ele><time>2026-04-12T07:41:55.999Z</time></trkpt><trkpt lat="44.57535734585368" lon="7.970367511470596"><ele>418.66666666666663</ele><time>2026-04-12T07:41:58.999Z</time></trkpt><trkpt lat="44.57543409076279" lon="7.970394875355306"><ele>420.0</ele><time>2026-04-12T07:42:01.999Z</time></trkpt><trkpt lat="44.57550918863521" lon="7.970428648251526"><ele>421.33333333333337</ele><time>2026-04-12T07:42:04.999Z</time></trkpt><trkpt lat="44.575587662936975" lon="7.9704644676988465"><ele>422.6666666666667</ele><time>2026-04-12T07:42:07.999Z</time></trkpt><trkpt lat="44.575671515518714" lon="7.970499722075348"><ele>424.0</ele><time>2026-04-12T07:42:10.999Z</time></trkpt><trkpt lat="44.57574803993317" lon="7.970527435499478"><ele>424.00000000000006</ele><time>2026-04-12T07:42:13.999Z</time></trkpt><trkpt lat="44.575828851580475" lon="7.970547144826191"><ele>424.0</ele><time>2026-04-12T07:42:16.999Z</time></trkpt><trkpt lat="44.57590675276499" lon="7.970555696239382"><ele>424.0</ele><time>2026-04-12T07:42:19.999Z</time></trkpt><trkpt lat="44.57598483538318" lon="7.970550512651938"><ele>424.0</ele><time>2026-04-12T07:42:22.999Z</time></trkpt><trkpt lat="44.576060860921864" lon="7.970526833552324"><ele>424.00000000000006</ele><time>2026-04-12T07:42:25.999Z</time></trkpt><trkpt lat="44.57613844489086" lon="7.970487737490257"><ele>424.0</ele><time>2026-04-12T07:42:28.999Z</time></trkpt><trkpt lat="44.57621668929768" lon="7.970444911636084"><ele>424.1666666666667</ele><time>2026-04-12T07:42:31.999Z</time></trkpt><trkpt lat="44.57629334943833" lon="7.970395343082"><ele>424.33333333333337</ele><time>2026-04-12T07:42:34.999Z</time></trkpt><trkpt lat="44.57637177905155" lon="7.970329199277948"><ele>424.5</ele><time>2026-04-12T07:42:37.999Z</time></trkpt><trkpt lat="44.57645394753938" lon="7.9702772910966315"><ele>424.66666666666663</ele><time>2026-04-12T07:42:40.999Z</time></trkpt><trkpt lat="44.576530902107834" lon="7.97022672326243"><ele>424.8333333333333</ele><time>2026-04-12T07:42:43.999Z</time></trkpt><trkpt lat="44.57661369771775" lon="7.9701966664413"><ele>425.0</ele><time>2026-04-12T07:42:46.998Z</time></trkpt><trkpt lat="44.57669844115955" lon="7.970180100464605"><ele>425.0</ele><time>2026-04-12T07:42:50Z</time></trkpt><trkpt lat="44.57677332471561" lon="7.97014440982262"><ele>425.0</ele><time>2026-04-12T07:42:53Z</time></trkpt><trkpt lat="44.57684090352737" lon="7.97012446985756"><ele>425.0</ele><time>2026-04-12T07:42:56Z</time></trkpt><trkpt lat="44.57691592517472" lon="7.97011005161614"><ele>425.0</ele><time>2026-04-12T07:42:59Z</time></trkpt><trkpt lat="44.57698672265806" lon="7.970093472089076"><ele>425.0</ele><time>2026-04-12T07:43:02Z</time></trkpt><trkpt lat="44.57706021038663" lon="7.970082986027937"><ele>425.0</ele><time>2026-04-12T07:43:05Z</time></trkpt><trkpt lat="44.57713013142889" lon="7.9700826258949595"><ele>425.0</ele><time>2026-04-12T07:43:08Z</time></trkpt><trkpt lat="44.57720055065717" lon="7.970090361793174"><ele>425.85714285714283</ele><time>2026-04-12T07:43:11Z</time></trkpt><trkpt lat="44.57727066148809" lon="7.970111893911269"><ele>426.71428571428567</ele><time>2026-04-12T07:43:14Z</time></trkpt><trkpt lat="44.577333631675415" lon="7.970141425438484"><ele>427.57142857142856</ele><time>2026-04-12T07:43:17Z</time></trkpt><trkpt lat="44.577407958464384" lon="7.970168685789809"><ele>428.42857142857144</ele><time>2026-04-12T07:43:20Z</time></trkpt><trkpt lat="44.57747322429332" lon="7.970207852360562"><ele>429.2857142857143</ele><time>2026-04-12T07:43:23Z</time></trkpt><trkpt lat="44.57753445565159" lon="7.970247722986483"><ele>430.14285714285717</ele><time>2026-04-12T07:43:26Z</time></trkpt><trkpt lat="44.57759171746176" lon="7.970303457163424"><ele>431.0</ele><time>2026-04-12T07:43:29Z</time></trkpt><trkpt lat="44.57765387173649" lon="7.970351536798393"><ele>431.0</ele><time>2026-04-12T07:43:32Z</time></trkpt><trkpt lat="44.57772034127948" lon="7.970399183039997"><ele>431.0</ele><time>2026-04-12T07:43:35Z</time></trkpt><trkpt lat="44.577792262231306" lon="7.970425364591798"><ele>431.0</ele><time>2026-04-12T07:43:38.999Z</time></trkpt><trkpt lat="44.57787279520257" lon="7.970420307679142"><ele>431.0</ele><time>2026-04-12T07:43:41.999Z</time></trkpt><trkpt lat="44.57794546077494" lon="7.970394491175155"><ele>431.0</ele><time>2026-04-12T07:43:44.999Z</time></trkpt><trkpt lat="44.57800782859141" lon="7.97034404970127"><ele>431.0</ele><time>2026-04-12T07:43:47.999Z</time></trkpt><trkpt lat="44.57806391534849" lon="7.970286870137072"><ele>431.0</ele><time>2026-04-12T07:43:50.999Z</time></trkpt><trkpt lat="44.578104883601725" lon="7.970204245314081"><ele>430.7142857142857</ele><time>2026-04-12T07:43:53.999Z</time></trkpt><trkpt lat="44.57814906276238" lon="7.9701272868492286"><ele>430.4285714285714</ele><time>2026-04-12T07:43:56.999Z</time></trkpt><trkpt lat="44.578183386659894" lon="7.9700429532201635"><ele>430.1428571428571</ele><time>2026-04-12T07:43:59.999Z</time></trkpt><trkpt lat="44.57822409361329" lon="7.969955428698347"><ele>429.8571428571429</ele><time>2026-04-12T07:44:02.999Z</time></trkpt><trkpt lat="44.57826160605156" lon="7.96986849510639"><ele>429.57142857142856</ele><time>2026-04-12T07:44:05.999Z</time></trkpt><trkpt lat="44.57830234960324" lon="7.969777641827887"><ele>429.2857142857143</ele><time>2026-04-12T07:44:08.999Z</time></trkpt><trkpt lat="44.57834116985039" lon="7.969689030914178"><ele>429.0</ele><time>2026-04-12T07:44:11.999Z</time></trkpt><trkpt lat="44.57838888619507" lon="7.969607114231162"><ele>431.5</ele><time>2026-04-12T07:44:14.999Z</time></trkpt><trkpt lat="44.578436843129204" lon="7.969513333815547"><ele>434.0</ele><time>2026-04-12T07:44:17.999Z</time></trkpt><trkpt lat="44.57848371728244" lon="7.9694264250704565"><ele>436.5</ele><time>2026-04-12T07:44:20.999Z</time></trkpt><trkpt lat="44.57853877078529" lon="7.96932609799819"><ele>439.0</ele><time>2026-04-12T07:44:23.999Z</time></trkpt><trkpt lat="44.57857633061333" lon="7.9692283211475985"><ele>441.5</ele><time>2026-04-12T07:44:26.999Z</time></trkpt><trkpt lat="44.57862565064722" lon="7.969134400216475"><ele>444.0</ele><time>2026-04-12T07:44:29.999Z</time></trkpt><trkpt lat="44.57867194598408" lon="7.969051056046177"><ele>444.6666666666667</ele><time>2026-04-12T07:44:32.999Z</time></trkpt><trkpt lat="44.578720292945675" lon="7.968972943991146"><ele>445.33333333333337</ele><time>2026-04-12T07:44:35.999Z</time></trkpt><trkpt lat="44.57878350563933" lon="7.9688995120409984"><ele>446.0</ele><time>2026-04-12T07:44:38.999Z</time></trkpt><trkpt lat="44.57884221596373" lon="7.968831185207156"><ele>446.6666666666667</ele><time>2026-04-12T07:44:41.999Z</time></trkpt><trkpt lat="44.57891113132379" lon="7.968790037140718"><ele>447.33333333333337</ele><time>2026-04-12T07:44:44.999Z</time></trkpt><trkpt lat="44.57897685346877" lon="7.968751451298439"><ele>448.0</ele><time>2026-04-12T07:44:47.999Z</time></trkpt><trkpt lat="44.57904958830017" lon="7.968713063915881"><ele>448.0</ele><time>2026-04-12T07:44:50.998Z</time></trkpt><trkpt lat="44.57912336100881" lon="7.968693865307078"><ele>448.0</ele><time>2026-04-12T07:44:54Z</time></trkpt><trkpt lat="44.57920100608802" lon="7.9686795259380965"><ele>448.0</ele><time>2026-04-12T07:44:57Z</time></trkpt><trkpt lat="44.579273993496145" lon="7.96867700317748"><ele>448.0</ele><time>2026-04-12T07:45:00Z</time></trkpt><trkpt lat="44.579339079512124" lon="7.968685698265319"><ele>448.0</ele><time>2026-04-12T07:45:03Z</time></trkpt><trkpt lat="44.57940456157066" lon="7.968701573842672"><ele>448.0</ele><time>2026-04-12T07:45:06Z</time></trkpt><trkpt lat="44.57947807106093" lon="7.968729412457163"><ele>448.0</ele><time>2026-04-12T07:45:09Z</time></trkpt><trkpt lat="44.57954520611381" lon="7.9687488435585365"><ele>449.0</ele><time>2026-04-12T07:45:12Z</time></trkpt><trkpt lat="44.57960931939869" lon="7.9687544664869465"><ele>450.0</ele><time>2026-04-12T07:45:15Z</time></trkpt><trkpt lat="44.57967189883335" lon="7.968764606612523"><ele>451.0</ele><time>2026-04-12T07:45:18Z</time></trkpt><trkpt lat="44.57973647376456" lon="7.968782082203215"><ele>452.0</ele><time>2026-04-12T07:45:21Z</time></trkpt><trkpt lat="44.57980948600904" lon="7.968796379750972"><ele>453.0</ele><time>2026-04-12T07:45:24Z</time></trkpt><trkpt lat="44.57989174571297" lon="7.968826043234835"><ele>454.0</ele><time>2026-04-12T07:45:28Z</time></trkpt><trkpt lat="44.57996012018477" lon="7.968824822769527"><ele>455.0</ele><time>2026-04-12T07:45:31Z</time></trkpt><trkpt lat="44.580039073662675" lon="7.968831792818107"><ele>454.99999999999994</ele><time>2026-04-12T07:45:34Z</time></trkpt><trkpt lat="44.580122376042475" lon="7.968846054831152"><ele>455.0</ele><time>2026-04-12T07:45:38Z</time></trkpt><trkpt lat="44.58018682996108" lon="7.968854785771478"><ele>455.0</ele><time>2026-04-12T07:45:41Z</time></trkpt><trkpt lat="44.58025232164882" lon="7.968871479625254"><ele>455.0</ele><time>2026-04-12T07:45:43.999Z</time></trkpt><trkpt lat="44.580337911963746" lon="7.9688803305229765"><ele>454.99999999999994</ele><time>2026-04-12T07:45:46.999Z</time></trkpt><trkpt lat="44.580411271731215" lon="7.968876647035788"><ele>455.0</ele><time>2026-04-12T07:45:49.999Z</time></trkpt><trkpt lat="44.580486509678956" lon="7.968875391479777"><ele>455.8333333333333</ele><time>2026-04-12T07:45:52.999Z</time></trkpt><trkpt lat="44.58057896417352" lon="7.968862810286281"><ele>456.66666666666663</ele><time>2026-04-12T07:45:55.999Z</time></trkpt><trkpt lat="44.58064061791072" lon="7.968840805466724"><ele>457.5</ele><time>2026-04-12T07:45:57.999Z</time></trkpt><trkpt lat="44.58070393412345" lon="7.968816397675857"><ele>458.33333333333337</ele><time>2026-04-12T07:45:59.999Z</time></trkpt><trkpt lat="44.580784180781464" lon="7.9687799755728435"><ele>459.1666666666667</ele><time>2026-04-12T07:46:02.999Z</time></trkpt><trkpt lat="44.58085073129271" lon="7.968753190264889"><ele>460.0</ele><time>2026-04-12T07:46:04.999Z</time></trkpt><trkpt lat="44.58093271950213" lon="7.968722740360994"><ele>460.00000000000006</ele><time>2026-04-12T07:46:07.999Z</time></trkpt><trkpt lat="44.58101039100763" lon="7.968676722832781"><ele>460.0</ele><time>2026-04-12T07:46:10.999Z</time></trkpt><trkpt lat="44.5811044630911" lon="7.968647163461773"><ele>460.0</ele><time>2026-04-12T07:46:13.999Z</time></trkpt><trkpt lat="44.581205076788834" lon="7.968629414713622"><ele>460.0</ele><time>2026-04-12T07:46:16.999Z</time></trkpt><trkpt lat="44.58124608659788" lon="7.968726103820057"><ele>460.00000000000006</ele><time>2026-04-12T07:46:19.999Z</time></trkpt><trkpt lat="44.58127325290227" lon="7.968806332932171"><ele>460.0</ele><time>2026-04-12T07:46:21.999Z</time></trkpt><trkpt lat="44.581296381768" lon="7.9688921083425"><ele>460.8571428571428</ele><time>2026-04-12T07:46:23.999Z</time></trkpt><trkpt lat="44.581347808747886" lon="7.96895657932273"><ele>461.71428571428567</ele><time>2026-04-12T07:46:25.999Z</time></trkpt><trkpt lat="44.581430614554456" lon="7.968989987611719"><ele>462.57142857142856</ele><time>2026-04-12T07:46:27.999Z</time></trkpt><trkpt lat="44.581497545168304" lon="7.968994351999133"><ele>463.4285714285714</ele><time>2026-04-12T07:46:29.999Z</time></trkpt><trkpt lat="44.58156942640831" lon="7.968950941990725"><ele>464.2857142857142</ele><time>2026-04-12T07:46:31.999Z</time></trkpt><trkpt lat="44.581639866411315" lon="7.968928587451263"><ele>465.14285714285717</ele><time>2026-04-12T07:46:33.999Z</time></trkpt><trkpt lat="44.58170995796523" lon="7.968902845992491"><ele>466.0</ele><time>2026-04-12T07:46:35.999Z</time></trkpt><trkpt lat="44.581780969182" lon="7.968870233556592"><ele>466.00000000000006</ele><time>2026-04-12T07:46:37.999Z</time></trkpt><trkpt lat="44.5818507997535" lon="7.968831625821191"><ele>466.0</ele><time>2026-04-12T07:46:39.999Z</time></trkpt><trkpt lat="44.58192543676381" lon="7.968808932557845"><ele>466.0</ele><time>2026-04-12T07:46:41.999Z</time></trkpt><trkpt lat="44.58199635651423" lon="7.968774976536386"><ele>466.0</ele><time>2026-04-12T07:46:43.999Z</time></trkpt><trkpt lat="44.582072000834" lon="7.968762433553967"><ele>466.00000000000006</ele><time>2026-04-12T07:46:45.999Z</time></trkpt><trkpt lat="44.58213721532571" lon="7.968733094489264"><ele>466.0</ele><time>2026-04-12T07:46:47.999Z</time></trkpt><trkpt lat="44.58222484324747" lon="7.968688613279377"><ele>466.6666666666667</ele><time>2026-04-12T07:46:50.999Z</time></trkpt><trkpt lat="44.582295671314455" lon="7.968767020906775"><ele>467.33333333333337</ele><time>2026-04-12T07:46:54.999Z</time></trkpt><trkpt lat="44.58233460950089" lon="7.968851740842452"><ele>468.0</ele><time>2026-04-12T07:46:56.999Z</time></trkpt><trkpt lat="44.58236889182558" lon="7.9689305887128645"><ele>468.66666666666663</ele><time>2026-04-12T07:46:59Z</time></trkpt><trkpt lat="44.58236442534471" lon="7.969036073963313"><ele>469.3333333333333</ele><time>2026-04-12T07:47:01Z</time></trkpt><trkpt lat="44.58231426636432" lon="7.969117610220295"><ele>470.0</ele><time>2026-04-12T07:47:03Z</time></trkpt><trkpt lat="44.58225206513677" lon="7.969205553046577"><ele>469.16666666666663</ele><time>2026-04-12T07:47:06Z</time></trkpt><trkpt lat="44.58221950433904" lon="7.969281640194281"><ele>468.3333333333333</ele><time>2026-04-12T07:47:08Z</time></trkpt><trkpt lat="44.58215580797776" lon="7.9693548833963765"><ele>467.5</ele><time>2026-04-12T07:47:10Z</time></trkpt><trkpt lat="44.582103529372056" lon="7.969437536535666"><ele>466.66666666666663</ele><time>2026-04-12T07:47:12Z</time></trkpt><trkpt lat="44.582029994290764" lon="7.9695144353496925"><ele>465.8333333333333</ele><time>2026-04-12T07:47:14Z</time></trkpt><trkpt lat="44.5819475605415" lon="7.9696071514184466"><ele>465.0</ele><time>2026-04-12T07:47:16Z</time></trkpt><trkpt lat="44.581858497604344" lon="7.969690231675673"><ele>465.0</ele><time>2026-04-12T07:47:18Z</time></trkpt><trkpt lat="44.581786420603855" lon="7.9697734324324925"><ele>465.0</ele><time>2026-04-12T07:47:20Z</time></trkpt><trkpt lat="44.58171320738309" lon="7.969870842648547"><ele>465.0</ele><time>2026-04-12T07:47:22Z</time></trkpt><trkpt lat="44.58163640089733" lon="7.969962590014522"><ele>465.0</ele><time>2026-04-12T07:47:24Z</time></trkpt><trkpt lat="44.581593451300705" lon="7.970031363724711"><ele>465.0</ele><time>2026-04-12T07:47:25Z</time></trkpt><trkpt lat="44.5814871179667" lon="7.970126591260802"><ele>466.5</ele><time>2026-04-12T07:47:27Z</time></trkpt><trkpt lat="44.58149837380808" lon="7.970268626729131"><ele>468.0</ele><time>2026-04-12T07:47:28Z</time></trkpt><trkpt lat="44.58146770183348" lon="7.970390595185828"><ele>469.5</ele><time>2026-04-12T07:47:30Z</time></trkpt><trkpt lat="44.58144893904797" lon="7.970506249011144"><ele>471.0</ele><time>2026-04-12T07:47:33Z</time></trkpt><trkpt lat="44.58142480359052" lon="7.970602591037375"><ele>472.5</ele><time>2026-04-12T07:47:36Z</time></trkpt><trkpt lat="44.58140215703694" lon="7.970687445391601"><ele>474.0</ele><time>2026-04-12T07:47:39Z</time></trkpt><trkpt lat="44.58137915357567" lon="7.970772464825923"><ele>472.8571428571428</ele><time>2026-04-12T07:47:42Z</time></trkpt><trkpt lat="44.58135932091787" lon="7.97086195212893"><ele>471.71428571428567</ele><time>2026-04-12T07:47:45Z</time></trkpt><trkpt lat="44.581338101064155" lon="7.970956969594674"><ele>470.57142857142856</ele><time>2026-04-12T07:47:48Z</time></trkpt><trkpt lat="44.58130633584706" lon="7.971039085334649"><ele>469.4285714285714</ele><time>2026-04-12T07:47:51Z</time></trkpt><trkpt lat="44.58126312230148" lon="7.971122224884403"><ele>468.2857142857142</ele><time>2026-04-12T07:47:53.999Z</time></trkpt><trkpt lat="44.5812220284312" lon="7.9712122911670535"><ele>467.14285714285717</ele><time>2026-04-12T07:47:56.999Z</time></trkpt><trkpt lat="44.581178510700774" lon="7.971300699259728"><ele>466.0</ele><time>2026-04-12T07:47:59.999Z</time></trkpt><trkpt lat="44.581128359750956" lon="7.971391399829413"><ele>466.00000000000006</ele><time>2026-04-12T07:48:02.999Z</time></trkpt><trkpt lat="44.581084520859136" lon="7.971481915811031"><ele>466.0</ele><time>2026-04-12T07:48:05.999Z</time></trkpt><trkpt lat="44.58103745925677" lon="7.971587444713255"><ele>466.0</ele><time>2026-04-12T07:48:08.999Z</time></trkpt><trkpt lat="44.580987779157134" lon="7.971682148934403"><ele>466.0</ele><time>2026-04-12T07:48:11.999Z</time></trkpt><trkpt lat="44.580945872356" lon="7.9717886042253685"><ele>466.00000000000006</ele><time>2026-04-12T07:48:14.999Z</time></trkpt><trkpt lat="44.580947887089955" lon="7.971878045696962"><ele>466.0</ele><time>2026-04-12T07:48:16.999Z</time></trkpt><trkpt lat="44.58098197389922" lon="7.971954502335775"><ele>466.57142857142856</ele><time>2026-04-12T07:48:18.999Z</time></trkpt><trkpt lat="44.58104342581249" lon="7.971987007709799"><ele>467.1428571428571</ele><time>2026-04-12T07:48:21.999Z</time></trkpt><trkpt lat="44.581113902361885" lon="7.971996502702852"><ele>467.71428571428567</ele><time>2026-04-12T07:48:25.999Z</time></trkpt><trkpt lat="44.58117881774875" lon="7.971997291789025"><ele>468.2857142857143</ele><time>2026-04-12T07:48:28.999Z</time></trkpt><trkpt lat="44.58125587025412" lon="7.971966308780956"><ele>468.8571428571428</ele><time>2026-04-12T07:48:32.999Z</time></trkpt><trkpt lat="44.5813344750907" lon="7.971936772176368"><ele>469.4285714285714</ele><time>2026-04-12T07:48:36.999Z</time></trkpt><trkpt lat="44.581410962467864" lon="7.971909224556717"><ele>470.0</ele><time>2026-04-12T07:48:40.999Z</time></trkpt><trkpt lat="44.58147244991402" lon="7.9718654961230895"><ele>472.4285714285714</ele><time>2026-04-12T07:48:44.999Z</time></trkpt><trkpt lat="44.58153538983178" lon="7.971883829004768"><ele>474.8571428571428</ele><time>2026-04-12T07:48:47.999Z</time></trkpt><trkpt lat="44.581593228519075" lon="7.971842872036215"><ele>477.2857142857143</ele><time>2026-04-12T07:48:51.999Z</time></trkpt><trkpt lat="44.58165266124265" lon="7.971775622446548"><ele>479.71428571428567</ele><time>2026-04-12T07:48:55.999Z</time></trkpt><trkpt lat="44.58172100972945" lon="7.971724520554808"><ele>482.1428571428571</ele><time>2026-04-12T07:48:59.999Z</time></trkpt><trkpt lat="44.58179366511394" lon="7.971697456034891"><ele>484.57142857142856</ele><time>2026-04-12T07:49:03.999Z</time></trkpt><trkpt lat="44.581844832924844" lon="7.9716048536866495"><ele>487.0</ele><time>2026-04-12T07:49:08Z</time></trkpt><trkpt lat="44.58191471852506" lon="7.971541819881388"><ele>487.00000000000006</ele><time>2026-04-12T07:49:12Z</time></trkpt><trkpt lat="44.58196805481058" lon="7.971457376933581"><ele>487.0</ele><time>2026-04-12T07:49:16Z</time></trkpt><trkpt lat="44.582021350315614" lon="7.971376055244529"><ele>487.0</ele><time>2026-04-12T07:49:20Z</time></trkpt><trkpt lat="44.58208653725991" lon="7.971305850730924"><ele>487.0</ele><time>2026-04-12T07:49:24Z</time></trkpt><trkpt lat="44.58214562602779" lon="7.971262635487295"><ele>487.00000000000006</ele><time>2026-04-12T07:49:27Z</time></trkpt><trkpt lat="44.58221277103144" lon="7.97122646992134"><ele>487.0</ele><time>2026-04-12T07:49:30Z</time></trkpt><trkpt lat="44.58227144364735" lon="7.971168381880682"><ele>488.0</ele><time>2026-04-12T07:49:33Z</time></trkpt><trkpt lat="44.58234118061967" lon="7.971120818299038"><ele>489.0</ele><time>2026-04-12T07:49:36Z</time></trkpt><trkpt lat="44.58240421099649" lon="7.971074129318431"><ele>490.0</ele><time>2026-04-12T07:49:39Z</time></trkpt><trkpt lat="44.58245679925693" lon="7.9710161483945"><ele>491.0</ele><time>2026-04-12T07:49:42Z</time></trkpt><trkpt lat="44.58251754290552" lon="7.970949654371978"><ele>492.0</ele><time>2026-04-12T07:49:45Z</time></trkpt><trkpt lat="44.58256765097122" lon="7.9708908901228765"><ele>493.0</ele><time>2026-04-12T07:49:48Z</time></trkpt><trkpt lat="44.58261242863611" lon="7.97082270504417"><ele>494.0</ele><time>2026-04-12T07:49:51Z</time></trkpt><trkpt lat="44.58267957361197" lon="7.970800440393473"><ele>493.99999999999994</ele><time>2026-04-12T07:49:53.999Z</time></trkpt><trkpt lat="44.58275287018952" lon="7.970757666643452"><ele>494.0</ele><time>2026-04-12T07:49:57.999Z</time></trkpt><trkpt lat="44.582815167317584" lon="7.970734411357431"><ele>494.0</ele><time>2026-04-12T07:50:01.999Z</time></trkpt><trkpt lat="44.58287977260217" lon="7.970699591898563"><ele>494.0</ele><time>2026-04-12T07:50:05.999Z</time></trkpt><trkpt lat="44.58293880251915" lon="7.970632017126946"><ele>493.99999999999994</ele><time>2026-04-12T07:50:09.999Z</time></trkpt><trkpt lat="44.58301664763178" lon="7.970587548183521"><ele>494.0</ele><time>2026-04-12T07:50:12.999Z</time></trkpt><trkpt lat="44.58308844352116" lon="7.970535340122066"><ele>497.14285714285717</ele><time>2026-04-12T07:50:15.999Z</time></trkpt><trkpt lat="44.58315214026529" lon="7.970472816785867"><ele>500.2857142857142</ele><time>2026-04-12T07:50:18.999Z</time></trkpt><trkpt lat="44.58321469648883" lon="7.970409842200947"><ele>503.4285714285714</ele><time>2026-04-12T07:50:21.999Z</time></trkpt><trkpt lat="44.58327352757922" lon="7.970341319307715"><ele>506.57142857142856</ele><time>2026-04-12T07:50:24.999Z</time></trkpt><trkpt lat="44.583341126448666" lon="7.97029148773973"><ele>509.71428571428567</ele><time>2026-04-12T07:50:27.999Z</time></trkpt><trkpt lat="44.58341011822822" lon="7.970259590694773"><ele>512.8571428571428</ele><time>2026-04-12T07:50:30.999Z</time></trkpt><trkpt lat="44.58347348128362" lon="7.970230491706864"><ele>516.0</ele><time>2026-04-12T07:50:33.999Z</time></trkpt><trkpt lat="44.583542289106866" lon="7.970227358699491"><ele>516.0</ele><time>2026-04-12T07:50:36.999Z</time></trkpt><trkpt lat="44.58361520291406" lon="7.97023774610346"><ele>516.0</ele><time>2026-04-12T07:50:39.999Z</time></trkpt><trkpt lat="44.58369064247984" lon="7.970252425585917"><ele>516.0</ele><time>2026-04-12T07:50:42.999Z</time></trkpt><trkpt lat="44.58377268353134" lon="7.970240359090698"><ele>516.0</ele><time>2026-04-12T07:50:45.999Z</time></trkpt><trkpt lat="44.583865417294675" lon="7.9702249772747695"><ele>516.0</ele><time>2026-04-12T07:50:48.999Z</time></trkpt><trkpt lat="44.583932295301956" lon="7.970219172844509"><ele>516.0</ele><time>2026-04-12T07:50:50.999Z</time></trkpt><trkpt lat="44.58399749748189" lon="7.970209376780154"><ele>515.1428571428571</ele><time>2026-04-12T07:50:52.999Z</time></trkpt><trkpt lat="44.584065264001985" lon="7.970191779380705"><ele>514.2857142857142</ele><time>2026-04-12T07:50:54.999Z</time></trkpt><trkpt lat="44.58413861870901" lon="7.970143622570545"><ele>513.4285714285714</ele><time>2026-04-12T07:50:57.999Z</time></trkpt><trkpt lat="44.584208975890206" lon="7.970092909416313"><ele>512.5714285714286</ele><time>2026-04-12T07:51:00.999Z</time></trkpt><trkpt lat="44.58427501221437" lon="7.970059804659586"><ele>511.7142857142858</ele><time>2026-04-12T07:51:04.999Z</time></trkpt><trkpt lat="44.58433238841297" lon="7.969991565285551"><ele>510.8571428571429</ele><time>2026-04-12T07:51:07.999Z</time></trkpt><trkpt lat="44.58440245686853" lon="7.969964405724849"><ele>510.0</ele><time>2026-04-12T07:51:12Z</time></trkpt><trkpt lat="44.58445907072288" lon="7.969914838977525"><ele>510.0</ele><time>2026-04-12T07:51:19Z</time></trkpt><trkpt lat="44.584468917784775" lon="7.969824189755907"><ele>510.00000000000006</ele><time>2026-04-12T07:51:22Z</time></trkpt><trkpt lat="44.58453819905139" lon="7.969795849690233"><ele>510.0</ele><time>2026-04-12T07:52:16.999Z</time></trkpt><trkpt lat="44.58460753041087" lon="7.969783042257284"><ele>510.0</ele><time>2026-04-12T07:52:19.999Z</time></trkpt><trkpt lat="44.58468819428652" lon="7.969776733680953"><ele>510.00000000000006</ele><time>2026-04-12T07:52:22.999Z</time></trkpt><trkpt lat="44.58476434565534" lon="7.969750740915795"><ele>510.0</ele><time>2026-04-12T07:52:25.999Z</time></trkpt><trkpt lat="44.58483762756466" lon="7.969715759647224"><ele>510.0</ele><time>2026-04-12T07:52:28.999Z</time></trkpt><trkpt lat="44.584903415436294" lon="7.969691585133755"><ele>511.0</ele><time>2026-04-12T07:52:32.999Z</time></trkpt><trkpt lat="44.5849611658772" lon="7.969649489947944"><ele>512.0</ele><time>2026-04-12T07:52:36.999Z</time></trkpt><trkpt lat="44.585018400403804" lon="7.969591569244259"><ele>513.0</ele><time>2026-04-12T07:52:39.999Z</time></trkpt><trkpt lat="44.58505413576748" lon="7.969491580658872"><ele>514.0</ele><time>2026-04-12T07:52:42.999Z</time></trkpt><trkpt lat="44.585093656397866" lon="7.969390901308414"><ele>515.0</ele><time>2026-04-12T07:52:45.999Z</time></trkpt><trkpt lat="44.58513120726793" lon="7.969299747833549"><ele>516.0</ele><time>2026-04-12T07:52:48.999Z</time></trkpt><trkpt lat="44.585172758217894" lon="7.969211315536015"><ele>517.0</ele><time>2026-04-12T07:52:51.999Z</time></trkpt><trkpt lat="44.585216602857564" lon="7.969145303547713"><ele>517.0</ele><time>2026-04-12T07:52:54.999Z</time></trkpt><trkpt lat="44.585280019528724" lon="7.9691204135076354"><ele>517.0</ele><time>2026-04-12T07:52:57.999Z</time></trkpt><trkpt lat="44.58534784392758" lon="7.969065222420372"><ele>517.0</ele><time>2026-04-12T07:53:01.999Z</time></trkpt><trkpt lat="44.58540683785747" lon="7.969023360071001"><ele>517.0</ele><time>2026-04-12T07:53:04.999Z</time></trkpt><trkpt lat="44.585446298497374" lon="7.968947670459977"><ele>517.0</ele><time>2026-04-12T07:53:09.999Z</time></trkpt><trkpt lat="44.585495406178566" lon="7.968889362430503"><ele>517.0</ele><time>2026-04-12T07:53:12.999Z</time></trkpt><trkpt lat="44.58553361178712" lon="7.968774174369521"><ele>517.0</ele><time>2026-04-12T07:53:17Z</time></trkpt><trkpt lat="44.58554002174711" lon="7.968669071163794"><ele>517.1666666666667</ele><time>2026-04-12T07:53:20Z</time></trkpt><trkpt lat="44.58552200414822" lon="7.968571669066685"><ele>517.3333333333334</ele><time>2026-04-12T07:53:23Z</time></trkpt><trkpt lat="44.585484535778" lon="7.968479850352078"><ele>517.5</ele><time>2026-04-12T07:53:26Z</time></trkpt><trkpt lat="44.58543870981478" lon="7.968390112487684"><ele>517.6666666666666</ele><time>2026-04-12T07:53:29Z</time></trkpt><trkpt lat="44.585391956062644" lon="7.968289480975727"><ele>517.8333333333333</ele><time>2026-04-12T07:53:32Z</time></trkpt><trkpt lat="44.585352037098765" lon="7.968201850308375"><ele>518.0</ele><time>2026-04-12T07:53:35Z</time></trkpt><trkpt lat="44.5853215415604" lon="7.968113345168206"><ele>518.5</ele><time>2026-04-12T07:53:38Z</time></trkpt><trkpt lat="44.58525582447564" lon="7.968029796395266"><ele>519.0</ele><time>2026-04-12T07:53:41Z</time></trkpt><trkpt lat="44.58517181483406" lon="7.968004271938047"><ele>519.5</ele><time>2026-04-12T07:53:44Z</time></trkpt><trkpt lat="44.58510372534273" lon="7.968019140820572"><ele>520.0</ele><time>2026-04-12T07:53:47Z</time></trkpt><trkpt lat="44.58502775034162" lon="7.968056841744483"><ele>520.5</ele><time>2026-04-12T07:53:51Z</time></trkpt><trkpt lat="44.5849580839155" lon="7.968073778473194"><ele>521.0</ele><time>2026-04-12T07:54:09Z</time></trkpt><trkpt lat="44.58489021758434" lon="7.968061513692251"><ele>521.0</ele><time>2026-04-12T07:55:24Z</time></trkpt><trkpt lat="44.58481976265324" lon="7.968043522814098"><ele>521.0</ele><time>2026-04-12T07:55:30Z</time></trkpt><trkpt lat="44.58475782237867" lon="7.968027706092745"><ele>521.0</ele><time>2026-04-12T07:55:44Z</time></trkpt><trkpt lat="44.584645129504025" lon="7.9680118371124795"><ele>521.0</ele><time>2026-04-12T07:55:59Z</time></trkpt><trkpt lat="44.584573218342534" lon="7.967980565837301"><ele>521.0</ele><time>2026-04-12T07:56:12.999Z</time></trkpt><trkpt lat="44.584497378705635" lon="7.967961199486428"><ele>521.0</ele><time>2026-04-12T07:56:44.999Z</time></trkpt><trkpt lat="44.58440591270477" lon="7.967937842845327"><ele>517.0</ele><time>2026-04-12T07:56:47.999Z</time></trkpt><trkpt lat="44.58432381210281" lon="7.967920409251585"><ele>513.0</ele><time>2026-04-12T07:56:52.999Z</time></trkpt><trkpt lat="44.58424974735039" lon="7.967897964660307"><ele>509.0</ele><time>2026-04-12T07:56:54.999Z</time></trkpt><trkpt lat="44.584248988843115" lon="7.968254575901614"><ele>505.0</ele><time>2026-04-12T07:56:58.999Z</time></trkpt><trkpt lat="44.584213958869995" lon="7.96834502966087"><ele>503.83333333333337</ele><time>2026-04-12T07:57:01.999Z</time></trkpt><trkpt lat="44.584233083846684" lon="7.968465153701784"><ele>502.6666666666667</ele><time>2026-04-12T07:57:09.999Z</time></trkpt><trkpt lat="44.58430383117896" lon="7.968546795788521"><ele>501.5</ele><time>2026-04-12T07:57:11.999Z</time></trkpt><trkpt lat="44.584360341167624" lon="7.968593025480431"><ele>500.33333333333337</ele><time>2026-04-12T07:57:14.999Z</time></trkpt><trkpt lat="44.584292084220294" lon="7.968532196716024"><ele>499.1666666666667</ele><time>2026-04-12T07:57:19.999Z</time></trkpt><trkpt lat="44.584217411541886" lon="7.968491736755489"><ele>498.0</ele><time>2026-04-12T07:57:26.998Z</time></trkpt><trkpt lat="44.58411863481536" lon="7.968516848220176"><ele>498.0</ele><time>2026-04-12T07:57:29Z</time></trkpt><trkpt lat="44.58406454869284" lon="7.968434426720088"><ele>498.0</ele><time>2026-04-12T07:57:31Z</time></trkpt><trkpt lat="44.583992404896414" lon="7.968418495607574"><ele>498.0</ele><time>2026-04-12T07:57:34Z</time></trkpt><trkpt lat="44.583936500267235" lon="7.968339316741744"><ele>498.0</ele><time>2026-04-12T07:57:37Z</time></trkpt><trkpt lat="44.58389974122455" lon="7.968238185349258"><ele>498.0</ele><time>2026-04-12T07:57:40Z</time></trkpt><trkpt lat="44.58383743365813" lon="7.968263045356875"><ele>498.0</ele><time>2026-04-12T07:57:53Z</time></trkpt><trkpt lat="44.58382650818091" lon="7.968155705874339"><ele>499.1666666666667</ele><time>2026-04-12T07:57:56Z</time></trkpt><trkpt lat="44.58378657974956" lon="7.968070263154517"><ele>500.33333333333337</ele><time>2026-04-12T07:57:58Z</time></trkpt><trkpt lat="44.583751183704514" lon="7.96797357175151"><ele>501.5</ele><time>2026-04-12T07:58:00Z</time></trkpt><trkpt lat="44.583729263571556" lon="7.967845508873925"><ele>502.6666666666667</ele><time>2026-04-12T07:58:02Z</time></trkpt><trkpt lat="44.58371915593321" lon="7.967744665758958"><ele>503.83333333333337</ele><time>2026-04-12T07:58:04Z</time></trkpt><trkpt lat="44.58365582181245" lon="7.967690657020818"><ele>505.0</ele><time>2026-04-12T07:58:07Z</time></trkpt><trkpt lat="44.58359723788174" lon="7.967728950604522"><ele>500.83333333333337</ele><time>2026-04-12T07:58:08Z</time></trkpt><trkpt lat="44.583520305697355" lon="7.967753211788687"><ele>496.6666666666667</ele><time>2026-04-12T07:58:10Z</time></trkpt><trkpt lat="44.58343483069142" lon="7.967803143086831"><ele>492.5</ele><time>2026-04-12T07:58:13Z</time></trkpt><trkpt lat="44.58335197584858" lon="7.967778879458488"><ele>488.33333333333337</ele><time>2026-04-12T07:58:15Z</time></trkpt><trkpt lat="44.58328089746022" lon="7.967765155424942"><ele>484.1666666666667</ele><time>2026-04-12T07:58:17Z</time></trkpt><trkpt lat="44.58320898921881" lon="7.967725814778654"><ele>480.0</ele><time>2026-04-12T07:58:19.999Z</time></trkpt><trkpt lat="44.58321910403909" lon="7.967635429353391"><ele>480.0</ele><time>2026-04-12T07:58:32.999Z</time></trkpt><trkpt lat="44.58324274947658" lon="7.967735546333132"><ele>480.0</ele><time>2026-04-12T07:58:36.999Z</time></trkpt><trkpt lat="44.58335854480471" lon="7.967473784320711"><ele>480.0</ele><time>2026-04-12T07:58:37.999Z</time></trkpt><trkpt lat="44.583445715950944" lon="7.967370551978766"><ele>480.0</ele><time>2026-04-12T07:58:39.999Z</time></trkpt><trkpt lat="44.58352394911793" lon="7.967267223288421"><ele>479.0</ele><time>2026-04-12T07:58:41.999Z</time></trkpt><trkpt lat="44.583619948924024" lon="7.967175898821278"><ele>478.0</ele><time>2026-04-12T07:58:43.999Z</time></trkpt><trkpt lat="44.58366956674946" lon="7.967115380729942"><ele>477.0</ele><time>2026-04-12T07:58:44.999Z</time></trkpt><trkpt lat="44.58370912253709" lon="7.967035988925306"><ele>476.0</ele><time>2026-04-12T07:58:45.999Z</time></trkpt><trkpt lat="44.58377148143964" lon="7.966987321184733"><ele>475.0</ele><time>2026-04-12T07:58:46.999Z</time></trkpt><trkpt lat="44.58382677015819" lon="7.966919241558648"><ele>474.0</ele><time>2026-04-12T07:58:47.999Z</time></trkpt><trkpt lat="44.58388420553516" lon="7.9668535837067775"><ele>473.0</ele><time>2026-04-12T07:58:48.999Z</time></trkpt><trkpt lat="44.58394168086738" lon="7.96678110361629"><ele>472.0</ele><time>2026-04-12T07:58:49.999Z</time></trkpt><trkpt lat="44.58400378622997" lon="7.966708356668309"><ele>471.0</ele><time>2026-04-12T07:58:50.999Z</time></trkpt><trkpt lat="44.584070079559034" lon="7.966635870752083"><ele>470.0</ele><time>2026-04-12T07:58:51.999Z</time></trkpt><trkpt lat="44.58413062810621" lon="7.966561775529436"><ele>469.0</ele><time>2026-04-12T07:58:52.999Z</time></trkpt><trkpt lat="44.584180870905286" lon="7.966495980520416"><ele>468.0</ele><time>2026-04-12T07:58:53.999Z</time></trkpt><trkpt lat="44.58423967238872" lon="7.966430052102112"><ele>468.0</ele><time>2026-04-12T07:58:54.999Z</time></trkpt><trkpt lat="44.58429814382626" lon="7.96635943298443"><ele>468.0</ele><time>2026-04-12T07:58:55.999Z</time></trkpt><trkpt lat="44.58435691614152" lon="7.966286407487258"><ele>468.0</ele><time>2026-04-12T07:58:56.999Z</time></trkpt><trkpt lat="44.584414071980596" lon="7.966206107383675"><ele>468.0</ele><time>2026-04-12T07:58:57.999Z</time></trkpt><trkpt lat="44.584474381498524" lon="7.966130567992284"><ele>468.0</ele><time>2026-04-12T07:58:58.999Z</time></trkpt><trkpt lat="44.58454519872382" lon="7.96605530415315"><ele>468.0</ele><time>2026-04-12T07:58:59.999Z</time></trkpt><trkpt lat="44.58462862240898" lon="7.965982832861268"><ele>466.59999999999997</ele><time>2026-04-12T07:59:00.999Z</time></trkpt><trkpt lat="44.5847266027901" lon="7.965936792184984"><ele>465.19999999999993</ele><time>2026-04-12T07:59:01.999Z</time></trkpt><trkpt lat="44.58483354142982" lon="7.96590317913593"><ele>463.8</ele><time>2026-04-12T07:59:02.999Z</time></trkpt><trkpt lat="44.58494203675135" lon="7.9658683481172705"><ele>462.4</ele><time>2026-04-12T07:59:03.999Z</time></trkpt><trkpt lat="44.58504116742232" lon="7.965813216194464"><ele>461.0</ele><time>2026-04-12T07:59:04.999Z</time></trkpt><trkpt lat="44.585133740547526" lon="7.965739684261902"><ele>461.0</ele><time>2026-04-12T07:59:05.999Z</time></trkpt><trkpt lat="44.585220570878974" lon="7.96566546860811"><ele>461.0</ele><time>2026-04-12T07:59:06.999Z</time></trkpt><trkpt lat="44.58529850173956" lon="7.965561917992162"><ele>461.0</ele><time>2026-04-12T07:59:07.999Z</time></trkpt><trkpt lat="44.58536609631011" lon="7.965441839637604"><ele>461.0</ele><time>2026-04-12T07:59:08.999Z</time></trkpt><trkpt lat="44.585426212640606" lon="7.96531442647361"><ele>461.0</ele><time>2026-04-12T07:59:09.999Z</time></trkpt><trkpt lat="44.58547674041337" lon="7.965175821850261"><ele>459.75</ele><time>2026-04-12T07:59:10.999Z</time></trkpt><trkpt lat="44.58552135811855" lon="7.965026144317885"><ele>458.5</ele><time>2026-04-12T07:59:11.999Z</time></trkpt><trkpt lat="44.58556997571422" lon="7.964875962776498"><ele>457.25</ele><time>2026-04-12T07:59:12.999Z</time></trkpt><trkpt lat="44.585613243362594" lon="7.96472587467603"><ele>456.0</ele><time>2026-04-12T07:59:13.999Z</time></trkpt><trkpt lat="44.58566151001081" lon="7.964573166150891"><ele>456.0</ele><time>2026-04-12T07:59:14.999Z</time></trkpt><trkpt lat="44.585711153250976" lon="7.964421759350455"><ele>456.0</ele><time>2026-04-12T07:59:15.999Z</time></trkpt><trkpt lat="44.58575697773912" lon="7.964272293667333"><ele>456.0</ele><time>2026-04-12T07:59:16.999Z</time></trkpt><trkpt lat="44.585800440868766" lon="7.964120076247352"><ele>456.0</ele><time>2026-04-12T07:59:17.999Z</time></trkpt><trkpt lat="44.58585315556803" lon="7.96397327817076"><ele>453.20000000000005</ele><time>2026-04-12T07:59:18.999Z</time></trkpt><trkpt lat="44.58590930250649" lon="7.963832189044444"><ele>450.40000000000003</ele><time>2026-04-12T07:59:19.999Z</time></trkpt><trkpt lat="44.58596477373654" lon="7.963692443875527"><ele>447.6</ele><time>2026-04-12T07:59:20.999Z</time></trkpt><trkpt lat="44.58601399991425" lon="7.963567012486942"><ele>444.8</ele><time>2026-04-12T07:59:21.999Z</time></trkpt><trkpt lat="44.586054225288656" lon="7.963465531295166"><ele>442.0</ele><time>2026-04-12T07:59:22.999Z</time></trkpt><trkpt lat="44.58610166018055" lon="7.963349651175433"><ele>441.33333333333337</ele><time>2026-04-12T07:59:24.999Z</time></trkpt><trkpt lat="44.586189115082156" lon="7.963374239522584"><ele>440.6666666666667</ele><time>2026-04-12T07:59:28.999Z</time></trkpt><trkpt lat="44.58626310243659" lon="7.963413596168814"><ele>440.0</ele><time>2026-04-12T07:59:31.999Z</time></trkpt><trkpt lat="44.586324985262664" lon="7.9634528869656975"><ele>439.33333333333337</ele><time>2026-04-12T07:59:33.998Z</time></trkpt><trkpt lat="44.58640778557714" lon="7.963499996578615"><ele>438.6666666666667</ele><time>2026-04-12T07:59:36Z</time></trkpt><trkpt lat="44.5864991468884" lon="7.963563155878267"><ele>438.0</ele><time>2026-04-12T07:59:38Z</time></trkpt><trkpt lat="44.58660489369353" lon="7.9636430472846484"><ele>438.0</ele><time>2026-04-12T07:59:40Z</time></trkpt><trkpt lat="44.586669441072715" lon="7.963680046419831"><ele>438.0</ele><time>2026-04-12T07:59:41Z</time></trkpt><trkpt lat="44.58674191965102" lon="7.963727080868717"><ele>438.0</ele><time>2026-04-12T07:59:42Z</time></trkpt><trkpt lat="44.586813884271336" lon="7.963776411077867"><ele>438.0</ele><time>2026-04-12T07:59:43Z</time></trkpt><trkpt lat="44.58688442717212" lon="7.963824135666521"><ele>438.0</ele><time>2026-04-12T07:59:44Z</time></trkpt><trkpt lat="44.58695199779443" lon="7.963891608487651"><ele>438.0</ele><time>2026-04-12T07:59:45Z</time></trkpt><trkpt lat="44.58702378478915" lon="7.9639512070176055"><ele>436.8333333333333</ele><time>2026-04-12T07:59:46Z</time></trkpt><trkpt lat="44.58709413306238" lon="7.964016280116188"><ele>435.66666666666663</ele><time>2026-04-12T07:59:47Z</time></trkpt><trkpt lat="44.58716004280346" lon="7.964091782250947"><ele>434.5</ele><time>2026-04-12T07:59:48Z</time></trkpt><trkpt lat="44.58722798488771" lon="7.964164177588689"><ele>433.3333333333333</ele><time>2026-04-12T07:59:49Z</time></trkpt><trkpt lat="44.587298801237324" lon="7.964238397172384"><ele>432.16666666666663</ele><time>2026-04-12T07:59:50Z</time></trkpt><trkpt lat="44.5873681600034" lon="7.96432298228446"><ele>431.0</ele><time>2026-04-12T07:59:51Z</time></trkpt><trkpt lat="44.587436723267494" lon="7.964411276491294"><ele>431.0</ele><time>2026-04-12T07:59:52Z</time></trkpt><trkpt lat="44.58750573851489" lon="7.964494873121028"><ele>431.0</ele><time>2026-04-12T07:59:53Z</time></trkpt><trkpt lat="44.58757339665823" lon="7.964574407450212"><ele>431.0</ele><time>2026-04-12T07:59:54Z</time></trkpt><trkpt lat="44.58763781242736" lon="7.964654993794235"><ele>431.0</ele><time>2026-04-12T07:59:55Z</time></trkpt><trkpt lat="44.58770562716946" lon="7.9647420085940865"><ele>431.0</ele><time>2026-04-12T07:59:56Z</time></trkpt><trkpt lat="44.58777419543067" lon="7.964829441047217"><ele>427.99999999999994</ele><time>2026-04-12T07:59:57Z</time></trkpt><trkpt lat="44.587855194018445" lon="7.964917714607764"><ele>425.0</ele><time>2026-04-12T07:59:58Z</time></trkpt><trkpt lat="44.58791659385384" lon="7.9649993405317225"><ele>422.0</ele><time>2026-04-12T07:59:59Z</time></trkpt><trkpt lat="44.5879627930565" lon="7.965063919714092"><ele>419.0</ele><time>2026-04-12T08:00:00Z</time></trkpt><trkpt lat="44.58800827037016" lon="7.965127019571117"><ele>415.99999999999994</ele><time>2026-04-12T08:00:01Z</time></trkpt><trkpt lat="44.588046987295066" lon="7.96521394207753"><ele>413.0</ele><time>2026-04-12T08:00:02Z</time></trkpt><trkpt lat="44.58806511595009" lon="7.965315289105173"><ele>412.99999999999994</ele><time>2026-04-12T08:00:03Z</time></trkpt><trkpt lat="44.588076575669014" lon="7.965415216249461"><ele>413.0</ele><time>2026-04-12T08:00:04Z</time></trkpt><trkpt lat="44.58807405820854" lon="7.9655135099161365"><ele>413.0</ele><time>2026-04-12T08:00:05Z</time></trkpt><trkpt lat="44.588057037439704" lon="7.965677384742473"><ele>413.0</ele><time>2026-04-12T08:00:07Z</time></trkpt><trkpt lat="44.58805576655314" lon="7.965776383572339"><ele>412.99999999999994</ele><time>2026-04-12T08:00:08Z</time></trkpt><trkpt lat="44.58804473501108" lon="7.965865821234564"><ele>413.0</ele><time>2026-04-12T08:00:09Z</time></trkpt><trkpt lat="44.58804904333307" lon="7.965958943825784"><ele>413.99999999999994</ele><time>2026-04-12T08:00:10Z</time></trkpt><trkpt lat="44.588068473043755" lon="7.966130685086871"><ele>415.0</ele><time>2026-04-12T08:00:12Z</time></trkpt><trkpt lat="44.58808216846929" lon="7.966242238728881"><ele>416.0</ele><time>2026-04-12T08:00:13Z</time></trkpt><trkpt lat="44.58811423557431" lon="7.96632283219001"><ele>417.0</ele><time>2026-04-12T08:00:14Z</time></trkpt><trkpt lat="44.58817003984153" lon="7.966391699504264"><ele>417.99999999999994</ele><time>2026-04-12T08:00:15Z</time></trkpt><trkpt lat="44.58821021485935" lon="7.966464934790632"><ele>419.0</ele><time>2026-04-12T08:00:16Z</time></trkpt><trkpt lat="44.58832858263921" lon="7.9665082115511545"><ele>418.99999999999994</ele><time>2026-04-12T08:00:18Z</time></trkpt><trkpt lat="44.58841791863728" lon="7.966330249723928"><ele>419.0</ele><time>2026-04-12T08:00:20Z</time></trkpt><trkpt lat="44.58843037658589" lon="7.966229525705578"><ele>419.0</ele><time>2026-04-12T08:00:21Z</time></trkpt><trkpt lat="44.588448561659185" lon="7.966137526489763"><ele>419.0</ele><time>2026-04-12T08:00:22Z</time></trkpt><trkpt lat="44.58847392703593" lon="7.96604883336213"><ele>418.99999999999994</ele><time>2026-04-12T08:00:23Z</time></trkpt><trkpt lat="44.588521730698396" lon="7.9659588954886225"><ele>419.0</ele><time>2026-04-12T08:00:24Z</time></trkpt><trkpt lat="44.58857313709271" lon="7.965866203071034"><ele>417.99999999999994</ele><time>2026-04-12T08:00:25Z</time></trkpt><trkpt lat="44.58863694171539" lon="7.965786097405369"><ele>417.0</ele><time>2026-04-12T08:00:26Z</time></trkpt><trkpt lat="44.5886785197338" lon="7.965685890729395"><ele>416.0</ele><time>2026-04-12T08:00:27Z</time></trkpt><trkpt lat="44.58874443419634" lon="7.965610531799703"><ele>415.0</ele><time>2026-04-12T08:00:28Z</time></trkpt><trkpt lat="44.58879839568836" lon="7.965528520742156"><ele>413.99999999999994</ele><time>2026-04-12T08:00:28.999Z</time></trkpt><trkpt lat="44.588853016715376" lon="7.9654530242740575"><ele>413.0</ele><time>2026-04-12T08:00:29.999Z</time></trkpt><trkpt lat="44.58891292565223" lon="7.965390061085329"><ele>411.99999999999994</ele><time>2026-04-12T08:00:30.999Z</time></trkpt><trkpt lat="44.58898293415722" lon="7.96533072536022"><ele>411.0</ele><time>2026-04-12T08:00:31.999Z</time></trkpt><trkpt lat="44.58905780660648" lon="7.9652756105353095"><ele>410.0</ele><time>2026-04-12T08:00:32.999Z</time></trkpt><trkpt lat="44.58913851219602" lon="7.965217603829364"><ele>409.0</ele><time>2026-04-12T08:00:33.999Z</time></trkpt><trkpt lat="44.58921826576782" lon="7.965155259501597"><ele>407.99999999999994</ele><time>2026-04-12T08:00:34.999Z</time></trkpt><trkpt lat="44.5892869706301" lon="7.965079017062497"><ele>407.0</ele><time>2026-04-12T08:00:35.999Z</time></trkpt><trkpt lat="44.58937208906472" lon="7.9650356952854695"><ele>405.0</ele><time>2026-04-12T08:00:36.999Z</time></trkpt><trkpt lat="44.58945308396737" lon="7.964951498128518"><ele>403.0</ele><time>2026-04-12T08:00:37.999Z</time></trkpt><trkpt lat="44.58953790916173" lon="7.964903132110156"><ele>401.0</ele><time>2026-04-12T08:00:38.999Z</time></trkpt><trkpt lat="44.5896265158744" lon="7.964850602245181"><ele>399.0</ele><time>2026-04-12T08:00:39.999Z</time></trkpt><trkpt lat="44.58971029914458" lon="7.964801940080444"><ele>397.0</ele><time>2026-04-12T08:00:40.999Z</time></trkpt><trkpt lat="44.58978257173879" lon="7.964739287491159"><ele>395.33333333333337</ele><time>2026-04-12T08:00:41.999Z</time></trkpt><trkpt lat="44.5898520025854" lon="7.964664310997566"><ele>393.6666666666667</ele><time>2026-04-12T08:00:42.999Z</time></trkpt><trkpt lat="44.58992090418649" lon="7.964581781277391"><ele>392.0</ele><time>2026-04-12T08:00:43.999Z</time></trkpt><trkpt lat="44.58998178292479" lon="7.964491883496661"><ele>390.33333333333337</ele><time>2026-04-12T08:00:44.999Z</time></trkpt><trkpt lat="44.59003266660063" lon="7.964388792228636"><ele>388.6666666666667</ele><time>2026-04-12T08:00:45.999Z</time></trkpt><trkpt lat="44.59007685227011" lon="7.964281541411913"><ele>387.0</ele><time>2026-04-12T08:00:46.999Z</time></trkpt><trkpt lat="44.59010925697993" lon="7.964169521239726"><ele>385.6666666666667</ele><time>2026-04-12T08:00:47.999Z</time></trkpt><trkpt lat="44.590140411059096" lon="7.964058858031328"><ele>384.3333333333333</ele><time>2026-04-12T08:00:48.999Z</time></trkpt><trkpt lat="44.59017657904039" lon="7.9639651218350815"><ele>383.0</ele><time>2026-04-12T08:00:49.999Z</time></trkpt><trkpt lat="44.5902339530402" lon="7.963907264895825"><ele>381.66666666666663</ele><time>2026-04-12T08:00:50.999Z</time></trkpt><trkpt lat="44.59029730361511" lon="7.963875376085791"><ele>380.3333333333333</ele><time>2026-04-12T08:00:51.999Z</time></trkpt><trkpt lat="44.59037359998655" lon="7.963918680263627"><ele>379.0</ele><time>2026-04-12T08:00:52.999Z</time></trkpt><trkpt lat="44.59045604519201" lon="7.963935559802298"><ele>378.0</ele><time>2026-04-12T08:00:53.999Z</time></trkpt><trkpt lat="44.59054520431363" lon="7.963929337968625"><ele>377.0</ele><time>2026-04-12T08:00:54.999Z</time></trkpt><trkpt lat="44.59063132732057" lon="7.963932425439202"><ele>376.0</ele><time>2026-04-12T08:00:55.999Z</time></trkpt><trkpt lat="44.59071508433451" lon="7.963916707637163"><ele>375.0</ele><time>2026-04-12T08:00:56.999Z</time></trkpt><trkpt lat="44.59079753108636" lon="7.963889021918385"><ele>374.0</ele><time>2026-04-12T08:00:57.999Z</time></trkpt><trkpt lat="44.59088201218831" lon="7.963855085686572"><ele>373.0</ele><time>2026-04-12T08:00:58.999Z</time></trkpt><trkpt lat="44.59096765463423" lon="7.96383952625317"><ele>373.0</ele><time>2026-04-12T08:00:59.999Z</time></trkpt><trkpt lat="44.59104463399239" lon="7.963781530888144"><ele>373.0</ele><time>2026-04-12T08:01:00.999Z</time></trkpt><trkpt lat="44.591127995289796" lon="7.963737758026899"><ele>373.0</ele><time>2026-04-12T08:01:01.999Z</time></trkpt><trkpt lat="44.59121845404232" lon="7.963712757673796"><ele>373.0</ele><time>2026-04-12T08:01:02.999Z</time></trkpt><trkpt lat="44.59131256105682" lon="7.963698325506772"><ele>373.0</ele><time>2026-04-12T08:01:03.999Z</time></trkpt><trkpt lat="44.59140839117525" lon="7.963694943783454"><ele>372.0</ele><time>2026-04-12T08:01:04.999Z</time></trkpt><trkpt lat="44.5915062125589" lon="7.963699870632756"><ele>371.0</ele><time>2026-04-12T08:01:05.999Z</time></trkpt><trkpt lat="44.59159852001062" lon="7.963743259685323"><ele>370.0</ele><time>2026-04-12T08:01:06.999Z</time></trkpt><trkpt lat="44.59169487645552" lon="7.963752842381902"><ele>369.0</ele><time>2026-04-12T08:01:07.999Z</time></trkpt><trkpt lat="44.5917867314362" lon="7.96377009813488"><ele>368.0</ele><time>2026-04-12T08:01:08.999Z</time></trkpt><trkpt lat="44.59187992066435" lon="7.9637775891568"><ele>368.0</ele><time>2026-04-12T08:01:09.999Z</time></trkpt><trkpt lat="44.59197967502771" lon="7.963756045010568"><ele>368.0</ele><time>2026-04-12T08:01:10.999Z</time></trkpt><trkpt lat="44.592081564458034" lon="7.963712947657539"><ele>368.0</ele><time>2026-04-12T08:01:11.999Z</time></trkpt><trkpt lat="44.59218078599559" lon="7.963665873553459"><ele>368.0</ele><time>2026-04-12T08:01:12.999Z</time></trkpt><trkpt lat="44.59227924061508" lon="7.9636084534019425"><ele>368.0</ele><time>2026-04-12T08:01:13.999Z</time></trkpt><trkpt lat="44.592373729705066" lon="7.9635475015776604"><ele>367.2</ele><time>2026-04-12T08:01:14.999Z</time></trkpt><trkpt lat="44.59247294260707" lon="7.9634828424525415"><ele>366.4</ele><time>2026-04-12T08:01:15.999Z</time></trkpt><trkpt lat="44.592561915955386" lon="7.963416437460031"><ele>365.59999999999997</ele><time>2026-04-12T08:01:16.999Z</time></trkpt><trkpt lat="44.5926448584807" lon="7.963357404209647"><ele>364.79999999999995</ele><time>2026-04-12T08:01:17.999Z</time></trkpt><trkpt lat="44.59272586679428" lon="7.963275620318701"><ele>364.0</ele><time>2026-04-12T08:01:18.999Z</time></trkpt><trkpt lat="44.592805099581575" lon="7.963196195090988"><ele>361.79999999999995</ele><time>2026-04-12T08:01:19.999Z</time></trkpt><trkpt lat="44.59288694773047" lon="7.963119919310137"><ele>359.59999999999997</ele><time>2026-04-12T08:01:20.999Z</time></trkpt><trkpt lat="44.592971092314" lon="7.963056484725779"><ele>357.4</ele><time>2026-04-12T08:01:21.999Z</time></trkpt><trkpt lat="44.593059197563946" lon="7.963011677582588"><ele>355.2</ele><time>2026-04-12T08:01:22.999Z</time></trkpt><trkpt lat="44.59315465228842" lon="7.962987043042905"><ele>353.0</ele><time>2026-04-12T08:01:23.999Z</time></trkpt><trkpt lat="44.59324405961214" lon="7.962973747205115"><ele>353.0</ele><time>2026-04-12T08:01:24.999Z</time></trkpt><trkpt lat="44.593336417775454" lon="7.962961493882888"><ele>353.0</ele><time>2026-04-12T08:01:25.999Z</time></trkpt><trkpt lat="44.5934318234959" lon="7.962945010100519"><ele>353.0</ele><time>2026-04-12T08:01:26.999Z</time></trkpt><trkpt lat="44.59352923339052" lon="7.962930452291759"><ele>353.0</ele><time>2026-04-12T08:01:27.999Z</time></trkpt><trkpt lat="44.59363412797432" lon="7.962904643661729"><ele>353.0</ele><time>2026-04-12T08:01:28.999Z</time></trkpt><trkpt lat="44.59374311316315" lon="7.962895440099223"><ele>352.5</ele><time>2026-04-12T08:01:29.999Z</time></trkpt><trkpt lat="44.59385811576452" lon="7.962884203962422"><ele>352.0</ele><time>2026-04-12T08:01:30.999Z</time></trkpt><trkpt lat="44.59396855577901" lon="7.9628578828145695"><ele>351.5</ele><time>2026-04-12T08:01:31.999Z</time></trkpt><trkpt lat="44.594076698176295" lon="7.962821335462511"><ele>351.0</ele><time>2026-04-12T08:01:32.999Z</time></trkpt><trkpt lat="44.594184953637296" lon="7.962781692721033"><ele>351.0</ele><time>2026-04-12T08:01:33.999Z</time></trkpt><trkpt lat="44.59428750669743" lon="7.962734303706447"><ele>351.0</ele><time>2026-04-12T08:01:34.999Z</time></trkpt><trkpt lat="44.594388349667135" lon="7.962683429815424"><ele>351.0</ele><time>2026-04-12T08:01:35.999Z</time></trkpt><trkpt lat="44.59448528757061" lon="7.962634545359439"><ele>351.0</ele><time>2026-04-12T08:01:36.999Z</time></trkpt><trkpt lat="44.59458147022786" lon="7.962584100759402"><ele>351.0</ele><time>2026-04-12T08:01:37.999Z</time></trkpt><trkpt lat="44.59467458927737" lon="7.962538297946755"><ele>349.0</ele><time>2026-04-12T08:01:38.999Z</time></trkpt><trkpt lat="44.59476754365486" lon="7.9624929914986815"><ele>347.0</ele><time>2026-04-12T08:01:39.999Z</time></trkpt><trkpt lat="44.59486295918667" lon="7.962469137403218"><ele>345.0</ele><time>2026-04-12T08:01:41Z</time></trkpt><trkpt lat="44.59495458663579" lon="7.962430231111965"><ele>343.0</ele><time>2026-04-12T08:01:42Z</time></trkpt><trkpt lat="44.59504741916084" lon="7.962391505000337"><ele>341.0</ele><time>2026-04-12T08:01:43Z</time></trkpt><trkpt lat="44.59512955329316" lon="7.962338076719555"><ele>341.0</ele><time>2026-04-12T08:01:44Z</time></trkpt><trkpt lat="44.59520569602551" lon="7.962312835594135"><ele>341.0</ele><time>2026-04-12T08:01:45Z</time></trkpt><trkpt lat="44.59532752519356" lon="7.962270835000074"><ele>341.0</ele><time>2026-04-12T08:01:47Z</time></trkpt><trkpt lat="44.59539075775369" lon="7.962278280722557"><ele>341.0</ele><time>2026-04-12T08:01:48Z</time></trkpt><trkpt lat="44.59545131952556" lon="7.962305705215999"><ele>341.0</ele><time>2026-04-12T08:01:49Z</time></trkpt><trkpt lat="44.595557724665476" lon="7.962369263916588"><ele>341.0</ele><time>2026-04-12T08:01:51Z</time></trkpt><trkpt lat="44.595615121940455" lon="7.962410424941448"><ele>341.0</ele><time>2026-04-12T08:01:52Z</time></trkpt><trkpt lat="44.59567534337581" lon="7.962464331967736"><ele>341.0</ele><time>2026-04-12T08:01:53Z</time></trkpt><trkpt lat="44.595765431527575" lon="7.9625478555838916"><ele>341.0</ele><time>2026-04-12T08:01:54Z</time></trkpt><trkpt lat="44.59584179378644" lon="7.962675681296876"><ele>341.0</ele><time>2026-04-12T08:01:56Z</time></trkpt><trkpt lat="44.59596235794178" lon="7.962687316254629"><ele>341.0</ele><time>2026-04-12T08:01:58Z</time></trkpt><trkpt lat="44.59604002423427" lon="7.962571923111257"><ele>340.33333333333337</ele><time>2026-04-12T08:02:00Z</time></trkpt><trkpt lat="44.59607615847799" lon="7.962454946598101"><ele>339.6666666666667</ele><time>2026-04-12T08:02:02Z</time></trkpt><trkpt lat="44.596083887791245" lon="7.96233672667635"><ele>339.0</ele><time>2026-04-12T08:02:04Z</time></trkpt><trkpt lat="44.596081552054194" lon="7.962223041312336"><ele>338.3333333333333</ele><time>2026-04-12T08:02:06Z</time></trkpt><trkpt lat="44.59607772616988" lon="7.962115686406823"><ele>337.66666666666663</ele><time>2026-04-12T08:02:08Z</time></trkpt><trkpt lat="44.59607679013448" lon="7.9620127726443695"><ele>337.0</ele><time>2026-04-12T08:02:10Z</time></trkpt><trkpt lat="44.59609052374429" lon="7.961909012942824"><ele>337.0</ele><time>2026-04-12T08:02:12Z</time></trkpt><trkpt lat="44.5961116474444" lon="7.9618036051369865"><ele>337.0</ele><time>2026-04-12T08:02:14Z</time></trkpt><trkpt lat="44.59615675587519" lon="7.961705033259836"><ele>337.0</ele><time>2026-04-12T08:02:16Z</time></trkpt><trkpt lat="44.59620934050779" lon="7.961620025663693"><ele>337.0</ele><time>2026-04-12T08:02:18Z</time></trkpt><trkpt lat="44.59627419224227" lon="7.961539089966743"><ele>337.0</ele><time>2026-04-12T08:02:20Z</time></trkpt><trkpt lat="44.59635096951087" lon="7.961466037213156"><ele>337.0</ele><time>2026-04-12T08:02:22Z</time></trkpt><trkpt lat="44.596427472868534" lon="7.961385416508893"><ele>337.3333333333333</ele><time>2026-04-12T08:02:24Z</time></trkpt><trkpt lat="44.596500457834125" lon="7.961312355542566"><ele>337.66666666666663</ele><time>2026-04-12T08:02:26Z</time></trkpt><trkpt lat="44.59657046338509" lon="7.9612400110994805"><ele>338.0</ele><time>2026-04-12T08:02:28Z</time></trkpt><trkpt lat="44.596623522338845" lon="7.961190248892561"><ele>338.3333333333333</ele><time>2026-04-12T08:02:30Z</time></trkpt><trkpt lat="44.596685275982416" lon="7.961139262880555"><ele>338.6666666666667</ele><time>2026-04-12T08:02:32Z</time></trkpt><trkpt lat="44.596750919532695" lon="7.961074097211734"><ele>339.0</ele><time>2026-04-12T08:02:33.999Z</time></trkpt><trkpt lat="44.59680757637065" lon="7.960972741896018"><ele>339.0</ele><time>2026-04-12T08:02:35.999Z</time></trkpt><trkpt lat="44.59688182719425" lon="7.96090983363064"><ele>339.0</ele><time>2026-04-12T08:02:37.999Z</time></trkpt><trkpt lat="44.59694860517282" lon="7.960880186487041"><ele>339.0</ele><time>2026-04-12T08:02:40.999Z</time></trkpt><trkpt lat="44.59700639709809" lon="7.960832372304929"><ele>339.0</ele><time>2026-04-12T08:02:51.999Z</time></trkpt><trkpt lat="44.59706279375025" lon="7.960791483087753"><ele>339.0</ele><time>2026-04-12T08:02:57.999Z</time></trkpt><trkpt lat="44.59712516982206" lon="7.960774319981799"><ele>339.0</ele><time>2026-04-12T08:03:04.999Z</time></trkpt><trkpt lat="44.59716605230572" lon="7.960698521296387"><ele>339.0</ele><time>2026-04-12T08:03:22.999Z</time></trkpt><trkpt lat="44.59723767027784" lon="7.960662975894191"><ele>338.1666666666667</ele><time>2026-04-12T08:03:25.999Z</time></trkpt><trkpt lat="44.59730695927137" lon="7.96065409338161"><ele>337.3333333333333</ele><time>2026-04-12T08:03:27.999Z</time></trkpt><trkpt lat="44.59740430801699" lon="7.9606542978095325"><ele>336.5</ele><time>2026-04-12T08:03:30.999Z</time></trkpt><trkpt lat="44.59748622168715" lon="7.960660482601885"><ele>335.66666666666663</ele><time>2026-04-12T08:03:32.999Z</time></trkpt><trkpt lat="44.59757291452071" lon="7.9606526536602615"><ele>334.8333333333333</ele><time>2026-04-12T08:03:34.999Z</time></trkpt><trkpt lat="44.597655715322226" lon="7.960640623552385"><ele>334.0</ele><time>2026-04-12T08:03:36.999Z</time></trkpt><trkpt lat="44.597739096681025" lon="7.960626403155614"><ele>334.0</ele><time>2026-04-12T08:03:38.999Z</time></trkpt><trkpt lat="44.597813177811894" lon="7.9605973645705035"><ele>334.0</ele><time>2026-04-12T08:03:40.999Z</time></trkpt><trkpt lat="44.59787287852116" lon="7.960565253110505"><ele>334.0</ele><time>2026-04-12T08:03:42.999Z</time></trkpt><trkpt lat="44.59795621434342" lon="7.960533272879598"><ele>334.0</ele><time>2026-04-12T08:03:45.999Z</time></trkpt><trkpt lat="44.59804062469535" lon="7.960536996452775"><ele>334.0</ele><time>2026-04-12T08:03:49Z</time></trkpt><trkpt lat="44.598101132578854" lon="7.960564831238984"><ele>334.0</ele><time>2026-04-12T08:03:51Z</time></trkpt><trkpt lat="44.5981789065188" lon="7.960591457240176"><ele>333.8333333333333</ele><time>2026-04-12T08:03:53Z</time></trkpt><trkpt lat="44.59827132683495" lon="7.9606429298614705"><ele>333.66666666666663</ele><time>2026-04-12T08:03:55Z</time></trkpt><trkpt lat="44.59835826000388" lon="7.960659064557503"><ele>333.5</ele><time>2026-04-12T08:03:58Z</time></trkpt><trkpt lat="44.59843689437076" lon="7.960678166262594"><ele>333.3333333333333</ele><time>2026-04-12T08:04:00Z</time></trkpt><trkpt lat="44.5985155601673" lon="7.960650654422555"><ele>333.1666666666667</ele><time>2026-04-12T08:04:02Z</time></trkpt><trkpt lat="44.598591135744925" lon="7.960608779531729"><ele>333.0</ele><time>2026-04-12T08:04:04Z</time></trkpt><trkpt lat="44.598655620611986" lon="7.960528507500761"><ele>332.5714285714286</ele><time>2026-04-12T08:04:06Z</time></trkpt><trkpt lat="44.598711144179774" lon="7.960484222358869"><ele>332.1428571428571</ele><time>2026-04-12T08:04:08Z</time></trkpt><trkpt lat="44.59875041321857" lon="7.960410201151185"><ele>331.7142857142857</ele><time>2026-04-12T08:04:10Z</time></trkpt><trkpt lat="44.59877259904763" lon="7.960315447392352"><ele>331.28571428571433</ele><time>2026-04-12T08:04:12Z</time></trkpt><trkpt lat="44.59878743647384" lon="7.96020763219503"><ele>330.8571428571429</ele><time>2026-04-12T08:04:14Z</time></trkpt><trkpt lat="44.59880610113599" lon="7.960101051925748"><ele>330.42857142857144</ele><time>2026-04-12T08:04:16Z</time></trkpt><trkpt lat="44.5988255357007" lon="7.960006695671108"><ele>330.0</ele><time>2026-04-12T08:04:18Z</time></trkpt><trkpt lat="44.59883246612194" lon="7.959893457929774"><ele>328.6</ele><time>2026-04-12T08:04:21Z</time></trkpt><trkpt lat="44.598844046268795" lon="7.959775903165582"><ele>327.2</ele><time>2026-04-12T08:04:23Z</time></trkpt><trkpt lat="44.598862105843516" lon="7.959645868074379"><ele>325.79999999999995</ele><time>2026-04-12T08:04:25Z</time></trkpt><trkpt lat="44.59887347103087" lon="7.959518879743142"><ele>324.4</ele><time>2026-04-12T08:04:27Z</time></trkpt><trkpt lat="44.59888964170488" lon="7.9593773500782286"><ele>323.0</ele><time>2026-04-12T08:04:29Z</time></trkpt><trkpt lat="44.598898568186954" lon="7.959260574426594"><ele>322.0</ele><time>2026-04-12T08:04:31Z</time></trkpt><trkpt lat="44.59890425376374" lon="7.959171453671802"><ele>321.0</ele><time>2026-04-12T08:04:35Z</time></trkpt><trkpt lat="44.59892540684347" lon="7.959058286655699"><ele>320.0</ele><time>2026-04-12T08:04:38Z</time></trkpt><trkpt lat="44.59896275895502" lon="7.958984205862463"><ele>319.0</ele><time>2026-04-12T08:04:39.999Z</time></trkpt><trkpt lat="44.59902186362135" lon="7.958894297154165"><ele>318.0</ele><time>2026-04-12T08:04:42.999Z</time></trkpt><trkpt lat="44.5990483789635" lon="7.958790431590907"><ele>317.0</ele><time>2026-04-12T08:04:44.999Z</time></trkpt><trkpt lat="44.59904605007244" lon="7.958686283784173"><ele>317.0</ele><time>2026-04-12T08:04:46.999Z</time></trkpt><trkpt lat="44.599055020515245" lon="7.958574281674961"><ele>317.0</ele><time>2026-04-12T08:04:48.999Z</time></trkpt><trkpt lat="44.59906636965637" lon="7.958444577966615"><ele>317.0</ele><time>2026-04-12T08:04:50.999Z</time></trkpt><trkpt lat="44.5991027446621" lon="7.958320540586079"><ele>317.0</ele><time>2026-04-12T08:04:52.999Z</time></trkpt><trkpt lat="44.59913979482709" lon="7.958210261497751"><ele>317.0</ele><time>2026-04-12T08:04:54.999Z</time></trkpt><trkpt lat="44.59919905967575" lon="7.958113196305476"><ele>317.0</ele><time>2026-04-12T08:04:56.999Z</time></trkpt><trkpt lat="44.59926384031363" lon="7.958019834840215"><ele>317.5</ele><time>2026-04-12T08:04:58.999Z</time></trkpt><trkpt lat="44.599331157169836" lon="7.957935216281397"><ele>318.0</ele><time>2026-04-12T08:05:00.999Z</time></trkpt><trkpt lat="44.59940227815218" lon="7.957839294089012"><ele>318.5</ele><time>2026-04-12T08:05:02.999Z</time></trkpt><trkpt lat="44.59946624895163" lon="7.957761386008877"><ele>319.0</ele><time>2026-04-12T08:05:04.999Z</time></trkpt><trkpt lat="44.59952318090336" lon="7.957690699106825"><ele>319.5</ele><time>2026-04-12T08:05:06.999Z</time></trkpt><trkpt lat="44.599586915952024" lon="7.957617449827135"><ele>320.0</ele><time>2026-04-12T08:05:08.999Z</time></trkpt><trkpt lat="44.59964636514745" lon="7.957540458196439"><ele>318.2</ele><time>2026-04-12T08:05:10.999Z</time></trkpt><trkpt lat="44.599709393565696" lon="7.9574511427394325"><ele>316.4</ele><time>2026-04-12T08:05:12.999Z</time></trkpt><trkpt lat="44.59978589155627" lon="7.957344151068474"><ele>314.6</ele><time>2026-04-12T08:05:14.999Z</time></trkpt><trkpt lat="44.599860936750815" lon="7.957228834978602"><ele>312.8</ele><time>2026-04-12T08:05:16.999Z</time></trkpt><trkpt lat="44.59991665995723" lon="7.957158751888253"><ele>311.0</ele><time>2026-04-12T08:05:18.999Z</time></trkpt><trkpt lat="44.59998193875795" lon="7.957076853576602"><ele>311.0</ele><time>2026-04-12T08:05:21.999Z</time></trkpt><trkpt lat="44.60003478840782" lon="7.957016011963834"><ele>311.0</ele><time>2026-04-12T08:05:23.999Z</time></trkpt><trkpt lat="44.60009017774914" lon="7.956949295958854"><ele>311.0</ele><time>2026-04-12T08:05:25.999Z</time></trkpt><trkpt lat="44.60013727080256" lon="7.956886990396986"><ele>311.0</ele><time>2026-04-12T08:05:27.999Z</time></trkpt><trkpt lat="44.60018453371134" lon="7.956810705867693"><ele>311.0</ele><time>2026-04-12T08:05:29.999Z</time></trkpt><trkpt lat="44.60024845775865" lon="7.956748318183593"><ele>311.0</ele><time>2026-04-12T08:05:31.999Z</time></trkpt><trkpt lat="44.600316173771525" lon="7.956693386536162"><ele>311.0</ele><time>2026-04-12T08:05:33.999Z</time></trkpt><trkpt lat="44.60040481918281" lon="7.956646775604536"><ele>310.0</ele><time>2026-04-12T08:05:35.999Z</time></trkpt><trkpt lat="44.60049681712238" lon="7.956594867177759"><ele>309.0</ele><time>2026-04-12T08:05:37.999Z</time></trkpt><trkpt lat="44.60058928125463" lon="7.9565501471388185"><ele>308.0</ele><time>2026-04-12T08:05:39.999Z</time></trkpt><trkpt lat="44.600676468625224" lon="7.956499928037355"><ele>307.0</ele><time>2026-04-12T08:05:41.999Z</time></trkpt><trkpt lat="44.6007630943041" lon="7.956455693760989"><ele>306.0</ele><time>2026-04-12T08:05:43.999Z</time></trkpt><trkpt lat="44.60084788126555" lon="7.956401943083492"><ele>306.0</ele><time>2026-04-12T08:05:45.999Z</time></trkpt><trkpt lat="44.60093198045176" lon="7.956358326061066"><ele>306.0</ele><time>2026-04-12T08:05:47.999Z</time></trkpt><trkpt lat="44.601013788648125" lon="7.956328118706638"><ele>306.0</ele><time>2026-04-12T08:05:49.999Z</time></trkpt><trkpt lat="44.6010890251842" lon="7.956292264401439"><ele>306.0</ele><time>2026-04-12T08:05:51.999Z</time></trkpt><trkpt lat="44.60116186796434" lon="7.956256035977766"><ele>306.0</ele><time>2026-04-12T08:05:54Z</time></trkpt><trkpt lat="44.60124774054187" lon="7.956218425908642"><ele>306.0</ele><time>2026-04-12T08:05:56Z</time></trkpt><trkpt lat="44.6013412811464" lon="7.956186915618772"><ele>305.0</ele><time>2026-04-12T08:05:58Z</time></trkpt><trkpt lat="44.60143947798887" lon="7.956168104396"><ele>304.0</ele><time>2026-04-12T08:06:00Z</time></trkpt><trkpt lat="44.60152025550889" lon="7.956151170074924"><ele>303.0</ele><time>2026-04-12T08:06:02Z</time></trkpt><trkpt lat="44.6015959709396" lon="7.956120345556351"><ele>302.0</ele><time>2026-04-12T08:06:04Z</time></trkpt><trkpt lat="44.60168758254113" lon="7.9560898988162965"><ele>301.0</ele><time>2026-04-12T08:06:06Z</time></trkpt><trkpt lat="44.6017638538826" lon="7.956080474492446"><ele>300.0</ele><time>2026-04-12T08:06:08Z</time></trkpt><trkpt lat="44.601840640518176" lon="7.956061752911338"><ele>300.0</ele><time>2026-04-12T08:06:11Z</time></trkpt><trkpt lat="44.601916089749814" lon="7.956058932593569"><ele>300.0</ele><time>2026-04-12T08:06:16Z</time></trkpt><trkpt lat="44.60200993292771" lon="7.955659301419717"><ele>300.0</ele><time>2026-04-12T08:06:20Z</time></trkpt><trkpt lat="44.60207904929534" lon="7.9555249717183605"><ele>297.0</ele><time>2026-04-12T08:06:22Z</time></trkpt><trkpt lat="44.60214508359422" lon="7.95539846112767"><ele>294.0</ele><time>2026-04-12T08:06:24Z</time></trkpt><trkpt lat="44.60222000339019" lon="7.955291604958676"><ele>291.0</ele><time>2026-04-12T08:06:26Z</time></trkpt><trkpt lat="44.60228637731984" lon="7.9551947582942795"><ele>288.0</ele><time>2026-04-12T08:06:28Z</time></trkpt><trkpt lat="44.60235354493879" lon="7.955107099413104"><ele>285.0</ele><time>2026-04-12T08:06:31Z</time></trkpt><trkpt lat="44.602415320791984" lon="7.955056539099186"><ele>285.0</ele><time>2026-04-12T08:06:33Z</time></trkpt><trkpt lat="44.60247748156999" lon="7.955090168194498"><ele>285.0</ele><time>2026-04-12T08:06:35Z</time></trkpt><trkpt lat="44.602552814588314" lon="7.955102560910392"><ele>285.0</ele><time>2026-04-12T08:06:37Z</time></trkpt><trkpt lat="44.602625205562866" lon="7.955004471840434"><ele>285.0</ele><time>2026-04-12T08:06:39Z</time></trkpt><trkpt lat="44.602712289755125" lon="7.954875215226674"><ele>285.0</ele><time>2026-04-12T08:06:41Z</time></trkpt><trkpt lat="44.602755503446765" lon="7.954801173567455"><ele>285.0</ele><time>2026-04-12T08:06:42Z</time></trkpt><trkpt lat="44.6028363416315" lon="7.954669759474492"><ele>284.5</ele><time>2026-04-12T08:06:44Z</time></trkpt><trkpt lat="44.60287987268796" lon="7.954602734998048"><ele>284.0</ele><time>2026-04-12T08:06:44.999Z</time></trkpt><trkpt lat="44.60292678260219" lon="7.954539735420634"><ele>283.5</ele><time>2026-04-12T08:06:45.999Z</time></trkpt><trkpt lat="44.60299508311002" lon="7.954426260109125"><ele>283.0</ele><time>2026-04-12T08:06:47.999Z</time></trkpt><trkpt lat="44.603076999517086" lon="7.954337101690887"><ele>282.5</ele><time>2026-04-12T08:06:49.999Z</time></trkpt><trkpt lat="44.60317615607814" lon="7.954270945179043"><ele>282.0</ele><time>2026-04-12T08:06:51.999Z</time></trkpt><trkpt lat="44.603276403335975" lon="7.954216407966749"><ele>280.8</ele><time>2026-04-12T08:06:53.999Z</time></trkpt><trkpt lat="44.6033711488066" lon="7.954179578118153"><ele>279.6</ele><time>2026-04-12T08:06:55.999Z</time></trkpt><trkpt lat="44.60345844156577" lon="7.9541011420055"><ele>278.40000000000003</ele><time>2026-04-12T08:06:57.999Z</time></trkpt><trkpt lat="44.6035391780923" lon="7.954009280946486"><ele>277.2</ele><time>2026-04-12T08:06:59.999Z</time></trkpt><trkpt lat="44.60359180263208" lon="7.95387880831706"><ele>276.0</ele><time>2026-04-12T08:07:01.999Z</time></trkpt><trkpt lat="44.60360466893416" lon="7.953729231973996"><ele>276.0</ele><time>2026-04-12T08:07:03.999Z</time></trkpt><trkpt lat="44.60364415133615" lon="7.953604068064428"><ele>276.0</ele><time>2026-04-12T08:07:05.999Z</time></trkpt><trkpt lat="44.60369901094487" lon="7.953467401935076"><ele>276.0</ele><time>2026-04-12T08:07:07.999Z</time></trkpt><trkpt lat="44.60374341731784" lon="7.95331665673967"><ele>276.0</ele><time>2026-04-12T08:07:09.999Z</time></trkpt><trkpt lat="44.60381104938209" lon="7.953217027657628"><ele>276.0</ele><time>2026-04-12T08:07:11.999Z</time></trkpt><trkpt lat="44.60397987431558" lon="7.95326386376819"><ele>275.0</ele><time>2026-04-12T08:07:13.999Z</time></trkpt><trkpt lat="44.604028863885105" lon="7.95320513397759"><ele>274.0</ele><time>2026-04-12T08:07:15.999Z</time></trkpt><trkpt lat="44.60411090840504" lon="7.953201327712035"><ele>273.0</ele><time>2026-04-12T08:07:17.999Z</time></trkpt><trkpt lat="44.60422092402504" lon="7.953188888473114"><ele>272.0</ele><time>2026-04-12T08:07:19.999Z</time></trkpt><trkpt lat="44.60431429027266" lon="7.953165988187362"><ele>271.0</ele><time>2026-04-12T08:07:21.999Z</time></trkpt><trkpt lat="44.60444084284387" lon="7.953133057953238"><ele>270.40000000000003</ele><time>2026-04-12T08:07:23.999Z</time></trkpt><trkpt lat="44.604537098922066" lon="7.953083988403329"><ele>269.8</ele><time>2026-04-12T08:07:25.999Z</time></trkpt><trkpt lat="44.60460312622137" lon="7.9530503289132595"><ele>269.20000000000005</ele><time>2026-04-12T08:07:26.999Z</time></trkpt><trkpt lat="44.60470544337999" lon="7.952980658498877"><ele>268.6</ele><time>2026-04-12T08:07:28.999Z</time></trkpt><trkpt lat="44.60481718127553" lon="7.952938521612582"><ele>268.0</ele><time>2026-04-12T08:07:30.999Z</time></trkpt><trkpt lat="44.60493272025844" lon="7.952920859339536"><ele>268.0</ele><time>2026-04-12T08:07:32.999Z</time></trkpt><trkpt lat="44.60504196066671" lon="7.952932988126997"><ele>268.0</ele><time>2026-04-12T08:07:34.999Z</time></trkpt><trkpt lat="44.60514330094974" lon="7.952943425878658"><ele>268.0</ele><time>2026-04-12T08:07:36.999Z</time></trkpt><trkpt lat="44.605242418805446" lon="7.952920812541302"><ele>268.0</ele><time>2026-04-12T08:07:38.999Z</time></trkpt><trkpt lat="44.6053116133357" lon="7.952876520569029"><ele>268.0</ele><time>2026-04-12T08:07:40.999Z</time></trkpt><trkpt lat="44.60538232245661" lon="7.9528371578160915"><ele>268.0</ele><time>2026-04-12T08:07:43.999Z</time></trkpt><trkpt lat="44.60536364563372" lon="7.952731285424687"><ele>268.0</ele><time>2026-04-12T08:07:45.999Z</time></trkpt><trkpt lat="44.605306893659275" lon="7.952620112821253"><ele>268.0</ele><time>2026-04-12T08:07:48.999Z</time></trkpt><trkpt lat="44.6053154079917" lon="7.952508575883507"><ele>268.0</ele><time>2026-04-12T08:07:50.999Z</time></trkpt><trkpt lat="44.60537776062077" lon="7.952420468656829"><ele>268.0</ele><time>2026-04-12T08:07:52.999Z</time></trkpt><trkpt lat="44.60543394528421" lon="7.952309877919749"><ele>268.0</ele><time>2026-04-12T08:07:54.999Z</time></trkpt><trkpt lat="44.605494386074774" lon="7.952204809790569"><ele>267.16666666666663</ele><time>2026-04-12T08:07:56.999Z</time></trkpt><trkpt lat="44.605563464192244" lon="7.952087180932098"><ele>266.3333333333333</ele><time>2026-04-12T08:07:59Z</time></trkpt><trkpt lat="44.60566372436583" lon="7.952009416798124"><ele>265.5</ele><time>2026-04-12T08:08:01Z</time></trkpt><trkpt lat="44.60573560397578" lon="7.952006447950842"><ele>264.6666666666667</ele><time>2026-04-12T08:08:02Z</time></trkpt><trkpt lat="44.605808074139446" lon="7.951976200852803"><ele>263.83333333333337</ele><time>2026-04-12T08:08:03Z</time></trkpt><trkpt lat="44.60587240090039" lon="7.951933827794608"><ele>263.0</ele><time>2026-04-12T08:08:04Z</time></trkpt><trkpt lat="44.60592475714216" lon="7.951860978904573"><ele>263.0</ele><time>2026-04-12T08:08:05Z</time></trkpt><trkpt lat="44.60599026632679" lon="7.951819618854618"><ele>263.0</ele><time>2026-04-12T08:08:06Z</time></trkpt><trkpt lat="44.60603677257851" lon="7.951733867667871"><ele>263.0</ele><time>2026-04-12T08:08:07Z</time></trkpt><trkpt lat="44.60608906314735" lon="7.951665378354238"><ele>263.0</ele><time>2026-04-12T08:08:08Z</time></trkpt><trkpt lat="44.606153361463114" lon="7.951616793147729"><ele>263.0</ele><time>2026-04-12T08:08:09Z</time></trkpt><trkpt lat="44.60620721283826" lon="7.951556819053376"><ele>263.0</ele><time>2026-04-12T08:08:10Z</time></trkpt><trkpt lat="44.606263764937665" lon="7.9514938371641"><ele>263.0</ele><time>2026-04-12T08:08:11Z</time></trkpt><trkpt lat="44.606317119139106" lon="7.951434416656286"><ele>262.6666666666667</ele><time>2026-04-12T08:08:12Z</time></trkpt><trkpt lat="44.6063712768657" lon="7.951378737638995"><ele>262.33333333333337</ele><time>2026-04-12T08:08:13Z</time></trkpt><trkpt lat="44.606422457426156" lon="7.951327168280849"><ele>262.0</ele><time>2026-04-12T08:08:14Z</time></trkpt><trkpt lat="44.60647630897126" lon="7.951277463413431"><ele>261.6666666666667</ele><time>2026-04-12T08:08:15Z</time></trkpt><trkpt lat="44.60656478385467" lon="7.951187367100818"><ele>261.3333333333333</ele><time>2026-04-12T08:08:17Z</time></trkpt><trkpt lat="44.60667470004642" lon="7.951192572352891"><ele>261.0</ele><time>2026-04-12T08:08:19Z</time></trkpt><trkpt lat="44.60672296841777" lon="7.951257200046603"><ele>261.0</ele><time>2026-04-12T08:08:20Z</time></trkpt><trkpt lat="44.606785295772184" lon="7.951283015806218"><ele>261.0</ele><time>2026-04-12T08:08:21Z</time></trkpt><trkpt lat="44.60689832685696" lon="7.951349466140487"><ele>261.0</ele><time>2026-04-12T08:08:23Z</time></trkpt><trkpt lat="44.606962139221544" lon="7.951348372385051"><ele>261.0</ele><time>2026-04-12T08:08:24Z</time></trkpt><trkpt lat="44.60702874607502" lon="7.951326006961359"><ele>261.0</ele><time>2026-04-12T08:08:25Z</time></trkpt><trkpt lat="44.607088617159135" lon="7.951296057297399"><ele>261.0</ele><time>2026-04-12T08:08:26Z</time></trkpt><trkpt lat="44.6071507688089" lon="7.951281617579054"><ele>261.0</ele><time>2026-04-12T08:08:27Z</time></trkpt><trkpt lat="44.6072025041507" lon="7.951226371943656"><ele>260.8</ele><time>2026-04-12T08:08:28Z</time></trkpt><trkpt lat="44.60731342702301" lon="7.951147958114386"><ele>260.6</ele><time>2026-04-12T08:08:30Z</time></trkpt><trkpt lat="44.60742343629197" lon="7.951058892601239"><ele>260.4</ele><time>2026-04-12T08:08:32Z</time></trkpt><trkpt lat="44.60748303912251" lon="7.951025487453863"><ele>260.2</ele><time>2026-04-12T08:08:33Z</time></trkpt><trkpt lat="44.60755090589779" lon="7.951001101740765"><ele>260.0</ele><time>2026-04-12T08:08:34Z</time></trkpt><trkpt lat="44.6076173761775" lon="7.950980489332119"><ele>260.00000000000006</ele><time>2026-04-12T08:08:35Z</time></trkpt><trkpt lat="44.60768501874458" lon="7.950959026651467"><ele>260.0</ele><time>2026-04-12T08:08:36Z</time></trkpt><trkpt lat="44.607756036609686" lon="7.950942436556588"><ele>260.0</ele><time>2026-04-12T08:08:37Z</time></trkpt><trkpt lat="44.6078275101476" lon="7.9509325222304446"><ele>260.0</ele><time>2026-04-12T08:08:38Z</time></trkpt><trkpt lat="44.60789785174891" lon="7.9509141366979765"><ele>260.0</ele><time>2026-04-12T08:08:39Z</time></trkpt><trkpt lat="44.607972482245586" lon="7.950898232781632"><ele>260.00000000000006</ele><time>2026-04-12T08:08:40Z</time></trkpt><trkpt lat="44.60804771313113" lon="7.950889878860382"><ele>260.0</ele><time>2026-04-12T08:08:41Z</time></trkpt><trkpt lat="44.6081214767503" lon="7.950883107247347"><ele>259.6666666666667</ele><time>2026-04-12T08:08:42Z</time></trkpt><trkpt lat="44.6081939562256" lon="7.9508774766255295"><ele>259.33333333333337</ele><time>2026-04-12T08:08:43Z</time></trkpt><trkpt lat="44.608268316984336" lon="7.950886269290022"><ele>259.0</ele><time>2026-04-12T08:08:44Z</time></trkpt><trkpt lat="44.608341800687924" lon="7.950882138556124"><ele>258.6666666666667</ele><time>2026-04-12T08:08:44.999Z</time></trkpt><trkpt lat="44.60841806490132" lon="7.950891405075549"><ele>258.3333333333333</ele><time>2026-04-12T08:08:45.999Z</time></trkpt><trkpt lat="44.60849479135825" lon="7.950879657806743"><ele>258.0</ele><time>2026-04-12T08:08:46.999Z</time></trkpt><trkpt lat="44.60857307360118" lon="7.950871386713165"><ele>257.1666666666667</ele><time>2026-04-12T08:08:47.999Z</time></trkpt><trkpt lat="44.60865073050459" lon="7.950864121255079"><ele>256.3333333333333</ele><time>2026-04-12T08:08:48.999Z</time></trkpt><trkpt lat="44.60872806689969" lon="7.950856510932283"><ele>255.5</ele><time>2026-04-12T08:08:49.999Z</time></trkpt><trkpt lat="44.60880495950377" lon="7.950850330392947"><ele>254.66666666666666</ele><time>2026-04-12T08:08:50.999Z</time></trkpt><trkpt lat="44.608881534436684" lon="7.9508474890812675"><ele>253.83333333333331</ele><time>2026-04-12T08:08:51.999Z</time></trkpt><trkpt lat="44.60895770759587" lon="7.950844994921284"><ele>253.0</ele><time>2026-04-12T08:08:52.999Z</time></trkpt><trkpt lat="44.6090350233178" lon="7.95084248547273"><ele>252.49999999999997</ele><time>2026-04-12T08:08:53.999Z</time></trkpt><trkpt lat="44.609115316461484" lon="7.950835581918208"><ele>252.0</ele><time>2026-04-12T08:08:54.999Z</time></trkpt><trkpt lat="44.609193762567834" lon="7.950830302985984"><ele>251.5</ele><time>2026-04-12T08:08:55.999Z</time></trkpt><trkpt lat="44.60927270768678" lon="7.9508277445328766"><ele>251.0</ele><time>2026-04-12T08:08:56.999Z</time></trkpt><trkpt lat="44.609348594841116" lon="7.950815758878237"><ele>250.49999999999997</ele><time>2026-04-12T08:08:57.999Z</time></trkpt><trkpt lat="44.60942720957686" lon="7.950800541868246"><ele>250.0</ele><time>2026-04-12T08:08:58.999Z</time></trkpt><trkpt lat="44.60950525862072" lon="7.9507800559210695"><ele>249.49999999999997</ele><time>2026-04-12T08:08:59.999Z</time></trkpt><trkpt lat="44.60958225412467" lon="7.950756848073834"><ele>249.0</ele><time>2026-04-12T08:09:00.999Z</time></trkpt><trkpt lat="44.609659864236974" lon="7.950738047702838"><ele>248.5</ele><time>2026-04-12T08:09:01.999Z</time></trkpt><trkpt lat="44.60973727691922" lon="7.950719633378069"><ele>248.0</ele><time>2026-04-12T08:09:02.999Z</time></trkpt><trkpt lat="44.60981703486217" lon="7.950704631202625"><ele>247.49999999999997</ele><time>2026-04-12T08:09:03.999Z</time></trkpt><trkpt lat="44.60989910313588" lon="7.950683633869067"><ele>247.0</ele><time>2026-04-12T08:09:04.999Z</time></trkpt><trkpt lat="44.609978575923414" lon="7.950668408905128"><ele>246.99999999999997</ele><time>2026-04-12T08:09:05.999Z</time></trkpt><trkpt lat="44.61006323853391" lon="7.9506571118777964"><ele>247.0</ele><time>2026-04-12T08:09:06.999Z</time></trkpt><trkpt lat="44.61014639673697" lon="7.950644664627196"><ele>247.0</ele><time>2026-04-12T08:09:07.999Z</time></trkpt><trkpt lat="44.610227725919955" lon="7.95064017905136"><ele>247.0</ele><time>2026-04-12T08:09:08.999Z</time></trkpt><trkpt lat="44.610305639657476" lon="7.950630381163174"><ele>246.99999999999997</ele><time>2026-04-12T08:09:09.999Z</time></trkpt><trkpt lat="44.61038173789411" lon="7.95061214601809"><ele>247.0</ele><time>2026-04-12T08:09:10.999Z</time></trkpt><trkpt lat="44.610456315557556" lon="7.950583699217522"><ele>246.71428571428572</ele><time>2026-04-12T08:09:11.999Z</time></trkpt><trkpt lat="44.61052750390051" lon="7.950549217967351"><ele>246.42857142857142</ele><time>2026-04-12T08:09:12.999Z</time></trkpt><trkpt lat="44.61059645006197" lon="7.950512688230492"><ele>246.14285714285714</ele><time>2026-04-12T08:09:13.999Z</time></trkpt><trkpt lat="44.61066715967249" lon="7.950476430045047"><ele>245.85714285714286</ele><time>2026-04-12T08:09:14.999Z</time></trkpt><trkpt lat="44.61073571876218" lon="7.950450795634102"><ele>245.57142857142856</ele><time>2026-04-12T08:09:15.999Z</time></trkpt><trkpt lat="44.610809814672564" lon="7.950440071304319"><ele>245.28571428571428</ele><time>2026-04-12T08:09:16.999Z</time></trkpt><trkpt lat="44.61088298343324" lon="7.9504310449172255"><ele>245.0</ele><time>2026-04-12T08:09:17.999Z</time></trkpt><trkpt lat="44.61095368075753" lon="7.950425734830312"><ele>245.0</ele><time>2026-04-12T08:09:18.999Z</time></trkpt><trkpt lat="44.61102589548218" lon="7.950422704207361"><ele>245.0</ele><time>2026-04-12T08:09:19.999Z</time></trkpt><trkpt lat="44.61109804254918" lon="7.950420305898916"><ele>245.0</ele><time>2026-04-12T08:09:20.999Z</time></trkpt><trkpt lat="44.61116635528926" lon="7.950418042406288"><ele>245.0</ele><time>2026-04-12T08:09:21.999Z</time></trkpt><trkpt lat="44.611234004706745" lon="7.950408053096615"><ele>245.0</ele><time>2026-04-12T08:09:22.999Z</time></trkpt><trkpt lat="44.611297371971595" lon="7.950390784972777"><ele>245.0</ele><time>2026-04-12T08:09:23.999Z</time></trkpt><trkpt lat="44.611358864491805" lon="7.95035856581797"><ele>245.0</ele><time>2026-04-12T08:09:24.999Z</time></trkpt><trkpt lat="44.6114177978895" lon="7.950314765180115"><ele>244.57142857142856</ele><time>2026-04-12T08:09:25.999Z</time></trkpt><trkpt lat="44.611481239286356" lon="7.950295719636734"><ele>244.14285714285714</ele><time>2026-04-12T08:09:26.999Z</time></trkpt><trkpt lat="44.611538682917725" lon="7.950250583806116"><ele>243.71428571428572</ele><time>2026-04-12T08:09:27.999Z</time></trkpt><trkpt lat="44.61159473713706" lon="7.950200364399649"><ele>243.28571428571428</ele><time>2026-04-12T08:09:28.999Z</time></trkpt><trkpt lat="44.61164918197127" lon="7.950151211411545"><ele>242.85714285714283</ele><time>2026-04-12T08:09:29.999Z</time></trkpt><trkpt lat="44.61175398112215" lon="7.950069395335985"><ele>242.42857142857142</ele><time>2026-04-12T08:09:31.999Z</time></trkpt><trkpt lat="44.611818488734485" lon="7.950050717653722"><ele>242.0</ele><time>2026-04-12T08:09:32.999Z</time></trkpt><trkpt lat="44.61188296242472" lon="7.95004475031913"><ele>241.8</ele><time>2026-04-12T08:09:33.999Z</time></trkpt><trkpt lat="44.611997998269395" lon="7.950057980782469"><ele>241.6</ele><time>2026-04-12T08:09:35.999Z</time></trkpt><trkpt lat="44.61210908706451" lon="7.950077211214496"><ele>241.40000000000003</ele><time>2026-04-12T08:09:37.999Z</time></trkpt><trkpt lat="44.61221546525873" lon="7.950101759818695"><ele>241.20000000000002</ele><time>2026-04-12T08:09:39.999Z</time></trkpt><trkpt lat="44.61231441591646" lon="7.950127719266794"><ele>241.0</ele><time>2026-04-12T08:09:41.999Z</time></trkpt><trkpt lat="44.612406027486486" lon="7.950145327328648"><ele>241.0</ele><time>2026-04-12T08:09:43.999Z</time></trkpt><trkpt lat="44.61248741315457" lon="7.950150081235955"><ele>241.00000000000003</ele><time>2026-04-12T08:09:45.999Z</time></trkpt><trkpt lat="44.61255951361483" lon="7.9501597729061615"><ele>241.0</ele><time>2026-04-12T08:09:47.999Z</time></trkpt><trkpt lat="44.61262442273027" lon="7.950167058226832"><ele>241.0</ele><time>2026-04-12T08:09:49.999Z</time></trkpt><trkpt lat="44.612712787882025" lon="7.950166854108802"><ele>241.00000000000003</ele><time>2026-04-12T08:09:52.999Z</time></trkpt><trkpt lat="44.612783988650435" lon="7.9501635976798735"><ele>241.0</ele><time>2026-04-12T08:09:55.999Z</time></trkpt><trkpt lat="44.61285151312832" lon="7.9501552052238535"><ele>241.0</ele><time>2026-04-12T08:09:58.998Z</time></trkpt><trkpt lat="44.61291916822836" lon="7.950151809538466"><ele>240.85714285714286</ele><time>2026-04-12T08:10:01.998Z</time></trkpt><trkpt lat="44.61299933500299" lon="7.950143557216121"><ele>240.71428571428572</ele><time>2026-04-12T08:10:06Z</time></trkpt><trkpt lat="44.61307676703687" lon="7.950140556345235"><ele>240.57142857142858</ele><time>2026-04-12T08:10:10Z</time></trkpt><trkpt lat="44.61314986699304" lon="7.950150214905847"><ele>240.42857142857144</ele><time>2026-04-12T08:10:14Z</time></trkpt><trkpt lat="44.61321672304617" lon="7.9501538821357745"><ele>240.28571428571428</ele><time>2026-04-12T08:10:18Z</time></trkpt><trkpt lat="44.61328278175983" lon="7.950154997284459"><ele>240.14285714285717</ele><time>2026-04-12T08:10:22Z</time></trkpt><trkpt lat="44.613359148239574" lon="7.950164197144085"><ele>240.0</ele><time>2026-04-12T08:10:27Z</time></trkpt><trkpt lat="44.61342534623221" lon="7.950165995008828"><ele>240.0</ele><time>2026-04-12T08:10:31Z</time></trkpt><trkpt lat="44.6134967877673" lon="7.95016981806949"><ele>240.0</ele><time>2026-04-12T08:10:36Z</time></trkpt><trkpt lat="44.61356656139108" lon="7.9501851837413655"><ele>240.0</ele><time>2026-04-12T08:10:41Z</time></trkpt><trkpt lat="44.61364373917224" lon="7.9501509494681795"><ele>240.0</ele><time>2026-04-12T08:10:46Z</time></trkpt><trkpt lat="44.613699405359384" lon="7.950099001764185"><ele>240.0</ele><time>2026-04-12T08:10:49.999Z</time></trkpt><trkpt lat="44.613730045173476" lon="7.949998580011173"><ele>240.0</ele><time>2026-04-12T08:10:53.999Z</time></trkpt><trkpt lat="44.61373074177695" lon="7.949904354352241"><ele>240.0</ele><time>2026-04-12T08:10:57.999Z</time></trkpt><trkpt lat="44.613721639626014" lon="7.949804666829465"><ele>242.5</ele><time>2026-04-12T08:11:02.999Z</time></trkpt><trkpt lat="44.61370987798641" lon="7.949710824436213"><ele>245.0</ele><time>2026-04-12T08:11:07.999Z</time></trkpt><trkpt lat="44.61365701316427" lon="7.9496480624215735"><ele>247.5</ele><time>2026-04-12T08:11:10.999Z</time></trkpt><trkpt lat="44.613631485664676" lon="7.949560669239966"><ele>250.0</ele><time>2026-04-12T08:11:15.999Z</time></trkpt><trkpt lat="44.6136077696678" lon="7.9494562485737745"><ele>252.5</ele><time>2026-04-12T08:11:20.999Z</time></trkpt><trkpt lat="44.613579922170516" lon="7.949339511814841"><ele>255.0</ele><time>2026-04-12T08:11:23.999Z</time></trkpt><trkpt lat="44.61357320927264" lon="7.949180231897464"><ele>256.3333333333333</ele><time>2026-04-12T08:11:25.999Z</time></trkpt><trkpt lat="44.61355682923001" lon="7.9490163190299326"><ele>257.6666666666667</ele><time>2026-04-12T08:11:27.999Z</time></trkpt><trkpt lat="44.6135487654874" lon="7.94892135227002"><ele>259.0</ele><time>2026-04-12T08:11:28.999Z</time></trkpt><trkpt lat="44.613540278720684" lon="7.94882140352045"><ele>260.33333333333337</ele><time>2026-04-12T08:11:29.999Z</time></trkpt><trkpt lat="44.61353228357405" lon="7.948727244657654"><ele>261.6666666666667</ele><time>2026-04-12T08:11:30.999Z</time></trkpt><trkpt lat="44.61352176311302" lon="7.948632279268266"><ele>263.0</ele><time>2026-04-12T08:11:31.999Z</time></trkpt><trkpt lat="44.61350774870605" lon="7.948532855860171"><ele>263.0</ele><time>2026-04-12T08:11:32.999Z</time></trkpt><trkpt lat="44.613489051737886" lon="7.948423141491357"><ele>263.0</ele><time>2026-04-12T08:11:33.999Z</time></trkpt><trkpt lat="44.6134568985984" lon="7.948319440091332"><ele>263.0</ele><time>2026-04-12T08:11:34.999Z</time></trkpt><trkpt lat="44.61342325190015" lon="7.948212554293002"><ele>263.0</ele><time>2026-04-12T08:11:35.999Z</time></trkpt><trkpt lat="44.613386795141444" lon="7.948098643449395"><ele>263.0</ele><time>2026-04-12T08:11:36.999Z</time></trkpt><trkpt lat="44.61335589842797" lon="7.94798829533658"><ele>263.0</ele><time>2026-04-12T08:11:37.999Z</time></trkpt><trkpt lat="44.613324463148" lon="7.947876898167212"><ele>261.6666666666667</ele><time>2026-04-12T08:11:38.999Z</time></trkpt><trkpt lat="44.613292159554" lon="7.947762423935921"><ele>260.33333333333337</ele><time>2026-04-12T08:11:39.999Z</time></trkpt><trkpt lat="44.613263765348634" lon="7.94765029225551"><ele>259.0</ele><time>2026-04-12T08:11:40.999Z</time></trkpt><trkpt lat="44.6132423932572" lon="7.94753878549186"><ele>257.6666666666667</ele><time>2026-04-12T08:11:41.999Z</time></trkpt><trkpt lat="44.61321768682145" lon="7.947413216277049"><ele>256.3333333333333</ele><time>2026-04-12T08:11:42.999Z</time></trkpt><trkpt lat="44.613240176704906" lon="7.947289497841567"><ele>255.0</ele><time>2026-04-12T08:11:43.999Z</time></trkpt><trkpt lat="44.6132594050625" lon="7.947176520559161"><ele>253.83333333333334</ele><time>2026-04-12T08:11:44.999Z</time></trkpt><trkpt lat="44.61327409294962" lon="7.947077435775837"><ele>252.66666666666669</ele><time>2026-04-12T08:11:45.999Z</time></trkpt><trkpt lat="44.61329012919781" lon="7.9469840480476766"><ele>251.5</ele><time>2026-04-12T08:11:46.999Z</time></trkpt><trkpt lat="44.61329430237174" lon="7.946881062975813"><ele>250.33333333333334</ele><time>2026-04-12T08:11:47.999Z</time></trkpt><trkpt lat="44.613314811408266" lon="7.946781643779092"><ele>249.16666666666669</ele><time>2026-04-12T08:11:48.999Z</time></trkpt><trkpt lat="44.61333512990936" lon="7.946681346473616"><ele>248.0</ele><time>2026-04-12T08:11:49.999Z</time></trkpt><trkpt lat="44.613354027786556" lon="7.946517306081935"><ele>247.83333333333334</ele><time>2026-04-12T08:11:51.999Z</time></trkpt><trkpt lat="44.613373005921915" lon="7.946370164609438"><ele>247.66666666666669</ele><time>2026-04-12T08:11:53.999Z</time></trkpt><trkpt lat="44.61331850576733" lon="7.946300527527049"><ele>247.5</ele><time>2026-04-12T08:11:54.999Z</time></trkpt><trkpt lat="44.61327326093196" lon="7.946220779049923"><ele>247.33333333333331</ele><time>2026-04-12T08:11:56.999Z</time></trkpt><trkpt lat="44.613213267947245" lon="7.946130425501085"><ele>247.16666666666666</ele><time>2026-04-12T08:11:59.999Z</time></trkpt><trkpt lat="44.613162372431965" lon="7.946055600935588"><ele>247.0</ele><time>2026-04-12T08:12:02.999Z</time></trkpt><trkpt lat="44.6131254974762" lon="7.945970057438775"><ele>247.0</ele><time>2026-04-12T08:12:05.998Z</time></trkpt><trkpt lat="44.61307808298994" lon="7.9459061349783635"><ele>247.0</ele><time>2026-04-12T08:12:08.998Z</time></trkpt><trkpt lat="44.6130146205841" lon="7.945845480414055"><ele>247.0</ele><time>2026-04-12T08:12:12Z</time></trkpt><trkpt lat="44.61293906534702" lon="7.9458064418583865"><ele>247.0</ele><time>2026-04-12T08:12:15Z</time></trkpt><trkpt lat="44.61286840355212" lon="7.9458001810099885"><ele>247.0</ele><time>2026-04-12T08:12:18Z</time></trkpt><trkpt lat="44.61280351740277" lon="7.945774381010616"><ele>247.0</ele><time>2026-04-12T08:12:21Z</time></trkpt><trkpt lat="44.61272470030564" lon="7.945752910065528"><ele>247.0</ele><time>2026-04-12T08:12:24Z</time></trkpt><trkpt lat="44.61266131610132" lon="7.945721127813156"><ele>247.83333333333331</ele><time>2026-04-12T08:12:27Z</time></trkpt><trkpt lat="44.61259817695876" lon="7.945687220014829"><ele>248.66666666666666</ele><time>2026-04-12T08:12:30Z</time></trkpt><trkpt lat="44.612517940569425" lon="7.945646446913059"><ele>249.5</ele><time>2026-04-12T08:12:34Z</time></trkpt><trkpt lat="44.612453349335084" lon="7.945592062711572"><ele>250.33333333333331</ele><time>2026-04-12T08:12:36Z</time></trkpt><trkpt lat="44.61239053483811" lon="7.945568655456615"><ele>251.16666666666666</ele><time>2026-04-12T08:12:39Z</time></trkpt><trkpt lat="44.61231866674153" lon="7.945524318750725"><ele>252.0</ele><time>2026-04-12T08:12:42Z</time></trkpt><trkpt lat="44.612239330027776" lon="7.945478616535684"><ele>252.0</ele><time>2026-04-12T08:12:45Z</time></trkpt><trkpt lat="44.61218005697831" lon="7.94544021632485"><ele>252.0</ele><time>2026-04-12T08:12:47Z</time></trkpt><trkpt lat="44.612121761361955" lon="7.945398164070611"><ele>252.0</ele><time>2026-04-12T08:12:50Z</time></trkpt><trkpt lat="44.61206238050443" lon="7.945355075482371"><ele>252.0</ele><time>2026-04-12T08:12:53Z</time></trkpt><trkpt lat="44.6119971859835" lon="7.945318646880237"><ele>252.0</ele><time>2026-04-12T08:12:59Z</time></trkpt><trkpt lat="44.61192776659305" lon="7.945274756262848"><ele>252.0</ele><time>2026-04-12T08:13:04.999Z</time></trkpt><trkpt lat="44.611859590114186" lon="7.945259093617918"><ele>252.0</ele><time>2026-04-12T08:13:10.999Z</time></trkpt><trkpt lat="44.611793290684545" lon="7.945211745843141"><ele>252.71428571428572</ele><time>2026-04-12T08:13:16.999Z</time></trkpt><trkpt lat="44.61173618577826" lon="7.945164306925831"><ele>253.42857142857144</ele><time>2026-04-12T08:13:19.999Z</time></trkpt><trkpt lat="44.6116794844918" lon="7.945124097099866"><ele>254.14285714285714</ele><time>2026-04-12T08:13:22.999Z</time></trkpt><trkpt lat="44.61161634621216" lon="7.945089955532762"><ele>254.85714285714286</ele><time>2026-04-12T08:13:26.999Z</time></trkpt><trkpt lat="44.611551676962556" lon="7.945042083246241"><ele>255.57142857142858</ele><time>2026-04-12T08:13:30.999Z</time></trkpt><trkpt lat="44.61147980122165" lon="7.945012624494436"><ele>256.2857142857143</ele><time>2026-04-12T08:13:34.999Z</time></trkpt><trkpt lat="44.61141622366855" lon="7.944977598776108"><ele>257.0</ele><time>2026-04-12T08:13:38.999Z</time></trkpt><trkpt lat="44.61135166281477" lon="7.94491904104284"><ele>258.42857142857144</ele><time>2026-04-12T08:13:42.999Z</time></trkpt><trkpt lat="44.611291166038995" lon="7.944889766795856"><ele>259.8571428571429</ele><time>2026-04-12T08:13:46.999Z</time></trkpt><trkpt lat="44.61122546012517" lon="7.9448558769630715"><ele>261.28571428571433</ele><time>2026-04-12T08:14:17Z</time></trkpt><trkpt lat="44.61116154530489" lon="7.9448153816116145"><ele>262.7142857142857</ele><time>2026-04-12T08:14:29Z</time></trkpt><trkpt lat="44.61110679128946" lon="7.944769071978803"><ele>264.14285714285717</ele><time>2026-04-12T08:14:39Z</time></trkpt><trkpt lat="44.611050574591424" lon="7.944715832575262"><ele>265.5714285714286</ele><time>2026-04-12T08:14:51Z</time></trkpt><trkpt lat="44.61099325376824" lon="7.944659241446929"><ele>267.0</ele><time>2026-04-12T08:15:01Z</time></trkpt><trkpt lat="44.61093957807216" lon="7.944612424135807"><ele>267.7142857142857</ele><time>2026-04-12T08:15:11.999Z</time></trkpt><trkpt lat="44.61088568695724" lon="7.944549992116008"><ele>268.42857142857144</ele><time>2026-04-12T08:15:23.999Z</time></trkpt><trkpt lat="44.61085139852632" lon="7.944465891882933"><ele>269.1428571428571</ele><time>2026-04-12T08:15:33.999Z</time></trkpt><trkpt lat="44.6108374643653" lon="7.944379593611177"><ele>269.8571428571429</ele><time>2026-04-12T08:15:43.999Z</time></trkpt><trkpt lat="44.61077878217761" lon="7.944329973706835"><ele>270.57142857142856</ele><time>2026-04-12T08:16:00.999Z</time></trkpt><trkpt lat="44.61073153385465" lon="7.944268505717674"><ele>271.2857142857143</ele><time>2026-04-12T08:16:05.999Z</time></trkpt><trkpt lat="44.61068844735104" lon="7.944181445289768"><ele>272.0</ele><time>2026-04-12T08:16:11.999Z</time></trkpt><trkpt lat="44.610638927261235" lon="7.944105288295295"><ele>276.0</ele><time>2026-04-12T08:16:18.999Z</time></trkpt><trkpt lat="44.6106860567119" lon="7.944032339205244"><ele>280.0</ele><time>2026-04-12T08:16:42Z</time></trkpt><trkpt lat="44.61075042970997" lon="7.943997310238365"><ele>284.0</ele><time>2026-04-12T08:16:50Z</time></trkpt><trkpt lat="44.610807087747524" lon="7.943947743888556"><ele>288.0</ele><time>2026-04-12T08:17:15.999Z</time></trkpt><trkpt lat="44.61085404380457" lon="7.943871377316015"><ele>292.0</ele><time>2026-04-12T08:17:36.999Z</time></trkpt><trkpt lat="44.61090254806464" lon="7.943809614855637"><ele>296.0</ele><time>2026-04-12T08:17:39.999Z</time></trkpt><trkpt lat="44.611025364751306" lon="7.943750877174648"><ele>296.0</ele><time>2026-04-12T08:18:10.999Z</time></trkpt><trkpt lat="44.611102494177146" lon="7.943738175572851"><ele>296.0</ele><time>2026-04-12T08:18:16.999Z</time></trkpt><trkpt lat="44.61114169907494" lon="7.943658471823774"><ele>296.0</ele><time>2026-04-12T08:18:23.999Z</time></trkpt><trkpt lat="44.611139187765644" lon="7.943568114346486"><ele>296.0</ele><time>2026-04-12T08:18:25.999Z</time></trkpt><trkpt lat="44.611123172497464" lon="7.943475793883706"><ele>296.0</ele><time>2026-04-12T08:18:30Z</time></trkpt><trkpt lat="44.61111856944391" lon="7.943365099168191"><ele>296.0</ele><time>2026-04-12T08:18:35Z</time></trkpt><trkpt lat="44.61109229662109" lon="7.943241413148162"><ele>296.0</ele><time>2026-04-12T08:18:39Z</time></trkpt><trkpt lat="44.61108010838179" lon="7.943128640515727"><ele>296.2857142857143</ele><time>2026-04-12T08:18:43Z</time></trkpt><trkpt lat="44.61105674245023" lon="7.9430462804255635"><ele>296.57142857142856</ele><time>2026-04-12T08:18:46Z</time></trkpt><trkpt lat="44.61102393105611" lon="7.942961802437901"><ele>296.85714285714283</ele><time>2026-04-12T08:18:49Z</time></trkpt><trkpt lat="44.61099931324214" lon="7.942877123809711"><ele>297.1428571428571</ele><time>2026-04-12T08:18:52Z</time></trkpt><trkpt lat="44.61096545828136" lon="7.942788605471946"><ele>297.4285714285714</ele><time>2026-04-12T08:18:55Z</time></trkpt><trkpt lat="44.61093650570886" lon="7.942699276535124"><ele>297.7142857142857</ele><time>2026-04-12T08:18:58Z</time></trkpt><trkpt lat="44.610942718436114" lon="7.942592622744267"><ele>298.0</ele><time>2026-04-12T08:19:01Z</time></trkpt><trkpt lat="44.61089002291393" lon="7.942533603908513"><ele>298.0</ele><time>2026-04-12T08:19:04Z</time></trkpt><trkpt lat="44.610868587264584" lon="7.942437986048988"><ele>298.0</ele><time>2026-04-12T08:19:07Z</time></trkpt><trkpt lat="44.61084733372144" lon="7.9423507727765745"><ele>298.0</ele><time>2026-04-12T08:19:10Z</time></trkpt><trkpt lat="44.610828906587855" lon="7.942254101412048"><ele>298.0</ele><time>2026-04-12T08:19:13Z</time></trkpt><trkpt lat="44.61081197014687" lon="7.94215741990505"><ele>298.0</ele><time>2026-04-12T08:19:16Z</time></trkpt><trkpt lat="44.61079781964886" lon="7.942064289024456"><ele>298.0</ele><time>2026-04-12T08:19:18.999Z</time></trkpt><trkpt lat="44.61079433570379" lon="7.94196347249815"><ele>298.0</ele><time>2026-04-12T08:19:21.999Z</time></trkpt><trkpt lat="44.61077574910915" lon="7.941870189202798"><ele>298.0</ele><time>2026-04-12T08:19:24.999Z</time></trkpt><trkpt lat="44.610767250573105" lon="7.941754576143892"><ele>298.0</ele><time>2026-04-12T08:19:28.999Z</time></trkpt><trkpt lat="44.61076301700458" lon="7.941658694756651"><ele>298.0</ele><time>2026-04-12T08:19:31.999Z</time></trkpt><trkpt lat="44.610797975950234" lon="7.941563561391968"><ele>298.0</ele><time>2026-04-12T08:19:35.999Z</time></trkpt><trkpt lat="44.61087052163786" lon="7.941577987409249"><ele>298.0</ele><time>2026-04-12T08:19:39.999Z</time></trkpt><trkpt lat="44.61093823440679" lon="7.941570517228107"><ele>298.0</ele><time>2026-04-12T08:19:44.999Z</time></trkpt><trkpt lat="44.61086926229617" lon="7.941578126343562"><ele>298.0</ele><time>2026-04-12T08:19:52.999Z</time></trkpt><trkpt lat="44.61078805332714" lon="7.941589368961982"><ele>298.0</ele><time>2026-04-12T08:19:56.999Z</time></trkpt><trkpt lat="44.61071748294991" lon="7.941620507201309"><ele>298.0</ele><time>2026-04-12T08:20:01.999Z</time></trkpt><trkpt lat="44.61064710800096" lon="7.941641325327485"><ele>298.0</ele><time>2026-04-12T08:20:06.999Z</time></trkpt><trkpt lat="44.61060143692339" lon="7.941706481578775"><ele>298.0</ele><time>2026-04-12T08:20:12.999Z</time></trkpt><trkpt lat="44.61053682642688" lon="7.941740486869906"><ele>298.0</ele><time>2026-04-12T08:20:21.999Z</time></trkpt><trkpt lat="44.61081893920049" lon="7.942300406051188"><ele>301.0</ele><time>2026-04-12T08:20:31.999Z</time></trkpt><trkpt lat="44.610391286866324" lon="7.942752288633687"><ele>300.0</ele><time>2026-04-12T08:20:44Z</time></trkpt><trkpt lat="44.61030108103374" lon="7.94271860204043"><ele>299.0</ele><time>2026-04-12T08:21:04Z</time></trkpt><trkpt lat="44.61070932024511" lon="7.941937553009731"><ele>299.0</ele><time>2026-04-12T08:21:05Z</time></trkpt><trkpt lat="44.610738551231606" lon="7.941849453022221"><ele>299.0</ele><time>2026-04-12T08:21:08Z</time></trkpt><trkpt lat="44.610753824579895" lon="7.9417542668867185"><ele>299.0</ele><time>2026-04-12T08:21:11Z</time></trkpt><trkpt lat="44.61074041901841" lon="7.941652224926198"><ele>299.0</ele><time>2026-04-12T08:21:14Z</time></trkpt><trkpt lat="44.610761252689926" lon="7.941563875711246"><ele>299.0</ele><time>2026-04-12T08:21:28.999Z</time></trkpt><trkpt lat="44.61078624430871" lon="7.941459600989775"><ele>299.0</ele><time>2026-04-12T08:21:32.999Z</time></trkpt><trkpt lat="44.61078071595014" lon="7.941348839004375"><ele>299.0</ele><time>2026-04-12T08:21:36.999Z</time></trkpt><trkpt lat="44.61073625056375" lon="7.9412593729273695"><ele>299.0</ele><time>2026-04-12T08:21:38.999Z</time></trkpt><trkpt lat="44.61068204256402" lon="7.94118131179059"><ele>299.0</ele><time>2026-04-12T08:21:40.999Z</time></trkpt><trkpt lat="44.61062531429615" lon="7.941108704451867"><ele>299.0</ele><time>2026-04-12T08:21:42.999Z</time></trkpt><trkpt lat="44.61056946480561" lon="7.941020762334166"><ele>299.0</ele><time>2026-04-12T08:21:44.999Z</time></trkpt><trkpt lat="44.61050398448799" lon="7.94094410095923"><ele>299.0</ele><time>2026-04-12T08:21:46.999Z</time></trkpt><trkpt lat="44.61019994599893" lon="7.940774789482433"><ele>300.0</ele><time>2026-04-12T08:21:47.999Z</time></trkpt><trkpt lat="44.61018206751477" lon="7.9406744540371195"><ele>301.0</ele><time>2026-04-12T08:21:51.999Z</time></trkpt><trkpt lat="44.61017748972202" lon="7.940561626473743"><ele>302.0</ele><time>2026-04-12T08:21:55.999Z</time></trkpt><trkpt lat="44.61016785625556" lon="7.940459131045363"><ele>303.0</ele><time>2026-04-12T08:21:59.999Z</time></trkpt><trkpt lat="44.6101446880959" lon="7.940366224540424"><ele>304.0</ele><time>2026-04-12T08:22:05.999Z</time></trkpt><trkpt lat="44.61008991721778" lon="7.940315905844755"><ele>305.0</ele><time>2026-04-12T08:22:09.999Z</time></trkpt><trkpt lat="44.61005439679983" lon="7.940215606789546"><ele>306.0</ele><time>2026-04-12T08:22:13.999Z</time></trkpt><trkpt lat="44.61005605991838" lon="7.94010448404613"><ele>307.1428571428571</ele><time>2026-04-12T08:22:17.999Z</time></trkpt><trkpt lat="44.61005616285478" lon="7.940004473424084"><ele>308.2857142857143</ele><time>2026-04-12T08:22:21.999Z</time></trkpt><trkpt lat="44.61005471984476" lon="7.939909219905419"><ele>309.42857142857144</ele><time>2026-04-12T08:22:25.999Z</time></trkpt><trkpt lat="44.61004853767996" lon="7.939803261886673"><ele>310.57142857142856</ele><time>2026-04-12T08:22:30.999Z</time></trkpt><trkpt lat="44.61003474444129" lon="7.939713642680755"><ele>311.7142857142857</ele><time>2026-04-12T08:22:34.999Z</time></trkpt><trkpt lat="44.61002321503856" lon="7.939626508578943"><ele>312.85714285714283</ele><time>2026-04-12T08:22:38.999Z</time></trkpt><trkpt lat="44.609992327085415" lon="7.939540887601919"><ele>314.0</ele><time>2026-04-12T08:22:43Z</time></trkpt><trkpt lat="44.60995139907532" lon="7.939448823387064"><ele>313.99999999999994</ele><time>2026-04-12T08:22:48Z</time></trkpt><trkpt lat="44.609906289150594" lon="7.939372953990961"><ele>314.0</ele><time>2026-04-12T08:22:52Z</time></trkpt><trkpt lat="44.60984243074399" lon="7.939313437165"><ele>314.0</ele><time>2026-04-12T08:22:56Z</time></trkpt><trkpt lat="44.60977885100182" lon="7.939297106522934"><ele>314.0</ele><time>2026-04-12T08:23:00Z</time></trkpt><trkpt lat="44.60971137794997" lon="7.93929643500877"><ele>314.0</ele><time>2026-04-12T08:23:04Z</time></trkpt><trkpt lat="44.6096431637345" lon="7.939282075462692"><ele>313.99999999999994</ele><time>2026-04-12T08:23:08Z</time></trkpt><trkpt lat="44.609577367738794" lon="7.939251355926417"><ele>314.0</ele><time>2026-04-12T08:23:12Z</time></trkpt><trkpt lat="44.60951519559262" lon="7.9392216822152015"><ele>315.57142857142856</ele><time>2026-04-12T08:23:16Z</time></trkpt><trkpt lat="44.60945256812233" lon="7.939185869664261"><ele>317.1428571428571</ele><time>2026-04-12T08:23:20Z</time></trkpt><trkpt lat="44.609392096802424" lon="7.93914659110137"><ele>318.71428571428567</ele><time>2026-04-12T08:23:24Z</time></trkpt><trkpt lat="44.609331527530216" lon="7.939112783131757"><ele>320.2857142857143</ele><time>2026-04-12T08:23:28Z</time></trkpt><trkpt lat="44.6092605825343" lon="7.9390831947623255"><ele>321.8571428571429</ele><time>2026-04-12T08:23:32.999Z</time></trkpt><trkpt lat="44.60918884455309" lon="7.939055774228936"><ele>323.4285714285714</ele><time>2026-04-12T08:23:37.999Z</time></trkpt><trkpt lat="44.60911741757982" lon="7.939056738393112"><ele>325.0</ele><time>2026-04-12T08:23:43.999Z</time></trkpt><trkpt lat="44.609094782482565" lon="7.938963370689483"><ele>325.0</ele><time>2026-04-12T08:23:52.999Z</time></trkpt><trkpt lat="44.60907183401685" lon="7.938875182439603"><ele>325.0</ele><time>2026-04-12T08:23:56.999Z</time></trkpt><trkpt lat="44.609013406233466" lon="7.938831950714343"><ele>325.0</ele><time>2026-04-12T08:24:00.999Z</time></trkpt><trkpt lat="44.60896013638468" lon="7.938763509771381"><ele>325.0</ele><time>2026-04-12T08:24:05.999Z</time></trkpt><trkpt lat="44.608887224198" lon="7.938731858089947"><ele>325.0</ele><time>2026-04-12T08:24:10.999Z</time></trkpt><trkpt lat="44.608820575855624" lon="7.93868993297929"><ele>325.0</ele><time>2026-04-12T08:24:15.999Z</time></trkpt><trkpt lat="44.608751386435316" lon="7.938682091431891"><ele>325.0</ele><time>2026-04-12T08:24:19.999Z</time></trkpt><trkpt lat="44.6086895816722" lon="7.938645223768623"><ele>326.1428571428571</ele><time>2026-04-12T08:24:23.999Z</time></trkpt><trkpt lat="44.60862571416594" lon="7.938609009516829"><ele>327.28571428571433</ele><time>2026-04-12T08:24:27.999Z</time></trkpt><trkpt lat="44.60856533644453" lon="7.93857562943085"><ele>328.42857142857144</ele><time>2026-04-12T08:24:31.999Z</time></trkpt><trkpt lat="44.60849795292267" lon="7.938540601743908"><ele>329.57142857142856</ele><time>2026-04-12T08:24:35.999Z</time></trkpt><trkpt lat="44.6084225402832" lon="7.938528195235222"><ele>330.71428571428567</ele><time>2026-04-12T08:24:39.999Z</time></trkpt><trkpt lat="44.60834836957004" lon="7.938522343550964"><ele>331.8571428571429</ele><time>2026-04-12T08:24:43.999Z</time></trkpt><trkpt lat="44.60827534270347" lon="7.938525182536775"><ele>333.0</ele><time>2026-04-12T08:24:48Z</time></trkpt><trkpt lat="44.60820303181135" lon="7.9384988302642965"><ele>333.0</ele><time>2026-04-12T08:24:52Z</time></trkpt><trkpt lat="44.60812215239409" lon="7.938490369837963"><ele>333.0</ele><time>2026-04-12T08:24:56Z</time></trkpt><trkpt lat="44.608047109791066" lon="7.938445697869344"><ele>333.0</ele><time>2026-04-12T08:25:00Z</time></trkpt><trkpt lat="44.607981789707964" lon="7.938409523802285"><ele>333.0</ele><time>2026-04-12T08:25:04Z</time></trkpt><trkpt lat="44.60791196989379" lon="7.938367478423344"><ele>333.0</ele><time>2026-04-12T08:25:08Z</time></trkpt><trkpt lat="44.60784075148115" lon="7.938340600007234"><ele>333.0</ele><time>2026-04-12T08:25:13Z</time></trkpt><trkpt lat="44.60777897223684" lon="7.938300879901578"><ele>334.5714285714286</ele><time>2026-04-12T08:25:17Z</time></trkpt><trkpt lat="44.607714101430155" lon="7.938272752634579"><ele>336.1428571428571</ele><time>2026-04-12T08:25:21Z</time></trkpt><trkpt lat="44.60764735809974" lon="7.93824280584905"><ele>337.7142857142857</ele><time>2026-04-12T08:25:25Z</time></trkpt><trkpt lat="44.60757652164858" lon="7.938216284770305"><ele>339.28571428571433</ele><time>2026-04-12T08:25:29Z</time></trkpt><trkpt lat="44.60751309165027" lon="7.938179267023347"><ele>340.8571428571429</ele><time>2026-04-12T08:25:33Z</time></trkpt><trkpt lat="44.60744619255269" lon="7.938142320217969"><ele>342.42857142857144</ele><time>2026-04-12T08:25:36.999Z</time></trkpt><trkpt lat="44.60738901691134" lon="7.938096263730779"><ele>344.0</ele><time>2026-04-12T08:25:40.999Z</time></trkpt><trkpt lat="44.607326351999305" lon="7.938049731693294"><ele>344.00000000000006</ele><time>2026-04-12T08:25:44.999Z</time></trkpt><trkpt lat="44.60725664745702" lon="7.937996831059573"><ele>344.0</ele><time>2026-04-12T08:25:49.999Z</time></trkpt><trkpt lat="44.607187795692305" lon="7.937944676947008"><ele>344.0</ele><time>2026-04-12T08:25:54.999Z</time></trkpt><trkpt lat="44.607124635830594" lon="7.93789274305249"><ele>344.0</ele><time>2026-04-12T08:25:59.999Z</time></trkpt><trkpt lat="44.60706154016143" lon="7.9378478741122125"><ele>344.0</ele><time>2026-04-12T08:26:04.999Z</time></trkpt><trkpt lat="44.60700003804869" lon="7.937822403635199"><ele>344.00000000000006</ele><time>2026-04-12T08:26:09.999Z</time></trkpt><trkpt lat="44.60692336297799" lon="7.937829974477598"><ele>344.0</ele><time>2026-04-12T08:26:13.999Z</time></trkpt><trkpt lat="44.60684381246632" lon="7.937899555230869"><ele>343.83333333333337</ele><time>2026-04-12T08:26:16.999Z</time></trkpt><trkpt lat="44.60678709646878" lon="7.937963152545917"><ele>343.6666666666667</ele><time>2026-04-12T08:26:18.999Z</time></trkpt><trkpt lat="44.60671520539143" lon="7.938018984178701"><ele>343.5</ele><time>2026-04-12T08:26:20.999Z</time></trkpt><trkpt lat="44.60661861804346" lon="7.938037943256305"><ele>343.3333333333333</ele><time>2026-04-12T08:26:22.999Z</time></trkpt><trkpt lat="44.60653057600826" lon="7.938029644744579"><ele>343.16666666666663</ele><time>2026-04-12T08:26:24.999Z</time></trkpt><trkpt lat="44.60643548870346" lon="7.938010606895461"><ele>343.0</ele><time>2026-04-12T08:26:26.999Z</time></trkpt><trkpt lat="44.606337651381615" lon="7.937997648103776"><ele>343.0</ele><time>2026-04-12T08:26:28.999Z</time></trkpt><trkpt lat="44.60627057429753" lon="7.937991001439195"><ele>343.0</ele><time>2026-04-12T08:26:30.999Z</time></trkpt><trkpt lat="44.60620599825513" lon="7.937984623315598"><ele>343.0</ele><time>2026-04-12T08:26:32.999Z</time></trkpt><trkpt lat="44.60612673205914" lon="7.937981291306088"><ele>343.0</ele><time>2026-04-12T08:26:35.999Z</time></trkpt><trkpt lat="44.60605343347747" lon="7.937977166808606"><ele>343.0</ele><time>2026-04-12T08:26:38.999Z</time></trkpt><trkpt lat="44.605970203512456" lon="7.937968730760296"><ele>343.0</ele><time>2026-04-12T08:26:42.999Z</time></trkpt><trkpt lat="44.605896542552074" lon="7.9379501452136365"><ele>343.0</ele><time>2026-04-12T08:26:46.999Z</time></trkpt><trkpt lat="44.605828627590796" lon="7.9379266208140615"><ele>343.14285714285717</ele><time>2026-04-12T08:26:50.999Z</time></trkpt><trkpt lat="44.60576640519622" lon="7.937905409956987"><ele>343.2857142857143</ele><time>2026-04-12T08:26:55Z</time></trkpt><trkpt lat="44.60570389772021" lon="7.937872505461477"><ele>343.42857142857144</ele><time>2026-04-12T08:26:59Z</time></trkpt><trkpt lat="44.605633773852084" lon="7.937855443928808"><ele>343.57142857142856</ele><time>2026-04-12T08:27:02Z</time></trkpt><trkpt lat="44.60555811685808" lon="7.937857740592032"><ele>343.7142857142857</ele><time>2026-04-12T08:27:06Z</time></trkpt><trkpt lat="44.60549770157287" lon="7.93781733519074"><ele>343.8571428571429</ele><time>2026-04-12T08:27:09Z</time></trkpt><trkpt lat="44.605426555119394" lon="7.937795393361449"><ele>344.0</ele><time>2026-04-12T08:27:12Z</time></trkpt><trkpt lat="44.605344302056025" lon="7.937770026212434"><ele>345.6666666666667</ele><time>2026-04-12T08:27:15Z</time></trkpt><trkpt lat="44.605263705285715" lon="7.937858569157723"><ele>347.33333333333337</ele><time>2026-04-12T08:27:17Z</time></trkpt><trkpt lat="44.60519003765945" lon="7.937867898193098"><ele>349.0</ele><time>2026-04-12T08:27:19Z</time></trkpt><trkpt lat="44.60511219993586" lon="7.937875204752809"><ele>350.6666666666667</ele><time>2026-04-12T08:27:21Z</time></trkpt><trkpt lat="44.60502906650159" lon="7.937902247884525"><ele>352.3333333333333</ele><time>2026-04-12T08:27:23Z</time></trkpt><trkpt lat="44.604962550201954" lon="7.93794442618249"><ele>354.0</ele><time>2026-04-12T08:27:25Z</time></trkpt><trkpt lat="44.60489199454417" lon="7.938020596290506"><ele>354.0</ele><time>2026-04-12T08:27:28Z</time></trkpt><trkpt lat="44.6048168857219" lon="7.9380887990892495"><ele>354.0</ele><time>2026-04-12T08:27:31Z</time></trkpt><trkpt lat="44.604747289110875" lon="7.938160873982602"><ele>354.0</ele><time>2026-04-12T08:27:34Z</time></trkpt><trkpt lat="44.60468149319094" lon="7.938221040774055"><ele>354.0</ele><time>2026-04-12T08:27:37Z</time></trkpt><trkpt lat="44.60462383201014" lon="7.938261853893527"><ele>354.0</ele><time>2026-04-12T08:27:40Z</time></trkpt><trkpt lat="44.60456623281652" lon="7.938299909318756"><ele>354.0</ele><time>2026-04-12T08:27:42.999Z</time></trkpt><trkpt lat="44.604492493756155" lon="7.938325525015455"><ele>355.6666666666667</ele><time>2026-04-12T08:27:46.999Z</time></trkpt><trkpt lat="44.604412698611405" lon="7.938353435539696"><ele>357.3333333333333</ele><time>2026-04-12T08:27:50.999Z</time></trkpt><trkpt lat="44.60434136012915" lon="7.938362266684962"><ele>359.0</ele><time>2026-04-12T08:27:54.999Z</time></trkpt><trkpt lat="44.60427044749595" lon="7.938363006664323"><ele>360.66666666666663</ele><time>2026-04-12T08:27:58.999Z</time></trkpt><trkpt lat="44.60419129561995" lon="7.938361108179773"><ele>362.3333333333333</ele><time>2026-04-12T08:28:02.999Z</time></trkpt><trkpt lat="44.604111915313055" lon="7.9383673046729175"><ele>364.0</ele><time>2026-04-12T08:28:06.999Z</time></trkpt><trkpt lat="44.60403236447219" lon="7.938368095323439"><ele>364.0</ele><time>2026-04-12T08:28:10.999Z</time></trkpt><trkpt lat="44.603969871106706" lon="7.938382864383364"><ele>364.0</ele><time>2026-04-12T08:28:13.999Z</time></trkpt><trkpt lat="44.60389041668408" lon="7.938406418810117"><ele>364.0</ele><time>2026-04-12T08:28:17.999Z</time></trkpt><trkpt lat="44.60381067771288" lon="7.938415563266043"><ele>364.0</ele><time>2026-04-12T08:28:21.999Z</time></trkpt><trkpt lat="44.60374853697982" lon="7.938433506777684"><ele>364.0</ele><time>2026-04-12T08:28:24.999Z</time></trkpt><trkpt lat="44.603685897321235" lon="7.938449116037651"><ele>364.0</ele><time>2026-04-12T08:28:27.999Z</time></trkpt><trkpt lat="44.60361383233247" lon="7.9384596903011"><ele>364.0</ele><time>2026-04-12T08:28:31.999Z</time></trkpt><trkpt lat="44.60354459667288" lon="7.938491899557099"><ele>363.66666666666663</ele><time>2026-04-12T08:28:35.999Z</time></trkpt><trkpt lat="44.60348097828582" lon="7.9385051909153965"><ele>363.3333333333333</ele><time>2026-04-12T08:28:38.999Z</time></trkpt><trkpt lat="44.603408474325825" lon="7.938510974070775"><ele>363.0</ele><time>2026-04-12T08:28:42.999Z</time></trkpt><trkpt lat="44.603333677747685" lon="7.938526551370711"><ele>362.6666666666667</ele><time>2026-04-12T08:28:46.999Z</time></trkpt><trkpt lat="44.60325491802363" lon="7.938539882258049"><ele>362.33333333333337</ele><time>2026-04-12T08:28:50.999Z</time></trkpt><trkpt lat="44.60317378975501" lon="7.938559992225803"><ele>362.0</ele><time>2026-04-12T08:28:54.999Z</time></trkpt><trkpt lat="44.60309542943241" lon="7.9386015088458945"><ele>362.0</ele><time>2026-04-12T08:28:59Z</time></trkpt><trkpt lat="44.60302143306385" lon="7.9386153770307235"><ele>362.0</ele><time>2026-04-12T08:29:02Z</time></trkpt><trkpt lat="44.60294689780594" lon="7.938616770525739"><ele>362.0</ele><time>2026-04-12T08:29:23Z</time></trkpt><trkpt lat="44.602882023599676" lon="7.938596781244231"><ele>362.0</ele><time>2026-04-12T08:29:32Z</time></trkpt><trkpt lat="44.6028128772608" lon="7.93858784550546"><ele>362.0</ele><time>2026-04-12T08:29:41Z</time></trkpt><trkpt lat="44.60274858959194" lon="7.938586399056298"><ele>362.0</ele><time>2026-04-12T08:29:48Z</time></trkpt><trkpt lat="44.602673768891314" lon="7.9385799953533684"><ele>362.0</ele><time>2026-04-12T08:30:18.999Z</time></trkpt><trkpt lat="44.602611826777924" lon="7.938558837723055"><ele>363.1666666666667</ele><time>2026-04-12T08:30:21.999Z</time></trkpt><trkpt lat="44.60254270570167" lon="7.93853790913541"><ele>364.33333333333337</ele><time>2026-04-12T08:30:24.999Z</time></trkpt><trkpt lat="44.60247788189752" lon="7.938517954305016"><ele>365.5</ele><time>2026-04-12T08:30:26.999Z</time></trkpt><trkpt lat="44.60240273193876" lon="7.938492542320418"><ele>366.6666666666667</ele><time>2026-04-12T08:30:29.999Z</time></trkpt><trkpt lat="44.60231061985162" lon="7.938467845575014"><ele>367.8333333333333</ele><time>2026-04-12T08:30:32.999Z</time></trkpt><trkpt lat="44.60223373586376" lon="7.938435613739486"><ele>369.0</ele><time>2026-04-12T08:30:34.999Z</time></trkpt><trkpt lat="44.602144147634576" lon="7.938390517453886"><ele>370.2</ele><time>2026-04-12T08:30:36.999Z</time></trkpt><trkpt lat="44.60203782963577" lon="7.938342902832955"><ele>371.4</ele><time>2026-04-12T08:30:38.999Z</time></trkpt><trkpt lat="44.601974675341616" lon="7.938318610665946"><ele>372.6</ele><time>2026-04-12T08:30:39.999Z</time></trkpt><trkpt lat="44.601863255450034" lon="7.9382621986871715"><ele>373.8</ele><time>2026-04-12T08:30:41.999Z</time></trkpt><trkpt lat="44.60175818768252" lon="7.9382127755589895"><ele>375.0</ele><time>2026-04-12T08:30:43.999Z</time></trkpt><trkpt lat="44.60167013020616" lon="7.938172546049164"><ele>375.0</ele><time>2026-04-12T08:30:45.999Z</time></trkpt><trkpt lat="44.60160993488601" lon="7.938138599956662"><ele>375.0</ele><time>2026-04-12T08:30:47.999Z</time></trkpt><trkpt lat="44.60154824896598" lon="7.938114741656263"><ele>375.0</ele><time>2026-04-12T08:30:49.999Z</time></trkpt><trkpt lat="44.60146540195879" lon="7.938060581608344"><ele>375.0</ele><time>2026-04-12T08:30:52.999Z</time></trkpt><trkpt lat="44.601381666180544" lon="7.938021792371202"><ele>375.0</ele><time>2026-04-12T08:30:55.999Z</time></trkpt><trkpt lat="44.601293195842324" lon="7.9379813005073805"><ele>375.0</ele><time>2026-04-12T08:30:58.999Z</time></trkpt><trkpt lat="44.60122519199912" lon="7.93794901053578"><ele>373.2</ele><time>2026-04-12T08:31:00.999Z</time></trkpt><trkpt lat="44.60113867223279" lon="7.937909557443918"><ele>371.4</ele><time>2026-04-12T08:31:02.999Z</time></trkpt><trkpt lat="44.601025560346365" lon="7.937868053884014"><ele>369.6</ele><time>2026-04-12T08:31:05Z</time></trkpt><trkpt lat="44.60095655914574" lon="7.937849769681998"><ele>367.8</ele><time>2026-04-12T08:31:06Z</time></trkpt><trkpt lat="44.60082262183359" lon="7.937842215936724"><ele>366.0</ele><time>2026-04-12T08:31:08Z</time></trkpt><trkpt lat="44.600743146052864" lon="7.937824798579974"><ele>366.0</ele><time>2026-04-12T08:31:09Z</time></trkpt><trkpt lat="44.60066560207523" lon="7.937798889985168"><ele>366.0</ele><time>2026-04-12T08:31:10Z</time></trkpt><trkpt lat="44.60059344537281" lon="7.93776828648911"><ele>366.0</ele><time>2026-04-12T08:31:11Z</time></trkpt><trkpt lat="44.60052842893246" lon="7.937737732931825"><ele>366.0</ele><time>2026-04-12T08:31:12Z</time></trkpt><trkpt lat="44.60041892228387" lon="7.937674304137304"><ele>366.0</ele><time>2026-04-12T08:31:14Z</time></trkpt><trkpt lat="44.6003302468675" lon="7.937633390565651"><ele>366.0</ele><time>2026-04-12T08:31:16Z</time></trkpt><trkpt lat="44.60025289815759" lon="7.937606392952554"><ele>365.57142857142856</ele><time>2026-04-12T08:31:19Z</time></trkpt><trkpt lat="44.60018204977422" lon="7.9375832879802894"><ele>365.14285714285717</ele><time>2026-04-12T08:31:22Z</time></trkpt><trkpt lat="44.600106689439734" lon="7.937551743175731"><ele>364.71428571428567</ele><time>2026-04-12T08:31:25Z</time></trkpt><trkpt lat="44.60002295340498" lon="7.9375019060513345"><ele>364.2857142857143</ele><time>2026-04-12T08:31:28Z</time></trkpt><trkpt lat="44.59995673349268" lon="7.937462760372584"><ele>363.85714285714283</ele><time>2026-04-12T08:31:30Z</time></trkpt><trkpt lat="44.59988876558179" lon="7.937431369237522"><ele>363.4285714285714</ele><time>2026-04-12T08:31:32Z</time></trkpt><trkpt lat="44.59982765924494" lon="7.937406614076222"><ele>363.0</ele><time>2026-04-12T08:31:34Z</time></trkpt><trkpt lat="44.59973909178953" lon="7.937394953395651"><ele>364.99999999999994</ele><time>2026-04-12T08:31:37Z</time></trkpt><trkpt lat="44.59965456204344" lon="7.937384409161344"><ele>367.0</ele><time>2026-04-12T08:31:40Z</time></trkpt><trkpt lat="44.59958864445342" lon="7.937388196764327"><ele>369.0</ele><time>2026-04-12T08:31:42Z</time></trkpt><trkpt lat="44.59951235445088" lon="7.937394854298936"><ele>371.0</ele><time>2026-04-12T08:31:45.999Z</time></trkpt><trkpt lat="44.59944611835294" lon="7.937378973799702"><ele>373.0</ele><time>2026-04-12T08:31:48.999Z</time></trkpt><trkpt lat="44.599379167779006" lon="7.937360799030816"><ele>374.99999999999994</ele><time>2026-04-12T08:31:51.999Z</time></trkpt><trkpt lat="44.599314892386325" lon="7.937348537486436"><ele>377.0</ele><time>2026-04-12T08:31:54.999Z</time></trkpt><trkpt lat="44.59924884399335" lon="7.937343502914343"><ele>377.57142857142856</ele><time>2026-04-12T08:31:57.999Z</time></trkpt><trkpt lat="44.599186401838736" lon="7.93733112306775"><ele>378.1428571428571</ele><time>2026-04-12T08:32:00.999Z</time></trkpt><trkpt lat="44.59912182701504" lon="7.937328726408383"><ele>378.71428571428567</ele><time>2026-04-12T08:32:03.999Z</time></trkpt><trkpt lat="44.5990457935609" lon="7.937318317720673"><ele>379.2857142857143</ele><time>2026-04-12T08:32:07.999Z</time></trkpt><trkpt lat="44.5989741863931" lon="7.93730337544813"><ele>379.8571428571429</ele><time>2026-04-12T08:32:11.999Z</time></trkpt><trkpt lat="44.598897397048646" lon="7.937287044791087"><ele>380.4285714285714</ele><time>2026-04-12T08:32:15.999Z</time></trkpt><trkpt lat="44.5988196008263" lon="7.93728000631489"><ele>381.0</ele><time>2026-04-12T08:32:19.999Z</time></trkpt><trkpt lat="44.59873596464485" lon="7.937279349869281"><ele>381.0</ele><time>2026-04-12T08:32:23.999Z</time></trkpt><trkpt lat="44.59866853087164" lon="7.937287020150526"><ele>381.0</ele><time>2026-04-12T08:32:26.999Z</time></trkpt><trkpt lat="44.59860514670624" lon="7.937302581919089"><ele>381.0</ele><time>2026-04-12T08:32:29.999Z</time></trkpt><trkpt lat="44.59854184730628" lon="7.937310134568906"><ele>381.0</ele><time>2026-04-12T08:32:32.999Z</time></trkpt><trkpt lat="44.59847653403903" lon="7.937326000284984"><ele>381.0</ele><time>2026-04-12T08:32:35.999Z</time></trkpt><trkpt lat="44.598413431921905" lon="7.937339777756046"><ele>381.0</ele><time>2026-04-12T08:32:38.999Z</time></trkpt><trkpt lat="44.59834865841294" lon="7.937357873460304"><ele>381.0</ele><time>2026-04-12T08:32:41.999Z</time></trkpt><trkpt lat="44.59826667941827" lon="7.937368965770863"><ele>381.57142857142856</ele><time>2026-04-12T08:32:45.999Z</time></trkpt><trkpt lat="44.59820125540148" lon="7.937384133443818"><ele>382.14285714285717</ele><time>2026-04-12T08:32:48.999Z</time></trkpt><trkpt lat="44.598118228141495" lon="7.937400811407266"><ele>382.7142857142857</ele><time>2026-04-12T08:32:52.999Z</time></trkpt><trkpt lat="44.598057348457104" lon="7.937431171801247"><ele>383.2857142857143</ele><time>2026-04-12T08:32:56.999Z</time></trkpt><trkpt lat="44.59798751241203" lon="7.937420407170683"><ele>383.8571428571429</ele><time>2026-04-12T08:33:01.999Z</time></trkpt><trkpt lat="44.59794423344763" lon="7.937346205911983"><ele>384.42857142857144</ele><time>2026-04-12T08:33:04.999Z</time></trkpt><trkpt lat="44.59789253429287" lon="7.937270178086963"><ele>385.0</ele><time>2026-04-12T08:33:07.998Z</time></trkpt><trkpt lat="44.597834237688645" lon="7.937202891881113"><ele>385.0</ele><time>2026-04-12T08:33:11Z</time></trkpt><trkpt lat="44.597792432981066" lon="7.937120088942716"><ele>385.0</ele><time>2026-04-12T08:33:14Z</time></trkpt><trkpt lat="44.59774547694007" lon="7.937053418110879"><ele>385.0</ele><time>2026-04-12T08:33:17Z</time></trkpt><trkpt lat="44.59768760917937" lon="7.936997224461705"><ele>385.0</ele><time>2026-04-12T08:33:20Z</time></trkpt><trkpt lat="44.59764389602646" lon="7.9369263594719"><ele>385.0</ele><time>2026-04-12T08:33:23Z</time></trkpt><trkpt lat="44.59759856040676" lon="7.936860883843682"><ele>385.0</ele><time>2026-04-12T08:33:26Z</time></trkpt><trkpt lat="44.59755939507158" lon="7.93679012888625"><ele>385.0</ele><time>2026-04-12T08:33:29Z</time></trkpt><trkpt lat="44.59750807693503" lon="7.9367223256953645"><ele>386.7142857142857</ele><time>2026-04-12T08:33:32Z</time></trkpt><trkpt lat="44.597452868599895" lon="7.936636472049347"><ele>388.42857142857144</ele><time>2026-04-12T08:33:36Z</time></trkpt><trkpt lat="44.597406863119936" lon="7.936566796393582"><ele>390.1428571428571</ele><time>2026-04-12T08:33:39Z</time></trkpt><trkpt lat="44.59735911696725" lon="7.936499200381859"><ele>391.8571428571429</ele><time>2026-04-12T08:33:42Z</time></trkpt><trkpt lat="44.59731638281207" lon="7.93643257107501"><ele>393.57142857142856</ele><time>2026-04-12T08:33:45Z</time></trkpt><trkpt lat="44.597270730047526" lon="7.936365267412849"><ele>395.2857142857143</ele><time>2026-04-12T08:33:48Z</time></trkpt><trkpt lat="44.597200510391865" lon="7.936299114400464"><ele>397.0</ele><time>2026-04-12T08:33:52Z</time></trkpt><trkpt lat="44.59713097073596" lon="7.936226922468611"><ele>397.00000000000006</ele><time>2026-04-12T08:33:56Z</time></trkpt><trkpt lat="44.59706253580824" lon="7.93616311331464"><ele>397.0</ele><time>2026-04-12T08:33:59Z</time></trkpt><trkpt lat="44.59698960156716" lon="7.936081057063705"><ele>397.0</ele><time>2026-04-12T08:34:01.999Z</time></trkpt><trkpt lat="44.59693600699308" lon="7.9360170193431205"><ele>397.0</ele><time>2026-04-12T08:34:03.999Z</time></trkpt><trkpt lat="44.59687298627885" lon="7.9359622349182155"><ele>397.00000000000006</ele><time>2026-04-12T08:34:05.999Z</time></trkpt><trkpt lat="44.59680582432525" lon="7.93592852169149"><ele>397.0</ele><time>2026-04-12T08:34:07.999Z</time></trkpt><trkpt lat="44.596733509152486" lon="7.935905304787181"><ele>396.00000000000006</ele><time>2026-04-12T08:34:09.999Z</time></trkpt><trkpt lat="44.59665807842594" lon="7.93589710335524"><ele>395.0</ele><time>2026-04-12T08:34:11.999Z</time></trkpt><trkpt lat="44.59658817257742" lon="7.935908910625914"><ele>394.0</ele><time>2026-04-12T08:34:13.999Z</time></trkpt><trkpt lat="44.59652399489792" lon="7.935914976544738"><ele>393.0</ele><time>2026-04-12T08:34:15.999Z</time></trkpt><trkpt lat="44.596435129027384" lon="7.935917997826308"><ele>392.00000000000006</ele><time>2026-04-12T08:34:18.999Z</time></trkpt><trkpt lat="44.59635810131302" lon="7.935925234781352"><ele>391.0</ele><time>2026-04-12T08:34:21.999Z</time></trkpt><trkpt lat="44.5962851087893" lon="7.935959426670397"><ele>390.99999999999994</ele><time>2026-04-12T08:34:24.999Z</time></trkpt><trkpt lat="44.59619770523404" lon="7.935967523572753"><ele>391.0</ele><time>2026-04-12T08:34:28.999Z</time></trkpt><trkpt lat="44.59613149771423" lon="7.935984024190645"><ele>391.0</ele><time>2026-04-12T08:34:31.999Z</time></trkpt><trkpt lat="44.596045723185625" lon="7.9360111815480145"><ele>391.0</ele><time>2026-04-12T08:34:35.999Z</time></trkpt><trkpt lat="44.59597972644398" lon="7.9360238471241304"><ele>391.0</ele><time>2026-04-12T08:34:38.999Z</time></trkpt><trkpt lat="44.595916329515" lon="7.936032605784097"><ele>390.99999999999994</ele><time>2026-04-12T08:34:41.999Z</time></trkpt><trkpt lat="44.59585239026491" lon="7.936047784414611"><ele>391.0</ele><time>2026-04-12T08:34:44.999Z</time></trkpt><trkpt lat="44.59578571708309" lon="7.936073219034243"><ele>393.33333333333337</ele><time>2026-04-12T08:34:48.999Z</time></trkpt><trkpt lat="44.59569962778814" lon="7.9360980697892956"><ele>395.6666666666667</ele><time>2026-04-12T08:34:52.999Z</time></trkpt><trkpt lat="44.59563533939932" lon="7.936090955108742"><ele>398.0</ele><time>2026-04-12T08:34:56.999Z</time></trkpt><trkpt lat="44.59555530828673" lon="7.936114166978807"><ele>400.33333333333337</ele><time>2026-04-12T08:35:00.999Z</time></trkpt><trkpt lat="44.59548115973718" lon="7.9361393791326025"><ele>402.6666666666667</ele><time>2026-04-12T08:35:03.999Z</time></trkpt><trkpt lat="44.595403126456105" lon="7.936167806687532"><ele>405.0</ele><time>2026-04-12T08:35:07.999Z</time></trkpt><trkpt lat="44.595319988058115" lon="7.936180753437388"><ele>406.8333333333333</ele><time>2026-04-12T08:35:11.999Z</time></trkpt><trkpt lat="44.59524013214823" lon="7.936180353594119"><ele>408.66666666666663</ele><time>2026-04-12T08:35:16Z</time></trkpt><trkpt lat="44.5951701317111" lon="7.936136515310999"><ele>410.5</ele><time>2026-04-12T08:35:20Z</time></trkpt><trkpt lat="44.595108935389995" lon="7.9361132432401185"><ele>412.3333333333333</ele><time>2026-04-12T08:35:24Z</time></trkpt><trkpt lat="44.595038520041825" lon="7.936084270278977"><ele>414.16666666666663</ele><time>2026-04-12T08:35:29Z</time></trkpt><trkpt lat="44.59498124159321" lon="7.935997182306678"><ele>416.0</ele><time>2026-04-12T08:35:35Z</time></trkpt><trkpt lat="44.59490509553163" lon="7.935921661069236"><ele>415.99999999999994</ele><time>2026-04-12T08:37:04.999Z</time></trkpt><trkpt lat="44.59497350735298" lon="7.935938422199942"><ele>416.0</ele><time>2026-04-12T08:39:59Z</time></trkpt><trkpt lat="44.59496570524506" lon="7.936057030019743"><ele>416.0</ele><time>2026-04-12T08:40:04Z</time></trkpt><trkpt lat="44.59493910492456" lon="7.936174303119885"><ele>416.0</ele><time>2026-04-12T08:40:07Z</time></trkpt><trkpt lat="44.59487531146723" lon="7.936274550337954"><ele>415.99999999999994</ele><time>2026-04-12T08:40:10Z</time></trkpt><trkpt lat="44.594787267189716" lon="7.936262787135384"><ele>416.0</ele><time>2026-04-12T08:40:13Z</time></trkpt><trkpt lat="44.594708131857466" lon="7.9361885379710655"><ele>416.0</ele><time>2026-04-12T08:40:16Z</time></trkpt><trkpt lat="44.594638898129595" lon="7.9361167147631395"><ele>416.0</ele><time>2026-04-12T08:40:18Z</time></trkpt><trkpt lat="44.594561685104054" lon="7.936036163490397"><ele>416.0</ele><time>2026-04-12T08:40:20Z</time></trkpt><trkpt lat="44.594467279683265" lon="7.9359606248188195"><ele>416.0</ele><time>2026-04-12T08:40:22Z</time></trkpt><trkpt lat="44.59438043192244" lon="7.935881922197857"><ele>416.0</ele><time>2026-04-12T08:40:24Z</time></trkpt><trkpt lat="44.59427652720546" lon="7.935870557939255"><ele>414.2857142857143</ele><time>2026-04-12T08:40:26Z</time></trkpt><trkpt lat="44.59417447434197" lon="7.935831819323297"><ele>412.5714285714286</ele><time>2026-04-12T08:40:27.999Z</time></trkpt><trkpt lat="44.594112843699996" lon="7.935812334155921"><ele>410.8571428571429</ele><time>2026-04-12T08:40:28.999Z</time></trkpt><trkpt lat="44.59405048700029" lon="7.935786076170198"><ele>409.1428571428571</ele><time>2026-04-12T08:40:29.999Z</time></trkpt><trkpt lat="44.59398682769045" lon="7.935751860113119"><ele>407.42857142857144</ele><time>2026-04-12T08:40:30.999Z</time></trkpt><trkpt lat="44.59392950865662" lon="7.935701437033761"><ele>405.7142857142857</ele><time>2026-04-12T08:40:31.999Z</time></trkpt><trkpt lat="44.59386928750139" lon="7.935650130385719"><ele>404.0</ele><time>2026-04-12T08:40:32.999Z</time></trkpt><trkpt lat="44.5937998517938" lon="7.935615040910893"><ele>403.99999999999994</ele><time>2026-04-12T08:40:33.999Z</time></trkpt><trkpt lat="44.5937476901654" lon="7.935541854274069"><ele>404.0</ele><time>2026-04-12T08:40:34.999Z</time></trkpt><trkpt lat="44.5936813908026" lon="7.935512315561168"><ele>404.0</ele><time>2026-04-12T08:40:35.999Z</time></trkpt><trkpt lat="44.5936273561904" lon="7.935462214401444"><ele>404.0</ele><time>2026-04-12T08:40:36.999Z</time></trkpt><trkpt lat="44.59353336484012" lon="7.935380680151001"><ele>403.99999999999994</ele><time>2026-04-12T08:40:38.999Z</time></trkpt><trkpt lat="44.59343409808698" lon="7.935325742412897"><ele>404.0</ele><time>2026-04-12T08:40:40.999Z</time></trkpt><trkpt lat="44.59332254262725" lon="7.9352830108293375"><ele>402.99999999999994</ele><time>2026-04-12T08:40:42.999Z</time></trkpt><trkpt lat="44.5932232443678" lon="7.935261396663826"><ele>402.0</ele><time>2026-04-12T08:40:44.999Z</time></trkpt><trkpt lat="44.59312957082462" lon="7.935249869863601"><ele>401.0</ele><time>2026-04-12T08:40:46.999Z</time></trkpt><trkpt lat="44.59306499428211" lon="7.935250974375145"><ele>400.0</ele><time>2026-04-12T08:40:48.999Z</time></trkpt><trkpt lat="44.59299169325011" lon="7.935232348115198"><ele>398.99999999999994</ele><time>2026-04-12T08:40:50.999Z</time></trkpt><trkpt lat="44.59292535825254" lon="7.9352489467001925"><ele>398.0</ele><time>2026-04-12T08:40:53.999Z</time></trkpt><trkpt lat="44.592862625202834" lon="7.934968191227499"><ele>397.99999999999994</ele><time>2026-04-12T08:41:31.999Z</time></trkpt><trkpt lat="44.59285469979813" lon="7.934874646992919"><ele>398.0</ele><time>2026-04-12T08:41:40Z</time></trkpt><trkpt lat="44.592851684853194" lon="7.934780183757753"><ele>398.0</ele><time>2026-04-12T08:41:48Z</time></trkpt><trkpt lat="44.5928489992693" lon="7.934676692466953"><ele>398.0</ele><time>2026-04-12T08:42:01Z</time></trkpt><trkpt lat="44.592844537840506" lon="7.934569444357852"><ele>398.0</ele><time>2026-04-12T08:42:05Z</time></trkpt><trkpt lat="44.59284850221401" lon="7.934480112673027"><ele>397.99999999999994</ele><time>2026-04-12T08:42:08Z</time></trkpt><trkpt lat="44.59287626814724" lon="7.93437603958609"><ele>398.0</ele><time>2026-04-12T08:42:12Z</time></trkpt><trkpt lat="44.5928951347835" lon="7.934286186701469"><ele>400.3333333333333</ele><time>2026-04-12T08:42:16Z</time></trkpt><trkpt lat="44.592902779992876" lon="7.934187215474257"><ele>402.66666666666663</ele><time>2026-04-12T08:42:20Z</time></trkpt><trkpt lat="44.59288309382669" lon="7.934077777001524"><ele>405.0</ele><time>2026-04-12T08:42:24Z</time></trkpt><trkpt lat="44.592864725783144" lon="7.933973046493822"><ele>407.33333333333337</ele><time>2026-04-12T08:42:27.999Z</time></trkpt><trkpt lat="44.59284916589508" lon="7.933870772676055"><ele>409.6666666666667</ele><time>2026-04-12T08:42:30.999Z</time></trkpt><trkpt lat="44.592820037329474" lon="7.933722096606198"><ele>412.0</ele><time>2026-04-12T08:42:33.999Z</time></trkpt><trkpt lat="44.592788289994864" lon="7.933571792707567"><ele>408.33333333333337</ele><time>2026-04-12T08:42:35.999Z</time></trkpt><trkpt lat="44.592759216107126" lon="7.933433131554383"><ele>404.6666666666667</ele><time>2026-04-12T08:42:37.999Z</time></trkpt><trkpt lat="44.5927252625285" lon="7.933312657491286"><ele>401.0</ele><time>2026-04-12T08:42:39.999Z</time></trkpt><trkpt lat="44.5926934721314" lon="7.933229990790754"><ele>397.33333333333337</ele><time>2026-04-12T08:42:41.999Z</time></trkpt><trkpt lat="44.59266364861339" lon="7.933109886086672"><ele>393.6666666666667</ele><time>2026-04-12T08:42:44.999Z</time></trkpt><trkpt lat="44.592638197024485" lon="7.9329961237226465"><ele>390.0</ele><time>2026-04-12T08:42:47.999Z</time></trkpt><trkpt lat="44.59262421948829" lon="7.932901857882471"><ele>390.0</ele><time>2026-04-12T08:42:50.999Z</time></trkpt><trkpt lat="44.59264134259815" lon="7.932803883896586"><ele>390.0</ele><time>2026-04-12T08:42:53.999Z</time></trkpt><trkpt lat="44.59266460490425" lon="7.932707982725768"><ele>390.0</ele><time>2026-04-12T08:42:58.999Z</time></trkpt><trkpt lat="44.59266453730361" lon="7.932600221094282"><ele>390.0</ele><time>2026-04-12T08:43:02.999Z</time></trkpt><trkpt lat="44.59262106654533" lon="7.93252644700026"><ele>390.0</ele><time>2026-04-12T08:43:06.999Z</time></trkpt><trkpt lat="44.59258013637041" lon="7.9324186379887065"><ele>390.0</ele><time>2026-04-12T08:43:10.999Z</time></trkpt><trkpt lat="44.59254880595809" lon="7.93233167027029"><ele>390.0</ele><time>2026-04-12T08:43:13.999Z</time></trkpt><trkpt lat="44.59251934659816" lon="7.932246512944909"><ele>391.5</ele><time>2026-04-12T08:43:16.999Z</time></trkpt><trkpt lat="44.59248722067096" lon="7.932158844028222"><ele>393.0</ele><time>2026-04-12T08:43:19.999Z</time></trkpt><trkpt lat="44.59245651403095" lon="7.932047799079198"><ele>394.5</ele><time>2026-04-12T08:43:23.999Z</time></trkpt><trkpt lat="44.592433111252426" lon="7.93194396148709"><ele>396.0</ele><time>2026-04-12T08:43:27.999Z</time></trkpt><trkpt lat="44.592414005211275" lon="7.931840914507554"><ele>397.5</ele><time>2026-04-12T08:43:31.999Z</time></trkpt><trkpt lat="44.59237450712377" lon="7.931766983890432"><ele>399.0</ele><time>2026-04-12T08:43:34.999Z</time></trkpt><trkpt lat="44.59233407939479" lon="7.931675113823937"><ele>397.8333333333333</ele><time>2026-04-12T08:43:38.999Z</time></trkpt><trkpt lat="44.59227649126168" lon="7.931589609949609"><ele>396.66666666666663</ele><time>2026-04-12T08:43:43Z</time></trkpt><trkpt lat="44.59221642849409" lon="7.931542993179653"><ele>395.5</ele><time>2026-04-12T08:43:46Z</time></trkpt><trkpt lat="44.592155688350225" lon="7.931493580263862"><ele>394.3333333333333</ele><time>2026-04-12T08:43:49Z</time></trkpt><trkpt lat="44.592090739382435" lon="7.931438424513223"><ele>393.16666666666663</ele><time>2026-04-12T08:43:52Z</time></trkpt><trkpt lat="44.592028296244" lon="7.931375469902013"><ele>392.0</ele><time>2026-04-12T08:43:55Z</time></trkpt><trkpt lat="44.591960335369464" lon="7.931317364358804"><ele>391.99999999999994</ele><time>2026-04-12T08:43:58Z</time></trkpt><trkpt lat="44.591903367228376" lon="7.931271230679101"><ele>392.0</ele><time>2026-04-12T08:44:01Z</time></trkpt><trkpt lat="44.59182650167643" lon="7.931220905733573"><ele>392.0</ele><time>2026-04-12T08:44:04Z</time></trkpt><trkpt lat="44.59174589595063" lon="7.931176910655236"><ele>392.0</ele><time>2026-04-12T08:44:07Z</time></trkpt><trkpt lat="44.591672495978614" lon="7.931113263056825"><ele>391.99999999999994</ele><time>2026-04-12T08:44:10Z</time></trkpt><trkpt lat="44.591608776458145" lon="7.931060277711263"><ele>392.0</ele><time>2026-04-12T08:44:13Z</time></trkpt><trkpt lat="44.591534071409626" lon="7.93099677177048"><ele>391.99999999999994</ele><time>2026-04-12T08:44:16Z</time></trkpt><trkpt lat="44.591456104690366" lon="7.930931414730779"><ele>392.0</ele><time>2026-04-12T08:44:19Z</time></trkpt><trkpt lat="44.591395317056154" lon="7.93087933573031"><ele>392.0</ele><time>2026-04-12T08:44:22Z</time></trkpt><trkpt lat="44.59132166508877" lon="7.93084233510008"><ele>392.0</ele><time>2026-04-12T08:44:25Z</time></trkpt><trkpt lat="44.59125424952843" lon="7.930787691607054"><ele>391.99999999999994</ele><time>2026-04-12T08:44:28Z</time></trkpt><trkpt lat="44.59118603651348" lon="7.930735424276622"><ele>392.0</ele><time>2026-04-12T08:44:31.999Z</time></trkpt><trkpt lat="44.59111267621792" lon="7.930696742007831"><ele>393.7142857142857</ele><time>2026-04-12T08:44:35.999Z</time></trkpt><trkpt lat="44.59104600954901" lon="7.930663837814405"><ele>395.42857142857144</ele><time>2026-04-12T08:44:38.999Z</time></trkpt><trkpt lat="44.59098222883783" lon="7.930636915368149"><ele>397.1428571428571</ele><time>2026-04-12T08:44:41.999Z</time></trkpt><trkpt lat="44.59091970771955" lon="7.930623679018808"><ele>398.8571428571429</ele><time>2026-04-12T08:44:44.999Z</time></trkpt><trkpt lat="44.59085515155367" lon="7.930613037368512"><ele>400.57142857142856</ele><time>2026-04-12T08:44:47.999Z</time></trkpt><trkpt lat="44.590781259579984" lon="7.930579888272195"><ele>402.2857142857143</ele><time>2026-04-12T08:44:51.999Z</time></trkpt><trkpt lat="44.5907138444262" lon="7.930556601542305"><ele>404.0</ele><time>2026-04-12T08:44:55.999Z</time></trkpt><trkpt lat="44.590639578945954" lon="7.930526961082407"><ele>404.0</ele><time>2026-04-12T08:45:00.999Z</time></trkpt><trkpt lat="44.59056700370133" lon="7.930496068219476"><ele>404.0</ele><time>2026-04-12T08:45:05.999Z</time></trkpt><trkpt lat="44.59049457506434" lon="7.930474470136544"><ele>404.0</ele><time>2026-04-12T08:45:10.999Z</time></trkpt><trkpt lat="44.59041929849303" lon="7.930453135939003"><ele>404.0</ele><time>2026-04-12T08:45:15.999Z</time></trkpt><trkpt lat="44.59034735103686" lon="7.9304346495430025"><ele>404.0</ele><time>2026-04-12T08:45:20.999Z</time></trkpt><trkpt lat="44.59027800558452" lon="7.93041800142757"><ele>404.0</ele><time>2026-04-12T08:45:25.999Z</time></trkpt><trkpt lat="44.59020383016376" lon="7.930398637133951"><ele>404.0</ele><time>2026-04-12T08:45:31.999Z</time></trkpt><trkpt lat="44.59013023636402" lon="7.930373394700785"><ele>404.57142857142856</ele><time>2026-04-12T08:45:36.999Z</time></trkpt><trkpt lat="44.59006545087796" lon="7.930366066215082"><ele>405.1428571428571</ele><time>2026-04-12T08:45:40.999Z</time></trkpt><trkpt lat="44.58998612480924" lon="7.9303439394163115"><ele>405.7142857142857</ele><time>2026-04-12T08:45:46Z</time></trkpt><trkpt lat="44.589916330572244" lon="7.9303182679055055"><ele>406.2857142857143</ele><time>2026-04-12T08:45:50Z</time></trkpt><trkpt lat="44.58984878559381" lon="7.9302833975956615"><ele>406.8571428571429</ele><time>2026-04-12T08:45:54Z</time></trkpt><trkpt lat="44.589775588859766" lon="7.93024708453489"><ele>407.42857142857144</ele><time>2026-04-12T08:45:58Z</time></trkpt><trkpt lat="44.589708250352665" lon="7.930208097511282"><ele>408.0</ele><time>2026-04-12T08:46:02Z</time></trkpt><trkpt lat="44.58963907892476" lon="7.930181440310904"><ele>408.0</ele><time>2026-04-12T08:46:06Z</time></trkpt><trkpt lat="44.589575176961795" lon="7.930125910304541"><ele>408.0</ele><time>2026-04-12T08:46:10Z</time></trkpt><trkpt lat="44.58952792238417" lon="7.930051292063198"><ele>408.0</ele><time>2026-04-12T08:46:14Z</time></trkpt><trkpt lat="44.5894690998466" lon="7.929977454957951"><ele>408.0</ele><time>2026-04-12T08:46:18Z</time></trkpt><trkpt lat="44.589416881604386" lon="7.9298984393385075"><ele>408.0</ele><time>2026-04-12T08:46:22Z</time></trkpt><trkpt lat="44.58936395704329" lon="7.929834312590665"><ele>408.0</ele><time>2026-04-12T08:46:26Z</time></trkpt><trkpt lat="44.58931496065527" lon="7.929754795132277"><ele>408.0</ele><time>2026-04-12T08:46:30Z</time></trkpt><trkpt lat="44.58926590274818" lon="7.9296739952715"><ele>409.6666666666667</ele><time>2026-04-12T08:46:34Z</time></trkpt><trkpt lat="44.58922993616992" lon="7.929586630228376"><ele>411.33333333333337</ele><time>2026-04-12T08:46:37.999Z</time></trkpt><trkpt lat="44.589199314169505" lon="7.929490452389991"><ele>413.0</ele><time>2026-04-12T08:46:41.999Z</time></trkpt><trkpt lat="44.58917868116481" lon="7.929381463870866"><ele>414.6666666666667</ele><time>2026-04-12T08:46:45.999Z</time></trkpt><trkpt lat="44.589151827803335" lon="7.92928061034701"><ele>416.33333333333337</ele><time>2026-04-12T08:46:49.999Z</time></trkpt><trkpt lat="44.58909888304049" lon="7.929198598111353"><ele>418.0</ele><time>2026-04-12T08:46:53.999Z</time></trkpt><trkpt lat="44.58902729284473" lon="7.929151784111479"><ele>420.83333333333337</ele><time>2026-04-12T08:46:57.999Z</time></trkpt><trkpt lat="44.58895399787665" lon="7.929113019928851"><ele>423.6666666666667</ele><time>2026-04-12T08:47:01.999Z</time></trkpt><trkpt lat="44.588890789769245" lon="7.929061013531008"><ele>426.5</ele><time>2026-04-12T08:47:05.999Z</time></trkpt><trkpt lat="44.58882874978583" lon="7.929010422647367"><ele>429.33333333333337</ele><time>2026-04-12T08:47:08.999Z</time></trkpt><trkpt lat="44.588751487311875" lon="7.928997584765614"><ele>432.1666666666667</ele><time>2026-04-12T08:47:11.999Z</time></trkpt><trkpt lat="44.588668525367424" lon="7.9289817835384575"><ele>435.0</ele><time>2026-04-12T08:47:15.999Z</time></trkpt><trkpt lat="44.588601802155296" lon="7.928993772824541"><ele>436.1666666666667</ele><time>2026-04-12T08:47:18.999Z</time></trkpt><trkpt lat="44.58853532457431" lon="7.929010743854605"><ele>437.33333333333337</ele><time>2026-04-12T08:47:21.999Z</time></trkpt><trkpt lat="44.58845798046682" lon="7.9290575715275295"><ele>438.5</ele><time>2026-04-12T08:47:25.999Z</time></trkpt><trkpt lat="44.58838602982974" lon="7.92910509218995"><ele>439.6666666666667</ele><time>2026-04-12T08:47:29.999Z</time></trkpt><trkpt lat="44.588310655393045" lon="7.929137097991758"><ele>440.83333333333337</ele><time>2026-04-12T08:47:33.999Z</time></trkpt><trkpt lat="44.58823879806049" lon="7.929165122244525"><ele>442.0</ele><time>2026-04-12T08:47:37.999Z</time></trkpt><trkpt lat="44.5881675896059" lon="7.929196300213452"><ele>442.00000000000006</ele><time>2026-04-12T08:47:41.999Z</time></trkpt><trkpt lat="44.58809076843044" lon="7.929224245175378"><ele>442.0</ele><time>2026-04-12T08:47:45.999Z</time></trkpt><trkpt lat="44.58801408485477" lon="7.929238662674206"><ele>442.0</ele><time>2026-04-12T08:47:49.999Z</time></trkpt><trkpt lat="44.587939038076215" lon="7.929243788278456"><ele>442.0</ele><time>2026-04-12T08:47:54Z</time></trkpt><trkpt lat="44.58786507493329" lon="7.929222885639499"><ele>442.0</ele><time>2026-04-12T08:47:58Z</time></trkpt><trkpt lat="44.58779285857976" lon="7.929206013236651"><ele>442.00000000000006</ele><time>2026-04-12T08:48:02Z</time></trkpt><trkpt lat="44.58773048690152" lon="7.929174203245367"><ele>442.0</ele><time>2026-04-12T08:48:07Z</time></trkpt><trkpt lat="44.587732349505174" lon="7.929077719729642"><ele>442.00000000000006</ele><time>2026-04-12T08:48:12Z</time></trkpt><trkpt lat="44.58778723970885" lon="7.92902875791538"><ele>442.0</ele><time>2026-04-12T08:48:16Z</time></trkpt><trkpt lat="44.58784738120413" lon="7.9289868355627116"><ele>442.0</ele><time>2026-04-12T08:48:30Z</time></trkpt><trkpt lat="44.58789989874111" lon="7.92893419257287"><ele>442.0</ele><time>2026-04-12T08:48:38Z</time></trkpt><trkpt lat="44.58795561943975" lon="7.928883926511189"><ele>442.0</ele><time>2026-04-12T08:48:44.999Z</time></trkpt><trkpt lat="44.588010319872154" lon="7.928833814502307"><ele>442.00000000000006</ele><time>2026-04-12T08:48:51.999Z</time></trkpt><trkpt lat="44.5880581357888" lon="7.928769246371465"><ele>442.0</ele><time>2026-04-12T08:48:58.999Z</time></trkpt><trkpt lat="44.58809737867626" lon="7.92869360710394"><ele>442.00000000000006</ele><time>2026-04-12T08:49:05.999Z</time></trkpt><trkpt lat="44.588149122174215" lon="7.928634477008106"><ele>442.0</ele><time>2026-04-12T08:49:12.999Z</time></trkpt><trkpt lat="44.58818834823248" lon="7.928560328330114"><ele>442.0</ele><time>2026-04-12T08:49:18.999Z</time></trkpt><trkpt lat="44.58820801788663" lon="7.928474317904488"><ele>442.0</ele><time>2026-04-12T08:49:24.999Z</time></trkpt><trkpt lat="44.58824046203482" lon="7.928390772355282"><ele>442.0</ele><time>2026-04-12T08:49:30.999Z</time></trkpt><trkpt lat="44.588263335698194" lon="7.928305969335794"><ele>442.00000000000006</ele><time>2026-04-12T08:49:36.999Z</time></trkpt><trkpt lat="44.58829944194445" lon="7.928223103187722"><ele>442.0</ele><time>2026-04-12T08:49:43.999Z</time></trkpt><trkpt lat="44.58832758821771" lon="7.928135029718455"><ele>444.8571428571429</ele><time>2026-04-12T08:49:50.999Z</time></trkpt><trkpt lat="44.58836933517296" lon="7.928037477545946"><ele>447.7142857142857</ele><time>2026-04-12T08:50:03Z</time></trkpt><trkpt lat="44.58840189388261" lon="7.927951580302512"><ele>450.57142857142856</ele><time>2026-04-12T08:50:08Z</time></trkpt><trkpt lat="44.588439553799475" lon="7.927865726617823"><ele>453.42857142857144</ele><time>2026-04-12T08:50:13Z</time></trkpt><trkpt lat="44.58848429076875" lon="7.9277730329822464"><ele>456.2857142857143</ele><time>2026-04-12T08:50:19Z</time></trkpt><trkpt lat="44.58853713554332" lon="7.927691621511867"><ele>459.14285714285717</ele><time>2026-04-12T08:50:24Z</time></trkpt><trkpt lat="44.588571731954495" lon="7.9276151991804875"><ele>462.0</ele><time>2026-04-12T08:50:28Z</time></trkpt><trkpt lat="44.58862377079559" lon="7.927542443567582"><ele>463.0</ele><time>2026-04-12T08:50:32Z</time></trkpt><trkpt lat="44.588675126249676" lon="7.927484873436211"><ele>464.0</ele><time>2026-04-12T08:50:36Z</time></trkpt><trkpt lat="44.588735942362504" lon="7.9274345201104754"><ele>465.0</ele><time>2026-04-12T08:50:41Z</time></trkpt><trkpt lat="44.58871856140753" lon="7.927331631290161"><ele>466.0</ele><time>2026-04-12T08:50:46Z</time></trkpt><trkpt lat="44.58870613666194" lon="7.92722832886218"><ele>467.0</ele><time>2026-04-12T08:50:49Z</time></trkpt><trkpt lat="44.58866618161608" lon="7.927139015137058"><ele>468.0</ele><time>2026-04-12T08:50:57.999Z</time></trkpt><trkpt lat="44.588601382145896" lon="7.927112566369326"><ele>469.0</ele><time>2026-04-12T08:51:12.999Z</time></trkpt><trkpt lat="44.58851731861551" lon="7.927089963136594"><ele>469.00000000000006</ele><time>2026-04-12T08:51:15.999Z</time></trkpt><trkpt lat="44.58845348940123" lon="7.927042575729992"><ele>469.0</ele><time>2026-04-12T08:51:17.999Z</time></trkpt><trkpt lat="44.588386825687635" lon="7.927007376516587"><ele>469.0</ele><time>2026-04-12T08:51:19.999Z</time></trkpt><trkpt lat="44.58829091772035" lon="7.926968400243382"><ele>469.0</ele><time>2026-04-12T08:51:21.999Z</time></trkpt><trkpt lat="44.58820150717532" lon="7.926946504817109"><ele>469.00000000000006</ele><time>2026-04-12T08:51:23.999Z</time></trkpt><trkpt lat="44.58812841774741" lon="7.926938549140999"><ele>469.0</ele><time>2026-04-12T08:51:25.999Z</time></trkpt><trkpt lat="44.588057833657956" lon="7.926946485875379"><ele>469.00000000000006</ele><time>2026-04-12T08:51:27.999Z</time></trkpt><trkpt lat="44.58798784273089" lon="7.926960086808688"><ele>469.0</ele><time>2026-04-12T08:51:29.999Z</time></trkpt><trkpt lat="44.58790844543678" lon="7.926963965493752"><ele>469.0</ele><time>2026-04-12T08:51:31.999Z</time></trkpt><trkpt lat="44.58783643355137" lon="7.9269734747007625"><ele>469.0</ele><time>2026-04-12T08:51:33.999Z</time></trkpt><trkpt lat="44.58774985767421" lon="7.92697588774418"><ele>469.00000000000006</ele><time>2026-04-12T08:51:35.999Z</time></trkpt><trkpt lat="44.58767335432545" lon="7.926965395124506"><ele>469.0</ele><time>2026-04-12T08:51:37.999Z</time></trkpt><trkpt lat="44.587629984816225" lon="7.926892015398982"><ele>469.00000000000006</ele><time>2026-04-12T08:51:39.999Z</time></trkpt><trkpt lat="44.587693964800245" lon="7.926796153334063"><ele>469.0</ele><time>2026-04-12T08:51:41.999Z</time></trkpt><trkpt lat="44.587818167353916" lon="7.926781012254455"><ele>469.0</ele><time>2026-04-12T08:51:43.999Z</time></trkpt><trkpt lat="44.587882900342706" lon="7.926786722689928"><ele>469.0</ele><time>2026-04-12T08:51:44.999Z</time></trkpt><trkpt lat="44.587951230039366" lon="7.926778429278097"><ele>469.00000000000006</ele><time>2026-04-12T08:51:45.999Z</time></trkpt><trkpt lat="44.58802254326842" lon="7.926769369796998"><ele>469.0</ele><time>2026-04-12T08:51:46.999Z</time></trkpt><trkpt lat="44.588099924358204" lon="7.926756645453989"><ele>466.83333333333337</ele><time>2026-04-12T08:51:47.999Z</time></trkpt><trkpt lat="44.588187267284844" lon="7.926724792041579"><ele>464.6666666666667</ele><time>2026-04-12T08:51:48.999Z</time></trkpt><trkpt lat="44.58825893672031" lon="7.92669883164645"><ele>462.5</ele><time>2026-04-12T08:51:49.999Z</time></trkpt><trkpt lat="44.58831323732118" lon="7.9266142205488945"><ele>460.33333333333337</ele><time>2026-04-12T08:51:51.999Z</time></trkpt><trkpt lat="44.58835029704609" lon="7.9265356391883195"><ele>458.1666666666667</ele><time>2026-04-12T08:51:57.999Z</time></trkpt><trkpt lat="44.588458198147976" lon="7.92651722769495"><ele>456.0</ele><time>2026-04-12T08:51:59.999Z</time></trkpt><trkpt lat="44.58856494156029" lon="7.926411350030728"><ele>456.0</ele><time>2026-04-12T08:52:01.999Z</time></trkpt><trkpt lat="44.5886392668878" lon="7.926355933111336"><ele>456.0</ele><time>2026-04-12T08:52:02.999Z</time></trkpt><trkpt lat="44.58871692121002" lon="7.92630219003979"><ele>456.0</ele><time>2026-04-12T08:52:04Z</time></trkpt><trkpt lat="44.588790339133155" lon="7.926238950447659"><ele>456.0</ele><time>2026-04-12T08:52:05Z</time></trkpt><trkpt lat="44.58888486936192" lon="7.926178009535256"><ele>456.0</ele><time>2026-04-12T08:52:06Z</time></trkpt><trkpt lat="44.5889637255034" lon="7.926126368079315"><ele>456.0</ele><time>2026-04-12T08:52:07Z</time></trkpt><trkpt lat="44.58905604974148" lon="7.926118384882276"><ele>456.0</ele><time>2026-04-12T08:52:08Z</time></trkpt><trkpt lat="44.58915525241399" lon="7.926094128815022"><ele>456.0</ele><time>2026-04-12T08:52:09Z</time></trkpt><trkpt lat="44.58924281694432" lon="7.9260726530020635"><ele>456.0</ele><time>2026-04-12T08:52:10Z</time></trkpt><trkpt lat="44.58933163325408" lon="7.926052904106139"><ele>456.0</ele><time>2026-04-12T08:52:11Z</time></trkpt><trkpt lat="44.58941960702848" lon="7.9260136571014055"><ele>456.0</ele><time>2026-04-12T08:52:12Z</time></trkpt><trkpt lat="44.58950563378185" lon="7.925996951731559"><ele>454.8333333333333</ele><time>2026-04-12T08:52:13Z</time></trkpt><trkpt lat="44.589587333569554" lon="7.9259927695794365"><ele>453.66666666666663</ele><time>2026-04-12T08:52:14Z</time></trkpt><trkpt lat="44.58967069364881" lon="7.925972370378445"><ele>452.5</ele><time>2026-04-12T08:52:15Z</time></trkpt><trkpt lat="44.58974858765117" lon="7.925953308795292"><ele>451.3333333333333</ele><time>2026-04-12T08:52:16Z</time></trkpt><trkpt lat="44.58983063305153" lon="7.9259332312614"><ele>450.16666666666663</ele><time>2026-04-12T08:52:17Z</time></trkpt><trkpt lat="44.58990897563184" lon="7.925911148781783"><ele>449.0</ele><time>2026-04-12T08:52:18Z</time></trkpt><trkpt lat="44.58997845186594" lon="7.92589172983365"><ele>446.0</ele><time>2026-04-12T08:52:19Z</time></trkpt><trkpt lat="44.590079002063646" lon="7.9258578253012635"><ele>443.0</ele><time>2026-04-12T08:52:21Z</time></trkpt><trkpt lat="44.59007833126899" lon="7.925635696351636"><ele>440.0</ele><time>2026-04-12T08:52:23Z</time></trkpt><trkpt lat="44.59007531956555" lon="7.92553775144725"><ele>437.0</ele><time>2026-04-12T08:52:24Z</time></trkpt><trkpt lat="44.59006652584723" lon="7.925435486212827"><ele>434.0</ele><time>2026-04-12T08:52:25Z</time></trkpt><trkpt lat="44.59006131742295" lon="7.925320668274572"><ele>433.99999999999994</ele><time>2026-04-12T08:52:26Z</time></trkpt><trkpt lat="44.59006279450962" lon="7.92520290685863"><ele>434.0</ele><time>2026-04-12T08:52:27Z</time></trkpt><trkpt lat="44.590061805792494" lon="7.925101936856614"><ele>434.0</ele><time>2026-04-12T08:52:28Z</time></trkpt><trkpt lat="44.590070441584174" lon="7.924916720634601"><ele>434.0</ele><time>2026-04-12T08:52:30Z</time></trkpt><trkpt lat="44.590072813269956" lon="7.924807940342178"><ele>433.99999999999994</ele><time>2026-04-12T08:52:31Z</time></trkpt><trkpt lat="44.59007573581439" lon="7.924705814991479"><ele>434.0</ele><time>2026-04-12T08:52:32Z</time></trkpt><trkpt lat="44.59007608012149" lon="7.924606008904227"><ele>432.85714285714283</ele><time>2026-04-12T08:52:33Z</time></trkpt><trkpt lat="44.59007060869102" lon="7.924505089538432"><ele>431.7142857142857</ele><time>2026-04-12T08:52:34Z</time></trkpt><trkpt lat="44.59006419221271" lon="7.924405848551873"><ele>430.57142857142856</ele><time>2026-04-12T08:52:35Z</time></trkpt><trkpt lat="44.590069104858905" lon="7.924311267032"><ele>429.42857142857144</ele><time>2026-04-12T08:52:36Z</time></trkpt><trkpt lat="44.59006086968844" lon="7.924219111404914"><ele>428.2857142857143</ele><time>2026-04-12T08:52:37Z</time></trkpt><trkpt lat="44.590059025804116" lon="7.924123740757967"><ele>427.1428571428571</ele><time>2026-04-12T08:52:38Z</time></trkpt><trkpt lat="44.59006148293077" lon="7.923980528977726"><ele>426.0</ele><time>2026-04-12T08:52:40Z</time></trkpt><trkpt lat="44.590006423225454" lon="7.923827928198232"><ele>424.0</ele><time>2026-04-12T08:52:42Z</time></trkpt><trkpt lat="44.590061656084295" lon="7.923685278056799"><ele>422.0</ele><time>2026-04-12T08:52:43Z</time></trkpt><trkpt lat="44.59007218703496" lon="7.923570834895665"><ele>420.0</ele><time>2026-04-12T08:52:44Z</time></trkpt><trkpt lat="44.59007188524272" lon="7.923455641142075"><ele>418.0</ele><time>2026-04-12T08:52:45Z</time></trkpt><trkpt lat="44.59007763608444" lon="7.923331224632209"><ele>416.0</ele><time>2026-04-12T08:52:46Z</time></trkpt><trkpt lat="44.59007742079964" lon="7.923201020515263"><ele>414.20000000000005</ele><time>2026-04-12T08:52:47Z</time></trkpt><trkpt lat="44.59007824949587" lon="7.92307196651055"><ele>412.40000000000003</ele><time>2026-04-12T08:52:48Z</time></trkpt><trkpt lat="44.590071078153656" lon="7.922940627554646"><ele>410.6</ele><time>2026-04-12T08:52:49Z</time></trkpt><trkpt lat="44.59006698394592" lon="7.922799859975772"><ele>408.8</ele><time>2026-04-12T08:52:49.999Z</time></trkpt><trkpt lat="44.590070872993174" lon="7.922651873864635"><ele>407.0</ele><time>2026-04-12T08:52:50.999Z</time></trkpt><trkpt lat="44.59007919012042" lon="7.922497235726127"><ele>404.75</ele><time>2026-04-12T08:52:51.999Z</time></trkpt><trkpt lat="44.59009695889855" lon="7.922337278043718"><ele>402.5</ele><time>2026-04-12T08:52:52.999Z</time></trkpt><trkpt lat="44.5901231903623" lon="7.922169433018138"><ele>400.25</ele><time>2026-04-12T08:52:53.999Z</time></trkpt><trkpt lat="44.590159947923325" lon="7.921999390854576"><ele>398.0</ele><time>2026-04-12T08:52:54.999Z</time></trkpt><trkpt lat="44.59019412051477" lon="7.921829678107914"><ele>396.0</ele><time>2026-04-12T08:52:55.999Z</time></trkpt><trkpt lat="44.59022188132653" lon="7.921659195543381"><ele>394.0</ele><time>2026-04-12T08:52:56.999Z</time></trkpt><trkpt lat="44.59024469290438" lon="7.921486566576134"><ele>392.0</ele><time>2026-04-12T08:52:57.999Z</time></trkpt><trkpt lat="44.59026824362126" lon="7.921313072062665"><ele>390.0</ele><time>2026-04-12T08:52:58.999Z</time></trkpt><trkpt lat="44.59028560157568" lon="7.921140207436685"><ele>390.0</ele><time>2026-04-12T08:52:59.999Z</time></trkpt><trkpt lat="44.59030183613822" lon="7.920960017528477"><ele>390.0</ele><time>2026-04-12T08:53:00.999Z</time></trkpt><trkpt lat="44.590321089406366" lon="7.92078024446907"><ele>390.0</ele><time>2026-04-12T08:53:01.999Z</time></trkpt><trkpt lat="44.5903485379948" lon="7.92060917560416"><ele>390.0</ele><time>2026-04-12T08:53:02.999Z</time></trkpt><trkpt lat="44.5903890403462" lon="7.920441005927267"><ele>391.0</ele><time>2026-04-12T08:53:03.999Z</time></trkpt><trkpt lat="44.59043453346225" lon="7.920280953585434"><ele>392.0</ele><time>2026-04-12T08:53:04.999Z</time></trkpt><trkpt lat="44.5904777354123" lon="7.920131840485267"><ele>393.0</ele><time>2026-04-12T08:53:05.999Z</time></trkpt><trkpt lat="44.59051806513914" lon="7.919984420126855"><ele>394.0</ele><time>2026-04-12T08:53:06.999Z</time></trkpt><trkpt lat="44.59056284352592" lon="7.9198460925733825"><ele>392.0</ele><time>2026-04-12T08:53:07.999Z</time></trkpt><trkpt lat="44.59060602998292" lon="7.919704713949352"><ele>390.0</ele><time>2026-04-12T08:53:08.999Z</time></trkpt><trkpt lat="44.5906520664424" lon="7.919563542338764"><ele>388.0</ele><time>2026-04-12T08:53:09.999Z</time></trkpt><trkpt lat="44.59070670021524" lon="7.919431356559635"><ele>386.0</ele><time>2026-04-12T08:53:10.999Z</time></trkpt><trkpt lat="44.590764764099475" lon="7.919312851080108"><ele>384.0</ele><time>2026-04-12T08:53:11.999Z</time></trkpt><trkpt lat="44.59083160167266" lon="7.9192037938335655"><ele>383.79999999999995</ele><time>2026-04-12T08:53:12.999Z</time></trkpt><trkpt lat="44.59090493722435" lon="7.919104368228825"><ele>383.59999999999997</ele><time>2026-04-12T08:53:13.999Z</time></trkpt><trkpt lat="44.590990590191716" lon="7.919019676780789"><ele>383.4</ele><time>2026-04-12T08:53:14.999Z</time></trkpt><trkpt lat="44.59105843811661" lon="7.9189225866088595"><ele>383.2</ele><time>2026-04-12T08:53:15.999Z</time></trkpt><trkpt lat="44.591127930009435" lon="7.918835599975418"><ele>383.0</ele><time>2026-04-12T08:53:16.999Z</time></trkpt><trkpt lat="44.591194783634265" lon="7.918754166166117"><ele>383.0</ele><time>2026-04-12T08:53:17.999Z</time></trkpt><trkpt lat="44.59126173650911" lon="7.918690409044834"><ele>383.0</ele><time>2026-04-12T08:53:18.999Z</time></trkpt><trkpt lat="44.59132376387171" lon="7.9186201727516545"><ele>383.0</ele><time>2026-04-12T08:53:19.999Z</time></trkpt><trkpt lat="44.591379835961945" lon="7.918543615690574"><ele>383.0</ele><time>2026-04-12T08:53:20.999Z</time></trkpt><trkpt lat="44.5914345258769" lon="7.918474553726142"><ele>383.0</ele><time>2026-04-12T08:53:21.999Z</time></trkpt><trkpt lat="44.591488532573976" lon="7.918407708287382"><ele>383.0</ele><time>2026-04-12T08:53:22.999Z</time></trkpt><trkpt lat="44.59154130013424" lon="7.9183393260913135"><ele>381.0</ele><time>2026-04-12T08:53:23.999Z</time></trkpt><trkpt lat="44.59159238190629" lon="7.918273338879986"><ele>379.0</ele><time>2026-04-12T08:53:24.999Z</time></trkpt><trkpt lat="44.59164504986233" lon="7.918212401261831"><ele>377.0</ele><time>2026-04-12T08:53:25.999Z</time></trkpt><trkpt lat="44.5916934003077" lon="7.918150780378369"><ele>375.0</ele><time>2026-04-12T08:53:26.999Z</time></trkpt><trkpt lat="44.591740469847004" lon="7.918087196769298"><ele>373.0</ele><time>2026-04-12T08:53:27.999Z</time></trkpt><trkpt lat="44.591789121104995" lon="7.918027198683537"><ele>371.0</ele><time>2026-04-12T08:53:28.999Z</time></trkpt><trkpt lat="44.59183651259901" lon="7.917960021066644"><ele>369.0</ele><time>2026-04-12T08:53:29.999Z</time></trkpt><trkpt lat="44.591885437322105" lon="7.917892310254418"><ele>369.0</ele><time>2026-04-12T08:53:30.999Z</time></trkpt><trkpt lat="44.591930784807396" lon="7.917816373195617"><ele>369.0</ele><time>2026-04-12T08:53:31.999Z</time></trkpt><trkpt lat="44.59197750983842" lon="7.917735590684319"><ele>369.0</ele><time>2026-04-12T08:53:32.999Z</time></trkpt><trkpt lat="44.59202328274339" lon="7.917650356904861"><ele>369.0</ele><time>2026-04-12T08:53:33.999Z</time></trkpt><trkpt lat="44.592065022324654" lon="7.917553421544312"><ele>369.0</ele><time>2026-04-12T08:53:34.999Z</time></trkpt><trkpt lat="44.592111782550404" lon="7.917450996121957"><ele>369.0</ele><time>2026-04-12T08:53:35.999Z</time></trkpt><trkpt lat="44.592153733391775" lon="7.91734404320126"><ele>368.0</ele><time>2026-04-12T08:53:36.999Z</time></trkpt><trkpt lat="44.592204027686726" lon="7.917224465723102"><ele>367.0</ele><time>2026-04-12T08:53:37.999Z</time></trkpt><trkpt lat="44.592250675681306" lon="7.917103124877448"><ele>366.0</ele><time>2026-04-12T08:53:38.999Z</time></trkpt><trkpt lat="44.59229433927274" lon="7.916973106618545"><ele>365.0</ele><time>2026-04-12T08:53:39.999Z</time></trkpt><trkpt lat="44.59233683837739" lon="7.916839605153148"><ele>364.0</ele><time>2026-04-12T08:53:40.999Z</time></trkpt><trkpt lat="44.59237876430759" lon="7.916702642732474"><ele>362.6</ele><time>2026-04-12T08:53:41.999Z</time></trkpt><trkpt lat="44.59242011534554" lon="7.916567573006162"><ele>361.2</ele><time>2026-04-12T08:53:42.999Z</time></trkpt><trkpt lat="44.592462860392956" lon="7.916437121731175"><ele>359.8</ele><time>2026-04-12T08:53:43.999Z</time></trkpt><trkpt lat="44.592502249987405" lon="7.916310939749073"><ele>358.40000000000003</ele><time>2026-04-12T08:53:44.999Z</time></trkpt><trkpt lat="44.59254248389187" lon="7.916184723979141"><ele>357.0</ele><time>2026-04-12T08:53:45.999Z</time></trkpt><trkpt lat="44.592577712977935" lon="7.916063262765759"><ele>357.0</ele><time>2026-04-12T08:53:46.999Z</time></trkpt><trkpt lat="44.592614761637314" lon="7.915949938664124"><ele>357.0</ele><time>2026-04-12T08:53:47.999Z</time></trkpt><trkpt lat="44.592666413621124" lon="7.915850586499265"><ele>357.0</ele><time>2026-04-12T08:53:48.999Z</time></trkpt><trkpt lat="44.59270638570086" lon="7.915740951201328"><ele>357.0</ele><time>2026-04-12T08:53:49.999Z</time></trkpt><trkpt lat="44.59273090239529" lon="7.915625272736126"><ele>357.0</ele><time>2026-04-12T08:53:50.999Z</time></trkpt><trkpt lat="44.59277136488914" lon="7.915521591022801"><ele>357.0</ele><time>2026-04-12T08:53:51.999Z</time></trkpt><trkpt lat="44.592818236662346" lon="7.915426205225073"><ele>356.0</ele><time>2026-04-12T08:53:52.999Z</time></trkpt><trkpt lat="44.5928682048786" lon="7.91534142598013"><ele>355.0</ele><time>2026-04-12T08:53:53.999Z</time></trkpt><trkpt lat="44.592911783284" lon="7.9152489047274255"><ele>354.0</ele><time>2026-04-12T08:53:54.999Z</time></trkpt><trkpt lat="44.59295069125089" lon="7.915152963490886"><ele>353.0</ele><time>2026-04-12T08:53:55.999Z</time></trkpt><trkpt lat="44.59299166294783" lon="7.915055221020823"><ele>352.0</ele><time>2026-04-12T08:53:56.999Z</time></trkpt><trkpt lat="44.59303468866582" lon="7.914956381214607"><ele>351.0</ele><time>2026-04-12T08:53:57.999Z</time></trkpt><trkpt lat="44.593086798360645" lon="7.914855697942231"><ele>350.6</ele><time>2026-04-12T08:53:58.999Z</time></trkpt><trkpt lat="44.593146434437436" lon="7.9147603578784596"><ele>350.20000000000005</ele><time>2026-04-12T08:53:59.999Z</time></trkpt><trkpt lat="44.5932133866681" lon="7.914666573824846"><ele>349.79999999999995</ele><time>2026-04-12T08:54:00.999Z</time></trkpt><trkpt lat="44.59328869495384" lon="7.914569723861633"><ele>349.4</ele><time>2026-04-12T08:54:01.999Z</time></trkpt><trkpt lat="44.59337034232878" lon="7.914469036578987"><ele>349.0</ele><time>2026-04-12T08:54:02.999Z</time></trkpt><trkpt lat="44.59345261785054" lon="7.914360768698101"><ele>349.0</ele><time>2026-04-12T08:54:03.999Z</time></trkpt><trkpt lat="44.59354106459288" lon="7.914238693926216"><ele>349.0</ele><time>2026-04-12T08:54:04.999Z</time></trkpt><trkpt lat="44.59364088898937" lon="7.914139895919459"><ele>349.0</ele><time>2026-04-12T08:54:05.999Z</time></trkpt><trkpt lat="44.593736149120105" lon="7.914027286611358"><ele>349.0</ele><time>2026-04-12T08:54:06.998Z</time></trkpt><trkpt lat="44.593833680120355" lon="7.913911992853326"><ele>346.5</ele><time>2026-04-12T08:54:07.998Z</time></trkpt><trkpt lat="44.5939302282285" lon="7.913797485522527"><ele>344.0</ele><time>2026-04-12T08:54:09Z</time></trkpt><trkpt lat="44.5940262892551" lon="7.91368350697778"><ele>341.5</ele><time>2026-04-12T08:54:10Z</time></trkpt><trkpt lat="44.59411085588527" lon="7.91355330075907"><ele>339.0</ele><time>2026-04-12T08:54:11Z</time></trkpt><trkpt lat="44.59420717459184" lon="7.913449164117792"><ele>339.5</ele><time>2026-04-12T08:54:12Z</time></trkpt><trkpt lat="44.59429756823119" lon="7.913340955131561"><ele>340.0</ele><time>2026-04-12T08:54:13Z</time></trkpt><trkpt lat="44.5943857336735" lon="7.913227735073655"><ele>340.5</ele><time>2026-04-12T08:54:14Z</time></trkpt><trkpt lat="44.59446439690043" lon="7.913103720569179"><ele>341.0</ele><time>2026-04-12T08:54:15Z</time></trkpt><trkpt lat="44.59452650090944" lon="7.91296687823861"><ele>338.5</ele><time>2026-04-12T08:54:16Z</time></trkpt><trkpt lat="44.594601136802915" lon="7.912848700475755"><ele>336.0</ele><time>2026-04-12T08:54:17Z</time></trkpt><trkpt lat="44.5946486712696" lon="7.912698723240388"><ele>333.5</ele><time>2026-04-12T08:54:18Z</time></trkpt><trkpt lat="44.59470659304432" lon="7.9125587324143725"><ele>331.0</ele><time>2026-04-12T08:54:19Z</time></trkpt><trkpt lat="44.59475323472428" lon="7.912409253733709"><ele>331.0</ele><time>2026-04-12T08:54:20Z</time></trkpt><trkpt lat="44.59479628163621" lon="7.912258323202656"><ele>331.0</ele><time>2026-04-12T08:54:21Z</time></trkpt><trkpt lat="44.594848322040356" lon="7.912104895607035"><ele>331.0</ele><time>2026-04-12T08:54:22Z</time></trkpt><trkpt lat="44.59489376036367" lon="7.911952940256619"><ele>331.0</ele><time>2026-04-12T08:54:23Z</time></trkpt><trkpt lat="44.59493538660362" lon="7.91180783833675"><ele>330.6</ele><time>2026-04-12T08:54:24Z</time></trkpt><trkpt lat="44.594972911599854" lon="7.911666674596112"><ele>330.20000000000005</ele><time>2026-04-12T08:54:25Z</time></trkpt><trkpt lat="44.59501245543353" lon="7.911520363491111"><ele>329.79999999999995</ele><time>2026-04-12T08:54:26Z</time></trkpt><trkpt lat="44.59505410713249" lon="7.911376044642844"><ele>329.4</ele><time>2026-04-12T08:54:27Z</time></trkpt><trkpt lat="44.59510028667308" lon="7.911230501622296"><ele>329.0</ele><time>2026-04-12T08:54:28Z</time></trkpt><trkpt lat="44.59514131687511" lon="7.911073885852039"><ele>329.0</ele><time>2026-04-12T08:54:29Z</time></trkpt><trkpt lat="44.59518588932216" lon="7.910934392157036"><ele>329.0</ele><time>2026-04-12T08:54:30Z</time></trkpt><trkpt lat="44.5952349706568" lon="7.910811738246941"><ele>329.0</ele><time>2026-04-12T08:54:31Z</time></trkpt><trkpt lat="44.59529513548242" lon="7.910701692557843"><ele>329.0</ele><time>2026-04-12T08:54:32Z</time></trkpt><trkpt lat="44.595360455109734" lon="7.910596764008944"><ele>329.0</ele><time>2026-04-12T08:54:33Z</time></trkpt><trkpt lat="44.5954341453015" lon="7.910491506840122"><ele>325.8</ele><time>2026-04-12T08:54:34Z</time></trkpt><trkpt lat="44.59550313874739" lon="7.910390608749308"><ele>322.59999999999997</ele><time>2026-04-12T08:54:35Z</time></trkpt><trkpt lat="44.59556986085383" lon="7.910292274890223"><ele>319.4</ele><time>2026-04-12T08:54:36Z</time></trkpt><trkpt lat="44.59563747687793" lon="7.910204587039815"><ele>316.2</ele><time>2026-04-12T08:54:37Z</time></trkpt><trkpt lat="44.59569528104588" lon="7.9101216394413925"><ele>313.0</ele><time>2026-04-12T08:54:38Z</time></trkpt><trkpt lat="44.59574932730019" lon="7.9100350699765665"><ele>312.3333333333333</ele><time>2026-04-12T08:54:39Z</time></trkpt><trkpt lat="44.59580543544389" lon="7.909953151922937"><ele>311.66666666666663</ele><time>2026-04-12T08:54:40Z</time></trkpt><trkpt lat="44.595853392227305" lon="7.9098615310721705"><ele>311.0</ele><time>2026-04-12T08:54:41Z</time></trkpt><trkpt lat="44.59589309347854" lon="7.909754844528992"><ele>310.3333333333333</ele><time>2026-04-12T08:54:42Z</time></trkpt><trkpt lat="44.59592517997566" lon="7.909644840557542"><ele>309.6666666666667</ele><time>2026-04-12T08:54:43Z</time></trkpt><trkpt lat="44.59595046429425" lon="7.909528048114792"><ele>309.0</ele><time>2026-04-12T08:54:44Z</time></trkpt><trkpt lat="44.595964297398005" lon="7.909406997766538"><ele>309.0</ele><time>2026-04-12T08:54:45Z</time></trkpt><trkpt lat="44.595966855349445" lon="7.909277172251969"><ele>309.0</ele><time>2026-04-12T08:54:46Z</time></trkpt><trkpt lat="44.59596171453419" lon="7.909143037384047"><ele>309.0</ele><time>2026-04-12T08:54:47Z</time></trkpt><trkpt lat="44.5959502137855" lon="7.908996953526266"><ele>309.0</ele><time>2026-04-12T08:54:48Z</time></trkpt><trkpt lat="44.59593776115016" lon="7.908848339346185"><ele>309.0</ele><time>2026-04-12T08:54:49Z</time></trkpt><trkpt lat="44.59592958252164" lon="7.908692382787355"><ele>308.25</ele><time>2026-04-12T08:54:50Z</time></trkpt><trkpt lat="44.595918553619754" lon="7.908529878977979"><ele>307.5</ele><time>2026-04-12T08:54:51Z</time></trkpt><trkpt lat="44.59590159366124" lon="7.908357051843131"><ele>306.75</ele><time>2026-04-12T08:54:52Z</time></trkpt><trkpt lat="44.59588557236659" lon="7.908183996980883"><ele>306.0</ele><time>2026-04-12T08:54:53Z</time></trkpt><trkpt lat="44.595869981015284" lon="7.908006050228024"><ele>304.5</ele><time>2026-04-12T08:54:54Z</time></trkpt><trkpt lat="44.59585503244207" lon="7.907830779308243"><ele>303.0</ele><time>2026-04-12T08:54:55Z</time></trkpt><trkpt lat="44.59583851880742" lon="7.907655678632219"><ele>301.5</ele><time>2026-04-12T08:54:56Z</time></trkpt><trkpt lat="44.59582123473312" lon="7.907472415386396"><ele>300.0</ele><time>2026-04-12T08:54:57Z</time></trkpt><trkpt lat="44.595803182039774" lon="7.907287545421188"><ele>299.0</ele><time>2026-04-12T08:54:58Z</time></trkpt><trkpt lat="44.5957919121738" lon="7.907106445702186"><ele>298.0</ele><time>2026-04-12T08:54:59Z</time></trkpt><trkpt lat="44.59577945557644" lon="7.906924142507824"><ele>297.0</ele><time>2026-04-12T08:54:59.999Z</time></trkpt><trkpt lat="44.59575074923889" lon="7.906743120170726"><ele>296.0</ele><time>2026-04-12T08:55:00.999Z</time></trkpt><trkpt lat="44.59570940285911" lon="7.90656160214766"><ele>294.5</ele><time>2026-04-12T08:55:01.999Z</time></trkpt><trkpt lat="44.59565800240742" lon="7.906388641044792"><ele>293.0</ele><time>2026-04-12T08:55:02.999Z</time></trkpt><trkpt lat="44.59559542447597" lon="7.906234063036641"><ele>291.5</ele><time>2026-04-12T08:55:03.999Z</time></trkpt><trkpt lat="44.59553367182852" lon="7.906088926219268"><ele>290.0</ele><time>2026-04-12T08:55:04.999Z</time></trkpt><trkpt lat="44.59547857363195" lon="7.905950053586669"><ele>289.0</ele><time>2026-04-12T08:55:05.999Z</time></trkpt><trkpt lat="44.59543994680452" lon="7.9058215328689485"><ele>288.0</ele><time>2026-04-12T08:55:06.999Z</time></trkpt><trkpt lat="44.59540574430926" lon="7.905683874469219"><ele>287.0</ele><time>2026-04-12T08:55:07.999Z</time></trkpt><trkpt lat="44.59537487174021" lon="7.905545560588736"><ele>286.0</ele><time>2026-04-12T08:55:08.999Z</time></trkpt><trkpt lat="44.59534838418601" lon="7.905399160447491"><ele>285.0</ele><time>2026-04-12T08:55:09.999Z</time></trkpt><trkpt lat="44.5953174865707" lon="7.905249082936271"><ele>283.0</ele><time>2026-04-12T08:55:10.999Z</time></trkpt><trkpt lat="44.595287982086184" lon="7.905095559962451"><ele>281.0</ele><time>2026-04-12T08:55:11.999Z</time></trkpt><trkpt lat="44.59525439238689" lon="7.904939551428965"><ele>279.0</ele><time>2026-04-12T08:55:12.999Z</time></trkpt><trkpt lat="44.595215136545654" lon="7.904780698379962"><ele>277.0</ele><time>2026-04-12T08:55:13.999Z</time></trkpt><trkpt lat="44.59518266162642" lon="7.904621394302812"><ele>275.5</ele><time>2026-04-12T08:55:14.999Z</time></trkpt><trkpt lat="44.59515555382665" lon="7.904469128367678"><ele>274.0</ele><time>2026-04-12T08:55:15.999Z</time></trkpt><trkpt lat="44.595124597127366" lon="7.904315377129469"><ele>272.5</ele><time>2026-04-12T08:55:16.999Z</time></trkpt><trkpt lat="44.59509628625463" lon="7.904158653461992"><ele>271.0</ele><time>2026-04-12T08:55:17.999Z</time></trkpt><trkpt lat="44.59506744130025" lon="7.904005711675464"><ele>269.6</ele><time>2026-04-12T08:55:18.999Z</time></trkpt><trkpt lat="44.59503631258982" lon="7.903854464040133"><ele>268.20000000000005</ele><time>2026-04-12T08:55:19.999Z</time></trkpt><trkpt lat="44.595010417058276" lon="7.903709879539511"><ele>266.79999999999995</ele><time>2026-04-12T08:55:20.999Z</time></trkpt><trkpt lat="44.59498419380799" lon="7.903573482506515"><ele>265.4</ele><time>2026-04-12T08:55:21.999Z</time></trkpt><trkpt lat="44.59496034854485" lon="7.903454063683421"><ele>264.0</ele><time>2026-04-12T08:55:22.999Z</time></trkpt><trkpt lat="44.59493615160133" lon="7.903338981426676"><ele>263.3333333333333</ele><time>2026-04-12T08:55:23.999Z</time></trkpt><trkpt lat="44.5949148644072" lon="7.9032217947298475"><ele>262.6666666666667</ele><time>2026-04-12T08:55:24.999Z</time></trkpt><trkpt lat="44.594899661578715" lon="7.903102478282507"><ele>262.0</ele><time>2026-04-12T08:55:25.999Z</time></trkpt><trkpt lat="44.59488614444458" lon="7.902978523782905"><ele>261.33333333333337</ele><time>2026-04-12T08:55:26.999Z</time></trkpt><trkpt lat="44.59487359901738" lon="7.902850701523795"><ele>260.6666666666667</ele><time>2026-04-12T08:55:27.999Z</time></trkpt><trkpt lat="44.594865779828396" lon="7.902729250288778"><ele>260.0</ele><time>2026-04-12T08:55:28.999Z</time></trkpt><trkpt lat="44.5948596132607" lon="7.902612518135821"><ele>259.5</ele><time>2026-04-12T08:55:29.999Z</time></trkpt><trkpt lat="44.59485636353396" lon="7.902498665821084"><ele>259.0</ele><time>2026-04-12T08:55:30.999Z</time></trkpt><trkpt lat="44.594856482364236" lon="7.9023851342325795"><ele>258.5</ele><time>2026-04-12T08:55:31.999Z</time></trkpt><trkpt lat="44.59485604213048" lon="7.902279281023067"><ele>258.0</ele><time>2026-04-12T08:55:32.999Z</time></trkpt><trkpt lat="44.59484198690761" lon="7.902179656787499"><ele>257.5</ele><time>2026-04-12T08:55:33.999Z</time></trkpt><trkpt lat="44.59481295014407" lon="7.90207656908375"><ele>257.0</ele><time>2026-04-12T08:55:34.999Z</time></trkpt><trkpt lat="44.59475823178854" lon="7.901984799944814"><ele>257.0</ele><time>2026-04-12T08:55:35.999Z</time></trkpt><trkpt lat="44.594678111451294" lon="7.901907395460733"><ele>257.0</ele><time>2026-04-12T08:55:36.999Z</time></trkpt><trkpt lat="44.594584761637925" lon="7.9018372554832546"><ele>257.0</ele><time>2026-04-12T08:55:37.999Z</time></trkpt><trkpt lat="44.59448764034027" lon="7.901769997730008"><ele>257.0</ele><time>2026-04-12T08:55:38.999Z</time></trkpt><trkpt lat="44.59438527014203" lon="7.901700535570055"><ele>257.0</ele><time>2026-04-12T08:55:39.999Z</time></trkpt><trkpt lat="44.594281368736624" lon="7.901623583068337"><ele>251.75</ele><time>2026-04-12T08:55:40.999Z</time></trkpt><trkpt lat="44.59417382456494" lon="7.901550499925472"><ele>246.5</ele><time>2026-04-12T08:55:41.999Z</time></trkpt><trkpt lat="44.594058166862894" lon="7.901484973827118"><ele>241.25</ele><time>2026-04-12T08:55:42.999Z</time></trkpt><trkpt lat="44.59394357437729" lon="7.9014182701580875"><ele>236.0</ele><time>2026-04-12T08:55:43.999Z</time></trkpt><trkpt lat="44.59382810002755" lon="7.901340984127255"><ele>236.0</ele><time>2026-04-12T08:55:44.999Z</time></trkpt><trkpt lat="44.593717624294904" lon="7.9012459572857425"><ele>236.0</ele><time>2026-04-12T08:55:45.999Z</time></trkpt><trkpt lat="44.59361064395978" lon="7.9011342306884025"><ele>236.0</ele><time>2026-04-12T08:55:46.999Z</time></trkpt><trkpt lat="44.593510886606246" lon="7.901011126619269"><ele>236.0</ele><time>2026-04-12T08:55:47.999Z</time></trkpt><trkpt lat="44.59341040373636" lon="7.900895876829327"><ele>234.25</ele><time>2026-04-12T08:55:48.999Z</time></trkpt><trkpt lat="44.59331288503645" lon="7.900779360553958"><ele>232.5</ele><time>2026-04-12T08:55:49.999Z</time></trkpt><trkpt lat="44.593220805037525" lon="7.900662575444267"><ele>230.75</ele><time>2026-04-12T08:55:50.999Z</time></trkpt><trkpt lat="44.59312968929708" lon="7.900547272524834"><ele>229.0</ele><time>2026-04-12T08:55:51.999Z</time></trkpt><trkpt lat="44.593038071336885" lon="7.900438078979321"><ele>229.0</ele><time>2026-04-12T08:55:52.999Z</time></trkpt><trkpt lat="44.59294888326948" lon="7.9003289888433015"><ele>228.99999999999997</ele><time>2026-04-12T08:55:53.999Z</time></trkpt><trkpt lat="44.59286496021405" lon="7.900226576733169"><ele>228.99999999999997</ele><time>2026-04-12T08:55:54.999Z</time></trkpt><trkpt lat="44.5927767089981" lon="7.900135874035787"><ele>229.0</ele><time>2026-04-12T08:55:55.999Z</time></trkpt><trkpt lat="44.59269154477748" lon="7.900061054766387"><ele>229.0</ele><time>2026-04-12T08:55:56.999Z</time></trkpt><trkpt lat="44.59261634985351" lon="7.899997356644207"><ele>228.16666666666666</ele><time>2026-04-12T08:55:57.999Z</time></trkpt><trkpt lat="44.5925457812993" lon="7.899940624620691"><ele>227.33333333333331</ele><time>2026-04-12T08:55:58.999Z</time></trkpt><trkpt lat="44.59247168168503" lon="7.89988781558864"><ele>226.5</ele><time>2026-04-12T08:55:59.999Z</time></trkpt><trkpt lat="44.59240412202394" lon="7.899822002044227"><ele>225.66666666666669</ele><time>2026-04-12T08:56:00.999Z</time></trkpt><trkpt lat="44.59233747826528" lon="7.899765087841662"><ele>224.83333333333334</ele><time>2026-04-12T08:56:01.999Z</time></trkpt><trkpt lat="44.59227541277156" lon="7.899692959182235"><ele>224.0</ele><time>2026-04-12T08:56:02.999Z</time></trkpt><trkpt lat="44.592223416253894" lon="7.899605120436133"><ele>224.00000000000003</ele><time>2026-04-12T08:56:03.999Z</time></trkpt><trkpt lat="44.592171654390164" lon="7.89951806289382"><ele>224.0</ele><time>2026-04-12T08:56:04.999Z</time></trkpt><trkpt lat="44.59212046840748" lon="7.89943388513538"><ele>224.0</ele><time>2026-04-12T08:56:05.999Z</time></trkpt><trkpt lat="44.59207693102305" lon="7.899340866416654"><ele>224.0</ele><time>2026-04-12T08:56:06.999Z</time></trkpt><trkpt lat="44.5920342886156" lon="7.899256710189542"><ele>224.00000000000003</ele><time>2026-04-12T08:56:07.999Z</time></trkpt><trkpt lat="44.59199389439211" lon="7.899177403253517"><ele>224.0</ele><time>2026-04-12T08:56:08.999Z</time></trkpt><trkpt lat="44.59194599400366" lon="7.8991060644667614"><ele>224.39999999999998</ele><time>2026-04-12T08:56:09.999Z</time></trkpt><trkpt lat="44.59190849504583" lon="7.899028096467906"><ele>224.79999999999998</ele><time>2026-04-12T08:56:10.999Z</time></trkpt><trkpt lat="44.59188132130481" lon="7.898889133526546"><ele>225.20000000000002</ele><time>2026-04-12T08:56:12.999Z</time></trkpt><trkpt lat="44.59196092584241" lon="7.898725332416685"><ele>225.60000000000002</ele><time>2026-04-12T08:56:16Z</time></trkpt><trkpt lat="44.59205103671294" lon="7.898658950865204"><ele>226.0</ele><time>2026-04-12T08:56:18Z</time></trkpt><trkpt lat="44.592141033978415" lon="7.898600782442148"><ele>226.0</ele><time>2026-04-12T08:56:20Z</time></trkpt><trkpt lat="44.59222899527594" lon="7.898533431593682"><ele>226.00000000000003</ele><time>2026-04-12T08:56:22Z</time></trkpt><trkpt lat="44.59232637370594" lon="7.898470528829914"><ele>226.00000000000003</ele><time>2026-04-12T08:56:24Z</time></trkpt><trkpt lat="44.59242307084054" lon="7.898407464435226"><ele>226.0</ele><time>2026-04-12T08:56:26Z</time></trkpt><trkpt lat="44.592518040748544" lon="7.898338993708315"><ele>226.0</ele><time>2026-04-12T08:56:28Z</time></trkpt><trkpt lat="44.59261550030925" lon="7.898270082382919"><ele>225.4</ele><time>2026-04-12T08:56:30Z</time></trkpt><trkpt lat="44.59271204859244" lon="7.89819645127962"><ele>224.8</ele><time>2026-04-12T08:56:32Z</time></trkpt><trkpt lat="44.59280783629515" lon="7.89812930522896"><ele>224.20000000000002</ele><time>2026-04-12T08:56:34Z</time></trkpt><trkpt lat="44.592905622100766" lon="7.898058017274749"><ele>223.60000000000002</ele><time>2026-04-12T08:56:36Z</time></trkpt><trkpt lat="44.59299977756439" lon="7.897969727713852"><ele>223.0</ele><time>2026-04-12T08:56:38Z</time></trkpt><trkpt lat="44.593104245610704" lon="7.897920914690475"><ele>223.0</ele><time>2026-04-12T08:56:40Z</time></trkpt><trkpt lat="44.5932043007841" lon="7.897864794744948"><ele>223.0</ele><time>2026-04-12T08:56:42Z</time></trkpt><trkpt lat="44.59330955714347" lon="7.8978183625932505"><ele>223.0</ele><time>2026-04-12T08:56:44Z</time></trkpt><trkpt lat="44.59341387321627" lon="7.897772842587606"><ele>223.0</ele><time>2026-04-12T08:56:46Z</time></trkpt><trkpt lat="44.5935160894882" lon="7.897724442223611"><ele>223.0</ele><time>2026-04-12T08:56:48Z</time></trkpt><trkpt lat="44.59361219372918" lon="7.897655579922573"><ele>223.0</ele><time>2026-04-12T08:56:50Z</time></trkpt><trkpt lat="44.593711277986074" lon="7.897595393323464"><ele>223.0</ele><time>2026-04-12T08:56:52Z</time></trkpt><trkpt lat="44.59381428263425" lon="7.897541561143594"><ele>223.0</ele><time>2026-04-12T08:56:54Z</time></trkpt><trkpt lat="44.59390909021739" lon="7.897459627291069"><ele>223.0</ele><time>2026-04-12T08:56:56Z</time></trkpt><trkpt lat="44.59400186203985" lon="7.897363475003932"><ele>223.0</ele><time>2026-04-12T08:56:58Z</time></trkpt><trkpt lat="44.59409566199976" lon="7.897265896092645"><ele>222.75</ele><time>2026-04-12T08:57:00Z</time></trkpt><trkpt lat="44.594186364750506" lon="7.897165897227778"><ele>222.5</ele><time>2026-04-12T08:57:02Z</time></trkpt><trkpt lat="44.59427467960656" lon="7.89705674973264"><ele>222.25</ele><time>2026-04-12T08:57:04Z</time></trkpt><trkpt lat="44.594360417070874" lon="7.896948917294426"><ele>222.0</ele><time>2026-04-12T08:57:06Z</time></trkpt><trkpt lat="44.594447970492965" lon="7.896844264168879"><ele>222.25</ele><time>2026-04-12T08:57:08Z</time></trkpt><trkpt lat="44.59453622036501" lon="7.896737021100026"><ele>222.5</ele><time>2026-04-12T08:57:10Z</time></trkpt><trkpt lat="44.594620721133786" lon="7.896627240232767"><ele>222.75</ele><time>2026-04-12T08:57:11.999Z</time></trkpt><trkpt lat="44.594701733051" lon="7.896521678345566"><ele>223.0</ele><time>2026-04-12T08:57:13.999Z</time></trkpt><trkpt lat="44.59478265757553" lon="7.896409760854151"><ele>223.0</ele><time>2026-04-12T08:57:15.999Z</time></trkpt><trkpt lat="44.594871206940276" lon="7.89630776162132"><ele>223.0</ele><time>2026-04-12T08:57:17.999Z</time></trkpt><trkpt lat="44.59495399542081" lon="7.896201491355021"><ele>223.0</ele><time>2026-04-12T08:57:19.999Z</time></trkpt><trkpt lat="44.59503581589537" lon="7.896094680315788"><ele>223.0</ele><time>2026-04-12T08:57:21.999Z</time></trkpt><trkpt lat="44.59511376527695" lon="7.895995085186122"><ele>223.0</ele><time>2026-04-12T08:57:23.999Z</time></trkpt><trkpt lat="44.59518831196544" lon="7.895893328781693"><ele>222.83333333333331</ele><time>2026-04-12T08:57:25.999Z</time></trkpt><trkpt lat="44.5952606791826" lon="7.895804177287602"><ele>222.66666666666666</ele><time>2026-04-12T08:57:27.999Z</time></trkpt><trkpt lat="44.59532650703064" lon="7.895719699077423"><ele>222.5</ele><time>2026-04-12T08:57:29.999Z</time></trkpt><trkpt lat="44.59538816283885" lon="7.895641299340288"><ele>222.33333333333331</ele><time>2026-04-12T08:57:31.999Z</time></trkpt><trkpt lat="44.59544513851846" lon="7.895570657504708"><ele>222.16666666666666</ele><time>2026-04-12T08:57:33.999Z</time></trkpt><trkpt lat="44.595503201255084" lon="7.895507935584659"><ele>222.0</ele><time>2026-04-12T08:57:35.999Z</time></trkpt><trkpt lat="44.59557130639682" lon="7.895425612974844"><ele>222.42857142857142</ele><time>2026-04-12T08:57:38.999Z</time></trkpt><trkpt lat="44.595635934831826" lon="7.895339283560293"><ele>222.8571428571429</ele><time>2026-04-12T08:57:41.999Z</time></trkpt><trkpt lat="44.59569754334398" lon="7.895263471150549"><ele>223.2857142857143</ele><time>2026-04-12T08:57:44.999Z</time></trkpt><trkpt lat="44.59574617509505" lon="7.895190609411311"><ele>223.71428571428572</ele><time>2026-04-12T08:57:47.999Z</time></trkpt><trkpt lat="44.59579732099307" lon="7.895129868904168"><ele>224.14285714285717</ele><time>2026-04-12T08:57:50.999Z</time></trkpt><trkpt lat="44.595851578102646" lon="7.8950704006013215"><ele>224.5714285714286</ele><time>2026-04-12T08:57:53.999Z</time></trkpt><trkpt lat="44.5958967516752" lon="7.894997460329345"><ele>225.00000000000003</ele><time>2026-04-12T08:57:56.999Z</time></trkpt><trkpt lat="44.59595743913966" lon="7.894943800569659"><ele>225.0</ele><time>2026-04-12T08:57:59.999Z</time></trkpt><trkpt lat="44.59602084190146" lon="7.894887133302255"><ele>225.0</ele><time>2026-04-12T08:58:02.999Z</time></trkpt><trkpt lat="44.596078583383864" lon="7.89481983291935"><ele>225.0</ele><time>2026-04-12T08:58:05.999Z</time></trkpt><trkpt lat="44.596142031623096" lon="7.894743055367727"><ele>225.0</ele><time>2026-04-12T08:58:08.999Z</time></trkpt><trkpt lat="44.5962152744932" lon="7.894666455053055"><ele>225.0</ele><time>2026-04-12T08:58:11.999Z</time></trkpt><trkpt lat="44.59626604923694" lon="7.894599031429898"><ele>225.0</ele><time>2026-04-12T08:58:13.999Z</time></trkpt><trkpt lat="44.59632318782129" lon="7.894535749095257"><ele>225.5</ele><time>2026-04-12T08:58:15.999Z</time></trkpt><trkpt lat="44.59639010270991" lon="7.894481260797079"><ele>226.0</ele><time>2026-04-12T08:58:17.999Z</time></trkpt><trkpt lat="44.596451219173275" lon="7.894410157251638"><ele>226.5</ele><time>2026-04-12T08:58:19.999Z</time></trkpt><trkpt lat="44.59651698946182" lon="7.894348652171596"><ele>227.0</ele><time>2026-04-12T08:58:22Z</time></trkpt><trkpt lat="44.59658213162736" lon="7.8942800726311"><ele>227.5</ele><time>2026-04-12T08:58:24Z</time></trkpt><trkpt lat="44.5966459571167" lon="7.894211660867524"><ele>228.0</ele><time>2026-04-12T08:58:26Z</time></trkpt><trkpt lat="44.5967048499758" lon="7.894129417132621"><ele>228.0</ele><time>2026-04-12T08:58:28Z</time></trkpt><trkpt lat="44.596773939099215" lon="7.894055939075685"><ele>228.0</ele><time>2026-04-12T08:58:30Z</time></trkpt><trkpt lat="44.596838849319845" lon="7.893978639770524"><ele>228.0</ele><time>2026-04-12T08:58:32Z</time></trkpt><trkpt lat="44.59690834265922" lon="7.8939019308068055"><ele>228.0</ele><time>2026-04-12T08:58:34Z</time></trkpt><trkpt lat="44.596980192485965" lon="7.8938282981548"><ele>228.0</ele><time>2026-04-12T08:58:36Z</time></trkpt><trkpt lat="44.59705139933272" lon="7.893760632474872"><ele>228.0</ele><time>2026-04-12T08:58:38Z</time></trkpt><trkpt lat="44.597119467913146" lon="7.893673988985037"><ele>227.8</ele><time>2026-04-12T08:58:40Z</time></trkpt><trkpt lat="44.59719170662848" lon="7.893587432879987"><ele>227.60000000000002</ele><time>2026-04-12T08:58:42Z</time></trkpt><trkpt lat="44.59726485435613" lon="7.893493756250142"><ele>227.39999999999998</ele><time>2026-04-12T08:58:44Z</time></trkpt><trkpt lat="44.59733234021788" lon="7.893399273413003"><ele>227.2</ele><time>2026-04-12T08:58:46Z</time></trkpt><trkpt lat="44.59739876863071" lon="7.893304598495225"><ele>227.0</ele><time>2026-04-12T08:58:48Z</time></trkpt><trkpt lat="44.597464488578034" lon="7.893215216857228"><ele>226.39999999999998</ele><time>2026-04-12T08:58:50Z</time></trkpt><trkpt lat="44.59752586171768" lon="7.893109084002461"><ele>225.79999999999998</ele><time>2026-04-12T08:58:52Z</time></trkpt><trkpt lat="44.59758223309272" lon="7.893009320949447"><ele>225.2</ele><time>2026-04-12T08:58:54Z</time></trkpt><trkpt lat="44.597652190007764" lon="7.892911194922074"><ele>224.6</ele><time>2026-04-12T08:58:56Z</time></trkpt><trkpt lat="44.59771354208367" lon="7.892801003361006"><ele>224.0</ele><time>2026-04-12T08:58:58Z</time></trkpt><trkpt lat="44.59777082109386" lon="7.892687381182924"><ele>224.39999999999998</ele><time>2026-04-12T08:59:00Z</time></trkpt><trkpt lat="44.59783431756376" lon="7.8925848620346555"><ele>224.79999999999998</ele><time>2026-04-12T08:59:02Z</time></trkpt><trkpt lat="44.59790452201755" lon="7.8925031058883315"><ele>225.20000000000002</ele><time>2026-04-12T08:59:04Z</time></trkpt><trkpt lat="44.59797969570228" lon="7.892413189075445"><ele>225.60000000000002</ele><time>2026-04-12T08:59:06Z</time></trkpt><trkpt lat="44.59805883688194" lon="7.8923377702547866"><ele>226.0</ele><time>2026-04-12T08:59:08Z</time></trkpt><trkpt lat="44.598131339504604" lon="7.892279236346315"><ele>225.99999999999997</ele><time>2026-04-12T08:59:10Z</time></trkpt><trkpt lat="44.59814288089011" lon="7.892179110114159"><ele>226.0</ele><time>2026-04-12T08:59:15.999Z</time></trkpt><trkpt lat="44.5981069608401" lon="7.892082337353649"><ele>226.0</ele><time>2026-04-12T08:59:18.999Z</time></trkpt><trkpt lat="44.598024812561526" lon="7.892041868493858"><ele>226.0</ele><time>2026-04-12T08:59:21.999Z</time></trkpt><trkpt lat="44.59795474243664" lon="7.8920141037974165"><ele>225.99999999999997</ele><time>2026-04-12T08:59:23.999Z</time></trkpt><trkpt lat="44.597873768169805" lon="7.8919786266078145"><ele>226.0</ele><time>2026-04-12T08:59:25.999Z</time></trkpt><trkpt lat="44.59779889412722" lon="7.891952420033311"><ele>226.0</ele><time>2026-04-12T08:59:27.999Z</time></trkpt><trkpt lat="44.59771906917636" lon="7.89192033137697"><ele>226.00000000000003</ele><time>2026-04-12T08:59:29.999Z</time></trkpt><trkpt lat="44.597635110480624" lon="7.891893288168712"><ele>226.00000000000003</ele><time>2026-04-12T08:59:31.999Z</time></trkpt><trkpt lat="44.59754572140693" lon="7.891868339904317"><ele>226.0</ele><time>2026-04-12T08:59:33.999Z</time></trkpt><trkpt lat="44.59745565849199" lon="7.8918166042168"><ele>226.0</ele><time>2026-04-12T08:59:35.999Z</time></trkpt><trkpt lat="44.59740320300358" lon="7.891694485985166"><ele>225.2857142857143</ele><time>2026-04-12T08:59:37.999Z</time></trkpt><trkpt lat="44.597431582200194" lon="7.891606364759209"><ele>224.57142857142856</ele><time>2026-04-12T08:59:38.999Z</time></trkpt><trkpt lat="44.59749076863894" lon="7.891551156521665"><ele>223.85714285714286</ele><time>2026-04-12T08:59:39.999Z</time></trkpt><trkpt lat="44.59755876839661" lon="7.891526446455395"><ele>223.14285714285717</ele><time>2026-04-12T08:59:40.999Z</time></trkpt><trkpt lat="44.59762115817777" lon="7.891506179159624"><ele>222.42857142857144</ele><time>2026-04-12T08:59:41.999Z</time></trkpt><trkpt lat="44.59768199162009" lon="7.89147967887925"><ele>221.71428571428572</ele><time>2026-04-12T08:59:42.999Z</time></trkpt><trkpt lat="44.59774061488404" lon="7.89144441864498"><ele>221.0</ele><time>2026-04-12T08:59:43.999Z</time></trkpt><trkpt lat="44.597799262964905" lon="7.891403407259601"><ele>221.2857142857143</ele><time>2026-04-12T08:59:44.999Z</time></trkpt><trkpt lat="44.59785483100081" lon="7.89135095629927"><ele>221.57142857142858</ele><time>2026-04-12T08:59:45.999Z</time></trkpt><trkpt lat="44.597908359027976" lon="7.891293034363928"><ele>221.85714285714286</ele><time>2026-04-12T08:59:46.999Z</time></trkpt><trkpt lat="44.597962519299614" lon="7.8912264874653415"><ele>222.14285714285717</ele><time>2026-04-12T08:59:47.999Z</time></trkpt><trkpt lat="44.59801207153453" lon="7.891145108456638"><ele>222.42857142857142</ele><time>2026-04-12T08:59:48.999Z</time></trkpt><trkpt lat="44.59805473142811" lon="7.891056037425569"><ele>222.71428571428572</ele><time>2026-04-12T08:59:49.999Z</time></trkpt><trkpt lat="44.59809259706542" lon="7.890958517747747"><ele>223.0</ele><time>2026-04-12T08:59:50.999Z</time></trkpt><trkpt lat="44.59812529087789" lon="7.890863766189632"><ele>222.33333333333331</ele><time>2026-04-12T08:59:51.999Z</time></trkpt><trkpt lat="44.59815531598564" lon="7.890760594335074"><ele>221.66666666666666</ele><time>2026-04-12T08:59:52.999Z</time></trkpt><trkpt lat="44.59818387009798" lon="7.890649977247679"><ele>221.0</ele><time>2026-04-12T08:59:53.999Z</time></trkpt><trkpt lat="44.59820719578162" lon="7.890544300116521"><ele>220.33333333333331</ele><time>2026-04-12T08:59:54.999Z</time></trkpt><trkpt lat="44.59823055931842" lon="7.890432523691509"><ele>219.66666666666666</ele><time>2026-04-12T08:59:55.999Z</time></trkpt><trkpt lat="44.59825409817586" lon="7.890319232178311"><ele>219.0</ele><time>2026-04-12T08:59:56.999Z</time></trkpt><trkpt lat="44.59827338358793" lon="7.89020537855639"><ele>218.79999999999998</ele><time>2026-04-12T08:59:57.999Z</time></trkpt><trkpt lat="44.598292942346596" lon="7.890084404081231"><ele>218.59999999999997</ele><time>2026-04-12T08:59:58.999Z</time></trkpt><trkpt lat="44.598313625226666" lon="7.889959823297263"><ele>218.4</ele><time>2026-04-12T08:59:59.999Z</time></trkpt><trkpt lat="44.59832798283381" lon="7.889834176047931"><ele>218.2</ele><time>2026-04-12T09:00:00.999Z</time></trkpt><trkpt lat="44.59834094261407" lon="7.889711658524817"><ele>218.0</ele><time>2026-04-12T09:00:01.999Z</time></trkpt><trkpt lat="44.59834968890825" lon="7.889581903926127"><ele>218.00000000000003</ele><time>2026-04-12T09:00:02.999Z</time></trkpt><trkpt lat="44.598358336976084" lon="7.889456070153383"><ele>218.0</ele><time>2026-04-12T09:00:03.999Z</time></trkpt><trkpt lat="44.59836108026472" lon="7.88933533282178"><ele>218.0</ele><time>2026-04-12T09:00:04.999Z</time></trkpt><trkpt lat="44.5983597378369" lon="7.889214131025142"><ele>218.0</ele><time>2026-04-12T09:00:05.999Z</time></trkpt><trkpt lat="44.598356722251104" lon="7.889095423257906"><ele>218.00000000000003</ele><time>2026-04-12T09:00:06.999Z</time></trkpt><trkpt lat="44.59835275549896" lon="7.88898045351362"><ele>218.0</ele><time>2026-04-12T09:00:07.999Z</time></trkpt><trkpt lat="44.598349001519175" lon="7.888864395517068"><ele>217.50000000000003</ele><time>2026-04-12T09:00:08.999Z</time></trkpt><trkpt lat="44.59834272902018" lon="7.888753666842955"><ele>217.0</ele><time>2026-04-12T09:00:09.999Z</time></trkpt><trkpt lat="44.59833540056107" lon="7.88864372487743"><ele>216.5</ele><time>2026-04-12T09:00:10.999Z</time></trkpt><trkpt lat="44.5983302714654" lon="7.888531906438861"><ele>216.0</ele><time>2026-04-12T09:00:11.999Z</time></trkpt><trkpt lat="44.59832174200273" lon="7.888426704813047"><ele>215.50000000000003</ele><time>2026-04-12T09:00:12.999Z</time></trkpt><trkpt lat="44.59830836892681" lon="7.888326158867624"><ele>215.0</ele><time>2026-04-12T09:00:13.999Z</time></trkpt><trkpt lat="44.59829402696017" lon="7.888220936058975"><ele>214.57142857142856</ele><time>2026-04-12T09:00:14.999Z</time></trkpt><trkpt lat="44.598282519730915" lon="7.888117456480719"><ele>214.14285714285717</ele><time>2026-04-12T09:00:15.999Z</time></trkpt><trkpt lat="44.59826624161" lon="7.888017900556338"><ele>213.71428571428572</ele><time>2026-04-12T09:00:16.999Z</time></trkpt><trkpt lat="44.59825265391529" lon="7.887920279808324"><ele>213.28571428571428</ele><time>2026-04-12T09:00:17.999Z</time></trkpt><trkpt lat="44.59823144420917" lon="7.887824149183311"><ele>212.85714285714283</ele><time>2026-04-12T09:00:18.999Z</time></trkpt><trkpt lat="44.59821071947141" lon="7.8877289327935545"><ele>212.42857142857144</ele><time>2026-04-12T09:00:19.999Z</time></trkpt><trkpt lat="44.59819191708314" lon="7.887629380945"><ele>212.0</ele><time>2026-04-12T09:00:20.999Z</time></trkpt><trkpt lat="44.598169638571015" lon="7.887537155752104"><ele>211.57142857142858</ele><time>2026-04-12T09:00:21.999Z</time></trkpt><trkpt lat="44.59814955825841" lon="7.887442138704903"><ele>211.14285714285714</ele><time>2026-04-12T09:00:22.999Z</time></trkpt><trkpt lat="44.59812981442766" lon="7.887350729421697"><ele>210.71428571428572</ele><time>2026-04-12T09:00:23.999Z</time></trkpt><trkpt lat="44.5981135778439" lon="7.8872579450400035"><ele>210.28571428571428</ele><time>2026-04-12T09:00:24.999Z</time></trkpt><trkpt lat="44.59809684684414" lon="7.887164816921112"><ele>209.85714285714283</ele><time>2026-04-12T09:00:25.999Z</time></trkpt><trkpt lat="44.59807277743435" lon="7.88707469676626"><ele>209.42857142857142</ele><time>2026-04-12T09:00:27Z</time></trkpt><trkpt lat="44.59805259459322" lon="7.88698097249553"><ele>209.0</ele><time>2026-04-12T09:00:28Z</time></trkpt><trkpt lat="44.59803458551896" lon="7.88689125627494"><ele>209.0</ele><time>2026-04-12T09:00:29Z</time></trkpt><trkpt lat="44.598018332036474" lon="7.886795439233451"><ele>209.0</ele><time>2026-04-12T09:00:30Z</time></trkpt><trkpt lat="44.59800172056919" lon="7.886702402950146"><ele>209.0</ele><time>2026-04-12T09:00:31Z</time></trkpt><trkpt lat="44.59798332020669" lon="7.886612442393819"><ele>209.0</ele><time>2026-04-12T09:00:32Z</time></trkpt><trkpt lat="44.597965824054505" lon="7.886520367126336"><ele>209.0</ele><time>2026-04-12T09:00:33Z</time></trkpt><trkpt lat="44.59794586449929" lon="7.886425461372726"><ele>209.0</ele><time>2026-04-12T09:00:34Z</time></trkpt><trkpt lat="44.59792800123632" lon="7.886334771378017"><ele>209.0</ele><time>2026-04-12T09:00:35Z</time></trkpt><trkpt lat="44.59791109826149" lon="7.88624311603937"><ele>209.14285714285714</ele><time>2026-04-12T09:00:36Z</time></trkpt><trkpt lat="44.597898411988375" lon="7.886149351091645"><ele>209.28571428571428</ele><time>2026-04-12T09:00:37Z</time></trkpt><trkpt lat="44.59788408649546" lon="7.886055462563453"><ele>209.42857142857144</ele><time>2026-04-12T09:00:38Z</time></trkpt><trkpt lat="44.597869831605344" lon="7.88595971549611"><ele>209.57142857142856</ele><time>2026-04-12T09:00:39Z</time></trkpt><trkpt lat="44.59785252025305" lon="7.885874525654888"><ele>209.71428571428572</ele><time>2026-04-12T09:00:40Z</time></trkpt><trkpt lat="44.597835434251124" lon="7.885781688273396"><ele>209.85714285714286</ele><time>2026-04-12T09:00:41Z</time></trkpt><trkpt lat="44.5978218856492" lon="7.885689800153805"><ele>210.0</ele><time>2026-04-12T09:00:42Z</time></trkpt><trkpt lat="44.597809174855" lon="7.8855945406427175"><ele>210.0</ele><time>2026-04-12T09:00:43Z</time></trkpt><trkpt lat="44.597797137447465" lon="7.885500162170764"><ele>210.0</ele><time>2026-04-12T09:00:44Z</time></trkpt><trkpt lat="44.59778248766794" lon="7.885407583598743"><ele>210.0</ele><time>2026-04-12T09:00:45Z</time></trkpt><trkpt lat="44.597773435839066" lon="7.88531936650556"><ele>210.0</ele><time>2026-04-12T09:00:46Z</time></trkpt><trkpt lat="44.59776591977176" lon="7.885227775179107"><ele>210.0</ele><time>2026-04-12T09:00:47Z</time></trkpt><trkpt lat="44.59775830468242" lon="7.885135113389991"><ele>210.0</ele><time>2026-04-12T09:00:48Z</time></trkpt><trkpt lat="44.59774763343369" lon="7.885044885508803"><ele>210.0</ele><time>2026-04-12T09:00:49Z</time></trkpt><trkpt lat="44.59774411526598" lon="7.884951278741457"><ele>210.0</ele><time>2026-04-12T09:00:50Z</time></trkpt><trkpt lat="44.59773938324077" lon="7.884860907759974"><ele>210.0</ele><time>2026-04-12T09:00:51Z</time></trkpt><trkpt lat="44.597733610349316" lon="7.884767835882717"><ele>210.0</ele><time>2026-04-12T09:00:52Z</time></trkpt><trkpt lat="44.597731486383445" lon="7.884674946597917"><ele>210.0</ele><time>2026-04-12T09:00:53Z</time></trkpt><trkpt lat="44.5977274769022" lon="7.884583225036264"><ele>210.0</ele><time>2026-04-12T09:00:54Z</time></trkpt><trkpt lat="44.59772620583385" lon="7.884492645862098"><ele>210.0</ele><time>2026-04-12T09:00:55Z</time></trkpt><trkpt lat="44.59772836716334" lon="7.884325462954853"><ele>210.0</ele><time>2026-04-12T09:00:57Z</time></trkpt><trkpt lat="44.59773890788601" lon="7.884162447985327"><ele>210.25</ele><time>2026-04-12T09:00:59Z</time></trkpt><trkpt lat="44.59773374009468" lon="7.8839998042893455"><ele>210.5</ele><time>2026-04-12T09:01:01Z</time></trkpt><trkpt lat="44.59773739034708" lon="7.883852608428511"><ele>210.75</ele><time>2026-04-12T09:01:03Z</time></trkpt><trkpt lat="44.597730445824496" lon="7.883714309290402"><ele>211.0</ele><time>2026-04-12T09:01:05Z</time></trkpt><trkpt lat="44.59757530837381" lon="7.883688885223441"><ele>211.0</ele><time>2026-04-12T09:01:08Z</time></trkpt><trkpt lat="44.597532115622606" lon="7.883842083681678"><ele>211.0</ele><time>2026-04-12T09:01:10Z</time></trkpt><trkpt lat="44.59751178048346" lon="7.884001629467169"><ele>211.0</ele><time>2026-04-12T09:01:12Z</time></trkpt><trkpt lat="44.59749748383733" lon="7.884181726926207"><ele>211.0</ele><time>2026-04-12T09:01:14Z</time></trkpt><trkpt lat="44.59749312907031" lon="7.8842788660195176"><ele>211.0</ele><time>2026-04-12T09:01:14.999Z</time></trkpt><trkpt lat="44.597490710888955" lon="7.88438056731375"><ele>210.83333333333331</ele><time>2026-04-12T09:01:15.999Z</time></trkpt><trkpt lat="44.597493062550214" lon="7.884484151320066"><ele>210.66666666666666</ele><time>2026-04-12T09:01:16.999Z</time></trkpt><trkpt lat="44.59749355350515" lon="7.884588873941463"><ele>210.5</ele><time>2026-04-12T09:01:17.999Z</time></trkpt><trkpt lat="44.59749284020585" lon="7.88469277236959"><ele>210.33333333333331</ele><time>2026-04-12T09:01:18.999Z</time></trkpt><trkpt lat="44.597488346939805" lon="7.8847997362764755"><ele>210.16666666666666</ele><time>2026-04-12T09:01:19.999Z</time></trkpt><trkpt lat="44.597478733295965" lon="7.884904646270766"><ele>210.0</ele><time>2026-04-12T09:01:20.999Z</time></trkpt><trkpt lat="44.59746229416881" lon="7.885010296888181"><ele>210.0</ele><time>2026-04-12T09:01:21.999Z</time></trkpt><trkpt lat="44.59741555046536" lon="7.885097785084655"><ele>210.0</ele><time>2026-04-12T09:01:22.999Z</time></trkpt><trkpt lat="44.597379400998975" lon="7.885190275415337"><ele>210.0</ele><time>2026-04-12T09:01:23.999Z</time></trkpt><trkpt lat="44.59735150924609" lon="7.885293727310187"><ele>210.0</ele><time>2026-04-12T09:01:24.999Z</time></trkpt><trkpt lat="44.59730810070931" lon="7.885370192015891"><ele>210.0</ele><time>2026-04-12T09:01:25.999Z</time></trkpt><trkpt lat="44.59726140170456" lon="7.8854441083876035"><ele>210.0</ele><time>2026-04-12T09:01:26.999Z</time></trkpt><trkpt lat="44.59722469120532" lon="7.885517438274158"><ele>210.0</ele><time>2026-04-12T09:01:27.999Z</time></trkpt><trkpt lat="44.59714917239691" lon="7.885645000615104"><ele>210.0</ele><time>2026-04-12T09:01:29.999Z</time></trkpt><trkpt lat="44.59708494772234" lon="7.885755380260592"><ele>210.0</ele><time>2026-04-12T09:01:31.999Z</time></trkpt><trkpt lat="44.597012875985385" lon="7.885858305535652"><ele>210.0</ele><time>2026-04-12T09:01:33.999Z</time></trkpt><trkpt lat="44.596943287203835" lon="7.885956297129394"><ele>210.0</ele><time>2026-04-12T09:01:35.999Z</time></trkpt><trkpt lat="44.59687324124786" lon="7.8860619728445265"><ele>210.0</ele><time>2026-04-12T09:01:37.999Z</time></trkpt><trkpt lat="44.596801825194355" lon="7.886161283343109"><ele>209.8</ele><time>2026-04-12T09:01:39.999Z</time></trkpt><trkpt lat="44.596731171355884" lon="7.8862559670230015"><ele>209.6</ele><time>2026-04-12T09:01:41.999Z</time></trkpt><trkpt lat="44.59665725458784" lon="7.886350928772446"><ele>209.39999999999998</ele><time>2026-04-12T09:01:43.999Z</time></trkpt><trkpt lat="44.596591596080216" lon="7.886449138556742"><ele>209.2</ele><time>2026-04-12T09:01:45.999Z</time></trkpt><trkpt lat="44.59652618367994" lon="7.886527435938413"><ele>209.0</ele><time>2026-04-12T09:01:47.999Z</time></trkpt><trkpt lat="44.59646462302197" lon="7.88659217022362"><ele>209.00000000000003</ele><time>2026-04-12T09:01:49.999Z</time></trkpt><trkpt lat="44.59640617063949" lon="7.886652211130632"><ele>209.0</ele><time>2026-04-12T09:01:51.999Z</time></trkpt><trkpt lat="44.596331928666864" lon="7.886691425082668"><ele>209.0</ele><time>2026-04-12T09:01:53.999Z</time></trkpt><trkpt lat="44.59624475936879" lon="7.8867080355016075"><ele>209.0</ele><time>2026-04-12T09:01:55.999Z</time></trkpt><trkpt lat="44.596157275888174" lon="7.886713405817306"><ele>209.00000000000003</ele><time>2026-04-12T09:01:57.999Z</time></trkpt><trkpt lat="44.59606480887254" lon="7.886725326873287"><ele>209.0</ele><time>2026-04-12T09:01:59.999Z</time></trkpt><trkpt lat="44.59596679350431" lon="7.886732499311566"><ele>209.2</ele><time>2026-04-12T09:02:01.999Z</time></trkpt><trkpt lat="44.59587477063181" lon="7.886747786120168"><ele>209.39999999999998</ele><time>2026-04-12T09:02:03.999Z</time></trkpt><trkpt lat="44.59577200158854" lon="7.886760936976099"><ele>209.6</ele><time>2026-04-12T09:02:05.999Z</time></trkpt><trkpt lat="44.59565957227034" lon="7.886778066433944"><ele>209.8</ele><time>2026-04-12T09:02:07.999Z</time></trkpt><trkpt lat="44.595539861373716" lon="7.886803518632228"><ele>210.0</ele><time>2026-04-12T09:02:09.999Z</time></trkpt><trkpt lat="44.595424198717055" lon="7.886837742486462"><ele>210.0</ele><time>2026-04-12T09:02:11.999Z</time></trkpt><trkpt lat="44.59531614223783" lon="7.886894119431859"><ele>210.0</ele><time>2026-04-12T09:02:13.999Z</time></trkpt><trkpt lat="44.59521175008688" lon="7.886926967187828"><ele>210.0</ele><time>2026-04-12T09:02:15.999Z</time></trkpt><trkpt lat="44.595098791877895" lon="7.8869473971172726"><ele>210.0</ele><time>2026-04-12T09:02:17.999Z</time></trkpt><trkpt lat="44.59498214417939" lon="7.886959095914272"><ele>210.0</ele><time>2026-04-12T09:02:19.999Z</time></trkpt><trkpt lat="44.594872141223256" lon="7.886959454063933"><ele>210.0</ele><time>2026-04-12T09:02:21.999Z</time></trkpt><trkpt lat="44.594775023322306" lon="7.886967089509029"><ele>210.0</ele><time>2026-04-12T09:02:23.999Z</time></trkpt><trkpt lat="44.59467721298385" lon="7.886962245897196"><ele>210.0</ele><time>2026-04-12T09:02:25.999Z</time></trkpt><trkpt lat="44.59457332049862" lon="7.886944847264304"><ele>210.0</ele><time>2026-04-12T09:02:27.999Z</time></trkpt><trkpt lat="44.59446773531103" lon="7.886926827152361"><ele>210.2</ele><time>2026-04-12T09:02:29.999Z</time></trkpt><trkpt lat="44.594357038014195" lon="7.886893932529378"><ele>210.4</ele><time>2026-04-12T09:02:31.999Z</time></trkpt><trkpt lat="44.59425294614236" lon="7.886863012081874"><ele>210.60000000000002</ele><time>2026-04-12T09:02:34Z</time></trkpt><trkpt lat="44.59414745414807" lon="7.886843444970425"><ele>210.8</ele><time>2026-04-12T09:02:36Z</time></trkpt><trkpt lat="44.59404616664599" lon="7.886817773296956"><ele>211.0</ele><time>2026-04-12T09:02:38Z</time></trkpt><trkpt lat="44.59394180906198" lon="7.886792640828582"><ele>211.0</ele><time>2026-04-12T09:02:40Z</time></trkpt><trkpt lat="44.59383524668216" lon="7.886769028618779"><ele>211.0</ele><time>2026-04-12T09:02:42Z</time></trkpt><trkpt lat="44.59373972673834" lon="7.886753012372719"><ele>211.0</ele><time>2026-04-12T09:02:44Z</time></trkpt><trkpt lat="44.59364442893648" lon="7.886726122115722"><ele>211.0</ele><time>2026-04-12T09:02:46Z</time></trkpt><trkpt lat="44.59354717500855" lon="7.886696294119611"><ele>211.0</ele><time>2026-04-12T09:02:48Z</time></trkpt><trkpt lat="44.59345022449336" lon="7.886677858296631"><ele>211.0</ele><time>2026-04-12T09:02:50Z</time></trkpt><trkpt lat="44.59335855346581" lon="7.886649212713285"><ele>211.0</ele><time>2026-04-12T09:02:52Z</time></trkpt><trkpt lat="44.59327444078931" lon="7.886602990598512"><ele>211.0</ele><time>2026-04-12T09:02:54Z</time></trkpt><trkpt lat="44.59318367408392" lon="7.88659521118144"><ele>211.0</ele><time>2026-04-12T09:02:56Z</time></trkpt><trkpt lat="44.59309473023162" lon="7.886546497735398"><ele>211.0</ele><time>2026-04-12T09:02:58Z</time></trkpt><trkpt lat="44.59299469240563" lon="7.886527230673161"><ele>211.0</ele><time>2026-04-12T09:03:00Z</time></trkpt><trkpt lat="44.59290345885705" lon="7.886470642206239"><ele>211.0</ele><time>2026-04-12T09:03:02Z</time></trkpt><trkpt lat="44.59281465927788" lon="7.886410312470839"><ele>211.0</ele><time>2026-04-12T09:03:04Z</time></trkpt><trkpt lat="44.59273673635964" lon="7.886323515504756"><ele>211.0</ele><time>2026-04-12T09:03:06Z</time></trkpt><trkpt lat="44.592668388057014" lon="7.886206300157085"><ele>211.0</ele><time>2026-04-12T09:03:08Z</time></trkpt><trkpt lat="44.59263157216192" lon="7.886071234726285"><ele>210.99999999999997</ele><time>2026-04-12T09:03:10Z</time></trkpt><trkpt lat="44.59260558476485" lon="7.885945701593279"><ele>211.0</ele><time>2026-04-12T09:03:12Z</time></trkpt><trkpt lat="44.59258481750477" lon="7.885832673957985"><ele>211.0</ele><time>2026-04-12T09:03:14Z</time></trkpt><trkpt lat="44.59256712850043" lon="7.885730132938394"><ele>211.0</ele><time>2026-04-12T09:03:16Z</time></trkpt><trkpt lat="44.59255611510519" lon="7.885626889176247"><ele>210.99999999999997</ele><time>2026-04-12T09:03:18Z</time></trkpt><trkpt lat="44.59254093238427" lon="7.885526782875262"><ele>211.0</ele><time>2026-04-12T09:03:20Z</time></trkpt><trkpt lat="44.592530098547975" lon="7.88542672717694"><ele>211.57142857142858</ele><time>2026-04-12T09:03:22Z</time></trkpt><trkpt lat="44.592510382173934" lon="7.885333340640119"><ele>212.14285714285717</ele><time>2026-04-12T09:03:24Z</time></trkpt><trkpt lat="44.592495335626786" lon="7.885239971290112"><ele>212.71428571428572</ele><time>2026-04-12T09:03:25.999Z</time></trkpt><trkpt lat="44.5924806198857" lon="7.885147348607029"><ele>213.28571428571428</ele><time>2026-04-12T09:03:27.999Z</time></trkpt><trkpt lat="44.59246552477412" lon="7.8850517036458285"><ele>213.85714285714286</ele><time>2026-04-12T09:03:29.999Z</time></trkpt><trkpt lat="44.59245489512395" lon="7.884956348457671"><ele>214.42857142857142</ele><time>2026-04-12T09:03:31.999Z</time></trkpt><trkpt lat="44.592434557825094" lon="7.8848681784182695"><ele>215.0</ele><time>2026-04-12T09:03:33.999Z</time></trkpt><trkpt lat="44.592425875796856" lon="7.8847695960497814"><ele>215.33333333333334</ele><time>2026-04-12T09:03:35.999Z</time></trkpt><trkpt lat="44.59240512576098" lon="7.884644669831774"><ele>215.66666666666669</ele><time>2026-04-12T09:03:38.999Z</time></trkpt><trkpt lat="44.59239738228768" lon="7.884536907217626"><ele>216.0</ele><time>2026-04-12T09:03:41.999Z</time></trkpt><trkpt lat="44.592379355674396" lon="7.884437618027073"><ele>216.33333333333331</ele><time>2026-04-12T09:03:44.999Z</time></trkpt><trkpt lat="44.592371394460734" lon="7.884338644461084"><ele>216.66666666666666</ele><time>2026-04-12T09:03:47.999Z</time></trkpt><trkpt lat="44.59235605941299" lon="7.8842431153982515"><ele>217.0</ele><time>2026-04-12T09:03:50.999Z</time></trkpt><trkpt lat="44.592338741625525" lon="7.884151110904998"><ele>217.85714285714286</ele><time>2026-04-12T09:03:53.999Z</time></trkpt><trkpt lat="44.59232488913146" lon="7.884041862538478"><ele>218.71428571428572</ele><time>2026-04-12T09:03:57.999Z</time></trkpt><trkpt lat="44.592308831292144" lon="7.88393037447378"><ele>219.57142857142856</ele><time>2026-04-12T09:04:01.999Z</time></trkpt><trkpt lat="44.59229097529105" lon="7.883830257312082"><ele>220.42857142857144</ele><time>2026-04-12T09:04:05.999Z</time></trkpt><trkpt lat="44.59227641267195" lon="7.883730504807836"><ele>221.28571428571428</ele><time>2026-04-12T09:04:09.999Z</time></trkpt><trkpt lat="44.59228079443294" lon="7.883635864177032"><ele>222.14285714285714</ele><time>2026-04-12T09:04:13.999Z</time></trkpt><trkpt lat="44.59229475559127" lon="7.883543276909401"><ele>223.0</ele><time>2026-04-12T09:04:17.999Z</time></trkpt><trkpt lat="44.59231075420172" lon="7.883450362196842"><ele>223.28571428571428</ele><time>2026-04-12T09:04:20.999Z</time></trkpt><trkpt lat="44.592324876038475" lon="7.883348414542975"><ele>223.57142857142856</ele><time>2026-04-12T09:04:23.999Z</time></trkpt><trkpt lat="44.59233780396344" lon="7.883253159314763"><ele>223.8571428571429</ele><time>2026-04-12T09:04:26.999Z</time></trkpt><trkpt lat="44.592355060192624" lon="7.8831649258002106"><ele>224.14285714285717</ele><time>2026-04-12T09:04:29.999Z</time></trkpt><trkpt lat="44.592363940424065" lon="7.883067061225998"><ele>224.42857142857144</ele><time>2026-04-12T09:04:32.999Z</time></trkpt><trkpt lat="44.59238368361694" lon="7.882978770558726"><ele>224.71428571428575</ele><time>2026-04-12T09:04:35.999Z</time></trkpt><trkpt lat="44.592401369598" lon="7.882884712076375"><ele>225.00000000000003</ele><time>2026-04-12T09:04:39Z</time></trkpt><trkpt lat="44.59242483677043" lon="7.882795042202682"><ele>225.0</ele><time>2026-04-12T09:04:42Z</time></trkpt><trkpt lat="44.59244540761277" lon="7.882706224818005"><ele>225.0</ele><time>2026-04-12T09:04:45Z</time></trkpt><trkpt lat="44.59247007371151" lon="7.88261790941307"><ele>225.0</ele><time>2026-04-12T09:04:48Z</time></trkpt><trkpt lat="44.59249446339949" lon="7.882508030222598"><ele>225.0</ele><time>2026-04-12T09:04:52Z</time></trkpt><trkpt lat="44.59251978687005" lon="7.882406010011251"><ele>225.0</ele><time>2026-04-12T09:04:56Z</time></trkpt><trkpt lat="44.59254806593515" lon="7.882296510601"><ele>225.0</ele><time>2026-04-12T09:05:00Z</time></trkpt><trkpt lat="44.592575372811915" lon="7.882184076187204"><ele>225.33333333333334</ele><time>2026-04-12T09:05:04Z</time></trkpt><trkpt lat="44.59259224625955" lon="7.882097219622459"><ele>225.66666666666669</ele><time>2026-04-12T09:05:07Z</time></trkpt><trkpt lat="44.59262006225496" lon="7.881987083530763"><ele>226.0</ele><time>2026-04-12T09:05:11Z</time></trkpt><trkpt lat="44.59264829683035" lon="7.881878925733922"><ele>226.33333333333334</ele><time>2026-04-12T09:05:15Z</time></trkpt><trkpt lat="44.592674928751464" lon="7.8817727277172525"><ele>226.66666666666669</ele><time>2026-04-12T09:05:19Z</time></trkpt><trkpt lat="44.59270540705535" lon="7.881669095856588"><ele>227.0</ele><time>2026-04-12T09:05:23Z</time></trkpt><trkpt lat="44.59272834624988" lon="7.881562594228545"><ele>227.57142857142858</ele><time>2026-04-12T09:05:27Z</time></trkpt><trkpt lat="44.59275902013177" lon="7.881462368954126"><ele>228.14285714285717</ele><time>2026-04-12T09:05:31Z</time></trkpt><trkpt lat="44.59279208108299" lon="7.881358382888953"><ele>228.71428571428572</ele><time>2026-04-12T09:05:36Z</time></trkpt><trkpt lat="44.59283626171321" lon="7.881283799075029"><ele>229.28571428571428</ele><time>2026-04-12T09:05:38.999Z</time></trkpt><trkpt lat="44.59289345911536" lon="7.881217720988414"><ele>229.85714285714286</ele><time>2026-04-12T09:05:42.999Z</time></trkpt><trkpt lat="44.59295440898064" lon="7.881183775749049"><ele>230.42857142857144</ele><time>2026-04-12T09:05:46.999Z</time></trkpt><trkpt lat="44.59303464403649" lon="7.881159969659728"><ele>231.0</ele><time>2026-04-12T09:05:50.999Z</time></trkpt><trkpt lat="44.593098433267016" lon="7.881151792915769"><ele>231.57142857142856</ele><time>2026-04-12T09:05:54.999Z</time></trkpt><trkpt lat="44.59317407369634" lon="7.88114614396798"><ele>232.14285714285714</ele><time>2026-04-12T09:05:58.999Z</time></trkpt><trkpt lat="44.59323951772913" lon="7.881142600022892"><ele>232.71428571428572</ele><time>2026-04-12T09:06:01.999Z</time></trkpt><trkpt lat="44.59330691641404" lon="7.88114447137776"><ele>233.28571428571428</ele><time>2026-04-12T09:06:04.999Z</time></trkpt><trkpt lat="44.593385826880095" lon="7.881142017245758"><ele>233.85714285714283</ele><time>2026-04-12T09:06:08.999Z</time></trkpt><trkpt lat="44.59346006747879" lon="7.88112933681683"><ele>234.42857142857142</ele><time>2026-04-12T09:06:12.999Z</time></trkpt><trkpt lat="44.593530250396185" lon="7.881124701420429"><ele>235.0</ele><time>2026-04-12T09:06:16.999Z</time></trkpt><trkpt lat="44.59359313980328" lon="7.881106788298957"><ele>235.0</ele><time>2026-04-12T09:06:20.999Z</time></trkpt><trkpt lat="44.59366104550089" lon="7.881065011648002"><ele>234.99999999999997</ele><time>2026-04-12T09:06:24.999Z</time></trkpt><trkpt lat="44.59372313707047" lon="7.881001116014024"><ele>235.0</ele><time>2026-04-12T09:06:28.999Z</time></trkpt><trkpt lat="44.5937465277798" lon="7.880914964836706"><ele>235.0</ele><time>2026-04-12T09:06:31.999Z</time></trkpt><trkpt lat="44.59378653188829" lon="7.880818979250151"><ele>234.99999999999997</ele><time>2026-04-12T09:06:35.999Z</time></trkpt><trkpt lat="44.59379303063664" lon="7.880716258696331"><ele>235.0</ele><time>2026-04-12T09:06:39.999Z</time></trkpt><trkpt lat="44.59374214315994" lon="7.880633503632461"><ele>235.0</ele><time>2026-04-12T09:06:43.999Z</time></trkpt><trkpt lat="44.593672680550384" lon="7.880576710586421"><ele>236.83333333333331</ele><time>2026-04-12T09:06:48Z</time></trkpt><trkpt lat="44.59363615718651" lon="7.880500621766133"><ele>238.66666666666666</ele><time>2026-04-12T09:06:51Z</time></trkpt><trkpt lat="44.59360199621194" lon="7.880397676189569"><ele>240.5</ele><time>2026-04-12T09:06:55Z</time></trkpt><trkpt lat="44.5935765878259" lon="7.880316125277867"><ele>242.33333333333331</ele><time>2026-04-12T09:06:58Z</time></trkpt><trkpt lat="44.593536370905774" lon="7.880218244018605"><ele>244.16666666666666</ele><time>2026-04-12T09:07:02Z</time></trkpt><trkpt lat="44.59350400893128" lon="7.880114697745187"><ele>246.0</ele><time>2026-04-12T09:07:06Z</time></trkpt><trkpt lat="44.59346737704944" lon="7.880014899500917"><ele>247.00000000000003</ele><time>2026-04-12T09:07:10Z</time></trkpt><trkpt lat="44.59344119457086" lon="7.879912392454501"><ele>248.0</ele><time>2026-04-12T09:07:14Z</time></trkpt><trkpt lat="44.593411725540015" lon="7.879832797162733"><ele>249.00000000000003</ele><time>2026-04-12T09:07:17Z</time></trkpt><trkpt lat="44.59337229069673" lon="7.879733213176256"><ele>250.00000000000003</ele><time>2026-04-12T09:07:21Z</time></trkpt><trkpt lat="44.59336275063954" lon="7.8796275735592625"><ele>251.0</ele><time>2026-04-12T09:07:25Z</time></trkpt><trkpt lat="44.59335431999545" lon="7.879525648014365"><ele>252.00000000000003</ele><time>2026-04-12T09:07:29Z</time></trkpt><trkpt lat="44.59335270321723" lon="7.8794181176061135"><ele>253.00000000000003</ele><time>2026-04-12T09:07:33Z</time></trkpt><trkpt lat="44.59336366648444" lon="7.879330447566128"><ele>253.83333333333331</ele><time>2026-04-12T09:07:36Z</time></trkpt><trkpt lat="44.59338450962096" lon="7.879229350966111"><ele>254.66666666666666</ele><time>2026-04-12T09:07:39.999Z</time></trkpt><trkpt lat="44.593398200658854" lon="7.87912164457088"><ele>255.5</ele><time>2026-04-12T09:07:43.999Z</time></trkpt><trkpt lat="44.59341210230582" lon="7.879014609718086"><ele>256.3333333333333</ele><time>2026-04-12T09:07:47.999Z</time></trkpt><trkpt lat="44.59343930581042" lon="7.878911073722845"><ele>257.1666666666667</ele><time>2026-04-12T09:07:51.999Z</time></trkpt><trkpt lat="44.59346490608685" lon="7.878805744946522"><ele>258.0</ele><time>2026-04-12T09:07:55.999Z</time></trkpt><trkpt lat="44.593483762709496" lon="7.878693403212257"><ele>258.0</ele><time>2026-04-12T09:07:59.999Z</time></trkpt><trkpt lat="44.5935087142828" lon="7.878588678732253"><ele>258.0</ele><time>2026-04-12T09:08:03.999Z</time></trkpt><trkpt lat="44.593532405023915" lon="7.878487414820705"><ele>258.0</ele><time>2026-04-12T09:08:07.999Z</time></trkpt><trkpt lat="44.59355179205725" lon="7.8783827014271965"><ele>258.0</ele><time>2026-04-12T09:08:11.999Z</time></trkpt><trkpt lat="44.59357163966936" lon="7.8782790354307535"><ele>258.0</ele><time>2026-04-12T09:08:15.999Z</time></trkpt><trkpt lat="44.593590385152986" lon="7.878165487693568"><ele>258.0</ele><time>2026-04-12T09:08:19.999Z</time></trkpt><trkpt lat="44.593603099799594" lon="7.878059418755108"><ele>258.3333333333333</ele><time>2026-04-12T09:08:23.999Z</time></trkpt><trkpt lat="44.59363025349712" lon="7.8779499415519405"><ele>258.6666666666667</ele><time>2026-04-12T09:08:27.999Z</time></trkpt><trkpt lat="44.59365577361451" lon="7.877845052601479"><ele>259.0</ele><time>2026-04-12T09:08:31.999Z</time></trkpt><trkpt lat="44.593670495057914" lon="7.877734178043422"><ele>259.33333333333337</ele><time>2026-04-12T09:08:35.999Z</time></trkpt><trkpt lat="44.59369086398877" lon="7.877630124448922"><ele>259.6666666666667</ele><time>2026-04-12T09:08:39.999Z</time></trkpt><trkpt lat="44.59371406763006" lon="7.877521781153344"><ele>260.0</ele><time>2026-04-12T09:08:43.999Z</time></trkpt><trkpt lat="44.593738861199675" lon="7.87741299913797"><ele>263.7142857142857</ele><time>2026-04-12T09:08:47.999Z</time></trkpt><trkpt lat="44.593754776430565" lon="7.877324121998067"><ele>267.42857142857144</ele><time>2026-04-12T09:08:52Z</time></trkpt><trkpt lat="44.5937664953241" lon="7.877210984890243"><ele>271.1428571428571</ele><time>2026-04-12T09:08:56Z</time></trkpt><trkpt lat="44.593789711839335" lon="7.877109903849418"><ele>274.8571428571429</ele><time>2026-04-12T09:08:59Z</time></trkpt><trkpt lat="44.59380720752901" lon="7.877011194444693"><ele>278.57142857142856</ele><time>2026-04-12T09:09:03Z</time></trkpt><trkpt lat="44.593829238471244" lon="7.876908894660151"><ele>282.2857142857143</ele><time>2026-04-12T09:09:06Z</time></trkpt><trkpt lat="44.593841782394456" lon="7.876800873102915"><ele>286.0</ele><time>2026-04-12T09:09:10Z</time></trkpt><trkpt lat="44.593867984656235" lon="7.8767093844286356"><ele>286.0</ele><time>2026-04-12T09:09:14Z</time></trkpt><trkpt lat="44.593932453266106" lon="7.876673206763994"><ele>286.0</ele><time>2026-04-12T09:09:18Z</time></trkpt><trkpt lat="44.59399894243953" lon="7.876728476232848"><ele>286.0</ele><time>2026-04-12T09:09:22Z</time></trkpt><trkpt lat="44.59401640077638" lon="7.8768216961719055"><ele>286.0</ele><time>2026-04-12T09:09:26Z</time></trkpt><trkpt lat="44.59403445507685" lon="7.876929530524528"><ele>286.0</ele><time>2026-04-12T09:09:30Z</time></trkpt><trkpt lat="44.594030331663646" lon="7.877040253061894"><ele>286.0</ele><time>2026-04-12T09:09:33Z</time></trkpt><trkpt lat="44.594055432204414" lon="7.877143618543415"><ele>285.99999999999994</ele><time>2026-04-12T09:09:37Z</time></trkpt><trkpt lat="44.594056938970745" lon="7.877235001723075"><ele>286.0</ele><time>2026-04-12T09:09:40Z</time></trkpt><trkpt lat="44.594066047780856" lon="7.8773242647610475"><ele>286.0</ele><time>2026-04-12T09:09:43Z</time></trkpt><trkpt lat="44.59407333780228" lon="7.8774355208375795"><ele>286.0</ele><time>2026-04-12T09:09:46.999Z</time></trkpt><trkpt lat="44.594077396515075" lon="7.877526685703261"><ele>286.0</ele><time>2026-04-12T09:09:49.999Z</time></trkpt><trkpt lat="44.59408907502945" lon="7.877633767761422"><ele>285.99999999999994</ele><time>2026-04-12T09:09:53.999Z</time></trkpt><trkpt lat="44.594098673290624" lon="7.877743274632281"><ele>286.0</ele><time>2026-04-12T09:09:57.999Z</time></trkpt><trkpt lat="44.59410429712467" lon="7.877833945241437"><ele>285.99999999999994</ele><time>2026-04-12T09:10:01.999Z</time></trkpt><trkpt lat="44.594112655174975" lon="7.877952411167249"><ele>286.0</ele><time>2026-04-12T09:10:05.999Z</time></trkpt><trkpt lat="44.59412286023467" lon="7.8780648731147505"><ele>286.0</ele><time>2026-04-12T09:10:09.999Z</time></trkpt><trkpt lat="44.59413525214384" lon="7.8781688543414035"><ele>286.0</ele><time>2026-04-12T09:10:12.999Z</time></trkpt><trkpt lat="44.594148634986084" lon="7.878267152375145"><ele>286.0</ele><time>2026-04-12T09:10:15.999Z</time></trkpt><trkpt lat="44.59415501444009" lon="7.8783623969299725"><ele>285.99999999999994</ele><time>2026-04-12T09:10:18.999Z</time></trkpt><trkpt lat="44.594162625610565" lon="7.878450192168544"><ele>286.0</ele><time>2026-04-12T09:10:21.999Z</time></trkpt><trkpt lat="44.59417450953183" lon="7.87853766021468"><ele>284.3333333333333</ele><time>2026-04-12T09:10:24.999Z</time></trkpt><trkpt lat="44.59419254048298" lon="7.878647995596861"><ele>282.66666666666663</ele><time>2026-04-12T09:10:28.999Z</time></trkpt><trkpt lat="44.59422061168174" lon="7.87872960559182"><ele>281.0</ele><time>2026-04-12T09:10:31.999Z</time></trkpt><trkpt lat="44.59428937571706" lon="7.878774275683962"><ele>279.3333333333333</ele><time>2026-04-12T09:10:35.999Z</time></trkpt><trkpt lat="44.59435947600981" lon="7.87873147329278"><ele>277.6666666666667</ele><time>2026-04-12T09:10:39.999Z</time></trkpt><trkpt lat="44.594392327971924" lon="7.878651270815783"><ele>276.0</ele><time>2026-04-12T09:10:43.999Z</time></trkpt><trkpt lat="44.59441010966363" lon="7.878532329991721"><ele>276.0</ele><time>2026-04-12T09:10:48.999Z</time></trkpt><trkpt lat="44.59441477356767" lon="7.878437241049535"><ele>276.0</ele><time>2026-04-12T09:10:52.999Z</time></trkpt><trkpt lat="44.59440483575168" lon="7.878348084221861"><ele>276.0</ele><time>2026-04-12T09:10:55.999Z</time></trkpt><trkpt lat="44.59441945241695" lon="7.878249797167225"><ele>276.0</ele><time>2026-04-12T09:10:59Z</time></trkpt><trkpt lat="44.59441540287923" lon="7.878157871743154"><ele>276.0</ele><time>2026-04-12T09:11:02Z</time></trkpt><trkpt lat="44.59442717621345" lon="7.878067616374527"><ele>276.0</ele><time>2026-04-12T09:11:05Z</time></trkpt><trkpt lat="44.59444069470052" lon="7.877980834664472"><ele>276.0</ele><time>2026-04-12T09:11:08Z</time></trkpt><trkpt lat="44.59444729238536" lon="7.877868088152398"><ele>277.42857142857144</ele><time>2026-04-12T09:11:12Z</time></trkpt><trkpt lat="44.59446217679184" lon="7.87776000406476"><ele>278.8571428571429</ele><time>2026-04-12T09:11:16Z</time></trkpt><trkpt lat="44.59447582842596" lon="7.877665815318883"><ele>280.2857142857143</ele><time>2026-04-12T09:11:20Z</time></trkpt><trkpt lat="44.59449525013302" lon="7.877565595521185"><ele>281.7142857142857</ele><time>2026-04-12T09:11:24Z</time></trkpt><trkpt lat="44.594508891423345" lon="7.877476565922042"><ele>283.1428571428571</ele><time>2026-04-12T09:11:27Z</time></trkpt><trkpt lat="44.59452393213951" lon="7.877382843190661"><ele>284.57142857142856</ele><time>2026-04-12T09:11:30Z</time></trkpt><trkpt lat="44.5945413276152" lon="7.877296336604981"><ele>286.0</ele><time>2026-04-12T09:11:34Z</time></trkpt><trkpt lat="44.594558619347765" lon="7.877180145411888"><ele>289.2857142857143</ele><time>2026-04-12T09:11:38Z</time></trkpt><trkpt lat="44.59457709750956" lon="7.877073813644339"><ele>292.57142857142856</ele><time>2026-04-12T09:11:42Z</time></trkpt><trkpt lat="44.594590900234145" lon="7.876976603405458"><ele>295.8571428571429</ele><time>2026-04-12T09:11:45Z</time></trkpt><trkpt lat="44.5946105933326" lon="7.876868797736157"><ele>299.1428571428571</ele><time>2026-04-12T09:11:49Z</time></trkpt><trkpt lat="44.5946244296634" lon="7.876764528210949"><ele>302.42857142857144</ele><time>2026-04-12T09:11:52.999Z</time></trkpt><trkpt lat="44.59462302114961" lon="7.876673299311117"><ele>305.7142857142857</ele><time>2026-04-12T09:11:56.999Z</time></trkpt><trkpt lat="44.59461406559199" lon="7.876560579685841"><ele>309.0</ele><time>2026-04-12T09:12:00.999Z</time></trkpt><trkpt lat="44.59460418887152" lon="7.876454725760694"><ele>309.42857142857144</ele><time>2026-04-12T09:12:04.999Z</time></trkpt><trkpt lat="44.594585344415506" lon="7.87636597333964"><ele>309.8571428571429</ele><time>2026-04-12T09:12:07.999Z</time></trkpt><trkpt lat="44.59455661682034" lon="7.876274501810637"><ele>310.28571428571433</ele><time>2026-04-12T09:12:11.999Z</time></trkpt><trkpt lat="44.594528383459355" lon="7.876193184383042"><ele>310.7142857142857</ele><time>2026-04-12T09:12:14.999Z</time></trkpt><trkpt lat="44.594488318042906" lon="7.876082782415595"><ele>311.1428571428571</ele><time>2026-04-12T09:12:18.999Z</time></trkpt><trkpt lat="44.59446197226833" lon="7.875999229589626"><ele>311.5714285714286</ele><time>2026-04-12T09:12:21.999Z</time></trkpt><trkpt lat="44.59443982509435" lon="7.875913089674823"><ele>312.0</ele><time>2026-04-12T09:12:24.999Z</time></trkpt><trkpt lat="44.59441131748972" lon="7.875832703295103"><ele>310.2857142857143</ele><time>2026-04-12T09:12:27.999Z</time></trkpt><trkpt lat="44.59438907408264" lon="7.875726943441032"><ele>308.57142857142856</ele><time>2026-04-12T09:12:31.999Z</time></trkpt><trkpt lat="44.59437947503155" lon="7.87563348883066"><ele>306.85714285714283</ele><time>2026-04-12T09:12:35.999Z</time></trkpt><trkpt lat="44.59436685162034" lon="7.87554520074382"><ele>305.1428571428571</ele><time>2026-04-12T09:12:38.999Z</time></trkpt><trkpt lat="44.59436073292078" lon="7.875445368068381"><ele>303.42857142857144</ele><time>2026-04-12T09:12:41.999Z</time></trkpt><trkpt lat="44.59434377202056" lon="7.875346448654489"><ele>301.71428571428567</ele><time>2026-04-12T09:12:45.999Z</time></trkpt><trkpt lat="44.59433651770462" lon="7.875254075873776"><ele>300.0</ele><time>2026-04-12T09:12:49.999Z</time></trkpt><trkpt lat="44.59433210055617" lon="7.875160750579788"><ele>301.5</ele><time>2026-04-12T09:12:52.999Z</time></trkpt><trkpt lat="44.594316341501795" lon="7.8750483307616115"><ele>303.0</ele><time>2026-04-12T09:12:56.999Z</time></trkpt><trkpt lat="44.59430370384625" lon="7.874933630814499"><ele>304.5</ele><time>2026-04-12T09:13:00.999Z</time></trkpt><trkpt lat="44.594304580975695" lon="7.8748241336016775"><ele>306.0</ele><time>2026-04-12T09:13:05Z</time></trkpt><trkpt lat="44.594290531984534" lon="7.874710198863578"><ele>307.5</ele><time>2026-04-12T09:13:09Z</time></trkpt><trkpt lat="44.59427339723072" lon="7.87460004624337"><ele>309.0</ele><time>2026-04-12T09:13:13Z</time></trkpt><trkpt lat="44.59426163255528" lon="7.874491619449631"><ele>309.00000000000006</ele><time>2026-04-12T09:13:17Z</time></trkpt><trkpt lat="44.594246429527274" lon="7.874382527893437"><ele>309.0</ele><time>2026-04-12T09:13:21Z</time></trkpt><trkpt lat="44.59423097462922" lon="7.874272965922386"><ele>309.0</ele><time>2026-04-12T09:13:25Z</time></trkpt><trkpt lat="44.59422552287771" lon="7.8741812744899295"><ele>309.0</ele><time>2026-04-12T09:13:28Z</time></trkpt><trkpt lat="44.594218703704165" lon="7.8740693856814525"><ele>309.0</ele><time>2026-04-12T09:13:32Z</time></trkpt><trkpt lat="44.59420221458665" lon="7.873981171339795"><ele>309.00000000000006</ele><time>2026-04-12T09:13:35Z</time></trkpt><trkpt lat="44.59419508864155" lon="7.873885024795877"><ele>309.0</ele><time>2026-04-12T09:13:38Z</time></trkpt><trkpt lat="44.59419525236972" lon="7.87379595496819"><ele>310.00000000000006</ele><time>2026-04-12T09:13:41Z</time></trkpt><trkpt lat="44.59420594674526" lon="7.873705458517684"><ele>311.0</ele><time>2026-04-12T09:13:44Z</time></trkpt><trkpt lat="44.5942077974291" lon="7.873606840967478"><ele>312.0</ele><time>2026-04-12T09:13:47Z</time></trkpt><trkpt lat="44.59420709680409" lon="7.8735133669621655"><ele>313.0</ele><time>2026-04-12T09:13:50Z</time></trkpt><trkpt lat="44.59422122557142" lon="7.873419923118272"><ele>314.0</ele><time>2026-04-12T09:13:53Z</time></trkpt><trkpt lat="44.594239232633115" lon="7.873311635755561"><ele>315.00000000000006</ele><time>2026-04-12T09:13:56.999Z</time></trkpt><trkpt lat="44.59423836808508" lon="7.8731957699287225"><ele>316.0</ele><time>2026-04-12T09:13:59.999Z</time></trkpt><trkpt lat="44.59425617757162" lon="7.873105824199166"><ele>317.16666666666663</ele><time>2026-04-12T09:14:02.999Z</time></trkpt><trkpt lat="44.594261623904885" lon="7.872987110208023"><ele>318.3333333333333</ele><time>2026-04-12T09:14:05.999Z</time></trkpt><trkpt lat="44.59428891063744" lon="7.8728849279816036"><ele>319.5</ele><time>2026-04-12T09:14:08.999Z</time></trkpt><trkpt lat="44.594265860322714" lon="7.872777062317977"><ele>320.6666666666667</ele><time>2026-04-12T09:14:11.999Z</time></trkpt><trkpt lat="44.594274535567536" lon="7.8726788868639295"><ele>321.83333333333337</ele><time>2026-04-12T09:14:14.999Z</time></trkpt><trkpt lat="44.59427360990847" lon="7.872570460411546"><ele>323.0</ele><time>2026-04-12T09:14:17.999Z</time></trkpt><trkpt lat="44.59428354986859" lon="7.872457267480651"><ele>323.5</ele><time>2026-04-12T09:14:20.999Z</time></trkpt><trkpt lat="44.594297033435815" lon="7.872330897580659"><ele>324.0</ele><time>2026-04-12T09:14:23.999Z</time></trkpt><trkpt lat="44.59429415325231" lon="7.872207707222291"><ele>324.5</ele><time>2026-04-12T09:14:26.999Z</time></trkpt><trkpt lat="44.59426259091361" lon="7.872113043340714"><ele>325.0</ele><time>2026-04-12T09:14:28.999Z</time></trkpt><trkpt lat="44.594264840881" lon="7.872010844321381"><ele>325.5</ele><time>2026-04-12T09:14:32.999Z</time></trkpt><trkpt lat="44.594292874505655" lon="7.871891907268932"><ele>326.0</ele><time>2026-04-12T09:14:36.999Z</time></trkpt><trkpt lat="44.59439660124986" lon="7.871896824945993"><ele>325.8</ele><time>2026-04-12T09:14:46.999Z</time></trkpt><trkpt lat="44.59455648833829" lon="7.871896466445451"><ele>325.6</ele><time>2026-04-12T09:14:51.999Z</time></trkpt><trkpt lat="44.59457219311179" lon="7.871804060552711"><ele>325.4</ele><time>2026-04-12T09:14:55.999Z</time></trkpt><trkpt lat="44.594590497194886" lon="7.87169973183408"><ele>325.2</ele><time>2026-04-12T09:14:59.999Z</time></trkpt><trkpt lat="44.59460892201564" lon="7.871574717536798"><ele>325.0</ele><time>2026-04-12T09:15:03.999Z</time></trkpt><trkpt lat="44.59460462291951" lon="7.8714658490615"><ele>325.0</ele><time>2026-04-12T09:15:09Z</time></trkpt><trkpt lat="44.59460962065577" lon="7.871369788439282"><ele>325.0</ele><time>2026-04-12T09:15:12Z</time></trkpt><trkpt lat="44.59461113006141" lon="7.871269555397046"><ele>325.0</ele><time>2026-04-12T09:15:14Z</time></trkpt><trkpt lat="44.59462507378562" lon="7.871155675050723"><ele>325.0</ele><time>2026-04-12T09:15:17Z</time></trkpt><trkpt lat="44.59464608177547" lon="7.871066565190105"><ele>325.0</ele><time>2026-04-12T09:15:21Z</time></trkpt><trkpt lat="44.594709640736134" lon="7.871016773606532"><ele>325.0</ele><time>2026-04-12T09:15:25Z</time></trkpt><trkpt lat="44.59478001818455" lon="7.87103646703944"><ele>325.0</ele><time>2026-04-12T09:15:29Z</time></trkpt><trkpt lat="44.594862782755236" lon="7.871039231593572"><ele>325.0</ele><time>2026-04-12T09:15:32Z</time></trkpt><trkpt lat="44.59505140393375" lon="7.871061545964995"><ele>325.0</ele><time>2026-04-12T09:15:40Z</time></trkpt><trkpt lat="44.59515309879405" lon="7.871090244474001"><ele>325.0</ele><time>2026-04-12T09:15:45Z</time></trkpt><trkpt lat="44.59521961920331" lon="7.8710086888581525"><ele>325.0</ele><time>2026-04-12T09:15:48Z</time></trkpt><trkpt lat="44.595263892324255" lon="7.870934271470061"><ele>325.5</ele><time>2026-04-12T09:15:53Z</time></trkpt><trkpt lat="44.59532849076457" lon="7.870872599042709"><ele>326.0</ele><time>2026-04-12T09:15:58Z</time></trkpt><trkpt lat="44.59539783312376" lon="7.870851771981437"><ele>326.5</ele><time>2026-04-12T09:16:03.999Z</time></trkpt><trkpt lat="44.595477161927" lon="7.870813472228231"><ele>327.0</ele><time>2026-04-12T09:16:07.999Z</time></trkpt><trkpt lat="44.595553451745985" lon="7.870781662464176"><ele>327.5</ele><time>2026-04-12T09:16:10.999Z</time></trkpt><trkpt lat="44.59564504168028" lon="7.870753376303734"><ele>328.0</ele><time>2026-04-12T09:16:14.999Z</time></trkpt><trkpt lat="44.59572972097942" lon="7.870722232873141"><ele>328.0</ele><time>2026-04-12T09:16:17.999Z</time></trkpt><trkpt lat="44.5958206915944" lon="7.8707003916222495"><ele>328.0</ele><time>2026-04-12T09:16:21.999Z</time></trkpt><trkpt lat="44.59588705308709" lon="7.8706806593278245"><ele>328.0</ele><time>2026-04-12T09:16:23.999Z</time></trkpt><trkpt lat="44.595953959798486" lon="7.87065629265023"><ele>328.0</ele><time>2026-04-12T09:16:25.999Z</time></trkpt><trkpt lat="44.596071093506" lon="7.8706500490333156"><ele>328.0</ele><time>2026-04-12T09:16:29.999Z</time></trkpt><trkpt lat="44.59619266866109" lon="7.870644807099942"><ele>327.75</ele><time>2026-04-12T09:16:33.999Z</time></trkpt><trkpt lat="44.59632630513108" lon="7.870626937581852"><ele>327.5</ele><time>2026-04-12T09:16:38.999Z</time></trkpt><trkpt lat="44.59643077600884" lon="7.870592678467209"><ele>327.25</ele><time>2026-04-12T09:16:41.999Z</time></trkpt><trkpt lat="44.5964955487633" lon="7.8705598005634485"><ele>327.0</ele><time>2026-04-12T09:16:43.999Z</time></trkpt><trkpt lat="44.596734483398784" lon="7.870534832623975"><ele>327.0</ele><time>2026-04-12T09:16:49.999Z</time></trkpt><trkpt lat="44.596802065075714" lon="7.870500663768391"><ele>327.0</ele><time>2026-04-12T09:16:51.999Z</time></trkpt><trkpt lat="44.59686828834329" lon="7.870501623070145"><ele>327.0</ele><time>2026-04-12T09:16:53.999Z</time></trkpt><trkpt lat="44.596961837457535" lon="7.870498412578897"><ele>327.0</ele><time>2026-04-12T09:16:56.999Z</time></trkpt><trkpt lat="44.59703283972205" lon="7.870491116639121"><ele>327.0</ele><time>2026-04-12T09:16:59.999Z</time></trkpt><trkpt lat="44.597121432259605" lon="7.870484913431261"><ele>327.0</ele><time>2026-04-12T09:17:02.999Z</time></trkpt><trkpt lat="44.59722105597147" lon="7.870486797216239"><ele>327.0</ele><time>2026-04-12T09:17:05.999Z</time></trkpt><trkpt lat="44.59731548894546" lon="7.87047044303847"><ele>327.0</ele><time>2026-04-12T09:17:08.999Z</time></trkpt><trkpt lat="44.597398608734444" lon="7.870452686720207"><ele>327.0</ele><time>2026-04-12T09:17:11.999Z</time></trkpt><trkpt lat="44.597470999074105" lon="7.870434909972389"><ele>327.0</ele><time>2026-04-12T09:17:14Z</time></trkpt><trkpt lat="44.59754531102188" lon="7.870416265786534"><ele>327.0</ele><time>2026-04-12T09:17:16Z</time></trkpt><trkpt lat="44.59762960558974" lon="7.8703945753300415"><ele>327.0</ele><time>2026-04-12T09:17:18Z</time></trkpt><trkpt lat="44.59771102484616" lon="7.870386889627129"><ele>327.0</ele><time>2026-04-12T09:17:20Z</time></trkpt><trkpt lat="44.59779101533236" lon="7.870377702917983"><ele>327.0</ele><time>2026-04-12T09:17:22Z</time></trkpt><trkpt lat="44.59787357590754" lon="7.870354948088944"><ele>327.0</ele><time>2026-04-12T09:17:24Z</time></trkpt><trkpt lat="44.59794996011444" lon="7.870333338771676"><ele>327.0</ele><time>2026-04-12T09:17:26Z</time></trkpt><trkpt lat="44.5980320408811" lon="7.870319296702945"><ele>327.0</ele><time>2026-04-12T09:17:28Z</time></trkpt><trkpt lat="44.598120918306016" lon="7.870312427571048"><ele>327.0</ele><time>2026-04-12T09:17:30Z</time></trkpt><trkpt lat="44.598202740110594" lon="7.870300138538057"><ele>327.0</ele><time>2026-04-12T09:17:32Z</time></trkpt><trkpt lat="44.59828749181195" lon="7.870292532729469"><ele>327.0</ele><time>2026-04-12T09:17:34Z</time></trkpt><trkpt lat="44.5983660508252" lon="7.87028463918278"><ele>327.0</ele><time>2026-04-12T09:17:36Z</time></trkpt><trkpt lat="44.59843951579772" lon="7.87027291433322"><ele>327.0</ele><time>2026-04-12T09:17:38Z</time></trkpt><trkpt lat="44.5985150303455" lon="7.870265220562761"><ele>327.0</ele><time>2026-04-12T09:17:40Z</time></trkpt><trkpt lat="44.59859555215162" lon="7.870253861964694"><ele>327.0</ele><time>2026-04-12T09:17:42Z</time></trkpt><trkpt lat="44.5986809601937" lon="7.870246564219303"><ele>326.8333333333333</ele><time>2026-04-12T09:17:44Z</time></trkpt><trkpt lat="44.59876596665435" lon="7.87023076059881"><ele>326.6666666666667</ele><time>2026-04-12T09:17:46Z</time></trkpt><trkpt lat="44.59885231683324" lon="7.870217177897968"><ele>326.5</ele><time>2026-04-12T09:17:48Z</time></trkpt><trkpt lat="44.598944868576396" lon="7.870205011492258"><ele>326.33333333333337</ele><time>2026-04-12T09:17:50Z</time></trkpt><trkpt lat="44.59902993341334" lon="7.870190832719115"><ele>326.1666666666667</ele><time>2026-04-12T09:17:52Z</time></trkpt><trkpt lat="44.59910635161179" lon="7.8701784911335455"><ele>326.0</ele><time>2026-04-12T09:17:54Z</time></trkpt><trkpt lat="44.59918403540431" lon="7.87015829109691"><ele>326.0</ele><time>2026-04-12T09:17:56Z</time></trkpt><trkpt lat="44.599258592995575" lon="7.870153161586016"><ele>326.0</ele><time>2026-04-12T09:17:58Z</time></trkpt><trkpt lat="44.599331062704984" lon="7.870135941765167"><ele>326.0</ele><time>2026-04-12T09:18:00Z</time></trkpt><trkpt lat="44.59941304284215" lon="7.87012551743986"><ele>326.0</ele><time>2026-04-12T09:18:02Z</time></trkpt><trkpt lat="44.59950081868516" lon="7.870111635100814"><ele>326.0</ele><time>2026-04-12T09:18:04Z</time></trkpt><trkpt lat="44.59958281041961" lon="7.870097252115274"><ele>326.0</ele><time>2026-04-12T09:18:06Z</time></trkpt><trkpt lat="44.599671935431296" lon="7.870076026480668"><ele>326.1666666666667</ele><time>2026-04-12T09:18:07.999Z</time></trkpt><trkpt lat="44.599758597329966" lon="7.8700688549315485"><ele>326.33333333333337</ele><time>2026-04-12T09:18:09.999Z</time></trkpt><trkpt lat="44.59983930941181" lon="7.870051991103048"><ele>326.5</ele><time>2026-04-12T09:18:11.999Z</time></trkpt><trkpt lat="44.59992372208615" lon="7.8700463972959325"><ele>326.6666666666667</ele><time>2026-04-12T09:18:13.999Z</time></trkpt><trkpt lat="44.600016447300156" lon="7.870031852728458"><ele>326.8333333333333</ele><time>2026-04-12T09:18:15.999Z</time></trkpt><trkpt lat="44.600111967170925" lon="7.8700124607180655"><ele>327.0</ele><time>2026-04-12T09:18:17.999Z</time></trkpt><trkpt lat="44.60020443691456" lon="7.869993977788912"><ele>327.0</ele><time>2026-04-12T09:18:19.999Z</time></trkpt><trkpt lat="44.600296045253884" lon="7.869986757560827"><ele>327.0</ele><time>2026-04-12T09:18:21.999Z</time></trkpt><trkpt lat="44.600390433503236" lon="7.869972443384033"><ele>327.0</ele><time>2026-04-12T09:18:23.999Z</time></trkpt><trkpt lat="44.600481620247585" lon="7.869953688466216"><ele>327.0</ele><time>2026-04-12T09:18:25.999Z</time></trkpt><trkpt lat="44.60057093982503" lon="7.869944481862538"><ele>327.0</ele><time>2026-04-12T09:18:27.999Z</time></trkpt><trkpt lat="44.60066311363105" lon="7.869932321511537"><ele>327.0</ele><time>2026-04-12T09:18:29.999Z</time></trkpt><trkpt lat="44.60075261977367" lon="7.869922009858103"><ele>327.0</ele><time>2026-04-12T09:18:31.999Z</time></trkpt><trkpt lat="44.60084848785397" lon="7.869904522884638"><ele>327.0</ele><time>2026-04-12T09:18:33.999Z</time></trkpt><trkpt lat="44.60094515883928" lon="7.869889168895129"><ele>327.0</ele><time>2026-04-12T09:18:35.999Z</time></trkpt><trkpt lat="44.60104341034007" lon="7.869878464652233"><ele>327.0</ele><time>2026-04-12T09:18:37.999Z</time></trkpt><trkpt lat="44.60114409633197" lon="7.869853645978514"><ele>327.0</ele><time>2026-04-12T09:18:39.999Z</time></trkpt><trkpt lat="44.60123822828108" lon="7.8698380215655925"><ele>327.0</ele><time>2026-04-12T09:18:41.999Z</time></trkpt><trkpt lat="44.60133069988598" lon="7.869820025672533"><ele>327.0</ele><time>2026-04-12T09:18:43.999Z</time></trkpt><trkpt lat="44.60141568809602" lon="7.8698111970430595"><ele>327.0</ele><time>2026-04-12T09:18:45.999Z</time></trkpt><trkpt lat="44.60150026727655" lon="7.86980335585327"><ele>327.0</ele><time>2026-04-12T09:18:47.999Z</time></trkpt><trkpt lat="44.601585494139634" lon="7.869790006447107"><ele>327.0</ele><time>2026-04-12T09:18:49.999Z</time></trkpt><trkpt lat="44.601667465132365" lon="7.869777146286341"><ele>327.0</ele><time>2026-04-12T09:18:51.999Z</time></trkpt><trkpt lat="44.60175166193519" lon="7.869774290027054"><ele>327.0</ele><time>2026-04-12T09:18:53.999Z</time></trkpt><trkpt lat="44.601814243227196" lon="7.8698481255706865"><ele>327.0</ele><time>2026-04-12T09:18:55.999Z</time></trkpt><trkpt lat="44.60182952220711" lon="7.86997686439417"><ele>327.0</ele><time>2026-04-12T09:18:57.999Z</time></trkpt><trkpt lat="44.60184265002509" lon="7.87009346138236"><ele>327.0</ele><time>2026-04-12T09:18:59.999Z</time></trkpt><trkpt lat="44.60185528866008" lon="7.870221179024181"><ele>327.0</ele><time>2026-04-12T09:19:01.999Z</time></trkpt><trkpt lat="44.60187838788867" lon="7.8703480363302685"><ele>326.3333333333333</ele><time>2026-04-12T09:19:03.999Z</time></trkpt><trkpt lat="44.60189725364126" lon="7.870472057359473"><ele>325.6666666666667</ele><time>2026-04-12T09:19:05.999Z</time></trkpt><trkpt lat="44.60191535731026" lon="7.870590501505929"><ele>325.0</ele><time>2026-04-12T09:19:07.999Z</time></trkpt><trkpt lat="44.601929449258016" lon="7.870708736156458"><ele>324.33333333333337</ele><time>2026-04-12T09:19:09.999Z</time></trkpt><trkpt lat="44.60194964554612" lon="7.870800452439255"><ele>323.6666666666667</ele><time>2026-04-12T09:19:11.999Z</time></trkpt><trkpt lat="44.602030773690004" lon="7.870801039798474"><ele>323.0</ele><time>2026-04-12T09:19:14.999Z</time></trkpt><trkpt lat="44.602097382094506" lon="7.870801826541234"><ele>322.5</ele><time>2026-04-12T09:19:16.999Z</time></trkpt><trkpt lat="44.602166007694954" lon="7.870779372960075"><ele>322.0</ele><time>2026-04-12T09:19:18.999Z</time></trkpt><trkpt lat="44.60224181446927" lon="7.870782462692541"><ele>321.5</ele><time>2026-04-12T09:19:21Z</time></trkpt><trkpt lat="44.60231952915909" lon="7.870747406847707"><ele>321.0</ele><time>2026-04-12T09:19:23Z</time></trkpt><trkpt lat="44.602395458029285" lon="7.870719298760497"><ele>320.5</ele><time>2026-04-12T09:19:25Z</time></trkpt><trkpt lat="44.60246641091723" lon="7.87069773578522"><ele>320.0</ele><time>2026-04-12T09:19:27Z</time></trkpt><trkpt lat="44.602552104721944" lon="7.870674176349178"><ele>320.0</ele><time>2026-04-12T09:19:29Z</time></trkpt><trkpt lat="44.6026411892548" lon="7.8706638809765375"><ele>320.0</ele><time>2026-04-12T09:19:31Z</time></trkpt><trkpt lat="44.60273421877547" lon="7.870659235018429"><ele>320.0</ele><time>2026-04-12T09:19:33Z</time></trkpt><trkpt lat="44.60282737355365" lon="7.870655128462934"><ele>320.0</ele><time>2026-04-12T09:19:35Z</time></trkpt><trkpt lat="44.6029172250291" lon="7.870663075383687"><ele>320.0</ele><time>2026-04-12T09:19:37Z</time></trkpt><trkpt lat="44.60299399133568" lon="7.870644133536877"><ele>320.0</ele><time>2026-04-12T09:19:39Z</time></trkpt><trkpt lat="44.6030621830804" lon="7.8706299845353715"><ele>320.2857142857143</ele><time>2026-04-12T09:19:41Z</time></trkpt><trkpt lat="44.603128145701184" lon="7.8706079459973015"><ele>320.57142857142856</ele><time>2026-04-12T09:19:43Z</time></trkpt><trkpt lat="44.60319575483677" lon="7.870572236951461"><ele>320.8571428571429</ele><time>2026-04-12T09:19:45Z</time></trkpt><trkpt lat="44.603260733086806" lon="7.870540264972933"><ele>321.1428571428571</ele><time>2026-04-12T09:19:47Z</time></trkpt><trkpt lat="44.60334442203067" lon="7.870537010666799"><ele>321.42857142857144</ele><time>2026-04-12T09:19:50Z</time></trkpt><trkpt lat="44.603409735538634" lon="7.870541311402428"><ele>321.7142857142857</ele><time>2026-04-12T09:19:53Z</time></trkpt><trkpt lat="44.60348442861304" lon="7.870535404510618"><ele>322.0</ele><time>2026-04-12T09:19:56Z</time></trkpt><trkpt lat="44.60356274392796" lon="7.870547044397466"><ele>322.0</ele><time>2026-04-12T09:19:58Z</time></trkpt><trkpt lat="44.603664429288905" lon="7.870547440397164"><ele>322.0</ele><time>2026-04-12T09:20:02Z</time></trkpt><trkpt lat="44.60375958473824" lon="7.870552294597142"><ele>322.0</ele><time>2026-04-12T09:20:04Z</time></trkpt><trkpt lat="44.603837197584205" lon="7.870558006310419"><ele>322.0</ele><time>2026-04-12T09:20:06Z</time></trkpt><trkpt lat="44.6039045744479" lon="7.8705718195431835"><ele>322.0</ele><time>2026-04-12T09:20:08Z</time></trkpt><trkpt lat="44.60397743899314" lon="7.870570432163423"><ele>322.0</ele><time>2026-04-12T09:20:10Z</time></trkpt><trkpt lat="44.604041362873495" lon="7.870562724202506"><ele>322.0</ele><time>2026-04-12T09:20:11.999Z</time></trkpt><trkpt lat="44.60411452533604" lon="7.8705818547120145"><ele>322.0</ele><time>2026-04-12T09:20:13.999Z</time></trkpt><trkpt lat="44.60419122523177" lon="7.870591164417458"><ele>322.0</ele><time>2026-04-12T09:20:15.999Z</time></trkpt><trkpt lat="44.60427095478951" lon="7.870592478186487"><ele>322.0</ele><time>2026-04-12T09:20:17.999Z</time></trkpt><trkpt lat="44.60433938084224" lon="7.87057909593546"><ele>322.0</ele><time>2026-04-12T09:20:19.999Z</time></trkpt><trkpt lat="44.6044273800691" lon="7.870600091464892"><ele>322.0</ele><time>2026-04-12T09:20:21.999Z</time></trkpt><trkpt lat="44.60449255116834" lon="7.870591535754574"><ele>321.66666666666663</ele><time>2026-04-12T09:20:23.999Z</time></trkpt><trkpt lat="44.60457525244404" lon="7.870585087004798"><ele>321.3333333333333</ele><time>2026-04-12T09:20:25.999Z</time></trkpt><trkpt lat="44.604664979787245" lon="7.870581850271588"><ele>321.0</ele><time>2026-04-12T09:20:27.999Z</time></trkpt><trkpt lat="44.60474788040115" lon="7.870582038096033"><ele>320.6666666666667</ele><time>2026-04-12T09:20:29.999Z</time></trkpt><trkpt lat="44.60483656978293" lon="7.870584276837962"><ele>320.33333333333337</ele><time>2026-04-12T09:20:31.999Z</time></trkpt><trkpt lat="44.60493013576768" lon="7.870587363374766"><ele>320.0</ele><time>2026-04-12T09:20:33.999Z</time></trkpt><trkpt lat="44.605028319810025" lon="7.870627193132115"><ele>320.0</ele><time>2026-04-12T09:20:35.999Z</time></trkpt><trkpt lat="44.60513765219077" lon="7.870678755506131"><ele>320.0</ele><time>2026-04-12T09:20:37.999Z</time></trkpt><trkpt lat="44.60523013581566" lon="7.870774452195966"><ele>320.0</ele><time>2026-04-12T09:20:39.999Z</time></trkpt><trkpt lat="44.60528663373786" lon="7.870816384033898"><ele>320.0</ele><time>2026-04-12T09:20:40.999Z</time></trkpt><trkpt lat="44.60534478816581" lon="7.870946640959114"><ele>320.0</ele><time>2026-04-12T09:20:42.999Z</time></trkpt><trkpt lat="44.605409316176754" lon="7.8710731248310974"><ele>317.5</ele><time>2026-04-12T09:20:44.999Z</time></trkpt><trkpt lat="44.605462032763725" lon="7.871141899951261"><ele>315.0</ele><time>2026-04-12T09:20:45.999Z</time></trkpt><trkpt lat="44.60550620607305" lon="7.871223404734807"><ele>312.5</ele><time>2026-04-12T09:20:46.999Z</time></trkpt><trkpt lat="44.605553132604186" lon="7.871295598302828"><ele>310.0</ele><time>2026-04-12T09:20:47.999Z</time></trkpt><trkpt lat="44.605607268137945" lon="7.871364485572022"><ele>307.5</ele><time>2026-04-12T09:20:48.999Z</time></trkpt><trkpt lat="44.60567112209153" lon="7.87143199300746"><ele>305.0</ele><time>2026-04-12T09:20:49.999Z</time></trkpt><trkpt lat="44.60573788794648" lon="7.871503496531935"><ele>305.0</ele><time>2026-04-12T09:20:50.999Z</time></trkpt><trkpt lat="44.605811694872266" lon="7.871574582102905"><ele>305.0</ele><time>2026-04-12T09:20:51.999Z</time></trkpt><trkpt lat="44.605880725254266" lon="7.871642508345505"><ele>305.0</ele><time>2026-04-12T09:20:52.999Z</time></trkpt><trkpt lat="44.6059438204016" lon="7.871745916548281"><ele>305.0</ele><time>2026-04-12T09:20:53.999Z</time></trkpt><trkpt lat="44.6060292396022" lon="7.871829482750415"><ele>305.0</ele><time>2026-04-12T09:20:54.999Z</time></trkpt><trkpt lat="44.606105888410234" lon="7.8719236503955825"><ele>302.6</ele><time>2026-04-12T09:20:55.999Z</time></trkpt><trkpt lat="44.60618514657452" lon="7.87201975363549"><ele>300.2</ele><time>2026-04-12T09:20:56.999Z</time></trkpt><trkpt lat="44.60626931783361" lon="7.872108332815828"><ele>297.8</ele><time>2026-04-12T09:20:57.999Z</time></trkpt><trkpt lat="44.60634593849176" lon="7.872199668221665"><ele>295.4</ele><time>2026-04-12T09:20:58.999Z</time></trkpt><trkpt lat="44.60643959155801" lon="7.872248614040006"><ele>293.0</ele><time>2026-04-12T09:20:59.999Z</time></trkpt><trkpt lat="44.606540268609905" lon="7.87225226216705"><ele>293.0</ele><time>2026-04-12T09:21:00.999Z</time></trkpt><trkpt lat="44.606625452077274" lon="7.872165009782326"><ele>293.0</ele><time>2026-04-12T09:21:01.999Z</time></trkpt><trkpt lat="44.606694519311034" lon="7.872122269121113"><ele>293.0</ele><time>2026-04-12T09:21:02.999Z</time></trkpt><trkpt lat="44.60676402162125" lon="7.872108805508637"><ele>293.0</ele><time>2026-04-12T09:21:03.999Z</time></trkpt><trkpt lat="44.60682484300116" lon="7.872074447144412"><ele>293.0</ele><time>2026-04-12T09:21:04.999Z</time></trkpt><trkpt lat="44.606936511107435" lon="7.8720189321522405"><ele>293.0</ele><time>2026-04-12T09:21:06.999Z</time></trkpt><trkpt lat="44.607044756050016" lon="7.872007780637178"><ele>291.5</ele><time>2026-04-12T09:21:08.999Z</time></trkpt><trkpt lat="44.607150500173404" lon="7.872036941208017"><ele>290.0</ele><time>2026-04-12T09:21:10.999Z</time></trkpt><trkpt lat="44.607261779634506" lon="7.872053762677126"><ele>288.5</ele><time>2026-04-12T09:21:12.999Z</time></trkpt><trkpt lat="44.60736992550101" lon="7.872115900158062"><ele>287.0</ele><time>2026-04-12T09:21:14.999Z</time></trkpt><trkpt lat="44.60747995856268" lon="7.872152649591954"><ele>287.0</ele><time>2026-04-12T09:21:16.999Z</time></trkpt><trkpt lat="44.607591327818476" lon="7.872188124210727"><ele>287.0</ele><time>2026-04-12T09:21:18.999Z</time></trkpt><trkpt lat="44.60770133447723" lon="7.872223112498185"><ele>287.0</ele><time>2026-04-12T09:21:20.999Z</time></trkpt><trkpt lat="44.607807648221325" lon="7.872254186103485"><ele>287.0</ele><time>2026-04-12T09:21:22.999Z</time></trkpt><trkpt lat="44.60790714021815" lon="7.872277386371088"><ele>287.0</ele><time>2026-04-12T09:21:24.999Z</time></trkpt><trkpt lat="44.6079999552827" lon="7.872304336640853"><ele>288.2</ele><time>2026-04-12T09:21:27Z</time></trkpt><trkpt lat="44.60810460765138" lon="7.872326720569544"><ele>289.4</ele><time>2026-04-12T09:21:29Z</time></trkpt><trkpt lat="44.608213560910166" lon="7.8723585413715265"><ele>290.6</ele><time>2026-04-12T09:21:31Z</time></trkpt><trkpt lat="44.60832015816029" lon="7.872393434872922"><ele>291.8</ele><time>2026-04-12T09:21:33Z</time></trkpt><trkpt lat="44.60843249331102" lon="7.872418752471408"><ele>293.0</ele><time>2026-04-12T09:21:35Z</time></trkpt><trkpt lat="44.60853104886503" lon="7.87247346202587"><ele>293.0</ele><time>2026-04-12T09:21:37Z</time></trkpt><trkpt lat="44.60862999868628" lon="7.872469255278176"><ele>293.0</ele><time>2026-04-12T09:21:39Z</time></trkpt><trkpt lat="44.60870633847409" lon="7.8724828582497715"><ele>293.0</ele><time>2026-04-12T09:21:41Z</time></trkpt><trkpt lat="44.60876724037492" lon="7.872447146313156"><ele>293.0</ele><time>2026-04-12T09:34:53.999Z</time></trkpt><trkpt lat="44.60882817965034" lon="7.872399570360872"><ele>293.0</ele><time>2026-04-12T09:34:57.999Z</time></trkpt><trkpt lat="44.608885123247596" lon="7.872329141994425"><ele>293.0</ele><time>2026-04-12T09:35:01.999Z</time></trkpt><trkpt lat="44.6089403758068" lon="7.872232358789022"><ele>294.0</ele><time>2026-04-12T09:35:05.999Z</time></trkpt><trkpt lat="44.60898170002757" lon="7.872121992676687"><ele>295.0</ele><time>2026-04-12T09:35:08.999Z</time></trkpt><trkpt lat="44.60901865310526" lon="7.872041405980894"><ele>296.0</ele><time>2026-04-12T09:35:10.999Z</time></trkpt><trkpt lat="44.60905303468466" lon="7.871952783895329"><ele>297.0</ele><time>2026-04-12T09:35:12.999Z</time></trkpt><trkpt lat="44.60909038632272" lon="7.8718599075661215"><ele>298.0</ele><time>2026-04-12T09:35:14.999Z</time></trkpt><trkpt lat="44.60912549459097" lon="7.871758696348666"><ele>299.0</ele><time>2026-04-12T09:35:16.999Z</time></trkpt><trkpt lat="44.60916749566167" lon="7.87165935965421"><ele>299.1666666666667</ele><time>2026-04-12T09:35:18.999Z</time></trkpt><trkpt lat="44.609213164545395" lon="7.871565629176502"><ele>299.33333333333337</ele><time>2026-04-12T09:35:20.999Z</time></trkpt><trkpt lat="44.60925898539583" lon="7.8714644975234265"><ele>299.5</ele><time>2026-04-12T09:35:22.999Z</time></trkpt><trkpt lat="44.60932450071031" lon="7.871386309511532"><ele>299.6666666666667</ele><time>2026-04-12T09:35:24.999Z</time></trkpt><trkpt lat="44.609405676571555" lon="7.871334173821981"><ele>299.8333333333333</ele><time>2026-04-12T09:35:26.999Z</time></trkpt><trkpt lat="44.6094942974913" lon="7.871329165020492"><ele>300.0</ele><time>2026-04-12T09:35:28.999Z</time></trkpt><trkpt lat="44.6095836617678" lon="7.871345515137761"><ele>299.6</ele><time>2026-04-12T09:35:30.999Z</time></trkpt><trkpt lat="44.60967308624907" lon="7.871345639826683"><ele>299.2</ele><time>2026-04-12T09:35:32.999Z</time></trkpt><trkpt lat="44.60976339237128" lon="7.871341357223874"><ele>298.8</ele><time>2026-04-12T09:35:34.999Z</time></trkpt><trkpt lat="44.60985945140856" lon="7.871329530015812"><ele>298.4</ele><time>2026-04-12T09:35:36.999Z</time></trkpt><trkpt lat="44.609957246115464" lon="7.871319493642036"><ele>298.0</ele><time>2026-04-12T09:35:38.999Z</time></trkpt><trkpt lat="44.61005815913685" lon="7.871312299053095"><ele>298.0</ele><time>2026-04-12T09:35:40.999Z</time></trkpt><trkpt lat="44.61015280083033" lon="7.8713339885155795"><ele>298.0</ele><time>2026-04-12T09:35:42.999Z</time></trkpt><trkpt lat="44.61024079210869" lon="7.87132771296182"><ele>298.0</ele><time>2026-04-12T09:35:44.999Z</time></trkpt><trkpt lat="44.61033244107233" lon="7.871318216541511"><ele>298.0</ele><time>2026-04-12T09:35:46.999Z</time></trkpt><trkpt lat="44.61042257129996" lon="7.871304573659306"><ele>298.0</ele><time>2026-04-12T09:35:48.999Z</time></trkpt><trkpt lat="44.61051846792652" lon="7.8712768924865735"><ele>298.2</ele><time>2026-04-12T09:35:50.999Z</time></trkpt><trkpt lat="44.61060710095219" lon="7.871255334103556"><ele>298.4</ele><time>2026-04-12T09:35:52.999Z</time></trkpt><trkpt lat="44.61070107501347" lon="7.871234381177846"><ele>298.59999999999997</ele><time>2026-04-12T09:35:54.999Z</time></trkpt><trkpt lat="44.61079955266863" lon="7.871216440233282"><ele>298.8</ele><time>2026-04-12T09:35:56.998Z</time></trkpt><trkpt lat="44.61089884638431" lon="7.8711991203092975"><ele>299.0</ele><time>2026-04-12T09:35:58.998Z</time></trkpt><trkpt lat="44.610999462638404" lon="7.871181569695532"><ele>299.0</ele><time>2026-04-12T09:36:00.998Z</time></trkpt><trkpt lat="44.61110281113481" lon="7.87116108026567"><ele>299.0</ele><time>2026-04-12T09:36:02.998Z</time></trkpt><trkpt lat="44.61120605567441" lon="7.8711392962085185"><ele>299.0</ele><time>2026-04-12T09:36:04.998Z</time></trkpt><trkpt lat="44.61130796814585" lon="7.871120708084084"><ele>299.0</ele><time>2026-04-12T09:36:06.998Z</time></trkpt><trkpt lat="44.61141191586106" lon="7.871111502940185"><ele>299.0</ele><time>2026-04-12T09:36:09Z</time></trkpt><trkpt lat="44.611513425285324" lon="7.871110165712366"><ele>298.8</ele><time>2026-04-12T09:36:11Z</time></trkpt><trkpt lat="44.61162184459741" lon="7.871107039817266"><ele>298.59999999999997</ele><time>2026-04-12T09:36:13Z</time></trkpt><trkpt lat="44.611727206184256" lon="7.8710969331187846"><ele>298.4</ele><time>2026-04-12T09:36:15Z</time></trkpt><trkpt lat="44.61183421340941" lon="7.871084344033938"><ele>298.2</ele><time>2026-04-12T09:36:17Z</time></trkpt><trkpt lat="44.611939282337666" lon="7.8710701756060875"><ele>298.0</ele><time>2026-04-12T09:36:19Z</time></trkpt><trkpt lat="44.61204278906215" lon="7.871055288456326"><ele>297.6</ele><time>2026-04-12T09:36:21Z</time></trkpt><trkpt lat="44.612142022255455" lon="7.8710406166283375"><ele>297.20000000000005</ele><time>2026-04-12T09:36:23Z</time></trkpt><trkpt lat="44.61224148528591" lon="7.8710277036810075"><ele>296.8</ele><time>2026-04-12T09:36:25Z</time></trkpt><trkpt lat="44.61234659793266" lon="7.8710149595633405"><ele>296.40000000000003</ele><time>2026-04-12T09:36:27Z</time></trkpt><trkpt lat="44.61245235545928" lon="7.8710033643593995"><ele>296.0</ele><time>2026-04-12T09:36:29Z</time></trkpt><trkpt lat="44.6125562196018" lon="7.870995673134452"><ele>296.0</ele><time>2026-04-12T09:36:31Z</time></trkpt><trkpt lat="44.61266144965986" lon="7.870988677696408"><ele>296.0</ele><time>2026-04-12T09:36:33Z</time></trkpt><trkpt lat="44.61276208849377" lon="7.870976925499973"><ele>296.0</ele><time>2026-04-12T09:36:35Z</time></trkpt><trkpt lat="44.612857630319674" lon="7.870936486206235"><ele>296.0</ele><time>2026-04-12T09:36:37Z</time></trkpt><trkpt lat="44.61295929815704" lon="7.870941088112453"><ele>296.0</ele><time>2026-04-12T09:36:39Z</time></trkpt><trkpt lat="44.61305581807541" lon="7.8709228856485"><ele>296.40000000000003</ele><time>2026-04-12T09:36:41Z</time></trkpt><trkpt lat="44.61315534388751" lon="7.870903357804761"><ele>296.8</ele><time>2026-04-12T09:36:43Z</time></trkpt><trkpt lat="44.61325670542939" lon="7.870868785937029"><ele>297.20000000000005</ele><time>2026-04-12T09:36:45Z</time></trkpt><trkpt lat="44.61335336661553" lon="7.8708414376416975"><ele>297.6</ele><time>2026-04-12T09:36:47Z</time></trkpt><trkpt lat="44.61344661633491" lon="7.870843039209244"><ele>298.0</ele><time>2026-04-12T09:36:49Z</time></trkpt><trkpt lat="44.61354261321004" lon="7.870819103650114"><ele>298.0</ele><time>2026-04-12T09:36:51Z</time></trkpt><trkpt lat="44.613640479483614" lon="7.870780393206431"><ele>298.0</ele><time>2026-04-12T09:36:52.999Z</time></trkpt><trkpt lat="44.61373994692366" lon="7.870759770235608"><ele>298.0</ele><time>2026-04-12T09:36:54.999Z</time></trkpt><trkpt lat="44.61384336897208" lon="7.870735747801389"><ele>298.0</ele><time>2026-04-12T09:36:56.999Z</time></trkpt><trkpt lat="44.61395110579367" lon="7.87069983027762"><ele>298.0</ele><time>2026-04-12T09:36:58.999Z</time></trkpt><trkpt lat="44.61406045606633" lon="7.870662237077182"><ele>298.2</ele><time>2026-04-12T09:37:00.999Z</time></trkpt><trkpt lat="44.61416845745479" lon="7.87062548214287"><ele>298.4</ele><time>2026-04-12T09:37:02.999Z</time></trkpt><trkpt lat="44.61427917338198" lon="7.870581918036183"><ele>298.59999999999997</ele><time>2026-04-12T09:37:04.999Z</time></trkpt><trkpt lat="44.61438498248476" lon="7.870572495018242"><ele>298.8</ele><time>2026-04-12T09:37:06.999Z</time></trkpt><trkpt lat="44.614485155941914" lon="7.8705468682849045"><ele>299.0</ele><time>2026-04-12T09:37:08.999Z</time></trkpt><trkpt lat="44.61459790973517" lon="7.870520184355849"><ele>299.0</ele><time>2026-04-12T09:37:10.999Z</time></trkpt><trkpt lat="44.61471438807295" lon="7.8704916009002615"><ele>299.0</ele><time>2026-04-12T09:37:12.999Z</time></trkpt><trkpt lat="44.61483042500044" lon="7.870461779032089"><ele>299.0</ele><time>2026-04-12T09:37:14.999Z</time></trkpt><trkpt lat="44.61494470580779" lon="7.870432406685603"><ele>299.0</ele><time>2026-04-12T09:37:16.999Z</time></trkpt><trkpt lat="44.615061985199574" lon="7.870403099389699"><ele>299.0</ele><time>2026-04-12T09:37:18.999Z</time></trkpt><trkpt lat="44.615176480519295" lon="7.8703771832220895"><ele>299.0</ele><time>2026-04-12T09:37:20.999Z</time></trkpt><trkpt lat="44.61529463823832" lon="7.870355829318261"><ele>299.0</ele><time>2026-04-12T09:37:22.999Z</time></trkpt><trkpt lat="44.61541349878832" lon="7.870334628387515"><ele>299.0</ele><time>2026-04-12T09:37:24.999Z</time></trkpt><trkpt lat="44.615531640721116" lon="7.870310617697129"><ele>299.25</ele><time>2026-04-12T09:37:26.999Z</time></trkpt><trkpt lat="44.615645022144264" lon="7.870266573652732"><ele>299.5</ele><time>2026-04-12T09:37:28.999Z</time></trkpt><trkpt lat="44.615754700002505" lon="7.870252118088289"><ele>299.75</ele><time>2026-04-12T09:37:30.999Z</time></trkpt><trkpt lat="44.61585735816541" lon="7.870231985326417"><ele>300.0</ele><time>2026-04-12T09:37:32.999Z</time></trkpt><trkpt lat="44.6159755740848" lon="7.870207670904015"><ele>300.0</ele><time>2026-04-12T09:37:34.999Z</time></trkpt><trkpt lat="44.616090095848875" lon="7.870179491447314"><ele>300.0</ele><time>2026-04-12T09:37:36.999Z</time></trkpt><trkpt lat="44.61621058619363" lon="7.870165564414414"><ele>300.0</ele><time>2026-04-12T09:37:38.999Z</time></trkpt><trkpt lat="44.616325893086945" lon="7.870140862646488"><ele>300.0</ele><time>2026-04-12T09:37:40.999Z</time></trkpt><trkpt lat="44.61643862122483" lon="7.870099302964491"><ele>299.5</ele><time>2026-04-12T09:37:42.999Z</time></trkpt><trkpt lat="44.61655644578166" lon="7.870078778377758"><ele>299.0</ele><time>2026-04-12T09:37:44.999Z</time></trkpt><trkpt lat="44.61666665543728" lon="7.870044826571925"><ele>298.5</ele><time>2026-04-12T09:37:46.999Z</time></trkpt><trkpt lat="44.61678189718494" lon="7.870033268194653"><ele>298.0</ele><time>2026-04-12T09:37:48.999Z</time></trkpt><trkpt lat="44.61689520676755" lon="7.870019782624176"><ele>297.8</ele><time>2026-04-12T09:37:50.999Z</time></trkpt><trkpt lat="44.61700161712163" lon="7.8700021911508005"><ele>297.6</ele><time>2026-04-12T09:37:52.999Z</time></trkpt><trkpt lat="44.6171140351545" lon="7.8700050699798245"><ele>297.4</ele><time>2026-04-12T09:37:54.999Z</time></trkpt><trkpt lat="44.61722561604505" lon="7.870002464768039"><ele>297.2</ele><time>2026-04-12T09:37:56.999Z</time></trkpt><trkpt lat="44.61734019756966" lon="7.869999721461381"><ele>297.0</ele><time>2026-04-12T09:37:58.999Z</time></trkpt><trkpt lat="44.617444779890064" lon="7.869984745271012"><ele>297.0</ele><time>2026-04-12T09:38:00.999Z</time></trkpt><trkpt lat="44.61753989488263" lon="7.869936445898401"><ele>297.0</ele><time>2026-04-12T09:38:02.999Z</time></trkpt><trkpt lat="44.617646587399015" lon="7.869892261535581"><ele>297.0</ele><time>2026-04-12T09:38:04.999Z</time></trkpt><trkpt lat="44.61772406585328" lon="7.869802335873029"><ele>297.0</ele><time>2026-04-12T09:38:06.999Z</time></trkpt><trkpt lat="44.61782557429759" lon="7.869803782247124"><ele>297.0</ele><time>2026-04-12T09:38:08.999Z</time></trkpt><trkpt lat="44.617912149977855" lon="7.869853646766564"><ele>296.5</ele><time>2026-04-12T09:38:10.999Z</time></trkpt><trkpt lat="44.617995773820546" lon="7.869893405825212"><ele>296.0</ele><time>2026-04-12T09:38:12.999Z</time></trkpt><trkpt lat="44.61808406803045" lon="7.869920092766978"><ele>295.5</ele><time>2026-04-12T09:38:15Z</time></trkpt><trkpt lat="44.618154507583284" lon="7.869976425965888"><ele>295.0</ele><time>2026-04-12T09:38:17Z</time></trkpt><trkpt lat="44.618238411186695" lon="7.870014890174441"><ele>294.5</ele><time>2026-04-12T09:38:19Z</time></trkpt><trkpt lat="44.61833277861302" lon="7.870044766733209"><ele>294.0</ele><time>2026-04-12T09:38:21Z</time></trkpt><trkpt lat="44.61842643710045" lon="7.870068254901143"><ele>294.0</ele><time>2026-04-12T09:38:23Z</time></trkpt><trkpt lat="44.618521931748646" lon="7.870076153791421"><ele>294.0</ele><time>2026-04-12T09:38:25Z</time></trkpt><trkpt lat="44.61862739241964" lon="7.870078543916477"><ele>294.0</ele><time>2026-04-12T09:38:27Z</time></trkpt><trkpt lat="44.61873307671438" lon="7.87005862233519"><ele>294.0</ele><time>2026-04-12T09:38:29Z</time></trkpt><trkpt lat="44.61884563885545" lon="7.870049554991242"><ele>294.0</ele><time>2026-04-12T09:38:31Z</time></trkpt><trkpt lat="44.61895688482193" lon="7.870055001400899"><ele>294.0</ele><time>2026-04-12T09:38:33Z</time></trkpt><trkpt lat="44.619061559129456" lon="7.870045006232154"><ele>294.0</ele><time>2026-04-12T09:38:35Z</time></trkpt><trkpt lat="44.61916387475296" lon="7.870014088257282"><ele>294.0</ele><time>2026-04-12T09:38:37Z</time></trkpt><trkpt lat="44.619262422624445" lon="7.870000827818816"><ele>294.0</ele><time>2026-04-12T09:38:39Z</time></trkpt><trkpt lat="44.61936013661791" lon="7.870003048306878"><ele>294.0</ele><time>2026-04-12T09:38:41Z</time></trkpt><trkpt lat="44.61945671738216" lon="7.870002442777966"><ele>294.0</ele><time>2026-04-12T09:38:43Z</time></trkpt><trkpt lat="44.619556954531056" lon="7.869998905869011"><ele>294.0</ele><time>2026-04-12T09:38:45Z</time></trkpt><trkpt lat="44.61965061932109" lon="7.869966279846148"><ele>294.0</ele><time>2026-04-12T09:38:47Z</time></trkpt><trkpt lat="44.6197412799707" lon="7.869918406563373"><ele>294.0</ele><time>2026-04-12T09:38:49Z</time></trkpt><trkpt lat="44.61978654912099" lon="7.869823141631196"><ele>294.0</ele><time>2026-04-12T09:38:51Z</time></trkpt><trkpt lat="44.61986420847035" lon="7.869747154900413"><ele>294.0</ele><time>2026-04-12T09:38:53Z</time></trkpt><trkpt lat="44.61994446608813" lon="7.869643460422416"><ele>294.0</ele><time>2026-04-12T09:38:55Z</time></trkpt><trkpt lat="44.62002000107336" lon="7.869535827661122"><ele>294.0</ele><time>2026-04-12T09:38:57Z</time></trkpt><trkpt lat="44.62011311153958" lon="7.8694489964486705"><ele>294.0</ele><time>2026-04-12T09:38:59Z</time></trkpt><trkpt lat="44.620203843127726" lon="7.86936543780279"><ele>294.0</ele><time>2026-04-12T09:39:01Z</time></trkpt><trkpt lat="44.62029830370944" lon="7.869280993382865"><ele>293.8</ele><time>2026-04-12T09:39:03Z</time></trkpt><trkpt lat="44.6203929577513" lon="7.8692062748310745"><ele>293.59999999999997</ele><time>2026-04-12T09:39:05Z</time></trkpt><trkpt lat="44.6204836839772" lon="7.869141547123255"><ele>293.4</ele><time>2026-04-12T09:39:07Z</time></trkpt><trkpt lat="44.620578415443894" lon="7.869065314996149"><ele>293.2</ele><time>2026-04-12T09:39:09Z</time></trkpt><trkpt lat="44.62067353328857" lon="7.868998587662981"><ele>293.0</ele><time>2026-04-12T09:39:10.999Z</time></trkpt><trkpt lat="44.62077309361811" lon="7.868956597131419"><ele>293.0</ele><time>2026-04-12T09:39:12.999Z</time></trkpt><trkpt lat="44.62086479269216" lon="7.868896407290152"><ele>293.0</ele><time>2026-04-12T09:39:14.999Z</time></trkpt><trkpt lat="44.62096185661851" lon="7.868827868894095"><ele>293.0</ele><time>2026-04-12T09:39:16.999Z</time></trkpt><trkpt lat="44.62105599000519" lon="7.86876204189821"><ele>293.0</ele><time>2026-04-12T09:39:18.999Z</time></trkpt><trkpt lat="44.62115130938442" lon="7.868699128686465"><ele>293.0</ele><time>2026-04-12T09:39:20.999Z</time></trkpt><trkpt lat="44.62124622470556" lon="7.868637710414485"><ele>293.0</ele><time>2026-04-12T09:39:22.999Z</time></trkpt><trkpt lat="44.621340833949134" lon="7.8685764901749256"><ele>293.0</ele><time>2026-04-12T09:39:24.999Z</time></trkpt><trkpt lat="44.62143230364343" lon="7.868498087374234"><ele>293.0</ele><time>2026-04-12T09:39:26.999Z</time></trkpt><trkpt lat="44.62152691909735" lon="7.8684362412158775"><ele>293.0</ele><time>2026-04-12T09:39:28.999Z</time></trkpt><trkpt lat="44.621625589997954" lon="7.868371942362227"><ele>293.0</ele><time>2026-04-12T09:39:30.999Z</time></trkpt><trkpt lat="44.621716130812025" lon="7.868307238893301"><ele>293.0</ele><time>2026-04-12T09:39:32.999Z</time></trkpt><trkpt lat="44.621811673704364" lon="7.868237516381919"><ele>293.0</ele><time>2026-04-12T09:39:34.999Z</time></trkpt><trkpt lat="44.6219039127568" lon="7.868167890696714"><ele>293.0</ele><time>2026-04-12T09:39:36.999Z</time></trkpt><trkpt lat="44.621992255562965" lon="7.868101079357417"><ele>293.0</ele><time>2026-04-12T09:39:38.999Z</time></trkpt><trkpt lat="44.6220853342267" lon="7.868049770948408"><ele>293.0</ele><time>2026-04-12T09:39:40.999Z</time></trkpt><trkpt lat="44.62216756562415" lon="7.867965774764524"><ele>293.0</ele><time>2026-04-12T09:39:42.999Z</time></trkpt><trkpt lat="44.622256631316525" lon="7.867897504951581"><ele>293.0</ele><time>2026-04-12T09:39:44.999Z</time></trkpt><trkpt lat="44.622345602148755" lon="7.867827455465852"><ele>293.0</ele><time>2026-04-12T09:39:46.999Z</time></trkpt><trkpt lat="44.62243402657975" lon="7.867755924725626"><ele>293.0</ele><time>2026-04-12T09:39:48.999Z</time></trkpt><trkpt lat="44.622525578972265" lon="7.8676832694348855"><ele>293.0</ele><time>2026-04-12T09:39:50.999Z</time></trkpt><trkpt lat="44.62261737411321" lon="7.86761044940765"><ele>293.0</ele><time>2026-04-12T09:39:52.999Z</time></trkpt><trkpt lat="44.622706944096706" lon="7.867540989951275"><ele>293.0</ele><time>2026-04-12T09:39:54.999Z</time></trkpt><trkpt lat="44.62280031128205" lon="7.867467812309436"><ele>293.0</ele><time>2026-04-12T09:39:56.999Z</time></trkpt><trkpt lat="44.62289508561624" lon="7.867393478874266"><ele>293.0</ele><time>2026-04-12T09:39:58.999Z</time></trkpt><trkpt lat="44.62298997202555" lon="7.8673164831468085"><ele>293.0</ele><time>2026-04-12T09:40:00.999Z</time></trkpt><trkpt lat="44.62307986372913" lon="7.867247533917692"><ele>293.0</ele><time>2026-04-12T09:40:02.999Z</time></trkpt><trkpt lat="44.6231791232781" lon="7.867193833234271"><ele>293.0</ele><time>2026-04-12T09:40:04.999Z</time></trkpt><trkpt lat="44.62326632970738" lon="7.867104162840835"><ele>293.0</ele><time>2026-04-12T09:40:06.999Z</time></trkpt><trkpt lat="44.62336132124662" lon="7.867033124547926"><ele>293.0</ele><time>2026-04-12T09:40:08.999Z</time></trkpt><trkpt lat="44.62345761060268" lon="7.866961868231815"><ele>293.0</ele><time>2026-04-12T09:40:10.999Z</time></trkpt><trkpt lat="44.62354976530827" lon="7.866895422890656"><ele>293.0</ele><time>2026-04-12T09:40:12.999Z</time></trkpt><trkpt lat="44.623645898566124" lon="7.866845836956285"><ele>293.0</ele><time>2026-04-12T09:40:14.999Z</time></trkpt><trkpt lat="44.62372690522291" lon="7.86676358597691"><ele>293.0</ele><time>2026-04-12T09:40:16.999Z</time></trkpt><trkpt lat="44.62381671839444" lon="7.866692329560418"><ele>293.0</ele><time>2026-04-12T09:40:18.999Z</time></trkpt><trkpt lat="44.623906040634154" lon="7.866616369435795"><ele>293.0</ele><time>2026-04-12T09:40:21Z</time></trkpt><trkpt lat="44.62399781865548" lon="7.8665525685494595"><ele>292.8</ele><time>2026-04-12T09:40:23Z</time></trkpt><trkpt lat="44.62407712619254" lon="7.866468250643368"><ele>292.6</ele><time>2026-04-12T09:40:25Z</time></trkpt><trkpt lat="44.62414414583139" lon="7.86637044096564"><ele>292.4</ele><time>2026-04-12T09:40:27Z</time></trkpt><trkpt lat="44.62412279731216" lon="7.866206346090202"><ele>292.2</ele><time>2026-04-12T09:40:29Z</time></trkpt><trkpt lat="44.62409483610994" lon="7.86609423505086"><ele>292.0</ele><time>2026-04-12T09:40:31Z</time></trkpt><trkpt lat="44.62406547474824" lon="7.86597564625532"><ele>292.2</ele><time>2026-04-12T09:40:33Z</time></trkpt><trkpt lat="44.62403476461694" lon="7.865846020099162"><ele>292.4</ele><time>2026-04-12T09:40:35Z</time></trkpt><trkpt lat="44.62404256765791" lon="7.865732847751866"><ele>292.6</ele><time>2026-04-12T09:40:37Z</time></trkpt><trkpt lat="44.62396735013623" lon="7.865653990156755"><ele>292.8</ele><time>2026-04-12T09:40:38Z</time></trkpt><trkpt lat="44.62393634161467" lon="7.865525167550329"><ele>293.0</ele><time>2026-04-12T09:40:40Z</time></trkpt><trkpt lat="44.62392121160391" lon="7.865400827157082"><ele>293.0</ele><time>2026-04-12T09:40:42Z</time></trkpt><trkpt lat="44.62391016986993" lon="7.865280858784054"><ele>293.0</ele><time>2026-04-12T09:40:44Z</time></trkpt><trkpt lat="44.62389684621577" lon="7.865160941073307"><ele>293.0</ele><time>2026-04-12T09:40:46Z</time></trkpt><trkpt lat="44.62388681837182" lon="7.8650479318874655"><ele>293.0</ele><time>2026-04-12T09:40:48Z</time></trkpt><trkpt lat="44.6239866228389" lon="7.865008886609527"><ele>293.0</ele><time>2026-04-12T09:40:50Z</time></trkpt><trkpt lat="44.62406370857516" lon="7.864915918413131"><ele>293.2</ele><time>2026-04-12T09:40:52Z</time></trkpt><trkpt lat="44.624150105959174" lon="7.864839577166017"><ele>293.4</ele><time>2026-04-12T09:40:54Z</time></trkpt><trkpt lat="44.624240458586634" lon="7.864760556602234"><ele>293.59999999999997</ele><time>2026-04-12T09:40:56Z</time></trkpt><trkpt lat="44.62432019075942" lon="7.864679893689166"><ele>293.8</ele><time>2026-04-12T09:40:58Z</time></trkpt><trkpt lat="44.62440017543425" lon="7.864592080311581"><ele>294.0</ele><time>2026-04-12T09:41:00Z</time></trkpt><trkpt lat="44.62448200827328" lon="7.8645033856106"><ele>293.59999999999997</ele><time>2026-04-12T09:41:02Z</time></trkpt><trkpt lat="44.62456580884011" lon="7.864424592999235"><ele>293.2</ele><time>2026-04-12T09:41:04Z</time></trkpt><trkpt lat="44.62465452446864" lon="7.864348812994785"><ele>292.79999999999995</ele><time>2026-04-12T09:41:06Z</time></trkpt><trkpt lat="44.6247487333819" lon="7.864294149180628"><ele>292.4</ele><time>2026-04-12T09:41:08Z</time></trkpt><trkpt lat="44.62484297863418" lon="7.86421462689251"><ele>292.0</ele><time>2026-04-12T09:41:10Z</time></trkpt><trkpt lat="44.62494096092235" lon="7.8641319516590285"><ele>292.0</ele><time>2026-04-12T09:41:12Z</time></trkpt><trkpt lat="44.62503445134652" lon="7.864053066220471"><ele>292.0</ele><time>2026-04-12T09:41:13.999Z</time></trkpt><trkpt lat="44.625118675674706" lon="7.863981999517133"><ele>292.0</ele><time>2026-04-12T09:41:15.999Z</time></trkpt><trkpt lat="44.62519740127889" lon="7.863918690926245"><ele>292.0</ele><time>2026-04-12T09:41:17.999Z</time></trkpt><trkpt lat="44.625264900596136" lon="7.863867641648503"><ele>292.0</ele><time>2026-04-12T09:41:19.999Z</time></trkpt><trkpt lat="44.62532874820567" lon="7.863811649091693"><ele>291.85714285714283</ele><time>2026-04-12T09:41:21.999Z</time></trkpt><trkpt lat="44.6253901384561" lon="7.863744910173292"><ele>291.7142857142857</ele><time>2026-04-12T09:41:23.999Z</time></trkpt><trkpt lat="44.62544186085728" lon="7.8636891558117785"><ele>291.57142857142856</ele><time>2026-04-12T09:41:25.999Z</time></trkpt><trkpt lat="44.625500445972094" lon="7.8636288033328885"><ele>291.42857142857144</ele><time>2026-04-12T09:41:27.999Z</time></trkpt><trkpt lat="44.625553452645676" lon="7.863574494367604"><ele>291.2857142857143</ele><time>2026-04-12T09:41:29.999Z</time></trkpt><trkpt lat="44.62564402723282" lon="7.8635416528729865"><ele>291.1428571428571</ele><time>2026-04-12T09:41:32.999Z</time></trkpt><trkpt lat="44.625717170914236" lon="7.863552652543508"><ele>291.0</ele><time>2026-04-12T09:41:34.999Z</time></trkpt><trkpt lat="44.625814036573644" lon="7.863587972792435"><ele>291.0</ele><time>2026-04-12T09:41:36.999Z</time></trkpt><trkpt lat="44.625928221130145" lon="7.86364324372702"><ele>291.0</ele><time>2026-04-12T09:41:38.999Z</time></trkpt><trkpt lat="44.62599208148622" lon="7.8636748204204325"><ele>291.0</ele><time>2026-04-12T09:41:39.999Z</time></trkpt><trkpt lat="44.62606695731122" lon="7.863695667572016"><ele>291.0</ele><time>2026-04-12T09:41:40.999Z</time></trkpt><trkpt lat="44.6261318849217" lon="7.86371510150956"><ele>291.0</ele><time>2026-04-12T09:41:41.999Z</time></trkpt><trkpt lat="44.626200703203416" lon="7.8637394572812465"><ele>291.0</ele><time>2026-04-12T09:41:42.999Z</time></trkpt><trkpt lat="44.62627219851592" lon="7.863758240142872"><ele>290.57142857142856</ele><time>2026-04-12T09:41:43.999Z</time></trkpt><trkpt lat="44.62634167955302" lon="7.863773918901128"><ele>290.1428571428571</ele><time>2026-04-12T09:41:44.999Z</time></trkpt><trkpt lat="44.62641417224222" lon="7.863756827070988"><ele>289.7142857142857</ele><time>2026-04-12T09:41:45.999Z</time></trkpt><trkpt lat="44.62647900496145" lon="7.863755860956034"><ele>289.2857142857143</ele><time>2026-04-12T09:41:46.999Z</time></trkpt><trkpt lat="44.62654682576398" lon="7.863739870843879"><ele>288.8571428571429</ele><time>2026-04-12T09:41:47.999Z</time></trkpt><trkpt lat="44.626613583021" lon="7.863721884296122"><ele>288.42857142857144</ele><time>2026-04-12T09:41:48.999Z</time></trkpt><trkpt lat="44.62667489187912" lon="7.8636912732484525"><ele>288.0</ele><time>2026-04-12T09:41:49.999Z</time></trkpt><trkpt lat="44.626739074338005" lon="7.863668757193391"><ele>288.0</ele><time>2026-04-12T09:41:50.999Z</time></trkpt><trkpt lat="44.626857943188064" lon="7.863606002477632"><ele>288.0</ele><time>2026-04-12T09:41:52.999Z</time></trkpt><trkpt lat="44.62692095744683" lon="7.863572326720005"><ele>288.0</ele><time>2026-04-12T09:41:53.999Z</time></trkpt><trkpt lat="44.62698028059442" lon="7.863533823029372"><ele>288.0</ele><time>2026-04-12T09:41:54.999Z</time></trkpt><trkpt lat="44.62703952466408" lon="7.863493554081523"><ele>288.0</ele><time>2026-04-12T09:41:55.999Z</time></trkpt><trkpt lat="44.62709773578944" lon="7.863456292272593"><ele>288.0</ele><time>2026-04-12T09:41:56.999Z</time></trkpt><trkpt lat="44.627210218461705" lon="7.8633820519648525"><ele>289.0</ele><time>2026-04-12T09:41:58.999Z</time></trkpt><trkpt lat="44.62732052269097" lon="7.863311832963733"><ele>290.0</ele><time>2026-04-12T09:42:00.999Z</time></trkpt><trkpt lat="44.62742679910168" lon="7.863239477923482"><ele>291.0</ele><time>2026-04-12T09:42:02.999Z</time></trkpt><trkpt lat="44.627528101389714" lon="7.863162872461312"><ele>292.0</ele><time>2026-04-12T09:42:04.999Z</time></trkpt><trkpt lat="44.62763060667894" lon="7.863097138190576"><ele>292.0</ele><time>2026-04-12T09:42:06.999Z</time></trkpt><trkpt lat="44.62773209105905" lon="7.863024186964242"><ele>292.0</ele><time>2026-04-12T09:42:08.999Z</time></trkpt><trkpt lat="44.62783190493422" lon="7.862944072634426"><ele>292.0</ele><time>2026-04-12T09:42:10.999Z</time></trkpt><trkpt lat="44.62794030322281" lon="7.862873365278219"><ele>292.0</ele><time>2026-04-12T09:42:12.999Z</time></trkpt><trkpt lat="44.62804547638596" lon="7.862800376800237"><ele>292.25</ele><time>2026-04-12T09:42:14.999Z</time></trkpt><trkpt lat="44.62815400251487" lon="7.862729064849994"><ele>292.5</ele><time>2026-04-12T09:42:16.999Z</time></trkpt><trkpt lat="44.62825640694913" lon="7.86266177546667"><ele>292.75</ele><time>2026-04-12T09:42:18.999Z</time></trkpt><trkpt lat="44.628360948478935" lon="7.862590440980941"><ele>293.0</ele><time>2026-04-12T09:42:20.999Z</time></trkpt><trkpt lat="44.62846108202885" lon="7.8625157410027535"><ele>293.0</ele><time>2026-04-12T09:42:22.999Z</time></trkpt><trkpt lat="44.628558937522406" lon="7.862428885696814"><ele>293.0</ele><time>2026-04-12T09:42:24.999Z</time></trkpt><trkpt lat="44.62864762635505" lon="7.862330567846833"><ele>293.0</ele><time>2026-04-12T09:42:27Z</time></trkpt><trkpt lat="44.6287412289074" lon="7.862244076142433"><ele>293.0</ele><time>2026-04-12T09:42:29Z</time></trkpt><trkpt lat="44.62883324942712" lon="7.862166384761606"><ele>293.0</ele><time>2026-04-12T09:42:31Z</time></trkpt><trkpt lat="44.62892398123163" lon="7.862092838426205"><ele>292.2</ele><time>2026-04-12T09:42:33Z</time></trkpt><trkpt lat="44.6290307883881" lon="7.862065795684999"><ele>291.4</ele><time>2026-04-12T09:42:35Z</time></trkpt><trkpt lat="44.62913389015692" lon="7.86203552524509"><ele>290.59999999999997</ele><time>2026-04-12T09:42:37Z</time></trkpt><trkpt lat="44.62924323181822" lon="7.862017268363122"><ele>289.8</ele><time>2026-04-12T09:42:39Z</time></trkpt><trkpt lat="44.62935333251312" lon="7.861982220281058"><ele>289.0</ele><time>2026-04-12T09:42:41Z</time></trkpt><trkpt lat="44.629463573213926" lon="7.861980527912742"><ele>288.8</ele><time>2026-04-12T09:42:43Z</time></trkpt><trkpt lat="44.62957893813673" lon="7.861992256525165"><ele>288.59999999999997</ele><time>2026-04-12T09:42:45Z</time></trkpt><trkpt lat="44.62968350058734" lon="7.862028813999482"><ele>288.4</ele><time>2026-04-12T09:42:47Z</time></trkpt><trkpt lat="44.629791084227065" lon="7.862037396393363"><ele>288.2</ele><time>2026-04-12T09:42:49Z</time></trkpt><trkpt lat="44.6298867961352" lon="7.862064581014156"><ele>288.0</ele><time>2026-04-12T09:42:51Z</time></trkpt><trkpt lat="44.62999219697381" lon="7.862089741225098"><ele>288.0</ele><time>2026-04-12T09:42:53Z</time></trkpt><trkpt lat="44.63009845573712" lon="7.862133557704474"><ele>288.0</ele><time>2026-04-12T09:42:55Z</time></trkpt><trkpt lat="44.63019858717764" lon="7.86214226212679"><ele>288.0</ele><time>2026-04-12T09:42:57Z</time></trkpt><trkpt lat="44.63030754676967" lon="7.862135345890562"><ele>288.0</ele><time>2026-04-12T09:42:59Z</time></trkpt><trkpt lat="44.63040997186203" lon="7.862121405795659"><ele>288.0</ele><time>2026-04-12T09:43:01Z</time></trkpt><trkpt lat="44.63052154252155" lon="7.862105554639429"><ele>287.6</ele><time>2026-04-12T09:43:03Z</time></trkpt><trkpt lat="44.63063430865907" lon="7.862082859916573"><ele>287.20000000000005</ele><time>2026-04-12T09:43:05Z</time></trkpt><trkpt lat="44.63075054067474" lon="7.862048787452079"><ele>286.8</ele><time>2026-04-12T09:43:07Z</time></trkpt><trkpt lat="44.63085225587595" lon="7.86201590130345"><ele>286.40000000000003</ele><time>2026-04-12T09:43:09Z</time></trkpt><trkpt lat="44.63095428714756" lon="7.861982049237454"><ele>286.0</ele><time>2026-04-12T09:43:11Z</time></trkpt><trkpt lat="44.63105317110842" lon="7.861949241398166"><ele>285.8</ele><time>2026-04-12T09:43:13Z</time></trkpt><trkpt lat="44.6311541386982" lon="7.861916566134234"><ele>285.6</ele><time>2026-04-12T09:43:15Z</time></trkpt><trkpt lat="44.63124745456184" lon="7.861887649267563"><ele>285.4</ele><time>2026-04-12T09:43:17Z</time></trkpt><trkpt lat="44.631348766302175" lon="7.861859715763622"><ele>285.2</ele><time>2026-04-12T09:43:19Z</time></trkpt><trkpt lat="44.631453469814566" lon="7.861835049396851"><ele>285.0</ele><time>2026-04-12T09:43:21Z</time></trkpt><trkpt lat="44.631564320038564" lon="7.861816148526763"><ele>285.0</ele><time>2026-04-12T09:43:23Z</time></trkpt><trkpt lat="44.631664943015764" lon="7.861799639717321"><ele>285.0</ele><time>2026-04-12T09:43:24.999Z</time></trkpt><trkpt lat="44.631777077259166" lon="7.861785576176516"><ele>285.0</ele><time>2026-04-12T09:43:26.999Z</time></trkpt><trkpt lat="44.63187550462619" lon="7.861778905911103"><ele>285.0</ele><time>2026-04-12T09:43:28.999Z</time></trkpt><trkpt lat="44.63198227637653" lon="7.86177859658977"><ele>285.0</ele><time>2026-04-12T09:43:30.999Z</time></trkpt><trkpt lat="44.63209361186681" lon="7.861780565388649"><ele>284.4</ele><time>2026-04-12T09:43:32.999Z</time></trkpt><trkpt lat="44.63219950992811" lon="7.861779900331937"><ele>283.8</ele><time>2026-04-12T09:43:34.999Z</time></trkpt><trkpt lat="44.63230099447964" lon="7.861780243581691"><ele>283.2</ele><time>2026-04-12T09:43:36.999Z</time></trkpt><trkpt lat="44.6324103767463" lon="7.861786807327436"><ele>282.6</ele><time>2026-04-12T09:43:38.999Z</time></trkpt><trkpt lat="44.63251604640716" lon="7.861793148296738"><ele>282.0</ele><time>2026-04-12T09:43:40.999Z</time></trkpt><trkpt lat="44.63262143493077" lon="7.861799472234496"><ele>281.6</ele><time>2026-04-12T09:43:42.999Z</time></trkpt><trkpt lat="44.6327262495021" lon="7.861771031880796"><ele>281.2</ele><time>2026-04-12T09:43:44.999Z</time></trkpt><trkpt lat="44.63282818467829" lon="7.861774819863235"><ele>280.8</ele><time>2026-04-12T09:43:46.999Z</time></trkpt><trkpt lat="44.632932680402405" lon="7.8618011464375"><ele>280.4</ele><time>2026-04-12T09:43:48.999Z</time></trkpt><trkpt lat="44.63303912179669" lon="7.861783010185485"><ele>280.0</ele><time>2026-04-12T09:43:50.999Z</time></trkpt><trkpt lat="44.63314758321572" lon="7.8617501600270066"><ele>281.0</ele><time>2026-04-12T09:43:52.999Z</time></trkpt><trkpt lat="44.63325644002066" lon="7.861708191404014"><ele>282.0</ele><time>2026-04-12T09:43:54.999Z</time></trkpt><trkpt lat="44.633363832442754" lon="7.861660160351298"><ele>283.0</ele><time>2026-04-12T09:43:56.999Z</time></trkpt><trkpt lat="44.6334687436822" lon="7.861612398772605"><ele>284.0</ele><time>2026-04-12T09:43:58.999Z</time></trkpt><trkpt lat="44.633575338933234" lon="7.861564619600432"><ele>285.0</ele><time>2026-04-12T09:44:00.999Z</time></trkpt><trkpt lat="44.6336863445305" lon="7.86151683520724"><ele>285.0</ele><time>2026-04-12T09:44:02.999Z</time></trkpt><trkpt lat="44.6337950731653" lon="7.861470032792036"><ele>285.0</ele><time>2026-04-12T09:44:04.999Z</time></trkpt><trkpt lat="44.63390047683391" lon="7.861421044021056"><ele>285.0</ele><time>2026-04-12T09:44:06.999Z</time></trkpt><trkpt lat="44.634009478066126" lon="7.861369439563931"><ele>285.0</ele><time>2026-04-12T09:44:08.999Z</time></trkpt><trkpt lat="44.634120837471166" lon="7.861317988074623"><ele>285.0</ele><time>2026-04-12T09:44:10.999Z</time></trkpt><trkpt lat="44.634233108724146" lon="7.861268862405891"><ele>285.0</ele><time>2026-04-12T09:44:12.999Z</time></trkpt><trkpt lat="44.63434312787624" lon="7.861220722203558"><ele>285.0</ele><time>2026-04-12T09:44:14.999Z</time></trkpt><trkpt lat="44.63445283040212" lon="7.861168847448842"><ele>285.0</ele><time>2026-04-12T09:44:16.999Z</time></trkpt><trkpt lat="44.63456234865698" lon="7.861109275709782"><ele>285.6</ele><time>2026-04-12T09:44:18.999Z</time></trkpt><trkpt lat="44.63466000357173" lon="7.86103327897934"><ele>286.2</ele><time>2026-04-12T09:44:20.999Z</time></trkpt><trkpt lat="44.63475075247588" lon="7.860946325590772"><ele>286.8</ele><time>2026-04-12T09:44:22.999Z</time></trkpt><trkpt lat="44.63483349324689" lon="7.86085308554463"><ele>287.4</ele><time>2026-04-12T09:44:24.999Z</time></trkpt><trkpt lat="44.63490368961063" lon="7.860732758214481"><ele>288.0</ele><time>2026-04-12T09:44:26.999Z</time></trkpt><trkpt lat="44.634988437775384" lon="7.860630474222217"><ele>288.0</ele><time>2026-04-12T09:44:28.999Z</time></trkpt><trkpt lat="44.63507129315402" lon="7.860516426966234"><ele>288.0</ele><time>2026-04-12T09:44:30.999Z</time></trkpt><trkpt lat="44.63515947283904" lon="7.860407792285292"><ele>288.0</ele><time>2026-04-12T09:44:33Z</time></trkpt><trkpt lat="44.635257340347316" lon="7.860317721379392"><ele>288.0</ele><time>2026-04-12T09:44:35Z</time></trkpt><trkpt lat="44.635331471841845" lon="7.86018772763983"><ele>287.75</ele><time>2026-04-12T09:44:37Z</time></trkpt><trkpt lat="44.63539746963207" lon="7.860048049671735"><ele>287.5</ele><time>2026-04-12T09:44:39Z</time></trkpt><trkpt lat="44.635468454619506" lon="7.859919055656816"><ele>287.25</ele><time>2026-04-12T09:44:41Z</time></trkpt><trkpt lat="44.63553364245572" lon="7.8597892171848915"><ele>287.0</ele><time>2026-04-12T09:44:43Z</time></trkpt><trkpt lat="44.63562182356185" lon="7.859692481319657"><ele>287.0</ele><time>2026-04-12T09:44:45Z</time></trkpt><trkpt lat="44.63572174814239" lon="7.859621340961502"><ele>287.0</ele><time>2026-04-12T09:44:47Z</time></trkpt><trkpt lat="44.63582777611793" lon="7.859587937894411"><ele>287.0</ele><time>2026-04-12T09:44:49Z</time></trkpt><trkpt lat="44.635937690691506" lon="7.859588736336863"><ele>287.0</ele><time>2026-04-12T09:44:51Z</time></trkpt><trkpt lat="44.63604670679673" lon="7.8596042149139"><ele>287.0</ele><time>2026-04-12T09:44:53Z</time></trkpt><trkpt lat="44.6361582186359" lon="7.859635379638276"><ele>286.75</ele><time>2026-04-12T09:44:55Z</time></trkpt><trkpt lat="44.63626690935867" lon="7.859682664189271"><ele>286.5</ele><time>2026-04-12T09:44:57Z</time></trkpt><trkpt lat="44.63637729817378" lon="7.859734658953661"><ele>286.25</ele><time>2026-04-12T09:44:59Z</time></trkpt><trkpt lat="44.63648858513979" lon="7.859780277526577"><ele>286.0</ele><time>2026-04-12T09:45:01Z</time></trkpt><trkpt lat="44.63660408758279" lon="7.859817498907431"><ele>286.0</ele><time>2026-04-12T09:45:03Z</time></trkpt><trkpt lat="44.63671693567598" lon="7.859848179333066"><ele>286.0</ele><time>2026-04-12T09:45:05Z</time></trkpt><trkpt lat="44.63682539466168" lon="7.859877666508192"><ele>286.0</ele><time>2026-04-12T09:45:07Z</time></trkpt><trkpt lat="44.636926833932854" lon="7.859905244435049"><ele>286.0</ele><time>2026-04-12T09:45:09Z</time></trkpt><trkpt lat="44.637025124416226" lon="7.859924443457192"><ele>286.0</ele><time>2026-04-12T09:45:11Z</time></trkpt><trkpt lat="44.63711474547643" lon="7.859941317913554"><ele>286.40000000000003</ele><time>2026-04-12T09:45:13Z</time></trkpt><trkpt lat="44.63720861713814" lon="7.859955346213519"><ele>286.8</ele><time>2026-04-12T09:45:15Z</time></trkpt><trkpt lat="44.637309152354355" lon="7.859968058265468"><ele>287.20000000000005</ele><time>2026-04-12T09:45:17Z</time></trkpt><trkpt lat="44.63741660732093" lon="7.859980060946071"><ele>287.6</ele><time>2026-04-12T09:45:19Z</time></trkpt><trkpt lat="44.63752511455017" lon="7.859991915918583"><ele>288.0</ele><time>2026-04-12T09:45:21Z</time></trkpt><trkpt lat="44.63763692111403" lon="7.860003258523993"><ele>288.0</ele><time>2026-04-12T09:45:23Z</time></trkpt><trkpt lat="44.63774937811068" lon="7.860011667261444"><ele>288.0</ele><time>2026-04-12T09:45:25Z</time></trkpt><trkpt lat="44.63786536584636" lon="7.860014491191563"><ele>288.0</ele><time>2026-04-12T09:45:27Z</time></trkpt><trkpt lat="44.63797932923786" lon="7.860016960643368"><ele>288.0</ele><time>2026-04-12T09:45:29Z</time></trkpt><trkpt lat="44.638091966337846" lon="7.860018814237956"><ele>287.75</ele><time>2026-04-12T09:45:31Z</time></trkpt><trkpt lat="44.638206126809244" lon="7.860018814238133"><ele>287.5</ele><time>2026-04-12T09:45:32.999Z</time></trkpt><trkpt lat="44.638321457566256" lon="7.860014868167748"><ele>287.25</ele><time>2026-04-12T09:45:34.999Z</time></trkpt><trkpt lat="44.63843778743495" lon="7.86001062072694"><ele>287.0</ele><time>2026-04-12T09:45:36.999Z</time></trkpt><trkpt lat="44.63855671830552" lon="7.860002963469716"><ele>286.75</ele><time>2026-04-12T09:45:38.999Z</time></trkpt><trkpt lat="44.63867223748533" lon="7.859995524036589"><ele>286.5</ele><time>2026-04-12T09:45:40.999Z</time></trkpt><trkpt lat="44.638788952988754" lon="7.859983968089634"><ele>286.25</ele><time>2026-04-12T09:45:42.999Z</time></trkpt><trkpt lat="44.6389007640309" lon="7.859972406044856"><ele>286.0</ele><time>2026-04-12T09:45:44.999Z</time></trkpt><trkpt lat="44.63900965065387" lon="7.859961146414586"><ele>286.0</ele><time>2026-04-12T09:45:46.999Z</time></trkpt><trkpt lat="44.63911254848846" lon="7.85995050606453"><ele>286.0</ele><time>2026-04-12T09:45:48.999Z</time></trkpt><trkpt lat="44.63921257712503" lon="7.859940162396537"><ele>286.0</ele><time>2026-04-12T09:45:50.999Z</time></trkpt><trkpt lat="44.63931464737265" lon="7.859930113703548"><ele>286.0</ele><time>2026-04-12T09:45:52.999Z</time></trkpt><trkpt lat="44.63941504255393" lon="7.859920861501558"><ele>286.0</ele><time>2026-04-12T09:45:54.999Z</time></trkpt><trkpt lat="44.63951637388738" lon="7.8599102943006915"><ele>286.0</ele><time>2026-04-12T09:45:56.999Z</time></trkpt><trkpt lat="44.639615797197756" lon="7.859898925607879"><ele>286.0</ele><time>2026-04-12T09:45:58.999Z</time></trkpt><trkpt lat="44.63970911000583" lon="7.859878338548589"><ele>286.0</ele><time>2026-04-12T09:46:00.999Z</time></trkpt><trkpt lat="44.63979016559496" lon="7.85982578461689"><ele>286.0</ele><time>2026-04-12T09:46:02.999Z</time></trkpt><trkpt lat="44.639868092660365" lon="7.85981314106461"><ele>286.0</ele><time>2026-04-12T09:46:04.999Z</time></trkpt><trkpt lat="44.63997021388307" lon="7.859822672442958"><ele>286.0</ele><time>2026-04-12T09:46:06.999Z</time></trkpt><trkpt lat="44.640077495130015" lon="7.859840922592906"><ele>286.0</ele><time>2026-04-12T09:46:08.999Z</time></trkpt><trkpt lat="44.6401785981984" lon="7.859841196967343"><ele>286.0</ele><time>2026-04-12T09:46:10.999Z</time></trkpt><trkpt lat="44.64028569093634" lon="7.859857011241356"><ele>286.0</ele><time>2026-04-12T09:46:12.999Z</time></trkpt><trkpt lat="44.6403962402309" lon="7.8598797458478495"><ele>286.0</ele><time>2026-04-12T09:46:14.999Z</time></trkpt><trkpt lat="44.64050473171474" lon="7.859902219713447"><ele>285.8</ele><time>2026-04-12T09:46:16.999Z</time></trkpt><trkpt lat="44.64060927942488" lon="7.8599206252868665"><ele>285.6</ele><time>2026-04-12T09:46:18.999Z</time></trkpt><trkpt lat="44.64071634981851" lon="7.859928892217472"><ele>285.4</ele><time>2026-04-12T09:46:20.999Z</time></trkpt><trkpt lat="44.64081470272912" lon="7.859936816938798"><ele>285.2</ele><time>2026-04-12T09:46:22.999Z</time></trkpt><trkpt lat="44.64091293741845" lon="7.859968763721455"><ele>285.0</ele><time>2026-04-12T09:46:24.999Z</time></trkpt><trkpt lat="44.64101853476735" lon="7.860009018324115"><ele>285.0</ele><time>2026-04-12T09:46:26.999Z</time></trkpt><trkpt lat="44.64111836750385" lon="7.860066476407914"><ele>285.0</ele><time>2026-04-12T09:46:28.999Z</time></trkpt><trkpt lat="44.6412178075035" lon="7.860134637049918"><ele>285.0</ele><time>2026-04-12T09:46:30.999Z</time></trkpt><trkpt lat="44.6413055713988" lon="7.860202774472367"><ele>285.0</ele><time>2026-04-12T09:46:32.999Z</time></trkpt><trkpt lat="44.64139410456706" lon="7.860274662773084"><ele>285.0</ele><time>2026-04-12T09:46:34.999Z</time></trkpt><trkpt lat="44.64149157285511" lon="7.860341749172479"><ele>284.6</ele><time>2026-04-12T09:46:36.999Z</time></trkpt><trkpt lat="44.64159863399783" lon="7.860379792407834"><ele>284.2</ele><time>2026-04-12T09:46:39Z</time></trkpt><trkpt lat="44.64170994031375" lon="7.8604084349139685"><ele>283.8</ele><time>2026-04-12T09:46:41Z</time></trkpt><trkpt lat="44.64180751981476" lon="7.860423641641198"><ele>283.4</ele><time>2026-04-12T09:46:43Z</time></trkpt><trkpt lat="44.641908794020594" lon="7.8604394241297"><ele>283.0</ele><time>2026-04-12T09:46:45Z</time></trkpt><trkpt lat="44.64201124832597" lon="7.860452072272262"><ele>283.0</ele><time>2026-04-12T09:46:47Z</time></trkpt><trkpt lat="44.64211628245972" lon="7.860464223923092"><ele>283.0</ele><time>2026-04-12T09:46:49Z</time></trkpt><trkpt lat="44.642222549127204" lon="7.86048048103143"><ele>283.0</ele><time>2026-04-12T09:46:51Z</time></trkpt><trkpt lat="44.64233262094092" lon="7.860496871367929"><ele>283.0</ele><time>2026-04-12T09:46:53Z</time></trkpt><trkpt lat="44.642441710591584" lon="7.860514521185141"><ele>283.0</ele><time>2026-04-12T09:46:55Z</time></trkpt><trkpt lat="44.64255309576239" lon="7.860535964439106"><ele>283.0</ele><time>2026-04-12T09:46:57Z</time></trkpt><trkpt lat="44.64264501347261" lon="7.860581353531136"><ele>283.0</ele><time>2026-04-12T09:46:59Z</time></trkpt><trkpt lat="44.64272539554582" lon="7.860652127264975"><ele>283.0</ele><time>2026-04-12T09:47:01Z</time></trkpt><trkpt lat="44.64282730795135" lon="7.860691037874193"><ele>283.0</ele><time>2026-04-12T09:47:03Z</time></trkpt><trkpt lat="44.642911040709045" lon="7.860777996239183"><ele>283.0</ele><time>2026-04-12T09:47:05Z</time></trkpt><trkpt lat="44.642986316244354" lon="7.860867351087115"><ele>282.6</ele><time>2026-04-12T09:47:07Z</time></trkpt><trkpt lat="44.6430704609871" lon="7.860941999853309"><ele>282.20000000000005</ele><time>2026-04-12T09:47:09Z</time></trkpt><trkpt lat="44.643160784188176" lon="7.861012218993576"><ele>281.8</ele><time>2026-04-12T09:47:11Z</time></trkpt><trkpt lat="44.64324268134772" lon="7.8611014376537"><ele>281.40000000000003</ele><time>2026-04-12T09:47:13Z</time></trkpt><trkpt lat="44.643348413332305" lon="7.861127515257979"><ele>281.0</ele><time>2026-04-12T09:47:15Z</time></trkpt><trkpt lat="44.64344682180925" lon="7.861152724229191"><ele>281.0</ele><time>2026-04-12T09:47:17Z</time></trkpt><trkpt lat="44.64354330556324" lon="7.861201997247231"><ele>281.0</ele><time>2026-04-12T09:47:19Z</time></trkpt><trkpt lat="44.6436540092464" lon="7.861213742834151"><ele>281.0</ele><time>2026-04-12T09:47:21Z</time></trkpt><trkpt lat="44.643758813521586" lon="7.861250538508659"><ele>281.0</ele><time>2026-04-12T09:47:23Z</time></trkpt><trkpt lat="44.64385358581105" lon="7.861330524975378"><ele>281.0</ele><time>2026-04-12T09:47:25Z</time></trkpt><trkpt lat="44.64394817886752" lon="7.861405549114595"><ele>281.8</ele><time>2026-04-12T09:47:27Z</time></trkpt><trkpt lat="44.64404111189351" lon="7.861479721966319"><ele>282.6</ele><time>2026-04-12T09:47:29Z</time></trkpt><trkpt lat="44.64413166193427" lon="7.861557106905609"><ele>283.4</ele><time>2026-04-12T09:47:31Z</time></trkpt><trkpt lat="44.64422547029971" lon="7.861634149806936"><ele>284.2</ele><time>2026-04-12T09:47:33Z</time></trkpt><trkpt lat="44.644334128495466" lon="7.8616780710417276"><ele>285.0</ele><time>2026-04-12T09:47:34.999Z</time></trkpt><trkpt lat="44.64442755609064" lon="7.8617391704366355"><ele>283.4</ele><time>2026-04-12T09:47:36.999Z</time></trkpt><trkpt lat="44.64453242334543" lon="7.861783476303582"><ele>281.8</ele><time>2026-04-12T09:47:38.999Z</time></trkpt><trkpt lat="44.644640197034875" lon="7.861840475801592"><ele>280.2</ele><time>2026-04-12T09:47:40.999Z</time></trkpt><trkpt lat="44.644752660534884" lon="7.861880820471142"><ele>278.6</ele><time>2026-04-12T09:47:42.999Z</time></trkpt><trkpt lat="44.64485758516929" lon="7.8619167118432145"><ele>277.0</ele><time>2026-04-12T09:47:44.999Z</time></trkpt><trkpt lat="44.64496149859963" lon="7.861949230235662"><ele>277.0</ele><time>2026-04-12T09:47:46.999Z</time></trkpt><trkpt lat="44.64507642533494" lon="7.861978978433461"><ele>277.0</ele><time>2026-04-12T09:47:48.999Z</time></trkpt><trkpt lat="44.64518810953325" lon="7.861998946267389"><ele>277.0</ele><time>2026-04-12T09:47:50.999Z</time></trkpt><trkpt lat="44.645303549528734" lon="7.86200521812447"><ele>277.0</ele><time>2026-04-12T09:47:52.999Z</time></trkpt><trkpt lat="44.64541675294756" lon="7.862002058491474"><ele>277.0</ele><time>2026-04-12T09:47:54.999Z</time></trkpt><trkpt lat="44.64552178623447" lon="7.861981774355231"><ele>277.0</ele><time>2026-04-12T09:47:56.999Z</time></trkpt><trkpt lat="44.64562812572047" lon="7.861975500178689"><ele>277.0</ele><time>2026-04-12T09:47:58.999Z</time></trkpt><trkpt lat="44.645737438011075" lon="7.861971457420171"><ele>277.0</ele><time>2026-04-12T09:48:00.999Z</time></trkpt><trkpt lat="44.64584704899575" lon="7.86197419143583"><ele>277.0</ele><time>2026-04-12T09:48:02.999Z</time></trkpt><trkpt lat="44.64595863887754" lon="7.861973705488795"><ele>277.0</ele><time>2026-04-12T09:48:04.999Z</time></trkpt><trkpt lat="44.6460721612291" lon="7.861970241429972"><ele>277.0</ele><time>2026-04-12T09:48:06.999Z</time></trkpt><trkpt lat="44.646177600129384" lon="7.86197423788559"><ele>277.0</ele><time>2026-04-12T09:48:08.999Z</time></trkpt><trkpt lat="44.64627886111342" lon="7.86197212689807"><ele>277.0</ele><time>2026-04-12T09:48:10.999Z</time></trkpt><trkpt lat="44.64637565068652" lon="7.86196065533484"><ele>277.0</ele><time>2026-04-12T09:48:12.999Z</time></trkpt><trkpt lat="44.646465976247235" lon="7.861924671742772"><ele>276.0</ele><time>2026-04-12T09:48:14.999Z</time></trkpt><trkpt lat="44.64656349522066" lon="7.861878664992059"><ele>275.0</ele><time>2026-04-12T09:48:16.999Z</time></trkpt><trkpt lat="44.64666832309054" lon="7.861846288169942"><ele>274.0</ele><time>2026-04-12T09:48:18.999Z</time></trkpt><trkpt lat="44.64677405919592" lon="7.861827717576945"><ele>273.0</ele><time>2026-04-12T09:48:20.999Z</time></trkpt><trkpt lat="44.646882166673805" lon="7.861794378729246"><ele>272.0</ele><time>2026-04-12T09:48:22.999Z</time></trkpt><trkpt lat="44.646991476228024" lon="7.861751733466181"><ele>275.2</ele><time>2026-04-12T09:48:24.999Z</time></trkpt><trkpt lat="44.64709734380511" lon="7.86173766948631"><ele>278.4</ele><time>2026-04-12T09:48:26.999Z</time></trkpt><trkpt lat="44.64720472531741" lon="7.861753774496295"><ele>281.6</ele><time>2026-04-12T09:48:28.999Z</time></trkpt><trkpt lat="44.64730802935523" lon="7.86174669627707"><ele>284.8</ele><time>2026-04-12T09:48:30.999Z</time></trkpt><trkpt lat="44.647415588588046" lon="7.861738622660794"><ele>288.0</ele><time>2026-04-12T09:48:32.999Z</time></trkpt><trkpt lat="44.64752258202556" lon="7.861722993275485"><ele>288.0</ele><time>2026-04-12T09:48:34.999Z</time></trkpt><trkpt lat="44.647617560129966" lon="7.861672076996414"><ele>288.0</ele><time>2026-04-12T09:48:36.999Z</time></trkpt><trkpt lat="44.64768837148039" lon="7.861591467144933"><ele>288.0</ele><time>2026-04-12T09:48:38.999Z</time></trkpt><trkpt lat="44.647748356866174" lon="7.861498013675135"><ele>288.0</ele><time>2026-04-12T09:48:40.999Z</time></trkpt><trkpt lat="44.64777156067204" lon="7.861359050713516"><ele>288.0</ele><time>2026-04-12T09:48:42.999Z</time></trkpt><trkpt lat="44.64783052978417" lon="7.86126525644653"><ele>287.8</ele><time>2026-04-12T09:48:45Z</time></trkpt><trkpt lat="44.64790958404707" lon="7.861238263454079"><ele>287.6</ele><time>2026-04-12T09:48:47Z</time></trkpt><trkpt lat="44.64799665083872" lon="7.861206226602279"><ele>287.4</ele><time>2026-04-12T09:48:49Z</time></trkpt><trkpt lat="44.6480923667869" lon="7.861208004044093"><ele>287.2</ele><time>2026-04-12T09:48:51Z</time></trkpt><trkpt lat="44.64819181867527" lon="7.86120659610707"><ele>287.0</ele><time>2026-04-12T09:48:53Z</time></trkpt><trkpt lat="44.64829772321827" lon="7.8612020665973645"><ele>287.0</ele><time>2026-04-12T09:48:55Z</time></trkpt><trkpt lat="44.64840255019585" lon="7.861198793184439"><ele>287.0</ele><time>2026-04-12T09:48:57Z</time></trkpt><trkpt lat="44.648511752529046" lon="7.861212657818056"><ele>287.0</ele><time>2026-04-12T09:48:59Z</time></trkpt><trkpt lat="44.64861960546588" lon="7.8612074139869"><ele>287.0</ele><time>2026-04-12T09:49:01Z</time></trkpt><trkpt lat="44.64871985581505" lon="7.861204581660735"><ele>287.0</ele><time>2026-04-12T09:49:03Z</time></trkpt><trkpt lat="44.64881401500409" lon="7.861202857922404"><ele>287.8</ele><time>2026-04-12T09:49:05Z</time></trkpt><trkpt lat="44.64891670097136" lon="7.86119849057405"><ele>288.6</ele><time>2026-04-12T09:49:07Z</time></trkpt><trkpt lat="44.64901752927086" lon="7.86119113956585"><ele>289.40000000000003</ele><time>2026-04-12T09:49:09Z</time></trkpt><trkpt lat="44.64911343283637" lon="7.861184147621198"><ele>290.2</ele><time>2026-04-12T09:49:11Z</time></trkpt><trkpt lat="44.64920544703765" lon="7.8611791056932185"><ele>291.0</ele><time>2026-04-12T09:49:13Z</time></trkpt><trkpt lat="44.64928867860882" lon="7.861176563982419"><ele>291.0</ele><time>2026-04-12T09:49:15Z</time></trkpt><trkpt lat="44.64936464969718" lon="7.861174243986363"><ele>291.0</ele><time>2026-04-12T09:49:17Z</time></trkpt><trkpt lat="44.64944816387408" lon="7.861170520827566"><ele>291.0</ele><time>2026-04-12T09:49:19Z</time></trkpt><trkpt lat="44.64951957366323" lon="7.861152824849702"><ele>291.0</ele><time>2026-04-12T09:49:21Z</time></trkpt><trkpt lat="44.649590575479834" lon="7.86109904887164"><ele>291.0</ele><time>2026-04-12T09:49:23Z</time></trkpt><trkpt lat="44.649648046064996" lon="7.861041856066781"><ele>291.0</ele><time>2026-04-12T09:49:26Z</time></trkpt><trkpt lat="44.64961080072105" lon="7.8609039897233"><ele>291.0</ele><time>2026-04-12T09:49:27Z</time></trkpt><trkpt lat="44.6495997767267" lon="7.8608149687406526"><ele>291.0</ele><time>2026-04-12T09:49:29Z</time></trkpt><trkpt lat="44.64961211368902" lon="7.8606938011799885"><ele>291.0</ele><time>2026-04-12T09:49:31Z</time></trkpt><trkpt lat="44.64961060197416" lon="7.860575883255806"><ele>291.0</ele><time>2026-04-12T09:49:33Z</time></trkpt><trkpt lat="44.649613317719414" lon="7.860452342919498"><ele>291.0</ele><time>2026-04-12T09:49:35Z</time></trkpt><trkpt lat="44.64960933893069" lon="7.860335763844141"><ele>291.0</ele><time>2026-04-12T09:49:36.999Z</time></trkpt><trkpt lat="44.64961147002339" lon="7.860224781357081"><ele>290.8333333333333</ele><time>2026-04-12T09:49:38.999Z</time></trkpt><trkpt lat="44.64960565891637" lon="7.860109894135024"><ele>290.6666666666667</ele><time>2026-04-12T09:49:40.999Z</time></trkpt><trkpt lat="44.64959915240284" lon="7.859982503890195"><ele>290.5</ele><time>2026-04-12T09:49:42.999Z</time></trkpt><trkpt lat="44.64959645836114" lon="7.859862352568769"><ele>290.33333333333337</ele><time>2026-04-12T09:49:44.999Z</time></trkpt><trkpt lat="44.64959643130872" lon="7.859746747855387"><ele>290.1666666666667</ele><time>2026-04-12T09:49:46.999Z</time></trkpt><trkpt lat="44.649591862641934" lon="7.859635965719531"><ele>290.0</ele><time>2026-04-12T09:49:48.999Z</time></trkpt><trkpt lat="44.64958823863337" lon="7.859514925622848"><ele>290.0</ele><time>2026-04-12T09:49:50.999Z</time></trkpt><trkpt lat="44.6495820619091" lon="7.859388101227646"><ele>290.0</ele><time>2026-04-12T09:49:52.999Z</time></trkpt><trkpt lat="44.64958602563691" lon="7.859256619240838"><ele>290.0</ele><time>2026-04-12T09:49:54.999Z</time></trkpt><trkpt lat="44.64957876344159" lon="7.85912088245289"><ele>290.0</ele><time>2026-04-12T09:49:56.999Z</time></trkpt><trkpt lat="44.64958199928749" lon="7.858985030053508"><ele>290.0</ele><time>2026-04-12T09:49:58.999Z</time></trkpt><trkpt lat="44.64957549621894" lon="7.858843475861266"><ele>290.0</ele><time>2026-04-12T09:50:00.999Z</time></trkpt><trkpt lat="44.649563026930004" lon="7.858724820001981"><ele>290.0</ele><time>2026-04-12T09:50:02.999Z</time></trkpt><trkpt lat="44.649560749791206" lon="7.858607845321781"><ele>290.0</ele><time>2026-04-12T09:50:04.999Z</time></trkpt><trkpt lat="44.649552523754494" lon="7.85849841090992"><ele>290.0</ele><time>2026-04-12T09:50:06.999Z</time></trkpt><trkpt lat="44.649554445981515" lon="7.858394980943627"><ele>290.0</ele><time>2026-04-12T09:50:08.999Z</time></trkpt><trkpt lat="44.64954683264548" lon="7.858290591670245"><ele>290.0</ele><time>2026-04-12T09:50:10.999Z</time></trkpt><trkpt lat="44.649566240083104" lon="7.858197178344314"><ele>290.4</ele><time>2026-04-12T09:50:13.999Z</time></trkpt><trkpt lat="44.649697623418206" lon="7.858191377125192"><ele>290.8</ele><time>2026-04-12T09:50:18.999Z</time></trkpt><trkpt lat="44.64979100405924" lon="7.858202771443896"><ele>291.2</ele><time>2026-04-12T09:50:20.999Z</time></trkpt><trkpt lat="44.649875746865504" lon="7.858187229881122"><ele>291.6</ele><time>2026-04-12T09:50:22.999Z</time></trkpt><trkpt lat="44.649971241333155" lon="7.858189143766901"><ele>292.0</ele><time>2026-04-12T09:50:24.999Z</time></trkpt><trkpt lat="44.65006529570623" lon="7.85818730469582"><ele>292.0</ele><time>2026-04-12T09:50:26.999Z</time></trkpt><trkpt lat="44.650164674299134" lon="7.858184794544578"><ele>292.0</ele><time>2026-04-12T09:50:28.999Z</time></trkpt><trkpt lat="44.65026263529367" lon="7.858173827404703"><ele>292.0</ele><time>2026-04-12T09:50:30.999Z</time></trkpt><trkpt lat="44.65036510305494" lon="7.8581615708057395"><ele>292.0</ele><time>2026-04-12T09:50:32.999Z</time></trkpt><trkpt lat="44.650455725241585" lon="7.85814856858788"><ele>292.0</ele><time>2026-04-12T09:50:34.999Z</time></trkpt><trkpt lat="44.65054013419986" lon="7.858164034609633"><ele>292.4</ele><time>2026-04-12T09:50:36.999Z</time></trkpt><trkpt lat="44.6506296563742" lon="7.8581600000012655"><ele>292.79999999999995</ele><time>2026-04-12T09:50:38.999Z</time></trkpt><trkpt lat="44.65071753139898" lon="7.858134928158838"><ele>293.2</ele><time>2026-04-12T09:50:40.999Z</time></trkpt><trkpt lat="44.65081805308184" lon="7.858130260640914"><ele>293.59999999999997</ele><time>2026-04-12T09:50:42.999Z</time></trkpt><trkpt lat="44.650928663030875" lon="7.858123993503814"><ele>294.0</ele><time>2026-04-12T09:50:44.999Z</time></trkpt><trkpt lat="44.65102387456098" lon="7.858124884760339"><ele>294.0</ele><time>2026-04-12T09:50:46.999Z</time></trkpt><trkpt lat="44.65111828941644" lon="7.858131207321826"><ele>294.0</ele><time>2026-04-12T09:50:48.999Z</time></trkpt><trkpt lat="44.651216881117115" lon="7.858128498713245"><ele>294.0</ele><time>2026-04-12T09:50:51Z</time></trkpt><trkpt lat="44.65130174569455" lon="7.858113652661862"><ele>294.0</ele><time>2026-04-12T09:50:53Z</time></trkpt><trkpt lat="44.65139052526643" lon="7.858106820821103"><ele>294.0</ele><time>2026-04-12T09:50:55Z</time></trkpt><trkpt lat="44.65147746690966" lon="7.858099258641684"><ele>293.8333333333333</ele><time>2026-04-12T09:50:57Z</time></trkpt><trkpt lat="44.651567439635464" lon="7.858082843851661"><ele>293.6666666666667</ele><time>2026-04-12T09:50:59Z</time></trkpt><trkpt lat="44.651667932927616" lon="7.858097359569642"><ele>293.5</ele><time>2026-04-12T09:51:01Z</time></trkpt><trkpt lat="44.65176195526613" lon="7.85808207547014"><ele>293.33333333333337</ele><time>2026-04-12T09:51:03Z</time></trkpt><trkpt lat="44.651854175726235" lon="7.85807005553261"><ele>293.1666666666667</ele><time>2026-04-12T09:51:05Z</time></trkpt><trkpt lat="44.651921699077526" lon="7.858080619144397"><ele>293.0</ele><time>2026-04-12T09:51:07Z</time></trkpt><trkpt lat="44.65198795434334" lon="7.858077408713529"><ele>293.0</ele><time>2026-04-12T09:51:09Z</time></trkpt><trkpt lat="44.65205273699157" lon="7.858074269646173"><ele>293.0</ele><time>2026-04-12T09:51:11Z</time></trkpt><trkpt lat="44.65211933578787" lon="7.858071042767551"><ele>293.0</ele><time>2026-04-12T09:51:13Z</time></trkpt><trkpt lat="44.652198057373894" lon="7.858067156375778"><ele>293.0</ele><time>2026-04-12T09:51:15Z</time></trkpt><trkpt lat="44.652280706107334" lon="7.858063109229859"><ele>293.0</ele><time>2026-04-12T09:51:17Z</time></trkpt><trkpt lat="44.65236297848759" lon="7.858056825804549"><ele>293.0</ele><time>2026-04-12T09:51:19Z</time></trkpt><trkpt lat="44.652445981987334" lon="7.858049504536472"><ele>293.0</ele><time>2026-04-12T09:51:21Z</time></trkpt><trkpt lat="44.65253226522611" lon="7.858041893952135"><ele>293.0</ele><time>2026-04-12T09:51:23Z</time></trkpt><trkpt lat="44.65261413516768" lon="7.858022745993707"><ele>293.0</ele><time>2026-04-12T09:51:25Z</time></trkpt><trkpt lat="44.65268608234455" lon="7.858009191845598"><ele>293.0</ele><time>2026-04-12T09:51:27Z</time></trkpt><trkpt lat="44.6527595821964" lon="7.858021843572571"><ele>293.0</ele><time>2026-04-12T09:51:29Z</time></trkpt><trkpt lat="44.65285363720076" lon="7.858001216442464"><ele>293.0</ele><time>2026-04-12T09:51:31Z</time></trkpt><trkpt lat="44.65295099549609" lon="7.857992489367144"><ele>292.83333333333337</ele><time>2026-04-12T09:51:33Z</time></trkpt><trkpt lat="44.65302789361687" lon="7.857998177556698"><ele>292.6666666666667</ele><time>2026-04-12T09:51:35Z</time></trkpt><trkpt lat="44.653090852396076" lon="7.857993679307612"><ele>292.5</ele><time>2026-04-12T09:51:36Z</time></trkpt><trkpt lat="44.65316929666295" lon="7.857989137533483"><ele>292.3333333333333</ele><time>2026-04-12T09:51:38Z</time></trkpt><trkpt lat="44.65326775739536" lon="7.8579843695298175"><ele>292.16666666666663</ele><time>2026-04-12T09:51:40Z</time></trkpt><trkpt lat="44.65336213410892" lon="7.857981488525312"><ele>292.0</ele><time>2026-04-12T09:51:42Z</time></trkpt><trkpt lat="44.65345003759436" lon="7.857978805130339"><ele>292.0</ele><time>2026-04-12T09:51:44Z</time></trkpt><trkpt lat="44.653547587858576" lon="7.857959465660881"><ele>292.0</ele><time>2026-04-12T09:51:45.999Z</time></trkpt><trkpt lat="44.65363805423283" lon="7.857954939290634"><ele>292.0</ele><time>2026-04-12T09:51:47.999Z</time></trkpt><trkpt lat="44.65370465180532" lon="7.857968155312605"><ele>292.0</ele><time>2026-04-12T09:51:49.999Z</time></trkpt><trkpt lat="44.65377743978596" lon="7.857960134289488"><ele>292.0</ele><time>2026-04-12T09:51:51.999Z</time></trkpt><trkpt lat="44.65384073953298" lon="7.857966113068944"><ele>292.0</ele><time>2026-04-12T09:51:53.999Z</time></trkpt><trkpt lat="44.653866000001415" lon="7.857796597285559"><ele>292.0</ele><time>2026-04-12T09:51:57.999Z</time></trkpt><trkpt lat="44.653847963354245" lon="7.857637349590404"><ele>292.0</ele><time>2026-04-12T09:51:59.999Z</time></trkpt><trkpt lat="44.65383841209018" lon="7.857507600775013"><ele>292.0</ele><time>2026-04-12T09:52:01.999Z</time></trkpt><trkpt lat="44.65383066536034" lon="7.857347365740802"><ele>292.0</ele><time>2026-04-12T09:52:03.999Z</time></trkpt><trkpt lat="44.65382489687621" lon="7.857209557731044"><ele>292.0</ele><time>2026-04-12T09:52:05.999Z</time></trkpt><trkpt lat="44.65381214161417" lon="7.857072808843775"><ele>292.0</ele><time>2026-04-12T09:52:07.999Z</time></trkpt><trkpt lat="44.65381450485003" lon="7.856939345181978"><ele>292.0</ele><time>2026-04-12T09:52:09.999Z</time></trkpt><trkpt lat="44.65382361130362" lon="7.856816172929169"><ele>292.0</ele><time>2026-04-12T09:52:11.999Z</time></trkpt><trkpt lat="44.653808910470936" lon="7.856685645842014"><ele>292.0</ele><time>2026-04-12T09:52:13.999Z</time></trkpt><trkpt lat="44.653815111262475" lon="7.8565544446047975"><ele>292.0</ele><time>2026-04-12T09:52:15.999Z</time></trkpt><trkpt lat="44.65380386006704" lon="7.856414173294655"><ele>292.16666666666663</ele><time>2026-04-12T09:52:17.999Z</time></trkpt><trkpt lat="44.653806791962666" lon="7.856279627656703"><ele>292.3333333333333</ele><time>2026-04-12T09:52:19.999Z</time></trkpt><trkpt lat="44.653797509385825" lon="7.856153666820463"><ele>292.5</ele><time>2026-04-12T09:52:21.999Z</time></trkpt><trkpt lat="44.65378670450353" lon="7.856041390396486"><ele>292.6666666666667</ele><time>2026-04-12T09:52:23.999Z</time></trkpt><trkpt lat="44.65378751317429" lon="7.855931796396681"><ele>292.83333333333337</ele><time>2026-04-12T09:52:25.999Z</time></trkpt><trkpt lat="44.653799609554746" lon="7.855814375524377"><ele>293.0</ele><time>2026-04-12T09:52:27.999Z</time></trkpt><trkpt lat="44.65377859333292" lon="7.855670786738459"><ele>292.2</ele><time>2026-04-12T09:52:29.999Z</time></trkpt><trkpt lat="44.653767846749716" lon="7.855499362329517"><ele>291.4</ele><time>2026-04-12T09:52:31.999Z</time></trkpt><trkpt lat="44.653758269349574" lon="7.855410611526564"><ele>290.59999999999997</ele><time>2026-04-12T09:52:32.999Z</time></trkpt><trkpt lat="44.653750680147596" lon="7.855318987050533"><ele>289.8</ele><time>2026-04-12T09:52:33.999Z</time></trkpt><trkpt lat="44.65374203588249" lon="7.85514916869591"><ele>289.0</ele><time>2026-04-12T09:52:35.999Z</time></trkpt><trkpt lat="44.653730011718146" lon="7.855007456834063"><ele>287.8333333333333</ele><time>2026-04-12T09:52:37.999Z</time></trkpt><trkpt lat="44.653716817254754" lon="7.854917360823313"><ele>286.66666666666663</ele><time>2026-04-12T09:52:39.999Z</time></trkpt><trkpt lat="44.65372777930383" lon="7.854810788999893"><ele>285.5</ele><time>2026-04-12T09:52:46.999Z</time></trkpt><trkpt lat="44.653831449614586" lon="7.854757609578477"><ele>284.3333333333333</ele><time>2026-04-12T09:52:48.999Z</time></trkpt><trkpt lat="44.65393363853481" lon="7.854697749243131"><ele>283.1666666666667</ele><time>2026-04-12T09:52:50.999Z</time></trkpt><trkpt lat="44.65399619778745" lon="7.854663802629102"><ele>282.0</ele><time>2026-04-12T09:52:51.999Z</time></trkpt><trkpt lat="44.6540675954557" lon="7.854623904728148"><ele>282.0</ele><time>2026-04-12T09:52:52.999Z</time></trkpt><trkpt lat="44.65414385681509" lon="7.854578179788825"><ele>282.0</ele><time>2026-04-12T09:52:53.999Z</time></trkpt><trkpt lat="44.6542208088018" lon="7.854527382746773"><ele>282.0</ele><time>2026-04-12T09:52:54.999Z</time></trkpt><trkpt lat="44.65429881587683" lon="7.854455971320794"><ele>282.0</ele><time>2026-04-12T09:52:56Z</time></trkpt><trkpt lat="44.65437655160121" lon="7.8543753210760086"><ele>282.0</ele><time>2026-04-12T09:52:57Z</time></trkpt><trkpt lat="44.6544459932495" lon="7.854265714945805"><ele>279.0</ele><time>2026-04-12T09:52:58Z</time></trkpt><trkpt lat="44.65451492074448" lon="7.854162831005377"><ele>276.0</ele><time>2026-04-12T09:52:59Z</time></trkpt><trkpt lat="44.65458917697767" lon="7.854066305482851"><ele>273.0</ele><time>2026-04-12T09:53:00Z</time></trkpt><trkpt lat="44.654679345380266" lon="7.853987879874693"><ele>270.0</ele><time>2026-04-12T09:53:01Z</time></trkpt><trkpt lat="44.65477656770313" lon="7.85394887464189"><ele>267.0</ele><time>2026-04-12T09:53:02Z</time></trkpt><trkpt lat="44.654884938331776" lon="7.853947177502927"><ele>267.0</ele><time>2026-04-12T09:53:03Z</time></trkpt><trkpt lat="44.654984668962726" lon="7.854028094888996"><ele>267.0</ele><time>2026-04-12T09:53:04Z</time></trkpt><trkpt lat="44.65506442784595" lon="7.85413339229451"><ele>267.0</ele><time>2026-04-12T09:53:05Z</time></trkpt><trkpt lat="44.65511751642456" lon="7.854260136714963"><ele>267.0</ele><time>2026-04-12T09:53:06Z</time></trkpt><trkpt lat="44.65515634242513" lon="7.854371409656724"><ele>267.0</ele><time>2026-04-12T09:53:07Z</time></trkpt><trkpt lat="44.65518489587356" lon="7.854475195604266"><ele>267.0</ele><time>2026-04-12T09:53:08Z</time></trkpt><trkpt lat="44.65522307545812" lon="7.854556409974404"><ele>267.0</ele><time>2026-04-12T09:53:09Z</time></trkpt><trkpt lat="44.65534620914316" lon="7.854551486001381"><ele>267.0</ele><time>2026-04-12T09:53:11Z</time></trkpt><trkpt lat="44.65536981619965" lon="7.8544618263035"><ele>267.0</ele><time>2026-04-12T09:53:12Z</time></trkpt><trkpt lat="44.65535100558296" lon="7.854360305425817"><ele>267.0</ele><time>2026-04-12T09:53:13Z</time></trkpt><trkpt lat="44.65529975398698" lon="7.854272495132716"><ele>267.0</ele><time>2026-04-12T09:53:14Z</time></trkpt><trkpt lat="44.65527077478501" lon="7.854179122707694"><ele>267.0</ele><time>2026-04-12T09:53:15Z</time></trkpt><trkpt lat="44.65523643896373" lon="7.854091564685186"><ele>267.0</ele><time>2026-04-12T09:53:16Z</time></trkpt><trkpt lat="44.655205232189246" lon="7.854005116382537"><ele>267.0</ele><time>2026-04-12T09:53:17Z</time></trkpt><trkpt lat="44.65517444942972" lon="7.853911707337762"><ele>267.0</ele><time>2026-04-12T09:53:18Z</time></trkpt><trkpt lat="44.655137381413084" lon="7.853826974101931"><ele>267.0</ele><time>2026-04-12T09:53:19Z</time></trkpt><trkpt lat="44.65506569758856" lon="7.8536900125081175"><ele>267.0</ele><time>2026-04-12T09:53:21Z</time></trkpt><trkpt lat="44.65511282515767" lon="7.853547111462544"><ele>267.0</ele><time>2026-04-12T09:53:23Z</time></trkpt><trkpt lat="44.65519067834734" lon="7.853551587186361"><ele>267.0</ele><time>2026-04-12T09:53:24Z</time></trkpt><trkpt lat="44.655246209039504" lon="7.853658207633954"><ele>267.0</ele><time>2026-04-12T09:53:25Z</time></trkpt><trkpt lat="44.655297253716874" lon="7.853748405572978"><ele>267.0</ele><time>2026-04-12T09:53:26Z</time></trkpt><trkpt lat="44.6553446200159" lon="7.8538515945948255"><ele>267.0</ele><time>2026-04-12T09:53:27Z</time></trkpt><trkpt lat="44.65539499202619" lon="7.853959271422636"><ele>267.0</ele><time>2026-04-12T09:53:28Z</time></trkpt><trkpt lat="44.655444358545395" lon="7.854072106935333"><ele>264.0</ele><time>2026-04-12T09:53:29Z</time></trkpt><trkpt lat="44.655499304557914" lon="7.854183027621802"><ele>261.0</ele><time>2026-04-12T09:53:30Z</time></trkpt><trkpt lat="44.655560727427805" lon="7.854298447534992"><ele>258.0</ele><time>2026-04-12T09:53:31Z</time></trkpt><trkpt lat="44.65562279564228" lon="7.854417514752348"><ele>255.0</ele><time>2026-04-12T09:53:32Z</time></trkpt><trkpt lat="44.6556796629206" lon="7.854536504127663"><ele>252.0</ele><time>2026-04-12T09:53:33Z</time></trkpt><trkpt lat="44.65573495723724" lon="7.854660061675204"><ele>252.0</ele><time>2026-04-12T09:53:34Z</time></trkpt><trkpt lat="44.655793270686" lon="7.854785572270211"><ele>252.0</ele><time>2026-04-12T09:53:35Z</time></trkpt><trkpt lat="44.65585262799762" lon="7.8549200523631795"><ele>252.0</ele><time>2026-04-12T09:53:36Z</time></trkpt><trkpt lat="44.655899544063814" lon="7.855067562891109"><ele>252.0</ele><time>2026-04-12T09:53:37Z</time></trkpt><trkpt lat="44.655930516215754" lon="7.855228450430245"><ele>254.0</ele><time>2026-04-12T09:53:38Z</time></trkpt><trkpt lat="44.655958011490455" lon="7.855390319870278"><ele>256.0</ele><time>2026-04-12T09:53:39Z</time></trkpt><trkpt lat="44.65597756607284" lon="7.855553098466722"><ele>258.0</ele><time>2026-04-12T09:53:40Z</time></trkpt><trkpt lat="44.65600220755793" lon="7.855716539640521"><ele>260.0</ele><time>2026-04-12T09:53:41Z</time></trkpt><trkpt lat="44.656031102872404" lon="7.855884823328713"><ele>259.0</ele><time>2026-04-12T09:53:42Z</time></trkpt><trkpt lat="44.65605312481477" lon="7.8560396738161105"><ele>258.0</ele><time>2026-04-12T09:53:43Z</time></trkpt><trkpt lat="44.65606704041586" lon="7.856177399298999"><ele>257.0</ele><time>2026-04-12T09:53:44Z</time></trkpt><trkpt lat="44.656075598520395" lon="7.856306594513475"><ele>256.0</ele><time>2026-04-12T09:53:45Z</time></trkpt><trkpt lat="44.65609707206702" lon="7.856414465007775"><ele>255.0</ele><time>2026-04-12T09:53:46Z</time></trkpt><trkpt lat="44.65611381640246" lon="7.856509150597198"><ele>248.83333333333334</ele><time>2026-04-12T09:53:47Z</time></trkpt><trkpt lat="44.65612853293921" lon="7.8565975994664115"><ele>242.66666666666669</ele><time>2026-04-12T09:53:48Z</time></trkpt><trkpt lat="44.656173096602295" lon="7.8566714708126675"><ele>236.5</ele><time>2026-04-12T09:53:49Z</time></trkpt><trkpt lat="44.656255308954876" lon="7.8567043743279035"><ele>230.33333333333334</ele><time>2026-04-12T09:53:50Z</time></trkpt><trkpt lat="44.656342132412284" lon="7.856679617977113"><ele>224.16666666666669</ele><time>2026-04-12T09:53:50.999Z</time></trkpt><trkpt lat="44.656424107889436" lon="7.856623697485052"><ele>218.0</ele><time>2026-04-12T09:53:51.999Z</time></trkpt><trkpt lat="44.65650692947062" lon="7.856576791425137"><ele>218.00000000000003</ele><time>2026-04-12T09:53:52.999Z</time></trkpt><trkpt lat="44.65658892645156" lon="7.85653388093829"><ele>218.0</ele><time>2026-04-12T09:53:53.999Z</time></trkpt><trkpt lat="44.65666566294941" lon="7.856489900630152"><ele>218.0</ele><time>2026-04-12T09:53:54.999Z</time></trkpt><trkpt lat="44.65673435871104" lon="7.856451896710583"><ele>218.0</ele><time>2026-04-12T09:53:55.999Z</time></trkpt><trkpt lat="44.65679815437637" lon="7.856418663840896"><ele>218.00000000000003</ele><time>2026-04-12T09:53:56.999Z</time></trkpt><trkpt lat="44.65685689275427" lon="7.856382353154193"><ele>218.0</ele><time>2026-04-12T09:53:57.999Z</time></trkpt><trkpt lat="44.656963117608925" lon="7.856318271432373"><ele>216.8</ele><time>2026-04-12T09:53:59.999Z</time></trkpt><trkpt lat="44.657034908303245" lon="7.856271948218991"><ele>215.60000000000002</ele><time>2026-04-12T09:54:01.999Z</time></trkpt><trkpt lat="44.65709724868267" lon="7.856247500745956"><ele>214.39999999999998</ele><time>2026-04-12T09:54:03.999Z</time></trkpt><trkpt lat="44.657199334060046" lon="7.856243933511452"><ele>213.2</ele><time>2026-04-12T09:54:05.999Z</time></trkpt><trkpt lat="44.657314874246026" lon="7.856192829214333"><ele>212.0</ele><time>2026-04-12T09:54:07.999Z</time></trkpt><trkpt lat="44.65742547277519" lon="7.856119352343105"><ele>212.0</ele><time>2026-04-12T09:54:09.999Z</time></trkpt><trkpt lat="44.65753596452478" lon="7.856051390740823"><ele>212.0</ele><time>2026-04-12T09:54:11.999Z</time></trkpt><trkpt lat="44.65765523818344" lon="7.855997297842502"><ele>212.0</ele><time>2026-04-12T09:54:13.999Z</time></trkpt><trkpt lat="44.65777329040007" lon="7.855959556739332"><ele>212.0</ele><time>2026-04-12T09:54:15.999Z</time></trkpt><trkpt lat="44.65788874649321" lon="7.855910446313257"><ele>211.5</ele><time>2026-04-12T09:54:17.999Z</time></trkpt><trkpt lat="44.65800271801164" lon="7.855871088144697"><ele>211.0</ele><time>2026-04-12T09:54:19.999Z</time></trkpt><trkpt lat="44.65811632417857" lon="7.855824401539121"><ele>210.5</ele><time>2026-04-12T09:54:21.999Z</time></trkpt><trkpt lat="44.65822657120883" lon="7.855781238824939"><ele>210.0</ele><time>2026-04-12T09:54:23.999Z</time></trkpt><trkpt lat="44.65833712961655" lon="7.855748141194391"><ele>210.0</ele><time>2026-04-12T09:54:25.999Z</time></trkpt><trkpt lat="44.65845132100489" lon="7.855702601673921"><ele>210.0</ele><time>2026-04-12T09:54:27.999Z</time></trkpt><trkpt lat="44.65851225134624" lon="7.8556794660316225"><ele>210.0</ele><time>2026-04-12T09:54:28.999Z</time></trkpt><trkpt lat="44.65863034029688" lon="7.855633853123109"><ele>210.0</ele><time>2026-04-12T09:54:30.999Z</time></trkpt><trkpt lat="44.65875113321617" lon="7.855589443127013"><ele>210.0</ele><time>2026-04-12T09:54:32.999Z</time></trkpt><trkpt lat="44.65886831386457" lon="7.8555448315111445"><ele>208.25</ele><time>2026-04-12T09:54:34.999Z</time></trkpt><trkpt lat="44.65897981784232" lon="7.855503670325198"><ele>206.5</ele><time>2026-04-12T09:54:36.999Z</time></trkpt><trkpt lat="44.659087431922146" lon="7.855455564178434"><ele>204.75</ele><time>2026-04-12T09:54:38.999Z</time></trkpt><trkpt lat="44.65919982583295" lon="7.85541186637448"><ele>203.0</ele><time>2026-04-12T09:54:40.999Z</time></trkpt><trkpt lat="44.65931502545283" lon="7.855372248354897"><ele>203.0</ele><time>2026-04-12T09:54:42.999Z</time></trkpt><trkpt lat="44.65943228826262" lon="7.855341477170514"><ele>203.0</ele><time>2026-04-12T09:54:44.999Z</time></trkpt><trkpt lat="44.65954398327244" lon="7.855285394079119"><ele>203.0</ele><time>2026-04-12T09:54:46.999Z</time></trkpt><trkpt lat="44.659656053134576" lon="7.855240031018033"><ele>203.0</ele><time>2026-04-12T09:54:48.999Z</time></trkpt><trkpt lat="44.65977446646048" lon="7.855193770884105"><ele>203.5</ele><time>2026-04-12T09:54:50.999Z</time></trkpt><trkpt lat="44.65988809799489" lon="7.855150435655564"><ele>204.0</ele><time>2026-04-12T09:54:52.999Z</time></trkpt><trkpt lat="44.66000243853894" lon="7.855110116211847"><ele>204.5</ele><time>2026-04-12T09:54:54.999Z</time></trkpt><trkpt lat="44.66011674003857" lon="7.855066231313442"><ele>205.0</ele><time>2026-04-12T09:54:56.999Z</time></trkpt><trkpt lat="44.66023559038282" lon="7.855016050428223"><ele>205.75</ele><time>2026-04-12T09:54:58.999Z</time></trkpt><trkpt lat="44.66035177569059" lon="7.8549690729151145"><ele>206.5</ele><time>2026-04-12T09:55:00.999Z</time></trkpt><trkpt lat="44.66046728121714" lon="7.85492264796938"><ele>207.25</ele><time>2026-04-12T09:55:03Z</time></trkpt><trkpt lat="44.66058137683617" lon="7.854878259698637"><ele>208.0</ele><time>2026-04-12T09:55:05Z</time></trkpt><trkpt lat="44.660694937669675" lon="7.854827951873731"><ele>208.0</ele><time>2026-04-12T09:55:07Z</time></trkpt><trkpt lat="44.6608085755904" lon="7.854788303959399"><ele>208.0</ele><time>2026-04-12T09:55:09Z</time></trkpt><trkpt lat="44.660919926812994" lon="7.8547477094304075"><ele>208.0</ele><time>2026-04-12T09:55:11Z</time></trkpt><trkpt lat="44.66102674104062" lon="7.85471596295619"><ele>208.0</ele><time>2026-04-12T09:55:13Z</time></trkpt><trkpt lat="44.66113557939523" lon="7.854698275093229"><ele>210.0</ele><time>2026-04-12T09:55:15Z</time></trkpt><trkpt lat="44.661241556717975" lon="7.854683570685435"><ele>212.0</ele><time>2026-04-12T09:55:17Z</time></trkpt><trkpt lat="44.661343882529565" lon="7.854667811727825"><ele>214.0</ele><time>2026-04-12T09:55:19Z</time></trkpt><trkpt lat="44.66144540965302" lon="7.8546517117404635"><ele>216.0</ele><time>2026-04-12T09:55:21Z</time></trkpt><trkpt lat="44.66154525745787" lon="7.854643087871338"><ele>218.0</ele><time>2026-04-12T09:55:23Z</time></trkpt><trkpt lat="44.661647245267986" lon="7.854625970611573"><ele>218.0</ele><time>2026-04-12T09:55:25Z</time></trkpt><trkpt lat="44.66174670509083" lon="7.854616875933444"><ele>218.0</ele><time>2026-04-12T09:55:27Z</time></trkpt><trkpt lat="44.6618449615635" lon="7.854617512503946"><ele>218.0</ele><time>2026-04-12T09:55:29Z</time></trkpt><trkpt lat="44.661945182758735" lon="7.854603588057492"><ele>218.0</ele><time>2026-04-12T09:55:31Z</time></trkpt><trkpt lat="44.662035892199995" lon="7.854623304089491"><ele>218.0</ele><time>2026-04-12T09:55:33Z</time></trkpt><trkpt lat="44.66212107370413" lon="7.8546934915126165"><ele>217.8</ele><time>2026-04-12T09:55:35Z</time></trkpt><trkpt lat="44.66219624996373" lon="7.854783406972396"><ele>217.60000000000002</ele><time>2026-04-12T09:55:37Z</time></trkpt><trkpt lat="44.6622852300304" lon="7.8548543215125575"><ele>217.39999999999998</ele><time>2026-04-12T09:55:39Z</time></trkpt><trkpt lat="44.66237559358781" lon="7.854881052443552"><ele>217.2</ele><time>2026-04-12T09:55:41Z</time></trkpt><trkpt lat="44.66247098307935" lon="7.854859774346439"><ele>217.0</ele><time>2026-04-12T09:55:43Z</time></trkpt><trkpt lat="44.66254945252318" lon="7.8547893300872795"><ele>216.99999999999997</ele><time>2026-04-12T09:55:45Z</time></trkpt><trkpt lat="44.66260684213547" lon="7.8548658789231105"><ele>217.0</ele><time>2026-04-12T09:55:46Z</time></trkpt><trkpt lat="44.6626962423894" lon="7.854907186887025"><ele>217.0</ele><time>2026-04-12T09:55:48Z</time></trkpt><trkpt lat="44.66276105319653" lon="7.854992329295332"><ele>217.0</ele><time>2026-04-12T09:55:50Z</time></trkpt><trkpt lat="44.66276584092292" lon="7.855111282450594"><ele>216.99999999999997</ele><time>2026-04-12T09:55:52Z</time></trkpt><trkpt lat="44.66276188433262" lon="7.855223039456633"><ele>217.0</ele><time>2026-04-12T09:55:54Z</time></trkpt><trkpt lat="44.66275832875144" lon="7.855347846730858"><ele>216.83333333333331</ele><time>2026-04-12T09:55:55.999Z</time></trkpt><trkpt lat="44.662769417009144" lon="7.855464883381785"><ele>216.66666666666666</ele><time>2026-04-12T09:55:57.999Z</time></trkpt><trkpt lat="44.66276396474015" lon="7.855572634014592"><ele>216.5</ele><time>2026-04-12T09:55:59.999Z</time></trkpt><trkpt lat="44.66278511987418" lon="7.855684966104779"><ele>216.33333333333331</ele><time>2026-04-12T09:56:01.999Z</time></trkpt><trkpt lat="44.662791213110694" lon="7.855795606312151"><ele>216.16666666666666</ele><time>2026-04-12T09:56:03.999Z</time></trkpt><trkpt lat="44.66280782413842" lon="7.855920098432495"><ele>216.0</ele><time>2026-04-12T09:56:05.999Z</time></trkpt><trkpt lat="44.66280878024268" lon="7.8560429798609555"><ele>216.0</ele><time>2026-04-12T09:56:07.999Z</time></trkpt><trkpt lat="44.66282710982949" lon="7.856160762384301"><ele>216.00000000000003</ele><time>2026-04-12T09:56:09.999Z</time></trkpt><trkpt lat="44.662847043195086" lon="7.856283109337279"><ele>216.00000000000003</ele><time>2026-04-12T09:56:11.999Z</time></trkpt><trkpt lat="44.662877597815594" lon="7.856403025262717"><ele>216.0</ele><time>2026-04-12T09:56:13.999Z</time></trkpt><trkpt lat="44.662904744456505" lon="7.8565299744718855"><ele>216.0</ele><time>2026-04-12T09:56:15.999Z</time></trkpt><trkpt lat="44.66293430215524" lon="7.856665428785165"><ele>216.0</ele><time>2026-04-12T09:56:17.999Z</time></trkpt><trkpt lat="44.662951966727746" lon="7.856778956909716"><ele>216.0</ele><time>2026-04-12T09:56:19.999Z</time></trkpt><trkpt lat="44.66296715919634" lon="7.856903812624388"><ele>216.0</ele><time>2026-04-12T09:56:21.999Z</time></trkpt><trkpt lat="44.66297623556643" lon="7.857032339893578"><ele>216.0</ele><time>2026-04-12T09:56:23.999Z</time></trkpt><trkpt lat="44.662990582038695" lon="7.857157471206088"><ele>216.0</ele><time>2026-04-12T09:56:25.999Z</time></trkpt><trkpt lat="44.6629915737557" lon="7.857285074681574"><ele>216.0</ele><time>2026-04-12T09:56:27.999Z</time></trkpt><trkpt lat="44.66300014438671" lon="7.857409923488774"><ele>216.0</ele><time>2026-04-12T09:56:29.999Z</time></trkpt><trkpt lat="44.663006547437156" lon="7.857546595071427"><ele>216.00000000000003</ele><time>2026-04-12T09:56:31.999Z</time></trkpt><trkpt lat="44.663016967967565" lon="7.8576889612456595"><ele>216.00000000000003</ele><time>2026-04-12T09:56:33.999Z</time></trkpt><trkpt lat="44.66301682188242" lon="7.857837330508303"><ele>216.0</ele><time>2026-04-12T09:56:35.999Z</time></trkpt><trkpt lat="44.663031703058394" lon="7.857988091831605"><ele>216.0</ele><time>2026-04-12T09:56:37.999Z</time></trkpt><trkpt lat="44.66305251162108" lon="7.858143234777862"><ele>216.0</ele><time>2026-04-12T09:56:39.999Z</time></trkpt><trkpt lat="44.66307600360129" lon="7.858298561729824"><ele>216.0</ele><time>2026-04-12T09:56:41.999Z</time></trkpt><trkpt lat="44.663097522734915" lon="7.858464212397903"><ele>216.0</ele><time>2026-04-12T09:56:43.999Z</time></trkpt><trkpt lat="44.66311810789169" lon="7.8586317570074895"><ele>216.0</ele><time>2026-04-12T09:56:45.999Z</time></trkpt><trkpt lat="44.66314572514412" lon="7.858790367499551"><ele>215.75</ele><time>2026-04-12T09:56:47.999Z</time></trkpt><trkpt lat="44.6631622850377" lon="7.858949153356433"><ele>215.5</ele><time>2026-04-12T09:56:49.999Z</time></trkpt><trkpt lat="44.66318272325452" lon="7.859110908177148"><ele>215.25</ele><time>2026-04-12T09:56:51.999Z</time></trkpt><trkpt lat="44.66322633729642" lon="7.859269101921069"><ele>215.0</ele><time>2026-04-12T09:56:53.999Z</time></trkpt><trkpt lat="44.66328830569286" lon="7.859393556777328"><ele>215.0</ele><time>2026-04-12T09:56:55.999Z</time></trkpt><trkpt lat="44.663321938274755" lon="7.85954795110235"><ele>215.0</ele><time>2026-04-12T09:56:57.999Z</time></trkpt><trkpt lat="44.66337106738091" lon="7.859681919612182"><ele>215.0</ele><time>2026-04-12T09:56:59.999Z</time></trkpt><trkpt lat="44.66341412004049" lon="7.859817822377593"><ele>215.0</ele><time>2026-04-12T09:57:01.999Z</time></trkpt><trkpt lat="44.66345778699235" lon="7.859957961556676"><ele>215.0</ele><time>2026-04-12T09:57:03.999Z</time></trkpt><trkpt lat="44.6635043998229" lon="7.860092666638148"><ele>215.0</ele><time>2026-04-12T09:57:05.999Z</time></trkpt><trkpt lat="44.663578332692126" lon="7.860201807222431"><ele>215.0</ele><time>2026-04-12T09:57:08Z</time></trkpt><trkpt lat="44.66363533888707" lon="7.860269125467056"><ele>215.0</ele><time>2026-04-12T09:57:10Z</time></trkpt><trkpt lat="44.6636983078774" lon="7.860296241366863"><ele>215.0</ele><time>2026-04-12T09:57:12Z</time></trkpt><trkpt lat="44.663662257967765" lon="7.860486717789672"><ele>215.0</ele><time>2026-04-12T09:57:13Z</time></trkpt><trkpt lat="44.663708635953384" lon="7.8605934912430095"><ele>215.00000000000003</ele><time>2026-04-12T09:57:15Z</time></trkpt><trkpt lat="44.66374181925557" lon="7.860700425159957"><ele>215.0</ele><time>2026-04-12T09:57:17Z</time></trkpt><trkpt lat="44.66378115621873" lon="7.860815959052479"><ele>215.0</ele><time>2026-04-12T09:57:19Z</time></trkpt><trkpt lat="44.66382245140871" lon="7.860923643539107"><ele>215.0</ele><time>2026-04-12T09:57:21Z</time></trkpt><trkpt lat="44.663866652256054" lon="7.861039551343267"><ele>215.00000000000003</ele><time>2026-04-12T09:57:23Z</time></trkpt><trkpt lat="44.66391075785922" lon="7.861144117562766"><ele>215.0</ele><time>2026-04-12T09:57:25Z</time></trkpt><trkpt lat="44.663953504480475" lon="7.861234802142442"><ele>215.00000000000003</ele><time>2026-04-12T09:57:27Z</time></trkpt><trkpt lat="44.66400003786278" lon="7.861336626277131"><ele>215.0</ele><time>2026-04-12T09:57:29Z</time></trkpt><trkpt lat="44.66404466740089" lon="7.861435630930397"><ele>215.0</ele><time>2026-04-12T09:57:31Z</time></trkpt><trkpt lat="44.66410073374082" lon="7.861529124693737"><ele>215.0</ele><time>2026-04-12T09:57:33Z</time></trkpt><trkpt lat="44.66414558543575" lon="7.861630218250308"><ele>215.00000000000003</ele><time>2026-04-12T09:57:35Z</time></trkpt><trkpt lat="44.664178558895706" lon="7.8617341187492515"><ele>215.0</ele><time>2026-04-12T09:57:37Z</time></trkpt><trkpt lat="44.66420960088571" lon="7.861845825283685"><ele>214.8</ele><time>2026-04-12T09:57:39Z</time></trkpt><trkpt lat="44.664248861982735" lon="7.861958364041769"><ele>214.6</ele><time>2026-04-12T09:57:41Z</time></trkpt><trkpt lat="44.664280421794395" lon="7.862081429536558"><ele>214.39999999999998</ele><time>2026-04-12T09:57:43Z</time></trkpt><trkpt lat="44.66432606665686" lon="7.862201137802538"><ele>214.2</ele><time>2026-04-12T09:57:45Z</time></trkpt><trkpt lat="44.664365083662105" lon="7.8623207393696966"><ele>214.0</ele><time>2026-04-12T09:57:47Z</time></trkpt><trkpt lat="44.66440213136422" lon="7.8624381918596065"><ele>213.99999999999997</ele><time>2026-04-12T09:57:49Z</time></trkpt><trkpt lat="44.664438421779316" lon="7.8625369879234235"><ele>214.0</ele><time>2026-04-12T09:57:51Z</time></trkpt><trkpt lat="44.664472858978215" lon="7.862642665781661"><ele>214.0</ele><time>2026-04-12T09:57:53Z</time></trkpt><trkpt lat="44.66450658268178" lon="7.862745599426587"><ele>214.0</ele><time>2026-04-12T09:57:55Z</time></trkpt><trkpt lat="44.66453969165514" lon="7.862853360454382"><ele>213.99999999999997</ele><time>2026-04-12T09:57:57Z</time></trkpt><trkpt lat="44.66457025360235" lon="7.862950776813205"><ele>214.0</ele><time>2026-04-12T09:57:59Z</time></trkpt><trkpt lat="44.66460722310516" lon="7.8630375176741705"><ele>213.85714285714286</ele><time>2026-04-12T09:58:01Z</time></trkpt><trkpt lat="44.66463208770815" lon="7.863120943803332"><ele>213.71428571428572</ele><time>2026-04-12T09:58:02.999Z</time></trkpt><trkpt lat="44.66466131621219" lon="7.863209400730648"><ele>213.57142857142856</ele><time>2026-04-12T09:58:04.999Z</time></trkpt><trkpt lat="44.66469087196351" lon="7.863310527926576"><ele>213.42857142857144</ele><time>2026-04-12T09:58:06.999Z</time></trkpt><trkpt lat="44.66472418048817" lon="7.863407064199585"><ele>213.28571428571428</ele><time>2026-04-12T09:58:08.999Z</time></trkpt><trkpt lat="44.66475478995587" lon="7.863494130733599"><ele>213.14285714285714</ele><time>2026-04-12T09:58:10.999Z</time></trkpt><trkpt lat="44.664790621308484" lon="7.863585243341005"><ele>213.0</ele><time>2026-04-12T09:58:12.999Z</time></trkpt><trkpt lat="44.664821964365345" lon="7.863681441070699"><ele>213.0</ele><time>2026-04-12T09:58:14.999Z</time></trkpt><trkpt lat="44.66486135705986" lon="7.863780310790268"><ele>213.0</ele><time>2026-04-12T09:58:16.999Z</time></trkpt><trkpt lat="44.66490117372643" lon="7.863881333941262"><ele>213.0</ele><time>2026-04-12T09:58:18.999Z</time></trkpt><trkpt lat="44.66493890157674" lon="7.863985986977631"><ele>213.0</ele><time>2026-04-12T09:58:20.999Z</time></trkpt><trkpt lat="44.66497470283669" lon="7.864083170089833"><ele>213.0</ele><time>2026-04-12T09:58:22.999Z</time></trkpt><trkpt lat="44.66501024974349" lon="7.864176729990847"><ele>213.0</ele><time>2026-04-12T09:58:24.999Z</time></trkpt><trkpt lat="44.665038212742175" lon="7.864269957628554"><ele>212.66666666666666</ele><time>2026-04-12T09:58:26.999Z</time></trkpt><trkpt lat="44.66507194725766" lon="7.864373966666209"><ele>212.33333333333331</ele><time>2026-04-12T09:58:28.999Z</time></trkpt><trkpt lat="44.66510102438318" lon="7.864462068580144"><ele>212.0</ele><time>2026-04-12T09:58:30.999Z</time></trkpt><trkpt lat="44.665131542805064" lon="7.864549101834156"><ele>211.66666666666666</ele><time>2026-04-12T09:58:32.999Z</time></trkpt><trkpt lat="44.665168491584076" lon="7.864651276486648"><ele>211.33333333333331</ele><time>2026-04-12T09:58:34.999Z</time></trkpt><trkpt lat="44.665202174823335" lon="7.864742499469205"><ele>211.0</ele><time>2026-04-12T09:58:36.999Z</time></trkpt><trkpt lat="44.665235994884" lon="7.8648396567696714"><ele>211.0</ele><time>2026-04-12T09:58:38.999Z</time></trkpt><trkpt lat="44.66526732238134" lon="7.864922017210201"><ele>211.0</ele><time>2026-04-12T09:58:40.999Z</time></trkpt><trkpt lat="44.66529405907076" lon="7.865003785241835"><ele>211.0</ele><time>2026-04-12T09:58:42.999Z</time></trkpt><trkpt lat="44.66532873881592" lon="7.865082871509316"><ele>211.0</ele><time>2026-04-12T09:58:44.999Z</time></trkpt><trkpt lat="44.66536546733369" lon="7.865176899320552"><ele>211.0</ele><time>2026-04-12T09:58:46.999Z</time></trkpt><trkpt lat="44.66540782049832" lon="7.865265843723167"><ele>211.0</ele><time>2026-04-12T09:58:48.999Z</time></trkpt><trkpt lat="44.66544713348641" lon="7.865378912408529"><ele>211.0</ele><time>2026-04-12T09:58:50.999Z</time></trkpt><trkpt lat="44.665489159468954" lon="7.865493068201574"><ele>211.16666666666666</ele><time>2026-04-12T09:58:52.999Z</time></trkpt><trkpt lat="44.665524501425125" lon="7.8656022476635545"><ele>211.33333333333331</ele><time>2026-04-12T09:58:54.999Z</time></trkpt><trkpt lat="44.665560366361795" lon="7.865711810664448"><ele>211.5</ele><time>2026-04-12T09:58:56.999Z</time></trkpt><trkpt lat="44.66560577926625" lon="7.865818433768265"><ele>211.66666666666669</ele><time>2026-04-12T09:58:58.999Z</time></trkpt><trkpt lat="44.66564385992715" lon="7.86592809502944"><ele>211.83333333333334</ele><time>2026-04-12T09:59:00.999Z</time></trkpt><trkpt lat="44.665690146040795" lon="7.866031935797621"><ele>212.0</ele><time>2026-04-12T09:59:02.999Z</time></trkpt><trkpt lat="44.665729651983554" lon="7.866133513519596"><ele>212.00000000000003</ele><time>2026-04-12T09:59:04.999Z</time></trkpt><trkpt lat="44.66576951405137" lon="7.866227529045484"><ele>212.0</ele><time>2026-04-12T09:59:06.999Z</time></trkpt><trkpt lat="44.66581452028725" lon="7.866315857655152"><ele>212.0</ele><time>2026-04-12T09:59:08.999Z</time></trkpt><trkpt lat="44.665854313998686" lon="7.866406374554476"><ele>212.0</ele><time>2026-04-12T09:59:10.999Z</time></trkpt><trkpt lat="44.66588783251116" lon="7.866486520922083"><ele>212.00000000000003</ele><time>2026-04-12T09:59:12.999Z</time></trkpt><trkpt lat="44.66592806281271" lon="7.866576178732763"><ele>212.0</ele><time>2026-04-12T09:59:15Z</time></trkpt><trkpt lat="44.66596696400851" lon="7.866672074564771"><ele>212.0</ele><time>2026-04-12T09:59:17Z</time></trkpt><trkpt lat="44.66599801572651" lon="7.866765198362347"><ele>212.0</ele><time>2026-04-12T09:59:19Z</time></trkpt><trkpt lat="44.66603162119356" lon="7.866853426400333"><ele>212.0</ele><time>2026-04-12T09:59:21Z</time></trkpt><trkpt lat="44.66606436078722" lon="7.86693913660585"><ele>212.0</ele><time>2026-04-12T09:59:23Z</time></trkpt><trkpt lat="44.66609636135509" lon="7.867029739244319"><ele>212.0</ele><time>2026-04-12T09:59:25Z</time></trkpt><trkpt lat="44.66613994931359" lon="7.867112557956817"><ele>212.0</ele><time>2026-04-12T09:59:27Z</time></trkpt><trkpt lat="44.66617271261321" lon="7.867206869911552"><ele>212.0</ele><time>2026-04-12T09:59:29Z</time></trkpt><trkpt lat="44.66620949597672" lon="7.867282777782575"><ele>212.00000000000003</ele><time>2026-04-12T09:59:31Z</time></trkpt><trkpt lat="44.66624611485613" lon="7.867383981250589"><ele>212.0</ele><time>2026-04-12T09:59:33Z</time></trkpt><trkpt lat="44.666283169603716" lon="7.867477445333128"><ele>212.0</ele><time>2026-04-12T09:59:35Z</time></trkpt><trkpt lat="44.666318332507714" lon="7.867552643434396"><ele>212.0</ele><time>2026-04-12T09:59:37Z</time></trkpt><trkpt lat="44.666367687656624" lon="7.867670180132483"><ele>212.00000000000003</ele><time>2026-04-12T09:59:40Z</time></trkpt><trkpt lat="44.66640043039128" lon="7.867776278654007"><ele>212.0</ele><time>2026-04-12T09:59:42Z</time></trkpt><trkpt lat="44.66643355916836" lon="7.867857805840264"><ele>212.0</ele><time>2026-04-12T09:59:44Z</time></trkpt><trkpt lat="44.666455954402196" lon="7.867950877355694"><ele>212.0</ele><time>2026-04-12T09:59:46Z</time></trkpt><trkpt lat="44.66648361361578" lon="7.8680349548174595"><ele>212.0</ele><time>2026-04-12T09:59:48Z</time></trkpt><trkpt lat="44.6664988628304" lon="7.868122204496802"><ele>212.0</ele><time>2026-04-12T09:59:50Z</time></trkpt><trkpt lat="44.6665076033908" lon="7.86821994795914"><ele>212.0</ele><time>2026-04-12T09:59:52Z</time></trkpt><trkpt lat="44.66652230849727" lon="7.868314947952475"><ele>212.0</ele><time>2026-04-12T09:59:54Z</time></trkpt><trkpt lat="44.66653650200534" lon="7.8684118279521575"><ele>212.0</ele><time>2026-04-12T09:59:56Z</time></trkpt><trkpt lat="44.66656483247493" lon="7.868535370539709"><ele>211.85714285714286</ele><time>2026-04-12T09:59:59Z</time></trkpt><trkpt lat="44.66658744722164" lon="7.868626813969569"><ele>211.7142857142857</ele><time>2026-04-12T10:00:01Z</time></trkpt><trkpt lat="44.66661086864442" lon="7.868718632882746"><ele>211.57142857142856</ele><time>2026-04-12T10:00:02.999Z</time></trkpt><trkpt lat="44.666641315810686" lon="7.868809032906065"><ele>211.42857142857144</ele><time>2026-04-12T10:00:04.999Z</time></trkpt><trkpt lat="44.66667459842318" lon="7.868928094776625"><ele>211.28571428571428</ele><time>2026-04-12T10:00:07.999Z</time></trkpt><trkpt lat="44.66669604560143" lon="7.869024553780461"><ele>211.14285714285714</ele><time>2026-04-12T10:00:09.999Z</time></trkpt><trkpt lat="44.6667319802992" lon="7.869110735385895"><ele>211.0</ele><time>2026-04-12T10:00:11.999Z</time></trkpt><trkpt lat="44.66676792615202" lon="7.869184741409978"><ele>210.85714285714286</ele><time>2026-04-12T10:00:13.999Z</time></trkpt><trkpt lat="44.666790201280975" lon="7.869276408275155"><ele>210.71428571428572</ele><time>2026-04-12T10:00:15.999Z</time></trkpt><trkpt lat="44.66681843019589" lon="7.869366420131029"><ele>210.57142857142856</ele><time>2026-04-12T10:00:17.999Z</time></trkpt><trkpt lat="44.666841471034836" lon="7.869450134712586"><ele>210.42857142857144</ele><time>2026-04-12T10:00:19.999Z</time></trkpt><trkpt lat="44.666857490555294" lon="7.869540385341309"><ele>210.28571428571428</ele><time>2026-04-12T10:00:21.999Z</time></trkpt><trkpt lat="44.66687606070861" lon="7.869668105383487"><ele>210.14285714285714</ele><time>2026-04-12T10:00:24.999Z</time></trkpt><trkpt lat="44.66688282656297" lon="7.869760179974571"><ele>210.0</ele><time>2026-04-12T10:00:26.999Z</time></trkpt><trkpt lat="44.666901652539224" lon="7.869877598883393"><ele>210.0</ele><time>2026-04-12T10:00:29.999Z</time></trkpt><trkpt lat="44.666912309567984" lon="7.869988268940777"><ele>210.0</ele><time>2026-04-12T10:00:32.999Z</time></trkpt><trkpt lat="44.66692296235664" lon="7.870121417701984"><ele>210.0</ele><time>2026-04-12T10:00:35.999Z</time></trkpt><trkpt lat="44.66693614678985" lon="7.870221242630008"><ele>210.0</ele><time>2026-04-12T10:00:37.999Z</time></trkpt><trkpt lat="44.66695009427754" lon="7.870313307579302"><ele>210.0</ele><time>2026-04-12T10:00:39.999Z</time></trkpt><trkpt lat="44.66698281014715" lon="7.870430403781912"><ele>210.0</ele><time>2026-04-12T10:00:42.999Z</time></trkpt><trkpt lat="44.667001482471605" lon="7.870523469481467"><ele>210.16666666666666</ele><time>2026-04-12T10:00:44.999Z</time></trkpt><trkpt lat="44.66703854444233" lon="7.870629428079854"><ele>210.33333333333331</ele><time>2026-04-12T10:00:47.999Z</time></trkpt><trkpt lat="44.66706702589625" lon="7.870748078674391"><ele>210.5</ele><time>2026-04-12T10:00:51.999Z</time></trkpt><trkpt lat="44.66709132155314" lon="7.870853509153665"><ele>210.66666666666666</ele><time>2026-04-12T10:00:53.999Z</time></trkpt><trkpt lat="44.66710737955427" lon="7.870967451615834"><ele>210.83333333333331</ele><time>2026-04-12T10:00:55.999Z</time></trkpt><trkpt lat="44.66712430643033" lon="7.871081655566451"><ele>211.0</ele><time>2026-04-12T10:00:57.999Z</time></trkpt><trkpt lat="44.66714981720326" lon="7.87117068660087"><ele>211.0</ele><time>2026-04-12T10:00:59.999Z</time></trkpt><trkpt lat="44.66721463914376" lon="7.871202999941947"><ele>211.0</ele><time>2026-04-12T10:01:02.999Z</time></trkpt><trkpt lat="44.66728496661166" lon="7.871185777972142"><ele>211.0</ele><time>2026-04-12T10:02:31.999Z</time></trkpt><trkpt lat="44.66733618791471" lon="7.871250679689594"><ele>211.0</ele><time>2026-04-12T10:02:35.999Z</time></trkpt><trkpt lat="44.66737889903219" lon="7.871334454946974"><ele>211.0</ele><time>2026-04-12T10:02:38.999Z</time></trkpt><trkpt lat="44.667423571641024" lon="7.871434932019421"><ele>211.0</ele><time>2026-04-12T10:02:41.999Z</time></trkpt><trkpt lat="44.66746740740339" lon="7.871530477826064"><ele>211.0</ele><time>2026-04-12T10:02:44.999Z</time></trkpt><trkpt lat="44.66750090147914" lon="7.871607424874421"><ele>211.0</ele><time>2026-04-12T10:02:46.999Z</time></trkpt><trkpt lat="44.66753425875061" lon="7.8716858928303886"><ele>211.0</ele><time>2026-04-12T10:02:48.999Z</time></trkpt><trkpt lat="44.667562535546374" lon="7.8717649941616985"><ele>211.0</ele><time>2026-04-12T10:02:50.999Z</time></trkpt><trkpt lat="44.66760314299435" lon="7.871857454304248"><ele>211.0</ele><time>2026-04-12T10:02:52.999Z</time></trkpt><trkpt lat="44.66763889419429" lon="7.871939851624902"><ele>211.0</ele><time>2026-04-12T10:02:54.999Z</time></trkpt><trkpt lat="44.667673967072425" lon="7.872024886833433"><ele>211.0</ele><time>2026-04-12T10:02:56.999Z</time></trkpt><trkpt lat="44.66773241316685" lon="7.872136168500129"><ele>211.0</ele><time>2026-04-12T10:02:59.999Z</time></trkpt><trkpt lat="44.66778142001704" lon="7.872248196558833"><ele>210.83333333333331</ele><time>2026-04-12T10:03:02.999Z</time></trkpt><trkpt lat="44.66783080251844" lon="7.872356478433459"><ele>210.66666666666666</ele><time>2026-04-12T10:03:05.999Z</time></trkpt><trkpt lat="44.6678657073079" lon="7.872444772957455"><ele>210.5</ele><time>2026-04-12T10:03:07.999Z</time></trkpt><trkpt lat="44.66789877673593" lon="7.872564338629683"><ele>210.33333333333331</ele><time>2026-04-12T10:03:10.999Z</time></trkpt><trkpt lat="44.667928030867174" lon="7.872645542319138"><ele>210.16666666666666</ele><time>2026-04-12T10:03:12.999Z</time></trkpt><trkpt lat="44.66795463785806" lon="7.872756596535362"><ele>210.0</ele><time>2026-04-12T10:03:14.999Z</time></trkpt><trkpt lat="44.66798688593036" lon="7.872847438169332"><ele>210.0</ele><time>2026-04-12T10:03:16.999Z</time></trkpt><trkpt lat="44.668012478995585" lon="7.87293663986738"><ele>210.0</ele><time>2026-04-12T10:03:18.999Z</time></trkpt><trkpt lat="44.66804068905106" lon="7.873037715511947"><ele>210.0</ele><time>2026-04-12T10:03:20.999Z</time></trkpt><trkpt lat="44.66807099979681" lon="7.873131083592897"><ele>210.0</ele><time>2026-04-12T10:03:22.999Z</time></trkpt><trkpt lat="44.668097468973" lon="7.873221128939055"><ele>210.0</ele><time>2026-04-12T10:03:25Z</time></trkpt><trkpt lat="44.668123631940446" lon="7.873306584836245"><ele>210.0</ele><time>2026-04-12T10:03:27Z</time></trkpt><trkpt lat="44.6681523224733" lon="7.873403875229657"><ele>210.0</ele><time>2026-04-12T10:03:29Z</time></trkpt><trkpt lat="44.6681700735533" lon="7.873497313456629"><ele>210.0</ele><time>2026-04-12T10:03:31Z</time></trkpt><trkpt lat="44.66818059551917" lon="7.873595543510421"><ele>210.0</ele><time>2026-04-12T10:03:33Z</time></trkpt><trkpt lat="44.66820932631792" lon="7.873696535552082"><ele>210.0</ele><time>2026-04-12T10:03:35Z</time></trkpt><trkpt lat="44.66823547894282" lon="7.873802144011986"><ele>210.0</ele><time>2026-04-12T10:03:37Z</time></trkpt><trkpt lat="44.66826151573303" lon="7.873906189419335"><ele>210.0</ele><time>2026-04-12T10:03:39Z</time></trkpt><trkpt lat="44.66829004784903" lon="7.874014474320742"><ele>210.0</ele><time>2026-04-12T10:03:41Z</time></trkpt><trkpt lat="44.66831854354006" lon="7.874122131305916"><ele>210.0</ele><time>2026-04-12T10:03:43Z</time></trkpt><trkpt lat="44.66834431029854" lon="7.874229522511428"><ele>210.0</ele><time>2026-04-12T10:03:45Z</time></trkpt><trkpt lat="44.66837821113855" lon="7.87432314120252"><ele>210.0</ele><time>2026-04-12T10:03:47Z</time></trkpt><trkpt lat="44.66840740686412" lon="7.874432215111094"><ele>210.0</ele><time>2026-04-12T10:03:49Z</time></trkpt><trkpt lat="44.6684394470959" lon="7.874531489246039"><ele>210.0</ele><time>2026-04-12T10:03:51Z</time></trkpt><trkpt lat="44.66846493668802" lon="7.874624981985765"><ele>210.0</ele><time>2026-04-12T10:03:53Z</time></trkpt><trkpt lat="44.66849313455376" lon="7.874717954634862"><ele>210.0</ele><time>2026-04-12T10:03:55Z</time></trkpt><trkpt lat="44.66852637771257" lon="7.87480958475986"><ele>210.0</ele><time>2026-04-12T10:03:57Z</time></trkpt><trkpt lat="44.668558219620124" lon="7.874911135255996"><ele>210.0</ele><time>2026-04-12T10:03:59Z</time></trkpt><trkpt lat="44.668596788536526" lon="7.875001502238905"><ele>210.0</ele><time>2026-04-12T10:04:01Z</time></trkpt><trkpt lat="44.66862452094661" lon="7.875096665286765"><ele>210.0</ele><time>2026-04-12T10:04:03Z</time></trkpt><trkpt lat="44.668656433493524" lon="7.87518380043267"><ele>210.0</ele><time>2026-04-12T10:04:05Z</time></trkpt><trkpt lat="44.6686921533771" lon="7.8752619298498505"><ele>210.0</ele><time>2026-04-12T10:04:07Z</time></trkpt><trkpt lat="44.668718552558204" lon="7.87535269367362"><ele>210.0</ele><time>2026-04-12T10:04:09Z</time></trkpt><trkpt lat="44.66874383301937" lon="7.8754466577124855"><ele>210.0</ele><time>2026-04-12T10:04:11Z</time></trkpt><trkpt lat="44.668770131841804" lon="7.875535202917691"><ele>210.0</ele><time>2026-04-12T10:04:13Z</time></trkpt><trkpt lat="44.66879817730979" lon="7.875624674365422"><ele>210.0</ele><time>2026-04-12T10:04:15Z</time></trkpt><trkpt lat="44.66883293251184" lon="7.875732057089069"><ele>210.0</ele><time>2026-04-12T10:04:17Z</time></trkpt><trkpt lat="44.66886246855332" lon="7.875818972698461"><ele>210.0</ele><time>2026-04-12T10:04:19Z</time></trkpt><trkpt lat="44.66890070390698" lon="7.875938885897338"><ele>210.0</ele><time>2026-04-12T10:04:21.999Z</time></trkpt><trkpt lat="44.668933887505595" lon="7.876024891617056"><ele>210.0</ele><time>2026-04-12T10:04:23.999Z</time></trkpt><trkpt lat="44.66896296462396" lon="7.876118985439151"><ele>210.0</ele><time>2026-04-12T10:04:25.999Z</time></trkpt><trkpt lat="44.66899771173789" lon="7.876216839768253"><ele>210.0</ele><time>2026-04-12T10:04:27.999Z</time></trkpt><trkpt lat="44.669032347586835" lon="7.876305177801768"><ele>210.0</ele><time>2026-04-12T10:04:29.999Z</time></trkpt><trkpt lat="44.669064512326685" lon="7.876392917953643"><ele>210.0</ele><time>2026-04-12T10:04:31.999Z</time></trkpt><trkpt lat="44.66909865875507" lon="7.876488414399499"><ele>210.0</ele><time>2026-04-12T10:04:33.999Z</time></trkpt><trkpt lat="44.6691317062213" lon="7.876579314651693"><ele>210.0</ele><time>2026-04-12T10:04:35.999Z</time></trkpt><trkpt lat="44.66915959495631" lon="7.876669267935555"><ele>210.0</ele><time>2026-04-12T10:04:37.999Z</time></trkpt><trkpt lat="44.66918337661829" lon="7.876756848368448"><ele>210.0</ele><time>2026-04-12T10:04:39.999Z</time></trkpt><trkpt lat="44.669201515337214" lon="7.876846366858255"><ele>210.0</ele><time>2026-04-12T10:04:41.999Z</time></trkpt><trkpt lat="44.669224494379584" lon="7.876947107190344"><ele>210.0</ele><time>2026-04-12T10:04:43.999Z</time></trkpt><trkpt lat="44.66923924756839" lon="7.877042332281506"><ele>210.0</ele><time>2026-04-12T10:04:45.999Z</time></trkpt><trkpt lat="44.669257230201396" lon="7.87713783091227"><ele>210.0</ele><time>2026-04-12T10:04:47.999Z</time></trkpt><trkpt lat="44.669276870347296" lon="7.877249859695459"><ele>210.16666666666666</ele><time>2026-04-12T10:04:49.999Z</time></trkpt><trkpt lat="44.66930616845798" lon="7.877335222888232"><ele>210.33333333333331</ele><time>2026-04-12T10:04:51.999Z</time></trkpt><trkpt lat="44.669329900857136" lon="7.877423413553833"><ele>210.5</ele><time>2026-04-12T10:04:53.999Z</time></trkpt><trkpt lat="44.66934552703777" lon="7.8775174363026474"><ele>210.66666666666666</ele><time>2026-04-12T10:04:55.999Z</time></trkpt><trkpt lat="44.669387799790535" lon="7.877607798844631"><ele>210.83333333333331</ele><time>2026-04-12T10:04:58.999Z</time></trkpt><trkpt lat="44.66942780443775" lon="7.877716107286133"><ele>211.0</ele><time>2026-04-12T10:05:01.999Z</time></trkpt><trkpt lat="44.66946358732481" lon="7.877821719964266"><ele>210.49999999999997</ele><time>2026-04-12T10:05:04.999Z</time></trkpt><trkpt lat="44.66950464319691" lon="7.877919850171873"><ele>210.0</ele><time>2026-04-12T10:05:07.999Z</time></trkpt><trkpt lat="44.669556861621544" lon="7.878023672233228"><ele>209.5</ele><time>2026-04-12T10:05:10.999Z</time></trkpt><trkpt lat="44.66961224588738" lon="7.878133177925053"><ele>209.0</ele><time>2026-04-12T10:05:13.999Z</time></trkpt><trkpt lat="44.66965452398977" lon="7.878211386445268"><ele>208.49999999999997</ele><time>2026-04-12T10:05:15.999Z</time></trkpt><trkpt lat="44.66969627211412" lon="7.878279044969441"><ele>208.0</ele><time>2026-04-12T10:05:17.999Z</time></trkpt><trkpt lat="44.669753168965904" lon="7.878372116064452"><ele>208.0</ele><time>2026-04-12T10:05:20.999Z</time></trkpt><trkpt lat="44.66980252003997" lon="7.878430763372491"><ele>208.0</ele><time>2026-04-12T10:05:22.999Z</time></trkpt><trkpt lat="44.669864128363585" lon="7.87848747451339"><ele>208.0</ele><time>2026-04-12T10:05:25.999Z</time></trkpt><trkpt lat="44.669929869260635" lon="7.878498076283493"><ele>208.0</ele><time>2026-04-12T10:05:28.999Z</time></trkpt><trkpt lat="44.67000898100864" lon="7.8785022820616675"><ele>208.0</ele><time>2026-04-12T10:05:32Z</time></trkpt><trkpt lat="44.67008364300414" lon="7.878573220028568"><ele>208.0</ele><time>2026-04-12T10:05:36Z</time></trkpt><trkpt lat="44.67015172290123" lon="7.87858953162648"><ele>208.0</ele><time>2026-04-12T10:05:39Z</time></trkpt><trkpt lat="44.67023111952332" lon="7.878520213276665"><ele>207.66666666666666</ele><time>2026-04-12T10:05:42Z</time></trkpt><trkpt lat="44.670317144648344" lon="7.878465855280911"><ele>207.33333333333331</ele><time>2026-04-12T10:05:45Z</time></trkpt><trkpt lat="44.67037905248494" lon="7.878425245742688"><ele>207.0</ele><time>2026-04-12T10:05:47Z</time></trkpt><trkpt lat="44.670447141159194" lon="7.878388308307938"><ele>206.66666666666669</ele><time>2026-04-12T10:05:49Z</time></trkpt><trkpt lat="44.67052171693918" lon="7.8783191441811615"><ele>206.33333333333334</ele><time>2026-04-12T10:05:52Z</time></trkpt><trkpt lat="44.67061653858936" lon="7.878278192977809"><ele>206.0</ele><time>2026-04-12T10:05:55Z</time></trkpt><trkpt lat="44.67070229168839" lon="7.878217808819826"><ele>205.99999999999997</ele><time>2026-04-12T10:05:58Z</time></trkpt><trkpt lat="44.670784202203876" lon="7.878175867990645"><ele>206.0</ele><time>2026-04-12T10:06:00Z</time></trkpt><trkpt lat="44.6708445620523" lon="7.878133512845974"><ele>206.0</ele><time>2026-04-12T10:06:02Z</time></trkpt><trkpt lat="44.670910258377" lon="7.8780909073677226"><ele>206.0</ele><time>2026-04-12T10:06:04Z</time></trkpt><trkpt lat="44.67097390575152" lon="7.8780549592999"><ele>206.0</ele><time>2026-04-12T10:06:06Z</time></trkpt><trkpt lat="44.67103846530357" lon="7.878000619867023"><ele>205.99999999999997</ele><time>2026-04-12T10:06:08Z</time></trkpt><trkpt lat="44.671109194171116" lon="7.877963445153457"><ele>206.0</ele><time>2026-04-12T10:06:10Z</time></trkpt><trkpt lat="44.6711852828644" lon="7.877928165181646"><ele>206.16666666666669</ele><time>2026-04-12T10:06:12Z</time></trkpt><trkpt lat="44.67125376415014" lon="7.877883852412948"><ele>206.33333333333334</ele><time>2026-04-12T10:06:14Z</time></trkpt><trkpt lat="44.67131890152225" lon="7.87784215539455"><ele>206.5</ele><time>2026-04-12T10:06:16Z</time></trkpt><trkpt lat="44.67139097389364" lon="7.87779091147036"><ele>206.66666666666669</ele><time>2026-04-12T10:06:18Z</time></trkpt><trkpt lat="44.67145953941854" lon="7.877754451569639"><ele>206.83333333333334</ele><time>2026-04-12T10:06:20Z</time></trkpt><trkpt lat="44.67156125732352" lon="7.877700872958808"><ele>207.0</ele><time>2026-04-12T10:06:22.999Z</time></trkpt><trkpt lat="44.671627069279744" lon="7.877654019288286"><ele>207.00000000000003</ele><time>2026-04-12T10:06:24.999Z</time></trkpt><trkpt lat="44.67169336009182" lon="7.8776149901355605"><ele>207.0</ele><time>2026-04-12T10:06:26.999Z</time></trkpt><trkpt lat="44.67175327047206" lon="7.8775735997516305"><ele>207.0</ele><time>2026-04-12T10:06:28.999Z</time></trkpt><trkpt lat="44.6718202129457" lon="7.877537017028435"><ele>207.0</ele><time>2026-04-12T10:06:30.999Z</time></trkpt><trkpt lat="44.671881460621016" lon="7.87749742983022"><ele>207.0</ele><time>2026-04-12T10:06:32.999Z</time></trkpt><trkpt lat="44.671944073745465" lon="7.87746209426167"><ele>207.00000000000003</ele><time>2026-04-12T10:06:34.999Z</time></trkpt><trkpt lat="44.67203656997337" lon="7.8773951147761565"><ele>207.0</ele><time>2026-04-12T10:06:37.999Z</time></trkpt><trkpt lat="44.67210790205451" lon="7.877354447462671"><ele>207.0</ele><time>2026-04-12T10:06:39.999Z</time></trkpt><trkpt lat="44.67217369753305" lon="7.877314452460479"><ele>207.0</ele><time>2026-04-12T10:06:41.999Z</time></trkpt><trkpt lat="44.67223869439857" lon="7.877274814057104"><ele>207.0</ele><time>2026-04-12T10:06:43.999Z</time></trkpt><trkpt lat="44.67230311511388" lon="7.877241620337001"><ele>207.0</ele><time>2026-04-12T10:06:45.999Z</time></trkpt><trkpt lat="44.67239288237477" lon="7.877188623485901"><ele>207.0</ele><time>2026-04-12T10:06:48.999Z</time></trkpt><trkpt lat="44.67245867969336" lon="7.877149477183169"><ele>207.0</ele><time>2026-04-12T10:06:50.999Z</time></trkpt><trkpt lat="44.67252503160673" lon="7.877107994007295"><ele>207.00000000000003</ele><time>2026-04-12T10:06:52.999Z</time></trkpt><trkpt lat="44.67259550055885" lon="7.877068260727558"><ele>207.0</ele><time>2026-04-12T10:06:54.999Z</time></trkpt><trkpt lat="44.67266551581565" lon="7.877020561460113"><ele>207.0</ele><time>2026-04-12T10:06:56.999Z</time></trkpt><trkpt lat="44.67273209847197" lon="7.876971718854386"><ele>207.0</ele><time>2026-04-12T10:06:58.999Z</time></trkpt><trkpt lat="44.672793686593394" lon="7.876937961418546"><ele>207.0</ele><time>2026-04-12T10:07:00.999Z</time></trkpt><trkpt lat="44.67285448972115" lon="7.876888140469245"><ele>207.00000000000003</ele><time>2026-04-12T10:07:02.999Z</time></trkpt><trkpt lat="44.67291807336085" lon="7.876856880164197"><ele>207.0</ele><time>2026-04-12T10:07:04.999Z</time></trkpt><trkpt lat="44.67298076340794" lon="7.876817201273338"><ele>207.16666666666666</ele><time>2026-04-12T10:07:06.999Z</time></trkpt><trkpt lat="44.67304737901035" lon="7.876776117408046"><ele>207.33333333333331</ele><time>2026-04-12T10:07:08.999Z</time></trkpt><trkpt lat="44.67311361745806" lon="7.876726499203351"><ele>207.5</ele><time>2026-04-12T10:07:10.999Z</time></trkpt><trkpt lat="44.6731891247946" lon="7.876690114212954"><ele>207.66666666666666</ele><time>2026-04-12T10:07:12.999Z</time></trkpt><trkpt lat="44.67324844033937" lon="7.876647010803535"><ele>207.83333333333331</ele><time>2026-04-12T10:07:14.999Z</time></trkpt><trkpt lat="44.67332036230876" lon="7.876599893800427"><ele>208.0</ele><time>2026-04-12T10:07:16.999Z</time></trkpt><trkpt lat="44.67339402532629" lon="7.8765495411712525"><ele>207.99999999999997</ele><time>2026-04-12T10:07:18.999Z</time></trkpt><trkpt lat="44.67346398691142" lon="7.876514587071995"><ele>208.0</ele><time>2026-04-12T10:07:20.999Z</time></trkpt><trkpt lat="44.67353391134124" lon="7.876466535681522"><ele>208.0</ele><time>2026-04-12T10:07:22.999Z</time></trkpt><trkpt lat="44.67360625001853" lon="7.876422751207918"><ele>208.0</ele><time>2026-04-12T10:07:24.999Z</time></trkpt><trkpt lat="44.67367913999425" lon="7.87637553128931"><ele>207.99999999999997</ele><time>2026-04-12T10:07:26.999Z</time></trkpt><trkpt lat="44.67374941395623" lon="7.876327919628008"><ele>208.0</ele><time>2026-04-12T10:07:28.999Z</time></trkpt><trkpt lat="44.67382298474417" lon="7.876280485897228"><ele>208.14285714285714</ele><time>2026-04-12T10:07:30.999Z</time></trkpt><trkpt lat="44.67389648875933" lon="7.876239641629524"><ele>208.2857142857143</ele><time>2026-04-12T10:07:32.999Z</time></trkpt><trkpt lat="44.67396626295639" lon="7.876195739767686"><ele>208.42857142857144</ele><time>2026-04-12T10:07:34.999Z</time></trkpt><trkpt lat="44.674030739624776" lon="7.876155040589747"><ele>208.57142857142856</ele><time>2026-04-12T10:07:37Z</time></trkpt><trkpt lat="44.6740964269273" lon="7.876110766085058"><ele>208.71428571428572</ele><time>2026-04-12T10:07:40Z</time></trkpt><trkpt lat="44.674172458290066" lon="7.876064221284221"><ele>208.85714285714286</ele><time>2026-04-12T10:07:43Z</time></trkpt><trkpt lat="44.67423046533136" lon="7.87602913976586"><ele>209.0</ele><time>2026-04-12T10:07:45Z</time></trkpt><trkpt lat="44.67429749612445" lon="7.875991969579938"><ele>209.00000000000003</ele><time>2026-04-12T10:07:47Z</time></trkpt><trkpt lat="44.67436142585734" lon="7.87595501410847"><ele>209.0</ele><time>2026-04-12T10:07:49Z</time></trkpt><trkpt lat="44.67444231704419" lon="7.875901803211523"><ele>209.0</ele><time>2026-04-12T10:07:52Z</time></trkpt><trkpt lat="44.67450187196596" lon="7.875869412531333"><ele>209.0</ele><time>2026-04-12T10:07:54Z</time></trkpt><trkpt lat="44.6745795213303" lon="7.875806858439552"><ele>209.00000000000003</ele><time>2026-04-12T10:07:57Z</time></trkpt><trkpt lat="44.67465574457993" lon="7.875765022990837"><ele>209.0</ele><time>2026-04-12T10:08:00Z</time></trkpt><trkpt lat="44.674741110092334" lon="7.875717059982841"><ele>208.50000000000003</ele><time>2026-04-12T10:08:03Z</time></trkpt><trkpt lat="44.6748210524377" lon="7.875661343992722"><ele>208.0</ele><time>2026-04-12T10:08:06Z</time></trkpt><trkpt lat="44.67490113745704" lon="7.8756090667935075"><ele>207.5</ele><time>2026-04-12T10:08:09Z</time></trkpt><trkpt lat="44.67496060645448" lon="7.875579067442949"><ele>207.0</ele><time>2026-04-12T10:08:11Z</time></trkpt><trkpt lat="44.675043752797656" lon="7.875526629883078"><ele>206.50000000000003</ele><time>2026-04-12T10:08:14Z</time></trkpt><trkpt lat="44.67510435145801" lon="7.875487398767437"><ele>206.0</ele><time>2026-04-12T10:08:16Z</time></trkpt><trkpt lat="44.67518374390946" lon="7.875438715923348"><ele>206.00000000000003</ele><time>2026-04-12T10:08:19Z</time></trkpt><trkpt lat="44.675263492868126" lon="7.875388376500582"><ele>206.0</ele><time>2026-04-12T10:08:22Z</time></trkpt><trkpt lat="44.675328873508775" lon="7.875360973747218"><ele>206.0</ele><time>2026-04-12T10:08:24Z</time></trkpt><trkpt lat="44.675411562594114" lon="7.875306828027016"><ele>206.0</ele><time>2026-04-12T10:08:27Z</time></trkpt><trkpt lat="44.67548689397162" lon="7.875255083557956"><ele>206.00000000000003</ele><time>2026-04-12T10:08:30Z</time></trkpt><trkpt lat="44.67555502521722" lon="7.875217272772484"><ele>206.0</ele><time>2026-04-12T10:08:33Z</time></trkpt><trkpt lat="44.67562012213048" lon="7.875173591987615"><ele>206.33333333333334</ele><time>2026-04-12T10:08:35.999Z</time></trkpt><trkpt lat="44.67569007286662" lon="7.875126833174016"><ele>206.66666666666669</ele><time>2026-04-12T10:08:38.999Z</time></trkpt><trkpt lat="44.67576650949754" lon="7.875072464244367"><ele>207.0</ele><time>2026-04-12T10:08:41.999Z</time></trkpt><trkpt lat="44.67583001315229" lon="7.875045418868995"><ele>207.33333333333331</ele><time>2026-04-12T10:08:44.999Z</time></trkpt><trkpt lat="44.67589995029075" lon="7.874996366191179"><ele>207.66666666666666</ele><time>2026-04-12T10:08:47.999Z</time></trkpt><trkpt lat="44.67598048684706" lon="7.874949738584829"><ele>208.0</ele><time>2026-04-12T10:08:50.999Z</time></trkpt><trkpt lat="44.67604380714119" lon="7.874900223115501"><ele>208.16666666666666</ele><time>2026-04-12T10:08:53.999Z</time></trkpt><trkpt lat="44.67612908351489" lon="7.8748478990520026"><ele>208.33333333333331</ele><time>2026-04-12T10:08:57.999Z</time></trkpt><trkpt lat="44.67618782642993" lon="7.874798355977157"><ele>208.5</ele><time>2026-04-12T10:09:00.999Z</time></trkpt><trkpt lat="44.6762571770434" lon="7.874763335587541"><ele>208.66666666666669</ele><time>2026-04-12T10:09:03.999Z</time></trkpt><trkpt lat="44.676315699303544" lon="7.874728798494061"><ele>208.83333333333334</ele><time>2026-04-12T10:09:05.999Z</time></trkpt><trkpt lat="44.67639826195865" lon="7.874678682304516"><ele>209.0</ele><time>2026-04-12T10:09:08.999Z</time></trkpt><trkpt lat="44.676456796467725" lon="7.874642876668806"><ele>209.00000000000003</ele><time>2026-04-12T10:09:10.999Z</time></trkpt><trkpt lat="44.67652366408079" lon="7.874598974210721"><ele>209.0</ele><time>2026-04-12T10:09:13.999Z</time></trkpt><trkpt lat="44.67660229946816" lon="7.8745593512747645"><ele>209.0</ele><time>2026-04-12T10:09:16.999Z</time></trkpt><trkpt lat="44.67666321731374" lon="7.874518883156198"><ele>209.0</ele><time>2026-04-12T10:09:18.999Z</time></trkpt><trkpt lat="44.67674492863353" lon="7.874467163123558"><ele>209.00000000000003</ele><time>2026-04-12T10:09:21.999Z</time></trkpt><trkpt lat="44.67682638451142" lon="7.874434804798919"><ele>209.0</ele><time>2026-04-12T10:09:24.999Z</time></trkpt><trkpt lat="44.67690692232319" lon="7.874370202724442"><ele>209.16666666666669</ele><time>2026-04-12T10:09:27.999Z</time></trkpt><trkpt lat="44.676975040015314" lon="7.874326559447893"><ele>209.33333333333334</ele><time>2026-04-12T10:09:30.999Z</time></trkpt><trkpt lat="44.677041864795754" lon="7.874268803995625"><ele>209.5</ele><time>2026-04-12T10:09:33.999Z</time></trkpt><trkpt lat="44.677124778512734" lon="7.874232191314624"><ele>209.66666666666669</ele><time>2026-04-12T10:09:36.999Z</time></trkpt><trkpt lat="44.677194214000664" lon="7.874182086486888"><ele>209.83333333333334</ele><time>2026-04-12T10:09:39.999Z</time></trkpt><trkpt lat="44.677270852858236" lon="7.874172969806067"><ele>210.0</ele><time>2026-04-12T10:09:43Z</time></trkpt><trkpt lat="44.67729837749743" lon="7.874086362630736"><ele>210.0</ele><time>2026-04-12T10:09:46Z</time></trkpt><trkpt lat="44.67730604927593" lon="7.873966163014227"><ele>210.0</ele><time>2026-04-12T10:09:49Z</time></trkpt><trkpt lat="44.67727063935173" lon="7.8738538986231665"><ele>210.0</ele><time>2026-04-12T10:09:52Z</time></trkpt><trkpt lat="44.67725059036927" lon="7.873766940548629"><ele>210.0</ele><time>2026-04-12T10:09:54Z</time></trkpt><trkpt lat="44.67722241058403" lon="7.87367732884601"><ele>210.0</ele><time>2026-04-12T10:09:56Z</time></trkpt><trkpt lat="44.67720312613623" lon="7.873572777156856"><ele>210.0</ele><time>2026-04-12T10:09:58Z</time></trkpt><trkpt lat="44.67717987686686" lon="7.873472078531132"><ele>210.0</ele><time>2026-04-12T10:10:00Z</time></trkpt><trkpt lat="44.67715889831403" lon="7.873378568125968"><ele>210.0</ele><time>2026-04-12T10:10:02Z</time></trkpt><trkpt lat="44.67713350935224" lon="7.8732826861497"><ele>210.0</ele><time>2026-04-12T10:10:04Z</time></trkpt><trkpt lat="44.677106147090946" lon="7.873170647752069"><ele>210.0</ele><time>2026-04-12T10:10:06Z</time></trkpt><trkpt lat="44.67708237370798" lon="7.873058555427288"><ele>210.0</ele><time>2026-04-12T10:10:08Z</time></trkpt><trkpt lat="44.67705304313174" lon="7.872941558390016"><ele>210.0</ele><time>2026-04-12T10:10:10Z</time></trkpt><trkpt lat="44.67702487287033" lon="7.872830935367555"><ele>210.0</ele><time>2026-04-12T10:10:12Z</time></trkpt><trkpt lat="44.67700062182574" lon="7.872717199435322"><ele>210.0</ele><time>2026-04-12T10:10:14Z</time></trkpt><trkpt lat="44.67696927547881" lon="7.8726072352763214"><ele>210.0</ele><time>2026-04-12T10:10:16Z</time></trkpt><trkpt lat="44.67694034240615" lon="7.8724922145892435"><ele>210.0</ele><time>2026-04-12T10:10:18Z</time></trkpt><trkpt lat="44.67690952435839" lon="7.872388534129077"><ele>210.0</ele><time>2026-04-12T10:10:20Z</time></trkpt><trkpt lat="44.676895383057136" lon="7.872288203062259"><ele>210.0</ele><time>2026-04-12T10:10:22Z</time></trkpt><trkpt lat="44.67696573852713" lon="7.872238253015115"><ele>210.2</ele><time>2026-04-12T10:10:24Z</time></trkpt><trkpt lat="44.67705261442314" lon="7.872151959152478"><ele>210.4</ele><time>2026-04-12T10:10:26Z</time></trkpt><trkpt lat="44.677142890832236" lon="7.872075841290736"><ele>210.60000000000002</ele><time>2026-04-12T10:10:28Z</time></trkpt><trkpt lat="44.67722769029687" lon="7.872018268070562"><ele>210.8</ele><time>2026-04-12T10:10:30Z</time></trkpt><trkpt lat="44.67731015633398" lon="7.871960129111046"><ele>211.0</ele><time>2026-04-12T10:10:32Z</time></trkpt><trkpt lat="44.67739125664684" lon="7.871907065182414"><ele>210.99999999999997</ele><time>2026-04-12T10:10:34Z</time></trkpt><trkpt lat="44.677467276753596" lon="7.8718509851919185"><ele>211.0</ele><time>2026-04-12T10:10:35.999Z</time></trkpt><trkpt lat="44.67754085255658" lon="7.87179178574198"><ele>211.0</ele><time>2026-04-12T10:10:37.999Z</time></trkpt><trkpt lat="44.67761182032257" lon="7.871741335645834"><ele>211.0</ele><time>2026-04-12T10:10:39.999Z</time></trkpt><trkpt lat="44.67768144132042" lon="7.871695875924724"><ele>210.99999999999997</ele><time>2026-04-12T10:10:41.999Z</time></trkpt><trkpt lat="44.67774974540611" lon="7.871657750227662"><ele>211.0</ele><time>2026-04-12T10:10:43.999Z</time></trkpt><trkpt lat="44.67782606797685" lon="7.871615219629512"><ele>211.20000000000002</ele><time>2026-04-12T10:10:45.999Z</time></trkpt><trkpt lat="44.67790905006796" lon="7.8715580150341395"><ele>211.4</ele><time>2026-04-12T10:10:47.999Z</time></trkpt><trkpt lat="44.677996692271364" lon="7.871508155433592"><ele>211.6</ele><time>2026-04-12T10:10:49.999Z</time></trkpt><trkpt lat="44.67808364077542" lon="7.871446712193218"><ele>211.8</ele><time>2026-04-12T10:10:51.999Z</time></trkpt><trkpt lat="44.67816269225291" lon="7.871391583364446"><ele>212.0</ele><time>2026-04-12T10:10:53.999Z</time></trkpt><trkpt lat="44.67823816777614" lon="7.871343244280144"><ele>212.00000000000003</ele><time>2026-04-12T10:10:55.999Z</time></trkpt><trkpt lat="44.678307649235684" lon="7.871295594831037"><ele>212.0</ele><time>2026-04-12T10:10:57.999Z</time></trkpt><trkpt lat="44.67837787458894" lon="7.871250859917697"><ele>212.0</ele><time>2026-04-12T10:11:00.999Z</time></trkpt><trkpt lat="44.678427367236615" lon="7.871176480760755"><ele>212.0</ele><time>2026-04-12T10:11:04.999Z</time></trkpt><trkpt lat="44.67849241679989" lon="7.87113529504444"><ele>212.00000000000003</ele><time>2026-04-12T10:11:07.999Z</time></trkpt><trkpt lat="44.67856231779045" lon="7.871074700503784"><ele>212.0</ele><time>2026-04-12T10:11:10.999Z</time></trkpt><trkpt lat="44.67865360350883" lon="7.871033310803636"><ele>211.71428571428572</ele><time>2026-04-12T10:11:13.999Z</time></trkpt><trkpt lat="44.67871792278862" lon="7.871006069409011"><ele>211.42857142857142</ele><time>2026-04-12T10:11:15.999Z</time></trkpt><trkpt lat="44.67878497669533" lon="7.870975044380087"><ele>211.14285714285714</ele><time>2026-04-12T10:11:17.999Z</time></trkpt><trkpt lat="44.67884670672456" lon="7.870931437391804"><ele>210.85714285714286</ele><time>2026-04-12T10:11:19.999Z</time></trkpt><trkpt lat="44.678912924249886" lon="7.8708892497476866"><ele>210.57142857142856</ele><time>2026-04-12T10:11:21.999Z</time></trkpt><trkpt lat="44.67897948686116" lon="7.870855896448756"><ele>210.28571428571428</ele><time>2026-04-12T10:11:23.999Z</time></trkpt><trkpt lat="44.67905376632995" lon="7.870805885189508"><ele>210.0</ele><time>2026-04-12T10:11:25.999Z</time></trkpt><trkpt lat="44.67912555366617" lon="7.870758729818075"><ele>210.0</ele><time>2026-04-12T10:11:27.999Z</time></trkpt><trkpt lat="44.679198945526174" lon="7.8707119983566445"><ele>210.0</ele><time>2026-04-12T10:11:29.999Z</time></trkpt><trkpt lat="44.67927667273823" lon="7.87067224816203"><ele>210.0</ele><time>2026-04-12T10:11:31.999Z</time></trkpt><trkpt lat="44.67935031725306" lon="7.8706206563540695"><ele>210.0</ele><time>2026-04-12T10:11:33.999Z</time></trkpt><trkpt lat="44.67942771650301" lon="7.870581748453448"><ele>210.0</ele><time>2026-04-12T10:11:35.999Z</time></trkpt><trkpt lat="44.67950241067795" lon="7.870545720919741"><ele>210.0</ele><time>2026-04-12T10:11:37.999Z</time></trkpt><trkpt lat="44.67957437421945" lon="7.870508374698281"><ele>210.16666666666666</ele><time>2026-04-12T10:11:39.999Z</time></trkpt><trkpt lat="44.679644877096514" lon="7.870471639095873"><ele>210.33333333333331</ele><time>2026-04-12T10:11:41.999Z</time></trkpt><trkpt lat="44.679724507576154" lon="7.870426019630717"><ele>210.5</ele><time>2026-04-12T10:11:43.999Z</time></trkpt><trkpt lat="44.67980328437815" lon="7.8703848526968905"><ele>210.66666666666666</ele><time>2026-04-12T10:11:45.999Z</time></trkpt><trkpt lat="44.67988415459756" lon="7.870350211760659"><ele>210.83333333333331</ele><time>2026-04-12T10:11:47.999Z</time></trkpt><trkpt lat="44.679965830657515" lon="7.870331889818152"><ele>211.0</ele><time>2026-04-12T10:11:50Z</time></trkpt><trkpt lat="44.6800376505039" lon="7.870274108359719"><ele>210.99999999999997</ele><time>2026-04-12T10:11:52Z</time></trkpt><trkpt lat="44.680112029924416" lon="7.870225399469412"><ele>211.0</ele><time>2026-04-12T10:11:54Z</time></trkpt><trkpt lat="44.680181669241655" lon="7.870171319097153"><ele>211.0</ele><time>2026-04-12T10:11:56Z</time></trkpt><trkpt lat="44.680253620696156" lon="7.870119396025437"><ele>211.0</ele><time>2026-04-12T10:11:58Z</time></trkpt><trkpt lat="44.68032437786126" lon="7.870066130116723"><ele>210.99999999999997</ele><time>2026-04-12T10:12:00Z</time></trkpt><trkpt lat="44.68039656342465" lon="7.870015909221114"><ele>211.0</ele><time>2026-04-12T10:12:02Z</time></trkpt><trkpt lat="44.680470897220616" lon="7.869962243399131"><ele>211.33333333333331</ele><time>2026-04-12T10:12:04Z</time></trkpt><trkpt lat="44.68054163307572" lon="7.869905455120008"><ele>211.66666666666666</ele><time>2026-04-12T10:12:06Z</time></trkpt><trkpt lat="44.68061514568743" lon="7.869854002568724"><ele>212.0</ele><time>2026-04-12T10:12:08Z</time></trkpt><trkpt lat="44.68068838959326" lon="7.869800907819364"><ele>212.33333333333331</ele><time>2026-04-12T10:12:10Z</time></trkpt><trkpt lat="44.68075552467363" lon="7.869735510201058"><ele>212.66666666666666</ele><time>2026-04-12T10:12:12Z</time></trkpt><trkpt lat="44.68082602702681" lon="7.869676549976366"><ele>213.0</ele><time>2026-04-12T10:12:14Z</time></trkpt><trkpt lat="44.68089631145835" lon="7.869622517594055"><ele>213.0</ele><time>2026-04-12T10:12:16Z</time></trkpt><trkpt lat="44.68096458191575" lon="7.869566073891634"><ele>213.0</ele><time>2026-04-12T10:12:18Z</time></trkpt><trkpt lat="44.68103310674702" lon="7.869501787948377"><ele>213.0</ele><time>2026-04-12T10:12:20Z</time></trkpt><trkpt lat="44.68109656455281" lon="7.869442356787368"><ele>213.0</ele><time>2026-04-12T10:12:22Z</time></trkpt><trkpt lat="44.68110119751222" lon="7.869307761777672"><ele>213.0</ele><time>2026-04-12T10:12:24Z</time></trkpt><trkpt lat="44.681146226174455" lon="7.869215768792929"><ele>213.0</ele><time>2026-04-12T10:12:26Z</time></trkpt><trkpt lat="44.681187206172154" lon="7.869112447704505"><ele>212.83333333333334</ele><time>2026-04-12T10:12:28Z</time></trkpt><trkpt lat="44.681227851129584" lon="7.86900392909473"><ele>212.66666666666669</ele><time>2026-04-12T10:12:30Z</time></trkpt><trkpt lat="44.68127840257709" lon="7.868907038335212"><ele>212.5</ele><time>2026-04-12T10:12:32Z</time></trkpt><trkpt lat="44.68131191614561" lon="7.8687994026779755"><ele>212.33333333333334</ele><time>2026-04-12T10:12:34Z</time></trkpt><trkpt lat="44.68134055409874" lon="7.868689100374687"><ele>212.16666666666669</ele><time>2026-04-12T10:12:35.999Z</time></trkpt><trkpt lat="44.681353601910985" lon="7.868571468444622"><ele>212.0</ele><time>2026-04-12T10:12:37.999Z</time></trkpt><trkpt lat="44.68137835974623" lon="7.868460795540095"><ele>212.16666666666669</ele><time>2026-04-12T10:12:39.999Z</time></trkpt><trkpt lat="44.68139695606026" lon="7.868342552241512"><ele>212.33333333333334</ele><time>2026-04-12T10:12:41.999Z</time></trkpt><trkpt lat="44.681425688647685" lon="7.868225533509031"><ele>212.5</ele><time>2026-04-12T10:12:43.999Z</time></trkpt><trkpt lat="44.68145051140137" lon="7.868110103807158"><ele>212.66666666666669</ele><time>2026-04-12T10:12:45.999Z</time></trkpt><trkpt lat="44.68147551799944" lon="7.86799596753169"><ele>212.83333333333334</ele><time>2026-04-12T10:12:47.999Z</time></trkpt><trkpt lat="44.681498980433716" lon="7.8678954513857455"><ele>213.0</ele><time>2026-04-12T10:12:49.999Z</time></trkpt><trkpt lat="44.68152114089668" lon="7.867811465890749"><ele>212.99999999999997</ele><time>2026-04-12T10:12:51.999Z</time></trkpt><trkpt lat="44.6815498941694" lon="7.867724786871821"><ele>213.0</ele><time>2026-04-12T10:12:53.999Z</time></trkpt><trkpt lat="44.68156557234767" lon="7.867631549514926"><ele>213.0</ele><time>2026-04-12T10:12:55.999Z</time></trkpt><trkpt lat="44.6815830583296" lon="7.867526245369761"><ele>213.0</ele><time>2026-04-12T10:12:57.999Z</time></trkpt><trkpt lat="44.68159755022222" lon="7.867427994663174"><ele>213.0</ele><time>2026-04-12T10:12:59.999Z</time></trkpt><trkpt lat="44.68162153135842" lon="7.867297967398418"><ele>212.99999999999997</ele><time>2026-04-12T10:13:02.999Z</time></trkpt><trkpt lat="44.681640129259016" lon="7.867208141135446"><ele>213.0</ele><time>2026-04-12T10:13:04.999Z</time></trkpt><trkpt lat="44.68165211885205" lon="7.867102398686035"><ele>212.99999999999997</ele><time>2026-04-12T10:13:06.999Z</time></trkpt><trkpt lat="44.68166747143253" lon="7.867006887399351"><ele>213.0</ele><time>2026-04-12T10:13:08.999Z</time></trkpt><trkpt lat="44.68168496770046" lon="7.866910348268761"><ele>213.0</ele><time>2026-04-12T10:13:10.999Z</time></trkpt><trkpt lat="44.681708466938886" lon="7.866815764942176"><ele>213.0</ele><time>2026-04-12T10:13:12.999Z</time></trkpt><trkpt lat="44.68172648843138" lon="7.866717256222005"><ele>213.0</ele><time>2026-04-12T10:13:14.999Z</time></trkpt><trkpt lat="44.681748313545036" lon="7.866624417948946"><ele>212.99999999999997</ele><time>2026-04-12T10:13:16.999Z</time></trkpt><trkpt lat="44.68178062059493" lon="7.866523511283051"><ele>213.0</ele><time>2026-04-12T10:13:18.999Z</time></trkpt><trkpt lat="44.681806973130136" lon="7.866422371212071"><ele>213.0</ele><time>2026-04-12T10:13:20.999Z</time></trkpt><trkpt lat="44.68182054592702" lon="7.866304721948577"><ele>213.0</ele><time>2026-04-12T10:13:22.999Z</time></trkpt><trkpt lat="44.68184527771884" lon="7.866196856265722"><ele>213.0</ele><time>2026-04-12T10:13:24.999Z</time></trkpt><trkpt lat="44.6818699073738" lon="7.866090590037713"><ele>213.0</ele><time>2026-04-12T10:13:26.999Z</time></trkpt><trkpt lat="44.68189645653576" lon="7.8659834910084285"><ele>213.0</ele><time>2026-04-12T10:13:28.999Z</time></trkpt><trkpt lat="44.68191679086401" lon="7.865866338230403"><ele>213.0</ele><time>2026-04-12T10:13:30.999Z</time></trkpt><trkpt lat="44.68194111698657" lon="7.865754332764517"><ele>212.7142857142857</ele><time>2026-04-12T10:13:32.999Z</time></trkpt><trkpt lat="44.68196405930782" lon="7.865639798793817"><ele>212.42857142857142</ele><time>2026-04-12T10:13:34.999Z</time></trkpt><trkpt lat="44.68199021238305" lon="7.865542131425424"><ele>212.14285714285714</ele><time>2026-04-12T10:13:36.999Z</time></trkpt><trkpt lat="44.68203003125855" lon="7.8654609525838435"><ele>211.85714285714283</ele><time>2026-04-12T10:13:38.999Z</time></trkpt><trkpt lat="44.682054312885604" lon="7.865375131993899"><ele>211.57142857142858</ele><time>2026-04-12T10:13:40.999Z</time></trkpt><trkpt lat="44.68211978794536" lon="7.865319921511707"><ele>211.28571428571428</ele><time>2026-04-12T10:13:42.999Z</time></trkpt><trkpt lat="44.682181818706695" lon="7.865265973423787"><ele>211.0</ele><time>2026-04-12T10:13:44.999Z</time></trkpt><trkpt lat="44.68224248918627" lon="7.865219512372024"><ele>211.0</ele><time>2026-04-12T10:13:46.999Z</time></trkpt><trkpt lat="44.68230782369579" lon="7.865165421314427"><ele>211.0</ele><time>2026-04-12T10:13:49.999Z</time></trkpt><trkpt lat="44.68237455949452" lon="7.86512775919617"><ele>211.0</ele><time>2026-04-12T10:14:28Z</time></trkpt><trkpt lat="44.682441922261454" lon="7.865073408599475"><ele>211.0</ele><time>2026-04-12T10:14:31Z</time></trkpt><trkpt lat="44.68251736966376" lon="7.8650169132424255"><ele>211.0</ele><time>2026-04-12T10:14:34Z</time></trkpt><trkpt lat="44.68257168040421" lon="7.8649704229568895"><ele>211.0</ele><time>2026-04-12T10:14:36Z</time></trkpt><trkpt lat="44.68263477764499" lon="7.864921675003975"><ele>211.0</ele><time>2026-04-12T10:14:38Z</time></trkpt><trkpt lat="44.68270130611829" lon="7.86487167178284"><ele>211.33333333333331</ele><time>2026-04-12T10:14:40Z</time></trkpt><trkpt lat="44.68276668662542" lon="7.864818692869663"><ele>211.66666666666666</ele><time>2026-04-12T10:14:42Z</time></trkpt><trkpt lat="44.68283032854265" lon="7.8647662877292905"><ele>212.0</ele><time>2026-04-12T10:14:44Z</time></trkpt><trkpt lat="44.682895410176805" lon="7.864727029780117"><ele>212.33333333333331</ele><time>2026-04-12T10:14:46Z</time></trkpt><trkpt lat="44.68291596023151" lon="7.864620744799091"><ele>212.66666666666666</ele><time>2026-04-12T10:14:48Z</time></trkpt><trkpt lat="44.6829179902503" lon="7.864515850398788"><ele>213.0</ele><time>2026-04-12T10:14:50Z</time></trkpt><trkpt lat="44.68291116753742" lon="7.864406175282249"><ele>213.0</ele><time>2026-04-12T10:14:52Z</time></trkpt><trkpt lat="44.682912519526326" lon="7.864303545097334"><ele>213.0</ele><time>2026-04-12T10:14:53.999Z</time></trkpt><trkpt lat="44.682926523124046" lon="7.864200922348252"><ele>213.0</ele><time>2026-04-12T10:14:55.999Z</time></trkpt><trkpt lat="44.682958764279505" lon="7.864104030174168"><ele>213.0</ele><time>2026-04-12T10:14:57.999Z</time></trkpt><trkpt lat="44.68300894401065" lon="7.864018415641261"><ele>213.0</ele><time>2026-04-12T10:14:59.999Z</time></trkpt><trkpt lat="44.68306857804137" lon="7.863938106312048"><ele>213.0</ele><time>2026-04-12T10:15:01.999Z</time></trkpt><trkpt lat="44.683125651530304" lon="7.863854234517924"><ele>213.0</ele><time>2026-04-12T10:15:03.999Z</time></trkpt><trkpt lat="44.68318402914007" lon="7.863769143991089"><ele>213.0</ele><time>2026-04-12T10:15:05.999Z</time></trkpt><trkpt lat="44.683236068023646" lon="7.8636842520285954"><ele>213.0</ele><time>2026-04-12T10:15:07.999Z</time></trkpt><trkpt lat="44.683293554176224" lon="7.863601084396871"><ele>213.0</ele><time>2026-04-12T10:15:09.999Z</time></trkpt><trkpt lat="44.68335137301153" lon="7.863518762219382"><ele>213.0</ele><time>2026-04-12T10:15:11.999Z</time></trkpt><trkpt lat="44.683409256579644" lon="7.8634315104863965"><ele>213.0</ele><time>2026-04-12T10:15:13.999Z</time></trkpt><trkpt lat="44.683468797151654" lon="7.863341927989768"><ele>213.16666666666666</ele><time>2026-04-12T10:15:15.999Z</time></trkpt><trkpt lat="44.68352843673352" lon="7.863256548213714"><ele>213.33333333333331</ele><time>2026-04-12T10:15:17.999Z</time></trkpt><trkpt lat="44.6835828162995" lon="7.8631661336762075"><ele>213.5</ele><time>2026-04-12T10:15:19.999Z</time></trkpt><trkpt lat="44.683635346145785" lon="7.863084651636609"><ele>213.66666666666666</ele><time>2026-04-12T10:15:21.999Z</time></trkpt><trkpt lat="44.683693627703256" lon="7.862999234661978"><ele>213.83333333333331</ele><time>2026-04-12T10:15:23.999Z</time></trkpt><trkpt lat="44.68375238901058" lon="7.862906626058392"><ele>214.0</ele><time>2026-04-12T10:15:25.999Z</time></trkpt><trkpt lat="44.683808166776394" lon="7.862817739018133"><ele>213.83333333333331</ele><time>2026-04-12T10:15:27.999Z</time></trkpt><trkpt lat="44.683867025620685" lon="7.862726657726768"><ele>213.66666666666666</ele><time>2026-04-12T10:15:29.999Z</time></trkpt><trkpt lat="44.68392462806017" lon="7.862637775216209"><ele>213.5</ele><time>2026-04-12T10:15:31.999Z</time></trkpt><trkpt lat="44.68398206774359" lon="7.862548797065065"><ele>213.33333333333331</ele><time>2026-04-12T10:15:33.999Z</time></trkpt><trkpt lat="44.68404315137219" lon="7.862449504902562"><ele>213.16666666666666</ele><time>2026-04-12T10:15:35.999Z</time></trkpt><trkpt lat="44.68409840584658" lon="7.862352699985261"><ele>213.0</ele><time>2026-04-12T10:15:37.999Z</time></trkpt><trkpt lat="44.684152714764416" lon="7.862256953567696"><ele>213.0</ele><time>2026-04-12T10:15:39.999Z</time></trkpt><trkpt lat="44.68420958171745" lon="7.862163124585346"><ele>213.0</ele><time>2026-04-12T10:15:41.999Z</time></trkpt><trkpt lat="44.68424945897774" lon="7.862078036613396"><ele>213.0</ele><time>2026-04-12T10:15:43.999Z</time></trkpt><trkpt lat="44.684300120874795" lon="7.861988483643086"><ele>213.0</ele><time>2026-04-12T10:15:45.999Z</time></trkpt><trkpt lat="44.684355723994756" lon="7.86190230542507"><ele>213.0</ele><time>2026-04-12T10:15:47.999Z</time></trkpt><trkpt lat="44.68441882422678" lon="7.86183401660315"><ele>213.0</ele><time>2026-04-12T10:15:49.999Z</time></trkpt><trkpt lat="44.68447800170001" lon="7.861765595559512"><ele>213.2</ele><time>2026-04-12T10:15:51.999Z</time></trkpt><trkpt lat="44.68458489995466" lon="7.861796650271375"><ele>213.4</ele><time>2026-04-12T10:15:53.999Z</time></trkpt><trkpt lat="44.68466398271099" lon="7.861760544707788"><ele>213.59999999999997</ele><time>2026-04-12T10:15:55.999Z</time></trkpt><trkpt lat="44.68474398070218" lon="7.861751499311186"><ele>213.79999999999998</ele><time>2026-04-12T10:15:57.999Z</time></trkpt><trkpt lat="44.684833433600254" lon="7.861740591550694"><ele>214.0</ele><time>2026-04-12T10:15:59.999Z</time></trkpt><trkpt lat="44.68492770623342" lon="7.8617268589264615"><ele>213.99999999999997</ele><time>2026-04-12T10:16:02Z</time></trkpt><trkpt lat="44.68501362672525" lon="7.861704603636365"><ele>214.0</ele><time>2026-04-12T10:16:04Z</time></trkpt><trkpt lat="44.68509239561156" lon="7.861677698845247"><ele>214.0</ele><time>2026-04-12T10:16:06Z</time></trkpt><trkpt lat="44.685167181044775" lon="7.861652030614404"><ele>214.0</ele><time>2026-04-12T10:16:08Z</time></trkpt><trkpt lat="44.68524515019609" lon="7.861622491496399"><ele>213.99999999999997</ele><time>2026-04-12T10:16:10Z</time></trkpt><trkpt lat="44.68533020197359" lon="7.861598728373138"><ele>214.0</ele><time>2026-04-12T10:16:12Z</time></trkpt><trkpt lat="44.68541541423925" lon="7.861566713462723"><ele>214.14285714285717</ele><time>2026-04-12T10:16:14Z</time></trkpt><trkpt lat="44.68549826745025" lon="7.861548477276402"><ele>214.28571428571428</ele><time>2026-04-12T10:16:16Z</time></trkpt><trkpt lat="44.68557335558909" lon="7.861531393175598"><ele>214.42857142857144</ele><time>2026-04-12T10:16:18Z</time></trkpt><trkpt lat="44.68563580918082" lon="7.861517249382403"><ele>214.57142857142858</ele><time>2026-04-12T10:16:20Z</time></trkpt><trkpt lat="44.68570253779942" lon="7.861505584227807"><ele>214.71428571428572</ele><time>2026-04-12T10:16:22Z</time></trkpt><trkpt lat="44.68578198098675" lon="7.861495938527835"><ele>214.85714285714286</ele><time>2026-04-12T10:16:24Z</time></trkpt><trkpt lat="44.685856011410955" lon="7.861478286372527"><ele>215.0</ele><time>2026-04-12T10:16:26Z</time></trkpt><trkpt lat="44.685934015372496" lon="7.8614612851203285"><ele>215.0</ele><time>2026-04-12T10:16:28Z</time></trkpt><trkpt lat="44.6860065795459" lon="7.861445063869373"><ele>215.0</ele><time>2026-04-12T10:16:30Z</time></trkpt><trkpt lat="44.686074549179814" lon="7.861431189271691"><ele>215.0</ele><time>2026-04-12T10:16:32Z</time></trkpt><trkpt lat="44.686147472385315" lon="7.861409278897623"><ele>215.0</ele><time>2026-04-12T10:16:34Z</time></trkpt><trkpt lat="44.686224564920984" lon="7.861390768438366"><ele>215.0</ele><time>2026-04-12T10:16:36Z</time></trkpt><trkpt lat="44.68629530690051" lon="7.861363347608127"><ele>215.0</ele><time>2026-04-12T10:16:38Z</time></trkpt><trkpt lat="44.68636481882713" lon="7.861330845567393"><ele>215.0</ele><time>2026-04-12T10:16:40Z</time></trkpt><trkpt lat="44.686435949540076" lon="7.861303890346005"><ele>215.00000000000003</ele><time>2026-04-12T10:16:42Z</time></trkpt><trkpt lat="44.68650884652514" lon="7.861283910782852"><ele>215.0</ele><time>2026-04-12T10:16:44Z</time></trkpt><trkpt lat="44.68657951625128" lon="7.861256210818028"><ele>215.0</ele><time>2026-04-12T10:16:46Z</time></trkpt><trkpt lat="44.686674561150475" lon="7.861230316636309"><ele>215.0</ele><time>2026-04-12T10:16:49Z</time></trkpt><trkpt lat="44.686747300252684" lon="7.861222679392012"><ele>215.00000000000003</ele><time>2026-04-12T10:16:51Z</time></trkpt><trkpt lat="44.68682264714377" lon="7.861204654900257"><ele>215.0</ele><time>2026-04-12T10:16:52.999Z</time></trkpt><trkpt lat="44.6869000647696" lon="7.861184573509109"><ele>215.50000000000003</ele><time>2026-04-12T10:16:54.999Z</time></trkpt><trkpt lat="44.686972014151166" lon="7.861149317213794"><ele>216.0</ele><time>2026-04-12T10:16:56.999Z</time></trkpt><trkpt lat="44.687043104503935" lon="7.861108155758959"><ele>216.5</ele><time>2026-04-12T10:16:58.999Z</time></trkpt><trkpt lat="44.68711354860399" lon="7.861058955615211"><ele>217.0</ele><time>2026-04-12T10:17:00.999Z</time></trkpt><trkpt lat="44.687186248235726" lon="7.861018176896596"><ele>217.50000000000003</ele><time>2026-04-12T10:17:02.999Z</time></trkpt><trkpt lat="44.68725264849361" lon="7.860976646842927"><ele>218.0</ele><time>2026-04-12T10:17:04.999Z</time></trkpt><trkpt lat="44.687320010138194" lon="7.860929152875187"><ele>218.16666666666669</ele><time>2026-04-12T10:17:06.999Z</time></trkpt><trkpt lat="44.68738287085437" lon="7.860891862435321"><ele>218.33333333333334</ele><time>2026-04-12T10:17:08.999Z</time></trkpt><trkpt lat="44.68743881406787" lon="7.860846782137684"><ele>218.5</ele><time>2026-04-12T10:17:10.999Z</time></trkpt><trkpt lat="44.687499281898944" lon="7.860809534493698"><ele>218.66666666666669</ele><time>2026-04-12T10:17:12.999Z</time></trkpt><trkpt lat="44.68758234147002" lon="7.860761499880007"><ele>218.83333333333334</ele><time>2026-04-12T10:17:15.999Z</time></trkpt><trkpt lat="44.68766688910235" lon="7.860713157095564"><ele>219.0</ele><time>2026-04-12T10:17:18.999Z</time></trkpt><trkpt lat="44.687748003609975" lon="7.860661177378248"><ele>220.83333333333334</ele><time>2026-04-12T10:17:21.999Z</time></trkpt><trkpt lat="44.68783005741798" lon="7.860615779047829"><ele>222.66666666666669</ele><time>2026-04-12T10:17:24.999Z</time></trkpt><trkpt lat="44.68789649145186" lon="7.860576138831108"><ele>224.5</ele><time>2026-04-12T10:17:27.999Z</time></trkpt><trkpt lat="44.687968746778715" lon="7.860565382935618"><ele>226.33333333333334</ele><time>2026-04-12T10:17:30.999Z</time></trkpt><trkpt lat="44.68804790411392" lon="7.8605721624288725"><ele>228.16666666666669</ele><time>2026-04-12T10:17:34.999Z</time></trkpt><trkpt lat="44.688118624694496" lon="7.860572383468596"><ele>230.0</ele><time>2026-04-12T10:17:38.999Z</time></trkpt><trkpt lat="44.68819445214184" lon="7.860578624335194"><ele>230.00000000000003</ele><time>2026-04-12T10:17:42.999Z</time></trkpt><trkpt lat="44.68826171972776" lon="7.86058416066341"><ele>230.0</ele><time>2026-04-12T10:17:46.999Z</time></trkpt><trkpt lat="44.68828809175159" lon="7.860397781968891"><ele>230.0</ele><time>2026-04-12T10:17:47.999Z</time></trkpt><trkpt lat="44.688337335748464" lon="7.860333766383583"><ele>230.0</ele><time>2026-04-12T10:17:50.999Z</time></trkpt><trkpt lat="44.688378020592275" lon="7.860259506384604"><ele>230.00000000000003</ele><time>2026-04-12T10:17:53.999Z</time></trkpt><trkpt lat="44.68841469188479" lon="7.860187285109776"><ele>230.0</ele><time>2026-04-12T10:17:56.999Z</time></trkpt><trkpt lat="44.68846031241329" lon="7.860096460191999"><ele>230.28571428571425</ele><time>2026-04-12T10:17:59.999Z</time></trkpt><trkpt lat="44.68847618141736" lon="7.860001127066397"><ele>230.57142857142856</ele><time>2026-04-12T10:18:02.999Z</time></trkpt><trkpt lat="44.68847599839554" lon="7.8598985108251025"><ele>230.85714285714286</ele><time>2026-04-12T10:18:05.999Z</time></trkpt><trkpt lat="44.68846672446212" lon="7.8597829773062315"><ele>231.14285714285714</ele><time>2026-04-12T10:18:10Z</time></trkpt><trkpt lat="44.688465900890534" lon="7.859689168483324"><ele>231.42857142857144</ele><time>2026-04-12T10:18:13Z</time></trkpt><trkpt lat="44.68843688148291" lon="7.859577483510745"><ele>231.71428571428575</ele><time>2026-04-12T10:18:17Z</time></trkpt><trkpt lat="44.68843155341427" lon="7.859485117102839"><ele>232.00000000000003</ele><time>2026-04-12T10:18:20Z</time></trkpt><trkpt lat="44.688391782190074" lon="7.859388058373851"><ele>231.99999999999997</ele><time>2026-04-12T10:18:24Z</time></trkpt><trkpt lat="44.688381069282315" lon="7.85929841020748"><ele>232.0</ele><time>2026-04-12T10:18:27Z</time></trkpt><trkpt lat="44.688356854697616" lon="7.859199995489651"><ele>232.0</ele><time>2026-04-12T10:18:31Z</time></trkpt><trkpt lat="44.68833047331042" lon="7.859086541382531"><ele>232.0</ele><time>2026-04-12T10:18:35Z</time></trkpt><trkpt lat="44.688297940626626" lon="7.858984581948161"><ele>231.99999999999997</ele><time>2026-04-12T10:18:39Z</time></trkpt><trkpt lat="44.68827116341308" lon="7.858874823311493"><ele>232.0</ele><time>2026-04-12T10:18:43Z</time></trkpt><trkpt lat="44.688254826735765" lon="7.858784284194851"><ele>232.83333333333331</ele><time>2026-04-12T10:18:47Z</time></trkpt><trkpt lat="44.688249755314985" lon="7.858687650988868"><ele>233.66666666666666</ele><time>2026-04-12T10:18:50Z</time></trkpt><trkpt lat="44.68823232592776" lon="7.8585582860793455"><ele>234.5</ele><time>2026-04-12T10:18:55Z</time></trkpt><trkpt lat="44.688222109303275" lon="7.858467148227353"><ele>235.33333333333331</ele><time>2026-04-12T10:18:58Z</time></trkpt><trkpt lat="44.68819915174054" lon="7.858358121441181"><ele>236.16666666666666</ele><time>2026-04-12T10:19:01.999Z</time></trkpt><trkpt lat="44.68817754458862" lon="7.858273026042755"><ele>237.0</ele><time>2026-04-12T10:19:04.999Z</time></trkpt><trkpt lat="44.68815306053839" lon="7.858161429851183"><ele>238.1428571428571</ele><time>2026-04-12T10:19:08.999Z</time></trkpt><trkpt lat="44.688127504305754" lon="7.858067836561927"><ele>239.28571428571428</ele><time>2026-04-12T10:19:12.999Z</time></trkpt><trkpt lat="44.68812184787151" lon="7.857978212010335"><ele>240.42857142857142</ele><time>2026-04-12T10:19:16.999Z</time></trkpt><trkpt lat="44.688093081936884" lon="7.857896064701888"><ele>241.57142857142856</ele><time>2026-04-12T10:19:20.999Z</time></trkpt><trkpt lat="44.688086861296014" lon="7.857782279561168"><ele>242.71428571428572</ele><time>2026-04-12T10:19:24.999Z</time></trkpt><trkpt lat="44.68809716729189" lon="7.857666420983614"><ele>243.85714285714286</ele><time>2026-04-12T10:19:28.999Z</time></trkpt><trkpt lat="44.68810274609881" lon="7.857559661193432"><ele>245.0</ele><time>2026-04-12T10:19:33.999Z</time></trkpt><trkpt lat="44.688119211957556" lon="7.85747296679809"><ele>246.14285714285714</ele><time>2026-04-12T10:19:36.999Z</time></trkpt><trkpt lat="44.688112308993254" lon="7.857384144919373"><ele>247.28571428571428</ele><time>2026-04-12T10:19:40.999Z</time></trkpt><trkpt lat="44.688112277595295" lon="7.857282423695346"><ele>248.42857142857144</ele><time>2026-04-12T10:19:44.999Z</time></trkpt><trkpt lat="44.688095869839394" lon="7.857189766750877"><ele>249.57142857142858</ele><time>2026-04-12T10:19:47.999Z</time></trkpt><trkpt lat="44.68811139696252" lon="7.857066663088181"><ele>250.71428571428572</ele><time>2026-04-12T10:19:52.999Z</time></trkpt><trkpt lat="44.68810754281818" lon="7.856973295448849"><ele>251.8571428571429</ele><time>2026-04-12T10:19:56.999Z</time></trkpt><trkpt lat="44.688101603200735" lon="7.856879239193486"><ele>253.00000000000003</ele><time>2026-04-12T10:19:59.999Z</time></trkpt><trkpt lat="44.68809883709018" lon="7.856775478053634"><ele>254.42857142857144</ele><time>2026-04-12T10:20:03.999Z</time></trkpt><trkpt lat="44.68807912833449" lon="7.856686457270493"><ele>255.85714285714286</ele><time>2026-04-12T10:20:07.999Z</time></trkpt><trkpt lat="44.688081811694026" lon="7.8565933555106335"><ele>257.2857142857143</ele><time>2026-04-12T10:20:11.999Z</time></trkpt><trkpt lat="44.68805861590112" lon="7.856508280962238"><ele>258.7142857142857</ele><time>2026-04-12T10:20:15Z</time></trkpt><trkpt lat="44.68802861639795" lon="7.856407716472475"><ele>260.1428571428571</ele><time>2026-04-12T10:20:20Z</time></trkpt><trkpt lat="44.68797963405119" lon="7.856318408750872"><ele>261.57142857142856</ele><time>2026-04-12T10:20:24Z</time></trkpt><trkpt lat="44.6879287572363" lon="7.856211071413865"><ele>263.0</ele><time>2026-04-12T10:20:29Z</time></trkpt><trkpt lat="44.687872189242256" lon="7.856166677830817"><ele>263.0</ele><time>2026-04-12T10:20:33Z</time></trkpt><trkpt lat="44.687841929437646" lon="7.856058562048624"><ele>263.0</ele><time>2026-04-12T10:20:36Z</time></trkpt><trkpt lat="44.68785847336522" lon="7.855964736171545"><ele>263.0</ele><time>2026-04-12T10:20:39Z</time></trkpt><trkpt lat="44.687909589472376" lon="7.8559059409513505"><ele>263.0</ele><time>2026-04-12T10:20:42Z</time></trkpt><trkpt lat="44.687974312722524" lon="7.855876144583206"><ele>263.0</ele><time>2026-04-12T10:20:45Z</time></trkpt><trkpt lat="44.68803181706726" lon="7.855920605418983"><ele>263.0</ele><time>2026-04-12T10:20:49Z</time></trkpt><trkpt lat="44.68809021791407" lon="7.855996765880082"><ele>263.0</ele><time>2026-04-12T10:20:53Z</time></trkpt><trkpt lat="44.688146152750406" lon="7.856059155893776"><ele>263.0</ele><time>2026-04-12T10:20:57Z</time></trkpt><trkpt lat="44.68820905529329" lon="7.856102840593792"><ele>263.0</ele><time>2026-04-12T10:21:01Z</time></trkpt><trkpt lat="44.68827737803256" lon="7.856127205910851"><ele>263.0</ele><time>2026-04-12T10:21:06Z</time></trkpt><trkpt lat="44.68831654860961" lon="7.8560469498287615"><ele>263.0</ele><time>2026-04-12T10:21:08.999Z</time></trkpt><trkpt lat="44.688311240526176" lon="7.855943568460103"><ele>263.0</ele><time>2026-04-12T10:21:12.999Z</time></trkpt><trkpt lat="44.68834180445189" lon="7.855854499867249"><ele>263.0</ele><time>2026-04-12T10:21:16.999Z</time></trkpt><trkpt lat="44.68835651099522" lon="7.855754895972569"><ele>263.0</ele><time>2026-04-12T10:21:20.999Z</time></trkpt><trkpt lat="44.688367803627536" lon="7.855662863572466"><ele>264.0</ele><time>2026-04-12T10:21:24.999Z</time></trkpt><trkpt lat="44.68839332642763" lon="7.8555665152532965"><ele>265.0</ele><time>2026-04-12T10:21:28.999Z</time></trkpt><trkpt lat="44.688447717241694" lon="7.855512020378413"><ele>266.0</ele><time>2026-04-12T10:21:32.999Z</time></trkpt><trkpt lat="44.688496668551224" lon="7.855455630093591"><ele>267.0</ele><time>2026-04-12T10:21:36.999Z</time></trkpt><trkpt lat="44.68856456576708" lon="7.855456386391221"><ele>268.0</ele><time>2026-04-12T10:21:40.999Z</time></trkpt><trkpt lat="44.6886300104657" lon="7.8554607953491"><ele>269.0</ele><time>2026-04-12T10:21:44.999Z</time></trkpt><trkpt lat="44.68869651534807" lon="7.855450269867804"><ele>270.0</ele><time>2026-04-12T10:21:48.999Z</time></trkpt><trkpt lat="44.68879472601376" lon="7.855443311641738"><ele>271.2857142857143</ele><time>2026-04-12T10:21:53.999Z</time></trkpt><trkpt lat="44.68883156774432" lon="7.855345894402608"><ele>272.57142857142856</ele><time>2026-04-12T10:21:57.999Z</time></trkpt><trkpt lat="44.688838342578386" lon="7.855235443040897"><ele>273.85714285714283</ele><time>2026-04-12T10:22:01.999Z</time></trkpt><trkpt lat="44.688805952441015" lon="7.855141480816988"><ele>275.1428571428571</ele><time>2026-04-12T10:22:05.999Z</time></trkpt><trkpt lat="44.688794686898135" lon="7.855045102902608"><ele>276.42857142857144</ele><time>2026-04-12T10:22:10.999Z</time></trkpt><trkpt lat="44.68886461289248" lon="7.855066961789784"><ele>277.71428571428567</ele><time>2026-04-12T10:22:34Z</time></trkpt><trkpt lat="44.68894016872534" lon="7.855078773445737"><ele>279.0</ele><time>2026-04-12T10:22:38Z</time></trkpt><trkpt lat="44.68900272176584" lon="7.855091254952839"><ele>279.0</ele><time>2026-04-12T10:22:41Z</time></trkpt><trkpt lat="44.689079673561885" lon="7.855114016705304"><ele>279.0</ele><time>2026-04-12T10:22:44Z</time></trkpt><trkpt lat="44.689161981618774" lon="7.855141729645858"><ele>279.0</ele><time>2026-04-12T10:22:47Z</time></trkpt><trkpt lat="44.68925593645542" lon="7.855150643703664"><ele>279.0</ele><time>2026-04-12T10:22:50Z</time></trkpt><trkpt lat="44.68934034881539" lon="7.8551581179294905"><ele>279.0</ele><time>2026-04-12T10:22:53Z</time></trkpt><trkpt lat="44.689433634341" lon="7.855174148232812"><ele>279.0</ele><time>2026-04-12T10:22:56Z</time></trkpt><trkpt lat="44.68952482128587" lon="7.8551654725643765"><ele>278.99999999999994</ele><time>2026-04-12T10:22:59Z</time></trkpt><trkpt lat="44.68958978768304" lon="7.855163575290874"><ele>279.0</ele><time>2026-04-12T10:23:01Z</time></trkpt><trkpt lat="44.68968427013803" lon="7.855149035212084"><ele>279.0</ele><time>2026-04-12T10:23:04Z</time></trkpt><trkpt lat="44.68974817029343" lon="7.85515496197062"><ele>279.0</ele><time>2026-04-12T10:23:06Z</time></trkpt><trkpt lat="44.68981048866303" lon="7.855135298635629"><ele>279.0</ele><time>2026-04-12T10:23:08Z</time></trkpt><trkpt lat="44.689875084563276" lon="7.855117539515167"><ele>278.99999999999994</ele><time>2026-04-12T10:23:09.999Z</time></trkpt><trkpt lat="44.6899387585909" lon="7.855106385785638"><ele>279.0</ele><time>2026-04-12T10:23:11.999Z</time></trkpt><trkpt lat="44.69002650166121" lon="7.855074661439692"><ele>279.0</ele><time>2026-04-12T10:23:14.999Z</time></trkpt><trkpt lat="44.69008983990236" lon="7.855057286150385"><ele>279.0</ele><time>2026-04-12T10:23:16.999Z</time></trkpt><trkpt lat="44.6901543988086" lon="7.855028977270404"><ele>279.0</ele><time>2026-04-12T10:23:18.999Z</time></trkpt><trkpt lat="44.690220787019676" lon="7.855013032119892"><ele>279.0</ele><time>2026-04-12T10:23:20.999Z</time></trkpt><trkpt lat="44.690305631448666" lon="7.854970627864774"><ele>279.0</ele><time>2026-04-12T10:23:23.999Z</time></trkpt><trkpt lat="44.69039645821142" lon="7.854920062820788"><ele>279.0</ele><time>2026-04-12T10:23:26.999Z</time></trkpt><trkpt lat="44.69046937228285" lon="7.8548733882761566"><ele>279.1666666666667</ele><time>2026-04-12T10:23:28.999Z</time></trkpt><trkpt lat="44.690542044994494" lon="7.854852664017669"><ele>279.3333333333333</ele><time>2026-04-12T10:23:30.999Z</time></trkpt><trkpt lat="44.6906252276823" lon="7.854830805962647"><ele>279.5</ele><time>2026-04-12T10:23:32.999Z</time></trkpt><trkpt lat="44.6907111337356" lon="7.854835289568847"><ele>279.66666666666663</ele><time>2026-04-12T10:23:34.999Z</time></trkpt><trkpt lat="44.69078485951232" lon="7.854855557362769"><ele>279.8333333333333</ele><time>2026-04-12T10:23:36.999Z</time></trkpt><trkpt lat="44.69085516947604" lon="7.854848293817794"><ele>280.0</ele><time>2026-04-12T10:23:38.999Z</time></trkpt><trkpt lat="44.690930348535716" lon="7.854882909021189"><ele>280.0</ele><time>2026-04-12T10:23:40.999Z</time></trkpt><trkpt lat="44.691007872205205" lon="7.854853972469029"><ele>280.0</ele><time>2026-04-12T10:23:42.999Z</time></trkpt><trkpt lat="44.69109581392963" lon="7.8548681245820395"><ele>280.0</ele><time>2026-04-12T10:23:44.999Z</time></trkpt><trkpt lat="44.69118011795253" lon="7.854835495018836"><ele>280.0</ele><time>2026-04-12T10:23:46.999Z</time></trkpt><trkpt lat="44.69128863498042" lon="7.854829934155142"><ele>280.0</ele><time>2026-04-12T10:23:48.999Z</time></trkpt><trkpt lat="44.69136764551819" lon="7.85482426324131"><ele>280.0</ele><time>2026-04-12T10:23:50.999Z</time></trkpt><trkpt lat="44.69141490655798" lon="7.854902102404923"><ele>280.0</ele><time>2026-04-12T10:23:51.999Z</time></trkpt><trkpt lat="44.691525188304006" lon="7.854916696060456"><ele>280.0</ele><time>2026-04-12T10:23:53.999Z</time></trkpt><trkpt lat="44.691606039604046" lon="7.8549273955077386"><ele>280.0</ele><time>2026-04-12T10:23:55.999Z</time></trkpt><trkpt lat="44.69168178258409" lon="7.854935452325892"><ele>280.0</ele><time>2026-04-12T10:23:57.999Z</time></trkpt><trkpt lat="44.69176300284448" lon="7.854945434140805"><ele>280.0</ele><time>2026-04-12T10:23:59.999Z</time></trkpt><trkpt lat="44.69190152098088" lon="7.854959567118691"><ele>279.8333333333333</ele><time>2026-04-12T10:24:02.999Z</time></trkpt><trkpt lat="44.69198815243737" lon="7.85497740914698"><ele>279.66666666666663</ele><time>2026-04-12T10:24:04.999Z</time></trkpt><trkpt lat="44.69208540371143" lon="7.854988772802739"><ele>279.5</ele><time>2026-04-12T10:24:06.999Z</time></trkpt><trkpt lat="44.692177974195246" lon="7.8549980733169775"><ele>279.3333333333333</ele><time>2026-04-12T10:24:08.999Z</time></trkpt><trkpt lat="44.692245323055445" lon="7.855018945577375"><ele>279.1666666666667</ele><time>2026-04-12T10:24:10.999Z</time></trkpt><trkpt lat="44.69233198429241" lon="7.855069379359641"><ele>279.0</ele><time>2026-04-12T10:24:12.999Z</time></trkpt><trkpt lat="44.6924785678218" lon="7.855047438182775"><ele>279.0</ele><time>2026-04-12T10:24:15.999Z</time></trkpt><trkpt lat="44.69257777939829" lon="7.855045054657176"><ele>279.0</ele><time>2026-04-12T10:24:17.999Z</time></trkpt><trkpt lat="44.6928311961867" lon="7.8550463026521"><ele>279.0</ele><time>2026-04-12T10:24:26Z</time></trkpt><trkpt lat="44.69305871442338" lon="7.85501752294708"><ele>280.0</ele><time>2026-04-12T10:24:31Z</time></trkpt><trkpt lat="44.69327265584232" lon="7.855025294016754"><ele>281.0</ele><time>2026-04-12T10:24:37Z</time></trkpt><trkpt lat="44.69335403373276" lon="7.855043560820213"><ele>282.0</ele><time>2026-04-12T10:24:39Z</time></trkpt><trkpt lat="44.69353387296941" lon="7.855048031673682"><ele>282.25</ele><time>2026-04-12T10:24:43Z</time></trkpt><trkpt lat="44.69361370117602" lon="7.85505797271508"><ele>282.5</ele><time>2026-04-12T10:24:45Z</time></trkpt><trkpt lat="44.693798597060365" lon="7.855004963697907"><ele>282.75</ele><time>2026-04-12T10:24:49Z</time></trkpt><trkpt lat="44.69393064361525" lon="7.855030317605624"><ele>283.0</ele><time>2026-04-12T10:24:51Z</time></trkpt><trkpt lat="44.69401181925667" lon="7.854929384498289"><ele>283.0</ele><time>2026-04-12T10:24:53Z</time></trkpt><trkpt lat="44.6941063275944" lon="7.854934150046156"><ele>283.0</ele><time>2026-04-12T10:24:56Z</time></trkpt><trkpt lat="44.69417531066422" lon="7.854906365380833"><ele>283.0</ele><time>2026-04-12T10:24:58Z</time></trkpt><trkpt lat="44.69427170216703" lon="7.854891398842881"><ele>283.0</ele><time>2026-04-12T10:25:00Z</time></trkpt><trkpt lat="44.69435815027073" lon="7.854876259111072"><ele>283.0</ele><time>2026-04-12T10:25:02Z</time></trkpt><trkpt lat="44.6945060871344" lon="7.854843009414808"><ele>283.4</ele><time>2026-04-12T10:25:05Z</time></trkpt><trkpt lat="44.69458582450468" lon="7.854799444519558"><ele>283.8</ele><time>2026-04-12T10:25:07Z</time></trkpt><trkpt lat="44.69468530854625" lon="7.85477427594688"><ele>284.2</ele><time>2026-04-12T10:25:09Z</time></trkpt><trkpt lat="44.6947547269364" lon="7.854724170993274"><ele>284.6</ele><time>2026-04-12T10:25:11Z</time></trkpt><trkpt lat="44.6948434400928" lon="7.854684132891582"><ele>285.0</ele><time>2026-04-12T10:25:14Z</time></trkpt><trkpt lat="44.694936263402965" lon="7.85465134963279"><ele>285.0</ele><time>2026-04-12T10:25:16Z</time></trkpt><trkpt lat="44.69504154950851" lon="7.854851485945405"><ele>285.0</ele><time>2026-04-12T10:25:21Z</time></trkpt><trkpt lat="44.69506959933258" lon="7.8549484236079214"><ele>285.0</ele><time>2026-04-12T10:25:22.999Z</time></trkpt><trkpt lat="44.695118131474295" lon="7.855046512086805"><ele>285.0</ele><time>2026-04-12T10:25:24.999Z</time></trkpt><trkpt lat="44.6951527271215" lon="7.85516971339001"><ele>285.0</ele><time>2026-04-12T10:25:26.999Z</time></trkpt><trkpt lat="44.695147628994775" lon="7.855293419960565"><ele>285.0</ele><time>2026-04-12T10:25:28.999Z</time></trkpt><trkpt lat="44.69516238817214" lon="7.855407366758998"><ele>285.0</ele><time>2026-04-12T10:25:30.999Z</time></trkpt><trkpt lat="44.69519186242181" lon="7.855529945635815"><ele>285.0</ele><time>2026-04-12T10:25:32.999Z</time></trkpt><trkpt lat="44.69521514422779" lon="7.855649503981764"><ele>285.0</ele><time>2026-04-12T10:25:35.999Z</time></trkpt><trkpt lat="44.69523589491642" lon="7.855756213786705"><ele>285.0</ele><time>2026-04-12T10:25:37.999Z</time></trkpt><trkpt lat="44.69526433774536" lon="7.855847605443678"><ele>285.0</ele><time>2026-04-12T10:25:39.999Z</time></trkpt><trkpt lat="44.69527196312163" lon="7.855938026580055"><ele>285.3333333333333</ele><time>2026-04-12T10:25:41.999Z</time></trkpt><trkpt lat="44.69532029703338" lon="7.856031048218504"><ele>285.6666666666667</ele><time>2026-04-12T10:25:43.999Z</time></trkpt><trkpt lat="44.69534175844953" lon="7.85615833688086"><ele>286.0</ele><time>2026-04-12T10:25:46.999Z</time></trkpt><trkpt lat="44.69537173120373" lon="7.85624054361013"><ele>286.33333333333337</ele><time>2026-04-12T10:25:48.999Z</time></trkpt><trkpt lat="44.69540039865925" lon="7.856332369574179"><ele>286.6666666666667</ele><time>2026-04-12T10:25:50.999Z</time></trkpt><trkpt lat="44.69547262742379" lon="7.856439480265101"><ele>287.0</ele><time>2026-04-12T10:25:53.999Z</time></trkpt><trkpt lat="44.695510640363935" lon="7.856556063299212"><ele>287.0</ele><time>2026-04-12T10:25:56.999Z</time></trkpt><trkpt lat="44.69555317792668" lon="7.856629876361988"><ele>287.0</ele><time>2026-04-12T10:25:58.999Z</time></trkpt><trkpt lat="44.69558792626322" lon="7.856735091551477"><ele>287.0</ele><time>2026-04-12T10:26:01.999Z</time></trkpt><trkpt lat="44.69577936877213" lon="7.856870108385414"><ele>287.0</ele><time>2026-04-12T10:26:09.999Z</time></trkpt><trkpt lat="44.69586136805876" lon="7.856820862739447"><ele>287.0</ele><time>2026-04-12T10:26:12.999Z</time></trkpt><trkpt lat="44.695929765293414" lon="7.856781789732074"><ele>287.0</ele><time>2026-04-12T10:26:15.999Z</time></trkpt><trkpt lat="44.69600865958555" lon="7.856736552031854"><ele>287.0</ele><time>2026-04-12T10:26:18.999Z</time></trkpt><trkpt lat="44.69608456405751" lon="7.8566896084431095"><ele>287.0</ele><time>2026-04-12T10:26:20.999Z</time></trkpt><trkpt lat="44.6961439154811" lon="7.8566434232374815"><ele>287.0</ele><time>2026-04-12T10:26:22.999Z</time></trkpt><trkpt lat="44.696214032885024" lon="7.856584054801366"><ele>287.0</ele><time>2026-04-12T10:26:25.999Z</time></trkpt><trkpt lat="44.69627955141223" lon="7.856528580143811"><ele>287.6666666666667</ele><time>2026-04-12T10:26:27.999Z</time></trkpt><trkpt lat="44.69634757071638" lon="7.856470987489395"><ele>288.33333333333337</ele><time>2026-04-12T10:26:29.999Z</time></trkpt><trkpt lat="44.696478420458504" lon="7.856436165804554"><ele>289.0</ele><time>2026-04-12T10:26:33Z</time></trkpt><trkpt lat="44.69653868369542" lon="7.856346180073077"><ele>289.6666666666667</ele><time>2026-04-12T10:26:36Z</time></trkpt><trkpt lat="44.69658257068789" lon="7.856276241585936"><ele>290.3333333333333</ele><time>2026-04-12T10:26:40Z</time></trkpt><trkpt lat="44.69662983613212" lon="7.856200914121489"><ele>291.0</ele><time>2026-04-12T10:26:44Z</time></trkpt><trkpt lat="44.69667678840649" lon="7.856126085435169"><ele>291.0</ele><time>2026-04-12T10:26:46Z</time></trkpt><trkpt lat="44.69673596821013" lon="7.856064756498575"><ele>291.0</ele><time>2026-04-12T10:26:48Z</time></trkpt><trkpt lat="44.6967887703567" lon="7.855996653713348"><ele>291.0</ele><time>2026-04-12T10:26:50Z</time></trkpt><trkpt lat="44.69685591416346" lon="7.855907318950827"><ele>291.0</ele><time>2026-04-12T10:26:53Z</time></trkpt><trkpt lat="44.696896214198034" lon="7.855823009409394"><ele>291.0</ele><time>2026-04-12T10:26:55Z</time></trkpt><trkpt lat="44.69694758709193" lon="7.855757467166419"><ele>291.0</ele><time>2026-04-12T10:26:57Z</time></trkpt><trkpt lat="44.697002905109294" lon="7.85568613142693"><ele>291.2857142857143</ele><time>2026-04-12T10:26:59Z</time></trkpt><trkpt lat="44.69705594714876" lon="7.855622328435374"><ele>291.57142857142856</ele><time>2026-04-12T10:27:01Z</time></trkpt><trkpt lat="44.697107088277804" lon="7.855555766353718"><ele>291.85714285714283</ele><time>2026-04-12T10:27:03Z</time></trkpt><trkpt lat="44.69716118511976" lon="7.855485521892384"><ele>292.1428571428571</ele><time>2026-04-12T10:27:05Z</time></trkpt><trkpt lat="44.69721752433682" lon="7.855408626364502"><ele>292.42857142857144</ele><time>2026-04-12T10:27:07Z</time></trkpt><trkpt lat="44.697276987986356" lon="7.855338590041221"><ele>292.71428571428567</ele><time>2026-04-12T10:27:09Z</time></trkpt><trkpt lat="44.69732955623432" lon="7.855261672337387"><ele>293.0</ele><time>2026-04-12T10:27:11Z</time></trkpt><trkpt lat="44.697384929046876" lon="7.855190333198102"><ele>292.4285714285714</ele><time>2026-04-12T10:27:13Z</time></trkpt><trkpt lat="44.69743452313657" lon="7.85511660717078"><ele>291.85714285714283</ele><time>2026-04-12T10:27:15Z</time></trkpt><trkpt lat="44.69749461643329" lon="7.8550692288471"><ele>291.2857142857143</ele><time>2026-04-12T10:27:17Z</time></trkpt><trkpt lat="44.69753691664428" lon="7.8549836522559096"><ele>290.71428571428567</ele><time>2026-04-12T10:27:19Z</time></trkpt><trkpt lat="44.697590008521765" lon="7.854920422022016"><ele>290.1428571428571</ele><time>2026-04-12T10:27:20.999Z</time></trkpt><trkpt lat="44.69766259793607" lon="7.854851842462926"><ele>289.57142857142856</ele><time>2026-04-12T10:27:23.999Z</time></trkpt><trkpt lat="44.69771017491296" lon="7.854792435754536"><ele>289.0</ele><time>2026-04-12T10:27:25.999Z</time></trkpt><trkpt lat="44.697771992064915" lon="7.854695321332834"><ele>289.0</ele><time>2026-04-12T10:27:28.999Z</time></trkpt><trkpt lat="44.697838051887715" lon="7.8546669854934485"><ele>289.0</ele><time>2026-04-12T10:27:31.999Z</time></trkpt><trkpt lat="44.69778179066065" lon="7.854515517140508"><ele>289.0</ele><time>2026-04-12T10:27:35.999Z</time></trkpt><trkpt lat="44.697734420820524" lon="7.854423731481574"><ele>289.0</ele><time>2026-04-12T10:27:38.999Z</time></trkpt><trkpt lat="44.697703263376134" lon="7.854300492607261"><ele>289.0</ele><time>2026-04-12T10:27:41.999Z</time></trkpt><trkpt lat="44.6976532151771" lon="7.854211080328856"><ele>289.0</ele><time>2026-04-12T10:27:43.999Z</time></trkpt><trkpt lat="44.697653005435285" lon="7.854078400885089"><ele>289.2</ele><time>2026-04-12T10:27:45.999Z</time></trkpt><trkpt lat="44.69760954407798" lon="7.853941050734778"><ele>289.4</ele><time>2026-04-12T10:27:47.999Z</time></trkpt><trkpt lat="44.69756299411451" lon="7.853791160977132"><ele>289.6</ele><time>2026-04-12T10:27:49.999Z</time></trkpt><trkpt lat="44.697532629471084" lon="7.85371228209613"><ele>289.8</ele><time>2026-04-12T10:27:50.999Z</time></trkpt><trkpt lat="44.69747453838098" lon="7.853561377577113"><ele>290.0</ele><time>2026-04-12T10:27:52.999Z</time></trkpt><trkpt lat="44.697415564623135" lon="7.853406513986291"><ele>290.0</ele><time>2026-04-12T10:27:54.999Z</time></trkpt><trkpt lat="44.6973516890037" lon="7.853284611530948"><ele>290.0</ele><time>2026-04-12T10:27:56.999Z</time></trkpt><trkpt lat="44.697333934637086" lon="7.85318655115285"><ele>290.0</ele><time>2026-04-12T10:27:58.999Z</time></trkpt><trkpt lat="44.69746692768064" lon="7.853083952599151"><ele>290.0</ele><time>2026-04-12T10:28:03.999Z</time></trkpt><trkpt lat="44.6975356864387" lon="7.853027646383912"><ele>290.0</ele><time>2026-04-12T10:28:05.999Z</time></trkpt><trkpt lat="44.697600580674994" lon="7.852961113098224"><ele>290.0</ele><time>2026-04-12T10:28:07.999Z</time></trkpt><trkpt lat="44.69767308852788" lon="7.8529229539325085"><ele>290.0</ele><time>2026-04-12T10:28:09.999Z</time></trkpt><trkpt lat="44.69773343712416" lon="7.852896189195063"><ele>290.0</ele><time>2026-04-12T10:28:11.999Z</time></trkpt><trkpt lat="44.69779925668341" lon="7.852854713325827"><ele>290.0</ele><time>2026-04-12T10:28:13.999Z</time></trkpt><trkpt lat="44.69787762273725" lon="7.852811733040276"><ele>290.0</ele><time>2026-04-12T10:28:15.999Z</time></trkpt><trkpt lat="44.697946543733096" lon="7.85270574662993"><ele>290.0</ele><time>2026-04-12T10:28:17.999Z</time></trkpt><trkpt lat="44.69801094468951" lon="7.852624445705472"><ele>289.6666666666667</ele><time>2026-04-12T10:28:19.999Z</time></trkpt><trkpt lat="44.69804422962654" lon="7.85251448451992"><ele>289.33333333333337</ele><time>2026-04-12T10:28:21.999Z</time></trkpt><trkpt lat="44.698098857243316" lon="7.852429454813399"><ele>289.0</ele><time>2026-04-12T10:28:23.999Z</time></trkpt><trkpt lat="44.69812927493374" lon="7.852323470229959"><ele>288.6666666666667</ele><time>2026-04-12T10:28:25.999Z</time></trkpt><trkpt lat="44.69814576266194" lon="7.852221375811881"><ele>288.3333333333333</ele><time>2026-04-12T10:28:27.999Z</time></trkpt><trkpt lat="44.698200146163465" lon="7.852125323969482"><ele>288.0</ele><time>2026-04-12T10:28:30.999Z</time></trkpt><trkpt lat="44.698233170789685" lon="7.852049509219988"><ele>288.0</ele><time>2026-04-12T10:28:32.999Z</time></trkpt><trkpt lat="44.698263978775415" lon="7.851944142754454"><ele>288.0</ele><time>2026-04-12T10:28:34.999Z</time></trkpt><trkpt lat="44.698301072424705" lon="7.8518321526064545"><ele>288.0</ele><time>2026-04-12T10:28:37Z</time></trkpt><trkpt lat="44.69834469441907" lon="7.851733375235114"><ele>288.0</ele><time>2026-04-12T10:28:39Z</time></trkpt><trkpt lat="44.698387562978745" lon="7.851616471869061"><ele>288.0</ele><time>2026-04-12T10:28:41Z</time></trkpt><trkpt lat="44.69843696154545" lon="7.851484809369009"><ele>288.0</ele><time>2026-04-12T10:28:43Z</time></trkpt><trkpt lat="44.69848191091468" lon="7.851358355668394"><ele>288.0</ele><time>2026-04-12T10:28:45Z</time></trkpt><trkpt lat="44.69852771776354" lon="7.851225044741746"><ele>288.0</ele><time>2026-04-12T10:28:47Z</time></trkpt><trkpt lat="44.698559874759745" lon="7.851084059425304"><ele>288.0</ele><time>2026-04-12T10:28:49Z</time></trkpt><trkpt lat="44.698616872936164" lon="7.850967883001394"><ele>288.0</ele><time>2026-04-12T10:28:51Z</time></trkpt><trkpt lat="44.69865484942962" lon="7.85085326452634"><ele>287.6</ele><time>2026-04-12T10:28:53Z</time></trkpt><trkpt lat="44.69870262880856" lon="7.850729616287694"><ele>287.20000000000005</ele><time>2026-04-12T10:28:55Z</time></trkpt><trkpt lat="44.69874076420858" lon="7.850601984213324"><ele>286.8</ele><time>2026-04-12T10:28:57Z</time></trkpt><trkpt lat="44.69880323891094" lon="7.850482069318725"><ele>286.40000000000003</ele><time>2026-04-12T10:28:59Z</time></trkpt><trkpt lat="44.69884720163264" lon="7.850378103956342"><ele>286.0</ele><time>2026-04-12T10:29:01Z</time></trkpt><trkpt lat="44.69889920145902" lon="7.850298743189114"><ele>286.0</ele><time>2026-04-12T10:29:03Z</time></trkpt><trkpt lat="44.69893490292883" lon="7.850201422701947"><ele>286.0</ele><time>2026-04-12T10:29:05Z</time></trkpt><trkpt lat="44.69898480548467" lon="7.850123576360355"><ele>286.0</ele><time>2026-04-12T10:29:07Z</time></trkpt><trkpt lat="44.69903829484295" lon="7.850042234396587"><ele>286.0</ele><time>2026-04-12T10:29:09Z</time></trkpt><trkpt lat="44.699103756273395" lon="7.8499669077085725"><ele>286.0</ele><time>2026-04-12T10:29:11Z</time></trkpt><trkpt lat="44.6991776446277" lon="7.849891319663681"><ele>286.0</ele><time>2026-04-12T10:29:13Z</time></trkpt><trkpt lat="44.69925399831952" lon="7.849823894431991"><ele>285.8333333333333</ele><time>2026-04-12T10:29:15Z</time></trkpt><trkpt lat="44.699316483199105" lon="7.849739692747244"><ele>285.66666666666663</ele><time>2026-04-12T10:29:17Z</time></trkpt><trkpt lat="44.69937535799" lon="7.84964618572093"><ele>285.5</ele><time>2026-04-12T10:29:19Z</time></trkpt><trkpt lat="44.69942964737876" lon="7.849566027485612"><ele>285.3333333333333</ele><time>2026-04-12T10:29:21Z</time></trkpt><trkpt lat="44.699488709407106" lon="7.84949384232594"><ele>285.1666666666667</ele><time>2026-04-12T10:29:23Z</time></trkpt><trkpt lat="44.69953669117162" lon="7.84940535868582"><ele>285.0</ele><time>2026-04-12T10:29:25Z</time></trkpt><trkpt lat="44.69959815971132" lon="7.849311291156773"><ele>285.1666666666667</ele><time>2026-04-12T10:29:27Z</time></trkpt><trkpt lat="44.69965910152788" lon="7.849205555497857"><ele>285.3333333333333</ele><time>2026-04-12T10:29:28.999Z</time></trkpt><trkpt lat="44.69972362351192" lon="7.849111115183927"><ele>285.5</ele><time>2026-04-12T10:29:30.999Z</time></trkpt><trkpt lat="44.69977618546529" lon="7.849024956089942"><ele>285.66666666666663</ele><time>2026-04-12T10:29:32.999Z</time></trkpt><trkpt lat="44.69982599676857" lon="7.848944806483357"><ele>285.8333333333333</ele><time>2026-04-12T10:29:34.999Z</time></trkpt><trkpt lat="44.69987111015388" lon="7.848843172195225"><ele>286.0</ele><time>2026-04-12T10:29:36.999Z</time></trkpt><trkpt lat="44.69994294941451" lon="7.848796953718527"><ele>286.0</ele><time>2026-04-12T10:29:38.999Z</time></trkpt><trkpt lat="44.69999156839639" lon="7.8487279527576534"><ele>286.0</ele><time>2026-04-12T10:29:40.999Z</time></trkpt><trkpt lat="44.70005051008733" lon="7.848676766992754"><ele>286.0</ele><time>2026-04-12T10:29:42.999Z</time></trkpt><trkpt lat="44.7001364976784" lon="7.848630052699453"><ele>286.0</ele><time>2026-04-12T10:29:45.999Z</time></trkpt><trkpt lat="44.700201788181985" lon="7.848579125459495"><ele>286.0</ele><time>2026-04-12T10:29:47.999Z</time></trkpt><trkpt lat="44.7002596037298" lon="7.848515516984243"><ele>286.0</ele><time>2026-04-12T10:29:49.999Z</time></trkpt><trkpt lat="44.70033780848019" lon="7.848474898150206"><ele>286.0</ele><time>2026-04-12T10:29:51.999Z</time></trkpt><trkpt lat="44.70041517635613" lon="7.848415453748104"><ele>286.0</ele><time>2026-04-12T10:29:53.999Z</time></trkpt><trkpt lat="44.70060561473103" lon="7.848299896219062"><ele>286.0</ele><time>2026-04-12T10:29:58.999Z</time></trkpt><trkpt lat="44.70066374550754" lon="7.848259071064441"><ele>286.0</ele><time>2026-04-12T10:30:00.999Z</time></trkpt><trkpt lat="44.700737423363606" lon="7.848214901607496"><ele>286.0</ele><time>2026-04-12T10:30:02.999Z</time></trkpt><trkpt lat="44.70081788313831" lon="7.8482091599275385"><ele>286.0</ele><time>2026-04-12T10:30:04.999Z</time></trkpt><trkpt lat="44.70088856455722" lon="7.848153828691804"><ele>286.0</ele><time>2026-04-12T10:30:06.999Z</time></trkpt><trkpt lat="44.701049034317464" lon="7.848147125872368"><ele>286.0</ele><time>2026-04-12T10:30:10.999Z</time></trkpt><trkpt lat="44.701132183619485" lon="7.848127394118624"><ele>286.0</ele><time>2026-04-12T10:30:12.999Z</time></trkpt><trkpt lat="44.701213104840015" lon="7.848089743018224"><ele>286.0</ele><time>2026-04-12T10:30:14.999Z</time></trkpt><trkpt lat="44.70130026299" lon="7.848066802577041"><ele>286.8333333333333</ele><time>2026-04-12T10:30:16.999Z</time></trkpt><trkpt lat="44.701368329237994" lon="7.848036730505933"><ele>287.66666666666663</ele><time>2026-04-12T10:30:18.999Z</time></trkpt><trkpt lat="44.70145217739914" lon="7.8479995096738255"><ele>288.5</ele><time>2026-04-12T10:30:20.999Z</time></trkpt><trkpt lat="44.701519205172495" lon="7.847942055235744"><ele>289.3333333333333</ele><time>2026-04-12T10:30:22.999Z</time></trkpt><trkpt lat="44.70158452970388" lon="7.84786461460301"><ele>290.1666666666667</ele><time>2026-04-12T10:30:24.999Z</time></trkpt><trkpt lat="44.70165069962223" lon="7.847813324068787"><ele>291.0</ele><time>2026-04-12T10:30:26.999Z</time></trkpt><trkpt lat="44.70171452539963" lon="7.847741106808979"><ele>291.0</ele><time>2026-04-12T10:30:28.999Z</time></trkpt><trkpt lat="44.701774452171605" lon="7.8476724335165615"><ele>291.0</ele><time>2026-04-12T10:30:30.999Z</time></trkpt><trkpt lat="44.70182568413505" lon="7.84759909167741"><ele>291.0</ele><time>2026-04-12T10:30:32.999Z</time></trkpt><trkpt lat="44.701884848992506" lon="7.847547844827651"><ele>291.0</ele><time>2026-04-12T10:30:34.999Z</time></trkpt><trkpt lat="44.70193842737695" lon="7.84748154934724"><ele>291.0</ele><time>2026-04-12T10:30:36.999Z</time></trkpt><trkpt lat="44.70196619748016" lon="7.847363082529173"><ele>291.0</ele><time>2026-04-12T10:30:39.999Z</time></trkpt><trkpt lat="44.70197574420504" lon="7.847270704815151"><ele>291.0</ele><time>2026-04-12T10:30:41.999Z</time></trkpt><trkpt lat="44.702029872163905" lon="7.847193863030606"><ele>291.0</ele><time>2026-04-12T10:30:44Z</time></trkpt><trkpt lat="44.70209246836128" lon="7.847131314706497"><ele>291.0</ele><time>2026-04-12T10:30:46Z</time></trkpt><trkpt lat="44.702165644396665" lon="7.847058799020032"><ele>291.0</ele><time>2026-04-12T10:30:49Z</time></trkpt><trkpt lat="44.7022245215469" lon="7.846993290909469"><ele>291.0</ele><time>2026-04-12T10:30:51Z</time></trkpt><trkpt lat="44.702290240084004" lon="7.846939558820341"><ele>291.0</ele><time>2026-04-12T10:30:53Z</time></trkpt><trkpt lat="44.70235476980448" lon="7.846880714929004"><ele>291.0</ele><time>2026-04-12T10:30:55Z</time></trkpt><trkpt lat="44.702423088031644" lon="7.846819283313287"><ele>290.8333333333333</ele><time>2026-04-12T10:30:57Z</time></trkpt><trkpt lat="44.702483934876746" lon="7.846754175326011"><ele>290.6666666666667</ele><time>2026-04-12T10:30:59Z</time></trkpt><trkpt lat="44.702550499500376" lon="7.846681492431603"><ele>290.5</ele><time>2026-04-12T10:31:01Z</time></trkpt><trkpt lat="44.70260504211415" lon="7.846617698101076"><ele>290.33333333333337</ele><time>2026-04-12T10:31:03Z</time></trkpt><trkpt lat="44.7026968621367" lon="7.846539094244884"><ele>290.1666666666667</ele><time>2026-04-12T10:31:05Z</time></trkpt><trkpt lat="44.70277321729404" lon="7.846461822461917"><ele>290.0</ele><time>2026-04-12T10:31:07Z</time></trkpt><trkpt lat="44.70285868897458" lon="7.846388968261822"><ele>290.0</ele><time>2026-04-12T10:31:09Z</time></trkpt><trkpt lat="44.70293783845501" lon="7.846304747264284"><ele>290.0</ele><time>2026-04-12T10:31:11Z</time></trkpt><trkpt lat="44.703020128958144" lon="7.8462267695115635"><ele>290.0</ele><time>2026-04-12T10:31:13Z</time></trkpt><trkpt lat="44.703104577717475" lon="7.8461419052581665"><ele>290.0</ele><time>2026-04-12T10:31:15Z</time></trkpt><trkpt lat="44.70317889001562" lon="7.846075974461828"><ele>290.0</ele><time>2026-04-12T10:31:17Z</time></trkpt><trkpt lat="44.703259214850554" lon="7.846003083195779"><ele>289.8</ele><time>2026-04-12T10:31:19Z</time></trkpt><trkpt lat="44.703326550348606" lon="7.845929689403996"><ele>289.6</ele><time>2026-04-12T10:31:21Z</time></trkpt><trkpt lat="44.70341433364483" lon="7.845849688690748"><ele>289.4</ele><time>2026-04-12T10:31:23Z</time></trkpt><trkpt lat="44.70348804806009" lon="7.845780282590128"><ele>289.2</ele><time>2026-04-12T10:31:25Z</time></trkpt><trkpt lat="44.70355977045108" lon="7.845718277666203"><ele>289.0</ele><time>2026-04-12T10:31:27Z</time></trkpt><trkpt lat="44.7036368309846" lon="7.845649037758961"><ele>289.0</ele><time>2026-04-12T10:31:29Z</time></trkpt><trkpt lat="44.703711445849386" lon="7.8455862027438314"><ele>289.0</ele><time>2026-04-12T10:31:31Z</time></trkpt><trkpt lat="44.703780333165504" lon="7.845507138410637"><ele>289.0</ele><time>2026-04-12T10:31:33Z</time></trkpt><trkpt lat="44.70385959672585" lon="7.845434222527757"><ele>289.0</ele><time>2026-04-12T10:31:35Z</time></trkpt><trkpt lat="44.70393494720438" lon="7.845358587916406"><ele>289.0</ele><time>2026-04-12T10:31:36.999Z</time></trkpt><trkpt lat="44.704017230279995" lon="7.845284963465383"><ele>289.0</ele><time>2026-04-12T10:31:38.999Z</time></trkpt><trkpt lat="44.704098702763986" lon="7.84521271234747"><ele>289.0</ele><time>2026-04-12T10:31:40.999Z</time></trkpt><trkpt lat="44.704173087135025" lon="7.845138692853215"><ele>289.0</ele><time>2026-04-12T10:31:42.999Z</time></trkpt><trkpt lat="44.70425304804632" lon="7.845061880124232"><ele>289.0</ele><time>2026-04-12T10:31:44.999Z</time></trkpt><trkpt lat="44.70433534777565" lon="7.844987084128579"><ele>289.0</ele><time>2026-04-12T10:31:46.999Z</time></trkpt><trkpt lat="44.704416123095356" lon="7.844906258918295"><ele>289.16666666666663</ele><time>2026-04-12T10:31:48.999Z</time></trkpt><trkpt lat="44.704495046401966" lon="7.8448378136900025"><ele>289.3333333333333</ele><time>2026-04-12T10:31:50.999Z</time></trkpt><trkpt lat="44.704565665528655" lon="7.84476791598507"><ele>289.5</ele><time>2026-04-12T10:31:52.999Z</time></trkpt><trkpt lat="44.704639126351886" lon="7.844701465580995"><ele>289.6666666666667</ele><time>2026-04-12T10:31:54.999Z</time></trkpt><trkpt lat="44.70470668132616" lon="7.84462700266599"><ele>289.83333333333337</ele><time>2026-04-12T10:31:56.999Z</time></trkpt><trkpt lat="44.704780314640125" lon="7.844553615816488"><ele>290.0</ele><time>2026-04-12T10:31:58.999Z</time></trkpt><trkpt lat="44.70486484675902" lon="7.844483171920684"><ele>290.0</ele><time>2026-04-12T10:32:00.999Z</time></trkpt><trkpt lat="44.704938553989905" lon="7.8444135878424355"><ele>290.0</ele><time>2026-04-12T10:32:02.999Z</time></trkpt><trkpt lat="44.70500333247847" lon="7.844343528512113"><ele>290.0</ele><time>2026-04-12T10:32:04.999Z</time></trkpt><trkpt lat="44.705070174992706" lon="7.8442760836955765"><ele>290.0</ele><time>2026-04-12T10:32:06.999Z</time></trkpt><trkpt lat="44.70513464893685" lon="7.8442145755836385"><ele>290.0</ele><time>2026-04-12T10:32:08.999Z</time></trkpt><trkpt lat="44.7052011162453" lon="7.844152071073956"><ele>290.0</ele><time>2026-04-12T10:32:10.999Z</time></trkpt><trkpt lat="44.70532441380203" lon="7.84419305727275"><ele>289.6666666666667</ele><time>2026-04-12T10:32:12.999Z</time></trkpt><trkpt lat="44.705398537059956" lon="7.844122025036065"><ele>289.33333333333337</ele><time>2026-04-12T10:32:14.999Z</time></trkpt><trkpt lat="44.70547170787289" lon="7.844051905537349"><ele>289.0</ele><time>2026-04-12T10:32:16.999Z</time></trkpt><trkpt lat="44.70554418532194" lon="7.843982451867253"><ele>288.6666666666667</ele><time>2026-04-12T10:32:18.999Z</time></trkpt><trkpt lat="44.705619808576415" lon="7.843910610876139"><ele>288.3333333333333</ele><time>2026-04-12T10:32:20.999Z</time></trkpt><trkpt lat="44.70569181298117" lon="7.843841986962069"><ele>288.0</ele><time>2026-04-12T10:32:22.999Z</time></trkpt><trkpt lat="44.70577375641252" lon="7.8437638974612005"><ele>288.0</ele><time>2026-04-12T10:32:24.999Z</time></trkpt><trkpt lat="44.705858866448544" lon="7.84368304253153"><ele>288.0</ele><time>2026-04-12T10:32:26.999Z</time></trkpt><trkpt lat="44.70593885309438" lon="7.843606621756471"><ele>288.0</ele><time>2026-04-12T10:32:28.999Z</time></trkpt><trkpt lat="44.70601993888515" lon="7.843529152321709"><ele>288.0</ele><time>2026-04-12T10:32:30.999Z</time></trkpt><trkpt lat="44.70610474855695" lon="7.843448290591236"><ele>288.0</ele><time>2026-04-12T10:32:32.999Z</time></trkpt><trkpt lat="44.70618786954166" lon="7.843369312618006"><ele>288.2</ele><time>2026-04-12T10:32:34.999Z</time></trkpt><trkpt lat="44.70626669524849" lon="7.843293816566046"><ele>288.4</ele><time>2026-04-12T10:32:36.999Z</time></trkpt><trkpt lat="44.70634497366286" lon="7.843219038360861"><ele>288.59999999999997</ele><time>2026-04-12T10:32:38.999Z</time></trkpt><trkpt lat="44.70642573680049" lon="7.84314188353434"><ele>288.8</ele><time>2026-04-12T10:32:40.999Z</time></trkpt><trkpt lat="44.70651150928325" lon="7.843060445201701"><ele>289.0</ele><time>2026-04-12T10:32:42.999Z</time></trkpt><trkpt lat="44.70659653706889" lon="7.842979451876279"><ele>289.0</ele><time>2026-04-12T10:32:44.999Z</time></trkpt><trkpt lat="44.706680662555065" lon="7.842899099660996"><ele>289.0</ele><time>2026-04-12T10:32:46.999Z</time></trkpt><trkpt lat="44.70675505706327" lon="7.842828003157854"><ele>289.0</ele><time>2026-04-12T10:32:49Z</time></trkpt><trkpt lat="44.70682715555037" lon="7.842759100624145"><ele>289.0</ele><time>2026-04-12T10:32:51Z</time></trkpt><trkpt lat="44.70690323378454" lon="7.842686394742549"><ele>289.0</ele><time>2026-04-12T10:32:53Z</time></trkpt><trkpt lat="44.706977123984" lon="7.842615780021701"><ele>288.8</ele><time>2026-04-12T10:32:55Z</time></trkpt><trkpt lat="44.707059758259206" lon="7.8425368086570435"><ele>288.59999999999997</ele><time>2026-04-12T10:32:57Z</time></trkpt><trkpt lat="44.70713749425915" lon="7.842462518556144"><ele>288.4</ele><time>2026-04-12T10:32:59Z</time></trkpt><trkpt lat="44.70721080739205" lon="7.842392455209175"><ele>288.2</ele><time>2026-04-12T10:33:01Z</time></trkpt><trkpt lat="44.70729206979604" lon="7.842314791278921"><ele>288.0</ele><time>2026-04-12T10:33:03Z</time></trkpt><trkpt lat="44.707374437693574" lon="7.842236061966296"><ele>288.0</ele><time>2026-04-12T10:33:05Z</time></trkpt><trkpt lat="44.70746170758733" lon="7.842152946600948"><ele>288.0</ele><time>2026-04-12T10:33:07Z</time></trkpt><trkpt lat="44.70754790799938" lon="7.842070849861066"><ele>288.0</ele><time>2026-04-12T10:33:09Z</time></trkpt><trkpt lat="44.70762704608633" lon="7.841995479276388"><ele>288.0</ele><time>2026-04-12T10:33:11Z</time></trkpt><trkpt lat="44.70770580545784" lon="7.841920466364074"><ele>288.0</ele><time>2026-04-12T10:33:13Z</time></trkpt><trkpt lat="44.707784790088816" lon="7.841844952073759"><ele>288.2</ele><time>2026-04-12T10:33:15Z</time></trkpt><trkpt lat="44.707868787679566" lon="7.841765251273927"><ele>288.4</ele><time>2026-04-12T10:33:17Z</time></trkpt><trkpt lat="44.70795549931881" lon="7.841682708054709"><ele>288.59999999999997</ele><time>2026-04-12T10:33:19Z</time></trkpt><trkpt lat="44.70803563718682" lon="7.841607043828729"><ele>288.8</ele><time>2026-04-12T10:33:21Z</time></trkpt><trkpt lat="44.70810548020498" lon="7.841540759321401"><ele>289.0</ele><time>2026-04-12T10:33:23Z</time></trkpt><trkpt lat="44.70816869853436" lon="7.84147990879797"><ele>289.0</ele><time>2026-04-12T10:33:25Z</time></trkpt><trkpt lat="44.708237662766116" lon="7.841413207771575"><ele>289.0</ele><time>2026-04-12T10:33:28Z</time></trkpt><trkpt lat="44.70831084524066" lon="7.841341975194564"><ele>289.0</ele><time>2026-04-12T10:33:30Z</time></trkpt><trkpt lat="44.7083791080782" lon="7.841275760106675"><ele>289.0</ele><time>2026-04-12T10:33:32Z</time></trkpt><trkpt lat="44.70845244028641" lon="7.841203402976607"><ele>289.0</ele><time>2026-04-12T10:33:34Z</time></trkpt><trkpt lat="44.70850561004974" lon="7.841151384218833"><ele>289.0</ele><time>2026-04-12T10:33:36Z</time></trkpt><trkpt lat="44.708572852896125" lon="7.84108084161425"><ele>288.8</ele><time>2026-04-12T10:33:39Z</time></trkpt><trkpt lat="44.70862383794012" lon="7.841020938926301"><ele>288.59999999999997</ele><time>2026-04-12T10:33:41Z</time></trkpt><trkpt lat="44.70867353251569" lon="7.840962553231198"><ele>288.4</ele><time>2026-04-12T10:33:42.999Z</time></trkpt><trkpt lat="44.70871017839404" lon="7.840889695894506"><ele>288.2</ele><time>2026-04-12T10:33:44.999Z</time></trkpt><trkpt lat="44.70859149126348" lon="7.840589826219375"><ele>288.0</ele><time>2026-04-12T10:33:47.999Z</time></trkpt><trkpt lat="44.708538705756744" lon="7.840458105566247"><ele>287.6</ele><time>2026-04-12T10:33:49.999Z</time></trkpt><trkpt lat="44.7084820547492" lon="7.840323428290803"><ele>287.20000000000005</ele><time>2026-04-12T10:33:51.999Z</time></trkpt><trkpt lat="44.708422987698405" lon="7.84019207881087"><ele>286.8</ele><time>2026-04-12T10:33:53.999Z</time></trkpt><trkpt lat="44.70836593692599" lon="7.840066262448563"><ele>286.40000000000003</ele><time>2026-04-12T10:33:55.999Z</time></trkpt><trkpt lat="44.70832789597242" lon="7.8399288602815975"><ele>286.0</ele><time>2026-04-12T10:33:57.999Z</time></trkpt><trkpt lat="44.708266852278975" lon="7.8397881656555475"><ele>286.0</ele><time>2026-04-12T10:33:59.999Z</time></trkpt><trkpt lat="44.70821705961979" lon="7.83965070989381"><ele>286.0</ele><time>2026-04-12T10:34:01.999Z</time></trkpt><trkpt lat="44.70816841221092" lon="7.83950912233178"><ele>286.0</ele><time>2026-04-12T10:34:03.999Z</time></trkpt><trkpt lat="44.70811903433745" lon="7.839359338369072"><ele>286.0</ele><time>2026-04-12T10:34:05.999Z</time></trkpt><trkpt lat="44.70807093762896" lon="7.839198858702524"><ele>285.85714285714283</ele><time>2026-04-12T10:34:07.999Z</time></trkpt><trkpt lat="44.70804321570913" lon="7.8391180741942295"><ele>285.7142857142857</ele><time>2026-04-12T10:34:08.999Z</time></trkpt><trkpt lat="44.70801757991409" lon="7.839034484326592"><ele>285.57142857142856</ele><time>2026-04-12T10:34:09.999Z</time></trkpt><trkpt lat="44.707966127068055" lon="7.838872138860196"><ele>285.42857142857144</ele><time>2026-04-12T10:34:11.999Z</time></trkpt><trkpt lat="44.70793542076731" lon="7.838791466338742"><ele>285.2857142857143</ele><time>2026-04-12T10:34:12.999Z</time></trkpt><trkpt lat="44.70790610805521" lon="7.8387110566008324"><ele>285.1428571428571</ele><time>2026-04-12T10:34:13.999Z</time></trkpt><trkpt lat="44.70787683507464" lon="7.83863168189599"><ele>285.0</ele><time>2026-04-12T10:34:14.999Z</time></trkpt><trkpt lat="44.70785163178478" lon="7.838546078669016"><ele>284.8</ele><time>2026-04-12T10:34:15.999Z</time></trkpt><trkpt lat="44.707830257152494" lon="7.8384626858825595"><ele>284.6</ele><time>2026-04-12T10:34:16.999Z</time></trkpt><trkpt lat="44.707803307839434" lon="7.838382478117968"><ele>284.4</ele><time>2026-04-12T10:34:17.999Z</time></trkpt><trkpt lat="44.707757222616046" lon="7.838223835943242"><ele>284.2</ele><time>2026-04-12T10:34:19.999Z</time></trkpt><trkpt lat="44.707704626071816" lon="7.838069944682767"><ele>284.0</ele><time>2026-04-12T10:34:21.999Z</time></trkpt><trkpt lat="44.707660195997256" lon="7.837916696419527"><ele>284.0</ele><time>2026-04-12T10:34:23.999Z</time></trkpt><trkpt lat="44.70761035454696" lon="7.837767323710003"><ele>284.0</ele><time>2026-04-12T10:34:25.999Z</time></trkpt><trkpt lat="44.70756146626058" lon="7.837619870795347"><ele>284.0</ele><time>2026-04-12T10:34:27.999Z</time></trkpt><trkpt lat="44.70751744948521" lon="7.837472200069252"><ele>284.0</ele><time>2026-04-12T10:34:29.999Z</time></trkpt><trkpt lat="44.7074618074255" lon="7.837327790648995"><ele>283.59999999999997</ele><time>2026-04-12T10:34:31.999Z</time></trkpt><trkpt lat="44.70741593185894" lon="7.837177208845475"><ele>283.2</ele><time>2026-04-12T10:34:33.999Z</time></trkpt><trkpt lat="44.7073920583303" lon="7.837093370353808"><ele>282.79999999999995</ele><time>2026-04-12T10:34:34.999Z</time></trkpt><trkpt lat="44.707367944686304" lon="7.837011467351352"><ele>282.4</ele><time>2026-04-12T10:34:35.999Z</time></trkpt><trkpt lat="44.707319425351564" lon="7.836856997992806"><ele>282.0</ele><time>2026-04-12T10:34:37.999Z</time></trkpt><trkpt lat="44.70726804913909" lon="7.836693251745079"><ele>281.8</ele><time>2026-04-12T10:34:39.999Z</time></trkpt><trkpt lat="44.70724156655198" lon="7.836611432369646"><ele>281.6</ele><time>2026-04-12T10:34:40.999Z</time></trkpt><trkpt lat="44.7071919742992" lon="7.836453596020042"><ele>281.40000000000003</ele><time>2026-04-12T10:34:42.999Z</time></trkpt><trkpt lat="44.70713903387256" lon="7.8362998850490415"><ele>281.2</ele><time>2026-04-12T10:34:44.999Z</time></trkpt><trkpt lat="44.70709519389772" lon="7.836154271571243"><ele>281.0</ele><time>2026-04-12T10:34:46.999Z</time></trkpt><trkpt lat="44.70705004773954" lon="7.836021574813323"><ele>280.8</ele><time>2026-04-12T10:34:48.999Z</time></trkpt><trkpt lat="44.70702116225175" lon="7.835887134995509"><ele>280.6</ele><time>2026-04-12T10:34:50.999Z</time></trkpt><trkpt lat="44.70697679625921" lon="7.835749718880279"><ele>280.4</ele><time>2026-04-12T10:34:52.999Z</time></trkpt><trkpt lat="44.70693678250814" lon="7.835606526196414"><ele>280.2</ele><time>2026-04-12T10:34:55Z</time></trkpt><trkpt lat="44.70689878004374" lon="7.835450594311524"><ele>280.0</ele><time>2026-04-12T10:34:57Z</time></trkpt><trkpt lat="44.70686648684464" lon="7.835289441575285"><ele>280.0</ele><time>2026-04-12T10:34:59Z</time></trkpt><trkpt lat="44.706833487666444" lon="7.835124261907468"><ele>280.0</ele><time>2026-04-12T10:35:01Z</time></trkpt><trkpt lat="44.70680280271754" lon="7.8349583247378405"><ele>280.0</ele><time>2026-04-12T10:35:03Z</time></trkpt><trkpt lat="44.70678345812187" lon="7.834873477778469"><ele>280.0</ele><time>2026-04-12T10:35:04Z</time></trkpt><trkpt lat="44.70675530294179" lon="7.834702921399617"><ele>280.0</ele><time>2026-04-12T10:35:06Z</time></trkpt><trkpt lat="44.706743296563666" lon="7.834530423552989"><ele>280.0</ele><time>2026-04-12T10:35:08Z</time></trkpt><trkpt lat="44.706747827075105" lon="7.834360252686247"><ele>280.0</ele><time>2026-04-12T10:35:10Z</time></trkpt><trkpt lat="44.706759664437335" lon="7.834195960470245"><ele>280.0</ele><time>2026-04-12T10:35:12Z</time></trkpt><trkpt lat="44.7067741918366" lon="7.834104884094624"><ele>280.0</ele><time>2026-04-12T10:35:13Z</time></trkpt><trkpt lat="44.70679949021114" lon="7.833933794276961"><ele>280.0</ele><time>2026-04-12T10:35:15Z</time></trkpt><trkpt lat="44.70683500544016" lon="7.833766761036269"><ele>279.75</ele><time>2026-04-12T10:35:17Z</time></trkpt><trkpt lat="44.706873938894816" lon="7.833602011455992"><ele>279.5</ele><time>2026-04-12T10:35:19Z</time></trkpt><trkpt lat="44.70691154268099" lon="7.833438026380341"><ele>279.25</ele><time>2026-04-12T10:35:21Z</time></trkpt><trkpt lat="44.70694999183528" lon="7.833285815799701"><ele>279.0</ele><time>2026-04-12T10:35:23Z</time></trkpt><trkpt lat="44.70698320852135" lon="7.833138432987827"><ele>278.59999999999997</ele><time>2026-04-12T10:35:25Z</time></trkpt><trkpt lat="44.70701268240702" lon="7.832995235420447"><ele>278.2</ele><time>2026-04-12T10:35:27Z</time></trkpt><trkpt lat="44.707045775806264" lon="7.832860794498964"><ele>277.79999999999995</ele><time>2026-04-12T10:35:29Z</time></trkpt><trkpt lat="44.70707696415134" lon="7.832731427475811"><ele>277.4</ele><time>2026-04-12T10:35:31Z</time></trkpt><trkpt lat="44.70710404823077" lon="7.832595761551253"><ele>277.0</ele><time>2026-04-12T10:35:33Z</time></trkpt><trkpt lat="44.707140861997104" lon="7.832461038302076"><ele>276.75</ele><time>2026-04-12T10:35:35Z</time></trkpt><trkpt lat="44.70716994274755" lon="7.832300976118621"><ele>276.5</ele><time>2026-04-12T10:35:37Z</time></trkpt><trkpt lat="44.70721562955213" lon="7.832149752963073"><ele>276.25</ele><time>2026-04-12T10:35:39Z</time></trkpt><trkpt lat="44.707248905300624" lon="7.83200436949444"><ele>276.0</ele><time>2026-04-12T10:35:41Z</time></trkpt><trkpt lat="44.70728146781802" lon="7.831858716872983"><ele>276.5</ele><time>2026-04-12T10:35:43Z</time></trkpt><trkpt lat="44.7073018571775" lon="7.831731850856075"><ele>277.0</ele><time>2026-04-12T10:35:44.999Z</time></trkpt><trkpt lat="44.7073214318078" lon="7.831634526363838"><ele>277.5</ele><time>2026-04-12T10:35:46.999Z</time></trkpt><trkpt lat="44.707348086982144" lon="7.831527813733735"><ele>278.0</ele><time>2026-04-12T10:35:48.999Z</time></trkpt><trkpt lat="44.70760513306356" lon="7.83158423044862"><ele>278.0</ele><time>2026-04-12T10:35:50.999Z</time></trkpt><trkpt lat="44.70769547679992" lon="7.831538376758263"><ele>278.0</ele><time>2026-04-12T10:35:52.999Z</time></trkpt><trkpt lat="44.70778283171162" lon="7.831574200539485"><ele>278.0</ele><time>2026-04-12T10:35:54.999Z</time></trkpt><trkpt lat="44.70785256288229" lon="7.83166597729889"><ele>278.0</ele><time>2026-04-12T10:35:56.999Z</time></trkpt><trkpt lat="44.707944980383644" lon="7.831738075307046"><ele>278.0</ele><time>2026-04-12T10:35:58.999Z</time></trkpt><trkpt lat="44.708026800187476" lon="7.831828183010528"><ele>278.33333333333337</ele><time>2026-04-12T10:36:00.999Z</time></trkpt><trkpt lat="44.7081034094582" lon="7.831916114876364"><ele>278.6666666666667</ele><time>2026-04-12T10:36:02.999Z</time></trkpt><trkpt lat="44.708188842880844" lon="7.8319430565672095"><ele>279.0</ele><time>2026-04-12T10:36:04.999Z</time></trkpt><trkpt lat="44.70826973748991" lon="7.831942878818614"><ele>279.3333333333333</ele><time>2026-04-12T10:36:06.999Z</time></trkpt><trkpt lat="44.708330934703966" lon="7.831987861691691"><ele>279.66666666666663</ele><time>2026-04-12T10:36:08.999Z</time></trkpt><trkpt lat="44.70839357298283" lon="7.832085267667589"><ele>280.0</ele><time>2026-04-12T10:36:10.999Z</time></trkpt><trkpt lat="44.70846492624857" lon="7.8321402341541475"><ele>280.0</ele><time>2026-04-12T10:36:12.999Z</time></trkpt><trkpt lat="44.708545904098415" lon="7.832191995184944"><ele>280.0</ele><time>2026-04-12T10:36:14.999Z</time></trkpt><trkpt lat="44.7086189183841" lon="7.832228184849516"><ele>280.0</ele><time>2026-04-12T10:36:16.999Z</time></trkpt><trkpt lat="44.70869661611413" lon="7.832297037220277"><ele>280.0</ele><time>2026-04-12T10:36:19.999Z</time></trkpt><trkpt lat="44.70876044687847" lon="7.832353214447558"><ele>280.0</ele><time>2026-04-12T10:36:22.999Z</time></trkpt><trkpt lat="44.70882340492173" lon="7.832427168934214"><ele>280.0</ele><time>2026-04-12T10:36:26.999Z</time></trkpt><trkpt lat="44.708876952642086" lon="7.832488597300182"><ele>280.3333333333333</ele><time>2026-04-12T10:36:29.999Z</time></trkpt><trkpt lat="44.70895968060376" lon="7.832507916188562"><ele>280.66666666666663</ele><time>2026-04-12T10:36:31.999Z</time></trkpt><trkpt lat="44.709025446814344" lon="7.832586549504743"><ele>281.0</ele><time>2026-04-12T10:36:34.999Z</time></trkpt><trkpt lat="44.709089120682705" lon="7.832614481689746"><ele>281.3333333333333</ele><time>2026-04-12T10:36:37.999Z</time></trkpt><trkpt lat="44.709162816498086" lon="7.832669375374981"><ele>281.6666666666667</ele><time>2026-04-12T10:36:40.999Z</time></trkpt><trkpt lat="44.70923649919403" lon="7.832682483582975"><ele>282.0</ele><time>2026-04-12T10:36:42.999Z</time></trkpt><trkpt lat="44.70931835506709" lon="7.832722362464977"><ele>282.2857142857143</ele><time>2026-04-12T10:36:45.999Z</time></trkpt><trkpt lat="44.70939856891181" lon="7.832723637772945"><ele>282.57142857142856</ele><time>2026-04-12T10:36:48.999Z</time></trkpt><trkpt lat="44.709463590877135" lon="7.8327665748483755"><ele>282.85714285714283</ele><time>2026-04-12T10:36:51.999Z</time></trkpt><trkpt lat="44.70954513479084" lon="7.832794119624947"><ele>283.1428571428571</ele><time>2026-04-12T10:36:54.999Z</time></trkpt><trkpt lat="44.70959636398865" lon="7.832858498938952"><ele>283.4285714285714</ele><time>2026-04-12T10:36:57.999Z</time></trkpt><trkpt lat="44.709652491042796" lon="7.832934155574863"><ele>283.7142857142857</ele><time>2026-04-12T10:37:10Z</time></trkpt><trkpt lat="44.70970120317416" lon="7.832993865786787"><ele>284.0</ele><time>2026-04-12T10:37:14Z</time></trkpt><trkpt lat="44.70977469071212" lon="7.833023550690591"><ele>283.0</ele><time>2026-04-12T10:37:17Z</time></trkpt><trkpt lat="44.70984912881443" lon="7.833051241266326"><ele>282.0</ele><time>2026-04-12T10:37:20Z</time></trkpt><trkpt lat="44.70991854975658" lon="7.833076060712222"><ele>281.0</ele><time>2026-04-12T10:37:23Z</time></trkpt><trkpt lat="44.70988498635925" lon="7.8334894878095875"><ele>280.0</ele><time>2026-04-12T10:37:30Z</time></trkpt><trkpt lat="44.70983936437115" lon="7.833590907736452"><ele>280.0</ele><time>2026-04-12T10:37:34Z</time></trkpt><trkpt lat="44.70991119978862" lon="7.833580857723734"><ele>280.0</ele><time>2026-04-12T10:37:45Z</time></trkpt><trkpt lat="44.71004556640493" lon="7.833453353694"><ele>280.0</ele><time>2026-04-12T10:38:47.999Z</time></trkpt><trkpt lat="44.71009724871765" lon="7.833394144911557"><ele>280.0</ele><time>2026-04-12T10:38:50.999Z</time></trkpt><trkpt lat="44.71016005375304" lon="7.833339262408268"><ele>280.0</ele><time>2026-04-12T10:38:54.999Z</time></trkpt><trkpt lat="44.71022479514308" lon="7.833274555572024"><ele>280.42857142857144</ele><time>2026-04-12T10:38:58.999Z</time></trkpt><trkpt lat="44.71028532628173" lon="7.833227770912456"><ele>280.8571428571429</ele><time>2026-04-12T10:39:01.999Z</time></trkpt><trkpt lat="44.710346834660484" lon="7.833168643308768"><ele>281.2857142857143</ele><time>2026-04-12T10:39:07Z</time></trkpt><trkpt lat="44.71031401470767" lon="7.833086717436609"><ele>281.7142857142857</ele><time>2026-04-12T10:39:12Z</time></trkpt><trkpt lat="44.71025271737238" lon="7.83311230237793"><ele>282.14285714285717</ele><time>2026-04-12T10:39:57Z</time></trkpt><trkpt lat="44.710319027007415" lon="7.833120106597901"><ele>282.57142857142856</ele><time>2026-04-12T10:40:03.999Z</time></trkpt><trkpt lat="44.710377539018495" lon="7.83306055605786"><ele>283.0</ele><time>2026-04-12T10:40:06.999Z</time></trkpt><trkpt lat="44.71045449199694" lon="7.833001199872482"><ele>283.0</ele><time>2026-04-12T10:40:09.999Z</time></trkpt><trkpt lat="44.71052577980823" lon="7.832945473861517"><ele>283.0</ele><time>2026-04-12T10:40:12.999Z</time></trkpt><trkpt lat="44.710587356611256" lon="7.832886374890903"><ele>283.0</ele><time>2026-04-12T10:40:14.999Z</time></trkpt><trkpt lat="44.71063794655554" lon="7.832827797682371"><ele>283.0</ele><time>2026-04-12T10:40:16.999Z</time></trkpt><trkpt lat="44.71068979302977" lon="7.8327591075326435"><ele>283.0</ele><time>2026-04-12T10:40:18.999Z</time></trkpt><trkpt lat="44.71076213440669" lon="7.832694362586887"><ele>283.0</ele><time>2026-04-12T10:40:20.999Z</time></trkpt><trkpt lat="44.710834605560656" lon="7.832616103795357"><ele>282.2</ele><time>2026-04-12T10:40:22.999Z</time></trkpt><trkpt lat="44.71091029055237" lon="7.832540954441958"><ele>281.4</ele><time>2026-04-12T10:40:24.999Z</time></trkpt><trkpt lat="44.710984268090584" lon="7.832457658083444"><ele>280.59999999999997</ele><time>2026-04-12T10:40:26.999Z</time></trkpt><trkpt lat="44.71105072309153" lon="7.832376992778139"><ele>279.8</ele><time>2026-04-12T10:40:28.999Z</time></trkpt><trkpt lat="44.711120314473895" lon="7.832300338857863"><ele>279.0</ele><time>2026-04-12T10:40:30.999Z</time></trkpt><trkpt lat="44.71119576048416" lon="7.83222783460166"><ele>279.0</ele><time>2026-04-12T10:40:32.999Z</time></trkpt><trkpt lat="44.71126790913705" lon="7.832155372028707"><ele>279.0</ele><time>2026-04-12T10:40:34.999Z</time></trkpt><trkpt lat="44.71134444052458" lon="7.832077332119137"><ele>279.0</ele><time>2026-04-12T10:40:36.999Z</time></trkpt><trkpt lat="44.71142276828288" lon="7.831989829750384"><ele>279.0</ele><time>2026-04-12T10:40:38.999Z</time></trkpt><trkpt lat="44.711516546109536" lon="7.8319026329939545"><ele>279.0</ele><time>2026-04-12T10:40:40.999Z</time></trkpt><trkpt lat="44.711608306736174" lon="7.83181180542174"><ele>278.2</ele><time>2026-04-12T10:40:42.999Z</time></trkpt><trkpt lat="44.71170670539549" lon="7.8317174697712195"><ele>277.4</ele><time>2026-04-12T10:40:44.999Z</time></trkpt><trkpt lat="44.711799604721826" lon="7.83163150968155"><ele>276.6</ele><time>2026-04-12T10:40:46.999Z</time></trkpt><trkpt lat="44.71188718334222" lon="7.831541224269484"><ele>275.8</ele><time>2026-04-12T10:40:48.999Z</time></trkpt><trkpt lat="44.711975437502794" lon="7.831465982750856"><ele>275.0</ele><time>2026-04-12T10:40:50.999Z</time></trkpt><trkpt lat="44.7120612041984" lon="7.8313942208548095"><ele>274.8</ele><time>2026-04-12T10:40:52.999Z</time></trkpt><trkpt lat="44.712142351864905" lon="7.831325361325166"><ele>274.6</ele><time>2026-04-12T10:40:54.999Z</time></trkpt><trkpt lat="44.71222144702951" lon="7.831257917336717"><ele>274.4</ele><time>2026-04-12T10:40:56.999Z</time></trkpt><trkpt lat="44.71230559605513" lon="7.831185765314011"><ele>274.2</ele><time>2026-04-12T10:40:58.999Z</time></trkpt><trkpt lat="44.712393904373506" lon="7.8310838160178"><ele>274.0</ele><time>2026-04-12T10:41:00.999Z</time></trkpt><trkpt lat="44.71248485883184" lon="7.831012181753598"><ele>274.0</ele><time>2026-04-12T10:41:02.999Z</time></trkpt><trkpt lat="44.71257853880991" lon="7.830910175933011"><ele>274.0</ele><time>2026-04-12T10:41:04.999Z</time></trkpt><trkpt lat="44.71267485759973" lon="7.830806420651161"><ele>274.0</ele><time>2026-04-12T10:41:06.999Z</time></trkpt><trkpt lat="44.71277406501917" lon="7.830702517525785"><ele>274.0</ele><time>2026-04-12T10:41:08.999Z</time></trkpt><trkpt lat="44.712873527979355" lon="7.830598781824396"><ele>274.0</ele><time>2026-04-12T10:41:10.999Z</time></trkpt><trkpt lat="44.71296448765212" lon="7.830501784481599"><ele>274.0</ele><time>2026-04-12T10:41:12.999Z</time></trkpt><trkpt lat="44.71301609975121" lon="7.830444519590892"><ele>274.0</ele><time>2026-04-12T10:41:13.999Z</time></trkpt><trkpt lat="44.71306776288112" lon="7.8303926182628505"><ele>274.0</ele><time>2026-04-12T10:41:14.999Z</time></trkpt><trkpt lat="44.71316275062075" lon="7.830285082697145"><ele>274.0</ele><time>2026-04-12T10:41:16.999Z</time></trkpt><trkpt lat="44.71325350978696" lon="7.8301795345308465"><ele>273.75</ele><time>2026-04-12T10:41:18.999Z</time></trkpt><trkpt lat="44.71334023983" lon="7.830077258782995"><ele>273.5</ele><time>2026-04-12T10:41:20.999Z</time></trkpt><trkpt lat="44.71343037141183" lon="7.82997985297826"><ele>273.25</ele><time>2026-04-12T10:41:22.999Z</time></trkpt><trkpt lat="44.713517583495744" lon="7.829881186623721"><ele>273.0</ele><time>2026-04-12T10:41:24.999Z</time></trkpt><trkpt lat="44.7136116851185" lon="7.829789365264967"><ele>273.8</ele><time>2026-04-12T10:41:26.999Z</time></trkpt><trkpt lat="44.71370281386776" lon="7.829697717514888"><ele>274.6</ele><time>2026-04-12T10:41:28.999Z</time></trkpt><trkpt lat="44.71379162610321" lon="7.829611717058399"><ele>275.4</ele><time>2026-04-12T10:41:30.999Z</time></trkpt><trkpt lat="44.71388141495579" lon="7.829535468608612"><ele>276.2</ele><time>2026-04-12T10:41:32.999Z</time></trkpt><trkpt lat="44.71397530310453" lon="7.829458899145167"><ele>277.0</ele><time>2026-04-12T10:41:34.999Z</time></trkpt><trkpt lat="44.71406727568459" lon="7.829387361166393"><ele>277.0</ele><time>2026-04-12T10:41:36.999Z</time></trkpt><trkpt lat="44.714154406967786" lon="7.829317014134589"><ele>277.0</ele><time>2026-04-12T10:41:38.999Z</time></trkpt><trkpt lat="44.714244016098334" lon="7.8292547398192305"><ele>277.0</ele><time>2026-04-12T10:41:40.999Z</time></trkpt><trkpt lat="44.71434856665165" lon="7.829253201698385"><ele>277.0</ele><time>2026-04-12T10:41:42.999Z</time></trkpt><trkpt lat="44.71445219428292" lon="7.829200611685094"><ele>277.0</ele><time>2026-04-12T10:41:44.999Z</time></trkpt><trkpt lat="44.714538502832646" lon="7.829098266960412"><ele>276.25</ele><time>2026-04-12T10:41:46.999Z</time></trkpt><trkpt lat="44.71462335483622" lon="7.828993779189919"><ele>275.5</ele><time>2026-04-12T10:41:48.999Z</time></trkpt><trkpt lat="44.71470182739217" lon="7.828879661184389"><ele>274.75</ele><time>2026-04-12T10:41:50.999Z</time></trkpt><trkpt lat="44.71479285199286" lon="7.828772989712025"><ele>274.0</ele><time>2026-04-12T10:41:52.999Z</time></trkpt><trkpt lat="44.714880207404356" lon="7.828665156446786"><ele>274.0</ele><time>2026-04-12T10:41:54.999Z</time></trkpt><trkpt lat="44.7149638943626" lon="7.828560371355596"><ele>274.0</ele><time>2026-04-12T10:41:56.999Z</time></trkpt><trkpt lat="44.715042398264174" lon="7.828459776093479"><ele>274.0</ele><time>2026-04-12T10:41:58.999Z</time></trkpt><trkpt lat="44.715115141768216" lon="7.828362263198737"><ele>274.0</ele><time>2026-04-12T10:42:00.999Z</time></trkpt><trkpt lat="44.71519199922385" lon="7.828278809972995"><ele>274.0</ele><time>2026-04-12T10:42:02.999Z</time></trkpt><trkpt lat="44.715263028114876" lon="7.828191878229997"><ele>273.8</ele><time>2026-04-12T10:42:04.999Z</time></trkpt><trkpt lat="44.71533023920459" lon="7.82811241224651"><ele>273.59999999999997</ele><time>2026-04-12T10:42:06.999Z</time></trkpt><trkpt lat="44.71540881434528" lon="7.828041948103259"><ele>273.4</ele><time>2026-04-12T10:42:08.999Z</time></trkpt><trkpt lat="44.715492200187" lon="7.827969481284001"><ele>273.2</ele><time>2026-04-12T10:42:10.999Z</time></trkpt><trkpt lat="44.71557239403162" lon="7.827889821175235"><ele>273.0</ele><time>2026-04-12T10:42:12.999Z</time></trkpt><trkpt lat="44.71564996917692" lon="7.827815435288284"><ele>273.0</ele><time>2026-04-12T10:42:14.999Z</time></trkpt><trkpt lat="44.71571990727012" lon="7.827738405762787"><ele>273.0</ele><time>2026-04-12T10:42:16.999Z</time></trkpt><trkpt lat="44.715796072474454" lon="7.827668780585127"><ele>273.0</ele><time>2026-04-12T10:42:18.999Z</time></trkpt><trkpt lat="44.71586602336653" lon="7.8275865958377375"><ele>273.0</ele><time>2026-04-12T10:42:20.999Z</time></trkpt><trkpt lat="44.71594683841408" lon="7.827513520928365"><ele>273.0</ele><time>2026-04-12T10:42:22.999Z</time></trkpt><trkpt lat="44.71602353785409" lon="7.827442041407458"><ele>273.4</ele><time>2026-04-12T10:42:24.999Z</time></trkpt><trkpt lat="44.71609948003509" lon="7.827366829462262"><ele>273.8</ele><time>2026-04-12T10:42:26.999Z</time></trkpt><trkpt lat="44.716178608841" lon="7.827294618036653"><ele>274.2</ele><time>2026-04-12T10:42:28.999Z</time></trkpt><trkpt lat="44.71625644984488" lon="7.827221998326483"><ele>274.6</ele><time>2026-04-12T10:42:30.999Z</time></trkpt><trkpt lat="44.716335677406775" lon="7.8271515155144025"><ele>275.0</ele><time>2026-04-12T10:42:32.999Z</time></trkpt><trkpt lat="44.71639635860811" lon="7.827079121660398"><ele>275.0</ele><time>2026-04-12T10:42:34.999Z</time></trkpt><trkpt lat="44.71645946559342" lon="7.827014603211231"><ele>275.0</ele><time>2026-04-12T10:42:36.999Z</time></trkpt><trkpt lat="44.71653041302692" lon="7.826942069687865"><ele>275.0</ele><time>2026-04-12T10:42:38.999Z</time></trkpt><trkpt lat="44.716600488938994" lon="7.8268738866256395"><ele>275.0</ele><time>2026-04-12T10:42:40.999Z</time></trkpt><trkpt lat="44.716667655174014" lon="7.826804491410078"><ele>275.0</ele><time>2026-04-12T10:42:42.999Z</time></trkpt><trkpt lat="44.716736656906434" lon="7.826730787243898"><ele>275.0</ele><time>2026-04-12T10:42:44.999Z</time></trkpt><trkpt lat="44.71679472352064" lon="7.826660994277573"><ele>275.0</ele><time>2026-04-12T10:42:46.999Z</time></trkpt><trkpt lat="44.7168681629759" lon="7.826575860799632"><ele>275.0</ele><time>2026-04-12T10:42:48.999Z</time></trkpt><trkpt lat="44.71694611361471" lon="7.826486026800686"><ele>275.0</ele><time>2026-04-12T10:42:50.999Z</time></trkpt><trkpt lat="44.71702471048724" lon="7.826404761463981"><ele>275.0</ele><time>2026-04-12T10:42:52.999Z</time></trkpt><trkpt lat="44.717093330765636" lon="7.826320708120443"><ele>275.0</ele><time>2026-04-12T10:42:54.999Z</time></trkpt><trkpt lat="44.71716486014259" lon="7.826231793450711"><ele>275.1666666666667</ele><time>2026-04-12T10:42:56.999Z</time></trkpt><trkpt lat="44.717235289031485" lon="7.826160043893992"><ele>275.33333333333337</ele><time>2026-04-12T10:42:58.999Z</time></trkpt><trkpt lat="44.71730235373299" lon="7.826083302826668"><ele>275.5</ele><time>2026-04-12T10:43:00.999Z</time></trkpt><trkpt lat="44.71737807631468" lon="7.82601003359064"><ele>275.6666666666667</ele><time>2026-04-12T10:43:02.999Z</time></trkpt><trkpt lat="44.71744379454135" lon="7.825934310317465"><ele>275.8333333333333</ele><time>2026-04-12T10:43:04.999Z</time></trkpt><trkpt lat="44.71751325522487" lon="7.825867163526418"><ele>276.0</ele><time>2026-04-12T10:43:06.999Z</time></trkpt><trkpt lat="44.71759067703786" lon="7.825816770210392"><ele>276.0</ele><time>2026-04-12T10:43:08.999Z</time></trkpt><trkpt lat="44.7176559470949" lon="7.8257673808870845"><ele>276.0</ele><time>2026-04-12T10:43:10.999Z</time></trkpt><trkpt lat="44.71771634709773" lon="7.825733489363285"><ele>276.0</ele><time>2026-04-12T10:43:12.999Z</time></trkpt><trkpt lat="44.71778371787477" lon="7.825707863119809"><ele>276.0</ele><time>2026-04-12T10:43:15.999Z</time></trkpt><trkpt lat="44.717856491727204" lon="7.825665336992663"><ele>276.0</ele><time>2026-04-12T10:43:19Z</time></trkpt><trkpt lat="44.717920299523" lon="7.825600186463659"><ele>276.0</ele><time>2026-04-12T10:43:21Z</time></trkpt><trkpt lat="44.717978021198405" lon="7.825528493984652"><ele>276.0</ele><time>2026-04-12T10:43:23Z</time></trkpt><trkpt lat="44.71805503911835" lon="7.825446240710527"><ele>275.8</ele><time>2026-04-12T10:43:25Z</time></trkpt><trkpt lat="44.718133468346856" lon="7.8253612539647115"><ele>275.6</ele><time>2026-04-12T10:43:27Z</time></trkpt><trkpt lat="44.71820568463296" lon="7.82527801366078"><ele>275.4</ele><time>2026-04-12T10:43:29Z</time></trkpt><trkpt lat="44.71827588829652" lon="7.825198757712951"><ele>275.2</ele><time>2026-04-12T10:43:31Z</time></trkpt><trkpt lat="44.71834841965303" lon="7.825125605310419"><ele>275.0</ele><time>2026-04-12T10:43:33Z</time></trkpt><trkpt lat="44.71842298016254" lon="7.825053985609513"><ele>275.0</ele><time>2026-04-12T10:43:35Z</time></trkpt><trkpt lat="44.71849075286108" lon="7.824977355443087"><ele>275.0</ele><time>2026-04-12T10:43:37Z</time></trkpt><trkpt lat="44.718564305787766" lon="7.824901398470676"><ele>275.0</ele><time>2026-04-12T10:43:39Z</time></trkpt><trkpt lat="44.71863717906127" lon="7.824818381451374"><ele>275.0</ele><time>2026-04-12T10:43:41Z</time></trkpt><trkpt lat="44.71871645553358" lon="7.8247443909929375"><ele>275.0</ele><time>2026-04-12T10:43:43Z</time></trkpt><trkpt lat="44.71879668934446" lon="7.82466873873681"><ele>275.0</ele><time>2026-04-12T10:43:45Z</time></trkpt><trkpt lat="44.71887040746998" lon="7.824587759373511"><ele>275.0</ele><time>2026-04-12T10:43:47Z</time></trkpt><trkpt lat="44.718938995051666" lon="7.82450535056766"><ele>275.0</ele><time>2026-04-12T10:43:49Z</time></trkpt><trkpt lat="44.71901710749301" lon="7.824422337302875"><ele>275.0</ele><time>2026-04-12T10:43:51Z</time></trkpt><trkpt lat="44.71908783523292" lon="7.824334489593063"><ele>275.0</ele><time>2026-04-12T10:43:53Z</time></trkpt><trkpt lat="44.71916210801245" lon="7.824257852211628"><ele>275.0</ele><time>2026-04-12T10:43:55Z</time></trkpt><trkpt lat="44.71923579779771" lon="7.8241747491800675"><ele>275.0</ele><time>2026-04-12T10:43:57Z</time></trkpt><trkpt lat="44.719307792430335" lon="7.824097356377432"><ele>275.0</ele><time>2026-04-12T10:43:59Z</time></trkpt><trkpt lat="44.71937922976724" lon="7.824020767569227"><ele>275.0</ele><time>2026-04-12T10:44:01Z</time></trkpt><trkpt lat="44.71945626402852" lon="7.823944916900776"><ele>275.0</ele><time>2026-04-12T10:44:03Z</time></trkpt><trkpt lat="44.71952428673535" lon="7.823861775131389"><ele>275.1666666666667</ele><time>2026-04-12T10:44:05Z</time></trkpt><trkpt lat="44.71958868556793" lon="7.823790629069524"><ele>275.33333333333337</ele><time>2026-04-12T10:44:07Z</time></trkpt><trkpt lat="44.719654656352574" lon="7.823716486011223"><ele>275.5</ele><time>2026-04-12T10:44:09Z</time></trkpt><trkpt lat="44.71972725019055" lon="7.823650599154823"><ele>275.6666666666667</ele><time>2026-04-12T10:44:11Z</time></trkpt><trkpt lat="44.71979864939988" lon="7.8235673197231685"><ele>275.8333333333333</ele><time>2026-04-12T10:44:13Z</time></trkpt><trkpt lat="44.71986958250456" lon="7.823481253032342"><ele>276.0</ele><time>2026-04-12T10:44:15Z</time></trkpt><trkpt lat="44.71994134324676" lon="7.823388386205466"><ele>276.0</ele><time>2026-04-12T10:44:17Z</time></trkpt><trkpt lat="44.72002106473739" lon="7.823313611423558"><ele>276.0</ele><time>2026-04-12T10:44:18.999Z</time></trkpt><trkpt lat="44.72009139623946" lon="7.823229213901013"><ele>276.0</ele><time>2026-04-12T10:44:20.999Z</time></trkpt><trkpt lat="44.7201630568598" lon="7.823157978457103"><ele>276.0</ele><time>2026-04-12T10:44:22.999Z</time></trkpt><trkpt lat="44.720241262143134" lon="7.823053053620553"><ele>276.0</ele><time>2026-04-12T10:44:24.999Z</time></trkpt><trkpt lat="44.72032947594372" lon="7.82299044513446"><ele>276.2</ele><time>2026-04-12T10:44:26.999Z</time></trkpt><trkpt lat="44.72041359724618" lon="7.822911050673125"><ele>276.40000000000003</ele><time>2026-04-12T10:44:28.999Z</time></trkpt><trkpt lat="44.720515016971916" lon="7.822866527425035"><ele>276.6</ele><time>2026-04-12T10:44:30.999Z</time></trkpt><trkpt lat="44.720592050151026" lon="7.822793080631476"><ele>276.8</ele><time>2026-04-12T10:44:32.999Z</time></trkpt><trkpt lat="44.720674580719944" lon="7.822719439732252"><ele>277.0</ele><time>2026-04-12T10:44:34.999Z</time></trkpt><trkpt lat="44.720769878904626" lon="7.822637473432728"><ele>276.6</ele><time>2026-04-12T10:44:36.999Z</time></trkpt><trkpt lat="44.72085818998029" lon="7.822556224016287"><ele>276.2</ele><time>2026-04-12T10:44:38.999Z</time></trkpt><trkpt lat="44.720938241473675" lon="7.822479910220983"><ele>275.8</ele><time>2026-04-12T10:44:40.999Z</time></trkpt><trkpt lat="44.72101024906569" lon="7.822406607424363"><ele>275.4</ele><time>2026-04-12T10:44:42.999Z</time></trkpt><trkpt lat="44.7210915442536" lon="7.822327508465376"><ele>275.0</ele><time>2026-04-12T10:44:44.999Z</time></trkpt><trkpt lat="44.72116666994604" lon="7.82226156946547"><ele>275.0</ele><time>2026-04-12T10:44:46.999Z</time></trkpt><trkpt lat="44.72125454125122" lon="7.822188450233491"><ele>275.0</ele><time>2026-04-12T10:44:48.999Z</time></trkpt><trkpt lat="44.72133967347116" lon="7.822122332085958"><ele>275.0</ele><time>2026-04-12T10:44:50.999Z</time></trkpt><trkpt lat="44.721433256386966" lon="7.822047656144365"><ele>275.0</ele><time>2026-04-12T10:44:52.999Z</time></trkpt><trkpt lat="44.72151574620001" lon="7.821980528351621"><ele>275.0</ele><time>2026-04-12T10:44:54.999Z</time></trkpt><trkpt lat="44.721576173005914" lon="7.821928280840488"><ele>275.0</ele><time>2026-04-12T10:44:55.999Z</time></trkpt><trkpt lat="44.721658995374284" lon="7.821856669026981"><ele>275.0</ele><time>2026-04-12T10:44:57.999Z</time></trkpt><trkpt lat="44.72174144559902" lon="7.821775438631361"><ele>275.0</ele><time>2026-04-12T10:44:59.999Z</time></trkpt><trkpt lat="44.72182038454269" lon="7.821697707630476"><ele>275.0</ele><time>2026-04-12T10:45:01.999Z</time></trkpt><trkpt lat="44.72189123198166" lon="7.821600285102634"><ele>275.0</ele><time>2026-04-12T10:45:03.999Z</time></trkpt><trkpt lat="44.72197861639773" lon="7.821535424749553"><ele>274.8</ele><time>2026-04-12T10:45:05.999Z</time></trkpt><trkpt lat="44.722063699567414" lon="7.8214312225775435"><ele>274.6</ele><time>2026-04-12T10:45:07.999Z</time></trkpt><trkpt lat="44.72213831520381" lon="7.821344688047163"><ele>274.4</ele><time>2026-04-12T10:45:09.999Z</time></trkpt><trkpt lat="44.72223225433166" lon="7.821249706189524"><ele>274.2</ele><time>2026-04-12T10:45:11.999Z</time></trkpt><trkpt lat="44.72230629896624" lon="7.821165214147456"><ele>274.0</ele><time>2026-04-12T10:45:13.999Z</time></trkpt><trkpt lat="44.7223931140524" lon="7.821085873181485"><ele>274.0</ele><time>2026-04-12T10:45:15.999Z</time></trkpt><trkpt lat="44.7224705241074" lon="7.82099996991893"><ele>274.0</ele><time>2026-04-12T10:45:17.999Z</time></trkpt><trkpt lat="44.7225507522732" lon="7.820911745232031"><ele>274.0</ele><time>2026-04-12T10:45:19.999Z</time></trkpt><trkpt lat="44.72263182974698" lon="7.820822586217356"><ele>274.0</ele><time>2026-04-12T10:45:21.999Z</time></trkpt><trkpt lat="44.72271362304437" lon="7.820730220393351"><ele>274.0</ele><time>2026-04-12T10:45:23.999Z</time></trkpt><trkpt lat="44.72278533200835" lon="7.820621969605915"><ele>274.0</ele><time>2026-04-12T10:45:26Z</time></trkpt><trkpt lat="44.72286509783815" lon="7.820533309536808"><ele>274.0</ele><time>2026-04-12T10:45:28Z</time></trkpt><trkpt lat="44.72294785872047" lon="7.820446699519087"><ele>274.0</ele><time>2026-04-12T10:45:30Z</time></trkpt><trkpt lat="44.72303091369556" lon="7.820361795715119"><ele>274.0</ele><time>2026-04-12T10:45:32Z</time></trkpt><trkpt lat="44.72311404813858" lon="7.82026740335366"><ele>274.0</ele><time>2026-04-12T10:45:34Z</time></trkpt><trkpt lat="44.72320580970385" lon="7.8201680673125145"><ele>273.75</ele><time>2026-04-12T10:45:36Z</time></trkpt><trkpt lat="44.72329176071276" lon="7.8200615817878525"><ele>273.5</ele><time>2026-04-12T10:45:38Z</time></trkpt><trkpt lat="44.723387507583695" lon="7.819958166891387"><ele>273.25</ele><time>2026-04-12T10:45:40Z</time></trkpt><trkpt lat="44.72348290643268" lon="7.819867113088987"><ele>273.0</ele><time>2026-04-12T10:45:42Z</time></trkpt><trkpt lat="44.72357946221435" lon="7.819775895449541"><ele>273.0</ele><time>2026-04-12T10:45:44Z</time></trkpt><trkpt lat="44.72366148769801" lon="7.819685179526135"><ele>273.0</ele><time>2026-04-12T10:45:46Z</time></trkpt><trkpt lat="44.723748492560816" lon="7.819610465882662"><ele>273.0</ele><time>2026-04-12T10:45:48Z</time></trkpt><trkpt lat="44.72383091286477" lon="7.819529981810525"><ele>273.0</ele><time>2026-04-12T10:45:50Z</time></trkpt><trkpt lat="44.72390966054254" lon="7.819444941576191"><ele>273.0</ele><time>2026-04-12T10:45:52Z</time></trkpt><trkpt lat="44.72399753614123" lon="7.819361120290738"><ele>273.0</ele><time>2026-04-12T10:45:54Z</time></trkpt><trkpt lat="44.72408111449907" lon="7.819272267647059"><ele>273.0</ele><time>2026-04-12T10:45:56Z</time></trkpt><trkpt lat="44.72416630318189" lon="7.81918687119665"><ele>273.0</ele><time>2026-04-12T10:45:58Z</time></trkpt><trkpt lat="44.724249560719436" lon="7.819098591991376"><ele>273.0</ele><time>2026-04-12T10:46:00Z</time></trkpt><trkpt lat="44.72435057844793" lon="7.819008717614683"><ele>273.0</ele><time>2026-04-12T10:46:02Z</time></trkpt><trkpt lat="44.724437831432674" lon="7.8189218115718635"><ele>273.0</ele><time>2026-04-12T10:46:04Z</time></trkpt><trkpt lat="44.72453754146564" lon="7.818834847330852"><ele>273.0</ele><time>2026-04-12T10:46:06Z</time></trkpt><trkpt lat="44.72463262691581" lon="7.818744517767133"><ele>273.0</ele><time>2026-04-12T10:46:08Z</time></trkpt><trkpt lat="44.72472123982197" lon="7.818651770717783"><ele>273.0</ele><time>2026-04-12T10:46:10Z</time></trkpt><trkpt lat="44.72480985685659" lon="7.818557032709307"><ele>272.8</ele><time>2026-04-12T10:46:12Z</time></trkpt><trkpt lat="44.724893560166834" lon="7.818473051118332"><ele>272.6</ele><time>2026-04-12T10:46:14Z</time></trkpt><trkpt lat="44.7249720839022" lon="7.8184008535784235"><ele>272.4</ele><time>2026-04-12T10:46:16Z</time></trkpt><trkpt lat="44.72504307586121" lon="7.818321891868472"><ele>272.2</ele><time>2026-04-12T10:46:18Z</time></trkpt><trkpt lat="44.72510581256415" lon="7.818250263012265"><ele>272.0</ele><time>2026-04-12T10:46:20Z</time></trkpt><trkpt lat="44.72518209198875" lon="7.818186509709583"><ele>272.5</ele><time>2026-04-12T10:46:22Z</time></trkpt><trkpt lat="44.72525553890066" lon="7.818097576080401"><ele>273.0</ele><time>2026-04-12T10:46:24Z</time></trkpt><trkpt lat="44.725327760821585" lon="7.818036262942877"><ele>273.5</ele><time>2026-04-12T10:46:26Z</time></trkpt><trkpt lat="44.725398200596395" lon="7.817972778121726"><ele>274.0</ele><time>2026-04-12T10:46:28Z</time></trkpt><trkpt lat="44.7254683962533" lon="7.817913786300924"><ele>274.5</ele><time>2026-04-12T10:46:30Z</time></trkpt><trkpt lat="44.72552199724292" lon="7.81784906221985"><ele>275.0</ele><time>2026-04-12T10:46:32Z</time></trkpt><trkpt lat="44.7255836918135" lon="7.817776379729033"><ele>275.0</ele><time>2026-04-12T10:46:34Z</time></trkpt><trkpt lat="44.72563632232448" lon="7.817718507325152"><ele>275.0</ele><time>2026-04-12T10:46:36Z</time></trkpt><trkpt lat="44.72570343415395" lon="7.817661094896094"><ele>275.0</ele><time>2026-04-12T10:46:38Z</time></trkpt><trkpt lat="44.72577444120512" lon="7.817625089986457"><ele>275.0</ele><time>2026-04-12T10:46:39.999Z</time></trkpt><trkpt lat="44.72583075694839" lon="7.817697731795738"><ele>275.0</ele><time>2026-04-12T10:46:41.999Z</time></trkpt><trkpt lat="44.72586094677924" lon="7.81778816256188"><ele>275.0</ele><time>2026-04-12T10:46:43.999Z</time></trkpt><trkpt lat="44.725905344939264" lon="7.817875862085101"><ele>275.0</ele><time>2026-04-12T10:46:45.999Z</time></trkpt><trkpt lat="44.7259514729059" lon="7.817974762252708"><ele>275.0</ele><time>2026-04-12T10:46:47.999Z</time></trkpt><trkpt lat="44.7260007079232" lon="7.818074734027579"><ele>275.0</ele><time>2026-04-12T10:46:49.999Z</time></trkpt><trkpt lat="44.72605026882947" lon="7.818157833962341"><ele>275.0</ele><time>2026-04-12T10:46:51.999Z</time></trkpt><trkpt lat="44.72610651909342" lon="7.818248593183806"><ele>275.0</ele><time>2026-04-12T10:46:53.999Z</time></trkpt><trkpt lat="44.72615241409946" lon="7.818327167914526"><ele>275.0</ele><time>2026-04-12T10:46:55.999Z</time></trkpt><trkpt lat="44.72619660351193" lon="7.818397111457692"><ele>275.0</ele><time>2026-04-12T10:46:57.999Z</time></trkpt><trkpt lat="44.72624087250032" lon="7.818486282939868"><ele>275.33333333333337</ele><time>2026-04-12T10:46:59.999Z</time></trkpt><trkpt lat="44.72629179934335" lon="7.818571821134308"><ele>275.6666666666667</ele><time>2026-04-12T10:47:01.999Z</time></trkpt><trkpt lat="44.72633971974143" lon="7.818656372184183"><ele>276.0</ele><time>2026-04-12T10:47:03.999Z</time></trkpt><trkpt lat="44.726384060655036" lon="7.818759087947731"><ele>276.3333333333333</ele><time>2026-04-12T10:47:05.999Z</time></trkpt><trkpt lat="44.72642762661595" lon="7.81882817460508"><ele>276.66666666666663</ele><time>2026-04-12T10:47:07.999Z</time></trkpt><trkpt lat="44.72647397082292" lon="7.818907899085812"><ele>277.0</ele><time>2026-04-12T10:47:09.999Z</time></trkpt><trkpt lat="44.72651936399979" lon="7.818987740345077"><ele>277.0</ele><time>2026-04-12T10:47:11.999Z</time></trkpt><trkpt lat="44.72656922170343" lon="7.819075870590982"><ele>277.0</ele><time>2026-04-12T10:47:14.999Z</time></trkpt><trkpt lat="44.726624506416975" lon="7.819152632574051"><ele>277.0</ele><time>2026-04-12T10:47:19.999Z</time></trkpt><trkpt lat="44.72669298852788" lon="7.819251169928848"><ele>277.0</ele><time>2026-04-12T10:47:22.999Z</time></trkpt><trkpt lat="44.72674955922973" lon="7.8193168011965"><ele>277.0</ele><time>2026-04-12T10:47:25.999Z</time></trkpt><trkpt lat="44.72679913021935" lon="7.819397178209448"><ele>277.0</ele><time>2026-04-12T10:47:28.999Z</time></trkpt><trkpt lat="44.72685704655515" lon="7.819500168490719"><ele>277.8333333333333</ele><time>2026-04-12T10:47:32Z</time></trkpt><trkpt lat="44.72690917501474" lon="7.8196124141911545"><ele>278.66666666666663</ele><time>2026-04-12T10:47:35Z</time></trkpt><trkpt lat="44.72695274821739" lon="7.819691939945702"><ele>279.5</ele><time>2026-04-12T10:47:37Z</time></trkpt><trkpt lat="44.72699789778451" lon="7.819767910813972"><ele>280.3333333333333</ele><time>2026-04-12T10:47:39Z</time></trkpt><trkpt lat="44.727044350252676" lon="7.819836154652699"><ele>281.1666666666667</ele><time>2026-04-12T10:47:41Z</time></trkpt><trkpt lat="44.72709997150592" lon="7.819941310219798"><ele>282.0</ele><time>2026-04-12T10:47:44Z</time></trkpt><trkpt lat="44.72715383588763" lon="7.820035498339197"><ele>282.0</ele><time>2026-04-12T10:47:47Z</time></trkpt><trkpt lat="44.72719529404454" lon="7.82013572825545"><ele>282.0</ele><time>2026-04-12T10:47:50Z</time></trkpt><trkpt lat="44.72724944526282" lon="7.820210266067041"><ele>282.0</ele><time>2026-04-12T10:47:53Z</time></trkpt><trkpt lat="44.72731941650732" lon="7.820218200635143"><ele>282.0</ele><time>2026-04-12T10:47:56Z</time></trkpt><trkpt lat="44.72739305807775" lon="7.820164257158951"><ele>282.0</ele><time>2026-04-12T10:47:59Z</time></trkpt><trkpt lat="44.72746482184359" lon="7.820103302840667"><ele>282.0</ele><time>2026-04-12T10:48:02Z</time></trkpt><trkpt lat="44.72753837734188" lon="7.820057531880223"><ele>282.0</ele><time>2026-04-12T10:48:05Z</time></trkpt><trkpt lat="44.72760913190858" lon="7.8200230102187716"><ele>282.0</ele><time>2026-04-12T10:48:08Z</time></trkpt><trkpt lat="44.72766836357094" lon="7.8199583986098755"><ele>282.0</ele><time>2026-04-12T10:48:11Z</time></trkpt><trkpt lat="44.72773717934907" lon="7.819902141849484"><ele>282.0</ele><time>2026-04-12T10:48:14Z</time></trkpt><trkpt lat="44.727801373291584" lon="7.81986126443142"><ele>282.0</ele><time>2026-04-12T10:48:17Z</time></trkpt><trkpt lat="44.72786740272392" lon="7.819839641608641"><ele>282.0</ele><time>2026-04-12T10:48:20Z</time></trkpt><trkpt lat="44.72793732590259" lon="7.819838848875382"><ele>282.0</ele><time>2026-04-12T10:48:23Z</time></trkpt><trkpt lat="44.72800426411218" lon="7.819862804653769"><ele>283.57142857142856</ele><time>2026-04-12T10:48:26Z</time></trkpt><trkpt lat="44.72806771932037" lon="7.8198781084062325"><ele>285.1428571428571</ele><time>2026-04-12T10:48:29Z</time></trkpt><trkpt lat="44.72813185018258" lon="7.819887352932521"><ele>286.71428571428567</ele><time>2026-04-12T10:48:32Z</time></trkpt><trkpt lat="44.728197554517536" lon="7.819900573315013"><ele>288.2857142857143</ele><time>2026-04-12T10:48:35Z</time></trkpt><trkpt lat="44.728275229181044" lon="7.819925417333091"><ele>289.85714285714283</ele><time>2026-04-12T10:48:39Z</time></trkpt><trkpt lat="44.72835456510321" lon="7.819952858545927"><ele>291.4285714285714</ele><time>2026-04-12T10:48:43Z</time></trkpt><trkpt lat="44.728436327379264" lon="7.819984152673551"><ele>293.0</ele><time>2026-04-12T10:48:46.999Z</time></trkpt><trkpt lat="44.72851096629783" lon="7.820003170883001"><ele>293.99999999999994</ele><time>2026-04-12T10:48:50.999Z</time></trkpt><trkpt lat="44.72857562571598" lon="7.820012358569369"><ele>295.0</ele><time>2026-04-12T10:48:54.999Z</time></trkpt><trkpt lat="44.72864670439495" lon="7.820036028476429"><ele>296.0</ele><time>2026-04-12T10:48:58.999Z</time></trkpt><trkpt lat="44.728728789707986" lon="7.820058163010552"><ele>297.0</ele><time>2026-04-12T10:49:03.999Z</time></trkpt><trkpt lat="44.728799182775916" lon="7.820073916224966"><ele>298.0</ele><time>2026-04-12T10:49:07.999Z</time></trkpt><trkpt lat="44.72887331572827" lon="7.820106146658369"><ele>298.99999999999994</ele><time>2026-04-12T10:49:11.999Z</time></trkpt><trkpt lat="44.72893235926228" lon="7.820152113485168"><ele>300.0</ele><time>2026-04-12T10:49:16.999Z</time></trkpt><trkpt lat="44.72899762975262" lon="7.820176855046811"><ele>303.0</ele><time>2026-04-12T10:49:20.999Z</time></trkpt><trkpt lat="44.72904894027443" lon="7.820267620271548"><ele>306.0</ele><time>2026-04-12T10:49:25.999Z</time></trkpt><trkpt lat="44.72904064333959" lon="7.820366625589654"><ele>309.0</ele><time>2026-04-12T10:49:30.999Z</time></trkpt><trkpt lat="44.72901037180091" lon="7.820462790103701"><ele>312.0</ele><time>2026-04-12T10:49:35.999Z</time></trkpt><trkpt lat="44.72896769467287" lon="7.820545071717339"><ele>315.0</ele><time>2026-04-12T10:49:41Z</time></trkpt><trkpt lat="44.72891546223463" lon="7.820617710355054"><ele>318.0</ele><time>2026-04-12T10:49:46Z</time></trkpt><trkpt lat="44.72885777867442" lon="7.820691635443485"><ele>318.0</ele><time>2026-04-12T10:49:51Z</time></trkpt><trkpt lat="44.728841121480365" lon="7.820794112930399"><ele>318.0</ele><time>2026-04-12T10:49:56Z</time></trkpt><trkpt lat="44.728813441436074" lon="7.820889591274963"><ele>318.0</ele><time>2026-04-12T10:50:00Z</time></trkpt><trkpt lat="44.72877557915168" lon="7.8209820967795505"><ele>318.0</ele><time>2026-04-12T10:50:05Z</time></trkpt><trkpt lat="44.7287139976206" lon="7.821024089575477"><ele>318.0</ele><time>2026-04-12T10:50:10Z</time></trkpt><trkpt lat="44.728686066609505" lon="7.821127134409031"><ele>318.0</ele><time>2026-04-12T10:50:16Z</time></trkpt><trkpt lat="44.72862815163885" lon="7.821168731728359"><ele>318.0</ele><time>2026-04-12T10:50:20Z</time></trkpt><trkpt lat="44.72857459840003" lon="7.821228627045478"><ele>317.7142857142857</ele><time>2026-04-12T10:50:25Z</time></trkpt><trkpt lat="44.728504499062936" lon="7.821280997682164"><ele>317.42857142857144</ele><time>2026-04-12T10:50:29Z</time></trkpt><trkpt lat="44.72844964376422" lon="7.8213280891335435"><ele>317.14285714285717</ele><time>2026-04-12T10:50:32Z</time></trkpt><trkpt lat="44.72838586392482" lon="7.821348744339798"><ele>316.8571428571429</ele><time>2026-04-12T10:50:35Z</time></trkpt><trkpt lat="44.72830182046656" lon="7.821382695860155"><ele>316.57142857142856</ele><time>2026-04-12T10:50:39Z</time></trkpt><trkpt lat="44.728237578214696" lon="7.821379537950795"><ele>316.28571428571433</ele><time>2026-04-12T10:50:42Z</time></trkpt><trkpt lat="44.72816411350765" lon="7.821388754243793"><ele>316.0</ele><time>2026-04-12T10:50:45Z</time></trkpt><trkpt lat="44.72808475714956" lon="7.821401372792268"><ele>316.00000000000006</ele><time>2026-04-12T10:50:48.999Z</time></trkpt><trkpt lat="44.728017450601435" lon="7.821413384662018"><ele>316.0</ele><time>2026-04-12T10:50:51.999Z</time></trkpt><trkpt lat="44.72795217418629" lon="7.821435251436639"><ele>316.0</ele><time>2026-04-12T10:50:55.999Z</time></trkpt><trkpt lat="44.72789290196853" lon="7.821484791240115"><ele>316.0</ele><time>2026-04-12T10:50:58.999Z</time></trkpt><trkpt lat="44.72783067134794" lon="7.821530931160158"><ele>316.0</ele><time>2026-04-12T10:51:01.999Z</time></trkpt><trkpt lat="44.727781126063284" lon="7.821589830057801"><ele>316.00000000000006</ele><time>2026-04-12T10:51:04.999Z</time></trkpt><trkpt lat="44.72771319769642" lon="7.821652057054391"><ele>316.0</ele><time>2026-04-12T10:51:08.999Z</time></trkpt><trkpt lat="44.72768377159658" lon="7.821754917324898"><ele>308.0</ele><time>2026-04-12T10:51:12.999Z</time></trkpt><trkpt lat="44.727724727400464" lon="7.821840850969684"><ele>320.0</ele><time>2026-04-12T10:51:16.999Z</time></trkpt><trkpt lat="44.72777160753823" lon="7.82190473925426"><ele>330.0</ele><time>2026-04-12T10:51:21.999Z</time></trkpt><trkpt lat="44.727822246582484" lon="7.8219799511873465"><ele>330.0</ele><time>2026-04-12T10:51:26.999Z</time></trkpt></trkseg></trk></gpx>